<?xml version="1.0" encoding="UTF-8"?>
<gpx version="1.1" creator="https://www.www-youtrack-es.amenigma.com" xsi:schemaLocation="http://www.topografix.com/GPX/1/1 http://www.topografix.com/GPX/1/1/gpx.xsd http://www.garmin.com/xmlschemas/GpxExtensions/v3 http://www.garmin.com/xmlschemas/GpxExtensionsv3.xsd http://www.garmin.com/xmlschemas/TrackPointExtension/v1 http://www.garmin.com/xmlschemas/TrackPointExtensionv1.xsd" xmlns:gpxtpx="http://www.garmin.com/xmlschemas/TrackPointExtension/v1" xmlns:gpxx="http://www.garmin.com/xmlschemas/GpxExtensions/v3" xmlns:xsi="http://www.w3.org/2001/XMLSchema-instance">
  <metadata>
    <author>
      <name>Jop P.</name>
      <email id="jop.personal" domain="gmail.com"/>
    </author>
    <link href="https://www.www-youtrack-es.amenigma.com">
      <text>YouTrack.es</text>
    </link>
    <time>2026-08-31T19:38:44Z</time>
  </metadata>
  <trk>
    <src>https://www.www-youtrack-es.amenigma.com</src>
    <link href="https://www.www-youtrack-es.amenigma.com/ruta/6963-valencia-asturias">
      <text>YouTrack.es</text>
    </link>
    <trkseg>
      <trkpt lat="39.49793829582631587982177734375" lon="-0.382997654378414154052734375">
        <ele>8.6000003814697265625</ele>
        <time>2019-07-07T07:43:39.000Z</time>
      </trkpt>
      <trkpt lat="39.49796277098357677459716796875" lon="-0.38294627331197261810302734375">
        <ele>8.3999996185302734375</ele>
        <time>2019-07-07T07:43:42.000Z</time>
      </trkpt>
      <trkpt lat="39.49794433079659938812255859375" lon="-0.38288458250463008880615234375">
        <ele>8.3999996185302734375</ele>
        <time>2019-07-07T07:43:44.000Z</time>
      </trkpt>
      <trkpt lat="39.49787534773349761962890625" lon="-0.382850803434848785400390625">
        <ele>8.19999980926513671875</ele>
        <time>2019-07-07T07:43:46.000Z</time>
      </trkpt>
      <trkpt lat="39.49776546098291873931884765625" lon="-0.38281383924186229705810546875">
        <ele>7.80000019073486328125</ele>
        <time>2019-07-07T07:43:48.000Z</time>
      </trkpt>
      <trkpt lat="39.4976290874183177947998046875" lon="-0.38275835104286670684814453125">
        <ele>7.400000095367431640625</ele>
        <time>2019-07-07T07:43:50.000Z</time>
      </trkpt>
      <trkpt lat="39.49719733558595180511474609375" lon="-0.38258836604654788970947265625">
        <ele>8.3999996185302734375</ele>
        <time>2019-07-07T07:43:58.000Z</time>
      </trkpt>
      <trkpt lat="39.49706641025841236114501953125" lon="-0.3825626336038112640380859375">
        <ele>8.3999996185302734375</ele>
        <time>2019-07-07T07:44:01.000Z</time>
      </trkpt>
      <trkpt lat="39.497007988393306732177734375" lon="-0.38262910209596157073974609375">
        <ele>8.19999980926513671875</ele>
        <time>2019-07-07T07:44:03.000Z</time>
      </trkpt>
      <trkpt lat="39.4969756342470645904541015625" lon="-0.38276254199445247650146484375">
        <ele>8.19999980926513671875</ele>
        <time>2019-07-07T07:44:05.000Z</time>
      </trkpt>
      <trkpt lat="39.4968458823859691619873046875" lon="-0.38336704485118389129638671875">
        <ele>9.19999980926513671875</ele>
        <time>2019-07-07T07:44:12.000Z</time>
      </trkpt>
      <trkpt lat="39.49672325514256954193115234375" lon="-0.383963249623775482177734375">
        <ele>9.80000019073486328125</ele>
        <time>2019-07-07T07:44:18.000Z</time>
      </trkpt>
      <trkpt lat="39.496651589870452880859375" lon="-0.38432409055531024932861328125">
        <ele>9.80000019073486328125</ele>
        <time>2019-07-07T07:44:23.000Z</time>
      </trkpt>
      <trkpt lat="39.49674655683338642120361328125" lon="-0.384409166872501373291015625">
        <ele>9.80000019073486328125</ele>
        <time>2019-07-07T07:44:26.000Z</time>
      </trkpt>
      <trkpt lat="39.49716112576425075531005859375" lon="-0.384597592055797576904296875">
        <ele>10</ele>
        <time>2019-07-07T07:44:41.000Z</time>
      </trkpt>
      <trkpt lat="39.49722399003803730010986328125" lon="-0.38459700532257556915283203125">
        <ele>9.6000003814697265625</ele>
        <time>2019-07-07T07:45:17.000Z</time>
      </trkpt>
      <trkpt lat="39.49740973301231861114501953125" lon="-0.38463237695395946502685546875">
        <ele>9.3999996185302734375</ele>
        <time>2019-07-07T07:45:20.000Z</time>
      </trkpt>
      <trkpt lat="39.4975563324987888336181640625" lon="-0.38459851406514644622802734375">
        <ele>9.19999980926513671875</ele>
        <time>2019-07-07T07:45:22.000Z</time>
      </trkpt>
      <trkpt lat="39.49792840518057346343994140625" lon="-0.38422987796366214752197265625">
        <ele>9.3999996185302734375</ele>
        <time>2019-07-07T07:45:37.000Z</time>
      </trkpt>
      <trkpt lat="39.4979673810303211212158203125" lon="-0.38409023545682430267333984375">
        <ele>9.19999980926513671875</ele>
        <time>2019-07-07T07:45:39.000Z</time>
      </trkpt>
      <trkpt lat="39.49810341931879520416259765625" lon="-0.38344432599842548370361328125">
        <ele>8.80000019073486328125</ele>
        <time>2019-07-07T07:45:45.000Z</time>
      </trkpt>
      <trkpt lat="39.49823451228439807891845703125" lon="-0.38286798633635044097900390625">
        <ele>8.19999980926513671875</ele>
        <time>2019-07-07T07:45:49.000Z</time>
      </trkpt>
      <trkpt lat="39.49837365187704563140869140625" lon="-0.3822246752679347991943359375">
        <ele>7.400000095367431640625</ele>
        <time>2019-07-07T07:45:54.000Z</time>
      </trkpt>
      <trkpt lat="39.4984528608620166778564453125" lon="-0.38183365948498249053955078125">
        <ele>7.19999980926513671875</ele>
        <time>2019-07-07T07:45:57.000Z</time>
      </trkpt>
      <trkpt lat="39.4985894858837127685546875" lon="-0.3812151588499546051025390625">
        <ele>7.19999980926513671875</ele>
        <time>2019-07-07T07:46:01.000Z</time>
      </trkpt>
      <trkpt lat="39.4987546093761920928955078125" lon="-0.38050244562327861785888671875">
        <ele>7.19999980926513671875</ele>
        <time>2019-07-07T07:46:05.000Z</time>
      </trkpt>
      <trkpt lat="39.49888645671308040618896484375" lon="-0.37991872988641262054443359375">
        <ele>6.400000095367431640625</ele>
        <time>2019-07-07T07:46:08.000Z</time>
      </trkpt>
      <trkpt lat="39.49900799430906772613525390625" lon="-0.37935865111649036407470703125">
        <ele>5.80000019073486328125</ele>
        <time>2019-07-07T07:46:11.000Z</time>
      </trkpt>
      <trkpt lat="39.49912634678184986114501953125" lon="-0.37879320792853832244873046875">
        <ele>4.80000019073486328125</ele>
        <time>2019-07-07T07:46:14.000Z</time>
      </trkpt>
      <trkpt lat="39.49922583997249603271484375" lon="-0.37816020660102367401123046875">
        <ele>4</ele>
        <time>2019-07-07T07:46:17.000Z</time>
      </trkpt>
      <trkpt lat="39.49925593100488185882568359375" lon="-0.3779395110905170440673828125">
        <ele>3.400000095367431640625</ele>
        <time>2019-07-07T07:46:18.000Z</time>
      </trkpt>
      <trkpt lat="39.49930630624294281005859375" lon="-0.37752854637801647186279296875">
        <ele>2.2000000476837158203125</ele>
        <time>2019-07-07T07:46:20.000Z</time>
      </trkpt>
      <trkpt lat="39.499350897967815399169921875" lon="-0.37694089114665985107421875">
        <ele>1.60000002384185791015625</ele>
        <time>2019-07-07T07:46:23.000Z</time>
      </trkpt>
      <trkpt lat="39.49938006699085235595703125" lon="-0.37629171274602413177490234375">
        <ele>2.599999904632568359375</ele>
        <time>2019-07-07T07:46:26.000Z</time>
      </trkpt>
      <trkpt lat="39.499370343983173370361328125" lon="-0.375805981457233428955078125">
        <ele>3.7999999523162841796875</ele>
        <time>2019-07-07T07:46:28.000Z</time>
      </trkpt>
      <trkpt lat="39.49930496513843536376953125" lon="-0.37505957297980785369873046875">
        <ele>4</ele>
        <time>2019-07-07T07:46:31.000Z</time>
      </trkpt>
      <trkpt lat="39.49923179112374782562255859375" lon="-0.3745934553444385528564453125">
        <ele>2.400000095367431640625</ele>
        <time>2019-07-07T07:46:33.000Z</time>
      </trkpt>
      <trkpt lat="39.4991344772279262542724609375" lon="-0.3741468675434589385986328125">
        <ele>1.2000000476837158203125</ele>
        <time>2019-07-07T07:46:35.000Z</time>
      </trkpt>
      <trkpt lat="39.49896926991641521453857421875" lon="-0.37349785678088665008544921875">
        <ele>2.400000095367431640625</ele>
        <time>2019-07-07T07:46:38.000Z</time>
      </trkpt>
      <trkpt lat="39.49884857051074504852294921875" lon="-0.3730837069451808929443359375">
        <ele>3.599999904632568359375</ele>
        <time>2019-07-07T07:46:40.000Z</time>
      </trkpt>
      <trkpt lat="39.498670957982540130615234375" lon="-0.37247593514621257781982421875">
        <ele>3.400000095367431640625</ele>
        <time>2019-07-07T07:46:43.000Z</time>
      </trkpt>
      <trkpt lat="39.498555958271026611328125" lon="-0.37207268178462982177734375">
        <ele>2.2000000476837158203125</ele>
        <time>2019-07-07T07:46:45.000Z</time>
      </trkpt>
      <trkpt lat="39.4984404556453227996826171875" lon="-0.37168803624808788299560546875">
        <ele>-0.60000002384185791015625</ele>
        <time>2019-07-07T07:46:47.000Z</time>
      </trkpt>
      <trkpt lat="39.49839033186435699462890625" lon="-0.3715033829212188720703125">
        <ele>-2.2000000476837158203125</ele>
        <time>2019-07-07T07:46:48.000Z</time>
      </trkpt>
      <trkpt lat="39.4983428902924060821533203125" lon="-0.3713245131075382232666015625">
        <ele>-4.400000095367431640625</ele>
        <time>2019-07-07T07:46:49.000Z</time>
      </trkpt>
      <trkpt lat="39.49829000048339366912841796875" lon="-0.37114673294126987457275390625">
        <ele>-6.19999980926513671875</ele>
        <time>2019-07-07T07:46:50.000Z</time>
      </trkpt>
      <trkpt lat="39.4982339255511760711669921875" lon="-0.3709627501666545867919921875">
        <ele>-7.19999980926513671875</ele>
        <time>2019-07-07T07:46:51.000Z</time>
      </trkpt>
      <trkpt lat="39.49806754477322101593017578125" lon="-0.3704145736992359161376953125">
        <ele>-7.599999904632568359375</ele>
        <time>2019-07-07T07:46:54.000Z</time>
      </trkpt>
      <trkpt lat="39.49790711514651775360107421875" lon="-0.369818620383739471435546875">
        <ele>-7.599999904632568359375</ele>
        <time>2019-07-07T07:46:57.000Z</time>
      </trkpt>
      <trkpt lat="39.4971513189375400543212890625" lon="-0.368808768689632415771484375">
        <ele>-3.7999999523162841796875</ele>
        <time>2019-07-07T07:47:04.000Z</time>
      </trkpt>
      <trkpt lat="39.49736413545906543731689453125" lon="-0.368122123181819915771484375">
        <ele>-4.400000095367431640625</ele>
        <time>2019-07-07T07:47:08.000Z</time>
      </trkpt>
      <trkpt lat="39.49723161756992340087890625" lon="-0.36756179295480251312255859375">
        <ele>-3.599999904632568359375</ele>
        <time>2019-07-07T07:47:11.000Z</time>
      </trkpt>
      <trkpt lat="39.49707646854221820831298828125" lon="-0.366998948156833648681640625">
        <ele>-2.2000000476837158203125</ele>
        <time>2019-07-07T07:47:14.000Z</time>
      </trkpt>
      <trkpt lat="39.49696079827845096588134765625" lon="-0.3665935993194580078125">
        <ele>-1.2000000476837158203125</ele>
        <time>2019-07-07T07:47:16.000Z</time>
      </trkpt>
      <trkpt lat="39.4967902265489101409912109375" lon="-0.3659351170063018798828125">
        <ele>-0.20000000298023223876953125</ele>
        <time>2019-07-07T07:47:19.000Z</time>
      </trkpt>
      <trkpt lat="39.4967339001595973968505859375" lon="-0.36571039818227291107177734375">
        <ele>-0.20000000298023223876953125</ele>
        <time>2019-07-07T07:47:20.000Z</time>
      </trkpt>
      <trkpt lat="39.4965598918497562408447265625" lon="-0.36505476571619510650634765625">
        <ele>-1.2000000476837158203125</ele>
        <time>2019-07-07T07:47:23.000Z</time>
      </trkpt>
      <trkpt lat="39.49643994681537151336669921875" lon="-0.36465930752456188201904296875">
        <ele>-2.2000000476837158203125</ele>
        <time>2019-07-07T07:47:25.000Z</time>
      </trkpt>
      <trkpt lat="39.49623023159801959991455078125" lon="-0.36398305557668209075927734375">
        <ele>-2.400000095367431640625</ele>
        <time>2019-07-07T07:47:29.000Z</time>
      </trkpt>
      <trkpt lat="39.4961418025195598602294921875" lon="-0.363688431680202484130859375">
        <ele>-0.20000000298023223876953125</ele>
        <time>2019-07-07T07:47:31.000Z</time>
      </trkpt>
      <trkpt lat="39.4961012341082096099853515625" lon="-0.36355138756334781646728515625">
        <ele>0.800000011920928955078125</ele>
        <time>2019-07-07T07:47:32.000Z</time>
      </trkpt>
      <trkpt lat="39.49597257189452648162841796875" lon="-0.36312122829258441925048828125">
        <ele>2</ele>
        <time>2019-07-07T07:47:35.000Z</time>
      </trkpt>
      <trkpt lat="39.495762102305889129638671875" lon="-0.3624423779547214508056640625">
        <ele>1.7999999523162841796875</ele>
        <time>2019-07-07T07:47:39.000Z</time>
      </trkpt>
      <trkpt lat="39.4955969788134098052978515625" lon="-0.36187626421451568603515625">
        <ele>0.4000000059604644775390625</ele>
        <time>2019-07-07T07:47:42.000Z</time>
      </trkpt>
      <trkpt lat="39.495433531701564788818359375" lon="-0.36132163368165493011474609375">
        <ele>-0.20000000298023223876953125</ele>
        <time>2019-07-07T07:47:45.000Z</time>
      </trkpt>
      <trkpt lat="39.495233707129955291748046875" lon="-0.36062845028936862945556640625">
        <ele>1.60000002384185791015625</ele>
        <time>2019-07-07T07:47:49.000Z</time>
      </trkpt>
      <trkpt lat="39.4950508140027523040771484375" lon="-0.35994582809507846832275390625">
        <ele>2</ele>
        <time>2019-07-07T07:47:53.000Z</time>
      </trkpt>
      <trkpt lat="39.49487085454165935516357421875" lon="-0.35934886895120143890380859375">
        <ele>0.800000011920928955078125</ele>
        <time>2019-07-07T07:47:56.000Z</time>
      </trkpt>
      <trkpt lat="39.4948090799152851104736328125" lon="-0.3591690771281719207763671875">
        <ele>-0.20000000298023223876953125</ele>
        <time>2019-07-07T07:47:57.000Z</time>
      </trkpt>
      <trkpt lat="39.494706653058528900146484375" lon="-0.35887763835489749908447265625">
        <ele>-1.39999997615814208984375</ele>
        <time>2019-07-07T07:47:59.000Z</time>
      </trkpt>
      <trkpt lat="39.4946038909256458282470703125" lon="-0.35857471637427806854248046875">
        <ele>-0.20000000298023223876953125</ele>
        <time>2019-07-07T07:48:04.000Z</time>
      </trkpt>
      <trkpt lat="39.494620822370052337646484375" lon="-0.35857086069881916046142578125">
        <ele>0.800000011920928955078125</ele>
        <time>2019-07-07T07:48:10.000Z</time>
      </trkpt>
      <trkpt lat="39.49458402581512928009033203125" lon="-0.35848997533321380615234375">
        <ele>1.39999997615814208984375</ele>
        <time>2019-07-07T07:48:49.000Z</time>
      </trkpt>
      <trkpt lat="39.49437129311263561248779296875" lon="-0.35830314271152019500732421875">
        <ele>1</ele>
        <time>2019-07-07T07:48:52.000Z</time>
      </trkpt>
      <trkpt lat="39.494071304798126220703125" lon="-0.35816484130918979644775390625">
        <ele>0.4000000059604644775390625</ele>
        <time>2019-07-07T07:48:55.000Z</time>
      </trkpt>
      <trkpt lat="39.4939068518579006195068359375" lon="-0.3579929284751415252685546875">
        <ele>0</ele>
        <time>2019-07-07T07:48:57.000Z</time>
      </trkpt>
      <trkpt lat="39.4938139803707599639892578125" lon="-0.357728563249111175537109375">
        <ele>0</ele>
        <time>2019-07-07T07:48:59.000Z</time>
      </trkpt>
      <trkpt lat="39.49373762123286724090576171875" lon="-0.3572606854140758514404296875">
        <ele>0</ele>
        <time>2019-07-07T07:49:02.000Z</time>
      </trkpt>
      <trkpt lat="39.4936051033437252044677734375" lon="-0.35699372179806232452392578125">
        <ele>-0.20000000298023223876953125</ele>
        <time>2019-07-07T07:49:04.000Z</time>
      </trkpt>
      <trkpt lat="39.49350259266793727874755859375" lon="-0.35689045675098896026611328125">
        <ele>-0.4000000059604644775390625</ele>
        <time>2019-07-07T07:49:05.000Z</time>
      </trkpt>
      <trkpt lat="39.49299397878348827362060546875" lon="-0.35652416758239269256591796875">
        <ele>-0.800000011920928955078125</ele>
        <time>2019-07-07T07:49:09.000Z</time>
      </trkpt>
      <trkpt lat="39.4926991872489452362060546875" lon="-0.3563138656318187713623046875">
        <ele>-1.7999999523162841796875</ele>
        <time>2019-07-07T07:49:11.000Z</time>
      </trkpt>
      <trkpt lat="39.49254940263926982879638671875" lon="-0.35620464943349361419677734375">
        <ele>-2.7999999523162841796875</ele>
        <time>2019-07-07T07:49:12.000Z</time>
      </trkpt>
      <trkpt lat="39.492252431809902191162109375" lon="-0.3559923358261585235595703125">
        <ele>-3.7999999523162841796875</ele>
        <time>2019-07-07T07:49:14.000Z</time>
      </trkpt>
      <trkpt lat="39.49182420037686824798583984375" lon="-0.35568396560847759246826171875">
        <ele>-4.80000019073486328125</ele>
        <time>2019-07-07T07:49:17.000Z</time>
      </trkpt>
      <trkpt lat="39.49138599447906017303466796875" lon="-0.35536377690732479095458984375">
        <ele>-5.19999980926513671875</ele>
        <time>2019-07-07T07:49:20.000Z</time>
      </trkpt>
      <trkpt lat="39.490950219333171844482421875" lon="-0.3550492040812969207763671875">
        <ele>-5.19999980926513671875</ele>
        <time>2019-07-07T07:49:23.000Z</time>
      </trkpt>
      <trkpt lat="39.49067604728043079376220703125" lon="-0.35484845750033855438232421875">
        <ele>-3.7999999523162841796875</ele>
        <time>2019-07-07T07:49:25.000Z</time>
      </trkpt>
      <trkpt lat="39.49027690105140209197998046875" lon="-0.3545526601374149322509765625">
        <ele>-3.2000000476837158203125</ele>
        <time>2019-07-07T07:49:28.000Z</time>
      </trkpt>
      <trkpt lat="39.489884041249752044677734375" lon="-0.354257114231586456298828125">
        <ele>-3.2000000476837158203125</ele>
        <time>2019-07-07T07:49:31.000Z</time>
      </trkpt>
      <trkpt lat="39.48949067853391170501708984375" lon="-0.35396575927734375">
        <ele>-3.400000095367431640625</ele>
        <time>2019-07-07T07:49:34.000Z</time>
      </trkpt>
      <trkpt lat="39.48904660530388355255126953125" lon="-0.35363559611141681671142578125">
        <ele>-3.400000095367431640625</ele>
        <time>2019-07-07T07:49:38.000Z</time>
      </trkpt>
      <trkpt lat="39.4887888617813587188720703125" lon="-0.353442728519439697265625">
        <ele>-2.599999904632568359375</ele>
        <time>2019-07-07T07:49:42.000Z</time>
      </trkpt>
      <trkpt lat="39.48868350125849246978759765625" lon="-0.353361926972866058349609375">
        <ele>-1.39999997615814208984375</ele>
        <time>2019-07-07T07:49:45.000Z</time>
      </trkpt>
      <trkpt lat="39.4885333813726902008056640625" lon="-0.3532769344747066497802734375">
        <ele>-1.2000000476837158203125</ele>
        <time>2019-07-07T07:49:48.000Z</time>
      </trkpt>
      <trkpt lat="39.4884059764444828033447265625" lon="-0.3532866574823856353759765625">
        <ele>-1.2000000476837158203125</ele>
        <time>2019-07-07T07:49:50.000Z</time>
      </trkpt>
      <trkpt lat="39.4882671721279621124267578125" lon="-0.3533584065735340118408203125">
        <ele>-1.2000000476837158203125</ele>
        <time>2019-07-07T07:49:52.000Z</time>
      </trkpt>
      <trkpt lat="39.48813716880977153778076171875" lon="-0.353415571153163909912109375">
        <ele>-1.39999997615814208984375</ele>
        <time>2019-07-07T07:49:54.000Z</time>
      </trkpt>
      <trkpt lat="39.4879912398755550384521484375" lon="-0.353383719921112060546875">
        <ele>-1.39999997615814208984375</ele>
        <time>2019-07-07T07:49:56.000Z</time>
      </trkpt>
      <trkpt lat="39.4878500886261463165283203125" lon="-0.35325069911777973175048828125">
        <ele>-1.7999999523162841796875</ele>
        <time>2019-07-07T07:49:58.000Z</time>
      </trkpt>
      <trkpt lat="39.4877025671303272247314453125" lon="-0.35294962115585803985595703125">
        <ele>-1.60000002384185791015625</ele>
        <time>2019-07-07T07:50:01.000Z</time>
      </trkpt>
      <trkpt lat="39.4875537045300006866455078125" lon="-0.352785587310791015625">
        <ele>-1.60000002384185791015625</ele>
        <time>2019-07-07T07:50:03.000Z</time>
      </trkpt>
      <trkpt lat="39.48698784224689006805419921875" lon="-0.3525991737842559814453125">
        <ele>-1</ele>
        <time>2019-07-07T07:50:07.000Z</time>
      </trkpt>
      <trkpt lat="39.4865002669394016265869140625" lon="-0.35247956402599811553955078125">
        <ele>-2.2000000476837158203125</ele>
        <time>2019-07-07T07:50:10.000Z</time>
      </trkpt>
      <trkpt lat="39.4863537512719631195068359375" lon="-0.352443270385265350341796875">
        <ele>-2.7999999523162841796875</ele>
        <time>2019-07-07T07:50:11.000Z</time>
      </trkpt>
      <trkpt lat="39.48590674437582492828369140625" lon="-0.3523441962897777557373046875">
        <ele>-3.400000095367431640625</ele>
        <time>2019-07-07T07:50:14.000Z</time>
      </trkpt>
      <trkpt lat="39.485439956188201904296875" lon="-0.35223011858761310577392578125">
        <ele>-3</ele>
        <time>2019-07-07T07:50:17.000Z</time>
      </trkpt>
      <trkpt lat="39.48496746830642223358154296875" lon="-0.35210757516324520111083984375">
        <ele>-2.400000095367431640625</ele>
        <time>2019-07-07T07:50:20.000Z</time>
      </trkpt>
      <trkpt lat="39.4844835810363292694091796875" lon="-0.3519921563565731048583984375">
        <ele>-1.7999999523162841796875</ele>
        <time>2019-07-07T07:50:23.000Z</time>
      </trkpt>
      <trkpt lat="39.48431569151580333709716796875" lon="-0.3519529290497303009033203125">
        <ele>-1.60000002384185791015625</ele>
        <time>2019-07-07T07:50:24.000Z</time>
      </trkpt>
      <trkpt lat="39.4838106818497180938720703125" lon="-0.351818315684795379638671875">
        <ele>-1.2000000476837158203125</ele>
        <time>2019-07-07T07:50:27.000Z</time>
      </trkpt>
      <trkpt lat="39.48333433829247951507568359375" lon="-0.35169132985174655914306640625">
        <ele>-2.2000000476837158203125</ele>
        <time>2019-07-07T07:50:30.000Z</time>
      </trkpt>
      <trkpt lat="39.48317407630383968353271484375" lon="-0.35164137370884418487548828125">
        <ele>-3</ele>
        <time>2019-07-07T07:50:31.000Z</time>
      </trkpt>
      <trkpt lat="39.48286042548716068267822265625" lon="-0.35156258381903171539306640625">
        <ele>-4</ele>
        <time>2019-07-07T07:50:33.000Z</time>
      </trkpt>
      <trkpt lat="39.48243965394794940948486328125" lon="-0.3514754958450794219970703125">
        <ele>-4.19999980926513671875</ele>
        <time>2019-07-07T07:50:36.000Z</time>
      </trkpt>
      <trkpt lat="39.48221283964812755584716796875" lon="-0.3515277989208698272705078125">
        <ele>-3.2000000476837158203125</ele>
        <time>2019-07-07T07:50:38.000Z</time>
      </trkpt>
      <trkpt lat="39.4821265898644924163818359375" lon="-0.35158923827111721038818359375">
        <ele>-2.7999999523162841796875</ele>
        <time>2019-07-07T07:50:39.000Z</time>
      </trkpt>
      <trkpt lat="39.48206012137234210968017578125" lon="-0.35165176726877689361572265625">
        <ele>-2.400000095367431640625</ele>
        <time>2019-07-07T07:50:40.000Z</time>
      </trkpt>
      <trkpt lat="39.48198116384446620941162109375" lon="-0.3517551161348819732666015625">
        <ele>-1.7999999523162841796875</ele>
        <time>2019-07-07T07:50:42.000Z</time>
      </trkpt>
      <trkpt lat="39.4819224067032337188720703125" lon="-0.35181571729481220245361328125">
        <ele>-0.60000002384185791015625</ele>
        <time>2019-07-07T07:50:45.000Z</time>
      </trkpt>
      <trkpt lat="39.48180967010557651519775390625" lon="-0.3518982790410518646240234375">
        <ele>0.20000000298023223876953125</ele>
        <time>2019-07-07T07:50:58.000Z</time>
      </trkpt>
      <trkpt lat="39.4816862046718597412109375" lon="-0.3519532643258571624755859375">
        <ele>0</ele>
        <time>2019-07-07T07:51:00.000Z</time>
      </trkpt>
      <trkpt lat="39.48154211975634098052978515625" lon="-0.3519629873335361480712890625">
        <ele>-0.20000000298023223876953125</ele>
        <time>2019-07-07T07:51:02.000Z</time>
      </trkpt>
      <trkpt lat="39.48140499182045459747314453125" lon="-0.351919569075107574462890625">
        <ele>-0.4000000059604644775390625</ele>
        <time>2019-07-07T07:51:04.000Z</time>
      </trkpt>
      <trkpt lat="39.48129200376570224761962890625" lon="-0.35182602703571319580078125">
        <ele>-0.20000000298023223876953125</ele>
        <time>2019-07-07T07:51:06.000Z</time>
      </trkpt>
      <trkpt lat="39.48117993772029876708984375" lon="-0.35162460990250110626220703125">
        <ele>-0.20000000298023223876953125</ele>
        <time>2019-07-07T07:51:09.000Z</time>
      </trkpt>
      <trkpt lat="39.48113459162414073944091796875" lon="-0.35142981447279453277587890625">
        <ele>-0.20000000298023223876953125</ele>
        <time>2019-07-07T07:51:11.000Z</time>
      </trkpt>
      <trkpt lat="39.48114548809826374053955078125" lon="-0.35115656442940235137939453125">
        <ele>-0.20000000298023223876953125</ele>
        <time>2019-07-07T07:51:13.000Z</time>
      </trkpt>
      <trkpt lat="39.4812592305243015289306640625" lon="-0.35087786614894866943359375">
        <ele>-0.20000000298023223876953125</ele>
        <time>2019-07-07T07:51:15.000Z</time>
      </trkpt>
      <trkpt lat="39.4814724661409854888916015625" lon="-0.3506517224013805389404296875">
        <ele>-0.4000000059604644775390625</ele>
        <time>2019-07-07T07:51:17.000Z</time>
      </trkpt>
      <trkpt lat="39.481868259608745574951171875" lon="-0.35031192004680633544921875">
        <ele>-0.60000002384185791015625</ele>
        <time>2019-07-07T07:51:20.000Z</time>
      </trkpt>
      <trkpt lat="39.48199021629989147186279296875" lon="-0.3501746244728565216064453125">
        <ele>-0.60000002384185791015625</ele>
        <time>2019-07-07T07:51:21.000Z</time>
      </trkpt>
      <trkpt lat="39.4823334552347660064697265625" lon="-0.34969258122146129608154296875">
        <ele>0</ele>
        <time>2019-07-07T07:51:24.000Z</time>
      </trkpt>
      <trkpt lat="39.48268021456897258758544921875" lon="-0.3491791896522045135498046875">
        <ele>-0.4000000059604644775390625</ele>
        <time>2019-07-07T07:51:27.000Z</time>
      </trkpt>
      <trkpt lat="39.4830532930791378021240234375" lon="-0.3486528061330318450927734375">
        <ele>-0.60000002384185791015625</ele>
        <time>2019-07-07T07:51:30.000Z</time>
      </trkpt>
      <trkpt lat="39.4834542833268642425537109375" lon="-0.348107479512691497802734375">
        <ele>0.800000011920928955078125</ele>
        <time>2019-07-07T07:51:33.000Z</time>
      </trkpt>
      <trkpt lat="39.4838727079331874847412109375" lon="-0.3475329838693141937255859375">
        <ele>-1</ele>
        <time>2019-07-07T07:51:36.000Z</time>
      </trkpt>
      <trkpt lat="39.48428467847406864166259765625" lon="-0.34694113768637180328369140625">
        <ele>0.20000000298023223876953125</ele>
        <time>2019-07-07T07:51:39.000Z</time>
      </trkpt>
      <trkpt lat="39.48467795737087726593017578125" lon="-0.3463576734066009521484375">
        <ele>2</ele>
        <time>2019-07-07T07:51:42.000Z</time>
      </trkpt>
      <trkpt lat="39.4850669614970684051513671875" lon="-0.345784686505794525146484375">
        <ele>3</ele>
        <time>2019-07-07T07:51:45.000Z</time>
      </trkpt>
      <trkpt lat="39.4854454882442951202392578125" lon="-0.3452118672430515289306640625">
        <ele>1.7999999523162841796875</ele>
        <time>2019-07-07T07:51:48.000Z</time>
      </trkpt>
      <trkpt lat="39.4858166389167308807373046875" lon="-0.3446429036557674407958984375">
        <ele>1.60000002384185791015625</ele>
        <time>2019-07-07T07:51:51.000Z</time>
      </trkpt>
      <trkpt lat="39.486188627779483795166015625" lon="-0.34407176077365875244140625">
        <ele>1.7999999523162841796875</ele>
        <time>2019-07-07T07:51:54.000Z</time>
      </trkpt>
      <trkpt lat="39.48658903129398822784423828125" lon="-0.34345678053796291351318359375">
        <ele>1.7999999523162841796875</ele>
        <time>2019-07-07T07:51:57.000Z</time>
      </trkpt>
      <trkpt lat="39.486902095377445220947265625" lon="-0.34299711696803569793701171875">
        <ele>1.2000000476837158203125</ele>
        <time>2019-07-07T07:51:59.000Z</time>
      </trkpt>
      <trkpt lat="39.487073086202144622802734375" lon="-0.3427495993673801422119140625">
        <ele>0.60000002384185791015625</ele>
        <time>2019-07-07T07:52:00.000Z</time>
      </trkpt>
      <trkpt lat="39.487433843314647674560546875" lon="-0.342223383486270904541015625">
        <ele>0.4000000059604644775390625</ele>
        <time>2019-07-07T07:52:02.000Z</time>
      </trkpt>
      <trkpt lat="39.48779585771262645721435546875" lon="-0.3416686691343784332275390625">
        <ele>-0.800000011920928955078125</ele>
        <time>2019-07-07T07:52:04.000Z</time>
      </trkpt>
      <trkpt lat="39.48814387433230876922607421875" lon="-0.34111705608665943145751953125">
        <ele>-2.2000000476837158203125</ele>
        <time>2019-07-07T07:52:06.000Z</time>
      </trkpt>
      <trkpt lat="39.48848971165716648101806640625" lon="-0.34058698453009128570556640625">
        <ele>-3.599999904632568359375</ele>
        <time>2019-07-07T07:52:08.000Z</time>
      </trkpt>
      <trkpt lat="39.48865969665348529815673828125" lon="-0.34032463096082210540771484375">
        <ele>-5.19999980926513671875</ele>
        <time>2019-07-07T07:52:09.000Z</time>
      </trkpt>
      <trkpt lat="39.4889870099723339080810546875" lon="-0.339801013469696044921875">
        <ele>-5.599999904632568359375</ele>
        <time>2019-07-07T07:52:11.000Z</time>
      </trkpt>
      <trkpt lat="39.48930594138801097869873046875" lon="-0.33929265104234218597412109375">
        <ele>-7.19999980926513671875</ele>
        <time>2019-07-07T07:52:13.000Z</time>
      </trkpt>
      <trkpt lat="39.48946653865277767181396484375" lon="-0.33904354088008403778076171875">
        <ele>-9</ele>
        <time>2019-07-07T07:52:14.000Z</time>
      </trkpt>
      <trkpt lat="39.48978312313556671142578125" lon="-0.3385522775352001190185546875">
        <ele>-8</ele>
        <time>2019-07-07T07:52:16.000Z</time>
      </trkpt>
      <trkpt lat="39.489935673773288726806640625" lon="-0.33831515349447727203369140625">
        <ele>-7.599999904632568359375</ele>
        <time>2019-07-07T07:52:17.000Z</time>
      </trkpt>
      <trkpt lat="39.49022795073688030242919921875" lon="-0.33785817213356494903564453125">
        <ele>-6.400000095367431640625</ele>
        <time>2019-07-07T07:52:19.000Z</time>
      </trkpt>
      <trkpt lat="39.49037463404238224029541015625" lon="-0.3376262448728084564208984375">
        <ele>-5</ele>
        <time>2019-07-07T07:52:20.000Z</time>
      </trkpt>
      <trkpt lat="39.49052165262401103973388671875" lon="-0.33738861791789531707763671875">
        <ele>-4</ele>
        <time>2019-07-07T07:52:21.000Z</time>
      </trkpt>
      <trkpt lat="39.49066816829144954681396484375" lon="-0.33714470453560352325439453125">
        <ele>-2.7999999523162841796875</ele>
        <time>2019-07-07T07:52:22.000Z</time>
      </trkpt>
      <trkpt lat="39.49095516465604305267333984375" lon="-0.33663533627986907958984375">
        <ele>-1.2000000476837158203125</ele>
        <time>2019-07-07T07:52:24.000Z</time>
      </trkpt>
      <trkpt lat="39.4912410713732242584228515625" lon="-0.33609964884817600250244140625">
        <ele>-1.60000002384185791015625</ele>
        <time>2019-07-07T07:52:26.000Z</time>
      </trkpt>
      <trkpt lat="39.491532258689403533935546875" lon="-0.33553152345120906829833984375">
        <ele>-1.39999997615814208984375</ele>
        <time>2019-07-07T07:52:28.000Z</time>
      </trkpt>
      <trkpt lat="39.491836018860340118408203125" lon="-0.33493774943053722381591796875">
        <ele>-1.2000000476837158203125</ele>
        <time>2019-07-07T07:52:30.000Z</time>
      </trkpt>
      <trkpt lat="39.492152519524097442626953125" lon="-0.3343204222619533538818359375">
        <ele>-1</ele>
        <time>2019-07-07T07:52:32.000Z</time>
      </trkpt>
      <trkpt lat="39.4923142902553081512451171875" lon="-0.3340052627027034759521484375">
        <ele>-0.20000000298023223876953125</ele>
        <time>2019-07-07T07:52:33.000Z</time>
      </trkpt>
      <trkpt lat="39.4926371611654758453369140625" lon="-0.3333784639835357666015625">
        <ele>-2.7999999523162841796875</ele>
        <time>2019-07-07T07:52:35.000Z</time>
      </trkpt>
      <trkpt lat="39.492943100631237030029296875" lon="-0.3327831812202930450439453125">
        <ele>-3</ele>
        <time>2019-07-07T07:52:37.000Z</time>
      </trkpt>
      <trkpt lat="39.49323588050901889801025390625" lon="-0.33220659010112285614013671875">
        <ele>-3.400000095367431640625</ele>
        <time>2019-07-07T07:52:39.000Z</time>
      </trkpt>
      <trkpt lat="39.49352287687361240386962890625" lon="-0.33164936117827892303466796875">
        <ele>-2.599999904632568359375</ele>
        <time>2019-07-07T07:52:41.000Z</time>
      </trkpt>
      <trkpt lat="39.4936647824943065643310546875" lon="-0.3313750214874744415283203125">
        <ele>-1.60000002384185791015625</ele>
        <time>2019-07-07T07:52:42.000Z</time>
      </trkpt>
      <trkpt lat="39.493944235146045684814453125" lon="-0.3308303654193878173828125">
        <ele>0.4000000059604644775390625</ele>
        <time>2019-07-07T07:52:44.000Z</time>
      </trkpt>
      <trkpt lat="39.49421941302716732025146484375" lon="-0.33029082231223583221435546875">
        <ele>1.60000002384185791015625</ele>
        <time>2019-07-07T07:52:46.000Z</time>
      </trkpt>
      <trkpt lat="39.49448637664318084716796875" lon="-0.32976510934531688690185546875">
        <ele>2</ele>
        <time>2019-07-07T07:52:48.000Z</time>
      </trkpt>
      <trkpt lat="39.49475401081144809722900390625" lon="-0.32924090512096881866455078125">
        <ele>2.599999904632568359375</ele>
        <time>2019-07-07T07:52:50.000Z</time>
      </trkpt>
      <trkpt lat="39.495035894215106964111328125" lon="-0.3287156112492084503173828125">
        <ele>2.2000000476837158203125</ele>
        <time>2019-07-07T07:52:52.000Z</time>
      </trkpt>
      <trkpt lat="39.49533663690090179443359375" lon="-0.3281925804913043975830078125">
        <ele>1.2000000476837158203125</ele>
        <time>2019-07-07T07:52:54.000Z</time>
      </trkpt>
      <trkpt lat="39.4956797920167446136474609375" lon="-0.32770819030702114105224609375">
        <ele>-0.60000002384185791015625</ele>
        <time>2019-07-07T07:52:56.000Z</time>
      </trkpt>
      <trkpt lat="39.4958628527820110321044921875" lon="-0.3274910151958465576171875">
        <ele>-2.599999904632568359375</ele>
        <time>2019-07-07T07:52:57.000Z</time>
      </trkpt>
      <trkpt lat="39.49605018831789493560791015625" lon="-0.32728875987231731414794921875">
        <ele>-4.599999904632568359375</ele>
        <time>2019-07-07T07:52:58.000Z</time>
      </trkpt>
      <trkpt lat="39.4962437264621257781982421875" lon="-0.327098406851291656494140625">
        <ele>-6.19999980926513671875</ele>
        <time>2019-07-07T07:52:59.000Z</time>
      </trkpt>
      <trkpt lat="39.496647901833057403564453125" lon="-0.32675365917384624481201171875">
        <ele>-8.19999980926513671875</ele>
        <time>2019-07-07T07:53:01.000Z</time>
      </trkpt>
      <trkpt lat="39.4970691762864589691162109375" lon="-0.326467417180538177490234375">
        <ele>-9</ele>
        <time>2019-07-07T07:53:03.000Z</time>
      </trkpt>
      <trkpt lat="39.4972830824553966522216796875" lon="-0.32634395174682140350341796875">
        <ele>-9.3999996185302734375</ele>
        <time>2019-07-07T07:53:04.000Z</time>
      </trkpt>
      <trkpt lat="39.49771868996322154998779296875" lon="-0.32612484879791736602783203125">
        <ele>-8.6000003814697265625</ele>
        <time>2019-07-07T07:53:06.000Z</time>
      </trkpt>
      <trkpt lat="39.4979425705969333648681640625" lon="-0.32603390514850616455078125">
        <ele>-7.599999904632568359375</ele>
        <time>2019-07-07T07:53:07.000Z</time>
      </trkpt>
      <trkpt lat="39.49839678592979907989501953125" lon="-0.3258912451565265655517578125">
        <ele>-6.80000019073486328125</ele>
        <time>2019-07-07T07:53:09.000Z</time>
      </trkpt>
      <trkpt lat="39.49885007925331592559814453125" lon="-0.3258039057254791259765625">
        <ele>-6.400000095367431640625</ele>
        <time>2019-07-07T07:53:11.000Z</time>
      </trkpt>
      <trkpt lat="39.49930362403392791748046875" lon="-0.3257635049521923065185546875">
        <ele>-5.80000019073486328125</ele>
        <time>2019-07-07T07:53:13.000Z</time>
      </trkpt>
      <trkpt lat="39.49975666590034961700439453125" lon="-0.32576275058090686798095703125">
        <ele>-6.400000095367431640625</ele>
        <time>2019-07-07T07:53:15.000Z</time>
      </trkpt>
      <trkpt lat="39.50042545795440673828125" lon="-0.32579678110778331756591796875">
        <ele>-6.400000095367431640625</ele>
        <time>2019-07-07T07:53:18.000Z</time>
      </trkpt>
      <trkpt lat="39.50086542405188083648681640625" lon="-0.32582913525402545928955078125">
        <ele>-7.400000095367431640625</ele>
        <time>2019-07-07T07:53:20.000Z</time>
      </trkpt>
      <trkpt lat="39.5015213079750537872314453125" lon="-0.32587272115051746368408203125">
        <ele>-8</ele>
        <time>2019-07-07T07:53:23.000Z</time>
      </trkpt>
      <trkpt lat="39.5021787844598293304443359375" lon="-0.32591815106570720672607421875">
        <ele>-8</ele>
        <time>2019-07-07T07:53:26.000Z</time>
      </trkpt>
      <trkpt lat="39.5028506778180599212646484375" lon="-0.32596006058156490325927734375">
        <ele>-6.80000019073486328125</ele>
        <time>2019-07-07T07:53:29.000Z</time>
      </trkpt>
      <trkpt lat="39.50307874940335750579833984375" lon="-0.32596944831311702728271484375">
        <ele>-6.19999980926513671875</ele>
        <time>2019-07-07T07:53:30.000Z</time>
      </trkpt>
      <trkpt lat="39.50353975407779216766357421875" lon="-0.32597296871244907379150390625">
        <ele>-6.400000095367431640625</ele>
        <time>2019-07-07T07:53:32.000Z</time>
      </trkpt>
      <trkpt lat="39.50399455614387989044189453125" lon="-0.32596156932413578033447265625">
        <ele>-7.80000019073486328125</ele>
        <time>2019-07-07T07:53:34.000Z</time>
      </trkpt>
      <trkpt lat="39.50421751476824283599853515625" lon="-0.32595268450677394866943359375">
        <ele>-9</ele>
        <time>2019-07-07T07:53:35.000Z</time>
      </trkpt>
      <trkpt lat="39.50444164685904979705810546875" lon="-0.3259435482323169708251953125">
        <ele>-9.80000019073486328125</ele>
        <time>2019-07-07T07:53:36.000Z</time>
      </trkpt>
      <trkpt lat="39.5048918388783931732177734375" lon="-0.32591412775218486785888671875">
        <ele>-8.3999996185302734375</ele>
        <time>2019-07-07T07:53:38.000Z</time>
      </trkpt>
      <trkpt lat="39.505118988454341888427734375" lon="-0.3258919157087802886962890625">
        <ele>-6.400000095367431640625</ele>
        <time>2019-07-07T07:53:39.000Z</time>
      </trkpt>
      <trkpt lat="39.50534773059189319610595703125" lon="-0.32586626708507537841796875">
        <ele>-4</ele>
        <time>2019-07-07T07:53:40.000Z</time>
      </trkpt>
      <trkpt lat="39.50557806529104709625244140625" lon="-0.32583483494818210601806640625">
        <ele>-2.599999904632568359375</ele>
        <time>2019-07-07T07:53:41.000Z</time>
      </trkpt>
      <trkpt lat="39.50604259036481380462646484375" lon="-0.3257551230490207672119140625">
        <ele>-2.2000000476837158203125</ele>
        <time>2019-07-07T07:53:43.000Z</time>
      </trkpt>
      <trkpt lat="39.5065105520188808441162109375" lon="-0.325663089752197265625">
        <ele>-2.599999904632568359375</ele>
        <time>2019-07-07T07:53:45.000Z</time>
      </trkpt>
      <trkpt lat="39.50697197578847408294677734375" lon="-0.32554666511714458465576171875">
        <ele>-2.2000000476837158203125</ele>
        <time>2019-07-07T07:53:47.000Z</time>
      </trkpt>
      <trkpt lat="39.50719879008829593658447265625" lon="-0.32548044808208942413330078125">
        <ele>-1.39999997615814208984375</ele>
        <time>2019-07-07T07:53:48.000Z</time>
      </trkpt>
      <trkpt lat="39.50764931738376617431640625" lon="-0.32533829100430011749267578125">
        <ele>-0.800000011920928955078125</ele>
        <time>2019-07-07T07:53:50.000Z</time>
      </trkpt>
      <trkpt lat="39.508098252117633819580078125" lon="-0.3251791186630725860595703125">
        <ele>-1</ele>
        <time>2019-07-07T07:53:52.000Z</time>
      </trkpt>
      <trkpt lat="39.50854794122278690338134765625" lon="-0.3250004164874553680419921875">
        <ele>-2.2000000476837158203125</ele>
        <time>2019-07-07T07:53:54.000Z</time>
      </trkpt>
      <trkpt lat="39.5087729953229427337646484375" lon="-0.3249013423919677734375">
        <ele>-2.599999904632568359375</ele>
        <time>2019-07-07T07:53:55.000Z</time>
      </trkpt>
      <trkpt lat="39.50922268442809581756591796875" lon="-0.32468349672853946685791015625">
        <ele>-2.7999999523162841796875</ele>
        <time>2019-07-07T07:53:57.000Z</time>
      </trkpt>
      <trkpt lat="39.50966457836329936981201171875" lon="-0.32445098273456096649169921875">
        <ele>-3.2000000476837158203125</ele>
        <time>2019-07-07T07:53:59.000Z</time>
      </trkpt>
      <trkpt lat="39.51009809039533138275146484375" lon="-0.32420086674392223358154296875">
        <ele>-3.400000095367431640625</ele>
        <time>2019-07-07T07:54:01.000Z</time>
      </trkpt>
      <trkpt lat="39.51052405871450901031494140625" lon="-0.3239305503666400909423828125">
        <ele>-3.400000095367431640625</ele>
        <time>2019-07-07T07:54:03.000Z</time>
      </trkpt>
      <trkpt lat="39.51093929819762706756591796875" lon="-0.32364330254495143890380859375">
        <ele>-3.400000095367431640625</ele>
        <time>2019-07-07T07:54:05.000Z</time>
      </trkpt>
      <trkpt lat="39.51134498231112957000732421875" lon="-0.3233538754284381866455078125">
        <ele>-3.2000000476837158203125</ele>
        <time>2019-07-07T07:54:07.000Z</time>
      </trkpt>
      <trkpt lat="39.51174345798790454864501953125" lon="-0.32306143082678318023681640625">
        <ele>-3.400000095367431640625</ele>
        <time>2019-07-07T07:54:09.000Z</time>
      </trkpt>
      <trkpt lat="39.51214478351175785064697265625" lon="-0.3227649629116058349609375">
        <ele>-3.400000095367431640625</ele>
        <time>2019-07-07T07:54:11.000Z</time>
      </trkpt>
      <trkpt lat="39.51234661974012851715087890625" lon="-0.3226145915687084197998046875">
        <ele>-3.7999999523162841796875</ele>
        <time>2019-07-07T07:54:12.000Z</time>
      </trkpt>
      <trkpt lat="39.51274911873042583465576171875" lon="-0.32231636345386505126953125">
        <ele>-5</ele>
        <time>2019-07-07T07:54:14.000Z</time>
      </trkpt>
      <trkpt lat="39.51314658857882022857666015625" lon="-0.32202442176640033721923828125">
        <ele>-3.2000000476837158203125</ele>
        <time>2019-07-07T07:54:16.000Z</time>
      </trkpt>
      <trkpt lat="39.51355059631168842315673828125" lon="-0.3217411972582340240478515625">
        <ele>-3.2000000476837158203125</ele>
        <time>2019-07-07T07:54:18.000Z</time>
      </trkpt>
      <trkpt lat="39.51397773809731006622314453125" lon="-0.3214790113270282745361328125">
        <ele>-3</ele>
        <time>2019-07-07T07:54:20.000Z</time>
      </trkpt>
      <trkpt lat="39.51442449353635311126708984375" lon="-0.32122193835675716400146484375">
        <ele>-3.400000095367431640625</ele>
        <time>2019-07-07T07:54:22.000Z</time>
      </trkpt>
      <trkpt lat="39.5148723386228084564208984375" lon="-0.32096528448164463043212890625">
        <ele>-3.2000000476837158203125</ele>
        <time>2019-07-07T07:54:24.000Z</time>
      </trkpt>
      <trkpt lat="39.5151036791503429412841796875" lon="-0.32084173522889614105224609375">
        <ele>-2</ele>
        <time>2019-07-07T07:54:25.000Z</time>
      </trkpt>
      <trkpt lat="39.5153397135436534881591796875" lon="-0.32072187401354312896728515625">
        <ele>-0.60000002384185791015625</ele>
        <time>2019-07-07T07:54:26.000Z</time>
      </trkpt>
      <trkpt lat="39.51557935215532779693603515625" lon="-0.32060888595879077911376953125">
        <ele>0.60000002384185791015625</ele>
        <time>2019-07-07T07:54:27.000Z</time>
      </trkpt>
      <trkpt lat="39.5160682685673236846923828125" lon="-0.32039430923759937286376953125">
        <ele>2.2000000476837158203125</ele>
        <time>2019-07-07T07:54:29.000Z</time>
      </trkpt>
      <trkpt lat="39.5165695063769817352294921875" lon="-0.32020135782659053802490234375">
        <ele>1</ele>
        <time>2019-07-07T07:54:31.000Z</time>
      </trkpt>
      <trkpt lat="39.516822136938571929931640625" lon="-0.32011183910071849822998046875">
        <ele>-0.60000002384185791015625</ele>
        <time>2019-07-07T07:54:32.000Z</time>
      </trkpt>
      <trkpt lat="39.517076946794986724853515625" lon="-0.32002567313611507415771484375">
        <ele>-2.599999904632568359375</ele>
        <time>2019-07-07T07:54:33.000Z</time>
      </trkpt>
      <trkpt lat="39.51733133755624294281005859375" lon="-0.31994168646633625030517578125">
        <ele>-5.400000095367431640625</ele>
        <time>2019-07-07T07:54:34.000Z</time>
      </trkpt>
      <trkpt lat="39.5175847224891185760498046875" lon="-0.3198569454252719879150390625">
        <ele>-6.80000019073486328125</ele>
        <time>2019-07-07T07:54:35.000Z</time>
      </trkpt>
      <trkpt lat="39.5178361795842647552490234375" lon="-0.31977153383195400238037109375">
        <ele>-8.6000003814697265625</ele>
        <time>2019-07-07T07:54:36.000Z</time>
      </trkpt>
      <trkpt lat="39.51808512210845947265625" lon="-0.319684445858001708984375">
        <ele>-9.80000019073486328125</ele>
        <time>2019-07-07T07:54:37.000Z</time>
      </trkpt>
      <trkpt lat="39.51833230443298816680908203125" lon="-0.31959299929440021514892578125">
        <ele>-10.80000019073486328125</ele>
        <time>2019-07-07T07:54:38.000Z</time>
      </trkpt>
      <trkpt lat="39.51882281340658664703369140625" lon="-0.31938512809574604034423828125">
        <ele>-11.6000003814697265625</ele>
        <time>2019-07-07T07:54:40.000Z</time>
      </trkpt>
      <trkpt lat="39.51931013725697994232177734375" lon="-0.31915579922497272491455078125">
        <ele>-10.80000019073486328125</ele>
        <time>2019-07-07T07:54:42.000Z</time>
      </trkpt>
      <trkpt lat="39.51979461126029491424560546875" lon="-0.31890484504401683807373046875">
        <ele>-9.6000003814697265625</ele>
        <time>2019-07-07T07:54:44.000Z</time>
      </trkpt>
      <trkpt lat="39.52027321793138980865478515625" lon="-0.31863025389611721038818359375">
        <ele>-8.80000019073486328125</ele>
        <time>2019-07-07T07:54:46.000Z</time>
      </trkpt>
      <trkpt lat="39.5205111801624298095703125" lon="-0.3184846602380275726318359375">
        <ele>-7.599999904632568359375</ele>
        <time>2019-07-07T07:54:47.000Z</time>
      </trkpt>
      <trkpt lat="39.520984925329685211181640625" lon="-0.318177379667758941650390625">
        <ele>-5.80000019073486328125</ele>
        <time>2019-07-07T07:54:49.000Z</time>
      </trkpt>
      <trkpt lat="39.52145657502114772796630859375" lon="-0.31785316765308380126953125">
        <ele>-4.599999904632568359375</ele>
        <time>2019-07-07T07:54:51.000Z</time>
      </trkpt>
      <trkpt lat="39.5219322480261325836181640625" lon="-0.31753222458064556121826171875">
        <ele>-4.400000095367431640625</ele>
        <time>2019-07-07T07:54:53.000Z</time>
      </trkpt>
      <trkpt lat="39.52240892685949802398681640625" lon="-0.31721186824142932891845703125">
        <ele>-5.400000095367431640625</ele>
        <time>2019-07-07T07:54:55.000Z</time>
      </trkpt>
      <trkpt lat="39.522647894918918609619140625" lon="-0.3170518577098846435546875">
        <ele>-6</ele>
        <time>2019-07-07T07:54:56.000Z</time>
      </trkpt>
      <trkpt lat="39.5231238193809986114501953125" lon="-0.3167321719229221343994140625">
        <ele>-6.599999904632568359375</ele>
        <time>2019-07-07T07:54:58.000Z</time>
      </trkpt>
      <trkpt lat="39.52359697781503200531005859375" lon="-0.31641148030757904052734375">
        <ele>-6.80000019073486328125</ele>
        <time>2019-07-07T07:55:00.000Z</time>
      </trkpt>
      <trkpt lat="39.52407156117260456085205078125" lon="-0.31609271652996540069580078125">
        <ele>-6</ele>
        <time>2019-07-07T07:55:02.000Z</time>
      </trkpt>
      <trkpt lat="39.52454564161598682403564453125" lon="-0.31577655114233493804931640625">
        <ele>-7</ele>
        <time>2019-07-07T07:55:04.000Z</time>
      </trkpt>
      <trkpt lat="39.5247807539999485015869140625" lon="-0.31561813317239284515380859375">
        <ele>-8.3999996185302734375</ele>
        <time>2019-07-07T07:55:05.000Z</time>
      </trkpt>
      <trkpt lat="39.525248296558856964111328125" lon="-0.31530280597507953643798828125">
        <ele>-9.19999980926513671875</ele>
        <time>2019-07-07T07:55:07.000Z</time>
      </trkpt>
      <trkpt lat="39.5254808105528354644775390625" lon="-0.31514572910964488983154296875">
        <ele>-9.6000003814697265625</ele>
        <time>2019-07-07T07:55:08.000Z</time>
      </trkpt>
      <trkpt lat="39.525942988693714141845703125" lon="-0.31483031809329986572265625">
        <ele>-9</ele>
        <time>2019-07-07T07:55:10.000Z</time>
      </trkpt>
      <trkpt lat="39.52617391012609004974365234375" lon="-0.31467366032302379608154296875">
        <ele>-7</ele>
        <time>2019-07-07T07:55:11.000Z</time>
      </trkpt>
      <trkpt lat="39.52640541829168796539306640625" lon="-0.3145180083811283111572265625">
        <ele>-4</ele>
        <time>2019-07-07T07:55:12.000Z</time>
      </trkpt>
      <trkpt lat="39.52663801610469818115234375" lon="-0.314362607896327972412109375">
        <ele>-1.39999997615814208984375</ele>
        <time>2019-07-07T07:55:13.000Z</time>
      </trkpt>
      <trkpt lat="39.5268708653748035430908203125" lon="-0.31420779414474964141845703125">
        <ele>0</ele>
        <time>2019-07-07T07:55:14.000Z</time>
      </trkpt>
      <trkpt lat="39.52733832411468029022216796875" lon="-0.31389431096613407135009765625">
        <ele>1.7999999523162841796875</ele>
        <time>2019-07-07T07:55:16.000Z</time>
      </trkpt>
      <trkpt lat="39.5278046093881130218505859375" lon="-0.3135815821588039398193359375">
        <ele>1.2000000476837158203125</ele>
        <time>2019-07-07T07:55:18.000Z</time>
      </trkpt>
      <trkpt lat="39.52803821302950382232666015625" lon="-0.3134260140359401702880859375">
        <ele>-0.4000000059604644775390625</ele>
        <time>2019-07-07T07:55:19.000Z</time>
      </trkpt>
      <trkpt lat="39.52827022410929203033447265625" lon="-0.31327002681791782379150390625">
        <ele>-3.7999999523162841796875</ele>
        <time>2019-07-07T07:55:20.000Z</time>
      </trkpt>
      <trkpt lat="39.5287375152111053466796875" lon="-0.31295947730541229248046875">
        <ele>-4.400000095367431640625</ele>
        <time>2019-07-07T07:55:22.000Z</time>
      </trkpt>
      <trkpt lat="39.5289743877947330474853515625" lon="-0.31280147843062877655029296875">
        <ele>-5</ele>
        <time>2019-07-07T07:55:23.000Z</time>
      </trkpt>
      <trkpt lat="39.52921151183545589447021484375" lon="-0.3126401267945766448974609375">
        <ele>-6.599999904632568359375</ele>
        <time>2019-07-07T07:55:24.000Z</time>
      </trkpt>
      <trkpt lat="39.52944989316165447235107421875" lon="-0.3124781884253025054931640625">
        <ele>-10</ele>
        <time>2019-07-07T07:55:25.000Z</time>
      </trkpt>
      <trkpt lat="39.5299275778234004974365234375" lon="-0.31215942464768886566162109375">
        <ele>-8.80000019073486328125</ele>
        <time>2019-07-07T07:55:27.000Z</time>
      </trkpt>
      <trkpt lat="39.53040392138063907623291015625" lon="-0.31184443272650241851806640625">
        <ele>-9</ele>
        <time>2019-07-07T07:55:29.000Z</time>
      </trkpt>
      <trkpt lat="39.53087448142468929290771484375" lon="-0.3115303628146648406982421875">
        <ele>-8.6000003814697265625</ele>
        <time>2019-07-07T07:55:31.000Z</time>
      </trkpt>
      <trkpt lat="39.53110867179930210113525390625" lon="-0.31137404032051563262939453125">
        <ele>-6.80000019073486328125</ele>
        <time>2019-07-07T07:55:32.000Z</time>
      </trkpt>
      <trkpt lat="39.5313417725265026092529296875" lon="-0.31121780164539813995361328125">
        <ele>-5.19999980926513671875</ele>
        <time>2019-07-07T07:55:33.000Z</time>
      </trkpt>
      <trkpt lat="39.5318081416189670562744140625" lon="-0.310901217162609100341796875">
        <ele>-4</ele>
        <time>2019-07-07T07:55:35.000Z</time>
      </trkpt>
      <trkpt lat="39.53204191289842128753662109375" lon="-0.310741625726222991943359375">
        <ele>-2.599999904632568359375</ele>
        <time>2019-07-07T07:55:36.000Z</time>
      </trkpt>
      <trkpt lat="39.53227761201560497283935546875" lon="-0.310582704842090606689453125">
        <ele>-1.39999997615814208984375</ele>
        <time>2019-07-07T07:55:37.000Z</time>
      </trkpt>
      <trkpt lat="39.532514400780200958251953125" lon="-0.31042520888149738311767578125">
        <ele>-0.20000000298023223876953125</ele>
        <time>2019-07-07T07:55:38.000Z</time>
      </trkpt>
      <trkpt lat="39.5329916663467884063720703125" lon="-0.31010703183710575103759765625">
        <ele>-0.800000011920928955078125</ele>
        <time>2019-07-07T07:55:40.000Z</time>
      </trkpt>
      <trkpt lat="39.53346918337047100067138671875" lon="-0.30978650785982608795166015625">
        <ele>-1.60000002384185791015625</ele>
        <time>2019-07-07T07:55:42.000Z</time>
      </trkpt>
      <trkpt lat="39.5337094925343990325927734375" lon="-0.309626162052154541015625">
        <ele>-2.599999904632568359375</ele>
        <time>2019-07-07T07:55:43.000Z</time>
      </trkpt>
      <trkpt lat="39.53394913114607334136962890625" lon="-0.30946564860641956329345703125">
        <ele>-3.599999904632568359375</ele>
        <time>2019-07-07T07:55:44.000Z</time>
      </trkpt>
      <trkpt lat="39.5344289951026439666748046875" lon="-0.30914143659174442291259765625">
        <ele>-4</ele>
        <time>2019-07-07T07:55:46.000Z</time>
      </trkpt>
      <trkpt lat="39.53490969724953174591064453125" lon="-0.30880984850227832794189453125">
        <ele>-2.400000095367431640625</ele>
        <time>2019-07-07T07:55:48.000Z</time>
      </trkpt>
      <trkpt lat="39.53538662753999233245849609375" lon="-0.3084552101790904998779296875">
        <ele>-2</ele>
        <time>2019-07-07T07:55:50.000Z</time>
      </trkpt>
      <trkpt lat="39.5358535833656787872314453125" lon="-0.3080713190138339996337890625">
        <ele>-1</ele>
        <time>2019-07-07T07:55:52.000Z</time>
      </trkpt>
      <trkpt lat="39.53631450422108173370361328125" lon="-0.30766605399549007415771484375">
        <ele>-0.800000011920928955078125</ele>
        <time>2019-07-07T07:55:54.000Z</time>
      </trkpt>
      <trkpt lat="39.53677232377231121063232421875" lon="-0.30725148506462574005126953125">
        <ele>-1.60000002384185791015625</ele>
        <time>2019-07-07T07:55:56.000Z</time>
      </trkpt>
      <trkpt lat="39.53724171034991741180419921875" lon="-0.30683624558150768280029296875">
        <ele>-2</ele>
        <time>2019-07-07T07:55:58.000Z</time>
      </trkpt>
      <trkpt lat="39.5374786667525768280029296875" lon="-0.30662619508802890777587890625">
        <ele>-2</ele>
        <time>2019-07-07T07:55:59.000Z</time>
      </trkpt>
      <trkpt lat="39.53796221874654293060302734375" lon="-0.306201316416263580322265625">
        <ele>-3.2000000476837158203125</ele>
        <time>2019-07-07T07:56:01.000Z</time>
      </trkpt>
      <trkpt lat="39.53845524229109287261962890625" lon="-0.3057753480970859527587890625">
        <ele>-3.599999904632568359375</ele>
        <time>2019-07-07T07:56:03.000Z</time>
      </trkpt>
      <trkpt lat="39.538703598082065582275390625" lon="-0.30556404031813144683837890625">
        <ele>-5.599999904632568359375</ele>
        <time>2019-07-07T07:56:04.000Z</time>
      </trkpt>
      <trkpt lat="39.53919603489339351654052734375" lon="-0.3051376529037952423095703125">
        <ele>-8.3999996185302734375</ele>
        <time>2019-07-07T07:56:06.000Z</time>
      </trkpt>
      <trkpt lat="39.53943810425698757171630859375" lon="-0.30492366291582584381103515625">
        <ele>-9.80000019073486328125</ele>
        <time>2019-07-07T07:56:07.000Z</time>
      </trkpt>
      <trkpt lat="39.53992106951773166656494140625" lon="-0.30450071208178997039794921875">
        <ele>-7.80000019073486328125</ele>
        <time>2019-07-07T07:56:09.000Z</time>
      </trkpt>
      <trkpt lat="39.5403997600078582763671875" lon="-0.30408413149416446685791015625">
        <ele>-6.400000095367431640625</ele>
        <time>2019-07-07T07:56:11.000Z</time>
      </trkpt>
      <trkpt lat="39.54087308607995510101318359375" lon="-0.30367366969585418701171875">
        <ele>-6</ele>
        <time>2019-07-07T07:56:13.000Z</time>
      </trkpt>
      <trkpt lat="39.5413417182862758636474609375" lon="-0.30326957814395427703857421875">
        <ele>-5</ele>
        <time>2019-07-07T07:56:15.000Z</time>
      </trkpt>
      <trkpt lat="39.5418084226548671722412109375" lon="-0.3028656542301177978515625">
        <ele>-4.80000019073486328125</ele>
        <time>2019-07-07T07:56:17.000Z</time>
      </trkpt>
      <trkpt lat="39.54227135516703128814697265625" lon="-0.3024584613740444183349609375">
        <ele>-4</ele>
        <time>2019-07-07T07:56:19.000Z</time>
      </trkpt>
      <trkpt lat="39.54250319860875606536865234375" lon="-0.3022552840411663055419921875">
        <ele>-3.599999904632568359375</ele>
        <time>2019-07-07T07:56:20.000Z</time>
      </trkpt>
      <trkpt lat="39.542970322072505950927734375" lon="-0.30184750445187091827392578125">
        <ele>-3.400000095367431640625</ele>
        <time>2019-07-07T07:56:22.000Z</time>
      </trkpt>
      <trkpt lat="39.54343660734593868255615234375" lon="-0.30143964104354381561279296875">
        <ele>-3.400000095367431640625</ele>
        <time>2019-07-07T07:56:24.000Z</time>
      </trkpt>
      <trkpt lat="39.54389870166778564453125" lon="-0.3010385669767856597900390625">
        <ele>-4.80000019073486328125</ele>
        <time>2019-07-07T07:56:26.000Z</time>
      </trkpt>
      <trkpt lat="39.54412224702537059783935546875" lon="-0.300842262804508209228515625">
        <ele>-7.400000095367431640625</ele>
        <time>2019-07-07T07:56:27.000Z</time>
      </trkpt>
      <trkpt lat="39.54434269107878208160400390625" lon="-0.3006489761173725128173828125">
        <ele>-11</ele>
        <time>2019-07-07T07:56:28.000Z</time>
      </trkpt>
      <trkpt lat="39.544562883675098419189453125" lon="-0.3004571981728076934814453125">
        <ele>-14.3999996185302734375</ele>
        <time>2019-07-07T07:56:29.000Z</time>
      </trkpt>
      <trkpt lat="39.5447838306427001953125" lon="-0.30026634223759174346923828125">
        <ele>-16.6000003814697265625</ele>
        <time>2019-07-07T07:56:30.000Z</time>
      </trkpt>
      <trkpt lat="39.54500502906739711761474609375" lon="-0.3000756539404392242431640625">
        <ele>-18.6000003814697265625</ele>
        <time>2019-07-07T07:56:31.000Z</time>
      </trkpt>
      <trkpt lat="39.54544910229742527008056640625" lon="-0.2996931038796901702880859375">
        <ele>-19.6000003814697265625</ele>
        <time>2019-07-07T07:56:33.000Z</time>
      </trkpt>
      <trkpt lat="39.54567574895918369293212890625" lon="-0.29950358904898166656494140625">
        <ele>-20.200000762939453125</ele>
        <time>2019-07-07T07:56:34.000Z</time>
      </trkpt>
      <trkpt lat="39.54614161513745784759521484375" lon="-0.29914216138422489166259765625">
        <ele>-20.6000003814697265625</ele>
        <time>2019-07-07T07:56:36.000Z</time>
      </trkpt>
      <trkpt lat="39.5466278493404388427734375" lon="-0.2988187037408351898193359375">
        <ele>-20.6000003814697265625</ele>
        <time>2019-07-07T07:56:38.000Z</time>
      </trkpt>
      <trkpt lat="39.54711995087563991546630859375" lon="-0.29854520224034786224365234375">
        <ele>-21.3999996185302734375</ele>
        <time>2019-07-07T07:56:40.000Z</time>
      </trkpt>
      <trkpt lat="39.5475882478058338165283203125" lon="-0.2983245067298412322998046875">
        <ele>-20.6000003814697265625</ele>
        <time>2019-07-07T07:56:42.000Z</time>
      </trkpt>
      <trkpt lat="39.5478215999901294708251953125" lon="-0.29822987504303455352783203125">
        <ele>-19</ele>
        <time>2019-07-07T07:56:43.000Z</time>
      </trkpt>
      <trkpt lat="39.5482990331947803497314453125" lon="-0.2980660088360309600830078125">
        <ele>-17.6000003814697265625</ele>
        <time>2019-07-07T07:56:45.000Z</time>
      </trkpt>
      <trkpt lat="39.54854227602481842041015625" lon="-0.29799568466842174530029296875">
        <ele>-16.3999996185302734375</ele>
        <time>2019-07-07T07:56:46.000Z</time>
      </trkpt>
      <trkpt lat="39.5487882010638713836669921875" lon="-0.29793466441333293914794921875">
        <ele>-15</ele>
        <time>2019-07-07T07:56:47.000Z</time>
      </trkpt>
      <trkpt lat="39.54929254017770290374755859375" lon="-0.29783927835524082183837890625">
        <ele>-13.80000019073486328125</ele>
        <time>2019-07-07T07:56:49.000Z</time>
      </trkpt>
      <trkpt lat="39.54980735667049884796142578125" lon="-0.29777004383504390716552734375">
        <ele>-14</ele>
        <time>2019-07-07T07:56:51.000Z</time>
      </trkpt>
      <trkpt lat="39.55032502301037311553955078125" lon="-0.29771019704639911651611328125">
        <ele>-13.80000019073486328125</ele>
        <time>2019-07-07T07:56:53.000Z</time>
      </trkpt>
      <trkpt lat="39.550583772361278533935546875" lon="-0.29768572188913822174072265625">
        <ele>-11.3999996185302734375</ele>
        <time>2019-07-07T07:56:54.000Z</time>
      </trkpt>
      <trkpt lat="39.55109146423637866973876953125" lon="-0.29763442464172840118408203125">
        <ele>-8.6000003814697265625</ele>
        <time>2019-07-07T07:56:56.000Z</time>
      </trkpt>
      <trkpt lat="39.55134074203670024871826171875" lon="-0.29760844074189662933349609375">
        <ele>-5</ele>
        <time>2019-07-07T07:56:57.000Z</time>
      </trkpt>
      <trkpt lat="39.5515907742083072662353515625" lon="-0.29758128337562084197998046875">
        <ele>-3.2000000476837158203125</ele>
        <time>2019-07-07T07:56:58.000Z</time>
      </trkpt>
      <trkpt lat="39.552091844379901885986328125" lon="-0.29753166250884532928466796875">
        <ele>-3.599999904632568359375</ele>
        <time>2019-07-07T07:57:00.000Z</time>
      </trkpt>
      <trkpt lat="39.5525925792753696441650390625" lon="-0.29747567139565944671630859375">
        <ele>-3.599999904632568359375</ele>
        <time>2019-07-07T07:57:02.000Z</time>
      </trkpt>
      <trkpt lat="39.55309758894145488739013671875" lon="-0.297416746616363525390625">
        <ele>-3.400000095367431640625</ele>
        <time>2019-07-07T07:57:04.000Z</time>
      </trkpt>
      <trkpt lat="39.55361835658550262451171875" lon="-0.2973602525889873504638671875">
        <ele>-5</ele>
        <time>2019-07-07T07:57:06.000Z</time>
      </trkpt>
      <trkpt lat="39.55414549447596073150634765625" lon="-0.2973032556474208831787109375">
        <ele>-6.80000019073486328125</ele>
        <time>2019-07-07T07:57:08.000Z</time>
      </trkpt>
      <trkpt lat="39.55441002734005451202392578125" lon="-0.2972759306430816650390625">
        <ele>-9</ele>
        <time>2019-07-07T07:57:09.000Z</time>
      </trkpt>
      <trkpt lat="39.55467808060348033905029296875" lon="-0.2972479350864887237548828125">
        <ele>-10</ele>
        <time>2019-07-07T07:57:10.000Z</time>
      </trkpt>
      <trkpt lat="39.555218629539012908935546875" lon="-0.2971902675926685333251953125">
        <ele>-9.6000003814697265625</ele>
        <time>2019-07-07T07:57:12.000Z</time>
      </trkpt>
      <trkpt lat="39.55576504580676555633544921875" lon="-0.2971312589943408966064453125">
        <ele>-9.6000003814697265625</ele>
        <time>2019-07-07T07:57:14.000Z</time>
      </trkpt>
      <trkpt lat="39.55631255172193050384521484375" lon="-0.2970685623586177825927734375">
        <ele>-9.3999996185302734375</ele>
        <time>2019-07-07T07:57:16.000Z</time>
      </trkpt>
      <trkpt lat="39.556862153112888336181640625" lon="-0.29700594954192638397216796875">
        <ele>-8.3999996185302734375</ele>
        <time>2019-07-07T07:57:18.000Z</time>
      </trkpt>
      <trkpt lat="39.5571369118988513946533203125" lon="-0.296975187957286834716796875">
        <ele>-6.80000019073486328125</ele>
        <time>2019-07-07T07:57:19.000Z</time>
      </trkpt>
      <trkpt lat="39.5576904527842998504638671875" lon="-0.29691324569284915924072265625">
        <ele>-5.400000095367431640625</ele>
        <time>2019-07-07T07:57:21.000Z</time>
      </trkpt>
      <trkpt lat="39.55796965397894382476806640625" lon="-0.2968831546604633331298828125">
        <ele>-3.2000000476837158203125</ele>
        <time>2019-07-07T07:57:22.000Z</time>
      </trkpt>
      <trkpt lat="39.55825095064938068389892578125" lon="-0.2968521416187286376953125">
        <ele>-0.60000002384185791015625</ele>
        <time>2019-07-07T07:57:23.000Z</time>
      </trkpt>
      <trkpt lat="39.55853409133851528167724609375" lon="-0.29682020656764507293701171875">
        <ele>1.60000002384185791015625</ele>
        <time>2019-07-07T07:57:24.000Z</time>
      </trkpt>
      <trkpt lat="39.5588176511228084564208984375" lon="-0.296788103878498077392578125">
        <ele>4.19999980926513671875</ele>
        <time>2019-07-07T07:57:25.000Z</time>
      </trkpt>
      <trkpt lat="39.5591029711067676544189453125" lon="-0.29675616882741451263427734375">
        <ele>6.19999980926513671875</ele>
        <time>2019-07-07T07:57:26.000Z</time>
      </trkpt>
      <trkpt lat="39.559388794004917144775390625" lon="-0.2967262454330921173095703125">
        <ele>7.599999904632568359375</ele>
        <time>2019-07-07T07:57:27.000Z</time>
      </trkpt>
      <trkpt lat="39.5599637925624847412109375" lon="-0.29666505753993988037109375">
        <ele>8.19999980926513671875</ele>
        <time>2019-07-07T07:57:29.000Z</time>
      </trkpt>
      <trkpt lat="39.5605449937283992767333984375" lon="-0.29660068452358245849609375">
        <ele>4.80000019073486328125</ele>
        <time>2019-07-07T07:57:31.000Z</time>
      </trkpt>
      <trkpt lat="39.56083760596811771392822265625" lon="-0.29656824655830860137939453125">
        <ele>0.800000011920928955078125</ele>
        <time>2019-07-07T07:57:32.000Z</time>
      </trkpt>
      <trkpt lat="39.56113030202686786651611328125" lon="-0.29653522185981273651123046875">
        <ele>-3</ele>
        <time>2019-07-07T07:57:33.000Z</time>
      </trkpt>
      <trkpt lat="39.5614227466285228729248046875" lon="-0.2965029515326023101806640625">
        <ele>-6.19999980926513671875</ele>
        <time>2019-07-07T07:57:34.000Z</time>
      </trkpt>
      <trkpt lat="39.56171602942049503326416015625" lon="-0.29647059738636016845703125">
        <ele>-8</ele>
        <time>2019-07-07T07:57:35.000Z</time>
      </trkpt>
      <trkpt lat="39.56230427138507366180419921875" lon="-0.29640463180840015411376953125">
        <ele>-9.19999980926513671875</ele>
        <time>2019-07-07T07:57:37.000Z</time>
      </trkpt>
      <trkpt lat="39.56289838068187236785888671875" lon="-0.296338163316249847412109375">
        <ele>-9.80000019073486328125</ele>
        <time>2019-07-07T07:57:39.000Z</time>
      </trkpt>
      <trkpt lat="39.5634949207305908203125" lon="-0.29627018608152866363525390625">
        <ele>-7.599999904632568359375</ele>
        <time>2019-07-07T07:57:41.000Z</time>
      </trkpt>
      <trkpt lat="39.56379331648349761962890625" lon="-0.29623649083077907562255859375">
        <ele>-4.400000095367431640625</ele>
        <time>2019-07-07T07:57:42.000Z</time>
      </trkpt>
      <trkpt lat="39.56409112550318241119384765625" lon="-0.29620363377034664154052734375">
        <ele>-0.60000002384185791015625</ele>
        <time>2019-07-07T07:57:43.000Z</time>
      </trkpt>
      <trkpt lat="39.56438818015158176422119140625" lon="-0.296171866357326507568359375">
        <ele>3.7999999523162841796875</ele>
        <time>2019-07-07T07:57:44.000Z</time>
      </trkpt>
      <trkpt lat="39.56468506716191768646240234375" lon="-0.2961388416588306427001953125">
        <ele>6</ele>
        <time>2019-07-07T07:57:45.000Z</time>
      </trkpt>
      <trkpt lat="39.564982540905475616455078125" lon="-0.29610690660774707794189453125">
        <ele>7.19999980926513671875</ele>
        <time>2019-07-07T07:57:46.000Z</time>
      </trkpt>
      <trkpt lat="39.5652800984680652618408203125" lon="-0.2960764802992343902587890625">
        <ele>5.80000019073486328125</ele>
        <time>2019-07-07T07:57:47.000Z</time>
      </trkpt>
      <trkpt lat="39.56557539291679859161376953125" lon="-0.29604488052427768707275390625">
        <ele>3.400000095367431640625</ele>
        <time>2019-07-07T07:57:48.000Z</time>
      </trkpt>
      <trkpt lat="39.565868675708770751953125" lon="-0.29601302929222583770751953125">
        <ele>0.20000000298023223876953125</ele>
        <time>2019-07-07T07:57:49.000Z</time>
      </trkpt>
      <trkpt lat="39.56615927629172801971435546875" lon="-0.29598134569823741912841796875">
        <ele>-3</ele>
        <time>2019-07-07T07:57:50.000Z</time>
      </trkpt>
      <trkpt lat="39.5664478652179241180419921875" lon="-0.2959497459232807159423828125">
        <ele>-5.400000095367431640625</ele>
        <time>2019-07-07T07:57:51.000Z</time>
      </trkpt>
      <trkpt lat="39.5667348615825176239013671875" lon="-0.2959178946912288665771484375">
        <ele>-8.3999996185302734375</ele>
        <time>2019-07-07T07:57:52.000Z</time>
      </trkpt>
      <trkpt lat="39.56702160649001598358154296875" lon="-0.2958850376307964324951171875">
        <ele>-10.6000003814697265625</ele>
        <time>2019-07-07T07:57:53.000Z</time>
      </trkpt>
      <trkpt lat="39.567597694694995880126953125" lon="-0.2958179824054241180419921875">
        <ele>-11.3999996185302734375</ele>
        <time>2019-07-07T07:57:55.000Z</time>
      </trkpt>
      <trkpt lat="39.567886702716350555419921875" lon="-0.29578453861176967620849609375">
        <ele>-13.3999996185302734375</ele>
        <time>2019-07-07T07:57:56.000Z</time>
      </trkpt>
      <trkpt lat="39.5684662275016307830810546875" lon="-0.2957200817763805389404296875">
        <ele>-14.80000019073486328125</ele>
        <time>2019-07-07T07:57:58.000Z</time>
      </trkpt>
      <trkpt lat="39.569044746458530426025390625" lon="-0.295662246644496917724609375">
        <ele>-15.19999980926513671875</ele>
        <time>2019-07-07T07:58:00.000Z</time>
      </trkpt>
      <trkpt lat="39.56933300010859966278076171875" lon="-0.2956319041550159454345703125">
        <ele>-16</ele>
        <time>2019-07-07T07:58:01.000Z</time>
      </trkpt>
      <trkpt lat="39.5699042268097400665283203125" lon="-0.2955646812915802001953125">
        <ele>-15.6000003814697265625</ele>
        <time>2019-07-07T07:58:03.000Z</time>
      </trkpt>
      <trkpt lat="39.5704748667776584625244140625" lon="-0.2954981289803981781005859375">
        <ele>-15.3999996185302734375</ele>
        <time>2019-07-07T07:58:05.000Z</time>
      </trkpt>
      <trkpt lat="39.57104944624006748199462890625" lon="-0.29543518088757991790771484375">
        <ele>-16.3999996185302734375</ele>
        <time>2019-07-07T07:58:07.000Z</time>
      </trkpt>
      <trkpt lat="39.571624696254730224609375" lon="-0.2953727357089519500732421875">
        <ele>-14.6000003814697265625</ele>
        <time>2019-07-07T07:58:09.000Z</time>
      </trkpt>
      <trkpt lat="39.5721981860697269439697265625" lon="-0.2953073568642139434814453125">
        <ele>-14.80000019073486328125</ele>
        <time>2019-07-07T07:58:11.000Z</time>
      </trkpt>
      <trkpt lat="39.57248426042497158050537109375" lon="-0.2952751703560352325439453125">
        <ele>-12.6000003814697265625</ele>
        <time>2019-07-07T07:58:12.000Z</time>
      </trkpt>
      <trkpt lat="39.572771005332469940185546875" lon="-0.29524348676204681396484375">
        <ele>-9.80000019073486328125</ele>
        <time>2019-07-07T07:58:13.000Z</time>
      </trkpt>
      <trkpt lat="39.5733428187668323516845703125" lon="-0.2951789461076259613037109375">
        <ele>-9</ele>
        <time>2019-07-07T07:58:15.000Z</time>
      </trkpt>
      <trkpt lat="39.5739147998392581939697265625" lon="-0.29510007239878177642822265625">
        <ele>-9</ele>
        <time>2019-07-07T07:58:17.000Z</time>
      </trkpt>
      <trkpt lat="39.574201963841915130615234375" lon="-0.29505698941648006439208984375">
        <ele>-8.19999980926513671875</ele>
        <time>2019-07-07T07:58:18.000Z</time>
      </trkpt>
      <trkpt lat="39.57477654330432415008544921875" lon="-0.29497451148927211761474609375">
        <ele>-8</ele>
        <time>2019-07-07T07:58:20.000Z</time>
      </trkpt>
      <trkpt lat="39.57534953020513057708740234375" lon="-0.29490728862583637237548828125">
        <ele>-8.80000019073486328125</ele>
        <time>2019-07-07T07:58:22.000Z</time>
      </trkpt>
      <trkpt lat="39.575918577611446380615234375" lon="-0.29484526254236698150634765625">
        <ele>-9</ele>
        <time>2019-07-07T07:58:24.000Z</time>
      </trkpt>
      <trkpt lat="39.57620129920542240142822265625" lon="-0.29481299221515655517578125">
        <ele>-9.3999996185302734375</ele>
        <time>2019-07-07T07:58:25.000Z</time>
      </trkpt>
      <trkpt lat="39.57676221616566181182861328125" lon="-0.294750966131687164306640625">
        <ele>-10.6000003814697265625</ele>
        <time>2019-07-07T07:58:27.000Z</time>
      </trkpt>
      <trkpt lat="39.57731491886079311370849609375" lon="-0.29468835331499576568603515625">
        <ele>-11.19999980926513671875</ele>
        <time>2019-07-07T07:58:29.000Z</time>
      </trkpt>
      <trkpt lat="39.5778563059866428375244140625" lon="-0.2946267463266849517822265625">
        <ele>-11</ele>
        <time>2019-07-07T07:58:31.000Z</time>
      </trkpt>
      <trkpt lat="39.57839232869446277618408203125" lon="-0.29456614516675472259521484375">
        <ele>-10.6000003814697265625</ele>
        <time>2019-07-07T07:58:33.000Z</time>
      </trkpt>
      <trkpt lat="39.5789275132119655609130859375" lon="-0.294505544006824493408203125">
        <ele>-10.6000003814697265625</ele>
        <time>2019-07-07T07:58:35.000Z</time>
      </trkpt>
      <trkpt lat="39.57946303300559520721435546875" lon="-0.2944420091807842254638671875">
        <ele>-12.19999980926513671875</ele>
        <time>2019-07-07T07:58:37.000Z</time>
      </trkpt>
      <trkpt lat="39.5799960382282733917236328125" lon="-0.29438140802085399627685546875">
        <ele>-12.6000003814697265625</ele>
        <time>2019-07-07T07:58:39.000Z</time>
      </trkpt>
      <trkpt lat="39.5805301330983638763427734375" lon="-0.294322483241558074951171875">
        <ele>-9.6000003814697265625</ele>
        <time>2019-07-07T07:58:41.000Z</time>
      </trkpt>
      <trkpt lat="39.5807963423430919647216796875" lon="-0.294294655323028564453125">
        <ele>-5</ele>
        <time>2019-07-07T07:58:42.000Z</time>
      </trkpt>
      <trkpt lat="39.5810632221400737762451171875" lon="-0.29426640830934047698974609375">
        <ele>0.800000011920928955078125</ele>
        <time>2019-07-07T07:58:43.000Z</time>
      </trkpt>
      <trkpt lat="39.58132884465157985687255859375" lon="-0.29423774220049381256103515625">
        <ele>4.400000095367431640625</ele>
        <time>2019-07-07T07:58:44.000Z</time>
      </trkpt>
      <trkpt lat="39.5815932936966419219970703125" lon="-0.29420974664390087127685546875">
        <ele>6.400000095367431640625</ele>
        <time>2019-07-07T07:58:45.000Z</time>
      </trkpt>
      <trkpt lat="39.581856317818164825439453125" lon="-0.29418242163956165313720703125">
        <ele>7.400000095367431640625</ele>
        <time>2019-07-07T07:58:46.000Z</time>
      </trkpt>
      <trkpt lat="39.58237909711897373199462890625" lon="-0.29412760399281978607177734375">
        <ele>8.6000003814697265625</ele>
        <time>2019-07-07T07:58:48.000Z</time>
      </trkpt>
      <trkpt lat="39.58290061913430690765380859375" lon="-0.29407295398414134979248046875">
        <ele>8</ele>
        <time>2019-07-07T07:58:50.000Z</time>
      </trkpt>
      <trkpt lat="39.58316096104681491851806640625" lon="-0.29404194094240665435791015625">
        <ele>7.400000095367431640625</ele>
        <time>2019-07-07T07:58:51.000Z</time>
      </trkpt>
      <trkpt lat="39.58367829211056232452392578125" lon="-0.29398008249700069427490234375">
        <ele>6.19999980926513671875</ele>
        <time>2019-07-07T07:58:53.000Z</time>
      </trkpt>
      <trkpt lat="39.58419914357364177703857421875" lon="-0.2939173020422458648681640625">
        <ele>5.400000095367431640625</ele>
        <time>2019-07-07T07:58:55.000Z</time>
      </trkpt>
      <trkpt lat="39.58471764810383319854736328125" lon="-0.29385502450168132781982421875">
        <ele>5.400000095367431640625</ele>
        <time>2019-07-07T07:58:57.000Z</time>
      </trkpt>
      <trkpt lat="39.58523447625339031219482421875" lon="-0.293801128864288330078125">
        <ele>5.599999904632568359375</ele>
        <time>2019-07-07T07:58:59.000Z</time>
      </trkpt>
      <trkpt lat="39.58575189113616943359375" lon="-0.293746478855609893798828125">
        <ele>5.80000019073486328125</ele>
        <time>2019-07-07T07:59:01.000Z</time>
      </trkpt>
      <trkpt lat="39.58627064712345600128173828125" lon="-0.29368671588599681854248046875">
        <ele>5.400000095367431640625</ele>
        <time>2019-07-07T07:59:03.000Z</time>
      </trkpt>
      <trkpt lat="39.5867897383868694305419921875" lon="-0.2936289645731449127197265625">
        <ele>5.19999980926513671875</ele>
        <time>2019-07-07T07:59:05.000Z</time>
      </trkpt>
      <trkpt lat="39.587308578193187713623046875" lon="-0.29357339255511760711669921875">
        <ele>4</ele>
        <time>2019-07-07T07:59:07.000Z</time>
      </trkpt>
      <trkpt lat="39.5878233946859836578369140625" lon="-0.29352008365094661712646484375">
        <ele>3.599999904632568359375</ele>
        <time>2019-07-07T07:59:09.000Z</time>
      </trkpt>
      <trkpt lat="39.58832438103854656219482421875" lon="-0.29346325434744358062744140625">
        <ele>3.599999904632568359375</ele>
        <time>2019-07-07T07:59:11.000Z</time>
      </trkpt>
      <trkpt lat="39.5888161472976207733154296875" lon="-0.29340793378651142120361328125">
        <ele>3.2000000476837158203125</ele>
        <time>2019-07-07T07:59:13.000Z</time>
      </trkpt>
      <trkpt lat="39.58907607011497020721435546875" lon="-0.29338630847632884979248046875">
        <ele>2.2000000476837158203125</ele>
        <time>2019-07-07T07:59:14.000Z</time>
      </trkpt>
      <trkpt lat="39.58933071233332157135009765625" lon="-0.29336183331906795501708984375">
        <ele>0.60000002384185791015625</ele>
        <time>2019-07-07T07:59:15.000Z</time>
      </trkpt>
      <trkpt lat="39.58958904258906841278076171875" lon="-0.2933332510292530059814453125">
        <ele>-1.39999997615814208984375</ele>
        <time>2019-07-07T07:59:16.000Z</time>
      </trkpt>
      <trkpt lat="39.58986028097569942474365234375" lon="-0.29330022633075714111328125">
        <ele>-2.7999999523162841796875</ele>
        <time>2019-07-07T07:59:17.000Z</time>
      </trkpt>
      <trkpt lat="39.5901413261890411376953125" lon="-0.29326527379453182220458984375">
        <ele>-5.80000019073486328125</ele>
        <time>2019-07-07T07:59:18.000Z</time>
      </trkpt>
      <trkpt lat="39.59042438305914402008056640625" lon="-0.29323023743927478790283203125">
        <ele>-8.6000003814697265625</ele>
        <time>2019-07-07T07:59:19.000Z</time>
      </trkpt>
      <trkpt lat="39.59070702083408832550048828125" lon="-0.29319805093109607696533203125">
        <ele>-10</ele>
        <time>2019-07-07T07:59:20.000Z</time>
      </trkpt>
      <trkpt lat="39.59127145819365978240966796875" lon="-0.29313568957149982452392578125">
        <ele>-9.3999996185302734375</ele>
        <time>2019-07-07T07:59:22.000Z</time>
      </trkpt>
      <trkpt lat="39.59184109233319759368896484375" lon="-0.29306947253644466400146484375">
        <ele>-10</ele>
        <time>2019-07-07T07:59:24.000Z</time>
      </trkpt>
      <trkpt lat="39.59241919219493865966796875" lon="-0.293001830577850341796875">
        <ele>-9.19999980926513671875</ele>
        <time>2019-07-07T07:59:26.000Z</time>
      </trkpt>
      <trkpt lat="39.5927087031304836273193359375" lon="-0.29297157190740108489990234375">
        <ele>-8.80000019073486328125</ele>
        <time>2019-07-07T07:59:27.000Z</time>
      </trkpt>
      <trkpt lat="39.593284539878368377685546875" lon="-0.29292329214513301849365234375">
        <ele>-8</ele>
        <time>2019-07-07T07:59:29.000Z</time>
      </trkpt>
      <trkpt lat="39.59356784820556640625" lon="-0.292909629642963409423828125">
        <ele>-7.19999980926513671875</ele>
        <time>2019-07-07T07:59:30.000Z</time>
      </trkpt>
      <trkpt lat="39.59412507712841033935546875" lon="-0.292900912463665008544921875">
        <ele>-6.599999904632568359375</ele>
        <time>2019-07-07T07:59:32.000Z</time>
      </trkpt>
      <trkpt lat="39.59439991973340511322021484375" lon="-0.29290183447301387786865234375">
        <ele>-6</ele>
        <time>2019-07-07T07:59:33.000Z</time>
      </trkpt>
      <trkpt lat="39.59493703208863735198974609375" lon="-0.29291407205164432525634765625">
        <ele>-5.599999904632568359375</ele>
        <time>2019-07-07T07:59:35.000Z</time>
      </trkpt>
      <trkpt lat="39.5954613201320171356201171875" lon="-0.29295153915882110595703125">
        <ele>-5.80000019073486328125</ele>
        <time>2019-07-07T07:59:37.000Z</time>
      </trkpt>
      <trkpt lat="39.5959803275763988494873046875" lon="-0.29299705289304256439208984375">
        <ele>-5.400000095367431640625</ele>
        <time>2019-07-07T07:59:39.000Z</time>
      </trkpt>
      <trkpt lat="39.59623974747955799102783203125" lon="-0.293018259108066558837890625">
        <ele>-3.7999999523162841796875</ele>
        <time>2019-07-07T07:59:40.000Z</time>
      </trkpt>
      <trkpt lat="39.59650008939206600189208984375" lon="-0.29303845949470996856689453125">
        <ele>-5</ele>
        <time>2019-07-07T07:59:41.000Z</time>
      </trkpt>
      <trkpt lat="39.59702345542609691619873046875" lon="-0.29307953082025051116943359375">
        <ele>-5.80000019073486328125</ele>
        <time>2019-07-07T07:59:43.000Z</time>
      </trkpt>
      <trkpt lat="39.59755235351622104644775390625" lon="-0.2931257151067256927490234375">
        <ele>-4.80000019073486328125</ele>
        <time>2019-07-07T07:59:45.000Z</time>
      </trkpt>
      <trkpt lat="39.59808426909148693084716796875" lon="-0.29316837899386882781982421875">
        <ele>-5.400000095367431640625</ele>
        <time>2019-07-07T07:59:47.000Z</time>
      </trkpt>
      <trkpt lat="39.598618112504482269287109375" lon="-0.29320559464395046234130859375">
        <ele>-4.599999904632568359375</ele>
        <time>2019-07-07T07:59:49.000Z</time>
      </trkpt>
      <trkpt lat="39.598887003958225250244140625" lon="-0.29322403483092784881591796875">
        <ele>-3.599999904632568359375</ele>
        <time>2019-07-07T07:59:50.000Z</time>
      </trkpt>
      <trkpt lat="39.5994309894740581512451171875" lon="-0.29326342977583408355712890625">
        <ele>-3.599999904632568359375</ele>
        <time>2019-07-07T07:59:52.000Z</time>
      </trkpt>
      <trkpt lat="39.59998377598822116851806640625" lon="-0.29330936260521411895751953125">
        <ele>-3.7999999523162841796875</ele>
        <time>2019-07-07T07:59:54.000Z</time>
      </trkpt>
      <trkpt lat="39.60053564049303531646728515625" lon="-0.2933557145297527313232421875">
        <ele>-3.7999999523162841796875</ele>
        <time>2019-07-07T07:59:56.000Z</time>
      </trkpt>
      <trkpt lat="39.60108901374042034149169921875" lon="-0.29339888133108615875244140625">
        <ele>-4.599999904632568359375</ele>
        <time>2019-07-07T07:59:58.000Z</time>
      </trkpt>
      <trkpt lat="39.60136829875409603118896484375" lon="-0.29341916553676128387451171875">
        <ele>-5</ele>
        <time>2019-07-07T07:59:59.000Z</time>
      </trkpt>
      <trkpt lat="39.60192686878144741058349609375" lon="-0.29346057213842868804931640625">
        <ele>-6.599999904632568359375</ele>
        <time>2019-07-07T08:00:01.000Z</time>
      </trkpt>
      <trkpt lat="39.60248376242816448211669921875" lon="-0.29350541532039642333984375">
        <ele>-7.400000095367431640625</ele>
        <time>2019-07-07T08:00:03.000Z</time>
      </trkpt>
      <trkpt lat="39.60276170633733272552490234375" lon="-0.2935263700783252716064453125">
        <ele>-7.599999904632568359375</ele>
        <time>2019-07-07T08:00:04.000Z</time>
      </trkpt>
      <trkpt lat="39.6033205278217792510986328125" lon="-0.2935676090419292449951171875">
        <ele>-6.400000095367431640625</ele>
        <time>2019-07-07T08:00:06.000Z</time>
      </trkpt>
      <trkpt lat="39.60388136096298694610595703125" lon="-0.293615721166133880615234375">
        <ele>-5.599999904632568359375</ele>
        <time>2019-07-07T08:00:08.000Z</time>
      </trkpt>
      <trkpt lat="39.60416165180504322052001953125" lon="-0.29363743029534816741943359375">
        <ele>-5.400000095367431640625</ele>
        <time>2019-07-07T08:00:09.000Z</time>
      </trkpt>
      <trkpt lat="39.6047191321849822998046875" lon="-0.29367799870669841766357421875">
        <ele>-5</ele>
        <time>2019-07-07T08:00:11.000Z</time>
      </trkpt>
      <trkpt lat="39.60527393035590648651123046875" lon="-0.293721668422222137451171875">
        <ele>-5.19999980926513671875</ele>
        <time>2019-07-07T08:00:13.000Z</time>
      </trkpt>
      <trkpt lat="39.60582814179360866546630859375" lon="-0.29376315884292125701904296875">
        <ele>-5.19999980926513671875</ele>
        <time>2019-07-07T08:00:15.000Z</time>
      </trkpt>
      <trkpt lat="39.6063819341361522674560546875" lon="-0.29380314052104949951171875">
        <ele>-4</ele>
        <time>2019-07-07T08:00:17.000Z</time>
      </trkpt>
      <trkpt lat="39.60693421773612499237060546875" lon="-0.29384328983724117279052734375">
        <ele>-3</ele>
        <time>2019-07-07T08:00:19.000Z</time>
      </trkpt>
      <trkpt lat="39.6072080545127391815185546875" lon="-0.29386457987129688262939453125">
        <ele>-2.7999999523162841796875</ele>
        <time>2019-07-07T08:00:20.000Z</time>
      </trkpt>
      <trkpt lat="39.60775413550436496734619140625" lon="-0.2939082495868206024169921875">
        <ele>-3.400000095367431640625</ele>
        <time>2019-07-07T08:00:22.000Z</time>
      </trkpt>
      <trkpt lat="39.60830331780016422271728515625" lon="-0.2939531765878200531005859375">
        <ele>-3.7999999523162841796875</ele>
        <time>2019-07-07T08:00:24.000Z</time>
      </trkpt>
      <trkpt lat="39.608579836785793304443359375" lon="-0.2939741313457489013671875">
        <ele>-4.599999904632568359375</ele>
        <time>2019-07-07T08:00:25.000Z</time>
      </trkpt>
      <trkpt lat="39.60913497023284435272216796875" lon="-0.29401696287095546722412109375">
        <ele>-5.80000019073486328125</ele>
        <time>2019-07-07T08:00:27.000Z</time>
      </trkpt>
      <trkpt lat="39.6096890978515148162841796875" lon="-0.2940608002245426177978515625">
        <ele>-5.599999904632568359375</ele>
        <time>2019-07-07T08:00:29.000Z</time>
      </trkpt>
      <trkpt lat="39.61024506948888301849365234375" lon="-0.294101871550083160400390625">
        <ele>-4.80000019073486328125</ele>
        <time>2019-07-07T08:00:31.000Z</time>
      </trkpt>
      <trkpt lat="39.61052418686449527740478515625" lon="-0.29412307776510715484619140625">
        <ele>-3.599999904632568359375</ele>
        <time>2019-07-07T08:00:32.000Z</time>
      </trkpt>
      <trkpt lat="39.6110818348824977874755859375" lon="-0.294166244566440582275390625">
        <ele>-2.599999904632568359375</ele>
        <time>2019-07-07T08:00:34.000Z</time>
      </trkpt>
      <trkpt lat="39.61163780651986598968505859375" lon="-0.29421217739582061767578125">
        <ele>-2.2000000476837158203125</ele>
        <time>2019-07-07T08:00:36.000Z</time>
      </trkpt>
      <trkpt lat="39.61218782700598239898681640625" lon="-0.29425752349197864532470703125">
        <ele>-2.400000095367431640625</ele>
        <time>2019-07-07T08:00:38.000Z</time>
      </trkpt>
      <trkpt lat="39.61273700930178165435791015625" lon="-0.29430806636810302734375">
        <ele>-2.599999904632568359375</ele>
        <time>2019-07-07T08:00:40.000Z</time>
      </trkpt>
      <trkpt lat="39.6132889576256275177001953125" lon="-0.2943635545670986175537109375">
        <ele>-2.599999904632568359375</ele>
        <time>2019-07-07T08:00:42.000Z</time>
      </trkpt>
      <trkpt lat="39.6138435043394565582275390625" lon="-0.2944182045757770538330078125">
        <ele>-2</ele>
        <time>2019-07-07T08:00:44.000Z</time>
      </trkpt>
      <trkpt lat="39.61412069387733936309814453125" lon="-0.29444259591400623321533203125">
        <ele>-1.39999997615814208984375</ele>
        <time>2019-07-07T08:00:45.000Z</time>
      </trkpt>
      <trkpt lat="39.61467222310602664947509765625" lon="-0.29448710381984710693359375">
        <ele>-0.4000000059604644775390625</ele>
        <time>2019-07-07T08:00:47.000Z</time>
      </trkpt>
      <trkpt lat="39.615231044590473175048828125" lon="-0.2945315279066562652587890625">
        <ele>-0.20000000298023223876953125</ele>
        <time>2019-07-07T08:00:49.000Z</time>
      </trkpt>
      <trkpt lat="39.615790955722332000732421875" lon="-0.2945707552134990692138671875">
        <ele>1.39999997615814208984375</ele>
        <time>2019-07-07T08:00:51.000Z</time>
      </trkpt>
      <trkpt lat="39.616354219615459442138671875" lon="-0.29460805468261241912841796875">
        <ele>0.4000000059604644775390625</ele>
        <time>2019-07-07T08:00:53.000Z</time>
      </trkpt>
      <trkpt lat="39.61663811467587947845458984375" lon="-0.29462993144989013671875">
        <ele>0</ele>
        <time>2019-07-07T08:00:54.000Z</time>
      </trkpt>
      <trkpt lat="39.61720707826316356658935546875" lon="-0.29467293061316013336181640625">
        <ele>-1.60000002384185791015625</ele>
        <time>2019-07-07T08:00:56.000Z</time>
      </trkpt>
      <trkpt lat="39.6177742816507816314697265625" lon="-0.2947159297764301300048828125">
        <ele>-2.599999904632568359375</ele>
        <time>2019-07-07T08:00:58.000Z</time>
      </trkpt>
      <trkpt lat="39.618344418704509735107421875" lon="-0.2947672270238399505615234375">
        <ele>-2.2000000476837158203125</ele>
        <time>2019-07-07T08:01:00.000Z</time>
      </trkpt>
      <trkpt lat="39.61891463957726955413818359375" lon="-0.29481835663318634033203125">
        <ele>-2.599999904632568359375</ele>
        <time>2019-07-07T08:01:02.000Z</time>
      </trkpt>
      <trkpt lat="39.619474299252033233642578125" lon="-0.2948614396154880523681640625">
        <ele>-1.7999999523162841796875</ele>
        <time>2019-07-07T08:01:04.000Z</time>
      </trkpt>
      <trkpt lat="39.6200239844620227813720703125" lon="-0.29490242712199687957763671875">
        <ele>-2</ele>
        <time>2019-07-07T08:01:06.000Z</time>
      </trkpt>
      <trkpt lat="39.620564281940460205078125" lon="-0.29494316317141056060791015625">
        <ele>-1.7999999523162841796875</ele>
        <time>2019-07-07T08:01:08.000Z</time>
      </trkpt>
      <trkpt lat="39.62109376676380634307861328125" lon="-0.2949772775173187255859375">
        <ele>-3.2000000476837158203125</ele>
        <time>2019-07-07T08:01:10.000Z</time>
      </trkpt>
      <trkpt lat="39.6213583834469318389892578125" lon="-0.2949844859540462493896484375">
        <ele>-4</ele>
        <time>2019-07-07T08:01:11.000Z</time>
      </trkpt>
      <trkpt lat="39.6216242574155330657958984375" lon="-0.294988341629505157470703125">
        <ele>-5.19999980926513671875</ele>
        <time>2019-07-07T08:01:12.000Z</time>
      </trkpt>
      <trkpt lat="39.622134380042552947998046875" lon="-0.29499596916139125823974609375">
        <ele>-5</ele>
        <time>2019-07-07T08:01:14.000Z</time>
      </trkpt>
      <trkpt lat="39.6226186864078044891357421875" lon="-0.295018516480922698974609375">
        <ele>-4.400000095367431640625</ele>
        <time>2019-07-07T08:01:16.000Z</time>
      </trkpt>
      <trkpt lat="39.62286419235169887542724609375" lon="-0.2950394712388515472412109375">
        <ele>-4</ele>
        <time>2019-07-07T08:01:17.000Z</time>
      </trkpt>
      <trkpt lat="39.623360820114612579345703125" lon="-0.2951075322926044464111328125">
        <ele>-3.400000095367431640625</ele>
        <time>2019-07-07T08:01:19.000Z</time>
      </trkpt>
      <trkpt lat="39.62386071681976318359375" lon="-0.2952272258698940277099609375">
        <ele>-2.599999904632568359375</ele>
        <time>2019-07-07T08:01:21.000Z</time>
      </trkpt>
      <trkpt lat="39.62436773814260959625244140625" lon="-0.29539830051362514495849609375">
        <ele>-3</ele>
        <time>2019-07-07T08:01:23.000Z</time>
      </trkpt>
      <trkpt lat="39.6246176026761531829833984375" lon="-0.2955024875700473785400390625">
        <ele>-3.599999904632568359375</ele>
        <time>2019-07-07T08:01:24.000Z</time>
      </trkpt>
      <trkpt lat="39.6251060999929904937744140625" lon="-0.29573969542980194091796875">
        <ele>-3.2000000476837158203125</ele>
        <time>2019-07-07T08:01:26.000Z</time>
      </trkpt>
      <trkpt lat="39.62557020597159862518310546875" lon="-0.29601235873997211456298828125">
        <ele>-2.7999999523162841796875</ele>
        <time>2019-07-07T08:01:28.000Z</time>
      </trkpt>
      <trkpt lat="39.625794589519500732421875" lon="-0.29616189189255237579345703125">
        <ele>-1</ele>
        <time>2019-07-07T08:01:29.000Z</time>
      </trkpt>
      <trkpt lat="39.6260173805058002471923828125" lon="-0.296314693987369537353515625">
        <ele>0.60000002384185791015625</ele>
        <time>2019-07-07T08:01:30.000Z</time>
      </trkpt>
      <trkpt lat="39.62646103464066982269287109375" lon="-0.29661417938768863677978515625">
        <ele>2.400000095367431640625</ele>
        <time>2019-07-07T08:01:32.000Z</time>
      </trkpt>
      <trkpt lat="39.62668416090309619903564453125" lon="-0.29676119796931743621826171875">
        <ele>3.599999904632568359375</ele>
        <time>2019-07-07T08:01:33.000Z</time>
      </trkpt>
      <trkpt lat="39.62713234126567840576171875" lon="-0.2970467694103717803955078125">
        <ele>3</ele>
        <time>2019-07-07T08:01:35.000Z</time>
      </trkpt>
      <trkpt lat="39.62735219858586788177490234375" lon="-0.297183729708194732666015625">
        <ele>1.2000000476837158203125</ele>
        <time>2019-07-07T08:01:36.000Z</time>
      </trkpt>
      <trkpt lat="39.62756325490772724151611328125" lon="-0.297315828502178192138671875">
        <ele>0.20000000298023223876953125</ele>
        <time>2019-07-07T08:01:37.000Z</time>
      </trkpt>
      <trkpt lat="39.62776475585997104644775390625" lon="-0.2974422276020050048828125">
        <ele>-1</ele>
        <time>2019-07-07T08:01:38.000Z</time>
      </trkpt>
      <trkpt lat="39.62795904837548732757568359375" lon="-0.29756049625575542449951171875">
        <ele>-2.7999999523162841796875</ele>
        <time>2019-07-07T08:01:39.000Z</time>
      </trkpt>
      <trkpt lat="39.62814621627330780029296875" lon="-0.29767130501568317413330078125">
        <ele>-4</ele>
        <time>2019-07-07T08:01:40.000Z</time>
      </trkpt>
      <trkpt lat="39.6285057999193668365478515625" lon="-0.297875069081783294677734375">
        <ele>-3</ele>
        <time>2019-07-07T08:01:42.000Z</time>
      </trkpt>
      <trkpt lat="39.6286841668188571929931640625" lon="-0.29796634800732135772705078125">
        <ele>-1.60000002384185791015625</ele>
        <time>2019-07-07T08:01:43.000Z</time>
      </trkpt>
      <trkpt lat="39.62923661805689334869384765625" lon="-0.29816365800797939300537109375">
        <ele>0.20000000298023223876953125</ele>
        <time>2019-07-07T08:01:46.000Z</time>
      </trkpt>
      <trkpt lat="39.6294303238391876220703125" lon="-0.2981974370777606964111328125">
        <ele>1.2000000476837158203125</ele>
        <time>2019-07-07T08:01:47.000Z</time>
      </trkpt>
      <trkpt lat="39.62982318364083766937255859375" lon="-0.298237167298793792724609375">
        <ele>2.2000000476837158203125</ele>
        <time>2019-07-07T08:01:49.000Z</time>
      </trkpt>
      <trkpt lat="39.6303803287446498870849609375" lon="-0.29827849008142948150634765625">
        <ele>3.400000095367431640625</ele>
        <time>2019-07-07T08:01:52.000Z</time>
      </trkpt>
      <trkpt lat="39.63092993013560771942138671875" lon="-0.2982815913856029510498046875">
        <ele>4</ele>
        <time>2019-07-07T08:01:55.000Z</time>
      </trkpt>
      <trkpt lat="39.63149688206613063812255859375" lon="-0.2981803379952907562255859375">
        <ele>3.599999904632568359375</ele>
        <time>2019-07-07T08:01:58.000Z</time>
      </trkpt>
      <trkpt lat="39.63168061338365077972412109375" lon="-0.29810833744704723358154296875">
        <ele>4</ele>
        <time>2019-07-07T08:01:59.000Z</time>
      </trkpt>
      <trkpt lat="39.63220900855958461761474609375" lon="-0.29780625365674495697021484375">
        <ele>3.7999999523162841796875</ele>
        <time>2019-07-07T08:02:02.000Z</time>
      </trkpt>
      <trkpt lat="39.6326887048780918121337890625" lon="-0.29745421372354030609130859375">
        <ele>4.599999904632568359375</ele>
        <time>2019-07-07T08:02:05.000Z</time>
      </trkpt>
      <trkpt lat="39.63315063156187534332275390625" lon="-0.29710183851420879364013671875">
        <ele>5.19999980926513671875</ele>
        <time>2019-07-07T08:02:08.000Z</time>
      </trkpt>
      <trkpt lat="39.6336422301828861236572265625" lon="-0.29672867618501186370849609375">
        <ele>5.599999904632568359375</ele>
        <time>2019-07-07T08:02:11.000Z</time>
      </trkpt>
      <trkpt lat="39.63417372666299343109130859375" lon="-0.296326763927936553955078125">
        <ele>5.599999904632568359375</ele>
        <time>2019-07-07T08:02:14.000Z</time>
      </trkpt>
      <trkpt lat="39.63472156785428524017333984375" lon="-0.29590540565550327301025390625">
        <ele>5.599999904632568359375</ele>
        <time>2019-07-07T08:02:17.000Z</time>
      </trkpt>
      <trkpt lat="39.6349020302295684814453125" lon="-0.295764170587062835693359375">
        <ele>6</ele>
        <time>2019-07-07T08:02:18.000Z</time>
      </trkpt>
      <trkpt lat="39.635449536144733428955078125" lon="-0.2952979691326618194580078125">
        <ele>5.400000095367431640625</ele>
        <time>2019-07-07T08:02:21.000Z</time>
      </trkpt>
      <trkpt lat="39.63578841648995876312255859375" lon="-0.294918604195117950439453125">
        <ele>3.7999999523162841796875</ele>
        <time>2019-07-07T08:02:23.000Z</time>
      </trkpt>
      <trkpt lat="39.63609921745955944061279296875" lon="-0.2944757044315338134765625">
        <ele>2.7999999523162841796875</ele>
        <time>2019-07-07T08:02:25.000Z</time>
      </trkpt>
      <trkpt lat="39.63639945723116397857666015625" lon="-0.29400304891169071197509765625">
        <ele>1.2000000476837158203125</ele>
        <time>2019-07-07T08:02:27.000Z</time>
      </trkpt>
      <trkpt lat="39.6366898901760578155517578125" lon="-0.29354631900787353515625">
        <ele>0.4000000059604644775390625</ele>
        <time>2019-07-07T08:02:29.000Z</time>
      </trkpt>
      <trkpt lat="39.6368357352912425994873046875" lon="-0.29332947917282581329345703125">
        <ele>0</ele>
        <time>2019-07-07T08:02:30.000Z</time>
      </trkpt>
      <trkpt lat="39.637315012514591217041015625" lon="-0.29273520223796367645263671875">
        <ele>-0.20000000298023223876953125</ele>
        <time>2019-07-07T08:02:33.000Z</time>
      </trkpt>
      <trkpt lat="39.63768222369253635406494140625" lon="-0.2923844195902347564697265625">
        <ele>1</ele>
        <time>2019-07-07T08:02:35.000Z</time>
      </trkpt>
      <trkpt lat="39.63807801716029644012451171875" lon="-0.292068086564540863037109375">
        <ele>2</ele>
        <time>2019-07-07T08:02:37.000Z</time>
      </trkpt>
      <trkpt lat="39.63849090971052646636962890625" lon="-0.2917671762406826019287109375">
        <ele>2.2000000476837158203125</ele>
        <time>2019-07-07T08:02:39.000Z</time>
      </trkpt>
      <trkpt lat="39.638915620744228363037109375" lon="-0.29146333225071430206298828125">
        <ele>2.2000000476837158203125</ele>
        <time>2019-07-07T08:02:41.000Z</time>
      </trkpt>
      <trkpt lat="39.639342091977596282958984375" lon="-0.29115169309079647064208984375">
        <ele>1.7999999523162841796875</ele>
        <time>2019-07-07T08:02:43.000Z</time>
      </trkpt>
      <trkpt lat="39.63976210914552211761474609375" lon="-0.2908364497125148773193359375">
        <ele>0.800000011920928955078125</ele>
        <time>2019-07-07T08:02:45.000Z</time>
      </trkpt>
      <trkpt lat="39.64018128812313079833984375" lon="-0.29051533900201320648193359375">
        <ele>1</ele>
        <time>2019-07-07T08:02:47.000Z</time>
      </trkpt>
      <trkpt lat="39.64060013182461261749267578125" lon="-0.29017721302807331085205078125">
        <ele>0.800000011920928955078125</ele>
        <time>2019-07-07T08:02:49.000Z</time>
      </trkpt>
      <trkpt lat="39.64101235382258892059326171875" lon="-0.28981595300137996673583984375">
        <ele>1.60000002384185791015625</ele>
        <time>2019-07-07T08:02:51.000Z</time>
      </trkpt>
      <trkpt lat="39.6412146091461181640625" lon="-0.289628617465496063232421875">
        <ele>1.7999999523162841796875</ele>
        <time>2019-07-07T08:02:52.000Z</time>
      </trkpt>
      <trkpt lat="39.6416110731661319732666015625" lon="-0.2892453968524932861328125">
        <ele>1.7999999523162841796875</ele>
        <time>2019-07-07T08:02:54.000Z</time>
      </trkpt>
      <trkpt lat="39.64200292713940143585205078125" lon="-0.28886008076369762420654296875">
        <ele>2.599999904632568359375</ele>
        <time>2019-07-07T08:02:56.000Z</time>
      </trkpt>
      <trkpt lat="39.642392434179782867431640625" lon="-0.2884737588465213775634765625">
        <ele>2.7999999523162841796875</ele>
        <time>2019-07-07T08:02:58.000Z</time>
      </trkpt>
      <trkpt lat="39.6425865590572357177734375" lon="-0.28828038834035396575927734375">
        <ele>3.2000000476837158203125</ele>
        <time>2019-07-07T08:02:59.000Z</time>
      </trkpt>
      <trkpt lat="39.64297941885888576507568359375" lon="-0.28789482079446315765380859375">
        <ele>4.400000095367431640625</ele>
        <time>2019-07-07T08:03:01.000Z</time>
      </trkpt>
      <trkpt lat="39.643380157649517059326171875" lon="-0.287500955164432525634765625">
        <ele>6.19999980926513671875</ele>
        <time>2019-07-07T08:03:03.000Z</time>
      </trkpt>
      <trkpt lat="39.64378676377236843109130859375" lon="-0.2870957739651203155517578125">
        <ele>7.599999904632568359375</ele>
        <time>2019-07-07T08:03:05.000Z</time>
      </trkpt>
      <trkpt lat="39.644204936921596527099609375" lon="-0.2866838872432708740234375">
        <ele>8.3999996185302734375</ele>
        <time>2019-07-07T08:03:07.000Z</time>
      </trkpt>
      <trkpt lat="39.64441825635731220245361328125" lon="-0.28647861443459987640380859375">
        <ele>9.80000019073486328125</ele>
        <time>2019-07-07T08:03:08.000Z</time>
      </trkpt>
      <trkpt lat="39.6448521874845027923583984375" lon="-0.28607695363461971282958984375">
        <ele>9.6000003814697265625</ele>
        <time>2019-07-07T08:03:10.000Z</time>
      </trkpt>
      <trkpt lat="39.6450758166611194610595703125" lon="-0.28589171357452869415283203125">
        <ele>8.6000003814697265625</ele>
        <time>2019-07-07T08:03:11.000Z</time>
      </trkpt>
      <trkpt lat="39.64554302394390106201171875" lon="-0.28556532226502895355224609375">
        <ele>6.19999980926513671875</ele>
        <time>2019-07-07T08:03:13.000Z</time>
      </trkpt>
      <trkpt lat="39.64578568004071712493896484375" lon="-0.28542266227304935455322265625">
        <ele>5</ele>
        <time>2019-07-07T08:03:14.000Z</time>
      </trkpt>
      <trkpt lat="39.646032191812992095947265625" lon="-0.285293497145175933837890625">
        <ele>3.599999904632568359375</ele>
        <time>2019-07-07T08:03:15.000Z</time>
      </trkpt>
      <trkpt lat="39.64653485454618930816650390625" lon="-0.28507850132882595062255859375">
        <ele>4.80000019073486328125</ele>
        <time>2019-07-07T08:03:17.000Z</time>
      </trkpt>
      <trkpt lat="39.64678949676454067230224609375" lon="-0.28498495928943157196044921875">
        <ele>5.80000019073486328125</ele>
        <time>2019-07-07T08:03:18.000Z</time>
      </trkpt>
      <trkpt lat="39.64730414561927318572998046875" lon="-0.28480223380029201507568359375">
        <ele>6.400000095367431640625</ele>
        <time>2019-07-07T08:03:20.000Z</time>
      </trkpt>
      <trkpt lat="39.6478234045207500457763671875" lon="-0.28460945002734661102294921875">
        <ele>6.599999904632568359375</ele>
        <time>2019-07-07T08:03:22.000Z</time>
      </trkpt>
      <trkpt lat="39.648082070052623748779296875" lon="-0.28451104648411273956298828125">
        <ele>7</ele>
        <time>2019-07-07T08:03:23.000Z</time>
      </trkpt>
      <trkpt lat="39.64860049076378345489501953125" lon="-0.284325219690799713134765625">
        <ele>7.400000095367431640625</ele>
        <time>2019-07-07T08:03:25.000Z</time>
      </trkpt>
      <trkpt lat="39.64886066503822803497314453125" lon="-0.28423645533621311187744140625">
        <ele>8.19999980926513671875</ele>
        <time>2019-07-07T08:03:26.000Z</time>
      </trkpt>
      <trkpt lat="39.64937858283519744873046875" lon="-0.284059680998325347900390625">
        <ele>9</ele>
        <time>2019-07-07T08:03:28.000Z</time>
      </trkpt>
      <trkpt lat="39.64963464997708797454833984375" lon="-0.2839721739292144775390625">
        <ele>9.6000003814697265625</ele>
        <time>2019-07-07T08:03:29.000Z</time>
      </trkpt>
      <trkpt lat="39.65014376677572727203369140625" lon="-0.2837986685335636138916015625">
        <ele>10.6000003814697265625</ele>
        <time>2019-07-07T08:03:31.000Z</time>
      </trkpt>
      <trkpt lat="39.6506544761359691619873046875" lon="-0.28362390585243701934814453125">
        <ele>10.3999996185302734375</ele>
        <time>2019-07-07T08:03:33.000Z</time>
      </trkpt>
      <trkpt lat="39.65116334147751331329345703125" lon="-0.2834469638764858245849609375">
        <ele>9</ele>
        <time>2019-07-07T08:03:35.000Z</time>
      </trkpt>
      <trkpt lat="39.65166776441037654876708984375" lon="-0.2832712791860103607177734375">
        <ele>8.3999996185302734375</ele>
        <time>2019-07-07T08:03:37.000Z</time>
      </trkpt>
      <trkpt lat="39.65217486955225467681884765625" lon="-0.28310238383710384368896484375">
        <ele>9.6000003814697265625</ele>
        <time>2019-07-07T08:03:39.000Z</time>
      </trkpt>
      <trkpt lat="39.65242833830416202545166015625" lon="-0.28301655314862728118896484375">
        <ele>10.6000003814697265625</ele>
        <time>2019-07-07T08:03:40.000Z</time>
      </trkpt>
      <trkpt lat="39.6529303304851055145263671875" lon="-0.28284321539103984832763671875">
        <ele>12.19999980926513671875</ele>
        <time>2019-07-07T08:03:42.000Z</time>
      </trkpt>
      <trkpt lat="39.6534280478954315185546875" lon="-0.2826711349189281463623046875">
        <ele>12.19999980926513671875</ele>
        <time>2019-07-07T08:03:44.000Z</time>
      </trkpt>
      <trkpt lat="39.65392350219190120697021484375" lon="-0.28250031173229217529296875">
        <ele>12.19999980926513671875</ele>
        <time>2019-07-07T08:03:46.000Z</time>
      </trkpt>
      <trkpt lat="39.65441937558352947235107421875" lon="-0.2823308296501636505126953125">
        <ele>13.19999980926513671875</ele>
        <time>2019-07-07T08:03:48.000Z</time>
      </trkpt>
      <trkpt lat="39.6549181826412677764892578125" lon="-0.28216042555868625640869140625">
        <ele>13.80000019073486328125</ele>
        <time>2019-07-07T08:03:50.000Z</time>
      </trkpt>
      <trkpt lat="39.65542201884090900421142578125" lon="-0.28198608197271823883056640625">
        <ele>14.80000019073486328125</ele>
        <time>2019-07-07T08:03:52.000Z</time>
      </trkpt>
      <trkpt lat="39.65592979453504085540771484375" lon="-0.2818047814071178436279296875">
        <ele>15.80000019073486328125</ele>
        <time>2019-07-07T08:03:54.000Z</time>
      </trkpt>
      <trkpt lat="39.656431786715984344482421875" lon="-0.28159280307590961456298828125">
        <ele>15</ele>
        <time>2019-07-07T08:03:56.000Z</time>
      </trkpt>
      <trkpt lat="39.6569261513650417327880859375" lon="-0.2813581936061382293701171875">
        <ele>14.80000019073486328125</ele>
        <time>2019-07-07T08:03:58.000Z</time>
      </trkpt>
      <trkpt lat="39.65717048384249210357666015625" lon="-0.281233973801136016845703125">
        <ele>14.3999996185302734375</ele>
        <time>2019-07-07T08:03:59.000Z</time>
      </trkpt>
      <trkpt lat="39.65765462256968021392822265625" lon="-0.28096667490899562835693359375">
        <ele>14</ele>
        <time>2019-07-07T08:04:01.000Z</time>
      </trkpt>
      <trkpt lat="39.658137001097202301025390625" lon="-0.28069308958947658538818359375">
        <ele>14.3999996185302734375</ele>
        <time>2019-07-07T08:04:03.000Z</time>
      </trkpt>
      <trkpt lat="39.65862005017697811126708984375" lon="-0.2804224379360675811767578125">
        <ele>13.6000003814697265625</ele>
        <time>2019-07-07T08:04:05.000Z</time>
      </trkpt>
      <trkpt lat="39.659103937447071075439453125" lon="-0.280153714120388031005859375">
        <ele>14</ele>
        <time>2019-07-07T08:04:07.000Z</time>
      </trkpt>
      <trkpt lat="39.65958748944103717803955078125" lon="-0.2798802964389324188232421875">
        <ele>13.3999996185302734375</ele>
        <time>2019-07-07T08:04:09.000Z</time>
      </trkpt>
      <trkpt lat="39.65983022935688495635986328125" lon="-0.279743671417236328125">
        <ele>13.19999980926513671875</ele>
        <time>2019-07-07T08:04:10.000Z</time>
      </trkpt>
      <trkpt lat="39.66031570918858051300048828125" lon="-0.2794722653925418853759765625">
        <ele>13.6000003814697265625</ele>
        <time>2019-07-07T08:04:12.000Z</time>
      </trkpt>
      <trkpt lat="39.66055643744766712188720703125" lon="-0.27933756820857524871826171875">
        <ele>15</ele>
        <time>2019-07-07T08:04:13.000Z</time>
      </trkpt>
      <trkpt lat="39.6610316075384616851806640625" lon="-0.2790813334286212921142578125">
        <ele>14.3999996185302734375</ele>
        <time>2019-07-07T08:04:15.000Z</time>
      </trkpt>
      <trkpt lat="39.66150057502090930938720703125" lon="-0.27885057963430881500244140625">
        <ele>16.200000762939453125</ele>
        <time>2019-07-07T08:04:17.000Z</time>
      </trkpt>
      <trkpt lat="39.66196090914309024810791015625" lon="-0.27863281778991222381591796875">
        <ele>17.3999996185302734375</ele>
        <time>2019-07-07T08:04:19.000Z</time>
      </trkpt>
      <trkpt lat="39.66241118498146533966064453125" lon="-0.27842142619192600250244140625">
        <ele>17.6000003814697265625</ele>
        <time>2019-07-07T08:04:21.000Z</time>
      </trkpt>
      <trkpt lat="39.66286229901015758514404296875" lon="-0.27822763659060001373291015625">
        <ele>17.799999237060546875</ele>
        <time>2019-07-07T08:04:23.000Z</time>
      </trkpt>
      <trkpt lat="39.66330955736339092254638671875" lon="-0.2780895866453647613525390625">
        <ele>17.799999237060546875</ele>
        <time>2019-07-07T08:04:25.000Z</time>
      </trkpt>
      <trkpt lat="39.66374558396637439727783203125" lon="-0.2780456654727458953857421875">
        <ele>17.200000762939453125</ele>
        <time>2019-07-07T08:04:27.000Z</time>
      </trkpt>
      <trkpt lat="39.66415193863213062286376953125" lon="-0.2781214378774166107177734375">
        <ele>17.200000762939453125</ele>
        <time>2019-07-07T08:04:29.000Z</time>
      </trkpt>
      <trkpt lat="39.6645214967429637908935546875" lon="-0.278327129781246185302734375">
        <ele>18.799999237060546875</ele>
        <time>2019-07-07T08:04:31.000Z</time>
      </trkpt>
      <trkpt lat="39.664853923022747039794921875" lon="-0.27861379086971282958984375">
        <ele>19.6000003814697265625</ele>
        <time>2019-07-07T08:04:33.000Z</time>
      </trkpt>
      <trkpt lat="39.66500110924243927001953125" lon="-0.27879391796886920928955078125">
        <ele>21.200000762939453125</ele>
        <time>2019-07-07T08:04:34.000Z</time>
      </trkpt>
      <trkpt lat="39.66513387858867645263671875" lon="-0.27900195680558681488037109375">
        <ele>22</ele>
        <time>2019-07-07T08:04:35.000Z</time>
      </trkpt>
      <trkpt lat="39.6652480401098728179931640625" lon="-0.27923111803829669952392578125">
        <ele>22.3999996185302734375</ele>
        <time>2019-07-07T08:04:36.000Z</time>
      </trkpt>
      <trkpt lat="39.66534568928182125091552734375" lon="-0.27947771362960338592529296875">
        <ele>23</ele>
        <time>2019-07-07T08:04:37.000Z</time>
      </trkpt>
      <trkpt lat="39.6654294244945049285888671875" lon="-0.27973671443760395050048828125">
        <ele>23.3999996185302734375</ele>
        <time>2019-07-07T08:04:38.000Z</time>
      </trkpt>
      <trkpt lat="39.6655060350894927978515625" lon="-0.28000443242490291595458984375">
        <ele>24.6000003814697265625</ele>
        <time>2019-07-07T08:04:39.000Z</time>
      </trkpt>
      <trkpt lat="39.665658585727214813232421875" lon="-0.280554033815860748291015625">
        <ele>24.799999237060546875</ele>
        <time>2019-07-07T08:04:41.000Z</time>
      </trkpt>
      <trkpt lat="39.665830247104167938232421875" lon="-0.28111268766224384307861328125">
        <ele>25.200000762939453125</ele>
        <time>2019-07-07T08:04:43.000Z</time>
      </trkpt>
      <trkpt lat="39.666020683944225311279296875" lon="-0.2816632948815822601318359375">
        <ele>21.799999237060546875</ele>
        <time>2019-07-07T08:04:45.000Z</time>
      </trkpt>
      <trkpt lat="39.6661174111068248748779296875" lon="-0.281924307346343994140625">
        <ele>20</ele>
        <time>2019-07-07T08:04:46.000Z</time>
      </trkpt>
      <trkpt lat="39.66621371917426586151123046875" lon="-0.28218439780175685882568359375">
        <ele>18.3999996185302734375</ele>
        <time>2019-07-07T08:04:47.000Z</time>
      </trkpt>
      <trkpt lat="39.666522257030010223388671875" lon="-0.2829588018357753753662109375">
        <ele>17</ele>
        <time>2019-07-07T08:04:50.000Z</time>
      </trkpt>
      <trkpt lat="39.66682475991547107696533203125" lon="-0.28370420448482036590576171875">
        <ele>17.6000003814697265625</ele>
        <time>2019-07-07T08:04:53.000Z</time>
      </trkpt>
      <trkpt lat="39.666923917829990386962890625" lon="-0.28394912369549274444580078125">
        <ele>18.799999237060546875</ele>
        <time>2019-07-07T08:04:54.000Z</time>
      </trkpt>
      <trkpt lat="39.667023159563541412353515625" lon="-0.28419370763003826141357421875">
        <ele>20.200000762939453125</ele>
        <time>2019-07-07T08:04:55.000Z</time>
      </trkpt>
      <trkpt lat="39.6671232394874095916748046875" lon="-0.2844430692493915557861328125">
        <ele>21.200000762939453125</ele>
        <time>2019-07-07T08:04:56.000Z</time>
      </trkpt>
      <trkpt lat="39.66743496246635913848876953125" lon="-0.285204313695430755615234375">
        <ele>22.3999996185302734375</ele>
        <time>2019-07-07T08:04:59.000Z</time>
      </trkpt>
      <trkpt lat="39.66764551587402820587158203125" lon="-0.2857097424566745758056640625">
        <ele>24</ele>
        <time>2019-07-07T08:05:01.000Z</time>
      </trkpt>
      <trkpt lat="39.66775079257786273956298828125" lon="-0.28596346266567707061767578125">
        <ele>25.200000762939453125</ele>
        <time>2019-07-07T08:05:02.000Z</time>
      </trkpt>
      <trkpt lat="39.6678568236529827117919921875" lon="-0.28621844016015529632568359375">
        <ele>27.3999996185302734375</ele>
        <time>2019-07-07T08:05:03.000Z</time>
      </trkpt>
      <trkpt lat="39.66796369291841983795166015625" lon="-0.28647660277783870697021484375">
        <ele>29</ele>
        <time>2019-07-07T08:05:04.000Z</time>
      </trkpt>
      <trkpt lat="39.66807089745998382568359375" lon="-0.2867323346436023712158203125">
        <ele>30</ele>
        <time>2019-07-07T08:05:05.000Z</time>
      </trkpt>
      <trkpt lat="39.66829310171306133270263671875" lon="-0.2872567065060138702392578125">
        <ele>31.6000003814697265625</ele>
        <time>2019-07-07T08:05:07.000Z</time>
      </trkpt>
      <trkpt lat="39.66853357851505279541015625" lon="-0.2877783961594104766845703125">
        <ele>33.200000762939453125</ele>
        <time>2019-07-07T08:05:09.000Z</time>
      </trkpt>
      <trkpt lat="39.66866039671003818511962890625" lon="-0.28802775777876377105712890625">
        <ele>34.200000762939453125</ele>
        <time>2019-07-07T08:05:10.000Z</time>
      </trkpt>
      <trkpt lat="39.66879484243690967559814453125" lon="-0.28826949186623096466064453125">
        <ele>36.200000762939453125</ele>
        <time>2019-07-07T08:05:11.000Z</time>
      </trkpt>
      <trkpt lat="39.66893456876277923583984375" lon="-0.28850577771663665771484375">
        <ele>38.200000762939453125</ele>
        <time>2019-07-07T08:05:12.000Z</time>
      </trkpt>
      <trkpt lat="39.66907831840217113494873046875" lon="-0.288736782968044281005859375">
        <ele>40.59999847412109375</ele>
        <time>2019-07-07T08:05:13.000Z</time>
      </trkpt>
      <trkpt lat="39.6692260913550853729248046875" lon="-0.288958735764026641845703125">
        <ele>42.200000762939453125</ele>
        <time>2019-07-07T08:05:14.000Z</time>
      </trkpt>
      <trkpt lat="39.669382162392139434814453125" lon="-0.28916551731526851654052734375">
        <ele>43.799999237060546875</ele>
        <time>2019-07-07T08:05:15.000Z</time>
      </trkpt>
      <trkpt lat="39.66954653151333332061767578125" lon="-0.28935763053596019744873046875">
        <ele>44.799999237060546875</ele>
        <time>2019-07-07T08:05:16.000Z</time>
      </trkpt>
      <trkpt lat="39.6699013374745845794677734375" lon="-0.28971369378268718719482421875">
        <ele>46.799999237060546875</ele>
        <time>2019-07-07T08:05:18.000Z</time>
      </trkpt>
      <trkpt lat="39.6702803671360015869140625" lon="-0.2900562621653079986572265625">
        <ele>48.40000152587890625</ele>
        <time>2019-07-07T08:05:20.000Z</time>
      </trkpt>
      <trkpt lat="39.670475833117961883544921875" lon="-0.29023320414125919342041015625">
        <ele>49.59999847412109375</ele>
        <time>2019-07-07T08:05:21.000Z</time>
      </trkpt>
      <trkpt lat="39.67067322693765163421630859375" lon="-0.2904153428971767425537109375">
        <ele>50.799999237060546875</ele>
        <time>2019-07-07T08:05:22.000Z</time>
      </trkpt>
      <trkpt lat="39.6710734628140926361083984375" lon="-0.29078590683639049530029296875">
        <ele>51.40000152587890625</ele>
        <time>2019-07-07T08:05:24.000Z</time>
      </trkpt>
      <trkpt lat="39.67147872783243656158447265625" lon="-0.2911703847348690032958984375">
        <ele>51.799999237060546875</ele>
        <time>2019-07-07T08:05:26.000Z</time>
      </trkpt>
      <trkpt lat="39.67187234200537204742431640625" lon="-0.29157564975321292877197265625">
        <ele>52.200000762939453125</ele>
        <time>2019-07-07T08:05:28.000Z</time>
      </trkpt>
      <trkpt lat="39.67223393730819225311279296875" lon="-0.29202357865869998931884765625">
        <ele>52.40000152587890625</ele>
        <time>2019-07-07T08:05:30.000Z</time>
      </trkpt>
      <trkpt lat="39.672399647533893585205078125" lon="-0.29226430691778659820556640625">
        <ele>52.799999237060546875</ele>
        <time>2019-07-07T08:05:31.000Z</time>
      </trkpt>
      <trkpt lat="39.6726997196674346923828125" lon="-0.29277593828737735748291015625">
        <ele>53.40000152587890625</ele>
        <time>2019-07-07T08:05:33.000Z</time>
      </trkpt>
      <trkpt lat="39.6729516796767711639404296875" lon="-0.2933262102305889129638671875">
        <ele>54.200000762939453125</ele>
        <time>2019-07-07T08:05:35.000Z</time>
      </trkpt>
      <trkpt lat="39.673151671886444091796875" lon="-0.29391319490969181060791015625">
        <ele>54.200000762939453125</ele>
        <time>2019-07-07T08:05:37.000Z</time>
      </trkpt>
      <trkpt lat="39.673306234180927276611328125" lon="-0.2945305220782756805419921875">
        <ele>53.40000152587890625</ele>
        <time>2019-07-07T08:05:39.000Z</time>
      </trkpt>
      <trkpt lat="39.6733654104173183441162109375" lon="-0.29485012404620647430419921875">
        <ele>52.59999847412109375</ele>
        <time>2019-07-07T08:05:40.000Z</time>
      </trkpt>
      <trkpt lat="39.6734405122697353363037109375" lon="-0.29551615007221698760986328125">
        <ele>51.200000762939453125</ele>
        <time>2019-07-07T08:05:42.000Z</time>
      </trkpt>
      <trkpt lat="39.67345551587641239166259765625" lon="-0.29620950110256671905517578125">
        <ele>52</ele>
        <time>2019-07-07T08:05:44.000Z</time>
      </trkpt>
      <trkpt lat="39.6734431944787502288818359375" lon="-0.29656036756932735443115234375">
        <ele>52.799999237060546875</ele>
        <time>2019-07-07T08:05:45.000Z</time>
      </trkpt>
      <trkpt lat="39.67339617200195789337158203125" lon="-0.2972673811018466949462890625">
        <ele>54</ele>
        <time>2019-07-07T08:05:47.000Z</time>
      </trkpt>
      <trkpt lat="39.6733496524393558502197265625" lon="-0.29797590337693691253662109375">
        <ele>55.59999847412109375</ele>
        <time>2019-07-07T08:05:49.000Z</time>
      </trkpt>
      <trkpt lat="39.67331352643668651580810546875" lon="-0.2986839227378368377685546875">
        <ele>54.59999847412109375</ele>
        <time>2019-07-07T08:05:51.000Z</time>
      </trkpt>
      <trkpt lat="39.673297517001628875732421875" lon="-0.29939127154648303985595703125">
        <ele>53.799999237060546875</ele>
        <time>2019-07-07T08:05:53.000Z</time>
      </trkpt>
      <trkpt lat="39.6733033843338489532470703125" lon="-0.2997457422316074371337890625">
        <ele>55.59999847412109375</ele>
        <time>2019-07-07T08:05:54.000Z</time>
      </trkpt>
      <trkpt lat="39.67331285588443279266357421875" lon="-0.3001021407544612884521484375">
        <ele>57</ele>
        <time>2019-07-07T08:05:55.000Z</time>
      </trkpt>
      <trkpt lat="39.67331822030246257781982421875" lon="-0.30045862309634685516357421875">
        <ele>59.40000152587890625</ele>
        <time>2019-07-07T08:05:56.000Z</time>
      </trkpt>
      <trkpt lat="39.6733151189982891082763671875" lon="-0.30081602744758129119873046875">
        <ele>60.59999847412109375</ele>
        <time>2019-07-07T08:05:57.000Z</time>
      </trkpt>
      <trkpt lat="39.673285447061061859130859375" lon="-0.30153553001582622528076171875">
        <ele>60.799999237060546875</ele>
        <time>2019-07-07T08:05:59.000Z</time>
      </trkpt>
      <trkpt lat="39.67323088087141513824462890625" lon="-0.3022579662501811981201171875">
        <ele>60.40000152587890625</ele>
        <time>2019-07-07T08:06:01.000Z</time>
      </trkpt>
      <trkpt lat="39.67315175570547580718994140625" lon="-0.30297721736133098602294921875">
        <ele>60.799999237060546875</ele>
        <time>2019-07-07T08:06:03.000Z</time>
      </trkpt>
      <trkpt lat="39.673108421266078948974609375" lon="-0.3033358789980411529541015625">
        <ele>62</ele>
        <time>2019-07-07T08:06:04.000Z</time>
      </trkpt>
      <trkpt lat="39.67306525446474552154541015625" lon="-0.30369370244443416595458984375">
        <ele>63.200000762939453125</ele>
        <time>2019-07-07T08:06:05.000Z</time>
      </trkpt>
      <trkpt lat="39.67298227362334728240966796875" lon="-0.3044094331562519073486328125">
        <ele>64.59999847412109375</ele>
        <time>2019-07-07T08:06:07.000Z</time>
      </trkpt>
      <trkpt lat="39.6729094348847866058349609375" lon="-0.30512717552483081817626953125">
        <ele>64.8000030517578125</ele>
        <time>2019-07-07T08:06:09.000Z</time>
      </trkpt>
      <trkpt lat="39.67287532053887844085693359375" lon="-0.3058481030166149139404296875">
        <ele>65.8000030517578125</ele>
        <time>2019-07-07T08:06:11.000Z</time>
      </trkpt>
      <trkpt lat="39.6728943474590778350830078125" lon="-0.30656735412776470184326171875">
        <ele>66.8000030517578125</ele>
        <time>2019-07-07T08:06:13.000Z</time>
      </trkpt>
      <trkpt lat="39.6729250252246856689453125" lon="-0.30692459084093570709228515625">
        <ele>67.40000152587890625</ele>
        <time>2019-07-07T08:06:14.000Z</time>
      </trkpt>
      <trkpt lat="39.6730341576039791107177734375" lon="-0.30762665905058383941650390625">
        <ele>68.1999969482421875</ele>
        <time>2019-07-07T08:06:16.000Z</time>
      </trkpt>
      <trkpt lat="39.6731706149876117706298828125" lon="-0.308313556015491485595703125">
        <ele>68.40000152587890625</ele>
        <time>2019-07-07T08:06:18.000Z</time>
      </trkpt>
      <trkpt lat="39.673234485089778900146484375" lon="-0.3086503408849239349365234375">
        <ele>68.40000152587890625</ele>
        <time>2019-07-07T08:06:19.000Z</time>
      </trkpt>
      <trkpt lat="39.6733461320400238037109375" lon="-0.30929348431527614593505859375">
        <ele>70</ele>
        <time>2019-07-07T08:06:21.000Z</time>
      </trkpt>
      <trkpt lat="39.6734596230089664459228515625" lon="-0.3099250607192516326904296875">
        <ele>71</ele>
        <time>2019-07-07T08:06:23.000Z</time>
      </trkpt>
      <trkpt lat="39.673573784530162811279296875" lon="-0.3105453215539455413818359375">
        <ele>70.59999847412109375</ele>
        <time>2019-07-07T08:06:25.000Z</time>
      </trkpt>
      <trkpt lat="39.67368098907172679901123046875" lon="-0.31112543307244777679443359375">
        <ele>69.1999969482421875</ele>
        <time>2019-07-07T08:06:27.000Z</time>
      </trkpt>
      <trkpt lat="39.6737348847091197967529296875" lon="-0.3114089928567409515380859375">
        <ele>68.8000030517578125</ele>
        <time>2019-07-07T08:06:28.000Z</time>
      </trkpt>
      <trkpt lat="39.67387058772146701812744140625" lon="-0.31197116710245609283447265625">
        <ele>68.8000030517578125</ele>
        <time>2019-07-07T08:06:30.000Z</time>
      </trkpt>
      <trkpt lat="39.6740356273949146270751953125" lon="-0.31252772547304630279541015625">
        <ele>69.40000152587890625</ele>
        <time>2019-07-07T08:06:32.000Z</time>
      </trkpt>
      <trkpt lat="39.674221538007259368896484375" lon="-0.31308914534747600555419921875">
        <ele>71</ele>
        <time>2019-07-07T08:06:34.000Z</time>
      </trkpt>
      <trkpt lat="39.674318097531795501708984375" lon="-0.313376896083354949951171875">
        <ele>72</ele>
        <time>2019-07-07T08:06:35.000Z</time>
      </trkpt>
      <trkpt lat="39.67451364733278751373291015625" lon="-0.31396723352372646331787109375">
        <ele>71.8000030517578125</ele>
        <time>2019-07-07T08:06:37.000Z</time>
      </trkpt>
      <trkpt lat="39.67471481300890445709228515625" lon="-0.31457190401852130889892578125">
        <ele>72.1999969482421875</ele>
        <time>2019-07-07T08:06:39.000Z</time>
      </trkpt>
      <trkpt lat="39.6749197505414485931396484375" lon="-0.3151768259704113006591796875">
        <ele>71.1999969482421875</ele>
        <time>2019-07-07T08:06:41.000Z</time>
      </trkpt>
      <trkpt lat="39.67502075247466564178466796875" lon="-0.31547497026622295379638671875">
        <ele>71</ele>
        <time>2019-07-07T08:06:42.000Z</time>
      </trkpt>
      <trkpt lat="39.6752191521227359771728515625" lon="-0.31606656499207019805908203125">
        <ele>70.40000152587890625</ele>
        <time>2019-07-07T08:06:44.000Z</time>
      </trkpt>
      <trkpt lat="39.675417132675647735595703125" lon="-0.316654555499553680419921875">
        <ele>70.1999969482421875</ele>
        <time>2019-07-07T08:06:46.000Z</time>
      </trkpt>
      <trkpt lat="39.67561586759984493255615234375" lon="-0.3172384388744831085205078125">
        <ele>70.59999847412109375</ele>
        <time>2019-07-07T08:06:48.000Z</time>
      </trkpt>
      <trkpt lat="39.67582709155976772308349609375" lon="-0.3178110904991626739501953125">
        <ele>69.59999847412109375</ele>
        <time>2019-07-07T08:06:50.000Z</time>
      </trkpt>
      <trkpt lat="39.6760766208171844482421875" lon="-0.318336971104145050048828125">
        <ele>69.40000152587890625</ele>
        <time>2019-07-07T08:06:52.000Z</time>
      </trkpt>
      <trkpt lat="39.676371328532695770263671875" lon="-0.318810045719146728515625">
        <ele>69.40000152587890625</ele>
        <time>2019-07-07T08:06:54.000Z</time>
      </trkpt>
      <trkpt lat="39.67670635320246219635009765625" lon="-0.31923240981996059417724609375">
        <ele>69.1999969482421875</ele>
        <time>2019-07-07T08:06:56.000Z</time>
      </trkpt>
      <trkpt lat="39.677070714533329010009765625" lon="-0.31959836371243000030517578125">
        <ele>70.59999847412109375</ele>
        <time>2019-07-07T08:06:58.000Z</time>
      </trkpt>
      <trkpt lat="39.677263833582401275634765625" lon="-0.3197607211768627166748046875">
        <ele>71.1999969482421875</ele>
        <time>2019-07-07T08:06:59.000Z</time>
      </trkpt>
      <trkpt lat="39.67766608111560344696044921875" lon="-0.32005718909204006195068359375">
        <ele>72.1999969482421875</ele>
        <time>2019-07-07T08:07:01.000Z</time>
      </trkpt>
      <trkpt lat="39.67787261120975017547607421875" lon="-0.32019599340856075286865234375">
        <ele>72.8000030517578125</ele>
        <time>2019-07-07T08:07:02.000Z</time>
      </trkpt>
      <trkpt lat="39.67828466556966304779052734375" lon="-0.3204824030399322509765625">
        <ele>73.8000030517578125</ele>
        <time>2019-07-07T08:07:04.000Z</time>
      </trkpt>
      <trkpt lat="39.678489267826080322265625" lon="-0.32062665559351444244384765625">
        <ele>74</ele>
        <time>2019-07-07T08:07:05.000Z</time>
      </trkpt>
      <trkpt lat="39.6789009869098663330078125" lon="-0.32091549597680568695068359375">
        <ele>75.40000152587890625</ele>
        <time>2019-07-07T08:07:07.000Z</time>
      </trkpt>
      <trkpt lat="39.67932402156293392181396484375" lon="-0.32121288590133190155029296875">
        <ele>76.59999847412109375</ele>
        <time>2019-07-07T08:07:09.000Z</time>
      </trkpt>
      <trkpt lat="39.67975585721433162689208984375" lon="-0.3215205855667591094970703125">
        <ele>76.8000030517578125</ele>
        <time>2019-07-07T08:07:11.000Z</time>
      </trkpt>
      <trkpt lat="39.68019582331180572509765625" lon="-0.32182979397475719451904296875">
        <ele>77.59999847412109375</ele>
        <time>2019-07-07T08:07:13.000Z</time>
      </trkpt>
      <trkpt lat="39.680638723075389862060546875" lon="-0.3221482224762439727783203125">
        <ele>77.59999847412109375</ele>
        <time>2019-07-07T08:07:15.000Z</time>
      </trkpt>
      <trkpt lat="39.681088663637638092041015625" lon="-0.322469584643840789794921875">
        <ele>77.59999847412109375</ele>
        <time>2019-07-07T08:07:17.000Z</time>
      </trkpt>
      <trkpt lat="39.68154220841825008392333984375" lon="-0.32279069535434246063232421875">
        <ele>76</ele>
        <time>2019-07-07T08:07:19.000Z</time>
      </trkpt>
      <trkpt lat="39.68198326416313648223876953125" lon="-0.32311457209289073944091796875">
        <ele>75.1999969482421875</ele>
        <time>2019-07-07T08:07:21.000Z</time>
      </trkpt>
      <trkpt lat="39.68240990303456783294677734375" lon="-0.32345873303711414337158203125">
        <ele>75.8000030517578125</ele>
        <time>2019-07-07T08:07:23.000Z</time>
      </trkpt>
      <trkpt lat="39.6828084625303745269775390625" lon="-0.32385486178100109100341796875">
        <ele>76.59999847412109375</ele>
        <time>2019-07-07T08:07:25.000Z</time>
      </trkpt>
      <trkpt lat="39.682993032038211822509765625" lon="-0.32408234663307666778564453125">
        <ele>77.1999969482421875</ele>
        <time>2019-07-07T08:07:26.000Z</time>
      </trkpt>
      <trkpt lat="39.68332939781248569488525390625" lon="-0.32458224333822727203369140625">
        <ele>77.1999969482421875</ele>
        <time>2019-07-07T08:07:28.000Z</time>
      </trkpt>
      <trkpt lat="39.683483205735683441162109375" lon="-0.32485096715390682220458984375">
        <ele>76</ele>
        <time>2019-07-07T08:07:29.000Z</time>
      </trkpt>
      <trkpt lat="39.6837609820067882537841796875" lon="-0.32541054300963878631591796875">
        <ele>74.1999969482421875</ele>
        <time>2019-07-07T08:07:31.000Z</time>
      </trkpt>
      <trkpt lat="39.6840090863406658172607421875" lon="-0.3259750641882419586181640625">
        <ele>74.59999847412109375</ele>
        <time>2019-07-07T08:07:33.000Z</time>
      </trkpt>
      <trkpt lat="39.6841314621269702911376953125" lon="-0.326255522668361663818359375">
        <ele>75.59999847412109375</ele>
        <time>2019-07-07T08:07:34.000Z</time>
      </trkpt>
      <trkpt lat="39.6843819133937358856201171875" lon="-0.32681551761925220489501953125">
        <ele>76.1999969482421875</ele>
        <time>2019-07-07T08:07:36.000Z</time>
      </trkpt>
      <trkpt lat="39.68450906686484813690185546875" lon="-0.3270952217280864715576171875">
        <ele>76.8000030517578125</ele>
        <time>2019-07-07T08:07:37.000Z</time>
      </trkpt>
      <trkpt lat="39.68477007932960987091064453125" lon="-0.32765639014542102813720703125">
        <ele>77</ele>
        <time>2019-07-07T08:07:39.000Z</time>
      </trkpt>
      <trkpt lat="39.685033857822418212890625" lon="-0.3282178938388824462890625">
        <ele>75.8000030517578125</ele>
        <time>2019-07-07T08:07:41.000Z</time>
      </trkpt>
      <trkpt lat="39.685170315206050872802734375" lon="-0.3284919820725917816162109375">
        <ele>75.1999969482421875</ele>
        <time>2019-07-07T08:07:42.000Z</time>
      </trkpt>
      <trkpt lat="39.68545840121805667877197265625" lon="-0.32900889404118061065673828125">
        <ele>74.8000030517578125</ele>
        <time>2019-07-07T08:07:44.000Z</time>
      </trkpt>
      <trkpt lat="39.68578814528882503509521484375" lon="-0.3294780291616916656494140625">
        <ele>75.40000152587890625</ele>
        <time>2019-07-07T08:07:46.000Z</time>
      </trkpt>
      <trkpt lat="39.68597305007278919219970703125" lon="-0.3296931087970733642578125">
        <ele>75.8000030517578125</ele>
        <time>2019-07-07T08:07:47.000Z</time>
      </trkpt>
      <trkpt lat="39.6861689351499080657958984375" lon="-0.3298994712531566619873046875">
        <ele>77.1999969482421875</ele>
        <time>2019-07-07T08:07:48.000Z</time>
      </trkpt>
      <trkpt lat="39.68638326041400432586669921875" lon="-0.33009300939738750457763671875">
        <ele>79.8000030517578125</ele>
        <time>2019-07-07T08:07:49.000Z</time>
      </trkpt>
      <trkpt lat="39.68661510385572910308837890625" lon="-0.33028076402842998504638671875">
        <ele>81</ele>
        <time>2019-07-07T08:07:50.000Z</time>
      </trkpt>
      <trkpt lat="39.68686287291347980499267578125" lon="-0.330459214746952056884765625">
        <ele>82.8000030517578125</ele>
        <time>2019-07-07T08:07:51.000Z</time>
      </trkpt>
      <trkpt lat="39.68711592257022857666015625" lon="-0.330632217228412628173828125">
        <ele>84.59999847412109375</ele>
        <time>2019-07-07T08:07:52.000Z</time>
      </trkpt>
      <trkpt lat="39.68737014569342136383056640625" lon="-0.33080262131989002227783203125">
        <ele>86.1999969482421875</ele>
        <time>2019-07-07T08:07:53.000Z</time>
      </trkpt>
      <trkpt lat="39.68787632882595062255859375" lon="-0.331145860254764556884765625">
        <ele>87.59999847412109375</ele>
        <time>2019-07-07T08:07:55.000Z</time>
      </trkpt>
      <trkpt lat="39.6883844397962093353271484375" lon="-0.331484489142894744873046875">
        <ele>88.40000152587890625</ele>
        <time>2019-07-07T08:07:57.000Z</time>
      </trkpt>
      <trkpt lat="39.6886395849287509918212890625" lon="-0.3316516242921352386474609375">
        <ele>88.59999847412109375</ele>
        <time>2019-07-07T08:07:58.000Z</time>
      </trkpt>
      <trkpt lat="39.68915414996445178985595703125" lon="-0.33199553377926349639892578125">
        <ele>88.8000030517578125</ele>
        <time>2019-07-07T08:08:00.000Z</time>
      </trkpt>
      <trkpt lat="39.689674414694309234619140625" lon="-0.33234824426472187042236328125">
        <ele>89.1999969482421875</ele>
        <time>2019-07-07T08:08:02.000Z</time>
      </trkpt>
      <trkpt lat="39.69020104967057704925537109375" lon="-0.3327050618827342987060546875">
        <ele>87</ele>
        <time>2019-07-07T08:08:04.000Z</time>
      </trkpt>
      <trkpt lat="39.690732546150684356689453125" lon="-0.33306087367236614227294921875">
        <ele>86.40000152587890625</ele>
        <time>2019-07-07T08:08:06.000Z</time>
      </trkpt>
      <trkpt lat="39.6909999288618564605712890625" lon="-0.333235971629619598388671875">
        <ele>85.40000152587890625</ele>
        <time>2019-07-07T08:08:07.000Z</time>
      </trkpt>
      <trkpt lat="39.6912671439349651336669921875" lon="-0.33340930938720703125">
        <ele>87</ele>
        <time>2019-07-07T08:08:08.000Z</time>
      </trkpt>
      <trkpt lat="39.6917863190174102783203125" lon="-0.33374936319887638092041015625">
        <ele>88.40000152587890625</ele>
        <time>2019-07-07T08:08:10.000Z</time>
      </trkpt>
      <trkpt lat="39.69202880747616291046142578125" lon="-0.3339180909097194671630859375">
        <ele>90.59999847412109375</ele>
        <time>2019-07-07T08:08:11.000Z</time>
      </trkpt>
      <trkpt lat="39.692477993667125701904296875" lon="-0.33426024019718170166015625">
        <ele>92.59999847412109375</ele>
        <time>2019-07-07T08:08:13.000Z</time>
      </trkpt>
      <trkpt lat="39.692887030541896820068359375" lon="-0.33463784493505954742431640625">
        <ele>94</ele>
        <time>2019-07-07T08:08:15.000Z</time>
      </trkpt>
      <trkpt lat="39.6930779702961444854736328125" lon="-0.3348437882959842681884765625">
        <ele>95.40000152587890625</ele>
        <time>2019-07-07T08:08:16.000Z</time>
      </trkpt>
      <trkpt lat="39.693433530628681182861328125" lon="-0.3352853469550609588623046875">
        <ele>96.1999969482421875</ele>
        <time>2019-07-07T08:08:18.000Z</time>
      </trkpt>
      <trkpt lat="39.69375380314886569976806640625" lon="-0.33576839603483676910400390625">
        <ele>97.1999969482421875</ele>
        <time>2019-07-07T08:08:20.000Z</time>
      </trkpt>
      <trkpt lat="39.69404515810310840606689453125" lon="-0.33628799021244049072265625">
        <ele>98</ele>
        <time>2019-07-07T08:08:22.000Z</time>
      </trkpt>
      <trkpt lat="39.6943156421184539794921875" lon="-0.33684161491692066192626953125">
        <ele>98.1999969482421875</ele>
        <time>2019-07-07T08:08:24.000Z</time>
      </trkpt>
      <trkpt lat="39.694452099502086639404296875" lon="-0.3371256776154041290283203125">
        <ele>100</ele>
        <time>2019-07-07T08:08:25.000Z</time>
      </trkpt>
      <trkpt lat="39.69459232874214649200439453125" lon="-0.337410829961299896240234375">
        <ele>102.40000152587890625</ele>
        <time>2019-07-07T08:08:26.000Z</time>
      </trkpt>
      <trkpt lat="39.69486876390874385833740234375" lon="-0.33798155374825000762939453125">
        <ele>104.59999847412109375</ele>
        <time>2019-07-07T08:08:28.000Z</time>
      </trkpt>
      <trkpt lat="39.695002622902393341064453125" lon="-0.338262431323528289794921875">
        <ele>106.1999969482421875</ele>
        <time>2019-07-07T08:08:29.000Z</time>
      </trkpt>
      <trkpt lat="39.69513245858252048492431640625" lon="-0.33853660337626934051513671875">
        <ele>107.59999847412109375</ele>
        <time>2019-07-07T08:08:30.000Z</time>
      </trkpt>
      <trkpt lat="39.69526053406298160552978515625" lon="-0.3388072550296783447265625">
        <ele>108.8000030517578125</ele>
        <time>2019-07-07T08:08:31.000Z</time>
      </trkpt>
      <trkpt lat="39.69538944773375988006591796875" lon="-0.3390759788453578948974609375">
        <ele>110.1999969482421875</ele>
        <time>2019-07-07T08:08:32.000Z</time>
      </trkpt>
      <trkpt lat="39.69551819376647472381591796875" lon="-0.33934344537556171417236328125">
        <ele>111.59999847412109375</ele>
        <time>2019-07-07T08:08:33.000Z</time>
      </trkpt>
      <trkpt lat="39.69564610160887241363525390625" lon="-0.339610911905765533447265625">
        <ele>112.59999847412109375</ele>
        <time>2019-07-07T08:08:34.000Z</time>
      </trkpt>
      <trkpt lat="39.695902504026889801025390625" lon="-0.340142659842967987060546875">
        <ele>114</ele>
        <time>2019-07-07T08:08:36.000Z</time>
      </trkpt>
      <trkpt lat="39.69615957699716091156005859375" lon="-0.3406728990375995635986328125">
        <ele>114.1999969482421875</ele>
        <time>2019-07-07T08:08:38.000Z</time>
      </trkpt>
      <trkpt lat="39.6964173205196857452392578125" lon="-0.3412078320980072021484375">
        <ele>113.59999847412109375</ele>
        <time>2019-07-07T08:08:40.000Z</time>
      </trkpt>
      <trkpt lat="39.69654900021851062774658203125" lon="-0.3414755500853061676025390625">
        <ele>113</ele>
        <time>2019-07-07T08:08:41.000Z</time>
      </trkpt>
      <trkpt lat="39.69668428413569927215576171875" lon="-0.341743268072605133056640625">
        <ele>111</ele>
        <time>2019-07-07T08:08:42.000Z</time>
      </trkpt>
      <trkpt lat="39.696827866137027740478515625" lon="-0.34200754947960376739501953125">
        <ele>109</ele>
        <time>2019-07-07T08:08:43.000Z</time>
      </trkpt>
      <trkpt lat="39.69698267988860607147216796875" lon="-0.342268981039524078369140625">
        <ele>106.1999969482421875</ele>
        <time>2019-07-07T08:08:44.000Z</time>
      </trkpt>
      <trkpt lat="39.697148390114307403564453125" lon="-0.34252085722982883453369140625">
        <ele>104.40000152587890625</ele>
        <time>2019-07-07T08:08:45.000Z</time>
      </trkpt>
      <trkpt lat="39.69732969067990779876708984375" lon="-0.34276259131729602813720703125">
        <ele>103.1999969482421875</ele>
        <time>2019-07-07T08:08:46.000Z</time>
      </trkpt>
      <trkpt lat="39.69773453660309314727783203125" lon="-0.34320582635700702667236328125">
        <ele>102.1999969482421875</ele>
        <time>2019-07-07T08:08:48.000Z</time>
      </trkpt>
      <trkpt lat="39.69817458651959896087646484375" lon="-0.3436109237372875213623046875">
        <ele>102.59999847412109375</ele>
        <time>2019-07-07T08:08:50.000Z</time>
      </trkpt>
      <trkpt lat="39.69863056205213069915771484375" lon="-0.34400629810988903045654296875">
        <ele>102.1999969482421875</ele>
        <time>2019-07-07T08:08:52.000Z</time>
      </trkpt>
      <trkpt lat="39.69907647930085659027099609375" lon="-0.3443974815309047698974609375">
        <ele>101.40000152587890625</ele>
        <time>2019-07-07T08:08:54.000Z</time>
      </trkpt>
      <trkpt lat="39.69929692335426807403564453125" lon="-0.344595797359943389892578125">
        <ele>101.1999969482421875</ele>
        <time>2019-07-07T08:08:55.000Z</time>
      </trkpt>
      <trkpt lat="39.6997415833175182342529296875" lon="-0.34499469213187694549560546875">
        <ele>102.8000030517578125</ele>
        <time>2019-07-07T08:08:57.000Z</time>
      </trkpt>
      <trkpt lat="39.69996680505573749542236328125" lon="-0.34519351087510585784912109375">
        <ele>104.59999847412109375</ele>
        <time>2019-07-07T08:08:58.000Z</time>
      </trkpt>
      <trkpt lat="39.70019395463168621063232421875" lon="-0.34539249725639820098876953125">
        <ele>106.40000152587890625</ele>
        <time>2019-07-07T08:08:59.000Z</time>
      </trkpt>
      <trkpt lat="39.70042227767407894134521484375" lon="-0.34559064544737339019775390625">
        <ele>107.8000030517578125</ele>
        <time>2019-07-07T08:09:00.000Z</time>
      </trkpt>
      <trkpt lat="39.70088261179625988006591796875" lon="-0.3459903784096240997314453125">
        <ele>108.40000152587890625</ele>
        <time>2019-07-07T08:09:02.000Z</time>
      </trkpt>
      <trkpt lat="39.70134428702294826507568359375" lon="-0.34639656543731689453125">
        <ele>108.1999969482421875</ele>
        <time>2019-07-07T08:09:04.000Z</time>
      </trkpt>
      <trkpt lat="39.7018082253634929656982421875" lon="-0.34680970944464206695556640625">
        <ele>108.1999969482421875</ele>
        <time>2019-07-07T08:09:06.000Z</time>
      </trkpt>
      <trkpt lat="39.702275432646274566650390625" lon="-0.34722193144261837005615234375">
        <ele>108.40000152587890625</ele>
        <time>2019-07-07T08:09:08.000Z</time>
      </trkpt>
      <trkpt lat="39.7027369402348995208740234375" lon="-0.34762677736580371856689453125">
        <ele>108</ele>
        <time>2019-07-07T08:09:10.000Z</time>
      </trkpt>
      <trkpt lat="39.70319115556776523590087890625" lon="-0.348025672137737274169921875">
        <ele>107.8000030517578125</ele>
        <time>2019-07-07T08:09:12.000Z</time>
      </trkpt>
      <trkpt lat="39.7036374919116497039794921875" lon="-0.3484194539487361907958984375">
        <ele>108</ele>
        <time>2019-07-07T08:09:14.000Z</time>
      </trkpt>
      <trkpt lat="39.70408567227423191070556640625" lon="-0.34879471175372600555419921875">
        <ele>108.40000152587890625</ele>
        <time>2019-07-07T08:09:16.000Z</time>
      </trkpt>
      <trkpt lat="39.70431768335402011871337890625" lon="-0.348966121673583984375">
        <ele>109.40000152587890625</ele>
        <time>2019-07-07T08:09:17.000Z</time>
      </trkpt>
      <trkpt lat="39.70480777323246002197265625" lon="-0.34926124848425388336181640625">
        <ele>109.8000030517578125</ele>
        <time>2019-07-07T08:09:19.000Z</time>
      </trkpt>
      <trkpt lat="39.70532476902008056640625" lon="-0.3494997136294841766357421875">
        <ele>109</ele>
        <time>2019-07-07T08:09:21.000Z</time>
      </trkpt>
      <trkpt lat="39.705858193337917327880859375" lon="-0.34971504472196102142333984375">
        <ele>110.1999969482421875</ele>
        <time>2019-07-07T08:09:23.000Z</time>
      </trkpt>
      <trkpt lat="39.706399999558925628662109375" lon="-0.3499211557209491729736328125">
        <ele>109.59999847412109375</ele>
        <time>2019-07-07T08:09:25.000Z</time>
      </trkpt>
      <trkpt lat="39.7069500200450420379638671875" lon="-0.35013715736567974090576171875">
        <ele>110.59999847412109375</ele>
        <time>2019-07-07T08:09:27.000Z</time>
      </trkpt>
      <trkpt lat="39.70722871832549571990966796875" lon="-0.35024746321141719818115234375">
        <ele>112</ele>
        <time>2019-07-07T08:09:28.000Z</time>
      </trkpt>
      <trkpt lat="39.70778292976319789886474609375" lon="-0.35048492252826690673828125">
        <ele>110.8000030517578125</ele>
        <time>2019-07-07T08:09:30.000Z</time>
      </trkpt>
      <trkpt lat="39.70832691527903079986572265625" lon="-0.350770913064479827880859375">
        <ele>109.59999847412109375</ele>
        <time>2019-07-07T08:09:32.000Z</time>
      </trkpt>
      <trkpt lat="39.70885455608367919921875" lon="-0.3511076979339122772216796875">
        <ele>108.8000030517578125</ele>
        <time>2019-07-07T08:09:34.000Z</time>
      </trkpt>
      <trkpt lat="39.709362499415874481201171875" lon="-0.35147356800734996795654296875">
        <ele>109</ele>
        <time>2019-07-07T08:09:36.000Z</time>
      </trkpt>
      <trkpt lat="39.70984839834272861480712890625" lon="-0.35182544030249118804931640625">
        <ele>110.59999847412109375</ele>
        <time>2019-07-07T08:09:38.000Z</time>
      </trkpt>
      <trkpt lat="39.71032063476741313934326171875" lon="-0.352164320647716522216796875">
        <ele>113.40000152587890625</ele>
        <time>2019-07-07T08:09:40.000Z</time>
      </trkpt>
      <trkpt lat="39.71055440604686737060546875" lon="-0.352331958711147308349609375">
        <ele>115.59999847412109375</ele>
        <time>2019-07-07T08:09:41.000Z</time>
      </trkpt>
      <trkpt lat="39.7107862494885921478271484375" lon="-0.35250253044068813323974609375">
        <ele>117.8000030517578125</ele>
        <time>2019-07-07T08:09:42.000Z</time>
      </trkpt>
      <trkpt lat="39.71101465635001659393310546875" lon="-0.35267888568341732025146484375">
        <ele>119</ele>
        <time>2019-07-07T08:09:43.000Z</time>
      </trkpt>
      <trkpt lat="39.71144783310592174530029296875" lon="-0.35307099111378192901611328125">
        <ele>119</ele>
        <time>2019-07-07T08:09:45.000Z</time>
      </trkpt>
      <trkpt lat="39.71183373592793941497802734375" lon="-0.3535364381968975067138671875">
        <ele>119.40000152587890625</ele>
        <time>2019-07-07T08:09:47.000Z</time>
      </trkpt>
      <trkpt lat="39.71201042644679546356201171875" lon="-0.35379342734813690185546875">
        <ele>120</ele>
        <time>2019-07-07T08:09:48.000Z</time>
      </trkpt>
      <trkpt lat="39.71217286773025989532470703125" lon="-0.35406609065830707550048828125">
        <ele>121.1999969482421875</ele>
        <time>2019-07-07T08:09:49.000Z</time>
      </trkpt>
      <trkpt lat="39.712322987616062164306640625" lon="-0.3543514944612979888916015625">
        <ele>123.8000030517578125</ele>
        <time>2019-07-07T08:09:50.000Z</time>
      </trkpt>
      <trkpt lat="39.71245986409485340118408203125" lon="-0.3546498902142047882080078125">
        <ele>126.40000152587890625</ele>
        <time>2019-07-07T08:09:51.000Z</time>
      </trkpt>
      <trkpt lat="39.712581150233745574951171875" lon="-0.35495876334607601165771484375">
        <ele>129.1999969482421875</ele>
        <time>2019-07-07T08:09:52.000Z</time>
      </trkpt>
      <trkpt lat="39.71268475055694580078125" lon="-0.3552805446088314056396484375">
        <ele>131.1999969482421875</ele>
        <time>2019-07-07T08:09:53.000Z</time>
      </trkpt>
      <trkpt lat="39.7127700783312320709228515625" lon="-0.35561137832701206207275390625">
        <ele>132.399993896484375</ele>
        <time>2019-07-07T08:09:54.000Z</time>
      </trkpt>
      <trkpt lat="39.71288667060434818267822265625" lon="-0.35629668273031711578369140625">
        <ele>133.8000030517578125</ele>
        <time>2019-07-07T08:09:56.000Z</time>
      </trkpt>
      <trkpt lat="39.712937213480472564697265625" lon="-0.3569904528558254241943359375">
        <ele>134</ele>
        <time>2019-07-07T08:09:58.000Z</time>
      </trkpt>
      <trkpt lat="39.7129494510591030120849609375" lon="-0.35733335651457309722900390625">
        <ele>131.1999969482421875</ele>
        <time>2019-07-07T08:09:59.000Z</time>
      </trkpt>
      <trkpt lat="39.71295825205743312835693359375" lon="-0.357673577964305877685546875">
        <ele>127.1999969482421875</ele>
        <time>2019-07-07T08:10:00.000Z</time>
      </trkpt>
      <trkpt lat="39.7129677236080169677734375" lon="-0.3580080159008502960205078125">
        <ele>121.59999847412109375</ele>
        <time>2019-07-07T08:10:01.000Z</time>
      </trkpt>
      <trkpt lat="39.7129799611866474151611328125" lon="-0.35833583213388919830322265625">
        <ele>119</ele>
        <time>2019-07-07T08:10:02.000Z</time>
      </trkpt>
      <trkpt lat="39.7129927016794681549072265625" lon="-0.3586601279675960540771484375">
        <ele>116.8000030517578125</ele>
        <time>2019-07-07T08:10:03.000Z</time>
      </trkpt>
      <trkpt lat="39.7130133211612701416015625" lon="-0.35931433551013469696044921875">
        <ele>118.40000152587890625</ele>
        <time>2019-07-07T08:10:05.000Z</time>
      </trkpt>
      <trkpt lat="39.71302337944507598876953125" lon="-0.3596438281238079071044921875">
        <ele>121</ele>
        <time>2019-07-07T08:10:06.000Z</time>
      </trkpt>
      <trkpt lat="39.71303402446210384368896484375" lon="-0.35997466184198856353759765625">
        <ele>122.8000030517578125</ele>
        <time>2019-07-07T08:10:07.000Z</time>
      </trkpt>
      <trkpt lat="39.71304642967879772186279296875" lon="-0.3603080101311206817626953125">
        <ele>125.1999969482421875</ele>
        <time>2019-07-07T08:10:08.000Z</time>
      </trkpt>
      <trkpt lat="39.71306202001869678497314453125" lon="-0.36064303480088710784912109375">
        <ele>127.8000030517578125</ele>
        <time>2019-07-07T08:10:09.000Z</time>
      </trkpt>
      <trkpt lat="39.713083393871784210205078125" lon="-0.3609819151461124420166015625">
        <ele>129</ele>
        <time>2019-07-07T08:10:10.000Z</time>
      </trkpt>
      <trkpt lat="39.71316813491284847259521484375" lon="-0.36165875382721424102783203125">
        <ele>127.8000030517578125</ele>
        <time>2019-07-07T08:10:12.000Z</time>
      </trkpt>
      <trkpt lat="39.71323720179498195648193359375" lon="-0.36199235357344150543212890625">
        <ele>126.8000030517578125</ele>
        <time>2019-07-07T08:10:13.000Z</time>
      </trkpt>
      <trkpt lat="39.71343015320599079132080078125" lon="-0.362633652985095977783203125">
        <ele>126.1999969482421875</ele>
        <time>2019-07-07T08:10:15.000Z</time>
      </trkpt>
      <trkpt lat="39.7136853821575641632080078125" lon="-0.36323346197605133056640625">
        <ele>126.8000030517578125</ele>
        <time>2019-07-07T08:10:17.000Z</time>
      </trkpt>
      <trkpt lat="39.71400515176355838775634765625" lon="-0.36378993652760982513427734375">
        <ele>127.8000030517578125</ele>
        <time>2019-07-07T08:10:19.000Z</time>
      </trkpt>
      <trkpt lat="39.7143767215311527252197265625" lon="-0.36429964005947113037109375">
        <ele>128.1999969482421875</ele>
        <time>2019-07-07T08:10:21.000Z</time>
      </trkpt>
      <trkpt lat="39.7147700004279613494873046875" lon="-0.36476927809417247772216796875">
        <ele>127.59999847412109375</ele>
        <time>2019-07-07T08:10:23.000Z</time>
      </trkpt>
      <trkpt lat="39.71515146084129810333251953125" lon="-0.36521033383905887603759765625">
        <ele>127</ele>
        <time>2019-07-07T08:10:25.000Z</time>
      </trkpt>
      <trkpt lat="39.7155109606683254241943359375" lon="-0.365606211125850677490234375">
        <ele>127.1999969482421875</ele>
        <time>2019-07-07T08:10:27.000Z</time>
      </trkpt>
      <trkpt lat="39.7158779203891754150390625" lon="-0.365970320999622344970703125">
        <ele>128.399993896484375</ele>
        <time>2019-07-07T08:10:29.000Z</time>
      </trkpt>
      <trkpt lat="39.71608000807464122772216796875" lon="-0.36614365875720977783203125">
        <ele>129.600006103515625</ele>
        <time>2019-07-07T08:10:30.000Z</time>
      </trkpt>
      <trkpt lat="39.71629994921386241912841796875" lon="-0.3663061000406742095947265625">
        <ele>131.8000030517578125</ele>
        <time>2019-07-07T08:10:31.000Z</time>
      </trkpt>
      <trkpt lat="39.7165345586836338043212890625" lon="-0.36645856685936450958251953125">
        <ele>133.8000030517578125</ele>
        <time>2019-07-07T08:10:32.000Z</time>
      </trkpt>
      <trkpt lat="39.71677822060883045196533203125" lon="-0.36659955047070980072021484375">
        <ele>134.8000030517578125</ele>
        <time>2019-07-07T08:10:33.000Z</time>
      </trkpt>
      <trkpt lat="39.71703185699880123138427734375" lon="-0.36672058515250682830810546875">
        <ele>136.600006103515625</ele>
        <time>2019-07-07T08:10:34.000Z</time>
      </trkpt>
      <trkpt lat="39.717566706240177154541015625" lon="-0.36688570864498615264892578125">
        <ele>137.8000030517578125</ele>
        <time>2019-07-07T08:10:36.000Z</time>
      </trkpt>
      <trkpt lat="39.7181204147636890411376953125" lon="-0.36695578135550022125244140625">
        <ele>136.600006103515625</ele>
        <time>2019-07-07T08:10:38.000Z</time>
      </trkpt>
      <trkpt lat="39.7183993645012378692626953125" lon="-0.3669645823538303375244140625">
        <ele>135</ele>
        <time>2019-07-07T08:10:39.000Z</time>
      </trkpt>
      <trkpt lat="39.71896137110888957977294921875" lon="-0.366954021155834197998046875">
        <ele>133.1999969482421875</ele>
        <time>2019-07-07T08:10:41.000Z</time>
      </trkpt>
      <trkpt lat="39.7192415781319141387939453125" lon="-0.36694723181426525115966796875">
        <ele>131.8000030517578125</ele>
        <time>2019-07-07T08:10:42.000Z</time>
      </trkpt>
      <trkpt lat="39.71951834857463836669921875" lon="-0.36694773472845554351806640625">
        <ele>130</ele>
        <time>2019-07-07T08:10:43.000Z</time>
      </trkpt>
      <trkpt lat="39.720060825347900390625" lon="-0.36697271279990673065185546875">
        <ele>128.600006103515625</ele>
        <time>2019-07-07T08:10:45.000Z</time>
      </trkpt>
      <trkpt lat="39.72058444283902645111083984375" lon="-0.3670705296099185943603515625">
        <ele>126.59999847412109375</ele>
        <time>2019-07-07T08:10:47.000Z</time>
      </trkpt>
      <trkpt lat="39.7210892848670482635498046875" lon="-0.3672629781067371368408203125">
        <ele>125.40000152587890625</ele>
        <time>2019-07-07T08:10:49.000Z</time>
      </trkpt>
      <trkpt lat="39.72157116048038005828857421875" lon="-0.36753245629370212554931640625">
        <ele>124.8000030517578125</ele>
        <time>2019-07-07T08:10:51.000Z</time>
      </trkpt>
      <trkpt lat="39.722042642533779144287109375" lon="-0.36784124560654163360595703125">
        <ele>128</ele>
        <time>2019-07-07T08:10:53.000Z</time>
      </trkpt>
      <trkpt lat="39.7222805209457874298095703125" lon="-0.368000082671642303466796875">
        <ele>131.399993896484375</ele>
        <time>2019-07-07T08:10:54.000Z</time>
      </trkpt>
      <trkpt lat="39.7225199081003665924072265625" lon="-0.36816067993640899658203125">
        <ele>133.8000030517578125</ele>
        <time>2019-07-07T08:10:55.000Z</time>
      </trkpt>
      <trkpt lat="39.72276172600686550140380859375" lon="-0.368321947753429412841796875">
        <ele>138.1999969482421875</ele>
        <time>2019-07-07T08:10:56.000Z</time>
      </trkpt>
      <trkpt lat="39.72300496883690357208251953125" lon="-0.368484221398830413818359375">
        <ele>140.1999969482421875</ele>
        <time>2019-07-07T08:10:57.000Z</time>
      </trkpt>
      <trkpt lat="39.72324904985725879669189453125" lon="-0.36864674650132656097412109375">
        <ele>141.600006103515625</ele>
        <time>2019-07-07T08:10:58.000Z</time>
      </trkpt>
      <trkpt lat="39.72349413670599460601806640625" lon="-0.368809439241886138916015625">
        <ele>143.399993896484375</ele>
        <time>2019-07-07T08:10:59.000Z</time>
      </trkpt>
      <trkpt lat="39.723984561860561370849609375" lon="-0.36913641728460788726806640625">
        <ele>144.399993896484375</ele>
        <time>2019-07-07T08:11:01.000Z</time>
      </trkpt>
      <trkpt lat="39.72447951324284076690673828125" lon="-0.369465909898281097412109375">
        <ele>143</ele>
        <time>2019-07-07T08:11:03.000Z</time>
      </trkpt>
      <trkpt lat="39.72472988069057464599609375" lon="-0.36963262595236301422119140625">
        <ele>142.399993896484375</ele>
        <time>2019-07-07T08:11:04.000Z</time>
      </trkpt>
      <trkpt lat="39.72523639909923076629638671875" lon="-0.36996823735535144805908203125">
        <ele>141.1999969482421875</ele>
        <time>2019-07-07T08:11:06.000Z</time>
      </trkpt>
      <trkpt lat="39.7257439233362674713134765625" lon="-0.37030041217803955078125">
        <ele>141.399993896484375</ele>
        <time>2019-07-07T08:11:08.000Z</time>
      </trkpt>
      <trkpt lat="39.726248346269130706787109375" lon="-0.37063493393361568450927734375">
        <ele>140.8000030517578125</ele>
        <time>2019-07-07T08:11:10.000Z</time>
      </trkpt>
      <trkpt lat="39.7267443872988224029541015625" lon="-0.3709642589092254638671875">
        <ele>141.600006103515625</ele>
        <time>2019-07-07T08:11:12.000Z</time>
      </trkpt>
      <trkpt lat="39.72723682411015033721923828125" lon="-0.37128419615328311920166015625">
        <ele>142.1999969482421875</ele>
        <time>2019-07-07T08:11:14.000Z</time>
      </trkpt>
      <trkpt lat="39.727731607854366302490234375" lon="-0.37160740233957767486572265625">
        <ele>147.399993896484375</ele>
        <time>2019-07-07T08:11:16.000Z</time>
      </trkpt>
      <trkpt lat="39.7279802151024341583251953125" lon="-0.37176934070885181427001953125">
        <ele>152.8000030517578125</ele>
        <time>2019-07-07T08:11:17.000Z</time>
      </trkpt>
      <trkpt lat="39.72822882235050201416015625" lon="-0.37193119525909423828125">
        <ele>157</ele>
        <time>2019-07-07T08:11:18.000Z</time>
      </trkpt>
      <trkpt lat="39.728476591408252716064453125" lon="-0.37209791131317615509033203125">
        <ele>159.1999969482421875</ele>
        <time>2019-07-07T08:11:19.000Z</time>
      </trkpt>
      <trkpt lat="39.72872796468436717987060546875" lon="-0.37226353771984577178955078125">
        <ele>160.399993896484375</ele>
        <time>2019-07-07T08:11:20.000Z</time>
      </trkpt>
      <trkpt lat="39.72923976369202136993408203125" lon="-0.372564531862735748291015625">
        <ele>156.1999969482421875</ele>
        <time>2019-07-07T08:11:22.000Z</time>
      </trkpt>
      <trkpt lat="39.72950018942356109619140625" lon="-0.3726942837238311767578125">
        <ele>151.1999969482421875</ele>
        <time>2019-07-07T08:11:23.000Z</time>
      </trkpt>
      <trkpt lat="39.7297645546495914459228515625" lon="-0.3728034161031246185302734375">
        <ele>146.8000030517578125</ele>
        <time>2019-07-07T08:11:24.000Z</time>
      </trkpt>
      <trkpt lat="39.7300324402749538421630859375" lon="-0.372891090810298919677734375">
        <ele>143.8000030517578125</ele>
        <time>2019-07-07T08:11:25.000Z</time>
      </trkpt>
      <trkpt lat="39.73030309192836284637451171875" lon="-0.37296107970178127288818359375">
        <ele>142.399993896484375</ele>
        <time>2019-07-07T08:11:26.000Z</time>
      </trkpt>
      <trkpt lat="39.730847664177417755126953125" lon="-0.37304020486772060394287109375">
        <ele>143.8000030517578125</ele>
        <time>2019-07-07T08:11:28.000Z</time>
      </trkpt>
      <trkpt lat="39.7311210818588733673095703125" lon="-0.37305294536054134368896484375">
        <ele>144.8000030517578125</ele>
        <time>2019-07-07T08:11:29.000Z</time>
      </trkpt>
      <trkpt lat="39.73166632466018199920654296875" lon="-0.37302779965102672576904296875">
        <ele>146.1999969482421875</ele>
        <time>2019-07-07T08:11:31.000Z</time>
      </trkpt>
      <trkpt lat="39.73220578394830226898193359375" lon="-0.372927300631999969482421875">
        <ele>146.600006103515625</ele>
        <time>2019-07-07T08:11:33.000Z</time>
      </trkpt>
      <trkpt lat="39.7327374480664730072021484375" lon="-0.372751615941524505615234375">
        <ele>147.600006103515625</ele>
        <time>2019-07-07T08:11:35.000Z</time>
      </trkpt>
      <trkpt lat="39.7332591377198696136474609375" lon="-0.37251030094921588897705078125">
        <ele>149</ele>
        <time>2019-07-07T08:11:37.000Z</time>
      </trkpt>
      <trkpt lat="39.73376892507076263427734375" lon="-0.372205115854740142822265625">
        <ele>149.8000030517578125</ele>
        <time>2019-07-07T08:11:39.000Z</time>
      </trkpt>
      <trkpt lat="39.73401568830013275146484375" lon="-0.3720279224216938018798828125">
        <ele>150.399993896484375</ele>
        <time>2019-07-07T08:11:40.000Z</time>
      </trkpt>
      <trkpt lat="39.73450192250311374664306640625" lon="-0.3716517426073551177978515625">
        <ele>151</ele>
        <time>2019-07-07T08:11:42.000Z</time>
      </trkpt>
      <trkpt lat="39.73498505540192127227783203125" lon="-0.3712728805840015411376953125">
        <ele>151.8000030517578125</ele>
        <time>2019-07-07T08:11:44.000Z</time>
      </trkpt>
      <trkpt lat="39.7354743070900440216064453125" lon="-0.370895527303218841552734375">
        <ele>153.1999969482421875</ele>
        <time>2019-07-07T08:11:46.000Z</time>
      </trkpt>
      <trkpt lat="39.73597311414778232574462890625" lon="-0.37052211351692676544189453125">
        <ele>153.8000030517578125</ele>
        <time>2019-07-07T08:11:48.000Z</time>
      </trkpt>
      <trkpt lat="39.73622507415711879730224609375" lon="-0.37033461034297943115234375">
        <ele>155</ele>
        <time>2019-07-07T08:11:49.000Z</time>
      </trkpt>
      <trkpt lat="39.736730419099330902099609375" lon="-0.36995314992964267730712890625">
        <ele>156.600006103515625</ele>
        <time>2019-07-07T08:11:51.000Z</time>
      </trkpt>
      <trkpt lat="39.7372375242412090301513671875" lon="-0.369571186602115631103515625">
        <ele>157.8000030517578125</ele>
        <time>2019-07-07T08:11:53.000Z</time>
      </trkpt>
      <trkpt lat="39.7377494908869266510009765625" lon="-0.3692020475864410400390625">
        <ele>158.8000030517578125</ele>
        <time>2019-07-07T08:11:55.000Z</time>
      </trkpt>
      <trkpt lat="39.73801041953265666961669921875" lon="-0.3690342418849468231201171875">
        <ele>161</ele>
        <time>2019-07-07T08:11:56.000Z</time>
      </trkpt>
      <trkpt lat="39.738275706768035888671875" lon="-0.368879847228527069091796875">
        <ele>163</ele>
        <time>2019-07-07T08:11:57.000Z</time>
      </trkpt>
      <trkpt lat="39.7385444305837154388427734375" lon="-0.36873727105557918548583984375">
        <ele>164.399993896484375</ele>
        <time>2019-07-07T08:11:58.000Z</time>
      </trkpt>
      <trkpt lat="39.7388166747987270355224609375" lon="-0.3686091117560863494873046875">
        <ele>166.1999969482421875</ele>
        <time>2019-07-07T08:11:59.000Z</time>
      </trkpt>
      <trkpt lat="39.73937231115996837615966796875" lon="-0.3683988936245441436767578125">
        <ele>168.600006103515625</ele>
        <time>2019-07-07T08:12:01.000Z</time>
      </trkpt>
      <trkpt lat="39.7396545298397541046142578125" lon="-0.36831633187830448150634765625">
        <ele>170.1999969482421875</ele>
        <time>2019-07-07T08:12:02.000Z</time>
      </trkpt>
      <trkpt lat="39.73993934690952301025390625" lon="-0.368248857557773590087890625">
        <ele>173.399993896484375</ele>
        <time>2019-07-07T08:12:03.000Z</time>
      </trkpt>
      <trkpt lat="39.74022625945508480072021484375" lon="-0.36819831468164920806884765625">
        <ele>177.399993896484375</ele>
        <time>2019-07-07T08:12:04.000Z</time>
      </trkpt>
      <trkpt lat="39.740514345467090606689453125" lon="-0.36816411651670932769775390625">
        <ele>181.8000030517578125</ele>
        <time>2019-07-07T08:12:05.000Z</time>
      </trkpt>
      <trkpt lat="39.74080377258360385894775390625" lon="-0.36814458668231964111328125">
        <ele>184.8000030517578125</ele>
        <time>2019-07-07T08:12:06.000Z</time>
      </trkpt>
      <trkpt lat="39.74109403789043426513671875" lon="-0.3681425750255584716796875">
        <ele>186.600006103515625</ele>
        <time>2019-07-07T08:12:07.000Z</time>
      </trkpt>
      <trkpt lat="39.74138413555920124053955078125" lon="-0.36815623752772808074951171875">
        <ele>187.8000030517578125</ele>
        <time>2019-07-07T08:12:08.000Z</time>
      </trkpt>
      <trkpt lat="39.74167297594249248504638671875" lon="-0.36818523891270160675048828125">
        <ele>188.399993896484375</ele>
        <time>2019-07-07T08:12:09.000Z</time>
      </trkpt>
      <trkpt lat="39.74196131341159343719482421875" lon="-0.3682268969714641571044921875">
        <ele>188.8000030517578125</ele>
        <time>2019-07-07T08:12:10.000Z</time>
      </trkpt>
      <trkpt lat="39.742534048855304718017578125" lon="-0.3683489374816417694091796875">
        <ele>189.1999969482421875</ele>
        <time>2019-07-07T08:12:12.000Z</time>
      </trkpt>
      <trkpt lat="39.74309622310101985931396484375" lon="-0.36853476427495479583740234375">
        <ele>187.8000030517578125</ele>
        <time>2019-07-07T08:12:14.000Z</time>
      </trkpt>
      <trkpt lat="39.74337399937212467193603515625" lon="-0.36864624358713626861572265625">
        <ele>186.600006103515625</ele>
        <time>2019-07-07T08:12:15.000Z</time>
      </trkpt>
      <trkpt lat="39.74364884197711944580078125" lon="-0.36877599544823169708251953125">
        <ele>185.1999969482421875</ele>
        <time>2019-07-07T08:12:16.000Z</time>
      </trkpt>
      <trkpt lat="39.743919409811496734619140625" lon="-0.368920750916004180908203125">
        <ele>182.1999969482421875</ele>
        <time>2019-07-07T08:12:17.000Z</time>
      </trkpt>
      <trkpt lat="39.74418302066624164581298828125" lon="-0.36908042617142200469970703125">
        <ele>178.600006103515625</ele>
        <time>2019-07-07T08:12:18.000Z</time>
      </trkpt>
      <trkpt lat="39.74444118328392505645751953125" lon="-0.36925191991031169891357421875">
        <ele>175.600006103515625</ele>
        <time>2019-07-07T08:12:19.000Z</time>
      </trkpt>
      <trkpt lat="39.7446937300264835357666015625" lon="-0.36943338811397552490234375">
        <ele>174.1999969482421875</ele>
        <time>2019-07-07T08:12:20.000Z</time>
      </trkpt>
      <trkpt lat="39.7451859153807163238525390625" lon="-0.36983043886721134185791015625">
        <ele>173.8000030517578125</ele>
        <time>2019-07-07T08:12:22.000Z</time>
      </trkpt>
      <trkpt lat="39.745658151805400848388671875" lon="-0.3702791221439838409423828125">
        <ele>175.600006103515625</ele>
        <time>2019-07-07T08:12:24.000Z</time>
      </trkpt>
      <trkpt lat="39.74611236713826656341552734375" lon="-0.370775163173675537109375">
        <ele>176.399993896484375</ele>
        <time>2019-07-07T08:12:26.000Z</time>
      </trkpt>
      <trkpt lat="39.74656197242438793182373046875" lon="-0.37128050811588764190673828125">
        <ele>175.600006103515625</ele>
        <time>2019-07-07T08:12:28.000Z</time>
      </trkpt>
      <trkpt lat="39.7470130026340484619140625" lon="-0.37178174592554569244384765625">
        <ele>173.8000030517578125</ele>
        <time>2019-07-07T08:12:30.000Z</time>
      </trkpt>
      <trkpt lat="39.74745933897793292999267578125" lon="-0.3722827322781085968017578125">
        <ele>174.1999969482421875</ele>
        <time>2019-07-07T08:12:32.000Z</time>
      </trkpt>
      <trkpt lat="39.7476850636303424835205078125" lon="-0.37253075279295444488525390625">
        <ele>175.8000030517578125</ele>
        <time>2019-07-07T08:12:33.000Z</time>
      </trkpt>
      <trkpt lat="39.747909866273403167724609375" lon="-0.3727772645652294158935546875">
        <ele>177.399993896484375</ele>
        <time>2019-07-07T08:12:34.000Z</time>
      </trkpt>
      <trkpt lat="39.7481346689164638519287109375" lon="-0.37302562035620212554931640625">
        <ele>178.8000030517578125</ele>
        <time>2019-07-07T08:12:35.000Z</time>
      </trkpt>
      <trkpt lat="39.7483576275408267974853515625" lon="-0.3732744790613651275634765625">
        <ele>181.8000030517578125</ele>
        <time>2019-07-07T08:12:36.000Z</time>
      </trkpt>
      <trkpt lat="39.74857865832746028900146484375" lon="-0.3735230863094329833984375">
        <ele>186.1999969482421875</ele>
        <time>2019-07-07T08:12:37.000Z</time>
      </trkpt>
      <trkpt lat="39.74902323447167873382568359375" lon="-0.37402222864329814910888671875">
        <ele>188.1999969482421875</ele>
        <time>2019-07-07T08:12:39.000Z</time>
      </trkpt>
      <trkpt lat="39.7494690679013729095458984375" lon="-0.37451617419719696044921875">
        <ele>186.1999969482421875</ele>
        <time>2019-07-07T08:12:41.000Z</time>
      </trkpt>
      <trkpt lat="39.7499129734933376312255859375" lon="-0.3750065155327320098876953125">
        <ele>185.399993896484375</ele>
        <time>2019-07-07T08:12:43.000Z</time>
      </trkpt>
      <trkpt lat="39.75013299845159053802490234375" lon="-0.37525177001953125">
        <ele>184</ele>
        <time>2019-07-07T08:12:44.000Z</time>
      </trkpt>
      <trkpt lat="39.750570617616176605224609375" lon="-0.37573817186057567596435546875">
        <ele>186</ele>
        <time>2019-07-07T08:12:46.000Z</time>
      </trkpt>
      <trkpt lat="39.7510086558759212493896484375" lon="-0.3762205503880977630615234375">
        <ele>188.1999969482421875</ele>
        <time>2019-07-07T08:12:48.000Z</time>
      </trkpt>
      <trkpt lat="39.75122616626322269439697265625" lon="-0.37646220065653324127197265625">
        <ele>190.1999969482421875</ele>
        <time>2019-07-07T08:12:49.000Z</time>
      </trkpt>
      <trkpt lat="39.75166085176169872283935546875" lon="-0.376943238079547882080078125">
        <ele>191.8000030517578125</ele>
        <time>2019-07-07T08:12:51.000Z</time>
      </trkpt>
      <trkpt lat="39.75209587253630161285400390625" lon="-0.37741958163678646087646484375">
        <ele>191.1999969482421875</ele>
        <time>2019-07-07T08:12:53.000Z</time>
      </trkpt>
      <trkpt lat="39.75253357551991939544677734375" lon="-0.3778992779552936553955078125">
        <ele>192.1999969482421875</ele>
        <time>2019-07-07T08:12:55.000Z</time>
      </trkpt>
      <trkpt lat="39.7529753856360912322998046875" lon="-0.37838718853890895843505859375">
        <ele>193.8000030517578125</ele>
        <time>2019-07-07T08:12:57.000Z</time>
      </trkpt>
      <trkpt lat="39.7531983442604541778564453125" lon="-0.3786335326731204986572265625">
        <ele>195</ele>
        <time>2019-07-07T08:12:58.000Z</time>
      </trkpt>
      <trkpt lat="39.75342205725610256195068359375" lon="-0.378881804645061492919921875">
        <ele>196.600006103515625</ele>
        <time>2019-07-07T08:12:59.000Z</time>
      </trkpt>
      <trkpt lat="39.7536461055278778076171875" lon="-0.37913049571216106414794921875">
        <ele>198.399993896484375</ele>
        <time>2019-07-07T08:13:00.000Z</time>
      </trkpt>
      <trkpt lat="39.75409495644271373748779296875" lon="-0.37962787784636020660400390625">
        <ele>200</ele>
        <time>2019-07-07T08:13:02.000Z</time>
      </trkpt>
      <trkpt lat="39.75432026199996471405029296875" lon="-0.37987581454217433929443359375">
        <ele>201.8000030517578125</ele>
        <time>2019-07-07T08:13:03.000Z</time>
      </trkpt>
      <trkpt lat="39.75477154366672039031982421875" lon="-0.3803734481334686279296875">
        <ele>203.399993896484375</ele>
        <time>2019-07-07T08:13:05.000Z</time>
      </trkpt>
      <trkpt lat="39.7552224062383174896240234375" lon="-0.3808681480586528778076171875">
        <ele>204</ele>
        <time>2019-07-07T08:13:07.000Z</time>
      </trkpt>
      <trkpt lat="39.75567125715315341949462890625" lon="-0.381362177431583404541015625">
        <ele>206.8000030517578125</ele>
        <time>2019-07-07T08:13:09.000Z</time>
      </trkpt>
      <trkpt lat="39.755895137786865234375" lon="-0.38160919211804866790771484375">
        <ele>208</ele>
        <time>2019-07-07T08:13:10.000Z</time>
      </trkpt>
      <trkpt lat="39.756118096411228179931640625" lon="-0.38185662589967250823974609375">
        <ele>210.8000030517578125</ele>
        <time>2019-07-07T08:13:11.000Z</time>
      </trkpt>
      <trkpt lat="39.7563395462930202484130859375" lon="-0.3821046464145183563232421875">
        <ele>213.600006103515625</ele>
        <time>2019-07-07T08:13:12.000Z</time>
      </trkpt>
      <trkpt lat="39.75656032562255859375" lon="-0.38235350511968135833740234375">
        <ele>215.8000030517578125</ele>
        <time>2019-07-07T08:13:13.000Z</time>
      </trkpt>
      <trkpt lat="39.75677959620952606201171875" lon="-0.382603369653224945068359375">
        <ele>217</ele>
        <time>2019-07-07T08:13:14.000Z</time>
      </trkpt>
      <trkpt lat="39.7572082467377185821533203125" lon="-0.38311592303216457366943359375">
        <ele>217.399993896484375</ele>
        <time>2019-07-07T08:13:16.000Z</time>
      </trkpt>
      <trkpt lat="39.757623486220836639404296875" lon="-0.38364733569324016571044921875">
        <ele>216</ele>
        <time>2019-07-07T08:13:18.000Z</time>
      </trkpt>
      <trkpt lat="39.75802841596305370330810546875" lon="-0.38419316522777080535888671875">
        <ele>215.1999969482421875</ele>
        <time>2019-07-07T08:13:20.000Z</time>
      </trkpt>
      <trkpt lat="39.75841264240443706512451171875" lon="-0.3847529925405979156494140625">
        <ele>217.1999969482421875</ele>
        <time>2019-07-07T08:13:22.000Z</time>
      </trkpt>
      <trkpt lat="39.7585976310074329376220703125" lon="-0.385039485991001129150390625">
        <ele>219.600006103515625</ele>
        <time>2019-07-07T08:13:23.000Z</time>
      </trkpt>
      <trkpt lat="39.75877943448722362518310546875" lon="-0.3853300027549266815185546875">
        <ele>222.600006103515625</ele>
        <time>2019-07-07T08:13:24.000Z</time>
      </trkpt>
      <trkpt lat="39.75895822048187255859375" lon="-0.38562512956559658050537109375">
        <ele>224.8000030517578125</ele>
        <time>2019-07-07T08:13:25.000Z</time>
      </trkpt>
      <trkpt lat="39.75913415662944316864013671875" lon="-0.38592520169913768768310546875">
        <ele>227.1999969482421875</ele>
        <time>2019-07-07T08:13:26.000Z</time>
      </trkpt>
      <trkpt lat="39.75930732674896717071533203125" lon="-0.38623030297458171844482421875">
        <ele>229.1999969482421875</ele>
        <time>2019-07-07T08:13:27.000Z</time>
      </trkpt>
      <trkpt lat="39.75947865284979343414306640625" lon="-0.38654060102999210357666015625">
        <ele>230.600006103515625</ele>
        <time>2019-07-07T08:13:28.000Z</time>
      </trkpt>
      <trkpt lat="39.759648554027080535888671875" lon="-0.3868545033037662506103515625">
        <ele>232.600006103515625</ele>
        <time>2019-07-07T08:13:29.000Z</time>
      </trkpt>
      <trkpt lat="39.7598180361092090606689453125" lon="-0.38717192597687244415283203125">
        <ele>234.600006103515625</ele>
        <time>2019-07-07T08:13:30.000Z</time>
      </trkpt>
      <trkpt lat="39.7599895298480987548828125" lon="-0.387491025030612945556640625">
        <ele>235.8000030517578125</ele>
        <time>2019-07-07T08:13:31.000Z</time>
      </trkpt>
      <trkpt lat="39.76016278378665447235107421875" lon="-0.38781129755079746246337890625">
        <ele>237</ele>
        <time>2019-07-07T08:13:32.000Z</time>
      </trkpt>
      <trkpt lat="39.76053125225007534027099609375" lon="-0.3884373418986797332763671875">
        <ele>237.1999969482421875</ele>
        <time>2019-07-07T08:13:34.000Z</time>
      </trkpt>
      <trkpt lat="39.760945402085781097412109375" lon="-0.38898660801351070404052734375">
        <ele>237.1999969482421875</ele>
        <time>2019-07-07T08:13:36.000Z</time>
      </trkpt>
      <trkpt lat="39.76140045560896396636962890625" lon="-0.38943051360547542572021484375">
        <ele>236</ele>
        <time>2019-07-07T08:13:38.000Z</time>
      </trkpt>
      <trkpt lat="39.7616426087915897369384765625" lon="-0.389614999294281005859375">
        <ele>235.399993896484375</ele>
        <time>2019-07-07T08:13:39.000Z</time>
      </trkpt>
      <trkpt lat="39.7621505521237850189208984375" lon="-0.38991565816104412078857421875">
        <ele>234.600006103515625</ele>
        <time>2019-07-07T08:13:41.000Z</time>
      </trkpt>
      <trkpt lat="39.76241550408303737640380859375" lon="-0.39003250189125537872314453125">
        <ele>234.1999969482421875</ele>
        <time>2019-07-07T08:13:42.000Z</time>
      </trkpt>
      <trkpt lat="39.76296468637883663177490234375" lon="-0.390187315642833709716796875">
        <ele>234.399993896484375</ele>
        <time>2019-07-07T08:13:44.000Z</time>
      </trkpt>
      <trkpt lat="39.76353432051837444305419921875" lon="-0.390242300927639007568359375">
        <ele>234</ele>
        <time>2019-07-07T08:13:46.000Z</time>
      </trkpt>
      <trkpt lat="39.7638242505490779876708984375" lon="-0.3902314044535160064697265625">
        <ele>233</ele>
        <time>2019-07-07T08:13:47.000Z</time>
      </trkpt>
      <trkpt lat="39.76440620608627796173095703125" lon="-0.39012051187455654144287109375">
        <ele>232.399993896484375</ele>
        <time>2019-07-07T08:13:49.000Z</time>
      </trkpt>
      <trkpt lat="39.7646909393370151519775390625" lon="-0.39002873003482818603515625">
        <ele>232</ele>
        <time>2019-07-07T08:13:50.000Z</time>
      </trkpt>
      <trkpt lat="39.76525403559207916259765625" lon="-0.38978707976639270782470703125">
        <ele>230.399993896484375</ele>
        <time>2019-07-07T08:13:52.000Z</time>
      </trkpt>
      <trkpt lat="39.765811264514923095703125" lon="-0.3895300067961215972900390625">
        <ele>230</ele>
        <time>2019-07-07T08:13:54.000Z</time>
      </trkpt>
      <trkpt lat="39.76636472158133983612060546875" lon="-0.38928232155740261077880859375">
        <ele>229.600006103515625</ele>
        <time>2019-07-07T08:13:56.000Z</time>
      </trkpt>
      <trkpt lat="39.76692236959934234619140625" lon="-0.389056093990802764892578125">
        <ele>229.8000030517578125</ele>
        <time>2019-07-07T08:13:58.000Z</time>
      </trkpt>
      <trkpt lat="39.76720375008881092071533203125" lon="-0.38896196521818637847900390625">
        <ele>229.399993896484375</ele>
        <time>2019-07-07T08:13:59.000Z</time>
      </trkpt>
      <trkpt lat="39.7677711211144924163818359375" lon="-0.3888353146612644195556640625">
        <ele>228.399993896484375</ele>
        <time>2019-07-07T08:14:01.000Z</time>
      </trkpt>
      <trkpt lat="39.76805585436522960662841796875" lon="-0.3888058103621006011962890625">
        <ele>227.1999969482421875</ele>
        <time>2019-07-07T08:14:02.000Z</time>
      </trkpt>
      <trkpt lat="39.768341593444347381591796875" lon="-0.3887944109737873077392578125">
        <ele>225.600006103515625</ele>
        <time>2019-07-07T08:14:03.000Z</time>
      </trkpt>
      <trkpt lat="39.7686274163424968719482421875" lon="-0.38880036212503910064697265625">
        <ele>224.1999969482421875</ele>
        <time>2019-07-07T08:14:04.000Z</time>
      </trkpt>
      <trkpt lat="39.76919931359589099884033203125" lon="-0.38887898437678813934326171875">
        <ele>223.8000030517578125</ele>
        <time>2019-07-07T08:14:06.000Z</time>
      </trkpt>
      <trkpt lat="39.76976073347032070159912109375" lon="-0.38904838263988494873046875">
        <ele>223</ele>
        <time>2019-07-07T08:14:08.000Z</time>
      </trkpt>
      <trkpt lat="39.7703088261187076568603515625" lon="-0.389284752309322357177734375">
        <ele>221</ele>
        <time>2019-07-07T08:14:10.000Z</time>
      </trkpt>
      <trkpt lat="39.77085691876709461212158203125" lon="-0.38952657021582126617431640625">
        <ele>220.1999969482421875</ele>
        <time>2019-07-07T08:14:12.000Z</time>
      </trkpt>
      <trkpt lat="39.7714014910161495208740234375" lon="-0.3897630237042903900146484375">
        <ele>220.8000030517578125</ele>
        <time>2019-07-07T08:14:14.000Z</time>
      </trkpt>
      <trkpt lat="39.77194254286587238311767578125" lon="-0.38999008946120738983154296875">
        <ele>221.600006103515625</ele>
        <time>2019-07-07T08:14:16.000Z</time>
      </trkpt>
      <trkpt lat="39.77248082868754863739013671875" lon="-0.39020583964884281158447265625">
        <ele>222.600006103515625</ele>
        <time>2019-07-07T08:14:18.000Z</time>
      </trkpt>
      <trkpt lat="39.77301240898668766021728515625" lon="-0.39042879827320575714111328125">
        <ele>225.399993896484375</ele>
        <time>2019-07-07T08:14:20.000Z</time>
      </trkpt>
      <trkpt lat="39.773276187479496002197265625" lon="-0.39054178632795810699462890625">
        <ele>228.8000030517578125</ele>
        <time>2019-07-07T08:14:21.000Z</time>
      </trkpt>
      <trkpt lat="39.7738000564277172088623046875" lon="-0.39076826535165309906005859375">
        <ele>229.1999969482421875</ele>
        <time>2019-07-07T08:14:23.000Z</time>
      </trkpt>
      <trkpt lat="39.7740603983402252197265625" lon="-0.3908815048635005950927734375">
        <ele>230.8000030517578125</ele>
        <time>2019-07-07T08:14:24.000Z</time>
      </trkpt>
      <trkpt lat="39.7745789028704166412353515625" lon="-0.39110488258302211761474609375">
        <ele>232.600006103515625</ele>
        <time>2019-07-07T08:14:26.000Z</time>
      </trkpt>
      <trkpt lat="39.77509371936321258544921875" lon="-0.391326248645782470703125">
        <ele>234.399993896484375</ele>
        <time>2019-07-07T08:14:28.000Z</time>
      </trkpt>
      <trkpt lat="39.77560241706669330596923828125" lon="-0.3915448486804962158203125">
        <ele>237</ele>
        <time>2019-07-07T08:14:30.000Z</time>
      </trkpt>
      <trkpt lat="39.7761057503521442413330078125" lon="-0.3917609341442584991455078125">
        <ele>239.399993896484375</ele>
        <time>2019-07-07T08:14:32.000Z</time>
      </trkpt>
      <trkpt lat="39.7763541899621486663818359375" lon="-0.39186830632388591766357421875">
        <ele>240.600006103515625</ele>
        <time>2019-07-07T08:14:33.000Z</time>
      </trkpt>
      <trkpt lat="39.7766009531915187835693359375" lon="-0.3919761814177036285400390625">
        <ele>242</ele>
        <time>2019-07-07T08:14:34.000Z</time>
      </trkpt>
      <trkpt lat="39.77684796787798404693603515625" lon="-0.39208271540701389312744140625">
        <ele>243.1999969482421875</ele>
        <time>2019-07-07T08:14:35.000Z</time>
      </trkpt>
      <trkpt lat="39.7770966589450836181640625" lon="-0.392188243567943572998046875">
        <ele>244.600006103515625</ele>
        <time>2019-07-07T08:14:36.000Z</time>
      </trkpt>
      <trkpt lat="39.77734853513538837432861328125" lon="-0.3922953642904758453369140625">
        <ele>246</ele>
        <time>2019-07-07T08:14:37.000Z</time>
      </trkpt>
      <trkpt lat="39.77786150760948657989501953125" lon="-0.3925163112580776214599609375">
        <ele>247.600006103515625</ele>
        <time>2019-07-07T08:14:39.000Z</time>
      </trkpt>
      <trkpt lat="39.778385795652866363525390625" lon="-0.39274178445339202880859375">
        <ele>248.399993896484375</ele>
        <time>2019-07-07T08:14:41.000Z</time>
      </trkpt>
      <trkpt lat="39.77865166962146759033203125" lon="-0.39285401813685894012451171875">
        <ele>250.399993896484375</ele>
        <time>2019-07-07T08:14:42.000Z</time>
      </trkpt>
      <trkpt lat="39.77891997434198856353759765625" lon="-0.3929662518203258514404296875">
        <ele>252.8000030517578125</ele>
        <time>2019-07-07T08:14:43.000Z</time>
      </trkpt>
      <trkpt lat="39.77918945252895355224609375" lon="-0.39307932369410991668701171875">
        <ele>254</ele>
        <time>2019-07-07T08:14:44.000Z</time>
      </trkpt>
      <trkpt lat="39.7797305881977081298828125" lon="-0.39330697618424892425537109375">
        <ele>255.1999969482421875</ele>
        <time>2019-07-07T08:14:46.000Z</time>
      </trkpt>
      <trkpt lat="39.7802668623626232147216796875" lon="-0.39353697560727596282958984375">
        <ele>254.399993896484375</ele>
        <time>2019-07-07T08:14:48.000Z</time>
      </trkpt>
      <trkpt lat="39.78053189814090728759765625" lon="-0.39365247823297977447509765625">
        <ele>252.1999969482421875</ele>
        <time>2019-07-07T08:14:49.000Z</time>
      </trkpt>
      <trkpt lat="39.7807955928146839141845703125" lon="-0.39376731030642986297607421875">
        <ele>251.1999969482421875</ele>
        <time>2019-07-07T08:14:50.000Z</time>
      </trkpt>
      <trkpt lat="39.78132088668644428253173828125" lon="-0.39398959837853908538818359375">
        <ele>251.600006103515625</ele>
        <time>2019-07-07T08:14:52.000Z</time>
      </trkpt>
      <trkpt lat="39.7815828211605548858642578125" lon="-0.39410074241459369659423828125">
        <ele>253.1999969482421875</ele>
        <time>2019-07-07T08:14:53.000Z</time>
      </trkpt>
      <trkpt lat="39.78184525854885578155517578125" lon="-0.39421255700290203094482421875">
        <ele>256</ele>
        <time>2019-07-07T08:14:54.000Z</time>
      </trkpt>
      <trkpt lat="39.782107360661029815673828125" lon="-0.3943237848579883575439453125">
        <ele>257.399993896484375</ele>
        <time>2019-07-07T08:14:55.000Z</time>
      </trkpt>
      <trkpt lat="39.7823698818683624267578125" lon="-0.39443559944629669189453125">
        <ele>259.399993896484375</ele>
        <time>2019-07-07T08:14:56.000Z</time>
      </trkpt>
      <trkpt lat="39.7828974388539791107177734375" lon="-0.39465964771807193756103515625">
        <ele>259.79998779296875</ele>
        <time>2019-07-07T08:14:58.000Z</time>
      </trkpt>
      <trkpt lat="39.7834291867911815643310546875" lon="-0.39488394744694232940673828125">
        <ele>260</ele>
        <time>2019-07-07T08:15:00.000Z</time>
      </trkpt>
      <trkpt lat="39.7839656285941600799560546875" lon="-0.39511059410870075225830078125">
        <ele>259.79998779296875</ele>
        <time>2019-07-07T08:15:02.000Z</time>
      </trkpt>
      <trkpt lat="39.784511290490627288818359375" lon="-0.3953433595597743988037109375">
        <ele>259.399993896484375</ele>
        <time>2019-07-07T08:15:04.000Z</time>
      </trkpt>
      <trkpt lat="39.7850660048425197601318359375" lon="-0.3955780528485774993896484375">
        <ele>258.20001220703125</ele>
        <time>2019-07-07T08:15:06.000Z</time>
      </trkpt>
      <trkpt lat="39.78534470312297344207763671875" lon="-0.39569766260683536529541015625">
        <ele>257</ele>
        <time>2019-07-07T08:15:07.000Z</time>
      </trkpt>
      <trkpt lat="39.7859018482267856597900390625" lon="-0.39593671448528766632080078125">
        <ele>254</ele>
        <time>2019-07-07T08:15:09.000Z</time>
      </trkpt>
      <trkpt lat="39.786178953945636749267578125" lon="-0.39605808444321155548095703125">
        <ele>251.1999969482421875</ele>
        <time>2019-07-07T08:15:10.000Z</time>
      </trkpt>
      <trkpt lat="39.7864547185599803924560546875" lon="-0.39618381299078464508056640625">
        <ele>248.399993896484375</ele>
        <time>2019-07-07T08:15:11.000Z</time>
      </trkpt>
      <trkpt lat="39.78672780096530914306640625" lon="-0.3963156603276729583740234375">
        <ele>245.600006103515625</ele>
        <time>2019-07-07T08:15:12.000Z</time>
      </trkpt>
      <trkpt lat="39.78699828498065471649169921875" lon="-0.39645488373935222625732421875">
        <ele>243</ele>
        <time>2019-07-07T08:15:13.000Z</time>
      </trkpt>
      <trkpt lat="39.78726566769182682037353515625" lon="-0.39660089649260044097900390625">
        <ele>241.600006103515625</ele>
        <time>2019-07-07T08:15:14.000Z</time>
      </trkpt>
      <trkpt lat="39.78752919472754001617431640625" lon="-0.39675235748291015625">
        <ele>239.8000030517578125</ele>
        <time>2019-07-07T08:15:15.000Z</time>
      </trkpt>
      <trkpt lat="39.78804719634354114532470703125" lon="-0.39707246236503124237060546875">
        <ele>238</ele>
        <time>2019-07-07T08:15:17.000Z</time>
      </trkpt>
      <trkpt lat="39.7885525412857532501220703125" lon="-0.39739700965583324432373046875">
        <ele>236</ele>
        <time>2019-07-07T08:15:19.000Z</time>
      </trkpt>
      <trkpt lat="39.78879955597221851348876953125" lon="-0.3975570201873779296875">
        <ele>234.8000030517578125</ele>
        <time>2019-07-07T08:15:20.000Z</time>
      </trkpt>
      <trkpt lat="39.78928939439356327056884765625" lon="-0.39787544868886470794677734375">
        <ele>233.8000030517578125</ele>
        <time>2019-07-07T08:15:22.000Z</time>
      </trkpt>
      <trkpt lat="39.7895332239568233489990234375" lon="-0.39804224856197834014892578125">
        <ele>232.8000030517578125</ele>
        <time>2019-07-07T08:15:23.000Z</time>
      </trkpt>
      <trkpt lat="39.78977554477751255035400390625" lon="-0.39821575395762920379638671875">
        <ele>231.8000030517578125</ele>
        <time>2019-07-07T08:15:24.000Z</time>
      </trkpt>
      <trkpt lat="39.7900173626840114593505859375" lon="-0.39839697070419788360595703125">
        <ele>230.8000030517578125</ele>
        <time>2019-07-07T08:15:25.000Z</time>
      </trkpt>
      <trkpt lat="39.79025901295244693756103515625" lon="-0.39858606643974781036376953125">
        <ele>229.1999969482421875</ele>
        <time>2019-07-07T08:15:26.000Z</time>
      </trkpt>
      <trkpt lat="39.7904994897544384002685546875" lon="-0.39878211915493011474609375">
        <ele>227</ele>
        <time>2019-07-07T08:15:27.000Z</time>
      </trkpt>
      <trkpt lat="39.7907372005283832550048828125" lon="-0.3989797644317150115966796875">
        <ele>225.399993896484375</ele>
        <time>2019-07-07T08:15:28.000Z</time>
      </trkpt>
      <trkpt lat="39.791198708117008209228515625" lon="-0.39936809800565242767333984375">
        <ele>223</ele>
        <time>2019-07-07T08:15:30.000Z</time>
      </trkpt>
      <trkpt lat="39.79165778495371341705322265625" lon="-0.39975383318960666656494140625">
        <ele>220.8000030517578125</ele>
        <time>2019-07-07T08:15:32.000Z</time>
      </trkpt>
      <trkpt lat="39.79189013130962848663330078125" lon="-0.3999490477144718170166015625">
        <ele>219.8000030517578125</ele>
        <time>2019-07-07T08:15:33.000Z</time>
      </trkpt>
      <trkpt lat="39.79235381819307804107666015625" lon="-0.40034224279224872589111328125">
        <ele>220</ele>
        <time>2019-07-07T08:15:35.000Z</time>
      </trkpt>
      <trkpt lat="39.79281733743846416473388671875" lon="-0.400735437870025634765625">
        <ele>219.600006103515625</ele>
        <time>2019-07-07T08:15:37.000Z</time>
      </trkpt>
      <trkpt lat="39.79328135959804058074951171875" lon="-0.40112234652042388916015625">
        <ele>218.399993896484375</ele>
        <time>2019-07-07T08:15:39.000Z</time>
      </trkpt>
      <trkpt lat="39.79374110698699951171875" lon="-0.401513613760471343994140625">
        <ele>217.1999969482421875</ele>
        <time>2019-07-07T08:15:41.000Z</time>
      </trkpt>
      <trkpt lat="39.7942037880420684814453125" lon="-0.40190613828599452972412109375">
        <ele>215.8000030517578125</ele>
        <time>2019-07-07T08:15:43.000Z</time>
      </trkpt>
      <trkpt lat="39.79465096257627010345458984375" lon="-0.40232573635876178741455078125">
        <ele>214.8000030517578125</ele>
        <time>2019-07-07T08:15:45.000Z</time>
      </trkpt>
      <trkpt lat="39.79505497030913829803466796875" lon="-0.40279344655573368072509765625">
        <ele>213.399993896484375</ele>
        <time>2019-07-07T08:15:47.000Z</time>
      </trkpt>
      <trkpt lat="39.79540835134685039520263671875" lon="-0.4033128730952739715576171875">
        <ele>213.600006103515625</ele>
        <time>2019-07-07T08:15:49.000Z</time>
      </trkpt>
      <trkpt lat="39.79556442238390445709228515625" lon="-0.4035934992134571075439453125">
        <ele>215.399993896484375</ele>
        <time>2019-07-07T08:15:50.000Z</time>
      </trkpt>
      <trkpt lat="39.79570783674716949462890625" lon="-0.4038868658244609832763671875">
        <ele>217.600006103515625</ele>
        <time>2019-07-07T08:15:51.000Z</time>
      </trkpt>
      <trkpt lat="39.79583968408405780792236328125" lon="-0.4041919670999050140380859375">
        <ele>218.600006103515625</ele>
        <time>2019-07-07T08:15:52.000Z</time>
      </trkpt>
      <trkpt lat="39.7960617206990718841552734375" lon="-0.40483041666448116302490234375">
        <ele>219.600006103515625</ele>
        <time>2019-07-07T08:15:54.000Z</time>
      </trkpt>
      <trkpt lat="39.79622072540223598480224609375" lon="-0.40550046600401401519775390625">
        <ele>220.1999969482421875</ele>
        <time>2019-07-07T08:15:56.000Z</time>
      </trkpt>
      <trkpt lat="39.7963235713541507720947265625" lon="-0.40618459694087505340576171875">
        <ele>220.399993896484375</ele>
        <time>2019-07-07T08:15:58.000Z</time>
      </trkpt>
      <trkpt lat="39.7964060492813587188720703125" lon="-0.40687509812414646148681640625">
        <ele>221</ele>
        <time>2019-07-07T08:16:00.000Z</time>
      </trkpt>
      <trkpt lat="39.79644569568336009979248046875" lon="-0.4072245396673679351806640625">
        <ele>222.1999969482421875</ele>
        <time>2019-07-07T08:16:01.000Z</time>
      </trkpt>
      <trkpt lat="39.79652850888669490814208984375" lon="-0.4079239256680011749267578125">
        <ele>221.600006103515625</ele>
        <time>2019-07-07T08:16:03.000Z</time>
      </trkpt>
      <trkpt lat="39.79661232791841030120849609375" lon="-0.40862859226763248443603515625">
        <ele>222</ele>
        <time>2019-07-07T08:16:05.000Z</time>
      </trkpt>
      <trkpt lat="39.79669933207333087921142578125" lon="-0.40933652780950069427490234375">
        <ele>223.600006103515625</ele>
        <time>2019-07-07T08:16:07.000Z</time>
      </trkpt>
      <trkpt lat="39.79678801260888576507568359375" lon="-0.410047732293605804443359375">
        <ele>225.8000030517578125</ele>
        <time>2019-07-07T08:16:09.000Z</time>
      </trkpt>
      <trkpt lat="39.79683008976280689239501953125" lon="-0.4103996045887470245361328125">
        <ele>227.399993896484375</ele>
        <time>2019-07-07T08:16:10.000Z</time>
      </trkpt>
      <trkpt lat="39.7969129867851734161376953125" lon="-0.41108968667685985565185546875">
        <ele>228.8000030517578125</ele>
        <time>2019-07-07T08:16:12.000Z</time>
      </trkpt>
      <trkpt lat="39.7969968058168888092041015625" lon="-0.41177281178534030914306640625">
        <ele>229</ele>
        <time>2019-07-07T08:16:14.000Z</time>
      </trkpt>
      <trkpt lat="39.7970829717814922332763671875" lon="-0.412453003227710723876953125">
        <ele>229.1999969482421875</ele>
        <time>2019-07-07T08:16:16.000Z</time>
      </trkpt>
      <trkpt lat="39.79716653935611248016357421875" lon="-0.41312883608043193817138671875">
        <ele>228.399993896484375</ele>
        <time>2019-07-07T08:16:18.000Z</time>
      </trkpt>
      <trkpt lat="39.7972509451210498809814453125" lon="-0.41379771195352077484130859375">
        <ele>228.600006103515625</ele>
        <time>2019-07-07T08:16:20.000Z</time>
      </trkpt>
      <trkpt lat="39.79735882021486759185791015625" lon="-0.414461307227611541748046875">
        <ele>228.600006103515625</ele>
        <time>2019-07-07T08:16:22.000Z</time>
      </trkpt>
      <trkpt lat="39.79751857928931713104248046875" lon="-0.41511400602757930755615234375">
        <ele>228.399993896484375</ele>
        <time>2019-07-07T08:16:24.000Z</time>
      </trkpt>
      <trkpt lat="39.79761849157512187957763671875" lon="-0.41543419472873210906982421875">
        <ele>228.8000030517578125</ele>
        <time>2019-07-07T08:16:25.000Z</time>
      </trkpt>
      <trkpt lat="39.7978634946048259735107421875" lon="-0.4160583950579166412353515625">
        <ele>229</ele>
        <time>2019-07-07T08:16:27.000Z</time>
      </trkpt>
      <trkpt lat="39.79816851206123828887939453125" lon="-0.416649319231510162353515625">
        <ele>230.1999969482421875</ele>
        <time>2019-07-07T08:16:29.000Z</time>
      </trkpt>
      <trkpt lat="39.79852658696472644805908203125" lon="-0.41719389148056507110595703125">
        <ele>232.1999969482421875</ele>
        <time>2019-07-07T08:16:31.000Z</time>
      </trkpt>
      <trkpt lat="39.7989387251436710357666015625" lon="-0.41767685674130916595458984375">
        <ele>233.600006103515625</ele>
        <time>2019-07-07T08:16:33.000Z</time>
      </trkpt>
      <trkpt lat="39.799383468925952911376953125" lon="-0.41810584254562854766845703125">
        <ele>234.1999969482421875</ele>
        <time>2019-07-07T08:16:35.000Z</time>
      </trkpt>
      <trkpt lat="39.79961849749088287353515625" lon="-0.4182950221002101898193359375">
        <ele>234.8000030517578125</ele>
        <time>2019-07-07T08:16:36.000Z</time>
      </trkpt>
      <trkpt lat="39.80011177249252796173095703125" lon="-0.4186162166297435760498046875">
        <ele>234.399993896484375</ele>
        <time>2019-07-07T08:16:38.000Z</time>
      </trkpt>
      <trkpt lat="39.80061535723507404327392578125" lon="-0.41888837702572345733642578125">
        <ele>235.600006103515625</ele>
        <time>2019-07-07T08:16:40.000Z</time>
      </trkpt>
      <trkpt lat="39.80086916126310825347900390625" lon="-0.41901804506778717041015625">
        <ele>235.8000030517578125</ele>
        <time>2019-07-07T08:16:41.000Z</time>
      </trkpt>
      <trkpt lat="39.8013788647949695587158203125" lon="-0.4192773811519145965576171875">
        <ele>235.8000030517578125</ele>
        <time>2019-07-07T08:16:43.000Z</time>
      </trkpt>
      <trkpt lat="39.80189443565905094146728515625" lon="-0.4195365495979785919189453125">
        <ele>236.600006103515625</ele>
        <time>2019-07-07T08:16:45.000Z</time>
      </trkpt>
      <trkpt lat="39.80215410701930522918701171875" lon="-0.4196629486978054046630859375">
        <ele>237.8000030517578125</ele>
        <time>2019-07-07T08:16:46.000Z</time>
      </trkpt>
      <trkpt lat="39.80267311446368694305419921875" lon="-0.41991884820163249969482421875">
        <ele>238</ele>
        <time>2019-07-07T08:16:48.000Z</time>
      </trkpt>
      <trkpt lat="39.80317510664463043212890625" lon="-0.42021053843200206756591796875">
        <ele>237.8000030517578125</ele>
        <time>2019-07-07T08:16:50.000Z</time>
      </trkpt>
      <trkpt lat="39.80364357121288776397705078125" lon="-0.42057582177221775054931640625">
        <ele>237.1999969482421875</ele>
        <time>2019-07-07T08:16:52.000Z</time>
      </trkpt>
      <trkpt lat="39.80406752787530422210693359375" lon="-0.42102165520191192626953125">
        <ele>237</ele>
        <time>2019-07-07T08:16:54.000Z</time>
      </trkpt>
      <trkpt lat="39.80443951673805713653564453125" lon="-0.42153454385697841644287109375">
        <ele>237.600006103515625</ele>
        <time>2019-07-07T08:16:56.000Z</time>
      </trkpt>
      <trkpt lat="39.8047555983066558837890625" lon="-0.4221064411103725433349609375">
        <ele>238.399993896484375</ele>
        <time>2019-07-07T08:16:58.000Z</time>
      </trkpt>
      <trkpt lat="39.8048915527760982513427734375" lon="-0.42241062037646770477294921875">
        <ele>239.600006103515625</ele>
        <time>2019-07-07T08:16:59.000Z</time>
      </trkpt>
      <trkpt lat="39.8051297664642333984375" lon="-0.42304043658077716827392578125">
        <ele>242.399993896484375</ele>
        <time>2019-07-07T08:17:01.000Z</time>
      </trkpt>
      <trkpt lat="39.80523529462516307830810546875" lon="-0.4233620502054691314697265625">
        <ele>244.1999969482421875</ele>
        <time>2019-07-07T08:17:02.000Z</time>
      </trkpt>
      <trkpt lat="39.8053322732448577880859375" lon="-0.4236872680485248565673828125">
        <ele>246.600006103515625</ele>
        <time>2019-07-07T08:17:03.000Z</time>
      </trkpt>
      <trkpt lat="39.805421121418476104736328125" lon="-0.42401575483381748199462890625">
        <ele>248.399993896484375</ele>
        <time>2019-07-07T08:17:04.000Z</time>
      </trkpt>
      <trkpt lat="39.80557660572230815887451171875" lon="-0.42468630708754062652587890625">
        <ele>250.1999969482421875</ele>
        <time>2019-07-07T08:17:06.000Z</time>
      </trkpt>
      <trkpt lat="39.80570283718407154083251953125" lon="-0.4253804124891757965087890625">
        <ele>251.399993896484375</ele>
        <time>2019-07-07T08:17:08.000Z</time>
      </trkpt>
      <trkpt lat="39.8057949542999267578125" lon="-0.4260982386767864227294921875">
        <ele>253.399993896484375</ele>
        <time>2019-07-07T08:17:10.000Z</time>
      </trkpt>
      <trkpt lat="39.80586879886686801910400390625" lon="-0.42681950144469738006591796875">
        <ele>254.600006103515625</ele>
        <time>2019-07-07T08:17:12.000Z</time>
      </trkpt>
      <trkpt lat="39.8059835471212863922119140625" lon="-0.427520312368869781494140625">
        <ele>254</ele>
        <time>2019-07-07T08:17:14.000Z</time>
      </trkpt>
      <trkpt lat="39.80617339722812175750732421875" lon="-0.4281880147755146026611328125">
        <ele>256.20001220703125</ele>
        <time>2019-07-07T08:17:16.000Z</time>
      </trkpt>
      <trkpt lat="39.80644279159605503082275390625" lon="-0.42881690897047519683837890625">
        <ele>257.79998779296875</ele>
        <time>2019-07-07T08:17:18.000Z</time>
      </trkpt>
      <trkpt lat="39.80676532723009586334228515625" lon="-0.42938553728163242340087890625">
        <ele>258.79998779296875</ele>
        <time>2019-07-07T08:17:20.000Z</time>
      </trkpt>
      <trkpt lat="39.80714343488216400146484375" lon="-0.4298751242458820343017578125">
        <ele>259.600006103515625</ele>
        <time>2019-07-07T08:17:22.000Z</time>
      </trkpt>
      <trkpt lat="39.8073492944240570068359375" lon="-0.430094562470912933349609375">
        <ele>260</ele>
        <time>2019-07-07T08:17:23.000Z</time>
      </trkpt>
      <trkpt lat="39.8077859915792942047119140625" lon="-0.430480800569057464599609375">
        <ele>261.399993896484375</ele>
        <time>2019-07-07T08:17:25.000Z</time>
      </trkpt>
      <trkpt lat="39.80801423080265522003173828125" lon="-0.43064382858574390411376953125">
        <ele>263.20001220703125</ele>
        <time>2019-07-07T08:17:26.000Z</time>
      </trkpt>
      <trkpt lat="39.808248169720172882080078125" lon="-0.43078682385385036468505859375">
        <ele>264.79998779296875</ele>
        <time>2019-07-07T08:17:27.000Z</time>
      </trkpt>
      <trkpt lat="39.808488227427005767822265625" lon="-0.4309064336121082305908203125">
        <ele>266.600006103515625</ele>
        <time>2019-07-07T08:17:28.000Z</time>
      </trkpt>
      <trkpt lat="39.8087338171899318695068359375" lon="-0.431005842983722686767578125">
        <ele>268.79998779296875</ele>
        <time>2019-07-07T08:17:29.000Z</time>
      </trkpt>
      <trkpt lat="39.8089829273521900177001953125" lon="-0.431092344224452972412109375">
        <ele>271.399993896484375</ele>
        <time>2019-07-07T08:17:30.000Z</time>
      </trkpt>
      <trkpt lat="39.8094952292740345001220703125" lon="-0.43125621043145656585693359375">
        <ele>273.399993896484375</ele>
        <time>2019-07-07T08:17:32.000Z</time>
      </trkpt>
      <trkpt lat="39.80975682847201824188232421875" lon="-0.43134556151926517486572265625">
        <ele>274.600006103515625</ele>
        <time>2019-07-07T08:17:33.000Z</time>
      </trkpt>
      <trkpt lat="39.8100199364125728607177734375" lon="-0.4314428754150867462158203125">
        <ele>275.79998779296875</ele>
        <time>2019-07-07T08:17:34.000Z</time>
      </trkpt>
      <trkpt lat="39.81054489500820636749267578125" lon="-0.4316825978457927703857421875">
        <ele>277.20001220703125</ele>
        <time>2019-07-07T08:17:36.000Z</time>
      </trkpt>
      <trkpt lat="39.81105250306427478790283203125" lon="-0.43199951760470867156982421875">
        <ele>278.79998779296875</ele>
        <time>2019-07-07T08:17:38.000Z</time>
      </trkpt>
      <trkpt lat="39.8115316964685916900634765625" lon="-0.432389192283153533935546875">
        <ele>279.399993896484375</ele>
        <time>2019-07-07T08:17:40.000Z</time>
      </trkpt>
      <trkpt lat="39.8119747638702392578125" lon="-0.43284215033054351806640625">
        <ele>279.20001220703125</ele>
        <time>2019-07-07T08:17:42.000Z</time>
      </trkpt>
      <trkpt lat="39.8123893328011035919189453125" lon="-0.4333484172821044921875">
        <ele>279</ele>
        <time>2019-07-07T08:17:44.000Z</time>
      </trkpt>
      <trkpt lat="39.81279526837170124053955078125" lon="-0.43387471698224544525146484375">
        <ele>278.600006103515625</ele>
        <time>2019-07-07T08:17:46.000Z</time>
      </trkpt>
      <trkpt lat="39.81299928389489650726318359375" lon="-0.43413765728473663330078125">
        <ele>276.79998779296875</ele>
        <time>2019-07-07T08:17:47.000Z</time>
      </trkpt>
      <trkpt lat="39.81320044957101345062255859375" lon="-0.4343966580927371978759765625">
        <ele>275.399993896484375</ele>
        <time>2019-07-07T08:17:48.000Z</time>
      </trkpt>
      <trkpt lat="39.81358945369720458984375" lon="-0.43490267358720302581787109375">
        <ele>273.600006103515625</ele>
        <time>2019-07-07T08:17:50.000Z</time>
      </trkpt>
      <trkpt lat="39.81396856717765331268310546875" lon="-0.43540240265429019927978515625">
        <ele>271.79998779296875</ele>
        <time>2019-07-07T08:17:52.000Z</time>
      </trkpt>
      <trkpt lat="39.8143498599529266357421875" lon="-0.435900203883647918701171875">
        <ele>273</ele>
        <time>2019-07-07T08:17:54.000Z</time>
      </trkpt>
      <trkpt lat="39.8147178255021572113037109375" lon="-0.4364217258989810943603515625">
        <ele>272.79998779296875</ele>
        <time>2019-07-07T08:17:56.000Z</time>
      </trkpt>
      <trkpt lat="39.8148871399462223052978515625" lon="-0.43670159764587879180908203125">
        <ele>271.600006103515625</ele>
        <time>2019-07-07T08:17:57.000Z</time>
      </trkpt>
      <trkpt lat="39.815045557916164398193359375" lon="-0.4369940422475337982177734375">
        <ele>270</ele>
        <time>2019-07-07T08:17:58.000Z</time>
      </trkpt>
      <trkpt lat="39.8151934146881103515625" lon="-0.437298305332660675048828125">
        <ele>271.600006103515625</ele>
        <time>2019-07-07T08:17:59.000Z</time>
      </trkpt>
      <trkpt lat="39.81533096171915531158447265625" lon="-0.4376143030822277069091796875">
        <ele>270.399993896484375</ele>
        <time>2019-07-07T08:18:00.000Z</time>
      </trkpt>
      <trkpt lat="39.81545736081898212432861328125" lon="-0.43794077821075916290283203125">
        <ele>268.399993896484375</ele>
        <time>2019-07-07T08:18:01.000Z</time>
      </trkpt>
      <trkpt lat="39.81557168997824192047119140625" lon="-0.438277982175350189208984375">
        <ele>266.399993896484375</ele>
        <time>2019-07-07T08:18:02.000Z</time>
      </trkpt>
      <trkpt lat="39.81567227281630039215087890625" lon="-0.43862641789019107818603515625">
        <ele>264.79998779296875</ele>
        <time>2019-07-07T08:18:03.000Z</time>
      </trkpt>
      <trkpt lat="39.8158410005271434783935546875" lon="-0.43934248387813568115234375">
        <ele>263.600006103515625</ele>
        <time>2019-07-07T08:18:05.000Z</time>
      </trkpt>
      <trkpt lat="39.81591425836086273193359375" lon="-0.439706929028034210205078125">
        <ele>262.399993896484375</ele>
        <time>2019-07-07T08:18:06.000Z</time>
      </trkpt>
      <trkpt lat="39.81607326306402683258056640625" lon="-0.4404361546039581298828125">
        <ele>262.399993896484375</ele>
        <time>2019-07-07T08:18:08.000Z</time>
      </trkpt>
      <trkpt lat="39.8162875883281230926513671875" lon="-0.44114216230809688568115234375">
        <ele>262.399993896484375</ele>
        <time>2019-07-07T08:18:10.000Z</time>
      </trkpt>
      <trkpt lat="39.81642010621726512908935546875" lon="-0.441480539739131927490234375">
        <ele>263.79998779296875</ele>
        <time>2019-07-07T08:18:11.000Z</time>
      </trkpt>
      <trkpt lat="39.81656737625598907470703125" lon="-0.441809110343456268310546875">
        <ele>265.79998779296875</ele>
        <time>2019-07-07T08:18:12.000Z</time>
      </trkpt>
      <trkpt lat="39.816902317106723785400390625" lon="-0.44243448413908481597900390625">
        <ele>267.600006103515625</ele>
        <time>2019-07-07T08:18:14.000Z</time>
      </trkpt>
      <trkpt lat="39.81728226877748966217041015625" lon="-0.44302524067461490631103515625">
        <ele>267.20001220703125</ele>
        <time>2019-07-07T08:18:16.000Z</time>
      </trkpt>
      <trkpt lat="39.8176766373217105865478515625" lon="-0.443610213696956634521484375">
        <ele>267</ele>
        <time>2019-07-07T08:18:18.000Z</time>
      </trkpt>
      <trkpt lat="39.8180756159126758575439453125" lon="-0.4441987909376621246337890625">
        <ele>267.20001220703125</ele>
        <time>2019-07-07T08:18:20.000Z</time>
      </trkpt>
      <trkpt lat="39.818476103246212005615234375" lon="-0.4447925649583339691162109375">
        <ele>266.399993896484375</ele>
        <time>2019-07-07T08:18:22.000Z</time>
      </trkpt>
      <trkpt lat="39.81887944042682647705078125" lon="-0.44538675807416439056396484375">
        <ele>267</ele>
        <time>2019-07-07T08:18:24.000Z</time>
      </trkpt>
      <trkpt lat="39.81927749700844287872314453125" lon="-0.445978939533233642578125">
        <ele>266.399993896484375</ele>
        <time>2019-07-07T08:18:26.000Z</time>
      </trkpt>
      <trkpt lat="39.81947363354265689849853515625" lon="-0.44627188704907894134521484375">
        <ele>265.20001220703125</ele>
        <time>2019-07-07T08:18:27.000Z</time>
      </trkpt>
      <trkpt lat="39.81986112892627716064453125" lon="-0.44685225002467632293701171875">
        <ele>264.79998779296875</ele>
        <time>2019-07-07T08:18:29.000Z</time>
      </trkpt>
      <trkpt lat="39.82023906894028186798095703125" lon="-0.44744065962731838226318359375">
        <ele>266</ele>
        <time>2019-07-07T08:18:31.000Z</time>
      </trkpt>
      <trkpt lat="39.8204212076961994171142578125" lon="-0.447742156684398651123046875">
        <ele>267.399993896484375</ele>
        <time>2019-07-07T08:18:32.000Z</time>
      </trkpt>
      <trkpt lat="39.82059739530086517333984375" lon="-0.4480504430830478668212890625">
        <ele>269</ele>
        <time>2019-07-07T08:18:33.000Z</time>
      </trkpt>
      <trkpt lat="39.82076729647815227508544921875" lon="-0.448363758623600006103515625">
        <ele>271.399993896484375</ele>
        <time>2019-07-07T08:18:34.000Z</time>
      </trkpt>
      <trkpt lat="39.82093124650418758392333984375" lon="-0.44868151657283306121826171875">
        <ele>273.399993896484375</ele>
        <time>2019-07-07T08:18:35.000Z</time>
      </trkpt>
      <trkpt lat="39.8212426342070102691650390625" lon="-0.44932642020285129547119140625">
        <ele>276</ele>
        <time>2019-07-07T08:18:37.000Z</time>
      </trkpt>
      <trkpt lat="39.821543209254741668701171875" lon="-0.44996939599514007568359375">
        <ele>277.600006103515625</ele>
        <time>2019-07-07T08:18:39.000Z</time>
      </trkpt>
      <trkpt lat="39.82184269465506076812744140625" lon="-0.45060583390295505523681640625">
        <ele>277.20001220703125</ele>
        <time>2019-07-07T08:18:41.000Z</time>
      </trkpt>
      <trkpt lat="39.82214209623634815216064453125" lon="-0.45123883523046970367431640625">
        <ele>279.600006103515625</ele>
        <time>2019-07-07T08:18:43.000Z</time>
      </trkpt>
      <trkpt lat="39.8222903721034526824951171875" lon="-0.45155667699873447418212890625">
        <ele>281.399993896484375</ele>
        <time>2019-07-07T08:18:44.000Z</time>
      </trkpt>
      <trkpt lat="39.822438061237335205078125" lon="-0.4518752731382846832275390625">
        <ele>282.79998779296875</ele>
        <time>2019-07-07T08:18:45.000Z</time>
      </trkpt>
      <trkpt lat="39.8227346129715442657470703125" lon="-0.4525092802941799163818359375">
        <ele>282.399993896484375</ele>
        <time>2019-07-07T08:18:47.000Z</time>
      </trkpt>
      <trkpt lat="39.8230350203812122344970703125" lon="-0.45313968323171138763427734375">
        <ele>283.20001220703125</ele>
        <time>2019-07-07T08:18:49.000Z</time>
      </trkpt>
      <trkpt lat="39.82333618216216564178466796875" lon="-0.45376698486506938934326171875">
        <ele>282.79998779296875</ele>
        <time>2019-07-07T08:18:51.000Z</time>
      </trkpt>
      <trkpt lat="39.8236552812159061431884765625" lon="-0.45438154600560665130615234375">
        <ele>283.79998779296875</ele>
        <time>2019-07-07T08:18:53.000Z</time>
      </trkpt>
      <trkpt lat="39.82382685877382755279541015625" lon="-0.4546815343201160430908203125">
        <ele>284</ele>
        <time>2019-07-07T08:18:54.000Z</time>
      </trkpt>
      <trkpt lat="39.8241923935711383819580078125" lon="-0.45527170412242412567138671875">
        <ele>284.20001220703125</ele>
        <time>2019-07-07T08:18:56.000Z</time>
      </trkpt>
      <trkpt lat="39.8245739378035068511962890625" lon="-0.45585173182189464569091796875">
        <ele>285.20001220703125</ele>
        <time>2019-07-07T08:18:58.000Z</time>
      </trkpt>
      <trkpt lat="39.82476512901484966278076171875" lon="-0.45613990165293216705322265625">
        <ele>287.399993896484375</ele>
        <time>2019-07-07T08:18:59.000Z</time>
      </trkpt>
      <trkpt lat="39.825141727924346923828125" lon="-0.4567129723727703094482421875">
        <ele>289.79998779296875</ele>
        <time>2019-07-07T08:19:01.000Z</time>
      </trkpt>
      <trkpt lat="39.82532956637442111968994140625" lon="-0.4569972865283489227294921875">
        <ele>291.600006103515625</ele>
        <time>2019-07-07T08:19:02.000Z</time>
      </trkpt>
      <trkpt lat="39.82551782391965389251708984375" lon="-0.457280762493610382080078125">
        <ele>293.20001220703125</ele>
        <time>2019-07-07T08:19:03.000Z</time>
      </trkpt>
      <trkpt lat="39.82589467428624629974365234375" lon="-0.4578490555286407470703125">
        <ele>293.79998779296875</ele>
        <time>2019-07-07T08:19:05.000Z</time>
      </trkpt>
      <trkpt lat="39.82626699842512607574462890625" lon="-0.458423383533954620361328125">
        <ele>292</ele>
        <time>2019-07-07T08:19:07.000Z</time>
      </trkpt>
      <trkpt lat="39.82662674970924854278564453125" lon="-0.4590072669088840484619140625">
        <ele>291.600006103515625</ele>
        <time>2019-07-07T08:19:09.000Z</time>
      </trkpt>
      <trkpt lat="39.826974682509899139404296875" lon="-0.45960657298564910888671875">
        <ele>293.600006103515625</ele>
        <time>2019-07-07T08:19:11.000Z</time>
      </trkpt>
      <trkpt lat="39.82714525423943996429443359375" lon="-0.4599074833095073699951171875">
        <ele>295.20001220703125</ele>
        <time>2019-07-07T08:19:12.000Z</time>
      </trkpt>
      <trkpt lat="39.82731205411255359649658203125" lon="-0.46021518297493457794189453125">
        <ele>296.399993896484375</ele>
        <time>2019-07-07T08:19:13.000Z</time>
      </trkpt>
      <trkpt lat="39.82764414511620998382568359375" lon="-0.46083980239927768707275390625">
        <ele>297.79998779296875</ele>
        <time>2019-07-07T08:19:15.000Z</time>
      </trkpt>
      <trkpt lat="39.82797757722437381744384765625" lon="-0.46147129498422145843505859375">
        <ele>296.79998779296875</ele>
        <time>2019-07-07T08:19:17.000Z</time>
      </trkpt>
      <trkpt lat="39.8281446285545825958251953125" lon="-0.4617843590676784515380859375">
        <ele>293.399993896484375</ele>
        <time>2019-07-07T08:19:18.000Z</time>
      </trkpt>
      <trkpt lat="39.82830899767577648162841796875" lon="-0.46209029853343963623046875">
        <ele>287.399993896484375</ele>
        <time>2019-07-07T08:19:19.000Z</time>
      </trkpt>
      <trkpt lat="39.82847143895924091339111328125" lon="-0.462392382323741912841796875">
        <ele>279.20001220703125</ele>
        <time>2019-07-07T08:19:20.000Z</time>
      </trkpt>
      <trkpt lat="39.82863371260464191436767578125" lon="-0.462694130837917327880859375">
        <ele>274.399993896484375</ele>
        <time>2019-07-07T08:19:21.000Z</time>
      </trkpt>
      <trkpt lat="39.828794896602630615234375" lon="-0.462995208799839019775390625">
        <ele>270.399993896484375</ele>
        <time>2019-07-07T08:19:22.000Z</time>
      </trkpt>
      <trkpt lat="39.82895473949611186981201171875" lon="-0.46329385600984096527099609375">
        <ele>269.20001220703125</ele>
        <time>2019-07-07T08:19:23.000Z</time>
      </trkpt>
      <trkpt lat="39.8291139118373394012451171875" lon="-0.4635916650295257568359375">
        <ele>267.399993896484375</ele>
        <time>2019-07-07T08:19:24.000Z</time>
      </trkpt>
      <trkpt lat="39.82927191071212291717529296875" lon="-0.46388871967792510986328125">
        <ele>268.600006103515625</ele>
        <time>2019-07-07T08:19:25.000Z</time>
      </trkpt>
      <trkpt lat="39.82958623208105564117431640625" lon="-0.46447771601378917694091796875">
        <ele>271.20001220703125</ele>
        <time>2019-07-07T08:19:27.000Z</time>
      </trkpt>
      <trkpt lat="39.8298977874219417572021484375" lon="-0.4650590009987354278564453125">
        <ele>271.600006103515625</ele>
        <time>2019-07-07T08:19:29.000Z</time>
      </trkpt>
      <trkpt lat="39.83020775020122528076171875" lon="-0.465633831918239593505859375">
        <ele>271.399993896484375</ele>
        <time>2019-07-07T08:19:31.000Z</time>
      </trkpt>
      <trkpt lat="39.83036088757216930389404296875" lon="-0.465920157730579376220703125">
        <ele>270</ele>
        <time>2019-07-07T08:19:32.000Z</time>
      </trkpt>
      <trkpt lat="39.83066665939986705780029296875" lon="-0.4664892889559268951416015625">
        <ele>269.399993896484375</ele>
        <time>2019-07-07T08:19:34.000Z</time>
      </trkpt>
      <trkpt lat="39.8309619538486003875732421875" lon="-0.4670659638941287994384765625">
        <ele>271</ele>
        <time>2019-07-07T08:19:36.000Z</time>
      </trkpt>
      <trkpt lat="39.83122824691236019134521484375" lon="-0.4676627553999423980712890625">
        <ele>271.600006103515625</ele>
        <time>2019-07-07T08:19:38.000Z</time>
      </trkpt>
      <trkpt lat="39.8313445039093494415283203125" lon="-0.4679698683321475982666015625">
        <ele>273.20001220703125</ele>
        <time>2019-07-07T08:19:39.000Z</time>
      </trkpt>
      <trkpt lat="39.83154751360416412353515625" lon="-0.4686008580029010772705078125">
        <ele>275.20001220703125</ele>
        <time>2019-07-07T08:19:41.000Z</time>
      </trkpt>
      <trkpt lat="39.8316361941397190093994140625" lon="-0.4689247347414493560791015625">
        <ele>276.600006103515625</ele>
        <time>2019-07-07T08:19:42.000Z</time>
      </trkpt>
      <trkpt lat="39.83177659101784229278564453125" lon="-0.46958841383457183837890625">
        <ele>278</ele>
        <time>2019-07-07T08:19:44.000Z</time>
      </trkpt>
      <trkpt lat="39.83187482692301273345947265625" lon="-0.47026843763887882232666015625">
        <ele>279.20001220703125</ele>
        <time>2019-07-07T08:19:46.000Z</time>
      </trkpt>
      <trkpt lat="39.83190801925957202911376953125" lon="-0.47060941345989704132080078125">
        <ele>281</ele>
        <time>2019-07-07T08:19:47.000Z</time>
      </trkpt>
      <trkpt lat="39.831930063664913177490234375" lon="-0.4709494672715663909912109375">
        <ele>283</ele>
        <time>2019-07-07T08:19:48.000Z</time>
      </trkpt>
      <trkpt lat="39.83194137923419475555419921875" lon="-0.4712869226932525634765625">
        <ele>285.600006103515625</ele>
        <time>2019-07-07T08:19:49.000Z</time>
      </trkpt>
      <trkpt lat="39.83194054104387760162353515625" lon="-0.4716227017343044281005859375">
        <ele>287.399993896484375</ele>
        <time>2019-07-07T08:19:50.000Z</time>
      </trkpt>
      <trkpt lat="39.83191958628594875335693359375" lon="-0.4722868837416172027587890625">
        <ele>289</ele>
        <time>2019-07-07T08:19:52.000Z</time>
      </trkpt>
      <trkpt lat="39.831891842186450958251953125" lon="-0.472933463752269744873046875">
        <ele>290.399993896484375</ele>
        <time>2019-07-07T08:19:54.000Z</time>
      </trkpt>
      <trkpt lat="39.83186275698244571685791015625" lon="-0.47357191331684589385986328125">
        <ele>292.20001220703125</ele>
        <time>2019-07-07T08:19:56.000Z</time>
      </trkpt>
      <trkpt lat="39.8318470828235149383544921875" lon="-0.4738915152847766876220703125">
        <ele>294.399993896484375</ele>
        <time>2019-07-07T08:19:57.000Z</time>
      </trkpt>
      <trkpt lat="39.83183224685490131378173828125" lon="-0.47420944087207317352294921875">
        <ele>296</ele>
        <time>2019-07-07T08:19:58.000Z</time>
      </trkpt>
      <trkpt lat="39.83181766234338283538818359375" lon="-0.47452510334551334381103515625">
        <ele>297</ele>
        <time>2019-07-07T08:19:59.000Z</time>
      </trkpt>
      <trkpt lat="39.8317847214639186859130859375" lon="-0.475171096622943878173828125">
        <ele>298.79998779296875</ele>
        <time>2019-07-07T08:20:01.000Z</time>
      </trkpt>
      <trkpt lat="39.83176485635340213775634765625" lon="-0.47551014460623264312744140625">
        <ele>300</ele>
        <time>2019-07-07T08:20:02.000Z</time>
      </trkpt>
      <trkpt lat="39.83172914944589138031005859375" lon="-0.476217828691005706787109375">
        <ele>302.399993896484375</ele>
        <time>2019-07-07T08:20:04.000Z</time>
      </trkpt>
      <trkpt lat="39.83170618303120136260986328125" lon="-0.47694680280983448028564453125">
        <ele>305</ele>
        <time>2019-07-07T08:20:06.000Z</time>
      </trkpt>
      <trkpt lat="39.83170098625123500823974609375" lon="-0.477314181625843048095703125">
        <ele>306.79998779296875</ele>
        <time>2019-07-07T08:20:07.000Z</time>
      </trkpt>
      <trkpt lat="39.83170115388929843902587890625" lon="-0.478051118552684783935546875">
        <ele>306</ele>
        <time>2019-07-07T08:20:09.000Z</time>
      </trkpt>
      <trkpt lat="39.8317133076488971710205078125" lon="-0.4787892289459705352783203125">
        <ele>306.399993896484375</ele>
        <time>2019-07-07T08:20:11.000Z</time>
      </trkpt>
      <trkpt lat="39.8317290656268596649169921875" lon="-0.47915987670421600341796875">
        <ele>304.399993896484375</ele>
        <time>2019-07-07T08:20:12.000Z</time>
      </trkpt>
      <trkpt lat="39.83175194822251796722412109375" lon="-0.4795328713953495025634765625">
        <ele>300.20001220703125</ele>
        <time>2019-07-07T08:20:13.000Z</time>
      </trkpt>
      <trkpt lat="39.83178245835006237030029296875" lon="-0.4799067042768001556396484375">
        <ele>295.20001220703125</ele>
        <time>2019-07-07T08:20:14.000Z</time>
      </trkpt>
      <trkpt lat="39.83186862431466579437255859375" lon="-0.4806614108383655548095703125">
        <ele>294.20001220703125</ele>
        <time>2019-07-07T08:20:16.000Z</time>
      </trkpt>
      <trkpt lat="39.8319905810058116912841796875" lon="-0.48142257146537303924560546875">
        <ele>293.79998779296875</ele>
        <time>2019-07-07T08:20:18.000Z</time>
      </trkpt>
      <trkpt lat="39.83215729705989360809326171875" lon="-0.48217878676950931549072265625">
        <ele>293.79998779296875</ele>
        <time>2019-07-07T08:20:20.000Z</time>
      </trkpt>
      <trkpt lat="39.832260645925998687744140625" lon="-0.48255412839353084564208984375">
        <ele>296</ele>
        <time>2019-07-07T08:20:21.000Z</time>
      </trkpt>
      <trkpt lat="39.83237019740045070648193359375" lon="-0.48292879946529865264892578125">
        <ele>297.600006103515625</ele>
        <time>2019-07-07T08:20:22.000Z</time>
      </trkpt>
      <trkpt lat="39.8326068185269832611083984375" lon="-0.48366841860115528106689453125">
        <ele>295.600006103515625</ele>
        <time>2019-07-07T08:20:24.000Z</time>
      </trkpt>
      <trkpt lat="39.83287143521010875701904296875" lon="-0.484365038573741912841796875">
        <ele>295.20001220703125</ele>
        <time>2019-07-07T08:20:26.000Z</time>
      </trkpt>
      <trkpt lat="39.833156503736972808837890625" lon="-0.48501874320209026336669921875">
        <ele>294.20001220703125</ele>
        <time>2019-07-07T08:20:28.000Z</time>
      </trkpt>
      <trkpt lat="39.8333082161843776702880859375" lon="-0.485332310199737548828125">
        <ele>292.600006103515625</ele>
        <time>2019-07-07T08:20:29.000Z</time>
      </trkpt>
      <trkpt lat="39.83346621505916118621826171875" lon="-0.48563799820840358734130859375">
        <ele>291.399993896484375</ele>
        <time>2019-07-07T08:20:30.000Z</time>
      </trkpt>
      <trkpt lat="39.83379947952926158905029296875" lon="-0.4862290062010288238525390625">
        <ele>289.79998779296875</ele>
        <time>2019-07-07T08:20:32.000Z</time>
      </trkpt>
      <trkpt lat="39.83415990136563777923583984375" lon="-0.4867915995419025421142578125">
        <ele>289.600006103515625</ele>
        <time>2019-07-07T08:20:34.000Z</time>
      </trkpt>
      <trkpt lat="39.83454764820635318756103515625" lon="-0.4873223416507244110107421875">
        <ele>293.79998779296875</ele>
        <time>2019-07-07T08:20:36.000Z</time>
      </trkpt>
      <trkpt lat="39.83474948443472385406494140625" lon="-0.4875759780406951904296875">
        <ele>297.399993896484375</ele>
        <time>2019-07-07T08:20:37.000Z</time>
      </trkpt>
      <trkpt lat="39.834955595433712005615234375" lon="-0.48781997524201869964599609375">
        <ele>300.20001220703125</ele>
        <time>2019-07-07T08:20:38.000Z</time>
      </trkpt>
      <trkpt lat="39.83516757376492023468017578125" lon="-0.4880555905401706695556640625">
        <ele>301.600006103515625</ele>
        <time>2019-07-07T08:20:39.000Z</time>
      </trkpt>
      <trkpt lat="39.83560108579695224761962890625" lon="-0.48851047642529010772705078125">
        <ele>302</ele>
        <time>2019-07-07T08:20:41.000Z</time>
      </trkpt>
      <trkpt lat="39.8360444046556949615478515625" lon="-0.48894231207668781280517578125">
        <ele>300.399993896484375</ele>
        <time>2019-07-07T08:20:43.000Z</time>
      </trkpt>
      <trkpt lat="39.83650180511176586151123046875" lon="-0.48935453407466411590576171875">
        <ele>298.399993896484375</ele>
        <time>2019-07-07T08:20:45.000Z</time>
      </trkpt>
      <trkpt lat="39.836972616612911224365234375" lon="-0.48975099809467792510986328125">
        <ele>297.600006103515625</ele>
        <time>2019-07-07T08:20:47.000Z</time>
      </trkpt>
      <trkpt lat="39.837454073131084442138671875" lon="-0.4901366494596004486083984375">
        <ele>297.399993896484375</ele>
        <time>2019-07-07T08:20:49.000Z</time>
      </trkpt>
      <trkpt lat="39.83794324100017547607421875" lon="-0.49051241017878055572509765625">
        <ele>296.79998779296875</ele>
        <time>2019-07-07T08:20:51.000Z</time>
      </trkpt>
      <trkpt lat="39.83844087459146976470947265625" lon="-0.4908724129199981689453125">
        <ele>297.79998779296875</ele>
        <time>2019-07-07T08:20:53.000Z</time>
      </trkpt>
      <trkpt lat="39.83868663199245929718017578125" lon="-0.49105488695204257965087890625">
        <ele>299.79998779296875</ele>
        <time>2019-07-07T08:20:54.000Z</time>
      </trkpt>
      <trkpt lat="39.83893289230763912200927734375" lon="-0.4912417195737361907958984375">
        <ele>303.399993896484375</ele>
        <time>2019-07-07T08:20:55.000Z</time>
      </trkpt>
      <trkpt lat="39.83917781151831150054931640625" lon="-0.49142804928123950958251953125">
        <ele>305.399993896484375</ele>
        <time>2019-07-07T08:20:56.000Z</time>
      </trkpt>
      <trkpt lat="39.83942189253866672515869140625" lon="-0.49161446280777454376220703125">
        <ele>307.399993896484375</ele>
        <time>2019-07-07T08:20:57.000Z</time>
      </trkpt>
      <trkpt lat="39.83966731466352939605712890625" lon="-0.49179836176335811614990234375">
        <ele>310.600006103515625</ele>
        <time>2019-07-07T08:20:58.000Z</time>
      </trkpt>
      <trkpt lat="39.839914329349994659423828125" lon="-0.4919806681573390960693359375">
        <ele>312</ele>
        <time>2019-07-07T08:20:59.000Z</time>
      </trkpt>
      <trkpt lat="39.84040441922843456268310546875" lon="-0.4923454485833644866943359375">
        <ele>312.399993896484375</ele>
        <time>2019-07-07T08:21:01.000Z</time>
      </trkpt>
      <trkpt lat="39.84089232981204986572265625" lon="-0.49271433614194393157958984375">
        <ele>310.79998779296875</ele>
        <time>2019-07-07T08:21:03.000Z</time>
      </trkpt>
      <trkpt lat="39.84113641083240509033203125" lon="-0.49289974384009838104248046875">
        <ele>308</ele>
        <time>2019-07-07T08:21:04.000Z</time>
      </trkpt>
      <trkpt lat="39.841379821300506591796875" lon="-0.4930840618908405303955078125">
        <ele>306.600006103515625</ele>
        <time>2019-07-07T08:21:05.000Z</time>
      </trkpt>
      <trkpt lat="39.841623567044734954833984375" lon="-0.4932681284844875335693359375">
        <ele>307.600006103515625</ele>
        <time>2019-07-07T08:21:06.000Z</time>
      </trkpt>
      <trkpt lat="39.842110387980937957763671875" lon="-0.493634082376956939697265625">
        <ele>307.399993896484375</ele>
        <time>2019-07-07T08:21:08.000Z</time>
      </trkpt>
      <trkpt lat="39.8423532955348491668701171875" lon="-0.49381672404706478118896484375">
        <ele>308.79998779296875</ele>
        <time>2019-07-07T08:21:09.000Z</time>
      </trkpt>
      <trkpt lat="39.84259561635553836822509765625" lon="-0.49399919807910919189453125">
        <ele>311.600006103515625</ele>
        <time>2019-07-07T08:21:10.000Z</time>
      </trkpt>
      <trkpt lat="39.8428374342620372772216796875" lon="-0.4941822588443756103515625">
        <ele>313</ele>
        <time>2019-07-07T08:21:11.000Z</time>
      </trkpt>
      <trkpt lat="39.843321740627288818359375" lon="-0.49454963766038417816162109375">
        <ele>313.399993896484375</ele>
        <time>2019-07-07T08:21:13.000Z</time>
      </trkpt>
      <trkpt lat="39.84356422908604145050048828125" lon="-0.49473521299660205841064453125">
        <ele>314.20001220703125</ele>
        <time>2019-07-07T08:21:14.000Z</time>
      </trkpt>
      <trkpt lat="39.8440588451921939849853515625" lon="-0.49511323682963848114013671875">
        <ele>316.20001220703125</ele>
        <time>2019-07-07T08:21:16.000Z</time>
      </trkpt>
      <trkpt lat="39.844314157962799072265625" lon="-0.49530652351677417755126953125">
        <ele>317.79998779296875</ele>
        <time>2019-07-07T08:21:17.000Z</time>
      </trkpt>
      <trkpt lat="39.8445704765617847442626953125" lon="-0.49550064839422702789306640625">
        <ele>320.20001220703125</ele>
        <time>2019-07-07T08:21:18.000Z</time>
      </trkpt>
      <trkpt lat="39.844824112951755523681640625" lon="-0.49569326452910900115966796875">
        <ele>322</ele>
        <time>2019-07-07T08:21:19.000Z</time>
      </trkpt>
      <trkpt lat="39.84532392583787441253662109375" lon="-0.496071875095367431640625">
        <ele>324.600006103515625</ele>
        <time>2019-07-07T08:21:21.000Z</time>
      </trkpt>
      <trkpt lat="39.84557018615305423736572265625" lon="-0.4962594620883464813232421875">
        <ele>326.600006103515625</ele>
        <time>2019-07-07T08:21:22.000Z</time>
      </trkpt>
      <trkpt lat="39.84581477008759975433349609375" lon="-0.496445707976818084716796875">
        <ele>328.600006103515625</ele>
        <time>2019-07-07T08:21:23.000Z</time>
      </trkpt>
      <trkpt lat="39.84629832208156585693359375" lon="-0.4968156851828098297119140625">
        <ele>327</ele>
        <time>2019-07-07T08:21:25.000Z</time>
      </trkpt>
      <trkpt lat="39.8465395532548427581787109375" lon="-0.49699698574841022491455078125">
        <ele>322.20001220703125</ele>
        <time>2019-07-07T08:21:26.000Z</time>
      </trkpt>
      <trkpt lat="39.84677986241877079010009765625" lon="-0.4971771128475666046142578125">
        <ele>320.399993896484375</ele>
        <time>2019-07-07T08:21:27.000Z</time>
      </trkpt>
      <trkpt lat="39.84701824374496936798095703125" lon="-0.49735707230865955352783203125">
        <ele>318</ele>
        <time>2019-07-07T08:21:28.000Z</time>
      </trkpt>
      <trkpt lat="39.8472553677856922149658203125" lon="-0.497537367045879364013671875">
        <ele>314.600006103515625</ele>
        <time>2019-07-07T08:21:29.000Z</time>
      </trkpt>
      <trkpt lat="39.8474920727312564849853515625" lon="-0.49771799705922603607177734375">
        <ele>313</ele>
        <time>2019-07-07T08:21:30.000Z</time>
      </trkpt>
      <trkpt lat="39.8477281071245670318603515625" lon="-0.49790139310061931610107421875">
        <ele>314.20001220703125</ele>
        <time>2019-07-07T08:21:31.000Z</time>
      </trkpt>
      <trkpt lat="39.84796707518398761749267578125" lon="-0.498089902102947235107421875">
        <ele>317.79998779296875</ele>
        <time>2019-07-07T08:21:32.000Z</time>
      </trkpt>
      <trkpt lat="39.8482100665569305419921875" lon="-0.49828260205686092376708984375">
        <ele>324</ele>
        <time>2019-07-07T08:21:33.000Z</time>
      </trkpt>
      <trkpt lat="39.8484576679766178131103515625" lon="-0.498477481305599212646484375">
        <ele>330.399993896484375</ele>
        <time>2019-07-07T08:21:34.000Z</time>
      </trkpt>
      <trkpt lat="39.8487084545195102691650390625" lon="-0.498673617839813232421875">
        <ele>334.20001220703125</ele>
        <time>2019-07-07T08:21:35.000Z</time>
      </trkpt>
      <trkpt lat="39.848960749804973602294921875" lon="-0.49886950291693210601806640625">
        <ele>337</ele>
        <time>2019-07-07T08:21:36.000Z</time>
      </trkpt>
      <trkpt lat="39.84921312890946865081787109375" lon="-0.499065555632114410400390625">
        <ele>338.399993896484375</ele>
        <time>2019-07-07T08:21:37.000Z</time>
      </trkpt>
      <trkpt lat="39.84971755184233188629150390625" lon="-0.49945254810154438018798828125">
        <ele>339.600006103515625</ele>
        <time>2019-07-07T08:21:39.000Z</time>
      </trkpt>
      <trkpt lat="39.84997135587036609649658203125" lon="-0.49964264966547489166259765625">
        <ele>340.79998779296875</ele>
        <time>2019-07-07T08:21:40.000Z</time>
      </trkpt>
      <trkpt lat="39.8502270877361297607421875" lon="-0.49983157776296138763427734375">
        <ele>339.399993896484375</ele>
        <time>2019-07-07T08:21:41.000Z</time>
      </trkpt>
      <trkpt lat="39.85073813237249851226806640625" lon="-0.500221587717533111572265625">
        <ele>339.79998779296875</ele>
        <time>2019-07-07T08:21:43.000Z</time>
      </trkpt>
      <trkpt lat="39.851236604154109954833984375" lon="-0.5006448738276958465576171875">
        <ele>340.20001220703125</ele>
        <time>2019-07-07T08:21:45.000Z</time>
      </trkpt>
      <trkpt lat="39.85170900821685791015625" lon="-0.5010998435318470001220703125">
        <ele>338</ele>
        <time>2019-07-07T08:21:47.000Z</time>
      </trkpt>
      <trkpt lat="39.85215635038912296295166015625" lon="-0.5015709064900875091552734375">
        <ele>337.20001220703125</ele>
        <time>2019-07-07T08:21:49.000Z</time>
      </trkpt>
      <trkpt lat="39.85236816108226776123046875" lon="-0.5018131434917449951171875">
        <ele>336.79998779296875</ele>
        <time>2019-07-07T08:21:50.000Z</time>
      </trkpt>
      <trkpt lat="39.852770827710628509521484375" lon="-0.5023185722529888153076171875">
        <ele>337.600006103515625</ele>
        <time>2019-07-07T08:21:52.000Z</time>
      </trkpt>
      <trkpt lat="39.853158406913280487060546875" lon="-0.502846129238605499267578125">
        <ele>339.20001220703125</ele>
        <time>2019-07-07T08:21:54.000Z</time>
      </trkpt>
      <trkpt lat="39.8533464968204498291015625" lon="-0.50311795435845851898193359375">
        <ele>341.20001220703125</ele>
        <time>2019-07-07T08:21:55.000Z</time>
      </trkpt>
      <trkpt lat="39.85352913849055767059326171875" lon="-0.5033956468105316162109375">
        <ele>344.79998779296875</ele>
        <time>2019-07-07T08:21:56.000Z</time>
      </trkpt>
      <trkpt lat="39.8538750596344470977783203125" lon="-0.5039696395397186279296875">
        <ele>348</ele>
        <time>2019-07-07T08:21:58.000Z</time>
      </trkpt>
      <trkpt lat="39.85403976403176784515380859375" lon="-0.50426325760781764984130859375">
        <ele>349</ele>
        <time>2019-07-07T08:21:59.000Z</time>
      </trkpt>
      <trkpt lat="39.8541989363729953765869140625" lon="-0.50455964170396327972412109375">
        <ele>352</ele>
        <time>2019-07-07T08:22:00.000Z</time>
      </trkpt>
      <trkpt lat="39.85435324721038341522216796875" lon="-0.5048609711229801177978515625">
        <ele>355.20001220703125</ele>
        <time>2019-07-07T08:22:01.000Z</time>
      </trkpt>
      <trkpt lat="39.85450194217264652252197265625" lon="-0.5051680840551853179931640625">
        <ele>356.399993896484375</ele>
        <time>2019-07-07T08:22:02.000Z</time>
      </trkpt>
      <trkpt lat="39.8546455241739749908447265625" lon="-0.50547947175800800323486328125">
        <ele>358</ele>
        <time>2019-07-07T08:22:03.000Z</time>
      </trkpt>
      <trkpt lat="39.85478826798498630523681640625" lon="-0.505793876945972442626953125">
        <ele>359.600006103515625</ele>
        <time>2019-07-07T08:22:04.000Z</time>
      </trkpt>
      <trkpt lat="39.85493126325309276580810546875" lon="-0.50610895268619060516357421875">
        <ele>361.399993896484375</ele>
        <time>2019-07-07T08:22:05.000Z</time>
      </trkpt>
      <trkpt lat="39.85521373338997364044189453125" lon="-0.5067457258701324462890625">
        <ele>363.600006103515625</ele>
        <time>2019-07-07T08:22:07.000Z</time>
      </trkpt>
      <trkpt lat="39.85549771226942539215087890625" lon="-0.50738752819597721099853515625">
        <ele>366.399993896484375</ele>
        <time>2019-07-07T08:22:09.000Z</time>
      </trkpt>
      <trkpt lat="39.85580147244036197662353515625" lon="-0.50802354700863361358642578125">
        <ele>368.20001220703125</ele>
        <time>2019-07-07T08:22:11.000Z</time>
      </trkpt>
      <trkpt lat="39.85613255761563777923583984375" lon="-0.5086425505578517913818359375">
        <ele>369.399993896484375</ele>
        <time>2019-07-07T08:22:13.000Z</time>
      </trkpt>
      <trkpt lat="39.8565022833645343780517578125" lon="-0.50922651775181293487548828125">
        <ele>371.600006103515625</ele>
        <time>2019-07-07T08:22:15.000Z</time>
      </trkpt>
      <trkpt lat="39.85670252703130245208740234375" lon="-0.5095003545284271240234375">
        <ele>374.20001220703125</ele>
        <time>2019-07-07T08:22:16.000Z</time>
      </trkpt>
      <trkpt lat="39.8569126613438129425048828125" lon="-0.50975960679352283477783203125">
        <ele>376.600006103515625</ele>
        <time>2019-07-07T08:22:17.000Z</time>
      </trkpt>
      <trkpt lat="39.85713318921625614166259765625" lon="-0.51000528037548065185546875">
        <ele>377.600006103515625</ele>
        <time>2019-07-07T08:22:18.000Z</time>
      </trkpt>
      <trkpt lat="39.85736352391541004180908203125" lon="-0.51023670472204685211181640625">
        <ele>378.79998779296875</ele>
        <time>2019-07-07T08:22:19.000Z</time>
      </trkpt>
      <trkpt lat="39.85784615390002727508544921875" lon="-0.51065227948129177093505859375">
        <ele>379.600006103515625</ele>
        <time>2019-07-07T08:22:21.000Z</time>
      </trkpt>
      <trkpt lat="39.85809777863323688507080078125" lon="-0.510832406580448150634765625">
        <ele>380.20001220703125</ele>
        <time>2019-07-07T08:22:22.000Z</time>
      </trkpt>
      <trkpt lat="39.85835460014641284942626953125" lon="-0.5109951831400394439697265625">
        <ele>381.600006103515625</ele>
        <time>2019-07-07T08:22:23.000Z</time>
      </trkpt>
      <trkpt lat="39.85861368477344512939453125" lon="-0.5111427046358585357666015625">
        <ele>383.79998779296875</ele>
        <time>2019-07-07T08:22:24.000Z</time>
      </trkpt>
      <trkpt lat="39.85887561924755573272705078125" lon="-0.51127337850630283355712890625">
        <ele>386.600006103515625</ele>
        <time>2019-07-07T08:22:25.000Z</time>
      </trkpt>
      <trkpt lat="39.85913931392133235931396484375" lon="-0.51139290444552898406982421875">
        <ele>388</ele>
        <time>2019-07-07T08:22:26.000Z</time>
      </trkpt>
      <trkpt lat="39.85940493643283843994140625" lon="-0.5114987678825855255126953125">
        <ele>389.79998779296875</ele>
        <time>2019-07-07T08:22:27.000Z</time>
      </trkpt>
      <trkpt lat="39.8596729896962642669677734375" lon="-0.51159909926354885101318359375">
        <ele>391.399993896484375</ele>
        <time>2019-07-07T08:22:28.000Z</time>
      </trkpt>
      <trkpt lat="39.86020700074732303619384765625" lon="-0.5117904581129550933837890625">
        <ele>393.20001220703125</ele>
        <time>2019-07-07T08:22:30.000Z</time>
      </trkpt>
      <trkpt lat="39.8607448674738407135009765625" lon="-0.51197192631661891937255859375">
        <ele>392.600006103515625</ele>
        <time>2019-07-07T08:22:32.000Z</time>
      </trkpt>
      <trkpt lat="39.86127041280269622802734375" lon="-0.51218432374298572540283203125">
        <ele>392.79998779296875</ele>
        <time>2019-07-07T08:22:34.000Z</time>
      </trkpt>
      <trkpt lat="39.86178833059966564178466796875" lon="-0.51244265399873256683349609375">
        <ele>397.20001220703125</ele>
        <time>2019-07-07T08:22:36.000Z</time>
      </trkpt>
      <trkpt lat="39.86204481683671474456787109375" lon="-0.51259319297969341278076171875">
        <ele>400.399993896484375</ele>
        <time>2019-07-07T08:22:37.000Z</time>
      </trkpt>
      <trkpt lat="39.8622992075979709625244140625" lon="-0.5127570591866970062255859375">
        <ele>402.399993896484375</ele>
        <time>2019-07-07T08:22:38.000Z</time>
      </trkpt>
      <trkpt lat="39.86254890449345111846923828125" lon="-0.51293349824845790863037109375">
        <ele>404</ele>
        <time>2019-07-07T08:22:39.000Z</time>
      </trkpt>
      <trkpt lat="39.86303186975419521331787109375" lon="-0.5133216641843318939208984375">
        <ele>405.399993896484375</ele>
        <time>2019-07-07T08:22:41.000Z</time>
      </trkpt>
      <trkpt lat="39.86348784528672695159912109375" lon="-0.51374989561736583709716796875">
        <ele>405.600006103515625</ele>
        <time>2019-07-07T08:22:43.000Z</time>
      </trkpt>
      <trkpt lat="39.86393208615481853485107421875" lon="-0.51420629024505615234375">
        <ele>404.20001220703125</ele>
        <time>2019-07-07T08:22:45.000Z</time>
      </trkpt>
      <trkpt lat="39.86415219493210315704345703125" lon="-0.51444073207676410675048828125">
        <ele>402.399993896484375</ele>
        <time>2019-07-07T08:22:46.000Z</time>
      </trkpt>
      <trkpt lat="39.8645889759063720703125" lon="-0.5149148963391780853271484375">
        <ele>401.399993896484375</ele>
        <time>2019-07-07T08:22:48.000Z</time>
      </trkpt>
      <trkpt lat="39.86503279767930507659912109375" lon="-0.51538176834583282470703125">
        <ele>403.399993896484375</ele>
        <time>2019-07-07T08:22:50.000Z</time>
      </trkpt>
      <trkpt lat="39.86526288092136383056640625" lon="-0.51559994928538799285888671875">
        <ele>406.79998779296875</ele>
        <time>2019-07-07T08:22:51.000Z</time>
      </trkpt>
      <trkpt lat="39.8654997535049915313720703125" lon="-0.5158033780753612518310546875">
        <ele>409.20001220703125</ele>
        <time>2019-07-07T08:22:52.000Z</time>
      </trkpt>
      <trkpt lat="39.86574308015406131744384765625" lon="-0.5159913003444671630859375">
        <ele>410.600006103515625</ele>
        <time>2019-07-07T08:22:53.000Z</time>
      </trkpt>
      <trkpt lat="39.86599135212600231170654296875" lon="-0.5161614529788494110107421875">
        <ele>412</ele>
        <time>2019-07-07T08:22:54.000Z</time>
      </trkpt>
      <trkpt lat="39.86650407314300537109375" lon="-0.51645792089402675628662109375">
        <ele>414.20001220703125</ele>
        <time>2019-07-07T08:22:56.000Z</time>
      </trkpt>
      <trkpt lat="39.86703154630959033966064453125" lon="-0.5167020857334136962890625">
        <ele>417.399993896484375</ele>
        <time>2019-07-07T08:22:58.000Z</time>
      </trkpt>
      <trkpt lat="39.86729591153562068939208984375" lon="-0.51680660806596279144287109375">
        <ele>420.20001220703125</ele>
        <time>2019-07-07T08:22:59.000Z</time>
      </trkpt>
      <trkpt lat="39.867556504905223846435546875" lon="-0.5169054307043552398681640625">
        <ele>423.20001220703125</ele>
        <time>2019-07-07T08:23:00.000Z</time>
      </trkpt>
      <trkpt lat="39.8678148351609706878662109375" lon="-0.5170019902288913726806640625">
        <ele>424.79998779296875</ele>
        <time>2019-07-07T08:23:01.000Z</time>
      </trkpt>
      <trkpt lat="39.86807056702673435211181640625" lon="-0.517098046839237213134765625">
        <ele>426.600006103515625</ele>
        <time>2019-07-07T08:23:02.000Z</time>
      </trkpt>
      <trkpt lat="39.86832504160702228546142578125" lon="-0.51719418726861476898193359375">
        <ele>428.399993896484375</ele>
        <time>2019-07-07T08:23:03.000Z</time>
      </trkpt>
      <trkpt lat="39.86883156001567840576171875" lon="-0.51738697104156017303466796875">
        <ele>430.600006103515625</ele>
        <time>2019-07-07T08:23:05.000Z</time>
      </trkpt>
      <trkpt lat="39.86933321692049503326416015625" lon="-0.51758520305156707763671875">
        <ele>431.399993896484375</ele>
        <time>2019-07-07T08:23:07.000Z</time>
      </trkpt>
      <trkpt lat="39.86958618275821208953857421875" lon="-0.517690144479274749755859375">
        <ele>433.20001220703125</ele>
        <time>2019-07-07T08:23:08.000Z</time>
      </trkpt>
      <trkpt lat="39.8698412440717220306396484375" lon="-0.51779785193502902984619140625">
        <ele>436</ele>
        <time>2019-07-07T08:23:09.000Z</time>
      </trkpt>
      <trkpt lat="39.87009697593748569488525390625" lon="-0.51791251637041568756103515625">
        <ele>438.20001220703125</ele>
        <time>2019-07-07T08:23:10.000Z</time>
      </trkpt>
      <trkpt lat="39.87035362981259822845458984375" lon="-0.51803288049995899200439453125">
        <ele>441.399993896484375</ele>
        <time>2019-07-07T08:23:11.000Z</time>
      </trkpt>
      <trkpt lat="39.87061145715415477752685546875" lon="-0.51815927959978580474853515625">
        <ele>443.79998779296875</ele>
        <time>2019-07-07T08:23:12.000Z</time>
      </trkpt>
      <trkpt lat="39.87086995504796504974365234375" lon="-0.518291294574737548828125">
        <ele>445.399993896484375</ele>
        <time>2019-07-07T08:23:13.000Z</time>
      </trkpt>
      <trkpt lat="39.87112962640821933746337890625" lon="-0.51842850632965564727783203125">
        <ele>446.79998779296875</ele>
        <time>2019-07-07T08:23:14.000Z</time>
      </trkpt>
      <trkpt lat="39.8713888786733150482177734375" lon="-0.5185744352638721466064453125">
        <ele>448.20001220703125</ele>
        <time>2019-07-07T08:23:15.000Z</time>
      </trkpt>
      <trkpt lat="39.87164787948131561279296875" lon="-0.518728159368038177490234375">
        <ele>450.20001220703125</ele>
        <time>2019-07-07T08:23:16.000Z</time>
      </trkpt>
      <trkpt lat="39.8719068802893161773681640625" lon="-0.51888833753764629364013671875">
        <ele>452.20001220703125</ele>
        <time>2019-07-07T08:23:17.000Z</time>
      </trkpt>
      <trkpt lat="39.872164539992809295654296875" lon="-0.519058406352996826171875">
        <ele>454</ele>
        <time>2019-07-07T08:23:18.000Z</time>
      </trkpt>
      <trkpt lat="39.8724201880395412445068359375" lon="-0.51923744380474090576171875">
        <ele>455.79998779296875</ele>
        <time>2019-07-07T08:23:19.000Z</time>
      </trkpt>
      <trkpt lat="39.8726739920675754547119140625" lon="-0.51942528225481510162353515625">
        <ele>457.20001220703125</ele>
        <time>2019-07-07T08:23:20.000Z</time>
      </trkpt>
      <trkpt lat="39.87292570061981678009033203125" lon="-0.51962099969387054443359375">
        <ele>458.79998779296875</ele>
        <time>2019-07-07T08:23:21.000Z</time>
      </trkpt>
      <trkpt lat="39.87317531369626522064208984375" lon="-0.51982308737933635711669921875">
        <ele>460.399993896484375</ele>
        <time>2019-07-07T08:23:22.000Z</time>
      </trkpt>
      <trkpt lat="39.87342190928757190704345703125" lon="-0.5200333893299102783203125">
        <ele>461.600006103515625</ele>
        <time>2019-07-07T08:23:23.000Z</time>
      </trkpt>
      <trkpt lat="39.8739031143486499786376953125" lon="-0.520474277436733245849609375">
        <ele>463.79998779296875</ele>
        <time>2019-07-07T08:23:25.000Z</time>
      </trkpt>
      <trkpt lat="39.8741376399993896484375" lon="-0.52070369012653827667236328125">
        <ele>465.20001220703125</ele>
        <time>2019-07-07T08:23:26.000Z</time>
      </trkpt>
      <trkpt lat="39.8743668012320995330810546875" lon="-0.5209372937679290771484375">
        <ele>466.79998779296875</ele>
        <time>2019-07-07T08:23:27.000Z</time>
      </trkpt>
      <trkpt lat="39.8745904304087162017822265625" lon="-0.52117408253252506256103515625">
        <ele>468</ele>
        <time>2019-07-07T08:23:28.000Z</time>
      </trkpt>
      <trkpt lat="39.87480877898633480072021484375" lon="-0.52141539752483367919921875">
        <ele>469.20001220703125</ele>
        <time>2019-07-07T08:23:29.000Z</time>
      </trkpt>
      <trkpt lat="39.8750222660601139068603515625" lon="-0.5216606520116329193115234375">
        <ele>470.399993896484375</ele>
        <time>2019-07-07T08:23:30.000Z</time>
      </trkpt>
      <trkpt lat="39.87543557770550251007080078125" lon="-0.52216867916285991668701171875">
        <ele>471.79998779296875</ele>
        <time>2019-07-07T08:23:32.000Z</time>
      </trkpt>
      <trkpt lat="39.87583019770681858062744140625" lon="-0.52270042710006237030029296875">
        <ele>474</ele>
        <time>2019-07-07T08:23:34.000Z</time>
      </trkpt>
      <trkpt lat="39.87620889209210872650146484375" lon="-0.5232609249651432037353515625">
        <ele>475.600006103515625</ele>
        <time>2019-07-07T08:23:36.000Z</time>
      </trkpt>
      <trkpt lat="39.876572750508785247802734375" lon="-0.523846484720706939697265625">
        <ele>476.600006103515625</ele>
        <time>2019-07-07T08:23:38.000Z</time>
      </trkpt>
      <trkpt lat="39.87692202441394329071044921875" lon="-0.52445744164288043975830078125">
        <ele>477.399993896484375</ele>
        <time>2019-07-07T08:23:40.000Z</time>
      </trkpt>
      <trkpt lat="39.877253361046314239501953125" lon="-0.52509346045553684234619140625">
        <ele>477</ele>
        <time>2019-07-07T08:23:42.000Z</time>
      </trkpt>
      <trkpt lat="39.87757145427167415618896484375" lon="-0.5257496796548366546630859375">
        <ele>476</ele>
        <time>2019-07-07T08:23:44.000Z</time>
      </trkpt>
      <trkpt lat="39.87772601656615734100341796875" lon="-0.52608369849622249603271484375">
        <ele>475.399993896484375</ele>
        <time>2019-07-07T08:23:45.000Z</time>
      </trkpt>
      <trkpt lat="39.87787663936614990234375" lon="-0.5264224112033843994140625">
        <ele>473.399993896484375</ele>
        <time>2019-07-07T08:23:46.000Z</time>
      </trkpt>
      <trkpt lat="39.87802441231906414031982421875" lon="-0.5267662368714809417724609375">
        <ele>470.79998779296875</ele>
        <time>2019-07-07T08:23:47.000Z</time>
      </trkpt>
      <trkpt lat="39.8781703412532806396484375" lon="-0.52711433731019496917724609375">
        <ele>468.399993896484375</ele>
        <time>2019-07-07T08:23:48.000Z</time>
      </trkpt>
      <trkpt lat="39.87831476144492626190185546875" lon="-0.52746788598597049713134765625">
        <ele>466.399993896484375</ele>
        <time>2019-07-07T08:23:49.000Z</time>
      </trkpt>
      <trkpt lat="39.87845800817012786865234375" lon="-0.5278252065181732177734375">
        <ele>463.79998779296875</ele>
        <time>2019-07-07T08:23:50.000Z</time>
      </trkpt>
      <trkpt lat="39.8785976506769657135009765625" lon="-0.52818755619227886199951171875">
        <ele>460.399993896484375</ele>
        <time>2019-07-07T08:23:51.000Z</time>
      </trkpt>
      <trkpt lat="39.878733940422534942626953125" lon="-0.5285547673702239990234375">
        <ele>457.399993896484375</ele>
        <time>2019-07-07T08:23:52.000Z</time>
      </trkpt>
      <trkpt lat="39.878868050873279571533203125" lon="-0.52892424166202545166015625">
        <ele>455</ele>
        <time>2019-07-07T08:23:53.000Z</time>
      </trkpt>
      <trkpt lat="39.8790019936859607696533203125" lon="-0.52929245866835117340087890625">
        <ele>452</ele>
        <time>2019-07-07T08:23:54.000Z</time>
      </trkpt>
      <trkpt lat="39.8791354335844516754150390625" lon="-0.52965740673243999481201171875">
        <ele>450.399993896484375</ele>
        <time>2019-07-07T08:23:55.000Z</time>
      </trkpt>
      <trkpt lat="39.87926937639713287353515625" lon="-0.53002000786364078521728515625">
        <ele>451.399993896484375</ele>
        <time>2019-07-07T08:23:56.000Z</time>
      </trkpt>
      <trkpt lat="39.87954103387892246246337890625" lon="-0.5307459644973278045654296875">
        <ele>452.20001220703125</ele>
        <time>2019-07-07T08:23:58.000Z</time>
      </trkpt>
      <trkpt lat="39.879812188446521759033203125" lon="-0.5314782075583934783935546875">
        <ele>452.600006103515625</ele>
        <time>2019-07-07T08:24:00.000Z</time>
      </trkpt>
      <trkpt lat="39.8800827562808990478515625" lon="-0.5322191677987575531005859375">
        <ele>452</ele>
        <time>2019-07-07T08:24:02.000Z</time>
      </trkpt>
      <trkpt lat="39.88021845929324626922607421875" lon="-0.53258755244314670562744140625">
        <ele>451</ele>
        <time>2019-07-07T08:24:03.000Z</time>
      </trkpt>
      <trkpt lat="39.8803544975817203521728515625" lon="-0.532953254878520965576171875">
        <ele>449</ele>
        <time>2019-07-07T08:24:04.000Z</time>
      </trkpt>
      <trkpt lat="39.88062548451125621795654296875" lon="-0.53367367945611476898193359375">
        <ele>446.600006103515625</ele>
        <time>2019-07-07T08:24:06.000Z</time>
      </trkpt>
      <trkpt lat="39.88076060079038143157958984375" lon="-0.5340299941599369049072265625">
        <ele>444.20001220703125</ele>
        <time>2019-07-07T08:24:07.000Z</time>
      </trkpt>
      <trkpt lat="39.88089571706950664520263671875" lon="-0.534384883940219879150390625">
        <ele>442.79998779296875</ele>
        <time>2019-07-07T08:24:08.000Z</time>
      </trkpt>
      <trkpt lat="39.881031922996044158935546875" lon="-0.5347399413585662841796875">
        <ele>441.600006103515625</ele>
        <time>2019-07-07T08:24:09.000Z</time>
      </trkpt>
      <trkpt lat="39.88117030821740627288818359375" lon="-0.53509508259594440460205078125">
        <ele>440.399993896484375</ele>
        <time>2019-07-07T08:24:10.000Z</time>
      </trkpt>
      <trkpt lat="39.88130919635295867919921875" lon="-0.5354522354900836944580078125">
        <ele>439</ele>
        <time>2019-07-07T08:24:11.000Z</time>
      </trkpt>
      <trkpt lat="39.88144808448851108551025390625" lon="-0.5358109809458255767822265625">
        <ele>436.600006103515625</ele>
        <time>2019-07-07T08:24:12.000Z</time>
      </trkpt>
      <trkpt lat="39.88158957101404666900634765625" lon="-0.536167882382869720458984375">
        <ele>434</ele>
        <time>2019-07-07T08:24:13.000Z</time>
      </trkpt>
      <trkpt lat="39.88173457793891429901123046875" lon="-0.5365221016108989715576171875">
        <ele>431.600006103515625</ele>
        <time>2019-07-07T08:24:14.000Z</time>
      </trkpt>
      <trkpt lat="39.8818825185298919677734375" lon="-0.53687171079218387603759765625">
        <ele>430.20001220703125</ele>
        <time>2019-07-07T08:24:15.000Z</time>
      </trkpt>
      <trkpt lat="39.8820318840444087982177734375" lon="-0.53722039796411991119384765625">
        <ele>428.20001220703125</ele>
        <time>2019-07-07T08:24:16.000Z</time>
      </trkpt>
      <trkpt lat="39.88217999227344989776611328125" lon="-0.5375669896602630615234375">
        <ele>426</ele>
        <time>2019-07-07T08:24:17.000Z</time>
      </trkpt>
      <trkpt lat="39.88232667557895183563232421875" lon="-0.53790964186191558837890625">
        <ele>423.399993896484375</ele>
        <time>2019-07-07T08:24:18.000Z</time>
      </trkpt>
      <trkpt lat="39.88247352652251720428466796875" lon="-0.53824483416974544525146484375">
        <ele>421.399993896484375</ele>
        <time>2019-07-07T08:24:19.000Z</time>
      </trkpt>
      <trkpt lat="39.88262347877025604248046875" lon="-0.53857223130762577056884765625">
        <ele>420.20001220703125</ele>
        <time>2019-07-07T08:24:20.000Z</time>
      </trkpt>
      <trkpt lat="39.8827772028744220733642578125" lon="-0.53889309056103229522705078125">
        <ele>418.600006103515625</ele>
        <time>2019-07-07T08:24:21.000Z</time>
      </trkpt>
      <trkpt lat="39.88310066051781177520751953125" lon="-0.53951821289956569671630859375">
        <ele>417.600006103515625</ele>
        <time>2019-07-07T08:24:23.000Z</time>
      </trkpt>
      <trkpt lat="39.88326980732381343841552734375" lon="-0.53981979377567768096923828125">
        <ele>416.399993896484375</ele>
        <time>2019-07-07T08:24:24.000Z</time>
      </trkpt>
      <trkpt lat="39.88344398327171802520751953125" lon="-0.54011416621506214141845703125">
        <ele>415.20001220703125</ele>
        <time>2019-07-07T08:24:25.000Z</time>
      </trkpt>
      <trkpt lat="39.8838088475167751312255859375" lon="-0.54068145342171192169189453125">
        <ele>414.399993896484375</ele>
        <time>2019-07-07T08:24:27.000Z</time>
      </trkpt>
      <trkpt lat="39.8841970972716808319091796875" lon="-0.541225858032703399658203125">
        <ele>416.20001220703125</ele>
        <time>2019-07-07T08:24:29.000Z</time>
      </trkpt>
      <trkpt lat="39.8843982629477977752685546875" lon="-0.5414865352213382720947265625">
        <ele>418.399993896484375</ele>
        <time>2019-07-07T08:24:30.000Z</time>
      </trkpt>
      <trkpt lat="39.884603954851627349853515625" lon="-0.5417393334209918975830078125">
        <ele>420.79998779296875</ele>
        <time>2019-07-07T08:24:31.000Z</time>
      </trkpt>
      <trkpt lat="39.88481425680220127105712890625" lon="-0.541984252631664276123046875">
        <ele>422</ele>
        <time>2019-07-07T08:24:32.000Z</time>
      </trkpt>
      <trkpt lat="39.88524399697780609130859375" lon="-0.54245238192379474639892578125">
        <ele>422</ele>
        <time>2019-07-07T08:24:34.000Z</time>
      </trkpt>
      <trkpt lat="39.88569234497845172882080078125" lon="-0.5428806133568286895751953125">
        <ele>419</ele>
        <time>2019-07-07T08:24:36.000Z</time>
      </trkpt>
      <trkpt lat="39.8859244398772716522216796875" lon="-0.54307951591908931732177734375">
        <ele>416.399993896484375</ele>
        <time>2019-07-07T08:24:37.000Z</time>
      </trkpt>
      <trkpt lat="39.88615988753736019134521484375" lon="-0.5432720482349395751953125">
        <ele>415</ele>
        <time>2019-07-07T08:24:38.000Z</time>
      </trkpt>
      <trkpt lat="39.88639910705387592315673828125" lon="-0.54345854558050632476806640625">
        <ele>413</ele>
        <time>2019-07-07T08:24:39.000Z</time>
      </trkpt>
      <trkpt lat="39.8866409249603748321533203125" lon="-0.5436393432319164276123046875">
        <ele>411.600006103515625</ele>
        <time>2019-07-07T08:24:40.000Z</time>
      </trkpt>
      <trkpt lat="39.886888526380062103271484375" lon="-0.54381041787564754486083984375">
        <ele>410.20001220703125</ele>
        <time>2019-07-07T08:24:41.000Z</time>
      </trkpt>
      <trkpt lat="39.88714191131293773651123046875" lon="-0.5439729429781436920166015625">
        <ele>408.20001220703125</ele>
        <time>2019-07-07T08:24:42.000Z</time>
      </trkpt>
      <trkpt lat="39.8874003253877162933349609375" lon="-0.5441276729106903076171875">
        <ele>405.600006103515625</ele>
        <time>2019-07-07T08:24:43.000Z</time>
      </trkpt>
      <trkpt lat="39.887663014233112335205078125" lon="-0.544276200234889984130859375">
        <ele>404.20001220703125</ele>
        <time>2019-07-07T08:24:44.000Z</time>
      </trkpt>
      <trkpt lat="39.8879308998584747314453125" lon="-0.54441592656075954437255859375">
        <ele>402.399993896484375</ele>
        <time>2019-07-07T08:24:45.000Z</time>
      </trkpt>
      <trkpt lat="39.88847731612622737884521484375" lon="-0.54466788657009601593017578125">
        <ele>401.20001220703125</ele>
        <time>2019-07-07T08:24:47.000Z</time>
      </trkpt>
      <trkpt lat="39.8890260793268680572509765625" lon="-0.54488497786223888397216796875">
        <ele>399.79998779296875</ele>
        <time>2019-07-07T08:24:49.000Z</time>
      </trkpt>
      <trkpt lat="39.88957517780363559722900390625" lon="-0.54507591761648654937744140625">
        <ele>400.600006103515625</ele>
        <time>2019-07-07T08:24:51.000Z</time>
      </trkpt>
      <trkpt lat="39.88984926603734493255615234375" lon="-0.54516325704753398895263671875">
        <ele>400.79998779296875</ele>
        <time>2019-07-07T08:24:52.000Z</time>
      </trkpt>
      <trkpt lat="39.89040012471377849578857421875" lon="-0.54532821290194988250732421875">
        <ele>403</ele>
        <time>2019-07-07T08:24:54.000Z</time>
      </trkpt>
      <trkpt lat="39.89067823626101016998291015625" lon="-0.54541043937206268310546875">
        <ele>405.600006103515625</ele>
        <time>2019-07-07T08:24:55.000Z</time>
      </trkpt>
      <trkpt lat="39.890958778560161590576171875" lon="-0.54549015127122402191162109375">
        <ele>407.20001220703125</ele>
        <time>2019-07-07T08:24:56.000Z</time>
      </trkpt>
      <trkpt lat="39.891526401042938232421875" lon="-0.5456375889480113983154296875">
        <ele>406.79998779296875</ele>
        <time>2019-07-07T08:24:58.000Z</time>
      </trkpt>
      <trkpt lat="39.89181264303624629974365234375" lon="-0.54570925422012805938720703125">
        <ele>408.20001220703125</ele>
        <time>2019-07-07T08:24:59.000Z</time>
      </trkpt>
      <trkpt lat="39.89238579757511615753173828125" lon="-0.5458521656692028045654296875">
        <ele>404.20001220703125</ele>
        <time>2019-07-07T08:25:01.000Z</time>
      </trkpt>
      <trkpt lat="39.89266893826425075531005859375" lon="-0.54592114873230457305908203125">
        <ele>402.79998779296875</ele>
        <time>2019-07-07T08:25:02.000Z</time>
      </trkpt>
      <trkpt lat="39.8932327888906002044677734375" lon="-0.54605391807854175567626953125">
        <ele>405.399993896484375</ele>
        <time>2019-07-07T08:25:04.000Z</time>
      </trkpt>
      <trkpt lat="39.89351190626621246337890625" lon="-0.54611896164715290069580078125">
        <ele>408.600006103515625</ele>
        <time>2019-07-07T08:25:05.000Z</time>
      </trkpt>
      <trkpt lat="39.89379060454666614532470703125" lon="-0.54618115536868572235107421875">
        <ele>406.79998779296875</ele>
        <time>2019-07-07T08:25:06.000Z</time>
      </trkpt>
      <trkpt lat="39.894339032471179962158203125" lon="-0.54630788974463939666748046875">
        <ele>408</ele>
        <time>2019-07-07T08:25:08.000Z</time>
      </trkpt>
      <trkpt lat="39.8946101032197475433349609375" lon="-0.5463731847703456878662109375">
        <ele>406.20001220703125</ele>
        <time>2019-07-07T08:25:09.000Z</time>
      </trkpt>
      <trkpt lat="39.8948778212070465087890625" lon="-0.546438060700893402099609375">
        <ele>401.79998779296875</ele>
        <time>2019-07-07T08:25:10.000Z</time>
      </trkpt>
      <trkpt lat="39.8951435275375843048095703125" lon="-0.54650268517434597015380859375">
        <ele>399.600006103515625</ele>
        <time>2019-07-07T08:25:11.000Z</time>
      </trkpt>
      <trkpt lat="39.89567016251385211944580078125" lon="-0.54663428105413913726806640625">
        <ele>402.600006103515625</ele>
        <time>2019-07-07T08:25:13.000Z</time>
      </trkpt>
      <trkpt lat="39.89593184553086757659912109375" lon="-0.54670033045113086700439453125">
        <ele>404.399993896484375</ele>
        <time>2019-07-07T08:25:14.000Z</time>
      </trkpt>
      <trkpt lat="39.89619436673820018768310546875" lon="-0.5467661283910274505615234375">
        <ele>406</ele>
        <time>2019-07-07T08:25:15.000Z</time>
      </trkpt>
      <trkpt lat="39.89645722322165966033935546875" lon="-0.54682941175997257232666015625">
        <ele>407.20001220703125</ele>
        <time>2019-07-07T08:25:16.000Z</time>
      </trkpt>
      <trkpt lat="39.8967213369905948638916015625" lon="-0.54689093492925167083740234375">
        <ele>408.79998779296875</ele>
        <time>2019-07-07T08:25:17.000Z</time>
      </trkpt>
      <trkpt lat="39.8969860374927520751953125" lon="-0.54695396684110164642333984375">
        <ele>410.20001220703125</ele>
        <time>2019-07-07T08:25:18.000Z</time>
      </trkpt>
      <trkpt lat="39.89751376211643218994140625" lon="-0.54708774201571941375732421875">
        <ele>412.600006103515625</ele>
        <time>2019-07-07T08:25:20.000Z</time>
      </trkpt>
      <trkpt lat="39.89777795970439910888671875" lon="-0.54715429432690143585205078125">
        <ele>413.79998779296875</ele>
        <time>2019-07-07T08:25:21.000Z</time>
      </trkpt>
      <trkpt lat="39.898306690156459808349609375" lon="-0.54728639312088489532470703125">
        <ele>415.600006103515625</ele>
        <time>2019-07-07T08:25:23.000Z</time>
      </trkpt>
      <trkpt lat="39.89857013337314128875732421875" lon="-0.5473530292510986328125">
        <ele>416.600006103515625</ele>
        <time>2019-07-07T08:25:24.000Z</time>
      </trkpt>
      <trkpt lat="39.8988340795040130615234375" lon="-0.54741782136261463165283203125">
        <ele>418.79998779296875</ele>
        <time>2019-07-07T08:25:25.000Z</time>
      </trkpt>
      <trkpt lat="39.89909869618713855743408203125" lon="-0.5474792607128620147705078125">
        <ele>421.20001220703125</ele>
        <time>2019-07-07T08:25:26.000Z</time>
      </trkpt>
      <trkpt lat="39.899364151060581207275390625" lon="-0.5475379340350627899169921875">
        <ele>424</ele>
        <time>2019-07-07T08:25:27.000Z</time>
      </trkpt>
      <trkpt lat="39.899629689753055572509765625" lon="-0.547597445547580718994140625">
        <ele>425.79998779296875</ele>
        <time>2019-07-07T08:25:28.000Z</time>
      </trkpt>
      <trkpt lat="39.8998957313597202301025390625" lon="-0.54765871725976467132568359375">
        <ele>427.20001220703125</ele>
        <time>2019-07-07T08:25:29.000Z</time>
      </trkpt>
      <trkpt lat="39.90016168914735317230224609375" lon="-0.547720491886138916015625">
        <ele>428.600006103515625</ele>
        <time>2019-07-07T08:25:30.000Z</time>
      </trkpt>
      <trkpt lat="39.90042806603014469146728515625" lon="-0.54778427816927433013916015625">
        <ele>430</ele>
        <time>2019-07-07T08:25:31.000Z</time>
      </trkpt>
      <trkpt lat="39.90069427527487277984619140625" lon="-0.54785049520432949066162109375">
        <ele>431.79998779296875</ele>
        <time>2019-07-07T08:25:32.000Z</time>
      </trkpt>
      <trkpt lat="39.90096065215766429901123046875" lon="-0.547919310629367828369140625">
        <ele>433.600006103515625</ele>
        <time>2019-07-07T08:25:33.000Z</time>
      </trkpt>
      <trkpt lat="39.9012267775833606719970703125" lon="-0.54799365811049938201904296875">
        <ele>435.600006103515625</ele>
        <time>2019-07-07T08:25:34.000Z</time>
      </trkpt>
      <trkpt lat="39.9014929868280887603759765625" lon="-0.54807445965707302093505859375">
        <ele>437.600006103515625</ele>
        <time>2019-07-07T08:25:35.000Z</time>
      </trkpt>
      <trkpt lat="39.90175927989184856414794921875" lon="-0.54816238582134246826171875">
        <ele>440.399993896484375</ele>
        <time>2019-07-07T08:25:36.000Z</time>
      </trkpt>
      <trkpt lat="39.90202666260302066802978515625" lon="-0.54825961589813232421875">
        <ele>442.79998779296875</ele>
        <time>2019-07-07T08:25:37.000Z</time>
      </trkpt>
      <trkpt lat="39.90229404531419277191162109375" lon="-0.54836380295455455780029296875">
        <ele>445</ele>
        <time>2019-07-07T08:25:38.000Z</time>
      </trkpt>
      <trkpt lat="39.90256142802536487579345703125" lon="-0.5484787188470363616943359375">
        <ele>446.600006103515625</ele>
        <time>2019-07-07T08:25:39.000Z</time>
      </trkpt>
      <trkpt lat="39.90309141576290130615234375" lon="-0.54873679764568805694580078125">
        <ele>447.79998779296875</ele>
        <time>2019-07-07T08:25:41.000Z</time>
      </trkpt>
      <trkpt lat="39.90335100330412387847900390625" lon="-0.54887895472347736358642578125">
        <ele>448.79998779296875</ele>
        <time>2019-07-07T08:25:42.000Z</time>
      </trkpt>
      <trkpt lat="39.90360715426504611968994140625" lon="-0.54903435520827770233154296875">
        <ele>450.79998779296875</ele>
        <time>2019-07-07T08:25:43.000Z</time>
      </trkpt>
      <trkpt lat="39.903858192265033721923828125" lon="-0.549202747642993927001953125">
        <ele>452.399993896484375</ele>
        <time>2019-07-07T08:25:44.000Z</time>
      </trkpt>
      <trkpt lat="39.90435699932277202606201171875" lon="-0.549556128680706024169921875">
        <ele>452.79998779296875</ele>
        <time>2019-07-07T08:25:46.000Z</time>
      </trkpt>
      <trkpt lat="39.9048484303057193756103515625" lon="-0.54993934929370880126953125">
        <ele>453.20001220703125</ele>
        <time>2019-07-07T08:25:48.000Z</time>
      </trkpt>
      <trkpt lat="39.90509008057415485382080078125" lon="-0.5501437000930309295654296875">
        <ele>454.20001220703125</ele>
        <time>2019-07-07T08:25:49.000Z</time>
      </trkpt>
      <trkpt lat="39.90556801669299602508544921875" lon="-0.5505688302218914031982421875">
        <ele>454</ele>
        <time>2019-07-07T08:25:51.000Z</time>
      </trkpt>
      <trkpt lat="39.9058049730956554412841796875" lon="-0.5507867597043514251708984375">
        <ele>455.399993896484375</ele>
        <time>2019-07-07T08:25:52.000Z</time>
      </trkpt>
      <trkpt lat="39.90604125894606113433837890625" lon="-0.55100846104323863983154296875">
        <ele>457.399993896484375</ele>
        <time>2019-07-07T08:25:53.000Z</time>
      </trkpt>
      <trkpt lat="39.90627729333937168121337890625" lon="-0.551233179867267608642578125">
        <ele>458.399993896484375</ele>
        <time>2019-07-07T08:25:54.000Z</time>
      </trkpt>
      <trkpt lat="39.9067514576017856597900390625" lon="-0.55168068967759609222412109375">
        <ele>457.79998779296875</ele>
        <time>2019-07-07T08:25:56.000Z</time>
      </trkpt>
      <trkpt lat="39.90723718889057636260986328125" lon="-0.55211520753800868988037109375">
        <ele>459.399993896484375</ele>
        <time>2019-07-07T08:25:58.000Z</time>
      </trkpt>
      <trkpt lat="39.9074863828718662261962890625" lon="-0.5523240007460117340087890625">
        <ele>460.399993896484375</ele>
        <time>2019-07-07T08:25:59.000Z</time>
      </trkpt>
      <trkpt lat="39.90800228901207447052001953125" lon="-0.55271719582378864288330078125">
        <ele>461.79998779296875</ele>
        <time>2019-07-07T08:26:01.000Z</time>
      </trkpt>
      <trkpt lat="39.908539988100528717041015625" lon="-0.55306680500507354736328125">
        <ele>463.20001220703125</ele>
        <time>2019-07-07T08:26:03.000Z</time>
      </trkpt>
      <trkpt lat="39.909094870090484619140625" lon="-0.55337802506983280181884765625">
        <ele>464.79998779296875</ele>
        <time>2019-07-07T08:26:05.000Z</time>
      </trkpt>
      <trkpt lat="39.909657798707485198974609375" lon="-0.55365948937833309173583984375">
        <ele>467</ele>
        <time>2019-07-07T08:26:07.000Z</time>
      </trkpt>
      <trkpt lat="39.90993976593017578125" lon="-0.5537911690771579742431640625">
        <ele>468.20001220703125</ele>
        <time>2019-07-07T08:26:08.000Z</time>
      </trkpt>
      <trkpt lat="39.9105025269091129302978515625" lon="-0.55404036305844783782958984375">
        <ele>470.20001220703125</ele>
        <time>2019-07-07T08:26:10.000Z</time>
      </trkpt>
      <trkpt lat="39.91106319241225719451904296875" lon="-0.5542833544313907623291015625">
        <ele>471.20001220703125</ele>
        <time>2019-07-07T08:26:12.000Z</time>
      </trkpt>
      <trkpt lat="39.9116169847548007965087890625" lon="-0.5545338056981563568115234375">
        <ele>469.600006103515625</ele>
        <time>2019-07-07T08:26:14.000Z</time>
      </trkpt>
      <trkpt lat="39.91216407157480716705322265625" lon="-0.5547959916293621063232421875">
        <ele>472.600006103515625</ele>
        <time>2019-07-07T08:26:16.000Z</time>
      </trkpt>
      <trkpt lat="39.9127066321671009063720703125" lon="-0.55507552810013294219970703125">
        <ele>473.399993896484375</ele>
        <time>2019-07-07T08:26:18.000Z</time>
      </trkpt>
      <trkpt lat="39.91297543980181217193603515625" lon="-0.555223636329174041748046875">
        <ele>475.600006103515625</ele>
        <time>2019-07-07T08:26:19.000Z</time>
      </trkpt>
      <trkpt lat="39.91324164904654026031494140625" lon="-0.55537710897624492645263671875">
        <ele>477.20001220703125</ele>
        <time>2019-07-07T08:26:20.000Z</time>
      </trkpt>
      <trkpt lat="39.91350467316806316375732421875" lon="-0.55553871206939220428466796875">
        <ele>478.20001220703125</ele>
        <time>2019-07-07T08:26:21.000Z</time>
      </trkpt>
      <trkpt lat="39.914014041423797607421875" lon="-0.5558946914970874786376953125">
        <ele>475.600006103515625</ele>
        <time>2019-07-07T08:26:23.000Z</time>
      </trkpt>
      <trkpt lat="39.91450446657836437225341796875" lon="-0.55629157461225986480712890625">
        <ele>475</ele>
        <time>2019-07-07T08:26:25.000Z</time>
      </trkpt>
      <trkpt lat="39.91474318318068981170654296875" lon="-0.55650263093411922454833984375">
        <ele>473.600006103515625</ele>
        <time>2019-07-07T08:26:26.000Z</time>
      </trkpt>
      <trkpt lat="39.91497754119336605072021484375" lon="-0.5567234940826892852783203125">
        <ele>472.399993896484375</ele>
        <time>2019-07-07T08:26:27.000Z</time>
      </trkpt>
      <trkpt lat="39.9154387973248958587646484375" lon="-0.55719204246997833251953125">
        <ele>471.20001220703125</ele>
        <time>2019-07-07T08:26:29.000Z</time>
      </trkpt>
      <trkpt lat="39.91588781587779521942138671875" lon="-0.55769789032638072967529296875">
        <ele>471.399993896484375</ele>
        <time>2019-07-07T08:26:31.000Z</time>
      </trkpt>
      <trkpt lat="39.91631495766341686248779296875" lon="-0.55824807845056056976318359375">
        <ele>471.79998779296875</ele>
        <time>2019-07-07T08:26:33.000Z</time>
      </trkpt>
      <trkpt lat="39.91652165539562702178955078125" lon="-0.55853507481515407562255859375">
        <ele>473.79998779296875</ele>
        <time>2019-07-07T08:26:34.000Z</time>
      </trkpt>
      <trkpt lat="39.9167222343385219573974609375" lon="-0.55882860906422138214111328125">
        <ele>474.79998779296875</ele>
        <time>2019-07-07T08:26:35.000Z</time>
      </trkpt>
      <trkpt lat="39.91691711358726024627685546875" lon="-0.55913002230226993560791015625">
        <ele>473</ele>
        <time>2019-07-07T08:26:36.000Z</time>
      </trkpt>
      <trkpt lat="39.91710470058023929595947265625" lon="-0.55943864397704601287841796875">
        <ele>470.600006103515625</ele>
        <time>2019-07-07T08:26:37.000Z</time>
      </trkpt>
      <trkpt lat="39.91728357039391994476318359375" lon="-0.5597542226314544677734375">
        <ele>469.20001220703125</ele>
        <time>2019-07-07T08:26:38.000Z</time>
      </trkpt>
      <trkpt lat="39.91761851124465465545654296875" lon="-0.5604044906795024871826171875">
        <ele>467.20001220703125</ele>
        <time>2019-07-07T08:26:40.000Z</time>
      </trkpt>
      <trkpt lat="39.91777743212878704071044921875" lon="-0.56073700077831745147705078125">
        <ele>466</ele>
        <time>2019-07-07T08:26:41.000Z</time>
      </trkpt>
      <trkpt lat="39.91808605380356311798095703125" lon="-0.56140336208045482635498046875">
        <ele>468.20001220703125</ele>
        <time>2019-07-07T08:26:43.000Z</time>
      </trkpt>
      <trkpt lat="39.91823474876582622528076171875" lon="-0.56173729710280895233154296875">
        <ele>471.600006103515625</ele>
        <time>2019-07-07T08:26:44.000Z</time>
      </trkpt>
      <trkpt lat="39.918379001319408416748046875" lon="-0.56207374669611454010009765625">
        <ele>476.20001220703125</ele>
        <time>2019-07-07T08:26:45.000Z</time>
      </trkpt>
      <trkpt lat="39.9185193143784999847412109375" lon="-0.56241086684167385101318359375">
        <ele>480.399993896484375</ele>
        <time>2019-07-07T08:26:46.000Z</time>
      </trkpt>
      <trkpt lat="39.9186581186950206756591796875" lon="-0.5627470649778842926025390625">
        <ele>483.600006103515625</ele>
        <time>2019-07-07T08:26:47.000Z</time>
      </trkpt>
      <trkpt lat="39.91879709064960479736328125" lon="-0.5630816705524921417236328125">
        <ele>486</ele>
        <time>2019-07-07T08:26:48.000Z</time>
      </trkpt>
      <trkpt lat="39.9189380742609500885009765625" lon="-0.56341166608035564422607421875">
        <ele>488.399993896484375</ele>
        <time>2019-07-07T08:26:49.000Z</time>
      </trkpt>
      <trkpt lat="39.919079057872295379638671875" lon="-0.5637378059327602386474609375">
        <ele>491</ele>
        <time>2019-07-07T08:26:50.000Z</time>
      </trkpt>
      <trkpt lat="39.91922079585492610931396484375" lon="-0.56405992247164249420166015625">
        <ele>492.600006103515625</ele>
        <time>2019-07-07T08:26:51.000Z</time>
      </trkpt>
      <trkpt lat="39.9193638749420642852783203125" lon="-0.56437893770635128021240234375">
        <ele>495</ele>
        <time>2019-07-07T08:26:52.000Z</time>
      </trkpt>
      <trkpt lat="39.91951148025691509246826171875" lon="-0.56469426490366458892822265625">
        <ele>497</ele>
        <time>2019-07-07T08:26:53.000Z</time>
      </trkpt>
      <trkpt lat="39.919824041426181793212890625" lon="-0.5653152801096439361572265625">
        <ele>498.399993896484375</ele>
        <time>2019-07-07T08:26:55.000Z</time>
      </trkpt>
      <trkpt lat="39.9199881590902805328369140625" lon="-0.56562331505119800567626953125">
        <ele>500</ele>
        <time>2019-07-07T08:26:56.000Z</time>
      </trkpt>
      <trkpt lat="39.92015688680112361907958984375" lon="-0.56593378074467182159423828125">
        <ele>502</ele>
        <time>2019-07-07T08:26:57.000Z</time>
      </trkpt>
      <trkpt lat="39.92033257149159908294677734375" lon="-0.5662398040294647216796875">
        <ele>504.20001220703125</ele>
        <time>2019-07-07T08:26:58.000Z</time>
      </trkpt>
      <trkpt lat="39.92051546461880207061767578125" lon="-0.56654247455298900604248046875">
        <ele>505.79998779296875</ele>
        <time>2019-07-07T08:26:59.000Z</time>
      </trkpt>
      <trkpt lat="39.92070288397371768951416015625" lon="-0.56684120558202266693115234375">
        <ele>507.79998779296875</ele>
        <time>2019-07-07T08:27:00.000Z</time>
      </trkpt>
      <trkpt lat="39.92089147679507732391357421875" lon="-0.5671408586204051971435546875">
        <ele>509.399993896484375</ele>
        <time>2019-07-07T08:27:01.000Z</time>
      </trkpt>
      <trkpt lat="39.92126815952360630035400390625" lon="-0.56774293072521686553955078125">
        <ele>510.600006103515625</ele>
        <time>2019-07-07T08:27:03.000Z</time>
      </trkpt>
      <trkpt lat="39.92164148949086666107177734375" lon="-0.56834190152585506439208984375">
        <ele>509.600006103515625</ele>
        <time>2019-07-07T08:27:05.000Z</time>
      </trkpt>
      <trkpt lat="39.921823628246784210205078125" lon="-0.56864264421164989471435546875">
        <ele>508.399993896484375</ele>
        <time>2019-07-07T08:27:06.000Z</time>
      </trkpt>
      <trkpt lat="39.92200107313692569732666015625" lon="-0.5689456500113010406494140625">
        <ele>506.79998779296875</ele>
        <time>2019-07-07T08:27:07.000Z</time>
      </trkpt>
      <trkpt lat="39.9221731536090373992919921875" lon="-0.5692520923912525177001953125">
        <ele>505.399993896484375</ele>
        <time>2019-07-07T08:27:08.000Z</time>
      </trkpt>
      <trkpt lat="39.92249988019466400146484375" lon="-0.56987813673913478851318359375">
        <ele>503.79998779296875</ele>
        <time>2019-07-07T08:27:10.000Z</time>
      </trkpt>
      <trkpt lat="39.92279903031885623931884765625" lon="-0.57051055133342742919921875">
        <ele>503.20001220703125</ele>
        <time>2019-07-07T08:27:12.000Z</time>
      </trkpt>
      <trkpt lat="39.92307412438094615936279296875" lon="-0.57115838862955570220947265625">
        <ele>503.20001220703125</ele>
        <time>2019-07-07T08:27:14.000Z</time>
      </trkpt>
      <trkpt lat="39.92333270609378814697265625" lon="-0.5718340538442134857177734375">
        <ele>502.600006103515625</ele>
        <time>2019-07-07T08:27:16.000Z</time>
      </trkpt>
      <trkpt lat="39.92357200942933559417724609375" lon="-0.57253167964518070220947265625">
        <ele>504.20001220703125</ele>
        <time>2019-07-07T08:27:18.000Z</time>
      </trkpt>
      <trkpt lat="39.9236802197992801666259765625" lon="-0.572887994349002838134765625">
        <ele>505.79998779296875</ele>
        <time>2019-07-07T08:27:19.000Z</time>
      </trkpt>
      <trkpt lat="39.92387996055185794830322265625" lon="-0.57361118495464324951171875">
        <ele>506.600006103515625</ele>
        <time>2019-07-07T08:27:21.000Z</time>
      </trkpt>
      <trkpt lat="39.92397367022931575775146484375" lon="-0.57397638447582721710205078125">
        <ele>508.600006103515625</ele>
        <time>2019-07-07T08:27:22.000Z</time>
      </trkpt>
      <trkpt lat="39.9240620993077754974365234375" lon="-0.57434317655861377716064453125">
        <ele>511.399993896484375</ele>
        <time>2019-07-07T08:27:23.000Z</time>
      </trkpt>
      <trkpt lat="39.92414600215852260589599609375" lon="-0.574710555374622344970703125">
        <ele>514</ele>
        <time>2019-07-07T08:27:24.000Z</time>
      </trkpt>
      <trkpt lat="39.92422982119023799896240234375" lon="-0.5750765092670917510986328125">
        <ele>515.4000244140625</ele>
        <time>2019-07-07T08:27:25.000Z</time>
      </trkpt>
      <trkpt lat="39.92440533824265003204345703125" lon="-0.575799532234668731689453125">
        <ele>517.20001220703125</ele>
        <time>2019-07-07T08:27:27.000Z</time>
      </trkpt>
      <trkpt lat="39.9244925938546657562255859375" lon="-0.57615651749074459075927734375">
        <ele>519.5999755859375</ele>
        <time>2019-07-07T08:27:28.000Z</time>
      </trkpt>
      <trkpt lat="39.9245767481625080108642578125" lon="-0.57651325128972530364990234375">
        <ele>522.4000244140625</ele>
        <time>2019-07-07T08:27:29.000Z</time>
      </trkpt>
      <trkpt lat="39.9246605671942234039306640625" lon="-0.57687048800289630889892578125">
        <ele>525.20001220703125</ele>
        <time>2019-07-07T08:27:30.000Z</time>
      </trkpt>
      <trkpt lat="39.924748577177524566650390625" lon="-0.5772252939641475677490234375">
        <ele>526.79998779296875</ele>
        <time>2019-07-07T08:27:31.000Z</time>
      </trkpt>
      <trkpt lat="39.92494680918753147125244140625" lon="-0.57792543433606624603271484375">
        <ele>528.20001220703125</ele>
        <time>2019-07-07T08:27:33.000Z</time>
      </trkpt>
      <trkpt lat="39.9251792393624782562255859375" lon="-0.57861392386257648468017578125">
        <ele>529.4000244140625</ele>
        <time>2019-07-07T08:27:35.000Z</time>
      </trkpt>
      <trkpt lat="39.9254521541297435760498046875" lon="-0.57928246445953845977783203125">
        <ele>531.4000244140625</ele>
        <time>2019-07-07T08:27:37.000Z</time>
      </trkpt>
      <trkpt lat="39.92560847662389278411865234375" lon="-0.57960600592195987701416015625">
        <ele>532.5999755859375</ele>
        <time>2019-07-07T08:27:38.000Z</time>
      </trkpt>
      <trkpt lat="39.9259565770626068115234375" lon="-0.58023062534630298614501953125">
        <ele>534.20001220703125</ele>
        <time>2019-07-07T08:27:40.000Z</time>
      </trkpt>
      <trkpt lat="39.926346838474273681640625" lon="-0.58082506991922855377197265625">
        <ele>535.5999755859375</ele>
        <time>2019-07-07T08:27:42.000Z</time>
      </trkpt>
      <trkpt lat="39.926555715501308441162109375" lon="-0.58111106045544147491455078125">
        <ele>536.5999755859375</ele>
        <time>2019-07-07T08:27:43.000Z</time>
      </trkpt>
      <trkpt lat="39.92677138186991214752197265625" lon="-0.5813874118030071258544921875">
        <ele>538.4000244140625</ele>
        <time>2019-07-07T08:27:44.000Z</time>
      </trkpt>
      <trkpt lat="39.926992915570735931396484375" lon="-0.5816499330103397369384765625">
        <ele>540</ele>
        <time>2019-07-07T08:27:45.000Z</time>
      </trkpt>
      <trkpt lat="39.92722199298441410064697265625" lon="-0.581896193325519561767578125">
        <ele>541.20001220703125</ele>
        <time>2019-07-07T08:27:46.000Z</time>
      </trkpt>
      <trkpt lat="39.9276995100080966949462890625" lon="-0.58233984746038913726806640625">
        <ele>542.5999755859375</ele>
        <time>2019-07-07T08:27:48.000Z</time>
      </trkpt>
      <trkpt lat="39.9279452674090862274169921875" lon="-0.58254587464034557342529296875">
        <ele>544.20001220703125</ele>
        <time>2019-07-07T08:27:49.000Z</time>
      </trkpt>
      <trkpt lat="39.92845128290355205535888671875" lon="-0.5829323641955852508544921875">
        <ele>546.79998779296875</ele>
        <time>2019-07-07T08:27:51.000Z</time>
      </trkpt>
      <trkpt lat="39.92871112190186977386474609375" lon="-0.5831103958189487457275390625">
        <ele>548.5999755859375</ele>
        <time>2019-07-07T08:27:52.000Z</time>
      </trkpt>
      <trkpt lat="39.9289735592901706695556640625" lon="-0.5832847394049167633056640625">
        <ele>550.20001220703125</ele>
        <time>2019-07-07T08:27:53.000Z</time>
      </trkpt>
      <trkpt lat="39.9292350746691226959228515625" lon="-0.58346034027636051177978515625">
        <ele>552</ele>
        <time>2019-07-07T08:27:54.000Z</time>
      </trkpt>
      <trkpt lat="39.92949499748647212982177734375" lon="-0.58364256285130977630615234375">
        <ele>553.79998779296875</ele>
        <time>2019-07-07T08:27:55.000Z</time>
      </trkpt>
      <trkpt lat="39.9297517351806163787841796875" lon="-0.58383333496749401092529296875">
        <ele>555.20001220703125</ele>
        <time>2019-07-07T08:27:56.000Z</time>
      </trkpt>
      <trkpt lat="39.9300068803131580352783203125" lon="-0.584029220044612884521484375">
        <ele>557</ele>
        <time>2019-07-07T08:27:57.000Z</time>
      </trkpt>
      <trkpt lat="39.93026009760797023773193359375" lon="-0.5842293798923492431640625">
        <ele>558</ele>
        <time>2019-07-07T08:27:58.000Z</time>
      </trkpt>
      <trkpt lat="39.9305109679698944091796875" lon="-0.58443465270102024078369140625">
        <ele>559</ele>
        <time>2019-07-07T08:27:59.000Z</time>
      </trkpt>
      <trkpt lat="39.93100189603865146636962890625" lon="-0.58486632071435451507568359375">
        <ele>557.79998779296875</ele>
        <time>2019-07-07T08:28:01.000Z</time>
      </trkpt>
      <trkpt lat="39.93123943917453289031982421875" lon="-0.58509648777544498443603515625">
        <ele>556.4000244140625</ele>
        <time>2019-07-07T08:28:02.000Z</time>
      </trkpt>
      <trkpt lat="39.9314713664352893829345703125" lon="-0.585336126387119293212890625">
        <ele>554.5999755859375</ele>
        <time>2019-07-07T08:28:03.000Z</time>
      </trkpt>
      <trkpt lat="39.93169809691607952117919921875" lon="-0.58558582328259944915771484375">
        <ele>553.4000244140625</ele>
        <time>2019-07-07T08:28:04.000Z</time>
      </trkpt>
      <trkpt lat="39.931918792426586151123046875" lon="-0.58584616519510746002197265625">
        <ele>552.20001220703125</ele>
        <time>2019-07-07T08:28:05.000Z</time>
      </trkpt>
      <trkpt lat="39.93233730085194110870361328125" lon="-0.58639802969992160797119140625">
        <ele>552.4000244140625</ele>
        <time>2019-07-07T08:28:07.000Z</time>
      </trkpt>
      <trkpt lat="39.93253561668097972869873046875" lon="-0.58669005520641803741455078125">
        <ele>553.79998779296875</ele>
        <time>2019-07-07T08:28:08.000Z</time>
      </trkpt>
      <trkpt lat="39.93272555060684680938720703125" lon="-0.58699012733995914459228515625">
        <ele>555.79998779296875</ele>
        <time>2019-07-07T08:28:09.000Z</time>
      </trkpt>
      <trkpt lat="39.93307851254940032958984375" lon="-0.5876195244491100311279296875">
        <ele>557.5999755859375</ele>
        <time>2019-07-07T08:28:11.000Z</time>
      </trkpt>
      <trkpt lat="39.93324170820415019989013671875" lon="-0.5879470892250537872314453125">
        <ele>559.20001220703125</ele>
        <time>2019-07-07T08:28:12.000Z</time>
      </trkpt>
      <trkpt lat="39.93339241482317447662353515625" lon="-0.58828731067478656768798828125">
        <ele>561.20001220703125</ele>
        <time>2019-07-07T08:28:13.000Z</time>
      </trkpt>
      <trkpt lat="39.93353356607258319854736328125" lon="-0.58863515965640544891357421875">
        <ele>564.20001220703125</ele>
        <time>2019-07-07T08:28:14.000Z</time>
      </trkpt>
      <trkpt lat="39.93366583250463008880615234375" lon="-0.5889901332557201385498046875">
        <ele>566.5999755859375</ele>
        <time>2019-07-07T08:28:15.000Z</time>
      </trkpt>
      <trkpt lat="39.9337904714047908782958984375" lon="-0.589349381625652313232421875">
        <ele>567.79998779296875</ele>
        <time>2019-07-07T08:28:16.000Z</time>
      </trkpt>
      <trkpt lat="39.934014938771724700927734375" lon="-0.5900851450860500335693359375">
        <ele>569.5999755859375</ele>
        <time>2019-07-07T08:28:18.000Z</time>
      </trkpt>
      <trkpt lat="39.93411024101078510284423828125" lon="-0.590463168919086456298828125">
        <ele>570.79998779296875</ele>
        <time>2019-07-07T08:28:19.000Z</time>
      </trkpt>
      <trkpt lat="39.934194646775722503662109375" lon="-0.5908465571701526641845703125">
        <ele>572.4000244140625</ele>
        <time>2019-07-07T08:28:20.000Z</time>
      </trkpt>
      <trkpt lat="39.93426916189491748809814453125" lon="-0.59123388491570949554443359375">
        <ele>574</ele>
        <time>2019-07-07T08:28:21.000Z</time>
      </trkpt>
      <trkpt lat="39.93433646857738494873046875" lon="-0.59162490069866180419921875">
        <ele>575.5999755859375</ele>
        <time>2019-07-07T08:28:22.000Z</time>
      </trkpt>
      <trkpt lat="39.93445624597370624542236328125" lon="-0.59241439215838909149169921875">
        <ele>577.5999755859375</ele>
        <time>2019-07-07T08:28:24.000Z</time>
      </trkpt>
      <trkpt lat="39.93451139889657497406005859375" lon="-0.59281270019710063934326171875">
        <ele>579.20001220703125</ele>
        <time>2019-07-07T08:28:25.000Z</time>
      </trkpt>
      <trkpt lat="39.9346155859529972076416015625" lon="-0.59361116029322147369384765625">
        <ele>581</ele>
        <time>2019-07-07T08:28:27.000Z</time>
      </trkpt>
      <trkpt lat="39.93471340276300907135009765625" lon="-0.59440609999001026153564453125">
        <ele>581.4000244140625</ele>
        <time>2019-07-07T08:28:29.000Z</time>
      </trkpt>
      <trkpt lat="39.93476235307753086090087890625" lon="-0.59479937888681888580322265625">
        <ele>582.20001220703125</ele>
        <time>2019-07-07T08:28:30.000Z</time>
      </trkpt>
      <trkpt lat="39.93481080047786235809326171875" lon="-0.59519098140299320220947265625">
        <ele>583.79998779296875</ele>
        <time>2019-07-07T08:28:31.000Z</time>
      </trkpt>
      <trkpt lat="39.93491222150623798370361328125" lon="-0.59597183950245380401611328125">
        <ele>585.79998779296875</ele>
        <time>2019-07-07T08:28:33.000Z</time>
      </trkpt>
      <trkpt lat="39.9349676258862018585205078125" lon="-0.59636025689542293548583984375">
        <ele>587.5999755859375</ele>
        <time>2019-07-07T08:28:34.000Z</time>
      </trkpt>
      <trkpt lat="39.93502722121775150299072265625" lon="-0.59674750082194805145263671875">
        <ele>590.4000244140625</ele>
        <time>2019-07-07T08:28:35.000Z</time>
      </trkpt>
      <trkpt lat="39.93508991785347461700439453125" lon="-0.59713256545364856719970703125">
        <ele>592.20001220703125</ele>
        <time>2019-07-07T08:28:36.000Z</time>
      </trkpt>
      <trkpt lat="39.9352308176457881927490234375" lon="-0.59789431281387805938720703125">
        <ele>593.79998779296875</ele>
        <time>2019-07-07T08:28:38.000Z</time>
      </trkpt>
      <trkpt lat="39.935301728546619415283203125" lon="-0.59827686287462711334228515625">
        <ele>595.4000244140625</ele>
        <time>2019-07-07T08:28:39.000Z</time>
      </trkpt>
      <trkpt lat="39.9354531057178974151611328125" lon="-0.5990396998822689056396484375">
        <ele>596</ele>
        <time>2019-07-07T08:28:41.000Z</time>
      </trkpt>
      <trkpt lat="39.935611188411712646484375" lon="-0.59979683719575405120849609375">
        <ele>596</ele>
        <time>2019-07-07T08:28:43.000Z</time>
      </trkpt>
      <trkpt lat="39.93579383008182048797607421875" lon="-0.60053243301808834075927734375">
        <ele>592.20001220703125</ele>
        <time>2019-07-07T08:28:45.000Z</time>
      </trkpt>
      <trkpt lat="39.9358866177499294281005859375" lon="-0.6008954532444477081298828125">
        <ele>590.79998779296875</ele>
        <time>2019-07-07T08:28:46.000Z</time>
      </trkpt>
      <trkpt lat="39.936060123145580291748046875" lon="-0.6016122736036777496337890625">
        <ele>592.5999755859375</ele>
        <time>2019-07-07T08:28:48.000Z</time>
      </trkpt>
      <trkpt lat="39.9361454509198665618896484375" lon="-0.60196691192686557769775390625">
        <ele>596.20001220703125</ele>
        <time>2019-07-07T08:28:49.000Z</time>
      </trkpt>
      <trkpt lat="39.93623337708413600921630859375" lon="-0.6023200415074825286865234375">
        <ele>598.4000244140625</ele>
        <time>2019-07-07T08:28:50.000Z</time>
      </trkpt>
      <trkpt lat="39.93632239289581775665283203125" lon="-0.60267157852649688720703125">
        <ele>602.4000244140625</ele>
        <time>2019-07-07T08:28:51.000Z</time>
      </trkpt>
      <trkpt lat="39.93641191162168979644775390625" lon="-0.6030224449932575225830078125">
        <ele>606.4000244140625</ele>
        <time>2019-07-07T08:28:52.000Z</time>
      </trkpt>
      <trkpt lat="39.9365011788904666900634765625" lon="-0.60337255708873271942138671875">
        <ele>609.5999755859375</ele>
        <time>2019-07-07T08:28:53.000Z</time>
      </trkpt>
      <trkpt lat="39.93659220635890960693359375" lon="-0.6037214957177639007568359375">
        <ele>611.79998779296875</ele>
        <time>2019-07-07T08:28:54.000Z</time>
      </trkpt>
      <trkpt lat="39.9366849102079868316650390625" lon="-0.60407076962292194366455078125">
        <ele>613.4000244140625</ele>
        <time>2019-07-07T08:28:55.000Z</time>
      </trkpt>
      <trkpt lat="39.9368766881525516510009765625" lon="-0.6047722510993480682373046875">
        <ele>614.79998779296875</ele>
        <time>2019-07-07T08:28:57.000Z</time>
      </trkpt>
      <trkpt lat="39.936978109180927276611328125" lon="-0.60512437485158443450927734375">
        <ele>616.5999755859375</ele>
        <time>2019-07-07T08:28:58.000Z</time>
      </trkpt>
      <trkpt lat="39.93719109334051609039306640625" lon="-0.60583046637475490570068359375">
        <ele>616</ele>
        <time>2019-07-07T08:29:00.000Z</time>
      </trkpt>
      <trkpt lat="39.937416650354862213134765625" lon="-0.60653655789792537689208984375">
        <ele>618</ele>
        <time>2019-07-07T08:29:02.000Z</time>
      </trkpt>
      <trkpt lat="39.937658049166202545166015625" lon="-0.60723812319338321685791015625">
        <ele>619</ele>
        <time>2019-07-07T08:29:04.000Z</time>
      </trkpt>
      <trkpt lat="39.937909506261348724365234375" lon="-0.6079387664794921875">
        <ele>620.20001220703125</ele>
        <time>2019-07-07T08:29:06.000Z</time>
      </trkpt>
      <trkpt lat="39.93803783319890499114990234375" lon="-0.60828770510852336883544921875">
        <ele>621.4000244140625</ele>
        <time>2019-07-07T08:29:07.000Z</time>
      </trkpt>
      <trkpt lat="39.93830613791942596435546875" lon="-0.60897904448211193084716796875">
        <ele>622.79998779296875</ele>
        <time>2019-07-07T08:29:09.000Z</time>
      </trkpt>
      <trkpt lat="39.9385889433324337005615234375" lon="-0.60966141521930694580078125">
        <ele>623.5999755859375</ele>
        <time>2019-07-07T08:29:11.000Z</time>
      </trkpt>
      <trkpt lat="39.93887535296380519866943359375" lon="-0.6103245913982391357421875">
        <ele>623.79998779296875</ele>
        <time>2019-07-07T08:29:13.000Z</time>
      </trkpt>
      <trkpt lat="39.93901952169835567474365234375" lon="-0.6106456182897090911865234375">
        <ele>624.4000244140625</ele>
        <time>2019-07-07T08:29:14.000Z</time>
      </trkpt>
      <trkpt lat="39.93930903263390064239501953125" lon="-0.611268393695354461669921875">
        <ele>626</ele>
        <time>2019-07-07T08:29:16.000Z</time>
      </trkpt>
      <trkpt lat="39.93960298597812652587890625" lon="-0.61186610721051692962646484375">
        <ele>628</ele>
        <time>2019-07-07T08:29:18.000Z</time>
      </trkpt>
      <trkpt lat="39.93975142948329448699951171875" lon="-0.61216047964990139007568359375">
        <ele>629.4000244140625</ele>
        <time>2019-07-07T08:29:19.000Z</time>
      </trkpt>
      <trkpt lat="39.93990062735974788665771484375" lon="-0.61245200224220752716064453125">
        <ele>631</ele>
        <time>2019-07-07T08:29:20.000Z</time>
      </trkpt>
      <trkpt lat="39.94005301035940647125244140625" lon="-0.61273925006389617919921875">
        <ele>632.79998779296875</ele>
        <time>2019-07-07T08:29:21.000Z</time>
      </trkpt>
      <trkpt lat="39.94036381132900714874267578125" lon="-0.613304860889911651611328125">
        <ele>632.5999755859375</ele>
        <time>2019-07-07T08:29:23.000Z</time>
      </trkpt>
      <trkpt lat="39.94068232364952564239501953125" lon="-0.6138605810701847076416015625">
        <ele>634.20001220703125</ele>
        <time>2019-07-07T08:29:25.000Z</time>
      </trkpt>
      <trkpt lat="39.94084560312330722808837890625" lon="-0.61413777060806751251220703125">
        <ele>635.5999755859375</ele>
        <time>2019-07-07T08:29:26.000Z</time>
      </trkpt>
      <trkpt lat="39.941181801259517669677734375" lon="-0.614690892398357391357421875">
        <ele>636.20001220703125</ele>
        <time>2019-07-07T08:29:28.000Z</time>
      </trkpt>
      <trkpt lat="39.94135606102645397186279296875" lon="-0.614969842135906219482421875">
        <ele>637.79998779296875</ele>
        <time>2019-07-07T08:29:29.000Z</time>
      </trkpt>
      <trkpt lat="39.941535852849483489990234375" lon="-0.61525004915893077850341796875">
        <ele>639.20001220703125</ele>
        <time>2019-07-07T08:29:30.000Z</time>
      </trkpt>
      <trkpt lat="39.94190826080739498138427734375" lon="-0.6158138997852802276611328125">
        <ele>639.79998779296875</ele>
        <time>2019-07-07T08:29:32.000Z</time>
      </trkpt>
      <trkpt lat="39.9422960914671421051025390625" lon="-0.6163795106112957000732421875">
        <ele>640.4000244140625</ele>
        <time>2019-07-07T08:29:34.000Z</time>
      </trkpt>
      <trkpt lat="39.94269423186779022216796875" lon="-0.61693799681961536407470703125">
        <ele>642</ele>
        <time>2019-07-07T08:29:36.000Z</time>
      </trkpt>
      <trkpt lat="39.94289514608681201934814453125" lon="-0.61721040867269039154052734375">
        <ele>643.4000244140625</ele>
        <time>2019-07-07T08:29:37.000Z</time>
      </trkpt>
      <trkpt lat="39.943303428590297698974609375" lon="-0.61774014495313167572021484375">
        <ele>646</ele>
        <time>2019-07-07T08:29:39.000Z</time>
      </trkpt>
      <trkpt lat="39.9435087852180004119873046875" lon="-0.6180005706846714019775390625">
        <ele>647.4000244140625</ele>
        <time>2019-07-07T08:29:40.000Z</time>
      </trkpt>
      <trkpt lat="39.94371615350246429443359375" lon="-0.61825764365494251251220703125">
        <ele>649.4000244140625</ele>
        <time>2019-07-07T08:29:41.000Z</time>
      </trkpt>
      <trkpt lat="39.94392645545303821563720703125" lon="-0.618509687483310699462890625">
        <ele>650.79998779296875</ele>
        <time>2019-07-07T08:29:42.000Z</time>
      </trkpt>
      <trkpt lat="39.9441387690603733062744140625" lon="-0.61875879764556884765625">
        <ele>652.20001220703125</ele>
        <time>2019-07-07T08:29:43.000Z</time>
      </trkpt>
      <trkpt lat="39.94456934742629528045654296875" lon="-0.61925525777041912078857421875">
        <ele>653.4000244140625</ele>
        <time>2019-07-07T08:29:45.000Z</time>
      </trkpt>
      <trkpt lat="39.94501166045665740966796875" lon="-0.619742162525653839111328125">
        <ele>654.5999755859375</ele>
        <time>2019-07-07T08:29:47.000Z</time>
      </trkpt>
      <trkpt lat="39.94523696601390838623046875" lon="-0.6199810467660427093505859375">
        <ele>655.79998779296875</ele>
        <time>2019-07-07T08:29:48.000Z</time>
      </trkpt>
      <trkpt lat="39.945463277399539947509765625" lon="-0.62021682970225811004638671875">
        <ele>658.20001220703125</ele>
        <time>2019-07-07T08:29:49.000Z</time>
      </trkpt>
      <trkpt lat="39.94568916969001293182373046875" lon="-0.6204477511346340179443359375">
        <ele>660.79998779296875</ele>
        <time>2019-07-07T08:29:50.000Z</time>
      </trkpt>
      <trkpt lat="39.94591665454208850860595703125" lon="-0.62067431397736072540283203125">
        <ele>663</ele>
        <time>2019-07-07T08:29:51.000Z</time>
      </trkpt>
      <trkpt lat="39.946146570146083831787109375" lon="-0.620896853506565093994140625">
        <ele>664.5999755859375</ele>
        <time>2019-07-07T08:29:52.000Z</time>
      </trkpt>
      <trkpt lat="39.9463789165019989013671875" lon="-0.62111671082675457000732421875">
        <ele>665.79998779296875</ele>
        <time>2019-07-07T08:29:53.000Z</time>
      </trkpt>
      <trkpt lat="39.94685140438377857208251953125" lon="-0.62155055813491344451904296875">
        <ele>667</ele>
        <time>2019-07-07T08:29:55.000Z</time>
      </trkpt>
      <trkpt lat="39.94733470492064952850341796875" lon="-0.62197602353990077972412109375">
        <ele>667.79998779296875</ele>
        <time>2019-07-07T08:29:57.000Z</time>
      </trkpt>
      <trkpt lat="39.94782672263681888580322265625" lon="-0.62238774262368679046630859375">
        <ele>667.5999755859375</ele>
        <time>2019-07-07T08:29:59.000Z</time>
      </trkpt>
      <trkpt lat="39.94832477532327175140380859375" lon="-0.62278571538627147674560546875">
        <ele>666.4000244140625</ele>
        <time>2019-07-07T08:30:01.000Z</time>
      </trkpt>
      <trkpt lat="39.94857497513294219970703125" lon="-0.6229800917208194732666015625">
        <ele>665.4000244140625</ele>
        <time>2019-07-07T08:30:02.000Z</time>
      </trkpt>
      <trkpt lat="39.94907931424677371978759765625" lon="-0.62335635535418987274169921875">
        <ele>664.20001220703125</ele>
        <time>2019-07-07T08:30:04.000Z</time>
      </trkpt>
      <trkpt lat="39.9495873413980007171630859375" lon="-0.62371845357120037078857421875">
        <ele>664.5999755859375</ele>
        <time>2019-07-07T08:30:06.000Z</time>
      </trkpt>
      <trkpt lat="39.94984340853989124298095703125" lon="-0.62389179132878780364990234375">
        <ele>666</ele>
        <time>2019-07-07T08:30:07.000Z</time>
      </trkpt>
      <trkpt lat="39.95010056532919406890869140625" lon="-0.62405825592577457427978515625">
        <ele>668.4000244140625</ele>
        <time>2019-07-07T08:30:08.000Z</time>
      </trkpt>
      <trkpt lat="39.950358979403972625732421875" lon="-0.62422170303761959075927734375">
        <ele>673.79998779296875</ele>
        <time>2019-07-07T08:30:09.000Z</time>
      </trkpt>
      <trkpt lat="39.95061881840229034423828125" lon="-0.6243812106549739837646484375">
        <ele>680</ele>
        <time>2019-07-07T08:30:10.000Z</time>
      </trkpt>
      <trkpt lat="39.95088033378124237060546875" lon="-0.624539963901042938232421875">
        <ele>684</ele>
        <time>2019-07-07T08:30:11.000Z</time>
      </trkpt>
      <trkpt lat="39.951141178607940673828125" lon="-0.62469410710036754608154296875">
        <ele>686.79998779296875</ele>
        <time>2019-07-07T08:30:12.000Z</time>
      </trkpt>
      <trkpt lat="39.9514026939868927001953125" lon="-0.6248422153294086456298828125">
        <ele>690.5999755859375</ele>
        <time>2019-07-07T08:30:13.000Z</time>
      </trkpt>
      <trkpt lat="39.95193720795214176177978515625" lon="-0.6251295469701290130615234375">
        <ele>689.20001220703125</ele>
        <time>2019-07-07T08:30:15.000Z</time>
      </trkpt>
      <trkpt lat="39.95247733779251575469970703125" lon="-0.62540187500417232513427734375">
        <ele>687.20001220703125</ele>
        <time>2019-07-07T08:30:17.000Z</time>
      </trkpt>
      <trkpt lat="39.953021071851253509521484375" lon="-0.625669844448566436767578125">
        <ele>686.4000244140625</ele>
        <time>2019-07-07T08:30:19.000Z</time>
      </trkpt>
      <trkpt lat="39.9532936513423919677734375" lon="-0.6258000992238521575927734375">
        <ele>686</ele>
        <time>2019-07-07T08:30:20.000Z</time>
      </trkpt>
      <trkpt lat="39.95356614701449871063232421875" lon="-0.6259275041520595550537109375">
        <ele>687.20001220703125</ele>
        <time>2019-07-07T08:30:21.000Z</time>
      </trkpt>
      <trkpt lat="39.95384509675204753875732421875" lon="-0.626043342053890228271484375">
        <ele>689</ele>
        <time>2019-07-07T08:30:22.000Z</time>
      </trkpt>
      <trkpt lat="39.95412471704185009002685546875" lon="-0.626160018146038055419921875">
        <ele>687.4000244140625</ele>
        <time>2019-07-07T08:30:23.000Z</time>
      </trkpt>
      <trkpt lat="39.954686723649501800537109375" lon="-0.62638725154101848602294921875">
        <ele>686.4000244140625</ele>
        <time>2019-07-07T08:30:25.000Z</time>
      </trkpt>
      <trkpt lat="39.9549678526818752288818359375" lon="-0.62650124542415142059326171875">
        <ele>689</ele>
        <time>2019-07-07T08:30:26.000Z</time>
      </trkpt>
      <trkpt lat="39.95552902109920978546142578125" lon="-0.6267221085727214813232421875">
        <ele>688.20001220703125</ele>
        <time>2019-07-07T08:30:28.000Z</time>
      </trkpt>
      <trkpt lat="39.9558080546557903289794921875" lon="-0.62682512216269969940185546875">
        <ele>687.79998779296875</ele>
        <time>2019-07-07T08:30:29.000Z</time>
      </trkpt>
      <trkpt lat="39.95608608238399028778076171875" lon="-0.626925118267536163330078125">
        <ele>690.4000244140625</ele>
        <time>2019-07-07T08:30:30.000Z</time>
      </trkpt>
      <trkpt lat="39.95636335574090480804443359375" lon="-0.62702226452529430389404296875">
        <ele>694.5999755859375</ele>
        <time>2019-07-07T08:30:31.000Z</time>
      </trkpt>
      <trkpt lat="39.956640712916851043701171875" lon="-0.627116896212100982666015625">
        <ele>696.79998779296875</ele>
        <time>2019-07-07T08:30:32.000Z</time>
      </trkpt>
      <trkpt lat="39.95718880556523799896240234375" lon="-0.62730087898671627044677734375">
        <ele>699.4000244140625</ele>
        <time>2019-07-07T08:30:34.000Z</time>
      </trkpt>
      <trkpt lat="39.95746104978024959564208984375" lon="-0.62738654203712940216064453125">
        <ele>702.79998779296875</ele>
        <time>2019-07-07T08:30:35.000Z</time>
      </trkpt>
      <trkpt lat="39.95773279108107089996337890625" lon="-0.6274664215743541717529296875">
        <ele>705.20001220703125</ele>
        <time>2019-07-07T08:30:36.000Z</time>
      </trkpt>
      <trkpt lat="39.9580017663538455963134765625" lon="-0.62754713930189609527587890625">
        <ele>706.5999755859375</ele>
        <time>2019-07-07T08:30:37.000Z</time>
      </trkpt>
      <trkpt lat="39.95827090926468372344970703125" lon="-0.627627857029438018798828125">
        <ele>705.4000244140625</ele>
        <time>2019-07-07T08:30:38.000Z</time>
      </trkpt>
      <trkpt lat="39.958809278905391693115234375" lon="-0.627778060734272003173828125">
        <ele>705.20001220703125</ele>
        <time>2019-07-07T08:30:40.000Z</time>
      </trkpt>
      <trkpt lat="39.95907808654010295867919921875" lon="-0.6278489716351032257080078125">
        <ele>706.4000244140625</ele>
        <time>2019-07-07T08:30:41.000Z</time>
      </trkpt>
      <trkpt lat="39.95934697799384593963623046875" lon="-0.62791761942207813262939453125">
        <ele>707.5999755859375</ele>
        <time>2019-07-07T08:30:42.000Z</time>
      </trkpt>
      <trkpt lat="39.9596156179904937744140625" lon="-0.62798316590487957000732421875">
        <ele>706</ele>
        <time>2019-07-07T08:30:43.000Z</time>
      </trkpt>
      <trkpt lat="39.959884844720363616943359375" lon="-0.62804468907415866851806640625">
        <ele>704.5999755859375</ele>
        <time>2019-07-07T08:30:44.000Z</time>
      </trkpt>
      <trkpt lat="39.96042405255138874053955078125" lon="-0.62815315090119838714599609375">
        <ele>705.79998779296875</ele>
        <time>2019-07-07T08:30:46.000Z</time>
      </trkpt>
      <trkpt lat="39.96096300892531871795654296875" lon="-0.628260858356952667236328125">
        <ele>705.4000244140625</ele>
        <time>2019-07-07T08:30:48.000Z</time>
      </trkpt>
      <trkpt lat="39.96150464750826358795166015625" lon="-0.6283736787736415863037109375">
        <ele>704.79998779296875</ele>
        <time>2019-07-07T08:30:50.000Z</time>
      </trkpt>
      <trkpt lat="39.96177622117102146148681640625" lon="-0.62842640094459056854248046875">
        <ele>707</ele>
        <time>2019-07-07T08:30:51.000Z</time>
      </trkpt>
      <trkpt lat="39.9620478786528110504150390625" lon="-0.62847853638231754302978515625">
        <ele>708</ele>
        <time>2019-07-07T08:30:52.000Z</time>
      </trkpt>
      <trkpt lat="39.962318949401378631591796875" lon="-0.62853075563907623291015625">
        <ele>712.4000244140625</ele>
        <time>2019-07-07T08:30:53.000Z</time>
      </trkpt>
      <trkpt lat="39.96259152889251708984375" lon="-0.62858431600034236907958984375">
        <ele>716.5999755859375</ele>
        <time>2019-07-07T08:30:54.000Z</time>
      </trkpt>
      <trkpt lat="39.9628629349172115325927734375" lon="-0.62864340841770172119140625">
        <ele>719.79998779296875</ele>
        <time>2019-07-07T08:30:55.000Z</time>
      </trkpt>
      <trkpt lat="39.9631338380277156829833984375" lon="-0.6287039257586002349853515625">
        <ele>723.5999755859375</ele>
        <time>2019-07-07T08:30:56.000Z</time>
      </trkpt>
      <trkpt lat="39.9634037353098392486572265625" lon="-0.62876142561435699462890625">
        <ele>726.5999755859375</ele>
        <time>2019-07-07T08:30:57.000Z</time>
      </trkpt>
      <trkpt lat="39.9636732973158359527587890625" lon="-0.628818087279796600341796875">
        <ele>728.20001220703125</ele>
        <time>2019-07-07T08:30:58.000Z</time>
      </trkpt>
      <trkpt lat="39.96394327841699123382568359375" lon="-0.62887550331652164459228515625">
        <ele>729.20001220703125</ele>
        <time>2019-07-07T08:30:59.000Z</time>
      </trkpt>
      <trkpt lat="39.96421367861330509185791015625" lon="-0.628934763371944427490234375">
        <ele>731.4000244140625</ele>
        <time>2019-07-07T08:31:00.000Z</time>
      </trkpt>
      <trkpt lat="39.96448374353349208831787109375" lon="-0.628994442522525787353515625">
        <ele>733.4000244140625</ele>
        <time>2019-07-07T08:31:01.000Z</time>
      </trkpt>
      <trkpt lat="39.9647538922727108001708984375" lon="-0.62905286438763141632080078125">
        <ele>735.4000244140625</ele>
        <time>2019-07-07T08:31:02.000Z</time>
      </trkpt>
      <trkpt lat="39.96502496302127838134765625" lon="-0.629110448062419891357421875">
        <ele>737.20001220703125</ele>
        <time>2019-07-07T08:31:03.000Z</time>
      </trkpt>
      <trkpt lat="39.96529695577919483184814453125" lon="-0.62916853465139865875244140625">
        <ele>738.5999755859375</ele>
        <time>2019-07-07T08:31:04.000Z</time>
      </trkpt>
      <trkpt lat="39.965571127831935882568359375" lon="-0.6292266212403774261474609375">
        <ele>740</ele>
        <time>2019-07-07T08:31:05.000Z</time>
      </trkpt>
      <trkpt lat="39.96584630571305751800537109375" lon="-0.6292859651148319244384765625">
        <ele>741.20001220703125</ele>
        <time>2019-07-07T08:31:06.000Z</time>
      </trkpt>
      <trkpt lat="39.96640336699783802032470703125" lon="-0.629407502710819244384765625">
        <ele>742.20001220703125</ele>
        <time>2019-07-07T08:31:08.000Z</time>
      </trkpt>
      <trkpt lat="39.9666845798492431640625" lon="-0.6294690258800983428955078125">
        <ele>742.79998779296875</ele>
        <time>2019-07-07T08:31:09.000Z</time>
      </trkpt>
      <trkpt lat="39.9672537110745906829833984375" lon="-0.62959215603768825531005859375">
        <ele>743.20001220703125</ele>
        <time>2019-07-07T08:31:11.000Z</time>
      </trkpt>
      <trkpt lat="39.9678293801844120025634765625" lon="-0.6297184713184833526611328125">
        <ele>744.4000244140625</ele>
        <time>2019-07-07T08:31:13.000Z</time>
      </trkpt>
      <trkpt lat="39.96811981312930583953857421875" lon="-0.6297813355922698974609375">
        <ele>746</ele>
        <time>2019-07-07T08:31:14.000Z</time>
      </trkpt>
      <trkpt lat="39.96841167099773883819580078125" lon="-0.62984311021864414215087890625">
        <ele>747.79998779296875</ele>
        <time>2019-07-07T08:31:15.000Z</time>
      </trkpt>
      <trkpt lat="39.9687056243419647216796875" lon="-0.62990614213049411773681640625">
        <ele>749.79998779296875</ele>
        <time>2019-07-07T08:31:16.000Z</time>
      </trkpt>
      <trkpt lat="39.96899974532425403594970703125" lon="-0.62997043132781982421875">
        <ele>751.5999755859375</ele>
        <time>2019-07-07T08:31:17.000Z</time>
      </trkpt>
      <trkpt lat="39.96958966366946697235107421875" lon="-0.63010060228407382965087890625">
        <ele>753</ele>
        <time>2019-07-07T08:31:19.000Z</time>
      </trkpt>
      <trkpt lat="39.9701754748821258544921875" lon="-0.63025047071278095245361328125">
        <ele>752.79998779296875</ele>
        <time>2019-07-07T08:31:21.000Z</time>
      </trkpt>
      <trkpt lat="39.970755167305469512939453125" lon="-0.63043269328773021697998046875">
        <ele>753</ele>
        <time>2019-07-07T08:31:23.000Z</time>
      </trkpt>
      <trkpt lat="39.97132119722664356231689453125" lon="-0.63065665774047374725341796875">
        <ele>753.20001220703125</ele>
        <time>2019-07-07T08:31:25.000Z</time>
      </trkpt>
      <trkpt lat="39.97187909670174121856689453125" lon="-0.6309160776436328887939453125">
        <ele>753.4000244140625</ele>
        <time>2019-07-07T08:31:27.000Z</time>
      </trkpt>
      <trkpt lat="39.972421824932098388671875" lon="-0.6312029063701629638671875">
        <ele>751.79998779296875</ele>
        <time>2019-07-07T08:31:29.000Z</time>
      </trkpt>
      <trkpt lat="39.97295030392706394195556640625" lon="-0.63152787275612354278564453125">
        <ele>753</ele>
        <time>2019-07-07T08:31:31.000Z</time>
      </trkpt>
      <trkpt lat="39.97320863418281078338623046875" lon="-0.631705485284328460693359375">
        <ele>755</ele>
        <time>2019-07-07T08:31:32.000Z</time>
      </trkpt>
      <trkpt lat="39.9734611809253692626953125" lon="-0.6318962574005126953125">
        <ele>757.79998779296875</ele>
        <time>2019-07-07T08:31:33.000Z</time>
      </trkpt>
      <trkpt lat="39.9737064354121685028076171875" lon="-0.63210479915142059326171875">
        <ele>759.20001220703125</ele>
        <time>2019-07-07T08:31:34.000Z</time>
      </trkpt>
      <trkpt lat="39.97394439764320850372314453125" lon="-0.632329098880290985107421875">
        <ele>761</ele>
        <time>2019-07-07T08:31:35.000Z</time>
      </trkpt>
      <trkpt lat="39.97417666018009185791015625" lon="-0.63256622292101383209228515625">
        <ele>763.20001220703125</ele>
        <time>2019-07-07T08:31:36.000Z</time>
      </trkpt>
      <trkpt lat="39.97440272010862827301025390625" lon="-0.63281533308327198028564453125">
        <ele>765</ele>
        <time>2019-07-07T08:31:37.000Z</time>
      </trkpt>
      <trkpt lat="39.974621571600437164306640625" lon="-0.63307802192866802215576171875">
        <ele>767.20001220703125</ele>
        <time>2019-07-07T08:31:38.000Z</time>
      </trkpt>
      <trkpt lat="39.97483220882713794708251953125" lon="-0.6333545409142971038818359375">
        <ele>768.4000244140625</ele>
        <time>2019-07-07T08:31:39.000Z</time>
      </trkpt>
      <trkpt lat="39.97503505088388919830322265625" lon="-0.6336452253162860870361328125">
        <ele>769.79998779296875</ele>
        <time>2019-07-07T08:31:40.000Z</time>
      </trkpt>
      <trkpt lat="39.9752295948565006256103515625" lon="-0.63394957222044467926025390625">
        <ele>770.79998779296875</ele>
        <time>2019-07-07T08:31:41.000Z</time>
      </trkpt>
      <trkpt lat="39.9755953811109066009521484375" lon="-0.634584166109561920166015625">
        <ele>772</ele>
        <time>2019-07-07T08:31:43.000Z</time>
      </trkpt>
      <trkpt lat="39.97594289481639862060546875" lon="-0.63524440862238407135009765625">
        <ele>778</ele>
        <time>2019-07-07T08:31:45.000Z</time>
      </trkpt>
      <trkpt lat="39.97611413709819316864013671875" lon="-0.63557666726410388946533203125">
        <ele>780.79998779296875</ele>
        <time>2019-07-07T08:31:46.000Z</time>
      </trkpt>
      <trkpt lat="39.97646056115627288818359375" lon="-0.63622810877859592437744140625">
        <ele>780.5999755859375</ele>
        <time>2019-07-07T08:31:48.000Z</time>
      </trkpt>
      <trkpt lat="39.9768057279288768768310546875" lon="-0.6368689052760601043701171875">
        <ele>778.20001220703125</ele>
        <time>2019-07-07T08:31:50.000Z</time>
      </trkpt>
      <trkpt lat="39.97697529383003711700439453125" lon="-0.6371857412159442901611328125">
        <ele>774.79998779296875</ele>
        <time>2019-07-07T08:31:51.000Z</time>
      </trkpt>
      <trkpt lat="39.97714377008378505706787109375" lon="-0.63750006258487701416015625">
        <ele>772.5999755859375</ele>
        <time>2019-07-07T08:31:52.000Z</time>
      </trkpt>
      <trkpt lat="39.977476112544536590576171875" lon="-0.6381204910576343536376953125">
        <ele>774.79998779296875</ele>
        <time>2019-07-07T08:31:54.000Z</time>
      </trkpt>
      <trkpt lat="39.9776409007608890533447265625" lon="-0.63842953182756900787353515625">
        <ele>779.79998779296875</ele>
        <time>2019-07-07T08:31:55.000Z</time>
      </trkpt>
      <trkpt lat="39.97780694626271724700927734375" lon="-0.6387380696833133697509765625">
        <ele>785.5999755859375</ele>
        <time>2019-07-07T08:31:56.000Z</time>
      </trkpt>
      <trkpt lat="39.9779738299548625946044921875" lon="-0.6390478648245334625244140625">
        <ele>790.20001220703125</ele>
        <time>2019-07-07T08:31:57.000Z</time>
      </trkpt>
      <trkpt lat="39.97814054600894451141357421875" lon="-0.63936109654605388641357421875">
        <ele>793.20001220703125</ele>
        <time>2019-07-07T08:31:58.000Z</time>
      </trkpt>
      <trkpt lat="39.97830784879624843597412109375" lon="-0.63967659138143062591552734375">
        <ele>795.5999755859375</ele>
        <time>2019-07-07T08:31:59.000Z</time>
      </trkpt>
      <trkpt lat="39.97847749851644039154052734375" lon="-0.6399930082261562347412109375">
        <ele>798</ele>
        <time>2019-07-07T08:32:00.000Z</time>
      </trkpt>
      <trkpt lat="39.97864932753145694732666015625" lon="-0.64030992798507213592529296875">
        <ele>800.4000244140625</ele>
        <time>2019-07-07T08:32:01.000Z</time>
      </trkpt>
      <trkpt lat="39.97882182709872722625732421875" lon="-0.64062885940074920654296875">
        <ele>802.5999755859375</ele>
        <time>2019-07-07T08:32:02.000Z</time>
      </trkpt>
      <trkpt lat="39.97899466194212436676025390625" lon="-0.64094795845448970794677734375">
        <ele>805.4000244140625</ele>
        <time>2019-07-07T08:32:03.000Z</time>
      </trkpt>
      <trkpt lat="39.97916783206164836883544921875" lon="-0.6412677280604839324951171875">
        <ele>807.79998779296875</ele>
        <time>2019-07-07T08:32:04.000Z</time>
      </trkpt>
      <trkpt lat="39.9793424271047115325927734375" lon="-0.641587078571319580078125">
        <ele>810.79998779296875</ele>
        <time>2019-07-07T08:32:05.000Z</time>
      </trkpt>
      <trkpt lat="39.97951668687164783477783203125" lon="-0.64190584234893321990966796875">
        <ele>812.79998779296875</ele>
        <time>2019-07-07T08:32:06.000Z</time>
      </trkpt>
      <trkpt lat="39.97969103045761585235595703125" lon="-0.642225444316864013671875">
        <ele>814.20001220703125</ele>
        <time>2019-07-07T08:32:07.000Z</time>
      </trkpt>
      <trkpt lat="39.980039298534393310546875" lon="-0.64287244342267513275146484375">
        <ele>816</ele>
        <time>2019-07-07T08:32:09.000Z</time>
      </trkpt>
      <trkpt lat="39.9803868122398853302001953125" lon="-0.64352489076554775238037109375">
        <ele>815.20001220703125</ele>
        <time>2019-07-07T08:32:11.000Z</time>
      </trkpt>
      <trkpt lat="39.98056165874004364013671875" lon="-0.64384859986603260040283203125">
        <ele>813</ele>
        <time>2019-07-07T08:32:12.000Z</time>
      </trkpt>
      <trkpt lat="39.98073675669729709625244140625" lon="-0.64417063258588314056396484375">
        <ele>814</ele>
        <time>2019-07-07T08:32:13.000Z</time>
      </trkpt>
      <trkpt lat="39.980910681188106536865234375" lon="-0.6444924138486385345458984375">
        <ele>812.79998779296875</ele>
        <time>2019-07-07T08:32:14.000Z</time>
      </trkpt>
      <trkpt lat="39.98125526122748851776123046875" lon="-0.64512901939451694488525390625">
        <ele>813.5999755859375</ele>
        <time>2019-07-07T08:32:16.000Z</time>
      </trkpt>
      <trkpt lat="39.98142591677606105804443359375" lon="-0.6454442627727985382080078125">
        <ele>816.4000244140625</ele>
        <time>2019-07-07T08:32:17.000Z</time>
      </trkpt>
      <trkpt lat="39.981595985591411590576171875" lon="-0.64575799740850925445556640625">
        <ele>818.79998779296875</ele>
        <time>2019-07-07T08:32:18.000Z</time>
      </trkpt>
      <trkpt lat="39.98176488094031810760498046875" lon="-0.64607013948261737823486328125">
        <ele>822.20001220703125</ele>
        <time>2019-07-07T08:32:19.000Z</time>
      </trkpt>
      <trkpt lat="39.98193151317536830902099609375" lon="-0.64637943170964717864990234375">
        <ele>823.79998779296875</ele>
        <time>2019-07-07T08:32:20.000Z</time>
      </trkpt>
      <trkpt lat="39.9820963852107524871826171875" lon="-0.64668595790863037109375">
        <ele>827</ele>
        <time>2019-07-07T08:32:21.000Z</time>
      </trkpt>
      <trkpt lat="39.98225823976099491119384765625" lon="-0.64699047245085239410400390625">
        <ele>830.5999755859375</ele>
        <time>2019-07-07T08:32:22.000Z</time>
      </trkpt>
      <trkpt lat="39.98241850174963474273681640625" lon="-0.6472929753363132476806640625">
        <ele>831.79998779296875</ele>
        <time>2019-07-07T08:32:23.000Z</time>
      </trkpt>
      <trkpt lat="39.98257608152925968170166015625" lon="-0.64759363420307636260986328125">
        <ele>833</ele>
        <time>2019-07-07T08:32:24.000Z</time>
      </trkpt>
      <trkpt lat="39.98273081146180629730224609375" lon="-0.64789186231791973114013671875">
        <ele>835</ele>
        <time>2019-07-07T08:32:25.000Z</time>
      </trkpt>
      <trkpt lat="39.98301990330219268798828125" lon="-0.6484821997582912445068359375">
        <ele>837</ele>
        <time>2019-07-07T08:32:27.000Z</time>
      </trkpt>
      <trkpt lat="39.983249567449092864990234375" lon="-0.64908494241535663604736328125">
        <ele>838</ele>
        <time>2019-07-07T08:32:29.000Z</time>
      </trkpt>
      <trkpt lat="39.9833392538130283355712890625" lon="-0.649393983185291290283203125">
        <ele>839.5999755859375</ele>
        <time>2019-07-07T08:32:30.000Z</time>
      </trkpt>
      <trkpt lat="39.98341544531285762786865234375" lon="-0.64970486797392368316650390625">
        <ele>841.79998779296875</ele>
        <time>2019-07-07T08:32:31.000Z</time>
      </trkpt>
      <trkpt lat="39.9834797345101833343505859375" lon="-0.650015585124492645263671875">
        <ele>842.79998779296875</ele>
        <time>2019-07-07T08:32:32.000Z</time>
      </trkpt>
      <trkpt lat="39.98353128321468830108642578125" lon="-0.6503289006650447845458984375">
        <ele>844.20001220703125</ele>
        <time>2019-07-07T08:32:33.000Z</time>
      </trkpt>
      <trkpt lat="39.983568079769611358642578125" lon="-0.65064699389040470123291015625">
        <ele>845.79998779296875</ele>
        <time>2019-07-07T08:32:34.000Z</time>
      </trkpt>
      <trkpt lat="39.983590543270111083984375" lon="-0.65129860304296016693115234375">
        <ele>848</ele>
        <time>2019-07-07T08:32:36.000Z</time>
      </trkpt>
      <trkpt lat="39.98358107171952724456787109375" lon="-0.65162817947566509246826171875">
        <ele>850.20001220703125</ele>
        <time>2019-07-07T08:32:37.000Z</time>
      </trkpt>
      <trkpt lat="39.98356749303638935089111328125" lon="-0.65196043811738491058349609375">
        <ele>852.4000244140625</ele>
        <time>2019-07-07T08:32:38.000Z</time>
      </trkpt>
      <trkpt lat="39.98355072923004627227783203125" lon="-0.65229722298681735992431640625">
        <ele>853.5999755859375</ele>
        <time>2019-07-07T08:32:39.000Z</time>
      </trkpt>
      <trkpt lat="39.9835189618170261383056640625" lon="-0.65297431312501430511474609375">
        <ele>855</ele>
        <time>2019-07-07T08:32:41.000Z</time>
      </trkpt>
      <trkpt lat="39.9834854342043399810791015625" lon="-0.6536591984331607818603515625">
        <ele>857</ele>
        <time>2019-07-07T08:32:43.000Z</time>
      </trkpt>
      <trkpt lat="39.98346691019833087921142578125" lon="-0.65400461666285991668701171875">
        <ele>859.4000244140625</ele>
        <time>2019-07-07T08:32:44.000Z</time>
      </trkpt>
      <trkpt lat="39.983451068401336669921875" lon="-0.654350034892559051513671875">
        <ele>860.79998779296875</ele>
        <time>2019-07-07T08:32:45.000Z</time>
      </trkpt>
      <trkpt lat="39.9834363162517547607421875" lon="-0.6546945311129093170166015625">
        <ele>862</ele>
        <time>2019-07-07T08:32:46.000Z</time>
      </trkpt>
      <trkpt lat="39.98341812752187252044677734375" lon="-0.6550378538668155670166015625">
        <ele>864.4000244140625</ele>
        <time>2019-07-07T08:32:47.000Z</time>
      </trkpt>
      <trkpt lat="39.98339851386845111846923828125" lon="-0.65538075752556324005126953125">
        <ele>867.20001220703125</ele>
        <time>2019-07-07T08:32:48.000Z</time>
      </trkpt>
      <trkpt lat="39.983382336795330047607421875" lon="-0.6557234935462474822998046875">
        <ele>868.79998779296875</ele>
        <time>2019-07-07T08:32:49.000Z</time>
      </trkpt>
      <trkpt lat="39.98337621800601482391357421875" lon="-0.656065307557582855224609375">
        <ele>870.5999755859375</ele>
        <time>2019-07-07T08:32:50.000Z</time>
      </trkpt>
      <trkpt lat="39.98338392935693264007568359375" lon="-0.65640485845506191253662109375">
        <ele>872.79998779296875</ele>
        <time>2019-07-07T08:32:51.000Z</time>
      </trkpt>
      <trkpt lat="39.98340672813355922698974609375" lon="-0.65674231387674808502197265625">
        <ele>874.5999755859375</ele>
        <time>2019-07-07T08:32:52.000Z</time>
      </trkpt>
      <trkpt lat="39.9834416806697845458984375" lon="-0.6570763327181339263916015625">
        <ele>875.79998779296875</ele>
        <time>2019-07-07T08:32:53.000Z</time>
      </trkpt>
      <trkpt lat="39.98349037952721118927001953125" lon="-0.65740741789340972900390625">
        <ele>877</ele>
        <time>2019-07-07T08:32:54.000Z</time>
      </trkpt>
      <trkpt lat="39.9835545010864734649658203125" lon="-0.6577341444790363311767578125">
        <ele>879</ele>
        <time>2019-07-07T08:32:55.000Z</time>
      </trkpt>
      <trkpt lat="39.9836342968046665191650390625" lon="-0.6580563448369503021240234375">
        <ele>882.20001220703125</ele>
        <time>2019-07-07T08:32:56.000Z</time>
      </trkpt>
      <trkpt lat="39.9837285093963146209716796875" lon="-0.65837661735713481903076171875">
        <ele>884.5999755859375</ele>
        <time>2019-07-07T08:32:57.000Z</time>
      </trkpt>
      <trkpt lat="39.98383931815624237060546875" lon="-0.65868909470736980438232421875">
        <ele>886.4000244140625</ele>
        <time>2019-07-07T08:32:58.000Z</time>
      </trkpt>
      <trkpt lat="39.98396580107510089874267578125" lon="-0.65899469889700412750244140625">
        <ele>888.20001220703125</ele>
        <time>2019-07-07T08:32:59.000Z</time>
      </trkpt>
      <trkpt lat="39.9841077066957950592041015625" lon="-0.659291334450244903564453125">
        <ele>889.79998779296875</ele>
        <time>2019-07-07T08:33:00.000Z</time>
      </trkpt>
      <trkpt lat="39.9842632748186588287353515625" lon="-0.6595778279006481170654296875">
        <ele>892.4000244140625</ele>
        <time>2019-07-07T08:33:01.000Z</time>
      </trkpt>
      <trkpt lat="39.9844335950911045074462890625" lon="-0.6598534248769283294677734375">
        <ele>894.79998779296875</ele>
        <time>2019-07-07T08:33:02.000Z</time>
      </trkpt>
      <trkpt lat="39.98461791314184665679931640625" lon="-0.66011552698910236358642578125">
        <ele>897</ele>
        <time>2019-07-07T08:33:03.000Z</time>
      </trkpt>
      <trkpt lat="39.98481589369475841522216796875" lon="-0.66036011092364788055419921875">
        <ele>898</ele>
        <time>2019-07-07T08:33:04.000Z</time>
      </trkpt>
      <trkpt lat="39.98524638824164867401123046875" lon="-0.66080351360142230987548828125">
        <ele>899.20001220703125</ele>
        <time>2019-07-07T08:33:06.000Z</time>
      </trkpt>
      <trkpt lat="39.98571761883795261383056640625" lon="-0.66116259433329105377197265625">
        <ele>899.5999755859375</ele>
        <time>2019-07-07T08:33:08.000Z</time>
      </trkpt>
      <trkpt lat="39.98621282167732715606689453125" lon="-0.661458559334278106689453125">
        <ele>899.4000244140625</ele>
        <time>2019-07-07T08:33:10.000Z</time>
      </trkpt>
      <trkpt lat="39.98647115193307399749755859375" lon="-0.6615708768367767333984375">
        <ele>900.4000244140625</ele>
        <time>2019-07-07T08:33:11.000Z</time>
      </trkpt>
      <trkpt lat="39.9867322482168674468994140625" lon="-0.66167120821774005889892578125">
        <ele>902.4000244140625</ele>
        <time>2019-07-07T08:33:12.000Z</time>
      </trkpt>
      <trkpt lat="39.9869954399764537811279296875" lon="-0.66176441498100757598876953125">
        <ele>903.79998779296875</ele>
        <time>2019-07-07T08:33:13.000Z</time>
      </trkpt>
      <trkpt lat="39.987259805202484130859375" lon="-0.6618556939065456390380859375">
        <ele>906.20001220703125</ele>
        <time>2019-07-07T08:33:14.000Z</time>
      </trkpt>
      <trkpt lat="39.9877873621881008148193359375" lon="-0.66205568611621856689453125">
        <ele>907.4000244140625</ele>
        <time>2019-07-07T08:33:16.000Z</time>
      </trkpt>
      <trkpt lat="39.98804812319576740264892578125" lon="-0.66217931918799877166748046875">
        <ele>910.79998779296875</ele>
        <time>2019-07-07T08:33:17.000Z</time>
      </trkpt>
      <trkpt lat="39.9883077107369899749755859375" lon="-0.6623257510364055633544921875">
        <ele>914</ele>
        <time>2019-07-07T08:33:18.000Z</time>
      </trkpt>
      <trkpt lat="39.9885645322501659393310546875" lon="-0.66249732859432697296142578125">
        <ele>915</ele>
        <time>2019-07-07T08:33:19.000Z</time>
      </trkpt>
      <trkpt lat="39.98881741426885128021240234375" lon="-0.66269363276660442352294921875">
        <ele>916.20001220703125</ele>
        <time>2019-07-07T08:33:20.000Z</time>
      </trkpt>
      <trkpt lat="39.98929820023477077484130859375" lon="-0.66315715201199054718017578125">
        <ele>915.4000244140625</ele>
        <time>2019-07-07T08:33:22.000Z</time>
      </trkpt>
      <trkpt lat="39.98951713554561138153076171875" lon="-0.6634190864861011505126953125">
        <ele>914.20001220703125</ele>
        <time>2019-07-07T08:33:23.000Z</time>
      </trkpt>
      <trkpt lat="39.9897168762981891632080078125" lon="-0.66369376145303249359130859375">
        <ele>912.20001220703125</ele>
        <time>2019-07-07T08:33:24.000Z</time>
      </trkpt>
      <trkpt lat="39.98989851213991641998291015625" lon="-0.66398159600794315338134765625">
        <ele>910.20001220703125</ele>
        <time>2019-07-07T08:33:25.000Z</time>
      </trkpt>
      <trkpt lat="39.990211240947246551513671875" lon="-0.66459414549171924591064453125">
        <ele>909</ele>
        <time>2019-07-07T08:33:27.000Z</time>
      </trkpt>
      <trkpt lat="39.99034225009381771087646484375" lon="-0.66492288373410701751708984375">
        <ele>910</ele>
        <time>2019-07-07T08:33:28.000Z</time>
      </trkpt>
      <trkpt lat="39.99045691452920436859130859375" lon="-0.66526218317449092864990234375">
        <ele>911.79998779296875</ele>
        <time>2019-07-07T08:33:29.000Z</time>
      </trkpt>
      <trkpt lat="39.99055732972919940948486328125" lon="-0.66560651175677776336669921875">
        <ele>915.20001220703125</ele>
        <time>2019-07-07T08:33:30.000Z</time>
      </trkpt>
      <trkpt lat="39.99064282514154911041259765625" lon="-0.6659603118896484375">
        <ele>919</ele>
        <time>2019-07-07T08:33:31.000Z</time>
      </trkpt>
      <trkpt lat="39.99071591533720493316650390625" lon="-0.666319392621517181396484375">
        <ele>922.20001220703125</ele>
        <time>2019-07-07T08:33:32.000Z</time>
      </trkpt>
      <trkpt lat="39.990776516497135162353515625" lon="-0.66668207757174968719482421875">
        <ele>925.20001220703125</ele>
        <time>2019-07-07T08:33:33.000Z</time>
      </trkpt>
      <trkpt lat="39.9908189289271831512451171875" lon="-0.6670548208057880401611328125">
        <ele>928.20001220703125</ele>
        <time>2019-07-07T08:33:34.000Z</time>
      </trkpt>
      <trkpt lat="39.9908526241779327392578125" lon="-0.66781698726117610931396484375">
        <ele>930.20001220703125</ele>
        <time>2019-07-07T08:33:36.000Z</time>
      </trkpt>
      <trkpt lat="39.9908333458006381988525390625" lon="-0.668586194515228271484375">
        <ele>930.4000244140625</ele>
        <time>2019-07-07T08:33:38.000Z</time>
      </trkpt>
      <trkpt lat="39.990801997482776641845703125" lon="-0.6689756177365779876708984375">
        <ele>932.20001220703125</ele>
        <time>2019-07-07T08:33:39.000Z</time>
      </trkpt>
      <trkpt lat="39.9907572381198406219482421875" lon="-0.669366382062435150146484375">
        <ele>933.5999755859375</ele>
        <time>2019-07-07T08:33:40.000Z</time>
      </trkpt>
      <trkpt lat="39.99070066027343273162841796875" lon="-0.66975438036024570465087890625">
        <ele>934.79998779296875</ele>
        <time>2019-07-07T08:33:41.000Z</time>
      </trkpt>
      <trkpt lat="39.99063067138195037841796875" lon="-0.6701420433819293975830078125">
        <ele>937</ele>
        <time>2019-07-07T08:33:42.000Z</time>
      </trkpt>
      <trkpt lat="39.9905476905405521392822265625" lon="-0.67052903585135936737060546875">
        <ele>938</ele>
        <time>2019-07-07T08:33:43.000Z</time>
      </trkpt>
      <trkpt lat="39.9903565831482410430908203125" lon="-0.67130251787602901458740234375">
        <ele>939.4000244140625</ele>
        <time>2019-07-07T08:33:45.000Z</time>
      </trkpt>
      <trkpt lat="39.9901567585766315460205078125" lon="-0.67207382060587406158447265625">
        <ele>939.79998779296875</ele>
        <time>2019-07-07T08:33:47.000Z</time>
      </trkpt>
      <trkpt lat="39.98996539972722530364990234375" lon="-0.6728442013263702392578125">
        <ele>939.20001220703125</ele>
        <time>2019-07-07T08:33:49.000Z</time>
      </trkpt>
      <trkpt lat="39.9898664094507694244384765625" lon="-0.6732292659580707550048828125">
        <ele>940.79998779296875</ele>
        <time>2019-07-07T08:33:50.000Z</time>
      </trkpt>
      <trkpt lat="39.98976658098399639129638671875" lon="-0.67361198365688323974609375">
        <ele>942.4000244140625</ele>
        <time>2019-07-07T08:33:51.000Z</time>
      </trkpt>
      <trkpt lat="39.9895666725933551788330078125" lon="-0.67438454367220401763916015625">
        <ele>939.20001220703125</ele>
        <time>2019-07-07T08:33:53.000Z</time>
      </trkpt>
      <trkpt lat="39.9894657544791698455810546875" lon="-0.67477245815098285675048828125">
        <ele>938</ele>
        <time>2019-07-07T08:33:54.000Z</time>
      </trkpt>
      <trkpt lat="39.98936726711690425872802734375" lon="-0.675159282982349395751953125">
        <ele>941</ele>
        <time>2019-07-07T08:33:55.000Z</time>
      </trkpt>
      <trkpt lat="39.9891713820397853851318359375" lon="-0.67592681385576725006103515625">
        <ele>937.5999755859375</ele>
        <time>2019-07-07T08:33:57.000Z</time>
      </trkpt>
      <trkpt lat="39.9890728108584880828857421875" lon="-0.67630492150783538818359375">
        <ele>936</ele>
        <time>2019-07-07T08:33:58.000Z</time>
      </trkpt>
      <trkpt lat="39.9888703040778636932373046875" lon="-0.6770520843565464019775390625">
        <ele>938</ele>
        <time>2019-07-07T08:34:00.000Z</time>
      </trkpt>
      <trkpt lat="39.98867291025817394256591796875" lon="-0.67779312841594219207763671875">
        <ele>936.4000244140625</ele>
        <time>2019-07-07T08:34:02.000Z</time>
      </trkpt>
      <trkpt lat="39.9884810484945774078369140625" lon="-0.67853475920855998992919921875">
        <ele>937.5999755859375</ele>
        <time>2019-07-07T08:34:04.000Z</time>
      </trkpt>
      <trkpt lat="39.98838490806519985198974609375" lon="-0.67890507169067859649658203125">
        <ele>935.20001220703125</ele>
        <time>2019-07-07T08:34:05.000Z</time>
      </trkpt>
      <trkpt lat="39.9882932938635349273681640625" lon="-0.67927387543022632598876953125">
        <ele>928.79998779296875</ele>
        <time>2019-07-07T08:34:06.000Z</time>
      </trkpt>
      <trkpt lat="39.98821265995502471923828125" lon="-0.679642260074615478515625">
        <ele>921</ele>
        <time>2019-07-07T08:34:07.000Z</time>
      </trkpt>
      <trkpt lat="39.9881471134722232818603515625" lon="-0.680012069642543792724609375">
        <ele>914.5999755859375</ele>
        <time>2019-07-07T08:34:08.000Z</time>
      </trkpt>
      <trkpt lat="39.98810109682381153106689453125" lon="-0.68038363941013813018798828125">
        <ele>912.4000244140625</ele>
        <time>2019-07-07T08:34:09.000Z</time>
      </trkpt>
      <trkpt lat="39.9880738556385040283203125" lon="-0.68075470626354217529296875">
        <ele>910.79998779296875</ele>
        <time>2019-07-07T08:34:10.000Z</time>
      </trkpt>
      <trkpt lat="39.98806237243115901947021484375" lon="-0.68149390630424022674560546875">
        <ele>910.5999755859375</ele>
        <time>2019-07-07T08:34:12.000Z</time>
      </trkpt>
      <trkpt lat="39.98807444237172603607177734375" lon="-0.681862793862819671630859375">
        <ele>914.20001220703125</ele>
        <time>2019-07-07T08:34:13.000Z</time>
      </trkpt>
      <trkpt lat="39.98810268938541412353515625" lon="-0.682234279811382293701171875">
        <ele>918.4000244140625</ele>
        <time>2019-07-07T08:34:14.000Z</time>
      </trkpt>
      <trkpt lat="39.98814761638641357421875" lon="-0.6826055981218814849853515625">
        <ele>923.5999755859375</ele>
        <time>2019-07-07T08:34:15.000Z</time>
      </trkpt>
      <trkpt lat="39.988208301365375518798828125" lon="-0.68297599442303180694580078125">
        <ele>926.5999755859375</ele>
        <time>2019-07-07T08:34:16.000Z</time>
      </trkpt>
      <trkpt lat="39.9882859177887439727783203125" lon="-0.6833445467054843902587890625">
        <ele>928</ele>
        <time>2019-07-07T08:34:17.000Z</time>
      </trkpt>
      <trkpt lat="39.9884922802448272705078125" lon="-0.68405742757022380828857421875">
        <ele>927.5999755859375</ele>
        <time>2019-07-07T08:34:19.000Z</time>
      </trkpt>
      <trkpt lat="39.9886188469827175140380859375" lon="-0.684399493038654327392578125">
        <ele>926.4000244140625</ele>
        <time>2019-07-07T08:34:20.000Z</time>
      </trkpt>
      <trkpt lat="39.98875706456601619720458984375" lon="-0.6847292371094226837158203125">
        <ele>924.79998779296875</ele>
        <time>2019-07-07T08:34:21.000Z</time>
      </trkpt>
      <trkpt lat="39.9889055080711841583251953125" lon="-0.68504448048770427703857421875">
        <ele>922.4000244140625</ele>
        <time>2019-07-07T08:34:22.000Z</time>
      </trkpt>
      <trkpt lat="39.98906417749822139739990234375" lon="-0.68534824065864086151123046875">
        <ele>921.4000244140625</ele>
        <time>2019-07-07T08:34:23.000Z</time>
      </trkpt>
      <trkpt lat="39.989420659840106964111328125" lon="-0.68593698553740978240966796875">
        <ele>921.79998779296875</ele>
        <time>2019-07-07T08:34:25.000Z</time>
      </trkpt>
      <trkpt lat="39.98983405530452728271484375" lon="-0.68645783700048923492431640625">
        <ele>923</ele>
        <time>2019-07-07T08:34:27.000Z</time>
      </trkpt>
      <trkpt lat="39.99005843885242938995361328125" lon="-0.68669454194605350494384765625">
        <ele>924.5999755859375</ele>
        <time>2019-07-07T08:34:28.000Z</time>
      </trkpt>
      <trkpt lat="39.990539811551570892333984375" lon="-0.68711950443685054779052734375">
        <ele>925.20001220703125</ele>
        <time>2019-07-07T08:34:30.000Z</time>
      </trkpt>
      <trkpt lat="39.99104817397892475128173828125" lon="-0.68747087381780147552490234375">
        <ele>924.79998779296875</ele>
        <time>2019-07-07T08:34:32.000Z</time>
      </trkpt>
      <trkpt lat="39.99157757498323917388916015625" lon="-0.68774999119341373443603515625">
        <ele>923</ele>
        <time>2019-07-07T08:34:34.000Z</time>
      </trkpt>
      <trkpt lat="39.992128349840641021728515625" lon="-0.68795400671660900115966796875">
        <ele>920.4000244140625</ele>
        <time>2019-07-07T08:34:36.000Z</time>
      </trkpt>
      <trkpt lat="39.992688260972499847412109375" lon="-0.68807981908321380615234375">
        <ele>923</ele>
        <time>2019-07-07T08:34:38.000Z</time>
      </trkpt>
      <trkpt lat="39.9932617507874965667724609375" lon="-0.688134133815765380859375">
        <ele>922.79998779296875</ele>
        <time>2019-07-07T08:34:40.000Z</time>
      </trkpt>
      <trkpt lat="39.99383113346993923187255859375" lon="-0.6881131790578365325927734375">
        <ele>924.20001220703125</ele>
        <time>2019-07-07T08:34:42.000Z</time>
      </trkpt>
      <trkpt lat="39.9944110773503780364990234375" lon="-0.68805173970758914947509765625">
        <ele>923</ele>
        <time>2019-07-07T08:34:44.000Z</time>
      </trkpt>
      <trkpt lat="39.9947041086852550506591796875" lon="-0.6880186311900615692138671875">
        <ele>920.4000244140625</ele>
        <time>2019-07-07T08:34:45.000Z</time>
      </trkpt>
      <trkpt lat="39.9949968047440052032470703125" lon="-0.68798200227320194244384765625">
        <ele>917.79998779296875</ele>
        <time>2019-07-07T08:34:46.000Z</time>
      </trkpt>
      <trkpt lat="39.99528522603213787078857421875" lon="-0.6879428587853908538818359375">
        <ele>916.4000244140625</ele>
        <time>2019-07-07T08:34:47.000Z</time>
      </trkpt>
      <trkpt lat="39.9955724738538265228271484375" lon="-0.6879074871540069580078125">
        <ele>914.79998779296875</ele>
        <time>2019-07-07T08:34:48.000Z</time>
      </trkpt>
      <trkpt lat="39.99586097896099090576171875" lon="-0.6878861971199512481689453125">
        <ele>912.20001220703125</ele>
        <time>2019-07-07T08:34:49.000Z</time>
      </trkpt>
      <trkpt lat="39.9964384920895099639892578125" lon="-0.68788829259574413299560546875">
        <ele>911.79998779296875</ele>
        <time>2019-07-07T08:34:51.000Z</time>
      </trkpt>
      <trkpt lat="39.9967271648347377777099609375" lon="-0.68791058845818042755126953125">
        <ele>913.4000244140625</ele>
        <time>2019-07-07T08:34:52.000Z</time>
      </trkpt>
      <trkpt lat="39.99701675958931446075439453125" lon="-0.68794545717537403106689453125">
        <ele>917.79998779296875</ele>
        <time>2019-07-07T08:34:53.000Z</time>
      </trkpt>
      <trkpt lat="39.99730777926743030548095703125" lon="-0.68798719905316829681396484375">
        <ele>921.5999755859375</ele>
        <time>2019-07-07T08:34:54.000Z</time>
      </trkpt>
      <trkpt lat="39.99759930185973644256591796875" lon="-0.68803916685283184051513671875">
        <ele>923.4000244140625</ele>
        <time>2019-07-07T08:34:55.000Z</time>
      </trkpt>
      <trkpt lat="39.99789199791848659515380859375" lon="-0.68810538388788700103759765625">
        <ele>925</ele>
        <time>2019-07-07T08:34:56.000Z</time>
      </trkpt>
      <trkpt lat="39.99818435870110988616943359375" lon="-0.68818576633930206298828125">
        <ele>929.4000244140625</ele>
        <time>2019-07-07T08:34:57.000Z</time>
      </trkpt>
      <trkpt lat="39.99876715242862701416015625" lon="-0.68838265724480152130126953125">
        <ele>927.20001220703125</ele>
        <time>2019-07-07T08:34:59.000Z</time>
      </trkpt>
      <trkpt lat="39.99905725009739398956298828125" lon="-0.6885024346411228179931640625">
        <ele>925.79998779296875</ele>
        <time>2019-07-07T08:35:00.000Z</time>
      </trkpt>
      <trkpt lat="39.999636523425579071044921875" lon="-0.68876721896231174468994140625">
        <ele>926.4000244140625</ele>
        <time>2019-07-07T08:35:02.000Z</time>
      </trkpt>
      <trkpt lat="39.99992745928466320037841796875" lon="-0.68890199996531009674072265625">
        <ele>927</ele>
        <time>2019-07-07T08:35:03.000Z</time>
      </trkpt>
      <trkpt lat="40.00051327049732208251953125" lon="-0.68918220698833465576171875">
        <ele>928</ele>
        <time>2019-07-07T08:35:05.000Z</time>
      </trkpt>
      <trkpt lat="40.00080554746091365814208984375" lon="-0.6893245317041873931884765625">
        <ele>928.79998779296875</ele>
        <time>2019-07-07T08:35:06.000Z</time>
      </trkpt>
      <trkpt lat="40.001095645129680633544921875" lon="-0.6894631683826446533203125">
        <ele>929.79998779296875</ele>
        <time>2019-07-07T08:35:07.000Z</time>
      </trkpt>
      <trkpt lat="40.00138641335070133209228515625" lon="-0.6895930878818035125732421875">
        <ele>931.20001220703125</ele>
        <time>2019-07-07T08:35:08.000Z</time>
      </trkpt>
      <trkpt lat="40.00198001973330974578857421875" lon="-0.68981797434389591217041015625">
        <ele>932.79998779296875</ele>
        <time>2019-07-07T08:35:10.000Z</time>
      </trkpt>
      <trkpt lat="40.00258100219070911407470703125" lon="-0.69001578725874423980712890625">
        <ele>935</ele>
        <time>2019-07-07T08:35:12.000Z</time>
      </trkpt>
      <trkpt lat="40.0031822361052036285400390625" lon="-0.6901664100587368011474609375">
        <ele>935.20001220703125</ele>
        <time>2019-07-07T08:35:14.000Z</time>
      </trkpt>
      <trkpt lat="40.0034826435148715972900390625" lon="-0.69022499956190586090087890625">
        <ele>934</ele>
        <time>2019-07-07T08:35:15.000Z</time>
      </trkpt>
      <trkpt lat="40.00408924184739589691162109375" lon="-0.690313763916492462158203125">
        <ele>934.20001220703125</ele>
        <time>2019-07-07T08:35:17.000Z</time>
      </trkpt>
      <trkpt lat="40.00469642691314220428466796875" lon="-0.6903477944433689117431640625">
        <ele>933.5999755859375</ele>
        <time>2019-07-07T08:35:19.000Z</time>
      </trkpt>
      <trkpt lat="40.005302019417285919189453125" lon="-0.6903384067118167877197265625">
        <ele>932.5999755859375</ele>
        <time>2019-07-07T08:35:21.000Z</time>
      </trkpt>
      <trkpt lat="40.0059137307107448577880859375" lon="-0.6902941502630710601806640625">
        <ele>934.5999755859375</ele>
        <time>2019-07-07T08:35:23.000Z</time>
      </trkpt>
      <trkpt lat="40.00653885304927825927734375" lon="-0.690227262675762176513671875">
        <ele>932.4000244140625</ele>
        <time>2019-07-07T08:35:25.000Z</time>
      </trkpt>
      <trkpt lat="40.0071569345891475677490234375" lon="-0.6901533342897891998291015625">
        <ele>931.79998779296875</ele>
        <time>2019-07-07T08:35:27.000Z</time>
      </trkpt>
      <trkpt lat="40.00776789151132106781005859375" lon="-0.69008083082735538482666015625">
        <ele>934.5999755859375</ele>
        <time>2019-07-07T08:35:29.000Z</time>
      </trkpt>
      <trkpt lat="40.00807349570095539093017578125" lon="-0.6900457106530666351318359375">
        <ele>933.4000244140625</ele>
        <time>2019-07-07T08:35:30.000Z</time>
      </trkpt>
      <trkpt lat="40.00868503935635089874267578125" lon="-0.6899773143231868743896484375">
        <ele>933</ele>
        <time>2019-07-07T08:35:32.000Z</time>
      </trkpt>
      <trkpt lat="40.00929792411625385284423828125" lon="-0.6899233348667621612548828125">
        <ele>931.5999755859375</ele>
        <time>2019-07-07T08:35:34.000Z</time>
      </trkpt>
      <trkpt lat="40.00960537232458591461181640625" lon="-0.68990279920399188995361328125">
        <ele>930.20001220703125</ele>
        <time>2019-07-07T08:35:35.000Z</time>
      </trkpt>
      <trkpt lat="40.0099132396280765533447265625" lon="-0.6898857839405536651611328125">
        <ele>928.79998779296875</ele>
        <time>2019-07-07T08:35:36.000Z</time>
      </trkpt>
      <trkpt lat="40.01053039915859699249267578125" lon="-0.68986876867711544036865234375">
        <ele>928.79998779296875</ele>
        <time>2019-07-07T08:35:38.000Z</time>
      </trkpt>
      <trkpt lat="40.01084019429981708526611328125" lon="-0.68986893631517887115478515625">
        <ele>927.79998779296875</ele>
        <time>2019-07-07T08:35:39.000Z</time>
      </trkpt>
      <trkpt lat="40.0114591978490352630615234375" lon="-0.68989123217761516571044921875">
        <ele>928.4000244140625</ele>
        <time>2019-07-07T08:35:41.000Z</time>
      </trkpt>
      <trkpt lat="40.011767484247684478759765625" lon="-0.68991503678262233734130859375">
        <ele>929.5999755859375</ele>
        <time>2019-07-07T08:35:42.000Z</time>
      </trkpt>
      <trkpt lat="40.01237927936017513275146484375" lon="-0.68998795934021472930908203125">
        <ele>931</ele>
        <time>2019-07-07T08:35:44.000Z</time>
      </trkpt>
      <trkpt lat="40.0129796750843524932861328125" lon="-0.69009440951049327850341796875">
        <ele>932.5999755859375</ele>
        <time>2019-07-07T08:35:46.000Z</time>
      </trkpt>
      <trkpt lat="40.0132774002850055694580078125" lon="-0.69015576504170894622802734375">
        <ele>934.20001220703125</ele>
        <time>2019-07-07T08:35:47.000Z</time>
      </trkpt>
      <trkpt lat="40.01386530697345733642578125" lon="-0.69030110724270343780517578125">
        <ele>937.5999755859375</ele>
        <time>2019-07-07T08:35:49.000Z</time>
      </trkpt>
      <trkpt lat="40.01415808685123920440673828125" lon="-0.69038308225572109222412109375">
        <ele>940.79998779296875</ele>
        <time>2019-07-07T08:35:50.000Z</time>
      </trkpt>
      <trkpt lat="40.0144501961767673492431640625" lon="-0.69047478027641773223876953125">
        <ele>944.5999755859375</ele>
        <time>2019-07-07T08:35:51.000Z</time>
      </trkpt>
      <trkpt lat="40.01473979093134403228759765625" lon="-0.69057829678058624267578125">
        <ele>946.4000244140625</ele>
        <time>2019-07-07T08:35:52.000Z</time>
      </trkpt>
      <trkpt lat="40.01502863131463527679443359375" lon="-0.690687932074069976806640625">
        <ele>948.20001220703125</ele>
        <time>2019-07-07T08:35:53.000Z</time>
      </trkpt>
      <trkpt lat="40.015604384243488311767578125" lon="-0.69092698395252227783203125">
        <ele>947</ele>
        <time>2019-07-07T08:35:55.000Z</time>
      </trkpt>
      <trkpt lat="40.0161701627075672149658203125" lon="-0.691204257309436798095703125">
        <ele>945.4000244140625</ele>
        <time>2019-07-07T08:35:57.000Z</time>
      </trkpt>
      <trkpt lat="40.016449950635433197021484375" lon="-0.691357813775539398193359375">
        <ele>943.20001220703125</ele>
        <time>2019-07-07T08:35:58.000Z</time>
      </trkpt>
      <trkpt lat="40.0167287327349185943603515625" lon="-0.69151966832578182220458984375">
        <ele>940.20001220703125</ele>
        <time>2019-07-07T08:35:59.000Z</time>
      </trkpt>
      <trkpt lat="40.01700608991086483001708984375" lon="-0.69168915040791034698486328125">
        <ele>937.5999755859375</ele>
        <time>2019-07-07T08:36:00.000Z</time>
      </trkpt>
      <trkpt lat="40.01728378236293792724609375" lon="-0.6918664276599884033203125">
        <ele>936.20001220703125</ele>
        <time>2019-07-07T08:36:01.000Z</time>
      </trkpt>
      <trkpt lat="40.017560385167598724365234375" lon="-0.6920526735484600067138671875">
        <ele>932.5999755859375</ele>
        <time>2019-07-07T08:36:02.000Z</time>
      </trkpt>
      <trkpt lat="40.0178361497819423675537109375" lon="-0.69224755279719829559326171875">
        <ele>929</ele>
        <time>2019-07-07T08:36:03.000Z</time>
      </trkpt>
      <trkpt lat="40.01810898073017597198486328125" lon="-0.6924486346542835235595703125">
        <ele>927.20001220703125</ele>
        <time>2019-07-07T08:36:04.000Z</time>
      </trkpt>
      <trkpt lat="40.01837451942265033721923828125" lon="-0.692653991281986236572265625">
        <ele>928.5999755859375</ele>
        <time>2019-07-07T08:36:05.000Z</time>
      </trkpt>
      <trkpt lat="40.0186317600309848785400390625" lon="-0.69286395795643329620361328125">
        <ele>930</ele>
        <time>2019-07-07T08:36:06.000Z</time>
      </trkpt>
      <trkpt lat="40.01912754960358142852783203125" lon="-0.69330149330198764801025390625">
        <ele>930</ele>
        <time>2019-07-07T08:36:08.000Z</time>
      </trkpt>
      <trkpt lat="40.01960213296115398406982421875" lon="-0.6937609054148197174072265625">
        <ele>932</ele>
        <time>2019-07-07T08:36:10.000Z</time>
      </trkpt>
      <trkpt lat="40.019833557307720184326171875" lon="-0.694000460207462310791015625">
        <ele>934.4000244140625</ele>
        <time>2019-07-07T08:36:11.000Z</time>
      </trkpt>
      <trkpt lat="40.02028944902122020721435546875" lon="-0.69449591450393199920654296875">
        <ele>932.20001220703125</ele>
        <time>2019-07-07T08:36:13.000Z</time>
      </trkpt>
      <trkpt lat="40.0205119885504245758056640625" lon="-0.694750808179378509521484375">
        <ele>930</ele>
        <time>2019-07-07T08:36:14.000Z</time>
      </trkpt>
      <trkpt lat="40.0207302533090114593505859375" lon="-0.695011317729949951171875">
        <ele>926.20001220703125</ele>
        <time>2019-07-07T08:36:15.000Z</time>
      </trkpt>
      <trkpt lat="40.02094508148729801177978515625" lon="-0.69527350366115570068359375">
        <ele>921.20001220703125</ele>
        <time>2019-07-07T08:36:16.000Z</time>
      </trkpt>
      <trkpt lat="40.02115664072334766387939453125" lon="-0.695534683763980865478515625">
        <ele>916.4000244140625</ele>
        <time>2019-07-07T08:36:17.000Z</time>
      </trkpt>
      <trkpt lat="40.021365098655223846435546875" lon="-0.6957953609526157379150390625">
        <ele>911.79998779296875</ele>
        <time>2019-07-07T08:36:18.000Z</time>
      </trkpt>
      <trkpt lat="40.02156995236873626708984375" lon="-0.696055702865123748779296875">
        <ele>909.4000244140625</ele>
        <time>2019-07-07T08:36:19.000Z</time>
      </trkpt>
      <trkpt lat="40.02177136950194835662841796875" lon="-0.696317218244075775146484375">
        <ele>908.20001220703125</ele>
        <time>2019-07-07T08:36:20.000Z</time>
      </trkpt>
      <trkpt lat="40.02197052352130413055419921875" lon="-0.6965802423655986785888671875">
        <ele>909.5999755859375</ele>
        <time>2019-07-07T08:36:21.000Z</time>
      </trkpt>
      <trkpt lat="40.0221672467887401580810546875" lon="-0.69684259593486785888671875">
        <ele>912.20001220703125</ele>
        <time>2019-07-07T08:36:22.000Z</time>
      </trkpt>
      <trkpt lat="40.02236162312328815460205078125" lon="-0.6971046142280101776123046875">
        <ele>914.4000244140625</ele>
        <time>2019-07-07T08:36:23.000Z</time>
      </trkpt>
      <trkpt lat="40.02255256287753582000732421875" lon="-0.69736654870212078094482421875">
        <ele>916</ele>
        <time>2019-07-07T08:36:24.000Z</time>
      </trkpt>
      <trkpt lat="40.0229229591786861419677734375" lon="-0.69788404740393161773681640625">
        <ele>917.4000244140625</ele>
        <time>2019-07-07T08:36:26.000Z</time>
      </trkpt>
      <trkpt lat="40.023283548653125762939453125" lon="-0.698394589126110076904296875">
        <ele>916.79998779296875</ele>
        <time>2019-07-07T08:36:28.000Z</time>
      </trkpt>
      <trkpt lat="40.02364723943173885345458984375" lon="-0.6989040412008762359619140625">
        <ele>915.5999755859375</ele>
        <time>2019-07-07T08:36:30.000Z</time>
      </trkpt>
      <trkpt lat="40.02383382059633731842041015625" lon="-0.69915809668600559234619140625">
        <ele>914.20001220703125</ele>
        <time>2019-07-07T08:36:31.000Z</time>
      </trkpt>
      <trkpt lat="40.02421603538095951080322265625" lon="-0.6996734999120235443115234375">
        <ele>912.20001220703125</ele>
        <time>2019-07-07T08:36:33.000Z</time>
      </trkpt>
      <trkpt lat="40.02460881136357784271240234375" lon="-0.7001847960054874420166015625">
        <ele>911.4000244140625</ele>
        <time>2019-07-07T08:36:35.000Z</time>
      </trkpt>
      <trkpt lat="40.02500477246940135955810546875" lon="-0.7006997801363468170166015625">
        <ele>911</ele>
        <time>2019-07-07T08:36:37.000Z</time>
      </trkpt>
      <trkpt lat="40.0252065248787403106689453125" lon="-0.70095836184918880462646484375">
        <ele>909.20001220703125</ele>
        <time>2019-07-07T08:36:38.000Z</time>
      </trkpt>
      <trkpt lat="40.0254093669354915618896484375" lon="-0.70121325552463531494140625">
        <ele>905.79998779296875</ele>
        <time>2019-07-07T08:36:39.000Z</time>
      </trkpt>
      <trkpt lat="40.02561246044933795928955078125" lon="-0.70146429352462291717529296875">
        <ele>903.79998779296875</ele>
        <time>2019-07-07T08:36:40.000Z</time>
      </trkpt>
      <trkpt lat="40.02581496722996234893798828125" lon="-0.70171189494431018829345703125">
        <ele>899.79998779296875</ele>
        <time>2019-07-07T08:36:41.000Z</time>
      </trkpt>
      <trkpt lat="40.02601780928671360015869140625" lon="-0.7019568979740142822265625">
        <ele>897.79998779296875</ele>
        <time>2019-07-07T08:36:42.000Z</time>
      </trkpt>
      <trkpt lat="40.0262217409908771514892578125" lon="-0.70219938643276691436767578125">
        <ele>895.4000244140625</ele>
        <time>2019-07-07T08:36:43.000Z</time>
      </trkpt>
      <trkpt lat="40.02663605846464633941650390625" lon="-0.70268176496028900146484375">
        <ele>894.79998779296875</ele>
        <time>2019-07-07T08:36:45.000Z</time>
      </trkpt>
      <trkpt lat="40.02705783583223819732666015625" lon="-0.70316028781235218048095703125">
        <ele>894.5999755859375</ele>
        <time>2019-07-07T08:36:47.000Z</time>
      </trkpt>
      <trkpt lat="40.0272716581821441650390625" lon="-0.70339858531951904296875">
        <ele>893.5999755859375</ele>
        <time>2019-07-07T08:36:48.000Z</time>
      </trkpt>
      <trkpt lat="40.02770341001451015472412109375" lon="-0.70387476123869419097900390625">
        <ele>892.5999755859375</ele>
        <time>2019-07-07T08:36:50.000Z</time>
      </trkpt>
      <trkpt lat="40.02792276442050933837890625" lon="-0.70411129854619503021240234375">
        <ele>891.4000244140625</ele>
        <time>2019-07-07T08:36:51.000Z</time>
      </trkpt>
      <trkpt lat="40.0283701904118061065673828125" lon="-0.70458303205668926239013671875">
        <ele>890.5999755859375</ele>
        <time>2019-07-07T08:36:53.000Z</time>
      </trkpt>
      <trkpt lat="40.0288273394107818603515625" lon="-0.70505728013813495635986328125">
        <ele>891.5999755859375</ele>
        <time>2019-07-07T08:36:55.000Z</time>
      </trkpt>
      <trkpt lat="40.02929345704615116119384765625" lon="-0.70553421042859554290771484375">
        <ele>893.4000244140625</ele>
        <time>2019-07-07T08:36:57.000Z</time>
      </trkpt>
      <trkpt lat="40.02953083254396915435791015625" lon="-0.70577175356447696685791015625">
        <ele>894.5999755859375</ele>
        <time>2019-07-07T08:36:58.000Z</time>
      </trkpt>
      <trkpt lat="40.03000994212925434112548828125" lon="-0.7062496058642864227294921875">
        <ele>895.79998779296875</ele>
        <time>2019-07-07T08:37:00.000Z</time>
      </trkpt>
      <trkpt lat="40.03049525432288646697998046875" lon="-0.70672863163053989410400390625">
        <ele>895</ele>
        <time>2019-07-07T08:37:02.000Z</time>
      </trkpt>
      <trkpt lat="40.03074184991419315338134765625" lon="-0.7069667614996433258056640625">
        <ele>892.5999755859375</ele>
        <time>2019-07-07T08:37:03.000Z</time>
      </trkpt>
      <trkpt lat="40.03099146299064159393310546875" lon="-0.7072021253407001495361328125">
        <ele>890.79998779296875</ele>
        <time>2019-07-07T08:37:04.000Z</time>
      </trkpt>
      <trkpt lat="40.03124241717159748077392578125" lon="-0.70743438787758350372314453125">
        <ele>889.20001220703125</ele>
        <time>2019-07-07T08:37:05.000Z</time>
      </trkpt>
      <trkpt lat="40.0317442417144775390625" lon="-0.70788566954433917999267578125">
        <ele>888</ele>
        <time>2019-07-07T08:37:07.000Z</time>
      </trkpt>
      <trkpt lat="40.03224992193281650543212890625" lon="-0.7083135657012462615966796875">
        <ele>889</ele>
        <time>2019-07-07T08:37:09.000Z</time>
      </trkpt>
      <trkpt lat="40.03275736235082149505615234375" lon="-0.70872033946216106414794921875">
        <ele>890.20001220703125</ele>
        <time>2019-07-07T08:37:11.000Z</time>
      </trkpt>
      <trkpt lat="40.03326262347400188446044921875" lon="-0.709118731319904327392578125">
        <ele>890.20001220703125</ele>
        <time>2019-07-07T08:37:13.000Z</time>
      </trkpt>
      <trkpt lat="40.0335123203694820404052734375" lon="-0.70931679569184780120849609375">
        <ele>888.5999755859375</ele>
        <time>2019-07-07T08:37:14.000Z</time>
      </trkpt>
      <trkpt lat="40.03376134671270847320556640625" lon="-0.70951108820736408233642578125">
        <ele>887</ele>
        <time>2019-07-07T08:37:15.000Z</time>
      </trkpt>
      <trkpt lat="40.03400827758014202117919921875" lon="-0.70970085449516773223876953125">
        <ele>884</ele>
        <time>2019-07-07T08:37:16.000Z</time>
      </trkpt>
      <trkpt lat="40.0342495925724506378173828125" lon="-0.7098893634974956512451171875">
        <ele>880.5999755859375</ele>
        <time>2019-07-07T08:37:17.000Z</time>
      </trkpt>
      <trkpt lat="40.03448990173637866973876953125" lon="-0.710073597729206085205078125">
        <ele>879</ele>
        <time>2019-07-07T08:37:18.000Z</time>
      </trkpt>
      <trkpt lat="40.0347335636615753173828125" lon="-0.71025003679096698760986328125">
        <ele>880</ele>
        <time>2019-07-07T08:37:19.000Z</time>
      </trkpt>
      <trkpt lat="40.034977309405803680419921875" lon="-0.7104264758527278900146484375">
        <ele>882.5999755859375</ele>
        <time>2019-07-07T08:37:20.000Z</time>
      </trkpt>
      <trkpt lat="40.03522046841681003570556640625" lon="-0.710604004561901092529296875">
        <ele>888</ele>
        <time>2019-07-07T08:37:21.000Z</time>
      </trkpt>
      <trkpt lat="40.03546505235135555267333984375" lon="-0.71078044362366199493408203125">
        <ele>894.79998779296875</ele>
        <time>2019-07-07T08:37:22.000Z</time>
      </trkpt>
      <trkpt lat="40.0357117317616939544677734375" lon="-0.7109552063047885894775390625">
        <ele>898.20001220703125</ele>
        <time>2019-07-07T08:37:23.000Z</time>
      </trkpt>
      <trkpt lat="40.03596075810492038726806640625" lon="-0.71112846024334430694580078125">
        <ele>900</ele>
        <time>2019-07-07T08:37:24.000Z</time>
      </trkpt>
      <trkpt lat="40.0364640913903713226318359375" lon="-0.71147748269140720367431640625">
        <ele>901.4000244140625</ele>
        <time>2019-07-07T08:37:26.000Z</time>
      </trkpt>
      <trkpt lat="40.0369758903980255126953125" lon="-0.71182332001626491546630859375">
        <ele>899.79998779296875</ele>
        <time>2019-07-07T08:37:28.000Z</time>
      </trkpt>
      <trkpt lat="40.0372348912060260772705078125" lon="-0.71199464611709117889404296875">
        <ele>897.5999755859375</ele>
        <time>2019-07-07T08:37:29.000Z</time>
      </trkpt>
      <trkpt lat="40.0374954007565975189208984375" lon="-0.71216496638953685760498046875">
        <ele>896.5999755859375</ele>
        <time>2019-07-07T08:37:30.000Z</time>
      </trkpt>
      <trkpt lat="40.03802220337092876434326171875" lon="-0.71249973960220813751220703125">
        <ele>896.4000244140625</ele>
        <time>2019-07-07T08:37:32.000Z</time>
      </trkpt>
      <trkpt lat="40.038558058440685272216796875" lon="-0.7128278911113739013671875">
        <ele>898.5999755859375</ele>
        <time>2019-07-07T08:37:34.000Z</time>
      </trkpt>
      <trkpt lat="40.039101205766201019287109375" lon="-0.71314799599349498748779296875">
        <ele>899.79998779296875</ele>
        <time>2019-07-07T08:37:36.000Z</time>
      </trkpt>
      <trkpt lat="40.0393764674663543701171875" lon="-0.71330473758280277252197265625">
        <ele>898.5999755859375</ele>
        <time>2019-07-07T08:37:37.000Z</time>
      </trkpt>
      <trkpt lat="40.03965382464230060577392578125" lon="-0.7134573720395565032958984375">
        <ele>897</ele>
        <time>2019-07-07T08:37:38.000Z</time>
      </trkpt>
      <trkpt lat="40.03993369638919830322265625" lon="-0.71360698901116847991943359375">
        <ele>895.20001220703125</ele>
        <time>2019-07-07T08:37:39.000Z</time>
      </trkpt>
      <trkpt lat="40.04021692089736461639404296875" lon="-0.713754594326019287109375">
        <ele>893.4000244140625</ele>
        <time>2019-07-07T08:37:40.000Z</time>
      </trkpt>
      <trkpt lat="40.04049964249134063720703125" lon="-0.7138996012508869171142578125">
        <ele>891.5999755859375</ele>
        <time>2019-07-07T08:37:41.000Z</time>
      </trkpt>
      <trkpt lat="40.04078387282788753509521484375" lon="-0.7140397466719150543212890625">
        <ele>889.5999755859375</ele>
        <time>2019-07-07T08:37:42.000Z</time>
      </trkpt>
      <trkpt lat="40.04106961190700531005859375" lon="-0.714176706969738006591796875">
        <ele>883.4000244140625</ele>
        <time>2019-07-07T08:37:43.000Z</time>
      </trkpt>
      <trkpt lat="40.04135602153837680816650390625" lon="-0.7143084704875946044921875">
        <ele>880.79998779296875</ele>
        <time>2019-07-07T08:37:44.000Z</time>
      </trkpt>
      <trkpt lat="40.04164352081716060638427734375" lon="-0.71443654596805572509765625">
        <ele>879.4000244140625</ele>
        <time>2019-07-07T08:37:45.000Z</time>
      </trkpt>
      <trkpt lat="40.04193135537207126617431640625" lon="-0.71456135250627994537353515625">
        <ele>876.20001220703125</ele>
        <time>2019-07-07T08:37:46.000Z</time>
      </trkpt>
      <trkpt lat="40.04221893846988677978515625" lon="-0.71468205191195011138916015625">
        <ele>873.5999755859375</ele>
        <time>2019-07-07T08:37:47.000Z</time>
      </trkpt>
      <trkpt lat="40.0425050966441631317138671875" lon="-0.71479939855635166168212890625">
        <ele>874.79998779296875</ele>
        <time>2019-07-07T08:37:48.000Z</time>
      </trkpt>
      <trkpt lat="40.04306408576667308807373046875" lon="-0.715018920600414276123046875">
        <ele>876.79998779296875</ele>
        <time>2019-07-07T08:37:50.000Z</time>
      </trkpt>
      <trkpt lat="40.0436088256537914276123046875" lon="-0.71521304547786712646484375">
        <ele>875.20001220703125</ele>
        <time>2019-07-07T08:37:52.000Z</time>
      </trkpt>
      <trkpt lat="40.0441553257405757904052734375" lon="-0.71539769880473613739013671875">
        <ele>875.20001220703125</ele>
        <time>2019-07-07T08:37:54.000Z</time>
      </trkpt>
      <trkpt lat="40.04443041980266571044921875" lon="-0.71548663079738616943359375">
        <ele>876.5999755859375</ele>
        <time>2019-07-07T08:37:55.000Z</time>
      </trkpt>
      <trkpt lat="40.04470777697861194610595703125" lon="-0.715574808418750762939453125">
        <ele>879.20001220703125</ele>
        <time>2019-07-07T08:37:56.000Z</time>
      </trkpt>
      <trkpt lat="40.04498563706874847412109375" lon="-0.7156598009169101715087890625">
        <ele>881.79998779296875</ele>
        <time>2019-07-07T08:37:57.000Z</time>
      </trkpt>
      <trkpt lat="40.0452647544443607330322265625" lon="-0.7157399319112300872802734375">
        <ele>883.20001220703125</ele>
        <time>2019-07-07T08:37:58.000Z</time>
      </trkpt>
      <trkpt lat="40.04554395563900470733642578125" lon="-0.71581654250621795654296875">
        <ele>886.5999755859375</ele>
        <time>2019-07-07T08:37:59.000Z</time>
      </trkpt>
      <trkpt lat="40.04582357592880725860595703125" lon="-0.7158901356160640716552734375">
        <ele>888.79998779296875</ele>
        <time>2019-07-07T08:38:00.000Z</time>
      </trkpt>
      <trkpt lat="40.04610219039022922515869140625" lon="-0.7159605436027050018310546875">
        <ele>893.20001220703125</ele>
        <time>2019-07-07T08:38:01.000Z</time>
      </trkpt>
      <trkpt lat="40.0463808886706829071044921875" lon="-0.71602667681872844696044921875">
        <ele>896.4000244140625</ele>
        <time>2019-07-07T08:38:02.000Z</time>
      </trkpt>
      <trkpt lat="40.04666067659854888916015625" lon="-0.7160876132547855377197265625">
        <ele>897.79998779296875</ele>
        <time>2019-07-07T08:38:03.000Z</time>
      </trkpt>
      <trkpt lat="40.047223269939422607421875" lon="-0.7162002660334110260009765625">
        <ele>898</ele>
        <time>2019-07-07T08:38:05.000Z</time>
      </trkpt>
      <trkpt lat="40.0477907247841358184814453125" lon="-0.7163031958043575286865234375">
        <ele>897.79998779296875</ele>
        <time>2019-07-07T08:38:07.000Z</time>
      </trkpt>
      <trkpt lat="40.0480773858726024627685546875" lon="-0.71635172702372074127197265625">
        <ele>896.4000244140625</ele>
        <time>2019-07-07T08:38:08.000Z</time>
      </trkpt>
      <trkpt lat="40.04836656153202056884765625" lon="-0.71639833040535449981689453125">
        <ele>894</ele>
        <time>2019-07-07T08:38:09.000Z</time>
      </trkpt>
      <trkpt lat="40.04894885234534740447998046875" lon="-0.71648038923740386962890625">
        <ele>895.79998779296875</ele>
        <time>2019-07-07T08:38:11.000Z</time>
      </trkpt>
      <trkpt lat="40.04924297332763671875" lon="-0.7165150903165340423583984375">
        <ele>897.4000244140625</ele>
        <time>2019-07-07T08:38:12.000Z</time>
      </trkpt>
      <trkpt lat="40.04983347840607166290283203125" lon="-0.7165722548961639404296875">
        <ele>897.4000244140625</ele>
        <time>2019-07-07T08:38:14.000Z</time>
      </trkpt>
      <trkpt lat="40.05041778087615966796875" lon="-0.7166205346584320068359375">
        <ele>897.79998779296875</ele>
        <time>2019-07-07T08:38:16.000Z</time>
      </trkpt>
      <trkpt lat="40.0507072918117046356201171875" lon="-0.7166461832821369171142578125">
        <ele>898.4000244140625</ele>
        <time>2019-07-07T08:38:17.000Z</time>
      </trkpt>
      <trkpt lat="40.05099537782371044158935546875" lon="-0.7166669704020023345947265625">
        <ele>896.5999755859375</ele>
        <time>2019-07-07T08:38:18.000Z</time>
      </trkpt>
      <trkpt lat="40.05128212273120880126953125" lon="-0.71668465621769428253173828125">
        <ele>893.5999755859375</ele>
        <time>2019-07-07T08:38:19.000Z</time>
      </trkpt>
      <trkpt lat="40.05156819708645343780517578125" lon="-0.71670041419565677642822265625">
        <ele>889.5999755859375</ele>
        <time>2019-07-07T08:38:20.000Z</time>
      </trkpt>
      <trkpt lat="40.0518529303371906280517578125" lon="-0.71671466343104839324951171875">
        <ele>888</ele>
        <time>2019-07-07T08:38:21.000Z</time>
      </trkpt>
      <trkpt lat="40.0524245761334896087646484375" lon="-0.716728158295154571533203125">
        <ele>887.5999755859375</ele>
        <time>2019-07-07T08:38:23.000Z</time>
      </trkpt>
      <trkpt lat="40.05270897410809993743896484375" lon="-0.7167278230190277099609375">
        <ele>886.4000244140625</ele>
        <time>2019-07-07T08:38:24.000Z</time>
      </trkpt>
      <trkpt lat="40.0532802008092403411865234375" lon="-0.7167226262390613555908203125">
        <ele>887</ele>
        <time>2019-07-07T08:38:26.000Z</time>
      </trkpt>
      <trkpt lat="40.0535666942596435546875" lon="-0.71672405116260051727294921875">
        <ele>888.5999755859375</ele>
        <time>2019-07-07T08:38:27.000Z</time>
      </trkpt>
      <trkpt lat="40.05385410971939563751220703125" lon="-0.71672581136226654052734375">
        <ele>890</ele>
        <time>2019-07-07T08:38:28.000Z</time>
      </trkpt>
      <trkpt lat="40.0544328801333904266357421875" lon="-0.7167273201048374176025390625">
        <ele>888.5999755859375</ele>
        <time>2019-07-07T08:38:30.000Z</time>
      </trkpt>
      <trkpt lat="40.0550176016986370086669921875" lon="-0.71672178804874420166015625">
        <ele>886.79998779296875</ele>
        <time>2019-07-07T08:38:32.000Z</time>
      </trkpt>
      <trkpt lat="40.05560810677707195281982421875" lon="-0.71671935729682445526123046875">
        <ele>886.20001220703125</ele>
        <time>2019-07-07T08:38:34.000Z</time>
      </trkpt>
      <trkpt lat="40.05590482614934444427490234375" lon="-0.7167169265449047088623046875">
        <ele>885.5999755859375</ele>
        <time>2019-07-07T08:38:35.000Z</time>
      </trkpt>
      <trkpt lat="40.05650178529322147369384765625" lon="-0.71670980192720890045166015625">
        <ele>885.4000244140625</ele>
        <time>2019-07-07T08:38:37.000Z</time>
      </trkpt>
      <trkpt lat="40.05710025317966938018798828125" lon="-0.71670435369014739990234375">
        <ele>886.4000244140625</ele>
        <time>2019-07-07T08:38:39.000Z</time>
      </trkpt>
      <trkpt lat="40.05769620649516582489013671875" lon="-0.71670225821435451507568359375">
        <ele>887</ele>
        <time>2019-07-07T08:38:41.000Z</time>
      </trkpt>
      <trkpt lat="40.058289729058742523193359375" lon="-0.7167021743953227996826171875">
        <ele>887</ele>
        <time>2019-07-07T08:38:43.000Z</time>
      </trkpt>
      <trkpt lat="40.05887956358492374420166015625" lon="-0.71670569479465484619140625">
        <ele>887.5999755859375</ele>
        <time>2019-07-07T08:38:45.000Z</time>
      </trkpt>
      <trkpt lat="40.05917225964367389678955078125" lon="-0.7167118974030017852783203125">
        <ele>885.4000244140625</ele>
        <time>2019-07-07T08:38:46.000Z</time>
      </trkpt>
      <trkpt lat="40.05946286022663116455078125" lon="-0.71672053076326847076416015625">
        <ele>884.20001220703125</ele>
        <time>2019-07-07T08:38:47.000Z</time>
      </trkpt>
      <trkpt lat="40.06003928370773792266845703125" lon="-0.7167477719485759735107421875">
        <ele>885.5999755859375</ele>
        <time>2019-07-07T08:38:49.000Z</time>
      </trkpt>
      <trkpt lat="40.06032527424395084381103515625" lon="-0.71676730178296566009521484375">
        <ele>887.20001220703125</ele>
        <time>2019-07-07T08:38:50.000Z</time>
      </trkpt>
      <trkpt lat="40.06061227060854434967041015625" lon="-0.71678943000733852386474609375">
        <ele>889</ele>
        <time>2019-07-07T08:38:51.000Z</time>
      </trkpt>
      <trkpt lat="40.06118894554674625396728515625" lon="-0.71684592403471469879150390625">
        <ele>890.20001220703125</ele>
        <time>2019-07-07T08:38:53.000Z</time>
      </trkpt>
      <trkpt lat="40.0617683865129947662353515625" lon="-0.71691851131618022918701171875">
        <ele>891</ele>
        <time>2019-07-07T08:38:55.000Z</time>
      </trkpt>
      <trkpt lat="40.0623480789363384246826171875" lon="-0.71701456792652606964111328125">
        <ele>890</ele>
        <time>2019-07-07T08:38:57.000Z</time>
      </trkpt>
      <trkpt lat="40.0629260949790477752685546875" lon="-0.71713216602802276611328125">
        <ele>888.79998779296875</ele>
        <time>2019-07-07T08:38:59.000Z</time>
      </trkpt>
      <trkpt lat="40.0635034404695034027099609375" lon="-0.71726300753653049468994140625">
        <ele>889.79998779296875</ele>
        <time>2019-07-07T08:39:01.000Z</time>
      </trkpt>
      <trkpt lat="40.064075924456119537353515625" lon="-0.71741388179361820220947265625">
        <ele>890</ele>
        <time>2019-07-07T08:39:03.000Z</time>
      </trkpt>
      <trkpt lat="40.06464044563472270965576171875" lon="-0.71758411824703216552734375">
        <ele>889.4000244140625</ele>
        <time>2019-07-07T08:39:05.000Z</time>
      </trkpt>
      <trkpt lat="40.06520203314721584320068359375" lon="-0.71777028031647205352783203125">
        <ele>889.20001220703125</ele>
        <time>2019-07-07T08:39:07.000Z</time>
      </trkpt>
      <trkpt lat="40.06575758568942546844482421875" lon="-0.717974044382572174072265625">
        <ele>889.5999755859375</ele>
        <time>2019-07-07T08:39:09.000Z</time>
      </trkpt>
      <trkpt lat="40.0660324282944202423095703125" lon="-0.7180798240005970001220703125">
        <ele>888.79998779296875</ele>
        <time>2019-07-07T08:39:10.000Z</time>
      </trkpt>
      <trkpt lat="40.06657130084931850433349609375" lon="-0.7183091528713703155517578125">
        <ele>890</ele>
        <time>2019-07-07T08:39:12.000Z</time>
      </trkpt>
      <trkpt lat="40.06709986366331577301025390625" lon="-0.71855901740491390228271484375">
        <ele>891.5999755859375</ele>
        <time>2019-07-07T08:39:14.000Z</time>
      </trkpt>
      <trkpt lat="40.06762088276445865631103515625" lon="-0.71882061660289764404296875">
        <ele>892.20001220703125</ele>
        <time>2019-07-07T08:39:16.000Z</time>
      </trkpt>
      <trkpt lat="40.06813578307628631591796875" lon="-0.71909881196916103363037109375">
        <ele>889.4000244140625</ele>
        <time>2019-07-07T08:39:18.000Z</time>
      </trkpt>
      <trkpt lat="40.06839185021817684173583984375" lon="-0.71924599818885326385498046875">
        <ele>884.20001220703125</ele>
        <time>2019-07-07T08:39:19.000Z</time>
      </trkpt>
      <trkpt lat="40.06864699535071849822998046875" lon="-0.7193981297314167022705078125">
        <ele>878.5999755859375</ele>
        <time>2019-07-07T08:39:20.000Z</time>
      </trkpt>
      <trkpt lat="40.0689023919403553009033203125" lon="-0.71955294348299503326416015625">
        <ele>875.5999755859375</ele>
        <time>2019-07-07T08:39:21.000Z</time>
      </trkpt>
      <trkpt lat="40.069158375263214111328125" lon="-0.7197112776339054107666015625">
        <ele>874.20001220703125</ele>
        <time>2019-07-07T08:39:22.000Z</time>
      </trkpt>
      <trkpt lat="40.0696691684424877166748046875" lon="-0.72004160843789577484130859375">
        <ele>875.79998779296875</ele>
        <time>2019-07-07T08:39:24.000Z</time>
      </trkpt>
      <trkpt lat="40.06992288865149021148681640625" lon="-0.72021494619548320770263671875">
        <ele>878.5999755859375</ele>
        <time>2019-07-07T08:39:25.000Z</time>
      </trkpt>
      <trkpt lat="40.0701774470508098602294921875" lon="-0.7203908823430538177490234375">
        <ele>881.4000244140625</ele>
        <time>2019-07-07T08:39:26.000Z</time>
      </trkpt>
      <trkpt lat="40.07043284364044666290283203125" lon="-0.720570422708988189697265625">
        <ele>882.79998779296875</ele>
        <time>2019-07-07T08:39:27.000Z</time>
      </trkpt>
      <trkpt lat="40.07068832404911518096923828125" lon="-0.72075407020747661590576171875">
        <ele>884.5999755859375</ele>
        <time>2019-07-07T08:39:28.000Z</time>
      </trkpt>
      <trkpt lat="40.07119660265743732452392578125" lon="-0.7211271487176418304443359375">
        <ele>886</ele>
        <time>2019-07-07T08:39:30.000Z</time>
      </trkpt>
      <trkpt lat="40.0717029534280300140380859375" lon="-0.7215137220919132232666015625">
        <ele>888.20001220703125</ele>
        <time>2019-07-07T08:39:32.000Z</time>
      </trkpt>
      <trkpt lat="40.07195658981800079345703125" lon="-0.7217115350067615509033203125">
        <ele>890.5999755859375</ele>
        <time>2019-07-07T08:39:33.000Z</time>
      </trkpt>
      <trkpt lat="40.07221181876957416534423828125" lon="-0.721910186111927032470703125">
        <ele>893</ele>
        <time>2019-07-07T08:39:34.000Z</time>
      </trkpt>
      <trkpt lat="40.07246864028275012969970703125" lon="-0.7221088372170925140380859375">
        <ele>895.4000244140625</ele>
        <time>2019-07-07T08:39:35.000Z</time>
      </trkpt>
      <trkpt lat="40.07272780872881412506103515625" lon="-0.722305811941623687744140625">
        <ele>896.5999755859375</ele>
        <time>2019-07-07T08:39:36.000Z</time>
      </trkpt>
      <trkpt lat="40.0732455588877201080322265625" lon="-0.722698755562305450439453125">
        <ele>898.79998779296875</ele>
        <time>2019-07-07T08:39:38.000Z</time>
      </trkpt>
      <trkpt lat="40.07350162602961063385009765625" lon="-0.72289598174393177032470703125">
        <ele>900.4000244140625</ele>
        <time>2019-07-07T08:39:39.000Z</time>
      </trkpt>
      <trkpt lat="40.073755681514739990234375" lon="-0.72309203445911407470703125">
        <ele>903.20001220703125</ele>
        <time>2019-07-07T08:39:40.000Z</time>
      </trkpt>
      <trkpt lat="40.0740076415240764617919921875" lon="-0.7232873328030109405517578125">
        <ele>904.5999755859375</ele>
        <time>2019-07-07T08:39:41.000Z</time>
      </trkpt>
      <trkpt lat="40.0742585957050323486328125" lon="-0.72348003275692462921142578125">
        <ele>907.20001220703125</ele>
        <time>2019-07-07T08:39:42.000Z</time>
      </trkpt>
      <trkpt lat="40.07450862787663936614990234375" lon="-0.7236715592443943023681640625">
        <ele>908.5999755859375</ele>
        <time>2019-07-07T08:39:43.000Z</time>
      </trkpt>
      <trkpt lat="40.07500533945858478546142578125" lon="-0.72405704297125339508056640625">
        <ele>907.20001220703125</ele>
        <time>2019-07-07T08:39:45.000Z</time>
      </trkpt>
      <trkpt lat="40.07550238631665706634521484375" lon="-0.7244323007762432098388671875">
        <ele>902.79998779296875</ele>
        <time>2019-07-07T08:39:47.000Z</time>
      </trkpt>
      <trkpt lat="40.075754933059215545654296875" lon="-0.72461410425603389739990234375">
        <ele>901.5999755859375</ele>
        <time>2019-07-07T08:39:48.000Z</time>
      </trkpt>
      <trkpt lat="40.07626916281878948211669921875" lon="-0.7249680720269680023193359375">
        <ele>904.79998779296875</ele>
        <time>2019-07-07T08:39:50.000Z</time>
      </trkpt>
      <trkpt lat="40.07653017528355121612548828125" lon="-0.7251420803368091583251953125">
        <ele>906</ele>
        <time>2019-07-07T08:39:51.000Z</time>
      </trkpt>
      <trkpt lat="40.077060163021087646484375" lon="-0.72548598982393741607666015625">
        <ele>901.5999755859375</ele>
        <time>2019-07-07T08:39:53.000Z</time>
      </trkpt>
      <trkpt lat="40.077328048646450042724609375" lon="-0.72565480135381221771240234375">
        <ele>899.4000244140625</ele>
        <time>2019-07-07T08:39:54.000Z</time>
      </trkpt>
      <trkpt lat="40.07759593427181243896484375" lon="-0.72581824846565723419189453125">
        <ele>893.5999755859375</ele>
        <time>2019-07-07T08:39:55.000Z</time>
      </trkpt>
      <trkpt lat="40.07786222733557224273681640625" lon="-0.72597666643559932708740234375">
        <ele>890.5999755859375</ele>
        <time>2019-07-07T08:39:56.000Z</time>
      </trkpt>
      <trkpt lat="40.0781263411045074462890625" lon="-0.72612804360687732696533203125">
        <ele>889.20001220703125</ele>
        <time>2019-07-07T08:39:57.000Z</time>
      </trkpt>
      <trkpt lat="40.07839196361601352691650390625" lon="-0.72627271525561809539794921875">
        <ele>887.4000244140625</ele>
        <time>2019-07-07T08:39:58.000Z</time>
      </trkpt>
      <trkpt lat="40.078657753765583038330078125" lon="-0.72641151957213878631591796875">
        <ele>889.20001220703125</ele>
        <time>2019-07-07T08:39:59.000Z</time>
      </trkpt>
      <trkpt lat="40.0789268128573894500732421875" lon="-0.72654278017580509185791015625">
        <ele>894.5999755859375</ele>
        <time>2019-07-07T08:40:00.000Z</time>
      </trkpt>
      <trkpt lat="40.07919712923467159271240234375" lon="-0.726675800979137420654296875">
        <ele>899.79998779296875</ele>
        <time>2019-07-07T08:40:01.000Z</time>
      </trkpt>
      <trkpt lat="40.0794728100299835205078125" lon="-0.7268070615828037261962890625">
        <ele>904.20001220703125</ele>
        <time>2019-07-07T08:40:02.000Z</time>
      </trkpt>
      <trkpt lat="40.08003163151443004608154296875" lon="-0.7270591892302036285400390625">
        <ele>906.5999755859375</ele>
        <time>2019-07-07T08:40:04.000Z</time>
      </trkpt>
      <trkpt lat="40.08060512132942676544189453125" lon="-0.72730385698378086090087890625">
        <ele>905.5999755859375</ele>
        <time>2019-07-07T08:40:06.000Z</time>
      </trkpt>
      <trkpt lat="40.08089832030236721038818359375" lon="-0.72742187418043613433837890625">
        <ele>903</ele>
        <time>2019-07-07T08:40:07.000Z</time>
      </trkpt>
      <trkpt lat="40.08119503967463970184326171875" lon="-0.72753553278744220733642578125">
        <ele>901</ele>
        <time>2019-07-07T08:40:08.000Z</time>
      </trkpt>
      <trkpt lat="40.081494860351085662841796875" lon="-0.72764399461448192596435546875">
        <ele>898.79998779296875</ele>
        <time>2019-07-07T08:40:09.000Z</time>
      </trkpt>
      <trkpt lat="40.08179669268429279327392578125" lon="-0.72774675674736499786376953125">
        <ele>896.5999755859375</ele>
        <time>2019-07-07T08:40:10.000Z</time>
      </trkpt>
      <trkpt lat="40.08210263215005397796630859375" lon="-0.72784147225320339202880859375">
        <ele>894</ele>
        <time>2019-07-07T08:40:11.000Z</time>
      </trkpt>
      <trkpt lat="40.08240940980613231658935546875" lon="-0.72793182916939258575439453125">
        <ele>891.79998779296875</ele>
        <time>2019-07-07T08:40:12.000Z</time>
      </trkpt>
      <trkpt lat="40.08271769620478153228759765625" lon="-0.72801698930561542510986328125">
        <ele>889.4000244140625</ele>
        <time>2019-07-07T08:40:13.000Z</time>
      </trkpt>
      <trkpt lat="40.083028413355350494384765625" lon="-0.72809611447155475616455078125">
        <ele>887.4000244140625</ele>
        <time>2019-07-07T08:40:14.000Z</time>
      </trkpt>
      <trkpt lat="40.08333720266819000244140625" lon="-0.72816836647689342498779296875">
        <ele>886.4000244140625</ele>
        <time>2019-07-07T08:40:15.000Z</time>
      </trkpt>
      <trkpt lat="40.08363819681107997894287109375" lon="-0.728232823312282562255859375">
        <ele>885</ele>
        <time>2019-07-07T08:40:16.000Z</time>
      </trkpt>
      <trkpt lat="40.084219984710216522216796875" lon="-0.72834187187254428863525390625">
        <ele>884.20001220703125</ele>
        <time>2019-07-07T08:40:18.000Z</time>
      </trkpt>
      <trkpt lat="40.08479238487780094146728515625" lon="-0.7284284569323062896728515625">
        <ele>882.4000244140625</ele>
        <time>2019-07-07T08:40:20.000Z</time>
      </trkpt>
      <trkpt lat="40.08536553941667079925537109375" lon="-0.72849224321544170379638671875">
        <ele>882.20001220703125</ele>
        <time>2019-07-07T08:40:22.000Z</time>
      </trkpt>
      <trkpt lat="40.08594539947807788848876953125" lon="-0.72853549383580684661865234375">
        <ele>882</ele>
        <time>2019-07-07T08:40:24.000Z</time>
      </trkpt>
      <trkpt lat="40.0862324796617031097412109375" lon="-0.7285501621663570404052734375">
        <ele>884.20001220703125</ele>
        <time>2019-07-07T08:40:25.000Z</time>
      </trkpt>
      <trkpt lat="40.0865221582353115081787109375" lon="-0.7285608910024166107177734375">
        <ele>885.20001220703125</ele>
        <time>2019-07-07T08:40:26.000Z</time>
      </trkpt>
      <trkpt lat="40.0868131779134273529052734375" lon="-0.72856885381042957305908203125">
        <ele>888.79998779296875</ele>
        <time>2019-07-07T08:40:27.000Z</time>
      </trkpt>
      <trkpt lat="40.087106041610240936279296875" lon="-0.7285702787339687347412109375">
        <ele>892.4000244140625</ele>
        <time>2019-07-07T08:40:28.000Z</time>
      </trkpt>
      <trkpt lat="40.08739932440221309661865234375" lon="-0.72856281884014606475830078125">
        <ele>895.20001220703125</ele>
        <time>2019-07-07T08:40:29.000Z</time>
      </trkpt>
      <trkpt lat="40.08769302628934383392333984375" lon="-0.728545300662517547607421875">
        <ele>896.5999755859375</ele>
        <time>2019-07-07T08:40:30.000Z</time>
      </trkpt>
      <trkpt lat="40.08828244172036647796630859375" lon="-0.7284888066351413726806640625">
        <ele>896.20001220703125</ele>
        <time>2019-07-07T08:40:32.000Z</time>
      </trkpt>
      <trkpt lat="40.08857865817844867706298828125" lon="-0.728462822735309600830078125">
        <ele>894.4000244140625</ele>
        <time>2019-07-07T08:40:33.000Z</time>
      </trkpt>
      <trkpt lat="40.08887755684554576873779296875" lon="-0.72843876667320728302001953125">
        <ele>888.79998779296875</ele>
        <time>2019-07-07T08:40:34.000Z</time>
      </trkpt>
      <trkpt lat="40.08917746134102344512939453125" lon="-0.72841353714466094970703125">
        <ele>883</ele>
        <time>2019-07-07T08:40:35.000Z</time>
      </trkpt>
      <trkpt lat="40.08947937749326229095458984375" lon="-0.72838411666452884674072265625">
        <ele>877.5999755859375</ele>
        <time>2019-07-07T08:40:36.000Z</time>
      </trkpt>
      <trkpt lat="40.0897833891212940216064453125" lon="-0.7283479906618595123291015625">
        <ele>875</ele>
        <time>2019-07-07T08:40:37.000Z</time>
      </trkpt>
      <trkpt lat="40.09039275348186492919921875" lon="-0.7282628305256366729736328125">
        <ele>873.4000244140625</ele>
        <time>2019-07-07T08:40:39.000Z</time>
      </trkpt>
      <trkpt lat="40.0910071469843387603759765625" lon="-0.72817289270460605621337890625">
        <ele>872.79998779296875</ele>
        <time>2019-07-07T08:40:41.000Z</time>
      </trkpt>
      <trkpt lat="40.09131518192589282989501953125" lon="-0.72812679223716259002685546875">
        <ele>870.79998779296875</ele>
        <time>2019-07-07T08:40:42.000Z</time>
      </trkpt>
      <trkpt lat="40.0916230492293834686279296875" lon="-0.7280797697603702545166015625">
        <ele>867.4000244140625</ele>
        <time>2019-07-07T08:40:43.000Z</time>
      </trkpt>
      <trkpt lat="40.0919298268854618072509765625" lon="-0.728035010397434234619140625">
        <ele>864.20001220703125</ele>
        <time>2019-07-07T08:40:44.000Z</time>
      </trkpt>
      <trkpt lat="40.09223543107509613037109375" lon="-0.72798999957740306854248046875">
        <ele>862.4000244140625</ele>
        <time>2019-07-07T08:40:45.000Z</time>
      </trkpt>
      <trkpt lat="40.09284471161663532257080078125" lon="-0.72789427824318408966064453125">
        <ele>861.20001220703125</ele>
        <time>2019-07-07T08:40:47.000Z</time>
      </trkpt>
      <trkpt lat="40.09345114231109619140625" lon="-0.727794952690601348876953125">
        <ele>861.20001220703125</ele>
        <time>2019-07-07T08:40:49.000Z</time>
      </trkpt>
      <trkpt lat="40.09405639953911304473876953125" lon="-0.72769529186189174652099609375">
        <ele>860.79998779296875</ele>
        <time>2019-07-07T08:40:51.000Z</time>
      </trkpt>
      <trkpt lat="40.0943585671484470367431640625" lon="-0.727643072605133056640625">
        <ele>860</ele>
        <time>2019-07-07T08:40:52.000Z</time>
      </trkpt>
      <trkpt lat="40.09465788491070270538330078125" lon="-0.7275926135480403900146484375">
        <ele>858</ele>
        <time>2019-07-07T08:40:53.000Z</time>
      </trkpt>
      <trkpt lat="40.09525484405457973480224609375" lon="-0.72749664075672626495361328125">
        <ele>856.5999755859375</ele>
        <time>2019-07-07T08:40:55.000Z</time>
      </trkpt>
      <trkpt lat="40.09584912098944187164306640625" lon="-0.72740309871733188629150390625">
        <ele>855.5999755859375</ele>
        <time>2019-07-07T08:40:57.000Z</time>
      </trkpt>
      <trkpt lat="40.0961452536284923553466796875" lon="-0.727359093725681304931640625">
        <ele>855</ele>
        <time>2019-07-07T08:40:58.000Z</time>
      </trkpt>
      <trkpt lat="40.0964402966201305389404296875" lon="-0.72731609456241130828857421875">
        <ele>856.4000244140625</ele>
        <time>2019-07-07T08:40:59.000Z</time>
      </trkpt>
      <trkpt lat="40.096735171973705291748046875" lon="-0.72727359831333160400390625">
        <ele>858.79998779296875</ele>
        <time>2019-07-07T08:41:00.000Z</time>
      </trkpt>
      <trkpt lat="40.09703063406050205230712890625" lon="-0.72723227553069591522216796875">
        <ele>862.5999755859375</ele>
        <time>2019-07-07T08:41:01.000Z</time>
      </trkpt>
      <trkpt lat="40.09732483886182308197021484375" lon="-0.72719313204288482666015625">
        <ele>864.4000244140625</ele>
        <time>2019-07-07T08:41:02.000Z</time>
      </trkpt>
      <trkpt lat="40.097616948187351226806640625" lon="-0.72715767659246921539306640625">
        <ele>866.79998779296875</ele>
        <time>2019-07-07T08:41:03.000Z</time>
      </trkpt>
      <trkpt lat="40.09790922515094280242919921875" lon="-0.72712398134171962738037109375">
        <ele>868.79998779296875</ele>
        <time>2019-07-07T08:41:04.000Z</time>
      </trkpt>
      <trkpt lat="40.0984950363636016845703125" lon="-0.72705206461250782012939453125">
        <ele>870.5999755859375</ele>
        <time>2019-07-07T08:41:06.000Z</time>
      </trkpt>
      <trkpt lat="40.09906391613185405731201171875" lon="-0.72699842043220996856689453125">
        <ele>868.79998779296875</ele>
        <time>2019-07-07T08:41:08.000Z</time>
      </trkpt>
      <trkpt lat="40.09934462606906890869140625" lon="-0.72697545401751995086669921875">
        <ele>864.79998779296875</ele>
        <time>2019-07-07T08:41:09.000Z</time>
      </trkpt>
      <trkpt lat="40.09961955249309539794921875" lon="-0.72695734910666942596435546875">
        <ele>859.4000244140625</ele>
        <time>2019-07-07T08:41:10.000Z</time>
      </trkpt>
      <trkpt lat="40.09988986887037754058837890625" lon="-0.7269418425858020782470703125">
        <ele>855</ele>
        <time>2019-07-07T08:41:11.000Z</time>
      </trkpt>
      <trkpt lat="40.10015666484832763671875" lon="-0.7269294373691082000732421875">
        <ele>852.5999755859375</ele>
        <time>2019-07-07T08:41:12.000Z</time>
      </trkpt>
      <trkpt lat="40.1004210300743579864501953125" lon="-0.72692164219915866851806640625">
        <ele>851.4000244140625</ele>
        <time>2019-07-07T08:41:13.000Z</time>
      </trkpt>
      <trkpt lat="40.10094724595546722412109375" lon="-0.72690655477344989776611328125">
        <ele>852.79998779296875</ele>
        <time>2019-07-07T08:41:15.000Z</time>
      </trkpt>
      <trkpt lat="40.1012129522860050201416015625" lon="-0.72690370492637157440185546875">
        <ele>854</ele>
        <time>2019-07-07T08:41:16.000Z</time>
      </trkpt>
      <trkpt lat="40.1017443649470806121826171875" lon="-0.7269052974879741668701171875">
        <ele>855.4000244140625</ele>
        <time>2019-07-07T08:41:18.000Z</time>
      </trkpt>
      <trkpt lat="40.10200998745858669281005859375" lon="-0.72690806351602077484130859375">
        <ele>857.4000244140625</ele>
        <time>2019-07-07T08:41:19.000Z</time>
      </trkpt>
      <trkpt lat="40.10227552615106105804443359375" lon="-0.7269123382866382598876953125">
        <ele>859.4000244140625</ele>
        <time>2019-07-07T08:41:20.000Z</time>
      </trkpt>
      <trkpt lat="40.1028051786124706268310546875" lon="-0.72693027555942535400390625">
        <ele>861.20001220703125</ele>
        <time>2019-07-07T08:41:22.000Z</time>
      </trkpt>
      <trkpt lat="40.10307289659976959228515625" lon="-0.726945698261260986328125">
        <ele>862.79998779296875</ele>
        <time>2019-07-07T08:41:23.000Z</time>
      </trkpt>
      <trkpt lat="40.10334421880543231964111328125" lon="-0.7269658148288726806640625">
        <ele>864.4000244140625</ele>
        <time>2019-07-07T08:41:24.000Z</time>
      </trkpt>
      <trkpt lat="40.10361746884882450103759765625" lon="-0.72698920033872127532958984375">
        <ele>865.5999755859375</ele>
        <time>2019-07-07T08:41:25.000Z</time>
      </trkpt>
      <trkpt lat="40.1038921438157558441162109375" lon="-0.7270167768001556396484375">
        <ele>867</ele>
        <time>2019-07-07T08:41:26.000Z</time>
      </trkpt>
      <trkpt lat="40.10416849516332149505615234375" lon="-0.72704703547060489654541015625">
        <ele>868.20001220703125</ele>
        <time>2019-07-07T08:41:27.000Z</time>
      </trkpt>
      <trkpt lat="40.104446522891521453857421875" lon="-0.72708182036876678466796875">
        <ele>869.79998779296875</ele>
        <time>2019-07-07T08:41:28.000Z</time>
      </trkpt>
      <trkpt lat="40.104726143181324005126953125" lon="-0.72711962275207042694091796875">
        <ele>872</ele>
        <time>2019-07-07T08:41:29.000Z</time>
      </trkpt>
      <trkpt lat="40.1052855513989925384521484375" lon="-0.72720880620181560516357421875">
        <ele>872.4000244140625</ele>
        <time>2019-07-07T08:41:31.000Z</time>
      </trkpt>
      <trkpt lat="40.10556139983236789703369140625" lon="-0.7272593490779399871826171875">
        <ele>874.79998779296875</ele>
        <time>2019-07-07T08:41:32.000Z</time>
      </trkpt>
      <trkpt lat="40.10583163239061832427978515625" lon="-0.72731383144855499267578125">
        <ele>876.5999755859375</ele>
        <time>2019-07-07T08:41:33.000Z</time>
      </trkpt>
      <trkpt lat="40.10635684244334697723388671875" lon="-0.7274276576936244964599609375">
        <ele>878.20001220703125</ele>
        <time>2019-07-07T08:41:35.000Z</time>
      </trkpt>
      <trkpt lat="40.1068693958222866058349609375" lon="-0.727557577192783355712890625">
        <ele>878.20001220703125</ele>
        <time>2019-07-07T08:41:37.000Z</time>
      </trkpt>
      <trkpt lat="40.10737474076449871063232421875" lon="-0.72770384140312671661376953125">
        <ele>879</ele>
        <time>2019-07-07T08:41:39.000Z</time>
      </trkpt>
      <trkpt lat="40.10762603022158145904541015625" lon="-0.72778053581714630126953125">
        <ele>880.20001220703125</ele>
        <time>2019-07-07T08:41:40.000Z</time>
      </trkpt>
      <trkpt lat="40.10812877677381038665771484375" lon="-0.72794205509126186370849609375">
        <ele>880</ele>
        <time>2019-07-07T08:41:42.000Z</time>
      </trkpt>
      <trkpt lat="40.1083778031170368194580078125" lon="-0.72802620939910411834716796875">
        <ele>879</ele>
        <time>2019-07-07T08:41:43.000Z</time>
      </trkpt>
      <trkpt lat="40.10862096212804317474365234375" lon="-0.72811153717339038848876953125">
        <ele>877.4000244140625</ele>
        <time>2019-07-07T08:41:44.000Z</time>
      </trkpt>
      <trkpt lat="40.10885397903621196746826171875" lon="-0.72819468565285205841064453125">
        <ele>873.79998779296875</ele>
        <time>2019-07-07T08:41:45.000Z</time>
      </trkpt>
      <trkpt lat="40.10907626710832118988037109375" lon="-0.72827582247555255889892578125">
        <ele>870.20001220703125</ele>
        <time>2019-07-07T08:41:46.000Z</time>
      </trkpt>
      <trkpt lat="40.109288580715656280517578125" lon="-0.72835545055568218231201171875">
        <ele>868.4000244140625</ele>
        <time>2019-07-07T08:41:47.000Z</time>
      </trkpt>
      <trkpt lat="40.10986550711095333099365234375" lon="-0.72859114967286586761474609375">
        <ele>870.20001220703125</ele>
        <time>2019-07-07T08:41:50.000Z</time>
      </trkpt>
      <trkpt lat="40.1100481487810611724853515625" lon="-0.72866499423980712890625">
        <ele>871.5999755859375</ele>
        <time>2019-07-07T08:41:51.000Z</time>
      </trkpt>
      <trkpt lat="40.1102278567850589752197265625" lon="-0.72873699478805065155029296875">
        <ele>873.20001220703125</ele>
        <time>2019-07-07T08:41:52.000Z</time>
      </trkpt>
      <trkpt lat="40.11040396057069301605224609375" lon="-0.7288058102130889892578125">
        <ele>875.4000244140625</ele>
        <time>2019-07-07T08:41:53.000Z</time>
      </trkpt>
      <trkpt lat="40.1105725206434726715087890625" lon="-0.72886884212493896484375">
        <ele>876.5999755859375</ele>
        <time>2019-07-07T08:41:54.000Z</time>
      </trkpt>
      <trkpt lat="40.11088256724178791046142578125" lon="-0.7289719395339488983154296875">
        <ele>878.79998779296875</ele>
        <time>2019-07-07T08:41:56.000Z</time>
      </trkpt>
      <trkpt lat="40.111174844205379486083984375" lon="-0.72904645465314388275146484375">
        <ele>880.20001220703125</ele>
        <time>2019-07-07T08:41:58.000Z</time>
      </trkpt>
      <trkpt lat="40.11132010258734226226806640625" lon="-0.72907310910522937774658203125">
        <ele>881.4000244140625</ele>
        <time>2019-07-07T08:41:59.000Z</time>
      </trkpt>
      <trkpt lat="40.11184380389750003814697265625" lon="-0.72913999669253826141357421875">
        <ele>879.20001220703125</ele>
        <time>2019-07-07T08:42:03.000Z</time>
      </trkpt>
      <trkpt lat="40.111934244632720947265625" lon="-0.7291560061275959014892578125">
        <ele>877.79998779296875</ele>
        <time>2019-07-07T08:42:04.000Z</time>
      </trkpt>
      <trkpt lat="40.11205737479031085968017578125" lon="-0.72919447906315326690673828125">
        <ele>876.5999755859375</ele>
        <time>2019-07-07T08:42:06.000Z</time>
      </trkpt>
      <trkpt lat="40.1121580414474010467529296875" lon="-0.7293632067739963531494140625">
        <ele>877.5999755859375</ele>
        <time>2019-07-07T08:42:12.000Z</time>
      </trkpt>
      <trkpt lat="40.11218033730983734130859375" lon="-0.72944040410220623016357421875">
        <ele>877.79998779296875</ele>
        <time>2019-07-07T08:42:13.000Z</time>
      </trkpt>
      <trkpt lat="40.11219785548746585845947265625" lon="-0.72954081930220127105712890625">
        <ele>878</ele>
        <time>2019-07-07T08:42:14.000Z</time>
      </trkpt>
      <trkpt lat="40.11222987435758113861083984375" lon="-0.73008396662771701812744140625">
        <ele>879</ele>
        <time>2019-07-07T08:42:18.000Z</time>
      </trkpt>
      <trkpt lat="40.1122445426881313323974609375" lon="-0.7308048941195011138916015625">
        <ele>880</ele>
        <time>2019-07-07T08:42:22.000Z</time>
      </trkpt>
      <trkpt lat="40.1122733764350414276123046875" lon="-0.7314536534249782562255859375">
        <ele>879.79998779296875</ele>
        <time>2019-07-07T08:42:25.000Z</time>
      </trkpt>
      <trkpt lat="40.11230237782001495361328125" lon="-0.732148848474025726318359375">
        <ele>879.79998779296875</ele>
        <time>2019-07-07T08:42:28.000Z</time>
      </trkpt>
      <trkpt lat="40.11232576332986354827880859375" lon="-0.7328903116285800933837890625">
        <ele>880.5999755859375</ele>
        <time>2019-07-07T08:42:31.000Z</time>
      </trkpt>
      <trkpt lat="40.1123652420938014984130859375" lon="-0.73365599848330020904541015625">
        <ele>879.20001220703125</ele>
        <time>2019-07-07T08:42:34.000Z</time>
      </trkpt>
      <trkpt lat="40.1123769767582416534423828125" lon="-0.7339196093380451202392578125">
        <ele>878.5999755859375</ele>
        <time>2019-07-07T08:42:35.000Z</time>
      </trkpt>
      <trkpt lat="40.11238594539463520050048828125" lon="-0.73418757878243923187255859375">
        <ele>876.79998779296875</ele>
        <time>2019-07-07T08:42:36.000Z</time>
      </trkpt>
      <trkpt lat="40.11239491403102874755859375" lon="-0.73445294983685016632080078125">
        <ele>875</ele>
        <time>2019-07-07T08:42:37.000Z</time>
      </trkpt>
      <trkpt lat="40.11240572668612003326416015625" lon="-0.73471195064485073089599609375">
        <ele>872.79998779296875</ele>
        <time>2019-07-07T08:42:38.000Z</time>
      </trkpt>
      <trkpt lat="40.11241964064538478851318359375" lon="-0.73496458120644092559814453125">
        <ele>871.5999755859375</ele>
        <time>2019-07-07T08:42:39.000Z</time>
      </trkpt>
      <trkpt lat="40.11243372224271297454833984375" lon="-0.73521318845450878143310546875">
        <ele>870.4000244140625</ele>
        <time>2019-07-07T08:42:40.000Z</time>
      </trkpt>
      <trkpt lat="40.11246842332184314727783203125" lon="-0.735931098461151123046875">
        <ele>870.5999755859375</ele>
        <time>2019-07-07T08:42:43.000Z</time>
      </trkpt>
      <trkpt lat="40.11248971335589885711669921875" lon="-0.73637005873024463653564453125">
        <ele>871.79998779296875</ele>
        <time>2019-07-07T08:42:45.000Z</time>
      </trkpt>
      <trkpt lat="40.11250966228544712066650390625" lon="-0.73679602704942226409912109375">
        <ele>873</ele>
        <time>2019-07-07T08:42:47.000Z</time>
      </trkpt>
      <trkpt lat="40.11254453100264072418212890625" lon="-0.7374316267669200897216796875">
        <ele>874</ele>
        <time>2019-07-07T08:42:50.000Z</time>
      </trkpt>
      <trkpt lat="40.11255693621933460235595703125" lon="-0.7376411743462085723876953125">
        <ele>874</ele>
        <time>2019-07-07T08:42:51.000Z</time>
      </trkpt>
      <trkpt lat="40.1125865243375301361083984375" lon="-0.73824089951813220977783203125">
        <ele>873.79998779296875</ele>
        <time>2019-07-07T08:42:54.000Z</time>
      </trkpt>
      <trkpt lat="40.1126187108457088470458984375" lon="-0.73896107263863086700439453125">
        <ele>873.4000244140625</ele>
        <time>2019-07-07T08:42:58.000Z</time>
      </trkpt>
      <trkpt lat="40.11263086460530757904052734375" lon="-0.7396498136222362518310546875">
        <ele>874.4000244140625</ele>
        <time>2019-07-07T08:43:03.000Z</time>
      </trkpt>
      <trkpt lat="40.11264075525104999542236328125" lon="-0.73982876725494861602783203125">
        <ele>874.4000244140625</ele>
        <time>2019-07-07T08:43:05.000Z</time>
      </trkpt>
      <trkpt lat="40.11269171722233295440673828125" lon="-0.73992348276078701019287109375">
        <ele>873.79998779296875</ele>
        <time>2019-07-07T08:43:07.000Z</time>
      </trkpt>
      <trkpt lat="40.1129355467855930328369140625" lon="-0.74005608446896076202392578125">
        <ele>873.20001220703125</ele>
        <time>2019-07-07T08:43:12.000Z</time>
      </trkpt>
      <trkpt lat="40.11339948512613773345947265625" lon="-0.740256495773792266845703125">
        <ele>874.4000244140625</ele>
        <time>2019-07-07T08:43:18.000Z</time>
      </trkpt>
      <trkpt lat="40.11383852921426296234130859375" lon="-0.74033268727362155914306640625">
        <ele>873.4000244140625</ele>
        <time>2019-07-07T08:43:25.000Z</time>
      </trkpt>
      <trkpt lat="40.11388027109205722808837890625" lon="-0.740338973701000213623046875">
        <ele>872.79998779296875</ele>
        <time>2019-07-07T08:43:26.000Z</time>
      </trkpt>
      <trkpt lat="40.11396090500056743621826171875" lon="-0.74036437086760997772216796875">
        <ele>874</ele>
        <time>2019-07-07T08:43:37.000Z</time>
      </trkpt>
      <trkpt lat="40.11396090500056743621826171875" lon="-0.74036437086760997772216796875">
        <ele>874.20001220703125</ele>
        <time>2019-07-07T08:45:19.000Z</time>
      </trkpt>
      <trkpt lat="40.1140142977237701416015625" lon="-0.74045103974640369415283203125">
        <ele>874.5999755859375</ele>
        <time>2019-07-07T08:45:37.000Z</time>
      </trkpt>
      <trkpt lat="40.114096440374851226806640625" lon="-0.740570984780788421630859375">
        <ele>873.5999755859375</ele>
        <time>2019-07-07T08:45:39.000Z</time>
      </trkpt>
      <trkpt lat="40.114221833646297454833984375" lon="-0.74064365588128566741943359375">
        <ele>872.4000244140625</ele>
        <time>2019-07-07T08:45:41.000Z</time>
      </trkpt>
      <trkpt lat="40.1147024519741535186767578125" lon="-0.74075815267860889434814453125">
        <ele>873.20001220703125</ele>
        <time>2019-07-07T08:45:47.000Z</time>
      </trkpt>
      <trkpt lat="40.11517041362822055816650390625" lon="-0.74088983237743377685546875">
        <ele>872</ele>
        <time>2019-07-07T08:45:52.000Z</time>
      </trkpt>
      <trkpt lat="40.115711800754070281982421875" lon="-0.74096552096307277679443359375">
        <ele>873.4000244140625</ele>
        <time>2019-07-07T08:45:57.000Z</time>
      </trkpt>
      <trkpt lat="40.1158239506185054779052734375" lon="-0.74095009826123714447021484375">
        <ele>874.5999755859375</ele>
        <time>2019-07-07T08:45:58.000Z</time>
      </trkpt>
      <trkpt lat="40.11607917957007884979248046875" lon="-0.74091305024921894073486328125">
        <ele>875.5999755859375</ele>
        <time>2019-07-07T08:46:00.000Z</time>
      </trkpt>
      <trkpt lat="40.11651990003883838653564453125" lon="-0.74096820317208766937255859375">
        <ele>874.4000244140625</ele>
        <time>2019-07-07T08:46:03.000Z</time>
      </trkpt>
      <trkpt lat="40.1167814992368221282958984375" lon="-0.74114372022449970245361328125">
        <ele>874</ele>
        <time>2019-07-07T08:46:05.000Z</time>
      </trkpt>
      <trkpt lat="40.11699582450091838836669921875" lon="-0.74144563637673854827880859375">
        <ele>876.5999755859375</ele>
        <time>2019-07-07T08:46:07.000Z</time>
      </trkpt>
      <trkpt lat="40.11729857884347438812255859375" lon="-0.7420057989656925201416015625">
        <ele>877.20001220703125</ele>
        <time>2019-07-07T08:46:10.000Z</time>
      </trkpt>
      <trkpt lat="40.11741441674530506134033203125" lon="-0.7422009296715259552001953125">
        <ele>875.5999755859375</ele>
        <time>2019-07-07T08:46:11.000Z</time>
      </trkpt>
      <trkpt lat="40.117537043988704681396484375" lon="-0.74238977394998073577880859375">
        <ele>873</ele>
        <time>2019-07-07T08:46:12.000Z</time>
      </trkpt>
      <trkpt lat="40.117669142782688140869140625" lon="-0.74256629683077335357666015625">
        <ele>871</ele>
        <time>2019-07-07T08:46:13.000Z</time>
      </trkpt>
      <trkpt lat="40.1178141497075557708740234375" lon="-0.74272722937166690826416015625">
        <ele>868.5999755859375</ele>
        <time>2019-07-07T08:46:14.000Z</time>
      </trkpt>
      <trkpt lat="40.1179700531065464019775390625" lon="-0.74285916052758693695068359375">
        <ele>866.20001220703125</ele>
        <time>2019-07-07T08:46:15.000Z</time>
      </trkpt>
      <trkpt lat="40.11812889017164707183837890625" lon="-0.7429529540240764617919921875">
        <ele>863.79998779296875</ele>
        <time>2019-07-07T08:46:16.000Z</time>
      </trkpt>
      <trkpt lat="40.1182925887405872344970703125" lon="-0.7430049218237400054931640625">
        <ele>862.4000244140625</ele>
        <time>2019-07-07T08:46:17.000Z</time>
      </trkpt>
      <trkpt lat="40.11846584267914295196533203125" lon="-0.74300743639469146728515625">
        <ele>861.79998779296875</ele>
        <time>2019-07-07T08:46:18.000Z</time>
      </trkpt>
      <trkpt lat="40.11864169500768184661865234375" lon="-0.742958486080169677734375">
        <ele>861</ele>
        <time>2019-07-07T08:46:19.000Z</time>
      </trkpt>
      <trkpt lat="40.11881486512720584869384765625" lon="-0.742862261831760406494140625">
        <ele>860.20001220703125</ele>
        <time>2019-07-07T08:46:20.000Z</time>
      </trkpt>
      <trkpt lat="40.1189782284200191497802734375" lon="-0.74272773228585720062255859375">
        <ele>859</ele>
        <time>2019-07-07T08:46:21.000Z</time>
      </trkpt>
      <trkpt lat="40.11912901885807514190673828125" lon="-0.74256663210690021514892578125">
        <ele>858</ele>
        <time>2019-07-07T08:46:22.000Z</time>
      </trkpt>
      <trkpt lat="40.11927067302167415618896484375" lon="-0.7423965632915496826171875">
        <ele>856.4000244140625</ele>
        <time>2019-07-07T08:46:23.000Z</time>
      </trkpt>
      <trkpt lat="40.1195616088807582855224609375" lon="-0.74205248616635799407958984375">
        <ele>855.20001220703125</ele>
        <time>2019-07-07T08:46:25.000Z</time>
      </trkpt>
      <trkpt lat="40.11985170654952526092529296875" lon="-0.7417312078177928924560546875">
        <ele>856.5999755859375</ele>
        <time>2019-07-07T08:46:27.000Z</time>
      </trkpt>
      <trkpt lat="40.12024615891277790069580078125" lon="-0.741386376321315765380859375">
        <ele>857.79998779296875</ele>
        <time>2019-07-07T08:46:30.000Z</time>
      </trkpt>
      <trkpt lat="40.12043944559991359710693359375" lon="-0.74124681763350963592529296875">
        <ele>856.5999755859375</ele>
        <time>2019-07-07T08:46:32.000Z</time>
      </trkpt>
      <trkpt lat="40.1205696165561676025390625" lon="-0.74107381515204906463623046875">
        <ele>855.20001220703125</ele>
        <time>2019-07-07T08:46:34.000Z</time>
      </trkpt>
      <trkpt lat="40.12067246250808238983154296875" lon="-0.74086929671466350555419921875">
        <ele>855</ele>
        <time>2019-07-07T08:46:36.000Z</time>
      </trkpt>
      <trkpt lat="40.12082467786967754364013671875" lon="-0.74074172414839267730712890625">
        <ele>854.20001220703125</ele>
        <time>2019-07-07T08:46:38.000Z</time>
      </trkpt>
      <trkpt lat="40.12091553770005702972412109375" lon="-0.74073233641684055328369140625">
        <ele>854</ele>
        <time>2019-07-07T08:46:39.000Z</time>
      </trkpt>
      <trkpt lat="40.12111536227166652679443359375" lon="-0.7407357729971408843994140625">
        <ele>854.20001220703125</ele>
        <time>2019-07-07T08:46:41.000Z</time>
      </trkpt>
      <trkpt lat="40.121569745242595672607421875" lon="-0.7405097968876361846923828125">
        <ele>853.4000244140625</ele>
        <time>2019-07-07T08:46:45.000Z</time>
      </trkpt>
      <trkpt lat="40.12166923843324184417724609375" lon="-0.7404293306171894073486328125">
        <ele>852.79998779296875</ele>
        <time>2019-07-07T08:46:46.000Z</time>
      </trkpt>
      <trkpt lat="40.1217962242662906646728515625" lon="-0.7402164302766323089599609375">
        <ele>852.20001220703125</ele>
        <time>2019-07-07T08:46:48.000Z</time>
      </trkpt>
      <trkpt lat="40.12188314460217952728271484375" lon="-0.739994980394840240478515625">
        <ele>851.5999755859375</ele>
        <time>2019-07-07T08:46:50.000Z</time>
      </trkpt>
      <trkpt lat="40.1220282353460788726806640625" lon="-0.739924907684326171875">
        <ele>851.5999755859375</ele>
        <time>2019-07-07T08:46:52.000Z</time>
      </trkpt>
      <trkpt lat="40.12218724004924297332763671875" lon="-0.7399948127567768096923828125">
        <ele>851.79998779296875</ele>
        <time>2019-07-07T08:46:54.000Z</time>
      </trkpt>
      <trkpt lat="40.1222669519484043121337890625" lon="-0.74017594568431377410888671875">
        <ele>851.5999755859375</ele>
        <time>2019-07-07T08:46:56.000Z</time>
      </trkpt>
      <trkpt lat="40.1222237013280391693115234375" lon="-0.7404507882893085479736328125">
        <ele>851.79998779296875</ele>
        <time>2019-07-07T08:46:58.000Z</time>
      </trkpt>
      <trkpt lat="40.12219226919114589691162109375" lon="-0.74078732170164585113525390625">
        <ele>852.5999755859375</ele>
        <time>2019-07-07T08:47:00.000Z</time>
      </trkpt>
      <trkpt lat="40.12224574573338031768798828125" lon="-0.74116568081080913543701171875">
        <ele>853.79998779296875</ele>
        <time>2019-07-07T08:47:02.000Z</time>
      </trkpt>
      <trkpt lat="40.1223313249647617340087890625" lon="-0.7416041381657123565673828125">
        <ele>855.20001220703125</ele>
        <time>2019-07-07T08:47:04.000Z</time>
      </trkpt>
      <trkpt lat="40.1224225200712680816650390625" lon="-0.74209104292094707489013671875">
        <ele>856.5999755859375</ele>
        <time>2019-07-07T08:47:06.000Z</time>
      </trkpt>
      <trkpt lat="40.1224671117961406707763671875" lon="-0.74234032072126865386962890625">
        <ele>858.5999755859375</ele>
        <time>2019-07-07T08:47:07.000Z</time>
      </trkpt>
      <trkpt lat="40.1225147210061550140380859375" lon="-0.74259479530155658721923828125">
        <ele>861.20001220703125</ele>
        <time>2019-07-07T08:47:08.000Z</time>
      </trkpt>
      <trkpt lat="40.12256727553904056549072265625" lon="-0.7428513653576374053955078125">
        <ele>862.5999755859375</ele>
        <time>2019-07-07T08:47:09.000Z</time>
      </trkpt>
      <trkpt lat="40.12276425026357173919677734375" lon="-0.74359157122671604156494140625">
        <ele>862</ele>
        <time>2019-07-07T08:47:12.000Z</time>
      </trkpt>
      <trkpt lat="40.12301537208259105682373046875" lon="-0.74432984925806522369384765625">
        <ele>860.79998779296875</ele>
        <time>2019-07-07T08:47:15.000Z</time>
      </trkpt>
      <trkpt lat="40.12311126105487346649169921875" lon="-0.74458901770412921905517578125">
        <ele>862</ele>
        <time>2019-07-07T08:47:16.000Z</time>
      </trkpt>
      <trkpt lat="40.12321251444518566131591796875" lon="-0.74485740624368190765380859375">
        <ele>863.4000244140625</ele>
        <time>2019-07-07T08:47:17.000Z</time>
      </trkpt>
      <trkpt lat="40.12331443838775157928466796875" lon="-0.7451312430202960968017578125">
        <ele>864.5999755859375</ele>
        <time>2019-07-07T08:47:18.000Z</time>
      </trkpt>
      <trkpt lat="40.1235104911029338836669921875" lon="-0.74569635093212127685546875">
        <ele>865.5999755859375</ele>
        <time>2019-07-07T08:47:20.000Z</time>
      </trkpt>
      <trkpt lat="40.1237024366855621337890625" lon="-0.74628509581089019775390625">
        <ele>865.5999755859375</ele>
        <time>2019-07-07T08:47:22.000Z</time>
      </trkpt>
      <trkpt lat="40.1238901913166046142578125" lon="-0.7468758523464202880859375">
        <ele>867.4000244140625</ele>
        <time>2019-07-07T08:47:24.000Z</time>
      </trkpt>
      <trkpt lat="40.124072246253490447998046875" lon="-0.7474647648632526397705078125">
        <ele>869.4000244140625</ele>
        <time>2019-07-07T08:47:26.000Z</time>
      </trkpt>
      <trkpt lat="40.12425153516232967376708984375" lon="-0.74804001487791538238525390625">
        <ele>871.5999755859375</ele>
        <time>2019-07-07T08:47:28.000Z</time>
      </trkpt>
      <trkpt lat="40.12434172444045543670654296875" lon="-0.74832868762314319610595703125">
        <ele>873</ele>
        <time>2019-07-07T08:47:29.000Z</time>
      </trkpt>
      <trkpt lat="40.12452394701540470123291015625" lon="-0.7489158399403095245361328125">
        <ele>875</ele>
        <time>2019-07-07T08:47:31.000Z</time>
      </trkpt>
      <trkpt lat="40.12461530975997447967529296875" lon="-0.74921532534062862396240234375">
        <ele>876.79998779296875</ele>
        <time>2019-07-07T08:47:32.000Z</time>
      </trkpt>
      <trkpt lat="40.12470549903810024261474609375" lon="-0.74952059425413608551025390625">
        <ele>878.5999755859375</ele>
        <time>2019-07-07T08:47:33.000Z</time>
      </trkpt>
      <trkpt lat="40.12479518540203571319580078125" lon="-0.749829970300197601318359375">
        <ele>880</ele>
        <time>2019-07-07T08:47:34.000Z</time>
      </trkpt>
      <trkpt lat="40.1249783299863338470458984375" lon="-0.750459618866443634033203125">
        <ele>881.20001220703125</ele>
        <time>2019-07-07T08:47:36.000Z</time>
      </trkpt>
      <trkpt lat="40.12516734190285205841064453125" lon="-0.75111399404704570770263671875">
        <ele>882.4000244140625</ele>
        <time>2019-07-07T08:47:38.000Z</time>
      </trkpt>
      <trkpt lat="40.1253612153232097625732421875" lon="-0.75181782245635986328125">
        <ele>882.79998779296875</ele>
        <time>2019-07-07T08:47:40.000Z</time>
      </trkpt>
      <trkpt lat="40.1255667395889759063720703125" lon="-0.7525505684316158294677734375">
        <ele>882.5999755859375</ele>
        <time>2019-07-07T08:47:42.000Z</time>
      </trkpt>
      <trkpt lat="40.12577117420732975006103515625" lon="-0.75327954255044460296630859375">
        <ele>879.5999755859375</ele>
        <time>2019-07-07T08:47:44.000Z</time>
      </trkpt>
      <trkpt lat="40.12586873956024646759033203125" lon="-0.75363677926361560821533203125">
        <ele>878.4000244140625</ele>
        <time>2019-07-07T08:47:45.000Z</time>
      </trkpt>
      <trkpt lat="40.125964544713497161865234375" lon="-0.75399250723421573638916015625">
        <ele>875.5999755859375</ele>
        <time>2019-07-07T08:47:46.000Z</time>
      </trkpt>
      <trkpt lat="40.12606102041900157928466796875" lon="-0.75434505008161067962646484375">
        <ele>874.20001220703125</ele>
        <time>2019-07-07T08:47:47.000Z</time>
      </trkpt>
      <trkpt lat="40.12615690939128398895263671875" lon="-0.754693485796451568603515625">
        <ele>871.5999755859375</ele>
        <time>2019-07-07T08:47:48.000Z</time>
      </trkpt>
      <trkpt lat="40.12625246308743953704833984375" lon="-0.7550383172929286956787109375">
        <ele>869.20001220703125</ele>
        <time>2019-07-07T08:47:49.000Z</time>
      </trkpt>
      <trkpt lat="40.12634751386940479278564453125" lon="-0.75538138858973979949951171875">
        <ele>868</ele>
        <time>2019-07-07T08:47:50.000Z</time>
      </trkpt>
      <trkpt lat="40.12653417885303497314453125" lon="-0.7560656033456325531005859375">
        <ele>868.20001220703125</ele>
        <time>2019-07-07T08:47:52.000Z</time>
      </trkpt>
      <trkpt lat="40.126626379787921905517578125" lon="-0.756408758461475372314453125">
        <ele>869.20001220703125</ele>
        <time>2019-07-07T08:47:53.000Z</time>
      </trkpt>
      <trkpt lat="40.12681287713348865509033203125" lon="-0.75709783472120761871337890625">
        <ele>871</ele>
        <time>2019-07-07T08:47:55.000Z</time>
      </trkpt>
      <trkpt lat="40.1270069181919097900390625" lon="-0.75778598897159099578857421875">
        <ele>872</ele>
        <time>2019-07-07T08:47:57.000Z</time>
      </trkpt>
      <trkpt lat="40.12720095925033092498779296875" lon="-0.75848788954317569732666015625">
        <ele>872.20001220703125</ele>
        <time>2019-07-07T08:47:59.000Z</time>
      </trkpt>
      <trkpt lat="40.12729701586067676544189453125" lon="-0.7588410191237926483154296875">
        <ele>871.20001220703125</ele>
        <time>2019-07-07T08:48:00.000Z</time>
      </trkpt>
      <trkpt lat="40.1273943297564983367919921875" lon="-0.759194903075695037841796875">
        <ele>870</ele>
        <time>2019-07-07T08:48:01.000Z</time>
      </trkpt>
      <trkpt lat="40.12749197892844676971435546875" lon="-0.7595491223037242889404296875">
        <ele>868.79998779296875</ele>
        <time>2019-07-07T08:48:02.000Z</time>
      </trkpt>
      <trkpt lat="40.12768618762493133544921875" lon="-0.76025295071303844451904296875">
        <ele>867.20001220703125</ele>
        <time>2019-07-07T08:48:04.000Z</time>
      </trkpt>
      <trkpt lat="40.12787637300789356231689453125" lon="-0.76093942858278751373291015625">
        <ele>866.20001220703125</ele>
        <time>2019-07-07T08:48:06.000Z</time>
      </trkpt>
      <trkpt lat="40.1279698312282562255859375" lon="-0.76127788983285427093505859375">
        <ele>864.4000244140625</ele>
        <time>2019-07-07T08:48:07.000Z</time>
      </trkpt>
      <trkpt lat="40.12806312181055545806884765625" lon="-0.76161517761647701263427734375">
        <ele>862.5999755859375</ele>
        <time>2019-07-07T08:48:08.000Z</time>
      </trkpt>
      <trkpt lat="40.12815599329769611358642578125" lon="-0.76195196248590946197509765625">
        <ele>860.4000244140625</ele>
        <time>2019-07-07T08:48:09.000Z</time>
      </trkpt>
      <trkpt lat="40.12834089808166027069091796875" lon="-0.7626215927302837371826171875">
        <ele>859.5999755859375</ele>
        <time>2019-07-07T08:48:11.000Z</time>
      </trkpt>
      <trkpt lat="40.1285238750278949737548828125" lon="-0.76328770257532596588134765625">
        <ele>860.20001220703125</ele>
        <time>2019-07-07T08:48:13.000Z</time>
      </trkpt>
      <trkpt lat="40.12861649505794048309326171875" lon="-0.76361945830285549163818359375">
        <ele>862</ele>
        <time>2019-07-07T08:48:14.000Z</time>
      </trkpt>
      <trkpt lat="40.12880156747996807098388671875" lon="-0.764289088547229766845703125">
        <ele>863.20001220703125</ele>
        <time>2019-07-07T08:48:16.000Z</time>
      </trkpt>
      <trkpt lat="40.12898529879748821258544921875" lon="-0.76496559195220470428466796875">
        <ele>862.5999755859375</ele>
        <time>2019-07-07T08:48:18.000Z</time>
      </trkpt>
      <trkpt lat="40.12907917611300945281982421875" lon="-0.76530489139258861541748046875">
        <ele>860.79998779296875</ele>
        <time>2019-07-07T08:48:19.000Z</time>
      </trkpt>
      <trkpt lat="40.1292678527534008026123046875" lon="-0.7659850828349590301513671875">
        <ele>858.4000244140625</ele>
        <time>2019-07-07T08:48:21.000Z</time>
      </trkpt>
      <trkpt lat="40.1294539310038089752197265625" lon="-0.766662843525409698486328125">
        <ele>859.4000244140625</ele>
        <time>2019-07-07T08:48:23.000Z</time>
      </trkpt>
      <trkpt lat="40.1295471377670764923095703125" lon="-0.76699803583323955535888671875">
        <ele>860.5999755859375</ele>
        <time>2019-07-07T08:48:24.000Z</time>
      </trkpt>
      <trkpt lat="40.12963992543518543243408203125" lon="-0.76733230613172054290771484375">
        <ele>861.79998779296875</ele>
        <time>2019-07-07T08:48:25.000Z</time>
      </trkpt>
      <trkpt lat="40.12973229400813579559326171875" lon="-0.76766774989664554595947265625">
        <ele>863.20001220703125</ele>
        <time>2019-07-07T08:48:26.000Z</time>
      </trkpt>
      <trkpt lat="40.129824578762054443359375" lon="-0.7680054567754268646240234375">
        <ele>864.79998779296875</ele>
        <time>2019-07-07T08:48:27.000Z</time>
      </trkpt>
      <trkpt lat="40.13001845218241214752197265625" lon="-0.7686875760555267333984375">
        <ele>866.5999755859375</ele>
        <time>2019-07-07T08:48:29.000Z</time>
      </trkpt>
      <trkpt lat="40.130221210420131683349609375" lon="-0.76937095262110233306884765625">
        <ele>867.5999755859375</ele>
        <time>2019-07-07T08:48:31.000Z</time>
      </trkpt>
      <trkpt lat="40.13043201528489589691162109375" lon="-0.7700533233582973480224609375">
        <ele>870.4000244140625</ele>
        <time>2019-07-07T08:48:33.000Z</time>
      </trkpt>
      <trkpt lat="40.13065078295767307281494140625" lon="-0.7707335986196994781494140625">
        <ele>871.20001220703125</ele>
        <time>2019-07-07T08:48:35.000Z</time>
      </trkpt>
      <trkpt lat="40.13076527975499629974365234375" lon="-0.77107063494622707366943359375">
        <ele>869.4000244140625</ele>
        <time>2019-07-07T08:48:36.000Z</time>
      </trkpt>
      <trkpt lat="40.1308835484087467193603515625" lon="-0.771406330168247222900390625">
        <ele>865.79998779296875</ele>
        <time>2019-07-07T08:48:37.000Z</time>
      </trkpt>
      <trkpt lat="40.131006427109241485595703125" lon="-0.77174001373350620269775390625">
        <ele>863</ele>
        <time>2019-07-07T08:48:38.000Z</time>
      </trkpt>
      <trkpt lat="40.13113324530422687530517578125" lon="-0.7720726914703845977783203125">
        <ele>861.4000244140625</ele>
        <time>2019-07-07T08:48:39.000Z</time>
      </trkpt>
      <trkpt lat="40.13139593414962291717529296875" lon="-0.7727325148880481719970703125">
        <ele>860.4000244140625</ele>
        <time>2019-07-07T08:48:41.000Z</time>
      </trkpt>
      <trkpt lat="40.13153473846614360809326171875" lon="-0.77305890619754791259765625">
        <ele>860.20001220703125</ele>
        <time>2019-07-07T08:48:42.000Z</time>
      </trkpt>
      <trkpt lat="40.13182223774492740631103515625" lon="-0.77370925806462764739990234375">
        <ele>859.79998779296875</ele>
        <time>2019-07-07T08:48:44.000Z</time>
      </trkpt>
      <trkpt lat="40.1321200467646121978759765625" lon="-0.7743626274168491363525390625">
        <ele>861</ele>
        <time>2019-07-07T08:48:46.000Z</time>
      </trkpt>
      <trkpt lat="40.13243294321000576019287109375" lon="-0.77501079998910427093505859375">
        <ele>859.5999755859375</ele>
        <time>2019-07-07T08:48:48.000Z</time>
      </trkpt>
      <trkpt lat="40.13259672559797763824462890625" lon="-0.7753302343189716339111328125">
        <ele>859</ele>
        <time>2019-07-07T08:48:49.000Z</time>
      </trkpt>
      <trkpt lat="40.1329346001148223876953125" lon="-0.7759652473032474517822265625">
        <ele>858.79998779296875</ele>
        <time>2019-07-07T08:48:51.000Z</time>
      </trkpt>
      <trkpt lat="40.1331094466149806976318359375" lon="-0.7762809097766876220703125">
        <ele>857.20001220703125</ele>
        <time>2019-07-07T08:48:52.000Z</time>
      </trkpt>
      <trkpt lat="40.13328689150512218475341796875" lon="-0.77659497968852519989013671875">
        <ele>855.4000244140625</ele>
        <time>2019-07-07T08:48:53.000Z</time>
      </trkpt>
      <trkpt lat="40.1334668509662151336669921875" lon="-0.7769050262868404388427734375">
        <ele>854.20001220703125</ele>
        <time>2019-07-07T08:48:54.000Z</time>
      </trkpt>
      <trkpt lat="40.13383607380092144012451171875" lon="-0.77751363627612590789794921875">
        <ele>852.79998779296875</ele>
        <time>2019-07-07T08:48:56.000Z</time>
      </trkpt>
      <trkpt lat="40.13402617536485195159912109375" lon="-0.77781186439096927642822265625">
        <ele>851.5999755859375</ele>
        <time>2019-07-07T08:48:57.000Z</time>
      </trkpt>
      <trkpt lat="40.1342202164232730865478515625" lon="-0.7781049795448780059814453125">
        <ele>849.5999755859375</ele>
        <time>2019-07-07T08:48:58.000Z</time>
      </trkpt>
      <trkpt lat="40.1344178617000579833984375" lon="-0.77839381992816925048828125">
        <ele>847.20001220703125</ele>
        <time>2019-07-07T08:48:59.000Z</time>
      </trkpt>
      <trkpt lat="40.13461609371006488800048828125" lon="-0.778681822121143341064453125">
        <ele>846</ele>
        <time>2019-07-07T08:49:00.000Z</time>
      </trkpt>
      <trkpt lat="40.13502010144293308258056640625" lon="-0.77925371937453746795654296875">
        <ele>845.5999755859375</ele>
        <time>2019-07-07T08:49:02.000Z</time>
      </trkpt>
      <trkpt lat="40.1354426331818103790283203125" lon="-0.779815725982189178466796875">
        <ele>845.5999755859375</ele>
        <time>2019-07-07T08:49:04.000Z</time>
      </trkpt>
      <trkpt lat="40.13587505556643009185791015625" lon="-0.78037270344793796539306640625">
        <ele>847.20001220703125</ele>
        <time>2019-07-07T08:49:06.000Z</time>
      </trkpt>
      <trkpt lat="40.13631275855004787445068359375" lon="-0.7809286750853061676025390625">
        <ele>846</ele>
        <time>2019-07-07T08:49:08.000Z</time>
      </trkpt>
      <trkpt lat="40.136750377714633941650390625" lon="-0.781486742198467254638671875">
        <ele>846</ele>
        <time>2019-07-07T08:49:10.000Z</time>
      </trkpt>
      <trkpt lat="40.13719202019274234771728515625" lon="-0.7820503413677215576171875">
        <ele>846</ele>
        <time>2019-07-07T08:49:12.000Z</time>
      </trkpt>
      <trkpt lat="40.137644223868846893310546875" lon="-0.78262525610625743865966796875">
        <ele>848</ele>
        <time>2019-07-07T08:49:14.000Z</time>
      </trkpt>
      <trkpt lat="40.13787321746349334716796875" lon="-0.782910995185375213623046875">
        <ele>849.79998779296875</ele>
        <time>2019-07-07T08:49:15.000Z</time>
      </trkpt>
      <trkpt lat="40.13833413831889629364013671875" lon="-0.7834791205823421478271484375">
        <ele>850.5999755859375</ele>
        <time>2019-07-07T08:49:17.000Z</time>
      </trkpt>
      <trkpt lat="40.1385660655796527862548828125" lon="-0.783755220472812652587890625">
        <ele>851.79998779296875</ele>
        <time>2019-07-07T08:49:18.000Z</time>
      </trkpt>
      <trkpt lat="40.1390258967876434326171875" lon="-0.7842998765408992767333984375">
        <ele>853.5999755859375</ele>
        <time>2019-07-07T08:49:20.000Z</time>
      </trkpt>
      <trkpt lat="40.13946418650448322296142578125" lon="-0.78485500998795032501220703125">
        <ele>854</ele>
        <time>2019-07-07T08:49:22.000Z</time>
      </trkpt>
      <trkpt lat="40.13967675156891345977783203125" lon="-0.78513395972549915313720703125">
        <ele>855.20001220703125</ele>
        <time>2019-07-07T08:49:23.000Z</time>
      </trkpt>
      <trkpt lat="40.1398860476911067962646484375" lon="-0.78541240654885768890380859375">
        <ele>856.5999755859375</ele>
        <time>2019-07-07T08:49:24.000Z</time>
      </trkpt>
      <trkpt lat="40.1402940787374973297119140625" lon="-0.7859729044139385223388671875">
        <ele>859</ele>
        <time>2019-07-07T08:49:26.000Z</time>
      </trkpt>
      <trkpt lat="40.14049398712813854217529296875" lon="-0.786253698170185089111328125">
        <ele>861.5999755859375</ele>
        <time>2019-07-07T08:49:27.000Z</time>
      </trkpt>
      <trkpt lat="40.14069045893847942352294921875" lon="-0.7865348272025585174560546875">
        <ele>865.79998779296875</ele>
        <time>2019-07-07T08:49:28.000Z</time>
      </trkpt>
      <trkpt lat="40.14088508673012256622314453125" lon="-0.78681771643459796905517578125">
        <ele>868</ele>
        <time>2019-07-07T08:49:29.000Z</time>
      </trkpt>
      <trkpt lat="40.14107887633144855499267578125" lon="-0.78710370697081089019775390625">
        <ele>871</ele>
        <time>2019-07-07T08:49:30.000Z</time>
      </trkpt>
      <trkpt lat="40.14127048663794994354248046875" lon="-0.78739321790635585784912109375">
        <ele>872.4000244140625</ele>
        <time>2019-07-07T08:49:31.000Z</time>
      </trkpt>
      <trkpt lat="40.14145840890705585479736328125" lon="-0.78768792562186717987060546875">
        <ele>874.5999755859375</ele>
        <time>2019-07-07T08:49:32.000Z</time>
      </trkpt>
      <trkpt lat="40.1416422240436077117919921875" lon="-0.78798732720315456390380859375">
        <ele>876</ele>
        <time>2019-07-07T08:49:33.000Z</time>
      </trkpt>
      <trkpt lat="40.14200692065060138702392578125" lon="-0.78859183005988597869873046875">
        <ele>877</ele>
        <time>2019-07-07T08:49:35.000Z</time>
      </trkpt>
      <trkpt lat="40.14218662865459918975830078125" lon="-0.7888958416879177093505859375">
        <ele>877.5999755859375</ele>
        <time>2019-07-07T08:49:36.000Z</time>
      </trkpt>
      <trkpt lat="40.14253397472202777862548828125" lon="-0.78951300121843814849853515625">
        <ele>878.79998779296875</ele>
        <time>2019-07-07T08:49:38.000Z</time>
      </trkpt>
      <trkpt lat="40.14270362444221973419189453125" lon="-0.78982480801641941070556640625">
        <ele>880.4000244140625</ele>
        <time>2019-07-07T08:49:39.000Z</time>
      </trkpt>
      <trkpt lat="40.14302800409495830535888671875" lon="-0.79046267084777355194091796875">
        <ele>880.79998779296875</ele>
        <time>2019-07-07T08:49:41.000Z</time>
      </trkpt>
      <trkpt lat="40.14318658970296382904052734375" lon="-0.79078637994825839996337890625">
        <ele>882.4000244140625</ele>
        <time>2019-07-07T08:49:42.000Z</time>
      </trkpt>
      <trkpt lat="40.143342576920986175537109375" lon="-0.79111411236226558685302734375">
        <ele>884.20001220703125</ele>
        <time>2019-07-07T08:49:43.000Z</time>
      </trkpt>
      <trkpt lat="40.14349638484418392181396484375" lon="-0.79144410789012908935546875">
        <ele>886.20001220703125</ele>
        <time>2019-07-07T08:49:44.000Z</time>
      </trkpt>
      <trkpt lat="40.1436460018157958984375" lon="-0.791779048740863800048828125">
        <ele>887.20001220703125</ele>
        <time>2019-07-07T08:49:45.000Z</time>
      </trkpt>
      <trkpt lat="40.1437916792929172515869140625" lon="-0.7921178452670574188232421875">
        <ele>887.4000244140625</ele>
        <time>2019-07-07T08:49:46.000Z</time>
      </trkpt>
      <trkpt lat="40.144074819982051849365234375" lon="-0.79280340112745761871337890625">
        <ele>888.5999755859375</ele>
        <time>2019-07-07T08:49:48.000Z</time>
      </trkpt>
      <trkpt lat="40.144344381988048553466796875" lon="-0.793499015271663665771484375">
        <ele>890.5999755859375</ele>
        <time>2019-07-07T08:49:50.000Z</time>
      </trkpt>
      <trkpt lat="40.14459759928286075592041015625" lon="-0.79420669935643672943115234375">
        <ele>891.5999755859375</ele>
        <time>2019-07-07T08:49:52.000Z</time>
      </trkpt>
      <trkpt lat="40.144720561802387237548828125" lon="-0.794564187526702880859375">
        <ele>893</ele>
        <time>2019-07-07T08:49:53.000Z</time>
      </trkpt>
      <trkpt lat="40.14484100975096225738525390625" lon="-0.79492301680147647857666015625">
        <ele>894</ele>
        <time>2019-07-07T08:49:54.000Z</time>
      </trkpt>
      <trkpt lat="40.14506950043141841888427734375" lon="-0.79564251936972141265869140625">
        <ele>895.4000244140625</ele>
        <time>2019-07-07T08:49:56.000Z</time>
      </trkpt>
      <trkpt lat="40.14527787454426288604736328125" lon="-0.79636168666183948516845703125">
        <ele>897.4000244140625</ele>
        <time>2019-07-07T08:49:58.000Z</time>
      </trkpt>
      <trkpt lat="40.1453748531639575958251953125" lon="-0.79672378487884998321533203125">
        <ele>899.20001220703125</ele>
        <time>2019-07-07T08:49:59.000Z</time>
      </trkpt>
      <trkpt lat="40.14546789228916168212890625" lon="-0.79708789475262165069580078125">
        <ele>900.20001220703125</ele>
        <time>2019-07-07T08:50:00.000Z</time>
      </trkpt>
      <trkpt lat="40.14564181677997112274169921875" lon="-0.7978182099759578704833984375">
        <ele>901.20001220703125</ele>
        <time>2019-07-07T08:50:02.000Z</time>
      </trkpt>
      <trkpt lat="40.1458026655018329620361328125" lon="-0.79855338670313358306884765625">
        <ele>901.4000244140625</ele>
        <time>2019-07-07T08:50:04.000Z</time>
      </trkpt>
      <trkpt lat="40.1458762586116790771484375" lon="-0.79892403446137905120849609375">
        <ele>902.4000244140625</ele>
        <time>2019-07-07T08:50:05.000Z</time>
      </trkpt>
      <trkpt lat="40.1460063457489013671875" lon="-0.7996669225394725799560546875">
        <ele>903.4000244140625</ele>
        <time>2019-07-07T08:50:07.000Z</time>
      </trkpt>
      <trkpt lat="40.14606577344238758087158203125" lon="-0.80003832466900348663330078125">
        <ele>905</ele>
        <time>2019-07-07T08:50:08.000Z</time>
      </trkpt>
      <trkpt lat="40.14618010260164737701416015625" lon="-0.80078917555510997772216796875">
        <ele>905.79998779296875</ele>
        <time>2019-07-07T08:50:10.000Z</time>
      </trkpt>
      <trkpt lat="40.146236009895801544189453125" lon="-0.801166780292987823486328125">
        <ele>907.20001220703125</ele>
        <time>2019-07-07T08:50:11.000Z</time>
      </trkpt>
      <trkpt lat="40.14634522609412670135498046875" lon="-0.80192961730062961578369140625">
        <ele>909.20001220703125</ele>
        <time>2019-07-07T08:50:13.000Z</time>
      </trkpt>
      <trkpt lat="40.14644815586507320404052734375" lon="-0.80269656144082546234130859375">
        <ele>908.79998779296875</ele>
        <time>2019-07-07T08:50:15.000Z</time>
      </trkpt>
      <trkpt lat="40.146532393991947174072265625" lon="-0.8034624159336090087890625">
        <ele>911</ele>
        <time>2019-07-07T08:50:17.000Z</time>
      </trkpt>
      <trkpt lat="40.1466069929301738739013671875" lon="-0.8042295277118682861328125">
        <ele>912.20001220703125</ele>
        <time>2019-07-07T08:50:19.000Z</time>
      </trkpt>
      <trkpt lat="40.1466478966176509857177734375" lon="-0.80461450852453708648681640625">
        <ele>913.20001220703125</ele>
        <time>2019-07-07T08:50:20.000Z</time>
      </trkpt>
      <trkpt lat="40.1466911472380161285400390625" lon="-0.80500041134655475616455078125">
        <ele>914.4000244140625</ele>
        <time>2019-07-07T08:50:21.000Z</time>
      </trkpt>
      <trkpt lat="40.14678041450679302215576171875" lon="-0.8057706244289875030517578125">
        <ele>915.4000244140625</ele>
        <time>2019-07-07T08:50:23.000Z</time>
      </trkpt>
      <trkpt lat="40.1468812488019466400146484375" lon="-0.80654351972043514251708984375">
        <ele>914.20001220703125</ele>
        <time>2019-07-07T08:50:25.000Z</time>
      </trkpt>
      <trkpt lat="40.1469757966697216033935546875" lon="-0.8073232881724834442138671875">
        <ele>913.4000244140625</ele>
        <time>2019-07-07T08:50:27.000Z</time>
      </trkpt>
      <trkpt lat="40.1470167003571987152099609375" lon="-0.80771598033607006072998046875">
        <ele>912.4000244140625</ele>
        <time>2019-07-07T08:50:28.000Z</time>
      </trkpt>
      <trkpt lat="40.14705768786370754241943359375" lon="-0.80810909159481525421142578125">
        <ele>911.20001220703125</ele>
        <time>2019-07-07T08:50:29.000Z</time>
      </trkpt>
      <trkpt lat="40.14714133925735950469970703125" lon="-0.80889162607491016387939453125">
        <ele>909.4000244140625</ele>
        <time>2019-07-07T08:50:31.000Z</time>
      </trkpt>
      <trkpt lat="40.14722767286002635955810546875" lon="-0.80966611392796039581298828125">
        <ele>908.79998779296875</ele>
        <time>2019-07-07T08:50:33.000Z</time>
      </trkpt>
      <trkpt lat="40.1473221369087696075439453125" lon="-0.81041277386248111724853515625">
        <ele>908.79998779296875</ele>
        <time>2019-07-07T08:50:35.000Z</time>
      </trkpt>
      <trkpt lat="40.14741978608071804046630859375" lon="-0.81112909130752086639404296875">
        <ele>910.20001220703125</ele>
        <time>2019-07-07T08:50:37.000Z</time>
      </trkpt>
      <trkpt lat="40.14747007749974727630615234375" lon="-0.81148079596459865570068359375">
        <ele>911</ele>
        <time>2019-07-07T08:50:38.000Z</time>
      </trkpt>
      <trkpt lat="40.147580802440643310546875" lon="-0.812178589403629302978515625">
        <ele>910.79998779296875</ele>
        <time>2019-07-07T08:50:40.000Z</time>
      </trkpt>
      <trkpt lat="40.14770208857953548431396484375" lon="-0.81287437118589878082275390625">
        <ele>910.20001220703125</ele>
        <time>2019-07-07T08:50:42.000Z</time>
      </trkpt>
      <trkpt lat="40.14776654541492462158203125" lon="-0.81322255544364452362060546875">
        <ele>909.5999755859375</ele>
        <time>2019-07-07T08:50:43.000Z</time>
      </trkpt>
      <trkpt lat="40.14790727756917476654052734375" lon="-0.81392596475780010223388671875">
        <ele>908.5999755859375</ele>
        <time>2019-07-07T08:50:45.000Z</time>
      </trkpt>
      <trkpt lat="40.14806569553911685943603515625" lon="-0.8146338164806365966796875">
        <ele>909.5999755859375</ele>
        <time>2019-07-07T08:50:47.000Z</time>
      </trkpt>
      <trkpt lat="40.14824238605797290802001953125" lon="-0.8153437636792659759521484375">
        <ele>908.79998779296875</ele>
        <time>2019-07-07T08:50:49.000Z</time>
      </trkpt>
      <trkpt lat="40.1483370177447795867919921875" lon="-0.815700329840183258056640625">
        <ele>907</ele>
        <time>2019-07-07T08:50:50.000Z</time>
      </trkpt>
      <trkpt lat="40.14843533746898174285888671875" lon="-0.81605731509625911712646484375">
        <ele>908.4000244140625</ele>
        <time>2019-07-07T08:50:51.000Z</time>
      </trkpt>
      <trkpt lat="40.1486434601247310638427734375" lon="-0.81677027978003025054931640625">
        <ele>907.20001220703125</ele>
        <time>2019-07-07T08:50:53.000Z</time>
      </trkpt>
      <trkpt lat="40.148866586387157440185546875" lon="-0.81748039461672306060791015625">
        <ele>906.5999755859375</ele>
        <time>2019-07-07T08:50:55.000Z</time>
      </trkpt>
      <trkpt lat="40.14910153113305568695068359375" lon="-0.81817994825541973114013671875">
        <ele>908.79998779296875</ele>
        <time>2019-07-07T08:50:57.000Z</time>
      </trkpt>
      <trkpt lat="40.149351395666599273681640625" lon="-0.818870030343532562255859375">
        <ele>910.20001220703125</ele>
        <time>2019-07-07T08:50:59.000Z</time>
      </trkpt>
      <trkpt lat="40.149480812251567840576171875" lon="-0.81921310164034366607666015625">
        <ele>911.4000244140625</ele>
        <time>2019-07-07T08:51:00.000Z</time>
      </trkpt>
      <trkpt lat="40.14961366541683673858642578125" lon="-0.819554664194583892822265625">
        <ele>913.4000244140625</ele>
        <time>2019-07-07T08:51:01.000Z</time>
      </trkpt>
      <trkpt lat="40.14975138008594512939453125" lon="-0.819891951978206634521484375">
        <ele>915.5999755859375</ele>
        <time>2019-07-07T08:51:02.000Z</time>
      </trkpt>
      <trkpt lat="40.14989085495471954345703125" lon="-0.82022546790540218353271484375">
        <ele>917.4000244140625</ele>
        <time>2019-07-07T08:51:03.000Z</time>
      </trkpt>
      <trkpt lat="40.1500336825847625732421875" lon="-0.8205546252429485321044921875">
        <ele>919</ele>
        <time>2019-07-07T08:51:04.000Z</time>
      </trkpt>
      <trkpt lat="40.1503278873860836029052734375" lon="-0.82119927741587162017822265625">
        <ele>920.20001220703125</ele>
        <time>2019-07-07T08:51:06.000Z</time>
      </trkpt>
      <trkpt lat="40.15063055790960788726806640625" lon="-0.82183244638144969940185546875">
        <ele>919.4000244140625</ele>
        <time>2019-07-07T08:51:08.000Z</time>
      </trkpt>
      <trkpt lat="40.15078562311828136444091796875" lon="-0.82214509136974811553955078125">
        <ele>918.5999755859375</ele>
        <time>2019-07-07T08:51:09.000Z</time>
      </trkpt>
      <trkpt lat="40.1509437896311283111572265625" lon="-0.82245438359677791595458984375">
        <ele>916.79998779296875</ele>
        <time>2019-07-07T08:51:10.000Z</time>
      </trkpt>
      <trkpt lat="40.1511050574481487274169921875" lon="-0.822759233415126800537109375">
        <ele>914.5999755859375</ele>
        <time>2019-07-07T08:51:11.000Z</time>
      </trkpt>
      <trkpt lat="40.1514316163957118988037109375" lon="-0.82335074432194232940673828125">
        <ele>914.79998779296875</ele>
        <time>2019-07-07T08:51:13.000Z</time>
      </trkpt>
      <trkpt lat="40.1517610251903533935546875" lon="-0.82392808981239795684814453125">
        <ele>915.79998779296875</ele>
        <time>2019-07-07T08:51:15.000Z</time>
      </trkpt>
      <trkpt lat="40.15192690305411815643310546875" lon="-0.82420955412089824676513671875">
        <ele>916.79998779296875</ele>
        <time>2019-07-07T08:51:16.000Z</time>
      </trkpt>
      <trkpt lat="40.152095966041088104248046875" lon="-0.82448422908782958984375">
        <ele>918.4000244140625</ele>
        <time>2019-07-07T08:51:17.000Z</time>
      </trkpt>
      <trkpt lat="40.15226569958031177520751953125" lon="-0.8247546292841434478759765625">
        <ele>919.79998779296875</ele>
        <time>2019-07-07T08:51:18.000Z</time>
      </trkpt>
      <trkpt lat="40.1526121236383914947509765625" lon="-0.825291238725185394287109375">
        <ele>921</ele>
        <time>2019-07-07T08:51:20.000Z</time>
      </trkpt>
      <trkpt lat="40.15296558849513530731201171875" lon="-0.825826339423656463623046875">
        <ele>921.79998779296875</ele>
        <time>2019-07-07T08:51:22.000Z</time>
      </trkpt>
      <trkpt lat="40.153327770531177520751953125" lon="-0.826362781226634979248046875">
        <ele>922.4000244140625</ele>
        <time>2019-07-07T08:51:24.000Z</time>
      </trkpt>
      <trkpt lat="40.15369632281363010406494140625" lon="-0.8268963731825351715087890625">
        <ele>922.79998779296875</ele>
        <time>2019-07-07T08:51:26.000Z</time>
      </trkpt>
      <trkpt lat="40.15406931750476360321044921875" lon="-0.82742619328200817108154296875">
        <ele>921.5999755859375</ele>
        <time>2019-07-07T08:51:28.000Z</time>
      </trkpt>
      <trkpt lat="40.1542546413838863372802734375" lon="-0.82769625820219516754150390625">
        <ele>921.20001220703125</ele>
        <time>2019-07-07T08:51:29.000Z</time>
      </trkpt>
      <trkpt lat="40.154628641903400421142578125" lon="-0.82824108190834522247314453125">
        <ele>920.4000244140625</ele>
        <time>2019-07-07T08:51:31.000Z</time>
      </trkpt>
      <trkpt lat="40.15481882728636264801025390625" lon="-0.82851734943687915802001953125">
        <ele>920.20001220703125</ele>
        <time>2019-07-07T08:51:32.000Z</time>
      </trkpt>
      <trkpt lat="40.155205987393856048583984375" lon="-0.8290801942348480224609375">
        <ele>919</ele>
        <time>2019-07-07T08:51:34.000Z</time>
      </trkpt>
      <trkpt lat="40.15560320578515529632568359375" lon="-0.829657204449176788330078125">
        <ele>917.4000244140625</ele>
        <time>2019-07-07T08:51:36.000Z</time>
      </trkpt>
      <trkpt lat="40.15580420382320880889892578125" lon="-0.82994964905083179473876953125">
        <ele>916</ele>
        <time>2019-07-07T08:51:37.000Z</time>
      </trkpt>
      <trkpt lat="40.15620343387126922607421875" lon="-0.83054962567985057830810546875">
        <ele>914.5999755859375</ele>
        <time>2019-07-07T08:51:39.000Z</time>
      </trkpt>
      <trkpt lat="40.15640501864254474639892578125" lon="-0.83085170947015285491943359375">
        <ele>913.20001220703125</ele>
        <time>2019-07-07T08:51:40.000Z</time>
      </trkpt>
      <trkpt lat="40.15660618431866168975830078125" lon="-0.83115496672689914703369140625">
        <ele>912</ele>
        <time>2019-07-07T08:51:41.000Z</time>
      </trkpt>
      <trkpt lat="40.1570075936615467071533203125" lon="-0.83176047541201114654541015625">
        <ele>911.5999755859375</ele>
        <time>2019-07-07T08:51:43.000Z</time>
      </trkpt>
      <trkpt lat="40.15740573406219482421875" lon="-0.832364223897457122802734375">
        <ele>912.4000244140625</ele>
        <time>2019-07-07T08:51:45.000Z</time>
      </trkpt>
      <trkpt lat="40.15780546702444553375244140625" lon="-0.83295456133782863616943359375">
        <ele>912</ele>
        <time>2019-07-07T08:51:47.000Z</time>
      </trkpt>
      <trkpt lat="40.158185251057147979736328125" lon="-0.8335562981665134429931640625">
        <ele>912.5999755859375</ele>
        <time>2019-07-07T08:51:49.000Z</time>
      </trkpt>
      <trkpt lat="40.158366300165653228759765625" lon="-0.83386265672743320465087890625">
        <ele>914.4000244140625</ele>
        <time>2019-07-07T08:51:50.000Z</time>
      </trkpt>
      <trkpt lat="40.1585451699793338775634765625" lon="-0.83417035639286041259765625">
        <ele>916</ele>
        <time>2019-07-07T08:51:51.000Z</time>
      </trkpt>
      <trkpt lat="40.1587195135653018951416015625" lon="-0.83448057062923908233642578125">
        <ele>919.20001220703125</ele>
        <time>2019-07-07T08:51:52.000Z</time>
      </trkpt>
      <trkpt lat="40.158887989819049835205078125" lon="-0.83479522727429866790771484375">
        <ele>920.79998779296875</ele>
        <time>2019-07-07T08:51:53.000Z</time>
      </trkpt>
      <trkpt lat="40.15921547077596187591552734375" lon="-0.8354291506111621856689453125">
        <ele>922</ele>
        <time>2019-07-07T08:51:55.000Z</time>
      </trkpt>
      <trkpt lat="40.15937648713588714599609375" lon="-0.8357463218271732330322265625">
        <ele>920.79998779296875</ele>
        <time>2019-07-07T08:51:56.000Z</time>
      </trkpt>
      <trkpt lat="40.1595349051058292388916015625" lon="-0.83606542088091373443603515625">
        <ele>919.5999755859375</ele>
        <time>2019-07-07T08:51:57.000Z</time>
      </trkpt>
      <trkpt lat="40.15984662808477878570556640625" lon="-0.8367078937590122222900390625">
        <ele>918.4000244140625</ele>
        <time>2019-07-07T08:51:59.000Z</time>
      </trkpt>
      <trkpt lat="40.16000001691281795501708984375" lon="-0.83703151904046535491943359375">
        <ele>920</ele>
        <time>2019-07-07T08:52:00.000Z</time>
      </trkpt>
      <trkpt lat="40.1601524837315082550048828125" lon="-0.8373563177883625030517578125">
        <ele>921.4000244140625</ele>
        <time>2019-07-07T08:52:01.000Z</time>
      </trkpt>
      <trkpt lat="40.16030411235988140106201171875" lon="-0.8376828767359256744384765625">
        <ele>922.5999755859375</ele>
        <time>2019-07-07T08:52:02.000Z</time>
      </trkpt>
      <trkpt lat="40.1604559086263179779052734375" lon="-0.83801186643540859222412109375">
        <ele>923.79998779296875</ele>
        <time>2019-07-07T08:52:03.000Z</time>
      </trkpt>
      <trkpt lat="40.1607571542263031005859375" lon="-0.83866682834923267364501953125">
        <ele>924.5999755859375</ele>
        <time>2019-07-07T08:52:05.000Z</time>
      </trkpt>
      <trkpt lat="40.16105286777019500732421875" lon="-0.83930972032248973846435546875">
        <ele>924.20001220703125</ele>
        <time>2019-07-07T08:52:07.000Z</time>
      </trkpt>
      <trkpt lat="40.16134749166667461395263671875" lon="-0.839943476021289825439453125">
        <ele>922.4000244140625</ele>
        <time>2019-07-07T08:52:09.000Z</time>
      </trkpt>
      <trkpt lat="40.16163817606866359710693359375" lon="-0.84057505242526531219482421875">
        <ele>921.5999755859375</ele>
        <time>2019-07-07T08:52:11.000Z</time>
      </trkpt>
      <trkpt lat="40.16192534007132053375244140625" lon="-0.84120352752506732940673828125">
        <ele>922.79998779296875</ele>
        <time>2019-07-07T08:52:13.000Z</time>
      </trkpt>
      <trkpt lat="40.1622057147324085235595703125" lon="-0.84182211197912693023681640625">
        <ele>922.79998779296875</ele>
        <time>2019-07-07T08:52:15.000Z</time>
      </trkpt>
      <trkpt lat="40.16234560869634151458740234375" lon="-0.8421252854168415069580078125">
        <ele>924.5999755859375</ele>
        <time>2019-07-07T08:52:16.000Z</time>
      </trkpt>
      <trkpt lat="40.16262598335742950439453125" lon="-0.84272853098809719085693359375">
        <ele>926.79998779296875</ele>
        <time>2019-07-07T08:52:18.000Z</time>
      </trkpt>
      <trkpt lat="40.16276386566460132598876953125" lon="-0.84303061477839946746826171875">
        <ele>928.20001220703125</ele>
        <time>2019-07-07T08:52:19.000Z</time>
      </trkpt>
      <trkpt lat="40.16304063610732555389404296875" lon="-0.8436316810548305511474609375">
        <ele>929.20001220703125</ele>
        <time>2019-07-07T08:52:21.000Z</time>
      </trkpt>
      <trkpt lat="40.163317658007144927978515625" lon="-0.84423526190221309661865234375">
        <ele>929.79998779296875</ele>
        <time>2019-07-07T08:52:23.000Z</time>
      </trkpt>
      <trkpt lat="40.16359887085855007171630859375" lon="-0.8448426984250545501708984375">
        <ele>930.4000244140625</ele>
        <time>2019-07-07T08:52:25.000Z</time>
      </trkpt>
      <trkpt lat="40.1638851128518581390380859375" lon="-0.84545382298529148101806640625">
        <ele>930.20001220703125</ele>
        <time>2019-07-07T08:52:27.000Z</time>
      </trkpt>
      <trkpt lat="40.16417068429291248321533203125" lon="-0.8460718207061290740966796875">
        <ele>929.79998779296875</ele>
        <time>2019-07-07T08:52:29.000Z</time>
      </trkpt>
      <trkpt lat="40.16445851884782314300537109375" lon="-0.84669803269207477569580078125">
        <ele>933.4000244140625</ele>
        <time>2019-07-07T08:52:31.000Z</time>
      </trkpt>
      <trkpt lat="40.1647504605352878570556640625" lon="-0.84732634015381336212158203125">
        <ele>934.4000244140625</ele>
        <time>2019-07-07T08:52:33.000Z</time>
      </trkpt>
      <trkpt lat="40.16504709608852863311767578125" lon="-0.84795967675745487213134765625">
        <ele>936.79998779296875</ele>
        <time>2019-07-07T08:52:35.000Z</time>
      </trkpt>
      <trkpt lat="40.16519579105079174041748046875" lon="-0.84827835671603679656982421875">
        <ele>939</ele>
        <time>2019-07-07T08:52:36.000Z</time>
      </trkpt>
      <trkpt lat="40.1654910854995250701904296875" lon="-0.8489216677844524383544921875">
        <ele>938</ele>
        <time>2019-07-07T08:52:38.000Z</time>
      </trkpt>
      <trkpt lat="40.1657898165285587310791015625" lon="-0.849566571414470672607421875">
        <ele>939.79998779296875</ele>
        <time>2019-07-07T08:52:40.000Z</time>
      </trkpt>
      <trkpt lat="40.16593985259532928466796875" lon="-0.8498882688581943511962890625">
        <ele>941.79998779296875</ele>
        <time>2019-07-07T08:52:41.000Z</time>
      </trkpt>
      <trkpt lat="40.1660882122814655303955078125" lon="-0.8502094633877277374267578125">
        <ele>943</ele>
        <time>2019-07-07T08:52:42.000Z</time>
      </trkpt>
      <trkpt lat="40.16638048924505710601806640625" lon="-0.850844644010066986083984375">
        <ele>944.20001220703125</ele>
        <time>2019-07-07T08:52:44.000Z</time>
      </trkpt>
      <trkpt lat="40.16666715033352375030517578125" lon="-0.8514650724828243255615234375">
        <ele>945.5999755859375</ele>
        <time>2019-07-07T08:52:46.000Z</time>
      </trkpt>
      <trkpt lat="40.16694878228008747100830078125" lon="-0.85207619704306125640869140625">
        <ele>947.5999755859375</ele>
        <time>2019-07-07T08:52:48.000Z</time>
      </trkpt>
      <trkpt lat="40.1672301627695560455322265625" lon="-0.8526817895472049713134765625">
        <ele>948.5999755859375</ele>
        <time>2019-07-07T08:52:50.000Z</time>
      </trkpt>
      <trkpt lat="40.167509280145168304443359375" lon="-0.8532903157174587249755859375">
        <ele>947.20001220703125</ele>
        <time>2019-07-07T08:52:52.000Z</time>
      </trkpt>
      <trkpt lat="40.16764816828072071075439453125" lon="-0.85359600372612476348876953125">
        <ele>945.79998779296875</ele>
        <time>2019-07-07T08:52:53.000Z</time>
      </trkpt>
      <trkpt lat="40.1677880622446537017822265625" lon="-0.8539015240967273712158203125">
        <ele>943.79998779296875</ele>
        <time>2019-07-07T08:52:54.000Z</time>
      </trkpt>
      <trkpt lat="40.16792929731309413909912109375" lon="-0.85420620627701282501220703125">
        <ele>942.5999755859375</ele>
        <time>2019-07-07T08:52:55.000Z</time>
      </trkpt>
      <trkpt lat="40.16807220876216888427734375" lon="-0.8545097149908542633056640625">
        <ele>941.4000244140625</ele>
        <time>2019-07-07T08:52:56.000Z</time>
      </trkpt>
      <trkpt lat="40.16835425980389118194580078125" lon="-0.85512268356978893280029296875">
        <ele>939.4000244140625</ele>
        <time>2019-07-07T08:52:58.000Z</time>
      </trkpt>
      <trkpt lat="40.1686396636068820953369140625" lon="-0.85573875345289707183837890625">
        <ele>939.20001220703125</ele>
        <time>2019-07-07T08:53:00.000Z</time>
      </trkpt>
      <trkpt lat="40.1687895320355892181396484375" lon="-0.8560439385473728179931640625">
        <ele>941</ele>
        <time>2019-07-07T08:53:01.000Z</time>
      </trkpt>
      <trkpt lat="40.16908650286495685577392578125" lon="-0.85667786188423633575439453125">
        <ele>942</ele>
        <time>2019-07-07T08:53:03.000Z</time>
      </trkpt>
      <trkpt lat="40.16923419199883937835693359375" lon="-0.8570008166134357452392578125">
        <ele>942.4000244140625</ele>
        <time>2019-07-07T08:53:04.000Z</time>
      </trkpt>
      <trkpt lat="40.16953107900917530059814453125" lon="-0.8576525934040546417236328125">
        <ele>943.20001220703125</ele>
        <time>2019-07-07T08:53:06.000Z</time>
      </trkpt>
      <trkpt lat="40.169827044010162353515625" lon="-0.8583050407469272613525390625">
        <ele>943.4000244140625</ele>
        <time>2019-07-07T08:53:08.000Z</time>
      </trkpt>
      <trkpt lat="40.17012485302984714508056640625" lon="-0.8589514531195163726806640625">
        <ele>943.5999755859375</ele>
        <time>2019-07-07T08:53:10.000Z</time>
      </trkpt>
      <trkpt lat="40.17042291350662708282470703125" lon="-0.8595921657979488372802734375">
        <ele>943.79998779296875</ele>
        <time>2019-07-07T08:53:12.000Z</time>
      </trkpt>
      <trkpt lat="40.17071527428925037384033203125" lon="-0.86023078300058841705322265625">
        <ele>945.4000244140625</ele>
        <time>2019-07-07T08:53:14.000Z</time>
      </trkpt>
      <trkpt lat="40.171010904014110565185546875" lon="-0.86086571216583251953125">
        <ele>946.79998779296875</ele>
        <time>2019-07-07T08:53:16.000Z</time>
      </trkpt>
      <trkpt lat="40.171305276453495025634765625" lon="-0.86150248534977436065673828125">
        <ele>948</ele>
        <time>2019-07-07T08:53:18.000Z</time>
      </trkpt>
      <trkpt lat="40.1715974695980548858642578125" lon="-0.86214311420917510986328125">
        <ele>949.20001220703125</ele>
        <time>2019-07-07T08:53:20.000Z</time>
      </trkpt>
      <trkpt lat="40.1718935184180736541748046875" lon="-0.8627886883914470672607421875">
        <ele>949.5999755859375</ele>
        <time>2019-07-07T08:53:22.000Z</time>
      </trkpt>
      <trkpt lat="40.172191746532917022705078125" lon="-0.863431580364704132080078125">
        <ele>950.4000244140625</ele>
        <time>2019-07-07T08:53:24.000Z</time>
      </trkpt>
      <trkpt lat="40.17248922027647495269775390625" lon="-0.864071287214756011962890625">
        <ele>950.79998779296875</ele>
        <time>2019-07-07T08:53:26.000Z</time>
      </trkpt>
      <trkpt lat="40.1726366579532623291015625" lon="-0.8643913082778453826904296875">
        <ele>951.79998779296875</ele>
        <time>2019-07-07T08:53:27.000Z</time>
      </trkpt>
      <trkpt lat="40.17278376035392284393310546875" lon="-0.8647101558744907379150390625">
        <ele>953</ele>
        <time>2019-07-07T08:53:28.000Z</time>
      </trkpt>
      <trkpt lat="40.17293111421167850494384765625" lon="-0.865028835833072662353515625">
        <ele>954.20001220703125</ele>
        <time>2019-07-07T08:53:29.000Z</time>
      </trkpt>
      <trkpt lat="40.17322531901299953460693359375" lon="-0.865666866302490234375">
        <ele>955.4000244140625</ele>
        <time>2019-07-07T08:53:31.000Z</time>
      </trkpt>
      <trkpt lat="40.1735236309468746185302734375" lon="-0.8663110993802547454833984375">
        <ele>956.4000244140625</ele>
        <time>2019-07-07T08:53:33.000Z</time>
      </trkpt>
      <trkpt lat="40.17367358319461345672607421875" lon="-0.86663539521396160125732421875">
        <ele>956.79998779296875</ele>
        <time>2019-07-07T08:53:34.000Z</time>
      </trkpt>
      <trkpt lat="40.173823535442352294921875" lon="-0.86696228943765163421630859375">
        <ele>958.4000244140625</ele>
        <time>2019-07-07T08:53:35.000Z</time>
      </trkpt>
      <trkpt lat="40.1739739067852497100830078125" lon="-0.8672917820513248443603515625">
        <ele>960.20001220703125</ele>
        <time>2019-07-07T08:53:36.000Z</time>
      </trkpt>
      <trkpt lat="40.1741251163184642791748046875" lon="-0.8676240406930446624755859375">
        <ele>961.20001220703125</ele>
        <time>2019-07-07T08:53:37.000Z</time>
      </trkpt>
      <trkpt lat="40.174433402717113494873046875" lon="-0.868287719786167144775390625">
        <ele>962.5999755859375</ele>
        <time>2019-07-07T08:53:39.000Z</time>
      </trkpt>
      <trkpt lat="40.17474378459155559539794921875" lon="-0.86895667947828769683837890625">
        <ele>964.5999755859375</ele>
        <time>2019-07-07T08:53:41.000Z</time>
      </trkpt>
      <trkpt lat="40.17505760304629802703857421875" lon="-0.869629494845867156982421875">
        <ele>967</ele>
        <time>2019-07-07T08:53:43.000Z</time>
      </trkpt>
      <trkpt lat="40.1752137579023838043212890625" lon="-0.86996904574334621429443359375">
        <ele>968.79998779296875</ele>
        <time>2019-07-07T08:53:44.000Z</time>
      </trkpt>
      <trkpt lat="40.17537058331072330474853515625" lon="-0.87030750699341297149658203125">
        <ele>970.20001220703125</ele>
        <time>2019-07-07T08:53:45.000Z</time>
      </trkpt>
      <trkpt lat="40.175681971013545989990234375" lon="-0.8709761314094066619873046875">
        <ele>972.20001220703125</ele>
        <time>2019-07-07T08:53:47.000Z</time>
      </trkpt>
      <trkpt lat="40.17583443783223628997802734375" lon="-0.8713083900511264801025390625">
        <ele>973.79998779296875</ele>
        <time>2019-07-07T08:53:48.000Z</time>
      </trkpt>
      <trkpt lat="40.1761361025273799896240234375" lon="-0.87196947075426578521728515625">
        <ele>974</ele>
        <time>2019-07-07T08:53:50.000Z</time>
      </trkpt>
      <trkpt lat="40.176287479698657989501953125" lon="-0.8722972869873046875">
        <ele>975.5999755859375</ele>
        <time>2019-07-07T08:53:51.000Z</time>
      </trkpt>
      <trkpt lat="40.17643868923187255859375" lon="-0.87262250483036041259765625">
        <ele>977.20001220703125</ele>
        <time>2019-07-07T08:53:52.000Z</time>
      </trkpt>
      <trkpt lat="40.17658880911767482757568359375" lon="-0.87294579483568668365478515625">
        <ele>978.4000244140625</ele>
        <time>2019-07-07T08:53:53.000Z</time>
      </trkpt>
      <trkpt lat="40.176886953413486480712890625" lon="-0.873591788113117218017578125">
        <ele>980</ele>
        <time>2019-07-07T08:53:55.000Z</time>
      </trkpt>
      <trkpt lat="40.1770339719951152801513671875" lon="-0.87391323409974575042724609375">
        <ele>981</ele>
        <time>2019-07-07T08:53:56.000Z</time>
      </trkpt>
      <trkpt lat="40.177181325852870941162109375" lon="-0.8742298185825347900390625">
        <ele>982.4000244140625</ele>
        <time>2019-07-07T08:53:57.000Z</time>
      </trkpt>
      <trkpt lat="40.177329517900943756103515625" lon="-0.87454539723694324493408203125">
        <ele>983.5999755859375</ele>
        <time>2019-07-07T08:53:58.000Z</time>
      </trkpt>
      <trkpt lat="40.17762632109224796295166015625" lon="-0.875183008611202239990234375">
        <ele>982.79998779296875</ele>
        <time>2019-07-07T08:54:00.000Z</time>
      </trkpt>
      <trkpt lat="40.17792236991226673126220703125" lon="-0.875824391841888427734375">
        <ele>985</ele>
        <time>2019-07-07T08:54:02.000Z</time>
      </trkpt>
      <trkpt lat="40.17821707762777805328369140625" lon="-0.87646342813968658447265625">
        <ele>983.5999755859375</ele>
        <time>2019-07-07T08:54:04.000Z</time>
      </trkpt>
      <trkpt lat="40.17851161770522594451904296875" lon="-0.87709642946720123291015625">
        <ele>983.5999755859375</ele>
        <time>2019-07-07T08:54:06.000Z</time>
      </trkpt>
      <trkpt lat="40.1788112707436084747314453125" lon="-0.8777366392314434051513671875">
        <ele>984.4000244140625</ele>
        <time>2019-07-07T08:54:08.000Z</time>
      </trkpt>
      <trkpt lat="40.17895988188683986663818359375" lon="-0.878059677779674530029296875">
        <ele>984.79998779296875</ele>
        <time>2019-07-07T08:54:09.000Z</time>
      </trkpt>
      <trkpt lat="40.1791076548397541046142578125" lon="-0.87838179431855678558349609375">
        <ele>986.20001220703125</ele>
        <time>2019-07-07T08:54:10.000Z</time>
      </trkpt>
      <trkpt lat="40.17925593070685863494873046875" lon="-0.878706760704517364501953125">
        <ele>988</ele>
        <time>2019-07-07T08:54:11.000Z</time>
      </trkpt>
      <trkpt lat="40.17955072224140167236328125" lon="-0.87935107760131359100341796875">
        <ele>989.5999755859375</ele>
        <time>2019-07-07T08:54:13.000Z</time>
      </trkpt>
      <trkpt lat="40.1798450946807861328125" lon="-0.87998877279460430145263671875">
        <ele>990.5999755859375</ele>
        <time>2019-07-07T08:54:15.000Z</time>
      </trkpt>
      <trkpt lat="40.17999102361500263214111328125" lon="-0.880304686725139617919921875">
        <ele>991.5999755859375</ele>
        <time>2019-07-07T08:54:16.000Z</time>
      </trkpt>
      <trkpt lat="40.18027885816991329193115234375" lon="-0.88093324564397335052490234375">
        <ele>991.5999755859375</ele>
        <time>2019-07-07T08:54:18.000Z</time>
      </trkpt>
      <trkpt lat="40.1805697940289974212646484375" lon="-0.8815550990402698516845703125">
        <ele>994.5999755859375</ele>
        <time>2019-07-07T08:54:20.000Z</time>
      </trkpt>
      <trkpt lat="40.18085838295519351959228515625" lon="-0.8821817301213741302490234375">
        <ele>996.5999755859375</ele>
        <time>2019-07-07T08:54:22.000Z</time>
      </trkpt>
      <trkpt lat="40.1811488159000873565673828125" lon="-0.882809199392795562744140625">
        <ele>998</ele>
        <time>2019-07-07T08:54:24.000Z</time>
      </trkpt>
      <trkpt lat="40.181438662111759185791015625" lon="-0.88344044052064418792724609375">
        <ele>998.5999755859375</ele>
        <time>2019-07-07T08:54:26.000Z</time>
      </trkpt>
      <trkpt lat="40.1817291788756847381591796875" lon="-0.88406883180141448974609375">
        <ele>998.4000244140625</ele>
        <time>2019-07-07T08:54:28.000Z</time>
      </trkpt>
      <trkpt lat="40.18201692961156368255615234375" lon="-0.8846942894160747528076171875">
        <ele>998.5999755859375</ele>
        <time>2019-07-07T08:54:30.000Z</time>
      </trkpt>
      <trkpt lat="40.18230325542390346527099609375" lon="-0.88531874120235443115234375">
        <ele>998.4000244140625</ele>
        <time>2019-07-07T08:54:32.000Z</time>
      </trkpt>
      <trkpt lat="40.182446502149105072021484375" lon="-0.88562987744808197021484375">
        <ele>996.5999755859375</ele>
        <time>2019-07-07T08:54:33.000Z</time>
      </trkpt>
      <trkpt lat="40.18273056484758853912353515625" lon="-0.88624536059796810150146484375">
        <ele>997.79998779296875</ele>
        <time>2019-07-07T08:54:35.000Z</time>
      </trkpt>
      <trkpt lat="40.183009766042232513427734375" lon="-0.88684617541730403900146484375">
        <ele>1000.5999755859375</ele>
        <time>2019-07-07T08:54:37.000Z</time>
      </trkpt>
      <trkpt lat="40.1831490732729434967041015625" lon="-0.88714624755084514617919921875">
        <ele>1003</ele>
        <time>2019-07-07T08:54:38.000Z</time>
      </trkpt>
      <trkpt lat="40.18328729085624217987060546875" lon="-0.88744900189340114593505859375">
        <ele>1005.20001220703125</ele>
        <time>2019-07-07T08:54:39.000Z</time>
      </trkpt>
      <trkpt lat="40.18342441879212856292724609375" lon="-0.88775443844497203826904296875">
        <ele>1006.4000244140625</ele>
        <time>2019-07-07T08:54:40.000Z</time>
      </trkpt>
      <trkpt lat="40.183699764311313629150390625" lon="-0.88836883194744586944580078125">
        <ele>1006.5999755859375</ele>
        <time>2019-07-07T08:54:42.000Z</time>
      </trkpt>
      <trkpt lat="40.183973349630832672119140625" lon="-0.88899361900985240936279296875">
        <ele>1004.79998779296875</ele>
        <time>2019-07-07T08:54:44.000Z</time>
      </trkpt>
      <trkpt lat="40.1842410676181316375732421875" lon="-0.88962762616574764251708984375">
        <ele>1002</ele>
        <time>2019-07-07T08:54:46.000Z</time>
      </trkpt>
      <trkpt lat="40.18437341786921024322509765625" lon="-0.8899473957717418670654296875">
        <ele>998.79998779296875</ele>
        <time>2019-07-07T08:54:47.000Z</time>
      </trkpt>
      <trkpt lat="40.18463795073330402374267578125" lon="-0.89058768935501575469970703125">
        <ele>997.4000244140625</ele>
        <time>2019-07-07T08:54:49.000Z</time>
      </trkpt>
      <trkpt lat="40.184766948223114013671875" lon="-0.8909126557409763336181640625">
        <ele>1000.5999755859375</ele>
        <time>2019-07-07T08:54:50.000Z</time>
      </trkpt>
      <trkpt lat="40.1850215904414653778076171875" lon="-0.89156753383576869964599609375">
        <ele>999.4000244140625</ele>
        <time>2019-07-07T08:54:52.000Z</time>
      </trkpt>
      <trkpt lat="40.1851473189890384674072265625" lon="-0.8918983675539493560791015625">
        <ele>1001.79998779296875</ele>
        <time>2019-07-07T08:54:53.000Z</time>
      </trkpt>
      <trkpt lat="40.1852720417082309722900390625" lon="-0.89223188348114490509033203125">
        <ele>1004.79998779296875</ele>
        <time>2019-07-07T08:54:54.000Z</time>
      </trkpt>
      <trkpt lat="40.18539533950388431549072265625" lon="-0.89256816543638706207275390625">
        <ele>1008.5999755859375</ele>
        <time>2019-07-07T08:54:55.000Z</time>
      </trkpt>
      <trkpt lat="40.185517631471157073974609375" lon="-0.89290729723870754241943359375">
        <ele>1012.5999755859375</ele>
        <time>2019-07-07T08:54:56.000Z</time>
      </trkpt>
      <trkpt lat="40.18563975580036640167236328125" lon="-0.8932507038116455078125">
        <ele>1014.5999755859375</ele>
        <time>2019-07-07T08:54:57.000Z</time>
      </trkpt>
      <trkpt lat="40.18576095812022686004638671875" lon="-0.89359712786972522735595703125">
        <ele>1017.20001220703125</ele>
        <time>2019-07-07T08:54:58.000Z</time>
      </trkpt>
      <trkpt lat="40.185881070792675018310546875" lon="-0.89394598267972469329833984375">
        <ele>1019.5999755859375</ele>
        <time>2019-07-07T08:54:59.000Z</time>
      </trkpt>
      <trkpt lat="40.18599933944642543792724609375" lon="-0.89429877698421478271484375">
        <ele>1022.5999755859375</ele>
        <time>2019-07-07T08:55:00.000Z</time>
      </trkpt>
      <trkpt lat="40.18611685372889041900634765625" lon="-0.89465358294546604156494140625">
        <ele>1025.5999755859375</ele>
        <time>2019-07-07T08:55:01.000Z</time>
      </trkpt>
      <trkpt lat="40.18634970299899578094482421875" lon="-0.895362608134746551513671875">
        <ele>1027.4000244140625</ele>
        <time>2019-07-07T08:55:03.000Z</time>
      </trkpt>
      <trkpt lat="40.1864646188914775848388671875" lon="-0.89571573771536350250244140625">
        <ele>1029.4000244140625</ele>
        <time>2019-07-07T08:55:04.000Z</time>
      </trkpt>
      <trkpt lat="40.18657735548913478851318359375" lon="-0.89606610126793384552001953125">
        <ele>1030.4000244140625</ele>
        <time>2019-07-07T08:55:05.000Z</time>
      </trkpt>
      <trkpt lat="40.18679964356124401092529296875" lon="-0.8967672474682331085205078125">
        <ele>1030.800048828125</ele>
        <time>2019-07-07T08:55:07.000Z</time>
      </trkpt>
      <trkpt lat="40.18701857887208461761474609375" lon="-0.8974649570882320404052734375">
        <ele>1031</ele>
        <time>2019-07-07T08:55:09.000Z</time>
      </trkpt>
      <trkpt lat="40.18724187277257442474365234375" lon="-0.8981579728424549102783203125">
        <ele>1030</ele>
        <time>2019-07-07T08:55:11.000Z</time>
      </trkpt>
      <trkpt lat="40.18746684305369853973388671875" lon="-0.89884604327380657196044921875">
        <ele>1030.4000244140625</ele>
        <time>2019-07-07T08:55:13.000Z</time>
      </trkpt>
      <trkpt lat="40.1876937411725521087646484375" lon="-0.8995292522013187408447265625">
        <ele>1029.199951171875</ele>
        <time>2019-07-07T08:55:15.000Z</time>
      </trkpt>
      <trkpt lat="40.18793337978422641754150390625" lon="-0.9001954458653926849365234375">
        <ele>1029</ele>
        <time>2019-07-07T08:55:17.000Z</time>
      </trkpt>
      <trkpt lat="40.18817544914782047271728515625" lon="-0.90085635893046855926513671875">
        <ele>1028.5999755859375</ele>
        <time>2019-07-07T08:55:19.000Z</time>
      </trkpt>
      <trkpt lat="40.18829405307769775390625" lon="-0.90118945576250553131103515625">
        <ele>1031.800048828125</ele>
        <time>2019-07-07T08:55:20.000Z</time>
      </trkpt>
      <trkpt lat="40.18841282464563846588134765625" lon="-0.90152171440422534942626953125">
        <ele>1036.199951171875</ele>
        <time>2019-07-07T08:55:21.000Z</time>
      </trkpt>
      <trkpt lat="40.1885305903851985931396484375" lon="-0.901854895055294036865234375">
        <ele>1039.5999755859375</ele>
        <time>2019-07-07T08:55:22.000Z</time>
      </trkpt>
      <trkpt lat="40.1886472664773464202880859375" lon="-0.902190841734409332275390625">
        <ele>1043.199951171875</ele>
        <time>2019-07-07T08:55:23.000Z</time>
      </trkpt>
      <trkpt lat="40.188764445483684539794921875" lon="-0.90252804569900035858154296875">
        <ele>1045.199951171875</ele>
        <time>2019-07-07T08:55:24.000Z</time>
      </trkpt>
      <trkpt lat="40.18888480961322784423828125" lon="-0.9028629027307033538818359375">
        <ele>1046.5999755859375</ele>
        <time>2019-07-07T08:55:25.000Z</time>
      </trkpt>
      <trkpt lat="40.1891429722309112548828125" lon="-0.90352180413901805877685546875">
        <ele>1047</ele>
        <time>2019-07-07T08:55:27.000Z</time>
      </trkpt>
      <trkpt lat="40.18942167051136493682861328125" lon="-0.90416930615901947021484375">
        <ele>1046.5999755859375</ele>
        <time>2019-07-07T08:55:29.000Z</time>
      </trkpt>
      <trkpt lat="40.18971285782754421234130859375" lon="-0.904805324971675872802734375">
        <ele>1046.5999755859375</ele>
        <time>2019-07-07T08:55:31.000Z</time>
      </trkpt>
      <trkpt lat="40.19002608954906463623046875" lon="-0.90542466379702091217041015625">
        <ele>1048</ele>
        <time>2019-07-07T08:55:33.000Z</time>
      </trkpt>
      <trkpt lat="40.19036480225622653961181640625" lon="-0.90602447278797626495361328125">
        <ele>1049</ele>
        <time>2019-07-07T08:55:35.000Z</time>
      </trkpt>
      <trkpt lat="40.19054266624152660369873046875" lon="-0.906316749751567840576171875">
        <ele>1049</ele>
        <time>2019-07-07T08:55:36.000Z</time>
      </trkpt>
      <trkpt lat="40.19090987741947174072265625" lon="-0.906887054443359375">
        <ele>1049</ele>
        <time>2019-07-07T08:55:38.000Z</time>
      </trkpt>
      <trkpt lat="40.191283039748668670654296875" lon="-0.9074350632727146148681640625">
        <ele>1048</ele>
        <time>2019-07-07T08:55:40.000Z</time>
      </trkpt>
      <trkpt lat="40.19165460951626300811767578125" lon="-0.9079704992473125457763671875">
        <ele>1047.5999755859375</ele>
        <time>2019-07-07T08:55:42.000Z</time>
      </trkpt>
      <trkpt lat="40.1920223236083984375" lon="-0.90851071290671825408935546875">
        <ele>1048.4000244140625</ele>
        <time>2019-07-07T08:55:44.000Z</time>
      </trkpt>
      <trkpt lat="40.19239171408116817474365234375" lon="-0.909049920737743377685546875">
        <ele>1050.4000244140625</ele>
        <time>2019-07-07T08:55:46.000Z</time>
      </trkpt>
      <trkpt lat="40.192576535046100616455078125" lon="-0.90931822545826435089111328125">
        <ele>1051.800048828125</ele>
        <time>2019-07-07T08:55:47.000Z</time>
      </trkpt>
      <trkpt lat="40.192948020994663238525390625" lon="-0.90985483489930629730224609375">
        <ele>1052.4000244140625</ele>
        <time>2019-07-07T08:55:49.000Z</time>
      </trkpt>
      <trkpt lat="40.19313317723572254180908203125" lon="-0.9101243130862712860107421875">
        <ele>1053.5999755859375</ele>
        <time>2019-07-07T08:55:50.000Z</time>
      </trkpt>
      <trkpt lat="40.19350499846041202545166015625" lon="-0.91066159307956695556640625">
        <ele>1054.4000244140625</ele>
        <time>2019-07-07T08:55:52.000Z</time>
      </trkpt>
      <trkpt lat="40.1938743889331817626953125" lon="-0.9112099371850490570068359375">
        <ele>1051.5999755859375</ele>
        <time>2019-07-07T08:55:54.000Z</time>
      </trkpt>
      <trkpt lat="40.19405887462198734283447265625" lon="-0.91148578561842441558837890625">
        <ele>1049.5999755859375</ele>
        <time>2019-07-07T08:55:55.000Z</time>
      </trkpt>
      <trkpt lat="40.1942431926727294921875" lon="-0.9117634780704975128173828125">
        <ele>1047</ele>
        <time>2019-07-07T08:55:56.000Z</time>
      </trkpt>
      <trkpt lat="40.19442633725702762603759765625" lon="-0.91204293072223663330078125">
        <ele>1045.4000244140625</ele>
        <time>2019-07-07T08:55:57.000Z</time>
      </trkpt>
      <trkpt lat="40.19460621289908885955810546875" lon="-0.91232816688716411590576171875">
        <ele>1043</ele>
        <time>2019-07-07T08:55:58.000Z</time>
      </trkpt>
      <trkpt lat="40.19478323869407176971435546875" lon="-0.91261751018464565277099609375">
        <ele>1039.800048828125</ele>
        <time>2019-07-07T08:55:59.000Z</time>
      </trkpt>
      <trkpt lat="40.1949580013751983642578125" lon="-0.912910960614681243896484375">
        <ele>1037.5999755859375</ele>
        <time>2019-07-07T08:56:00.000Z</time>
      </trkpt>
      <trkpt lat="40.19513008184731006622314453125" lon="-0.9132081829011440277099609375">
        <ele>1036.5999755859375</ele>
        <time>2019-07-07T08:56:01.000Z</time>
      </trkpt>
      <trkpt lat="40.19546083174645900726318359375" lon="-0.913817547261714935302734375">
        <ele>1037.4000244140625</ele>
        <time>2019-07-07T08:56:03.000Z</time>
      </trkpt>
      <trkpt lat="40.19562310539186000823974609375" lon="-0.91412700712680816650390625">
        <ele>1035.4000244140625</ele>
        <time>2019-07-07T08:56:04.000Z</time>
      </trkpt>
      <trkpt lat="40.1957822777330875396728515625" lon="-0.9144409932196140289306640625">
        <ele>1033.4000244140625</ele>
        <time>2019-07-07T08:56:05.000Z</time>
      </trkpt>
      <trkpt lat="40.19608788192272186279296875" lon="-0.91508011333644390106201171875">
        <ele>1034.5999755859375</ele>
        <time>2019-07-07T08:56:07.000Z</time>
      </trkpt>
      <trkpt lat="40.19638032652437686920166015625" lon="-0.91573960147798061370849609375">
        <ele>1035.800048828125</ele>
        <time>2019-07-07T08:56:09.000Z</time>
      </trkpt>
      <trkpt lat="40.19666095264256000518798828125" lon="-0.91641937382519245147705078125">
        <ele>1038.199951171875</ele>
        <time>2019-07-07T08:56:11.000Z</time>
      </trkpt>
      <trkpt lat="40.19679573364555835723876953125" lon="-0.91676755808293819427490234375">
        <ele>1041.5999755859375</ele>
        <time>2019-07-07T08:56:12.000Z</time>
      </trkpt>
      <trkpt lat="40.1969275809824466705322265625" lon="-0.9171205200254917144775390625">
        <ele>1043.4000244140625</ele>
        <time>2019-07-07T08:56:13.000Z</time>
      </trkpt>
      <trkpt lat="40.19718758761882781982421875" lon="-0.91783088631927967071533203125">
        <ele>1044.5999755859375</ele>
        <time>2019-07-07T08:56:15.000Z</time>
      </trkpt>
      <trkpt lat="40.197315327823162078857421875" lon="-0.918186865746974945068359375">
        <ele>1043.4000244140625</ele>
        <time>2019-07-07T08:56:16.000Z</time>
      </trkpt>
      <trkpt lat="40.19756603054702281951904296875" lon="-0.91890041716396808624267578125">
        <ele>1043</ele>
        <time>2019-07-07T08:56:18.000Z</time>
      </trkpt>
      <trkpt lat="40.19781866110861301422119140625" lon="-0.919611118733882904052734375">
        <ele>1043</ele>
        <time>2019-07-07T08:56:20.000Z</time>
      </trkpt>
      <trkpt lat="40.1979484967887401580810546875" lon="-0.91996341012418270111083984375">
        <ele>1044.800048828125</ele>
        <time>2019-07-07T08:56:21.000Z</time>
      </trkpt>
      <trkpt lat="40.1982103474438190460205078125" lon="-0.92065776698291301727294921875">
        <ele>1048.4000244140625</ele>
        <time>2019-07-07T08:56:23.000Z</time>
      </trkpt>
      <trkpt lat="40.19834504462778568267822265625" lon="-0.9210013411939144134521484375">
        <ele>1052.199951171875</ele>
        <time>2019-07-07T08:56:24.000Z</time>
      </trkpt>
      <trkpt lat="40.19848267547786235809326171875" lon="-0.9213426522910594940185546875">
        <ele>1053.5999755859375</ele>
        <time>2019-07-07T08:56:25.000Z</time>
      </trkpt>
      <trkpt lat="40.1986244134604930877685546875" lon="-0.9216799400746822357177734375">
        <ele>1055.800048828125</ele>
        <time>2019-07-07T08:56:26.000Z</time>
      </trkpt>
      <trkpt lat="40.1987685821950435638427734375" lon="-0.922010354697704315185546875">
        <ele>1058.5999755859375</ele>
        <time>2019-07-07T08:56:27.000Z</time>
      </trkpt>
      <trkpt lat="40.19906521774828433990478515625" lon="-0.9226559288799762725830078125">
        <ele>1058.5999755859375</ele>
        <time>2019-07-07T08:56:29.000Z</time>
      </trkpt>
      <trkpt lat="40.19937492907047271728515625" lon="-0.92328465543687343597412109375">
        <ele>1058</ele>
        <time>2019-07-07T08:56:31.000Z</time>
      </trkpt>
      <trkpt lat="40.1996921002864837646484375" lon="-0.92390659265220165252685546875">
        <ele>1060.4000244140625</ele>
        <time>2019-07-07T08:56:33.000Z</time>
      </trkpt>
      <trkpt lat="40.19985579885542392730712890625" lon="-0.9242126159369945526123046875">
        <ele>1061.800048828125</ele>
        <time>2019-07-07T08:56:34.000Z</time>
      </trkpt>
      <trkpt lat="40.2001945115625858306884765625" lon="-0.92481552623212337493896484375">
        <ele>1062.800048828125</ele>
        <time>2019-07-07T08:56:36.000Z</time>
      </trkpt>
      <trkpt lat="40.2005450427532196044921875" lon="-0.92540494166314601898193359375">
        <ele>1064</ele>
        <time>2019-07-07T08:56:38.000Z</time>
      </trkpt>
      <trkpt lat="40.2009059675037860870361328125" lon="-0.92598161660134792327880859375">
        <ele>1064.4000244140625</ele>
        <time>2019-07-07T08:56:40.000Z</time>
      </trkpt>
      <trkpt lat="40.20128122530877590179443359375" lon="-0.92654555104672908782958984375">
        <ele>1063.800048828125</ele>
        <time>2019-07-07T08:56:42.000Z</time>
      </trkpt>
      <trkpt lat="40.201474763453006744384765625" lon="-0.92682064510881900787353515625">
        <ele>1065.4000244140625</ele>
        <time>2019-07-07T08:56:43.000Z</time>
      </trkpt>
      <trkpt lat="40.201671235263347625732421875" lon="-0.92709322459995746612548828125">
        <ele>1066.4000244140625</ele>
        <time>2019-07-07T08:56:44.000Z</time>
      </trkpt>
      <trkpt lat="40.20186896435916423797607421875" lon="-0.927361361682415008544921875">
        <ele>1067.800048828125</ele>
        <time>2019-07-07T08:56:45.000Z</time>
      </trkpt>
      <trkpt lat="40.20226777531206607818603515625" lon="-0.92787777073681354522705078125">
        <ele>1068.4000244140625</ele>
        <time>2019-07-07T08:56:47.000Z</time>
      </trkpt>
      <trkpt lat="40.20246776752173900604248046875" lon="-0.92812721617519855499267578125">
        <ele>1069</ele>
        <time>2019-07-07T08:56:48.000Z</time>
      </trkpt>
      <trkpt lat="40.20287143997848033905029296875" lon="-0.92861252836883068084716796875">
        <ele>1069.800048828125</ele>
        <time>2019-07-07T08:56:50.000Z</time>
      </trkpt>
      <trkpt lat="40.20307629369199275970458984375" lon="-0.92884956859052181243896484375">
        <ele>1070.5999755859375</ele>
        <time>2019-07-07T08:56:51.000Z</time>
      </trkpt>
      <trkpt lat="40.2032837457954883575439453125" lon="-0.92908300459384918212890625">
        <ele>1071.5999755859375</ele>
        <time>2019-07-07T08:56:52.000Z</time>
      </trkpt>
      <trkpt lat="40.2034953050315380096435546875" lon="-0.929314680397510528564453125">
        <ele>1073.4000244140625</ele>
        <time>2019-07-07T08:56:53.000Z</time>
      </trkpt>
      <trkpt lat="40.20371180959045886993408203125" lon="-0.92954426072537899017333984375">
        <ele>1075.800048828125</ele>
        <time>2019-07-07T08:56:54.000Z</time>
      </trkpt>
      <trkpt lat="40.2039321698248386383056640625" lon="-0.9297724999487400054931640625">
        <ele>1077.800048828125</ele>
        <time>2019-07-07T08:56:55.000Z</time>
      </trkpt>
      <trkpt lat="40.2041568048298358917236328125" lon="-0.93000073917210102081298828125">
        <ele>1079.4000244140625</ele>
        <time>2019-07-07T08:56:56.000Z</time>
      </trkpt>
      <trkpt lat="40.2043861337006092071533203125" lon="-0.93022763729095458984375">
        <ele>1081</ele>
        <time>2019-07-07T08:56:57.000Z</time>
      </trkpt>
      <trkpt lat="40.20485862158238887786865234375" lon="-0.93067263253033161163330078125">
        <ele>1081.5999755859375</ele>
        <time>2019-07-07T08:56:59.000Z</time>
      </trkpt>
      <trkpt lat="40.20534812472760677337646484375" lon="-0.93110145069658756256103515625">
        <ele>1081.4000244140625</ele>
        <time>2019-07-07T08:57:01.000Z</time>
      </trkpt>
      <trkpt lat="40.20585036836564540863037109375" lon="-0.93151702545583248138427734375">
        <ele>1080.800048828125</ele>
        <time>2019-07-07T08:57:03.000Z</time>
      </trkpt>
      <trkpt lat="40.2063612453639507293701171875" lon="-0.9319135732948780059814453125">
        <ele>1080.4000244140625</ele>
        <time>2019-07-07T08:57:05.000Z</time>
      </trkpt>
      <trkpt lat="40.20687480457127094268798828125" lon="-0.932286567986011505126953125">
        <ele>1080.199951171875</ele>
        <time>2019-07-07T08:57:07.000Z</time>
      </trkpt>
      <trkpt lat="40.20713455975055694580078125" lon="-0.93246166594326496124267578125">
        <ele>1079.199951171875</ele>
        <time>2019-07-07T08:57:08.000Z</time>
      </trkpt>
      <trkpt lat="40.207658596336841583251953125" lon="-0.9328000433743000030517578125">
        <ele>1082</ele>
        <time>2019-07-07T08:57:10.000Z</time>
      </trkpt>
      <trkpt lat="40.2079226262867450714111328125" lon="-0.93296374194324016571044921875">
        <ele>1080.800048828125</ele>
        <time>2019-07-07T08:57:11.000Z</time>
      </trkpt>
      <trkpt lat="40.20818791352212429046630859375" lon="-0.93312165699899196624755859375">
        <ele>1079</ele>
        <time>2019-07-07T08:57:12.000Z</time>
      </trkpt>
      <trkpt lat="40.20872234366834163665771484375" lon="-0.93342256732285022735595703125">
        <ele>1077</ele>
        <time>2019-07-07T08:57:14.000Z</time>
      </trkpt>
      <trkpt lat="40.20899274386465549468994140625" lon="-0.9335644729435443878173828125">
        <ele>1079</ele>
        <time>2019-07-07T08:57:15.000Z</time>
      </trkpt>
      <trkpt lat="40.20954041741788387298583984375" lon="-0.93383680097758769989013671875">
        <ele>1079</ele>
        <time>2019-07-07T08:57:17.000Z</time>
      </trkpt>
      <trkpt lat="40.21009580232203006744384765625" lon="-0.93409161083400249481201171875">
        <ele>1078.4000244140625</ele>
        <time>2019-07-07T08:57:19.000Z</time>
      </trkpt>
      <trkpt lat="40.21065738983452320098876953125" lon="-0.9343232028186321258544921875">
        <ele>1077.4000244140625</ele>
        <time>2019-07-07T08:57:21.000Z</time>
      </trkpt>
      <trkpt lat="40.21094019524753093719482421875" lon="-0.9344298206269741058349609375">
        <ele>1076</ele>
        <time>2019-07-07T08:57:22.000Z</time>
      </trkpt>
      <trkpt lat="40.2112217433750629425048828125" lon="-0.93453099019825458526611328125">
        <ele>1074</ele>
        <time>2019-07-07T08:57:23.000Z</time>
      </trkpt>
      <trkpt lat="40.21150262095034122467041015625" lon="-0.9346283040940761566162109375">
        <ele>1070.800048828125</ele>
        <time>2019-07-07T08:57:24.000Z</time>
      </trkpt>
      <trkpt lat="40.21178509108722209930419921875" lon="-0.9347194992005825042724609375">
        <ele>1068</ele>
        <time>2019-07-07T08:57:25.000Z</time>
      </trkpt>
      <trkpt lat="40.21206588484346866607666015625" lon="-0.934811197221279144287109375">
        <ele>1065.4000244140625</ele>
        <time>2019-07-07T08:57:26.000Z</time>
      </trkpt>
      <trkpt lat="40.2123479358851909637451171875" lon="-0.93489711172878742218017578125">
        <ele>1063.199951171875</ele>
        <time>2019-07-07T08:57:27.000Z</time>
      </trkpt>
      <trkpt lat="40.2126305736601352691650390625" lon="-0.93498051166534423828125">
        <ele>1062.199951171875</ele>
        <time>2019-07-07T08:57:28.000Z</time>
      </trkpt>
      <trkpt lat="40.21319190971553325653076171875" lon="-0.9351496584713459014892578125">
        <ele>1062</ele>
        <time>2019-07-07T08:57:30.000Z</time>
      </trkpt>
      <trkpt lat="40.2134724520146846771240234375" lon="-0.9352351538836956024169921875">
        <ele>1063.5999755859375</ele>
        <time>2019-07-07T08:57:31.000Z</time>
      </trkpt>
      <trkpt lat="40.21403512917459011077880859375" lon="-0.93540924601256847381591796875">
        <ele>1064.800048828125</ele>
        <time>2019-07-07T08:57:33.000Z</time>
      </trkpt>
      <trkpt lat="40.21460141055285930633544921875" lon="-0.93559079803526401519775390625">
        <ele>1064.5999755859375</ele>
        <time>2019-07-07T08:57:35.000Z</time>
      </trkpt>
      <trkpt lat="40.21516316570341587066650390625" lon="-0.93577804975211620330810546875">
        <ele>1063.4000244140625</ele>
        <time>2019-07-07T08:57:37.000Z</time>
      </trkpt>
      <trkpt lat="40.21544094197452068328857421875" lon="-0.935878716409206390380859375">
        <ele>1062</ele>
        <time>2019-07-07T08:57:38.000Z</time>
      </trkpt>
      <trkpt lat="40.21571762859821319580078125" lon="-0.93598223291337490081787109375">
        <ele>1060</ele>
        <time>2019-07-07T08:57:39.000Z</time>
      </trkpt>
      <trkpt lat="40.21626404486596584320068359375" lon="-0.93619831837713718414306640625">
        <ele>1059.5999755859375</ele>
        <time>2019-07-07T08:57:41.000Z</time>
      </trkpt>
      <trkpt lat="40.216802917420864105224609375" lon="-0.9364444948732852935791015625">
        <ele>1060</ele>
        <time>2019-07-07T08:57:43.000Z</time>
      </trkpt>
      <trkpt lat="40.2170709706842899322509765625" lon="-0.93657567165791988372802734375">
        <ele>1056.5999755859375</ele>
        <time>2019-07-07T08:57:44.000Z</time>
      </trkpt>
      <trkpt lat="40.217338018119335174560546875" lon="-0.93670852482318878173828125">
        <ele>1052.199951171875</ele>
        <time>2019-07-07T08:57:45.000Z</time>
      </trkpt>
      <trkpt lat="40.21786599420011043548583984375" lon="-0.93698479235172271728515625">
        <ele>1052.199951171875</ele>
        <time>2019-07-07T08:57:47.000Z</time>
      </trkpt>
      <trkpt lat="40.218383409082889556884765625" lon="-0.9372820146381855010986328125">
        <ele>1053.800048828125</ele>
        <time>2019-07-07T08:57:49.000Z</time>
      </trkpt>
      <trkpt lat="40.21889378316700458526611328125" lon="-0.937590636312961578369140625">
        <ele>1055.800048828125</ele>
        <time>2019-07-07T08:57:51.000Z</time>
      </trkpt>
      <trkpt lat="40.21914658136665821075439453125" lon="-0.937748886644840240478515625">
        <ele>1059.4000244140625</ele>
        <time>2019-07-07T08:57:52.000Z</time>
      </trkpt>
      <trkpt lat="40.2193971164524555206298828125" lon="-0.93791141174733638763427734375">
        <ele>1063</ele>
        <time>2019-07-07T08:57:53.000Z</time>
      </trkpt>
      <trkpt lat="40.2198916487395763397216796875" lon="-0.93825280666351318359375">
        <ele>1062.5999755859375</ele>
        <time>2019-07-07T08:57:55.000Z</time>
      </trkpt>
      <trkpt lat="40.2203811518847942352294921875" lon="-0.9386120550334453582763671875">
        <ele>1063.5999755859375</ele>
        <time>2019-07-07T08:57:57.000Z</time>
      </trkpt>
      <trkpt lat="40.22062380798161029815673828125" lon="-0.93880073167383670806884765625">
        <ele>1065.4000244140625</ele>
        <time>2019-07-07T08:57:58.000Z</time>
      </trkpt>
      <trkpt lat="40.2211095392704010009765625" lon="-0.93918747268617153167724609375">
        <ele>1066.199951171875</ele>
        <time>2019-07-07T08:58:00.000Z</time>
      </trkpt>
      <trkpt lat="40.2213571406900882720947265625" lon="-0.939372964203357696533203125">
        <ele>1068.5999755859375</ele>
        <time>2019-07-07T08:58:01.000Z</time>
      </trkpt>
      <trkpt lat="40.22160239517688751220703125" lon="-0.93956734053790569305419921875">
        <ele>1070.4000244140625</ele>
        <time>2019-07-07T08:58:02.000Z</time>
      </trkpt>
      <trkpt lat="40.22208519279956817626953125" lon="-0.9399886988103389739990234375">
        <ele>1069.5999755859375</ele>
        <time>2019-07-07T08:58:04.000Z</time>
      </trkpt>
      <trkpt lat="40.2223277650773525238037109375" lon="-0.94020436517894268035888671875">
        <ele>1069</ele>
        <time>2019-07-07T08:58:05.000Z</time>
      </trkpt>
      <trkpt lat="40.22257125936448574066162109375" lon="-0.94042480923235416412353515625">
        <ele>1067.800048828125</ele>
        <time>2019-07-07T08:58:06.000Z</time>
      </trkpt>
      <trkpt lat="40.22306017577648162841796875" lon="-0.94087877310812473297119140625">
        <ele>1065</ele>
        <time>2019-07-07T08:58:08.000Z</time>
      </trkpt>
      <trkpt lat="40.223307944834232330322265625" lon="-0.94110743142664432525634765625">
        <ele>1062.4000244140625</ele>
        <time>2019-07-07T08:58:09.000Z</time>
      </trkpt>
      <trkpt lat="40.22355630062520503997802734375" lon="-0.94133508391678333282470703125">
        <ele>1060.4000244140625</ele>
        <time>2019-07-07T08:58:10.000Z</time>
      </trkpt>
      <trkpt lat="40.22380675189197063446044921875" lon="-0.9415611438453197479248046875">
        <ele>1059.199951171875</ele>
        <time>2019-07-07T08:58:11.000Z</time>
      </trkpt>
      <trkpt lat="40.22405854426324367523193359375" lon="-0.94178787432610988616943359375">
        <ele>1057.5999755859375</ele>
        <time>2019-07-07T08:58:12.000Z</time>
      </trkpt>
      <trkpt lat="40.224311761558055877685546875" lon="-0.94201527535915374755859375">
        <ele>1059.199951171875</ele>
        <time>2019-07-07T08:58:13.000Z</time>
      </trkpt>
      <trkpt lat="40.2248265780508518218994140625" lon="-0.94246211461722850799560546875">
        <ele>1064.800048828125</ele>
        <time>2019-07-07T08:58:15.000Z</time>
      </trkpt>
      <trkpt lat="40.22508800961077213287353515625" lon="-0.942677445709705352783203125">
        <ele>1067.4000244140625</ele>
        <time>2019-07-07T08:58:16.000Z</time>
      </trkpt>
      <trkpt lat="40.22535254247486591339111328125" lon="-0.94288640655577182769775390625">
        <ele>1068.800048828125</ele>
        <time>2019-07-07T08:58:17.000Z</time>
      </trkpt>
      <trkpt lat="40.2258863858878612518310546875" lon="-0.9432851336896419525146484375">
        <ele>1072</ele>
        <time>2019-07-07T08:58:19.000Z</time>
      </trkpt>
      <trkpt lat="40.22615469060838222503662109375" lon="-0.9434790909290313720703125">
        <ele>1073.199951171875</ele>
        <time>2019-07-07T08:58:20.000Z</time>
      </trkpt>
      <trkpt lat="40.22669247351586818695068359375" lon="-0.94385351054370403289794921875">
        <ele>1074</ele>
        <time>2019-07-07T08:58:22.000Z</time>
      </trkpt>
      <trkpt lat="40.226963460445404052734375" lon="-0.9440307877957820892333984375">
        <ele>1074.4000244140625</ele>
        <time>2019-07-07T08:58:23.000Z</time>
      </trkpt>
      <trkpt lat="40.227510295808315277099609375" lon="-0.94436614774167537689208984375">
        <ele>1076</ele>
        <time>2019-07-07T08:58:25.000Z</time>
      </trkpt>
      <trkpt lat="40.22778698243200778961181640625" lon="-0.944529511034488677978515625">
        <ele>1077.4000244140625</ele>
        <time>2019-07-07T08:58:26.000Z</time>
      </trkpt>
      <trkpt lat="40.22833901457488536834716796875" lon="-0.94484022818505764007568359375">
        <ele>1078.800048828125</ele>
        <time>2019-07-07T08:58:28.000Z</time>
      </trkpt>
      <trkpt lat="40.22861503064632415771484375" lon="-0.944987498223781585693359375">
        <ele>1081.4000244140625</ele>
        <time>2019-07-07T08:58:29.000Z</time>
      </trkpt>
      <trkpt lat="40.228890292346477508544921875" lon="-0.9451311640441417694091796875">
        <ele>1084.199951171875</ele>
        <time>2019-07-07T08:58:30.000Z</time>
      </trkpt>
      <trkpt lat="40.22916513495147228240966796875" lon="-0.94526971690356731414794921875">
        <ele>1087.199951171875</ele>
        <time>2019-07-07T08:58:31.000Z</time>
      </trkpt>
      <trkpt lat="40.229440145194530487060546875" lon="-0.94540064223110675811767578125">
        <ele>1089.5999755859375</ele>
        <time>2019-07-07T08:58:32.000Z</time>
      </trkpt>
      <trkpt lat="40.229716412723064422607421875" lon="-0.945524275302886962890625">
        <ele>1091</ele>
        <time>2019-07-07T08:58:33.000Z</time>
      </trkpt>
      <trkpt lat="40.2302697859704494476318359375" lon="-0.9457510896027088165283203125">
        <ele>1091.4000244140625</ele>
        <time>2019-07-07T08:58:35.000Z</time>
      </trkpt>
      <trkpt lat="40.23082248866558074951171875" lon="-0.94597061164677143096923828125">
        <ele>1090</ele>
        <time>2019-07-07T08:58:37.000Z</time>
      </trkpt>
      <trkpt lat="40.23137770593166351318359375" lon="-0.94617982394993305206298828125">
        <ele>1088.5999755859375</ele>
        <time>2019-07-07T08:58:39.000Z</time>
      </trkpt>
      <trkpt lat="40.2319322526454925537109375" lon="-0.94638400711119174957275390625">
        <ele>1088.5999755859375</ele>
        <time>2019-07-07T08:58:41.000Z</time>
      </trkpt>
      <trkpt lat="40.23248470388352870941162109375" lon="-0.94659271650016307830810546875">
        <ele>1090</ele>
        <time>2019-07-07T08:58:43.000Z</time>
      </trkpt>
      <trkpt lat="40.232760719954967498779296875" lon="-0.9467031061649322509765625">
        <ele>1091.4000244140625</ele>
        <time>2019-07-07T08:58:44.000Z</time>
      </trkpt>
      <trkpt lat="40.2333140932023525238037109375" lon="-0.9469372965395450592041015625">
        <ele>1089.800048828125</ele>
        <time>2019-07-07T08:58:46.000Z</time>
      </trkpt>
      <trkpt lat="40.23359161801636219024658203125" lon="-0.94706746749579906463623046875">
        <ele>1091.199951171875</ele>
        <time>2019-07-07T08:58:47.000Z</time>
      </trkpt>
      <trkpt lat="40.23414297960698604583740234375" lon="-0.947354547679424285888671875">
        <ele>1091.5999755859375</ele>
        <time>2019-07-07T08:58:49.000Z</time>
      </trkpt>
      <trkpt lat="40.23441690020263195037841796875" lon="-0.94751288183033466339111328125">
        <ele>1090.199951171875</ele>
        <time>2019-07-07T08:58:50.000Z</time>
      </trkpt>
      <trkpt lat="40.23468914441764354705810546875" lon="-0.94768102280795574188232421875">
        <ele>1086.5999755859375</ele>
        <time>2019-07-07T08:58:51.000Z</time>
      </trkpt>
      <trkpt lat="40.234959125518798828125" lon="-0.94785846769809722900390625">
        <ele>1084.5999755859375</ele>
        <time>2019-07-07T08:58:52.000Z</time>
      </trkpt>
      <trkpt lat="40.23549229837954044342041015625" lon="-0.94823665916919708251953125">
        <ele>1083.800048828125</ele>
        <time>2019-07-07T08:58:54.000Z</time>
      </trkpt>
      <trkpt lat="40.23575481958687305450439453125" lon="-0.9484384953975677490234375">
        <ele>1083.4000244140625</ele>
        <time>2019-07-07T08:58:55.000Z</time>
      </trkpt>
      <trkpt lat="40.2362722344696521759033203125" lon="-0.94886027276515960693359375">
        <ele>1083.4000244140625</ele>
        <time>2019-07-07T08:58:57.000Z</time>
      </trkpt>
      <trkpt lat="40.2365241944789886474609375" lon="-0.9490827284753322601318359375">
        <ele>1086</ele>
        <time>2019-07-07T08:58:58.000Z</time>
      </trkpt>
      <trkpt lat="40.2367684431374073028564453125" lon="-0.94931934960186481475830078125">
        <ele>1089.4000244140625</ele>
        <time>2019-07-07T08:58:59.000Z</time>
      </trkpt>
      <trkpt lat="40.23700791411101818084716796875" lon="-0.94956569373607635498046875">
        <ele>1091.4000244140625</ele>
        <time>2019-07-07T08:59:00.000Z</time>
      </trkpt>
      <trkpt lat="40.2372455410659313201904296875" lon="-0.9498146362602710723876953125">
        <ele>1094.800048828125</ele>
        <time>2019-07-07T08:59:01.000Z</time>
      </trkpt>
      <trkpt lat="40.2374805696308612823486328125" lon="-0.95006600953638553619384765625">
        <ele>1096.4000244140625</ele>
        <time>2019-07-07T08:59:02.000Z</time>
      </trkpt>
      <trkpt lat="40.23771132342517375946044921875" lon="-0.9503235854208469390869140625">
        <ele>1098.5999755859375</ele>
        <time>2019-07-07T08:59:03.000Z</time>
      </trkpt>
      <trkpt lat="40.2379375509917736053466796875" lon="-0.95058895647525787353515625">
        <ele>1100.5999755859375</ele>
        <time>2019-07-07T08:59:04.000Z</time>
      </trkpt>
      <trkpt lat="40.23838254623115062713623046875" lon="-0.95112933777272701263427734375">
        <ele>1102.199951171875</ele>
        <time>2019-07-07T08:59:06.000Z</time>
      </trkpt>
      <trkpt lat="40.23882393725216388702392578125" lon="-0.95167667604982852935791015625">
        <ele>1102.5999755859375</ele>
        <time>2019-07-07T08:59:08.000Z</time>
      </trkpt>
      <trkpt lat="40.23904471658170223236083984375" lon="-0.95195017755031585693359375">
        <ele>1103.4000244140625</ele>
        <time>2019-07-07T08:59:09.000Z</time>
      </trkpt>
      <trkpt lat="40.23948811925947666168212890625" lon="-0.95249994657933712005615234375">
        <ele>1105.5999755859375</ele>
        <time>2019-07-07T08:59:11.000Z</time>
      </trkpt>
      <trkpt lat="40.239935629069805145263671875" lon="-0.95305231399834156036376953125">
        <ele>1106.800048828125</ele>
        <time>2019-07-07T08:59:13.000Z</time>
      </trkpt>
      <trkpt lat="40.2401614375412464141845703125" lon="-0.95333210192620754241943359375">
        <ele>1108.5999755859375</ele>
        <time>2019-07-07T08:59:14.000Z</time>
      </trkpt>
      <trkpt lat="40.240388922393321990966796875" lon="-0.95361289568245410919189453125">
        <ele>1110</ele>
        <time>2019-07-07T08:59:15.000Z</time>
      </trkpt>
      <trkpt lat="40.2408505976200103759765625" lon="-0.954173393547534942626953125">
        <ele>1111.199951171875</ele>
        <time>2019-07-07T08:59:17.000Z</time>
      </trkpt>
      <trkpt lat="40.24132065474987030029296875" lon="-0.954734981060028076171875">
        <ele>1110.5999755859375</ele>
        <time>2019-07-07T08:59:19.000Z</time>
      </trkpt>
      <trkpt lat="40.24179968051612377166748046875" lon="-0.95528407953679561614990234375">
        <ele>1111.5999755859375</ele>
        <time>2019-07-07T08:59:21.000Z</time>
      </trkpt>
      <trkpt lat="40.2422810532152652740478515625" lon="-0.955824963748455047607421875">
        <ele>1110.800048828125</ele>
        <time>2019-07-07T08:59:23.000Z</time>
      </trkpt>
      <trkpt lat="40.2425234578549861907958984375" lon="-0.9560930170118808746337890625">
        <ele>1110.199951171875</ele>
        <time>2019-07-07T08:59:24.000Z</time>
      </trkpt>
      <trkpt lat="40.24301254190504550933837890625" lon="-0.95661747269332408905029296875">
        <ele>1110.199951171875</ele>
        <time>2019-07-07T08:59:26.000Z</time>
      </trkpt>
      <trkpt lat="40.24350757710635662078857421875" lon="-0.95713220536708831787109375">
        <ele>1109.4000244140625</ele>
        <time>2019-07-07T08:59:28.000Z</time>
      </trkpt>
      <trkpt lat="40.2440048754215240478515625" lon="-0.95763034187257289886474609375">
        <ele>1110.4000244140625</ele>
        <time>2019-07-07T08:59:30.000Z</time>
      </trkpt>
      <trkpt lat="40.244502760469913482666015625" lon="-0.9581204317510128021240234375">
        <ele>1110.199951171875</ele>
        <time>2019-07-07T08:59:32.000Z</time>
      </trkpt>
      <trkpt lat="40.2450075186789035797119140625" lon="-0.958602391183376312255859375">
        <ele>1110</ele>
        <time>2019-07-07T08:59:34.000Z</time>
      </trkpt>
      <trkpt lat="40.24551923386752605438232421875" lon="-0.95907588489353656768798828125">
        <ele>1109.4000244140625</ele>
        <time>2019-07-07T08:59:36.000Z</time>
      </trkpt>
      <trkpt lat="40.24577689357101917266845703125" lon="-0.95931041054427623748779296875">
        <ele>1109</ele>
        <time>2019-07-07T08:59:37.000Z</time>
      </trkpt>
      <trkpt lat="40.2462916262447834014892578125" lon="-0.95977510325610637664794921875">
        <ele>1107.5999755859375</ele>
        <time>2019-07-07T08:59:39.000Z</time>
      </trkpt>
      <trkpt lat="40.24654635228216648101806640625" lon="-0.9600070305168628692626953125">
        <ele>1106.5999755859375</ele>
        <time>2019-07-07T08:59:40.000Z</time>
      </trkpt>
      <trkpt lat="40.246799401938915252685546875" lon="-0.960238538682460784912109375">
        <ele>1102.800048828125</ele>
        <time>2019-07-07T08:59:41.000Z</time>
      </trkpt>
      <trkpt lat="40.24705043993890285491943359375" lon="-0.96046912483870983123779296875">
        <ele>1095</ele>
        <time>2019-07-07T08:59:42.000Z</time>
      </trkpt>
      <trkpt lat="40.24730038829147815704345703125" lon="-0.9606993757188320159912109375">
        <ele>1090.4000244140625</ele>
        <time>2019-07-07T08:59:43.000Z</time>
      </trkpt>
      <trkpt lat="40.24754941463470458984375" lon="-0.96092753112316131591796875">
        <ele>1085.4000244140625</ele>
        <time>2019-07-07T08:59:44.000Z</time>
      </trkpt>
      <trkpt lat="40.24779693223536014556884765625" lon="-0.9611533395946025848388671875">
        <ele>1083</ele>
        <time>2019-07-07T08:59:45.000Z</time>
      </trkpt>
      <trkpt lat="40.24828878231346607208251953125" lon="-0.96160068176686763763427734375">
        <ele>1083.199951171875</ele>
        <time>2019-07-07T08:59:47.000Z</time>
      </trkpt>
      <trkpt lat="40.248530767858028411865234375" lon="-0.96182162873446941375732421875">
        <ele>1084</ele>
        <time>2019-07-07T08:59:48.000Z</time>
      </trkpt>
      <trkpt lat="40.2487703226506710052490234375" lon="-0.9620421566069126129150390625">
        <ele>1085.4000244140625</ele>
        <time>2019-07-07T08:59:49.000Z</time>
      </trkpt>
      <trkpt lat="40.24924524128437042236328125" lon="-0.96247575245797634124755859375">
        <ele>1088.199951171875</ele>
        <time>2019-07-07T08:59:51.000Z</time>
      </trkpt>
      <trkpt lat="40.24971772916615009307861328125" lon="-0.96291077323257923126220703125">
        <ele>1091.199951171875</ele>
        <time>2019-07-07T08:59:53.000Z</time>
      </trkpt>
      <trkpt lat="40.24995493702590465545654296875" lon="-0.96313054673373699188232421875">
        <ele>1093.4000244140625</ele>
        <time>2019-07-07T08:59:54.000Z</time>
      </trkpt>
      <trkpt lat="40.25043304078280925750732421875" lon="-0.9635693393647670745849609375">
        <ele>1095.199951171875</ele>
        <time>2019-07-07T08:59:56.000Z</time>
      </trkpt>
      <trkpt lat="40.25091600604355335235595703125" lon="-0.964013077318668365478515625">
        <ele>1096.199951171875</ele>
        <time>2019-07-07T08:59:58.000Z</time>
      </trkpt>
      <trkpt lat="40.251158662140369415283203125" lon="-0.96423528157174587249755859375">
        <ele>1097.4000244140625</ele>
        <time>2019-07-07T08:59:59.000Z</time>
      </trkpt>
      <trkpt lat="40.25140115059912204742431640625" lon="-0.96445891074836254119873046875">
        <ele>1098.800048828125</ele>
        <time>2019-07-07T09:00:00.000Z</time>
      </trkpt>
      <trkpt lat="40.2516438066959381103515625" lon="-0.9646827913820743560791015625">
        <ele>1100.800048828125</ele>
        <time>2019-07-07T09:00:01.000Z</time>
      </trkpt>
      <trkpt lat="40.25188780389726161956787109375" lon="-0.964905917644500732421875">
        <ele>1102</ele>
        <time>2019-07-07T09:00:02.000Z</time>
      </trkpt>
      <trkpt lat="40.25213238783180713653564453125" lon="-0.96512862481176853179931640625">
        <ele>1103.199951171875</ele>
        <time>2019-07-07T09:00:03.000Z</time>
      </trkpt>
      <trkpt lat="40.2526219747960567474365234375" lon="-0.96557236276566982269287109375">
        <ele>1104.199951171875</ele>
        <time>2019-07-07T09:00:05.000Z</time>
      </trkpt>
      <trkpt lat="40.252865888178348541259765625" lon="-0.965793393552303314208984375">
        <ele>1104.800048828125</ele>
        <time>2019-07-07T09:00:06.000Z</time>
      </trkpt>
      <trkpt lat="40.25335304439067840576171875" lon="-0.9662364609539508819580078125">
        <ele>1105</ele>
        <time>2019-07-07T09:00:08.000Z</time>
      </trkpt>
      <trkpt lat="40.2538383565843105316162109375" lon="-0.96667827107012271881103515625">
        <ele>1106.4000244140625</ele>
        <time>2019-07-07T09:00:10.000Z</time>
      </trkpt>
      <trkpt lat="40.254080258309841156005859375" lon="-0.96689988858997821807861328125">
        <ele>1107.4000244140625</ele>
        <time>2019-07-07T09:00:11.000Z</time>
      </trkpt>
      <trkpt lat="40.25432157330214977264404296875" lon="-0.967122428119182586669921875">
        <ele>1108.4000244140625</ele>
        <time>2019-07-07T09:00:12.000Z</time>
      </trkpt>
      <trkpt lat="40.25456364266574382781982421875" lon="-0.967343710362911224365234375">
        <ele>1109.5999755859375</ele>
        <time>2019-07-07T09:00:13.000Z</time>
      </trkpt>
      <trkpt lat="40.2550520561635494232177734375" lon="-0.96779138781130313873291015625">
        <ele>1111.5999755859375</ele>
        <time>2019-07-07T09:00:15.000Z</time>
      </trkpt>
      <trkpt lat="40.2555464208126068115234375" lon="-0.9682464413344860076904296875">
        <ele>1113.5999755859375</ele>
        <time>2019-07-07T09:00:17.000Z</time>
      </trkpt>
      <trkpt lat="40.25579729117453098297119140625" lon="-0.96847216598689556121826171875">
        <ele>1115.5999755859375</ele>
        <time>2019-07-07T09:00:18.000Z</time>
      </trkpt>
      <trkpt lat="40.25630087591707706451416015625" lon="-0.96893484704196453094482421875">
        <ele>1117.199951171875</ele>
        <time>2019-07-07T09:00:20.000Z</time>
      </trkpt>
      <trkpt lat="40.2565550990402698516845703125" lon="-0.96916685812175273895263671875">
        <ele>1119.4000244140625</ele>
        <time>2019-07-07T09:00:21.000Z</time>
      </trkpt>
      <trkpt lat="40.25681200437247753143310546875" lon="-0.9694004617631435394287109375">
        <ele>1121.4000244140625</ele>
        <time>2019-07-07T09:00:22.000Z</time>
      </trkpt>
      <trkpt lat="40.257069580256938934326171875" lon="-0.9696297906339168548583984375">
        <ele>1122.4000244140625</ele>
        <time>2019-07-07T09:00:23.000Z</time>
      </trkpt>
      <trkpt lat="40.2575790323317050933837890625" lon="-0.97009356133639812469482421875">
        <ele>1121.800048828125</ele>
        <time>2019-07-07T09:00:25.000Z</time>
      </trkpt>
      <trkpt lat="40.25783224962651729583740234375" lon="-0.97032439894974231719970703125">
        <ele>1121.199951171875</ele>
        <time>2019-07-07T09:00:26.000Z</time>
      </trkpt>
      <trkpt lat="40.2580864727497100830078125" lon="-0.970550291240215301513671875">
        <ele>1119.199951171875</ele>
        <time>2019-07-07T09:00:27.000Z</time>
      </trkpt>
      <trkpt lat="40.25859030894935131072998046875" lon="-0.97100668586790561676025390625">
        <ele>1118</ele>
        <time>2019-07-07T09:00:29.000Z</time>
      </trkpt>
      <trkpt lat="40.25883992202579975128173828125" lon="-0.97123366780579090118408203125">
        <ele>1119.199951171875</ele>
        <time>2019-07-07T09:00:30.000Z</time>
      </trkpt>
      <trkpt lat="40.25908852927386760711669921875" lon="-0.9714600630104541778564453125">
        <ele>1122.800048828125</ele>
        <time>2019-07-07T09:00:31.000Z</time>
      </trkpt>
      <trkpt lat="40.25933596305549144744873046875" lon="-0.97168595530092716217041015625">
        <ele>1126</ele>
        <time>2019-07-07T09:00:32.000Z</time>
      </trkpt>
      <trkpt lat="40.25958247482776641845703125" lon="-0.97191142849624156951904296875">
        <ele>1128.5999755859375</ele>
        <time>2019-07-07T09:00:33.000Z</time>
      </trkpt>
      <trkpt lat="40.2598263882100582122802734375" lon="-0.97213539294898509979248046875">
        <ele>1130.199951171875</ele>
        <time>2019-07-07T09:00:34.000Z</time>
      </trkpt>
      <trkpt lat="40.26030826382339000701904296875" lon="-0.97258231602609157562255859375">
        <ele>1130.199951171875</ele>
        <time>2019-07-07T09:00:36.000Z</time>
      </trkpt>
      <trkpt lat="40.2605475671589374542236328125" lon="-0.97280477173626422882080078125">
        <ele>1128.800048828125</ele>
        <time>2019-07-07T09:00:37.000Z</time>
      </trkpt>
      <trkpt lat="40.2607859484851360321044921875" lon="-0.9730258025228977203369140625">
        <ele>1127.199951171875</ele>
        <time>2019-07-07T09:00:38.000Z</time>
      </trkpt>
      <trkpt lat="40.26102541945874691009521484375" lon="-0.973245240747928619384765625">
        <ele>1126</ele>
        <time>2019-07-07T09:00:39.000Z</time>
      </trkpt>
      <trkpt lat="40.26150553487241268157958984375" lon="-0.9736839495599269866943359375">
        <ele>1125</ele>
        <time>2019-07-07T09:00:41.000Z</time>
      </trkpt>
      <trkpt lat="40.26198414154350757598876953125" lon="-0.9741234965622425079345703125">
        <ele>1125.800048828125</ele>
        <time>2019-07-07T09:00:43.000Z</time>
      </trkpt>
      <trkpt lat="40.262465178966522216796875" lon="-0.974562205374240875244140625">
        <ele>1127.800048828125</ele>
        <time>2019-07-07T09:00:45.000Z</time>
      </trkpt>
      <trkpt lat="40.262951664626598358154296875" lon="-0.9750002436339855194091796875">
        <ele>1128</ele>
        <time>2019-07-07T09:00:47.000Z</time>
      </trkpt>
      <trkpt lat="40.2631975896656513214111328125" lon="-0.9752178378403186798095703125">
        <ele>1129</ele>
        <time>2019-07-07T09:00:48.000Z</time>
      </trkpt>
      <trkpt lat="40.26344393379986286163330078125" lon="-0.97543618641793727874755859375">
        <ele>1130.4000244140625</ele>
        <time>2019-07-07T09:00:49.000Z</time>
      </trkpt>
      <trkpt lat="40.26369036175310611724853515625" lon="-0.975656211376190185546875">
        <ele>1131.800048828125</ele>
        <time>2019-07-07T09:00:50.000Z</time>
      </trkpt>
      <trkpt lat="40.2641883306205272674560546875" lon="-0.976096428930759429931640625">
        <ele>1133</ele>
        <time>2019-07-07T09:00:52.000Z</time>
      </trkpt>
      <trkpt lat="40.26468914933502674102783203125" lon="-0.97653673030436038970947265625">
        <ele>1133.5999755859375</ele>
        <time>2019-07-07T09:00:54.000Z</time>
      </trkpt>
      <trkpt lat="40.2651996910572052001953125" lon="-0.976976193487644195556640625">
        <ele>1134.4000244140625</ele>
        <time>2019-07-07T09:00:56.000Z</time>
      </trkpt>
      <trkpt lat="40.26571492664515972137451171875" lon="-0.97741850651800632476806640625">
        <ele>1136</ele>
        <time>2019-07-07T09:00:58.000Z</time>
      </trkpt>
      <trkpt lat="40.2662355266511440277099609375" lon="-0.97785688005387783050537109375">
        <ele>1136.4000244140625</ele>
        <time>2019-07-07T09:01:00.000Z</time>
      </trkpt>
      <trkpt lat="40.26675813831388950347900390625" lon="-0.9782990254461765289306640625">
        <ele>1137.199951171875</ele>
        <time>2019-07-07T09:01:02.000Z</time>
      </trkpt>
      <trkpt lat="40.2672859467566013336181640625" lon="-0.97873471677303314208984375">
        <ele>1137.5999755859375</ele>
        <time>2019-07-07T09:01:04.000Z</time>
      </trkpt>
      <trkpt lat="40.2678133361041545867919921875" lon="-0.9791724197566509246826171875">
        <ele>1139</ele>
        <time>2019-07-07T09:01:06.000Z</time>
      </trkpt>
      <trkpt lat="40.26807560585439205169677734375" lon="-0.97938791848719120025634765625">
        <ele>1140.800048828125</ele>
        <time>2019-07-07T09:01:07.000Z</time>
      </trkpt>
      <trkpt lat="40.26833695359528064727783203125" lon="-0.9795995615422725677490234375">
        <ele>1142</ele>
        <time>2019-07-07T09:01:08.000Z</time>
      </trkpt>
      <trkpt lat="40.26885545812547206878662109375" lon="-0.98001689650118350982666015625">
        <ele>1142.4000244140625</ele>
        <time>2019-07-07T09:01:10.000Z</time>
      </trkpt>
      <trkpt lat="40.26911512948572635650634765625" lon="-0.98022493533790111541748046875">
        <ele>1144</ele>
        <time>2019-07-07T09:01:11.000Z</time>
      </trkpt>
      <trkpt lat="40.26963681913912296295166015625" lon="-0.9806395880877971649169921875">
        <ele>1143.4000244140625</ele>
        <time>2019-07-07T09:01:13.000Z</time>
      </trkpt>
      <trkpt lat="40.27016244828701019287109375" lon="-0.98105373792350292205810546875">
        <ele>1146</ele>
        <time>2019-07-07T09:01:15.000Z</time>
      </trkpt>
      <trkpt lat="40.27042689733207225799560546875" lon="-0.98126194439828395843505859375">
        <ele>1150.199951171875</ele>
        <time>2019-07-07T09:01:16.000Z</time>
      </trkpt>
      <trkpt lat="40.2706903405487537384033203125" lon="-0.9814717434346675872802734375">
        <ele>1153.800048828125</ele>
        <time>2019-07-07T09:01:17.000Z</time>
      </trkpt>
      <trkpt lat="40.27095177210867404937744140625" lon="-0.98168556578457355499267578125">
        <ele>1155.5999755859375</ele>
        <time>2019-07-07T09:01:18.000Z</time>
      </trkpt>
      <trkpt lat="40.271481089293956756591796875" lon="-0.9821104444563388824462890625">
        <ele>1156.800048828125</ele>
        <time>2019-07-07T09:01:20.000Z</time>
      </trkpt>
      <trkpt lat="40.2720125019550323486328125" lon="-0.98253884352743625640869140625">
        <ele>1155.199951171875</ele>
        <time>2019-07-07T09:01:22.000Z</time>
      </trkpt>
      <trkpt lat="40.27227963320910930633544921875" lon="-0.9827535040676593780517578125">
        <ele>1154</ele>
        <time>2019-07-07T09:01:23.000Z</time>
      </trkpt>
      <trkpt lat="40.272548608481884002685546875" lon="-0.9829684160649776458740234375">
        <ele>1152.4000244140625</ele>
        <time>2019-07-07T09:01:24.000Z</time>
      </trkpt>
      <trkpt lat="40.27308932505548000335693359375" lon="-0.9833868406713008880615234375">
        <ele>1152</ele>
        <time>2019-07-07T09:01:26.000Z</time>
      </trkpt>
      <trkpt lat="40.27336073108017444610595703125" lon="-0.98358951508998870849609375">
        <ele>1151</ele>
        <time>2019-07-07T09:01:27.000Z</time>
      </trkpt>
      <trkpt lat="40.27390756644308567047119140625" lon="-0.98398706875741481781005859375">
        <ele>1150.4000244140625</ele>
        <time>2019-07-07T09:01:29.000Z</time>
      </trkpt>
      <trkpt lat="40.27445733547210693359375" lon="-0.9843792580068111419677734375">
        <ele>1150</ele>
        <time>2019-07-07T09:01:31.000Z</time>
      </trkpt>
      <trkpt lat="40.2747322618961334228515625" lon="-0.984571538865566253662109375">
        <ele>1148.800048828125</ele>
        <time>2019-07-07T09:01:32.000Z</time>
      </trkpt>
      <trkpt lat="40.27500559575855731964111328125" lon="-0.98476298153400421142578125">
        <ele>1147.199951171875</ele>
        <time>2019-07-07T09:01:33.000Z</time>
      </trkpt>
      <trkpt lat="40.2755481563508510589599609375" lon="-0.98515349440276622772216796875">
        <ele>1147</ele>
        <time>2019-07-07T09:01:35.000Z</time>
      </trkpt>
      <trkpt lat="40.2760852687060832977294921875" lon="-0.98555959761142730712890625">
        <ele>1147.4000244140625</ele>
        <time>2019-07-07T09:01:37.000Z</time>
      </trkpt>
      <trkpt lat="40.27662229724228382110595703125" lon="-0.98598062060773372650146484375">
        <ele>1147.199951171875</ele>
        <time>2019-07-07T09:01:39.000Z</time>
      </trkpt>
      <trkpt lat="40.2771608345210552215576171875" lon="-0.9864066727459430694580078125">
        <ele>1147.199951171875</ele>
        <time>2019-07-07T09:01:41.000Z</time>
      </trkpt>
      <trkpt lat="40.2777036465704441070556640625" lon="-0.98683943040668964385986328125">
        <ele>1147.199951171875</ele>
        <time>2019-07-07T09:01:43.000Z</time>
      </trkpt>
      <trkpt lat="40.27825375087559223175048828125" lon="-0.9872770495712757110595703125">
        <ele>1147</ele>
        <time>2019-07-07T09:01:45.000Z</time>
      </trkpt>
      <trkpt lat="40.278528593480587005615234375" lon="-0.98749673925340175628662109375">
        <ele>1148.5999755859375</ele>
        <time>2019-07-07T09:01:46.000Z</time>
      </trkpt>
      <trkpt lat="40.27907534502446651458740234375" lon="-0.987937040627002716064453125">
        <ele>1150</ele>
        <time>2019-07-07T09:01:48.000Z</time>
      </trkpt>
      <trkpt lat="40.27962503023445606231689453125" lon="-0.98837130703032016754150390625">
        <ele>1150.199951171875</ele>
        <time>2019-07-07T09:01:50.000Z</time>
      </trkpt>
      <trkpt lat="40.28017253614962100982666015625" lon="-0.988809764385223388671875">
        <ele>1150.199951171875</ele>
        <time>2019-07-07T09:01:52.000Z</time>
      </trkpt>
      <trkpt lat="40.28071962296962738037109375" lon="-0.98924922756850719451904296875">
        <ele>1150.4000244140625</ele>
        <time>2019-07-07T09:01:54.000Z</time>
      </trkpt>
      <trkpt lat="40.2809943817555904388427734375" lon="-0.9894690848886966705322265625">
        <ele>1148.800048828125</ele>
        <time>2019-07-07T09:01:55.000Z</time>
      </trkpt>
      <trkpt lat="40.2815495990216732025146484375" lon="-0.98990150727331638336181640625">
        <ele>1148.800048828125</ele>
        <time>2019-07-07T09:01:57.000Z</time>
      </trkpt>
      <trkpt lat="40.28210473246872425079345703125" lon="-0.99033451639115810394287109375">
        <ele>1148</ele>
        <time>2019-07-07T09:01:59.000Z</time>
      </trkpt>
      <trkpt lat="40.28237982653081417083740234375" lon="-0.99055328406393527984619140625">
        <ele>1147</ele>
        <time>2019-07-07T09:02:00.000Z</time>
      </trkpt>
      <trkpt lat="40.28293244540691375732421875" lon="-0.99099283106625080108642578125">
        <ele>1145.800048828125</ele>
        <time>2019-07-07T09:02:02.000Z</time>
      </trkpt>
      <trkpt lat="40.28321064077317714691162109375" lon="-0.9912155382335186004638671875">
        <ele>1144.199951171875</ele>
        <time>2019-07-07T09:02:03.000Z</time>
      </trkpt>
      <trkpt lat="40.2834901772439479827880859375" lon="-0.99143723957240581512451171875">
        <ele>1142.4000244140625</ele>
        <time>2019-07-07T09:02:04.000Z</time>
      </trkpt>
      <trkpt lat="40.283768959343433380126953125" lon="-0.99165734834969043731689453125">
        <ele>1140</ele>
        <time>2019-07-07T09:02:05.000Z</time>
      </trkpt>
      <trkpt lat="40.284046232700347900390625" lon="-0.99188097752630710601806640625">
        <ele>1137.199951171875</ele>
        <time>2019-07-07T09:02:06.000Z</time>
      </trkpt>
      <trkpt lat="40.2843213267624378204345703125" lon="-0.99210477434098720550537109375">
        <ele>1133.800048828125</ele>
        <time>2019-07-07T09:02:07.000Z</time>
      </trkpt>
      <trkpt lat="40.284593068063259124755859375" lon="-0.9923239611089229583740234375">
        <ele>1130.199951171875</ele>
        <time>2019-07-07T09:02:08.000Z</time>
      </trkpt>
      <trkpt lat="40.2848564274609088897705078125" lon="-0.9925355203449726104736328125">
        <ele>1124.800048828125</ele>
        <time>2019-07-07T09:02:09.000Z</time>
      </trkpt>
      <trkpt lat="40.28511450625956058502197265625" lon="-0.99274121224880218505859375">
        <ele>1118.199951171875</ele>
        <time>2019-07-07T09:02:10.000Z</time>
      </trkpt>
      <trkpt lat="40.28536948375403881072998046875" lon="-0.9929425455629825592041015625">
        <ele>1110.800048828125</ele>
        <time>2019-07-07T09:02:11.000Z</time>
      </trkpt>
      <trkpt lat="40.28562446124851703643798828125" lon="-0.9931430406868457794189453125">
        <ele>1104.5999755859375</ele>
        <time>2019-07-07T09:02:12.000Z</time>
      </trkpt>
      <trkpt lat="40.28587742708623409271240234375" lon="-0.99334730766713619232177734375">
        <ele>1101.4000244140625</ele>
        <time>2019-07-07T09:02:13.000Z</time>
      </trkpt>
      <trkpt lat="40.28613123111426830291748046875" lon="-0.99354981444776058197021484375">
        <ele>1099.800048828125</ele>
        <time>2019-07-07T09:02:14.000Z</time>
      </trkpt>
      <trkpt lat="40.28638805262744426727294921875" lon="-0.9937512315809726715087890625">
        <ele>1101.199951171875</ele>
        <time>2019-07-07T09:02:15.000Z</time>
      </trkpt>
      <trkpt lat="40.2869106642901897430419921875" lon="-0.99415414966642856597900390625">
        <ele>1100.4000244140625</ele>
        <time>2019-07-07T09:02:17.000Z</time>
      </trkpt>
      <trkpt lat="40.28717544861137866973876953125" lon="-0.9943564049899578094482421875">
        <ele>1102.5999755859375</ele>
        <time>2019-07-07T09:02:18.000Z</time>
      </trkpt>
      <trkpt lat="40.28744249604642391204833984375" lon="-0.99455715157091617584228515625">
        <ele>1104.5999755859375</ele>
        <time>2019-07-07T09:02:19.000Z</time>
      </trkpt>
      <trkpt lat="40.28798245824873447418212890625" lon="-0.99495596252381801605224609375">
        <ele>1104.5999755859375</ele>
        <time>2019-07-07T09:02:21.000Z</time>
      </trkpt>
      <trkpt lat="40.28825822286307811737060546875" lon="-0.99514824338257312774658203125">
        <ele>1103</ele>
        <time>2019-07-07T09:02:22.000Z</time>
      </trkpt>
      <trkpt lat="40.28853599913418292999267578125" lon="-0.99533666856586933135986328125">
        <ele>1104.199951171875</ele>
        <time>2019-07-07T09:02:23.000Z</time>
      </trkpt>
      <trkpt lat="40.28881679289042949676513671875" lon="-0.99551956169307231903076171875">
        <ele>1106</ele>
        <time>2019-07-07T09:02:24.000Z</time>
      </trkpt>
      <trkpt lat="40.2893860079348087310791015625" lon="-0.995873026549816131591796875">
        <ele>1109</ele>
        <time>2019-07-07T09:02:26.000Z</time>
      </trkpt>
      <trkpt lat="40.28996385633945465087890625" lon="-0.99620654247701168060302734375">
        <ele>1110.4000244140625</ele>
        <time>2019-07-07T09:02:28.000Z</time>
      </trkpt>
      <trkpt lat="40.2905490808188915252685546875" lon="-0.99652471952140331268310546875">
        <ele>1110.199951171875</ele>
        <time>2019-07-07T09:02:30.000Z</time>
      </trkpt>
      <trkpt lat="40.2908427827060222625732421875" lon="-0.99667643196880817413330078125">
        <ele>1109</ele>
        <time>2019-07-07T09:02:31.000Z</time>
      </trkpt>
      <trkpt lat="40.2911364845931529998779296875" lon="-0.996824204921722412109375">
        <ele>1107.4000244140625</ele>
        <time>2019-07-07T09:02:32.000Z</time>
      </trkpt>
      <trkpt lat="40.29143094085156917572021484375" lon="-0.99696560762822628021240234375">
        <ele>1106.199951171875</ele>
        <time>2019-07-07T09:02:33.000Z</time>
      </trkpt>
      <trkpt lat="40.29202337376773357391357421875" lon="-0.997238270938396453857421875">
        <ele>1105.199951171875</ele>
        <time>2019-07-07T09:02:35.000Z</time>
      </trkpt>
      <trkpt lat="40.29262016527354717254638671875" lon="-0.99749567918479442596435546875">
        <ele>1101.4000244140625</ele>
        <time>2019-07-07T09:02:37.000Z</time>
      </trkpt>
      <trkpt lat="40.29292174614965915679931640625" lon="-0.997614450752735137939453125">
        <ele>1096.800048828125</ele>
        <time>2019-07-07T09:02:38.000Z</time>
      </trkpt>
      <trkpt lat="40.2932262606918811798095703125" lon="-0.99772475659847259521484375">
        <ele>1093.800048828125</ele>
        <time>2019-07-07T09:02:39.000Z</time>
      </trkpt>
      <trkpt lat="40.29353278689086437225341796875" lon="-0.9978298656642436981201171875">
        <ele>1089.199951171875</ele>
        <time>2019-07-07T09:02:40.000Z</time>
      </trkpt>
      <trkpt lat="40.2938411571085453033447265625" lon="-0.99793304689228534698486328125">
        <ele>1087</ele>
        <time>2019-07-07T09:02:41.000Z</time>
      </trkpt>
      <trkpt lat="40.2944625914096832275390625" lon="-0.9981292672455310821533203125">
        <ele>1086.199951171875</ele>
        <time>2019-07-07T09:02:43.000Z</time>
      </trkpt>
      <trkpt lat="40.29509182088077068328857421875" lon="-0.99830805324018001556396484375">
        <ele>1085.199951171875</ele>
        <time>2019-07-07T09:02:45.000Z</time>
      </trkpt>
      <trkpt lat="40.29540915973484516143798828125" lon="-0.9983857534825801849365234375">
        <ele>1083.800048828125</ele>
        <time>2019-07-07T09:02:46.000Z</time>
      </trkpt>
      <trkpt lat="40.29572515748441219329833984375" lon="-0.9984578378498554229736328125">
        <ele>1082</ele>
        <time>2019-07-07T09:02:47.000Z</time>
      </trkpt>
      <trkpt lat="40.2960388921201229095458984375" lon="-0.9985272400081157684326171875">
        <ele>1080.4000244140625</ele>
        <time>2019-07-07T09:02:48.000Z</time>
      </trkpt>
      <trkpt lat="40.29635145328938961029052734375" lon="-0.99859035573899745941162109375">
        <ele>1079.199951171875</ele>
        <time>2019-07-07T09:02:49.000Z</time>
      </trkpt>
      <trkpt lat="40.29697037301957607269287109375" lon="-0.9987012483179569244384765625">
        <ele>1076.199951171875</ele>
        <time>2019-07-07T09:02:51.000Z</time>
      </trkpt>
      <trkpt lat="40.29757705517113208770751953125" lon="-0.99879227578639984130859375">
        <ele>1076.4000244140625</ele>
        <time>2019-07-07T09:02:53.000Z</time>
      </trkpt>
      <trkpt lat="40.298161692917346954345703125" lon="-0.9988594986498355865478515625">
        <ele>1077</ele>
        <time>2019-07-07T09:02:55.000Z</time>
      </trkpt>
      <trkpt lat="40.2984483540058135986328125" lon="-0.99888506345450878143310546875">
        <ele>1077.199951171875</ele>
        <time>2019-07-07T09:02:56.000Z</time>
      </trkpt>
      <trkpt lat="40.2990141324698925018310546875" lon="-0.99892345257103443145751953125">
        <ele>1078</ele>
        <time>2019-07-07T09:02:58.000Z</time>
      </trkpt>
      <trkpt lat="40.29929551295936107635498046875" lon="-0.99893569014966487884521484375">
        <ele>1078.199951171875</ele>
        <time>2019-07-07T09:02:59.000Z</time>
      </trkpt>
      <trkpt lat="40.2995743788778781890869140625" lon="-0.9989446587860584259033203125">
        <ele>1080.199951171875</ele>
        <time>2019-07-07T09:03:00.000Z</time>
      </trkpt>
      <trkpt lat="40.29985181987285614013671875" lon="-0.998951531946659088134765625">
        <ele>1083</ele>
        <time>2019-07-07T09:03:01.000Z</time>
      </trkpt>
      <trkpt lat="40.30012766830623149871826171875" lon="-0.9989580698311328887939453125">
        <ele>1085.4000244140625</ele>
        <time>2019-07-07T09:03:02.000Z</time>
      </trkpt>
      <trkpt lat="40.300402343273162841796875" lon="-0.9989637695252895355224609375">
        <ele>1087.800048828125</ele>
        <time>2019-07-07T09:03:03.000Z</time>
      </trkpt>
      <trkpt lat="40.30067718587815761566162109375" lon="-0.9989687986671924591064453125">
        <ele>1089.5999755859375</ele>
        <time>2019-07-07T09:03:04.000Z</time>
      </trkpt>
      <trkpt lat="40.30122955329716205596923828125" lon="-0.99897726438939571380615234375">
        <ele>1091.199951171875</ele>
        <time>2019-07-07T09:03:06.000Z</time>
      </trkpt>
      <trkpt lat="40.3017865307629108428955078125" lon="-0.9989815391600131988525390625">
        <ele>1092.5999755859375</ele>
        <time>2019-07-07T09:03:08.000Z</time>
      </trkpt>
      <trkpt lat="40.3023484535515308380126953125" lon="-0.99898933432996273040771484375">
        <ele>1094</ele>
        <time>2019-07-07T09:03:10.000Z</time>
      </trkpt>
      <trkpt lat="40.30291515402495861053466796875" lon="-0.99899469874799251556396484375">
        <ele>1093.800048828125</ele>
        <time>2019-07-07T09:03:12.000Z</time>
      </trkpt>
      <trkpt lat="40.30348596163094043731689453125" lon="-0.99901045672595500946044921875">
        <ele>1093.5999755859375</ele>
        <time>2019-07-07T09:03:14.000Z</time>
      </trkpt>
      <trkpt lat="40.30406498350203037261962890625" lon="-0.99904733709990978240966796875">
        <ele>1093.5999755859375</ele>
        <time>2019-07-07T09:03:16.000Z</time>
      </trkpt>
      <trkpt lat="40.30465121380984783172607421875" lon="-0.99912260659039020538330078125">
        <ele>1093</ele>
        <time>2019-07-07T09:03:18.000Z</time>
      </trkpt>
      <trkpt lat="40.3052449040114879608154296875" lon="-0.99923475645482540130615234375">
        <ele>1093.199951171875</ele>
        <time>2019-07-07T09:03:20.000Z</time>
      </trkpt>
      <trkpt lat="40.30554422177374362945556640625" lon="-0.9993012249469757080078125">
        <ele>1092.199951171875</ele>
        <time>2019-07-07T09:03:21.000Z</time>
      </trkpt>
      <trkpt lat="40.306138582527637481689453125" lon="-0.99945478141307830810546875">
        <ele>1091.4000244140625</ele>
        <time>2019-07-07T09:03:23.000Z</time>
      </trkpt>
      <trkpt lat="40.30670628882944583892822265625" lon="-0.999631471931934356689453125">
        <ele>1091.4000244140625</ele>
        <time>2019-07-07T09:03:25.000Z</time>
      </trkpt>
      <trkpt lat="40.307262428104877471923828125" lon="-0.99983431398868560791015625">
        <ele>1093.5999755859375</ele>
        <time>2019-07-07T09:03:27.000Z</time>
      </trkpt>
      <trkpt lat="40.30754146166145801544189453125" lon="-0.9999421052634716033935546875">
        <ele>1096.5999755859375</ele>
        <time>2019-07-07T09:03:28.000Z</time>
      </trkpt>
      <trkpt lat="40.3078184835612773895263671875" lon="-1.00005425512790679931640625">
        <ele>1099.4000244140625</ele>
        <time>2019-07-07T09:03:29.000Z</time>
      </trkpt>
      <trkpt lat="40.308093242347240447998046875" lon="-1.00017587654292583465576171875">
        <ele>1101.800048828125</ele>
        <time>2019-07-07T09:03:30.000Z</time>
      </trkpt>
      <trkpt lat="40.30836674384772777557373046875" lon="-1.0003078915178775787353515625">
        <ele>1103.5999755859375</ele>
        <time>2019-07-07T09:03:31.000Z</time>
      </trkpt>
      <trkpt lat="40.30891374684870243072509765625" lon="-1.00058742798864841461181640625">
        <ele>1104.800048828125</ele>
        <time>2019-07-07T09:03:33.000Z</time>
      </trkpt>
      <trkpt lat="40.309462845325469970703125" lon="-1.00088381208479404449462890625">
        <ele>1103.4000244140625</ele>
        <time>2019-07-07T09:03:35.000Z</time>
      </trkpt>
      <trkpt lat="40.30973919667303562164306640625" lon="-1.00103569217026233673095703125">
        <ele>1102</ele>
        <time>2019-07-07T09:03:36.000Z</time>
      </trkpt>
      <trkpt lat="40.310017056763172149658203125" lon="-1.0011856444180011749267578125">
        <ele>1097.5999755859375</ele>
        <time>2019-07-07T09:03:37.000Z</time>
      </trkpt>
      <trkpt lat="40.31029625795781612396240234375" lon="-1.001333333551883697509765625">
        <ele>1089.5999755859375</ele>
        <time>2019-07-07T09:03:38.000Z</time>
      </trkpt>
      <trkpt lat="40.31057654879987239837646484375" lon="-1.00147842429578304290771484375">
        <ele>1080</ele>
        <time>2019-07-07T09:03:39.000Z</time>
      </trkpt>
      <trkpt lat="40.3108513914048671722412109375" lon="-1.00162108428776264190673828125">
        <ele>1074.199951171875</ele>
        <time>2019-07-07T09:03:40.000Z</time>
      </trkpt>
      <trkpt lat="40.31111843883991241455078125" lon="-1.00176206789910793304443359375">
        <ele>1070</ele>
        <time>2019-07-07T09:03:41.000Z</time>
      </trkpt>
      <trkpt lat="40.3113806247711181640625" lon="-1.001903302967548370361328125">
        <ele>1068</ele>
        <time>2019-07-07T09:03:42.000Z</time>
      </trkpt>
      <trkpt lat="40.31164188869297504425048828125" lon="-1.00204646587371826171875">
        <ele>1066.800048828125</ele>
        <time>2019-07-07T09:03:43.000Z</time>
      </trkpt>
      <trkpt lat="40.31190373934805393218994140625" lon="-1.0021881200373172760009765625">
        <ele>1065.4000244140625</ele>
        <time>2019-07-07T09:03:44.000Z</time>
      </trkpt>
      <trkpt lat="40.3124320507049560546875" lon="-1.0024710930883884429931640625">
        <ele>1064.199951171875</ele>
        <time>2019-07-07T09:03:46.000Z</time>
      </trkpt>
      <trkpt lat="40.3126984275877475738525390625" lon="-1.002614758908748626708984375">
        <ele>1063.199951171875</ele>
        <time>2019-07-07T09:03:47.000Z</time>
      </trkpt>
      <trkpt lat="40.31323813833296298980712890625" lon="-1.00290183909237384796142578125">
        <ele>1061.5999755859375</ele>
        <time>2019-07-07T09:03:49.000Z</time>
      </trkpt>
      <trkpt lat="40.31350770033895969390869140625" lon="-1.00304483436048030853271484375">
        <ele>1059.5999755859375</ele>
        <time>2019-07-07T09:03:50.000Z</time>
      </trkpt>
      <trkpt lat="40.3137709759175777435302734375" lon="-1.00318615324795246124267578125">
        <ele>1058.4000244140625</ele>
        <time>2019-07-07T09:03:51.000Z</time>
      </trkpt>
      <trkpt lat="40.31402670778334140777587890625" lon="-1.00332462228834629058837890625">
        <ele>1056.800048828125</ele>
        <time>2019-07-07T09:03:52.000Z</time>
      </trkpt>
      <trkpt lat="40.314521491527557373046875" lon="-1.003588400781154632568359375">
        <ele>1055.800048828125</ele>
        <time>2019-07-07T09:03:54.000Z</time>
      </trkpt>
      <trkpt lat="40.3149975836277008056640625" lon="-1.00383608601987361907958984375">
        <ele>1054.5999755859375</ele>
        <time>2019-07-07T09:03:56.000Z</time>
      </trkpt>
      <trkpt lat="40.31547074206173419952392578125" lon="-1.004073880612850189208984375">
        <ele>1055.4000244140625</ele>
        <time>2019-07-07T09:03:58.000Z</time>
      </trkpt>
      <trkpt lat="40.3159321658313274383544921875" lon="-1.00431251339614391326904296875">
        <ele>1051.5999755859375</ele>
        <time>2019-07-07T09:04:00.000Z</time>
      </trkpt>
      <trkpt lat="40.31615654937922954559326171875" lon="-1.0044304467737674713134765625">
        <ele>1049.4000244140625</ele>
        <time>2019-07-07T09:04:01.000Z</time>
      </trkpt>
      <trkpt lat="40.3163760714232921600341796875" lon="-1.0045487992465496063232421875">
        <ele>1048.199951171875</ele>
        <time>2019-07-07T09:04:02.000Z</time>
      </trkpt>
      <trkpt lat="40.31659391708672046661376953125" lon="-1.0046688280999660491943359375">
        <ele>1046.800048828125</ele>
        <time>2019-07-07T09:04:03.000Z</time>
      </trkpt>
      <trkpt lat="40.31681234948337078094482421875" lon="-1.004788018763065338134765625">
        <ele>1045.4000244140625</ele>
        <time>2019-07-07T09:04:04.000Z</time>
      </trkpt>
      <trkpt lat="40.317236892879009246826171875" lon="-1.00500754080712795257568359375">
        <ele>1043</ele>
        <time>2019-07-07T09:04:06.000Z</time>
      </trkpt>
      <trkpt lat="40.317439399659633636474609375" lon="-1.00510041229426860809326171875">
        <ele>1042</ele>
        <time>2019-07-07T09:04:07.000Z</time>
      </trkpt>
      <trkpt lat="40.3178341872990131378173828125" lon="-1.00523921661078929901123046875">
        <ele>1040.5999755859375</ele>
        <time>2019-07-07T09:04:09.000Z</time>
      </trkpt>
      <trkpt lat="40.318224616348743438720703125" lon="-1.0053071938455104827880859375">
        <ele>1042.5999755859375</ele>
        <time>2019-07-07T09:04:11.000Z</time>
      </trkpt>
      <trkpt lat="40.31883649528026580810546875" lon="-1.00527760572731494903564453125">
        <ele>1043.5999755859375</ele>
        <time>2019-07-07T09:04:14.000Z</time>
      </trkpt>
      <trkpt lat="40.3190452046692371368408203125" lon="-1.00525011308491230010986328125">
        <ele>1043.800048828125</ele>
        <time>2019-07-07T09:04:15.000Z</time>
      </trkpt>
      <trkpt lat="40.3194606117904186248779296875" lon="-1.0052294097840785980224609375">
        <ele>1043.199951171875</ele>
        <time>2019-07-07T09:04:17.000Z</time>
      </trkpt>
      <trkpt lat="40.3196651302278041839599609375" lon="-1.00525950081646442413330078125">
        <ele>1042.199951171875</ele>
        <time>2019-07-07T09:04:18.000Z</time>
      </trkpt>
      <trkpt lat="40.31986604444682598114013671875" lon="-1.00532286800444126129150390625">
        <ele>1040.800048828125</ele>
        <time>2019-07-07T09:04:19.000Z</time>
      </trkpt>
      <trkpt lat="40.32024825923144817352294921875" lon="-1.005536355078220367431640625">
        <ele>1039.800048828125</ele>
        <time>2019-07-07T09:04:21.000Z</time>
      </trkpt>
      <trkpt lat="40.3205804340541362762451171875" lon="-1.00586165674030780792236328125">
        <ele>1040.800048828125</ele>
        <time>2019-07-07T09:04:23.000Z</time>
      </trkpt>
      <trkpt lat="40.32084605656564235687255859375" lon="-1.00628997199237346649169921875">
        <ele>1042.5999755859375</ele>
        <time>2019-07-07T09:04:25.000Z</time>
      </trkpt>
      <trkpt lat="40.32104236073791980743408203125" lon="-1.00680193863809108734130859375">
        <ele>1043.4000244140625</ele>
        <time>2019-07-07T09:04:27.000Z</time>
      </trkpt>
      <trkpt lat="40.32113925553858280181884765625" lon="-1.00736587308347225189208984375">
        <ele>1043.199951171875</ele>
        <time>2019-07-07T09:04:29.000Z</time>
      </trkpt>
      <trkpt lat="40.321134142577648162841796875" lon="-1.0079505108296871185302734375">
        <ele>1041.4000244140625</ele>
        <time>2019-07-07T09:04:31.000Z</time>
      </trkpt>
      <trkpt lat="40.32103531993925571441650390625" lon="-1.008539758622646331787109375">
        <ele>1040</ele>
        <time>2019-07-07T09:04:33.000Z</time>
      </trkpt>
      <trkpt lat="40.32090724445879459381103515625" lon="-1.00914920680224895477294921875">
        <ele>1039.199951171875</ele>
        <time>2019-07-07T09:04:35.000Z</time>
      </trkpt>
      <trkpt lat="40.3208429552614688873291015625" lon="-1.009464450180530548095703125">
        <ele>1038.5999755859375</ele>
        <time>2019-07-07T09:04:36.000Z</time>
      </trkpt>
      <trkpt lat="40.3207175619900226593017578125" lon="-1.01012318395078182220458984375">
        <ele>1036.800048828125</ele>
        <time>2019-07-07T09:04:38.000Z</time>
      </trkpt>
      <trkpt lat="40.32065059058368206024169921875" lon="-1.010460555553436279296875">
        <ele>1035.5999755859375</ele>
        <time>2019-07-07T09:04:39.000Z</time>
      </trkpt>
      <trkpt lat="40.32051094807684421539306640625" lon="-1.01114594377577304840087890625">
        <ele>1034.5999755859375</ele>
        <time>2019-07-07T09:04:41.000Z</time>
      </trkpt>
      <trkpt lat="40.32044338993728160858154296875" lon="-1.01149479858577251434326171875">
        <ele>1032.5999755859375</ele>
        <time>2019-07-07T09:04:42.000Z</time>
      </trkpt>
      <trkpt lat="40.32037801109254360198974609375" lon="-1.0118417255580425262451171875">
        <ele>1029.199951171875</ele>
        <time>2019-07-07T09:04:43.000Z</time>
      </trkpt>
      <trkpt lat="40.32031330280005931854248046875" lon="-1.01218110881745815277099609375">
        <ele>1025.5999755859375</ele>
        <time>2019-07-07T09:04:44.000Z</time>
      </trkpt>
      <trkpt lat="40.320248343050479888916015625" lon="-1.0125119425356388092041015625">
        <ele>1022</ele>
        <time>2019-07-07T09:04:45.000Z</time>
      </trkpt>
      <trkpt lat="40.3201831318438053131103515625" lon="-1.012835986912250518798828125">
        <ele>1018.5999755859375</ele>
        <time>2019-07-07T09:04:46.000Z</time>
      </trkpt>
      <trkpt lat="40.32011859118938446044921875" lon="-1.013153828680515289306640625">
        <ele>1015.79998779296875</ele>
        <time>2019-07-07T09:04:47.000Z</time>
      </trkpt>
      <trkpt lat="40.3200550563633441925048828125" lon="-1.0134688206017017364501953125">
        <ele>1013.5999755859375</ele>
        <time>2019-07-07T09:04:48.000Z</time>
      </trkpt>
      <trkpt lat="40.319993197917938232421875" lon="-1.013786494731903076171875">
        <ele>1011.79998779296875</ele>
        <time>2019-07-07T09:04:49.000Z</time>
      </trkpt>
      <trkpt lat="40.319870151579380035400390625" lon="-1.014420501887798309326171875">
        <ele>1010.5999755859375</ele>
        <time>2019-07-07T09:04:51.000Z</time>
      </trkpt>
      <trkpt lat="40.31974936835467815399169921875" lon="-1.01505006663501262664794921875">
        <ele>1010</ele>
        <time>2019-07-07T09:04:53.000Z</time>
      </trkpt>
      <trkpt lat="40.3196899406611919403076171875" lon="-1.01536170579493045806884765625">
        <ele>1008.5999755859375</ele>
        <time>2019-07-07T09:04:54.000Z</time>
      </trkpt>
      <trkpt lat="40.3196305967867374420166015625" lon="-1.01566798053681850433349609375">
        <ele>1007.20001220703125</ele>
        <time>2019-07-07T09:04:55.000Z</time>
      </trkpt>
      <trkpt lat="40.3195196203887462615966796875" lon="-1.01626041345298290252685546875">
        <ele>1006.5999755859375</ele>
        <time>2019-07-07T09:04:57.000Z</time>
      </trkpt>
      <trkpt lat="40.31946706585586071014404296875" lon="-1.01654849946498870849609375">
        <ele>1005</ele>
        <time>2019-07-07T09:04:58.000Z</time>
      </trkpt>
      <trkpt lat="40.31931518577039241790771484375" lon="-1.01737990044057369232177734375">
        <ele>1004.79998779296875</ele>
        <time>2019-07-07T09:05:01.000Z</time>
      </trkpt>
      <trkpt lat="40.31925064511597156524658203125" lon="-1.0179345309734344482421875">
        <ele>1006.20001220703125</ele>
        <time>2019-07-07T09:05:03.000Z</time>
      </trkpt>
      <trkpt lat="40.31925651244819164276123046875" lon="-1.018497459590435028076171875">
        <ele>1008.20001220703125</ele>
        <time>2019-07-07T09:05:05.000Z</time>
      </trkpt>
      <trkpt lat="40.31936899758875370025634765625" lon="-1.01922123692929744720458984375">
        <ele>1010.20001220703125</ele>
        <time>2019-07-07T09:05:08.000Z</time>
      </trkpt>
      <trkpt lat="40.3194223903119564056396484375" lon="-1.0194216482341289520263671875">
        <ele>1011.20001220703125</ele>
        <time>2019-07-07T09:05:09.000Z</time>
      </trkpt>
      <trkpt lat="40.31969488598406314849853515625" lon="-1.0201124846935272216796875">
        <ele>1012.5999755859375</ele>
        <time>2019-07-07T09:05:13.000Z</time>
      </trkpt>
      <trkpt lat="40.319998897612094879150390625" lon="-1.02059888653457164764404296875">
        <ele>1014.20001220703125</ele>
        <time>2019-07-07T09:05:16.000Z</time>
      </trkpt>
      <trkpt lat="40.3202488459646701812744140625" lon="-1.020937263965606689453125">
        <ele>1015.4000244140625</ele>
        <time>2019-07-07T09:05:18.000Z</time>
      </trkpt>
      <trkpt lat="40.32061220146715641021728515625" lon="-1.02147999219596385955810546875">
        <ele>1015</ele>
        <time>2019-07-07T09:05:21.000Z</time>
      </trkpt>
      <trkpt lat="40.32072066329419612884521484375" lon="-1.02167596109211444854736328125">
        <ele>1014.20001220703125</ele>
        <time>2019-07-07T09:05:22.000Z</time>
      </trkpt>
      <trkpt lat="40.3209187276661396026611328125" lon="-1.02210259996354579925537109375">
        <ele>1011.79998779296875</ele>
        <time>2019-07-07T09:05:24.000Z</time>
      </trkpt>
      <trkpt lat="40.3210137784481048583984375" lon="-1.0223333537578582763671875">
        <ele>1012.79998779296875</ele>
        <time>2019-07-07T09:05:25.000Z</time>
      </trkpt>
      <trkpt lat="40.3213156946003437042236328125" lon="-1.02307138033211231231689453125">
        <ele>1013.20001220703125</ele>
        <time>2019-07-07T09:05:28.000Z</time>
      </trkpt>
      <trkpt lat="40.32142080366611480712890625" lon="-1.02333054877817630767822265625">
        <ele>1011.5999755859375</ele>
        <time>2019-07-07T09:05:29.000Z</time>
      </trkpt>
      <trkpt lat="40.32152675092220306396484375" lon="-1.02359390817582607269287109375">
        <ele>1009</ele>
        <time>2019-07-07T09:05:30.000Z</time>
      </trkpt>
      <trkpt lat="40.3217354603111743927001953125" lon="-1.02412347681820392608642578125">
        <ele>1006.5999755859375</ele>
        <time>2019-07-07T09:05:32.000Z</time>
      </trkpt>
      <trkpt lat="40.32184048555791378021240234375" lon="-1.0243880935013294219970703125">
        <ele>1005.4000244140625</ele>
        <time>2019-07-07T09:05:33.000Z</time>
      </trkpt>
      <trkpt lat="40.321948193013668060302734375" lon="-1.024653129279613494873046875">
        <ele>1004.4000244140625</ele>
        <time>2019-07-07T09:05:34.000Z</time>
      </trkpt>
      <trkpt lat="40.32216779887676239013671875" lon="-1.02518445812165737152099609375">
        <ele>1003.4000244140625</ele>
        <time>2019-07-07T09:05:36.000Z</time>
      </trkpt>
      <trkpt lat="40.32238782383501529693603515625" lon="-1.02573213167488574981689453125">
        <ele>1004</ele>
        <time>2019-07-07T09:05:38.000Z</time>
      </trkpt>
      <trkpt lat="40.32250064425170421600341796875" lon="-1.0260104946792125701904296875">
        <ele>1004.4000244140625</ele>
        <time>2019-07-07T09:05:39.000Z</time>
      </trkpt>
      <trkpt lat="40.32273047603666782379150390625" lon="-1.02657635696232318878173828125">
        <ele>1003.79998779296875</ele>
        <time>2019-07-07T09:05:41.000Z</time>
      </trkpt>
      <trkpt lat="40.3228462301194667816162109375" lon="-1.02686268277466297149658203125">
        <ele>1002.79998779296875</ele>
        <time>2019-07-07T09:05:42.000Z</time>
      </trkpt>
      <trkpt lat="40.322960056364536285400390625" lon="-1.02714833803474903106689453125">
        <ele>1001.5999755859375</ele>
        <time>2019-07-07T09:05:43.000Z</time>
      </trkpt>
      <trkpt lat="40.32307170331478118896484375" lon="-1.0274320654571056365966796875">
        <ele>1000</ele>
        <time>2019-07-07T09:05:44.000Z</time>
      </trkpt>
      <trkpt lat="40.3231821767985820770263671875" lon="-1.027712188661098480224609375">
        <ele>998.79998779296875</ele>
        <time>2019-07-07T09:05:45.000Z</time>
      </trkpt>
      <trkpt lat="40.32340295612812042236328125" lon="-1.0282591916620731353759765625">
        <ele>998</ele>
        <time>2019-07-07T09:05:47.000Z</time>
      </trkpt>
      <trkpt lat="40.32351217232644557952880859375" lon="-1.02852992713451385498046875">
        <ele>997.5999755859375</ele>
        <time>2019-07-07T09:05:48.000Z</time>
      </trkpt>
      <trkpt lat="40.3237281739711761474609375" lon="-1.02907173335552215576171875">
        <ele>996.5999755859375</ele>
        <time>2019-07-07T09:05:50.000Z</time>
      </trkpt>
      <trkpt lat="40.32393914647400379180908203125" lon="-1.02961194701492786407470703125">
        <ele>995.5999755859375</ele>
        <time>2019-07-07T09:05:52.000Z</time>
      </trkpt>
      <trkpt lat="40.32404375262558460235595703125" lon="-1.0298805870115756988525390625">
        <ele>995</ele>
        <time>2019-07-07T09:05:53.000Z</time>
      </trkpt>
      <trkpt lat="40.32425615005195140838623046875" lon="-1.03041744790971279144287109375">
        <ele>993.5999755859375</ele>
        <time>2019-07-07T09:05:55.000Z</time>
      </trkpt>
      <trkpt lat="40.32446913421154022216796875" lon="-1.030957996845245361328125">
        <ele>992.4000244140625</ele>
        <time>2019-07-07T09:05:57.000Z</time>
      </trkpt>
      <trkpt lat="40.3246830403804779052734375" lon="-1.03150743059813976287841796875">
        <ele>991.5999755859375</ele>
        <time>2019-07-07T09:05:59.000Z</time>
      </trkpt>
      <trkpt lat="40.324903316795825958251953125" lon="-1.0320592112839221954345703125">
        <ele>991</ele>
        <time>2019-07-07T09:06:01.000Z</time>
      </trkpt>
      <trkpt lat="40.32512334175407886505126953125" lon="-1.03261250071227550506591796875">
        <ele>991.5999755859375</ele>
        <time>2019-07-07T09:06:03.000Z</time>
      </trkpt>
      <trkpt lat="40.32534261234104633331298828125" lon="-1.033179201185703277587890625">
        <ele>989.4000244140625</ele>
        <time>2019-07-07T09:06:05.000Z</time>
      </trkpt>
      <trkpt lat="40.32544923014938831329345703125" lon="-1.03346544317901134490966796875">
        <ele>987.4000244140625</ele>
        <time>2019-07-07T09:06:06.000Z</time>
      </trkpt>
      <trkpt lat="40.325549729168415069580078125" lon="-1.03375394828617572784423828125">
        <ele>985.20001220703125</ele>
        <time>2019-07-07T09:06:07.000Z</time>
      </trkpt>
      <trkpt lat="40.325642935931682586669921875" lon="-1.03404111228883266448974609375">
        <ele>982.4000244140625</ele>
        <time>2019-07-07T09:06:08.000Z</time>
      </trkpt>
      <trkpt lat="40.32572901807725429534912109375" lon="-1.03432525880634784698486328125">
        <ele>981</ele>
        <time>2019-07-07T09:06:09.000Z</time>
      </trkpt>
      <trkpt lat="40.32587335444986820220947265625" lon="-1.0348819009959697723388671875">
        <ele>978.79998779296875</ele>
        <time>2019-07-07T09:06:11.000Z</time>
      </trkpt>
      <trkpt lat="40.32599070109426975250244140625" lon="-1.0354414768517017364501953125">
        <ele>977.20001220703125</ele>
        <time>2019-07-07T09:06:13.000Z</time>
      </trkpt>
      <trkpt lat="40.3260885179042816162109375" lon="-1.0360181517899036407470703125">
        <ele>977.20001220703125</ele>
        <time>2019-07-07T09:06:15.000Z</time>
      </trkpt>
      <trkpt lat="40.32617107965052127838134765625" lon="-1.03660413064062595367431640625">
        <ele>976.5999755859375</ele>
        <time>2019-07-07T09:06:17.000Z</time>
      </trkpt>
      <trkpt lat="40.32624416984617710113525390625" lon="-1.03720419108867645263671875">
        <ele>977</ele>
        <time>2019-07-07T09:06:19.000Z</time>
      </trkpt>
      <trkpt lat="40.32631189562380313873291015625" lon="-1.03781028650701045989990234375">
        <ele>975.5999755859375</ele>
        <time>2019-07-07T09:06:21.000Z</time>
      </trkpt>
      <trkpt lat="40.32634257338941097259521484375" lon="-1.038113795220851898193359375">
        <ele>973.79998779296875</ele>
        <time>2019-07-07T09:06:22.000Z</time>
      </trkpt>
      <trkpt lat="40.3264021687209606170654296875" lon="-1.03872056119143962860107421875">
        <ele>972.20001220703125</ele>
        <time>2019-07-07T09:06:24.000Z</time>
      </trkpt>
      <trkpt lat="40.32643343321979045867919921875" lon="-1.039023734629154205322265625">
        <ele>971</ele>
        <time>2019-07-07T09:06:25.000Z</time>
      </trkpt>
      <trkpt lat="40.32646612264215946197509765625" lon="-1.03932791389524936676025390625">
        <ele>969</ele>
        <time>2019-07-07T09:06:26.000Z</time>
      </trkpt>
      <trkpt lat="40.32650015316903591156005859375" lon="-1.03963335044682025909423828125">
        <ele>967</ele>
        <time>2019-07-07T09:06:27.000Z</time>
      </trkpt>
      <trkpt lat="40.3265339322388172149658203125" lon="-1.03994029574096202850341796875">
        <ele>966</ele>
        <time>2019-07-07T09:06:28.000Z</time>
      </trkpt>
      <trkpt lat="40.32656637020409107208251953125" lon="-1.04024849832057952880859375">
        <ele>964.79998779296875</ele>
        <time>2019-07-07T09:06:29.000Z</time>
      </trkpt>
      <trkpt lat="40.3265986405313014984130859375" lon="-1.04055753909051418304443359375">
        <ele>963.4000244140625</ele>
        <time>2019-07-07T09:06:30.000Z</time>
      </trkpt>
      <trkpt lat="40.32665806822478771209716796875" lon="-1.04117830283939838409423828125">
        <ele>961.20001220703125</ele>
        <time>2019-07-07T09:06:32.000Z</time>
      </trkpt>
      <trkpt lat="40.32667717896401882171630859375" lon="-1.04149036109447479248046875">
        <ele>960.20001220703125</ele>
        <time>2019-07-07T09:06:33.000Z</time>
      </trkpt>
      <trkpt lat="40.32667793333530426025390625" lon="-1.04211372323334217071533203125">
        <ele>958.5999755859375</ele>
        <time>2019-07-07T09:06:35.000Z</time>
      </trkpt>
      <trkpt lat="40.3266428969800472259521484375" lon="-1.04271118529140949249267578125">
        <ele>956.79998779296875</ele>
        <time>2019-07-07T09:06:37.000Z</time>
      </trkpt>
      <trkpt lat="40.32662152312695980072021484375" lon="-1.0430016182363033294677734375">
        <ele>954.79998779296875</ele>
        <time>2019-07-07T09:06:38.000Z</time>
      </trkpt>
      <trkpt lat="40.32658045180141925811767578125" lon="-1.04358114302158355712890625">
        <ele>952.79998779296875</ele>
        <time>2019-07-07T09:06:40.000Z</time>
      </trkpt>
      <trkpt lat="40.32655916176736354827880859375" lon="-1.04386939667165279388427734375">
        <ele>951.20001220703125</ele>
        <time>2019-07-07T09:06:41.000Z</time>
      </trkpt>
      <trkpt lat="40.3265154920518398284912109375" lon="-1.04444456286728382110595703125">
        <ele>949.79998779296875</ele>
        <time>2019-07-07T09:06:43.000Z</time>
      </trkpt>
      <trkpt lat="40.32645396888256072998046875" lon="-1.0452915541827678680419921875">
        <ele>949.4000244140625</ele>
        <time>2019-07-07T09:06:46.000Z</time>
      </trkpt>
      <trkpt lat="40.3263951279222965240478515625" lon="-1.04613753966987133026123046875">
        <ele>949.79998779296875</ele>
        <time>2019-07-07T09:06:49.000Z</time>
      </trkpt>
      <trkpt lat="40.32633687369525432586669921875" lon="-1.04700422845780849456787109375">
        <ele>949</ele>
        <time>2019-07-07T09:06:52.000Z</time>
      </trkpt>
      <trkpt lat="40.3263005800545215606689453125" lon="-1.04753463529050350189208984375">
        <ele>948.20001220703125</ele>
        <time>2019-07-07T09:06:54.000Z</time>
      </trkpt>
      <trkpt lat="40.32628490589559078216552734375" lon="-1.0477695800364017486572265625">
        <ele>948.4000244140625</ele>
        <time>2019-07-07T09:06:55.000Z</time>
      </trkpt>
      <trkpt lat="40.3262432478368282318115234375" lon="-1.04842646978795528411865234375">
        <ele>947.20001220703125</ele>
        <time>2019-07-07T09:06:58.000Z</time>
      </trkpt>
      <trkpt lat="40.32621248625218868255615234375" lon="-1.04888521134853363037109375">
        <ele>945.5999755859375</ele>
        <time>2019-07-07T09:07:00.000Z</time>
      </trkpt>
      <trkpt lat="40.3261949680745601654052734375" lon="-1.04912552051246166229248046875">
        <ele>943.79998779296875</ele>
        <time>2019-07-07T09:07:01.000Z</time>
      </trkpt>
      <trkpt lat="40.32617711462080478668212890625" lon="-1.04937261901795864105224609375">
        <ele>942.5999755859375</ele>
        <time>2019-07-07T09:07:02.000Z</time>
      </trkpt>
      <trkpt lat="40.32612414099276065826416015625" lon="-1.05015565641224384307861328125">
        <ele>941.4000244140625</ele>
        <time>2019-07-07T09:07:05.000Z</time>
      </trkpt>
      <trkpt lat="40.32608784735202789306640625" lon="-1.05073886923491954803466796875">
        <ele>943</ele>
        <time>2019-07-07T09:07:07.000Z</time>
      </trkpt>
      <trkpt lat="40.3260410763323307037353515625" lon="-1.05141662992537021636962890625">
        <ele>943.5999755859375</ele>
        <time>2019-07-07T09:07:09.000Z</time>
      </trkpt>
      <trkpt lat="40.325995646417140960693359375" lon="-1.05212003923952579498291015625">
        <ele>942.4000244140625</ele>
        <time>2019-07-07T09:07:11.000Z</time>
      </trkpt>
      <trkpt lat="40.32597376964986324310302734375" lon="-1.0524507053196430206298828125">
        <ele>938.79998779296875</ele>
        <time>2019-07-07T09:07:12.000Z</time>
      </trkpt>
      <trkpt lat="40.32595365308225154876708984375" lon="-1.0527695529162883758544921875">
        <ele>935</ele>
        <time>2019-07-07T09:07:13.000Z</time>
      </trkpt>
      <trkpt lat="40.32593437470495700836181640625" lon="-1.05307406745851039886474609375">
        <ele>930.79998779296875</ele>
        <time>2019-07-07T09:07:14.000Z</time>
      </trkpt>
      <trkpt lat="40.32591476105153560638427734375" lon="-1.05336408130824565887451171875">
        <ele>928.5999755859375</ele>
        <time>2019-07-07T09:07:15.000Z</time>
      </trkpt>
      <trkpt lat="40.32589472830295562744140625" lon="-1.0536436177790164947509765625">
        <ele>927.5999755859375</ele>
        <time>2019-07-07T09:07:16.000Z</time>
      </trkpt>
      <trkpt lat="40.325856506824493408203125" lon="-1.05418257415294647216796875">
        <ele>929.5999755859375</ele>
        <time>2019-07-07T09:07:18.000Z</time>
      </trkpt>
      <trkpt lat="40.325800515711307525634765625" lon="-1.05499017052352428436279296875">
        <ele>931</ele>
        <time>2019-07-07T09:07:21.000Z</time>
      </trkpt>
      <trkpt lat="40.32574477605521678924560546875" lon="-1.0558138601481914520263671875">
        <ele>931.5999755859375</ele>
        <time>2019-07-07T09:07:24.000Z</time>
      </trkpt>
      <trkpt lat="40.3257088176906108856201171875" lon="-1.056378297507762908935546875">
        <ele>932.4000244140625</ele>
        <time>2019-07-07T09:07:26.000Z</time>
      </trkpt>
      <trkpt lat="40.325649641454219818115234375" lon="-1.05723769403994083404541015625">
        <ele>931.5999755859375</ele>
        <time>2019-07-07T09:07:29.000Z</time>
      </trkpt>
      <trkpt lat="40.32562944106757640838623046875" lon="-1.05753391049802303314208984375">
        <ele>929.79998779296875</ele>
        <time>2019-07-07T09:07:30.000Z</time>
      </trkpt>
      <trkpt lat="40.32560965977609157562255859375" lon="-1.05783716775476932525634765625">
        <ele>927.5999755859375</ele>
        <time>2019-07-07T09:07:31.000Z</time>
      </trkpt>
      <trkpt lat="40.325588285923004150390625" lon="-1.05814847163856029510498046875">
        <ele>926.5999755859375</ele>
        <time>2019-07-07T09:07:32.000Z</time>
      </trkpt>
      <trkpt lat="40.32554629258811473846435546875" lon="-1.05877895839512348175048828125">
        <ele>924.79998779296875</ele>
        <time>2019-07-07T09:07:34.000Z</time>
      </trkpt>
      <trkpt lat="40.3255327977240085601806640625" lon="-1.05937373824417591094970703125">
        <ele>923.5999755859375</ele>
        <time>2019-07-07T09:07:36.000Z</time>
      </trkpt>
      <trkpt lat="40.32562977634370326995849609375" lon="-1.06023724190890789031982421875">
        <ele>922.5999755859375</ele>
        <time>2019-07-07T09:07:39.000Z</time>
      </trkpt>
      <trkpt lat="40.32569398172199726104736328125" lon="-1.06053446419537067413330078125">
        <ele>922</ele>
        <time>2019-07-07T09:07:40.000Z</time>
      </trkpt>
      <trkpt lat="40.32586245797574520111083984375" lon="-1.06114584021270275115966796875">
        <ele>921.20001220703125</ele>
        <time>2019-07-07T09:07:42.000Z</time>
      </trkpt>
      <trkpt lat="40.32595683820545673370361328125" lon="-1.06145261786878108978271484375">
        <ele>919.79998779296875</ele>
        <time>2019-07-07T09:07:43.000Z</time>
      </trkpt>
      <trkpt lat="40.32605255953967571258544921875" lon="-1.0617576353251934051513671875">
        <ele>917.5999755859375</ele>
        <time>2019-07-07T09:07:44.000Z</time>
      </trkpt>
      <trkpt lat="40.326147861778736114501953125" lon="-1.0620681010186672210693359375">
        <ele>914.79998779296875</ele>
        <time>2019-07-07T09:07:45.000Z</time>
      </trkpt>
      <trkpt lat="40.32624232582747936248779296875" lon="-1.06238435022532939910888671875">
        <ele>912.4000244140625</ele>
        <time>2019-07-07T09:07:46.000Z</time>
      </trkpt>
      <trkpt lat="40.3263361193239688873291015625" lon="-1.06270168907940387725830078125">
        <ele>910.4000244140625</ele>
        <time>2019-07-07T09:07:47.000Z</time>
      </trkpt>
      <trkpt lat="40.32642857171595096588134765625" lon="-1.06301374733448028564453125">
        <ele>907.5999755859375</ele>
        <time>2019-07-07T09:07:48.000Z</time>
      </trkpt>
      <trkpt lat="40.3265176713466644287109375" lon="-1.06331591494381427764892578125">
        <ele>905</ele>
        <time>2019-07-07T09:07:49.000Z</time>
      </trkpt>
      <trkpt lat="40.3266035020351409912109375" lon="-1.063602156937122344970703125">
        <ele>902.20001220703125</ele>
        <time>2019-07-07T09:07:50.000Z</time>
      </trkpt>
      <trkpt lat="40.3266861476004123687744140625" lon="-1.06387414969503879547119140625">
        <ele>899.79998779296875</ele>
        <time>2019-07-07T09:07:51.000Z</time>
      </trkpt>
      <trkpt lat="40.3267652727663516998291015625" lon="-1.064138598740100860595703125">
        <ele>898.4000244140625</ele>
        <time>2019-07-07T09:07:52.000Z</time>
      </trkpt>
      <trkpt lat="40.3269146382808685302734375" lon="-1.06463874690234661102294921875">
        <ele>897.20001220703125</ele>
        <time>2019-07-07T09:07:54.000Z</time>
      </trkpt>
      <trkpt lat="40.32712678425014019012451171875" lon="-1.06533494777977466583251953125">
        <ele>896.5999755859375</ele>
        <time>2019-07-07T09:07:57.000Z</time>
      </trkpt>
      <trkpt lat="40.3273437917232513427734375" lon="-1.06606249697506427764892578125">
        <ele>898.20001220703125</ele>
        <time>2019-07-07T09:08:00.000Z</time>
      </trkpt>
      <trkpt lat="40.32742224633693695068359375" lon="-1.06632535345852375030517578125">
        <ele>898.79998779296875</ele>
        <time>2019-07-07T09:08:01.000Z</time>
      </trkpt>
      <trkpt lat="40.327583514153957366943359375" lon="-1.06687906198203563690185546875">
        <ele>899</ele>
        <time>2019-07-07T09:08:03.000Z</time>
      </trkpt>
      <trkpt lat="40.3276648186147212982177734375" lon="-1.0671636275947093963623046875">
        <ele>899.79998779296875</ele>
        <time>2019-07-07T09:08:04.000Z</time>
      </trkpt>
      <trkpt lat="40.32775023020803928375244140625" lon="-1.06745154596865177154541015625">
        <ele>901</ele>
        <time>2019-07-07T09:08:05.000Z</time>
      </trkpt>
      <trkpt lat="40.32792675308883190155029296875" lon="-1.06803744100034236907958984375">
        <ele>903</ele>
        <time>2019-07-07T09:08:07.000Z</time>
      </trkpt>
      <trkpt lat="40.328014008700847625732421875" lon="-1.068338267505168914794921875">
        <ele>904.5999755859375</ele>
        <time>2019-07-07T09:08:08.000Z</time>
      </trkpt>
      <trkpt lat="40.32810210250318050384521484375" lon="-1.068642027676105499267578125">
        <ele>906.79998779296875</ele>
        <time>2019-07-07T09:08:09.000Z</time>
      </trkpt>
      <trkpt lat="40.32818910665810108184814453125" lon="-1.0689426027238368988037109375">
        <ele>907.79998779296875</ele>
        <time>2019-07-07T09:08:10.000Z</time>
      </trkpt>
      <trkpt lat="40.328274853527545928955078125" lon="-1.06923244893550872802734375">
        <ele>909.20001220703125</ele>
        <time>2019-07-07T09:08:11.000Z</time>
      </trkpt>
      <trkpt lat="40.328360013663768768310546875" lon="-1.06951332651078701019287109375">
        <ele>910.79998779296875</ele>
        <time>2019-07-07T09:08:12.000Z</time>
      </trkpt>
      <trkpt lat="40.32844391651451587677001953125" lon="-1.06979160569608211517333984375">
        <ele>912</ele>
        <time>2019-07-07T09:08:13.000Z</time>
      </trkpt>
      <trkpt lat="40.328606106340885162353515625" lon="-1.07034682296216487884521484375">
        <ele>913.4000244140625</ele>
        <time>2019-07-07T09:08:15.000Z</time>
      </trkpt>
      <trkpt lat="40.3287695534527301788330078125" lon="-1.07090882956981658935546875">
        <ele>915.4000244140625</ele>
        <time>2019-07-07T09:08:17.000Z</time>
      </trkpt>
      <trkpt lat="40.32893962226808071136474609375" lon="-1.07147854752838611602783203125">
        <ele>916.79998779296875</ele>
        <time>2019-07-07T09:08:19.000Z</time>
      </trkpt>
      <trkpt lat="40.32912955619394779205322265625" lon="-1.07204474508762359619140625">
        <ele>916</ele>
        <time>2019-07-07T09:08:21.000Z</time>
      </trkpt>
      <trkpt lat="40.32924438826739788055419921875" lon="-1.072315312922000885009765625">
        <ele>915</ele>
        <time>2019-07-07T09:08:22.000Z</time>
      </trkpt>
      <trkpt lat="40.32937179319560527801513671875" lon="-1.07258009724318981170654296875">
        <ele>913</ele>
        <time>2019-07-07T09:08:23.000Z</time>
      </trkpt>
      <trkpt lat="40.3295048139989376068115234375" lon="-1.0728398524224758148193359375">
        <ele>910.5999755859375</ele>
        <time>2019-07-07T09:08:24.000Z</time>
      </trkpt>
      <trkpt lat="40.32963548786938190460205078125" lon="-1.07309374026954174041748046875">
        <ele>908.5999755859375</ele>
        <time>2019-07-07T09:08:25.000Z</time>
      </trkpt>
      <trkpt lat="40.329762138426303863525390625" lon="-1.07333756983280181884765625">
        <ele>906.4000244140625</ele>
        <time>2019-07-07T09:08:26.000Z</time>
      </trkpt>
      <trkpt lat="40.3298846818506717681884765625" lon="-1.07357368804514408111572265625">
        <ele>905.4000244140625</ele>
        <time>2019-07-07T09:08:27.000Z</time>
      </trkpt>
      <trkpt lat="40.33000563271343708038330078125" lon="-1.0738054476678371429443359375">
        <ele>904.20001220703125</ele>
        <time>2019-07-07T09:08:28.000Z</time>
      </trkpt>
      <trkpt lat="40.3301264159381389617919921875" lon="-1.0740361176431179046630859375">
        <ele>902.20001220703125</ele>
        <time>2019-07-07T09:08:29.000Z</time>
      </trkpt>
      <trkpt lat="40.33036504872143268585205078125" lon="-1.07449804432690143585205078125">
        <ele>900.5999755859375</ele>
        <time>2019-07-07T09:08:31.000Z</time>
      </trkpt>
      <trkpt lat="40.33071742393076419830322265625" lon="-1.07520195655524730682373046875">
        <ele>900.20001220703125</ele>
        <time>2019-07-07T09:08:34.000Z</time>
      </trkpt>
      <trkpt lat="40.33104130066931247711181640625" lon="-1.07594409026205539703369140625">
        <ele>899.79998779296875</ele>
        <time>2019-07-07T09:08:37.000Z</time>
      </trkpt>
      <trkpt lat="40.33129007555544376373291015625" lon="-1.07672251760959625244140625">
        <ele>900.20001220703125</ele>
        <time>2019-07-07T09:08:40.000Z</time>
      </trkpt>
      <trkpt lat="40.3314691968262195587158203125" lon="-1.0775390826165676116943359375">
        <ele>901</ele>
        <time>2019-07-07T09:08:43.000Z</time>
      </trkpt>
      <trkpt lat="40.3315570391714572906494140625" lon="-1.07811315916478633880615234375">
        <ele>902</ele>
        <time>2019-07-07T09:08:45.000Z</time>
      </trkpt>
      <trkpt lat="40.3316395170986652374267578125" lon="-1.0787155665457248687744140625">
        <ele>902.4000244140625</ele>
        <time>2019-07-07T09:08:47.000Z</time>
      </trkpt>
      <trkpt lat="40.331720821559429168701171875" lon="-1.07931965030729770660400390625">
        <ele>899.79998779296875</ele>
        <time>2019-07-07T09:08:49.000Z</time>
      </trkpt>
      <trkpt lat="40.3317960910499095916748046875" lon="-1.07990487478673458099365234375">
        <ele>897.79998779296875</ele>
        <time>2019-07-07T09:08:51.000Z</time>
      </trkpt>
      <trkpt lat="40.33188619650900363922119140625" lon="-1.080718673765659332275390625">
        <ele>896.79998779296875</ele>
        <time>2019-07-07T09:08:54.000Z</time>
      </trkpt>
      <trkpt lat="40.33190413378179073333740234375" lon="-1.08097122050821781158447265625">
        <ele>896.79998779296875</ele>
        <time>2019-07-07T09:08:55.000Z</time>
      </trkpt>
      <trkpt lat="40.33192995004355907440185546875" lon="-1.08168502338230609893798828125">
        <ele>896.79998779296875</ele>
        <time>2019-07-07T09:08:58.000Z</time>
      </trkpt>
      <trkpt lat="40.3319110907614231109619140625" lon="-1.0823445953428745269775390625">
        <ele>897</ele>
        <time>2019-07-07T09:09:01.000Z</time>
      </trkpt>
      <trkpt lat="40.331860296428203582763671875" lon="-1.08300131745636463165283203125">
        <ele>898.20001220703125</ele>
        <time>2019-07-07T09:09:04.000Z</time>
      </trkpt>
      <trkpt lat="40.33177488483488559722900390625" lon="-1.08368687331676483154296875">
        <ele>898.5999755859375</ele>
        <time>2019-07-07T09:09:07.000Z</time>
      </trkpt>
      <trkpt lat="40.33161998726427555084228515625" lon="-1.0844719223678112030029296875">
        <ele>897.79998779296875</ele>
        <time>2019-07-07T09:09:10.000Z</time>
      </trkpt>
      <trkpt lat="40.3315508365631103515625" lon="-1.08475430868566036224365234375">
        <ele>896.4000244140625</ele>
        <time>2019-07-07T09:09:11.000Z</time>
      </trkpt>
      <trkpt lat="40.331472717225551605224609375" lon="-1.08504415489733219146728515625">
        <ele>894.79998779296875</ele>
        <time>2019-07-07T09:09:12.000Z</time>
      </trkpt>
      <trkpt lat="40.3313853777945041656494140625" lon="-1.085338108241558074951171875">
        <ele>892.5999755859375</ele>
        <time>2019-07-07T09:09:13.000Z</time>
      </trkpt>
      <trkpt lat="40.3312893211841583251953125" lon="-1.08563239686191082000732421875">
        <ele>890.4000244140625</ele>
        <time>2019-07-07T09:09:14.000Z</time>
      </trkpt>
      <trkpt lat="40.3311862237751483917236328125" lon="-1.08592249453067779541015625">
        <ele>888.5999755859375</ele>
        <time>2019-07-07T09:09:15.000Z</time>
      </trkpt>
      <trkpt lat="40.33096703700721263885498046875" lon="-1.086475364863872528076171875">
        <ele>887.4000244140625</ele>
        <time>2019-07-07T09:09:17.000Z</time>
      </trkpt>
      <trkpt lat="40.33085019327700138092041015625" lon="-1.08673545531928539276123046875">
        <ele>889.4000244140625</ele>
        <time>2019-07-07T09:09:18.000Z</time>
      </trkpt>
      <trkpt lat="40.3307282365858554840087890625" lon="-1.0869885049760341644287109375">
        <ele>893.5999755859375</ele>
        <time>2019-07-07T09:09:19.000Z</time>
      </trkpt>
      <trkpt lat="40.3306004963815212249755859375" lon="-1.08723619021475315093994140625">
        <ele>898.4000244140625</ele>
        <time>2019-07-07T09:09:20.000Z</time>
      </trkpt>
      <trkpt lat="40.33046655356884002685546875" lon="-1.0874773375689983367919921875">
        <ele>901</ele>
        <time>2019-07-07T09:09:21.000Z</time>
      </trkpt>
      <trkpt lat="40.3303248994052410125732421875" lon="-1.0877116955816745758056640625">
        <ele>902.4000244140625</ele>
        <time>2019-07-07T09:09:22.000Z</time>
      </trkpt>
      <trkpt lat="40.33002340234816074371337890625" lon="-1.08816389925777912139892578125">
        <ele>902.5999755859375</ele>
        <time>2019-07-07T09:09:24.000Z</time>
      </trkpt>
      <trkpt lat="40.32969734631478786468505859375" lon="-1.0885985009372234344482421875">
        <ele>901.20001220703125</ele>
        <time>2019-07-07T09:09:26.000Z</time>
      </trkpt>
      <trkpt lat="40.32934647984802722930908203125" lon="-1.08900946564972400665283203125">
        <ele>899.79998779296875</ele>
        <time>2019-07-07T09:09:28.000Z</time>
      </trkpt>
      <trkpt lat="40.32897030003368854522705078125" lon="-1.08940064907073974609375">
        <ele>898.4000244140625</ele>
        <time>2019-07-07T09:09:30.000Z</time>
      </trkpt>
      <trkpt lat="40.3285747580230236053466796875" lon="-1.08977171592414379119873046875">
        <ele>896.79998779296875</ele>
        <time>2019-07-07T09:09:32.000Z</time>
      </trkpt>
      <trkpt lat="40.3281707502901554107666015625" lon="-1.09014160931110382080078125">
        <ele>895</ele>
        <time>2019-07-07T09:09:34.000Z</time>
      </trkpt>
      <trkpt lat="40.32796547748148441314697265625" lon="-1.09032542444765567779541015625">
        <ele>894</ele>
        <time>2019-07-07T09:09:35.000Z</time>
      </trkpt>
      <trkpt lat="40.32775877974927425384521484375" lon="-1.09050814993679523468017578125">
        <ele>892.79998779296875</ele>
        <time>2019-07-07T09:09:36.000Z</time>
      </trkpt>
      <trkpt lat="40.3273587115108966827392578125" lon="-1.090878210961818695068359375">
        <ele>891.4000244140625</ele>
        <time>2019-07-07T09:09:38.000Z</time>
      </trkpt>
      <trkpt lat="40.32699250616133213043212890625" lon="-1.09125472605228424072265625">
        <ele>890.79998779296875</ele>
        <time>2019-07-07T09:09:40.000Z</time>
      </trkpt>
      <trkpt lat="40.326644740998744964599609375" lon="-1.09165295027196407318115234375">
        <ele>890.5999755859375</ele>
        <time>2019-07-07T09:09:42.000Z</time>
      </trkpt>
      <trkpt lat="40.32631206326186656951904296875" lon="-1.0920719616115093231201171875">
        <ele>890.4000244140625</ele>
        <time>2019-07-07T09:09:44.000Z</time>
      </trkpt>
      <trkpt lat="40.3261557407677173614501953125" lon="-1.0922872088849544525146484375">
        <ele>890</ele>
        <time>2019-07-07T09:09:45.000Z</time>
      </trkpt>
      <trkpt lat="40.32571979798376560211181640625" lon="-1.09294527210295200347900390625">
        <ele>889.20001220703125</ele>
        <time>2019-07-07T09:09:48.000Z</time>
      </trkpt>
      <trkpt lat="40.3255891241133213043212890625" lon="-1.09317242167890071868896484375">
        <ele>888.4000244140625</ele>
        <time>2019-07-07T09:09:49.000Z</time>
      </trkpt>
      <trkpt lat="40.325463898479938507080078125" lon="-1.0934065282344818115234375">
        <ele>887</ele>
        <time>2019-07-07T09:09:50.000Z</time>
      </trkpt>
      <trkpt lat="40.32534219324588775634765625" lon="-1.09364457428455352783203125">
        <ele>885.4000244140625</ele>
        <time>2019-07-07T09:09:51.000Z</time>
      </trkpt>
      <trkpt lat="40.32522627152502536773681640625" lon="-1.09388597309589385986328125">
        <ele>884</ele>
        <time>2019-07-07T09:09:52.000Z</time>
      </trkpt>
      <trkpt lat="40.3250194899737834930419921875" lon="-1.094389222562313079833984375">
        <ele>882.4000244140625</ele>
        <time>2019-07-07T09:09:54.000Z</time>
      </trkpt>
      <trkpt lat="40.324785970151424407958984375" lon="-1.095200590789318084716796875">
        <ele>880.79998779296875</ele>
        <time>2019-07-07T09:09:57.000Z</time>
      </trkpt>
      <trkpt lat="40.3246453218162059783935546875" lon="-1.0960431396961212158203125">
        <ele>879.5999755859375</ele>
        <time>2019-07-07T09:10:00.000Z</time>
      </trkpt>
      <trkpt lat="40.3246064297854900360107421875" lon="-1.0966213233768939971923828125">
        <ele>878.5999755859375</ele>
        <time>2019-07-07T09:10:02.000Z</time>
      </trkpt>
      <trkpt lat="40.3246124647557735443115234375" lon="-1.0972130857408046722412109375">
        <ele>877.20001220703125</ele>
        <time>2019-07-07T09:10:04.000Z</time>
      </trkpt>
      <trkpt lat="40.3246661089360713958740234375" lon="-1.097810380160808563232421875">
        <ele>875.20001220703125</ele>
        <time>2019-07-07T09:10:06.000Z</time>
      </trkpt>
      <trkpt lat="40.32471145503222942352294921875" lon="-1.09810919500887393951416015625">
        <ele>873.79998779296875</ele>
        <time>2019-07-07T09:10:07.000Z</time>
      </trkpt>
      <trkpt lat="40.324833579361438751220703125" lon="-1.09869995154440402984619140625">
        <ele>872.4000244140625</ele>
        <time>2019-07-07T09:10:09.000Z</time>
      </trkpt>
      <trkpt lat="40.32499945722520351409912109375" lon="-1.099278889596462249755859375">
        <ele>872.20001220703125</ele>
        <time>2019-07-07T09:10:11.000Z</time>
      </trkpt>
      <trkpt lat="40.325195677578449249267578125" lon="-1.09984994865953922271728515625">
        <ele>868</ele>
        <time>2019-07-07T09:10:13.000Z</time>
      </trkpt>
      <trkpt lat="40.32529332675039768218994140625" lon="-1.100137867033481597900390625">
        <ele>862.4000244140625</ele>
        <time>2019-07-07T09:10:14.000Z</time>
      </trkpt>
      <trkpt lat="40.32538376748561859130859375" lon="-1.10042980872094631195068359375">
        <ele>855.20001220703125</ele>
        <time>2019-07-07T09:10:15.000Z</time>
      </trkpt>
      <trkpt lat="40.325462557375431060791015625" lon="-1.10072669573128223419189453125">
        <ele>851.5999755859375</ele>
        <time>2019-07-07T09:10:16.000Z</time>
      </trkpt>
      <trkpt lat="40.3255277685821056365966796875" lon="-1.1010328866541385650634765625">
        <ele>849.20001220703125</ele>
        <time>2019-07-07T09:10:17.000Z</time>
      </trkpt>
      <trkpt lat="40.3255827538669109344482421875" lon="-1.10134343616664409637451171875">
        <ele>847.79998779296875</ele>
        <time>2019-07-07T09:10:18.000Z</time>
      </trkpt>
      <trkpt lat="40.3256271779537200927734375" lon="-1.10165993683040142059326171875">
        <ele>846</ele>
        <time>2019-07-07T09:10:19.000Z</time>
      </trkpt>
      <trkpt lat="40.32566162757575511932373046875" lon="-1.10198062844574451446533203125">
        <ele>845</ele>
        <time>2019-07-07T09:10:20.000Z</time>
      </trkpt>
      <trkpt lat="40.32568627037107944488525390625" lon="-1.10230500809848308563232421875">
        <ele>843.79998779296875</ele>
        <time>2019-07-07T09:10:21.000Z</time>
      </trkpt>
      <trkpt lat="40.32569901086390018463134765625" lon="-1.102628968656063079833984375">
        <ele>842.4000244140625</ele>
        <time>2019-07-07T09:10:22.000Z</time>
      </trkpt>
      <trkpt lat="40.3256843425333499908447265625" lon="-1.1032621376216411590576171875">
        <ele>841.4000244140625</ele>
        <time>2019-07-07T09:10:24.000Z</time>
      </trkpt>
      <trkpt lat="40.325631536543369293212890625" lon="-1.10389530658721923828125">
        <ele>840.5999755859375</ele>
        <time>2019-07-07T09:10:26.000Z</time>
      </trkpt>
      <trkpt lat="40.32559591345489025115966796875" lon="-1.10420979559421539306640625">
        <ele>840.20001220703125</ele>
        <time>2019-07-07T09:10:27.000Z</time>
      </trkpt>
      <trkpt lat="40.32552667893469333648681640625" lon="-1.1048345826566219329833984375">
        <ele>838.5999755859375</ele>
        <time>2019-07-07T09:10:29.000Z</time>
      </trkpt>
      <trkpt lat="40.325497090816497802734375" lon="-1.1054576933383941650390625">
        <ele>837.4000244140625</ele>
        <time>2019-07-07T09:10:31.000Z</time>
      </trkpt>
      <trkpt lat="40.325531624257564544677734375" lon="-1.10609262250363826751708984375">
        <ele>837</ele>
        <time>2019-07-07T09:10:33.000Z</time>
      </trkpt>
      <trkpt lat="40.3255770541727542877197265625" lon="-1.1064066924154758453369140625">
        <ele>836.5999755859375</ele>
        <time>2019-07-07T09:10:34.000Z</time>
      </trkpt>
      <trkpt lat="40.325643606483936309814453125" lon="-1.10671338625252246856689453125">
        <ele>836</ele>
        <time>2019-07-07T09:10:35.000Z</time>
      </trkpt>
      <trkpt lat="40.32582457177340984344482421875" lon="-1.10730531625449657440185546875">
        <ele>833.79998779296875</ele>
        <time>2019-07-07T09:10:37.000Z</time>
      </trkpt>
      <trkpt lat="40.325942672789096832275390625" lon="-1.107588373124599456787109375">
        <ele>832</ele>
        <time>2019-07-07T09:10:38.000Z</time>
      </trkpt>
      <trkpt lat="40.3260751068592071533203125" lon="-1.10785919241607189178466796875">
        <ele>830</ele>
        <time>2019-07-07T09:10:39.000Z</time>
      </trkpt>
      <trkpt lat="40.32621198333799839019775390625" lon="-1.10812640748918056488037109375">
        <ele>828.79998779296875</ele>
        <time>2019-07-07T09:10:40.000Z</time>
      </trkpt>
      <trkpt lat="40.326344333589076995849609375" lon="-1.10839915461838245391845703125">
        <ele>827.5999755859375</ele>
        <time>2019-07-07T09:10:41.000Z</time>
      </trkpt>
      <trkpt lat="40.326463021337985992431640625" lon="-1.10868078656494617462158203125">
        <ele>826.20001220703125</ele>
        <time>2019-07-07T09:10:42.000Z</time>
      </trkpt>
      <trkpt lat="40.32656419090926647186279296875" lon="-1.10896644182503223419189453125">
        <ele>824.4000244140625</ele>
        <time>2019-07-07T09:10:43.000Z</time>
      </trkpt>
      <trkpt lat="40.32664708793163299560546875" lon="-1.109249331057071685791015625">
        <ele>823.20001220703125</ele>
        <time>2019-07-07T09:10:44.000Z</time>
      </trkpt>
      <trkpt lat="40.3267081081867218017578125" lon="-1.10952970571815967559814453125">
        <ele>822.20001220703125</ele>
        <time>2019-07-07T09:10:45.000Z</time>
      </trkpt>
      <trkpt lat="40.326763428747653961181640625" lon="-1.11036621965467929840087890625">
        <ele>822</ele>
        <time>2019-07-07T09:10:48.000Z</time>
      </trkpt>
      <trkpt lat="40.32673367299139499664306640625" lon="-1.11090886406600475311279296875">
        <ele>821</ele>
        <time>2019-07-07T09:10:50.000Z</time>
      </trkpt>
      <trkpt lat="40.32670601271092891693115234375" lon="-1.111164428293704986572265625">
        <ele>820</ele>
        <time>2019-07-07T09:10:51.000Z</time>
      </trkpt>
      <trkpt lat="40.32665119506418704986572265625" lon="-1.11164831556379795074462890625">
        <ele>818.4000244140625</ele>
        <time>2019-07-07T09:10:53.000Z</time>
      </trkpt>
      <trkpt lat="40.32662269659340381622314453125" lon="-1.11209951341152191162109375">
        <ele>817.4000244140625</ele>
        <time>2019-07-07T09:10:55.000Z</time>
      </trkpt>
      <trkpt lat="40.32666477374732494354248046875" lon="-1.11276629380881786346435546875">
        <ele>816.5999755859375</ele>
        <time>2019-07-07T09:10:58.000Z</time>
      </trkpt>
      <trkpt lat="40.32670416869223117828369140625" lon="-1.11298003233969211578369140625">
        <ele>816.20001220703125</ele>
        <time>2019-07-07T09:10:59.000Z</time>
      </trkpt>
      <trkpt lat="40.32688370905816555023193359375" lon="-1.113634407520294189453125">
        <ele>815</ele>
        <time>2019-07-07T09:11:02.000Z</time>
      </trkpt>
      <trkpt lat="40.3271494992077350616455078125" lon="-1.11430621705949306488037109375">
        <ele>813.5999755859375</ele>
        <time>2019-07-07T09:11:05.000Z</time>
      </trkpt>
      <trkpt lat="40.3273711167275905609130859375" lon="-1.1147590912878513336181640625">
        <ele>812.4000244140625</ele>
        <time>2019-07-07T09:11:07.000Z</time>
      </trkpt>
      <trkpt lat="40.32763606868684291839599609375" lon="-1.1152264662086963653564453125">
        <ele>811.4000244140625</ele>
        <time>2019-07-07T09:11:09.000Z</time>
      </trkpt>
      <trkpt lat="40.3279420919716358184814453125" lon="-1.11569141037762165069580078125">
        <ele>809.4000244140625</ele>
        <time>2019-07-07T09:11:11.000Z</time>
      </trkpt>
      <trkpt lat="40.32827326096594333648681640625" lon="-1.1161343939602375030517578125">
        <ele>807.4000244140625</ele>
        <time>2019-07-07T09:11:13.000Z</time>
      </trkpt>
      <trkpt lat="40.3284450061619281768798828125" lon="-1.116340421140193939208984375">
        <ele>806</ele>
        <time>2019-07-07T09:11:14.000Z</time>
      </trkpt>
      <trkpt lat="40.32895621843636035919189453125" lon="-1.116875521838665008544921875">
        <ele>805.20001220703125</ele>
        <time>2019-07-07T09:11:17.000Z</time>
      </trkpt>
      <trkpt lat="40.3292937576770782470703125" lon="-1.1171722412109375">
        <ele>807.20001220703125</ele>
        <time>2019-07-07T09:11:19.000Z</time>
      </trkpt>
      <trkpt lat="40.32946282066404819488525390625" lon="-1.11729897558689117431640625">
        <ele>808.4000244140625</ele>
        <time>2019-07-07T09:11:20.000Z</time>
      </trkpt>
      <trkpt lat="40.32963238656520843505859375" lon="-1.1174117960035800933837890625">
        <ele>809.79998779296875</ele>
        <time>2019-07-07T09:11:21.000Z</time>
      </trkpt>
      <trkpt lat="40.32980463467538356781005859375" lon="-1.1175127141177654266357421875">
        <ele>811</ele>
        <time>2019-07-07T09:11:22.000Z</time>
      </trkpt>
      <trkpt lat="40.3299775533378124237060546875" lon="-1.1176015622913837432861328125">
        <ele>812.20001220703125</ele>
        <time>2019-07-07T09:11:23.000Z</time>
      </trkpt>
      <trkpt lat="40.33050670288503170013427734375" lon="-1.1178044043481349945068359375">
        <ele>813.20001220703125</ele>
        <time>2019-07-07T09:11:26.000Z</time>
      </trkpt>
      <trkpt lat="40.3306913562119007110595703125" lon="-1.1178481578826904296875">
        <ele>814.4000244140625</ele>
        <time>2019-07-07T09:11:27.000Z</time>
      </trkpt>
      <trkpt lat="40.331272222101688385009765625" lon="-1.1179227568209171295166015625">
        <ele>813.5999755859375</ele>
        <time>2019-07-07T09:11:30.000Z</time>
      </trkpt>
      <trkpt lat="40.3314725495874881744384765625" lon="-1.11792535521090030670166015625">
        <ele>812</ele>
        <time>2019-07-07T09:11:31.000Z</time>
      </trkpt>
      <trkpt lat="40.3318740427494049072265625" lon="-1.11789903603494167327880859375">
        <ele>811</ele>
        <time>2019-07-07T09:11:33.000Z</time>
      </trkpt>
      <trkpt lat="40.332273356616497039794921875" lon="-1.11781303770840167999267578125">
        <ele>809.79998779296875</ele>
        <time>2019-07-07T09:11:35.000Z</time>
      </trkpt>
      <trkpt lat="40.33286117948591709136962890625" lon="-1.11756945960223674774169921875">
        <ele>811.5999755859375</ele>
        <time>2019-07-07T09:11:38.000Z</time>
      </trkpt>
      <trkpt lat="40.33323249779641628265380859375" lon="-1.11734800972044467926025390625">
        <ele>813.5999755859375</ele>
        <time>2019-07-07T09:11:40.000Z</time>
      </trkpt>
      <trkpt lat="40.33340516500174999237060546875" lon="-1.1172263883054256439208984375">
        <ele>815.4000244140625</ele>
        <time>2019-07-07T09:11:41.000Z</time>
      </trkpt>
      <trkpt lat="40.3335663489997386932373046875" lon="-1.1171016655862331390380859375">
        <ele>816.5999755859375</ele>
        <time>2019-07-07T09:11:42.000Z</time>
      </trkpt>
      <trkpt lat="40.33400044776499271392822265625" lon="-1.11666790209710597991943359375">
        <ele>816.4000244140625</ele>
        <time>2019-07-07T09:11:45.000Z</time>
      </trkpt>
      <trkpt lat="40.3344021923840045928955078125" lon="-1.11614889465272426605224609375">
        <ele>818.20001220703125</ele>
        <time>2019-07-07T09:11:48.000Z</time>
      </trkpt>
      <trkpt lat="40.334529764950275421142578125" lon="-1.11595611087977886199951171875">
        <ele>819.4000244140625</ele>
        <time>2019-07-07T09:11:49.000Z</time>
      </trkpt>
      <trkpt lat="40.334654487669467926025390625" lon="-1.115755029022693634033203125">
        <ele>820.79998779296875</ele>
        <time>2019-07-07T09:11:50.000Z</time>
      </trkpt>
      <trkpt lat="40.33489949069917201995849609375" lon="-1.1153357662260532379150390625">
        <ele>822.4000244140625</ele>
        <time>2019-07-07T09:11:52.000Z</time>
      </trkpt>
      <trkpt lat="40.33527432940900325775146484375" lon="-1.114677451550960540771484375">
        <ele>823</ele>
        <time>2019-07-07T09:11:55.000Z</time>
      </trkpt>
      <trkpt lat="40.33567867241799831390380859375" lon="-1.1140161193907260894775390625">
        <ele>821.20001220703125</ele>
        <time>2019-07-07T09:11:58.000Z</time>
      </trkpt>
      <trkpt lat="40.33582116477191448211669921875" lon="-1.113794334232807159423828125">
        <ele>819.5999755859375</ele>
        <time>2019-07-07T09:11:59.000Z</time>
      </trkpt>
      <trkpt lat="40.33596717752516269683837890625" lon="-1.1135789193212985992431640625">
        <ele>818.4000244140625</ele>
        <time>2019-07-07T09:12:00.000Z</time>
      </trkpt>
      <trkpt lat="40.3361146152019500732421875" lon="-1.11337012611329555511474609375">
        <ele>817.4000244140625</ele>
        <time>2019-07-07T09:12:01.000Z</time>
      </trkpt>
      <trkpt lat="40.33661141060292720794677734375" lon="-1.11281172372400760650634765625">
        <ele>817</ele>
        <time>2019-07-07T09:12:04.000Z</time>
      </trkpt>
      <trkpt lat="40.33718121238052845001220703125" lon="-1.11237133853137493133544921875">
        <ele>818.4000244140625</ele>
        <time>2019-07-07T09:12:07.000Z</time>
      </trkpt>
      <trkpt lat="40.3377868048846721649169921875" lon="-1.11207671463489532470703125">
        <ele>819.20001220703125</ele>
        <time>2019-07-07T09:12:10.000Z</time>
      </trkpt>
      <trkpt lat="40.3381693549454212188720703125" lon="-1.1119486391544342041015625">
        <ele>816.4000244140625</ele>
        <time>2019-07-07T09:12:12.000Z</time>
      </trkpt>
      <trkpt lat="40.33835685811936855316162109375" lon="-1.111912094056606292724609375">
        <ele>815</ele>
        <time>2019-07-07T09:12:13.000Z</time>
      </trkpt>
      <trkpt lat="40.33873219974339008331298828125" lon="-1.11189507879316806793212890625">
        <ele>813.79998779296875</ele>
        <time>2019-07-07T09:12:15.000Z</time>
      </trkpt>
      <trkpt lat="40.33910670317709445953369140625" lon="-1.11192810349166393280029296875">
        <ele>815</ele>
        <time>2019-07-07T09:12:17.000Z</time>
      </trkpt>
      <trkpt lat="40.33963836729526519775390625" lon="-1.112068332731723785400390625">
        <ele>815.79998779296875</ele>
        <time>2019-07-07T09:12:20.000Z</time>
      </trkpt>
      <trkpt lat="40.33996819518506526947021484375" lon="-1.11222566105425357818603515625">
        <ele>816</ele>
        <time>2019-07-07T09:12:22.000Z</time>
      </trkpt>
      <trkpt lat="40.34044562838971614837646484375" lon="-1.1125509627163410186767578125">
        <ele>816.79998779296875</ele>
        <time>2019-07-07T09:12:25.000Z</time>
      </trkpt>
      <trkpt lat="40.3406034596264362335205078125" lon="-1.112689264118671417236328125">
        <ele>817.5999755859375</ele>
        <time>2019-07-07T09:12:26.000Z</time>
      </trkpt>
      <trkpt lat="40.340920127928256988525390625" lon="-1.11301305703818798065185546875">
        <ele>818.5999755859375</ele>
        <time>2019-07-07T09:12:28.000Z</time>
      </trkpt>
      <trkpt lat="40.341078378260135650634765625" lon="-1.11318991519510746002197265625">
        <ele>818.5999755859375</ele>
        <time>2019-07-07T09:12:29.000Z</time>
      </trkpt>
      <trkpt lat="40.34140083007514476776123046875" lon="-1.11355670727789402008056640625">
        <ele>819.79998779296875</ele>
        <time>2019-07-07T09:12:31.000Z</time>
      </trkpt>
      <trkpt lat="40.34190726466476917266845703125" lon="-1.114065237343311309814453125">
        <ele>821</ele>
        <time>2019-07-07T09:12:34.000Z</time>
      </trkpt>
      <trkpt lat="40.3424689359962940216064453125" lon="-1.1144667305052280426025390625">
        <ele>821.79998779296875</ele>
        <time>2019-07-07T09:12:37.000Z</time>
      </trkpt>
      <trkpt lat="40.3428357280790805816650390625" lon="-1.11468776129186153411865234375">
        <ele>822</ele>
        <time>2019-07-07T09:12:39.000Z</time>
      </trkpt>
      <trkpt lat="40.34332464449107646942138671875" lon="-1.1149714887142181396484375">
        <ele>821.5999755859375</ele>
        <time>2019-07-07T09:12:42.000Z</time>
      </trkpt>
      <trkpt lat="40.3437711484730243682861328125" lon="-1.11528002656996250152587890625">
        <ele>822</ele>
        <time>2019-07-07T09:12:45.000Z</time>
      </trkpt>
      <trkpt lat="40.3442043252289295196533203125" lon="-1.1156925000250339508056640625">
        <ele>822.79998779296875</ele>
        <time>2019-07-07T09:12:48.000Z</time>
      </trkpt>
      <trkpt lat="40.34434773959219455718994140625" lon="-1.1158520914614200592041015625">
        <ele>823</ele>
        <time>2019-07-07T09:12:49.000Z</time>
      </trkpt>
      <trkpt lat="40.34475275315344333648681640625" lon="-1.1164193786680698394775390625">
        <ele>822.4000244140625</ele>
        <time>2019-07-07T09:12:52.000Z</time>
      </trkpt>
      <trkpt lat="40.345096997916698455810546875" lon="-1.1170798726379871368408203125">
        <ele>822.5999755859375</ele>
        <time>2019-07-07T09:12:55.000Z</time>
      </trkpt>
      <trkpt lat="40.345287434756755828857421875" lon="-1.11755512654781341552734375">
        <ele>822</ele>
        <time>2019-07-07T09:12:57.000Z</time>
      </trkpt>
      <trkpt lat="40.34544392488896846771240234375" lon="-1.11806072294712066650390625">
        <ele>820.5999755859375</ele>
        <time>2019-07-07T09:12:59.000Z</time>
      </trkpt>
      <trkpt lat="40.34556278027594089508056640625" lon="-1.11859045922756195068359375">
        <ele>819.5999755859375</ele>
        <time>2019-07-07T09:13:01.000Z</time>
      </trkpt>
      <trkpt lat="40.34569119103252887725830078125" lon="-1.11941146664321422576904296875">
        <ele>819.79998779296875</ele>
        <time>2019-07-07T09:13:04.000Z</time>
      </trkpt>
      <trkpt lat="40.3457693941891193389892578125" lon="-1.11996232531964778900146484375">
        <ele>820.5999755859375</ele>
        <time>2019-07-07T09:13:06.000Z</time>
      </trkpt>
      <trkpt lat="40.34590534865856170654296875" lon="-1.12077201716601848602294921875">
        <ele>820.4000244140625</ele>
        <time>2019-07-07T09:13:09.000Z</time>
      </trkpt>
      <trkpt lat="40.34609578549861907958984375" lon="-1.12155891023576259613037109375">
        <ele>820.79998779296875</ele>
        <time>2019-07-07T09:13:12.000Z</time>
      </trkpt>
      <trkpt lat="40.3462572209537029266357421875" lon="-1.1220717988908290863037109375">
        <ele>821.79998779296875</ele>
        <time>2019-07-07T09:13:14.000Z</time>
      </trkpt>
      <trkpt lat="40.34656408242881298065185546875" lon="-1.122810579836368560791015625">
        <ele>823</ele>
        <time>2019-07-07T09:13:17.000Z</time>
      </trkpt>
      <trkpt lat="40.34692349843680858612060546875" lon="-1.12348121590912342071533203125">
        <ele>824</ele>
        <time>2019-07-07T09:13:20.000Z</time>
      </trkpt>
      <trkpt lat="40.34704972989857196807861328125" lon="-1.12368791364133358001708984375">
        <ele>824</ele>
        <time>2019-07-07T09:13:21.000Z</time>
      </trkpt>
      <trkpt lat="40.34743328578770160675048828125" lon="-1.1242303065955638885498046875">
        <ele>824.79998779296875</ele>
        <time>2019-07-07T09:13:24.000Z</time>
      </trkpt>
      <trkpt lat="40.347807370126247406005859375" lon="-1.12466356717050075531005859375">
        <ele>824</ele>
        <time>2019-07-07T09:13:27.000Z</time>
      </trkpt>
      <trkpt lat="40.348215065896511077880859375" lon="-1.125020049512386322021484375">
        <ele>823.5999755859375</ele>
        <time>2019-07-07T09:13:30.000Z</time>
      </trkpt>
      <trkpt lat="40.3486400283873081207275390625" lon="-1.12535239197313785552978515625">
        <ele>824.79998779296875</ele>
        <time>2019-07-07T09:13:33.000Z</time>
      </trkpt>
      <trkpt lat="40.34906758926808834075927734375" lon="-1.12565363757312297821044921875">
        <ele>824.5999755859375</ele>
        <time>2019-07-07T09:13:36.000Z</time>
      </trkpt>
      <trkpt lat="40.34919750876724720001220703125" lon="-1.12573829479515552520751953125">
        <ele>825.20001220703125</ele>
        <time>2019-07-07T09:13:37.000Z</time>
      </trkpt>
      <trkpt lat="40.34943069331347942352294921875" lon="-1.12588179297745227813720703125">
        <ele>827</ele>
        <time>2019-07-07T09:13:39.000Z</time>
      </trkpt>
      <trkpt lat="40.349644012749195098876953125" lon="-1.12601053901016712188720703125">
        <ele>828.4000244140625</ele>
        <time>2019-07-07T09:13:41.000Z</time>
      </trkpt>
      <trkpt lat="40.34974887035787105560302734375" lon="-1.12607206217944622039794921875">
        <ele>829.4000244140625</ele>
        <time>2019-07-07T09:13:42.000Z</time>
      </trkpt>
      <trkpt lat="40.349959172308444976806640625" lon="-1.12619611434638500213623046875">
        <ele>831.20001220703125</ele>
        <time>2019-07-07T09:13:44.000Z</time>
      </trkpt>
      <trkpt lat="40.35006570629775524139404296875" lon="-1.1262640915811061859130859375">
        <ele>832.4000244140625</ele>
        <time>2019-07-07T09:13:45.000Z</time>
      </trkpt>
      <trkpt lat="40.35017400048673152923583984375" lon="-1.12633533775806427001953125">
        <ele>833.5999755859375</ele>
        <time>2019-07-07T09:13:46.000Z</time>
      </trkpt>
      <trkpt lat="40.350524447858333587646484375" lon="-1.12656600773334503173828125">
        <ele>834.79998779296875</ele>
        <time>2019-07-07T09:13:49.000Z</time>
      </trkpt>
      <trkpt lat="40.35088243894279003143310546875" lon="-1.12683691084384918212890625">
        <ele>836.4000244140625</ele>
        <time>2019-07-07T09:13:52.000Z</time>
      </trkpt>
      <trkpt lat="40.3511287830770015716552734375" lon="-1.127038411796092987060546875">
        <ele>838.20001220703125</ele>
        <time>2019-07-07T09:13:54.000Z</time>
      </trkpt>
      <trkpt lat="40.35145391710102558135986328125" lon="-1.1273507215082645416259765625">
        <ele>839.4000244140625</ele>
        <time>2019-07-07T09:13:57.000Z</time>
      </trkpt>
      <trkpt lat="40.35187670029699802398681640625" lon="-1.12780678085982799530029296875">
        <ele>840.79998779296875</ele>
        <time>2019-07-07T09:14:02.000Z</time>
      </trkpt>
      <trkpt lat="40.3520350344479084014892578125" lon="-1.12799554131925106048583984375">
        <ele>842</ele>
        <time>2019-07-07T09:14:04.000Z</time>
      </trkpt>
      <trkpt lat="40.352177359163761138916015625" lon="-1.128181032836437225341796875">
        <ele>843.5999755859375</ele>
        <time>2019-07-07T09:14:06.000Z</time>
      </trkpt>
      <trkpt lat="40.352310799062252044677734375" lon="-1.12835965119302272796630859375">
        <ele>844.79998779296875</ele>
        <time>2019-07-07T09:14:08.000Z</time>
      </trkpt>
      <trkpt lat="40.35252244211733341217041015625" lon="-1.128610856831073760986328125">
        <ele>846.20001220703125</ele>
        <time>2019-07-07T09:14:11.000Z</time>
      </trkpt>
      <trkpt lat="40.35275612957775592803955078125" lon="-1.12882518209517002105712890625">
        <ele>847.4000244140625</ele>
        <time>2019-07-07T09:14:14.000Z</time>
      </trkpt>
      <trkpt lat="40.35313968546688556671142578125" lon="-1.12924695946276187896728515625">
        <ele>848.4000244140625</ele>
        <time>2019-07-07T09:14:19.000Z</time>
      </trkpt>
      <trkpt lat="40.3533556871116161346435546875" lon="-1.12984777428209781646728515625">
        <ele>847.5999755859375</ele>
        <time>2019-07-07T09:14:24.000Z</time>
      </trkpt>
      <trkpt lat="40.353420563042163848876953125" lon="-1.1301234550774097442626953125">
        <ele>846.20001220703125</ele>
        <time>2019-07-07T09:14:26.000Z</time>
      </trkpt>
      <trkpt lat="40.35348904319107532501220703125" lon="-1.1306199990212917327880859375">
        <ele>845.5999755859375</ele>
        <time>2019-07-07T09:14:29.000Z</time>
      </trkpt>
      <trkpt lat="40.35349139012396335601806640625" lon="-1.1312426067888736724853515625">
        <ele>846.79998779296875</ele>
        <time>2019-07-07T09:14:33.000Z</time>
      </trkpt>
      <trkpt lat="40.35342089831829071044921875" lon="-1.1315339617431163787841796875">
        <ele>847.4000244140625</ele>
        <time>2019-07-07T09:14:35.000Z</time>
      </trkpt>
      <trkpt lat="40.3533831797540187835693359375" lon="-1.13177980296313762664794921875">
        <ele>848.5999755859375</ele>
        <time>2019-07-07T09:14:38.000Z</time>
      </trkpt>
      <trkpt lat="40.35337287001311779022216796875" lon="-1.1318393982946872711181640625">
        <ele>849.79998779296875</ele>
        <time>2019-07-07T09:14:40.000Z</time>
      </trkpt>
      <trkpt lat="40.3533665835857391357421875" lon="-1.131863035261631011962890625">
        <ele>850.79998779296875</ele>
        <time>2019-07-07T09:14:43.000Z</time>
      </trkpt>
      <trkpt lat="40.35337253473699092864990234375" lon="-1.1319741792976856231689453125">
        <ele>851.4000244140625</ele>
        <time>2019-07-07T09:14:48.000Z</time>
      </trkpt>
      <trkpt lat="40.3533808328211307525634765625" lon="-1.13208222202956676483154296875">
        <ele>851.79998779296875</ele>
        <time>2019-07-07T09:14:59.000Z</time>
      </trkpt>
      <trkpt lat="40.35339298658072948455810546875" lon="-1.13213351927697658538818359375">
        <ele>852</ele>
        <time>2019-07-07T09:15:01.000Z</time>
      </trkpt>
      <trkpt lat="40.353415869176387786865234375" lon="-1.1322615109384059906005859375">
        <ele>852.5999755859375</ele>
        <time>2019-07-07T09:15:21.000Z</time>
      </trkpt>
      <trkpt lat="40.353429615497589111328125" lon="-1.1323201842606067657470703125">
        <ele>853</ele>
        <time>2019-07-07T09:15:24.000Z</time>
      </trkpt>
      <trkpt lat="40.35348367877304553985595703125" lon="-1.13246343098580837249755859375">
        <ele>853.20001220703125</ele>
        <time>2019-07-07T09:15:35.000Z</time>
      </trkpt>
      <trkpt lat="40.35359549336135387420654296875" lon="-1.1326923407614231109619140625">
        <ele>853.4000244140625</ele>
        <time>2019-07-07T09:15:48.000Z</time>
      </trkpt>
      <trkpt lat="40.3536899574100971221923828125" lon="-1.1329503357410430908203125">
        <ele>853</ele>
        <time>2019-07-07T09:16:27.000Z</time>
      </trkpt>
      <trkpt lat="40.353819541633129119873046875" lon="-1.13334051333367824554443359375">
        <ele>852</ele>
        <time>2019-07-07T09:16:31.000Z</time>
      </trkpt>
      <trkpt lat="40.35389288328588008880615234375" lon="-1.13369322381913661956787109375">
        <ele>851.20001220703125</ele>
        <time>2019-07-07T09:16:34.000Z</time>
      </trkpt>
      <trkpt lat="40.35392808727920055389404296875" lon="-1.1342976428568363189697265625">
        <ele>851</ele>
        <time>2019-07-07T09:16:39.000Z</time>
      </trkpt>
      <trkpt lat="40.353983156383037567138671875" lon="-1.13457919098436832427978515625">
        <ele>851.4000244140625</ele>
        <time>2019-07-07T09:16:42.000Z</time>
      </trkpt>
      <trkpt lat="40.3539585135877132415771484375" lon="-1.13478790037333965301513671875">
        <ele>852.5999755859375</ele>
        <time>2019-07-07T09:16:44.000Z</time>
      </trkpt>
      <trkpt lat="40.35386069677770137786865234375" lon="-1.135054863989353179931640625">
        <ele>853</ele>
        <time>2019-07-07T09:16:46.000Z</time>
      </trkpt>
      <trkpt lat="40.3536265902221202850341796875" lon="-1.13555668853223323822021484375">
        <ele>852.79998779296875</ele>
        <time>2019-07-07T09:16:49.000Z</time>
      </trkpt>
      <trkpt lat="40.35353262908756732940673828125" lon="-1.1359787173569202423095703125">
        <ele>852.5999755859375</ele>
        <time>2019-07-07T09:16:51.000Z</time>
      </trkpt>
      <trkpt lat="40.35350270569324493408203125" lon="-1.13641533069312572479248046875">
        <ele>851.4000244140625</ele>
        <time>2019-07-07T09:16:53.000Z</time>
      </trkpt>
      <trkpt lat="40.3534847684204578399658203125" lon="-1.13680223934352397918701171875">
        <ele>850</ele>
        <time>2019-07-07T09:16:55.000Z</time>
      </trkpt>
      <trkpt lat="40.3534612990915775299072265625" lon="-1.1374854482710361480712890625">
        <ele>851.79998779296875</ele>
        <time>2019-07-07T09:16:59.000Z</time>
      </trkpt>
      <trkpt lat="40.35346272401511669158935546875" lon="-1.13766976632177829742431640625">
        <ele>853.5999755859375</ele>
        <time>2019-07-07T09:17:00.000Z</time>
      </trkpt>
      <trkpt lat="40.353468172252178192138671875" lon="-1.13786053843796253204345703125">
        <ele>854.79998779296875</ele>
        <time>2019-07-07T09:17:01.000Z</time>
      </trkpt>
      <trkpt lat="40.3535323776304721832275390625" lon="-1.13863536156713962554931640625">
        <ele>855.20001220703125</ele>
        <time>2019-07-07T09:17:05.000Z</time>
      </trkpt>
      <trkpt lat="40.3536212258040904998779296875" lon="-1.13936458714306354522705078125">
        <ele>854.20001220703125</ele>
        <time>2019-07-07T09:17:09.000Z</time>
      </trkpt>
      <trkpt lat="40.35371418111026287078857421875" lon="-1.1399503983557224273681640625">
        <ele>854.5999755859375</ele>
        <time>2019-07-07T09:17:12.000Z</time>
      </trkpt>
      <trkpt lat="40.35382859408855438232421875" lon="-1.140582561492919921875">
        <ele>854.5999755859375</ele>
        <time>2019-07-07T09:17:15.000Z</time>
      </trkpt>
      <trkpt lat="40.35396136343479156494140625" lon="-1.14125780761241912841796875">
        <ele>854</ele>
        <time>2019-07-07T09:17:18.000Z</time>
      </trkpt>
      <trkpt lat="40.35400754772126674652099609375" lon="-1.14149576984345912933349609375">
        <ele>852.5999755859375</ele>
        <time>2019-07-07T09:17:19.000Z</time>
      </trkpt>
      <trkpt lat="40.35409756936132907867431640625" lon="-1.14197487942874431610107421875">
        <ele>850.20001220703125</ele>
        <time>2019-07-07T09:17:21.000Z</time>
      </trkpt>
      <trkpt lat="40.35418331623077392578125" lon="-1.1424693278968334197998046875">
        <ele>849.20001220703125</ele>
        <time>2019-07-07T09:17:23.000Z</time>
      </trkpt>
      <trkpt lat="40.35422648303210735321044921875" lon="-1.14272288046777248382568359375">
        <ele>850.4000244140625</ele>
        <time>2019-07-07T09:17:24.000Z</time>
      </trkpt>
      <trkpt lat="40.3543102182447910308837890625" lon="-1.14324959926307201385498046875">
        <ele>852.5999755859375</ele>
        <time>2019-07-07T09:17:26.000Z</time>
      </trkpt>
      <trkpt lat="40.35442647524178028106689453125" lon="-1.14408217370510101318359375">
        <ele>854.5999755859375</ele>
        <time>2019-07-07T09:17:29.000Z</time>
      </trkpt>
      <trkpt lat="40.35453242249786853790283203125" lon="-1.144892871379852294921875">
        <ele>856</ele>
        <time>2019-07-07T09:17:32.000Z</time>
      </trkpt>
      <trkpt lat="40.35456527955830097198486328125" lon="-1.1451525427401065826416015625">
        <ele>857.20001220703125</ele>
        <time>2019-07-07T09:17:33.000Z</time>
      </trkpt>
      <trkpt lat="40.354657061398029327392578125" lon="-1.1459330655634403228759765625">
        <ele>858</ele>
        <time>2019-07-07T09:17:36.000Z</time>
      </trkpt>
      <trkpt lat="40.3547474183142185211181640625" lon="-1.146710403263568878173828125">
        <ele>858</ele>
        <time>2019-07-07T09:17:39.000Z</time>
      </trkpt>
      <trkpt lat="40.354842133820056915283203125" lon="-1.14749654196202754974365234375">
        <ele>857</ele>
        <time>2019-07-07T09:17:42.000Z</time>
      </trkpt>
      <trkpt lat="40.35493458621203899383544921875" lon="-1.1482910625636577606201171875">
        <ele>857</ele>
        <time>2019-07-07T09:17:45.000Z</time>
      </trkpt>
      <trkpt lat="40.3550268709659576416015625" lon="-1.1491155065596103668212890625">
        <ele>857.4000244140625</ele>
        <time>2019-07-07T09:17:48.000Z</time>
      </trkpt>
      <trkpt lat="40.35505562089383602142333984375" lon="-1.14939789287745952606201171875">
        <ele>859</ele>
        <time>2019-07-07T09:17:49.000Z</time>
      </trkpt>
      <trkpt lat="40.35508747212588787078857421875" lon="-1.1496824584901332855224609375">
        <ele>860</ele>
        <time>2019-07-07T09:17:50.000Z</time>
      </trkpt>
      <trkpt lat="40.3551930002868175506591796875" lon="-1.150543279945850372314453125">
        <ele>861</ele>
        <time>2019-07-07T09:17:53.000Z</time>
      </trkpt>
      <trkpt lat="40.3553165495395660400390625" lon="-1.15139261819422245025634765625">
        <ele>860.20001220703125</ele>
        <time>2019-07-07T09:17:56.000Z</time>
      </trkpt>
      <trkpt lat="40.35543615929782390594482421875" lon="-1.15219124592840671539306640625">
        <ele>859.4000244140625</ele>
        <time>2019-07-07T09:17:59.000Z</time>
      </trkpt>
      <trkpt lat="40.3555606305599212646484375" lon="-1.1530010215938091278076171875">
        <ele>860.4000244140625</ele>
        <time>2019-07-07T09:18:02.000Z</time>
      </trkpt>
      <trkpt lat="40.355646796524524688720703125" lon="-1.15354911424219608306884765625">
        <ele>861.5999755859375</ele>
        <time>2019-07-07T09:18:04.000Z</time>
      </trkpt>
      <trkpt lat="40.355737321078777313232421875" lon="-1.15409527905285358428955078125">
        <ele>860.5999755859375</ele>
        <time>2019-07-07T09:18:06.000Z</time>
      </trkpt>
      <trkpt lat="40.3558612056076526641845703125" lon="-1.15487429313361644744873046875">
        <ele>860</ele>
        <time>2019-07-07T09:18:09.000Z</time>
      </trkpt>
      <trkpt lat="40.3559911251068115234375" lon="-1.1556165106594562530517578125">
        <ele>859.79998779296875</ele>
        <time>2019-07-07T09:18:12.000Z</time>
      </trkpt>
      <trkpt lat="40.356167815625667572021484375" lon="-1.1563836224377155303955078125">
        <ele>860</ele>
        <time>2019-07-07T09:18:15.000Z</time>
      </trkpt>
      <trkpt lat="40.35640778951346874237060546875" lon="-1.15720613859593868255615234375">
        <ele>861</ele>
        <time>2019-07-07T09:18:18.000Z</time>
      </trkpt>
      <trkpt lat="40.35658498294651508331298828125" lon="-1.1577669717371463775634765625">
        <ele>861.79998779296875</ele>
        <time>2019-07-07T09:18:20.000Z</time>
      </trkpt>
      <trkpt lat="40.35676334984600543975830078125" lon="-1.15833149291574954986572265625">
        <ele>860.79998779296875</ele>
        <time>2019-07-07T09:18:22.000Z</time>
      </trkpt>
      <trkpt lat="40.35693048499524593353271484375" lon="-1.158900372684001922607421875">
        <ele>859.20001220703125</ele>
        <time>2019-07-07T09:18:24.000Z</time>
      </trkpt>
      <trkpt lat="40.3570749051868915557861328125" lon="-1.1594731919467449188232421875">
        <ele>858.79998779296875</ele>
        <time>2019-07-07T09:18:26.000Z</time>
      </trkpt>
      <trkpt lat="40.35714221186935901641845703125" lon="-1.15976035594940185546875">
        <ele>857.79998779296875</ele>
        <time>2019-07-07T09:18:27.000Z</time>
      </trkpt>
      <trkpt lat="40.35721027292311191558837890625" lon="-1.16004793904721736907958984375">
        <ele>858.79998779296875</ele>
        <time>2019-07-07T09:18:28.000Z</time>
      </trkpt>
      <trkpt lat="40.3572797589004039764404296875" lon="-1.16033493541181087493896484375">
        <ele>860.4000244140625</ele>
        <time>2019-07-07T09:18:29.000Z</time>
      </trkpt>
      <trkpt lat="40.35741764120757579803466796875" lon="-1.16090239025652408599853515625">
        <ele>861</ele>
        <time>2019-07-07T09:18:31.000Z</time>
      </trkpt>
      <trkpt lat="40.3575503267347812652587890625" lon="-1.1614499799907207489013671875">
        <ele>861.5999755859375</ele>
        <time>2019-07-07T09:18:33.000Z</time>
      </trkpt>
      <trkpt lat="40.35761478357017040252685546875" lon="-1.161719374358654022216796875">
        <ele>863.20001220703125</ele>
        <time>2019-07-07T09:18:34.000Z</time>
      </trkpt>
      <trkpt lat="40.35775006748735904693603515625" lon="-1.1622600071132183074951171875">
        <ele>865.5999755859375</ele>
        <time>2019-07-07T09:18:36.000Z</time>
      </trkpt>
      <trkpt lat="40.3578202240169048309326171875" lon="-1.16253417916595935821533203125">
        <ele>867</ele>
        <time>2019-07-07T09:18:37.000Z</time>
      </trkpt>
      <trkpt lat="40.35789658315479755401611328125" lon="-1.162810362875461578369140625">
        <ele>868.79998779296875</ele>
        <time>2019-07-07T09:18:38.000Z</time>
      </trkpt>
      <trkpt lat="40.358076877892017364501953125" lon="-1.16336516104638576507568359375">
        <ele>870.20001220703125</ele>
        <time>2019-07-07T09:18:40.000Z</time>
      </trkpt>
      <trkpt lat="40.3582852520048618316650390625" lon="-1.16392641328275203704833984375">
        <ele>870.20001220703125</ele>
        <time>2019-07-07T09:18:42.000Z</time>
      </trkpt>
      <trkpt lat="40.35848968662321567535400390625" lon="-1.16449135355651378631591796875">
        <ele>868.4000244140625</ele>
        <time>2019-07-07T09:18:44.000Z</time>
      </trkpt>
      <trkpt lat="40.35865346901118755340576171875" lon="-1.16504388861358165740966796875">
        <ele>867.5999755859375</ele>
        <time>2019-07-07T09:18:46.000Z</time>
      </trkpt>
      <trkpt lat="40.3588669560849666595458984375" lon="-1.16587554104626178741455078125">
        <ele>867.5999755859375</ele>
        <time>2019-07-07T09:18:49.000Z</time>
      </trkpt>
      <trkpt lat="40.3590537048876285552978515625" lon="-1.16672462783753871917724609375">
        <ele>867.5999755859375</ele>
        <time>2019-07-07T09:18:52.000Z</time>
      </trkpt>
      <trkpt lat="40.35917230881750583648681640625" lon="-1.16754119284451007843017578125">
        <ele>868.5999755859375</ele>
        <time>2019-07-07T09:18:55.000Z</time>
      </trkpt>
      <trkpt lat="40.3592474944889545440673828125" lon="-1.16828911006450653076171875">
        <ele>869</ele>
        <time>2019-07-07T09:18:58.000Z</time>
      </trkpt>
      <trkpt lat="40.35926870070397853851318359375" lon="-1.16853059269487857818603515625">
        <ele>870</ele>
        <time>2019-07-07T09:18:59.000Z</time>
      </trkpt>
      <trkpt lat="40.35929066129028797149658203125" lon="-1.16877048276364803314208984375">
        <ele>871.20001220703125</ele>
        <time>2019-07-07T09:19:00.000Z</time>
      </trkpt>
      <trkpt lat="40.3593557886779308319091796875" lon="-1.16949283517897129058837890625">
        <ele>871.5999755859375</ele>
        <time>2019-07-07T09:19:03.000Z</time>
      </trkpt>
      <trkpt lat="40.35937749780714511871337890625" lon="-1.16973959840834140777587890625">
        <ele>872.20001220703125</ele>
        <time>2019-07-07T09:19:04.000Z</time>
      </trkpt>
      <trkpt lat="40.3594255261123180389404296875" lon="-1.17048860527575016021728515625">
        <ele>870.79998779296875</ele>
        <time>2019-07-07T09:19:07.000Z</time>
      </trkpt>
      <trkpt lat="40.35941521637141704559326171875" lon="-1.170732267200946807861328125">
        <ele>869.20001220703125</ele>
        <time>2019-07-07T09:19:08.000Z</time>
      </trkpt>
      <trkpt lat="40.35938403569161891937255859375" lon="-1.17097123526036739349365234375">
        <ele>868.20001220703125</ele>
        <time>2019-07-07T09:19:09.000Z</time>
      </trkpt>
      <trkpt lat="40.35933382809162139892578125" lon="-1.17120559327304363250732421875">
        <ele>867.4000244140625</ele>
        <time>2019-07-07T09:19:10.000Z</time>
      </trkpt>
      <trkpt lat="40.3592659346759319305419921875" lon="-1.17143358103930950164794921875">
        <ele>867</ele>
        <time>2019-07-07T09:19:11.000Z</time>
      </trkpt>
      <trkpt lat="40.3591807745397090911865234375" lon="-1.171652264893054962158203125">
        <ele>866.79998779296875</ele>
        <time>2019-07-07T09:19:12.000Z</time>
      </trkpt>
      <trkpt lat="40.35896879620850086212158203125" lon="-1.17203942500054836273193359375">
        <ele>865.5999755859375</ele>
        <time>2019-07-07T09:19:14.000Z</time>
      </trkpt>
      <trkpt lat="40.35861767828464508056640625" lon="-1.17255507968366146087646484375">
        <ele>865.5999755859375</ele>
        <time>2019-07-07T09:19:17.000Z</time>
      </trkpt>
      <trkpt lat="40.35842849873006343841552734375" lon="-1.172922290861606597900390625">
        <ele>864.79998779296875</ele>
        <time>2019-07-07T09:19:19.000Z</time>
      </trkpt>
      <trkpt lat="40.35836228169500827789306640625" lon="-1.1731179244816303253173828125">
        <ele>864.4000244140625</ele>
        <time>2019-07-07T09:19:20.000Z</time>
      </trkpt>
      <trkpt lat="40.35831785760819911956787109375" lon="-1.17332093417644500732421875">
        <ele>864.20001220703125</ele>
        <time>2019-07-07T09:19:21.000Z</time>
      </trkpt>
      <trkpt lat="40.358294807374477386474609375" lon="-1.1739447154104709625244140625">
        <ele>862.5999755859375</ele>
        <time>2019-07-07T09:19:24.000Z</time>
      </trkpt>
      <trkpt lat="40.35835591144859790802001953125" lon="-1.17434679530560970306396484375">
        <ele>861.5999755859375</ele>
        <time>2019-07-07T09:19:26.000Z</time>
      </trkpt>
      <trkpt lat="40.35845004022121429443359375" lon="-1.1749027669429779052734375">
        <ele>860.4000244140625</ele>
        <time>2019-07-07T09:19:29.000Z</time>
      </trkpt>
      <trkpt lat="40.3584579192101955413818359375" lon="-1.17508180439472198486328125">
        <ele>859.5999755859375</ele>
        <time>2019-07-07T09:19:30.000Z</time>
      </trkpt>
      <trkpt lat="40.3584468550980091094970703125" lon="-1.1752568185329437255859375">
        <ele>858.5999755859375</ele>
        <time>2019-07-07T09:19:31.000Z</time>
      </trkpt>
      <trkpt lat="40.3583935461938381195068359375" lon="-1.1755979619920253753662109375">
        <ele>857.20001220703125</ele>
        <time>2019-07-07T09:19:33.000Z</time>
      </trkpt>
      <trkpt lat="40.35833093337714672088623046875" lon="-1.175925023853778839111328125">
        <ele>856.20001220703125</ele>
        <time>2019-07-07T09:19:35.000Z</time>
      </trkpt>
      <trkpt lat="40.3581917099654674530029296875" lon="-1.1765377409756183624267578125">
        <ele>855.4000244140625</ele>
        <time>2019-07-07T09:19:39.000Z</time>
      </trkpt>
      <trkpt lat="40.3580884449183940887451171875" lon="-1.1771388910710811614990234375">
        <ele>856.20001220703125</ele>
        <time>2019-07-07T09:19:44.000Z</time>
      </trkpt>
      <trkpt lat="40.3580817393958568572998046875" lon="-1.1775703914463520050048828125">
        <ele>857.4000244140625</ele>
        <time>2019-07-07T09:19:48.000Z</time>
      </trkpt>
      <trkpt lat="40.3581668995320796966552734375" lon="-1.17816508747637271881103515625">
        <ele>857.5999755859375</ele>
        <time>2019-07-07T09:19:53.000Z</time>
      </trkpt>
      <trkpt lat="40.3581890277564525604248046875" lon="-1.17880865000188350677490234375">
        <ele>858</ele>
        <time>2019-07-07T09:19:58.000Z</time>
      </trkpt>
      <trkpt lat="40.3581930510699748992919921875" lon="-1.17925657890737056732177734375">
        <ele>858</ele>
        <time>2019-07-07T09:20:02.000Z</time>
      </trkpt>
      <trkpt lat="40.3580894507467746734619140625" lon="-1.1797299049794673919677734375">
        <ele>858.5999755859375</ele>
        <time>2019-07-07T09:20:06.000Z</time>
      </trkpt>
      <trkpt lat="40.35793103277683258056640625" lon="-1.18028663098812103271484375">
        <ele>859</ele>
        <time>2019-07-07T09:20:10.000Z</time>
      </trkpt>
      <trkpt lat="40.3577813319861888885498046875" lon="-1.1807464621961116790771484375">
        <ele>858.79998779296875</ele>
        <time>2019-07-07T09:20:13.000Z</time>
      </trkpt>
      <trkpt lat="40.35748452879488468170166015625" lon="-1.18135557509958744049072265625">
        <ele>858.79998779296875</ele>
        <time>2019-07-07T09:20:17.000Z</time>
      </trkpt>
      <trkpt lat="40.3573364205658435821533203125" lon="-1.18169881403446197509765625">
        <ele>858.79998779296875</ele>
        <time>2019-07-07T09:20:19.000Z</time>
      </trkpt>
      <trkpt lat="40.35717322491109371185302734375" lon="-1.18220834992825984954833984375">
        <ele>858</ele>
        <time>2019-07-07T09:20:22.000Z</time>
      </trkpt>
      <trkpt lat="40.3570447303354740142822265625" lon="-1.18248159997165203094482421875">
        <ele>857.4000244140625</ele>
        <time>2019-07-07T09:20:24.000Z</time>
      </trkpt>
      <trkpt lat="40.35691053606569766998291015625" lon="-1.18309800513088703155517578125">
        <ele>857.79998779296875</ele>
        <time>2019-07-07T09:20:29.000Z</time>
      </trkpt>
      <trkpt lat="40.35686057992279529571533203125" lon="-1.1834826506674289703369140625">
        <ele>858.20001220703125</ele>
        <time>2019-07-07T09:20:35.000Z</time>
      </trkpt>
      <trkpt lat="40.35685605369508266448974609375" lon="-1.1834839917719364166259765625">
        <ele>858.5999755859375</ele>
        <time>2019-07-07T09:20:38.000Z</time>
      </trkpt>
      <trkpt lat="40.356831662356853485107421875" lon="-1.18350134231150150299072265625">
        <ele>858</ele>
        <time>2019-07-07T09:21:20.000Z</time>
      </trkpt>
      <trkpt lat="40.3567141480743885040283203125" lon="-1.1835557408630847930908203125">
        <ele>858</ele>
        <time>2019-07-07T09:21:22.000Z</time>
      </trkpt>
      <trkpt lat="40.3565408103168010711669921875" lon="-1.18354559876024723052978515625">
        <ele>858</ele>
        <time>2019-07-07T09:21:24.000Z</time>
      </trkpt>
      <trkpt lat="40.35611920058727264404296875" lon="-1.18344535119831562042236328125">
        <ele>858.20001220703125</ele>
        <time>2019-07-07T09:21:28.000Z</time>
      </trkpt>
      <trkpt lat="40.3559145145118236541748046875" lon="-1.18351475335657596588134765625">
        <ele>858.5999755859375</ele>
        <time>2019-07-07T09:21:30.000Z</time>
      </trkpt>
      <trkpt lat="40.355817116796970367431640625" lon="-1.18374793790280818939208984375">
        <ele>859.5999755859375</ele>
        <time>2019-07-07T09:21:32.000Z</time>
      </trkpt>
      <trkpt lat="40.35580730997025966644287109375" lon="-1.18391775526106357574462890625">
        <ele>860.4000244140625</ele>
        <time>2019-07-07T09:21:33.000Z</time>
      </trkpt>
      <trkpt lat="40.35581401549279689788818359375" lon="-1.18410986848175525665283203125">
        <ele>861.4000244140625</ele>
        <time>2019-07-07T09:21:34.000Z</time>
      </trkpt>
      <trkpt lat="40.3558337129652500152587890625" lon="-1.184531562030315399169921875">
        <ele>863.4000244140625</ele>
        <time>2019-07-07T09:21:36.000Z</time>
      </trkpt>
      <trkpt lat="40.35583748482167720794677734375" lon="-1.1847516708076000213623046875">
        <ele>864.5999755859375</ele>
        <time>2019-07-07T09:21:37.000Z</time>
      </trkpt>
      <trkpt lat="40.35584134049713611602783203125" lon="-1.18497974239289760589599609375">
        <ele>865.79998779296875</ele>
        <time>2019-07-07T09:21:38.000Z</time>
      </trkpt>
      <trkpt lat="40.35583865828812122344970703125" lon="-1.18521728552877902984619140625">
        <ele>867.20001220703125</ele>
        <time>2019-07-07T09:21:39.000Z</time>
      </trkpt>
      <trkpt lat="40.3558156080543994903564453125" lon="-1.185448877513408660888671875">
        <ele>868.79998779296875</ele>
        <time>2019-07-07T09:21:40.000Z</time>
      </trkpt>
      <trkpt lat="40.35576523281633853912353515625" lon="-1.18564593605697154998779296875">
        <ele>870.5999755859375</ele>
        <time>2019-07-07T09:21:41.000Z</time>
      </trkpt>
      <trkpt lat="40.35568778403103351593017578125" lon="-1.18579714559018611907958984375">
        <ele>872.20001220703125</ele>
        <time>2019-07-07T09:21:42.000Z</time>
      </trkpt>
      <trkpt lat="40.35558552481234073638916015625" lon="-1.18591315113008022308349609375">
        <ele>873.79998779296875</ele>
        <time>2019-07-07T09:21:43.000Z</time>
      </trkpt>
      <trkpt lat="40.35544990561902523040771484375" lon="-1.1860005743801593780517578125">
        <ele>875</ele>
        <time>2019-07-07T09:21:44.000Z</time>
      </trkpt>
      <trkpt lat="40.3551762364804744720458984375" lon="-1.18622663430869579315185546875">
        <ele>876.5999755859375</ele>
        <time>2019-07-07T09:21:46.000Z</time>
      </trkpt>
      <trkpt lat="40.35507556982338428497314453125" lon="-1.1864052526652812957763671875">
        <ele>877.79998779296875</ele>
        <time>2019-07-07T09:21:47.000Z</time>
      </trkpt>
      <trkpt lat="40.35500013269484043121337890625" lon="-1.18661505170166492462158203125">
        <ele>879.20001220703125</ele>
        <time>2019-07-07T09:21:48.000Z</time>
      </trkpt>
      <trkpt lat="40.3549425490200519561767578125" lon="-1.1868434585630893707275390625">
        <ele>880.4000244140625</ele>
        <time>2019-07-07T09:21:49.000Z</time>
      </trkpt>
      <trkpt lat="40.35483450628817081451416015625" lon="-1.18731175549328327178955078125">
        <ele>881.5999755859375</ele>
        <time>2019-07-07T09:21:51.000Z</time>
      </trkpt>
      <trkpt lat="40.354753620922565460205078125" lon="-1.18753002025187015533447265625">
        <ele>882.20001220703125</ele>
        <time>2019-07-07T09:21:52.000Z</time>
      </trkpt>
      <trkpt lat="40.354636609554290771484375" lon="-1.18771593086421489715576171875">
        <ele>882.79998779296875</ele>
        <time>2019-07-07T09:21:53.000Z</time>
      </trkpt>
      <trkpt lat="40.3544869087636470794677734375" lon="-1.18786613456904888153076171875">
        <ele>883.79998779296875</ele>
        <time>2019-07-07T09:21:54.000Z</time>
      </trkpt>
      <trkpt lat="40.3543169237673282623291015625" lon="-1.18798783980309963226318359375">
        <ele>885.20001220703125</ele>
        <time>2019-07-07T09:21:55.000Z</time>
      </trkpt>
      <trkpt lat="40.35413495264947414398193359375" lon="-1.1880987323820590972900390625">
        <ele>886.5999755859375</ele>
        <time>2019-07-07T09:21:56.000Z</time>
      </trkpt>
      <trkpt lat="40.353774614632129669189453125" lon="-1.1883434839546680450439453125">
        <ele>888.4000244140625</ele>
        <time>2019-07-07T09:21:58.000Z</time>
      </trkpt>
      <trkpt lat="40.3536058031022548675537109375" lon="-1.18849217891693115234375">
        <ele>889.5999755859375</ele>
        <time>2019-07-07T09:21:59.000Z</time>
      </trkpt>
      <trkpt lat="40.3534411825239658355712890625" lon="-1.1886571347713470458984375">
        <ele>890.79998779296875</ele>
        <time>2019-07-07T09:22:00.000Z</time>
      </trkpt>
      <trkpt lat="40.35327631048858165740966796875" lon="-1.1888269521296024322509765625">
        <ele>892</ele>
        <time>2019-07-07T09:22:01.000Z</time>
      </trkpt>
      <trkpt lat="40.35311252810060977935791015625" lon="-1.18899685330688953399658203125">
        <ele>893</ele>
        <time>2019-07-07T09:22:02.000Z</time>
      </trkpt>
      <trkpt lat="40.35294354893267154693603515625" lon="-1.18914655409753322601318359375">
        <ele>894</ele>
        <time>2019-07-07T09:22:03.000Z</time>
      </trkpt>
      <trkpt lat="40.35276819951832294464111328125" lon="-1.1892658285796642303466796875">
        <ele>895.20001220703125</ele>
        <time>2019-07-07T09:22:04.000Z</time>
      </trkpt>
      <trkpt lat="40.35260776989161968231201171875" lon="-1.18939700536429882049560546875">
        <ele>896.4000244140625</ele>
        <time>2019-07-07T09:22:05.000Z</time>
      </trkpt>
      <trkpt lat="40.3524692170321941375732421875" lon="-1.1895541660487651824951171875">
        <ele>898</ele>
        <time>2019-07-07T09:22:06.000Z</time>
      </trkpt>
      <trkpt lat="40.352349020540714263916015625" lon="-1.1897365562617778778076171875">
        <ele>899.5999755859375</ele>
        <time>2019-07-07T09:22:07.000Z</time>
      </trkpt>
      <trkpt lat="40.352241061627864837646484375" lon="-1.18993227370083332061767578125">
        <ele>901.4000244140625</ele>
        <time>2019-07-07T09:22:08.000Z</time>
      </trkpt>
      <trkpt lat="40.35214307717978954315185546875" lon="-1.19013712741434574127197265625">
        <ele>903.20001220703125</ele>
        <time>2019-07-07T09:22:09.000Z</time>
      </trkpt>
      <trkpt lat="40.35203746519982814788818359375" lon="-1.19033150374889373779296875">
        <ele>904.20001220703125</ele>
        <time>2019-07-07T09:22:10.000Z</time>
      </trkpt>
      <trkpt lat="40.35181651823222637176513671875" lon="-1.19071698747575283050537109375">
        <ele>905.5999755859375</ele>
        <time>2019-07-07T09:22:12.000Z</time>
      </trkpt>
      <trkpt lat="40.351488031446933746337890625" lon="-1.19130791164934635162353515625">
        <ele>907.20001220703125</ele>
        <time>2019-07-07T09:22:15.000Z</time>
      </trkpt>
      <trkpt lat="40.35123213194310665130615234375" lon="-1.19167118333280086517333984375">
        <ele>908.4000244140625</ele>
        <time>2019-07-07T09:22:17.000Z</time>
      </trkpt>
      <trkpt lat="40.350798033177852630615234375" lon="-1.19217015802860260009765625">
        <ele>909.5999755859375</ele>
        <time>2019-07-07T09:22:20.000Z</time>
      </trkpt>
      <trkpt lat="40.35034038126468658447265625" lon="-1.1926423944532871246337890625">
        <ele>909.79998779296875</ele>
        <time>2019-07-07T09:22:23.000Z</time>
      </trkpt>
      <trkpt lat="40.35002698190510272979736328125" lon="-1.19295311160385608673095703125">
        <ele>910.20001220703125</ele>
        <time>2019-07-07T09:22:25.000Z</time>
      </trkpt>
      <trkpt lat="40.34972540102899074554443359375" lon="-1.19331034831702709197998046875">
        <ele>911</ele>
        <time>2019-07-07T09:22:27.000Z</time>
      </trkpt>
      <trkpt lat="40.349440164864063262939453125" lon="-1.19377671740949153900146484375">
        <ele>912.4000244140625</ele>
        <time>2019-07-07T09:22:29.000Z</time>
      </trkpt>
      <trkpt lat="40.349141098558902740478515625" lon="-1.19429019279778003692626953125">
        <ele>914</ele>
        <time>2019-07-07T09:22:31.000Z</time>
      </trkpt>
      <trkpt lat="40.348821915686130523681640625" lon="-1.19477248750627040863037109375">
        <ele>915.4000244140625</ele>
        <time>2019-07-07T09:22:33.000Z</time>
      </trkpt>
      <trkpt lat="40.34865134395658969879150390625" lon="-1.19500081054866313934326171875">
        <ele>916.79998779296875</ele>
        <time>2019-07-07T09:22:34.000Z</time>
      </trkpt>
      <trkpt lat="40.3484733961522579193115234375" lon="-1.1952236853539943695068359375">
        <ele>918.5999755859375</ele>
        <time>2019-07-07T09:22:35.000Z</time>
      </trkpt>
      <trkpt lat="40.34829209558665752410888671875" lon="-1.19544253684580326080322265625">
        <ele>921</ele>
        <time>2019-07-07T09:22:36.000Z</time>
      </trkpt>
      <trkpt lat="40.34811154939234256744384765625" lon="-1.19566105306148529052734375">
        <ele>922.20001220703125</ele>
        <time>2019-07-07T09:22:37.000Z</time>
      </trkpt>
      <trkpt lat="40.34777040593326091766357421875" lon="-1.19611577130854129791259765625">
        <ele>923.4000244140625</ele>
        <time>2019-07-07T09:22:39.000Z</time>
      </trkpt>
      <trkpt lat="40.34745792858302593231201171875" lon="-1.1965929530560970306396484375">
        <ele>924.5999755859375</ele>
        <time>2019-07-07T09:22:41.000Z</time>
      </trkpt>
      <trkpt lat="40.34717462025582790374755859375" lon="-1.19709058664739131927490234375">
        <ele>925</ele>
        <time>2019-07-07T09:22:43.000Z</time>
      </trkpt>
      <trkpt lat="40.3469271026551723480224609375" lon="-1.19761428795754909515380859375">
        <ele>926.20001220703125</ele>
        <time>2019-07-07T09:22:45.000Z</time>
      </trkpt>
      <trkpt lat="40.34679894335567951202392578125" lon="-1.197872869670391082763671875">
        <ele>927.20001220703125</ele>
        <time>2019-07-07T09:22:46.000Z</time>
      </trkpt>
      <trkpt lat="40.34651177935302257537841796875" lon="-1.19836899451911449432373046875">
        <ele>929.20001220703125</ele>
        <time>2019-07-07T09:22:48.000Z</time>
      </trkpt>
      <trkpt lat="40.346175245940685272216796875" lon="-1.1988201923668384552001953125">
        <ele>930.79998779296875</ele>
        <time>2019-07-07T09:22:50.000Z</time>
      </trkpt>
      <trkpt lat="40.34583452157676219940185546875" lon="-1.19922663085162639617919921875">
        <ele>931.4000244140625</ele>
        <time>2019-07-07T09:22:52.000Z</time>
      </trkpt>
      <trkpt lat="40.3453382290899753570556640625" lon="-1.19977866299450397491455078125">
        <ele>931</ele>
        <time>2019-07-07T09:22:55.000Z</time>
      </trkpt>
      <trkpt lat="40.34516782499849796295166015625" lon="-1.19994965381920337677001953125">
        <ele>932</ele>
        <time>2019-07-07T09:22:56.000Z</time>
      </trkpt>
      <trkpt lat="40.34498459659516811370849609375" lon="-1.20010639540851116180419921875">
        <ele>932.5999755859375</ele>
        <time>2019-07-07T09:22:57.000Z</time>
      </trkpt>
      <trkpt lat="40.34478678368031978607177734375" lon="-1.2002451159060001373291015625">
        <ele>933.79998779296875</ele>
        <time>2019-07-07T09:22:58.000Z</time>
      </trkpt>
      <trkpt lat="40.34458100795745849609375" lon="-1.20037662796676158905029296875">
        <ele>935.4000244140625</ele>
        <time>2019-07-07T09:22:59.000Z</time>
      </trkpt>
      <trkpt lat="40.3441650979220867156982421875" lon="-1.20065188966691493988037109375">
        <ele>937</ele>
        <time>2019-07-07T09:23:01.000Z</time>
      </trkpt>
      <trkpt lat="40.34395563416182994842529296875" lon="-1.2007973156869411468505859375">
        <ele>938.4000244140625</ele>
        <time>2019-07-07T09:23:02.000Z</time>
      </trkpt>
      <trkpt lat="40.343751870095729827880859375" lon="-1.2009599246084690093994140625">
        <ele>939.79998779296875</ele>
        <time>2019-07-07T09:23:03.000Z</time>
      </trkpt>
      <trkpt lat="40.3433513827621936798095703125" lon="-1.2013099528849124908447265625">
        <ele>941.20001220703125</ele>
        <time>2019-07-07T09:23:05.000Z</time>
      </trkpt>
      <trkpt lat="40.34297679550945758819580078125" lon="-1.2016579695045948028564453125">
        <ele>941.5999755859375</ele>
        <time>2019-07-07T09:23:07.000Z</time>
      </trkpt>
      <trkpt lat="40.3424789942800998687744140625" lon="-1.202165074646472930908203125">
        <ele>941.79998779296875</ele>
        <time>2019-07-07T09:23:10.000Z</time>
      </trkpt>
      <trkpt lat="40.34230221994221210479736328125" lon="-1.20231829583644866943359375">
        <ele>942.5999755859375</ele>
        <time>2019-07-07T09:23:11.000Z</time>
      </trkpt>
      <trkpt lat="40.34210591576993465423583984375" lon="-1.20245031081140041351318359375">
        <ele>943.4000244140625</ele>
        <time>2019-07-07T09:23:12.000Z</time>
      </trkpt>
      <trkpt lat="40.341895781457424163818359375" lon="-1.20255701243877410888671875">
        <ele>944.79998779296875</ele>
        <time>2019-07-07T09:23:13.000Z</time>
      </trkpt>
      <trkpt lat="40.341663099825382232666015625" lon="-1.20263085700571537017822265625">
        <ele>945.5999755859375</ele>
        <time>2019-07-07T09:23:14.000Z</time>
      </trkpt>
      <trkpt lat="40.3414222039282321929931640625" lon="-1.20267678983509540557861328125">
        <ele>946.4000244140625</ele>
        <time>2019-07-07T09:23:15.000Z</time>
      </trkpt>
      <trkpt lat="40.34093865193426609039306640625" lon="-1.20271936990320682525634765625">
        <ele>948.4000244140625</ele>
        <time>2019-07-07T09:23:17.000Z</time>
      </trkpt>
      <trkpt lat="40.3404559381306171417236328125" lon="-1.202723979949951171875">
        <ele>949.5999755859375</ele>
        <time>2019-07-07T09:23:19.000Z</time>
      </trkpt>
      <trkpt lat="40.34022032283246517181396484375" lon="-1.20272037573158740997314453125">
        <ele>950.79998779296875</ele>
        <time>2019-07-07T09:23:20.000Z</time>
      </trkpt>
      <trkpt lat="40.33999644219875335693359375" lon="-1.202710568904876708984375">
        <ele>952.20001220703125</ele>
        <time>2019-07-07T09:23:21.000Z</time>
      </trkpt>
      <trkpt lat="40.33978379331529140472412109375" lon="-1.20269824750721454620361328125">
        <ele>953.5999755859375</ele>
        <time>2019-07-07T09:23:22.000Z</time>
      </trkpt>
      <trkpt lat="40.33936268649995326995849609375" lon="-1.20269858278334140777587890625">
        <ele>956.20001220703125</ele>
        <time>2019-07-07T09:23:24.000Z</time>
      </trkpt>
      <trkpt lat="40.33915129490196704864501953125" lon="-1.20271652005612850189208984375">
        <ele>958.5999755859375</ele>
        <time>2019-07-07T09:23:25.000Z</time>
      </trkpt>
      <trkpt lat="40.338940322399139404296875" lon="-1.20275147259235382080078125">
        <ele>960.79998779296875</ele>
        <time>2019-07-07T09:23:26.000Z</time>
      </trkpt>
      <trkpt lat="40.3387356363236904144287109375" lon="-1.20281727053225040435791015625">
        <ele>962.4000244140625</ele>
        <time>2019-07-07T09:23:27.000Z</time>
      </trkpt>
      <trkpt lat="40.3385418467223644256591796875" lon="-1.20291885919868946075439453125">
        <ele>964</ele>
        <time>2019-07-07T09:23:28.000Z</time>
      </trkpt>
      <trkpt lat="40.3383561037480831146240234375" lon="-1.20304978452622890472412109375">
        <ele>966</ele>
        <time>2019-07-07T09:23:29.000Z</time>
      </trkpt>
      <trkpt lat="40.33817379735410213470458984375" lon="-1.20319780893623828887939453125">
        <ele>967.79998779296875</ele>
        <time>2019-07-07T09:23:30.000Z</time>
      </trkpt>
      <trkpt lat="40.3379916585981845855712890625" lon="-1.2033554725348949432373046875">
        <ele>969</ele>
        <time>2019-07-07T09:23:31.000Z</time>
      </trkpt>
      <trkpt lat="40.3378096036612987518310546875" lon="-1.20351531542837619781494140625">
        <ele>970.20001220703125</ele>
        <time>2019-07-07T09:23:32.000Z</time>
      </trkpt>
      <trkpt lat="40.33743283711373805999755859375" lon="-1.20378487743437290191650390625">
        <ele>971.4000244140625</ele>
        <time>2019-07-07T09:23:34.000Z</time>
      </trkpt>
      <trkpt lat="40.33702648244798183441162109375" lon="-1.20395553298294544219970703125">
        <ele>972.79998779296875</ele>
        <time>2019-07-07T09:23:36.000Z</time>
      </trkpt>
      <trkpt lat="40.33659850247204303741455078125" lon="-1.20401739142835140228271484375">
        <ele>974.20001220703125</ele>
        <time>2019-07-07T09:23:38.000Z</time>
      </trkpt>
      <trkpt lat="40.33615560270845890045166015625" lon="-1.20396542362868785858154296875">
        <ele>976</ele>
        <time>2019-07-07T09:23:40.000Z</time>
      </trkpt>
      <trkpt lat="40.33592677675187587738037109375" lon="-1.20391563512384891510009765625">
        <ele>978</ele>
        <time>2019-07-07T09:23:41.000Z</time>
      </trkpt>
      <trkpt lat="40.3356943465769290924072265625" lon="-1.2038587220013141632080078125">
        <ele>979.79998779296875</ele>
        <time>2019-07-07T09:23:42.000Z</time>
      </trkpt>
      <trkpt lat="40.335459820926189422607421875" lon="-1.20379661209881305694580078125">
        <ele>981.4000244140625</ele>
        <time>2019-07-07T09:23:43.000Z</time>
      </trkpt>
      <trkpt lat="40.335229821503162384033203125" lon="-1.20373181998729705810546875">
        <ele>982.79998779296875</ele>
        <time>2019-07-07T09:23:44.000Z</time>
      </trkpt>
      <trkpt lat="40.3350095450878143310546875" lon="-1.20366551913321018218994140625">
        <ele>984.4000244140625</ele>
        <time>2019-07-07T09:23:45.000Z</time>
      </trkpt>
      <trkpt lat="40.334792621433734893798828125" lon="-1.20360114611685276031494140625">
        <ele>986.4000244140625</ele>
        <time>2019-07-07T09:23:46.000Z</time>
      </trkpt>
      <trkpt lat="40.33457175828516483306884765625" lon="-1.2035422213375568389892578125">
        <ele>988</ele>
        <time>2019-07-07T09:23:47.000Z</time>
      </trkpt>
      <trkpt lat="40.33434427343308925628662109375" lon="-1.2034972943365573883056640625">
        <ele>989.4000244140625</ele>
        <time>2019-07-07T09:23:48.000Z</time>
      </trkpt>
      <trkpt lat="40.33411108888685703277587890625" lon="-1.20347491465508937835693359375">
        <ele>990.79998779296875</ele>
        <time>2019-07-07T09:23:49.000Z</time>
      </trkpt>
      <trkpt lat="40.333646647632122039794921875" lon="-1.2034815363585948944091796875">
        <ele>992.5999755859375</ele>
        <time>2019-07-07T09:23:51.000Z</time>
      </trkpt>
      <trkpt lat="40.33341639675199985504150390625" lon="-1.2034790217876434326171875">
        <ele>994</ele>
        <time>2019-07-07T09:23:52.000Z</time>
      </trkpt>
      <trkpt lat="40.33319125883281230926513671875" lon="-1.20345278643071651458740234375">
        <ele>994.5999755859375</ele>
        <time>2019-07-07T09:23:53.000Z</time>
      </trkpt>
      <trkpt lat="40.332978777587413787841796875" lon="-1.20340668596327304840087890625">
        <ele>995.5999755859375</ele>
        <time>2019-07-07T09:23:54.000Z</time>
      </trkpt>
      <trkpt lat="40.33256412483751773834228515625" lon="-1.203319765627384185791015625">
        <ele>997.79998779296875</ele>
        <time>2019-07-07T09:23:56.000Z</time>
      </trkpt>
      <trkpt lat="40.3323487937450408935546875" lon="-1.203303001821041107177734375">
        <ele>999.20001220703125</ele>
        <time>2019-07-07T09:23:57.000Z</time>
      </trkpt>
      <trkpt lat="40.33212709240615367889404296875" lon="-1.20330895297229290008544921875">
        <ele>1000.79998779296875</ele>
        <time>2019-07-07T09:23:58.000Z</time>
      </trkpt>
      <trkpt lat="40.33190128393471240997314453125" lon="-1.2033395469188690185546875">
        <ele>1002.4000244140625</ele>
        <time>2019-07-07T09:23:59.000Z</time>
      </trkpt>
      <trkpt lat="40.33167178742587566375732421875" lon="-1.2033957056701183319091796875">
        <ele>1004</ele>
        <time>2019-07-07T09:24:00.000Z</time>
      </trkpt>
      <trkpt lat="40.33143885433673858642578125" lon="-1.2034741602838039398193359375">
        <ele>1006</ele>
        <time>2019-07-07T09:24:01.000Z</time>
      </trkpt>
      <trkpt lat="40.33120977692306041717529296875" lon="-1.20357222855091094970703125">
        <ele>1008</ele>
        <time>2019-07-07T09:24:02.000Z</time>
      </trkpt>
      <trkpt lat="40.3309862315654754638671875" lon="-1.203676499426364898681640625">
        <ele>1009.5999755859375</ele>
        <time>2019-07-07T09:24:03.000Z</time>
      </trkpt>
      <trkpt lat="40.3307636082172393798828125" lon="-1.20378144085407257080078125">
        <ele>1011</ele>
        <time>2019-07-07T09:24:04.000Z</time>
      </trkpt>
      <trkpt lat="40.33053704537451267242431640625" lon="-1.20387808419764041900634765625">
        <ele>1012.79998779296875</ele>
        <time>2019-07-07T09:24:05.000Z</time>
      </trkpt>
      <trkpt lat="40.33030486665666103363037109375" lon="-1.2039609812200069427490234375">
        <ele>1014.5999755859375</ele>
        <time>2019-07-07T09:24:06.000Z</time>
      </trkpt>
      <trkpt lat="40.33006690442562103271484375" lon="-1.20402795262634754180908203125">
        <ele>1017</ele>
        <time>2019-07-07T09:24:07.000Z</time>
      </trkpt>
      <trkpt lat="40.3298266790807247161865234375" lon="-1.20408587157726287841796875">
        <ele>1018.4000244140625</ele>
        <time>2019-07-07T09:24:08.000Z</time>
      </trkpt>
      <trkpt lat="40.32935704104602336883544921875" lon="-1.204196847975254058837890625">
        <ele>1020.20001220703125</ele>
        <time>2019-07-07T09:24:10.000Z</time>
      </trkpt>
      <trkpt lat="40.32890659756958484649658203125" lon="-1.2043032981455326080322265625">
        <ele>1021.20001220703125</ele>
        <time>2019-07-07T09:24:12.000Z</time>
      </trkpt>
      <trkpt lat="40.32868959009647369384765625" lon="-1.20436188764870166778564453125">
        <ele>1021.20001220703125</ele>
        <time>2019-07-07T09:24:13.000Z</time>
      </trkpt>
      <trkpt lat="40.328256748616695404052734375" lon="-1.20447973720729351043701171875">
        <ele>1022.5999755859375</ele>
        <time>2019-07-07T09:24:15.000Z</time>
      </trkpt>
      <trkpt lat="40.32803555019199848175048828125" lon="-1.20453690178692340850830078125">
        <ele>1024.4000244140625</ele>
        <time>2019-07-07T09:24:16.000Z</time>
      </trkpt>
      <trkpt lat="40.32759130932390689849853515625" lon="-1.20467771776020526885986328125">
        <ele>1025</ele>
        <time>2019-07-07T09:24:18.000Z</time>
      </trkpt>
      <trkpt lat="40.32716332934796810150146484375" lon="-1.20487938635051250457763671875">
        <ele>1025.199951171875</ele>
        <time>2019-07-07T09:24:20.000Z</time>
      </trkpt>
      <trkpt lat="40.326821766793727874755859375" lon="-1.20516872964799404144287109375">
        <ele>1025.4000244140625</ele>
        <time>2019-07-07T09:24:22.000Z</time>
      </trkpt>
      <trkpt lat="40.326553881168365478515625" lon="-1.205574162304401397705078125">
        <ele>1025.5999755859375</ele>
        <time>2019-07-07T09:24:24.000Z</time>
      </trkpt>
      <trkpt lat="40.32644055783748626708984375" lon="-1.20580877177417278289794921875">
        <ele>1026.800048828125</ele>
        <time>2019-07-07T09:24:25.000Z</time>
      </trkpt>
      <trkpt lat="40.32634894363582134246826171875" lon="-1.20605595409870147705078125">
        <ele>1028.199951171875</ele>
        <time>2019-07-07T09:24:26.000Z</time>
      </trkpt>
      <trkpt lat="40.32628322951495647430419921875" lon="-1.206315457820892333984375">
        <ele>1029.5999755859375</ele>
        <time>2019-07-07T09:24:27.000Z</time>
      </trkpt>
      <trkpt lat="40.3262264840304851531982421875" lon="-1.206865645945072174072265625">
        <ele>1030.199951171875</ele>
        <time>2019-07-07T09:24:29.000Z</time>
      </trkpt>
      <trkpt lat="40.3262682259082794189453125" lon="-1.20744190178811550140380859375">
        <ele>1029.800048828125</ele>
        <time>2019-07-07T09:24:31.000Z</time>
      </trkpt>
      <trkpt lat="40.32632195390760898590087890625" lon="-1.20772588066756725311279296875">
        <ele>1028.5999755859375</ele>
        <time>2019-07-07T09:24:32.000Z</time>
      </trkpt>
      <trkpt lat="40.3264021687209606170654296875" lon="-1.207997538149356842041015625">
        <ele>1027.800048828125</ele>
        <time>2019-07-07T09:24:33.000Z</time>
      </trkpt>
      <trkpt lat="40.326509289443492889404296875" lon="-1.20825595222413539886474609375">
        <ele>1027.199951171875</ele>
        <time>2019-07-07T09:24:34.000Z</time>
      </trkpt>
      <trkpt lat="40.32664197497069835662841796875" lon="-1.20849684812128543853759765625">
        <ele>1027</ele>
        <time>2019-07-07T09:24:35.000Z</time>
      </trkpt>
      <trkpt lat="40.32694120891392230987548828125" lon="-1.2089695036411285400390625">
        <ele>1027.4000244140625</ele>
        <time>2019-07-07T09:24:37.000Z</time>
      </trkpt>
      <trkpt lat="40.32723524607717990875244140625" lon="-1.2094630300998687744140625">
        <ele>1026.800048828125</ele>
        <time>2019-07-07T09:24:39.000Z</time>
      </trkpt>
      <trkpt lat="40.32736650668084621429443359375" lon="-1.2097310833632946014404296875">
        <ele>1026</ele>
        <time>2019-07-07T09:24:40.000Z</time>
      </trkpt>
      <trkpt lat="40.3274832665920257568359375" lon="-1.210013888776302337646484375">
        <ele>1024.199951171875</ele>
        <time>2019-07-07T09:24:41.000Z</time>
      </trkpt>
      <trkpt lat="40.3275900520384311676025390625" lon="-1.210303567349910736083984375">
        <ele>1022.20001220703125</ele>
        <time>2019-07-07T09:24:42.000Z</time>
      </trkpt>
      <trkpt lat="40.32769289799034595489501953125" lon="-1.2105954252183437347412109375">
        <ele>1020.4000244140625</ele>
        <time>2019-07-07T09:24:43.000Z</time>
      </trkpt>
      <trkpt lat="40.3278777189552783966064453125" lon="-1.21118701994419097900390625">
        <ele>1019.20001220703125</ele>
        <time>2019-07-07T09:24:45.000Z</time>
      </trkpt>
      <trkpt lat="40.32794452272355556488037109375" lon="-1.21149203740060329437255859375">
        <ele>1018.79998779296875</ele>
        <time>2019-07-07T09:24:46.000Z</time>
      </trkpt>
      <trkpt lat="40.32801845110952854156494140625" lon="-1.2120920978486537933349609375">
        <ele>1019.20001220703125</ele>
        <time>2019-07-07T09:24:48.000Z</time>
      </trkpt>
      <trkpt lat="40.3280597738921642303466796875" lon="-1.2126298807561397552490234375">
        <ele>1020.20001220703125</ele>
        <time>2019-07-07T09:24:50.000Z</time>
      </trkpt>
      <trkpt lat="40.3280614502727985382080078125" lon="-1.21287521906197071075439453125">
        <ele>1020.4000244140625</ele>
        <time>2019-07-07T09:24:51.000Z</time>
      </trkpt>
      <trkpt lat="40.3279759548604488372802734375" lon="-1.21333505026996135711669921875">
        <ele>1020.4000244140625</ele>
        <time>2019-07-07T09:24:53.000Z</time>
      </trkpt>
      <trkpt lat="40.3277566842734813690185546875" lon="-1.21373872272670269012451171875">
        <ele>1020.20001220703125</ele>
        <time>2019-07-07T09:24:55.000Z</time>
      </trkpt>
      <trkpt lat="40.327278412878513336181640625" lon="-1.21429762803018093109130859375">
        <ele>1020.4000244140625</ele>
        <time>2019-07-07T09:24:58.000Z</time>
      </trkpt>
      <trkpt lat="40.32695285975933074951171875" lon="-1.21469526551663875579833984375">
        <ele>1021.5999755859375</ele>
        <time>2019-07-07T09:25:00.000Z</time>
      </trkpt>
      <trkpt lat="40.3266281448304653167724609375" lon="-1.21511151082813739776611328125">
        <ele>1022.4000244140625</ele>
        <time>2019-07-07T09:25:02.000Z</time>
      </trkpt>
      <trkpt lat="40.3264605067670345306396484375" lon="-1.21532642282545566558837890625">
        <ele>1023.20001220703125</ele>
        <time>2019-07-07T09:25:03.000Z</time>
      </trkpt>
      <trkpt lat="40.32613076269626617431640625" lon="-1.21576982550323009490966796875">
        <ele>1025</ele>
        <time>2019-07-07T09:25:05.000Z</time>
      </trkpt>
      <trkpt lat="40.32582121901214122772216796875" lon="-1.21620417572557926177978515625">
        <ele>1026</ele>
        <time>2019-07-07T09:25:07.000Z</time>
      </trkpt>
      <trkpt lat="40.32567017711699008941650390625" lon="-1.21641824953258037567138671875">
        <ele>1026.4000244140625</ele>
        <time>2019-07-07T09:25:08.000Z</time>
      </trkpt>
      <trkpt lat="40.32537613995373249053955078125" lon="-1.21685159392654895782470703125">
        <ele>1027.800048828125</ele>
        <time>2019-07-07T09:25:10.000Z</time>
      </trkpt>
      <trkpt lat="40.32508713193237781524658203125" lon="-1.217296086251735687255859375">
        <ele>1029.4000244140625</ele>
        <time>2019-07-07T09:25:12.000Z</time>
      </trkpt>
      <trkpt lat="40.32482410781085491180419921875" lon="-1.217790953814983367919921875">
        <ele>1031.199951171875</ele>
        <time>2019-07-07T09:25:14.000Z</time>
      </trkpt>
      <trkpt lat="40.324574410915374755859375" lon="-1.21832932345569133758544921875">
        <ele>1032.800048828125</ele>
        <time>2019-07-07T09:25:16.000Z</time>
      </trkpt>
      <trkpt lat="40.32431951723992824554443359375" lon="-1.21887766756117343902587890625">
        <ele>1033.5999755859375</ele>
        <time>2019-07-07T09:25:18.000Z</time>
      </trkpt>
      <trkpt lat="40.32419546507298946380615234375" lon="-1.219147481024265289306640625">
        <ele>1034</ele>
        <time>2019-07-07T09:25:19.000Z</time>
      </trkpt>
      <trkpt lat="40.323947109282016754150390625" lon="-1.21966891922056674957275390625">
        <ele>1033.199951171875</ele>
        <time>2019-07-07T09:25:21.000Z</time>
      </trkpt>
      <trkpt lat="40.32370059750974178314208984375" lon="-1.2201786227524280548095703125">
        <ele>1032.800048828125</ele>
        <time>2019-07-07T09:25:23.000Z</time>
      </trkpt>
      <trkpt lat="40.32345660030841827392578125" lon="-1.2206838838756084442138671875">
        <ele>1033.800048828125</ele>
        <time>2019-07-07T09:25:25.000Z</time>
      </trkpt>
      <trkpt lat="40.323342941701412200927734375" lon="-1.2209410406649112701416015625">
        <ele>1034.4000244140625</ele>
        <time>2019-07-07T09:25:26.000Z</time>
      </trkpt>
      <trkpt lat="40.323147140443325042724609375" lon="-1.22147689573466777801513671875">
        <ele>1036.5999755859375</ele>
        <time>2019-07-07T09:25:28.000Z</time>
      </trkpt>
      <trkpt lat="40.32306910492479801177978515625" lon="-1.22175492346286773681640625">
        <ele>1038</ele>
        <time>2019-07-07T09:25:29.000Z</time>
      </trkpt>
      <trkpt lat="40.3230111859738826751708984375" lon="-1.22204015962779521942138671875">
        <ele>1039.5999755859375</ele>
        <time>2019-07-07T09:25:30.000Z</time>
      </trkpt>
      <trkpt lat="40.3229793347418308258056640625" lon="-1.2223304249346256256103515625">
        <ele>1041</ele>
        <time>2019-07-07T09:25:31.000Z</time>
      </trkpt>
      <trkpt lat="40.322972796857357025146484375" lon="-1.2226217798888683319091796875">
        <ele>1042.4000244140625</ele>
        <time>2019-07-07T09:25:32.000Z</time>
      </trkpt>
      <trkpt lat="40.3230068273842334747314453125" lon="-1.2232061661779880523681640625">
        <ele>1043.5999755859375</ele>
        <time>2019-07-07T09:25:34.000Z</time>
      </trkpt>
      <trkpt lat="40.32305669970810413360595703125" lon="-1.22378879226744174957275390625">
        <ele>1044.5999755859375</ele>
        <time>2019-07-07T09:25:36.000Z</time>
      </trkpt>
      <trkpt lat="40.32308234833180904388427734375" lon="-1.22465615160763263702392578125">
        <ele>1044</ele>
        <time>2019-07-07T09:25:39.000Z</time>
      </trkpt>
      <trkpt lat="40.323061645030975341796875" lon="-1.224936358630657196044921875">
        <ele>1043.5999755859375</ele>
        <time>2019-07-07T09:25:40.000Z</time>
      </trkpt>
      <trkpt lat="40.32294773496687412261962890625" lon="-1.22548629529774188995361328125">
        <ele>1042.4000244140625</ele>
        <time>2019-07-07T09:25:42.000Z</time>
      </trkpt>
      <trkpt lat="40.3227215074002742767333984375" lon="-1.22601452283561229705810546875">
        <ele>1041.800048828125</ele>
        <time>2019-07-07T09:25:44.000Z</time>
      </trkpt>
      <trkpt lat="40.3224433958530426025390625" lon="-1.22655767016112804412841796875">
        <ele>1041.199951171875</ele>
        <time>2019-07-07T09:25:46.000Z</time>
      </trkpt>
      <trkpt lat="40.322157405316829681396484375" lon="-1.2271185033023357391357421875">
        <ele>1040.4000244140625</ele>
        <time>2019-07-07T09:25:48.000Z</time>
      </trkpt>
      <trkpt lat="40.321870408952236175537109375" lon="-1.22768017463386058807373046875">
        <ele>1040.199951171875</ele>
        <time>2019-07-07T09:25:50.000Z</time>
      </trkpt>
      <trkpt lat="40.32161618582904338836669921875" lon="-1.2282674945890903472900390625">
        <ele>1040</ele>
        <time>2019-07-07T09:25:52.000Z</time>
      </trkpt>
      <trkpt lat="40.32139641232788562774658203125" lon="-1.2288730032742023468017578125">
        <ele>1039.800048828125</ele>
        <time>2019-07-07T09:25:54.000Z</time>
      </trkpt>
      <trkpt lat="40.3211961686611175537109375" lon="-1.22948362492024898529052734375">
        <ele>1039</ele>
        <time>2019-07-07T09:25:56.000Z</time>
      </trkpt>
      <trkpt lat="40.3211078234016895294189453125" lon="-1.2297822721302509307861328125">
        <ele>1038.800048828125</ele>
        <time>2019-07-07T09:25:57.000Z</time>
      </trkpt>
      <trkpt lat="40.32093272544443607330322265625" lon="-1.2303448654711246490478515625">
        <ele>1039.199951171875</ele>
        <time>2019-07-07T09:25:59.000Z</time>
      </trkpt>
      <trkpt lat="40.3207507543265819549560546875" lon="-1.23086177743971347808837890625">
        <ele>1041.199951171875</ele>
        <time>2019-07-07T09:26:01.000Z</time>
      </trkpt>
      <trkpt lat="40.32065427862107753753662109375" lon="-1.23111625202000141143798828125">
        <ele>1042.4000244140625</ele>
        <time>2019-07-07T09:26:02.000Z</time>
      </trkpt>
      <trkpt lat="40.320464931428432464599609375" lon="-1.23160810209810733795166015625">
        <ele>1044</ele>
        <time>2019-07-07T09:26:04.000Z</time>
      </trkpt>
      <trkpt lat="40.3203754127025604248046875" lon="-1.23183810152113437652587890625">
        <ele>1045</ele>
        <time>2019-07-07T09:26:05.000Z</time>
      </trkpt>
      <trkpt lat="40.32021104358136653900146484375" lon="-1.23227463103830814361572265625">
        <ele>1046.800048828125</ele>
        <time>2019-07-07T09:26:07.000Z</time>
      </trkpt>
      <trkpt lat="40.32013946212828159332275390625" lon="-1.23249180614948272705078125">
        <ele>1047.800048828125</ele>
        <time>2019-07-07T09:26:08.000Z</time>
      </trkpt>
      <trkpt lat="40.32002270221710205078125" lon="-1.232930012047290802001953125">
        <ele>1049.199951171875</ele>
        <time>2019-07-07T09:26:10.000Z</time>
      </trkpt>
      <trkpt lat="40.3198763541877269744873046875" lon="-1.23352873139083385467529296875">
        <ele>1049.800048828125</ele>
        <time>2019-07-07T09:26:13.000Z</time>
      </trkpt>
      <trkpt lat="40.3198059462010860443115234375" lon="-1.2338818609714508056640625">
        <ele>1050.5999755859375</ele>
        <time>2019-07-07T09:26:15.000Z</time>
      </trkpt>
      <trkpt lat="40.31974048353731632232666015625" lon="-1.234521232545375823974609375">
        <ele>1051.4000244140625</ele>
        <time>2019-07-07T09:26:19.000Z</time>
      </trkpt>
      <trkpt lat="40.3197352029383182525634765625" lon="-1.23465475626289844512939453125">
        <ele>1051.800048828125</ele>
        <time>2019-07-07T09:26:20.000Z</time>
      </trkpt>
      <trkpt lat="40.31971299089491367340087890625" lon="-1.23488374985754489898681640625">
        <ele>1052</ele>
        <time>2019-07-07T09:26:22.000Z</time>
      </trkpt>
      <trkpt lat="40.31965901143848896026611328125" lon="-1.23506345786154270172119140625">
        <ele>1052.199951171875</ele>
        <time>2019-07-07T09:26:24.000Z</time>
      </trkpt>
      <trkpt lat="40.31958307139575481414794921875" lon="-1.23518206179141998291015625">
        <ele>1052.5999755859375</ele>
        <time>2019-07-07T09:26:26.000Z</time>
      </trkpt>
      <trkpt lat="40.319538898766040802001953125" lon="-1.23522095382213592529296875">
        <ele>1052.800048828125</ele>
        <time>2019-07-07T09:26:27.000Z</time>
      </trkpt>
      <trkpt lat="40.31905367039144039154052734375" lon="-1.235467381775379180908203125">
        <ele>1053.800048828125</ele>
        <time>2019-07-07T09:26:35.000Z</time>
      </trkpt>
      <trkpt lat="40.31871856190264225006103515625" lon="-1.2357280589640140533447265625">
        <ele>1053.800048828125</ele>
        <time>2019-07-07T09:26:39.000Z</time>
      </trkpt>
      <trkpt lat="40.318447910249233245849609375" lon="-1.2359500117599964141845703125">
        <ele>1055</ele>
        <time>2019-07-07T09:26:42.000Z</time>
      </trkpt>
      <trkpt lat="40.3183055855333805084228515625" lon="-1.23610046692192554473876953125">
        <ele>1055.5999755859375</ele>
        <time>2019-07-07T09:26:44.000Z</time>
      </trkpt>
      <trkpt lat="40.31821296550333499908447265625" lon="-1.236263997852802276611328125">
        <ele>1055.800048828125</ele>
        <time>2019-07-07T09:26:46.000Z</time>
      </trkpt>
      <trkpt lat="40.31817658804357051849365234375" lon="-1.2364505790174007415771484375">
        <ele>1056</ele>
        <time>2019-07-07T09:26:48.000Z</time>
      </trkpt>
      <trkpt lat="40.3181684575974941253662109375" lon="-1.23655275441706180572509765625">
        <ele>1056.199951171875</ele>
        <time>2019-07-07T09:26:49.000Z</time>
      </trkpt>
      <trkpt lat="40.3181476704776287078857421875" lon="-1.23666456900537014007568359375">
        <ele>1056.4000244140625</ele>
        <time>2019-07-07T09:26:50.000Z</time>
      </trkpt>
      <trkpt lat="40.3180534578859806060791015625" lon="-1.236892640590667724609375">
        <ele>1056.800048828125</ele>
        <time>2019-07-07T09:26:52.000Z</time>
      </trkpt>
      <trkpt lat="40.3179183416068553924560546875" lon="-1.23711149208247661590576171875">
        <ele>1057.199951171875</ele>
        <time>2019-07-07T09:26:54.000Z</time>
      </trkpt>
      <trkpt lat="40.31757007353007793426513671875" lon="-1.2375811301171779632568359375">
        <ele>1058.4000244140625</ele>
        <time>2019-07-07T09:27:01.000Z</time>
      </trkpt>
      <trkpt lat="40.31742976047098636627197265625" lon="-1.23776595108211040496826171875">
        <ele>1059.4000244140625</ele>
        <time>2019-07-07T09:27:08.000Z</time>
      </trkpt>
      <trkpt lat="40.31740042380988597869873046875" lon="-1.2377447448670864105224609375">
        <ele>1059.5999755859375</ele>
        <time>2019-07-07T09:27:16.000Z</time>
      </trkpt>
      <trkpt lat="40.31737360171973705291748046875" lon="-1.23762748204171657562255859375">
        <ele>1059.4000244140625</ele>
        <time>2019-07-07T09:27:19.000Z</time>
      </trkpt>
      <trkpt lat="40.3174030221998691558837890625" lon="-1.2374802120029926300048828125">
        <ele>1059.199951171875</ele>
        <time>2019-07-07T09:27:21.000Z</time>
      </trkpt>
      <trkpt lat="40.31762053258717060089111328125" lon="-1.23693480156362056732177734375">
        <ele>1059</ele>
        <time>2019-07-07T09:27:28.000Z</time>
      </trkpt>
      <trkpt lat="40.3177119791507720947265625" lon="-1.23674537055194377899169921875">
        <ele>1058.4000244140625</ele>
        <time>2019-07-07T09:27:31.000Z</time>
      </trkpt>
      <trkpt lat="40.31783309765160083770751953125" lon="-1.236526183784008026123046875">
        <ele>1057.4000244140625</ele>
        <time>2019-07-07T09:27:34.000Z</time>
      </trkpt>
      <trkpt lat="40.318044908344745635986328125" lon="-1.2361924163997173309326171875">
        <ele>1056.800048828125</ele>
        <time>2019-07-07T09:28:58.000Z</time>
      </trkpt>
      <trkpt lat="40.3180179186165332794189453125" lon="-1.23622384853661060333251953125">
        <ele>1056.800048828125</ele>
        <time>2019-07-07T09:32:02.000Z</time>
      </trkpt>
      <trkpt lat="40.31806577928364276885986328125" lon="-1.23616081662476062774658203125">
        <ele>1051.4000244140625</ele>
        <time>2019-07-07T09:33:53.000Z</time>
      </trkpt>
      <trkpt lat="40.31808472238481044769287109375" lon="-1.23615846969187259674072265625">
        <ele>1052.4000244140625</ele>
        <time>2019-07-07T09:33:58.000Z</time>
      </trkpt>
      <trkpt lat="40.31807986088097095489501953125" lon="-1.2361826933920383453369140625">
        <ele>1051.4000244140625</ele>
        <time>2019-07-07T09:34:54.000Z</time>
      </trkpt>
      <trkpt lat="40.31809486448764801025390625" lon="-1.236200965940952301025390625">
        <ele>1050.4000244140625</ele>
        <time>2019-07-07T09:35:39.000Z</time>
      </trkpt>
      <trkpt lat="40.31810819171369075775146484375" lon="-1.236158721148967742919921875">
        <ele>1049.800048828125</ele>
        <time>2019-07-07T09:36:14.000Z</time>
      </trkpt>
      <trkpt lat="40.318179018795490264892578125" lon="-1.23612326569855213165283203125">
        <ele>1049.5999755859375</ele>
        <time>2019-07-07T09:36:16.000Z</time>
      </trkpt>
      <trkpt lat="40.31826208345592021942138671875" lon="-1.23611119575798511505126953125">
        <ele>1049.4000244140625</ele>
        <time>2019-07-07T09:36:18.000Z</time>
      </trkpt>
      <trkpt lat="40.31830935738980770111083984375" lon="-1.23608537949621677398681640625">
        <ele>1049.199951171875</ele>
        <time>2019-07-07T09:36:19.000Z</time>
      </trkpt>
      <trkpt lat="40.31836333684623241424560546875" lon="-1.23602687381207942962646484375">
        <ele>1049</ele>
        <time>2019-07-07T09:36:20.000Z</time>
      </trkpt>
      <trkpt lat="40.3187203221023082733154296875" lon="-1.23566980473697185516357421875">
        <ele>1048.4000244140625</ele>
        <time>2019-07-07T09:36:25.000Z</time>
      </trkpt>
      <trkpt lat="40.3188038058578968048095703125" lon="-1.2356043420732021331787109375">
        <ele>1048.199951171875</ele>
        <time>2019-07-07T09:36:26.000Z</time>
      </trkpt>
      <trkpt lat="40.319276042282581329345703125" lon="-1.23528658412396907806396484375">
        <ele>1047.5999755859375</ele>
        <time>2019-07-07T09:36:31.000Z</time>
      </trkpt>
      <trkpt lat="40.3194391541182994842529296875" lon="-1.23520125634968280792236328125">
        <ele>1047.199951171875</ele>
        <time>2019-07-07T09:36:33.000Z</time>
      </trkpt>
      <trkpt lat="40.31959346495568752288818359375" lon="-1.235081814229488372802734375">
        <ele>1046.800048828125</ele>
        <time>2019-07-07T09:36:35.000Z</time>
      </trkpt>
      <trkpt lat="40.31972656957805156707763671875" lon="-1.234873943030834197998046875">
        <ele>1046.4000244140625</ele>
        <time>2019-07-07T09:36:37.000Z</time>
      </trkpt>
      <trkpt lat="40.31977803446352481842041015625" lon="-1.2345519103109836578369140625">
        <ele>1046.4000244140625</ele>
        <time>2019-07-07T09:36:39.000Z</time>
      </trkpt>
      <trkpt lat="40.319814495742321014404296875" lon="-1.2339987047016620635986328125">
        <ele>1045.800048828125</ele>
        <time>2019-07-07T09:36:42.000Z</time>
      </trkpt>
      <trkpt lat="40.31991700641810894012451171875" lon="-1.233398057520389556884765625">
        <ele>1045</ele>
        <time>2019-07-07T09:36:45.000Z</time>
      </trkpt>
      <trkpt lat="40.3200134821236133575439453125" lon="-1.23297066427767276763916015625">
        <ele>1044</ele>
        <time>2019-07-07T09:36:47.000Z</time>
      </trkpt>
      <trkpt lat="40.32012504525482654571533203125" lon="-1.23252944089472293853759765625">
        <ele>1041.5999755859375</ele>
        <time>2019-07-07T09:36:49.000Z</time>
      </trkpt>
      <trkpt lat="40.320184640586376190185546875" lon="-1.2323033809661865234375">
        <ele>1040.199951171875</ele>
        <time>2019-07-07T09:36:50.000Z</time>
      </trkpt>
      <trkpt lat="40.32025245018303394317626953125" lon="-1.2320789135992527008056640625">
        <ele>1039.199951171875</ele>
        <time>2019-07-07T09:36:51.000Z</time>
      </trkpt>
      <trkpt lat="40.32050675712525844573974609375" lon="-1.23139939270913600921630859375">
        <ele>1041</ele>
        <time>2019-07-07T09:36:54.000Z</time>
      </trkpt>
      <trkpt lat="40.320598371326923370361328125" lon="-1.23116252012550830841064453125">
        <ele>1042.199951171875</ele>
        <time>2019-07-07T09:36:55.000Z</time>
      </trkpt>
      <trkpt lat="40.3206907398998737335205078125" lon="-1.2309198640286922454833984375">
        <ele>1044.4000244140625</ele>
        <time>2019-07-07T09:36:56.000Z</time>
      </trkpt>
      <trkpt lat="40.32078235410153865814208984375" lon="-1.2306727655231952667236328125">
        <ele>1046.800048828125</ele>
        <time>2019-07-07T09:36:57.000Z</time>
      </trkpt>
      <trkpt lat="40.32087338156998157501220703125" lon="-1.230424158275127410888671875">
        <ele>1048</ele>
        <time>2019-07-07T09:36:58.000Z</time>
      </trkpt>
      <trkpt lat="40.32112416811287403106689453125" lon="-1.2296598963439464569091796875">
        <ele>1048</ele>
        <time>2019-07-07T09:37:01.000Z</time>
      </trkpt>
      <trkpt lat="40.3212015330791473388671875" lon="-1.229400224983692169189453125">
        <ele>1045.199951171875</ele>
        <time>2019-07-07T09:37:02.000Z</time>
      </trkpt>
      <trkpt lat="40.3212808258831501007080078125" lon="-1.22913845814764499664306640625">
        <ele>1041.800048828125</ele>
        <time>2019-07-07T09:37:03.000Z</time>
      </trkpt>
      <trkpt lat="40.32136606983840465545654296875" lon="-1.2288733385503292083740234375">
        <ele>1037.800048828125</ele>
        <time>2019-07-07T09:37:04.000Z</time>
      </trkpt>
      <trkpt lat="40.32145625911653041839599609375" lon="-1.2286054529249668121337890625">
        <ele>1035.5999755859375</ele>
        <time>2019-07-07T09:37:05.000Z</time>
      </trkpt>
      <trkpt lat="40.321553237736225128173828125" lon="-1.2283342145383358001708984375">
        <ele>1034.5999755859375</ele>
        <time>2019-07-07T09:37:06.000Z</time>
      </trkpt>
      <trkpt lat="40.3217701613903045654296875" lon="-1.22778855264186859130859375">
        <ele>1034.800048828125</ele>
        <time>2019-07-07T09:37:08.000Z</time>
      </trkpt>
      <trkpt lat="40.322019942104816436767578125" lon="-1.22724230401217937469482421875">
        <ele>1035.5999755859375</ele>
        <time>2019-07-07T09:37:10.000Z</time>
      </trkpt>
      <trkpt lat="40.3221558965742588043212890625" lon="-1.22696888633072376251220703125">
        <ele>1037</ele>
        <time>2019-07-07T09:37:11.000Z</time>
      </trkpt>
      <trkpt lat="40.32243593595921993255615234375" lon="-1.22641702182590961456298828125">
        <ele>1035.800048828125</ele>
        <time>2019-07-07T09:37:13.000Z</time>
      </trkpt>
      <trkpt lat="40.32257356680929660797119140625" lon="-1.2261492200195789337158203125">
        <ele>1032.800048828125</ele>
        <time>2019-07-07T09:37:14.000Z</time>
      </trkpt>
      <trkpt lat="40.32270348630845546722412109375" lon="-1.225896589457988739013671875">
        <ele>1031.4000244140625</ele>
        <time>2019-07-07T09:37:15.000Z</time>
      </trkpt>
      <trkpt lat="40.32301026396453380584716796875" lon="-1.22516644187271595001220703125">
        <ele>1029.199951171875</ele>
        <time>2019-07-07T09:37:18.000Z</time>
      </trkpt>
      <trkpt lat="40.32310715876519680023193359375" lon="-1.22463821433484554290771484375">
        <ele>1031.4000244140625</ele>
        <time>2019-07-07T09:37:20.000Z</time>
      </trkpt>
      <trkpt lat="40.32312073744833469390869140625" lon="-1.224360354244709014892578125">
        <ele>1034.800048828125</ele>
        <time>2019-07-07T09:37:21.000Z</time>
      </trkpt>
      <trkpt lat="40.323116965591907501220703125" lon="-1.2240772135555744171142578125">
        <ele>1039</ele>
        <time>2019-07-07T09:37:22.000Z</time>
      </trkpt>
      <trkpt lat="40.32310162670910358428955078125" lon="-1.2237905524671077728271484375">
        <ele>1041.199951171875</ele>
        <time>2019-07-07T09:37:23.000Z</time>
      </trkpt>
      <trkpt lat="40.32306005246937274932861328125" lon="-1.2232028134167194366455078125">
        <ele>1041.800048828125</ele>
        <time>2019-07-07T09:37:25.000Z</time>
      </trkpt>
      <trkpt lat="40.32303574495017528533935546875" lon="-1.22290265746414661407470703125">
        <ele>1040</ele>
        <time>2019-07-07T09:37:26.000Z</time>
      </trkpt>
      <trkpt lat="40.32301411963999271392822265625" lon="-1.22260023839771747589111328125">
        <ele>1037.4000244140625</ele>
        <time>2019-07-07T09:37:27.000Z</time>
      </trkpt>
      <trkpt lat="40.3230081684887409210205078125" lon="-1.22228709049522876739501953125">
        <ele>1034.800048828125</ele>
        <time>2019-07-07T09:37:28.000Z</time>
      </trkpt>
      <trkpt lat="40.32302719540894031524658203125" lon="-1.22196204029023647308349609375">
        <ele>1033</ele>
        <time>2019-07-07T09:37:29.000Z</time>
      </trkpt>
      <trkpt lat="40.323156528174877166748046875" lon="-1.22131495736539363861083984375">
        <ele>1033.4000244140625</ele>
        <time>2019-07-07T09:37:31.000Z</time>
      </trkpt>
      <trkpt lat="40.32326105050742626190185546875" lon="-1.221002899110317230224609375">
        <ele>1034</ele>
        <time>2019-07-07T09:37:32.000Z</time>
      </trkpt>
      <trkpt lat="40.3235157765448093414306640625" lon="-1.22038490138947963714599609375">
        <ele>1033.5999755859375</ele>
        <time>2019-07-07T09:37:34.000Z</time>
      </trkpt>
      <trkpt lat="40.3238081373274326324462890625" lon="-1.2197705917060375213623046875">
        <ele>1033.4000244140625</ele>
        <time>2019-07-07T09:37:36.000Z</time>
      </trkpt>
      <trkpt lat="40.32395624555647373199462890625" lon="-1.21946892701089382171630859375">
        <ele>1032.800048828125</ele>
        <time>2019-07-07T09:37:37.000Z</time>
      </trkpt>
      <trkpt lat="40.32410007901489734649658203125" lon="-1.21917589567601680755615234375">
        <ele>1031</ele>
        <time>2019-07-07T09:37:38.000Z</time>
      </trkpt>
      <trkpt lat="40.324236787855625152587890625" lon="-1.21889091096818447113037109375">
        <ele>1028</ele>
        <time>2019-07-07T09:37:39.000Z</time>
      </trkpt>
      <trkpt lat="40.3243663720786571502685546875" lon="-1.2186112068593502044677734375">
        <ele>1024.5999755859375</ele>
        <time>2019-07-07T09:37:40.000Z</time>
      </trkpt>
      <trkpt lat="40.32449235208332538604736328125" lon="-1.21833384968340396881103515625">
        <ele>1022.79998779296875</ele>
        <time>2019-07-07T09:37:41.000Z</time>
      </trkpt>
      <trkpt lat="40.32462067902088165283203125" lon="-1.218058168888092041015625">
        <ele>1021.5999755859375</ele>
        <time>2019-07-07T09:37:42.000Z</time>
      </trkpt>
      <trkpt lat="40.32488663680851459503173828125" lon="-1.21751057915389537811279296875">
        <ele>1020.79998779296875</ele>
        <time>2019-07-07T09:37:44.000Z</time>
      </trkpt>
      <trkpt lat="40.32517262734472751617431640625" lon="-1.21697464026510715484619140625">
        <ele>1022.5999755859375</ele>
        <time>2019-07-07T09:37:46.000Z</time>
      </trkpt>
      <trkpt lat="40.32533406279981136322021484375" lon="-1.2167195789515972137451171875">
        <ele>1023.79998779296875</ele>
        <time>2019-07-07T09:37:47.000Z</time>
      </trkpt>
      <trkpt lat="40.325678475201129913330078125" lon="-1.21622060425579547882080078125">
        <ele>1024</ele>
        <time>2019-07-07T09:37:49.000Z</time>
      </trkpt>
      <trkpt lat="40.3260199539363384246826171875" lon="-1.21573747135698795318603515625">
        <ele>1023.79998779296875</ele>
        <time>2019-07-07T09:37:51.000Z</time>
      </trkpt>
      <trkpt lat="40.3263406455516815185546875" lon="-1.2153000198304653167724609375">
        <ele>1024.5999755859375</ele>
        <time>2019-07-07T09:37:53.000Z</time>
      </trkpt>
      <trkpt lat="40.32679184339940547943115234375" lon="-1.2147174775600433349609375">
        <ele>1023.5999755859375</ele>
        <time>2019-07-07T09:37:56.000Z</time>
      </trkpt>
      <trkpt lat="40.32724765129387378692626953125" lon="-1.2141600809991359710693359375">
        <ele>1023.4000244140625</ele>
        <time>2019-07-07T09:37:59.000Z</time>
      </trkpt>
      <trkpt lat="40.32753280363976955413818359375" lon="-1.2138107232749462127685546875">
        <ele>1022.4000244140625</ele>
        <time>2019-07-07T09:38:01.000Z</time>
      </trkpt>
      <trkpt lat="40.3276644833385944366455078125" lon="-1.21364853344857692718505859375">
        <ele>1022</ele>
        <time>2019-07-07T09:38:02.000Z</time>
      </trkpt>
      <trkpt lat="40.32778543420135974884033203125" lon="-1.21349045075476169586181640625">
        <ele>1021.4000244140625</ele>
        <time>2019-07-07T09:38:03.000Z</time>
      </trkpt>
      <trkpt lat="40.32789238728582859039306640625" lon="-1.213323064148426055908203125">
        <ele>1021</ele>
        <time>2019-07-07T09:38:04.000Z</time>
      </trkpt>
      <trkpt lat="40.3280369751155376434326171875" lon="-1.212918721139430999755859375">
        <ele>1020.79998779296875</ele>
        <time>2019-07-07T09:38:06.000Z</time>
      </trkpt>
      <trkpt lat="40.32806337811052799224853515625" lon="-1.21243424713611602783203125">
        <ele>1021.4000244140625</ele>
        <time>2019-07-07T09:38:08.000Z</time>
      </trkpt>
      <trkpt lat="40.3280155174434185028076171875" lon="-1.21190593577921390533447265625">
        <ele>1022.4000244140625</ele>
        <time>2019-07-07T09:38:10.000Z</time>
      </trkpt>
      <trkpt lat="40.327941589057445526123046875" lon="-1.2113538198173046112060546875">
        <ele>1024</ele>
        <time>2019-07-07T09:38:12.000Z</time>
      </trkpt>
      <trkpt lat="40.327883921563625335693359375" lon="-1.211077384650707244873046875">
        <ele>1025.800048828125</ele>
        <time>2019-07-07T09:38:13.000Z</time>
      </trkpt>
      <trkpt lat="40.32772265374660491943359375" lon="-1.21053582988679409027099609375">
        <ele>1027</ele>
        <time>2019-07-07T09:38:15.000Z</time>
      </trkpt>
      <trkpt lat="40.3275303728878498077392578125" lon="-1.2100019864737987518310546875">
        <ele>1026.4000244140625</ele>
        <time>2019-07-07T09:38:17.000Z</time>
      </trkpt>
      <trkpt lat="40.3274261020123958587646484375" lon="-1.2097401358187198638916015625">
        <ele>1025.5999755859375</ele>
        <time>2019-07-07T09:38:18.000Z</time>
      </trkpt>
      <trkpt lat="40.3271887265145778656005859375" lon="-1.20923705399036407470703125">
        <ele>1024.800048828125</ele>
        <time>2019-07-07T09:38:20.000Z</time>
      </trkpt>
      <trkpt lat="40.32705386169254779815673828125" lon="-1.2089990079402923583984375">
        <ele>1024.5999755859375</ele>
        <time>2019-07-07T09:38:21.000Z</time>
      </trkpt>
      <trkpt lat="40.32676602713763713836669921875" lon="-1.2085376679897308349609375">
        <ele>1023.20001220703125</ele>
        <time>2019-07-07T09:38:23.000Z</time>
      </trkpt>
      <trkpt lat="40.32648841850459575653076171875" lon="-1.20806937105953693389892578125">
        <ele>1020.5999755859375</ele>
        <time>2019-07-07T09:38:25.000Z</time>
      </trkpt>
      <trkpt lat="40.326379872858524322509765625" lon="-1.2078242003917694091796875">
        <ele>1019.79998779296875</ele>
        <time>2019-07-07T09:38:26.000Z</time>
      </trkpt>
      <trkpt lat="40.32630108296871185302734375" lon="-1.2075749225914478302001953125">
        <ele>1019.4000244140625</ele>
        <time>2019-07-07T09:38:27.000Z</time>
      </trkpt>
      <trkpt lat="40.3262502886354923248291015625" lon="-1.20732053183019161224365234375">
        <ele>1020</ele>
        <time>2019-07-07T09:38:28.000Z</time>
      </trkpt>
      <trkpt lat="40.3262194432318210601806640625" lon="-1.2070616148412227630615234375">
        <ele>1021</ele>
        <time>2019-07-07T09:38:29.000Z</time>
      </trkpt>
      <trkpt lat="40.32620846293866634368896484375" lon="-1.2068004347383975982666015625">
        <ele>1022</ele>
        <time>2019-07-07T09:38:30.000Z</time>
      </trkpt>
      <trkpt lat="40.32625070773065090179443359375" lon="-1.20628184638917446136474609375">
        <ele>1023.79998779296875</ele>
        <time>2019-07-07T09:38:32.000Z</time>
      </trkpt>
      <trkpt lat="40.32637693919241428375244140625" lon="-1.2057885713875293731689453125">
        <ele>1024.800048828125</ele>
        <time>2019-07-07T09:38:34.000Z</time>
      </trkpt>
      <trkpt lat="40.32647609710693359375" lon="-1.2055605836212635040283203125">
        <ele>1025.800048828125</ele>
        <time>2019-07-07T09:38:35.000Z</time>
      </trkpt>
      <trkpt lat="40.32659436576068401336669921875" lon="-1.2053458392620086669921875">
        <ele>1027.199951171875</ele>
        <time>2019-07-07T09:38:36.000Z</time>
      </trkpt>
      <trkpt lat="40.32673157751560211181640625" lon="-1.20514559559524059295654296875">
        <ele>1028</ele>
        <time>2019-07-07T09:38:37.000Z</time>
      </trkpt>
      <trkpt lat="40.32689125277101993560791015625" lon="-1.20496303774416446685791015625">
        <ele>1028.4000244140625</ele>
        <time>2019-07-07T09:38:38.000Z</time>
      </trkpt>
      <trkpt lat="40.32707548700273036956787109375" lon="-1.20480336248874664306640625">
        <ele>1027.800048828125</ele>
        <time>2019-07-07T09:38:39.000Z</time>
      </trkpt>
      <trkpt lat="40.32750346697866916656494140625" lon="-1.20457177050411701202392578125">
        <ele>1028.199951171875</ele>
        <time>2019-07-07T09:38:41.000Z</time>
      </trkpt>
      <trkpt lat="40.3277429379522800445556640625" lon="-1.2044860236346721649169921875">
        <ele>1026.5999755859375</ele>
        <time>2019-07-07T09:38:42.000Z</time>
      </trkpt>
      <trkpt lat="40.3279980830848217010498046875" lon="-1.2044136039912700653076171875">
        <ele>1024.199951171875</ele>
        <time>2019-07-07T09:38:43.000Z</time>
      </trkpt>
      <trkpt lat="40.32826714217662811279296875" lon="-1.2043515779078006744384765625">
        <ele>1023</ele>
        <time>2019-07-07T09:38:44.000Z</time>
      </trkpt>
      <trkpt lat="40.32881339080631732940673828125" lon="-1.20422760955989360809326171875">
        <ele>1022.4000244140625</ele>
        <time>2019-07-07T09:38:46.000Z</time>
      </trkpt>
      <trkpt lat="40.32907322980463504791259765625" lon="-1.20416457764804363250732421875">
        <ele>1022</ele>
        <time>2019-07-07T09:38:47.000Z</time>
      </trkpt>
      <trkpt lat="40.32932125031948089599609375" lon="-1.2041081674396991729736328125">
        <ele>1020.79998779296875</ele>
        <time>2019-07-07T09:38:48.000Z</time>
      </trkpt>
      <trkpt lat="40.32977856695652008056640625" lon="-1.2040049023926258087158203125">
        <ele>1019.4000244140625</ele>
        <time>2019-07-07T09:38:50.000Z</time>
      </trkpt>
      <trkpt lat="40.3299933113157749176025390625" lon="-1.20395787991583347320556640625">
        <ele>1018</ele>
        <time>2019-07-07T09:38:51.000Z</time>
      </trkpt>
      <trkpt lat="40.3302011825144290924072265625" lon="-1.20391110889613628387451171875">
        <ele>1016.4000244140625</ele>
        <time>2019-07-07T09:38:52.000Z</time>
      </trkpt>
      <trkpt lat="40.3304006718099117279052734375" lon="-1.20385779999196529388427734375">
        <ele>1015.20001220703125</ele>
        <time>2019-07-07T09:38:53.000Z</time>
      </trkpt>
      <trkpt lat="40.330786742269992828369140625" lon="-1.20371581055223941802978515625">
        <ele>1013.79998779296875</ele>
        <time>2019-07-07T09:38:55.000Z</time>
      </trkpt>
      <trkpt lat="40.3311731480062007904052734375" lon="-1.20355118997395038604736328125">
        <ele>1012.4000244140625</ele>
        <time>2019-07-07T09:38:57.000Z</time>
      </trkpt>
      <trkpt lat="40.331364087760448455810546875" lon="-1.2034761719405651092529296875">
        <ele>1011</ele>
        <time>2019-07-07T09:38:58.000Z</time>
      </trkpt>
      <trkpt lat="40.331556536257266998291015625" lon="-1.20340316556394100189208984375">
        <ele>1009.4000244140625</ele>
        <time>2019-07-07T09:38:59.000Z</time>
      </trkpt>
      <trkpt lat="40.3317533433437347412109375" lon="-1.2033387087285518646240234375">
        <ele>1007.79998779296875</ele>
        <time>2019-07-07T09:39:00.000Z</time>
      </trkpt>
      <trkpt lat="40.33195978961884975433349609375" lon="-1.20328682474792003631591796875">
        <ele>1005.79998779296875</ele>
        <time>2019-07-07T09:39:01.000Z</time>
      </trkpt>
      <trkpt lat="40.332177467644214630126953125" lon="-1.20325279422104358673095703125">
        <ele>1003.79998779296875</ele>
        <time>2019-07-07T09:39:02.000Z</time>
      </trkpt>
      <trkpt lat="40.33240377902984619140625" lon="-1.20323829352855682373046875">
        <ele>1002.4000244140625</ele>
        <time>2019-07-07T09:39:03.000Z</time>
      </trkpt>
      <trkpt lat="40.33286235295236110687255859375" lon="-1.2032711505889892578125">
        <ele>1000.4000244140625</ele>
        <time>2019-07-07T09:39:05.000Z</time>
      </trkpt>
      <trkpt lat="40.3330890834331512451171875" lon="-1.20331599377095699310302734375">
        <ele>999.4000244140625</ele>
        <time>2019-07-07T09:39:06.000Z</time>
      </trkpt>
      <trkpt lat="40.333534665405750274658203125" lon="-1.2033920176327228546142578125">
        <ele>998</ele>
        <time>2019-07-07T09:39:08.000Z</time>
      </trkpt>
      <trkpt lat="40.3339929878711700439453125" lon="-1.203404255211353302001953125">
        <ele>996.4000244140625</ele>
        <time>2019-07-07T09:39:10.000Z</time>
      </trkpt>
      <trkpt lat="40.334227345883846282958984375" lon="-1.20340400375425815582275390625">
        <ele>994.79998779296875</ele>
        <time>2019-07-07T09:39:11.000Z</time>
      </trkpt>
      <trkpt lat="40.33470452763140201568603515625" lon="-1.20345965959131717681884765625">
        <ele>993</ele>
        <time>2019-07-07T09:39:13.000Z</time>
      </trkpt>
      <trkpt lat="40.33494810573756694793701171875" lon="-1.20351917110383510589599609375">
        <ele>992</ele>
        <time>2019-07-07T09:39:14.000Z</time>
      </trkpt>
      <trkpt lat="40.335196964442729949951171875" lon="-1.20358840562403202056884765625">
        <ele>990.5999755859375</ele>
        <time>2019-07-07T09:39:15.000Z</time>
      </trkpt>
      <trkpt lat="40.33544682897627353668212890625" lon="-1.2036612443625926971435546875">
        <ele>989.4000244140625</ele>
        <time>2019-07-07T09:39:16.000Z</time>
      </trkpt>
      <trkpt lat="40.33593968488276004791259765625" lon="-1.2038037367165088653564453125">
        <ele>988</ele>
        <time>2019-07-07T09:39:18.000Z</time>
      </trkpt>
      <trkpt lat="40.33617563545703887939453125" lon="-1.20385763235390186309814453125">
        <ele>985</ele>
        <time>2019-07-07T09:39:19.000Z</time>
      </trkpt>
      <trkpt lat="40.33640228211879730224609375" lon="-1.2038992904126644134521484375">
        <ele>980.4000244140625</ele>
        <time>2019-07-07T09:39:20.000Z</time>
      </trkpt>
      <trkpt lat="40.3366180323064327239990234375" lon="-1.2039207480847835540771484375">
        <ele>974.79998779296875</ele>
        <time>2019-07-07T09:39:21.000Z</time>
      </trkpt>
      <trkpt lat="40.3368272446095943450927734375" lon="-1.203916557133197784423828125">
        <ele>971.5999755859375</ele>
        <time>2019-07-07T09:39:22.000Z</time>
      </trkpt>
      <trkpt lat="40.337035618722438812255859375" lon="-1.2038842029869556427001953125">
        <ele>970.20001220703125</ele>
        <time>2019-07-07T09:39:23.000Z</time>
      </trkpt>
      <trkpt lat="40.33724826760590076446533203125" lon="-1.2038205005228519439697265625">
        <ele>969</ele>
        <time>2019-07-07T09:39:24.000Z</time>
      </trkpt>
      <trkpt lat="40.3376783430576324462890625" lon="-1.20359913446009159088134765625">
        <ele>968.4000244140625</ele>
        <time>2019-07-07T09:39:26.000Z</time>
      </trkpt>
      <trkpt lat="40.33788814209401607513427734375" lon="-1.20344406925141811370849609375">
        <ele>967.79998779296875</ele>
        <time>2019-07-07T09:39:27.000Z</time>
      </trkpt>
      <trkpt lat="40.33830589614808559417724609375" lon="-1.20309873484075069427490234375">
        <ele>965.79998779296875</ele>
        <time>2019-07-07T09:39:29.000Z</time>
      </trkpt>
      <trkpt lat="40.33852390944957733154296875" lon="-1.20293746702373027801513671875">
        <ele>963.20001220703125</ele>
        <time>2019-07-07T09:39:30.000Z</time>
      </trkpt>
      <trkpt lat="40.33875382505357265472412109375" lon="-1.2028026022017002105712890625">
        <ele>960.4000244140625</ele>
        <time>2019-07-07T09:39:31.000Z</time>
      </trkpt>
      <trkpt lat="40.338998325169086456298828125" lon="-1.2027043662965297698974609375">
        <ele>958</ele>
        <time>2019-07-07T09:39:32.000Z</time>
      </trkpt>
      <trkpt lat="40.33925422467291355133056640625" lon="-1.20264560915529727935791015625">
        <ele>956</ele>
        <time>2019-07-07T09:39:33.000Z</time>
      </trkpt>
      <trkpt lat="40.339514650404453277587890625" lon="-1.20262130163609981536865234375">
        <ele>954.79998779296875</ele>
        <time>2019-07-07T09:39:34.000Z</time>
      </trkpt>
      <trkpt lat="40.33976904116570949554443359375" lon="-1.20261736214160919189453125">
        <ele>953.5999755859375</ele>
        <time>2019-07-07T09:39:35.000Z</time>
      </trkpt>
      <trkpt lat="40.3402557782828807830810546875" lon="-1.20262951590120792388916015625">
        <ele>952.20001220703125</ele>
        <time>2019-07-07T09:39:37.000Z</time>
      </trkpt>
      <trkpt lat="40.34070814959704875946044921875" lon="-1.2026245705783367156982421875">
        <ele>951.5999755859375</ele>
        <time>2019-07-07T09:39:39.000Z</time>
      </trkpt>
      <trkpt lat="40.341149456799030303955078125" lon="-1.20259054005146026611328125">
        <ele>950.79998779296875</ele>
        <time>2019-07-07T09:39:41.000Z</time>
      </trkpt>
      <trkpt lat="40.34161188639700412750244140625" lon="-1.202536560595035552978515625">
        <ele>949.5999755859375</ele>
        <time>2019-07-07T09:39:43.000Z</time>
      </trkpt>
      <trkpt lat="40.3418453224003314971923828125" lon="-1.202479898929595947265625">
        <ele>949</ele>
        <time>2019-07-07T09:39:44.000Z</time>
      </trkpt>
      <trkpt lat="40.34230154938995838165283203125" lon="-1.20225450955331325531005859375">
        <ele>949.5999755859375</ele>
        <time>2019-07-07T09:39:46.000Z</time>
      </trkpt>
      <trkpt lat="40.3427128493785858154296875" lon="-1.20189316570758819580078125">
        <ele>950.4000244140625</ele>
        <time>2019-07-07T09:39:48.000Z</time>
      </trkpt>
      <trkpt lat="40.34311409108340740203857421875" lon="-1.20148840360343456268310546875">
        <ele>946</ele>
        <time>2019-07-07T09:39:50.000Z</time>
      </trkpt>
      <trkpt lat="40.34332506358623504638671875" lon="-1.20128639973700046539306640625">
        <ele>944.4000244140625</ele>
        <time>2019-07-07T09:39:51.000Z</time>
      </trkpt>
      <trkpt lat="40.3435411490499973297119140625" lon="-1.20108674280345439910888671875">
        <ele>941.20001220703125</ele>
        <time>2019-07-07T09:39:52.000Z</time>
      </trkpt>
      <trkpt lat="40.34375899471342563629150390625" lon="-1.2008918635547161102294921875">
        <ele>939</ele>
        <time>2019-07-07T09:39:53.000Z</time>
      </trkpt>
      <trkpt lat="40.34397910349071025848388671875" lon="-1.20070570148527622222900390625">
        <ele>936.79998779296875</ele>
        <time>2019-07-07T09:39:54.000Z</time>
      </trkpt>
      <trkpt lat="40.34420214593410491943359375" lon="-1.20053404010832309722900390625">
        <ele>935.5999755859375</ele>
        <time>2019-07-07T09:39:55.000Z</time>
      </trkpt>
      <trkpt lat="40.34442854113876819610595703125" lon="-1.20037578977644443511962890625">
        <ele>934.20001220703125</ele>
        <time>2019-07-07T09:39:56.000Z</time>
      </trkpt>
      <trkpt lat="40.3446562774479389190673828125" lon="-1.200227178633213043212890625">
        <ele>932.79998779296875</ele>
        <time>2019-07-07T09:39:57.000Z</time>
      </trkpt>
      <trkpt lat="40.34488300792872905731201171875" lon="-1.20008133351802825927734375">
        <ele>931.79998779296875</ele>
        <time>2019-07-07T09:39:58.000Z</time>
      </trkpt>
      <trkpt lat="40.34510395489633083343505859375" lon="-1.199924759566783905029296875">
        <ele>930.20001220703125</ele>
        <time>2019-07-07T09:39:59.000Z</time>
      </trkpt>
      <trkpt lat="40.34531283192336559295654296875" lon="-1.19974412955343723297119140625">
        <ele>928.5999755859375</ele>
        <time>2019-07-07T09:40:00.000Z</time>
      </trkpt>
      <trkpt lat="40.34570217132568359375" lon="-1.1993281356990337371826171875">
        <ele>926.79998779296875</ele>
        <time>2019-07-07T09:40:02.000Z</time>
      </trkpt>
      <trkpt lat="40.3458914346992969512939453125" lon="-1.19911096058785915374755859375">
        <ele>925.5999755859375</ele>
        <time>2019-07-07T09:40:03.000Z</time>
      </trkpt>
      <trkpt lat="40.34607726149260997772216796875" lon="-1.1988924443721771240234375">
        <ele>924.20001220703125</ele>
        <time>2019-07-07T09:40:04.000Z</time>
      </trkpt>
      <trkpt lat="40.3462562151253223419189453125" lon="-1.1986703239381313323974609375">
        <ele>922.79998779296875</ele>
        <time>2019-07-07T09:40:05.000Z</time>
      </trkpt>
      <trkpt lat="40.3465931676328182220458984375" lon="-1.19819783605635166168212890625">
        <ele>921.20001220703125</ele>
        <time>2019-07-07T09:40:07.000Z</time>
      </trkpt>
      <trkpt lat="40.3467495739459991455078125" lon="-1.19793422520160675048828125">
        <ele>919.79998779296875</ele>
        <time>2019-07-07T09:40:08.000Z</time>
      </trkpt>
      <trkpt lat="40.34703916870057582855224609375" lon="-1.1973774991929531097412109375">
        <ele>918.20001220703125</ele>
        <time>2019-07-07T09:40:10.000Z</time>
      </trkpt>
      <trkpt lat="40.34730521030724048614501953125" lon="-1.1968477629125118255615234375">
        <ele>917.20001220703125</ele>
        <time>2019-07-07T09:40:12.000Z</time>
      </trkpt>
      <trkpt lat="40.34758315421640872955322265625" lon="-1.1963582597672939300537109375">
        <ele>916.79998779296875</ele>
        <time>2019-07-07T09:40:14.000Z</time>
      </trkpt>
      <trkpt lat="40.34788121469318866729736328125" lon="-1.1959140188992023468017578125">
        <ele>916.5999755859375</ele>
        <time>2019-07-07T09:40:16.000Z</time>
      </trkpt>
      <trkpt lat="40.3483526967465877532958984375" lon="-1.19528965093195438385009765625">
        <ele>916.20001220703125</ele>
        <time>2019-07-07T09:40:19.000Z</time>
      </trkpt>
      <trkpt lat="40.348513461649417877197265625" lon="-1.195093430578708648681640625">
        <ele>916</ele>
        <time>2019-07-07T09:40:20.000Z</time>
      </trkpt>
      <trkpt lat="40.3488137014210224151611328125" lon="-1.1947053484618663787841796875">
        <ele>914.79998779296875</ele>
        <time>2019-07-07T09:40:22.000Z</time>
      </trkpt>
      <trkpt lat="40.349087454378604888916015625" lon="-1.19429237209260463714599609375">
        <ele>913</ele>
        <time>2019-07-07T09:40:24.000Z</time>
      </trkpt>
      <trkpt lat="40.34921921789646148681640625" lon="-1.1940807290375232696533203125">
        <ele>911.5999755859375</ele>
        <time>2019-07-07T09:40:25.000Z</time>
      </trkpt>
      <trkpt lat="40.34947377629578113555908203125" lon="-1.19366138242185115814208984375">
        <ele>910.20001220703125</ele>
        <time>2019-07-07T09:40:27.000Z</time>
      </trkpt>
      <trkpt lat="40.349725149571895599365234375" lon="-1.1932442151010036468505859375">
        <ele>909</ele>
        <time>2019-07-07T09:40:29.000Z</time>
      </trkpt>
      <trkpt lat="40.3501640260219573974609375" lon="-1.1926992237567901611328125">
        <ele>907.5999755859375</ele>
        <time>2019-07-07T09:40:32.000Z</time>
      </trkpt>
      <trkpt lat="40.35043769516050815582275390625" lon="-1.1924191005527973175048828125">
        <ele>906.20001220703125</ele>
        <time>2019-07-07T09:40:34.000Z</time>
      </trkpt>
      <trkpt lat="40.350803397595882415771484375" lon="-1.19204803369939327239990234375">
        <ele>906</ele>
        <time>2019-07-07T09:40:37.000Z</time>
      </trkpt>
      <trkpt lat="40.35123758018016815185546875" lon="-1.19154880754649639129638671875">
        <ele>904.79998779296875</ele>
        <time>2019-07-07T09:40:41.000Z</time>
      </trkpt>
      <trkpt lat="40.3515458665788173675537109375" lon="-1.191115714609622955322265625">
        <ele>903.5999755859375</ele>
        <time>2019-07-07T09:40:44.000Z</time>
      </trkpt>
      <trkpt lat="40.35189078189432621002197265625" lon="-1.19047055952250957489013671875">
        <ele>902.4000244140625</ele>
        <time>2019-07-07T09:40:48.000Z</time>
      </trkpt>
      <trkpt lat="40.35216436721384525299072265625" lon="-1.18998055346310138702392578125">
        <ele>902.20001220703125</ele>
        <time>2019-07-07T09:40:51.000Z</time>
      </trkpt>
      <trkpt lat="40.35235430113971233367919921875" lon="-1.18965818546712398529052734375">
        <ele>901.20001220703125</ele>
        <time>2019-07-07T09:40:53.000Z</time>
      </trkpt>
      <trkpt lat="40.352565608918666839599609375" lon="-1.18936414830386638641357421875">
        <ele>900</ele>
        <time>2019-07-07T09:40:55.000Z</time>
      </trkpt>
      <trkpt lat="40.35295796580612659454345703125" lon="-1.18900825269520282745361328125">
        <ele>899.20001220703125</ele>
        <time>2019-07-07T09:40:58.000Z</time>
      </trkpt>
      <trkpt lat="40.3530981950461864471435546875" lon="-1.1888936720788478851318359375">
        <ele>898.79998779296875</ele>
        <time>2019-07-07T09:40:59.000Z</time>
      </trkpt>
      <trkpt lat="40.35350966267287731170654296875" lon="-1.1884988844394683837890625">
        <ele>897.4000244140625</ele>
        <time>2019-07-07T09:41:02.000Z</time>
      </trkpt>
      <trkpt lat="40.35364461131393909454345703125" lon="-1.18836871348321437835693359375">
        <ele>896.20001220703125</ele>
        <time>2019-07-07T09:41:03.000Z</time>
      </trkpt>
      <trkpt lat="40.35378358326852321624755859375" lon="-1.18824700824916362762451171875">
        <ele>894.20001220703125</ele>
        <time>2019-07-07T09:41:04.000Z</time>
      </trkpt>
      <trkpt lat="40.3539266623556613922119140625" lon="-1.188132762908935546875">
        <ele>892</ele>
        <time>2019-07-07T09:41:05.000Z</time>
      </trkpt>
      <trkpt lat="40.35422212444245815277099609375" lon="-1.1879227124154567718505859375">
        <ele>890.4000244140625</ele>
        <time>2019-07-07T09:41:07.000Z</time>
      </trkpt>
      <trkpt lat="40.35451062954962253570556640625" lon="-1.18770964443683624267578125">
        <ele>888.5999755859375</ele>
        <time>2019-07-07T09:41:09.000Z</time>
      </trkpt>
      <trkpt lat="40.3546381182968616485595703125" lon="-1.18757461197674274444580078125">
        <ele>887.5999755859375</ele>
        <time>2019-07-07T09:41:10.000Z</time>
      </trkpt>
      <trkpt lat="40.35474197007715702056884765625" lon="-1.187415607273578643798828125">
        <ele>886.4000244140625</ele>
        <time>2019-07-07T09:41:11.000Z</time>
      </trkpt>
      <trkpt lat="40.35482277162373065948486328125" lon="-1.18723296560347080230712890625">
        <ele>885.20001220703125</ele>
        <time>2019-07-07T09:41:12.000Z</time>
      </trkpt>
      <trkpt lat="40.3548848815262317657470703125" lon="-1.18703305721282958984375">
        <ele>884</ele>
        <time>2019-07-07T09:41:13.000Z</time>
      </trkpt>
      <trkpt lat="40.35499258898198604583740234375" lon="-1.186622343957424163818359375">
        <ele>882.5999755859375</ele>
        <time>2019-07-07T09:41:15.000Z</time>
      </trkpt>
      <trkpt lat="40.35505863837897777557373046875" lon="-1.18642545305192470550537109375">
        <ele>881.79998779296875</ele>
        <time>2019-07-07T09:41:16.000Z</time>
      </trkpt>
      <trkpt lat="40.3551380150020122528076171875" lon="-1.18624373339116573333740234375">
        <ele>880.5999755859375</ele>
        <time>2019-07-07T09:41:17.000Z</time>
      </trkpt>
      <trkpt lat="40.35523138940334320068359375" lon="-1.18608665652573108673095703125">
        <ele>879</ele>
        <time>2019-07-07T09:41:18.000Z</time>
      </trkpt>
      <trkpt lat="40.35533959977328777313232421875" lon="-1.1859620176255702972412109375">
        <ele>877.4000244140625</ele>
        <time>2019-07-07T09:41:19.000Z</time>
      </trkpt>
      <trkpt lat="40.35556130111217498779296875" lon="-1.1857759393751621246337890625">
        <ele>876.20001220703125</ele>
        <time>2019-07-07T09:41:21.000Z</time>
      </trkpt>
      <trkpt lat="40.355656184256076812744140625" lon="-1.18568918667733669281005859375">
        <ele>875.79998779296875</ele>
        <time>2019-07-07T09:41:22.000Z</time>
      </trkpt>
      <trkpt lat="40.3557814098894596099853515625" lon="-1.18545801378786563873291015625">
        <ele>875.4000244140625</ele>
        <time>2019-07-07T09:41:24.000Z</time>
      </trkpt>
      <trkpt lat="40.35583245567977428436279296875" lon="-1.1851271800696849822998046875">
        <ele>875.79998779296875</ele>
        <time>2019-07-07T09:41:26.000Z</time>
      </trkpt>
      <trkpt lat="40.35583429969847202301025390625" lon="-1.18476457893848419189453125">
        <ele>875.20001220703125</ele>
        <time>2019-07-07T09:41:28.000Z</time>
      </trkpt>
      <trkpt lat="40.35583144985139369964599609375" lon="-1.18459249846637248992919921875">
        <ele>874</ele>
        <time>2019-07-07T09:41:29.000Z</time>
      </trkpt>
      <trkpt lat="40.355827510356903076171875" lon="-1.18442553095519542694091796875">
        <ele>872.20001220703125</ele>
        <time>2019-07-07T09:41:30.000Z</time>
      </trkpt>
      <trkpt lat="40.35582088865339756011962890625" lon="-1.18426610715687274932861328125">
        <ele>870.20001220703125</ele>
        <time>2019-07-07T09:41:31.000Z</time>
      </trkpt>
      <trkpt lat="40.3558142669498920440673828125" lon="-1.1841179989278316497802734375">
        <ele>868.79998779296875</ele>
        <time>2019-07-07T09:41:32.000Z</time>
      </trkpt>
      <trkpt lat="40.3558100759983062744140625" lon="-1.18397894315421581268310546875">
        <ele>867.5999755859375</ele>
        <time>2019-07-07T09:41:33.000Z</time>
      </trkpt>
      <trkpt lat="40.3558166138827800750732421875" lon="-1.183721534907817840576171875">
        <ele>866</ele>
        <time>2019-07-07T09:41:35.000Z</time>
      </trkpt>
      <trkpt lat="40.3558648936450481414794921875" lon="-1.1835158430039882659912109375">
        <ele>864.5999755859375</ele>
        <time>2019-07-07T09:41:37.000Z</time>
      </trkpt>
      <trkpt lat="40.355970673263072967529296875" lon="-1.183386929333209991455078125">
        <ele>862.79998779296875</ele>
        <time>2019-07-07T09:41:39.000Z</time>
      </trkpt>
      <trkpt lat="40.3561418317258358001708984375" lon="-1.1833455227315425872802734375">
        <ele>861.5999755859375</ele>
        <time>2019-07-07T09:41:41.000Z</time>
      </trkpt>
      <trkpt lat="40.35643511451780796051025390625" lon="-1.18340310640633106231689453125">
        <ele>860</ele>
        <time>2019-07-07T09:41:44.000Z</time>
      </trkpt>
      <trkpt lat="40.3565984778106212615966796875" lon="-1.18344090878963470458984375">
        <ele>858.79998779296875</ele>
        <time>2019-07-07T09:41:46.000Z</time>
      </trkpt>
      <trkpt lat="40.35673208534717559814453125" lon="-1.18347384966909885406494140625">
        <ele>858.20001220703125</ele>
        <time>2019-07-07T09:41:48.000Z</time>
      </trkpt>
      <trkpt lat="40.356832332909107208251953125" lon="-1.1833971552550792694091796875">
        <ele>858</ele>
        <time>2019-07-07T09:41:50.000Z</time>
      </trkpt>
      <trkpt lat="40.35689561627805233001708984375" lon="-1.18318685330450534820556640625">
        <ele>858.20001220703125</ele>
        <time>2019-07-07T09:41:52.000Z</time>
      </trkpt>
      <trkpt lat="40.35698354244232177734375" lon="-1.182588636875152587890625">
        <ele>858.4000244140625</ele>
        <time>2019-07-07T09:41:57.000Z</time>
      </trkpt>
      <trkpt lat="40.35701581276953220367431640625" lon="-1.1824746429920196533203125">
        <ele>858.4000244140625</ele>
        <time>2019-07-07T09:41:58.000Z</time>
      </trkpt>
      <trkpt lat="40.3572522662580013275146484375" lon="-1.1819584853947162628173828125">
        <ele>858.4000244140625</ele>
        <time>2019-07-07T09:42:02.000Z</time>
      </trkpt>
      <trkpt lat="40.35749249160289764404296875" lon="-1.1812772043049335479736328125">
        <ele>858</ele>
        <time>2019-07-07T09:42:06.000Z</time>
      </trkpt>
      <trkpt lat="40.35776230506598949432373046875" lon="-1.18069164454936981201171875">
        <ele>857.79998779296875</ele>
        <time>2019-07-07T09:42:09.000Z</time>
      </trkpt>
      <trkpt lat="40.35793933086097240447998046875" lon="-1.1801493354141712188720703125">
        <ele>858</ele>
        <time>2019-07-07T09:42:12.000Z</time>
      </trkpt>
      <trkpt lat="40.35811652429401874542236328125" lon="-1.17952295579016208648681640625">
        <ele>857.79998779296875</ele>
        <time>2019-07-07T09:42:16.000Z</time>
      </trkpt>
      <trkpt lat="40.35815541632473468780517578125" lon="-1.17938683368265628814697265625">
        <ele>857.79998779296875</ele>
        <time>2019-07-07T09:42:17.000Z</time>
      </trkpt>
      <trkpt lat="40.35820906050503253936767578125" lon="-1.17912883870303630828857421875">
        <ele>857.4000244140625</ele>
        <time>2019-07-07T09:42:19.000Z</time>
      </trkpt>
      <trkpt lat="40.3582071326673030853271484375" lon="-1.1788749508559703826904296875">
        <ele>857</ele>
        <time>2019-07-07T09:42:21.000Z</time>
      </trkpt>
      <trkpt lat="40.35814820788800716400146484375" lon="-1.17817581631243228912353515625">
        <ele>856.79998779296875</ele>
        <time>2019-07-07T09:42:26.000Z</time>
      </trkpt>
      <trkpt lat="40.35813781432807445526123046875" lon="-1.17802041582763195037841796875">
        <ele>856.20001220703125</ele>
        <time>2019-07-07T09:42:27.000Z</time>
      </trkpt>
      <trkpt lat="40.35806388594210147857666015625" lon="-1.1773933656513690948486328125">
        <ele>855.4000244140625</ele>
        <time>2019-07-07T09:42:31.000Z</time>
      </trkpt>
      <trkpt lat="40.35807210020720958709716796875" lon="-1.177073679864406585693359375">
        <ele>855.20001220703125</ele>
        <time>2019-07-07T09:42:33.000Z</time>
      </trkpt>
      <trkpt lat="40.35813446156680583953857421875" lon="-1.17666841484606266021728515625">
        <ele>855</ele>
        <time>2019-07-07T09:42:36.000Z</time>
      </trkpt>
      <trkpt lat="40.35829849541187286376953125" lon="-1.1759831942617893218994140625">
        <ele>856</ele>
        <time>2019-07-07T09:42:42.000Z</time>
      </trkpt>
      <trkpt lat="40.358326323330402374267578125" lon="-1.1758477427065372467041015625">
        <ele>856.20001220703125</ele>
        <time>2019-07-07T09:42:43.000Z</time>
      </trkpt>
      <trkpt lat="40.35842531360685825347900390625" lon="-1.17523293010890483856201171875">
        <ele>855.79998779296875</ele>
        <time>2019-07-07T09:42:47.000Z</time>
      </trkpt>
      <trkpt lat="40.358439646661281585693359375" lon="-1.174704618752002716064453125">
        <ele>856</ele>
        <time>2019-07-07T09:42:51.000Z</time>
      </trkpt>
      <trkpt lat="40.35839664749801158905029296875" lon="-1.17443681694567203521728515625">
        <ele>858</ele>
        <time>2019-07-07T09:42:53.000Z</time>
      </trkpt>
      <trkpt lat="40.3583295084536075592041015625" lon="-1.1741294525563716888427734375">
        <ele>859.5999755859375</ele>
        <time>2019-07-07T09:42:55.000Z</time>
      </trkpt>
      <trkpt lat="40.3582691587507724761962890625" lon="-1.1737847886979579925537109375">
        <ele>861.20001220703125</ele>
        <time>2019-07-07T09:42:57.000Z</time>
      </trkpt>
      <trkpt lat="40.3582611121237277984619140625" lon="-1.17342017590999603271484375">
        <ele>863.20001220703125</ele>
        <time>2019-07-07T09:42:59.000Z</time>
      </trkpt>
      <trkpt lat="40.3582788817584514617919921875" lon="-1.17323334328830242156982421875">
        <ele>864.20001220703125</ele>
        <time>2019-07-07T09:43:00.000Z</time>
      </trkpt>
      <trkpt lat="40.3583137504756450653076171875" lon="-1.17304910905659198760986328125">
        <ele>865.20001220703125</ele>
        <time>2019-07-07T09:43:01.000Z</time>
      </trkpt>
      <trkpt lat="40.35836479626595973968505859375" lon="-1.17287174798548221588134765625">
        <ele>866.5999755859375</ele>
        <time>2019-07-07T09:43:02.000Z</time>
      </trkpt>
      <trkpt lat="40.35843570716679096221923828125" lon="-1.17270075716078281402587890625">
        <ele>867.5999755859375</ele>
        <time>2019-07-07T09:43:03.000Z</time>
      </trkpt>
      <trkpt lat="40.358626060187816619873046875" lon="-1.172359697520732879638671875">
        <ele>869.20001220703125</ele>
        <time>2019-07-07T09:43:05.000Z</time>
      </trkpt>
      <trkpt lat="40.35885027609765529632568359375" lon="-1.172007657587528228759765625">
        <ele>870.20001220703125</ele>
        <time>2019-07-07T09:43:07.000Z</time>
      </trkpt>
      <trkpt lat="40.35918739624321460723876953125" lon="-1.1713810265064239501953125">
        <ele>871.20001220703125</ele>
        <time>2019-07-07T09:43:10.000Z</time>
      </trkpt>
      <trkpt lat="40.35928093828260898590087890625" lon="-1.17113116197288036346435546875">
        <ele>872</ele>
        <time>2019-07-07T09:43:11.000Z</time>
      </trkpt>
      <trkpt lat="40.359384119510650634765625" lon="-1.1705668084323406219482421875">
        <ele>873.79998779296875</ele>
        <time>2019-07-07T09:43:13.000Z</time>
      </trkpt>
      <trkpt lat="40.35939392633736133575439453125" lon="-1.1702620424330234527587890625">
        <ele>875</ele>
        <time>2019-07-07T09:43:14.000Z</time>
      </trkpt>
      <trkpt lat="40.35932301543653011322021484375" lon="-1.16924825124442577362060546875">
        <ele>875.79998779296875</ele>
        <time>2019-07-07T09:43:17.000Z</time>
      </trkpt>
      <trkpt lat="40.35924799740314483642578125" lon="-1.16849698126316070556640625">
        <ele>875.20001220703125</ele>
        <time>2019-07-07T09:43:19.000Z</time>
      </trkpt>
      <trkpt lat="40.3591735661029815673828125" lon="-1.16772877983748912811279296875">
        <ele>874.20001220703125</ele>
        <time>2019-07-07T09:43:21.000Z</time>
      </trkpt>
      <trkpt lat="40.359132997691631317138671875" lon="-1.16734824143350124359130859375">
        <ele>873</ele>
        <time>2019-07-07T09:43:22.000Z</time>
      </trkpt>
      <trkpt lat="40.3590242005884647369384765625" lon="-1.166610382497310638427734375">
        <ele>872</ele>
        <time>2019-07-07T09:43:24.000Z</time>
      </trkpt>
      <trkpt lat="40.35887894220650196075439453125" lon="-1.16590001620352268218994140625">
        <ele>872</ele>
        <time>2019-07-07T09:43:26.000Z</time>
      </trkpt>
      <trkpt lat="40.35871381871402263641357421875" lon="-1.1652094312012195587158203125">
        <ele>873.5999755859375</ele>
        <time>2019-07-07T09:43:28.000Z</time>
      </trkpt>
      <trkpt lat="40.358521454036235809326171875" lon="-1.1645298264920711517333984375">
        <ele>874.20001220703125</ele>
        <time>2019-07-07T09:43:30.000Z</time>
      </trkpt>
      <trkpt lat="40.358292125165462493896484375" lon="-1.16385181434452533721923828125">
        <ele>874.4000244140625</ele>
        <time>2019-07-07T09:43:32.000Z</time>
      </trkpt>
      <trkpt lat="40.35804511047899723052978515625" lon="-1.16317011415958404541015625">
        <ele>873.79998779296875</ele>
        <time>2019-07-07T09:43:34.000Z</time>
      </trkpt>
      <trkpt lat="40.3578205592930316925048828125" lon="-1.16246293298900127410888671875">
        <ele>872.4000244140625</ele>
        <time>2019-07-07T09:43:36.000Z</time>
      </trkpt>
      <trkpt lat="40.3576281107962131500244140625" lon="-1.16172415204346179962158203125">
        <ele>871.5999755859375</ele>
        <time>2019-07-07T09:43:38.000Z</time>
      </trkpt>
      <trkpt lat="40.357536412775516510009765625" lon="-1.1613477207720279693603515625">
        <ele>870.79998779296875</ele>
        <time>2019-07-07T09:43:39.000Z</time>
      </trkpt>
      <trkpt lat="40.35744496621191501617431640625" lon="-1.16096877492964267730712890625">
        <ele>869.79998779296875</ele>
        <time>2019-07-07T09:43:40.000Z</time>
      </trkpt>
      <trkpt lat="40.357262827455997467041015625" lon="-1.1602067761123180389404296875">
        <ele>867.4000244140625</ele>
        <time>2019-07-07T09:43:42.000Z</time>
      </trkpt>
      <trkpt lat="40.35707917995750904083251953125" lon="-1.15943849086761474609375">
        <ele>866</ele>
        <time>2019-07-07T09:43:44.000Z</time>
      </trkpt>
      <trkpt lat="40.356882624328136444091796875" lon="-1.158668696880340576171875">
        <ele>867.4000244140625</ele>
        <time>2019-07-07T09:43:46.000Z</time>
      </trkpt>
      <trkpt lat="40.35666293464601039886474609375" lon="-1.1579027585685253143310546875">
        <ele>867.5999755859375</ele>
        <time>2019-07-07T09:43:48.000Z</time>
      </trkpt>
      <trkpt lat="40.35642170347273349761962890625" lon="-1.15714645944535732269287109375">
        <ele>867.20001220703125</ele>
        <time>2019-07-07T09:43:50.000Z</time>
      </trkpt>
      <trkpt lat="40.356304608285427093505859375" lon="-1.15676692686975002288818359375">
        <ele>865.79998779296875</ele>
        <time>2019-07-07T09:43:51.000Z</time>
      </trkpt>
      <trkpt lat="40.35609346814453601837158203125" lon="-1.1559950374066829681396484375">
        <ele>864.4000244140625</ele>
        <time>2019-07-07T09:43:53.000Z</time>
      </trkpt>
      <trkpt lat="40.35593220032751560211181640625" lon="-1.1552068032324314117431640625">
        <ele>862.4000244140625</ele>
        <time>2019-07-07T09:43:55.000Z</time>
      </trkpt>
      <trkpt lat="40.35579524002969264984130859375" lon="-1.1544212512671947479248046875">
        <ele>861.4000244140625</ele>
        <time>2019-07-07T09:43:57.000Z</time>
      </trkpt>
      <trkpt lat="40.3557317890226840972900390625" lon="-1.15403375588357448577880859375">
        <ele>861.20001220703125</ele>
        <time>2019-07-07T09:43:58.000Z</time>
      </trkpt>
      <trkpt lat="40.35567219369113445281982421875" lon="-1.1536507867276668548583984375">
        <ele>860</ele>
        <time>2019-07-07T09:43:59.000Z</time>
      </trkpt>
      <trkpt lat="40.35555568523705005645751953125" lon="-1.1528987623751163482666015625">
        <ele>858.5999755859375</ele>
        <time>2019-07-07T09:44:01.000Z</time>
      </trkpt>
      <trkpt lat="40.3554404340684413909912109375" lon="-1.1521692015230655670166015625">
        <ele>858</ele>
        <time>2019-07-07T09:44:03.000Z</time>
      </trkpt>
      <trkpt lat="40.3553331457078456878662109375" lon="-1.1514600925147533416748046875">
        <ele>859.20001220703125</ele>
        <time>2019-07-07T09:44:05.000Z</time>
      </trkpt>
      <trkpt lat="40.35528109408915042877197265625" lon="-1.15110411308705806732177734375">
        <ele>860</ele>
        <time>2019-07-07T09:44:06.000Z</time>
      </trkpt>
      <trkpt lat="40.35517414100468158721923828125" lon="-1.15037329494953155517578125">
        <ele>861</ele>
        <time>2019-07-07T09:44:08.000Z</time>
      </trkpt>
      <trkpt lat="40.355124771595001220703125" lon="-1.149998120963573455810546875">
        <ele>861.4000244140625</ele>
        <time>2019-07-07T09:44:09.000Z</time>
      </trkpt>
      <trkpt lat="40.35503022372722625732421875" lon="-1.14923796616494655609130859375">
        <ele>862</ele>
        <time>2019-07-07T09:44:11.000Z</time>
      </trkpt>
      <trkpt lat="40.3549405373632907867431640625" lon="-1.14848443306982517242431640625">
        <ele>862.20001220703125</ele>
        <time>2019-07-07T09:44:13.000Z</time>
      </trkpt>
      <trkpt lat="40.35489971749484539031982421875" lon="-1.14811143837869167327880859375">
        <ele>862.79998779296875</ele>
        <time>2019-07-07T09:44:14.000Z</time>
      </trkpt>
      <trkpt lat="40.35481774248182773590087890625" lon="-1.1473697237670421600341796875">
        <ele>863.4000244140625</ele>
        <time>2019-07-07T09:44:16.000Z</time>
      </trkpt>
      <trkpt lat="40.35472705028951168060302734375" lon="-1.14663136191666126251220703125">
        <ele>864.20001220703125</ele>
        <time>2019-07-07T09:44:18.000Z</time>
      </trkpt>
      <trkpt lat="40.35463820211589336395263671875" lon="-1.145893670618534088134765625">
        <ele>864</ele>
        <time>2019-07-07T09:44:20.000Z</time>
      </trkpt>
      <trkpt lat="40.35455572418868541717529296875" lon="-1.1451652832329273223876953125">
        <ele>863.5999755859375</ele>
        <time>2019-07-07T09:44:22.000Z</time>
      </trkpt>
      <trkpt lat="40.354468636214733123779296875" lon="-1.14445240236818790435791015625">
        <ele>862.20001220703125</ele>
        <time>2019-07-07T09:44:24.000Z</time>
      </trkpt>
      <trkpt lat="40.35442077554762363433837890625" lon="-1.144101619720458984375">
        <ele>861</ele>
        <time>2019-07-07T09:44:25.000Z</time>
      </trkpt>
      <trkpt lat="40.3543169237673282623291015625" lon="-1.1434030719101428985595703125">
        <ele>860.20001220703125</ele>
        <time>2019-07-07T09:44:27.000Z</time>
      </trkpt>
      <trkpt lat="40.35426403395831584930419921875" lon="-1.14305019378662109375">
        <ele>859.5999755859375</ele>
        <time>2019-07-07T09:44:28.000Z</time>
      </trkpt>
      <trkpt lat="40.35414953716099262237548828125" lon="-1.1423328705132007598876953125">
        <ele>859.4000244140625</ele>
        <time>2019-07-07T09:44:30.000Z</time>
      </trkpt>
      <trkpt lat="40.35401945002377033233642578125" lon="-1.14160808734595775604248046875">
        <ele>860.4000244140625</ele>
        <time>2019-07-07T09:44:32.000Z</time>
      </trkpt>
      <trkpt lat="40.35395038314163684844970703125" lon="-1.14124733023345470428466796875">
        <ele>860.79998779296875</ele>
        <time>2019-07-07T09:44:33.000Z</time>
      </trkpt>
      <trkpt lat="40.35381711088120937347412109375" lon="-1.1405435018241405487060546875">
        <ele>859</ele>
        <time>2019-07-07T09:44:35.000Z</time>
      </trkpt>
      <trkpt lat="40.35375826992094516754150390625" lon="-1.14021048881113529205322265625">
        <ele>855.4000244140625</ele>
        <time>2019-07-07T09:44:36.000Z</time>
      </trkpt>
      <trkpt lat="40.35370378755033016204833984375" lon="-1.13988745026290416717529296875">
        <ele>850.79998779296875</ele>
        <time>2019-07-07T09:44:37.000Z</time>
      </trkpt>
      <trkpt lat="40.3536510653793811798095703125" lon="-1.1395675130188465118408203125">
        <ele>848</ele>
        <time>2019-07-07T09:44:38.000Z</time>
      </trkpt>
      <trkpt lat="40.353601612150669097900390625" lon="-1.139248497784137725830078125">
        <ele>846.4000244140625</ele>
        <time>2019-07-07T09:44:39.000Z</time>
      </trkpt>
      <trkpt lat="40.3535219840705394744873046875" lon="-1.13860778510570526123046875">
        <ele>846.79998779296875</ele>
        <time>2019-07-07T09:44:41.000Z</time>
      </trkpt>
      <trkpt lat="40.35349071957170963287353515625" lon="-1.13828667439520359039306640625">
        <ele>849</ele>
        <time>2019-07-07T09:44:42.000Z</time>
      </trkpt>
      <trkpt lat="40.35346507094800472259521484375" lon="-1.13796631805598735809326171875">
        <ele>852</ele>
        <time>2019-07-07T09:44:43.000Z</time>
      </trkpt>
      <trkpt lat="40.353446044027805328369140625" lon="-1.1376443691551685333251953125">
        <ele>853.4000244140625</ele>
        <time>2019-07-07T09:44:44.000Z</time>
      </trkpt>
      <trkpt lat="40.3534522466361522674560546875" lon="-1.13701983354985713958740234375">
        <ele>854</ele>
        <time>2019-07-07T09:44:46.000Z</time>
      </trkpt>
      <trkpt lat="40.3534995205700397491455078125" lon="-1.13628390245139598846435546875">
        <ele>851.79998779296875</ele>
        <time>2019-07-07T09:44:49.000Z</time>
      </trkpt>
      <trkpt lat="40.3535239957273006439208984375" lon="-1.1359311081469058990478515625">
        <ele>850.4000244140625</ele>
        <time>2019-07-07T09:44:51.000Z</time>
      </trkpt>
      <trkpt lat="40.35358325578272342681884765625" lon="-1.1353437043726444244384765625">
        <ele>850.4000244140625</ele>
        <time>2019-07-07T09:44:55.000Z</time>
      </trkpt>
      <trkpt lat="40.35360387526452541351318359375" lon="-1.134742386639118194580078125">
        <ele>851.5999755859375</ele>
        <time>2019-07-07T09:45:01.000Z</time>
      </trkpt>
      <trkpt lat="40.35356950946152210235595703125" lon="-1.13419194705784320831298828125">
        <ele>852.5999755859375</ele>
        <time>2019-07-07T09:45:08.000Z</time>
      </trkpt>
      <trkpt lat="40.35354151390492916107177734375" lon="-1.13406621851027011871337890625">
        <ele>852.79998779296875</ele>
        <time>2019-07-07T09:45:09.000Z</time>
      </trkpt>
      <trkpt lat="40.35334537737071514129638671875" lon="-1.13351586274802684783935546875">
        <ele>854.20001220703125</ele>
        <time>2019-07-07T09:45:13.000Z</time>
      </trkpt>
      <trkpt lat="40.35320632159709930419921875" lon="-1.13306961022317409515380859375">
        <ele>855.4000244140625</ele>
        <time>2019-07-07T09:45:16.000Z</time>
      </trkpt>
      <trkpt lat="40.35317790694534778594970703125" lon="-1.13291488029062747955322265625">
        <ele>855.79998779296875</ele>
        <time>2019-07-07T09:45:17.000Z</time>
      </trkpt>
      <trkpt lat="40.35315074957907199859619140625" lon="-1.13225321285426616668701171875">
        <ele>854.20001220703125</ele>
        <time>2019-07-07T09:45:21.000Z</time>
      </trkpt>
      <trkpt lat="40.35318427719175815582275390625" lon="-1.13173889927566051483154296875">
        <ele>853</ele>
        <time>2019-07-07T09:45:24.000Z</time>
      </trkpt>
      <trkpt lat="40.35329139791429042816162109375" lon="-1.1311299540102481842041015625">
        <ele>852.5999755859375</ele>
        <time>2019-07-07T09:45:28.000Z</time>
      </trkpt>
      <trkpt lat="40.35334311425685882568359375" lon="-1.13081437535583972930908203125">
        <ele>852.79998779296875</ele>
        <time>2019-07-07T09:45:30.000Z</time>
      </trkpt>
      <trkpt lat="40.35334873013198375701904296875" lon="-1.13051279447972774505615234375">
        <ele>853.5999755859375</ele>
        <time>2019-07-07T09:45:32.000Z</time>
      </trkpt>
      <trkpt lat="40.3532983548939228057861328125" lon="-1.130232922732830047607421875">
        <ele>854</ele>
        <time>2019-07-07T09:45:34.000Z</time>
      </trkpt>
      <trkpt lat="40.35301999188959598541259765625" lon="-1.129677034914493560791015625">
        <ele>853.20001220703125</ele>
        <time>2019-07-07T09:45:38.000Z</time>
      </trkpt>
      <trkpt lat="40.35293432883918285369873046875" lon="-1.12953663803637027740478515625">
        <ele>852.4000244140625</ele>
        <time>2019-07-07T09:45:39.000Z</time>
      </trkpt>
      <trkpt lat="40.3527602367103099822998046875" lon="-1.1292567662894725799560546875">
        <ele>851.4000244140625</ele>
        <time>2019-07-07T09:45:41.000Z</time>
      </trkpt>
      <trkpt lat="40.35247047431766986846923828125" lon="-1.12883222289383411407470703125">
        <ele>850</ele>
        <time>2019-07-07T09:45:44.000Z</time>
      </trkpt>
      <trkpt lat="40.352283306419849395751953125" lon="-1.1285580508410930633544921875">
        <ele>848.5999755859375</ele>
        <time>2019-07-07T09:45:46.000Z</time>
      </trkpt>
      <trkpt lat="40.35209831781685352325439453125" lon="-1.12830533646047115325927734375">
        <ele>847.5999755859375</ele>
        <time>2019-07-07T09:45:48.000Z</time>
      </trkpt>
      <trkpt lat="40.3519032709300518035888671875" lon="-1.12806125544011592864990234375">
        <ele>846.4000244140625</ele>
        <time>2019-07-07T09:45:50.000Z</time>
      </trkpt>
      <trkpt lat="40.35159255377948284149169921875" lon="-1.127685494720935821533203125">
        <ele>845.20001220703125</ele>
        <time>2019-07-07T09:45:53.000Z</time>
      </trkpt>
      <trkpt lat="40.35124151967465877532958984375" lon="-1.127314008772373199462890625">
        <ele>844.20001220703125</ele>
        <time>2019-07-07T09:45:56.000Z</time>
      </trkpt>
      <trkpt lat="40.35083658993244171142578125" lon="-1.12693992443382740020751953125">
        <ele>843.4000244140625</ele>
        <time>2019-07-07T09:45:59.000Z</time>
      </trkpt>
      <trkpt lat="40.35040165297687053680419921875" lon="-1.1266137845814228057861328125">
        <ele>842.5999755859375</ele>
        <time>2019-07-07T09:46:02.000Z</time>
      </trkpt>
      <trkpt lat="40.3501169197261333465576171875" lon="-1.1264139600098133087158203125">
        <ele>841.4000244140625</ele>
        <time>2019-07-07T09:46:04.000Z</time>
      </trkpt>
      <trkpt lat="40.349805615842342376708984375" lon="-1.1262027360498905181884765625">
        <ele>839.20001220703125</ele>
        <time>2019-07-07T09:46:06.000Z</time>
      </trkpt>
      <trkpt lat="40.3496374748647212982177734375" lon="-1.12609201110899448394775390625">
        <ele>837.5999755859375</ele>
        <time>2019-07-07T09:46:07.000Z</time>
      </trkpt>
      <trkpt lat="40.34946204163134098052978515625" lon="-1.12597600556910037994384765625">
        <ele>835.79998779296875</ele>
        <time>2019-07-07T09:46:08.000Z</time>
      </trkpt>
      <trkpt lat="40.34927948378026485443115234375" lon="-1.1258570663630962371826171875">
        <ele>834.4000244140625</ele>
        <time>2019-07-07T09:46:09.000Z</time>
      </trkpt>
      <trkpt lat="40.34909239970147609710693359375" lon="-1.125734858214855194091796875">
        <ele>833.20001220703125</ele>
        <time>2019-07-07T09:46:10.000Z</time>
      </trkpt>
      <trkpt lat="40.34871102310717105865478515625" lon="-1.12546705640852451324462890625">
        <ele>832</ele>
        <time>2019-07-07T09:46:12.000Z</time>
      </trkpt>
      <trkpt lat="40.348521173000335693359375" lon="-1.12532003782689571380615234375">
        <ele>830.20001220703125</ele>
        <time>2019-07-07T09:46:13.000Z</time>
      </trkpt>
      <trkpt lat="40.34833140671253204345703125" lon="-1.12516178749501705169677734375">
        <ele>828.4000244140625</ele>
        <time>2019-07-07T09:46:14.000Z</time>
      </trkpt>
      <trkpt lat="40.348144657909870147705078125" lon="-1.12499498762190341949462890625">
        <ele>826.5999755859375</ele>
        <time>2019-07-07T09:46:15.000Z</time>
      </trkpt>
      <trkpt lat="40.3479607589542865753173828125" lon="-1.124824248254299163818359375">
        <ele>825.20001220703125</ele>
        <time>2019-07-07T09:46:16.000Z</time>
      </trkpt>
      <trkpt lat="40.347779206931591033935546875" lon="-1.12464311532676219940185546875">
        <ele>824.20001220703125</ele>
        <time>2019-07-07T09:46:17.000Z</time>
      </trkpt>
      <trkpt lat="40.347435884177684783935546875" lon="-1.1242517642676830291748046875">
        <ele>821.79998779296875</ele>
        <time>2019-07-07T09:46:19.000Z</time>
      </trkpt>
      <trkpt lat="40.347281992435455322265625" lon="-1.12405219115316867828369140625">
        <ele>820.20001220703125</ele>
        <time>2019-07-07T09:46:20.000Z</time>
      </trkpt>
      <trkpt lat="40.34713916480541229248046875" lon="-1.12385085783898830413818359375">
        <ele>818.5999755859375</ele>
        <time>2019-07-07T09:46:21.000Z</time>
      </trkpt>
      <trkpt lat="40.34700237214565277099609375" lon="-1.12364483065903186798095703125">
        <ele>817.20001220703125</ele>
        <time>2019-07-07T09:46:22.000Z</time>
      </trkpt>
      <trkpt lat="40.3467487357556819915771484375" lon="-1.12322674132883548736572265625">
        <ele>815.79998779296875</ele>
        <time>2019-07-07T09:46:24.000Z</time>
      </trkpt>
      <trkpt lat="40.3464332409203052520751953125" lon="-1.1225782334804534912109375">
        <ele>815.5999755859375</ele>
        <time>2019-07-07T09:46:27.000Z</time>
      </trkpt>
      <trkpt lat="40.34625462256371974945068359375" lon="-1.12213541753590106964111328125">
        <ele>816.79998779296875</ele>
        <time>2019-07-07T09:46:29.000Z</time>
      </trkpt>
      <trkpt lat="40.34602604806423187255859375" lon="-1.1214414797723293304443359375">
        <ele>816.5999755859375</ele>
        <time>2019-07-07T09:46:32.000Z</time>
      </trkpt>
      <trkpt lat="40.34596008248627185821533203125" lon="-1.12119949422776699066162109375">
        <ele>814.79998779296875</ele>
        <time>2019-07-07T09:46:33.000Z</time>
      </trkpt>
      <trkpt lat="40.34590065479278564453125" lon="-1.12095608375966548919677734375">
        <ele>812.20001220703125</ele>
        <time>2019-07-07T09:46:34.000Z</time>
      </trkpt>
      <trkpt lat="40.34584709443151950836181640625" lon="-1.120711080729961395263671875">
        <ele>811</ele>
        <time>2019-07-07T09:46:35.000Z</time>
      </trkpt>
      <trkpt lat="40.345721282064914703369140625" lon="-1.12000398337841033935546875">
        <ele>812.79998779296875</ele>
        <time>2019-07-07T09:46:38.000Z</time>
      </trkpt>
      <trkpt lat="40.3456892631947994232177734375" lon="-1.11977272666990756988525390625">
        <ele>815</ele>
        <time>2019-07-07T09:46:39.000Z</time>
      </trkpt>
      <trkpt lat="40.3456617705523967742919921875" lon="-1.11953753046691417694091796875">
        <ele>817.4000244140625</ele>
        <time>2019-07-07T09:46:40.000Z</time>
      </trkpt>
      <trkpt lat="40.345633439719676971435546875" lon="-1.11929780803620815277099609375">
        <ele>818.5999755859375</ele>
        <time>2019-07-07T09:46:41.000Z</time>
      </trkpt>
      <trkpt lat="40.3455115668475627899169921875" lon="-1.1185617931187152862548828125">
        <ele>818.5999755859375</ele>
        <time>2019-07-07T09:46:44.000Z</time>
      </trkpt>
      <trkpt lat="40.34540235064923763275146484375" lon="-1.11806667409837245941162109375">
        <ele>819.5999755859375</ele>
        <time>2019-07-07T09:46:46.000Z</time>
      </trkpt>
      <trkpt lat="40.3451692499220371246337890625" lon="-1.11732982099056243896484375">
        <ele>820.20001220703125</ele>
        <time>2019-07-07T09:46:49.000Z</time>
      </trkpt>
      <trkpt lat="40.34484319388866424560546875" lon="-1.11665415577590465545654296875">
        <ele>819.20001220703125</ele>
        <time>2019-07-07T09:46:52.000Z</time>
      </trkpt>
      <trkpt lat="40.3447293676435947418212890625" lon="-1.11645315773785114288330078125">
        <ele>818.20001220703125</ele>
        <time>2019-07-07T09:46:53.000Z</time>
      </trkpt>
      <trkpt lat="40.34436467103660106658935546875" lon="-1.11591537483036518096923828125">
        <ele>817.5999755859375</ele>
        <time>2019-07-07T09:46:56.000Z</time>
      </trkpt>
      <trkpt lat="40.3442351706326007843017578125" lon="-1.11576299183070659637451171875">
        <ele>817</ele>
        <time>2019-07-07T09:46:57.000Z</time>
      </trkpt>
      <trkpt lat="40.3438244573771953582763671875" lon="-1.11535764299333095550537109375">
        <ele>818.20001220703125</ele>
        <time>2019-07-07T09:47:00.000Z</time>
      </trkpt>
      <trkpt lat="40.343390442430973052978515625" lon="-1.11502437852323055267333984375">
        <ele>818.5999755859375</ele>
        <time>2019-07-07T09:47:03.000Z</time>
      </trkpt>
      <trkpt lat="40.34310042858123779296875" lon="-1.1148422397673130035400390625">
        <ele>819.4000244140625</ele>
        <time>2019-07-07T09:47:05.000Z</time>
      </trkpt>
      <trkpt lat="40.34264235757291316986083984375" lon="-1.11459220759570598602294921875">
        <ele>819.20001220703125</ele>
        <time>2019-07-07T09:47:08.000Z</time>
      </trkpt>
      <trkpt lat="40.34218537621200084686279296875" lon="-1.11429414711892604827880859375">
        <ele>819.4000244140625</ele>
        <time>2019-07-07T09:47:11.000Z</time>
      </trkpt>
      <trkpt lat="40.34176343120634555816650390625" lon="-1.11396901309490203857421875">
        <ele>820.4000244140625</ele>
        <time>2019-07-07T09:47:14.000Z</time>
      </trkpt>
      <trkpt lat="40.3414039313793182373046875" lon="-1.11358755268156528472900390625">
        <ele>821.4000244140625</ele>
        <time>2019-07-07T09:47:17.000Z</time>
      </trkpt>
      <trkpt lat="40.341050215065479278564453125" lon="-1.113193519413471221923828125">
        <ele>821.20001220703125</ele>
        <time>2019-07-07T09:47:20.000Z</time>
      </trkpt>
      <trkpt lat="40.340924151241779327392578125" lon="-1.11306468956172466278076171875">
        <ele>822</ele>
        <time>2019-07-07T09:47:21.000Z</time>
      </trkpt>
      <trkpt lat="40.34052886068820953369140625" lon="-1.11267861910164356231689453125">
        <ele>823</ele>
        <time>2019-07-07T09:47:24.000Z</time>
      </trkpt>
      <trkpt lat="40.34039081074297428131103515625" lon="-1.11255674622952938079833984375">
        <ele>823</ele>
        <time>2019-07-07T09:47:25.000Z</time>
      </trkpt>
      <trkpt lat="40.33993475139141082763671875" lon="-1.1122586019337177276611328125">
        <ele>821.5999755859375</ele>
        <time>2019-07-07T09:47:28.000Z</time>
      </trkpt>
      <trkpt lat="40.339609198272228240966796875" lon="-1.11211669631302356719970703125">
        <ele>820</ele>
        <time>2019-07-07T09:47:30.000Z</time>
      </trkpt>
      <trkpt lat="40.33909195102751255035400390625" lon="-1.1119749583303928375244140625">
        <ele>818.79998779296875</ele>
        <time>2019-07-07T09:47:33.000Z</time>
      </trkpt>
      <trkpt lat="40.3385398350656032562255859375" lon="-1.1119531653821468353271484375">
        <ele>817.4000244140625</ele>
        <time>2019-07-07T09:47:36.000Z</time>
      </trkpt>
      <trkpt lat="40.33815770410001277923583984375" lon="-1.11200387589633464813232421875">
        <ele>815.20001220703125</ele>
        <time>2019-07-07T09:47:38.000Z</time>
      </trkpt>
      <trkpt lat="40.3377935104072093963623046875" lon="-1.1121218092739582061767578125">
        <ele>813.79998779296875</ele>
        <time>2019-07-07T09:47:40.000Z</time>
      </trkpt>
      <trkpt lat="40.3374397940933704376220703125" lon="-1.11228265799582004547119140625">
        <ele>812.4000244140625</ele>
        <time>2019-07-07T09:47:42.000Z</time>
      </trkpt>
      <trkpt lat="40.3369352035224437713623046875" lon="-1.1125945486128330230712890625">
        <ele>812.4000244140625</ele>
        <time>2019-07-07T09:47:45.000Z</time>
      </trkpt>
      <trkpt lat="40.33648635260760784149169921875" lon="-1.11299461685121059417724609375">
        <ele>812</ele>
        <time>2019-07-07T09:47:48.000Z</time>
      </trkpt>
      <trkpt lat="40.3362344764173030853271484375" lon="-1.11328546889126300811767578125">
        <ele>811.4000244140625</ele>
        <time>2019-07-07T09:47:50.000Z</time>
      </trkpt>
      <trkpt lat="40.33589241094887256622314453125" lon="-1.11377078108489513397216796875">
        <ele>811.4000244140625</ele>
        <time>2019-07-07T09:47:53.000Z</time>
      </trkpt>
      <trkpt lat="40.3356749005615711212158203125" lon="-1.1141126789152622222900390625">
        <ele>812.5999755859375</ele>
        <time>2019-07-07T09:47:55.000Z</time>
      </trkpt>
      <trkpt lat="40.335467197000980377197265625" lon="-1.114465557038784027099609375">
        <ele>814.20001220703125</ele>
        <time>2019-07-07T09:47:57.000Z</time>
      </trkpt>
      <trkpt lat="40.33525706268846988677978515625" lon="-1.1148261465132236480712890625">
        <ele>816</ele>
        <time>2019-07-07T09:47:59.000Z</time>
      </trkpt>
      <trkpt lat="40.33514893613755702972412109375" lon="-1.11500677652657032012939453125">
        <ele>817.20001220703125</ele>
        <time>2019-07-07T09:48:00.000Z</time>
      </trkpt>
      <trkpt lat="40.33493067137897014617919921875" lon="-1.1153746582567691802978515625">
        <ele>818.4000244140625</ele>
        <time>2019-07-07T09:48:02.000Z</time>
      </trkpt>
      <trkpt lat="40.334708131849765777587890625" lon="-1.11574891023337841033935546875">
        <ele>820</ele>
        <time>2019-07-07T09:48:04.000Z</time>
      </trkpt>
      <trkpt lat="40.33446840941905975341796875" lon="-1.11611402593553066253662109375">
        <ele>818.20001220703125</ele>
        <time>2019-07-07T09:48:06.000Z</time>
      </trkpt>
      <trkpt lat="40.334346033632755279541015625" lon="-1.11628769896924495697021484375">
        <ele>815.79998779296875</ele>
        <time>2019-07-07T09:48:07.000Z</time>
      </trkpt>
      <trkpt lat="40.334221310913562774658203125" lon="-1.11645081080496311187744140625">
        <ele>813.79998779296875</ele>
        <time>2019-07-07T09:48:08.000Z</time>
      </trkpt>
      <trkpt lat="40.33409315161406993865966796875" lon="-1.1166071332991123199462890625">
        <ele>811.20001220703125</ele>
        <time>2019-07-07T09:48:09.000Z</time>
      </trkpt>
      <trkpt lat="40.33395937643945217132568359375" lon="-1.11675691790878772735595703125">
        <ele>810</ele>
        <time>2019-07-07T09:48:10.000Z</time>
      </trkpt>
      <trkpt lat="40.33354572951793670654296875" lon="-1.11715589649975299835205078125">
        <ele>809.4000244140625</ele>
        <time>2019-07-07T09:48:13.000Z</time>
      </trkpt>
      <trkpt lat="40.3331051766872406005859375" lon="-1.1174731515347957611083984375">
        <ele>810.79998779296875</ele>
        <time>2019-07-07T09:48:16.000Z</time>
      </trkpt>
      <trkpt lat="40.332949273288249969482421875" lon="-1.11756476573646068572998046875">
        <ele>811</ele>
        <time>2019-07-07T09:48:17.000Z</time>
      </trkpt>
      <trkpt lat="40.33245541155338287353515625" lon="-1.11779308877885341644287109375">
        <ele>810.4000244140625</ele>
        <time>2019-07-07T09:48:20.000Z</time>
      </trkpt>
      <trkpt lat="40.33192374743521213531494140625" lon="-1.11793876625597476959228515625">
        <ele>810.20001220703125</ele>
        <time>2019-07-07T09:48:23.000Z</time>
      </trkpt>
      <trkpt lat="40.33136484213173389434814453125" lon="-1.117996685206890106201171875">
        <ele>810.5999755859375</ele>
        <time>2019-07-07T09:48:26.000Z</time>
      </trkpt>
      <trkpt lat="40.33079168759286403656005859375" lon="-1.1179318092763423919677734375">
        <ele>809.20001220703125</ele>
        <time>2019-07-07T09:48:29.000Z</time>
      </trkpt>
      <trkpt lat="40.33041198737919330596923828125" lon="-1.11783382482826709747314453125">
        <ele>807.5999755859375</ele>
        <time>2019-07-07T09:48:31.000Z</time>
      </trkpt>
      <trkpt lat="40.3300375677645206451416015625" lon="-1.1176961101591587066650390625">
        <ele>806.4000244140625</ele>
        <time>2019-07-07T09:48:33.000Z</time>
      </trkpt>
      <trkpt lat="40.3295068256556987762451171875" lon="-1.117391847074031829833984375">
        <ele>806.4000244140625</ele>
        <time>2019-07-07T09:48:36.000Z</time>
      </trkpt>
      <trkpt lat="40.3289995528757572174072265625" lon="-1.11698507331311702728271484375">
        <ele>807.20001220703125</ele>
        <time>2019-07-07T09:48:39.000Z</time>
      </trkpt>
      <trkpt lat="40.32883618958294391632080078125" lon="-1.116826236248016357421875">
        <ele>808.20001220703125</ele>
        <time>2019-07-07T09:48:40.000Z</time>
      </trkpt>
      <trkpt lat="40.32835691235959529876708984375" lon="-1.11630915664136409759521484375">
        <ele>810.5999755859375</ele>
        <time>2019-07-07T09:48:43.000Z</time>
      </trkpt>
      <trkpt lat="40.32805298455059528350830078125" lon="-1.11592442728579044342041015625">
        <ele>812.5999755859375</ele>
        <time>2019-07-07T09:48:45.000Z</time>
      </trkpt>
      <trkpt lat="40.32777453772723674774169921875" lon="-1.11552008427679538726806640625">
        <ele>811.4000244140625</ele>
        <time>2019-07-07T09:48:47.000Z</time>
      </trkpt>
      <trkpt lat="40.32765283249318599700927734375" lon="-1.1153166554868221282958984375">
        <ele>810.20001220703125</ele>
        <time>2019-07-07T09:48:48.000Z</time>
      </trkpt>
      <trkpt lat="40.32753950916230678558349609375" lon="-1.1151175014674663543701171875">
        <ele>808.5999755859375</ele>
        <time>2019-07-07T09:48:49.000Z</time>
      </trkpt>
      <trkpt lat="40.32743205316364765167236328125" lon="-1.1149210296571254730224609375">
        <ele>806.20001220703125</ele>
        <time>2019-07-07T09:48:50.000Z</time>
      </trkpt>
      <trkpt lat="40.32732912339270114898681640625" lon="-1.1147262342274188995361328125">
        <ele>804.79998779296875</ele>
        <time>2019-07-07T09:48:51.000Z</time>
      </trkpt>
      <trkpt lat="40.327053777873516082763671875" lon="-1.11414042301476001739501953125">
        <ele>805.20001220703125</ele>
        <time>2019-07-07T09:48:54.000Z</time>
      </trkpt>
      <trkpt lat="40.32689058221876621246337890625" lon="-1.11374060623347759246826171875">
        <ele>806.5999755859375</ele>
        <time>2019-07-07T09:48:56.000Z</time>
      </trkpt>
      <trkpt lat="40.32675328664481639862060546875" lon="-1.11331379972398281097412109375">
        <ele>807.79998779296875</ele>
        <time>2019-07-07T09:48:58.000Z</time>
      </trkpt>
      <trkpt lat="40.326648764312267303466796875" lon="-1.11286352388560771942138671875">
        <ele>809.4000244140625</ele>
        <time>2019-07-07T09:49:00.000Z</time>
      </trkpt>
      <trkpt lat="40.32660962082445621490478515625" lon="-1.11263033933937549591064453125">
        <ele>811.20001220703125</ele>
        <time>2019-07-07T09:49:01.000Z</time>
      </trkpt>
      <trkpt lat="40.32658162526786327362060546875" lon="-1.11239497549831867218017578125">
        <ele>812.5999755859375</ele>
        <time>2019-07-07T09:49:02.000Z</time>
      </trkpt>
      <trkpt lat="40.3265654481947422027587890625" lon="-1.111915111541748046875">
        <ele>814.4000244140625</ele>
        <time>2019-07-07T09:49:04.000Z</time>
      </trkpt>
      <trkpt lat="40.326625965535640716552734375" lon="-1.11115805804729461669921875">
        <ele>814.79998779296875</ele>
        <time>2019-07-07T09:49:07.000Z</time>
      </trkpt>
      <trkpt lat="40.32669964246451854705810546875" lon="-1.1104011721909046173095703125">
        <ele>814.4000244140625</ele>
        <time>2019-07-07T09:49:10.000Z</time>
      </trkpt>
      <trkpt lat="40.32670282758772373199462890625" lon="-1.1098952405154705047607421875">
        <ele>814.20001220703125</ele>
        <time>2019-07-07T09:49:12.000Z</time>
      </trkpt>
      <trkpt lat="40.3265929408371448516845703125" lon="-1.1091080121695995330810546875">
        <ele>815.4000244140625</ele>
        <time>2019-07-07T09:49:15.000Z</time>
      </trkpt>
      <trkpt lat="40.32652144320309162139892578125" lon="-1.1088273860514163970947265625">
        <ele>815.5999755859375</ele>
        <time>2019-07-07T09:49:16.000Z</time>
      </trkpt>
      <trkpt lat="40.32631826587021350860595703125" lon="-1.108282394707202911376953125">
        <ele>815.5999755859375</ele>
        <time>2019-07-07T09:49:18.000Z</time>
      </trkpt>
      <trkpt lat="40.3259746916592121124267578125" lon="-1.10755811445415019989013671875">
        <ele>816.20001220703125</ele>
        <time>2019-07-07T09:49:21.000Z</time>
      </trkpt>
      <trkpt lat="40.3257666528224945068359375" lon="-1.1070966906845569610595703125">
        <ele>818</ele>
        <time>2019-07-07T09:49:23.000Z</time>
      </trkpt>
      <trkpt lat="40.32568207941949367523193359375" lon="-1.10685738734900951385498046875">
        <ele>819.5999755859375</ele>
        <time>2019-07-07T09:49:24.000Z</time>
      </trkpt>
      <trkpt lat="40.325612761080265045166015625" lon="-1.1066135577857494354248046875">
        <ele>820.5999755859375</ele>
        <time>2019-07-07T09:49:25.000Z</time>
      </trkpt>
      <trkpt lat="40.32551075331866741180419921875" lon="-1.1061247251927852630615234375">
        <ele>822.5999755859375</ele>
        <time>2019-07-07T09:49:27.000Z</time>
      </trkpt>
      <trkpt lat="40.32547705806791782379150390625" lon="-1.10588659532368183135986328125">
        <ele>824</ele>
        <time>2019-07-07T09:49:28.000Z</time>
      </trkpt>
      <trkpt lat="40.3254543431103229522705078125" lon="-1.10565441660583019256591796875">
        <ele>825.4000244140625</ele>
        <time>2019-07-07T09:49:29.000Z</time>
      </trkpt>
      <trkpt lat="40.32544386573135852813720703125" lon="-1.1054313741624355316162109375">
        <ele>827.4000244140625</ele>
        <time>2019-07-07T09:49:30.000Z</time>
      </trkpt>
      <trkpt lat="40.32544470392167568206787109375" lon="-1.1052188090980052947998046875">
        <ele>829.5999755859375</ele>
        <time>2019-07-07T09:49:31.000Z</time>
      </trkpt>
      <trkpt lat="40.32545258291065692901611328125" lon="-1.10501051880419254302978515625">
        <ele>831.5999755859375</ele>
        <time>2019-07-07T09:49:32.000Z</time>
      </trkpt>
      <trkpt lat="40.3254633955657482147216796875" lon="-1.10480147413909435272216796875">
        <ele>833.4000244140625</ele>
        <time>2019-07-07T09:49:33.000Z</time>
      </trkpt>
      <trkpt lat="40.32547764480113983154296875" lon="-1.10458823852241039276123046875">
        <ele>834.4000244140625</ele>
        <time>2019-07-07T09:49:34.000Z</time>
      </trkpt>
      <trkpt lat="40.3254965879023075103759765625" lon="-1.104372404515743255615234375">
        <ele>835.4000244140625</ele>
        <time>2019-07-07T09:49:35.000Z</time>
      </trkpt>
      <trkpt lat="40.32551863230764865875244140625" lon="-1.10415305010974407196044921875">
        <ele>837.20001220703125</ele>
        <time>2019-07-07T09:49:36.000Z</time>
      </trkpt>
      <trkpt lat="40.32554025761783123016357421875" lon="-1.103929169476032257080078125">
        <ele>838.4000244140625</ele>
        <time>2019-07-07T09:49:37.000Z</time>
      </trkpt>
      <trkpt lat="40.32559809274971485137939453125" lon="-1.10322182066738605499267578125">
        <ele>839.79998779296875</ele>
        <time>2019-07-07T09:49:40.000Z</time>
      </trkpt>
      <trkpt lat="40.3256216458976268768310546875" lon="-1.1024950258433818817138671875">
        <ele>840</ele>
        <time>2019-07-07T09:49:43.000Z</time>
      </trkpt>
      <trkpt lat="40.32561519183218479156494140625" lon="-1.1022640205919742584228515625">
        <ele>841.20001220703125</ele>
        <time>2019-07-07T09:49:44.000Z</time>
      </trkpt>
      <trkpt lat="40.32560312189161777496337890625" lon="-1.102036871016025543212890625">
        <ele>842.79998779296875</ele>
        <time>2019-07-07T09:49:45.000Z</time>
      </trkpt>
      <trkpt lat="40.32558619044721126556396484375" lon="-1.10181190073490142822265625">
        <ele>844.5999755859375</ele>
        <time>2019-07-07T09:49:46.000Z</time>
      </trkpt>
      <trkpt lat="40.3255641460418701171875" lon="-1.1015887744724750518798828125">
        <ele>845.79998779296875</ele>
        <time>2019-07-07T09:49:47.000Z</time>
      </trkpt>
      <trkpt lat="40.325503461062908172607421875" lon="-1.10114729963243007659912109375">
        <ele>847.4000244140625</ele>
        <time>2019-07-07T09:49:49.000Z</time>
      </trkpt>
      <trkpt lat="40.3253696858882904052734375" lon="-1.10049585811793804168701171875">
        <ele>848.4000244140625</ele>
        <time>2019-07-07T09:49:52.000Z</time>
      </trkpt>
      <trkpt lat="40.32531059347093105316162109375" lon="-1.10028547234833240509033203125">
        <ele>848.5999755859375</ele>
        <time>2019-07-07T09:49:53.000Z</time>
      </trkpt>
      <trkpt lat="40.3251126967370510101318359375" lon="-1.09969027340412139892578125">
        <ele>849</ele>
        <time>2019-07-07T09:49:56.000Z</time>
      </trkpt>
      <trkpt lat="40.32496676780283451080322265625" lon="-1.09932322986423969268798828125">
        <ele>849.79998779296875</ele>
        <time>2019-07-07T09:49:58.000Z</time>
      </trkpt>
      <trkpt lat="40.32480047084391117095947265625" lon="-1.09896339476108551025390625">
        <ele>851</ele>
        <time>2019-07-07T09:50:00.000Z</time>
      </trkpt>
      <trkpt lat="40.3244880773127079010009765625" lon="-1.0984388552606105804443359375">
        <ele>851.5999755859375</ele>
        <time>2019-07-07T09:50:03.000Z</time>
      </trkpt>
      <trkpt lat="40.3241876699030399322509765625" lon="-1.098153702914714813232421875">
        <ele>851.79998779296875</ele>
        <time>2019-07-07T09:50:05.000Z</time>
      </trkpt>
      <trkpt lat="40.32371032051742076873779296875" lon="-1.09790869988501071929931640625">
        <ele>852.20001220703125</ele>
        <time>2019-07-07T09:50:08.000Z</time>
      </trkpt>
      <trkpt lat="40.32340832054615020751953125" lon="-1.09775044955313205718994140625">
        <ele>853.79998779296875</ele>
        <time>2019-07-07T09:50:10.000Z</time>
      </trkpt>
      <trkpt lat="40.3231580369174480438232421875" lon="-1.09747015871107578277587890625">
        <ele>855.20001220703125</ele>
        <time>2019-07-07T09:50:12.000Z</time>
      </trkpt>
      <trkpt lat="40.3230115212500095367431640625" lon="-1.0970719344913959503173828125">
        <ele>856</ele>
        <time>2019-07-07T09:50:14.000Z</time>
      </trkpt>
      <trkpt lat="40.32297606579959392547607421875" lon="-1.096843443810939788818359375">
        <ele>856.79998779296875</ele>
        <time>2019-07-07T09:50:15.000Z</time>
      </trkpt>
      <trkpt lat="40.322960726916790008544921875" lon="-1.096609421074390411376953125">
        <ele>857.4000244140625</ele>
        <time>2019-07-07T09:50:16.000Z</time>
      </trkpt>
      <trkpt lat="40.3229612298309803009033203125" lon="-1.0963816009461879730224609375">
        <ele>858.20001220703125</ele>
        <time>2019-07-07T09:50:17.000Z</time>
      </trkpt>
      <trkpt lat="40.322999618947505950927734375" lon="-1.095948927104473114013671875">
        <ele>859.5999755859375</ele>
        <time>2019-07-07T09:50:19.000Z</time>
      </trkpt>
      <trkpt lat="40.32315141521394252777099609375" lon="-1.09529002569615840911865234375">
        <ele>860.4000244140625</ele>
        <time>2019-07-07T09:50:22.000Z</time>
      </trkpt>
      <trkpt lat="40.323310084640979766845703125" lon="-1.0948721878230571746826171875">
        <ele>860.79998779296875</ele>
        <time>2019-07-07T09:50:24.000Z</time>
      </trkpt>
      <trkpt lat="40.3233890421688556671142578125" lon="-1.09468468464910984039306640625">
        <ele>860.79998779296875</ele>
        <time>2019-07-07T09:50:25.000Z</time>
      </trkpt>
      <trkpt lat="40.32362985424697399139404296875" lon="-1.09409208409488201141357421875">
        <ele>861.5999755859375</ele>
        <time>2019-07-07T09:50:29.000Z</time>
      </trkpt>
      <trkpt lat="40.32367042265832424163818359375" lon="-1.093984209001064300537109375">
        <ele>862</ele>
        <time>2019-07-07T09:50:30.000Z</time>
      </trkpt>
      <trkpt lat="40.32373957335948944091796875" lon="-1.09380609355866909027099609375">
        <ele>863.4000244140625</ele>
        <time>2019-07-07T09:50:33.000Z</time>
      </trkpt>
      <trkpt lat="40.32374896109104156494140625" lon="-1.0937954485416412353515625">
        <ele>864.79998779296875</ele>
        <time>2019-07-07T09:50:35.000Z</time>
      </trkpt>
      <trkpt lat="40.323776789009571075439453125" lon="-1.09380207024514675140380859375">
        <ele>865.5999755859375</ele>
        <time>2019-07-07T09:50:41.000Z</time>
      </trkpt>
      <trkpt lat="40.3239030204713344573974609375" lon="-1.0938170738518238067626953125">
        <ele>865.5999755859375</ele>
        <time>2019-07-07T09:50:43.000Z</time>
      </trkpt>
      <trkpt lat="40.32434575259685516357421875" lon="-1.094090826809406280517578125">
        <ele>864.20001220703125</ele>
        <time>2019-07-07T09:50:47.000Z</time>
      </trkpt>
      <trkpt lat="40.3245983831584453582763671875" lon="-1.09426609240472316741943359375">
        <ele>863.5999755859375</ele>
        <time>2019-07-07T09:50:49.000Z</time>
      </trkpt>
      <trkpt lat="40.324861742556095123291015625" lon="-1.09445133246481418609619140625">
        <ele>862.20001220703125</ele>
        <time>2019-07-07T09:50:51.000Z</time>
      </trkpt>
      <trkpt lat="40.32527790404856204986572265625" lon="-1.09474838711321353912353515625">
        <ele>862.5999755859375</ele>
        <time>2019-07-07T09:50:54.000Z</time>
      </trkpt>
      <trkpt lat="40.3255599550902843475341796875" lon="-1.094956509768962860107421875">
        <ele>863.20001220703125</ele>
        <time>2019-07-07T09:50:56.000Z</time>
      </trkpt>
      <trkpt lat="40.3256969153881072998046875" lon="-1.09505868516862392425537109375">
        <ele>864.20001220703125</ele>
        <time>2019-07-07T09:50:57.000Z</time>
      </trkpt>
      <trkpt lat="40.3259706683456897735595703125" lon="-1.09524476341903209686279296875">
        <ele>865.79998779296875</ele>
        <time>2019-07-07T09:50:59.000Z</time>
      </trkpt>
      <trkpt lat="40.32649529166519641876220703125" lon="-1.0955983959138393402099609375">
        <ele>865.20001220703125</ele>
        <time>2019-07-07T09:51:03.000Z</time>
      </trkpt>
      <trkpt lat="40.32661800272762775421142578125" lon="-1.095693446695804595947265625">
        <ele>864.79998779296875</ele>
        <time>2019-07-07T09:51:04.000Z</time>
      </trkpt>
      <trkpt lat="40.3269308991730213165283203125" lon="-1.0960124619305133819580078125">
        <ele>863.79998779296875</ele>
        <time>2019-07-07T09:51:07.000Z</time>
      </trkpt>
      <trkpt lat="40.3272950090467929840087890625" lon="-1.0965448804199695587158203125">
        <ele>863</ele>
        <time>2019-07-07T09:51:12.000Z</time>
      </trkpt>
      <trkpt lat="40.32741378061473369598388671875" lon="-1.09670690260827541351318359375">
        <ele>863</ele>
        <time>2019-07-07T09:51:14.000Z</time>
      </trkpt>
      <trkpt lat="40.32754755578935146331787109375" lon="-1.09681938774883747100830078125">
        <ele>862.79998779296875</ele>
        <time>2019-07-07T09:51:16.000Z</time>
      </trkpt>
      <trkpt lat="40.327613018453121185302734375" lon="-1.096876300871372222900390625">
        <ele>862.5999755859375</ele>
        <time>2019-07-07T09:51:17.000Z</time>
      </trkpt>
      <trkpt lat="40.32770077697932720184326171875" lon="-1.097027845680713653564453125">
        <ele>862.5999755859375</ele>
        <time>2019-07-07T09:51:19.000Z</time>
      </trkpt>
      <trkpt lat="40.3276923112571239471435546875" lon="-1.09722255729138851165771484375">
        <ele>862.5999755859375</ele>
        <time>2019-07-07T09:51:21.000Z</time>
      </trkpt>
      <trkpt lat="40.3276669979095458984375" lon="-1.0974719189107418060302734375">
        <ele>862.5999755859375</ele>
        <time>2019-07-07T09:51:23.000Z</time>
      </trkpt>
      <trkpt lat="40.3277244977653026580810546875" lon="-1.098184883594512939453125">
        <ele>863.5999755859375</ele>
        <time>2019-07-07T09:51:27.000Z</time>
      </trkpt>
      <trkpt lat="40.32775106839835643768310546875" lon="-1.0983785055577754974365234375">
        <ele>863.79998779296875</ele>
        <time>2019-07-07T09:51:28.000Z</time>
      </trkpt>
      <trkpt lat="40.32791485078632831573486328125" lon="-1.0990594513714313507080078125">
        <ele>862.4000244140625</ele>
        <time>2019-07-07T09:51:32.000Z</time>
      </trkpt>
      <trkpt lat="40.32803471200168132781982421875" lon="-1.09937285073101520538330078125">
        <ele>862.5999755859375</ele>
        <time>2019-07-07T09:51:34.000Z</time>
      </trkpt>
      <trkpt lat="40.328340232372283935546875" lon="-1.09991583041846752166748046875">
        <ele>862.4000244140625</ele>
        <time>2019-07-07T09:51:38.000Z</time>
      </trkpt>
      <trkpt lat="40.32872035168111324310302734375" lon="-1.10038588754832744598388671875">
        <ele>863</ele>
        <time>2019-07-07T09:51:43.000Z</time>
      </trkpt>
      <trkpt lat="40.3287876583635807037353515625" lon="-1.10044799745082855224609375">
        <ele>863.20001220703125</ele>
        <time>2019-07-07T09:51:44.000Z</time>
      </trkpt>
      <trkpt lat="40.3288550488650798797607421875" lon="-1.10049099661409854888916015625">
        <ele>863.4000244140625</ele>
        <time>2019-07-07T09:51:45.000Z</time>
      </trkpt>
      <trkpt lat="40.32892428338527679443359375" lon="-1.10050566494464874267578125">
        <ele>863.79998779296875</ele>
        <time>2019-07-07T09:51:46.000Z</time>
      </trkpt>
      <trkpt lat="40.32906451262533664703369140625" lon="-1.10047171823680400848388671875">
        <ele>864.5999755859375</ele>
        <time>2019-07-07T09:51:48.000Z</time>
      </trkpt>
      <trkpt lat="40.32912905327975749969482421875" lon="-1.10046970658004283905029296875">
        <ele>864.79998779296875</ele>
        <time>2019-07-07T09:51:49.000Z</time>
      </trkpt>
      <trkpt lat="40.3292372636497020721435546875" lon="-1.10056375153362751007080078125">
        <ele>865</ele>
        <time>2019-07-07T09:51:51.000Z</time>
      </trkpt>
      <trkpt lat="40.3293200768530368804931640625" lon="-1.1007324792444705963134765625">
        <ele>865</ele>
        <time>2019-07-07T09:51:53.000Z</time>
      </trkpt>
      <trkpt lat="40.32945544458925724029541015625" lon="-1.10084831714630126953125">
        <ele>865.20001220703125</ele>
        <time>2019-07-07T09:51:55.000Z</time>
      </trkpt>
      <trkpt lat="40.32955384813249111175537109375" lon="-1.10088385641574859619140625">
        <ele>865.5999755859375</ele>
        <time>2019-07-07T09:51:56.000Z</time>
      </trkpt>
      <trkpt lat="40.329952575266361236572265625" lon="-1.1009886302053928375244140625">
        <ele>866.5999755859375</ele>
        <time>2019-07-07T09:51:59.000Z</time>
      </trkpt>
      <trkpt lat="40.3304927051067352294921875" lon="-1.10109751112759113311767578125">
        <ele>867.5999755859375</ele>
        <time>2019-07-07T09:52:03.000Z</time>
      </trkpt>
      <trkpt lat="40.33081046305596828460693359375" lon="-1.101114191114902496337890625">
        <ele>868.79998779296875</ele>
        <time>2019-07-07T09:52:06.000Z</time>
      </trkpt>
      <trkpt lat="40.33110248856246471405029296875" lon="-1.1011250875890254974365234375">
        <ele>870</ele>
        <time>2019-07-07T09:52:10.000Z</time>
      </trkpt>
      <trkpt lat="40.3312733955681324005126953125" lon="-1.10113254748284816741943359375">
        <ele>871.20001220703125</ele>
        <time>2019-07-07T09:52:14.000Z</time>
      </trkpt>
      <trkpt lat="40.33137624152004718780517578125" lon="-1.10113573260605335235595703125">
        <ele>871.20001220703125</ele>
        <time>2019-07-07T09:52:16.000Z</time>
      </trkpt>
      <trkpt lat="40.33191972412168979644775390625" lon="-1.10115920193493366241455078125">
        <ele>870</ele>
        <time>2019-07-07T09:52:22.000Z</time>
      </trkpt>
      <trkpt lat="40.33211410045623779296875" lon="-1.1011519096791744232177734375">
        <ele>868.4000244140625</ele>
        <time>2019-07-07T09:52:24.000Z</time>
      </trkpt>
      <trkpt lat="40.33220688812434673309326171875" lon="-1.1011522449553012847900390625">
        <ele>867.20001220703125</ele>
        <time>2019-07-07T09:52:25.000Z</time>
      </trkpt>
      <trkpt lat="40.3323006816208362579345703125" lon="-1.10115350224077701568603515625">
        <ele>866.20001220703125</ele>
        <time>2019-07-07T09:52:26.000Z</time>
      </trkpt>
      <trkpt lat="40.33249028027057647705078125" lon="-1.10115149058401584625244140625">
        <ele>864.79998779296875</ele>
        <time>2019-07-07T09:52:28.000Z</time>
      </trkpt>
      <trkpt lat="40.332903005182743072509765625" lon="-1.101108826696872711181640625">
        <ele>863.5999755859375</ele>
        <time>2019-07-07T09:52:34.000Z</time>
      </trkpt>
      <trkpt lat="40.3329434059560298919677734375" lon="-1.10110069625079631805419921875">
        <ele>863.4000244140625</ele>
        <time>2019-07-07T09:52:35.000Z</time>
      </trkpt>
      <trkpt lat="40.33312194049358367919921875" lon="-1.10099743120372295379638671875">
        <ele>862.79998779296875</ele>
        <time>2019-07-07T09:52:40.000Z</time>
      </trkpt>
      <trkpt lat="40.3332079388201236724853515625" lon="-1.101080663502216339111328125">
        <ele>862.5999755859375</ele>
        <time>2019-07-07T09:52:42.000Z</time>
      </trkpt>
      <trkpt lat="40.3332312405109405517578125" lon="-1.10137914307415485382080078125">
        <ele>861.79998779296875</ele>
        <time>2019-07-07T09:53:33.000Z</time>
      </trkpt>
      <trkpt lat="40.3332312405109405517578125" lon="-1.10137914307415485382080078125">
        <ele>861.5999755859375</ele>
        <time>2019-07-07T09:53:42.000Z</time>
      </trkpt>
      <trkpt lat="40.33323316834867000579833984375" lon="-1.10139121301472187042236328125">
        <ele>861.5999755859375</ele>
        <time>2019-07-07T09:55:50.000Z</time>
      </trkpt>
      <trkpt lat="40.3331465832889080047607421875" lon="-1.1014593578875064849853515625">
        <ele>858.79998779296875</ele>
        <time>2019-07-07T09:59:00.000Z</time>
      </trkpt>
      <trkpt lat="40.33321657218039035797119140625" lon="-1.10147821716964244842529296875">
        <ele>857.79998779296875</ele>
        <time>2019-07-07T09:59:58.000Z</time>
      </trkpt>
      <trkpt lat="40.33324356190860271453857421875" lon="-1.10151945613324642181396484375">
        <ele>856.79998779296875</ele>
        <time>2019-07-07T10:00:54.000Z</time>
      </trkpt>
      <trkpt lat="40.33319042064249515533447265625" lon="-1.10154141671955585479736328125">
        <ele>855.79998779296875</ele>
        <time>2019-07-07T10:01:57.000Z</time>
      </trkpt>
      <trkpt lat="40.33324037678539752960205078125" lon="-1.101519204676151275634765625">
        <ele>855.5999755859375</ele>
        <time>2019-07-07T10:02:17.000Z</time>
      </trkpt>
      <trkpt lat="40.33323870040476322174072265625" lon="-1.10145558603107929229736328125">
        <ele>861.4000244140625</ele>
        <time>2019-07-07T10:50:59.000Z</time>
      </trkpt>
      <trkpt lat="40.3332384489476680755615234375" lon="-1.10144854523241519927978515625">
        <ele>862.79998779296875</ele>
        <time>2019-07-07T10:51:00.000Z</time>
      </trkpt>
      <trkpt lat="40.33344916999340057373046875" lon="-1.1016534827649593353271484375">
        <ele>862.79998779296875</ele>
        <time>2019-07-07T10:52:00.000Z</time>
      </trkpt>
      <trkpt lat="40.3337299637496471405029296875" lon="-1.10198490321636199951171875">
        <ele>861.5999755859375</ele>
        <time>2019-07-07T10:52:05.000Z</time>
      </trkpt>
      <trkpt lat="40.33383096568286418914794921875" lon="-1.102155558764934539794921875">
        <ele>860.4000244140625</ele>
        <time>2019-07-07T10:52:10.000Z</time>
      </trkpt>
      <trkpt lat="40.33385820686817169189453125" lon="-1.1021969653666019439697265625">
        <ele>860.20001220703125</ele>
        <time>2019-07-07T10:52:12.000Z</time>
      </trkpt>
      <trkpt lat="40.33371060155332088470458984375" lon="-1.10195799730718135833740234375">
        <ele>860.5999755859375</ele>
        <time>2019-07-07T10:52:17.000Z</time>
      </trkpt>
      <trkpt lat="40.3334597311913967132568359375" lon="-1.10170352272689342498779296875">
        <ele>860.79998779296875</ele>
        <time>2019-07-07T10:52:21.000Z</time>
      </trkpt>
      <trkpt lat="40.33332956023514270782470703125" lon="-1.10150218941271305084228515625">
        <ele>860.79998779296875</ele>
        <time>2019-07-07T10:52:23.000Z</time>
      </trkpt>
      <trkpt lat="40.33329091966152191162109375" lon="-1.10125056467950344085693359375">
        <ele>860.5999755859375</ele>
        <time>2019-07-07T10:52:25.000Z</time>
      </trkpt>
      <trkpt lat="40.3331529535353183746337890625" lon="-1.10073206014931201934814453125">
        <ele>861.4000244140625</ele>
        <time>2019-07-07T10:52:30.000Z</time>
      </trkpt>
      <trkpt lat="40.33311012201011180877685546875" lon="-1.10067958943545818328857421875">
        <ele>862</ele>
        <time>2019-07-07T10:52:31.000Z</time>
      </trkpt>
      <trkpt lat="40.33309042453765869140625" lon="-1.100609265267848968505859375">
        <ele>862.5999755859375</ele>
        <time>2019-07-07T10:52:32.000Z</time>
      </trkpt>
      <trkpt lat="40.3330381214618682861328125" lon="-1.10045327804982662200927734375">
        <ele>863.4000244140625</ele>
        <time>2019-07-07T10:52:34.000Z</time>
      </trkpt>
      <trkpt lat="40.33301657997071743011474609375" lon="-1.1003593169152736663818359375">
        <ele>863.79998779296875</ele>
        <time>2019-07-07T10:52:35.000Z</time>
      </trkpt>
      <trkpt lat="40.3329625166952610015869140625" lon="-1.10013007186353206634521484375">
        <ele>865.4000244140625</ele>
        <time>2019-07-07T10:52:37.000Z</time>
      </trkpt>
      <trkpt lat="40.33292991109192371368408203125" lon="-1.0998366214334964752197265625">
        <ele>866.4000244140625</ele>
        <time>2019-07-07T10:52:39.000Z</time>
      </trkpt>
      <trkpt lat="40.33293678425252437591552734375" lon="-1.09939967282116413116455078125">
        <ele>866.5999755859375</ele>
        <time>2019-07-07T10:52:42.000Z</time>
      </trkpt>
      <trkpt lat="40.3329722397029399871826171875" lon="-1.09890463761985301971435546875">
        <ele>867.5999755859375</ele>
        <time>2019-07-07T10:52:46.000Z</time>
      </trkpt>
      <trkpt lat="40.333045832812786102294921875" lon="-1.09863759018480777740478515625">
        <ele>868</ele>
        <time>2019-07-07T10:52:48.000Z</time>
      </trkpt>
      <trkpt lat="40.3332649357616901397705078125" lon="-1.0981072671711444854736328125">
        <ele>868</ele>
        <time>2019-07-07T10:52:52.000Z</time>
      </trkpt>
      <trkpt lat="40.33336057327687740325927734375" lon="-1.097829826176166534423828125">
        <ele>869.20001220703125</ele>
        <time>2019-07-07T10:52:54.000Z</time>
      </trkpt>
      <trkpt lat="40.33345989882946014404296875" lon="-1.09760862775146961212158203125">
        <ele>870.20001220703125</ele>
        <time>2019-07-07T10:52:56.000Z</time>
      </trkpt>
      <trkpt lat="40.33350490964949131011962890625" lon="-1.09750905074179172515869140625">
        <ele>871.20001220703125</ele>
        <time>2019-07-07T10:52:57.000Z</time>
      </trkpt>
      <trkpt lat="40.33360071480274200439453125" lon="-1.09729045070707798004150390625">
        <ele>872.5999755859375</ele>
        <time>2019-07-07T10:52:59.000Z</time>
      </trkpt>
      <trkpt lat="40.33364572562277317047119140625" lon="-1.0970280133187770843505859375">
        <ele>873.20001220703125</ele>
        <time>2019-07-07T10:53:01.000Z</time>
      </trkpt>
      <trkpt lat="40.3335678577423095703125" lon="-1.096752248704433441162109375">
        <ele>873.5999755859375</ele>
        <time>2019-07-07T10:53:03.000Z</time>
      </trkpt>
      <trkpt lat="40.3335236012935638427734375" lon="-1.096350587904453277587890625">
        <ele>875.4000244140625</ele>
        <time>2019-07-07T10:53:06.000Z</time>
      </trkpt>
      <trkpt lat="40.333497114479541778564453125" lon="-1.096052192151546478271484375">
        <ele>876.4000244140625</ele>
        <time>2019-07-07T10:53:09.000Z</time>
      </trkpt>
      <trkpt lat="40.33348269760608673095703125" lon="-1.095976419746875762939453125">
        <ele>876.5999755859375</ele>
        <time>2019-07-07T10:53:10.000Z</time>
      </trkpt>
      <trkpt lat="40.33341228961944580078125" lon="-1.095776259899139404296875">
        <ele>876.5999755859375</ele>
        <time>2019-07-07T10:53:13.000Z</time>
      </trkpt>
      <trkpt lat="40.33341907896101474761962890625" lon="-1.0955739207565784454345703125">
        <ele>876.79998779296875</ele>
        <time>2019-07-07T10:53:15.000Z</time>
      </trkpt>
      <trkpt lat="40.33342779614031314849853515625" lon="-1.09532539732754230499267578125">
        <ele>877</ele>
        <time>2019-07-07T10:53:17.000Z</time>
      </trkpt>
      <trkpt lat="40.33340332098305225372314453125" lon="-1.09463305212557315826416015625">
        <ele>877.79998779296875</ele>
        <time>2019-07-07T10:53:22.000Z</time>
      </trkpt>
      <trkpt lat="40.333398543298244476318359375" lon="-1.09423893503844738006591796875">
        <ele>879</ele>
        <time>2019-07-07T10:53:25.000Z</time>
      </trkpt>
      <trkpt lat="40.333360992372035980224609375" lon="-1.09352161176502704620361328125">
        <ele>879.4000244140625</ele>
        <time>2019-07-07T10:53:30.000Z</time>
      </trkpt>
      <trkpt lat="40.3333440609276294708251953125" lon="-1.0930730961263179779052734375">
        <ele>880.20001220703125</ele>
        <time>2019-07-07T10:53:33.000Z</time>
      </trkpt>
      <trkpt lat="40.33332712948322296142578125" lon="-1.0927681624889373779296875">
        <ele>881.20001220703125</ele>
        <time>2019-07-07T10:53:35.000Z</time>
      </trkpt>
      <trkpt lat="40.3333065100014209747314453125" lon="-1.0924541763961315155029296875">
        <ele>882.4000244140625</ele>
        <time>2019-07-07T10:53:37.000Z</time>
      </trkpt>
      <trkpt lat="40.3332330845296382904052734375" lon="-1.091804914176464080810546875">
        <ele>883.4000244140625</ele>
        <time>2019-07-07T10:53:41.000Z</time>
      </trkpt>
      <trkpt lat="40.3331526182591915130615234375" lon="-1.09116210602223873138427734375">
        <ele>884.4000244140625</ele>
        <time>2019-07-07T10:53:45.000Z</time>
      </trkpt>
      <trkpt lat="40.33313241787254810333251953125" lon="-1.0910034365952014923095703125">
        <ele>885</ele>
        <time>2019-07-07T10:53:46.000Z</time>
      </trkpt>
      <trkpt lat="40.33309084363281726837158203125" lon="-1.09070478938519954681396484375">
        <ele>886.4000244140625</ele>
        <time>2019-07-07T10:53:48.000Z</time>
      </trkpt>
      <trkpt lat="40.3330466710031032562255859375" lon="-1.09043254517018795013427734375">
        <ele>887.79998779296875</ele>
        <time>2019-07-07T10:53:50.000Z</time>
      </trkpt>
      <trkpt lat="40.3329698927700519561767578125" lon="-1.09010539948940277099609375">
        <ele>889.20001220703125</ele>
        <time>2019-07-07T10:53:53.000Z</time>
      </trkpt>
      <trkpt lat="40.3329407237470149993896484375" lon="-1.0900390148162841796875">
        <ele>890.20001220703125</ele>
        <time>2019-07-07T10:53:55.000Z</time>
      </trkpt>
      <trkpt lat="40.3328699804842472076416015625" lon="-1.08989861793816089630126953125">
        <ele>891.4000244140625</ele>
        <time>2019-07-07T10:54:00.000Z</time>
      </trkpt>
      <trkpt lat="40.332876853644847869873046875" lon="-1.08970046974718570709228515625">
        <ele>891.4000244140625</ele>
        <time>2019-07-07T10:54:03.000Z</time>
      </trkpt>
      <trkpt lat="40.33308480866253376007080078125" lon="-1.08977020718157291412353515625">
        <ele>891.5999755859375</ele>
        <time>2019-07-07T10:54:07.000Z</time>
      </trkpt>
      <trkpt lat="40.33324557356536388397216796875" lon="-1.0897922515869140625">
        <ele>891.79998779296875</ele>
        <time>2019-07-07T10:54:09.000Z</time>
      </trkpt>
      <trkpt lat="40.3337971866130828857421875" lon="-1.08974489383399486541748046875">
        <ele>891.79998779296875</ele>
        <time>2019-07-07T10:54:14.000Z</time>
      </trkpt>
      <trkpt lat="40.3340555168688297271728515625" lon="-1.08971823938190937042236328125">
        <ele>892.5999755859375</ele>
        <time>2019-07-07T10:54:16.000Z</time>
      </trkpt>
      <trkpt lat="40.334331952035427093505859375" lon="-1.08970105648040771484375">
        <ele>894</ele>
        <time>2019-07-07T10:54:18.000Z</time>
      </trkpt>
      <trkpt lat="40.3349054418504238128662109375" lon="-1.08976517803966999053955078125">
        <ele>894.79998779296875</ele>
        <time>2019-07-07T10:54:22.000Z</time>
      </trkpt>
      <trkpt lat="40.3353449888527393341064453125" lon="-1.08992460183799266815185546875">
        <ele>893.5999755859375</ele>
        <time>2019-07-07T10:54:25.000Z</time>
      </trkpt>
      <trkpt lat="40.33590473234653472900390625" lon="-1.090168096125125885009765625">
        <ele>894.79998779296875</ele>
        <time>2019-07-07T10:54:29.000Z</time>
      </trkpt>
      <trkpt lat="40.33604127354919910430908203125" lon="-1.0902296192944049835205078125">
        <ele>895.20001220703125</ele>
        <time>2019-07-07T10:54:30.000Z</time>
      </trkpt>
      <trkpt lat="40.3365080617368221282958984375" lon="-1.090446375310420989990234375">
        <ele>896.5999755859375</ele>
        <time>2019-07-07T10:54:34.000Z</time>
      </trkpt>
      <trkpt lat="40.33690226264297962188720703125" lon="-1.09061208553612232208251953125">
        <ele>897.79998779296875</ele>
        <time>2019-07-07T10:54:38.000Z</time>
      </trkpt>
      <trkpt lat="40.33738740719854831695556640625" lon="-1.09082783572375774383544921875">
        <ele>898.4000244140625</ele>
        <time>2019-07-07T10:54:42.000Z</time>
      </trkpt>
      <trkpt lat="40.3377988748252391815185546875" lon="-1.09101827256381511688232421875">
        <ele>896.5999755859375</ele>
        <time>2019-07-07T10:54:45.000Z</time>
      </trkpt>
      <trkpt lat="40.33808394335210323333740234375" lon="-1.09114341437816619873046875">
        <ele>894.5999755859375</ele>
        <time>2019-07-07T10:54:47.000Z</time>
      </trkpt>
      <trkpt lat="40.33822945319116115570068359375" lon="-1.0912092961370944976806640625">
        <ele>893.20001220703125</ele>
        <time>2019-07-07T10:54:48.000Z</time>
      </trkpt>
      <trkpt lat="40.3385230712592601776123046875" lon="-1.091358661651611328125">
        <ele>891.79998779296875</ele>
        <time>2019-07-07T10:54:50.000Z</time>
      </trkpt>
      <trkpt lat="40.3389441780745983123779296875" lon="-1.09162948094308376312255859375">
        <ele>890.5999755859375</ele>
        <time>2019-07-07T10:54:53.000Z</time>
      </trkpt>
      <trkpt lat="40.339224971830844879150390625" lon="-1.09184556640684604644775390625">
        <ele>889.4000244140625</ele>
        <time>2019-07-07T10:54:55.000Z</time>
      </trkpt>
      <trkpt lat="40.33950048498809337615966796875" lon="-1.09209585003554821014404296875">
        <ele>888.20001220703125</ele>
        <time>2019-07-07T10:54:57.000Z</time>
      </trkpt>
      <trkpt lat="40.33988605253398418426513671875" lon="-1.09251913614571094512939453125">
        <ele>887</ele>
        <time>2019-07-07T10:55:00.000Z</time>
      </trkpt>
      <trkpt lat="40.3401209972798824310302734375" lon="-1.09283697791397571563720703125">
        <ele>885.20001220703125</ele>
        <time>2019-07-07T10:55:02.000Z</time>
      </trkpt>
      <trkpt lat="40.3402318060398101806640625" lon="-1.0930023528635501861572265625">
        <ele>884.20001220703125</ele>
        <time>2019-07-07T10:55:03.000Z</time>
      </trkpt>
      <trkpt lat="40.34033884294331073760986328125" lon="-1.09317074529826641082763671875">
        <ele>882.4000244140625</ele>
        <time>2019-07-07T10:55:04.000Z</time>
      </trkpt>
      <trkpt lat="40.3404445387423038482666015625" lon="-1.093339808285236358642578125">
        <ele>879.79998779296875</ele>
        <time>2019-07-07T10:55:05.000Z</time>
      </trkpt>
      <trkpt lat="40.340550653636455535888671875" lon="-1.09351088292896747589111328125">
        <ele>877.79998779296875</ele>
        <time>2019-07-07T10:55:06.000Z</time>
      </trkpt>
      <trkpt lat="40.3406597860157489776611328125" lon="-1.0936886630952358245849609375">
        <ele>876</ele>
        <time>2019-07-07T10:55:07.000Z</time>
      </trkpt>
      <trkpt lat="40.3407700918614864349365234375" lon="-1.0938677005469799041748046875">
        <ele>874.79998779296875</ele>
        <time>2019-07-07T10:55:08.000Z</time>
      </trkpt>
      <trkpt lat="40.34087981097400188446044921875" lon="-1.094043217599391937255859375">
        <ele>873.20001220703125</ele>
        <time>2019-07-07T10:55:09.000Z</time>
      </trkpt>
      <trkpt lat="40.34098676405847072601318359375" lon="-1.09421378932893276214599609375">
        <ele>872.20001220703125</ele>
        <time>2019-07-07T10:55:10.000Z</time>
      </trkpt>
      <trkpt lat="40.34109086729586124420166015625" lon="-1.09438159503042697906494140625">
        <ele>870.5999755859375</ele>
        <time>2019-07-07T10:55:11.000Z</time>
      </trkpt>
      <trkpt lat="40.341191031038761138916015625" lon="-1.094544790685176849365234375">
        <ele>869.20001220703125</ele>
        <time>2019-07-07T10:55:12.000Z</time>
      </trkpt>
      <trkpt lat="40.3412880934774875640869140625" lon="-1.0947048850357532501220703125">
        <ele>867.4000244140625</ele>
        <time>2019-07-07T10:55:13.000Z</time>
      </trkpt>
      <trkpt lat="40.3413836471736431121826171875" lon="-1.0948614589869976043701171875">
        <ele>865.79998779296875</ele>
        <time>2019-07-07T10:55:14.000Z</time>
      </trkpt>
      <trkpt lat="40.3414775244891643524169921875" lon="-1.09501652419567108154296875">
        <ele>864.4000244140625</ele>
        <time>2019-07-07T10:55:15.000Z</time>
      </trkpt>
      <trkpt lat="40.34157047979533672332763671875" lon="-1.0951689071953296661376953125">
        <ele>863.20001220703125</ele>
        <time>2019-07-07T10:55:16.000Z</time>
      </trkpt>
      <trkpt lat="40.341751612722873687744140625" lon="-1.095462106168270111083984375">
        <ele>862.20001220703125</ele>
        <time>2019-07-07T10:55:18.000Z</time>
      </trkpt>
      <trkpt lat="40.34192453138530254364013671875" lon="-1.09574013389647006988525390625">
        <ele>860.4000244140625</ele>
        <time>2019-07-07T10:55:20.000Z</time>
      </trkpt>
      <trkpt lat="40.342006422579288482666015625" lon="-1.09587457962334156036376953125">
        <ele>859.20001220703125</ele>
        <time>2019-07-07T10:55:21.000Z</time>
      </trkpt>
      <trkpt lat="40.34208588302135467529296875" lon="-1.09600500203669071197509765625">
        <ele>858.20001220703125</ele>
        <time>2019-07-07T10:55:22.000Z</time>
      </trkpt>
      <trkpt lat="40.34216358326375484466552734375" lon="-1.09613039530813694000244140625">
        <ele>856.79998779296875</ele>
        <time>2019-07-07T10:55:23.000Z</time>
      </trkpt>
      <trkpt lat="40.34223717637360095977783203125" lon="-1.09624908305704593658447265625">
        <ele>855</ele>
        <time>2019-07-07T10:55:24.000Z</time>
      </trkpt>
      <trkpt lat="40.34230649471282958984375" lon="-1.0963596403598785400390625">
        <ele>853.5999755859375</ele>
        <time>2019-07-07T10:55:25.000Z</time>
      </trkpt>
      <trkpt lat="40.34237346611917018890380859375" lon="-1.09645946882665157318115234375">
        <ele>852.5999755859375</ele>
        <time>2019-07-07T10:55:26.000Z</time>
      </trkpt>
      <trkpt lat="40.34249450080096721649169921875" lon="-1.09661973081529140472412109375">
        <ele>851.20001220703125</ele>
        <time>2019-07-07T10:55:28.000Z</time>
      </trkpt>
      <trkpt lat="40.34259256906807422637939453125" lon="-1.09671914018690586090087890625">
        <ele>850.5999755859375</ele>
        <time>2019-07-07T10:55:30.000Z</time>
      </trkpt>
      <trkpt lat="40.34278451465070247650146484375" lon="-1.0968198068439960479736328125">
        <ele>850.4000244140625</ele>
        <time>2019-07-07T10:55:33.000Z</time>
      </trkpt>
      <trkpt lat="40.3428538329899311065673828125" lon="-1.09688258729875087738037109375">
        <ele>850.20001220703125</ele>
        <time>2019-07-07T10:55:34.000Z</time>
      </trkpt>
      <trkpt lat="40.3429862670600414276123046875" lon="-1.0970286838710308074951171875">
        <ele>849.79998779296875</ele>
        <time>2019-07-07T10:55:36.000Z</time>
      </trkpt>
      <trkpt lat="40.34314879216253757476806640625" lon="-1.097121722996234893798828125">
        <ele>849</ele>
        <time>2019-07-07T10:55:38.000Z</time>
      </trkpt>
      <trkpt lat="40.3436678834259510040283203125" lon="-1.09728223644196987152099609375">
        <ele>848.5999755859375</ele>
        <time>2019-07-07T10:55:43.000Z</time>
      </trkpt>
      <trkpt lat="40.3441451489925384521484375" lon="-1.09743327833712100982666015625">
        <ele>849.20001220703125</ele>
        <time>2019-07-07T10:55:47.000Z</time>
      </trkpt>
      <trkpt lat="40.3446686826646327972412109375" lon="-1.0977046005427837371826171875">
        <ele>849.5999755859375</ele>
        <time>2019-07-07T10:55:51.000Z</time>
      </trkpt>
      <trkpt lat="40.3449318744242191314697265625" lon="-1.09791607595980167388916015625">
        <ele>850.4000244140625</ele>
        <time>2019-07-07T10:55:53.000Z</time>
      </trkpt>
      <trkpt lat="40.3453254885971546173095703125" lon="-1.09833416528999805450439453125">
        <ele>851</ele>
        <time>2019-07-07T10:55:56.000Z</time>
      </trkpt>
      <trkpt lat="40.345579795539379119873046875" lon="-1.09864555299282073974609375">
        <ele>852</ele>
        <time>2019-07-07T10:55:58.000Z</time>
      </trkpt>
      <trkpt lat="40.3459450788795948028564453125" lon="-1.09909038059413433074951171875">
        <ele>852</ele>
        <time>2019-07-07T10:56:01.000Z</time>
      </trkpt>
      <trkpt lat="40.34631698392331600189208984375" lon="-1.09947837889194488525390625">
        <ele>853.4000244140625</ele>
        <time>2019-07-07T10:56:04.000Z</time>
      </trkpt>
      <trkpt lat="40.34658185206353664398193359375" lon="-1.099689938127994537353515625">
        <ele>855</ele>
        <time>2019-07-07T10:56:06.000Z</time>
      </trkpt>
      <trkpt lat="40.34700228832662105560302734375" lon="-1.09991918317973613739013671875">
        <ele>856.20001220703125</ele>
        <time>2019-07-07T10:56:09.000Z</time>
      </trkpt>
      <trkpt lat="40.34727553837001323699951171875" lon="-1.100009791553020477294921875">
        <ele>857.20001220703125</ele>
        <time>2019-07-07T10:56:11.000Z</time>
      </trkpt>
      <trkpt lat="40.3475202061235904693603515625" lon="-1.1000558920204639434814453125">
        <ele>858.4000244140625</ele>
        <time>2019-07-07T10:56:13.000Z</time>
      </trkpt>
      <trkpt lat="40.34773721359670162200927734375" lon="-1.10008330084383487701416015625">
        <ele>859.4000244140625</ele>
        <time>2019-07-07T10:56:15.000Z</time>
      </trkpt>
      <trkpt lat="40.3482155688107013702392578125" lon="-1.10013543628156185150146484375">
        <ele>860.79998779296875</ele>
        <time>2019-07-07T10:56:20.000Z</time>
      </trkpt>
      <trkpt lat="40.34869023598730564117431640625" lon="-1.10017307102680206298828125">
        <ele>861.79998779296875</ele>
        <time>2019-07-07T10:56:25.000Z</time>
      </trkpt>
      <trkpt lat="40.34877221100032329559326171875" lon="-1.1001625098288059234619140625">
        <ele>862.20001220703125</ele>
        <time>2019-07-07T10:56:26.000Z</time>
      </trkpt>
      <trkpt lat="40.34892912022769451141357421875" lon="-1.1001477576792240142822265625">
        <ele>863.20001220703125</ele>
        <time>2019-07-07T10:56:28.000Z</time>
      </trkpt>
      <trkpt lat="40.3490004502236843109130859375" lon="-1.10018354840576648712158203125">
        <ele>863.4000244140625</ele>
        <time>2019-07-07T10:56:29.000Z</time>
      </trkpt>
      <trkpt lat="40.34907446242868900299072265625" lon="-1.1002419702708721160888671875">
        <ele>863.5999755859375</ele>
        <time>2019-07-07T10:56:30.000Z</time>
      </trkpt>
      <trkpt lat="40.34952859394252300262451171875" lon="-1.10062493942677974700927734375">
        <ele>864.20001220703125</ele>
        <time>2019-07-07T10:56:35.000Z</time>
      </trkpt>
      <trkpt lat="40.34981089644134044647216796875" lon="-1.10100614838302135467529296875">
        <ele>863.79998779296875</ele>
        <time>2019-07-07T10:56:38.000Z</time>
      </trkpt>
      <trkpt lat="40.3500156663358211517333984375" lon="-1.10152130015194416046142578125">
        <ele>864.20001220703125</ele>
        <time>2019-07-07T10:56:41.000Z</time>
      </trkpt>
      <trkpt lat="40.3500572405755519866943359375" lon="-1.10170838423073291778564453125">
        <ele>864.79998779296875</ele>
        <time>2019-07-07T10:56:42.000Z</time>
      </trkpt>
      <trkpt lat="40.35008582286536693572998046875" lon="-1.1018965579569339752197265625">
        <ele>866</ele>
        <time>2019-07-07T10:56:43.000Z</time>
      </trkpt>
      <trkpt lat="40.35011230967938899993896484375" lon="-1.10228489153087139129638671875">
        <ele>867.79998779296875</ele>
        <time>2019-07-07T10:56:45.000Z</time>
      </trkpt>
      <trkpt lat="40.3501440770924091339111328125" lon="-1.1028693616390228271484375">
        <ele>869</ele>
        <time>2019-07-07T10:56:48.000Z</time>
      </trkpt>
      <trkpt lat="40.35015757195651531219482421875" lon="-1.10306524671614170074462890625">
        <ele>870</ele>
        <time>2019-07-07T10:56:49.000Z</time>
      </trkpt>
      <trkpt lat="40.35016964189708232879638671875" lon="-1.1032663285732269287109375">
        <ele>871.4000244140625</ele>
        <time>2019-07-07T10:56:50.000Z</time>
      </trkpt>
      <trkpt lat="40.350178442895412445068359375" lon="-1.10347042791545391082763671875">
        <ele>872.79998779296875</ele>
        <time>2019-07-07T10:56:51.000Z</time>
      </trkpt>
      <trkpt lat="40.35019713453948497772216796875" lon="-1.10387586057186126708984375">
        <ele>874.20001220703125</ele>
        <time>2019-07-07T10:56:53.000Z</time>
      </trkpt>
      <trkpt lat="40.35023049451410770416259765625" lon="-1.10458119772374629974365234375">
        <ele>875</ele>
        <time>2019-07-07T10:56:57.000Z</time>
      </trkpt>
      <trkpt lat="40.35023988224565982818603515625" lon="-1.10473215579986572265625">
        <ele>875.20001220703125</ele>
        <time>2019-07-07T10:56:58.000Z</time>
      </trkpt>
      <trkpt lat="40.35025781951844692230224609375" lon="-1.1050159670412540435791015625">
        <ele>876.4000244140625</ele>
        <time>2019-07-07T10:57:00.000Z</time>
      </trkpt>
      <trkpt lat="40.35029788501560688018798828125" lon="-1.10543246380984783172607421875">
        <ele>877.5999755859375</ele>
        <time>2019-07-07T10:57:03.000Z</time>
      </trkpt>
      <trkpt lat="40.3503965400159358978271484375" lon="-1.105875112116336822509765625">
        <ele>879</ele>
        <time>2019-07-07T10:57:06.000Z</time>
      </trkpt>
      <trkpt lat="40.35048379562795162200927734375" lon="-1.10601089894771575927734375">
        <ele>880</ele>
        <time>2019-07-07T10:57:07.000Z</time>
      </trkpt>
      <trkpt lat="40.35056593827903270721435546875" lon="-1.1061582528054714202880859375">
        <ele>881</ele>
        <time>2019-07-07T10:57:08.000Z</time>
      </trkpt>
      <trkpt lat="40.3506523557007312774658203125" lon="-1.106295548379421234130859375">
        <ele>881.5999755859375</ele>
        <time>2019-07-07T10:57:09.000Z</time>
      </trkpt>
      <trkpt lat="40.350747071206569671630859375" lon="-1.1064184270799160003662109375">
        <ele>882.20001220703125</ele>
        <time>2019-07-07T10:57:10.000Z</time>
      </trkpt>
      <trkpt lat="40.3508491627871990203857421875" lon="-1.106526218354701995849609375">
        <ele>882.79998779296875</ele>
        <time>2019-07-07T10:57:11.000Z</time>
      </trkpt>
      <trkpt lat="40.35105946473777294158935546875" lon="-1.1067024059593677520751953125">
        <ele>883.4000244140625</ele>
        <time>2019-07-07T10:57:13.000Z</time>
      </trkpt>
      <trkpt lat="40.35139205865561962127685546875" lon="-1.10692176036536693572998046875">
        <ele>885</ele>
        <time>2019-07-07T10:57:16.000Z</time>
      </trkpt>
      <trkpt lat="40.3516561724245548248291015625" lon="-1.10705830156803131103515625">
        <ele>886.4000244140625</ele>
        <time>2019-07-07T10:57:18.000Z</time>
      </trkpt>
      <trkpt lat="40.3522093780338764190673828125" lon="-1.1072398535907268524169921875">
        <ele>886.79998779296875</ele>
        <time>2019-07-07T10:57:22.000Z</time>
      </trkpt>
      <trkpt lat="40.35268974490463733673095703125" lon="-1.10735309310257434844970703125">
        <ele>886.20001220703125</ele>
        <time>2019-07-07T10:57:26.000Z</time>
      </trkpt>
      <trkpt lat="40.35313314758241176605224609375" lon="-1.1074854433536529541015625">
        <ele>885.20001220703125</ele>
        <time>2019-07-07T10:57:30.000Z</time>
      </trkpt>
      <trkpt lat="40.35331218503415584564208984375" lon="-1.1076364852488040924072265625">
        <ele>884.4000244140625</ele>
        <time>2019-07-07T10:57:32.000Z</time>
      </trkpt>
      <trkpt lat="40.35337789915502071380615234375" lon="-1.10773824155330657958984375">
        <ele>884.20001220703125</ele>
        <time>2019-07-07T10:57:33.000Z</time>
      </trkpt>
      <trkpt lat="40.35342332907021045684814453125" lon="-1.10784024931490421295166015625">
        <ele>883.5999755859375</ele>
        <time>2019-07-07T10:57:34.000Z</time>
      </trkpt>
      <trkpt lat="40.35347311757504940032958984375" lon="-1.10803102143108844757080078125">
        <ele>883.20001220703125</ele>
        <time>2019-07-07T10:57:36.000Z</time>
      </trkpt>
      <trkpt lat="40.3534851036965847015380859375" lon="-1.10811936669051647186279296875">
        <ele>883</ele>
        <time>2019-07-07T10:57:37.000Z</time>
      </trkpt>
      <trkpt lat="40.353505723178386688232421875" lon="-1.10828566364943981170654296875">
        <ele>883.20001220703125</ele>
        <time>2019-07-07T10:57:39.000Z</time>
      </trkpt>
      <trkpt lat="40.35357856191694736480712890625" lon="-1.10841675661504268646240234375">
        <ele>883.4000244140625</ele>
        <time>2019-07-07T10:57:41.000Z</time>
      </trkpt>
      <trkpt lat="40.353714935481548309326171875" lon="-1.10847878269851207733154296875">
        <ele>883.79998779296875</ele>
        <time>2019-07-07T10:57:43.000Z</time>
      </trkpt>
      <trkpt lat="40.35397653467953205108642578125" lon="-1.1084424890577793121337890625">
        <ele>884.20001220703125</ele>
        <time>2019-07-07T10:57:46.000Z</time>
      </trkpt>
      <trkpt lat="40.3543826378881931304931640625" lon="-1.1084099672734737396240234375">
        <ele>885.4000244140625</ele>
        <time>2019-07-07T10:57:50.000Z</time>
      </trkpt>
      <trkpt lat="40.3547454066574573516845703125" lon="-1.10838322900235652923583984375">
        <ele>887.20001220703125</ele>
        <time>2019-07-07T10:57:53.000Z</time>
      </trkpt>
      <trkpt lat="40.3548620827496051788330078125" lon="-1.10837115906178951263427734375">
        <ele>888.5999755859375</ele>
        <time>2019-07-07T10:57:54.000Z</time>
      </trkpt>
      <trkpt lat="40.35496828146278858184814453125" lon="-1.108366213738918304443359375">
        <ele>889.79998779296875</ele>
        <time>2019-07-07T10:57:55.000Z</time>
      </trkpt>
      <trkpt lat="40.3551842831075191497802734375" lon="-1.10835808329284191131591796875">
        <ele>891.4000244140625</ele>
        <time>2019-07-07T10:57:57.000Z</time>
      </trkpt>
      <trkpt lat="40.35530188120901584625244140625" lon="-1.10835908912122249603271484375">
        <ele>892</ele>
        <time>2019-07-07T10:57:58.000Z</time>
      </trkpt>
      <trkpt lat="40.355419479310512542724609375" lon="-1.1083710752427577972412109375">
        <ele>892.5999755859375</ele>
        <time>2019-07-07T10:57:59.000Z</time>
      </trkpt>
      <trkpt lat="40.35594812594354152679443359375" lon="-1.10846436582505702972412109375">
        <ele>893.20001220703125</ele>
        <time>2019-07-07T10:58:03.000Z</time>
      </trkpt>
      <trkpt lat="40.35652647726237773895263671875" lon="-1.10859361477196216583251953125">
        <ele>893</ele>
        <time>2019-07-07T10:58:07.000Z</time>
      </trkpt>
      <trkpt lat="40.357013382017612457275390625" lon="-1.10862999223172664642333984375">
        <ele>892</ele>
        <time>2019-07-07T10:58:10.000Z</time>
      </trkpt>
      <trkpt lat="40.35717867314815521240234375" lon="-1.1086134798824787139892578125">
        <ele>891.4000244140625</ele>
        <time>2019-07-07T10:58:11.000Z</time>
      </trkpt>
      <trkpt lat="40.35764864645898342132568359375" lon="-1.10849051736295223236083984375">
        <ele>890.4000244140625</ele>
        <time>2019-07-07T10:58:14.000Z</time>
      </trkpt>
      <trkpt lat="40.35811744630336761474609375" lon="-1.10834986902773380279541015625">
        <ele>891.5999755859375</ele>
        <time>2019-07-07T10:58:17.000Z</time>
      </trkpt>
      <trkpt lat="40.35862664692103862762451171875" lon="-1.10819824039936065673828125">
        <ele>890.79998779296875</ele>
        <time>2019-07-07T10:58:20.000Z</time>
      </trkpt>
      <trkpt lat="40.3588049300014972686767578125" lon="-1.1081461049616336822509765625">
        <ele>889.79998779296875</ele>
        <time>2019-07-07T10:58:21.000Z</time>
      </trkpt>
      <trkpt lat="40.35915277898311614990234375" lon="-1.10804342664778232574462890625">
        <ele>888.4000244140625</ele>
        <time>2019-07-07T10:58:23.000Z</time>
      </trkpt>
      <trkpt lat="40.359480679035186767578125" lon="-1.10794368200004100799560546875">
        <ele>887.20001220703125</ele>
        <time>2019-07-07T10:58:25.000Z</time>
      </trkpt>
      <trkpt lat="40.359937660396099090576171875" lon="-1.10780973918735980987548828125">
        <ele>886.20001220703125</ele>
        <time>2019-07-07T10:58:28.000Z</time>
      </trkpt>
      <trkpt lat="40.3603914566338062286376953125" lon="-1.10767579637467861175537109375">
        <ele>885.79998779296875</ele>
        <time>2019-07-07T10:58:31.000Z</time>
      </trkpt>
      <trkpt lat="40.36084751598536968231201171875" lon="-1.10754185356199741363525390625">
        <ele>885.4000244140625</ele>
        <time>2019-07-07T10:58:34.000Z</time>
      </trkpt>
      <trkpt lat="40.3613074310123920440673828125" lon="-1.10740724019706249237060546875">
        <ele>885.5999755859375</ele>
        <time>2019-07-07T10:58:37.000Z</time>
      </trkpt>
      <trkpt lat="40.36181529052555561065673828125" lon="-1.10726022161543369293212890625">
        <ele>886.4000244140625</ele>
        <time>2019-07-07T10:58:41.000Z</time>
      </trkpt>
      <trkpt lat="40.36210413090884685516357421875" lon="-1.10717606730759143829345703125">
        <ele>887.5999755859375</ele>
        <time>2019-07-07T10:58:45.000Z</time>
      </trkpt>
      <trkpt lat="40.36247067153453826904296875" lon="-1.10705939121544361114501953125">
        <ele>887.4000244140625</ele>
        <time>2019-07-07T10:59:28.000Z</time>
      </trkpt>
      <trkpt lat="40.362540744245052337646484375" lon="-1.10703692771494388580322265625">
        <ele>887</ele>
        <time>2019-07-07T10:59:31.000Z</time>
      </trkpt>
      <trkpt lat="40.36261626519262790679931640625" lon="-1.10701060853898525238037109375">
        <ele>887</ele>
        <time>2019-07-07T10:59:59.000Z</time>
      </trkpt>
      <trkpt lat="40.3626877628266811370849609375" lon="-1.106982864439487457275390625">
        <ele>886.4000244140625</ele>
        <time>2019-07-07T11:00:03.000Z</time>
      </trkpt>
      <trkpt lat="40.36285221576690673828125" lon="-1.10692192800343036651611328125">
        <ele>885.4000244140625</ele>
        <time>2019-07-07T11:00:12.000Z</time>
      </trkpt>
      <trkpt lat="40.3630448319017887115478515625" lon="-1.10682637430727481842041015625">
        <ele>884.20001220703125</ele>
        <time>2019-07-07T11:00:23.000Z</time>
      </trkpt>
      <trkpt lat="40.3631859831511974334716796875" lon="-1.10672746784985065460205078125">
        <ele>883.20001220703125</ele>
        <time>2019-07-07T11:00:31.000Z</time>
      </trkpt>
      <trkpt lat="40.3632443211972713470458984375" lon="-1.10668304376304149627685546875">
        <ele>882.4000244140625</ele>
        <time>2019-07-07T11:00:42.000Z</time>
      </trkpt>
      <trkpt lat="40.36328547634184360504150390625" lon="-1.1066360212862491607666015625">
        <ele>882.4000244140625</ele>
        <time>2019-07-07T11:00:44.000Z</time>
      </trkpt>
      <trkpt lat="40.36337382160127162933349609375" lon="-1.10654423944652080535888671875">
        <ele>882.20001220703125</ele>
        <time>2019-07-07T11:00:46.000Z</time>
      </trkpt>
      <trkpt lat="40.36351480521261692047119140625" lon="-1.10638062469661235809326171875">
        <ele>881</ele>
        <time>2019-07-07T11:00:49.000Z</time>
      </trkpt>
      <trkpt lat="40.36361807025969028472900390625" lon="-1.10623477958142757415771484375">
        <ele>880</ele>
        <time>2019-07-07T11:00:52.000Z</time>
      </trkpt>
      <trkpt lat="40.3637331537902355194091796875" lon="-1.10607636161148548126220703125">
        <ele>878.79998779296875</ele>
        <time>2019-07-07T11:00:55.000Z</time>
      </trkpt>
      <trkpt lat="40.36381320096552371978759765625" lon="-1.10596052370965480804443359375">
        <ele>877.79998779296875</ele>
        <time>2019-07-07T11:00:57.000Z</time>
      </trkpt>
      <trkpt lat="40.3639349900186061859130859375" lon="-1.10579422675073146820068359375">
        <ele>876.5999755859375</ele>
        <time>2019-07-07T11:01:00.000Z</time>
      </trkpt>
      <trkpt lat="40.36403280682861804962158203125" lon="-1.10562977381050586700439453125">
        <ele>875.4000244140625</ele>
        <time>2019-07-07T11:01:03.000Z</time>
      </trkpt>
      <trkpt lat="40.36423782818019390106201171875" lon="-1.10530070029199123382568359375">
        <ele>874</ele>
        <time>2019-07-07T11:01:08.000Z</time>
      </trkpt>
      <trkpt lat="40.36438534967601299285888671875" lon="-1.10506315715610980987548828125">
        <ele>872.5999755859375</ele>
        <time>2019-07-07T11:01:11.000Z</time>
      </trkpt>
      <trkpt lat="40.364479310810565948486328125" lon="-1.1049106903374195098876953125">
        <ele>871.4000244140625</ele>
        <time>2019-07-07T11:01:13.000Z</time>
      </trkpt>
      <trkpt lat="40.36456011235713958740234375" lon="-1.10478638671338558197021484375">
        <ele>870.4000244140625</ele>
        <time>2019-07-07T11:01:15.000Z</time>
      </trkpt>
      <trkpt lat="40.364632196724414825439453125" lon="-1.104668118059635162353515625">
        <ele>869.4000244140625</ele>
        <time>2019-07-07T11:01:17.000Z</time>
      </trkpt>
      <trkpt lat="40.36484132520854473114013671875" lon="-1.10432253219187259674072265625">
        <ele>868.20001220703125</ele>
        <time>2019-07-07T11:01:22.000Z</time>
      </trkpt>
      <trkpt lat="40.36501340568065643310546875" lon="-1.10404475592076778411865234375">
        <ele>866.79998779296875</ele>
        <time>2019-07-07T11:01:26.000Z</time>
      </trkpt>
      <trkpt lat="40.3651842288672924041748046875" lon="-1.10376144759356975555419921875">
        <ele>865.79998779296875</ele>
        <time>2019-07-07T11:01:30.000Z</time>
      </trkpt>
      <trkpt lat="40.3655007295310497283935546875" lon="-1.10323959030210971832275390625">
        <ele>865.20001220703125</ele>
        <time>2019-07-07T11:01:38.000Z</time>
      </trkpt>
      <trkpt lat="40.36577154882252216339111328125" lon="-1.10273550264537334442138671875">
        <ele>864.79998779296875</ele>
        <time>2019-07-07T11:01:47.000Z</time>
      </trkpt>
      <trkpt lat="40.36593365482985973358154296875" lon="-1.1022774316370487213134765625">
        <ele>863.79998779296875</ele>
        <time>2019-07-07T11:01:59.000Z</time>
      </trkpt>
      <trkpt lat="40.36599450744688510894775390625" lon="-1.10199688933789730072021484375">
        <ele>862.5999755859375</ele>
        <time>2019-07-07T11:02:04.000Z</time>
      </trkpt>
      <trkpt lat="40.3660287894308567047119140625" lon="-1.10162925906479358673095703125">
        <ele>861.4000244140625</ele>
        <time>2019-07-07T11:02:11.000Z</time>
      </trkpt>
      <trkpt lat="40.3660311363637447357177734375" lon="-1.10138501040637493133544921875">
        <ele>860.4000244140625</ele>
        <time>2019-07-07T11:02:16.000Z</time>
      </trkpt>
      <trkpt lat="40.36601445637643337249755859375" lon="-1.1011532507836818695068359375">
        <ele>859.20001220703125</ele>
        <time>2019-07-07T11:02:20.000Z</time>
      </trkpt>
      <trkpt lat="40.3659875504672527313232421875" lon="-1.100937165319919586181640625">
        <ele>858</ele>
        <time>2019-07-07T11:02:24.000Z</time>
      </trkpt>
      <trkpt lat="40.3659469820559024810791015625" lon="-1.10062007792294025421142578125">
        <ele>857</ele>
        <time>2019-07-07T11:02:32.000Z</time>
      </trkpt>
      <trkpt lat="40.36593885160982608795166015625" lon="-1.1004049144685268402099609375">
        <ele>856</ele>
        <time>2019-07-07T11:02:49.000Z</time>
      </trkpt>
      <trkpt lat="40.3659365884959697723388671875" lon="-1.10039209015667438507080078125">
        <ele>856</ele>
        <time>2019-07-07T11:02:50.000Z</time>
      </trkpt>
      <trkpt lat="40.36592669785022735595703125" lon="-1.10031380318105220794677734375">
        <ele>855.4000244140625</ele>
        <time>2019-07-07T11:02:58.000Z</time>
      </trkpt>
      <trkpt lat="40.36591320298612117767333984375" lon="-1.1000639386475086212158203125">
        <ele>855</ele>
        <time>2019-07-07T11:03:16.000Z</time>
      </trkpt>
      <trkpt lat="40.36594681441783905029296875" lon="-1.09966990537941455841064453125">
        <ele>854</ele>
        <time>2019-07-07T11:03:32.000Z</time>
      </trkpt>
      <trkpt lat="40.36605946719646453857421875" lon="-1.09916665591299533843994140625">
        <ele>852.79998779296875</ele>
        <time>2019-07-07T11:04:01.000Z</time>
      </trkpt>
      <trkpt lat="40.36625384353101253509521484375" lon="-1.09859350137412548065185546875">
        <ele>852.20001220703125</ele>
        <time>2019-07-07T11:04:28.000Z</time>
      </trkpt>
      <trkpt lat="40.3663975931704044342041015625" lon="-1.09819251112639904022216796875">
        <ele>851.79998779296875</ele>
        <time>2019-07-07T11:04:32.000Z</time>
      </trkpt>
      <trkpt lat="40.36655441857874393463134765625" lon="-1.09771574847400188446044921875">
        <ele>850.79998779296875</ele>
        <time>2019-07-07T11:04:37.000Z</time>
      </trkpt>
      <trkpt lat="40.36657101474702358245849609375" lon="-1.09755833633244037628173828125">
        <ele>850.79998779296875</ele>
        <time>2019-07-07T11:04:39.000Z</time>
      </trkpt>
      <trkpt lat="40.3664958290755748748779296875" lon="-1.09723513014614582061767578125">
        <ele>851.5999755859375</ele>
        <time>2019-07-07T11:04:52.000Z</time>
      </trkpt>
      <trkpt lat="40.366411842405796051025390625" lon="-1.09701267443597316741943359375">
        <ele>851.4000244140625</ele>
        <time>2019-07-07T11:04:55.000Z</time>
      </trkpt>
      <trkpt lat="40.36638074554502964019775390625" lon="-1.09680882655084133148193359375">
        <ele>851.5999755859375</ele>
        <time>2019-07-07T11:04:57.000Z</time>
      </trkpt>
      <trkpt lat="40.366383679211139678955078125" lon="-1.0966922342777252197265625">
        <ele>851.79998779296875</ele>
        <time>2019-07-07T11:04:58.000Z</time>
      </trkpt>
      <trkpt lat="40.36640019156038761138916015625" lon="-1.0965696908533573150634765625">
        <ele>851.79998779296875</ele>
        <time>2019-07-07T11:04:59.000Z</time>
      </trkpt>
      <trkpt lat="40.36646909080445766448974609375" lon="-1.09634044580161571502685546875">
        <ele>852.20001220703125</ele>
        <time>2019-07-07T11:05:01.000Z</time>
      </trkpt>
      <trkpt lat="40.36657218821346759796142578125" lon="-1.0961371846497058868408203125">
        <ele>853</ele>
        <time>2019-07-07T11:05:03.000Z</time>
      </trkpt>
      <trkpt lat="40.36677452735602855682373046875" lon="-1.09602771699428558349609375">
        <ele>853.5999755859375</ele>
        <time>2019-07-07T11:05:05.000Z</time>
      </trkpt>
      <trkpt lat="40.36700067110359668731689453125" lon="-1.09603039920330047607421875">
        <ele>853.79998779296875</ele>
        <time>2019-07-07T11:05:07.000Z</time>
      </trkpt>
      <trkpt lat="40.36719982512295246124267578125" lon="-1.0961117036640644073486328125">
        <ele>854</ele>
        <time>2019-07-07T11:05:09.000Z</time>
      </trkpt>
      <trkpt lat="40.3673675470054149627685546875" lon="-1.09628411941230297088623046875">
        <ele>853.79998779296875</ele>
        <time>2019-07-07T11:05:11.000Z</time>
      </trkpt>
      <trkpt lat="40.36767206154763698577880859375" lon="-1.09690136276185512542724609375">
        <ele>852.20001220703125</ele>
        <time>2019-07-07T11:05:15.000Z</time>
      </trkpt>
      <trkpt lat="40.36779292859137058258056640625" lon="-1.0970628820359706878662109375">
        <ele>851.79998779296875</ele>
        <time>2019-07-07T11:05:16.000Z</time>
      </trkpt>
      <trkpt lat="40.368186794221401214599609375" lon="-1.0974997468292713165283203125">
        <ele>851</ele>
        <time>2019-07-07T11:05:19.000Z</time>
      </trkpt>
      <trkpt lat="40.3684206493198871612548828125" lon="-1.0977924428880214691162109375">
        <ele>852.79998779296875</ele>
        <time>2019-07-07T11:05:21.000Z</time>
      </trkpt>
      <trkpt lat="40.368535481393337249755859375" lon="-1.09793820418417453765869140625">
        <ele>854.4000244140625</ele>
        <time>2019-07-07T11:05:22.000Z</time>
      </trkpt>
      <trkpt lat="40.36865307949483394622802734375" lon="-1.09808002598583698272705078125">
        <ele>855.4000244140625</ele>
        <time>2019-07-07T11:05:23.000Z</time>
      </trkpt>
      <trkpt lat="40.36898617632687091827392578125" lon="-1.09850339591503143310546875">
        <ele>856.4000244140625</ele>
        <time>2019-07-07T11:05:26.000Z</time>
      </trkpt>
      <trkpt lat="40.36938649602234363555908203125" lon="-1.09901309944689273834228515625">
        <ele>854.79998779296875</ele>
        <time>2019-07-07T11:05:29.000Z</time>
      </trkpt>
      <trkpt lat="40.36954910494387149810791015625" lon="-1.09921879135072231292724609375">
        <ele>853.5999755859375</ele>
        <time>2019-07-07T11:05:30.000Z</time>
      </trkpt>
      <trkpt lat="40.36971908994019031524658203125" lon="-1.0994326137006282806396484375">
        <ele>852.5999755859375</ele>
        <time>2019-07-07T11:05:31.000Z</time>
      </trkpt>
      <trkpt lat="40.37006190977990627288818359375" lon="-1.0998768545687198638916015625">
        <ele>851.5999755859375</ele>
        <time>2019-07-07T11:05:33.000Z</time>
      </trkpt>
      <trkpt lat="40.37023541517555713653564453125" lon="-1.10011045821011066436767578125">
        <ele>850.5999755859375</ele>
        <time>2019-07-07T11:05:34.000Z</time>
      </trkpt>
      <trkpt lat="40.37041109986603260040283203125" lon="-1.10034766606986522674560546875">
        <ele>849.4000244140625</ele>
        <time>2019-07-07T11:05:35.000Z</time>
      </trkpt>
      <trkpt lat="40.3705845214426517486572265625" lon="-1.10058135353028774261474609375">
        <ele>848.20001220703125</ele>
        <time>2019-07-07T11:05:36.000Z</time>
      </trkpt>
      <trkpt lat="40.37092030048370361328125" lon="-1.10105191357433795928955078125">
        <ele>848.20001220703125</ele>
        <time>2019-07-07T11:05:38.000Z</time>
      </trkpt>
      <trkpt lat="40.3712587617337703704833984375" lon="-1.1015274189412593841552734375">
        <ele>847</ele>
        <time>2019-07-07T11:05:40.000Z</time>
      </trkpt>
      <trkpt lat="40.3715983964502811431884765625" lon="-1.10201918520033359527587890625">
        <ele>848.20001220703125</ele>
        <time>2019-07-07T11:05:42.000Z</time>
      </trkpt>
      <trkpt lat="40.3719303198158740997314453125" lon="-1.10252226702868938446044921875">
        <ele>849.4000244140625</ele>
        <time>2019-07-07T11:05:44.000Z</time>
      </trkpt>
      <trkpt lat="40.3722535260021686553955078125" lon="-1.10303289256989955902099609375">
        <ele>850.20001220703125</ele>
        <time>2019-07-07T11:05:46.000Z</time>
      </trkpt>
      <trkpt lat="40.37241286598145961761474609375" lon="-1.1032919771969318389892578125">
        <ele>851</ele>
        <time>2019-07-07T11:05:47.000Z</time>
      </trkpt>
      <trkpt lat="40.3727255947887897491455078125" lon="-1.103813834488391876220703125">
        <ele>851.4000244140625</ele>
        <time>2019-07-07T11:05:49.000Z</time>
      </trkpt>
      <trkpt lat="40.37302876822650432586669921875" lon="-1.10434952192008495330810546875">
        <ele>851</ele>
        <time>2019-07-07T11:05:51.000Z</time>
      </trkpt>
      <trkpt lat="40.37317561917006969451904296875" lon="-1.10462327487766742706298828125">
        <ele>849.79998779296875</ele>
        <time>2019-07-07T11:05:52.000Z</time>
      </trkpt>
      <trkpt lat="40.3733243979513645172119140625" lon="-1.104903481900691986083984375">
        <ele>848.20001220703125</ele>
        <time>2019-07-07T11:05:53.000Z</time>
      </trkpt>
      <trkpt lat="40.373476110398769378662109375" lon="-1.10519282519817352294921875">
        <ele>846</ele>
        <time>2019-07-07T11:05:54.000Z</time>
      </trkpt>
      <trkpt lat="40.37363159470260143280029296875" lon="-1.1054887063801288604736328125">
        <ele>843.79998779296875</ele>
        <time>2019-07-07T11:05:55.000Z</time>
      </trkpt>
      <trkpt lat="40.3737874142825603485107421875" lon="-1.10578802414238452911376953125">
        <ele>842.5999755859375</ele>
        <time>2019-07-07T11:05:56.000Z</time>
      </trkpt>
      <trkpt lat="40.374087654054164886474609375" lon="-1.10638783313333988189697265625">
        <ele>841.4000244140625</ele>
        <time>2019-07-07T11:05:58.000Z</time>
      </trkpt>
      <trkpt lat="40.37438370287418365478515625" lon="-1.106993593275547027587890625">
        <ele>840.4000244140625</ele>
        <time>2019-07-07T11:06:00.000Z</time>
      </trkpt>
      <trkpt lat="40.3746675141155719757080078125" lon="-1.10760689713060855865478515625">
        <ele>844.4000244140625</ele>
        <time>2019-07-07T11:06:02.000Z</time>
      </trkpt>
      <trkpt lat="40.3747992776334285736083984375" lon="-1.107916943728923797607421875">
        <ele>848.20001220703125</ele>
        <time>2019-07-07T11:06:03.000Z</time>
      </trkpt>
      <trkpt lat="40.374925844371318817138671875" lon="-1.10822967253625392913818359375">
        <ele>852.4000244140625</ele>
        <time>2019-07-07T11:06:04.000Z</time>
      </trkpt>
      <trkpt lat="40.375050567090511322021484375" lon="-1.1085457541048526763916015625">
        <ele>854.4000244140625</ele>
        <time>2019-07-07T11:06:05.000Z</time>
      </trkpt>
      <trkpt lat="40.37529833614826202392578125" lon="-1.10919359140098094940185546875">
        <ele>856.20001220703125</ele>
        <time>2019-07-07T11:06:07.000Z</time>
      </trkpt>
      <trkpt lat="40.3755523078143596649169921875" lon="-1.10985039733350276947021484375">
        <ele>854.79998779296875</ele>
        <time>2019-07-07T11:06:09.000Z</time>
      </trkpt>
      <trkpt lat="40.37581264972686767578125" lon="-1.11051055602729320526123046875">
        <ele>856</ele>
        <time>2019-07-07T11:06:11.000Z</time>
      </trkpt>
      <trkpt lat="40.3759395517408847808837890625" lon="-1.1108477599918842315673828125">
        <ele>858</ele>
        <time>2019-07-07T11:06:12.000Z</time>
      </trkpt>
      <trkpt lat="40.37606050260365009307861328125" lon="-1.11119200475513935089111328125">
        <ele>859.20001220703125</ele>
        <time>2019-07-07T11:06:13.000Z</time>
      </trkpt>
      <trkpt lat="40.37628882564604282379150390625" lon="-1.1118844337761402130126953125">
        <ele>859.4000244140625</ele>
        <time>2019-07-07T11:06:15.000Z</time>
      </trkpt>
      <trkpt lat="40.37650574930012226104736328125" lon="-1.11257401295006275177001953125">
        <ele>858</ele>
        <time>2019-07-07T11:06:17.000Z</time>
      </trkpt>
      <trkpt lat="40.3766084276139736175537109375" lon="-1.11292119137942790985107421875">
        <ele>856.4000244140625</ele>
        <time>2019-07-07T11:06:18.000Z</time>
      </trkpt>
      <trkpt lat="40.3768048994243144989013671875" lon="-1.11362074501812458038330078125">
        <ele>854.5999755859375</ele>
        <time>2019-07-07T11:06:20.000Z</time>
      </trkpt>
      <trkpt lat="40.37699961103498935699462890625" lon="-1.11433337442576885223388671875">
        <ele>853.79998779296875</ele>
        <time>2019-07-07T11:06:22.000Z</time>
      </trkpt>
      <trkpt lat="40.37709550000727176666259765625" lon="-1.1146927066147327423095703125">
        <ele>853.4000244140625</ele>
        <time>2019-07-07T11:06:23.000Z</time>
      </trkpt>
      <trkpt lat="40.37728727795183658599853515625" lon="-1.11540977843105792999267578125">
        <ele>854.5999755859375</ele>
        <time>2019-07-07T11:06:25.000Z</time>
      </trkpt>
      <trkpt lat="40.3774720989167690277099609375" lon="-1.11613087356090545654296875">
        <ele>855.5999755859375</ele>
        <time>2019-07-07T11:06:27.000Z</time>
      </trkpt>
      <trkpt lat="40.37756203673779964447021484375" lon="-1.1164928041398525238037109375">
        <ele>857.79998779296875</ele>
        <time>2019-07-07T11:06:28.000Z</time>
      </trkpt>
      <trkpt lat="40.3776513040065765380859375" lon="-1.11685532145202159881591796875">
        <ele>859.79998779296875</ele>
        <time>2019-07-07T11:06:29.000Z</time>
      </trkpt>
      <trkpt lat="40.377829335629940032958984375" lon="-1.117577254772186279296875">
        <ele>861.20001220703125</ele>
        <time>2019-07-07T11:06:31.000Z</time>
      </trkpt>
      <trkpt lat="40.37791893817484378814697265625" lon="-1.1179385147988796234130859375">
        <ele>859.79998779296875</ele>
        <time>2019-07-07T11:06:32.000Z</time>
      </trkpt>
      <trkpt lat="40.378009043633937835693359375" lon="-1.11830069683492183685302734375">
        <ele>858.5999755859375</ele>
        <time>2019-07-07T11:06:33.000Z</time>
      </trkpt>
      <trkpt lat="40.37818648852407932281494140625" lon="-1.11902237869799137115478515625">
        <ele>857.79998779296875</ele>
        <time>2019-07-07T11:06:35.000Z</time>
      </trkpt>
      <trkpt lat="40.3782720677554607391357421875" lon="-1.11937810666859149932861328125">
        <ele>860.79998779296875</ele>
        <time>2019-07-07T11:06:36.000Z</time>
      </trkpt>
      <trkpt lat="40.37835546769201755523681640625" lon="-1.1197285540401935577392578125">
        <ele>867.5999755859375</ele>
        <time>2019-07-07T11:06:37.000Z</time>
      </trkpt>
      <trkpt lat="40.37843693979084491729736328125" lon="-1.12007380463182926177978515625">
        <ele>874</ele>
        <time>2019-07-07T11:06:38.000Z</time>
      </trkpt>
      <trkpt lat="40.378517992794513702392578125" lon="-1.12041436135768890380859375">
        <ele>877.20001220703125</ele>
        <time>2019-07-07T11:06:39.000Z</time>
      </trkpt>
      <trkpt lat="40.37859887816011905670166015625" lon="-1.12075106240808963775634765625">
        <ele>878.79998779296875</ele>
        <time>2019-07-07T11:06:40.000Z</time>
      </trkpt>
      <trkpt lat="40.37867867387831211090087890625" lon="-1.12108516506850719451904296875">
        <ele>880.4000244140625</ele>
        <time>2019-07-07T11:06:41.000Z</time>
      </trkpt>
      <trkpt lat="40.37883424200117588043212890625" lon="-1.121746413409709930419921875">
        <ele>881</ele>
        <time>2019-07-07T11:06:43.000Z</time>
      </trkpt>
      <trkpt lat="40.37898712791502475738525390625" lon="-1.12239927984774112701416015625">
        <ele>881.20001220703125</ele>
        <time>2019-07-07T11:06:45.000Z</time>
      </trkpt>
      <trkpt lat="40.37906558252871036529541015625" lon="-1.12272181548178195953369140625">
        <ele>882.5999755859375</ele>
        <time>2019-07-07T11:06:46.000Z</time>
      </trkpt>
      <trkpt lat="40.37914336659014225006103515625" lon="-1.1230449378490447998046875">
        <ele>883.79998779296875</ele>
        <time>2019-07-07T11:06:47.000Z</time>
      </trkpt>
      <trkpt lat="40.3792222402989864349365234375" lon="-1.12336956895887851715087890625">
        <ele>885.20001220703125</ele>
        <time>2019-07-07T11:06:48.000Z</time>
      </trkpt>
      <trkpt lat="40.3793855197727680206298828125" lon="-1.1240241117775440216064453125">
        <ele>886.79998779296875</ele>
        <time>2019-07-07T11:06:50.000Z</time>
      </trkpt>
      <trkpt lat="40.37956497631967067718505859375" lon="-1.12470732070505619049072265625">
        <ele>886.4000244140625</ele>
        <time>2019-07-07T11:06:52.000Z</time>
      </trkpt>
      <trkpt lat="40.379661619663238525390625" lon="-1.12506531178951263427734375">
        <ele>883.79998779296875</ele>
        <time>2019-07-07T11:06:53.000Z</time>
      </trkpt>
      <trkpt lat="40.37976421415805816650390625" lon="-1.1254342831671237945556640625">
        <ele>880.79998779296875</ele>
        <time>2019-07-07T11:06:54.000Z</time>
      </trkpt>
      <trkpt lat="40.379875190556049346923828125" lon="-1.12581272609531879425048828125">
        <ele>878</ele>
        <time>2019-07-07T11:06:55.000Z</time>
      </trkpt>
      <trkpt lat="40.37999463267624378204345703125" lon="-1.1261987127363681793212890625">
        <ele>875.5999755859375</ele>
        <time>2019-07-07T11:06:56.000Z</time>
      </trkpt>
      <trkpt lat="40.38012119941413402557373046875" lon="-1.12659174017608165740966796875">
        <ele>873.79998779296875</ele>
        <time>2019-07-07T11:06:57.000Z</time>
      </trkpt>
      <trkpt lat="40.3802528791129589080810546875" lon="-1.12698904238641262054443359375">
        <ele>872.79998779296875</ele>
        <time>2019-07-07T11:06:58.000Z</time>
      </trkpt>
      <trkpt lat="40.38052839227020740509033203125" lon="-1.12777861766517162322998046875">
        <ele>871.4000244140625</ele>
        <time>2019-07-07T11:07:00.000Z</time>
      </trkpt>
      <trkpt lat="40.3808104433119297027587890625" lon="-1.128528378903865814208984375">
        <ele>869.79998779296875</ele>
        <time>2019-07-07T11:07:02.000Z</time>
      </trkpt>
      <trkpt lat="40.381097607314586639404296875" lon="-1.12922734580934047698974609375">
        <ele>869.5999755859375</ele>
        <time>2019-07-07T11:07:04.000Z</time>
      </trkpt>
      <trkpt lat="40.38139005191624164581298828125" lon="-1.1298917792737483978271484375">
        <ele>873</ele>
        <time>2019-07-07T11:07:06.000Z</time>
      </trkpt>
      <trkpt lat="40.3815378248691558837890625" lon="-1.13021288998425006866455078125">
        <ele>879.5999755859375</ele>
        <time>2019-07-07T11:07:07.000Z</time>
      </trkpt>
      <trkpt lat="40.38168509490787982940673828125" lon="-1.13052872009575366973876953125">
        <ele>887</ele>
        <time>2019-07-07T11:07:08.000Z</time>
      </trkpt>
      <trkpt lat="40.38183244876563549041748046875" lon="-1.130840778350830078125">
        <ele>890.79998779296875</ele>
        <time>2019-07-07T11:07:09.000Z</time>
      </trkpt>
      <trkpt lat="40.38198214955627918243408203125" lon="-1.131146214902400970458984375">
        <ele>892.5999755859375</ele>
        <time>2019-07-07T11:07:10.000Z</time>
      </trkpt>
      <trkpt lat="40.3821341134607791900634765625" lon="-1.131446622312068939208984375">
        <ele>890.5999755859375</ele>
        <time>2019-07-07T11:07:11.000Z</time>
      </trkpt>
      <trkpt lat="40.38228842429816722869873046875" lon="-1.13174476660788059234619140625">
        <ele>887.20001220703125</ele>
        <time>2019-07-07T11:07:12.000Z</time>
      </trkpt>
      <trkpt lat="40.38244550116360187530517578125" lon="-1.132040731608867645263671875">
        <ele>881.5999755859375</ele>
        <time>2019-07-07T11:07:13.000Z</time>
      </trkpt>
      <trkpt lat="40.38260475732386112213134765625" lon="-1.13233485259115695953369140625">
        <ele>878.20001220703125</ele>
        <time>2019-07-07T11:07:14.000Z</time>
      </trkpt>
      <trkpt lat="40.38276451639831066131591796875" lon="-1.13262712955474853515625">
        <ele>876.4000244140625</ele>
        <time>2019-07-07T11:07:15.000Z</time>
      </trkpt>
      <trkpt lat="40.383083112537860870361328125" lon="-1.13320455886423587799072265625">
        <ele>878.20001220703125</ele>
        <time>2019-07-07T11:07:17.000Z</time>
      </trkpt>
      <trkpt lat="40.38324412889778614044189453125" lon="-1.13348904065787792205810546875">
        <ele>880</ele>
        <time>2019-07-07T11:07:18.000Z</time>
      </trkpt>
      <trkpt lat="40.383566915988922119140625" lon="-1.13405096344649791717529296875">
        <ele>880.5999755859375</ele>
        <time>2019-07-07T11:07:20.000Z</time>
      </trkpt>
      <trkpt lat="40.38372793234884738922119140625" lon="-1.1343276500701904296875">
        <ele>881.5999755859375</ele>
        <time>2019-07-07T11:07:21.000Z</time>
      </trkpt>
      <trkpt lat="40.38404644466936588287353515625" lon="-1.13488018512725830078125">
        <ele>884.20001220703125</ele>
        <time>2019-07-07T11:07:23.000Z</time>
      </trkpt>
      <trkpt lat="40.38436043076217174530029296875" lon="-1.1354260146617889404296875">
        <ele>886.4000244140625</ele>
        <time>2019-07-07T11:07:25.000Z</time>
      </trkpt>
      <trkpt lat="40.384516417980194091796875" lon="-1.13569549284875392913818359375">
        <ele>887.5999755859375</ele>
        <time>2019-07-07T11:07:26.000Z</time>
      </trkpt>
      <trkpt lat="40.38466871716082096099853515625" lon="-1.13596270792186260223388671875">
        <ele>889</ele>
        <time>2019-07-07T11:07:27.000Z</time>
      </trkpt>
      <trkpt lat="40.3848181664943695068359375" lon="-1.1362284980714321136474609375">
        <ele>890.20001220703125</ele>
        <time>2019-07-07T11:07:28.000Z</time>
      </trkpt>
      <trkpt lat="40.384964682161808013916015625" lon="-1.1364950425922870635986328125">
        <ele>893.79998779296875</ele>
        <time>2019-07-07T11:07:29.000Z</time>
      </trkpt>
      <trkpt lat="40.38510675542056560516357421875" lon="-1.13676284439861774444580078125">
        <ele>899.4000244140625</ele>
        <time>2019-07-07T11:07:30.000Z</time>
      </trkpt>
      <trkpt lat="40.3852454759180545806884765625" lon="-1.13703073002398014068603515625">
        <ele>904.79998779296875</ele>
        <time>2019-07-07T11:07:31.000Z</time>
      </trkpt>
      <trkpt lat="40.38538285531103610992431640625" lon="-1.137299872934818267822265625">
        <ele>908.20001220703125</ele>
        <time>2019-07-07T11:07:32.000Z</time>
      </trkpt>
      <trkpt lat="40.3855173848569393157958984375" lon="-1.137571446597576141357421875">
        <ele>911</ele>
        <time>2019-07-07T11:07:33.000Z</time>
      </trkpt>
      <trkpt lat="40.38564973510801792144775390625" lon="-1.13784335553646087646484375">
        <ele>912.4000244140625</ele>
        <time>2019-07-07T11:07:34.000Z</time>
      </trkpt>
      <trkpt lat="40.38590789772570133209228515625" lon="-1.13838893361389636993408203125">
        <ele>913.20001220703125</ele>
        <time>2019-07-07T11:07:36.000Z</time>
      </trkpt>
      <trkpt lat="40.3861580975353717803955078125" lon="-1.138943731784820556640625">
        <ele>913.4000244140625</ele>
        <time>2019-07-07T11:07:38.000Z</time>
      </trkpt>
      <trkpt lat="40.38640611805021762847900390625" lon="-1.1395209096372127532958984375">
        <ele>913.79998779296875</ele>
        <time>2019-07-07T11:07:40.000Z</time>
      </trkpt>
      <trkpt lat="40.38665321655571460723876953125" lon="-1.1401260830461978912353515625">
        <ele>913.4000244140625</ele>
        <time>2019-07-07T11:07:42.000Z</time>
      </trkpt>
      <trkpt lat="40.38677408359944820404052734375" lon="-1.140436716377735137939453125">
        <ele>911.5999755859375</ele>
        <time>2019-07-07T11:07:43.000Z</time>
      </trkpt>
      <trkpt lat="40.38689327426254749298095703125" lon="-1.14075028337538242340087890625">
        <ele>910.5999755859375</ele>
        <time>2019-07-07T11:07:44.000Z</time>
      </trkpt>
      <trkpt lat="40.38713090121746063232421875" lon="-1.14139317534863948822021484375">
        <ele>910</ele>
        <time>2019-07-07T11:07:46.000Z</time>
      </trkpt>
      <trkpt lat="40.3872487507760524749755859375" lon="-1.14172694273293018341064453125">
        <ele>907.5999755859375</ele>
        <time>2019-07-07T11:07:47.000Z</time>
      </trkpt>
      <trkpt lat="40.387367270886898040771484375" lon="-1.14206071011722087860107421875">
        <ele>905.79998779296875</ele>
        <time>2019-07-07T11:07:48.000Z</time>
      </trkpt>
      <trkpt lat="40.3876061551272869110107421875" lon="-1.14272908307611942291259765625">
        <ele>904.79998779296875</ele>
        <time>2019-07-07T11:07:50.000Z</time>
      </trkpt>
      <trkpt lat="40.3877268545329570770263671875" lon="-1.1430594138801097869873046875">
        <ele>902.20001220703125</ele>
        <time>2019-07-07T11:07:51.000Z</time>
      </trkpt>
      <trkpt lat="40.387847721576690673828125" lon="-1.14338370971381664276123046875">
        <ele>900.4000244140625</ele>
        <time>2019-07-07T11:07:52.000Z</time>
      </trkpt>
      <trkpt lat="40.38796414621174335479736328125" lon="-1.1437014676630496978759765625">
        <ele>898.5999755859375</ele>
        <time>2019-07-07T11:07:53.000Z</time>
      </trkpt>
      <trkpt lat="40.38818341679871082305908203125" lon="-1.14432164467871189117431640625">
        <ele>897.5999755859375</ele>
        <time>2019-07-07T11:07:55.000Z</time>
      </trkpt>
      <trkpt lat="40.388294644653797149658203125" lon="-1.144630014896392822265625">
        <ele>896.20001220703125</ele>
        <time>2019-07-07T11:07:56.000Z</time>
      </trkpt>
      <trkpt lat="40.3885187767446041107177734375" lon="-1.14524214528501033782958984375">
        <ele>898.20001220703125</ele>
        <time>2019-07-07T11:07:58.000Z</time>
      </trkpt>
      <trkpt lat="40.38863168098032474517822265625" lon="-1.14555261097848415374755859375">
        <ele>900.20001220703125</ele>
        <time>2019-07-07T11:07:59.000Z</time>
      </trkpt>
      <trkpt lat="40.3887494467198848724365234375" lon="-1.14586961455643177032470703125">
        <ele>902</ele>
        <time>2019-07-07T11:08:00.000Z</time>
      </trkpt>
      <trkpt lat="40.38900316692888736724853515625" lon="-1.146522648632526397705078125">
        <ele>902.5999755859375</ele>
        <time>2019-07-07T11:08:02.000Z</time>
      </trkpt>
      <trkpt lat="40.3891387023031711578369140625" lon="-1.14685230888426303863525390625">
        <ele>903.4000244140625</ele>
        <time>2019-07-07T11:08:03.000Z</time>
      </trkpt>
      <trkpt lat="40.38928178139030933380126953125" lon="-1.14717819727957248687744140625">
        <ele>904.4000244140625</ele>
        <time>2019-07-07T11:08:04.000Z</time>
      </trkpt>
      <trkpt lat="40.389580763876438140869140625" lon="-1.14782410673797130584716796875">
        <ele>904</ele>
        <time>2019-07-07T11:08:06.000Z</time>
      </trkpt>
      <trkpt lat="40.38988762535154819488525390625" lon="-1.14845928736031055450439453125">
        <ele>904.20001220703125</ele>
        <time>2019-07-07T11:08:08.000Z</time>
      </trkpt>
      <trkpt lat="40.3900429420173168182373046875" lon="-1.1487731896340847015380859375">
        <ele>908.5999755859375</ele>
        <time>2019-07-07T11:08:09.000Z</time>
      </trkpt>
      <trkpt lat="40.39020211435854434967041015625" lon="-1.1490819789469242095947265625">
        <ele>911.79998779296875</ele>
        <time>2019-07-07T11:08:10.000Z</time>
      </trkpt>
      <trkpt lat="40.39036556147038936614990234375" lon="-1.1493880860507488250732421875">
        <ele>915.20001220703125</ele>
        <time>2019-07-07T11:08:11.000Z</time>
      </trkpt>
      <trkpt lat="40.39053252898156642913818359375" lon="-1.1496911756694316864013671875">
        <ele>918.4000244140625</ele>
        <time>2019-07-07T11:08:12.000Z</time>
      </trkpt>
      <trkpt lat="40.39070301689207553863525390625" lon="-1.1499892361462116241455078125">
        <ele>921.79998779296875</ele>
        <time>2019-07-07T11:08:13.000Z</time>
      </trkpt>
      <trkpt lat="40.39087736047804355621337890625" lon="-1.15028285421431064605712890625">
        <ele>923.4000244140625</ele>
        <time>2019-07-07T11:08:14.000Z</time>
      </trkpt>
      <trkpt lat="40.3910564817488193511962890625" lon="-1.150572113692760467529296875">
        <ele>925.20001220703125</ele>
        <time>2019-07-07T11:08:15.000Z</time>
      </trkpt>
      <trkpt lat="40.391241721808910369873046875" lon="-1.15085684694349765777587890625">
        <ele>926.5999755859375</ele>
        <time>2019-07-07T11:08:16.000Z</time>
      </trkpt>
      <trkpt lat="40.39143182337284088134765625" lon="-1.151138730347156524658203125">
        <ele>928.4000244140625</ele>
        <time>2019-07-07T11:08:17.000Z</time>
      </trkpt>
      <trkpt lat="40.391623936593532562255859375" lon="-1.15142061375081539154052734375">
        <ele>929.79998779296875</ele>
        <time>2019-07-07T11:08:18.000Z</time>
      </trkpt>
      <trkpt lat="40.39181630127131938934326171875" lon="-1.15170224569737911224365234375">
        <ele>931</ele>
        <time>2019-07-07T11:08:19.000Z</time>
      </trkpt>
      <trkpt lat="40.3922068141400814056396484375" lon="-1.1522660963237285614013671875">
        <ele>931</ele>
        <time>2019-07-07T11:08:21.000Z</time>
      </trkpt>
      <trkpt lat="40.39261057041585445404052734375" lon="-1.1528253369033336639404296875">
        <ele>928.20001220703125</ele>
        <time>2019-07-07T11:08:23.000Z</time>
      </trkpt>
      <trkpt lat="40.39281475357711315155029296875" lon="-1.153100766241550445556640625">
        <ele>927</ele>
        <time>2019-07-07T11:08:24.000Z</time>
      </trkpt>
      <trkpt lat="40.39322798140347003936767578125" lon="-1.153654642403125762939453125">
        <ele>927.5999755859375</ele>
        <time>2019-07-07T11:08:26.000Z</time>
      </trkpt>
      <trkpt lat="40.393436439335346221923828125" lon="-1.15393250249326229095458984375">
        <ele>929.4000244140625</ele>
        <time>2019-07-07T11:08:27.000Z</time>
      </trkpt>
      <trkpt lat="40.39364707656204700469970703125" lon="-1.15420944057404994964599609375">
        <ele>932.79998779296875</ele>
        <time>2019-07-07T11:08:28.000Z</time>
      </trkpt>
      <trkpt lat="40.3938572108745574951171875" lon="-1.1544857919216156005859375">
        <ele>934.5999755859375</ele>
        <time>2019-07-07T11:08:29.000Z</time>
      </trkpt>
      <trkpt lat="40.39427169598639011383056640625" lon="-1.15503941662609577178955078125">
        <ele>932</ele>
        <time>2019-07-07T11:08:31.000Z</time>
      </trkpt>
      <trkpt lat="40.39447638206183910369873046875" lon="-1.155315935611724853515625">
        <ele>926.4000244140625</ele>
        <time>2019-07-07T11:08:32.000Z</time>
      </trkpt>
      <trkpt lat="40.3946804814040660858154296875" lon="-1.1555957235395908355712890625">
        <ele>922</ele>
        <time>2019-07-07T11:08:33.000Z</time>
      </trkpt>
      <trkpt lat="40.3948826529085636138916015625" lon="-1.15587810985743999481201171875">
        <ele>919.79998779296875</ele>
        <time>2019-07-07T11:08:34.000Z</time>
      </trkpt>
      <trkpt lat="40.395083986222743988037109375" lon="-1.15615672431886196136474609375">
        <ele>918.5999755859375</ele>
        <time>2019-07-07T11:08:35.000Z</time>
      </trkpt>
      <trkpt lat="40.3954814560711383819580078125" lon="-1.1567269451916217803955078125">
        <ele>921.79998779296875</ele>
        <time>2019-07-07T11:08:37.000Z</time>
      </trkpt>
      <trkpt lat="40.3956765867769718170166015625" lon="-1.1570172943174839019775390625">
        <ele>924.79998779296875</ele>
        <time>2019-07-07T11:08:38.000Z</time>
      </trkpt>
      <trkpt lat="40.395868532359600067138671875" lon="-1.1573103256523609161376953125">
        <ele>926.4000244140625</ele>
        <time>2019-07-07T11:08:39.000Z</time>
      </trkpt>
      <trkpt lat="40.39605586789548397064208984375" lon="-1.157605536282062530517578125">
        <ele>928</ele>
        <time>2019-07-07T11:08:40.000Z</time>
      </trkpt>
      <trkpt lat="40.39623959921300411224365234375" lon="-1.15790552459657192230224609375">
        <ele>925.79998779296875</ele>
        <time>2019-07-07T11:08:41.000Z</time>
      </trkpt>
      <trkpt lat="40.39642048068344593048095703125" lon="-1.15820760838687419891357421875">
        <ele>922.4000244140625</ele>
        <time>2019-07-07T11:08:42.000Z</time>
      </trkpt>
      <trkpt lat="40.39659976959228515625" lon="-1.158513464033603668212890625">
        <ele>919.4000244140625</ele>
        <time>2019-07-07T11:08:43.000Z</time>
      </trkpt>
      <trkpt lat="40.39677654393017292022705078125" lon="-1.158824600279331207275390625">
        <ele>917.79998779296875</ele>
        <time>2019-07-07T11:08:44.000Z</time>
      </trkpt>
      <trkpt lat="40.396954156458377838134765625" lon="-1.15913732908666133880615234375">
        <ele>915.5999755859375</ele>
        <time>2019-07-07T11:08:45.000Z</time>
      </trkpt>
      <trkpt lat="40.3971306793391704559326171875" lon="-1.159458272159099578857421875">
        <ele>913.5999755859375</ele>
        <time>2019-07-07T11:08:46.000Z</time>
      </trkpt>
      <trkpt lat="40.3974686376750469207763671875" lon="-1.16011197678744792938232421875">
        <ele>915.5999755859375</ele>
        <time>2019-07-07T11:08:48.000Z</time>
      </trkpt>
      <trkpt lat="40.3977975435554981231689453125" lon="-1.16076878271996974945068359375">
        <ele>917.20001220703125</ele>
        <time>2019-07-07T11:08:50.000Z</time>
      </trkpt>
      <trkpt lat="40.3979614935815334320068359375" lon="-1.16109852679073810577392578125">
        <ele>913.4000244140625</ele>
        <time>2019-07-07T11:08:51.000Z</time>
      </trkpt>
      <trkpt lat="40.39812385104596614837646484375" lon="-1.1614301986992359161376953125">
        <ele>909.79998779296875</ele>
        <time>2019-07-07T11:08:52.000Z</time>
      </trkpt>
      <trkpt lat="40.39828478358685970306396484375" lon="-1.16176329553127288818359375">
        <ele>908.79998779296875</ele>
        <time>2019-07-07T11:08:53.000Z</time>
      </trkpt>
      <trkpt lat="40.39860597811639308929443359375" lon="-1.16242839954793453216552734375">
        <ele>908</ele>
        <time>2019-07-07T11:08:55.000Z</time>
      </trkpt>
      <trkpt lat="40.39892599917948246002197265625" lon="-1.1630956828594207763671875">
        <ele>911</ele>
        <time>2019-07-07T11:08:57.000Z</time>
      </trkpt>
      <trkpt lat="40.39908148348331451416015625" lon="-1.163429953157901763916015625">
        <ele>912</ele>
        <time>2019-07-07T11:08:58.000Z</time>
      </trkpt>
      <trkpt lat="40.39939261972904205322265625" lon="-1.1640976555645465850830078125">
        <ele>914.20001220703125</ele>
        <time>2019-07-07T11:09:00.000Z</time>
      </trkpt>
      <trkpt lat="40.399550534784793853759765625" lon="-1.1644289083778858184814453125">
        <ele>915.5999755859375</ele>
        <time>2019-07-07T11:09:01.000Z</time>
      </trkpt>
      <trkpt lat="40.39970853365957736968994140625" lon="-1.1647598259150981903076171875">
        <ele>916.79998779296875</ele>
        <time>2019-07-07T11:09:02.000Z</time>
      </trkpt>
      <trkpt lat="40.4000241123139858245849609375" lon="-1.16542258299887180328369140625">
        <ele>919.5999755859375</ele>
        <time>2019-07-07T11:09:04.000Z</time>
      </trkpt>
      <trkpt lat="40.40018445812165737152099609375" lon="-1.1657529138028621673583984375">
        <ele>920.79998779296875</ele>
        <time>2019-07-07T11:09:05.000Z</time>
      </trkpt>
      <trkpt lat="40.40050967596471309661865234375" lon="-1.16641265340149402618408203125">
        <ele>922</ele>
        <time>2019-07-07T11:09:07.000Z</time>
      </trkpt>
      <trkpt lat="40.40084562264382839202880859375" lon="-1.1670705489814281463623046875">
        <ele>923</ele>
        <time>2019-07-07T11:09:09.000Z</time>
      </trkpt>
      <trkpt lat="40.40101468563079833984375" lon="-1.16739735938608646392822265625">
        <ele>927.5999755859375</ele>
        <time>2019-07-07T11:09:10.000Z</time>
      </trkpt>
      <trkpt lat="40.4013608582317829132080078125" lon="-1.1680455319583415985107421875">
        <ele>931.20001220703125</ele>
        <time>2019-07-07T11:09:12.000Z</time>
      </trkpt>
      <trkpt lat="40.4015388898551464080810546875" lon="-1.16836689412593841552734375">
        <ele>932.5999755859375</ele>
        <time>2019-07-07T11:09:13.000Z</time>
      </trkpt>
      <trkpt lat="40.40190375410020351409912109375" lon="-1.16899914108216762542724609375">
        <ele>930</ele>
        <time>2019-07-07T11:09:15.000Z</time>
      </trkpt>
      <trkpt lat="40.402091927826404571533203125" lon="-1.169308684766292572021484375">
        <ele>927.20001220703125</ele>
        <time>2019-07-07T11:09:16.000Z</time>
      </trkpt>
      <trkpt lat="40.40228529833257198333740234375" lon="-1.16961504332721233367919921875">
        <ele>925.20001220703125</ele>
        <time>2019-07-07T11:09:17.000Z</time>
      </trkpt>
      <trkpt lat="40.4024840332567691802978515625" lon="-1.169918887317180633544921875">
        <ele>924</ele>
        <time>2019-07-07T11:09:18.000Z</time>
      </trkpt>
      <trkpt lat="40.40268545038998126983642578125" lon="-1.1702224798500537872314453125">
        <ele>922.5999755859375</ele>
        <time>2019-07-07T11:09:19.000Z</time>
      </trkpt>
      <trkpt lat="40.40310035459697246551513671875" lon="-1.170825473964214324951171875">
        <ele>921.5999755859375</ele>
        <time>2019-07-07T11:09:21.000Z</time>
      </trkpt>
      <trkpt lat="40.40353051386773586273193359375" lon="-1.17142318747937679290771484375">
        <ele>920.79998779296875</ele>
        <time>2019-07-07T11:09:23.000Z</time>
      </trkpt>
      <trkpt lat="40.40375179611146450042724609375" lon="-1.17171755991876125335693359375">
        <ele>920.20001220703125</ele>
        <time>2019-07-07T11:09:24.000Z</time>
      </trkpt>
      <trkpt lat="40.4042033292353153228759765625" lon="-1.172290630638599395751953125">
        <ele>920</ele>
        <time>2019-07-07T11:09:26.000Z</time>
      </trkpt>
      <trkpt lat="40.40465888567268848419189453125" lon="-1.17283880710601806640625">
        <ele>921.5999755859375</ele>
        <time>2019-07-07T11:09:28.000Z</time>
      </trkpt>
      <trkpt lat="40.404886119067668914794921875" lon="-1.1731105484068393707275390625">
        <ele>923.5999755859375</ele>
        <time>2019-07-07T11:09:29.000Z</time>
      </trkpt>
      <trkpt lat="40.4053409211337566375732421875" lon="-1.17365813814103603363037109375">
        <ele>923.5999755859375</ele>
        <time>2019-07-07T11:09:31.000Z</time>
      </trkpt>
      <trkpt lat="40.40557108819484710693359375" lon="-1.1739291250705718994140625">
        <ele>921.4000244140625</ele>
        <time>2019-07-07T11:09:32.000Z</time>
      </trkpt>
      <trkpt lat="40.4060299135744571685791015625" lon="-1.17447101511061191558837890625">
        <ele>919.5999755859375</ele>
        <time>2019-07-07T11:09:34.000Z</time>
      </trkpt>
      <trkpt lat="40.40648815222084522247314453125" lon="-1.17501416243612766265869140625">
        <ele>919.20001220703125</ele>
        <time>2019-07-07T11:09:36.000Z</time>
      </trkpt>
      <trkpt lat="40.40672083385288715362548828125" lon="-1.175285317003726959228515625">
        <ele>918.20001220703125</ele>
        <time>2019-07-07T11:09:37.000Z</time>
      </trkpt>
      <trkpt lat="40.40718887932598590850830078125" lon="-1.17583206854760646820068359375">
        <ele>923.79998779296875</ele>
        <time>2019-07-07T11:09:39.000Z</time>
      </trkpt>
      <trkpt lat="40.407417118549346923828125" lon="-1.1761129461228847503662109375">
        <ele>931</ele>
        <time>2019-07-07T11:09:40.000Z</time>
      </trkpt>
      <trkpt lat="40.4076405800879001617431640625" lon="-1.17639583535492420196533203125">
        <ele>940.4000244140625</ele>
        <time>2019-07-07T11:09:41.000Z</time>
      </trkpt>
      <trkpt lat="40.4078635387122631072998046875" lon="-1.17668115533888339996337890625">
        <ele>945.79998779296875</ele>
        <time>2019-07-07T11:09:42.000Z</time>
      </trkpt>
      <trkpt lat="40.408085323870182037353515625" lon="-1.1769672296941280364990234375">
        <ele>948.5999755859375</ele>
        <time>2019-07-07T11:09:43.000Z</time>
      </trkpt>
      <trkpt lat="40.40830551646649837493896484375" lon="-1.1772565729916095733642578125">
        <ele>950.20001220703125</ele>
        <time>2019-07-07T11:09:44.000Z</time>
      </trkpt>
      <trkpt lat="40.40873148478567600250244140625" lon="-1.17785277776420116424560546875">
        <ele>952.79998779296875</ele>
        <time>2019-07-07T11:09:46.000Z</time>
      </trkpt>
      <trkpt lat="40.40914773009717464447021484375" lon="-1.17846599780023097991943359375">
        <ele>952.5999755859375</ele>
        <time>2019-07-07T11:09:48.000Z</time>
      </trkpt>
      <trkpt lat="40.40956045500934123992919921875" lon="-1.17909614928066730499267578125">
        <ele>955</ele>
        <time>2019-07-07T11:09:50.000Z</time>
      </trkpt>
      <trkpt lat="40.4099673964083194732666015625" lon="-1.17974457331001758575439453125">
        <ele>956.5999755859375</ele>
        <time>2019-07-07T11:09:52.000Z</time>
      </trkpt>
      <trkpt lat="40.41037064976990222930908203125" lon="-1.18040389381349086761474609375">
        <ele>955</ele>
        <time>2019-07-07T11:09:54.000Z</time>
      </trkpt>
      <trkpt lat="40.4105571471154689788818359375" lon="-1.18073011748492717742919921875">
        <ele>953.4000244140625</ele>
        <time>2019-07-07T11:09:55.000Z</time>
      </trkpt>
      <trkpt lat="40.41073492728173732757568359375" lon="-1.18104971945285797119140625">
        <ele>950.20001220703125</ele>
        <time>2019-07-07T11:09:56.000Z</time>
      </trkpt>
      <trkpt lat="40.41090625338256359100341796875" lon="-1.18136881850659847259521484375">
        <ele>945</ele>
        <time>2019-07-07T11:09:57.000Z</time>
      </trkpt>
      <trkpt lat="40.411075986921787261962890625" lon="-1.18168934248387813568115234375">
        <ele>940</ele>
        <time>2019-07-07T11:09:58.000Z</time>
      </trkpt>
      <trkpt lat="40.4112458042800426483154296875" lon="-1.18201263248920440673828125">
        <ele>937.5999755859375</ele>
        <time>2019-07-07T11:09:59.000Z</time>
      </trkpt>
      <trkpt lat="40.41141721419990062713623046875" lon="-1.1823386885225772857666015625">
        <ele>936.4000244140625</ele>
        <time>2019-07-07T11:10:00.000Z</time>
      </trkpt>
      <trkpt lat="40.41175902821123600006103515625" lon="-1.18299708701670169830322265625">
        <ele>938.4000244140625</ele>
        <time>2019-07-07T11:10:02.000Z</time>
      </trkpt>
      <trkpt lat="40.4119297675788402557373046875" lon="-1.18333068676292896270751953125">
        <ele>937</ele>
        <time>2019-07-07T11:10:03.000Z</time>
      </trkpt>
      <trkpt lat="40.412271581590175628662109375" lon="-1.1840080283582210540771484375">
        <ele>940.20001220703125</ele>
        <time>2019-07-07T11:10:05.000Z</time>
      </trkpt>
      <trkpt lat="40.412442572414875030517578125" lon="-1.184351183474063873291015625">
        <ele>941.4000244140625</ele>
        <time>2019-07-07T11:10:06.000Z</time>
      </trkpt>
      <trkpt lat="40.41278480552136898040771484375" lon="-1.18503975681960582733154296875">
        <ele>940.79998779296875</ele>
        <time>2019-07-07T11:10:08.000Z</time>
      </trkpt>
      <trkpt lat="40.41312695480883121490478515625" lon="-1.1857229657471179962158203125">
        <ele>941</ele>
        <time>2019-07-07T11:10:10.000Z</time>
      </trkpt>
      <trkpt lat="40.413474552333354949951171875" lon="-1.18639142252504825592041015625">
        <ele>942.79998779296875</ele>
        <time>2019-07-07T11:10:12.000Z</time>
      </trkpt>
      <trkpt lat="40.41364990174770355224609375" lon="-1.1867264471948146820068359375">
        <ele>945.4000244140625</ele>
        <time>2019-07-07T11:10:13.000Z</time>
      </trkpt>
      <trkpt lat="40.41382617317140102386474609375" lon="-1.1870639026165008544921875">
        <ele>947.79998779296875</ele>
        <time>2019-07-07T11:10:14.000Z</time>
      </trkpt>
      <trkpt lat="40.41400604881346225738525390625" lon="-1.187398843467235565185546875">
        <ele>949.20001220703125</ele>
        <time>2019-07-07T11:10:15.000Z</time>
      </trkpt>
      <trkpt lat="40.41437535546720027923583984375" lon="-1.18805673904716968536376953125">
        <ele>949.20001220703125</ele>
        <time>2019-07-07T11:10:17.000Z</time>
      </trkpt>
      <trkpt lat="40.41456361301243305206298828125" lon="-1.1883837170898914337158203125">
        <ele>947.20001220703125</ele>
        <time>2019-07-07T11:10:18.000Z</time>
      </trkpt>
      <trkpt lat="40.41475421749055385589599609375" lon="-1.18871035985648632049560546875">
        <ele>945.20001220703125</ele>
        <time>2019-07-07T11:10:19.000Z</time>
      </trkpt>
      <trkpt lat="40.41494666598737239837646484375" lon="-1.1890353262424468994140625">
        <ele>943</ele>
        <time>2019-07-07T11:10:20.000Z</time>
      </trkpt>
      <trkpt lat="40.4151420481503009796142578125" lon="-1.18935693986713886260986328125">
        <ele>942</ele>
        <time>2019-07-07T11:10:21.000Z</time>
      </trkpt>
      <trkpt lat="40.4155401885509490966796875" lon="-1.189989186823368072509765625">
        <ele>939.79998779296875</ele>
        <time>2019-07-07T11:10:23.000Z</time>
      </trkpt>
      <trkpt lat="40.4157413542270660400390625" lon="-1.190298981964588165283203125">
        <ele>941</ele>
        <time>2019-07-07T11:10:24.000Z</time>
      </trkpt>
      <trkpt lat="40.4161462001502513885498046875" lon="-1.19091429747641086578369140625">
        <ele>940.79998779296875</ele>
        <time>2019-07-07T11:10:26.000Z</time>
      </trkpt>
      <trkpt lat="40.4165594279766082763671875" lon="-1.19152148254215717315673828125">
        <ele>941</ele>
        <time>2019-07-07T11:10:28.000Z</time>
      </trkpt>
      <trkpt lat="40.41698179207742214202880859375" lon="-1.1921170167624950408935546875">
        <ele>941</ele>
        <time>2019-07-07T11:10:30.000Z</time>
      </trkpt>
      <trkpt lat="40.4174105264246463775634765625" lon="-1.19270668365061283111572265625">
        <ele>941.4000244140625</ele>
        <time>2019-07-07T11:10:32.000Z</time>
      </trkpt>
      <trkpt lat="40.41785233654081821441650390625" lon="-1.19328587315976619720458984375">
        <ele>941.5999755859375</ele>
        <time>2019-07-07T11:10:34.000Z</time>
      </trkpt>
      <trkpt lat="40.41829775087535381317138671875" lon="-1.1938574351370334625244140625">
        <ele>942.4000244140625</ele>
        <time>2019-07-07T11:10:36.000Z</time>
      </trkpt>
      <trkpt lat="40.4187506251037120819091796875" lon="-1.1944153346121311187744140625">
        <ele>941.4000244140625</ele>
        <time>2019-07-07T11:10:38.000Z</time>
      </trkpt>
      <trkpt lat="40.41898003779351711273193359375" lon="-1.1946919374167919158935546875">
        <ele>940.20001220703125</ele>
        <time>2019-07-07T11:10:39.000Z</time>
      </trkpt>
      <trkpt lat="40.41944892145693302154541015625" lon="-1.19524220936000347137451171875">
        <ele>938.79998779296875</ele>
        <time>2019-07-07T11:10:41.000Z</time>
      </trkpt>
      <trkpt lat="40.419932641088962554931640625" lon="-1.19578778743743896484375">
        <ele>940</ele>
        <time>2019-07-07T11:10:43.000Z</time>
      </trkpt>
      <trkpt lat="40.42017848230898380279541015625" lon="-1.1960568465292453765869140625">
        <ele>941</ele>
        <time>2019-07-07T11:10:44.000Z</time>
      </trkpt>
      <trkpt lat="40.42067267931997776031494140625" lon="-1.196587085723876953125">
        <ele>941.5999755859375</ele>
        <time>2019-07-07T11:10:46.000Z</time>
      </trkpt>
      <trkpt lat="40.42117089964449405670166015625" lon="-1.19710265658795833587646484375">
        <ele>941</ele>
        <time>2019-07-07T11:10:48.000Z</time>
      </trkpt>
      <trkpt lat="40.4216725565493106842041015625" lon="-1.1976078338921070098876953125">
        <ele>940</ele>
        <time>2019-07-07T11:10:50.000Z</time>
      </trkpt>
      <trkpt lat="40.4219236783683300018310546875" lon="-1.19785853661596775054931640625">
        <ele>938.5999755859375</ele>
        <time>2019-07-07T11:10:51.000Z</time>
      </trkpt>
      <trkpt lat="40.42242608964443206787109375" lon="-1.198359690606594085693359375">
        <ele>937.5999755859375</ele>
        <time>2019-07-07T11:10:53.000Z</time>
      </trkpt>
      <trkpt lat="40.42293445207178592681884765625" lon="-1.1988533847033977508544921875">
        <ele>938.4000244140625</ele>
        <time>2019-07-07T11:10:55.000Z</time>
      </trkpt>
      <trkpt lat="40.42319026775658130645751953125" lon="-1.19909788481891155242919921875">
        <ele>939.5999755859375</ele>
        <time>2019-07-07T11:10:56.000Z</time>
      </trkpt>
      <trkpt lat="40.42344574816524982452392578125" lon="-1.19934263639152050018310546875">
        <ele>941</ele>
        <time>2019-07-07T11:10:57.000Z</time>
      </trkpt>
      <trkpt lat="40.42370173148810863494873046875" lon="-1.19958772324025630950927734375">
        <ele>943.4000244140625</ele>
        <time>2019-07-07T11:10:58.000Z</time>
      </trkpt>
      <trkpt lat="40.4239544458687305450439453125" lon="-1.199840269982814788818359375">
        <ele>944.5999755859375</ele>
        <time>2019-07-07T11:10:59.000Z</time>
      </trkpt>
      <trkpt lat="40.42446230538189411163330078125" lon="-1.20034955441951751708984375">
        <ele>945.5999755859375</ele>
        <time>2019-07-07T11:11:01.000Z</time>
      </trkpt>
      <trkpt lat="40.42496790178120136260986328125" lon="-1.20085875503718852996826171875">
        <ele>942.5999755859375</ele>
        <time>2019-07-07T11:11:03.000Z</time>
      </trkpt>
      <trkpt lat="40.42521885596215724945068359375" lon="-1.2011141516268253326416015625">
        <ele>941.4000244140625</ele>
        <time>2019-07-07T11:11:04.000Z</time>
      </trkpt>
      <trkpt lat="40.4254670441150665283203125" lon="-1.20137021876871585845947265625">
        <ele>938.4000244140625</ele>
        <time>2019-07-07T11:11:05.000Z</time>
      </trkpt>
      <trkpt lat="40.42571238242089748382568359375" lon="-1.2016284652054309844970703125">
        <ele>936</ele>
        <time>2019-07-07T11:11:06.000Z</time>
      </trkpt>
      <trkpt lat="40.42595512233674526214599609375" lon="-1.20189056731760501861572265625">
        <ele>933.5999755859375</ele>
        <time>2019-07-07T11:11:07.000Z</time>
      </trkpt>
      <trkpt lat="40.42619467712938785552978515625" lon="-1.2021582014858722686767578125">
        <ele>931.5999755859375</ele>
        <time>2019-07-07T11:11:08.000Z</time>
      </trkpt>
      <trkpt lat="40.4264304600656032562255859375" lon="-1.2024307809770107269287109375">
        <ele>930.5999755859375</ele>
        <time>2019-07-07T11:11:09.000Z</time>
      </trkpt>
      <trkpt lat="40.4268981702625751495361328125" lon="-1.2029910273849964141845703125">
        <ele>930.79998779296875</ele>
        <time>2019-07-07T11:11:11.000Z</time>
      </trkpt>
      <trkpt lat="40.4273605160415172576904296875" lon="-1.20356627739965915679931640625">
        <ele>928.5999755859375</ele>
        <time>2019-07-07T11:11:13.000Z</time>
      </trkpt>
      <trkpt lat="40.427585653960704803466796875" lon="-1.20385696180164813995361328125">
        <ele>930.20001220703125</ele>
        <time>2019-07-07T11:11:14.000Z</time>
      </trkpt>
      <trkpt lat="40.4280146397650241851806640625" lon="-1.2044407613575458526611328125">
        <ele>931.5999755859375</ele>
        <time>2019-07-07T11:11:16.000Z</time>
      </trkpt>
      <trkpt lat="40.42843163944780826568603515625" lon="-1.20503528974950313568115234375">
        <ele>934.4000244140625</ele>
        <time>2019-07-07T11:11:18.000Z</time>
      </trkpt>
      <trkpt lat="40.4286374151706695556640625" lon="-1.2053339369595050811767578125">
        <ele>937.79998779296875</ele>
        <time>2019-07-07T11:11:19.000Z</time>
      </trkpt>
      <trkpt lat="40.42883916758000850677490234375" lon="-1.20563375763595104217529296875">
        <ele>939.5999755859375</ele>
        <time>2019-07-07T11:11:20.000Z</time>
      </trkpt>
      <trkpt lat="40.42922624386847019195556640625" lon="-1.206242702901363372802734375">
        <ele>940.79998779296875</ele>
        <time>2019-07-07T11:11:22.000Z</time>
      </trkpt>
      <trkpt lat="40.4296031780540943145751953125" lon="-1.20685500092804431915283203125">
        <ele>941</ele>
        <time>2019-07-07T11:11:24.000Z</time>
      </trkpt>
      <trkpt lat="40.429970808327198028564453125" lon="-1.207474507391452789306640625">
        <ele>939</ele>
        <time>2019-07-07T11:11:26.000Z</time>
      </trkpt>
      <trkpt lat="40.43032444082200527191162109375" lon="-1.2081023119390010833740234375">
        <ele>938.79998779296875</ele>
        <time>2019-07-07T11:11:28.000Z</time>
      </trkpt>
      <trkpt lat="40.43066449463367462158203125" lon="-1.20873925276100635528564453125">
        <ele>938.79998779296875</ele>
        <time>2019-07-07T11:11:30.000Z</time>
      </trkpt>
      <trkpt lat="40.43099398724734783172607421875" lon="-1.20937786996364593505859375">
        <ele>939.4000244140625</ele>
        <time>2019-07-07T11:11:32.000Z</time>
      </trkpt>
      <trkpt lat="40.4311561770737171173095703125" lon="-1.2096962146461009979248046875">
        <ele>940.79998779296875</ele>
        <time>2019-07-07T11:11:33.000Z</time>
      </trkpt>
      <trkpt lat="40.43147812597453594207763671875" lon="-1.2103322334587574005126953125">
        <ele>940.79998779296875</ele>
        <time>2019-07-07T11:11:35.000Z</time>
      </trkpt>
      <trkpt lat="40.43180116452276706695556640625" lon="-1.21097621507942676544189453125">
        <ele>942.5999755859375</ele>
        <time>2019-07-07T11:11:37.000Z</time>
      </trkpt>
      <trkpt lat="40.4321237839758396148681640625" lon="-1.21162598021328449249267578125">
        <ele>942.79998779296875</ele>
        <time>2019-07-07T11:11:39.000Z</time>
      </trkpt>
      <trkpt lat="40.43244548141956329345703125" lon="-1.2122701294720172882080078125">
        <ele>943</ele>
        <time>2019-07-07T11:11:41.000Z</time>
      </trkpt>
      <trkpt lat="40.4327648319303989410400390625" lon="-1.21290539391338825225830078125">
        <ele>943.79998779296875</ele>
        <time>2019-07-07T11:11:43.000Z</time>
      </trkpt>
      <trkpt lat="40.4330897144973278045654296875" lon="-1.21352951042354106903076171875">
        <ele>945.5999755859375</ele>
        <time>2019-07-07T11:11:45.000Z</time>
      </trkpt>
      <trkpt lat="40.43325760401785373687744140625" lon="-1.21383427642285823822021484375">
        <ele>947.79998779296875</ele>
        <time>2019-07-07T11:11:46.000Z</time>
      </trkpt>
      <trkpt lat="40.4334273375570774078369140625" lon="-1.21413652785122394561767578125">
        <ele>949</ele>
        <time>2019-07-07T11:11:47.000Z</time>
      </trkpt>
      <trkpt lat="40.4337689839303493499755859375" lon="-1.21473801322281360626220703125">
        <ele>948</ele>
        <time>2019-07-07T11:11:49.000Z</time>
      </trkpt>
      <trkpt lat="40.43394341133534908294677734375" lon="-1.2150381691753864288330078125">
        <ele>947.79998779296875</ele>
        <time>2019-07-07T11:11:50.000Z</time>
      </trkpt>
      <trkpt lat="40.434300899505615234375" lon="-1.215633451938629150390625">
        <ele>946.4000244140625</ele>
        <time>2019-07-07T11:11:52.000Z</time>
      </trkpt>
      <trkpt lat="40.434482954442501068115234375" lon="-1.21592824347317218780517578125">
        <ele>944.20001220703125</ele>
        <time>2019-07-07T11:11:53.000Z</time>
      </trkpt>
      <trkpt lat="40.4346685297787189483642578125" lon="-1.2162195146083831787109375">
        <ele>941.20001220703125</ele>
        <time>2019-07-07T11:11:54.000Z</time>
      </trkpt>
      <trkpt lat="40.43485720641911029815673828125" lon="-1.21650927700102329254150390625">
        <ele>939.4000244140625</ele>
        <time>2019-07-07T11:11:55.000Z</time>
      </trkpt>
      <trkpt lat="40.43504680506885051727294921875" lon="-1.216796524822711944580078125">
        <ele>938.20001220703125</ele>
        <time>2019-07-07T11:11:56.000Z</time>
      </trkpt>
      <trkpt lat="40.43543438427150249481201171875" lon="-1.21735651977360248565673828125">
        <ele>937</ele>
        <time>2019-07-07T11:11:58.000Z</time>
      </trkpt>
      <trkpt lat="40.4358275793492794036865234375" lon="-1.21790201403200626373291015625">
        <ele>939.20001220703125</ele>
        <time>2019-07-07T11:12:00.000Z</time>
      </trkpt>
      <trkpt lat="40.4360247217118740081787109375" lon="-1.2181706540286540985107421875">
        <ele>940.4000244140625</ele>
        <time>2019-07-07T11:12:01.000Z</time>
      </trkpt>
      <trkpt lat="40.43642361648380756378173828125" lon="-1.218690164387226104736328125">
        <ele>940.79998779296875</ele>
        <time>2019-07-07T11:12:03.000Z</time>
      </trkpt>
      <trkpt lat="40.4368261992931365966796875" lon="-1.219195760786533355712890625">
        <ele>941.79998779296875</ele>
        <time>2019-07-07T11:12:05.000Z</time>
      </trkpt>
      <trkpt lat="40.437241606414318084716796875" lon="-1.2196911312639713287353515625">
        <ele>943</ele>
        <time>2019-07-07T11:12:07.000Z</time>
      </trkpt>
      <trkpt lat="40.43745358474552631378173828125" lon="-1.21993839740753173828125">
        <ele>944.5999755859375</ele>
        <time>2019-07-07T11:12:08.000Z</time>
      </trkpt>
      <trkpt lat="40.43767017312347888946533203125" lon="-1.220182813704013824462890625">
        <ele>946.79998779296875</ele>
        <time>2019-07-07T11:12:09.000Z</time>
      </trkpt>
      <trkpt lat="40.43788902461528778076171875" lon="-1.22042496688663959503173828125">
        <ele>948.4000244140625</ele>
        <time>2019-07-07T11:12:10.000Z</time>
      </trkpt>
      <trkpt lat="40.4383351095020771026611328125" lon="-1.2209028191864490509033203125">
        <ele>950</ele>
        <time>2019-07-07T11:12:12.000Z</time>
      </trkpt>
      <trkpt lat="40.43878831900656223297119140625" lon="-1.22136977501213550567626953125">
        <ele>950.5999755859375</ele>
        <time>2019-07-07T11:12:14.000Z</time>
      </trkpt>
      <trkpt lat="40.4392487369477748870849609375" lon="-1.22182239778339862823486328125">
        <ele>949.5999755859375</ele>
        <time>2019-07-07T11:12:16.000Z</time>
      </trkpt>
      <trkpt lat="40.43948099948465824127197265625" lon="-1.2220457755029201507568359375">
        <ele>948.79998779296875</ele>
        <time>2019-07-07T11:12:17.000Z</time>
      </trkpt>
      <trkpt lat="40.43995323590934276580810546875" lon="-1.22248406521975994110107421875">
        <ele>950</ele>
        <time>2019-07-07T11:12:19.000Z</time>
      </trkpt>
      <trkpt lat="40.44043536297976970672607421875" lon="-1.22291053645312786102294921875">
        <ele>950.5999755859375</ele>
        <time>2019-07-07T11:12:21.000Z</time>
      </trkpt>
      <trkpt lat="40.440680198371410369873046875" lon="-1.2231194972991943359375">
        <ele>952</ele>
        <time>2019-07-07T11:12:22.000Z</time>
      </trkpt>
      <trkpt lat="40.44092796742916107177734375" lon="-1.2233255244791507720947265625">
        <ele>953.20001220703125</ele>
        <time>2019-07-07T11:12:23.000Z</time>
      </trkpt>
      <trkpt lat="40.441430546343326568603515625" lon="-1.22372609563171863555908203125">
        <ele>954</ele>
        <time>2019-07-07T11:12:25.000Z</time>
      </trkpt>
      <trkpt lat="40.44194092042744159698486328125" lon="-1.22411669231951236724853515625">
        <ele>953.20001220703125</ele>
        <time>2019-07-07T11:12:27.000Z</time>
      </trkpt>
      <trkpt lat="40.44246160425245761871337890625" lon="-1.224497146904468536376953125">
        <ele>952.4000244140625</ele>
        <time>2019-07-07T11:12:29.000Z</time>
      </trkpt>
      <trkpt lat="40.44272546656429767608642578125" lon="-1.22468045912683010101318359375">
        <ele>951.79998779296875</ele>
        <time>2019-07-07T11:12:30.000Z</time>
      </trkpt>
      <trkpt lat="40.44325956143438816070556640625" lon="-1.22503794729709625244140625">
        <ele>950.79998779296875</ele>
        <time>2019-07-07T11:12:32.000Z</time>
      </trkpt>
      <trkpt lat="40.44380237348377704620361328125" lon="-1.22538537718355655670166015625">
        <ele>951.79998779296875</ele>
        <time>2019-07-07T11:12:34.000Z</time>
      </trkpt>
      <trkpt lat="40.4443472810089588165283203125" lon="-1.2257136963307857513427734375">
        <ele>951.5999755859375</ele>
        <time>2019-07-07T11:12:36.000Z</time>
      </trkpt>
      <trkpt lat="40.4448900930583477020263671875" lon="-1.22601904906332492828369140625">
        <ele>951.4000244140625</ele>
        <time>2019-07-07T11:12:38.000Z</time>
      </trkpt>
      <trkpt lat="40.4454261995851993560791015625" lon="-1.2263131700456142425537109375">
        <ele>952</ele>
        <time>2019-07-07T11:12:40.000Z</time>
      </trkpt>
      <trkpt lat="40.4459616355597972869873046875" lon="-1.2265984900295734405517578125">
        <ele>952.79998779296875</ele>
        <time>2019-07-07T11:12:42.000Z</time>
      </trkpt>
      <trkpt lat="40.4462300240993499755859375" lon="-1.2267389707267284393310546875">
        <ele>953</ele>
        <time>2019-07-07T11:12:43.000Z</time>
      </trkpt>
      <trkpt lat="40.44676939956843852996826171875" lon="-1.2270162440836429595947265625">
        <ele>955.20001220703125</ele>
        <time>2019-07-07T11:12:45.000Z</time>
      </trkpt>
      <trkpt lat="40.4473168216645717620849609375" lon="-1.22729443944990634918212890625">
        <ele>955.79998779296875</ele>
        <time>2019-07-07T11:12:47.000Z</time>
      </trkpt>
      <trkpt lat="40.447594262659549713134765625" lon="-1.22743575833737850189208984375">
        <ele>956.4000244140625</ele>
        <time>2019-07-07T11:12:48.000Z</time>
      </trkpt>
      <trkpt lat="40.44815375469624996185302734375" lon="-1.22772124595940113067626953125">
        <ele>957.4000244140625</ele>
        <time>2019-07-07T11:12:50.000Z</time>
      </trkpt>
      <trkpt lat="40.44871064834296703338623046875" lon="-1.22801427729427814483642578125">
        <ele>954.20001220703125</ele>
        <time>2019-07-07T11:12:52.000Z</time>
      </trkpt>
      <trkpt lat="40.44898306019604206085205078125" lon="-1.22816062532365322113037109375">
        <ele>952.79998779296875</ele>
        <time>2019-07-07T11:12:53.000Z</time>
      </trkpt>
      <trkpt lat="40.4492506943643093109130859375" lon="-1.2283082306385040283203125">
        <ele>951.20001220703125</ele>
        <time>2019-07-07T11:12:54.000Z</time>
      </trkpt>
      <trkpt lat="40.4497770778834819793701171875" lon="-1.22860436327755451202392578125">
        <ele>950</ele>
        <time>2019-07-07T11:12:56.000Z</time>
      </trkpt>
      <trkpt lat="40.4502934031188488006591796875" lon="-1.22890661470592021942138671875">
        <ele>950.5999755859375</ele>
        <time>2019-07-07T11:12:58.000Z</time>
      </trkpt>
      <trkpt lat="40.45080243609845638275146484375" lon="-1.22921674512326717376708984375">
        <ele>951.5999755859375</ele>
        <time>2019-07-07T11:13:00.000Z</time>
      </trkpt>
      <trkpt lat="40.451054312288761138916015625" lon="-1.22937642037868499755859375">
        <ele>953.5999755859375</ele>
        <time>2019-07-07T11:13:01.000Z</time>
      </trkpt>
      <trkpt lat="40.4515567235648632049560546875" lon="-1.22971127741038799285888671875">
        <ele>955</ele>
        <time>2019-07-07T11:13:03.000Z</time>
      </trkpt>
      <trkpt lat="40.45206726528704166412353515625" lon="-1.230078823864459991455078125">
        <ele>954.79998779296875</ele>
        <time>2019-07-07T11:13:05.000Z</time>
      </trkpt>
      <trkpt lat="40.45257722027599811553955078125" lon="-1.23045475222170352935791015625">
        <ele>954.79998779296875</ele>
        <time>2019-07-07T11:13:07.000Z</time>
      </trkpt>
      <trkpt lat="40.453090108931064605712890625" lon="-1.23082690872251987457275390625">
        <ele>955</ele>
        <time>2019-07-07T11:13:09.000Z</time>
      </trkpt>
      <trkpt lat="40.4536035843193531036376953125" lon="-1.23119068332016468048095703125">
        <ele>955.20001220703125</ele>
        <time>2019-07-07T11:13:11.000Z</time>
      </trkpt>
      <trkpt lat="40.45411613769829273223876953125" lon="-1.2315537035465240478515625">
        <ele>956.20001220703125</ele>
        <time>2019-07-07T11:13:13.000Z</time>
      </trkpt>
      <trkpt lat="40.4543737135827541351318359375" lon="-1.231737099587917327880859375">
        <ele>954.5999755859375</ele>
        <time>2019-07-07T11:13:14.000Z</time>
      </trkpt>
      <trkpt lat="40.45488777570426464080810546875" lon="-1.23211084865033626556396484375">
        <ele>953.5999755859375</ele>
        <time>2019-07-07T11:13:16.000Z</time>
      </trkpt>
      <trkpt lat="40.45540116727352142333984375" lon="-1.23248920775949954986572265625">
        <ele>955</ele>
        <time>2019-07-07T11:13:18.000Z</time>
      </trkpt>
      <trkpt lat="40.4556598328053951263427734375" lon="-1.2326793931424617767333984375">
        <ele>956.79998779296875</ele>
        <time>2019-07-07T11:13:19.000Z</time>
      </trkpt>
      <trkpt lat="40.4561821930110454559326171875" lon="-1.23305934481322765350341796875">
        <ele>958.20001220703125</ele>
        <time>2019-07-07T11:13:21.000Z</time>
      </trkpt>
      <trkpt lat="40.456711761653423309326171875" lon="-1.2334270589053630828857421875">
        <ele>958.4000244140625</ele>
        <time>2019-07-07T11:13:23.000Z</time>
      </trkpt>
      <trkpt lat="40.45724879018962383270263671875" lon="-1.233786642551422119140625">
        <ele>957.20001220703125</ele>
        <time>2019-07-07T11:13:25.000Z</time>
      </trkpt>
      <trkpt lat="40.45751483179628849029541015625" lon="-1.2339732237160205841064453125">
        <ele>956.5999755859375</ele>
        <time>2019-07-07T11:13:26.000Z</time>
      </trkpt>
      <trkpt lat="40.45804590918123722076416015625" lon="-1.23435853980481624603271484375">
        <ele>956.20001220703125</ele>
        <time>2019-07-07T11:13:28.000Z</time>
      </trkpt>
      <trkpt lat="40.45858017168939113616943359375" lon="-1.23474058695137500762939453125">
        <ele>958</ele>
        <time>2019-07-07T11:13:30.000Z</time>
      </trkpt>
      <trkpt lat="40.45910974033176898956298828125" lon="-1.23512380756437778472900390625">
        <ele>959.20001220703125</ele>
        <time>2019-07-07T11:13:32.000Z</time>
      </trkpt>
      <trkpt lat="40.45963528566062450408935546875" lon="-1.2355084531009197235107421875">
        <ele>959.5999755859375</ele>
        <time>2019-07-07T11:13:34.000Z</time>
      </trkpt>
      <trkpt lat="40.46016284264624118804931640625" lon="-1.23589016497135162353515625">
        <ele>959.4000244140625</ele>
        <time>2019-07-07T11:13:36.000Z</time>
      </trkpt>
      <trkpt lat="40.460687465965747833251953125" lon="-1.23627045191824436187744140625">
        <ele>958.79998779296875</ele>
        <time>2019-07-07T11:13:38.000Z</time>
      </trkpt>
      <trkpt lat="40.4612128436565399169921875" lon="-1.23665333725512027740478515625">
        <ele>959.20001220703125</ele>
        <time>2019-07-07T11:13:40.000Z</time>
      </trkpt>
      <trkpt lat="40.46174149028956890106201171875" lon="-1.23703622259199619293212890625">
        <ele>961.4000244140625</ele>
        <time>2019-07-07T11:13:42.000Z</time>
      </trkpt>
      <trkpt lat="40.46200736425817012786865234375" lon="-1.23722582124173641204833984375">
        <ele>962.4000244140625</ele>
        <time>2019-07-07T11:13:43.000Z</time>
      </trkpt>
      <trkpt lat="40.46254011802375316619873046875" lon="-1.2376106344163417816162109375">
        <ele>962.4000244140625</ele>
        <time>2019-07-07T11:13:45.000Z</time>
      </trkpt>
      <trkpt lat="40.46307521872222423553466796875" lon="-1.23799326829612255096435546875">
        <ele>962.4000244140625</ele>
        <time>2019-07-07T11:13:47.000Z</time>
      </trkpt>
      <trkpt lat="40.4633426852524280548095703125" lon="-1.23818521387875080108642578125">
        <ele>961</ele>
        <time>2019-07-07T11:13:48.000Z</time>
      </trkpt>
      <trkpt lat="40.46387694776058197021484375" lon="-1.23857564292848110198974609375">
        <ele>957.5999755859375</ele>
        <time>2019-07-07T11:13:50.000Z</time>
      </trkpt>
      <trkpt lat="40.46414072625339031219482421875" lon="-1.23877010308206081390380859375">
        <ele>954.4000244140625</ele>
        <time>2019-07-07T11:13:51.000Z</time>
      </trkpt>
      <trkpt lat="40.464403331279754638671875" lon="-1.2389624677598476409912109375">
        <ele>952.79998779296875</ele>
        <time>2019-07-07T11:13:52.000Z</time>
      </trkpt>
      <trkpt lat="40.46492912806570529937744140625" lon="-1.239339821040630340576171875">
        <ele>951.79998779296875</ele>
        <time>2019-07-07T11:13:54.000Z</time>
      </trkpt>
      <trkpt lat="40.46545886434614658355712890625" lon="-1.239711306989192962646484375">
        <ele>952</ele>
        <time>2019-07-07T11:13:56.000Z</time>
      </trkpt>
      <trkpt lat="40.4660004191100597381591796875" lon="-1.240067370235919952392578125">
        <ele>952.20001220703125</ele>
        <time>2019-07-07T11:13:58.000Z</time>
      </trkpt>
      <trkpt lat="40.46654582954943180084228515625" lon="-1.2404195778071880340576171875">
        <ele>950.5999755859375</ele>
        <time>2019-07-07T11:14:00.000Z</time>
      </trkpt>
      <trkpt lat="40.46709693968296051025390625" lon="-1.24076046980917453765869140625">
        <ele>949.4000244140625</ele>
        <time>2019-07-07T11:14:02.000Z</time>
      </trkpt>
      <trkpt lat="40.46737731434404850006103515625" lon="-1.240921318531036376953125">
        <ele>950.5999755859375</ele>
        <time>2019-07-07T11:14:03.000Z</time>
      </trkpt>
      <trkpt lat="40.46793915331363677978515625" lon="-1.24124108813703060150146484375">
        <ele>950.20001220703125</ele>
        <time>2019-07-07T11:14:05.000Z</time>
      </trkpt>
      <trkpt lat="40.4685102961957454681396484375" lon="-1.24154250137507915496826171875">
        <ele>953.5999755859375</ele>
        <time>2019-07-07T11:14:07.000Z</time>
      </trkpt>
      <trkpt lat="40.46880056150257587432861328125" lon="-1.24168734066188335418701171875">
        <ele>955</ele>
        <time>2019-07-07T11:14:08.000Z</time>
      </trkpt>
      <trkpt lat="40.46938025392591953277587890625" lon="-1.24197098426520824432373046875">
        <ele>954.79998779296875</ele>
        <time>2019-07-07T11:14:10.000Z</time>
      </trkpt>
      <trkpt lat="40.46996933408081531524658203125" lon="-1.242235265672206878662109375">
        <ele>956</ele>
        <time>2019-07-07T11:14:12.000Z</time>
      </trkpt>
      <trkpt lat="40.4705662094056606292724609375" lon="-1.2424758262932300567626953125">
        <ele>953.79998779296875</ele>
        <time>2019-07-07T11:14:14.000Z</time>
      </trkpt>
      <trkpt lat="40.470862090587615966796875" lon="-1.2425891496241092681884765625">
        <ele>951.4000244140625</ele>
        <time>2019-07-07T11:14:15.000Z</time>
      </trkpt>
      <trkpt lat="40.4711593128740787506103515625" lon="-1.24269518069922924041748046875">
        <ele>950</ele>
        <time>2019-07-07T11:14:16.000Z</time>
      </trkpt>
      <trkpt lat="40.4717534221708774566650390625" lon="-1.2429026328027248382568359375">
        <ele>949.5999755859375</ele>
        <time>2019-07-07T11:14:18.000Z</time>
      </trkpt>
      <trkpt lat="40.47235884703695774078369140625" lon="-1.2430934049189090728759765625">
        <ele>951</ele>
        <time>2019-07-07T11:14:20.000Z</time>
      </trkpt>
      <trkpt lat="40.472664199769496917724609375" lon="-1.2431815825402736663818359375">
        <ele>952.20001220703125</ele>
        <time>2019-07-07T11:14:21.000Z</time>
      </trkpt>
      <trkpt lat="40.473277755081653594970703125" lon="-1.24334360472857952117919921875">
        <ele>953.4000244140625</ele>
        <time>2019-07-07T11:14:23.000Z</time>
      </trkpt>
      <trkpt lat="40.47389860264956951141357421875" lon="-1.243483163416385650634765625">
        <ele>953</ele>
        <time>2019-07-07T11:14:25.000Z</time>
      </trkpt>
      <trkpt lat="40.47452338971197605133056640625" lon="-1.2436040304601192474365234375">
        <ele>952.20001220703125</ele>
        <time>2019-07-07T11:14:27.000Z</time>
      </trkpt>
      <trkpt lat="40.475149266421794891357421875" lon="-1.24371550977230072021484375">
        <ele>953</ele>
        <time>2019-07-07T11:14:29.000Z</time>
      </trkpt>
      <trkpt lat="40.47546199522912502288818359375" lon="-1.2437666393816471099853515625">
        <ele>953.5999755859375</ele>
        <time>2019-07-07T11:14:30.000Z</time>
      </trkpt>
      <trkpt lat="40.475774221122264862060546875" lon="-1.2438113987445831298828125">
        <ele>955</ele>
        <time>2019-07-07T11:14:31.000Z</time>
      </trkpt>
      <trkpt lat="40.4760883748531341552734375" lon="-1.2438494525849819183349609375">
        <ele>956.79998779296875</ele>
        <time>2019-07-07T11:14:32.000Z</time>
      </trkpt>
      <trkpt lat="40.4767186939716339111328125" lon="-1.24390837736427783966064453125">
        <ele>958.79998779296875</ele>
        <time>2019-07-07T11:14:34.000Z</time>
      </trkpt>
      <trkpt lat="40.4773516952991485595703125" lon="-1.2439446710050106048583984375">
        <ele>961</ele>
        <time>2019-07-07T11:14:36.000Z</time>
      </trkpt>
      <trkpt lat="40.4776686988770961761474609375" lon="-1.2439513765275478363037109375">
        <ele>963.79998779296875</ele>
        <time>2019-07-07T11:14:37.000Z</time>
      </trkpt>
      <trkpt lat="40.47798612155020236968994140625" lon="-1.2439527176320552825927734375">
        <ele>966.5999755859375</ele>
        <time>2019-07-07T11:14:38.000Z</time>
      </trkpt>
      <trkpt lat="40.47830496914684772491455078125" lon="-1.24394978396594524383544921875">
        <ele>968.5999755859375</ele>
        <time>2019-07-07T11:14:39.000Z</time>
      </trkpt>
      <trkpt lat="40.478624738752841949462890625" lon="-1.243948526680469512939453125">
        <ele>969.79998779296875</ele>
        <time>2019-07-07T11:14:40.000Z</time>
      </trkpt>
      <trkpt lat="40.47926620580255985260009765625" lon="-1.24394207261502742767333984375">
        <ele>970.5999755859375</ele>
        <time>2019-07-07T11:14:42.000Z</time>
      </trkpt>
      <trkpt lat="40.4799070023000240325927734375" lon="-1.24393285252153873443603515625">
        <ele>969.4000244140625</ele>
        <time>2019-07-07T11:14:44.000Z</time>
      </trkpt>
      <trkpt lat="40.48055333085358142852783203125" lon="-1.2439198605716228485107421875">
        <ele>968.79998779296875</ele>
        <time>2019-07-07T11:14:46.000Z</time>
      </trkpt>
      <trkpt lat="40.481195636093616485595703125" lon="-1.24391407705843448638916015625">
        <ele>970.20001220703125</ele>
        <time>2019-07-07T11:14:48.000Z</time>
      </trkpt>
      <trkpt lat="40.48151490278542041778564453125" lon="-1.24391089193522930145263671875">
        <ele>972.4000244140625</ele>
        <time>2019-07-07T11:14:49.000Z</time>
      </trkpt>
      <trkpt lat="40.48183173872530460357666015625" lon="-1.24391139484941959381103515625">
        <ele>973.4000244140625</ele>
        <time>2019-07-07T11:14:50.000Z</time>
      </trkpt>
      <trkpt lat="40.48214639537036418914794921875" lon="-1.2439160048961639404296875">
        <ele>974.4000244140625</ele>
        <time>2019-07-07T11:14:51.000Z</time>
      </trkpt>
      <trkpt lat="40.48277453519403934478759765625" lon="-1.24394140206277370452880859375">
        <ele>975.4000244140625</ele>
        <time>2019-07-07T11:14:53.000Z</time>
      </trkpt>
      <trkpt lat="40.4834089614450931549072265625" lon="-1.2439776957035064697265625">
        <ele>973.5999755859375</ele>
        <time>2019-07-07T11:14:55.000Z</time>
      </trkpt>
      <trkpt lat="40.48372529447078704833984375" lon="-1.24399722553789615631103515625">
        <ele>971.5999755859375</ele>
        <time>2019-07-07T11:14:56.000Z</time>
      </trkpt>
      <trkpt lat="40.4840392805635929107666015625" lon="-1.24401591718196868896484375">
        <ele>970</ele>
        <time>2019-07-07T11:14:57.000Z</time>
      </trkpt>
      <trkpt lat="40.48435033299028873443603515625" lon="-1.24404005706310272216796875">
        <ele>968.5999755859375</ele>
        <time>2019-07-07T11:14:58.000Z</time>
      </trkpt>
      <trkpt lat="40.484659038484096527099609375" lon="-1.244072578847408294677734375">
        <ele>966.79998779296875</ele>
        <time>2019-07-07T11:14:59.000Z</time>
      </trkpt>
      <trkpt lat="40.48496640287339687347412109375" lon="-1.24411381781101226806640625">
        <ele>965.4000244140625</ele>
        <time>2019-07-07T11:15:00.000Z</time>
      </trkpt>
      <trkpt lat="40.48527200706303119659423828125" lon="-1.24416251666843891143798828125">
        <ele>963.5999755859375</ele>
        <time>2019-07-07T11:15:01.000Z</time>
      </trkpt>
      <trkpt lat="40.4855768568813800811767578125" lon="-1.24421867541968822479248046875">
        <ele>962</ele>
        <time>2019-07-07T11:15:02.000Z</time>
      </trkpt>
      <trkpt lat="40.48618462868034839630126953125" lon="-1.24434641562402248382568359375">
        <ele>959.20001220703125</ele>
        <time>2019-07-07T11:15:04.000Z</time>
      </trkpt>
      <trkpt lat="40.48648939467966556549072265625" lon="-1.244415901601314544677734375">
        <ele>958</ele>
        <time>2019-07-07T11:15:05.000Z</time>
      </trkpt>
      <trkpt lat="40.48679516650736331939697265625" lon="-1.24448840506374835968017578125">
        <ele>956.20001220703125</ele>
        <time>2019-07-07T11:15:06.000Z</time>
      </trkpt>
      <trkpt lat="40.48740603961050510406494140625" lon="-1.24464833177626132965087890625">
        <ele>955.20001220703125</ele>
        <time>2019-07-07T11:15:08.000Z</time>
      </trkpt>
      <trkpt lat="40.4877112247049808502197265625" lon="-1.244738437235355377197265625">
        <ele>954.79998779296875</ele>
        <time>2019-07-07T11:15:09.000Z</time>
      </trkpt>
      <trkpt lat="40.488322935998439788818359375" lon="-1.24493398703634738922119140625">
        <ele>955.5999755859375</ele>
        <time>2019-07-07T11:15:11.000Z</time>
      </trkpt>
      <trkpt lat="40.48862812109291553497314453125" lon="-1.2450390122830867767333984375">
        <ele>953.5999755859375</ele>
        <time>2019-07-07T11:15:12.000Z</time>
      </trkpt>
      <trkpt lat="40.48893146216869354248046875" lon="-1.2451476417481899261474609375">
        <ele>952.5999755859375</ele>
        <time>2019-07-07T11:15:13.000Z</time>
      </trkpt>
      <trkpt lat="40.48953101970255374908447265625" lon="-1.24537588097155094146728515625">
        <ele>951.5999755859375</ele>
        <time>2019-07-07T11:15:15.000Z</time>
      </trkpt>
      <trkpt lat="40.49011775292456150054931640625" lon="-1.24562230892479419708251953125">
        <ele>949.20001220703125</ele>
        <time>2019-07-07T11:15:17.000Z</time>
      </trkpt>
      <trkpt lat="40.4906931705772876739501953125" lon="-1.2458793818950653076171875">
        <ele>951.20001220703125</ele>
        <time>2019-07-07T11:15:19.000Z</time>
      </trkpt>
      <trkpt lat="40.4912530817091464996337890625" lon="-1.2461497820913791656494140625">
        <ele>952.4000244140625</ele>
        <time>2019-07-07T11:15:21.000Z</time>
      </trkpt>
      <trkpt lat="40.49180150963366031646728515625" lon="-1.2464374490082263946533203125">
        <ele>952.4000244140625</ele>
        <time>2019-07-07T11:15:23.000Z</time>
      </trkpt>
      <trkpt lat="40.49234616570174694061279296875" lon="-1.2467422150075435638427734375">
        <ele>952.79998779296875</ele>
        <time>2019-07-07T11:15:25.000Z</time>
      </trkpt>
      <trkpt lat="40.4926176555454730987548828125" lon="-1.24690733850002288818359375">
        <ele>953.5999755859375</ele>
        <time>2019-07-07T11:15:26.000Z</time>
      </trkpt>
      <trkpt lat="40.49316491000354290008544921875" lon="-1.24726046808063983917236328125">
        <ele>954.5999755859375</ele>
        <time>2019-07-07T11:15:28.000Z</time>
      </trkpt>
      <trkpt lat="40.49344318918883800506591796875" lon="-1.2474419362843036651611328125">
        <ele>955.5999755859375</ele>
        <time>2019-07-07T11:15:29.000Z</time>
      </trkpt>
      <trkpt lat="40.49400745891034603118896484375" lon="-1.2478164397180080413818359375">
        <ele>956.20001220703125</ele>
        <time>2019-07-07T11:15:31.000Z</time>
      </trkpt>
      <trkpt lat="40.49457214772701263427734375" lon="-1.24820393510162830352783203125">
        <ele>956.4000244140625</ele>
        <time>2019-07-07T11:15:33.000Z</time>
      </trkpt>
      <trkpt lat="40.49513532780110836029052734375" lon="-1.2485979683697223663330078125">
        <ele>956.5999755859375</ele>
        <time>2019-07-07T11:15:35.000Z</time>
      </trkpt>
      <trkpt lat="40.49569188617169857025146484375" lon="-1.24899585731327533721923828125">
        <ele>954.79998779296875</ele>
        <time>2019-07-07T11:15:37.000Z</time>
      </trkpt>
      <trkpt lat="40.49597234465181827545166015625" lon="-1.24919383786618709564208984375">
        <ele>953</ele>
        <time>2019-07-07T11:15:38.000Z</time>
      </trkpt>
      <trkpt lat="40.49625682644546031951904296875" lon="-1.24939466826617717742919921875">
        <ele>950.4000244140625</ele>
        <time>2019-07-07T11:15:39.000Z</time>
      </trkpt>
      <trkpt lat="40.49654088914394378662109375" lon="-1.2495964206755161285400390625">
        <ele>948.5999755859375</ele>
        <time>2019-07-07T11:15:40.000Z</time>
      </trkpt>
      <trkpt lat="40.4968216829001903533935546875" lon="-1.2497962452471256256103515625">
        <ele>946.5999755859375</ele>
        <time>2019-07-07T11:15:41.000Z</time>
      </trkpt>
      <trkpt lat="40.497099794447422027587890625" lon="-1.24999296851456165313720703125">
        <ele>944.20001220703125</ele>
        <time>2019-07-07T11:15:42.000Z</time>
      </trkpt>
      <trkpt lat="40.49737463705241680145263671875" lon="-1.2501875124871730804443359375">
        <ele>942.79998779296875</ele>
        <time>2019-07-07T11:15:43.000Z</time>
      </trkpt>
      <trkpt lat="40.4976478032767772674560546875" lon="-1.2503796257078647613525390625">
        <ele>941.79998779296875</ele>
        <time>2019-07-07T11:15:44.000Z</time>
      </trkpt>
      <trkpt lat="40.498190112411975860595703125" lon="-1.25075161457061767578125">
        <ele>941</ele>
        <time>2019-07-07T11:15:46.000Z</time>
      </trkpt>
      <trkpt lat="40.498741976916790008544921875" lon="-1.2511111982166767120361328125">
        <ele>941</ele>
        <time>2019-07-07T11:15:48.000Z</time>
      </trkpt>
      <trkpt lat="40.4990239441394805908203125" lon="-1.2512842006981372833251953125">
        <ele>943.20001220703125</ele>
        <time>2019-07-07T11:15:49.000Z</time>
      </trkpt>
      <trkpt lat="40.49930767156183719635009765625" lon="-1.2514515034854412078857421875">
        <ele>945.79998779296875</ele>
        <time>2019-07-07T11:15:50.000Z</time>
      </trkpt>
      <trkpt lat="40.49959198571741580963134765625" lon="-1.25161101110279560089111328125">
        <ele>949.20001220703125</ele>
        <time>2019-07-07T11:15:51.000Z</time>
      </trkpt>
      <trkpt lat="40.4998787306249141693115234375" lon="-1.25176322646439075469970703125">
        <ele>951</ele>
        <time>2019-07-07T11:15:52.000Z</time>
      </trkpt>
      <trkpt lat="40.500164888799190521240234375" lon="-1.25191275961697101593017578125">
        <ele>952.20001220703125</ele>
        <time>2019-07-07T11:15:53.000Z</time>
      </trkpt>
      <trkpt lat="40.50074013881385326385498046875" lon="-1.25220461748540401458740234375">
        <ele>953.79998779296875</ele>
        <time>2019-07-07T11:15:55.000Z</time>
      </trkpt>
      <trkpt lat="40.5013264529407024383544921875" lon="-1.2524764426052570343017578125">
        <ele>953.79998779296875</ele>
        <time>2019-07-07T11:15:57.000Z</time>
      </trkpt>
      <trkpt lat="40.50192332826554775238037109375" lon="-1.25272764824330806732177734375">
        <ele>952.4000244140625</ele>
        <time>2019-07-07T11:15:59.000Z</time>
      </trkpt>
      <trkpt lat="40.5025247298181056976318359375" lon="-1.2529552169144153594970703125">
        <ele>951.4000244140625</ele>
        <time>2019-07-07T11:16:01.000Z</time>
      </trkpt>
      <trkpt lat="40.503119342029094696044921875" lon="-1.25315420329570770263671875">
        <ele>950.4000244140625</ele>
        <time>2019-07-07T11:16:03.000Z</time>
      </trkpt>
      <trkpt lat="40.50341404974460601806640625" lon="-1.25324363820254802703857421875">
        <ele>950.4000244140625</ele>
        <time>2019-07-07T11:16:04.000Z</time>
      </trkpt>
      <trkpt lat="40.5040061473846435546875" lon="-1.25341429375112056732177734375">
        <ele>949.20001220703125</ele>
        <time>2019-07-07T11:16:06.000Z</time>
      </trkpt>
      <trkpt lat="40.50461702048778533935546875" lon="-1.253573633730411529541015625">
        <ele>949</ele>
        <time>2019-07-07T11:16:08.000Z</time>
      </trkpt>
      <trkpt lat="40.505245663225650787353515625" lon="-1.25370715744793415069580078125">
        <ele>948</ele>
        <time>2019-07-07T11:16:10.000Z</time>
      </trkpt>
      <trkpt lat="40.5058784969151020050048828125" lon="-1.25382316298782825469970703125">
        <ele>948.20001220703125</ele>
        <time>2019-07-07T11:16:12.000Z</time>
      </trkpt>
      <trkpt lat="40.5065138451755046844482421875" lon="-1.2539188005030155181884765625">
        <ele>946.4000244140625</ele>
        <time>2019-07-07T11:16:14.000Z</time>
      </trkpt>
      <trkpt lat="40.506832189857959747314453125" lon="-1.25395576469600200653076171875">
        <ele>945</ele>
        <time>2019-07-07T11:16:15.000Z</time>
      </trkpt>
      <trkpt lat="40.507153384387493133544921875" lon="-1.25398174859583377838134765625">
        <ele>943.5999755859375</ele>
        <time>2019-07-07T11:16:16.000Z</time>
      </trkpt>
      <trkpt lat="40.5074729025363922119140625" lon="-1.254002787172794342041015625">
        <ele>942.20001220703125</ele>
        <time>2019-07-07T11:16:17.000Z</time>
      </trkpt>
      <trkpt lat="40.507790409028530120849609375" lon="-1.25402147881686687469482421875">
        <ele>940.5999755859375</ele>
        <time>2019-07-07T11:16:18.000Z</time>
      </trkpt>
      <trkpt lat="40.50810783170163631439208984375" lon="-1.254030950367450714111328125">
        <ele>939.20001220703125</ele>
        <time>2019-07-07T11:16:19.000Z</time>
      </trkpt>
      <trkpt lat="40.50874066539108753204345703125" lon="-1.254029609262943267822265625">
        <ele>938</ele>
        <time>2019-07-07T11:16:21.000Z</time>
      </trkpt>
      <trkpt lat="40.50936947576701641082763671875" lon="-1.25401661731302738189697265625">
        <ele>937.4000244140625</ele>
        <time>2019-07-07T11:16:23.000Z</time>
      </trkpt>
      <trkpt lat="40.51000130362808704376220703125" lon="-1.25398376025259494781494140625">
        <ele>937.20001220703125</ele>
        <time>2019-07-07T11:16:25.000Z</time>
      </trkpt>
      <trkpt lat="40.510317720472812652587890625" lon="-1.253967247903347015380859375">
        <ele>937</ele>
        <time>2019-07-07T11:16:26.000Z</time>
      </trkpt>
      <trkpt lat="40.51095918752253055572509765625" lon="-1.2539332173764705657958984375">
        <ele>936.4000244140625</ele>
        <time>2019-07-07T11:16:28.000Z</time>
      </trkpt>
      <trkpt lat="40.5116021633148193359375" lon="-1.2538856081664562225341796875">
        <ele>936.79998779296875</ele>
        <time>2019-07-07T11:16:30.000Z</time>
      </trkpt>
      <trkpt lat="40.5122326500713825225830078125" lon="-1.2538326345384120941162109375">
        <ele>935.5999755859375</ele>
        <time>2019-07-07T11:16:32.000Z</time>
      </trkpt>
      <trkpt lat="40.5128368176519870758056640625" lon="-1.2537843547761440277099609375">
        <ele>934.4000244140625</ele>
        <time>2019-07-07T11:16:34.000Z</time>
      </trkpt>
      <trkpt lat="40.513430424034595489501953125" lon="-1.2537327222526073455810546875">
        <ele>934.4000244140625</ele>
        <time>2019-07-07T11:16:36.000Z</time>
      </trkpt>
      <trkpt lat="40.5140277184545993804931640625" lon="-1.25368528068065643310546875">
        <ele>934.79998779296875</ele>
        <time>2019-07-07T11:16:38.000Z</time>
      </trkpt>
      <trkpt lat="40.51432670094072818756103515625" lon="-1.2536720372736454010009765625">
        <ele>936.5999755859375</ele>
        <time>2019-07-07T11:16:39.000Z</time>
      </trkpt>
      <trkpt lat="40.51462677307426929473876953125" lon="-1.25366306863725185394287109375">
        <ele>940</ele>
        <time>2019-07-07T11:16:40.000Z</time>
      </trkpt>
      <trkpt lat="40.5149289406836032867431640625" lon="-1.2536572851240634918212890625">
        <ele>944</ele>
        <time>2019-07-07T11:16:41.000Z</time>
      </trkpt>
      <trkpt lat="40.5152337066829204559326171875" lon="-1.2536589615046977996826171875">
        <ele>947</ele>
        <time>2019-07-07T11:16:42.000Z</time>
      </trkpt>
      <trkpt lat="40.51585120148956775665283203125" lon="-1.25369005836546421051025390625">
        <ele>948.5999755859375</ele>
        <time>2019-07-07T11:16:44.000Z</time>
      </trkpt>
      <trkpt lat="40.5164688639342784881591796875" lon="-1.25374495983123779296875">
        <ele>949</ele>
        <time>2019-07-07T11:16:46.000Z</time>
      </trkpt>
      <trkpt lat="40.51708484999835491180419921875" lon="-1.25381805002689361572265625">
        <ele>948</ele>
        <time>2019-07-07T11:16:48.000Z</time>
      </trkpt>
      <trkpt lat="40.5173917114734649658203125" lon="-1.2538654915988445281982421875">
        <ele>945.79998779296875</ele>
        <time>2019-07-07T11:16:49.000Z</time>
      </trkpt>
      <trkpt lat="40.517698489129543304443359375" lon="-1.253920309245586395263671875">
        <ele>944.5999755859375</ele>
        <time>2019-07-07T11:16:50.000Z</time>
      </trkpt>
      <trkpt lat="40.51800400950014591217041015625" lon="-1.25397898256778717041015625">
        <ele>943.5999755859375</ele>
        <time>2019-07-07T11:16:51.000Z</time>
      </trkpt>
      <trkpt lat="40.5186119489371776580810546875" lon="-1.2541075609624385833740234375">
        <ele>943</ele>
        <time>2019-07-07T11:16:53.000Z</time>
      </trkpt>
      <trkpt lat="40.5192100815474987030029296875" lon="-1.25425818376243114471435546875">
        <ele>943.20001220703125</ele>
        <time>2019-07-07T11:16:55.000Z</time>
      </trkpt>
      <trkpt lat="40.51980662159621715545654296875" lon="-1.2544341199100017547607421875">
        <ele>943.4000244140625</ele>
        <time>2019-07-07T11:16:57.000Z</time>
      </trkpt>
      <trkpt lat="40.52039402537047863006591796875" lon="-1.25463469885289669036865234375">
        <ele>944</ele>
        <time>2019-07-07T11:16:59.000Z</time>
      </trkpt>
      <trkpt lat="40.52096298895776271820068359375" lon="-1.25485883094370365142822265625">
        <ele>944.79998779296875</ele>
        <time>2019-07-07T11:17:01.000Z</time>
      </trkpt>
      <trkpt lat="40.5215161107480525970458984375" lon="-1.25509670935571193695068359375">
        <ele>947</ele>
        <time>2019-07-07T11:17:03.000Z</time>
      </trkpt>
      <trkpt lat="40.52178625948727130889892578125" lon="-1.25521740876138210296630859375">
        <ele>948</ele>
        <time>2019-07-07T11:17:04.000Z</time>
      </trkpt>
      <trkpt lat="40.52205263637006282806396484375" lon="-1.25533659942448139190673828125">
        <ele>949.20001220703125</ele>
        <time>2019-07-07T11:17:05.000Z</time>
      </trkpt>
      <trkpt lat="40.52231415174901485443115234375" lon="-1.25545956194400787353515625">
        <ele>950.4000244140625</ele>
        <time>2019-07-07T11:17:06.000Z</time>
      </trkpt>
      <trkpt lat="40.5228354223072528839111328125" lon="-1.255717389285564422607421875">
        <ele>950.20001220703125</ele>
        <time>2019-07-07T11:17:08.000Z</time>
      </trkpt>
      <trkpt lat="40.523371361196041107177734375" lon="-1.25597856938838958740234375">
        <ele>949.5999755859375</ele>
        <time>2019-07-07T11:17:10.000Z</time>
      </trkpt>
      <trkpt lat="40.523908473551273345947265625" lon="-1.25625458545982837677001953125">
        <ele>948.79998779296875</ele>
        <time>2019-07-07T11:17:12.000Z</time>
      </trkpt>
      <trkpt lat="40.5244353599846363067626953125" lon="-1.25659204088151454925537109375">
        <ele>948.79998779296875</ele>
        <time>2019-07-07T11:17:14.000Z</time>
      </trkpt>
      <trkpt lat="40.5249577201902866363525390625" lon="-1.2569745071232318878173828125">
        <ele>948.20001220703125</ele>
        <time>2019-07-07T11:17:16.000Z</time>
      </trkpt>
      <trkpt lat="40.525225102901458740234375" lon="-1.25717106275260448455810546875">
        <ele>946.5999755859375</ele>
        <time>2019-07-07T11:17:17.000Z</time>
      </trkpt>
      <trkpt lat="40.5257677473127841949462890625" lon="-1.25756719149649143218994140625">
        <ele>944.79998779296875</ele>
        <time>2019-07-07T11:17:19.000Z</time>
      </trkpt>
      <trkpt lat="40.52604208700358867645263671875" lon="-1.25776357948780059814453125">
        <ele>943</ele>
        <time>2019-07-07T11:17:20.000Z</time>
      </trkpt>
      <trkpt lat="40.526319444179534912109375" lon="-1.257966421544551849365234375">
        <ele>941.20001220703125</ele>
        <time>2019-07-07T11:17:21.000Z</time>
      </trkpt>
      <trkpt lat="40.526884384453296661376953125" lon="-1.2583990953862667083740234375">
        <ele>940.79998779296875</ele>
        <time>2019-07-07T11:17:23.000Z</time>
      </trkpt>
      <trkpt lat="40.52745477296411991119384765625" lon="-1.25885255634784698486328125">
        <ele>938.4000244140625</ele>
        <time>2019-07-07T11:17:25.000Z</time>
      </trkpt>
      <trkpt lat="40.5277405120432376861572265625" lon="-1.25907928682863712310791015625">
        <ele>937.4000244140625</ele>
        <time>2019-07-07T11:17:26.000Z</time>
      </trkpt>
      <trkpt lat="40.52831442095339298248291015625" lon="-1.25952168367803096771240234375">
        <ele>937.5999755859375</ele>
        <time>2019-07-07T11:17:28.000Z</time>
      </trkpt>
      <trkpt lat="40.5286018364131450653076171875" lon="-1.25973768532276153564453125">
        <ele>936.20001220703125</ele>
        <time>2019-07-07T11:17:29.000Z</time>
      </trkpt>
      <trkpt lat="40.52888908423483371734619140625" lon="-1.25995150767266750335693359375">
        <ele>934.4000244140625</ele>
        <time>2019-07-07T11:17:30.000Z</time>
      </trkpt>
      <trkpt lat="40.52945964038372039794921875" lon="-1.260382421314716339111328125">
        <ele>935.79998779296875</ele>
        <time>2019-07-07T11:17:32.000Z</time>
      </trkpt>
      <trkpt lat="40.53001192398369312286376953125" lon="-1.26082574017345905303955078125">
        <ele>935.79998779296875</ele>
        <time>2019-07-07T11:17:34.000Z</time>
      </trkpt>
      <trkpt lat="40.5305521376430988311767578125" lon="-1.26126076094806194305419921875">
        <ele>935.79998779296875</ele>
        <time>2019-07-07T11:17:36.000Z</time>
      </trkpt>
      <trkpt lat="40.531086064875125885009765625" lon="-1.26168522052466869354248046875">
        <ele>935.5999755859375</ele>
        <time>2019-07-07T11:17:38.000Z</time>
      </trkpt>
      <trkpt lat="40.531609095633029937744140625" lon="-1.26211252994835376739501953125">
        <ele>934.79998779296875</ele>
        <time>2019-07-07T11:17:40.000Z</time>
      </trkpt>
      <trkpt lat="40.53212919272482395172119140625" lon="-1.26252843998372554779052734375">
        <ele>935.20001220703125</ele>
        <time>2019-07-07T11:17:42.000Z</time>
      </trkpt>
      <trkpt lat="40.53265146911144256591796875" lon="-1.26294284127652645111083984375">
        <ele>935</ele>
        <time>2019-07-07T11:17:44.000Z</time>
      </trkpt>
      <trkpt lat="40.53317106328904628753662109375" lon="-1.26335464417934417724609375">
        <ele>934.4000244140625</ele>
        <time>2019-07-07T11:17:46.000Z</time>
      </trkpt>
      <trkpt lat="40.533429645001888275146484375" lon="-1.26355840824544429779052734375">
        <ele>933.79998779296875</ele>
        <time>2019-07-07T11:17:47.000Z</time>
      </trkpt>
      <trkpt lat="40.53394370712339878082275390625" lon="-1.2639693729579448699951171875">
        <ele>932.79998779296875</ele>
        <time>2019-07-07T11:17:49.000Z</time>
      </trkpt>
      <trkpt lat="40.5344577692449092864990234375" lon="-1.26438100822269916534423828125">
        <ele>932.79998779296875</ele>
        <time>2019-07-07T11:17:51.000Z</time>
      </trkpt>
      <trkpt lat="40.534970574080944061279296875" lon="-1.26479004509747028350830078125">
        <ele>934.4000244140625</ele>
        <time>2019-07-07T11:17:53.000Z</time>
      </trkpt>
      <trkpt lat="40.53548212163150310516357421875" lon="-1.26519438810646533966064453125">
        <ele>935.20001220703125</ele>
        <time>2019-07-07T11:17:55.000Z</time>
      </trkpt>
      <trkpt lat="40.5359933339059352874755859375" lon="-1.26558632589876651763916015625">
        <ele>934</ele>
        <time>2019-07-07T11:17:57.000Z</time>
      </trkpt>
      <trkpt lat="40.53625141270458698272705078125" lon="-1.26578330062329769134521484375">
        <ele>935.5999755859375</ele>
        <time>2019-07-07T11:17:58.000Z</time>
      </trkpt>
      <trkpt lat="40.5365136824548244476318359375" lon="-1.265976168215274810791015625">
        <ele>937.79998779296875</ele>
        <time>2019-07-07T11:17:59.000Z</time>
      </trkpt>
      <trkpt lat="40.53678148426115512847900390625" lon="-1.26616702415049076080322265625">
        <ele>939.20001220703125</ele>
        <time>2019-07-07T11:18:00.000Z</time>
      </trkpt>
      <trkpt lat="40.53705641068518161773681640625" lon="-1.2663588859140872955322265625">
        <ele>943.20001220703125</ele>
        <time>2019-07-07T11:18:01.000Z</time>
      </trkpt>
      <trkpt lat="40.5373377911746501922607421875" lon="-1.26654739491641521453857421875">
        <ele>945.20001220703125</ele>
        <time>2019-07-07T11:18:02.000Z</time>
      </trkpt>
      <trkpt lat="40.5376231111586093902587890625" lon="-1.26673297025263309478759765625">
        <ele>946.20001220703125</ele>
        <time>2019-07-07T11:18:03.000Z</time>
      </trkpt>
      <trkpt lat="40.53791522048413753509521484375" lon="-1.26691318117082118988037109375">
        <ele>947.4000244140625</ele>
        <time>2019-07-07T11:18:04.000Z</time>
      </trkpt>
      <trkpt lat="40.53850044496357440948486328125" lon="-1.26725533045828342437744140625">
        <ele>947</ele>
        <time>2019-07-07T11:18:06.000Z</time>
      </trkpt>
      <trkpt lat="40.53909740410745143890380859375" lon="-1.267588846385478973388671875">
        <ele>946.20001220703125</ele>
        <time>2019-07-07T11:18:08.000Z</time>
      </trkpt>
      <trkpt lat="40.53970492444932460784912109375" lon="-1.2679041735827922821044921875">
        <ele>945.4000244140625</ele>
        <time>2019-07-07T11:18:10.000Z</time>
      </trkpt>
      <trkpt lat="40.540013127028942108154296875" lon="-1.2680543772876262664794921875">
        <ele>944.4000244140625</ele>
        <time>2019-07-07T11:18:11.000Z</time>
      </trkpt>
      <trkpt lat="40.54063372313976287841796875" lon="-1.2683366797864437103271484375">
        <ele>942.4000244140625</ele>
        <time>2019-07-07T11:18:13.000Z</time>
      </trkpt>
      <trkpt lat="40.54094628430902957916259765625" lon="-1.26846450380980968475341796875">
        <ele>941.20001220703125</ele>
        <time>2019-07-07T11:18:14.000Z</time>
      </trkpt>
      <trkpt lat="40.54126278497278690338134765625" lon="-1.26857799477875232696533203125">
        <ele>939.79998779296875</ele>
        <time>2019-07-07T11:18:15.000Z</time>
      </trkpt>
      <trkpt lat="40.541888661682605743408203125" lon="-1.2687906436622142791748046875">
        <ele>940</ele>
        <time>2019-07-07T11:18:17.000Z</time>
      </trkpt>
      <trkpt lat="40.5425164662301540374755859375" lon="-1.2689981795847415924072265625">
        <ele>938.5999755859375</ele>
        <time>2019-07-07T11:18:19.000Z</time>
      </trkpt>
      <trkpt lat="40.54282735101878643035888671875" lon="-1.2690994329750537872314453125">
        <ele>937.20001220703125</ele>
        <time>2019-07-07T11:18:20.000Z</time>
      </trkpt>
      <trkpt lat="40.54345012642443180084228515625" lon="-1.269288696348667144775390625">
        <ele>936.79998779296875</ele>
        <time>2019-07-07T11:18:22.000Z</time>
      </trkpt>
      <trkpt lat="40.544070638716220855712890625" lon="-1.26947871409356594085693359375">
        <ele>936.20001220703125</ele>
        <time>2019-07-07T11:18:24.000Z</time>
      </trkpt>
      <trkpt lat="40.54437783546745777130126953125" lon="-1.2695745192468166351318359375">
        <ele>935.79998779296875</ele>
        <time>2019-07-07T11:18:25.000Z</time>
      </trkpt>
      <trkpt lat="40.5449867807328701019287109375" lon="-1.269768141210079193115234375">
        <ele>936</ele>
        <time>2019-07-07T11:18:27.000Z</time>
      </trkpt>
      <trkpt lat="40.54559170268476009368896484375" lon="-1.2699644453823566436767578125">
        <ele>936.79998779296875</ele>
        <time>2019-07-07T11:18:29.000Z</time>
      </trkpt>
      <trkpt lat="40.54589261300861835479736328125" lon="-1.27006595022976398468017578125">
        <ele>937.5999755859375</ele>
        <time>2019-07-07T11:18:30.000Z</time>
      </trkpt>
      <trkpt lat="40.54648823104798793792724609375" lon="-1.27029125578701496124267578125">
        <ele>939.20001220703125</ele>
        <time>2019-07-07T11:18:32.000Z</time>
      </trkpt>
      <trkpt lat="40.54678310640156269073486328125" lon="-1.27041153609752655029296875">
        <ele>940.20001220703125</ele>
        <time>2019-07-07T11:18:33.000Z</time>
      </trkpt>
      <trkpt lat="40.54736866615712642669677734375" lon="-1.2706675194203853607177734375">
        <ele>940.79998779296875</ele>
        <time>2019-07-07T11:18:35.000Z</time>
      </trkpt>
      <trkpt lat="40.547948777675628662109375" lon="-1.2709364108741283416748046875">
        <ele>941.79998779296875</ele>
        <time>2019-07-07T11:18:37.000Z</time>
      </trkpt>
      <trkpt lat="40.54823887534439563751220703125" lon="-1.27107672393321990966796875">
        <ele>940.79998779296875</ele>
        <time>2019-07-07T11:18:38.000Z</time>
      </trkpt>
      <trkpt lat="40.54852821864187717437744140625" lon="-1.27122432924807071685791015625">
        <ele>941.79998779296875</ele>
        <time>2019-07-07T11:18:39.000Z</time>
      </trkpt>
      <trkpt lat="40.54910556413233280181884765625" lon="-1.27154074609279632568359375">
        <ele>942.5999755859375</ele>
        <time>2019-07-07T11:18:41.000Z</time>
      </trkpt>
      <trkpt lat="40.5496816523373126983642578125" lon="-1.27188415266573429107666015625">
        <ele>942.5999755859375</ele>
        <time>2019-07-07T11:18:43.000Z</time>
      </trkpt>
      <trkpt lat="40.5502529628574848175048828125" lon="-1.27225211821496486663818359375">
        <ele>943.79998779296875</ele>
        <time>2019-07-07T11:18:45.000Z</time>
      </trkpt>
      <trkpt lat="40.55081580765545368194580078125" lon="-1.27265495248138904571533203125">
        <ele>943.4000244140625</ele>
        <time>2019-07-07T11:18:47.000Z</time>
      </trkpt>
      <trkpt lat="40.55109526030719280242919921875" lon="-1.272867433726787567138671875">
        <ele>942.4000244140625</ele>
        <time>2019-07-07T11:18:48.000Z</time>
      </trkpt>
      <trkpt lat="40.55165500380098819732666015625" lon="-1.27329046837985515594482421875">
        <ele>941.4000244140625</ele>
        <time>2019-07-07T11:18:50.000Z</time>
      </trkpt>
      <trkpt lat="40.55193118751049041748046875" lon="-1.27349850721657276153564453125">
        <ele>940.5999755859375</ele>
        <time>2019-07-07T11:18:51.000Z</time>
      </trkpt>
      <trkpt lat="40.552467964589595794677734375" lon="-1.27391575835645198822021484375">
        <ele>938.79998779296875</ele>
        <time>2019-07-07T11:18:53.000Z</time>
      </trkpt>
      <trkpt lat="40.55299359373748302459716796875" lon="-1.274327896535396575927734375">
        <ele>938.79998779296875</ele>
        <time>2019-07-07T11:18:55.000Z</time>
      </trkpt>
      <trkpt lat="40.5535115115344524383544921875" lon="-1.27473366446793079376220703125">
        <ele>939.20001220703125</ele>
        <time>2019-07-07T11:18:57.000Z</time>
      </trkpt>
      <trkpt lat="40.55403362028300762176513671875" lon="-1.27513918094336986541748046875">
        <ele>939.4000244140625</ele>
        <time>2019-07-07T11:18:59.000Z</time>
      </trkpt>
      <trkpt lat="40.55429798550903797149658203125" lon="-1.275340430438518524169921875">
        <ele>940.5999755859375</ele>
        <time>2019-07-07T11:19:00.000Z</time>
      </trkpt>
      <trkpt lat="40.55456578731536865234375" lon="-1.27553782425820827484130859375">
        <ele>942.4000244140625</ele>
        <time>2019-07-07T11:19:01.000Z</time>
      </trkpt>
      <trkpt lat="40.55483493022620677947998046875" lon="-1.27573245204985141754150390625">
        <ele>943.79998779296875</ele>
        <time>2019-07-07T11:19:02.000Z</time>
      </trkpt>
      <trkpt lat="40.5553823523223400115966796875" lon="-1.2761130742728710174560546875">
        <ele>945.79998779296875</ele>
        <time>2019-07-07T11:19:04.000Z</time>
      </trkpt>
      <trkpt lat="40.55594117380678653717041015625" lon="-1.27647710032761096954345703125">
        <ele>947.4000244140625</ele>
        <time>2019-07-07T11:19:06.000Z</time>
      </trkpt>
      <trkpt lat="40.5565135739743709564208984375" lon="-1.276826374232769012451171875">
        <ele>946.79998779296875</ele>
        <time>2019-07-07T11:19:08.000Z</time>
      </trkpt>
      <trkpt lat="40.556805767118930816650390625" lon="-1.27699208445847034454345703125">
        <ele>946</ele>
        <time>2019-07-07T11:19:09.000Z</time>
      </trkpt>
      <trkpt lat="40.55739945732057094573974609375" lon="-1.27731394954025745391845703125">
        <ele>945</ele>
        <time>2019-07-07T11:19:11.000Z</time>
      </trkpt>
      <trkpt lat="40.5577031336724758148193359375" lon="-1.2774659134447574615478515625">
        <ele>943.5999755859375</ele>
        <time>2019-07-07T11:19:12.000Z</time>
      </trkpt>
      <trkpt lat="40.5580075643956661224365234375" lon="-1.2776152789592742919921875">
        <ele>942</ele>
        <time>2019-07-07T11:19:13.000Z</time>
      </trkpt>
      <trkpt lat="40.55862053297460079193115234375" lon="-1.27789414487779140472412109375">
        <ele>940</ele>
        <time>2019-07-07T11:19:15.000Z</time>
      </trkpt>
      <trkpt lat="40.55892898701131343841552734375" lon="-1.27802305854856967926025390625">
        <ele>938.5999755859375</ele>
        <time>2019-07-07T11:19:16.000Z</time>
      </trkpt>
      <trkpt lat="40.5595453083515167236328125" lon="-1.2782628647983074188232421875">
        <ele>937.79998779296875</ele>
        <time>2019-07-07T11:19:18.000Z</time>
      </trkpt>
      <trkpt lat="40.559857450425624847412109375" lon="-1.27837861888110637664794921875">
        <ele>937.5999755859375</ele>
        <time>2019-07-07T11:19:19.000Z</time>
      </trkpt>
      <trkpt lat="40.56048969738185405731201171875" lon="-1.2785884179174900054931640625">
        <ele>938.79998779296875</ele>
        <time>2019-07-07T11:19:21.000Z</time>
      </trkpt>
      <trkpt lat="40.56112580001354217529296875" lon="-1.278762929141521453857421875">
        <ele>940.4000244140625</ele>
        <time>2019-07-07T11:19:23.000Z</time>
      </trkpt>
      <trkpt lat="40.56176014244556427001953125" lon="-1.2789146415889263153076171875">
        <ele>940.4000244140625</ele>
        <time>2019-07-07T11:19:25.000Z</time>
      </trkpt>
      <trkpt lat="40.56239926256239414215087890625" lon="-1.27903475426137447357177734375">
        <ele>941</ele>
        <time>2019-07-07T11:19:27.000Z</time>
      </trkpt>
      <trkpt lat="40.562722720205783843994140625" lon="-1.27908856607973575592041015625">
        <ele>944.4000244140625</ele>
        <time>2019-07-07T11:19:28.000Z</time>
      </trkpt>
      <trkpt lat="40.5630482733249664306640625" lon="-1.279140450060367584228515625">
        <ele>948.20001220703125</ele>
        <time>2019-07-07T11:19:29.000Z</time>
      </trkpt>
      <trkpt lat="40.56337474845349788665771484375" lon="-1.279191076755523681640625">
        <ele>950</ele>
        <time>2019-07-07T11:19:30.000Z</time>
      </trkpt>
      <trkpt lat="40.5640247650444507598876953125" lon="-1.27928218804299831390380859375">
        <ele>949.20001220703125</ele>
        <time>2019-07-07T11:19:32.000Z</time>
      </trkpt>
      <trkpt lat="40.56434503756463527679443359375" lon="-1.279322840273380279541015625">
        <ele>947</ele>
        <time>2019-07-07T11:19:33.000Z</time>
      </trkpt>
      <trkpt lat="40.5646634660661220550537109375" lon="-1.27936349250376224517822265625">
        <ele>943.5999755859375</ele>
        <time>2019-07-07T11:19:34.000Z</time>
      </trkpt>
      <trkpt lat="40.564979799091815948486328125" lon="-1.27940489910542964935302734375">
        <ele>941.79998779296875</ele>
        <time>2019-07-07T11:19:35.000Z</time>
      </trkpt>
      <trkpt lat="40.56529621593654155731201171875" lon="-1.27944714389741420745849609375">
        <ele>940.4000244140625</ele>
        <time>2019-07-07T11:19:36.000Z</time>
      </trkpt>
      <trkpt lat="40.5656112916767597198486328125" lon="-1.2794936634600162506103515625">
        <ele>938.79998779296875</ele>
        <time>2019-07-07T11:19:37.000Z</time>
      </trkpt>
      <trkpt lat="40.56623884476721286773681640625" lon="-1.27959407866001129150390625">
        <ele>938.4000244140625</ele>
        <time>2019-07-07T11:19:39.000Z</time>
      </trkpt>
      <trkpt lat="40.56687218137085437774658203125" lon="-1.279693655669689178466796875">
        <ele>938.5999755859375</ele>
        <time>2019-07-07T11:19:41.000Z</time>
      </trkpt>
      <trkpt lat="40.56749495677649974822998046875" lon="-1.27981510944664478302001953125">
        <ele>938.5999755859375</ele>
        <time>2019-07-07T11:19:43.000Z</time>
      </trkpt>
      <trkpt lat="40.568110607564449310302734375" lon="-1.27996229566633701324462890625">
        <ele>938.20001220703125</ele>
        <time>2019-07-07T11:19:45.000Z</time>
      </trkpt>
      <trkpt lat="40.56872609071433544158935546875" lon="-1.28011551685631275177001953125">
        <ele>938</ele>
        <time>2019-07-07T11:19:47.000Z</time>
      </trkpt>
      <trkpt lat="40.56934098713099956512451171875" lon="-1.28027376718819141387939453125">
        <ele>937.79998779296875</ele>
        <time>2019-07-07T11:19:49.000Z</time>
      </trkpt>
      <trkpt lat="40.56996007449924945831298828125" lon="-1.28045297227799892425537109375">
        <ele>937.5999755859375</ele>
        <time>2019-07-07T11:19:51.000Z</time>
      </trkpt>
      <trkpt lat="40.57058586739003658294677734375" lon="-1.2806409783661365509033203125">
        <ele>937</ele>
        <time>2019-07-07T11:19:53.000Z</time>
      </trkpt>
      <trkpt lat="40.5708990991115570068359375" lon="-1.2807395495474338531494140625">
        <ele>936.5999755859375</ele>
        <time>2019-07-07T11:19:54.000Z</time>
      </trkpt>
      <trkpt lat="40.5715255625545978546142578125" lon="-1.280949600040912628173828125">
        <ele>935</ele>
        <time>2019-07-07T11:19:56.000Z</time>
      </trkpt>
      <trkpt lat="40.57183577679097652435302734375" lon="-1.2810583971440792083740234375">
        <ele>933.79998779296875</ele>
        <time>2019-07-07T11:19:57.000Z</time>
      </trkpt>
      <trkpt lat="40.57214473374187946319580078125" lon="-1.28117264248430728912353515625">
        <ele>932.79998779296875</ele>
        <time>2019-07-07T11:19:58.000Z</time>
      </trkpt>
      <trkpt lat="40.5727605521678924560546875" lon="-1.28140431828796863555908203125">
        <ele>931.79998779296875</ele>
        <time>2019-07-07T11:20:00.000Z</time>
      </trkpt>
      <trkpt lat="40.57306766510009765625" lon="-1.281523592770099639892578125">
        <ele>931.20001220703125</ele>
        <time>2019-07-07T11:20:01.000Z</time>
      </trkpt>
      <trkpt lat="40.573668815195560455322265625" lon="-1.28177127800881862640380859375">
        <ele>930.5999755859375</ele>
        <time>2019-07-07T11:20:03.000Z</time>
      </trkpt>
      <trkpt lat="40.57425881735980510711669921875" lon="-1.282015778124332427978515625">
        <ele>931.5999755859375</ele>
        <time>2019-07-07T11:20:05.000Z</time>
      </trkpt>
      <trkpt lat="40.57485007680952548980712890625" lon="-1.28228324465453624725341796875">
        <ele>930.20001220703125</ele>
        <time>2019-07-07T11:20:07.000Z</time>
      </trkpt>
      <trkpt lat="40.57514704763889312744140625" lon="-1.28240771591663360595703125">
        <ele>930</ele>
        <time>2019-07-07T11:20:08.000Z</time>
      </trkpt>
      <trkpt lat="40.57574258185923099517822265625" lon="-1.28263997845351696014404296875">
        <ele>931.20001220703125</ele>
        <time>2019-07-07T11:20:10.000Z</time>
      </trkpt>
      <trkpt lat="40.57635563425719738006591796875" lon="-1.2828769348561763763427734375">
        <ele>933.20001220703125</ele>
        <time>2019-07-07T11:20:12.000Z</time>
      </trkpt>
      <trkpt lat="40.57699366472661495208740234375" lon="-1.28311087377369403839111328125">
        <ele>933.5999755859375</ele>
        <time>2019-07-07T11:20:14.000Z</time>
      </trkpt>
      <trkpt lat="40.57763773016631603240966796875" lon="-1.2833278812468051910400390625">
        <ele>932.5999755859375</ele>
        <time>2019-07-07T11:20:16.000Z</time>
      </trkpt>
      <trkpt lat="40.57796177454292774200439453125" lon="-1.283427961170673370361328125">
        <ele>932</ele>
        <time>2019-07-07T11:20:17.000Z</time>
      </trkpt>
      <trkpt lat="40.57860835455358028411865234375" lon="-1.283604986965656280517578125">
        <ele>930.4000244140625</ele>
        <time>2019-07-07T11:20:19.000Z</time>
      </trkpt>
      <trkpt lat="40.57924278080463409423828125" lon="-1.28377740271389484405517578125">
        <ele>930.20001220703125</ele>
        <time>2019-07-07T11:20:21.000Z</time>
      </trkpt>
      <trkpt lat="40.5798722617328166961669921875" lon="-1.28394235856831073760986328125">
        <ele>930.20001220703125</ele>
        <time>2019-07-07T11:20:23.000Z</time>
      </trkpt>
      <trkpt lat="40.5804987251758575439453125" lon="-1.2840896286070346832275390625">
        <ele>929.20001220703125</ele>
        <time>2019-07-07T11:20:25.000Z</time>
      </trkpt>
      <trkpt lat="40.58112577535212039947509765625" lon="-1.284228600561618804931640625">
        <ele>928</ele>
        <time>2019-07-07T11:20:27.000Z</time>
      </trkpt>
      <trkpt lat="40.5817511491477489471435546875" lon="-1.284357011318206787109375">
        <ele>926.5999755859375</ele>
        <time>2019-07-07T11:20:29.000Z</time>
      </trkpt>
      <trkpt lat="40.582379959523677825927734375" lon="-1.28447276540100574493408203125">
        <ele>925.5999755859375</ele>
        <time>2019-07-07T11:20:31.000Z</time>
      </trkpt>
      <trkpt lat="40.58301589451730251312255859375" lon="-1.28457603044807910919189453125">
        <ele>927</ele>
        <time>2019-07-07T11:20:33.000Z</time>
      </trkpt>
      <trkpt lat="40.58333591558039188385009765625" lon="-1.284622214734554290771484375">
        <ele>927.79998779296875</ele>
        <time>2019-07-07T11:20:34.000Z</time>
      </trkpt>
      <trkpt lat="40.5839810706675052642822265625" lon="-1.28470494411885738372802734375">
        <ele>928.20001220703125</ele>
        <time>2019-07-07T11:20:36.000Z</time>
      </trkpt>
      <trkpt lat="40.58430545032024383544921875" lon="-1.2847420759499073028564453125">
        <ele>929.4000244140625</ele>
        <time>2019-07-07T11:20:37.000Z</time>
      </trkpt>
      <trkpt lat="40.58495379053056240081787109375" lon="-1.2848087958991527557373046875">
        <ele>929.5999755859375</ele>
        <time>2019-07-07T11:20:39.000Z</time>
      </trkpt>
      <trkpt lat="40.5852775834500789642333984375" lon="-1.28483704291284084320068359375">
        <ele>931</ele>
        <time>2019-07-07T11:20:40.000Z</time>
      </trkpt>
      <trkpt lat="40.58592709712684154510498046875" lon="-1.284887753427028656005859375">
        <ele>930.5999755859375</ele>
        <time>2019-07-07T11:20:42.000Z</time>
      </trkpt>
      <trkpt lat="40.58657015673816204071044921875" lon="-1.2849315069615840911865234375">
        <ele>929</ele>
        <time>2019-07-07T11:20:44.000Z</time>
      </trkpt>
      <trkpt lat="40.58720198459923267364501953125" lon="-1.2849589996039867401123046875">
        <ele>927.5999755859375</ele>
        <time>2019-07-07T11:20:46.000Z</time>
      </trkpt>
      <trkpt lat="40.587826184928417205810546875" lon="-1.28497819416224956512451171875">
        <ele>927.20001220703125</ele>
        <time>2019-07-07T11:20:48.000Z</time>
      </trkpt>
      <trkpt lat="40.58844401501119136810302734375" lon="-1.28500199876725673675537109375">
        <ele>926.79998779296875</ele>
        <time>2019-07-07T11:20:50.000Z</time>
      </trkpt>
      <trkpt lat="40.58875255286693572998046875" lon="-1.285016834735870361328125">
        <ele>926.4000244140625</ele>
        <time>2019-07-07T11:20:51.000Z</time>
      </trkpt>
      <trkpt lat="40.5893689580261707305908203125" lon="-1.28504893742501735687255859375">
        <ele>926.5999755859375</ele>
        <time>2019-07-07T11:20:53.000Z</time>
      </trkpt>
      <trkpt lat="40.589678250253200531005859375" lon="-1.2850622646510601043701171875">
        <ele>925.4000244140625</ele>
        <time>2019-07-07T11:20:54.000Z</time>
      </trkpt>
      <trkpt lat="40.58998771011829376220703125" lon="-1.285074837505817413330078125">
        <ele>923.79998779296875</ele>
        <time>2019-07-07T11:20:55.000Z</time>
      </trkpt>
      <trkpt lat="40.59029825963079929351806640625" lon="-1.2850887514650821685791015625">
        <ele>921.5999755859375</ele>
        <time>2019-07-07T11:20:56.000Z</time>
      </trkpt>
      <trkpt lat="40.59060939587652683258056640625" lon="-1.2851024977862834930419921875">
        <ele>919.5999755859375</ele>
        <time>2019-07-07T11:20:57.000Z</time>
      </trkpt>
      <trkpt lat="40.5909209512174129486083984375" lon="-1.28511263988912105560302734375">
        <ele>918.4000244140625</ele>
        <time>2019-07-07T11:20:58.000Z</time>
      </trkpt>
      <trkpt lat="40.59154330752789974212646484375" lon="-1.2851320020854473114013671875">
        <ele>919.20001220703125</ele>
        <time>2019-07-07T11:21:00.000Z</time>
      </trkpt>
      <trkpt lat="40.591855533421039581298828125" lon="-1.28514432348310947418212890625">
        <ele>920.5999755859375</ele>
        <time>2019-07-07T11:21:01.000Z</time>
      </trkpt>
      <trkpt lat="40.59216834604740142822265625" lon="-1.28515823744237422943115234375">
        <ele>923.20001220703125</ele>
        <time>2019-07-07T11:21:02.000Z</time>
      </trkpt>
      <trkpt lat="40.59248124249279499053955078125" lon="-1.2851725704967975616455078125">
        <ele>925.5999755859375</ele>
        <time>2019-07-07T11:21:03.000Z</time>
      </trkpt>
      <trkpt lat="40.5927948094904422760009765625" lon="-1.2851871550083160400390625">
        <ele>927.20001220703125</ele>
        <time>2019-07-07T11:21:04.000Z</time>
      </trkpt>
      <trkpt lat="40.59311055578291416168212890625" lon="-1.2852014042437076568603515625">
        <ele>928.79998779296875</ele>
        <time>2019-07-07T11:21:05.000Z</time>
      </trkpt>
      <trkpt lat="40.59342705644667148590087890625" lon="-1.2852154858410358428955078125">
        <ele>929.79998779296875</ele>
        <time>2019-07-07T11:21:06.000Z</time>
      </trkpt>
      <trkpt lat="40.5940653383731842041015625" lon="-1.2852423079311847686767578125">
        <ele>930</ele>
        <time>2019-07-07T11:21:08.000Z</time>
      </trkpt>
      <trkpt lat="40.59438594616949558258056640625" lon="-1.28525479696691036224365234375">
        <ele>931.4000244140625</ele>
        <time>2019-07-07T11:21:09.000Z</time>
      </trkpt>
      <trkpt lat="40.594706721603870391845703125" lon="-1.28526829183101654052734375">
        <ele>933.20001220703125</ele>
        <time>2019-07-07T11:21:10.000Z</time>
      </trkpt>
      <trkpt lat="40.59502799995243549346923828125" lon="-1.28528346307575702667236328125">
        <ele>936.20001220703125</ele>
        <time>2019-07-07T11:21:11.000Z</time>
      </trkpt>
      <trkpt lat="40.5953492783010005950927734375" lon="-1.28529855050146579742431640625">
        <ele>938.79998779296875</ele>
        <time>2019-07-07T11:21:12.000Z</time>
      </trkpt>
      <trkpt lat="40.5956691317260265350341796875" lon="-1.28531120717525482177734375">
        <ele>940.20001220703125</ele>
        <time>2019-07-07T11:21:13.000Z</time>
      </trkpt>
      <trkpt lat="40.59628126211464405059814453125" lon="-1.285339035093784332275390625">
        <ele>939</ele>
        <time>2019-07-07T11:21:15.000Z</time>
      </trkpt>
      <trkpt lat="40.5968700908124446868896484375" lon="-1.28536812029778957366943359375">
        <ele>934.79998779296875</ele>
        <time>2019-07-07T11:21:17.000Z</time>
      </trkpt>
      <trkpt lat="40.59716085903346538543701171875" lon="-1.2853861413896083831787109375">
        <ele>932.79998779296875</ele>
        <time>2019-07-07T11:21:18.000Z</time>
      </trkpt>
      <trkpt lat="40.5974517948925495147705078125" lon="-1.285406090319156646728515625">
        <ele>930.5999755859375</ele>
        <time>2019-07-07T11:21:19.000Z</time>
      </trkpt>
      <trkpt lat="40.5980385281145572662353515625" lon="-1.28543785773217678070068359375">
        <ele>931.79998779296875</ele>
        <time>2019-07-07T11:21:21.000Z</time>
      </trkpt>
      <trkpt lat="40.5983322300016880035400390625" lon="-1.2854505144059658050537109375">
        <ele>933.79998779296875</ele>
        <time>2019-07-07T11:21:22.000Z</time>
      </trkpt>
      <trkpt lat="40.59892617166042327880859375" lon="-1.285477168858051300048828125">
        <ele>935.4000244140625</ele>
        <time>2019-07-07T11:21:24.000Z</time>
      </trkpt>
      <trkpt lat="40.59923554770648479461669921875" lon="-1.28548881970345973968505859375">
        <ele>937.5999755859375</ele>
        <time>2019-07-07T11:21:25.000Z</time>
      </trkpt>
      <trkpt lat="40.59954819269478321075439453125" lon="-1.28550105728209018707275390625">
        <ele>938.5999755859375</ele>
        <time>2019-07-07T11:21:26.000Z</time>
      </trkpt>
      <trkpt lat="40.60016593895852565765380859375" lon="-1.28552804701030254364013671875">
        <ele>938.79998779296875</ele>
        <time>2019-07-07T11:21:28.000Z</time>
      </trkpt>
      <trkpt lat="40.60047648847103118896484375" lon="-1.28553290851414203643798828125">
        <ele>936.79998779296875</ele>
        <time>2019-07-07T11:21:29.000Z</time>
      </trkpt>
      <trkpt lat="40.60079206712543964385986328125" lon="-1.2855383567512035369873046875">
        <ele>935.5999755859375</ele>
        <time>2019-07-07T11:21:30.000Z</time>
      </trkpt>
      <trkpt lat="40.601109825074672698974609375" lon="-1.285552270710468292236328125">
        <ele>934.20001220703125</ele>
        <time>2019-07-07T11:21:31.000Z</time>
      </trkpt>
      <trkpt lat="40.6017470173537731170654296875" lon="-1.28559342585504055023193359375">
        <ele>932</ele>
        <time>2019-07-07T11:21:33.000Z</time>
      </trkpt>
      <trkpt lat="40.6020672060549259185791015625" lon="-1.285609938204288482666015625">
        <ele>930.5999755859375</ele>
        <time>2019-07-07T11:21:34.000Z</time>
      </trkpt>
      <trkpt lat="40.60270833782851696014404296875" lon="-1.28565008752048015594482421875">
        <ele>930</ele>
        <time>2019-07-07T11:21:36.000Z</time>
      </trkpt>
      <trkpt lat="40.6030292809009552001953125" lon="-1.28567137755453586578369140625">
        <ele>929</ele>
        <time>2019-07-07T11:21:37.000Z</time>
      </trkpt>
      <trkpt lat="40.60366638936102390289306640625" lon="-1.28571932204067707061767578125">
        <ele>928.4000244140625</ele>
        <time>2019-07-07T11:21:39.000Z</time>
      </trkpt>
      <trkpt lat="40.604289583861827850341796875" lon="-1.285780258476734161376953125">
        <ele>928.4000244140625</ele>
        <time>2019-07-07T11:21:41.000Z</time>
      </trkpt>
      <trkpt lat="40.60459728352725505828857421875" lon="-1.2858136184513568878173828125">
        <ele>928</ele>
        <time>2019-07-07T11:21:42.000Z</time>
      </trkpt>
      <trkpt lat="40.60520480386912822723388671875" lon="-1.28588763065636157989501953125">
        <ele>927.4000244140625</ele>
        <time>2019-07-07T11:21:44.000Z</time>
      </trkpt>
      <trkpt lat="40.60579975135624408721923828125" lon="-1.28598988987505435943603515625">
        <ele>927.79998779296875</ele>
        <time>2019-07-07T11:21:46.000Z</time>
      </trkpt>
      <trkpt lat="40.60639838688075542449951171875" lon="-1.28608611412346363067626953125">
        <ele>928.20001220703125</ele>
        <time>2019-07-07T11:21:48.000Z</time>
      </trkpt>
      <trkpt lat="40.6066950224339962005615234375" lon="-1.286143697798252105712890625">
        <ele>929.5999755859375</ele>
        <time>2019-07-07T11:21:49.000Z</time>
      </trkpt>
      <trkpt lat="40.60729273594915866851806640625" lon="-1.286271773278713226318359375">
        <ele>931.20001220703125</ele>
        <time>2019-07-07T11:21:51.000Z</time>
      </trkpt>
      <trkpt lat="40.607590712606906890869140625" lon="-1.2863467074930667877197265625">
        <ele>932.79998779296875</ele>
        <time>2019-07-07T11:21:52.000Z</time>
      </trkpt>
      <trkpt lat="40.60788785107433795928955078125" lon="-1.2864281795918941497802734375">
        <ele>935.20001220703125</ele>
        <time>2019-07-07T11:21:53.000Z</time>
      </trkpt>
      <trkpt lat="40.6081849895417690277099609375" lon="-1.286516524851322174072265625">
        <ele>938.4000244140625</ele>
        <time>2019-07-07T11:21:54.000Z</time>
      </trkpt>
      <trkpt lat="40.60848112218081951141357421875" lon="-1.2866102345287799835205078125">
        <ele>941.5999755859375</ele>
        <time>2019-07-07T11:21:55.000Z</time>
      </trkpt>
      <trkpt lat="40.6090761534869670867919921875" lon="-1.28680695779621601104736328125">
        <ele>942.79998779296875</ele>
        <time>2019-07-07T11:21:57.000Z</time>
      </trkpt>
      <trkpt lat="40.609371028840541839599609375" lon="-1.286911480128765106201171875">
        <ele>944.20001220703125</ele>
        <time>2019-07-07T11:21:58.000Z</time>
      </trkpt>
      <trkpt lat="40.609664730727672576904296875" lon="-1.28702488727867603302001953125">
        <ele>945.5999755859375</ele>
        <time>2019-07-07T11:21:59.000Z</time>
      </trkpt>
      <trkpt lat="40.6102502904832363128662109375" lon="-1.28727081231772899627685546875">
        <ele>945</ele>
        <time>2019-07-07T11:22:01.000Z</time>
      </trkpt>
      <trkpt lat="40.61083274893462657928466796875" lon="-1.28753618337213993072509765625">
        <ele>945</ele>
        <time>2019-07-07T11:22:03.000Z</time>
      </trkpt>
      <trkpt lat="40.6111260317265987396240234375" lon="-1.28767766989767551422119140625">
        <ele>946</ele>
        <time>2019-07-07T11:22:04.000Z</time>
      </trkpt>
      <trkpt lat="40.6117089092731475830078125" lon="-1.287972629070281982421875">
        <ele>945.4000244140625</ele>
        <time>2019-07-07T11:22:06.000Z</time>
      </trkpt>
      <trkpt lat="40.612284578382968902587890625" lon="-1.2882846035063266754150390625">
        <ele>946.20001220703125</ele>
        <time>2019-07-07T11:22:08.000Z</time>
      </trkpt>
      <trkpt lat="40.61256897635757923126220703125" lon="-1.28845081664621829986572265625">
        <ele>943.79998779296875</ele>
        <time>2019-07-07T11:22:09.000Z</time>
      </trkpt>
      <trkpt lat="40.6131283007562160491943359375" lon="-1.28880478441715240478515625">
        <ele>942.5999755859375</ele>
        <time>2019-07-07T11:22:11.000Z</time>
      </trkpt>
      <trkpt lat="40.61340683139860630035400390625" lon="-1.28898776136338710784912109375">
        <ele>945.79998779296875</ele>
        <time>2019-07-07T11:22:12.000Z</time>
      </trkpt>
      <trkpt lat="40.613684691488742828369140625" lon="-1.28917627036571502685546875">
        <ele>948.79998779296875</ele>
        <time>2019-07-07T11:22:13.000Z</time>
      </trkpt>
      <trkpt lat="40.61396188102662563323974609375" lon="-1.289370059967041015625">
        <ele>950.20001220703125</ele>
        <time>2019-07-07T11:22:14.000Z</time>
      </trkpt>
      <trkpt lat="40.6142404116690158843994140625" lon="-1.28956678323447704315185546875">
        <ele>951.4000244140625</ele>
        <time>2019-07-07T11:22:15.000Z</time>
      </trkpt>
      <trkpt lat="40.61479403637349605560302734375" lon="-1.2899777479469776153564453125">
        <ele>952.79998779296875</ele>
        <time>2019-07-07T11:22:17.000Z</time>
      </trkpt>
      <trkpt lat="40.61534388922154903411865234375" lon="-1.2904159538447856903076171875">
        <ele>953</ele>
        <time>2019-07-07T11:22:19.000Z</time>
      </trkpt>
      <trkpt lat="40.61588334850966930389404296875" lon="-1.2908910401165485382080078125">
        <ele>953</ele>
        <time>2019-07-07T11:22:21.000Z</time>
      </trkpt>
      <trkpt lat="40.61641928739845752716064453125" lon="-1.29139202646911144256591796875">
        <ele>951.20001220703125</ele>
        <time>2019-07-07T11:22:23.000Z</time>
      </trkpt>
      <trkpt lat="40.61668566428124904632568359375" lon="-1.29164926707744598388671875">
        <ele>949</ele>
        <time>2019-07-07T11:22:24.000Z</time>
      </trkpt>
      <trkpt lat="40.6169470958411693572998046875" lon="-1.2919122911989688873291015625">
        <ele>945.5999755859375</ele>
        <time>2019-07-07T11:22:25.000Z</time>
      </trkpt>
      <trkpt lat="40.61720483936369419097900390625" lon="-1.29217690788209438323974609375">
        <ele>940.79998779296875</ele>
        <time>2019-07-07T11:22:26.000Z</time>
      </trkpt>
      <trkpt lat="40.6174573861062526702880859375" lon="-1.2924457155168056488037109375">
        <ele>936</ele>
        <time>2019-07-07T11:22:27.000Z</time>
      </trkpt>
      <trkpt lat="40.61770456843078136444091796875" lon="-1.29271955229341983795166015625">
        <ele>930.5999755859375</ele>
        <time>2019-07-07T11:22:28.000Z</time>
      </trkpt>
      <trkpt lat="40.6179504096508026123046875" lon="-1.2929942272603511810302734375">
        <ele>927.20001220703125</ele>
        <time>2019-07-07T11:22:29.000Z</time>
      </trkpt>
      <trkpt lat="40.61819247901439666748046875" lon="-1.29326923750340938568115234375">
        <ele>925.20001220703125</ele>
        <time>2019-07-07T11:22:30.000Z</time>
      </trkpt>
      <trkpt lat="40.61866723001003265380859375" lon="-1.29381875507533550262451171875">
        <ele>924</ele>
        <time>2019-07-07T11:22:32.000Z</time>
      </trkpt>
      <trkpt lat="40.6189000792801380157470703125" lon="-1.2940949387848377227783203125">
        <ele>922.4000244140625</ele>
        <time>2019-07-07T11:22:33.000Z</time>
      </trkpt>
      <trkpt lat="40.61935479752719402313232421875" lon="-1.29464688710868358612060546875">
        <ele>921.4000244140625</ele>
        <time>2019-07-07T11:22:35.000Z</time>
      </trkpt>
      <trkpt lat="40.619580186903476715087890625" lon="-1.29492483101785182952880859375">
        <ele>920.20001220703125</ele>
        <time>2019-07-07T11:22:36.000Z</time>
      </trkpt>
      <trkpt lat="40.62003255821764469146728515625" lon="-1.29548809491097927093505859375">
        <ele>917.4000244140625</ele>
        <time>2019-07-07T11:22:38.000Z</time>
      </trkpt>
      <trkpt lat="40.62048467807471752166748046875" lon="-1.29606242291629314422607421875">
        <ele>915.79998779296875</ele>
        <time>2019-07-07T11:22:40.000Z</time>
      </trkpt>
      <trkpt lat="40.62071316875517368316650390625" lon="-1.2963503412902355194091796875">
        <ele>913</ele>
        <time>2019-07-07T11:22:41.000Z</time>
      </trkpt>
      <trkpt lat="40.62117065303027629852294921875" lon="-1.29693263210356235504150390625">
        <ele>912.5999755859375</ele>
        <time>2019-07-07T11:22:43.000Z</time>
      </trkpt>
      <trkpt lat="40.62162880785763263702392578125" lon="-1.29751869477331638336181640625">
        <ele>912.79998779296875</ele>
        <time>2019-07-07T11:22:45.000Z</time>
      </trkpt>
      <trkpt lat="40.62208562158048152923583984375" lon="-1.298092938959598541259765625">
        <ele>914</ele>
        <time>2019-07-07T11:22:47.000Z</time>
      </trkpt>
      <trkpt lat="40.62231595627963542938232421875" lon="-1.29837331362068653106689453125">
        <ele>914.5999755859375</ele>
        <time>2019-07-07T11:22:48.000Z</time>
      </trkpt>
      <trkpt lat="40.62254629097878932952880859375" lon="-1.29865159280598163604736328125">
        <ele>917.20001220703125</ele>
        <time>2019-07-07T11:22:49.000Z</time>
      </trkpt>
      <trkpt lat="40.6227752007544040679931640625" lon="-1.29892936907708644866943359375">
        <ele>919.4000244140625</ele>
        <time>2019-07-07T11:22:50.000Z</time>
      </trkpt>
      <trkpt lat="40.62323276884853839874267578125" lon="-1.29948123358190059661865234375">
        <ele>921.20001220703125</ele>
        <time>2019-07-07T11:22:52.000Z</time>
      </trkpt>
      <trkpt lat="40.62369125895202159881591796875" lon="-1.30003561265766620635986328125">
        <ele>922.5999755859375</ele>
        <time>2019-07-07T11:22:54.000Z</time>
      </trkpt>
      <trkpt lat="40.62392511405050754547119140625" lon="-1.30031473003327846527099609375">
        <ele>921</ele>
        <time>2019-07-07T11:22:55.000Z</time>
      </trkpt>
      <trkpt lat="40.62416181899607181549072265625" lon="-1.30059317685663700103759765625">
        <ele>919.20001220703125</ele>
        <time>2019-07-07T11:22:56.000Z</time>
      </trkpt>
      <trkpt lat="40.62464377842843532562255859375" lon="-1.30114470608532428741455078125">
        <ele>917</ele>
        <time>2019-07-07T11:22:58.000Z</time>
      </trkpt>
      <trkpt lat="40.625137053430080413818359375" lon="-1.30168768577277660369873046875">
        <ele>916</ele>
        <time>2019-07-07T11:23:00.000Z</time>
      </trkpt>
      <trkpt lat="40.62564231455326080322265625" lon="-1.30222580395638942718505859375">
        <ele>915.79998779296875</ele>
        <time>2019-07-07T11:23:02.000Z</time>
      </trkpt>
      <trkpt lat="40.6261557899415493011474609375" lon="-1.302760653197765350341796875">
        <ele>915</ele>
        <time>2019-07-07T11:23:04.000Z</time>
      </trkpt>
      <trkpt lat="40.6266727857291698455810546875" lon="-1.30329432897269725799560546875">
        <ele>914.4000244140625</ele>
        <time>2019-07-07T11:23:06.000Z</time>
      </trkpt>
      <trkpt lat="40.62719355337321758270263671875" lon="-1.303828172385692596435546875">
        <ele>913.4000244140625</ele>
        <time>2019-07-07T11:23:08.000Z</time>
      </trkpt>
      <trkpt lat="40.62745942734181880950927734375" lon="-1.304090358316898345947265625">
        <ele>912</ele>
        <time>2019-07-07T11:23:09.000Z</time>
      </trkpt>
      <trkpt lat="40.62800123356282711029052734375" lon="-1.30459905602037906646728515625">
        <ele>911.20001220703125</ele>
        <time>2019-07-07T11:23:11.000Z</time>
      </trkpt>
      <trkpt lat="40.62855242751538753509521484375" lon="-1.30509174428880214691162109375">
        <ele>911.5999755859375</ele>
        <time>2019-07-07T11:23:13.000Z</time>
      </trkpt>
      <trkpt lat="40.6288262642920017242431640625" lon="-1.30533616058528423309326171875">
        <ele>914.20001220703125</ele>
        <time>2019-07-07T11:23:14.000Z</time>
      </trkpt>
      <trkpt lat="40.62909808941185474395751953125" lon="-1.305581666529178619384765625">
        <ele>919.20001220703125</ele>
        <time>2019-07-07T11:23:15.000Z</time>
      </trkpt>
      <trkpt lat="40.62936631031334400177001953125" lon="-1.30582516081631183624267578125">
        <ele>926.5999755859375</ele>
        <time>2019-07-07T11:23:16.000Z</time>
      </trkpt>
      <trkpt lat="40.62963302247226238250732421875" lon="-1.3060653023421764373779296875">
        <ele>936.20001220703125</ele>
        <time>2019-07-07T11:23:17.000Z</time>
      </trkpt>
      <trkpt lat="40.62990040518343448638916015625" lon="-1.30630209110677242279052734375">
        <ele>944.5999755859375</ele>
        <time>2019-07-07T11:23:18.000Z</time>
      </trkpt>
      <trkpt lat="40.6301678717136383056640625" lon="-1.30653544329106807708740234375">
        <ele>949.20001220703125</ele>
        <time>2019-07-07T11:23:19.000Z</time>
      </trkpt>
      <trkpt lat="40.630437098443508148193359375" lon="-1.30676460452377796173095703125">
        <ele>951.4000244140625</ele>
        <time>2019-07-07T11:23:20.000Z</time>
      </trkpt>
      <trkpt lat="40.63098150305449962615966796875" lon="-1.307217143476009368896484375">
        <ele>950.20001220703125</ele>
        <time>2019-07-07T11:23:22.000Z</time>
      </trkpt>
      <trkpt lat="40.63125542365014553070068359375" lon="-1.307441778481006622314453125">
        <ele>946.5999755859375</ele>
        <time>2019-07-07T11:23:23.000Z</time>
      </trkpt>
      <trkpt lat="40.631530098617076873779296875" lon="-1.3076659105718135833740234375">
        <ele>938.79998779296875</ele>
        <time>2019-07-07T11:23:24.000Z</time>
      </trkpt>
      <trkpt lat="40.6318058632314205169677734375" lon="-1.30788878537714481353759765625">
        <ele>930.20001220703125</ele>
        <time>2019-07-07T11:23:25.000Z</time>
      </trkpt>
      <trkpt lat="40.63208229839801788330078125" lon="-1.30811207927763462066650390625">
        <ele>925.20001220703125</ele>
        <time>2019-07-07T11:23:26.000Z</time>
      </trkpt>
      <trkpt lat="40.6323604099452495574951171875" lon="-1.308332271873950958251953125">
        <ele>921.4000244140625</ele>
        <time>2019-07-07T11:23:27.000Z</time>
      </trkpt>
      <trkpt lat="40.6326403655111789703369140625" lon="-1.30854944698512554168701171875">
        <ele>919.4000244140625</ele>
        <time>2019-07-07T11:23:28.000Z</time>
      </trkpt>
      <trkpt lat="40.63292023725807666778564453125" lon="-1.3087652809917926788330078125">
        <ele>917.20001220703125</ele>
        <time>2019-07-07T11:23:29.000Z</time>
      </trkpt>
      <trkpt lat="40.63348232768476009368896484375" lon="-1.30919049493968486785888671875">
        <ele>916.20001220703125</ele>
        <time>2019-07-07T11:23:31.000Z</time>
      </trkpt>
      <trkpt lat="40.63376412726938724517822265625" lon="-1.3093986175954341888427734375">
        <ele>917.79998779296875</ele>
        <time>2019-07-07T11:23:32.000Z</time>
      </trkpt>
      <trkpt lat="40.63432739116251468658447265625" lon="-1.309806145727634429931640625">
        <ele>915.79998779296875</ele>
        <time>2019-07-07T11:23:34.000Z</time>
      </trkpt>
      <trkpt lat="40.63488881103694438934326171875" lon="-1.31020973436534404754638671875">
        <ele>914.79998779296875</ele>
        <time>2019-07-07T11:23:36.000Z</time>
      </trkpt>
      <trkpt lat="40.63516960479319095611572265625" lon="-1.31040536798536777496337890625">
        <ele>914.5999755859375</ele>
        <time>2019-07-07T11:23:37.000Z</time>
      </trkpt>
      <trkpt lat="40.6354509852826595306396484375" lon="-1.31059647537767887115478515625">
        <ele>916.20001220703125</ele>
        <time>2019-07-07T11:23:38.000Z</time>
      </trkpt>
      <trkpt lat="40.63573219813406467437744140625" lon="-1.31078456528484821319580078125">
        <ele>919.79998779296875</ele>
        <time>2019-07-07T11:23:39.000Z</time>
      </trkpt>
      <trkpt lat="40.6360132433474063873291015625" lon="-1.31097164936363697052001953125">
        <ele>927.4000244140625</ele>
        <time>2019-07-07T11:23:40.000Z</time>
      </trkpt>
      <trkpt lat="40.636295378208160400390625" lon="-1.3111588172614574432373046875">
        <ele>936.4000244140625</ele>
        <time>2019-07-07T11:23:41.000Z</time>
      </trkpt>
      <trkpt lat="40.6365775130689144134521484375" lon="-1.31134514696896076202392578125">
        <ele>941</ele>
        <time>2019-07-07T11:23:42.000Z</time>
      </trkpt>
      <trkpt lat="40.636861659586429595947265625" lon="-1.31152669899165630340576171875">
        <ele>943.20001220703125</ele>
        <time>2019-07-07T11:23:43.000Z</time>
      </trkpt>
      <trkpt lat="40.637148320674896240234375" lon="-1.31170271895825862884521484375">
        <ele>941.79998779296875</ele>
        <time>2019-07-07T11:23:44.000Z</time>
      </trkpt>
      <trkpt lat="40.6374351494014263153076171875" lon="-1.3118769787251949310302734375">
        <ele>938</ele>
        <time>2019-07-07T11:23:45.000Z</time>
      </trkpt>
      <trkpt lat="40.63772273249924182891845703125" lon="-1.3120499812066555023193359375">
        <ele>935.79998779296875</ele>
        <time>2019-07-07T11:23:46.000Z</time>
      </trkpt>
      <trkpt lat="40.63800972886383533477783203125" lon="-1.31222340278327465057373046875">
        <ele>933.20001220703125</ele>
        <time>2019-07-07T11:23:47.000Z</time>
      </trkpt>
      <trkpt lat="40.63829655759036540985107421875" lon="-1.31239539943635463714599609375">
        <ele>930.5999755859375</ele>
        <time>2019-07-07T11:23:48.000Z</time>
      </trkpt>
      <trkpt lat="40.63858455978333950042724609375" lon="-1.3125646300613880157470703125">
        <ele>928.4000244140625</ele>
        <time>2019-07-07T11:23:49.000Z</time>
      </trkpt>
      <trkpt lat="40.6388748250901699066162109375" lon="-1.31273000501096248626708984375">
        <ele>926.4000244140625</ele>
        <time>2019-07-07T11:23:50.000Z</time>
      </trkpt>
      <trkpt lat="40.6394625641405582427978515625" lon="-1.31305321119725704193115234375">
        <ele>927.4000244140625</ele>
        <time>2019-07-07T11:23:52.000Z</time>
      </trkpt>
      <trkpt lat="40.6400553323328495025634765625" lon="-1.31337893195450305938720703125">
        <ele>928</ele>
        <time>2019-07-07T11:23:54.000Z</time>
      </trkpt>
      <trkpt lat="40.64065371640026569366455078125" lon="-1.31370431743562221527099609375">
        <ele>928</ele>
        <time>2019-07-07T11:23:56.000Z</time>
      </trkpt>
      <trkpt lat="40.641256459057331085205078125" lon="-1.31401713006198406219482421875">
        <ele>926.5999755859375</ele>
        <time>2019-07-07T11:23:58.000Z</time>
      </trkpt>
      <trkpt lat="40.64155912958085536956787109375" lon="-1.3141652382910251617431640625">
        <ele>924.4000244140625</ele>
        <time>2019-07-07T11:23:59.000Z</time>
      </trkpt>
      <trkpt lat="40.6418607942759990692138671875" lon="-1.31430923938751220703125">
        <ele>922.5999755859375</ele>
        <time>2019-07-07T11:24:00.000Z</time>
      </trkpt>
      <trkpt lat="40.64216203987598419189453125" lon="-1.31444963626563549041748046875">
        <ele>920</ele>
        <time>2019-07-07T11:24:01.000Z</time>
      </trkpt>
      <trkpt lat="40.6424589268863201141357421875" lon="-1.31459020078182220458984375">
        <ele>917.4000244140625</ele>
        <time>2019-07-07T11:24:02.000Z</time>
      </trkpt>
      <trkpt lat="40.6427563168108463287353515625" lon="-1.3147298432886600494384765625">
        <ele>916</ele>
        <time>2019-07-07T11:24:03.000Z</time>
      </trkpt>
      <trkpt lat="40.64335369504988193511962890625" lon="-1.31500384770333766937255859375">
        <ele>914.79998779296875</ele>
        <time>2019-07-07T11:24:05.000Z</time>
      </trkpt>
      <trkpt lat="40.64395752735435962677001953125" lon="-1.31527424789965152740478515625">
        <ele>917</ele>
        <time>2019-07-07T11:24:07.000Z</time>
      </trkpt>
      <trkpt lat="40.64456420950591564178466796875" lon="-1.31553106941282749176025390625">
        <ele>918.4000244140625</ele>
        <time>2019-07-07T11:24:09.000Z</time>
      </trkpt>
      <trkpt lat="40.64517005346715450286865234375" lon="-1.31577867083251476287841796875">
        <ele>917.5999755859375</ele>
        <time>2019-07-07T11:24:11.000Z</time>
      </trkpt>
      <trkpt lat="40.645469538867473602294921875" lon="-1.31590188480913639068603515625">
        <ele>916.4000244140625</ele>
        <time>2019-07-07T11:24:12.000Z</time>
      </trkpt>
      <trkpt lat="40.64607328735291957855224609375" lon="-1.316142193973064422607421875">
        <ele>913.20001220703125</ele>
        <time>2019-07-07T11:24:14.000Z</time>
      </trkpt>
      <trkpt lat="40.64668047241866588592529296875" lon="-1.3163686729967594146728515625">
        <ele>912.5999755859375</ele>
        <time>2019-07-07T11:24:16.000Z</time>
      </trkpt>
      <trkpt lat="40.64729000441730022430419921875" lon="-1.3165879435837268829345703125">
        <ele>915</ele>
        <time>2019-07-07T11:24:18.000Z</time>
      </trkpt>
      <trkpt lat="40.64790557138621807098388671875" lon="-1.3168023526668548583984375">
        <ele>914.79998779296875</ele>
        <time>2019-07-07T11:24:20.000Z</time>
      </trkpt>
      <trkpt lat="40.64821469597518444061279296875" lon="-1.31690570153295993804931640625">
        <ele>916</ele>
        <time>2019-07-07T11:24:21.000Z</time>
      </trkpt>
      <trkpt lat="40.64883797429502010345458984375" lon="-1.31710301153361797332763671875">
        <ele>916.79998779296875</ele>
        <time>2019-07-07T11:24:23.000Z</time>
      </trkpt>
      <trkpt lat="40.6494665332138538360595703125" lon="-1.31729177199304103851318359375">
        <ele>915.4000244140625</ele>
        <time>2019-07-07T11:24:25.000Z</time>
      </trkpt>
      <trkpt lat="40.65009810961782932281494140625" lon="-1.31747432984411716461181640625">
        <ele>918.4000244140625</ele>
        <time>2019-07-07T11:24:27.000Z</time>
      </trkpt>
      <trkpt lat="40.65073245204985141754150390625" lon="-1.3176490925252437591552734375">
        <ele>919.20001220703125</ele>
        <time>2019-07-07T11:24:29.000Z</time>
      </trkpt>
      <trkpt lat="40.6510513834655284881591796875" lon="-1.31773115135729312896728515625">
        <ele>920.5999755859375</ele>
        <time>2019-07-07T11:24:30.000Z</time>
      </trkpt>
      <trkpt lat="40.65137081779539585113525390625" lon="-1.31780893541872501373291015625">
        <ele>922</ele>
        <time>2019-07-07T11:24:31.000Z</time>
      </trkpt>
      <trkpt lat="40.65201203338801860809326171875" lon="-1.3179484941065311431884765625">
        <ele>923</ele>
        <time>2019-07-07T11:24:33.000Z</time>
      </trkpt>
      <trkpt lat="40.652655847370624542236328125" lon="-1.31806424818933010101318359375">
        <ele>923.20001220703125</ele>
        <time>2019-07-07T11:24:35.000Z</time>
      </trkpt>
      <trkpt lat="40.6533020921051502227783203125" lon="-1.318163573741912841796875">
        <ele>923.4000244140625</ele>
        <time>2019-07-07T11:24:37.000Z</time>
      </trkpt>
      <trkpt lat="40.653948672115802764892578125" lon="-1.3182442076504230499267578125">
        <ele>924.79998779296875</ele>
        <time>2019-07-07T11:24:39.000Z</time>
      </trkpt>
      <trkpt lat="40.6542717106640338897705078125" lon="-1.318273209035396575927734375">
        <ele>925.79998779296875</ele>
        <time>2019-07-07T11:24:40.000Z</time>
      </trkpt>
      <trkpt lat="40.654914267361164093017578125" lon="-1.3183045573532581329345703125">
        <ele>926.79998779296875</ele>
        <time>2019-07-07T11:24:42.000Z</time>
      </trkpt>
      <trkpt lat="40.655233450233936309814453125" lon="-1.31831101141870021820068359375">
        <ele>927.79998779296875</ele>
        <time>2019-07-07T11:24:43.000Z</time>
      </trkpt>
      <trkpt lat="40.65555154345929622650146484375" lon="-1.3183146156370639801025390625">
        <ele>929.4000244140625</ele>
        <time>2019-07-07T11:24:44.000Z</time>
      </trkpt>
      <trkpt lat="40.6558699719607830047607421875" lon="-1.31831402890384197235107421875">
        <ele>930.4000244140625</ele>
        <time>2019-07-07T11:24:45.000Z</time>
      </trkpt>
      <trkpt lat="40.65619141794741153717041015625" lon="-1.3183085806667804718017578125">
        <ele>932</ele>
        <time>2019-07-07T11:24:46.000Z</time>
      </trkpt>
      <trkpt lat="40.65683598630130290985107421875" lon="-1.3182733766734600067138671875">
        <ele>933</ele>
        <time>2019-07-07T11:24:48.000Z</time>
      </trkpt>
      <trkpt lat="40.65748742781579494476318359375" lon="-1.31821093149483203887939453125">
        <ele>934.4000244140625</ele>
        <time>2019-07-07T11:24:50.000Z</time>
      </trkpt>
      <trkpt lat="40.65813736058771610260009765625" lon="-1.31811864674091339111328125">
        <ele>933.79998779296875</ele>
        <time>2019-07-07T11:24:52.000Z</time>
      </trkpt>
      <trkpt lat="40.6584613211452960968017578125" lon="-1.3180608116090297698974609375">
        <ele>933.20001220703125</ele>
        <time>2019-07-07T11:24:53.000Z</time>
      </trkpt>
      <trkpt lat="40.65911334939301013946533203125" lon="-1.31792284548282623291015625">
        <ele>932</ele>
        <time>2019-07-07T11:24:55.000Z</time>
      </trkpt>
      <trkpt lat="40.659436471760272979736328125" lon="-1.31784480996429920196533203125">
        <ele>930.79998779296875</ele>
        <time>2019-07-07T11:24:56.000Z</time>
      </trkpt>
      <trkpt lat="40.6600766815245151519775390625" lon="-1.31767465732991695404052734375">
        <ele>930.79998779296875</ele>
        <time>2019-07-07T11:24:58.000Z</time>
      </trkpt>
      <trkpt lat="40.660394020378589630126953125" lon="-1.31758354604244232177734375">
        <ele>933.79998779296875</ele>
        <time>2019-07-07T11:24:59.000Z</time>
      </trkpt>
      <trkpt lat="40.660711862146854400634765625" lon="-1.31748698651790618896484375">
        <ele>937.4000244140625</ele>
        <time>2019-07-07T11:25:00.000Z</time>
      </trkpt>
      <trkpt lat="40.661025680601596832275390625" lon="-1.31738531403243541717529296875">
        <ele>943.5999755859375</ele>
        <time>2019-07-07T11:25:01.000Z</time>
      </trkpt>
      <trkpt lat="40.66133891232311725616455078125" lon="-1.31727769039571285247802734375">
        <ele>946.79998779296875</ele>
        <time>2019-07-07T11:25:02.000Z</time>
      </trkpt>
      <trkpt lat="40.66165340133011341094970703125" lon="-1.31716419942677021026611328125">
        <ele>950</ele>
        <time>2019-07-07T11:25:03.000Z</time>
      </trkpt>
      <trkpt lat="40.6622781045734882354736328125" lon="-1.3169302605092525482177734375">
        <ele>949.5999755859375</ele>
        <time>2019-07-07T11:25:05.000Z</time>
      </trkpt>
      <trkpt lat="40.6625882349908351898193359375" lon="-1.3168145902454853057861328125">
        <ele>946.5999755859375</ele>
        <time>2019-07-07T11:25:06.000Z</time>
      </trkpt>
      <trkpt lat="40.6628976948559284210205078125" lon="-1.31669841706752777099609375">
        <ele>944.20001220703125</ele>
        <time>2019-07-07T11:25:07.000Z</time>
      </trkpt>
      <trkpt lat="40.66320857964456081390380859375" lon="-1.316580064594745635986328125">
        <ele>942.4000244140625</ele>
        <time>2019-07-07T11:25:08.000Z</time>
      </trkpt>
      <trkpt lat="40.66382632590830326080322265625" lon="-1.31633707322180271148681640625">
        <ele>940.79998779296875</ele>
        <time>2019-07-07T11:25:10.000Z</time>
      </trkpt>
      <trkpt lat="40.66413561813533306121826171875" lon="-1.3162161223590373992919921875">
        <ele>939.5999755859375</ele>
        <time>2019-07-07T11:25:11.000Z</time>
      </trkpt>
      <trkpt lat="40.66474447958171367645263671875" lon="-1.315978579223155975341796875">
        <ele>937.79998779296875</ele>
        <time>2019-07-07T11:25:13.000Z</time>
      </trkpt>
      <trkpt lat="40.66505025140941143035888671875" lon="-1.31585947237908840179443359375">
        <ele>932.79998779296875</ele>
        <time>2019-07-07T11:25:14.000Z</time>
      </trkpt>
      <trkpt lat="40.66535510122776031494140625" lon="-1.31574086844921112060546875">
        <ele>926</ele>
        <time>2019-07-07T11:25:15.000Z</time>
      </trkpt>
      <trkpt lat="40.6656588613986968994140625" lon="-1.315624527633190155029296875">
        <ele>916.20001220703125</ele>
        <time>2019-07-07T11:25:16.000Z</time>
      </trkpt>
      <trkpt lat="40.66595993936061859130859375" lon="-1.31550994701683521270751953125">
        <ele>911.79998779296875</ele>
        <time>2019-07-07T11:25:17.000Z</time>
      </trkpt>
      <trkpt lat="40.6662625260651111602783203125" lon="-1.3153957016766071319580078125">
        <ele>906.79998779296875</ele>
        <time>2019-07-07T11:25:18.000Z</time>
      </trkpt>
      <trkpt lat="40.666564442217350006103515625" lon="-1.31527827121317386627197265625">
        <ele>903.79998779296875</ele>
        <time>2019-07-07T11:25:19.000Z</time>
      </trkpt>
      <trkpt lat="40.66686577163636684417724609375" lon="-1.3151563145220279693603515625">
        <ele>902.4000244140625</ele>
        <time>2019-07-07T11:25:20.000Z</time>
      </trkpt>
      <trkpt lat="40.66746474243700504302978515625" lon="-1.3149206154048442840576171875">
        <ele>902</ele>
        <time>2019-07-07T11:25:22.000Z</time>
      </trkpt>
      <trkpt lat="40.668065138161182403564453125" lon="-1.31472104229032993316650390625">
        <ele>902.4000244140625</ele>
        <time>2019-07-07T11:25:24.000Z</time>
      </trkpt>
      <trkpt lat="40.668672658503055572509765625" lon="-1.3145394064486026763916015625">
        <ele>903.20001220703125</ele>
        <time>2019-07-07T11:25:26.000Z</time>
      </trkpt>
      <trkpt lat="40.6692813523113727569580078125" lon="-1.3143687509000301361083984375">
        <ele>902.20001220703125</ele>
        <time>2019-07-07T11:25:28.000Z</time>
      </trkpt>
      <trkpt lat="40.6695894710719585418701171875" lon="-1.3142872788012027740478515625">
        <ele>901.20001220703125</ele>
        <time>2019-07-07T11:25:29.000Z</time>
      </trkpt>
      <trkpt lat="40.67021551541984081268310546875" lon="-1.31414134986698627471923828125">
        <ele>901.4000244140625</ele>
        <time>2019-07-07T11:25:31.000Z</time>
      </trkpt>
      <trkpt lat="40.67053218372166156768798828125" lon="-1.314076893031597137451171875">
        <ele>903</ele>
        <time>2019-07-07T11:25:32.000Z</time>
      </trkpt>
      <trkpt lat="40.6708504445850849151611328125" lon="-1.31401679478585720062255859375">
        <ele>904.79998779296875</ele>
        <time>2019-07-07T11:25:33.000Z</time>
      </trkpt>
      <trkpt lat="40.671171136200428009033203125" lon="-1.31396180950105190277099609375">
        <ele>906.4000244140625</ele>
        <time>2019-07-07T11:25:34.000Z</time>
      </trkpt>
      <trkpt lat="40.6714931689202785491943359375" lon="-1.31391202099621295928955078125">
        <ele>907.79998779296875</ele>
        <time>2019-07-07T11:25:35.000Z</time>
      </trkpt>
      <trkpt lat="40.67214050330221652984619140625" lon="-1.31383088417351245880126953125">
        <ele>908.5999755859375</ele>
        <time>2019-07-07T11:25:37.000Z</time>
      </trkpt>
      <trkpt lat="40.67279429174959659576416015625" lon="-1.3137793354690074920654296875">
        <ele>907.20001220703125</ele>
        <time>2019-07-07T11:25:39.000Z</time>
      </trkpt>
      <trkpt lat="40.673451684415340423583984375" lon="-1.31375058554112911224365234375">
        <ele>906.79998779296875</ele>
        <time>2019-07-07T11:25:41.000Z</time>
      </trkpt>
      <trkpt lat="40.67411075346171855926513671875" lon="-1.31374337710440158843994140625">
        <ele>906</ele>
        <time>2019-07-07T11:25:43.000Z</time>
      </trkpt>
      <trkpt lat="40.67444049753248691558837890625" lon="-1.3137499988079071044921875">
        <ele>905</ele>
        <time>2019-07-07T11:25:44.000Z</time>
      </trkpt>
      <trkpt lat="40.6750967167317867279052734375" lon="-1.313785873353481292724609375">
        <ele>902.79998779296875</ele>
        <time>2019-07-07T11:25:46.000Z</time>
      </trkpt>
      <trkpt lat="40.6757466495037078857421875" lon="-1.313845552504062652587890625">
        <ele>901.4000244140625</ele>
        <time>2019-07-07T11:25:48.000Z</time>
      </trkpt>
      <trkpt lat="40.67606859840452671051025390625" lon="-1.31388201378285884857177734375">
        <ele>901.20001220703125</ele>
        <time>2019-07-07T11:25:49.000Z</time>
      </trkpt>
      <trkpt lat="40.6767083890736103057861328125" lon="-1.31397371180355548858642578125">
        <ele>902.20001220703125</ele>
        <time>2019-07-07T11:25:51.000Z</time>
      </trkpt>
      <trkpt lat="40.67702514119446277618408203125" lon="-1.31402752362191677093505859375">
        <ele>903.4000244140625</ele>
        <time>2019-07-07T11:25:52.000Z</time>
      </trkpt>
      <trkpt lat="40.67764674313366413116455078125" lon="-1.3141555152833461761474609375">
        <ele>904.4000244140625</ele>
        <time>2019-07-07T11:25:54.000Z</time>
      </trkpt>
      <trkpt lat="40.67795150913298130035400390625" lon="-1.31422567181289196014404296875">
        <ele>904.79998779296875</ele>
        <time>2019-07-07T11:25:55.000Z</time>
      </trkpt>
      <trkpt lat="40.6785463728010654449462890625" lon="-1.314377970993518829345703125">
        <ele>905.5999755859375</ele>
        <time>2019-07-07T11:25:57.000Z</time>
      </trkpt>
      <trkpt lat="40.67883730866014957427978515625" lon="-1.31446237675845623016357421875">
        <ele>906.5999755859375</ele>
        <time>2019-07-07T11:25:58.000Z</time>
      </trkpt>
      <trkpt lat="40.6791253946721553802490234375" lon="-1.31455239839851856231689453125">
        <ele>908.20001220703125</ele>
        <time>2019-07-07T11:25:59.000Z</time>
      </trkpt>
      <trkpt lat="40.67941146902740001678466796875" lon="-1.314647197723388671875">
        <ele>909.5999755859375</ele>
        <time>2019-07-07T11:26:00.000Z</time>
      </trkpt>
      <trkpt lat="40.67998227663338184356689453125" lon="-1.3148475252091884613037109375">
        <ele>910.20001220703125</ele>
        <time>2019-07-07T11:26:02.000Z</time>
      </trkpt>
      <trkpt lat="40.6805416010320186614990234375" lon="-1.31506117992103099822998046875">
        <ele>910.5999755859375</ele>
        <time>2019-07-07T11:26:04.000Z</time>
      </trkpt>
      <trkpt lat="40.6810944713652133941650390625" lon="-1.315296627581119537353515625">
        <ele>910.5999755859375</ele>
        <time>2019-07-07T11:26:06.000Z</time>
      </trkpt>
      <trkpt lat="40.681645832955837249755859375" lon="-1.3155428878962993621826171875">
        <ele>910.4000244140625</ele>
        <time>2019-07-07T11:26:08.000Z</time>
      </trkpt>
      <trkpt lat="40.6821995414793491363525390625" lon="-1.3157963566482067108154296875">
        <ele>911</ele>
        <time>2019-07-07T11:26:10.000Z</time>
      </trkpt>
      <trkpt lat="40.6824778206646442413330078125" lon="-1.31592619232833385467529296875">
        <ele>912.20001220703125</ele>
        <time>2019-07-07T11:26:11.000Z</time>
      </trkpt>
      <trkpt lat="40.6830397434532642364501953125" lon="-1.31619575433433055877685546875">
        <ele>911.79998779296875</ele>
        <time>2019-07-07T11:26:13.000Z</time>
      </trkpt>
      <trkpt lat="40.68360292352735996246337890625" lon="-1.316478140652179718017578125">
        <ele>914.79998779296875</ele>
        <time>2019-07-07T11:26:15.000Z</time>
      </trkpt>
      <trkpt lat="40.68388589657843112945556640625" lon="-1.316621638834476470947265625">
        <ele>916</ele>
        <time>2019-07-07T11:26:16.000Z</time>
      </trkpt>
      <trkpt lat="40.68445435725152492523193359375" lon="-1.3169118203222751617431640625">
        <ele>916.4000244140625</ele>
        <time>2019-07-07T11:26:18.000Z</time>
      </trkpt>
      <trkpt lat="40.68473917432129383087158203125" lon="-1.31705909036099910736083984375">
        <ele>917.20001220703125</ele>
        <time>2019-07-07T11:26:19.000Z</time>
      </trkpt>
      <trkpt lat="40.68531417287886142730712890625" lon="-1.317353881895542144775390625">
        <ele>918.20001220703125</ele>
        <time>2019-07-07T11:26:21.000Z</time>
      </trkpt>
      <trkpt lat="40.6858848966658115386962890625" lon="-1.31765672005712985992431640625">
        <ele>919.4000244140625</ele>
        <time>2019-07-07T11:26:23.000Z</time>
      </trkpt>
      <trkpt lat="40.6864607334136962890625" lon="-1.31794430315494537353515625">
        <ele>919.5999755859375</ele>
        <time>2019-07-07T11:26:25.000Z</time>
      </trkpt>
      <trkpt lat="40.6870301999151706695556640625" lon="-1.3182274438440799713134765625">
        <ele>921.4000244140625</ele>
        <time>2019-07-07T11:26:27.000Z</time>
      </trkpt>
      <trkpt lat="40.68759002722799777984619140625" lon="-1.31851485930383205413818359375">
        <ele>922.20001220703125</ele>
        <time>2019-07-07T11:26:29.000Z</time>
      </trkpt>
      <trkpt lat="40.68786947987973690032958984375" lon="-1.318648047745227813720703125">
        <ele>923.5999755859375</ele>
        <time>2019-07-07T11:26:30.000Z</time>
      </trkpt>
      <trkpt lat="40.68842100910842418670654296875" lon="-1.318912245333194732666015625">
        <ele>924</ele>
        <time>2019-07-07T11:26:32.000Z</time>
      </trkpt>
      <trkpt lat="40.6889808364212512969970703125" lon="-1.31915708072483539581298828125">
        <ele>922</ele>
        <time>2019-07-07T11:26:34.000Z</time>
      </trkpt>
      <trkpt lat="40.68954653106629848480224609375" lon="-1.3193911872804164886474609375">
        <ele>922.4000244140625</ele>
        <time>2019-07-07T11:26:36.000Z</time>
      </trkpt>
      <trkpt lat="40.69012396037578582763671875" lon="-1.31961087696254253387451171875">
        <ele>923.4000244140625</ele>
        <time>2019-07-07T11:26:38.000Z</time>
      </trkpt>
      <trkpt lat="40.69041363894939422607421875" lon="-1.31971682421863079071044921875">
        <ele>924.5999755859375</ele>
        <time>2019-07-07T11:26:39.000Z</time>
      </trkpt>
      <trkpt lat="40.69099928252398967742919921875" lon="-1.31992285139858722686767578125">
        <ele>925</ele>
        <time>2019-07-07T11:26:41.000Z</time>
      </trkpt>
      <trkpt lat="40.6916020251810550689697265625" lon="-1.3201083429157733917236328125">
        <ele>926.20001220703125</ele>
        <time>2019-07-07T11:26:43.000Z</time>
      </trkpt>
      <trkpt lat="40.69220560602843761444091796875" lon="-1.32028075866401195526123046875">
        <ele>925.4000244140625</ele>
        <time>2019-07-07T11:26:45.000Z</time>
      </trkpt>
      <trkpt lat="40.692510120570659637451171875" lon="-1.3203562796115875244140625">
        <ele>924.5999755859375</ele>
        <time>2019-07-07T11:26:46.000Z</time>
      </trkpt>
      <trkpt lat="40.6931219995021820068359375" lon="-1.32049106061458587646484375">
        <ele>924.5999755859375</ele>
        <time>2019-07-07T11:26:48.000Z</time>
      </trkpt>
      <trkpt lat="40.69373664446175098419189453125" lon="-1.3205988518893718719482421875">
        <ele>923.79998779296875</ele>
        <time>2019-07-07T11:26:50.000Z</time>
      </trkpt>
      <trkpt lat="40.6940438412129878997802734375" lon="-1.320646964013576507568359375">
        <ele>923.4000244140625</ele>
        <time>2019-07-07T11:26:51.000Z</time>
      </trkpt>
      <trkpt lat="40.694659240543842315673828125" lon="-1.320716030895709991455078125">
        <ele>923</ele>
        <time>2019-07-07T11:26:53.000Z</time>
      </trkpt>
      <trkpt lat="40.69526617415249347686767578125" lon="-1.3207762129604816436767578125">
        <ele>924.4000244140625</ele>
        <time>2019-07-07T11:26:55.000Z</time>
      </trkpt>
      <trkpt lat="40.69557110778987407684326171875" lon="-1.32080563344061374664306640625">
        <ele>924.5999755859375</ele>
        <time>2019-07-07T11:26:56.000Z</time>
      </trkpt>
      <trkpt lat="40.696170665323734283447265625" lon="-1.32086883299052715301513671875">
        <ele>924.4000244140625</ele>
        <time>2019-07-07T11:26:58.000Z</time>
      </trkpt>
      <trkpt lat="40.69678790867328643798828125" lon="-1.3208908773958683013916015625">
        <ele>925.20001220703125</ele>
        <time>2019-07-07T11:27:00.000Z</time>
      </trkpt>
      <trkpt lat="40.69741286337375640869140625" lon="-1.32088559679687023162841796875">
        <ele>923.5999755859375</ele>
        <time>2019-07-07T11:27:02.000Z</time>
      </trkpt>
      <trkpt lat="40.69772676564753055572509765625" lon="-1.3208794780075550079345703125">
        <ele>920.79998779296875</ele>
        <time>2019-07-07T11:27:03.000Z</time>
      </trkpt>
      <trkpt lat="40.6980403326451778411865234375" lon="-1.32086883299052715301513671875">
        <ele>919.5999755859375</ele>
        <time>2019-07-07T11:27:04.000Z</time>
      </trkpt>
      <trkpt lat="40.69835255853831768035888671875" lon="-1.320855505764484405517578125">
        <ele>917.5999755859375</ele>
        <time>2019-07-07T11:27:05.000Z</time>
      </trkpt>
      <trkpt lat="40.69866084493696689605712890625" lon="-1.320839412510395050048828125">
        <ele>915.5999755859375</ele>
        <time>2019-07-07T11:27:06.000Z</time>
      </trkpt>
      <trkpt lat="40.698967874050140380859375" lon="-1.320820637047290802001953125">
        <ele>913.5999755859375</ele>
        <time>2019-07-07T11:27:07.000Z</time>
      </trkpt>
      <trkpt lat="40.69927205331623554229736328125" lon="-1.320797838270664215087890625">
        <ele>912.5999755859375</ele>
        <time>2019-07-07T11:27:08.000Z</time>
      </trkpt>
      <trkpt lat="40.69987420924007892608642578125" lon="-1.3207453675568103790283203125">
        <ele>914.5999755859375</ele>
        <time>2019-07-07T11:27:10.000Z</time>
      </trkpt>
      <trkpt lat="40.70017361082136631011962890625" lon="-1.32071946747601032257080078125">
        <ele>916.79998779296875</ele>
        <time>2019-07-07T11:27:11.000Z</time>
      </trkpt>
      <trkpt lat="40.70047192275524139404296875" lon="-1.3206937350332736968994140625">
        <ele>920.20001220703125</ele>
        <time>2019-07-07T11:27:12.000Z</time>
      </trkpt>
      <trkpt lat="40.7007694803178310394287109375" lon="-1.32066766731441020965576171875">
        <ele>922</ele>
        <time>2019-07-07T11:27:13.000Z</time>
      </trkpt>
      <trkpt lat="40.7013662718236446380615234375" lon="-1.3206142745912075042724609375">
        <ele>922.79998779296875</ele>
        <time>2019-07-07T11:27:15.000Z</time>
      </trkpt>
      <trkpt lat="40.70196717046201229095458984375" lon="-1.32055853493511676788330078125">
        <ele>922</ele>
        <time>2019-07-07T11:27:17.000Z</time>
      </trkpt>
      <trkpt lat="40.70226975716650485992431640625" lon="-1.320529282093048095703125">
        <ele>921</ele>
        <time>2019-07-07T11:27:18.000Z</time>
      </trkpt>
      <trkpt lat="40.70288398303091526031494140625" lon="-1.320477314293384552001953125">
        <ele>921</ele>
        <time>2019-07-07T11:27:20.000Z</time>
      </trkpt>
      <trkpt lat="40.703195370733737945556640625" lon="-1.32045459933578968048095703125">
        <ele>922</ele>
        <time>2019-07-07T11:27:21.000Z</time>
      </trkpt>
      <trkpt lat="40.7038211636245250701904296875" lon="-1.32041285745799541473388671875">
        <ele>921.20001220703125</ele>
        <time>2019-07-07T11:27:23.000Z</time>
      </trkpt>
      <trkpt lat="40.7041379995644092559814453125" lon="-1.32039173506200313568115234375">
        <ele>920.79998779296875</ele>
        <time>2019-07-07T11:27:24.000Z</time>
      </trkpt>
      <trkpt lat="40.70477443747222423553466796875" lon="-1.3203634880483150482177734375">
        <ele>917.79998779296875</ele>
        <time>2019-07-07T11:27:26.000Z</time>
      </trkpt>
      <trkpt lat="40.70509378798305988311767578125" lon="-1.3203541003167629241943359375">
        <ele>916.4000244140625</ele>
        <time>2019-07-07T11:27:27.000Z</time>
      </trkpt>
      <trkpt lat="40.70573835633695125579833984375" lon="-1.3203534297645092010498046875">
        <ele>915.4000244140625</ele>
        <time>2019-07-07T11:27:29.000Z</time>
      </trkpt>
      <trkpt lat="40.7063935697078704833984375" lon="-1.32037715055048465728759765625">
        <ele>915.20001220703125</ele>
        <time>2019-07-07T11:27:31.000Z</time>
      </trkpt>
      <trkpt lat="40.70672214031219482421875" lon="-1.320396177470684051513671875">
        <ele>914</ele>
        <time>2019-07-07T11:27:32.000Z</time>
      </trkpt>
      <trkpt lat="40.7073752582073211669921875" lon="-1.3204516656696796417236328125">
        <ele>912.5999755859375</ele>
        <time>2019-07-07T11:27:34.000Z</time>
      </trkpt>
      <trkpt lat="40.7076962850987911224365234375" lon="-1.320488713681697845458984375">
        <ele>910.4000244140625</ele>
        <time>2019-07-07T11:27:35.000Z</time>
      </trkpt>
      <trkpt lat="40.70801270194351673126220703125" lon="-1.32053238339722156524658203125">
        <ele>908.79998779296875</ele>
        <time>2019-07-07T11:27:36.000Z</time>
      </trkpt>
      <trkpt lat="40.708637237548828125" lon="-1.32064335979521274566650390625">
        <ele>908</ele>
        <time>2019-07-07T11:27:38.000Z</time>
      </trkpt>
      <trkpt lat="40.7092543132603168487548828125" lon="-1.3207715190947055816650390625">
        <ele>909.79998779296875</ele>
        <time>2019-07-07T11:27:40.000Z</time>
      </trkpt>
      <trkpt lat="40.709860660135746002197265625" lon="-1.32090956903994083404541015625">
        <ele>911.20001220703125</ele>
        <time>2019-07-07T11:27:42.000Z</time>
      </trkpt>
      <trkpt lat="40.710160396993160247802734375" lon="-1.3209850899875164031982421875">
        <ele>913</ele>
        <time>2019-07-07T11:27:43.000Z</time>
      </trkpt>
      <trkpt lat="40.710750482976436614990234375" lon="-1.32116161286830902099609375">
        <ele>913</ele>
        <time>2019-07-07T11:27:45.000Z</time>
      </trkpt>
      <trkpt lat="40.7113360427320003509521484375" lon="-1.32136085070669651031494140625">
        <ele>912.79998779296875</ele>
        <time>2019-07-07T11:27:47.000Z</time>
      </trkpt>
      <trkpt lat="40.7119190879166126251220703125" lon="-1.3215734995901584625244140625">
        <ele>915</ele>
        <time>2019-07-07T11:27:49.000Z</time>
      </trkpt>
      <trkpt lat="40.71220801211893558502197265625" lon="-1.3216868229210376739501953125">
        <ele>916.20001220703125</ele>
        <time>2019-07-07T11:27:50.000Z</time>
      </trkpt>
      <trkpt lat="40.7127757184207439422607421875" lon="-1.32192964665591716766357421875">
        <ele>917.79998779296875</ele>
        <time>2019-07-07T11:27:52.000Z</time>
      </trkpt>
      <trkpt lat="40.7133356295526027679443359375" lon="-1.32218931801617145538330078125">
        <ele>918.4000244140625</ele>
        <time>2019-07-07T11:27:54.000Z</time>
      </trkpt>
      <trkpt lat="40.713890008628368377685546875" lon="-1.3224639929831027984619140625">
        <ele>918.20001220703125</ele>
        <time>2019-07-07T11:27:56.000Z</time>
      </trkpt>
      <trkpt lat="40.71444497443735599517822265625" lon="-1.322749815881252288818359375">
        <ele>919.20001220703125</ele>
        <time>2019-07-07T11:27:58.000Z</time>
      </trkpt>
      <trkpt lat="40.71500279009342193603515625" lon="-1.32304318249225616455078125">
        <ele>919.5999755859375</ele>
        <time>2019-07-07T11:28:00.000Z</time>
      </trkpt>
      <trkpt lat="40.71556563489139080047607421875" lon="-1.32333948276937007904052734375">
        <ele>919.5999755859375</ele>
        <time>2019-07-07T11:28:02.000Z</time>
      </trkpt>
      <trkpt lat="40.7158495299518108367919921875" lon="-1.323491446673870086669921875">
        <ele>921.4000244140625</ele>
        <time>2019-07-07T11:28:03.000Z</time>
      </trkpt>
      <trkpt lat="40.71641857735812664031982421875" lon="-1.32380132563412189483642578125">
        <ele>923.5999755859375</ele>
        <time>2019-07-07T11:28:05.000Z</time>
      </trkpt>
      <trkpt lat="40.7167054899036884307861328125" lon="-1.3239529542624950408935546875">
        <ele>926.20001220703125</ele>
        <time>2019-07-07T11:28:06.000Z</time>
      </trkpt>
      <trkpt lat="40.71699441410601139068603515625" lon="-1.32409988902509212493896484375">
        <ele>927.4000244140625</ele>
        <time>2019-07-07T11:28:07.000Z</time>
      </trkpt>
      <trkpt lat="40.7175743579864501953125" lon="-1.32438822649419307708740234375">
        <ele>928.5999755859375</ele>
        <time>2019-07-07T11:28:09.000Z</time>
      </trkpt>
      <trkpt lat="40.71816050447523593902587890625" lon="-1.32466281764209270477294921875">
        <ele>927.5999755859375</ele>
        <time>2019-07-07T11:28:11.000Z</time>
      </trkpt>
      <trkpt lat="40.71845655329525470733642578125" lon="-1.3247968442738056182861328125">
        <ele>926.79998779296875</ele>
        <time>2019-07-07T11:28:12.000Z</time>
      </trkpt>
      <trkpt lat="40.7187526859343051910400390625" lon="-1.32493137381970882415771484375">
        <ele>925.5999755859375</ele>
        <time>2019-07-07T11:28:13.000Z</time>
      </trkpt>
      <trkpt lat="40.7193421013653278350830078125" lon="-1.32518869824707508087158203125">
        <ele>925.4000244140625</ele>
        <time>2019-07-07T11:28:15.000Z</time>
      </trkpt>
      <trkpt lat="40.71963488124310970306396484375" lon="-1.32531099021434783935546875">
        <ele>924.5999755859375</ele>
        <time>2019-07-07T11:28:16.000Z</time>
      </trkpt>
      <trkpt lat="40.7202171720564365386962890625" lon="-1.3255438394844532012939453125">
        <ele>923.79998779296875</ele>
        <time>2019-07-07T11:28:18.000Z</time>
      </trkpt>
      <trkpt lat="40.72050542570650577545166015625" lon="-1.32565607316792011260986328125">
        <ele>923.5999755859375</ele>
        <time>2019-07-07T11:28:19.000Z</time>
      </trkpt>
      <trkpt lat="40.721075646579265594482421875" lon="-1.32586780004203319549560546875">
        <ele>923.4000244140625</ele>
        <time>2019-07-07T11:28:21.000Z</time>
      </trkpt>
      <trkpt lat="40.72164000011980533599853515625" lon="-1.3260682113468647003173828125">
        <ele>923.4000244140625</ele>
        <time>2019-07-07T11:28:23.000Z</time>
      </trkpt>
      <trkpt lat="40.72220108471810817718505859375" lon="-1.3262606598436832427978515625">
        <ele>923.79998779296875</ele>
        <time>2019-07-07T11:28:25.000Z</time>
      </trkpt>
      <trkpt lat="40.72276242077350616455078125" lon="-1.32644514553248882293701171875">
        <ele>923.20001220703125</ele>
        <time>2019-07-07T11:28:27.000Z</time>
      </trkpt>
      <trkpt lat="40.7233292050659656524658203125" lon="-1.32662049494683742523193359375">
        <ele>923</ele>
        <time>2019-07-07T11:28:29.000Z</time>
      </trkpt>
      <trkpt lat="40.72389858774840831756591796875" lon="-1.326785199344158172607421875">
        <ele>923.4000244140625</ele>
        <time>2019-07-07T11:28:31.000Z</time>
      </trkpt>
      <trkpt lat="40.72418390773236751556396484375" lon="-1.32686390541493892669677734375">
        <ele>925.20001220703125</ele>
        <time>2019-07-07T11:28:32.000Z</time>
      </trkpt>
      <trkpt lat="40.72475672699511051177978515625" lon="-1.327009163796901702880859375">
        <ele>926.4000244140625</ele>
        <time>2019-07-07T11:28:34.000Z</time>
      </trkpt>
      <trkpt lat="40.725330971181392669677734375" lon="-1.32714235223829746246337890625">
        <ele>927.5999755859375</ele>
        <time>2019-07-07T11:28:36.000Z</time>
      </trkpt>
      <trkpt lat="40.725907646119594573974609375" lon="-1.32726506330072879791259765625">
        <ele>927.4000244140625</ele>
        <time>2019-07-07T11:28:38.000Z</time>
      </trkpt>
      <trkpt lat="40.72619807906448841094970703125" lon="-1.3273228146135807037353515625">
        <ele>925.79998779296875</ele>
        <time>2019-07-07T11:28:39.000Z</time>
      </trkpt>
      <trkpt lat="40.72678145952522754669189453125" lon="-1.327435970306396484375">
        <ele>923.4000244140625</ele>
        <time>2019-07-07T11:28:41.000Z</time>
      </trkpt>
      <trkpt lat="40.7270742394030094146728515625" lon="-1.3274917937815189361572265625">
        <ele>921.79998779296875</ele>
        <time>2019-07-07T11:28:42.000Z</time>
      </trkpt>
      <trkpt lat="40.72736752219498157501220703125" lon="-1.3275430910289287567138671875">
        <ele>919.4000244140625</ele>
        <time>2019-07-07T11:28:43.000Z</time>
      </trkpt>
      <trkpt lat="40.72766038589179515838623046875" lon="-1.32759178988635540008544921875">
        <ele>918</ele>
        <time>2019-07-07T11:28:44.000Z</time>
      </trkpt>
      <trkpt lat="40.72823546826839447021484375" lon="-1.32767845876514911651611328125">
        <ele>917.4000244140625</ele>
        <time>2019-07-07T11:28:46.000Z</time>
      </trkpt>
      <trkpt lat="40.7287945412099361419677734375" lon="-1.3277529738843441009521484375">
        <ele>921.4000244140625</ele>
        <time>2019-07-07T11:28:48.000Z</time>
      </trkpt>
      <trkpt lat="40.729071982204914093017578125" lon="-1.32778591476380825042724609375">
        <ele>923.79998779296875</ele>
        <time>2019-07-07T11:28:49.000Z</time>
      </trkpt>
      <trkpt lat="40.7293490879237651824951171875" lon="-1.32781751453876495361328125">
        <ele>927</ele>
        <time>2019-07-07T11:28:50.000Z</time>
      </trkpt>
      <trkpt lat="40.7296241819858551025390625" lon="-1.32785364054143428802490234375">
        <ele>929.20001220703125</ele>
        <time>2019-07-07T11:28:51.000Z</time>
      </trkpt>
      <trkpt lat="40.72990237735211849212646484375" lon="-1.32788850925862789154052734375">
        <ele>931.20001220703125</ele>
        <time>2019-07-07T11:28:52.000Z</time>
      </trkpt>
      <trkpt lat="40.73046438395977020263671875" lon="-1.327971406280994415283203125">
        <ele>933.20001220703125</ele>
        <time>2019-07-07T11:28:54.000Z</time>
      </trkpt>
      <trkpt lat="40.7310323417186737060546875" lon="-1.3280657865107059478759765625">
        <ele>935.5999755859375</ele>
        <time>2019-07-07T11:28:56.000Z</time>
      </trkpt>
      <trkpt lat="40.73131640441715717315673828125" lon="-1.32811498828232288360595703125">
        <ele>937.20001220703125</ele>
        <time>2019-07-07T11:28:57.000Z</time>
      </trkpt>
      <trkpt lat="40.73160105384886264801025390625" lon="-1.32816360332071781158447265625">
        <ele>938.79998779296875</ele>
        <time>2019-07-07T11:28:58.000Z</time>
      </trkpt>
      <trkpt lat="40.7321747951209545135498046875" lon="-1.32826636545360088348388671875">
        <ele>938.79998779296875</ele>
        <time>2019-07-07T11:29:00.000Z</time>
      </trkpt>
      <trkpt lat="40.73275423608720302581787109375" lon="-1.3283849693834781646728515625">
        <ele>936</ele>
        <time>2019-07-07T11:29:02.000Z</time>
      </trkpt>
      <trkpt lat="40.73304559104144573211669921875" lon="-1.3284513540565967559814453125">
        <ele>934.79998779296875</ele>
        <time>2019-07-07T11:29:03.000Z</time>
      </trkpt>
      <trkpt lat="40.73333962820470333099365234375" lon="-1.32851882837712764739990234375">
        <ele>932</ele>
        <time>2019-07-07T11:29:04.000Z</time>
      </trkpt>
      <trkpt lat="40.7336345873773097991943359375" lon="-1.32858999073505401611328125">
        <ele>929.5999755859375</ele>
        <time>2019-07-07T11:29:05.000Z</time>
      </trkpt>
      <trkpt lat="40.73393072001636028289794921875" lon="-1.3286645896732807159423828125">
        <ele>928.4000244140625</ele>
        <time>2019-07-07T11:29:06.000Z</time>
      </trkpt>
      <trkpt lat="40.73422878049314022064208984375" lon="-1.3287430442869663238525390625">
        <ele>930.4000244140625</ele>
        <time>2019-07-07T11:29:07.000Z</time>
      </trkpt>
      <trkpt lat="40.73452851735055446624755859375" lon="-1.328824348747730255126953125">
        <ele>934.4000244140625</ele>
        <time>2019-07-07T11:29:08.000Z</time>
      </trkpt>
      <trkpt lat="40.7348301820456981658935546875" lon="-1.32890892215073108673095703125">
        <ele>937</ele>
        <time>2019-07-07T11:29:09.000Z</time>
      </trkpt>
      <trkpt lat="40.73543845675885677337646484375" lon="-1.32908485829830169677734375">
        <ele>937.79998779296875</ele>
        <time>2019-07-07T11:29:11.000Z</time>
      </trkpt>
      <trkpt lat="40.73574163019657135009765625" lon="-1.329177729785442352294921875">
        <ele>938.5999755859375</ele>
        <time>2019-07-07T11:29:12.000Z</time>
      </trkpt>
      <trkpt lat="40.73603667318820953369140625" lon="-1.32927269674837589263916015625">
        <ele>937.4000244140625</ele>
        <time>2019-07-07T11:29:13.000Z</time>
      </trkpt>
      <trkpt lat="40.73632299900054931640625" lon="-1.32936741225421428680419921875">
        <ele>934.4000244140625</ele>
        <time>2019-07-07T11:29:14.000Z</time>
      </trkpt>
      <trkpt lat="40.73660530149936676025390625" lon="-1.32946304976940155029296875">
        <ele>932.20001220703125</ele>
        <time>2019-07-07T11:29:15.000Z</time>
      </trkpt>
      <trkpt lat="40.7368849217891693115234375" lon="-1.329557597637176513671875">
        <ele>931</ele>
        <time>2019-07-07T11:29:16.000Z</time>
      </trkpt>
      <trkpt lat="40.73716194368898868560791015625" lon="-1.3296528160572052001953125">
        <ele>929</ele>
        <time>2019-07-07T11:29:17.000Z</time>
      </trkpt>
      <trkpt lat="40.7374362833797931671142578125" lon="-1.32975096814334392547607421875">
        <ele>926.4000244140625</ele>
        <time>2019-07-07T11:29:18.000Z</time>
      </trkpt>
      <trkpt lat="40.737708024680614471435546875" lon="-1.32985054515302181243896484375">
        <ele>923.5999755859375</ele>
        <time>2019-07-07T11:29:19.000Z</time>
      </trkpt>
      <trkpt lat="40.7382442988455295562744140625" lon="-1.33005623705685138702392578125">
        <ele>925.20001220703125</ele>
        <time>2019-07-07T11:29:21.000Z</time>
      </trkpt>
      <trkpt lat="40.738508664071559906005859375" lon="-1.3301615975797176361083984375">
        <ele>927.20001220703125</ele>
        <time>2019-07-07T11:29:22.000Z</time>
      </trkpt>
      <trkpt lat="40.7390315271914005279541015625" lon="-1.33036804385483264923095703125">
        <ele>929.79998779296875</ele>
        <time>2019-07-07T11:29:24.000Z</time>
      </trkpt>
      <trkpt lat="40.73928994126617908477783203125" lon="-1.33046980015933513641357421875">
        <ele>930.79998779296875</ele>
        <time>2019-07-07T11:29:25.000Z</time>
      </trkpt>
      <trkpt lat="40.73980475775897502899169921875" lon="-1.33066191338002681732177734375">
        <ele>931.5999755859375</ele>
        <time>2019-07-07T11:29:27.000Z</time>
      </trkpt>
      <trkpt lat="40.740060321986675262451171875" lon="-1.3307533599436283111572265625">
        <ele>932</ele>
        <time>2019-07-07T11:29:28.000Z</time>
      </trkpt>
      <trkpt lat="40.740569941699504852294921875" lon="-1.3309320621192455291748046875">
        <ele>932</ele>
        <time>2019-07-07T11:29:30.000Z</time>
      </trkpt>
      <trkpt lat="40.74109288863837718963623046875" lon="-1.33110514841973781585693359375">
        <ele>930.4000244140625</ele>
        <time>2019-07-07T11:29:32.000Z</time>
      </trkpt>
      <trkpt lat="40.7413647137582302093505859375" lon="-1.33119215257465839385986328125">
        <ele>932</ele>
        <time>2019-07-07T11:29:33.000Z</time>
      </trkpt>
      <trkpt lat="40.74191213585436344146728515625" lon="-1.3313592039048671722412109375">
        <ele>931</ele>
        <time>2019-07-07T11:29:35.000Z</time>
      </trkpt>
      <trkpt lat="40.742180608212947845458984375" lon="-1.3314356468617916107177734375">
        <ele>928.79998779296875</ele>
        <time>2019-07-07T11:29:36.000Z</time>
      </trkpt>
      <trkpt lat="40.74270707555115222930908203125" lon="-1.33158124051988124847412109375">
        <ele>928.5999755859375</ele>
        <time>2019-07-07T11:29:38.000Z</time>
      </trkpt>
      <trkpt lat="40.74322373606264591217041015625" lon="-1.33170537650585174560546875">
        <ele>928</ele>
        <time>2019-07-07T11:29:40.000Z</time>
      </trkpt>
      <trkpt lat="40.74348005466163158416748046875" lon="-1.331759355962276458740234375">
        <ele>927.4000244140625</ele>
        <time>2019-07-07T11:29:41.000Z</time>
      </trkpt>
      <trkpt lat="40.74397810734808444976806640625" lon="-1.33186035789549350738525390625">
        <ele>927.79998779296875</ele>
        <time>2019-07-07T11:29:43.000Z</time>
      </trkpt>
      <trkpt lat="40.744448415935039520263671875" lon="-1.33195750415325164794921875">
        <ele>926</ele>
        <time>2019-07-07T11:29:45.000Z</time>
      </trkpt>
      <trkpt lat="40.745093487203121185302734375" lon="-1.33207225240767002105712890625">
        <ele>926.79998779296875</ele>
        <time>2019-07-07T11:29:48.000Z</time>
      </trkpt>
      <trkpt lat="40.7455010153353214263916015625" lon="-1.3320750184357166290283203125">
        <ele>925</ele>
        <time>2019-07-07T11:29:50.000Z</time>
      </trkpt>
      <trkpt lat="40.7460951246321201324462890625" lon="-1.33197619579732418060302734375">
        <ele>924.79998779296875</ele>
        <time>2019-07-07T11:29:53.000Z</time>
      </trkpt>
      <trkpt lat="40.74647977016866207122802734375" lon="-1.33183973841369152069091796875">
        <ele>926.79998779296875</ele>
        <time>2019-07-07T11:29:55.000Z</time>
      </trkpt>
      <trkpt lat="40.746669284999370574951171875" lon="-1.331752650439739227294921875">
        <ele>929.4000244140625</ele>
        <time>2019-07-07T11:29:56.000Z</time>
      </trkpt>
      <trkpt lat="40.7468528486788272857666015625" lon="-1.33165416307747364044189453125">
        <ele>930.5999755859375</ele>
        <time>2019-07-07T11:29:57.000Z</time>
      </trkpt>
      <trkpt lat="40.74736054055392742156982421875" lon="-1.33129625581204891204833984375">
        <ele>931.4000244140625</ele>
        <time>2019-07-07T11:30:00.000Z</time>
      </trkpt>
      <trkpt lat="40.74777276255190372467041015625" lon="-1.33089601993560791015625">
        <ele>931.20001220703125</ele>
        <time>2019-07-07T11:30:03.000Z</time>
      </trkpt>
      <trkpt lat="40.7478905282914638519287109375" lon="-1.33075830526649951934814453125">
        <ele>931.79998779296875</ele>
        <time>2019-07-07T11:30:04.000Z</time>
      </trkpt>
      <trkpt lat="40.74810384772717952728271484375" lon="-1.33048589341342449188232421875">
        <ele>933</ele>
        <time>2019-07-07T11:30:06.000Z</time>
      </trkpt>
      <trkpt lat="40.7485446520149707794189453125" lon="-1.32997862063348293304443359375">
        <ele>933.20001220703125</ele>
        <time>2019-07-07T11:30:10.000Z</time>
      </trkpt>
      <trkpt lat="40.7488127052783966064453125" lon="-1.3298137485980987548828125">
        <ele>932.5999755859375</ele>
        <time>2019-07-07T11:30:12.000Z</time>
      </trkpt>
      <trkpt lat="40.74910732917487621307373046875" lon="-1.32975541055202484130859375">
        <ele>931.79998779296875</ele>
        <time>2019-07-07T11:30:14.000Z</time>
      </trkpt>
      <trkpt lat="40.74940589256584644317626953125" lon="-1.3298028521239757537841796875">
        <ele>931.4000244140625</ele>
        <time>2019-07-07T11:30:16.000Z</time>
      </trkpt>
      <trkpt lat="40.749677382409572601318359375" lon="-1.32995515130460262298583984375">
        <ele>930.20001220703125</ele>
        <time>2019-07-07T11:30:18.000Z</time>
      </trkpt>
      <trkpt lat="40.74990495108067989349365234375" lon="-1.330246590077877044677734375">
        <ele>929.5999755859375</ele>
        <time>2019-07-07T11:30:20.000Z</time>
      </trkpt>
      <trkpt lat="40.750061608850955963134765625" lon="-1.33063341490924358367919921875">
        <ele>929</ele>
        <time>2019-07-07T11:30:22.000Z</time>
      </trkpt>
      <trkpt lat="40.7501429133117198944091796875" lon="-1.33108402602374553680419921875">
        <ele>928.5999755859375</ele>
        <time>2019-07-07T11:30:24.000Z</time>
      </trkpt>
      <trkpt lat="40.75015724636614322662353515625" lon="-1.33184459991753101348876953125">
        <ele>928.20001220703125</ele>
        <time>2019-07-07T11:30:27.000Z</time>
      </trkpt>
      <trkpt lat="40.75019429437816143035888671875" lon="-1.332100331783294677734375">
        <ele>927</ele>
        <time>2019-07-07T11:30:28.000Z</time>
      </trkpt>
      <trkpt lat="40.7502585835754871368408203125" lon="-1.3323482684791088104248046875">
        <ele>924.79998779296875</ele>
        <time>2019-07-07T11:30:29.000Z</time>
      </trkpt>
      <trkpt lat="40.75035966932773590087890625" lon="-1.3325775973498821258544921875">
        <ele>922.4000244140625</ele>
        <time>2019-07-07T11:30:30.000Z</time>
      </trkpt>
      <trkpt lat="40.75047190301120281219482421875" lon="-1.33279896341264247894287109375">
        <ele>920.20001220703125</ele>
        <time>2019-07-07T11:30:31.000Z</time>
      </trkpt>
      <trkpt lat="40.750590004026889801025390625" lon="-1.333014965057373046875">
        <ele>918.5999755859375</ele>
        <time>2019-07-07T11:30:32.000Z</time>
      </trkpt>
      <trkpt lat="40.7507170736789703369140625" lon="-1.33322576992213726043701171875">
        <ele>916.79998779296875</ele>
        <time>2019-07-07T11:30:33.000Z</time>
      </trkpt>
      <trkpt lat="40.750836431980133056640625" lon="-1.3334333896636962890625">
        <ele>915.5999755859375</ele>
        <time>2019-07-07T11:30:34.000Z</time>
      </trkpt>
      <trkpt lat="40.751061402261257171630859375" lon="-1.33384183980524539947509765625">
        <ele>914.5999755859375</ele>
        <time>2019-07-07T11:30:36.000Z</time>
      </trkpt>
      <trkpt lat="40.75128796510398387908935546875" lon="-1.33425473235547542572021484375">
        <ele>913</ele>
        <time>2019-07-07T11:30:38.000Z</time>
      </trkpt>
      <trkpt lat="40.75140246190130710601806640625" lon="-1.334466375410556793212890625">
        <ele>911.79998779296875</ele>
        <time>2019-07-07T11:30:39.000Z</time>
      </trkpt>
      <trkpt lat="40.75176020152866840362548828125" lon="-1.33511270396411418914794921875">
        <ele>913</ele>
        <time>2019-07-07T11:30:42.000Z</time>
      </trkpt>
      <trkpt lat="40.75216337107121944427490234375" lon="-1.33582952432334423065185546875">
        <ele>912.5999755859375</ele>
        <time>2019-07-07T11:30:45.000Z</time>
      </trkpt>
      <trkpt lat="40.75240912847220897674560546875" lon="-1.33624593727290630340576171875">
        <ele>910.4000244140625</ele>
        <time>2019-07-07T11:30:47.000Z</time>
      </trkpt>
      <trkpt lat="40.75251021422445774078369140625" lon="-1.3364161737263202667236328125">
        <ele>909.20001220703125</ele>
        <time>2019-07-07T11:30:48.000Z</time>
      </trkpt>
      <trkpt lat="40.75267164967954158782958984375" lon="-1.33670375682413578033447265625">
        <ele>908</ele>
        <time>2019-07-07T11:30:50.000Z</time>
      </trkpt>
      <trkpt lat="40.75281414203345775604248046875" lon="-1.33694062940776348114013671875">
        <ele>909.4000244140625</ele>
        <time>2019-07-07T11:30:52.000Z</time>
      </trkpt>
      <trkpt lat="40.75287566520273685455322265625" lon="-1.3370498456060886383056640625">
        <ele>911</ele>
        <time>2019-07-07T11:30:53.000Z</time>
      </trkpt>
      <trkpt lat="40.75293014757335186004638671875" lon="-1.33715336211025714874267578125">
        <ele>912.20001220703125</ele>
        <time>2019-07-07T11:30:54.000Z</time>
      </trkpt>
      <trkpt lat="40.75302176177501678466796875" lon="-1.337341368198394775390625">
        <ele>913.4000244140625</ele>
        <time>2019-07-07T11:30:56.000Z</time>
      </trkpt>
      <trkpt lat="40.75328889302909374237060546875" lon="-1.337844617664813995361328125">
        <ele>912.20001220703125</ele>
        <time>2019-07-07T11:31:02.000Z</time>
      </trkpt>
      <trkpt lat="40.75337790884077548980712890625" lon="-1.3379896245896816253662109375">
        <ele>912</ele>
        <time>2019-07-07T11:31:04.000Z</time>
      </trkpt>
      <trkpt lat="40.75348787941038608551025390625" lon="-1.33810336701571941375732421875">
        <ele>911.79998779296875</ele>
        <time>2019-07-07T11:31:06.000Z</time>
      </trkpt>
      <trkpt lat="40.753633640706539154052734375" lon="-1.3381874375045299530029296875">
        <ele>911.79998779296875</ele>
        <time>2019-07-07T11:31:08.000Z</time>
      </trkpt>
      <trkpt lat="40.75381862930953502655029296875" lon="-1.33823764510452747344970703125">
        <ele>911.5999755859375</ele>
        <time>2019-07-07T11:31:10.000Z</time>
      </trkpt>
      <trkpt lat="40.75402415357530117034912109375" lon="-1.33821568451821804046630859375">
        <ele>911.5999755859375</ele>
        <time>2019-07-07T11:31:12.000Z</time>
      </trkpt>
      <trkpt lat="40.75432472862303256988525390625" lon="-1.33806623518466949462890625">
        <ele>911</ele>
        <time>2019-07-07T11:31:15.000Z</time>
      </trkpt>
      <trkpt lat="40.75459496118128299713134765625" lon="-1.33789365179836750030517578125">
        <ele>910.79998779296875</ele>
        <time>2019-07-07T11:31:18.000Z</time>
      </trkpt>
      <trkpt lat="40.7547992281615734100341796875" lon="-1.33772425353527069091796875">
        <ele>910.4000244140625</ele>
        <time>2019-07-07T11:31:21.000Z</time>
      </trkpt>
      <trkpt lat="40.75492478907108306884765625" lon="-1.337678991258144378662109375">
        <ele>910.79998779296875</ele>
        <time>2019-07-07T11:31:23.000Z</time>
      </trkpt>
      <trkpt lat="40.75503769330680370330810546875" lon="-1.3376932404935359954833984375">
        <ele>911</ele>
        <time>2019-07-07T11:31:25.000Z</time>
      </trkpt>
      <trkpt lat="40.75523701496422290802001953125" lon="-1.337822489440441131591796875">
        <ele>912</ele>
        <time>2019-07-07T11:31:33.000Z</time>
      </trkpt>
      <trkpt lat="40.75530968606472015380859375" lon="-1.33798015303909778594970703125">
        <ele>908.79998779296875</ele>
        <time>2019-07-07T11:38:44.000Z</time>
      </trkpt>
      <trkpt lat="40.7555289566516876220703125" lon="-1.3379118405282497406005859375">
        <ele>909</ele>
        <time>2019-07-07T11:41:15.000Z</time>
      </trkpt>
      <trkpt lat="40.75552350841462612152099609375" lon="-1.33793757297098636627197265625">
        <ele>909</ele>
        <time>2019-07-07T11:46:27.000Z</time>
      </trkpt>
      <trkpt lat="40.75549718923866748809814453125" lon="-1.33788493461906909942626953125">
        <ele>909.79998779296875</ele>
        <time>2019-07-07T11:47:27.000Z</time>
      </trkpt>
      <trkpt lat="40.755533315241336822509765625" lon="-1.3379034586250782012939453125">
        <ele>909.4000244140625</ele>
        <time>2019-07-07T11:48:13.000Z</time>
      </trkpt>
      <trkpt lat="40.75558117590844631195068359375" lon="-1.337992809712886810302734375">
        <ele>908.5999755859375</ele>
        <time>2019-07-07T11:48:54.000Z</time>
      </trkpt>
      <trkpt lat="40.75561453588306903839111328125" lon="-1.3380643911659717559814453125">
        <ele>907.79998779296875</ele>
        <time>2019-07-07T11:48:55.000Z</time>
      </trkpt>
      <trkpt lat="40.75565074570477008819580078125" lon="-1.3381565921008586883544921875">
        <ele>906.4000244140625</ele>
        <time>2019-07-07T11:48:56.000Z</time>
      </trkpt>
      <trkpt lat="40.75568527914583683013916015625" lon="-1.33827050216495990753173828125">
        <ele>904.4000244140625</ele>
        <time>2019-07-07T11:48:57.000Z</time>
      </trkpt>
      <trkpt lat="40.75570640154182910919189453125" lon="-1.33839841000735759735107421875">
        <ele>902.4000244140625</ele>
        <time>2019-07-07T11:48:58.000Z</time>
      </trkpt>
      <trkpt lat="40.755707658827304840087890625" lon="-1.3385274074971675872802734375">
        <ele>899.4000244140625</ele>
        <time>2019-07-07T11:48:59.000Z</time>
      </trkpt>
      <trkpt lat="40.7556845247745513916015625" lon="-1.33865229785442352294921875">
        <ele>901</ele>
        <time>2019-07-07T11:49:00.000Z</time>
      </trkpt>
      <trkpt lat="40.75561411678791046142578125" lon="-1.33877945132553577423095703125">
        <ele>900.79998779296875</ele>
        <time>2019-07-07T11:49:01.000Z</time>
      </trkpt>
      <trkpt lat="40.7554382644593715667724609375" lon="-1.33899419568479061126708984375">
        <ele>899.20001220703125</ele>
        <time>2019-07-07T11:49:03.000Z</time>
      </trkpt>
      <trkpt lat="40.75524841435253620147705078125" lon="-1.33910902775824069976806640625">
        <ele>898.5999755859375</ele>
        <time>2019-07-07T11:49:05.000Z</time>
      </trkpt>
      <trkpt lat="40.7550761662423610687255859375" lon="-1.3391084410250186920166015625">
        <ele>900.5999755859375</ele>
        <time>2019-07-07T11:49:07.000Z</time>
      </trkpt>
      <trkpt lat="40.754996202886104583740234375" lon="-1.339066363871097564697265625">
        <ele>902.20001220703125</ele>
        <time>2019-07-07T11:49:08.000Z</time>
      </trkpt>
      <trkpt lat="40.754918418824672698974609375" lon="-1.338997296988964080810546875">
        <ele>903.20001220703125</ele>
        <time>2019-07-07T11:49:09.000Z</time>
      </trkpt>
      <trkpt lat="40.75477114878594875335693359375" lon="-1.3388264738023281097412109375">
        <ele>904.5999755859375</ele>
        <time>2019-07-07T11:49:11.000Z</time>
      </trkpt>
      <trkpt lat="40.75464039109647274017333984375" lon="-1.338652633130550384521484375">
        <ele>905.79998779296875</ele>
        <time>2019-07-07T11:49:13.000Z</time>
      </trkpt>
      <trkpt lat="40.7545258104801177978515625" lon="-1.33847485296428203582763671875">
        <ele>907.20001220703125</ele>
        <time>2019-07-07T11:49:15.000Z</time>
      </trkpt>
      <trkpt lat="40.7543727569282054901123046875" lon="-1.338232196867465972900390625">
        <ele>908.20001220703125</ele>
        <time>2019-07-07T11:49:18.000Z</time>
      </trkpt>
      <trkpt lat="40.75424074195325374603271484375" lon="-1.3381755352020263671875">
        <ele>909</ele>
        <time>2019-07-07T11:49:20.000Z</time>
      </trkpt>
      <trkpt lat="40.7541736029088497161865234375" lon="-1.33818282745778560638427734375">
        <ele>909.20001220703125</ele>
        <time>2019-07-07T11:49:21.000Z</time>
      </trkpt>
      <trkpt lat="40.7541159354150295257568359375" lon="-1.33820394985377788543701171875">
        <ele>909.5999755859375</ele>
        <time>2019-07-07T11:49:22.000Z</time>
      </trkpt>
      <trkpt lat="40.75403354130685329437255859375" lon="-1.33824954740703105926513671875">
        <ele>910.4000244140625</ele>
        <time>2019-07-07T11:49:24.000Z</time>
      </trkpt>
      <trkpt lat="40.75394754298031330108642578125" lon="-1.33833001367747783660888671875">
        <ele>911.4000244140625</ele>
        <time>2019-07-07T11:49:28.000Z</time>
      </trkpt>
      <trkpt lat="40.753891803324222564697265625" lon="-1.3384157605469226837158203125">
        <ele>910.5999755859375</ele>
        <time>2019-07-07T11:49:31.000Z</time>
      </trkpt>
      <trkpt lat="40.75386607088148593902587890625" lon="-1.33848155848681926727294921875">
        <ele>910.4000244140625</ele>
        <time>2019-07-07T11:49:32.000Z</time>
      </trkpt>
      <trkpt lat="40.75384863652288913726806640625" lon="-1.33856914937496185302734375">
        <ele>910.20001220703125</ele>
        <time>2019-07-07T11:49:33.000Z</time>
      </trkpt>
      <trkpt lat="40.7538698427379131317138671875" lon="-1.338789425790309906005859375">
        <ele>910</ele>
        <time>2019-07-07T11:49:35.000Z</time>
      </trkpt>
      <trkpt lat="40.75396061874926090240478515625" lon="-1.339003331959247589111328125">
        <ele>908.79998779296875</ele>
        <time>2019-07-07T11:49:37.000Z</time>
      </trkpt>
      <trkpt lat="40.7540659792721271514892578125" lon="-1.339192092418670654296875">
        <ele>907.4000244140625</ele>
        <time>2019-07-07T11:49:39.000Z</time>
      </trkpt>
      <trkpt lat="40.754194222390651702880859375" lon="-1.3394175656139850616455078125">
        <ele>906.4000244140625</ele>
        <time>2019-07-07T11:49:41.000Z</time>
      </trkpt>
      <trkpt lat="40.75451734475791454315185546875" lon="-1.339972950518131256103515625">
        <ele>905.5999755859375</ele>
        <time>2019-07-07T11:49:45.000Z</time>
      </trkpt>
      <trkpt lat="40.75468883849680423736572265625" lon="-1.3402456976473331451416015625">
        <ele>905.20001220703125</ele>
        <time>2019-07-07T11:49:47.000Z</time>
      </trkpt>
      <trkpt lat="40.75503735803067684173583984375" lon="-1.34083201177418231964111328125">
        <ele>904.4000244140625</ele>
        <time>2019-07-07T11:49:51.000Z</time>
      </trkpt>
      <trkpt lat="40.755120255053043365478515625" lon="-1.340973079204559326171875">
        <ele>903.79998779296875</ele>
        <time>2019-07-07T11:49:52.000Z</time>
      </trkpt>
      <trkpt lat="40.75521203689277172088623046875" lon="-1.34110811166465282440185546875">
        <ele>903.4000244140625</ele>
        <time>2019-07-07T11:49:53.000Z</time>
      </trkpt>
      <trkpt lat="40.7554349116981029510498046875" lon="-1.34133408777415752410888671875">
        <ele>903.20001220703125</ele>
        <time>2019-07-07T11:49:55.000Z</time>
      </trkpt>
      <trkpt lat="40.75573355890810489654541015625" lon="-1.34146702475845813751220703125">
        <ele>903.20001220703125</ele>
        <time>2019-07-07T11:49:57.000Z</time>
      </trkpt>
      <trkpt lat="40.756291709840297698974609375" lon="-1.34158185683190822601318359375">
        <ele>905.20001220703125</ele>
        <time>2019-07-07T11:50:00.000Z</time>
      </trkpt>
      <trkpt lat="40.75674466788768768310546875" lon="-1.34167204611003398895263671875">
        <ele>905.4000244140625</ele>
        <time>2019-07-07T11:50:02.000Z</time>
      </trkpt>
      <trkpt lat="40.75724012218415737152099609375" lon="-1.3417846150696277618408203125">
        <ele>903</ele>
        <time>2019-07-07T11:50:04.000Z</time>
      </trkpt>
      <trkpt lat="40.757688470184803009033203125" lon="-1.341905482113361358642578125">
        <ele>902</ele>
        <time>2019-07-07T11:50:06.000Z</time>
      </trkpt>
      <trkpt lat="40.757893659174442291259765625" lon="-1.34196172468364238739013671875">
        <ele>901.5999755859375</ele>
        <time>2019-07-07T11:50:07.000Z</time>
      </trkpt>
      <trkpt lat="40.75809541158378124237060546875" lon="-1.342012099921703338623046875">
        <ele>900.5999755859375</ele>
        <time>2019-07-07T11:50:08.000Z</time>
      </trkpt>
      <trkpt lat="40.7582981698215007781982421875" lon="-1.3420582003891468048095703125">
        <ele>898</ele>
        <time>2019-07-07T11:50:09.000Z</time>
      </trkpt>
      <trkpt lat="40.758715756237506866455078125" lon="-1.342142187058925628662109375">
        <ele>899.5999755859375</ele>
        <time>2019-07-07T11:50:11.000Z</time>
      </trkpt>
      <trkpt lat="40.75915236957371234893798828125" lon="-1.34222944267094135284423828125">
        <ele>896.5999755859375</ele>
        <time>2019-07-07T11:50:13.000Z</time>
      </trkpt>
      <trkpt lat="40.75937868095934391021728515625" lon="-1.34227688424289226531982421875">
        <ele>894.4000244140625</ele>
        <time>2019-07-07T11:50:14.000Z</time>
      </trkpt>
      <trkpt lat="40.75984437949955463409423828125" lon="-1.342373527586460113525390625">
        <ele>895</ele>
        <time>2019-07-07T11:50:16.000Z</time>
      </trkpt>
      <trkpt lat="40.76033220626413822174072265625" lon="-1.34246950037777423858642578125">
        <ele>891.79998779296875</ele>
        <time>2019-07-07T11:50:18.000Z</time>
      </trkpt>
      <trkpt lat="40.7605822384357452392578125" lon="-1.3425188697874546051025390625">
        <ele>890.5999755859375</ele>
        <time>2019-07-07T11:50:19.000Z</time>
      </trkpt>
      <trkpt lat="40.76108691282570362091064453125" lon="-1.34262263774871826171875">
        <ele>888.79998779296875</ele>
        <time>2019-07-07T11:50:21.000Z</time>
      </trkpt>
      <trkpt lat="40.761587060987949371337890625" lon="-1.34272615425288677215576171875">
        <ele>888.20001220703125</ele>
        <time>2019-07-07T11:50:23.000Z</time>
      </trkpt>
      <trkpt lat="40.7620760612189769744873046875" lon="-1.34282313287258148193359375">
        <ele>889.4000244140625</ele>
        <time>2019-07-07T11:50:25.000Z</time>
      </trkpt>
      <trkpt lat="40.7623198069632053375244140625" lon="-1.34287275373935699462890625">
        <ele>890.5999755859375</ele>
        <time>2019-07-07T11:50:26.000Z</time>
      </trkpt>
      <trkpt lat="40.76256430707871913909912109375" lon="-1.342924721539020538330078125">
        <ele>891.5999755859375</ele>
        <time>2019-07-07T11:50:27.000Z</time>
      </trkpt>
      <trkpt lat="40.76305984519422054290771484375" lon="-1.34302773512899875640869140625">
        <ele>892.79998779296875</ele>
        <time>2019-07-07T11:50:29.000Z</time>
      </trkpt>
      <trkpt lat="40.7633115537464618682861328125" lon="-1.343078278005123138427734375">
        <ele>892.5999755859375</ele>
        <time>2019-07-07T11:50:30.000Z</time>
      </trkpt>
      <trkpt lat="40.76356426812708377838134765625" lon="-1.343129575252532958984375">
        <ele>891.79998779296875</ele>
        <time>2019-07-07T11:50:31.000Z</time>
      </trkpt>
      <trkpt lat="40.76407246291637420654296875" lon="-1.3432320021092891693115234375">
        <ele>891.20001220703125</ele>
        <time>2019-07-07T11:50:33.000Z</time>
      </trkpt>
      <trkpt lat="40.7645785622298717498779296875" lon="-1.34333484806120395660400390625">
        <ele>892.20001220703125</ele>
        <time>2019-07-07T11:50:35.000Z</time>
      </trkpt>
      <trkpt lat="40.76508390717208385467529296875" lon="-1.34343291632831096649169921875">
        <ele>893.79998779296875</ele>
        <time>2019-07-07T11:50:37.000Z</time>
      </trkpt>
      <trkpt lat="40.7655874080955982208251953125" lon="-1.3435354270040988922119140625">
        <ele>893.4000244140625</ele>
        <time>2019-07-07T11:50:39.000Z</time>
      </trkpt>
      <trkpt lat="40.76583827845752239227294921875" lon="-1.3435863889753818511962890625">
        <ele>891</ele>
        <time>2019-07-07T11:50:40.000Z</time>
      </trkpt>
      <trkpt lat="40.7663360796868801116943359375" lon="-1.34368739090859889984130859375">
        <ele>890</ele>
        <time>2019-07-07T11:50:42.000Z</time>
      </trkpt>
      <trkpt lat="40.76658326201140880584716796875" lon="-1.34373784996569156646728515625">
        <ele>894</ele>
        <time>2019-07-07T11:50:43.000Z</time>
      </trkpt>
      <trkpt lat="40.76683036051690578460693359375" lon="-1.3437892310321331024169921875">
        <ele>895</ele>
        <time>2019-07-07T11:50:44.000Z</time>
      </trkpt>
      <trkpt lat="40.76732464134693145751953125" lon="-1.34388738311827182769775390625">
        <ele>897.20001220703125</ele>
        <time>2019-07-07T11:50:46.000Z</time>
      </trkpt>
      <trkpt lat="40.76757433824241161346435546875" lon="-1.34393432177603244781494140625">
        <ele>898.20001220703125</ele>
        <time>2019-07-07T11:50:47.000Z</time>
      </trkpt>
      <trkpt lat="40.767823867499828338623046875" lon="-1.34398184716701507568359375">
        <ele>897.20001220703125</ele>
        <time>2019-07-07T11:50:48.000Z</time>
      </trkpt>
      <trkpt lat="40.7683192379772663116455078125" lon="-1.3440805859863758087158203125">
        <ele>894.5999755859375</ele>
        <time>2019-07-07T11:50:50.000Z</time>
      </trkpt>
      <trkpt lat="40.76856642030179500579833984375" lon="-1.3441332243382930755615234375">
        <ele>893.5999755859375</ele>
        <time>2019-07-07T11:50:51.000Z</time>
      </trkpt>
      <trkpt lat="40.76906740665435791015625" lon="-1.34423799812793731689453125">
        <ele>892.20001220703125</ele>
        <time>2019-07-07T11:50:53.000Z</time>
      </trkpt>
      <trkpt lat="40.7695781998336315155029296875" lon="-1.3443421013653278350830078125">
        <ele>891.5999755859375</ele>
        <time>2019-07-07T11:50:55.000Z</time>
      </trkpt>
      <trkpt lat="40.7698383741080760955810546875" lon="-1.34439499117434024810791015625">
        <ele>891</ele>
        <time>2019-07-07T11:50:56.000Z</time>
      </trkpt>
      <trkpt lat="40.7703642547130584716796875" lon="-1.34450512938201427459716796875">
        <ele>890.5999755859375</ele>
        <time>2019-07-07T11:50:58.000Z</time>
      </trkpt>
      <trkpt lat="40.77089130878448486328125" lon="-1.34461375884711742401123046875">
        <ele>890.4000244140625</ele>
        <time>2019-07-07T11:51:00.000Z</time>
      </trkpt>
      <trkpt lat="40.77141894958913326263427734375" lon="-1.3447212986648082733154296875">
        <ele>890.5999755859375</ele>
        <time>2019-07-07T11:51:02.000Z</time>
      </trkpt>
      <trkpt lat="40.7719445787370204925537109375" lon="-1.34482783265411853790283203125">
        <ele>894.4000244140625</ele>
        <time>2019-07-07T11:51:04.000Z</time>
      </trkpt>
      <trkpt lat="40.772208273410797119140625" lon="-1.3448770344257354736328125">
        <ele>898.79998779296875</ele>
        <time>2019-07-07T11:51:05.000Z</time>
      </trkpt>
      <trkpt lat="40.77247138135135173797607421875" lon="-1.34492640383541584014892578125">
        <ele>902.4000244140625</ele>
        <time>2019-07-07T11:51:06.000Z</time>
      </trkpt>
      <trkpt lat="40.77273205853998661041259765625" lon="-1.34497803635895252227783203125">
        <ele>904.20001220703125</ele>
        <time>2019-07-07T11:51:07.000Z</time>
      </trkpt>
      <trkpt lat="40.77324687503278255462646484375" lon="-1.3450830616056919097900390625">
        <ele>900.79998779296875</ele>
        <time>2019-07-07T11:51:09.000Z</time>
      </trkpt>
      <trkpt lat="40.773497410118579864501953125" lon="-1.3451370410621166229248046875">
        <ele>895.79998779296875</ele>
        <time>2019-07-07T11:51:10.000Z</time>
      </trkpt>
      <trkpt lat="40.77374509535729885101318359375" lon="-1.34518926031887531280517578125">
        <ele>892</ele>
        <time>2019-07-07T11:51:11.000Z</time>
      </trkpt>
      <trkpt lat="40.77399219386279582977294921875" lon="-1.34523871354758739471435546875">
        <ele>890.20001220703125</ele>
        <time>2019-07-07T11:51:12.000Z</time>
      </trkpt>
      <trkpt lat="40.7742395438253879547119140625" lon="-1.34528716094791889190673828125">
        <ele>888.79998779296875</ele>
        <time>2019-07-07T11:51:13.000Z</time>
      </trkpt>
      <trkpt lat="40.7747394405305385589599609375" lon="-1.34538791142404079437255859375">
        <ele>890</ele>
        <time>2019-07-07T11:51:15.000Z</time>
      </trkpt>
      <trkpt lat="40.7752490602433681488037109375" lon="-1.3454887457191944122314453125">
        <ele>890.20001220703125</ele>
        <time>2019-07-07T11:51:17.000Z</time>
      </trkpt>
      <trkpt lat="40.77576982788741588592529296875" lon="-1.345590837299823760986328125">
        <ele>888.5999755859375</ele>
        <time>2019-07-07T11:51:19.000Z</time>
      </trkpt>
      <trkpt lat="40.7762947864830493927001953125" lon="-1.3456969521939754486083984375">
        <ele>887.4000244140625</ele>
        <time>2019-07-07T11:51:21.000Z</time>
      </trkpt>
      <trkpt lat="40.7765549607574939727783203125" lon="-1.34574883617460727691650390625">
        <ele>886</ele>
        <time>2019-07-07T11:51:22.000Z</time>
      </trkpt>
      <trkpt lat="40.77706919051706790924072265625" lon="-1.34585645981132984161376953125">
        <ele>884</ele>
        <time>2019-07-07T11:51:24.000Z</time>
      </trkpt>
      <trkpt lat="40.77732282690703868865966796875" lon="-1.34590960107743740081787109375">
        <ele>882.5999755859375</ele>
        <time>2019-07-07T11:51:25.000Z</time>
      </trkpt>
      <trkpt lat="40.777573026716709136962890625" lon="-1.34596039541065692901611328125">
        <ele>881.4000244140625</ele>
        <time>2019-07-07T11:51:26.000Z</time>
      </trkpt>
      <trkpt lat="40.77781886793673038482666015625" lon="-1.3460089266300201416015625">
        <ele>880.79998779296875</ele>
        <time>2019-07-07T11:51:27.000Z</time>
      </trkpt>
      <trkpt lat="40.77806110493838787078857421875" lon="-1.3460587151348590850830078125">
        <ele>880.4000244140625</ele>
        <time>2019-07-07T11:51:28.000Z</time>
      </trkpt>
      <trkpt lat="40.77853468246757984161376953125" lon="-1.34615452028810977935791015625">
        <ele>880</ele>
        <time>2019-07-07T11:51:30.000Z</time>
      </trkpt>
      <trkpt lat="40.778997279703617095947265625" lon="-1.34624588303267955780029296875">
        <ele>879.5999755859375</ele>
        <time>2019-07-07T11:51:32.000Z</time>
      </trkpt>
      <trkpt lat="40.7794470526278018951416015625" lon="-1.3463359884917736053466796875">
        <ele>880</ele>
        <time>2019-07-07T11:51:34.000Z</time>
      </trkpt>
      <trkpt lat="40.78007812611758708953857421875" lon="-1.34646615944802761077880859375">
        <ele>881</ele>
        <time>2019-07-07T11:51:37.000Z</time>
      </trkpt>
      <trkpt lat="40.780284069478511810302734375" lon="-1.34650848805904388427734375">
        <ele>881.79998779296875</ele>
        <time>2019-07-07T11:51:38.000Z</time>
      </trkpt>
      <trkpt lat="40.7806929387152194976806640625" lon="-1.34659239090979099273681640625">
        <ele>883.20001220703125</ele>
        <time>2019-07-07T11:51:40.000Z</time>
      </trkpt>
      <trkpt lat="40.78129517845809459686279296875" lon="-1.346716694533824920654296875">
        <ele>883.20001220703125</ele>
        <time>2019-07-07T11:51:43.000Z</time>
      </trkpt>
      <trkpt lat="40.78185819089412689208984375" lon="-1.3468308560550212860107421875">
        <ele>883</ele>
        <time>2019-07-07T11:51:46.000Z</time>
      </trkpt>
      <trkpt lat="40.7823924534022808074951171875" lon="-1.346941329538822174072265625">
        <ele>883.20001220703125</ele>
        <time>2019-07-07T11:51:49.000Z</time>
      </trkpt>
      <trkpt lat="40.78291255049407482147216796875" lon="-1.3470447622239589691162109375">
        <ele>883.79998779296875</ele>
        <time>2019-07-07T11:51:52.000Z</time>
      </trkpt>
      <trkpt lat="40.7834093458950519561767578125" lon="-1.3471435010433197021484375">
        <ele>884.4000244140625</ele>
        <time>2019-07-07T11:51:55.000Z</time>
      </trkpt>
      <trkpt lat="40.78372509218752384185791015625" lon="-1.347211562097072601318359375">
        <ele>885.5999755859375</ele>
        <time>2019-07-07T11:51:57.000Z</time>
      </trkpt>
      <trkpt lat="40.78428667970001697540283203125" lon="-1.3473455049097537994384765625">
        <ele>886</ele>
        <time>2019-07-07T11:52:01.000Z</time>
      </trkpt>
      <trkpt lat="40.7845724187791347503662109375" lon="-1.34738733060657978057861328125">
        <ele>886.5999755859375</ele>
        <time>2019-07-07T11:52:04.000Z</time>
      </trkpt>
      <trkpt lat="40.78466068021953105926513671875" lon="-1.3473820500075817108154296875">
        <ele>888.79998779296875</ele>
        <time>2019-07-07T11:52:06.000Z</time>
      </trkpt>
      <trkpt lat="40.78468264080584049224853515625" lon="-1.347382552921772003173828125">
        <ele>889.79998779296875</ele>
        <time>2019-07-07T11:52:07.000Z</time>
      </trkpt>
      <trkpt lat="40.784731842577457427978515625" lon="-1.34740761481225490570068359375">
        <ele>891</ele>
        <time>2019-07-07T11:52:09.000Z</time>
      </trkpt>
      <trkpt lat="40.78479881398379802703857421875" lon="-1.34751356206834316253662109375">
        <ele>891.20001220703125</ele>
        <time>2019-07-07T11:52:11.000Z</time>
      </trkpt>
      <trkpt lat="40.78484491445124149322509765625" lon="-1.34772880934178829193115234375">
        <ele>890.5999755859375</ele>
        <time>2019-07-07T11:52:13.000Z</time>
      </trkpt>
      <trkpt lat="40.7848919369280338287353515625" lon="-1.3479966111481189727783203125">
        <ele>889.20001220703125</ele>
        <time>2019-07-07T11:52:15.000Z</time>
      </trkpt>
      <trkpt lat="40.7849985547363758087158203125" lon="-1.34842232801020145416259765625">
        <ele>888.20001220703125</ele>
        <time>2019-07-07T11:52:18.000Z</time>
      </trkpt>
      <trkpt lat="40.785144902765750885009765625" lon="-1.34898341260850429534912109375">
        <ele>889.20001220703125</ele>
        <time>2019-07-07T11:52:22.000Z</time>
      </trkpt>
      <trkpt lat="40.7853210903704166412353515625" lon="-1.34967659600079059600830078125">
        <ele>888.79998779296875</ele>
        <time>2019-07-07T11:52:27.000Z</time>
      </trkpt>
      <trkpt lat="40.7854977808892726898193359375" lon="-1.3503033109009265899658203125">
        <ele>888.79998779296875</ele>
        <time>2019-07-07T11:52:31.000Z</time>
      </trkpt>
      <trkpt lat="40.78565225936472415924072265625" lon="-1.35090672411024570465087890625">
        <ele>888.79998779296875</ele>
        <time>2019-07-07T11:52:35.000Z</time>
      </trkpt>
      <trkpt lat="40.7858082465827465057373046875" lon="-1.351518519222736358642578125">
        <ele>889.79998779296875</ele>
        <time>2019-07-07T11:52:39.000Z</time>
      </trkpt>
      <trkpt lat="40.7858888804912567138671875" lon="-1.35183426551520824432373046875">
        <ele>890.79998779296875</ele>
        <time>2019-07-07T11:52:41.000Z</time>
      </trkpt>
      <trkpt lat="40.78595953993499279022216796875" lon="-1.35215210728347301483154296875">
        <ele>892</ele>
        <time>2019-07-07T11:52:43.000Z</time>
      </trkpt>
      <trkpt lat="40.78611879609525203704833984375" lon="-1.3527667522430419921875">
        <ele>893</ele>
        <time>2019-07-07T11:52:47.000Z</time>
      </trkpt>
      <trkpt lat="40.7862886972725391387939453125" lon="-1.353419534862041473388671875">
        <ele>891.5999755859375</ele>
        <time>2019-07-07T11:52:52.000Z</time>
      </trkpt>
      <trkpt lat="40.7864378951489925384521484375" lon="-1.35398556478321552276611328125">
        <ele>892.20001220703125</ele>
        <time>2019-07-07T11:52:57.000Z</time>
      </trkpt>
      <trkpt lat="40.78660729341208934783935546875" lon="-1.354637257754802703857421875">
        <ele>893</ele>
        <time>2019-07-07T11:53:02.000Z</time>
      </trkpt>
      <trkpt lat="40.78664635308086872100830078125" lon="-1.35478402487933635711669921875">
        <ele>893.20001220703125</ele>
        <time>2019-07-07T11:53:03.000Z</time>
      </trkpt>
      <trkpt lat="40.78673101030290126800537109375" lon="-1.355076134204864501953125">
        <ele>894.5999755859375</ele>
        <time>2019-07-07T11:53:05.000Z</time>
      </trkpt>
      <trkpt lat="40.78680695034563541412353515625" lon="-1.35536514222621917724609375">
        <ele>895.79998779296875</ele>
        <time>2019-07-07T11:53:07.000Z</time>
      </trkpt>
      <trkpt lat="40.7868828065693378448486328125" lon="-1.355637721717357635498046875">
        <ele>897</ele>
        <time>2019-07-07T11:53:09.000Z</time>
      </trkpt>
      <trkpt lat="40.78696637414395809173583984375" lon="-1.3559144921600818634033203125">
        <ele>898.20001220703125</ele>
        <time>2019-07-07T11:53:11.000Z</time>
      </trkpt>
      <trkpt lat="40.78707642853260040283203125" lon="-1.35632109828293323516845703125">
        <ele>899.4000244140625</ele>
        <time>2019-07-07T11:53:14.000Z</time>
      </trkpt>
      <trkpt lat="40.7872221060097217559814453125" lon="-1.35682501830160617828369140625">
        <ele>900.79998779296875</ele>
        <time>2019-07-07T11:53:18.000Z</time>
      </trkpt>
      <trkpt lat="40.787365101277828216552734375" lon="-1.35751954279839992523193359375">
        <ele>901.5999755859375</ele>
        <time>2019-07-07T11:53:23.000Z</time>
      </trkpt>
      <trkpt lat="40.7873575575649738311767578125" lon="-1.35784082114696502685546875">
        <ele>901.5999755859375</ele>
        <time>2019-07-07T11:53:25.000Z</time>
      </trkpt>
      <trkpt lat="40.78731975518167018890380859375" lon="-1.35815237648785114288330078125">
        <ele>901.79998779296875</ele>
        <time>2019-07-07T11:53:27.000Z</time>
      </trkpt>
      <trkpt lat="40.787230320274829864501953125" lon="-1.35880650021135807037353515625">
        <ele>902.79998779296875</ele>
        <time>2019-07-07T11:53:31.000Z</time>
      </trkpt>
      <trkpt lat="40.78718396835029125213623046875" lon="-1.35915183462202548980712890625">
        <ele>903</ele>
        <time>2019-07-07T11:53:33.000Z</time>
      </trkpt>
      <trkpt lat="40.78710534609854221343994140625" lon="-1.359687186777591705322265625">
        <ele>903.79998779296875</ele>
        <time>2019-07-07T11:53:36.000Z</time>
      </trkpt>
      <trkpt lat="40.787076763808727264404296875" lon="-1.3598717562854290008544921875">
        <ele>904.20001220703125</ele>
        <time>2019-07-07T11:53:37.000Z</time>
      </trkpt>
      <trkpt lat="40.786960087716579437255859375" lon="-1.3606335036456584930419921875">
        <ele>905.79998779296875</ele>
        <time>2019-07-07T11:53:41.000Z</time>
      </trkpt>
      <trkpt lat="40.7868965528905391693115234375" lon="-1.36104446835815906524658203125">
        <ele>907.5999755859375</ele>
        <time>2019-07-07T11:53:43.000Z</time>
      </trkpt>
      <trkpt lat="40.7867959700524806976318359375" lon="-1.36174117214977741241455078125">
        <ele>907.79998779296875</ele>
        <time>2019-07-07T11:53:46.000Z</time>
      </trkpt>
      <trkpt lat="40.7866826467216014862060546875" lon="-1.36251884512603282928466796875">
        <ele>906.79998779296875</ele>
        <time>2019-07-07T11:53:49.000Z</time>
      </trkpt>
      <trkpt lat="40.786642916500568389892578125" lon="-1.362788490951061248779296875">
        <ele>906.20001220703125</ele>
        <time>2019-07-07T11:53:50.000Z</time>
      </trkpt>
      <trkpt lat="40.786565802991390228271484375" lon="-1.36333054862916469573974609375">
        <ele>905.20001220703125</ele>
        <time>2019-07-07T11:53:52.000Z</time>
      </trkpt>
      <trkpt lat="40.78645289875566959381103515625" lon="-1.36414677836000919342041015625">
        <ele>905.79998779296875</ele>
        <time>2019-07-07T11:53:55.000Z</time>
      </trkpt>
      <trkpt lat="40.7864137552678585052490234375" lon="-1.3644271530210971832275390625">
        <ele>907</ele>
        <time>2019-07-07T11:53:56.000Z</time>
      </trkpt>
      <trkpt lat="40.78637368977069854736328125" lon="-1.36471222154796123504638671875">
        <ele>908.20001220703125</ele>
        <time>2019-07-07T11:53:57.000Z</time>
      </trkpt>
      <trkpt lat="40.786253325641155242919921875" lon="-1.36558310128748416900634765625">
        <ele>909</ele>
        <time>2019-07-07T11:54:00.000Z</time>
      </trkpt>
      <trkpt lat="40.78613170422613620758056640625" lon="-1.3664567470550537109375">
        <ele>907.20001220703125</ele>
        <time>2019-07-07T11:54:03.000Z</time>
      </trkpt>
      <trkpt lat="40.78605039976537227630615234375" lon="-1.3670456595718860626220703125">
        <ele>906</ele>
        <time>2019-07-07T11:54:05.000Z</time>
      </trkpt>
      <trkpt lat="40.7860095798969268798828125" lon="-1.36734522879123687744140625">
        <ele>905</ele>
        <time>2019-07-07T11:54:06.000Z</time>
      </trkpt>
      <trkpt lat="40.7859272696077823638916015625" lon="-1.3679545931518077850341796875">
        <ele>905.20001220703125</ele>
        <time>2019-07-07T11:54:08.000Z</time>
      </trkpt>
      <trkpt lat="40.7858843542635440826416015625" lon="-1.3682650588452816009521484375">
        <ele>906.20001220703125</ele>
        <time>2019-07-07T11:54:09.000Z</time>
      </trkpt>
      <trkpt lat="40.78579701483249664306640625" lon="-1.36889277957379817962646484375">
        <ele>907.4000244140625</ele>
        <time>2019-07-07T11:54:11.000Z</time>
      </trkpt>
      <trkpt lat="40.78571110032498836517333984375" lon="-1.3695253618061542510986328125">
        <ele>908.20001220703125</ele>
        <time>2019-07-07T11:54:13.000Z</time>
      </trkpt>
      <trkpt lat="40.785625688731670379638671875" lon="-1.37015727348625659942626953125">
        <ele>908.5999755859375</ele>
        <time>2019-07-07T11:54:15.000Z</time>
      </trkpt>
      <trkpt lat="40.78553876839578151702880859375" lon="-1.37078725732862949371337890625">
        <ele>908.5999755859375</ele>
        <time>2019-07-07T11:54:17.000Z</time>
      </trkpt>
      <trkpt lat="40.7854525186121463775634765625" lon="-1.37141372077167034149169921875">
        <ele>910</ele>
        <time>2019-07-07T11:54:19.000Z</time>
      </trkpt>
      <trkpt lat="40.78536517918109893798828125" lon="-1.372039429843425750732421875">
        <ele>910.20001220703125</ele>
        <time>2019-07-07T11:54:21.000Z</time>
      </trkpt>
      <trkpt lat="40.78527708537876605987548828125" lon="-1.3726675696671009063720703125">
        <ele>909.5999755859375</ele>
        <time>2019-07-07T11:54:23.000Z</time>
      </trkpt>
      <trkpt lat="40.78523400239646434783935546875" lon="-1.37298130430281162261962890625">
        <ele>908.79998779296875</ele>
        <time>2019-07-07T11:54:24.000Z</time>
      </trkpt>
      <trkpt lat="40.78514850698411464691162109375" lon="-1.3736083544790744781494140625">
        <ele>907.79998779296875</ele>
        <time>2019-07-07T11:54:26.000Z</time>
      </trkpt>
      <trkpt lat="40.78506032936275005340576171875" lon="-1.37423775158822536468505859375">
        <ele>909</ele>
        <time>2019-07-07T11:54:28.000Z</time>
      </trkpt>
      <trkpt lat="40.7849734090268611907958984375" lon="-1.37487377040088176727294921875">
        <ele>910</ele>
        <time>2019-07-07T11:54:30.000Z</time>
      </trkpt>
      <trkpt lat="40.78488565050065517425537109375" lon="-1.37551926076412200927734375">
        <ele>910.4000244140625</ele>
        <time>2019-07-07T11:54:32.000Z</time>
      </trkpt>
      <trkpt lat="40.7847953774034976959228515625" lon="-1.37617900036275386810302734375">
        <ele>909.79998779296875</ele>
        <time>2019-07-07T11:54:34.000Z</time>
      </trkpt>
      <trkpt lat="40.78475086949765682220458984375" lon="-1.3765136897563934326171875">
        <ele>908.20001220703125</ele>
        <time>2019-07-07T11:54:35.000Z</time>
      </trkpt>
      <trkpt lat="40.78470594249665737152099609375" lon="-1.37685072608292102813720703125">
        <ele>906.5999755859375</ele>
        <time>2019-07-07T11:54:36.000Z</time>
      </trkpt>
      <trkpt lat="40.78461508266627788543701171875" lon="-1.37752345763146877288818359375">
        <ele>906.5999755859375</ele>
        <time>2019-07-07T11:54:38.000Z</time>
      </trkpt>
      <trkpt lat="40.784527324140071868896484375" lon="-1.3781833648681640625">
        <ele>907</ele>
        <time>2019-07-07T11:54:40.000Z</time>
      </trkpt>
      <trkpt lat="40.7844393141567707061767578125" lon="-1.378838159143924713134765625">
        <ele>909.20001220703125</ele>
        <time>2019-07-07T11:54:42.000Z</time>
      </trkpt>
      <trkpt lat="40.7843935489654541015625" lon="-1.37916379608213901519775390625">
        <ele>911</ele>
        <time>2019-07-07T11:54:43.000Z</time>
      </trkpt>
      <trkpt lat="40.784347616136074066162109375" lon="-1.379489265382289886474609375">
        <ele>912.79998779296875</ele>
        <time>2019-07-07T11:54:44.000Z</time>
      </trkpt>
      <trkpt lat="40.78425751067698001861572265625" lon="-1.38013877905905246734619140625">
        <ele>912.79998779296875</ele>
        <time>2019-07-07T11:54:46.000Z</time>
      </trkpt>
      <trkpt lat="40.78421317040920257568359375" lon="-1.3804634101688861846923828125">
        <ele>914.20001220703125</ele>
        <time>2019-07-07T11:54:47.000Z</time>
      </trkpt>
      <trkpt lat="40.78412172384560108184814453125" lon="-1.381112672388553619384765625">
        <ele>915.5999755859375</ele>
        <time>2019-07-07T11:54:49.000Z</time>
      </trkpt>
      <trkpt lat="40.78407528810203075408935546875" lon="-1.38143747113645076751708984375">
        <ele>917</ele>
        <time>2019-07-07T11:54:50.000Z</time>
      </trkpt>
      <trkpt lat="40.78402918763458728790283203125" lon="-1.3817627727985382080078125">
        <ele>920.4000244140625</ele>
        <time>2019-07-07T11:54:51.000Z</time>
      </trkpt>
      <trkpt lat="40.7839846797287464141845703125" lon="-1.3820881582796573638916015625">
        <ele>922.20001220703125</ele>
        <time>2019-07-07T11:54:52.000Z</time>
      </trkpt>
      <trkpt lat="40.78394101001322269439697265625" lon="-1.3824140466749668121337890625">
        <ele>923.20001220703125</ele>
        <time>2019-07-07T11:54:53.000Z</time>
      </trkpt>
      <trkpt lat="40.7838968373835086822509765625" lon="-1.3827399350702762603759765625">
        <ele>924.5999755859375</ele>
        <time>2019-07-07T11:54:54.000Z</time>
      </trkpt>
      <trkpt lat="40.7838089950382709503173828125" lon="-1.383395232260227203369140625">
        <ele>925.4000244140625</ele>
        <time>2019-07-07T11:54:56.000Z</time>
      </trkpt>
      <trkpt lat="40.7837640680372714996337890625" lon="-1.3837263174355030059814453125">
        <ele>925.5999755859375</ele>
        <time>2019-07-07T11:54:57.000Z</time>
      </trkpt>
      <trkpt lat="40.7837184704840183258056640625" lon="-1.38405882753431797027587890625">
        <ele>921.20001220703125</ele>
        <time>2019-07-07T11:54:58.000Z</time>
      </trkpt>
      <trkpt lat="40.783672370016574859619140625" lon="-1.38439192436635494232177734375">
        <ele>918.5999755859375</ele>
        <time>2019-07-07T11:54:59.000Z</time>
      </trkpt>
      <trkpt lat="40.783580504357814788818359375" lon="-1.385057531297206878662109375">
        <ele>915.5999755859375</ele>
        <time>2019-07-07T11:55:01.000Z</time>
      </trkpt>
      <trkpt lat="40.7834908179938793182373046875" lon="-1.3857228867709636688232421875">
        <ele>914.20001220703125</ele>
        <time>2019-07-07T11:55:03.000Z</time>
      </trkpt>
      <trkpt lat="40.78344605863094329833984375" lon="-1.38605522923171520233154296875">
        <ele>911.79998779296875</ele>
        <time>2019-07-07T11:55:04.000Z</time>
      </trkpt>
      <trkpt lat="40.78335427679121494293212890625" lon="-1.38672150671482086181640625">
        <ele>913.79998779296875</ele>
        <time>2019-07-07T11:55:06.000Z</time>
      </trkpt>
      <trkpt lat="40.78326190821826457977294921875" lon="-1.38739013113081455230712890625">
        <ele>914</ele>
        <time>2019-07-07T11:55:08.000Z</time>
      </trkpt>
      <trkpt lat="40.7832152210175991058349609375" lon="-1.38772238977253437042236328125">
        <ele>915</ele>
        <time>2019-07-07T11:55:09.000Z</time>
      </trkpt>
      <trkpt lat="40.78312427736818790435791015625" lon="-1.38838179409503936767578125">
        <ele>915.79998779296875</ele>
        <time>2019-07-07T11:55:11.000Z</time>
      </trkpt>
      <trkpt lat="40.78303408809006214141845703125" lon="-1.3890293799340724945068359375">
        <ele>915.5999755859375</ele>
        <time>2019-07-07T11:55:13.000Z</time>
      </trkpt>
      <trkpt lat="40.782946161925792694091796875" lon="-1.38966229744255542755126953125">
        <ele>915.20001220703125</ele>
        <time>2019-07-07T11:55:15.000Z</time>
      </trkpt>
      <trkpt lat="40.7828615047037601470947265625" lon="-1.39028222300112247467041015625">
        <ele>915.5999755859375</ele>
        <time>2019-07-07T11:55:17.000Z</time>
      </trkpt>
      <trkpt lat="40.782777182757854461669921875" lon="-1.39089276082813739776611328125">
        <ele>916.4000244140625</ele>
        <time>2019-07-07T11:55:19.000Z</time>
      </trkpt>
      <trkpt lat="40.78273451887071132659912109375" lon="-1.3911976106464862823486328125">
        <ele>917.79998779296875</ele>
        <time>2019-07-07T11:55:20.000Z</time>
      </trkpt>
      <trkpt lat="40.78269026242196559906005859375" lon="-1.39150329865515232086181640625">
        <ele>920.79998779296875</ele>
        <time>2019-07-07T11:55:21.000Z</time>
      </trkpt>
      <trkpt lat="40.78264541923999786376953125" lon="-1.39180965721607208251953125">
        <ele>923.79998779296875</ele>
        <time>2019-07-07T11:55:22.000Z</time>
      </trkpt>
      <trkpt lat="40.7826023362576961517333984375" lon="-1.3921189494431018829345703125">
        <ele>925.4000244140625</ele>
        <time>2019-07-07T11:55:23.000Z</time>
      </trkpt>
      <trkpt lat="40.78256101347506046295166015625" lon="-1.39243058860301971435546875">
        <ele>927.5999755859375</ele>
        <time>2019-07-07T11:55:24.000Z</time>
      </trkpt>
      <trkpt lat="40.7824779488146305084228515625" lon="-1.39305478893220424652099609375">
        <ele>929</ele>
        <time>2019-07-07T11:55:26.000Z</time>
      </trkpt>
      <trkpt lat="40.78238717280328273773193359375" lon="-1.39368779025971889495849609375">
        <ele>929.20001220703125</ele>
        <time>2019-07-07T11:55:28.000Z</time>
      </trkpt>
      <trkpt lat="40.7823438383638858795166015625" lon="-1.39400831423699855804443359375">
        <ele>927.79998779296875</ele>
        <time>2019-07-07T11:55:29.000Z</time>
      </trkpt>
      <trkpt lat="40.78226043842732906341552734375" lon="-1.394644081592559814453125">
        <ele>924.20001220703125</ele>
        <time>2019-07-07T11:55:31.000Z</time>
      </trkpt>
      <trkpt lat="40.78216991387307643890380859375" lon="-1.39528739266097545623779296875">
        <ele>924.20001220703125</ele>
        <time>2019-07-07T11:55:33.000Z</time>
      </trkpt>
      <trkpt lat="40.7821255736052989959716796875" lon="-1.39560875482857227325439453125">
        <ele>927</ele>
        <time>2019-07-07T11:55:34.000Z</time>
      </trkpt>
      <trkpt lat="40.78208190388977527618408203125" lon="-1.39592911116778850555419921875">
        <ele>929.4000244140625</ele>
        <time>2019-07-07T11:55:35.000Z</time>
      </trkpt>
      <trkpt lat="40.78203815035521984100341796875" lon="-1.39624544419348239898681640625">
        <ele>932</ele>
        <time>2019-07-07T11:55:36.000Z</time>
      </trkpt>
      <trkpt lat="40.781952403485774993896484375" lon="-1.39686268754303455352783203125">
        <ele>931.79998779296875</ele>
        <time>2019-07-07T11:55:38.000Z</time>
      </trkpt>
      <trkpt lat="40.78186891973018646240234375" lon="-1.3974588923156261444091796875">
        <ele>931.79998779296875</ele>
        <time>2019-07-07T11:55:40.000Z</time>
      </trkpt>
      <trkpt lat="40.78182910569012165069580078125" lon="-1.39775167219340801239013671875">
        <ele>934.79998779296875</ele>
        <time>2019-07-07T11:55:41.000Z</time>
      </trkpt>
      <trkpt lat="40.781788788735866546630859375" lon="-1.39804168604314327239990234375">
        <ele>940.5999755859375</ele>
        <time>2019-07-07T11:55:42.000Z</time>
      </trkpt>
      <trkpt lat="40.78174930997192859649658203125" lon="-1.398327089846134185791015625">
        <ele>947.20001220703125</ele>
        <time>2019-07-07T11:55:43.000Z</time>
      </trkpt>
      <trkpt lat="40.78170924447476863861083984375" lon="-1.3986082188785076141357421875">
        <ele>951.79998779296875</ele>
        <time>2019-07-07T11:55:44.000Z</time>
      </trkpt>
      <trkpt lat="40.78167177736759185791015625" lon="-1.39888775534927845001220703125">
        <ele>954.79998779296875</ele>
        <time>2019-07-07T11:55:45.000Z</time>
      </trkpt>
      <trkpt lat="40.7816337235271930694580078125" lon="-1.3991688005626201629638671875">
        <ele>956.4000244140625</ele>
        <time>2019-07-07T11:55:46.000Z</time>
      </trkpt>
      <trkpt lat="40.78151411376893520355224609375" lon="-1.39999852515757083892822265625">
        <ele>957.20001220703125</ele>
        <time>2019-07-07T11:55:49.000Z</time>
      </trkpt>
      <trkpt lat="40.78140263445675373077392578125" lon="-1.40082263387739658355712890625">
        <ele>955.79998779296875</ele>
        <time>2019-07-07T11:55:52.000Z</time>
      </trkpt>
      <trkpt lat="40.78128545545041561126708984375" lon="-1.401674486696720123291015625">
        <ele>956.20001220703125</ele>
        <time>2019-07-07T11:55:55.000Z</time>
      </trkpt>
      <trkpt lat="40.78124237246811389923095703125" lon="-1.40197296626865863800048828125">
        <ele>955</ele>
        <time>2019-07-07T11:55:56.000Z</time>
      </trkpt>
      <trkpt lat="40.78119744546711444854736328125" lon="-1.4022825099527835845947265625">
        <ele>953.4000244140625</ele>
        <time>2019-07-07T11:55:57.000Z</time>
      </trkpt>
      <trkpt lat="40.78115268610417842864990234375" lon="-1.40260286629199981689453125">
        <ele>952.4000244140625</ele>
        <time>2019-07-07T11:55:58.000Z</time>
      </trkpt>
      <trkpt lat="40.78106484375894069671630859375" lon="-1.40326562337577342987060546875">
        <ele>951</ele>
        <time>2019-07-07T11:56:00.000Z</time>
      </trkpt>
      <trkpt lat="40.78097398392856121063232421875" lon="-1.40395327471196651458740234375">
        <ele>951.5999755859375</ele>
        <time>2019-07-07T11:56:02.000Z</time>
      </trkpt>
      <trkpt lat="40.780878178775310516357421875" lon="-1.40466221608221530914306640625">
        <ele>951.5999755859375</ele>
        <time>2019-07-07T11:56:04.000Z</time>
      </trkpt>
      <trkpt lat="40.7807801105082035064697265625" lon="-1.40538238920271396636962890625">
        <ele>949.20001220703125</ele>
        <time>2019-07-07T11:56:06.000Z</time>
      </trkpt>
      <trkpt lat="40.780731998383998870849609375" lon="-1.40574616380035877227783203125">
        <ele>947.4000244140625</ele>
        <time>2019-07-07T11:56:07.000Z</time>
      </trkpt>
      <trkpt lat="40.78068531118333339691162109375" lon="-1.40610859729349613189697265625">
        <ele>944.5999755859375</ele>
        <time>2019-07-07T11:56:08.000Z</time>
      </trkpt>
      <trkpt lat="40.78064055182039737701416015625" lon="-1.40646466054022312164306640625">
        <ele>941.20001220703125</ele>
        <time>2019-07-07T11:56:09.000Z</time>
      </trkpt>
      <trkpt lat="40.780596546828746795654296875" lon="-1.4068146049976348876953125">
        <ele>937</ele>
        <time>2019-07-07T11:56:10.000Z</time>
      </trkpt>
      <trkpt lat="40.78055136837065219879150390625" lon="-1.4071577601134777069091796875">
        <ele>933.5999755859375</ele>
        <time>2019-07-07T11:56:11.000Z</time>
      </trkpt>
      <trkpt lat="40.7805048488080501556396484375" lon="-1.4074970595538616180419921875">
        <ele>931.79998779296875</ele>
        <time>2019-07-07T11:56:12.000Z</time>
      </trkpt>
      <trkpt lat="40.780412144958972930908203125" lon="-1.4081686176359653472900390625">
        <ele>930.5999755859375</ele>
        <time>2019-07-07T11:56:14.000Z</time>
      </trkpt>
      <trkpt lat="40.7803191058337688446044921875" lon="-1.40883204527199268341064453125">
        <ele>931.5999755859375</ele>
        <time>2019-07-07T11:56:16.000Z</time>
      </trkpt>
      <trkpt lat="40.78027342446148395538330078125" lon="-1.409160532057285308837890625">
        <ele>932.79998779296875</ele>
        <time>2019-07-07T11:56:17.000Z</time>
      </trkpt>
      <trkpt lat="40.78022866509854793548583984375" lon="-1.40948918648064136505126953125">
        <ele>934.4000244140625</ele>
        <time>2019-07-07T11:56:18.000Z</time>
      </trkpt>
      <trkpt lat="40.78018315136432647705078125" lon="-1.4098148234188556671142578125">
        <ele>935.4000244140625</ele>
        <time>2019-07-07T11:56:19.000Z</time>
      </trkpt>
      <trkpt lat="40.78013797290623188018798828125" lon="-1.41013677231967449188232421875">
        <ele>939.79998779296875</ele>
        <time>2019-07-07T11:56:20.000Z</time>
      </trkpt>
      <trkpt lat="40.7800924591720104217529296875" lon="-1.410458385944366455078125">
        <ele>947.20001220703125</ele>
        <time>2019-07-07T11:56:21.000Z</time>
      </trkpt>
      <trkpt lat="40.7800465263426303863525390625" lon="-1.4107790775597095489501953125">
        <ele>956.20001220703125</ele>
        <time>2019-07-07T11:56:22.000Z</time>
      </trkpt>
      <trkpt lat="40.780001096427440643310546875" lon="-1.41110052354633808135986328125">
        <ele>960.79998779296875</ele>
        <time>2019-07-07T11:56:23.000Z</time>
      </trkpt>
      <trkpt lat="40.7799570076167583465576171875" lon="-1.411422304809093475341796875">
        <ele>963.4000244140625</ele>
        <time>2019-07-07T11:56:24.000Z</time>
      </trkpt>
      <trkpt lat="40.7799130864441394805908203125" lon="-1.411744169890880584716796875">
        <ele>964.5999755859375</ele>
        <time>2019-07-07T11:56:25.000Z</time>
      </trkpt>
      <trkpt lat="40.77982373535633087158203125" lon="-1.4123917557299137115478515625">
        <ele>965</ele>
        <time>2019-07-07T11:56:27.000Z</time>
      </trkpt>
      <trkpt lat="40.77973597683012485504150390625" lon="-1.41303992830216884613037109375">
        <ele>964.79998779296875</ele>
        <time>2019-07-07T11:56:29.000Z</time>
      </trkpt>
      <trkpt lat="40.77964545227587223052978515625" lon="-1.4136882685124874114990234375">
        <ele>963.79998779296875</ele>
        <time>2019-07-07T11:56:31.000Z</time>
      </trkpt>
      <trkpt lat="40.7795533351600170135498046875" lon="-1.4143343456089496612548828125">
        <ele>964</ele>
        <time>2019-07-07T11:56:33.000Z</time>
      </trkpt>
      <trkpt lat="40.7794658280909061431884765625" lon="-1.41498184762895107269287109375">
        <ele>964.20001220703125</ele>
        <time>2019-07-07T11:56:35.000Z</time>
      </trkpt>
      <trkpt lat="40.7793793268501758575439453125" lon="-1.41562658362090587615966796875">
        <ele>963.5999755859375</ele>
        <time>2019-07-07T11:56:37.000Z</time>
      </trkpt>
      <trkpt lat="40.779335238039493560791015625" lon="-1.41594811342656612396240234375">
        <ele>963.20001220703125</ele>
        <time>2019-07-07T11:56:38.000Z</time>
      </trkpt>
      <trkpt lat="40.77924429439008235931396484375" lon="-1.41659100539982318878173828125">
        <ele>962</ele>
        <time>2019-07-07T11:56:40.000Z</time>
      </trkpt>
      <trkpt lat="40.77919987030327320098876953125" lon="-1.4169169776141643524169921875">
        <ele>960</ele>
        <time>2019-07-07T11:56:41.000Z</time>
      </trkpt>
      <trkpt lat="40.77910850755870342254638671875" lon="-1.4175660721957683563232421875">
        <ele>957</ele>
        <time>2019-07-07T11:56:43.000Z</time>
      </trkpt>
      <trkpt lat="40.7790624909102916717529296875" lon="-1.41789120621979236602783203125">
        <ele>955.20001220703125</ele>
        <time>2019-07-07T11:56:44.000Z</time>
      </trkpt>
      <trkpt lat="40.77897523529827594757080078125" lon="-1.418538875877857208251953125">
        <ele>952</ele>
        <time>2019-07-07T11:56:46.000Z</time>
      </trkpt>
      <trkpt lat="40.77893148176372051239013671875" lon="-1.41886183060705661773681640625">
        <ele>949.20001220703125</ele>
        <time>2019-07-07T11:56:47.000Z</time>
      </trkpt>
      <trkpt lat="40.77888789586722850799560546875" lon="-1.41918486915528774261474609375">
        <ele>946.20001220703125</ele>
        <time>2019-07-07T11:56:48.000Z</time>
      </trkpt>
      <trkpt lat="40.7788432203233242034912109375" lon="-1.41950807534158229827880859375">
        <ele>944.79998779296875</ele>
        <time>2019-07-07T11:56:49.000Z</time>
      </trkpt>
      <trkpt lat="40.7787989638745784759521484375" lon="-1.41983262263238430023193359375">
        <ele>942.4000244140625</ele>
        <time>2019-07-07T11:56:50.000Z</time>
      </trkpt>
      <trkpt lat="40.77871070243418216705322265625" lon="-1.420468725264072418212890625">
        <ele>944.20001220703125</ele>
        <time>2019-07-07T11:56:52.000Z</time>
      </trkpt>
      <trkpt lat="40.7786682061851024627685546875" lon="-1.4207840524613857269287109375">
        <ele>948.5999755859375</ele>
        <time>2019-07-07T11:56:53.000Z</time>
      </trkpt>
      <trkpt lat="40.77862554229795932769775390625" lon="-1.4210995472967624664306640625">
        <ele>954.79998779296875</ele>
        <time>2019-07-07T11:56:54.000Z</time>
      </trkpt>
      <trkpt lat="40.7785806991159915924072265625" lon="-1.4214147068560123443603515625">
        <ele>961.20001220703125</ele>
        <time>2019-07-07T11:56:55.000Z</time>
      </trkpt>
      <trkpt lat="40.77853719703853130340576171875" lon="-1.42172693274915218353271484375">
        <ele>964.4000244140625</ele>
        <time>2019-07-07T11:56:56.000Z</time>
      </trkpt>
      <trkpt lat="40.778495706617832183837890625" lon="-1.42203840427100658416748046875">
        <ele>966.4000244140625</ele>
        <time>2019-07-07T11:56:57.000Z</time>
      </trkpt>
      <trkpt lat="40.7784522883594036102294921875" lon="-1.422350965440273284912109375">
        <ele>967.5999755859375</ele>
        <time>2019-07-07T11:56:58.000Z</time>
      </trkpt>
      <trkpt lat="40.7784090377390384674072265625" lon="-1.42266319133341312408447265625">
        <ele>968.5999755859375</ele>
        <time>2019-07-07T11:56:59.000Z</time>
      </trkpt>
      <trkpt lat="40.77832060866057872772216796875" lon="-1.42329149879515171051025390625">
        <ele>970.20001220703125</ele>
        <time>2019-07-07T11:57:01.000Z</time>
      </trkpt>
      <trkpt lat="40.7782367058098316192626953125" lon="-1.4239242486655712127685546875">
        <ele>971.5999755859375</ele>
        <time>2019-07-07T11:57:03.000Z</time>
      </trkpt>
      <trkpt lat="40.77814810909330844879150390625" lon="-1.42456085421144962310791015625">
        <ele>972.5999755859375</ele>
        <time>2019-07-07T11:57:05.000Z</time>
      </trkpt>
      <trkpt lat="40.7781039364635944366455078125" lon="-1.42488171346485614776611328125">
        <ele>973</ele>
        <time>2019-07-07T11:57:06.000Z</time>
      </trkpt>
      <trkpt lat="40.77800922095775604248046875" lon="-1.425529383122920989990234375">
        <ele>973.20001220703125</ele>
        <time>2019-07-07T11:57:08.000Z</time>
      </trkpt>
      <trkpt lat="40.77791609801352024078369140625" lon="-1.4261850155889987945556640625">
        <ele>968.79998779296875</ele>
        <time>2019-07-07T11:57:10.000Z</time>
      </trkpt>
      <trkpt lat="40.77787502668797969818115234375" lon="-1.42651149071753025054931640625">
        <ele>962</ele>
        <time>2019-07-07T11:57:11.000Z</time>
      </trkpt>
      <trkpt lat="40.777837894856929779052734375" lon="-1.42683737911283969879150390625">
        <ele>953.79998779296875</ele>
        <time>2019-07-07T11:57:12.000Z</time>
      </trkpt>
      <trkpt lat="40.77780344523489475250244140625" lon="-1.42716175876557826995849609375">
        <ele>947.5999755859375</ele>
        <time>2019-07-07T11:57:13.000Z</time>
      </trkpt>
      <trkpt lat="40.77776840887963771820068359375" lon="-1.42748496495187282562255859375">
        <ele>943</ele>
        <time>2019-07-07T11:57:14.000Z</time>
      </trkpt>
      <trkpt lat="40.777731277048587799072265625" lon="-1.4278060756623744964599609375">
        <ele>936.20001220703125</ele>
        <time>2019-07-07T11:57:15.000Z</time>
      </trkpt>
      <trkpt lat="40.7776905409991741180419921875" lon="-1.42812450416386127471923828125">
        <ele>931.79998779296875</ele>
        <time>2019-07-07T11:57:16.000Z</time>
      </trkpt>
      <trkpt lat="40.7776486314833164215087890625" lon="-1.42844033427536487579345703125">
        <ele>927</ele>
        <time>2019-07-07T11:57:17.000Z</time>
      </trkpt>
      <trkpt lat="40.7776070572435855865478515625" lon="-1.42875398509204387664794921875">
        <ele>924</ele>
        <time>2019-07-07T11:57:18.000Z</time>
      </trkpt>
      <trkpt lat="40.77756539918482303619384765625" lon="-1.42906478606164455413818359375">
        <ele>922.5999755859375</ele>
        <time>2019-07-07T11:57:19.000Z</time>
      </trkpt>
      <trkpt lat="40.77752147801220417022705078125" lon="-1.42937474884092807769775390625">
        <ele>923.79998779296875</ele>
        <time>2019-07-07T11:57:20.000Z</time>
      </trkpt>
      <trkpt lat="40.77747412025928497314453125" lon="-1.42968320287764072418212890625">
        <ele>926.4000244140625</ele>
        <time>2019-07-07T11:57:21.000Z</time>
      </trkpt>
      <trkpt lat="40.77742240391671657562255859375" lon="-1.42999148927628993988037109375">
        <ele>928.5999755859375</ele>
        <time>2019-07-07T11:57:22.000Z</time>
      </trkpt>
      <trkpt lat="40.77736825682222843170166015625" lon="-1.430299691855907440185546875">
        <ele>931</ele>
        <time>2019-07-07T11:57:23.000Z</time>
      </trkpt>
      <trkpt lat="40.77731595374643802642822265625" lon="-1.4306111633777618408203125">
        <ele>933.5999755859375</ele>
        <time>2019-07-07T11:57:24.000Z</time>
      </trkpt>
      <trkpt lat="40.77726834453642368316650390625" lon="-1.43092758022248744964599609375">
        <ele>936</ele>
        <time>2019-07-07T11:57:25.000Z</time>
      </trkpt>
      <trkpt lat="40.7772245071828365325927734375" lon="-1.43124659545719623565673828125">
        <ele>937.79998779296875</ele>
        <time>2019-07-07T11:57:26.000Z</time>
      </trkpt>
      <trkpt lat="40.77718167565762996673583984375" lon="-1.43156695179641246795654296875">
        <ele>939.5999755859375</ele>
        <time>2019-07-07T11:57:27.000Z</time>
      </trkpt>
      <trkpt lat="40.77713775448501110076904296875" lon="-1.43188931979238986968994140625">
        <ele>940.5999755859375</ele>
        <time>2019-07-07T11:57:28.000Z</time>
      </trkpt>
      <trkpt lat="40.77709324657917022705078125" lon="-1.43221302889287471771240234375">
        <ele>942</ele>
        <time>2019-07-07T11:57:29.000Z</time>
      </trkpt>
      <trkpt lat="40.77704907394945621490478515625" lon="-1.43253807909786701202392578125">
        <ele>943</ele>
        <time>2019-07-07T11:57:30.000Z</time>
      </trkpt>
      <trkpt lat="40.7770069129765033721923828125" lon="-1.43286329694092273712158203125">
        <ele>944.5999755859375</ele>
        <time>2019-07-07T11:57:31.000Z</time>
      </trkpt>
      <trkpt lat="40.7769636623561382293701171875" lon="-1.4331906102597713470458984375">
        <ele>947</ele>
        <time>2019-07-07T11:57:32.000Z</time>
      </trkpt>
      <trkpt lat="40.77691965736448764801025390625" lon="-1.4335185103118419647216796875">
        <ele>951</ele>
        <time>2019-07-07T11:57:33.000Z</time>
      </trkpt>
      <trkpt lat="40.77687573619186878204345703125" lon="-1.43384657800197601318359375">
        <ele>957.5999755859375</ele>
        <time>2019-07-07T11:57:34.000Z</time>
      </trkpt>
      <trkpt lat="40.77683173120021820068359375" lon="-1.434176824986934661865234375">
        <ele>965.5999755859375</ele>
        <time>2019-07-07T11:57:35.000Z</time>
      </trkpt>
      <trkpt lat="40.776785798370838165283203125" lon="-1.434510760009288787841796875">
        <ele>969.4000244140625</ele>
        <time>2019-07-07T11:57:36.000Z</time>
      </trkpt>
      <trkpt lat="40.77673877589404582977294921875" lon="-1.43484679050743579864501953125">
        <ele>971.4000244140625</ele>
        <time>2019-07-07T11:57:37.000Z</time>
      </trkpt>
      <trkpt lat="40.77664908953011035919189453125" lon="-1.4355197735130786895751953125">
        <ele>966</ele>
        <time>2019-07-07T11:57:39.000Z</time>
      </trkpt>
      <trkpt lat="40.77660500071942806243896484375" lon="-1.43585094250738620758056640625">
        <ele>963.20001220703125</ele>
        <time>2019-07-07T11:57:40.000Z</time>
      </trkpt>
      <trkpt lat="40.77656057663261890411376953125" lon="-1.4361779205501079559326171875">
        <ele>961.79998779296875</ele>
        <time>2019-07-07T11:57:41.000Z</time>
      </trkpt>
      <trkpt lat="40.77651531435549259185791015625" lon="-1.43650087527930736541748046875">
        <ele>960.4000244140625</ele>
        <time>2019-07-07T11:57:42.000Z</time>
      </trkpt>
      <trkpt lat="40.776424705982208251953125" lon="-1.4371368102729320526123046875">
        <ele>967.20001220703125</ele>
        <time>2019-07-07T11:57:44.000Z</time>
      </trkpt>
      <trkpt lat="40.77638003043830394744873046875" lon="-1.437451802194118499755859375">
        <ele>971.20001220703125</ele>
        <time>2019-07-07T11:57:45.000Z</time>
      </trkpt>
      <trkpt lat="40.776336528360843658447265625" lon="-1.43776436336338520050048828125">
        <ele>973.20001220703125</ele>
        <time>2019-07-07T11:57:46.000Z</time>
      </trkpt>
      <trkpt lat="40.7762538827955722808837890625" lon="-1.43838412128388881683349609375">
        <ele>974.20001220703125</ele>
        <time>2019-07-07T11:57:48.000Z</time>
      </trkpt>
      <trkpt lat="40.776169560849666595458984375" lon="-1.43899868242442607879638671875">
        <ele>973.5999755859375</ele>
        <time>2019-07-07T11:57:50.000Z</time>
      </trkpt>
      <trkpt lat="40.77612672932446002960205078125" lon="-1.43930478952825069427490234375">
        <ele>971.79998779296875</ele>
        <time>2019-07-07T11:57:51.000Z</time>
      </trkpt>
      <trkpt lat="40.7760842330753803253173828125" lon="-1.43961223773658275604248046875">
        <ele>968.79998779296875</ele>
        <time>2019-07-07T11:57:52.000Z</time>
      </trkpt>
      <trkpt lat="40.77604240737855434417724609375" lon="-1.4399202726781368255615234375">
        <ele>965.5999755859375</ele>
        <time>2019-07-07T11:57:53.000Z</time>
      </trkpt>
      <trkpt lat="40.776000916957855224609375" lon="-1.4402293972671031951904296875">
        <ele>962.79998779296875</ele>
        <time>2019-07-07T11:57:54.000Z</time>
      </trkpt>
      <trkpt lat="40.775956995785236358642578125" lon="-1.4405375160276889801025390625">
        <ele>961.4000244140625</ele>
        <time>2019-07-07T11:57:55.000Z</time>
      </trkpt>
      <trkpt lat="40.77590896748006343841552734375" lon="-1.440845467150211334228515625">
        <ele>960.4000244140625</ele>
        <time>2019-07-07T11:57:56.000Z</time>
      </trkpt>
      <trkpt lat="40.77581760473549365997314453125" lon="-1.44146648235619068145751953125">
        <ele>959.5999755859375</ele>
        <time>2019-07-07T11:57:58.000Z</time>
      </trkpt>
      <trkpt lat="40.77573294751346111297607421875" lon="-1.4420958794653415679931640625">
        <ele>959.20001220703125</ele>
        <time>2019-07-07T11:58:00.000Z</time>
      </trkpt>
      <trkpt lat="40.775689445436000823974609375" lon="-1.44241196103394031524658203125">
        <ele>958</ele>
        <time>2019-07-07T11:58:01.000Z</time>
      </trkpt>
      <trkpt lat="40.77564544044435024261474609375" lon="-1.442730724811553955078125">
        <ele>956.20001220703125</ele>
        <time>2019-07-07T11:58:02.000Z</time>
      </trkpt>
      <trkpt lat="40.7756021060049533843994140625" lon="-1.4430494047701358795166015625">
        <ele>954</ele>
        <time>2019-07-07T11:58:03.000Z</time>
      </trkpt>
      <trkpt lat="40.775559358298778533935546875" lon="-1.4433669112622737884521484375">
        <ele>952.20001220703125</ele>
        <time>2019-07-07T11:58:04.000Z</time>
      </trkpt>
      <trkpt lat="40.77547478489577770233154296875" lon="-1.44399873912334442138671875">
        <ele>951.4000244140625</ele>
        <time>2019-07-07T11:58:06.000Z</time>
      </trkpt>
      <trkpt lat="40.77539247460663318634033203125" lon="-1.44462629221379756927490234375">
        <ele>951</ele>
        <time>2019-07-07T11:58:08.000Z</time>
      </trkpt>
      <trkpt lat="40.77531670220196247100830078125" lon="-1.4452518336474895477294921875">
        <ele>954.5999755859375</ele>
        <time>2019-07-07T11:58:10.000Z</time>
      </trkpt>
      <trkpt lat="40.7752762176096439361572265625" lon="-1.4455622993409633636474609375">
        <ele>957.4000244140625</ele>
        <time>2019-07-07T11:58:11.000Z</time>
      </trkpt>
      <trkpt lat="40.7752346433699131011962890625" lon="-1.44587033428251743316650390625">
        <ele>960.5999755859375</ele>
        <time>2019-07-07T11:58:12.000Z</time>
      </trkpt>
      <trkpt lat="40.7751930691301822662353515625" lon="-1.4461761899292469024658203125">
        <ele>962.4000244140625</ele>
        <time>2019-07-07T11:58:13.000Z</time>
      </trkpt>
      <trkpt lat="40.7751109264791011810302734375" lon="-1.44678245298564434051513671875">
        <ele>963.5999755859375</ele>
        <time>2019-07-07T11:58:15.000Z</time>
      </trkpt>
      <trkpt lat="40.77502870000898838043212890625" lon="-1.4473805017769336700439453125">
        <ele>963</ele>
        <time>2019-07-07T11:58:17.000Z</time>
      </trkpt>
      <trkpt lat="40.774947814643383026123046875" lon="-1.4479819871485233306884765625">
        <ele>965.5999755859375</ele>
        <time>2019-07-07T11:58:19.000Z</time>
      </trkpt>
      <trkpt lat="40.77490565367043018341064453125" lon="-1.44828801043331623077392578125">
        <ele>964</ele>
        <time>2019-07-07T11:58:20.000Z</time>
      </trkpt>
      <trkpt lat="40.77486307360231876373291015625" lon="-1.4485962130129337310791015625">
        <ele>965.5999755859375</ele>
        <time>2019-07-07T11:58:21.000Z</time>
      </trkpt>
      <trkpt lat="40.774820409715175628662109375" lon="-1.4489039964973926544189453125">
        <ele>967.5999755859375</ele>
        <time>2019-07-07T11:58:22.000Z</time>
      </trkpt>
      <trkpt lat="40.77473851852118968963623046875" lon="-1.44951964728534221649169921875">
        <ele>968</ele>
        <time>2019-07-07T11:58:24.000Z</time>
      </trkpt>
      <trkpt lat="40.77465671114623546600341796875" lon="-1.45013756118714809417724609375">
        <ele>968.20001220703125</ele>
        <time>2019-07-07T11:58:26.000Z</time>
      </trkpt>
      <trkpt lat="40.77457171864807605743408203125" lon="-1.450757570564746856689453125">
        <ele>968.4000244140625</ele>
        <time>2019-07-07T11:58:28.000Z</time>
      </trkpt>
      <trkpt lat="40.77448748052120208740234375" lon="-1.45138160325586795806884765625">
        <ele>968.5999755859375</ele>
        <time>2019-07-07T11:58:30.000Z</time>
      </trkpt>
      <trkpt lat="40.774445571005344390869140625" lon="-1.45169374532997608184814453125">
        <ele>968.5999755859375</ele>
        <time>2019-07-07T11:58:31.000Z</time>
      </trkpt>
      <trkpt lat="40.77440290711820125579833984375" lon="-1.4520059712231159210205078125">
        <ele>967.4000244140625</ele>
        <time>2019-07-07T11:58:32.000Z</time>
      </trkpt>
      <trkpt lat="40.7743139751255512237548828125" lon="-1.4526359550654888153076171875">
        <ele>966.79998779296875</ele>
        <time>2019-07-07T11:58:34.000Z</time>
      </trkpt>
      <trkpt lat="40.77427022159099578857421875" lon="-1.4529531262814998626708984375">
        <ele>966</ele>
        <time>2019-07-07T11:58:35.000Z</time>
      </trkpt>
      <trkpt lat="40.774182379245758056640625" lon="-1.45359040237963199615478515625">
        <ele>965.5999755859375</ele>
        <time>2019-07-07T11:58:37.000Z</time>
      </trkpt>
      <trkpt lat="40.7740952074527740478515625" lon="-1.454227678477764129638671875">
        <ele>968.20001220703125</ele>
        <time>2019-07-07T11:58:39.000Z</time>
      </trkpt>
      <trkpt lat="40.77405271120369434356689453125" lon="-1.45454577170312404632568359375">
        <ele>969.5999755859375</ele>
        <time>2019-07-07T11:58:40.000Z</time>
      </trkpt>
      <trkpt lat="40.7740108855068683624267578125" lon="-1.45486436784267425537109375">
        <ele>970.5999755859375</ele>
        <time>2019-07-07T11:58:41.000Z</time>
      </trkpt>
      <trkpt lat="40.77392664737999439239501953125" lon="-1.45549611188471317291259765625">
        <ele>971.4000244140625</ele>
        <time>2019-07-07T11:58:43.000Z</time>
      </trkpt>
      <trkpt lat="40.7738403975963592529296875" lon="-1.45611830055713653564453125">
        <ele>970.79998779296875</ele>
        <time>2019-07-07T11:58:45.000Z</time>
      </trkpt>
      <trkpt lat="40.773754902184009552001953125" lon="-1.45673478953540325164794921875">
        <ele>969.4000244140625</ele>
        <time>2019-07-07T11:58:47.000Z</time>
      </trkpt>
      <trkpt lat="40.77371274121105670928955078125" lon="-1.457039974629878997802734375">
        <ele>968</ele>
        <time>2019-07-07T11:58:48.000Z</time>
      </trkpt>
      <trkpt lat="40.7736286707222461700439453125" lon="-1.457646153867244720458984375">
        <ele>968.4000244140625</ele>
        <time>2019-07-07T11:58:50.000Z</time>
      </trkpt>
      <trkpt lat="40.77358433045446872711181640625" lon="-1.45794915966689586639404296875">
        <ele>969.5999755859375</ele>
        <time>2019-07-07T11:58:51.000Z</time>
      </trkpt>
      <trkpt lat="40.77349749393761157989501953125" lon="-1.4585589431226253509521484375">
        <ele>971.20001220703125</ele>
        <time>2019-07-07T11:58:53.000Z</time>
      </trkpt>
      <trkpt lat="40.77345524914562702178955078125" lon="-1.4588663913309574127197265625">
        <ele>973.5999755859375</ele>
        <time>2019-07-07T11:58:54.000Z</time>
      </trkpt>
      <trkpt lat="40.77341468073427677154541015625" lon="-1.4591781981289386749267578125">
        <ele>974.5999755859375</ele>
        <time>2019-07-07T11:58:55.000Z</time>
      </trkpt>
      <trkpt lat="40.77333169989287853240966796875" lon="-1.45980105735361576080322265625">
        <ele>976.79998779296875</ele>
        <time>2019-07-07T11:58:57.000Z</time>
      </trkpt>
      <trkpt lat="40.77324486337602138519287109375" lon="-1.46042735315859317779541015625">
        <ele>975</ele>
        <time>2019-07-07T11:58:59.000Z</time>
      </trkpt>
      <trkpt lat="40.7731606252491474151611328125" lon="-1.4610557444393634796142578125">
        <ele>973.79998779296875</ele>
        <time>2019-07-07T11:59:01.000Z</time>
      </trkpt>
      <trkpt lat="40.77307504601776599884033203125" lon="-1.461681537330150604248046875">
        <ele>976</ele>
        <time>2019-07-07T11:59:03.000Z</time>
      </trkpt>
      <trkpt lat="40.77298971824347972869873046875" lon="-1.4623056538403034210205078125">
        <ele>977.4000244140625</ele>
        <time>2019-07-07T11:59:05.000Z</time>
      </trkpt>
      <trkpt lat="40.77294655144214630126953125" lon="-1.46261570043861865997314453125">
        <ele>978.5999755859375</ele>
        <time>2019-07-07T11:59:06.000Z</time>
      </trkpt>
      <trkpt lat="40.77286072075366973876953125" lon="-1.46323445253074169158935546875">
        <ele>978.5999755859375</ele>
        <time>2019-07-07T11:59:08.000Z</time>
      </trkpt>
      <trkpt lat="40.7728184759616851806640625" lon="-1.4635434933006763458251953125">
        <ele>979.79998779296875</ele>
        <time>2019-07-07T11:59:09.000Z</time>
      </trkpt>
      <trkpt lat="40.7727757282555103302001953125" lon="-1.46385286934673786163330078125">
        <ele>981.4000244140625</ele>
        <time>2019-07-07T11:59:10.000Z</time>
      </trkpt>
      <trkpt lat="40.77273306436836719512939453125" lon="-1.4641627483069896697998046875">
        <ele>983.20001220703125</ele>
        <time>2019-07-07T11:59:11.000Z</time>
      </trkpt>
      <trkpt lat="40.7726898975670337677001953125" lon="-1.4644728787243366241455078125">
        <ele>987</ele>
        <time>2019-07-07T11:59:12.000Z</time>
      </trkpt>
      <trkpt lat="40.77264673076570034027099609375" lon="-1.46478183567523956298828125">
        <ele>989.79998779296875</ele>
        <time>2019-07-07T11:59:13.000Z</time>
      </trkpt>
      <trkpt lat="40.7726033963263034820556640625" lon="-1.4650904573500156402587890625">
        <ele>991.4000244140625</ele>
        <time>2019-07-07T11:59:14.000Z</time>
      </trkpt>
      <trkpt lat="40.77251899056136608123779296875" lon="-1.46570711396634578704833984375">
        <ele>991.5999755859375</ele>
        <time>2019-07-07T11:59:16.000Z</time>
      </trkpt>
      <trkpt lat="40.7724310643970966339111328125" lon="-1.46632251329720020294189453125">
        <ele>990</ele>
        <time>2019-07-07T11:59:18.000Z</time>
      </trkpt>
      <trkpt lat="40.77234783209860324859619140625" lon="-1.46693791262805461883544921875">
        <ele>990</ele>
        <time>2019-07-07T11:59:20.000Z</time>
      </trkpt>
      <trkpt lat="40.77227960340678691864013671875" lon="-1.46755792200565338134765625">
        <ele>991</ele>
        <time>2019-07-07T11:59:22.000Z</time>
      </trkpt>
      <trkpt lat="40.7722469978034496307373046875" lon="-1.4681870676577091217041015625">
        <ele>989</ele>
        <time>2019-07-07T11:59:24.000Z</time>
      </trkpt>
      <trkpt lat="40.77224506996572017669677734375" lon="-1.46850599907338619232177734375">
        <ele>988.5999755859375</ele>
        <time>2019-07-07T11:59:25.000Z</time>
      </trkpt>
      <trkpt lat="40.7722525298595428466796875" lon="-1.4688301272690296173095703125">
        <ele>985.20001220703125</ele>
        <time>2019-07-07T11:59:26.000Z</time>
      </trkpt>
      <trkpt lat="40.77226795256137847900390625" lon="-1.4691566862165927886962890625">
        <ele>982.79998779296875</ele>
        <time>2019-07-07T11:59:27.000Z</time>
      </trkpt>
      <trkpt lat="40.772288739681243896484375" lon="-1.46948735229671001434326171875">
        <ele>980.20001220703125</ele>
        <time>2019-07-07T11:59:28.000Z</time>
      </trkpt>
      <trkpt lat="40.772312544286251068115234375" lon="-1.46982128731906414031982421875">
        <ele>979</ele>
        <time>2019-07-07T11:59:29.000Z</time>
      </trkpt>
      <trkpt lat="40.77233660034835338592529296875" lon="-1.47015790455043315887451171875">
        <ele>978.5999755859375</ele>
        <time>2019-07-07T11:59:30.000Z</time>
      </trkpt>
      <trkpt lat="40.7723583094775676727294921875" lon="-1.470496952533721923828125">
        <ele>977.79998779296875</ele>
        <time>2019-07-07T11:59:31.000Z</time>
      </trkpt>
      <trkpt lat="40.77239896170794963836669921875" lon="-1.4711841009557247161865234375">
        <ele>980</ele>
        <time>2019-07-07T11:59:33.000Z</time>
      </trkpt>
      <trkpt lat="40.77241949737071990966796875" lon="-1.47153136320412158966064453125">
        <ele>982.5999755859375</ele>
        <time>2019-07-07T11:59:34.000Z</time>
      </trkpt>
      <trkpt lat="40.77244036830961704254150390625" lon="-1.4718796312808990478515625">
        <ele>984.20001220703125</ele>
        <time>2019-07-07T11:59:35.000Z</time>
      </trkpt>
      <trkpt lat="40.772480852901935577392578125" lon="-1.47257021628320217132568359375">
        <ele>983.5999755859375</ele>
        <time>2019-07-07T11:59:37.000Z</time>
      </trkpt>
      <trkpt lat="40.7725051604211330413818359375" lon="-1.47290666587650775909423828125">
        <ele>983</ele>
        <time>2019-07-07T11:59:38.000Z</time>
      </trkpt>
      <trkpt lat="40.7725507579743862152099609375" lon="-1.473571769893169403076171875">
        <ele>981.20001220703125</ele>
        <time>2019-07-07T11:59:40.000Z</time>
      </trkpt>
      <trkpt lat="40.77259325422346591949462890625" lon="-1.47422513924539089202880859375">
        <ele>982</ele>
        <time>2019-07-07T11:59:42.000Z</time>
      </trkpt>
      <trkpt lat="40.772614963352680206298828125" lon="-1.47454733960330486297607421875">
        <ele>985</ele>
        <time>2019-07-07T11:59:43.000Z</time>
      </trkpt>
      <trkpt lat="40.7726347446441650390625" lon="-1.47486803121864795684814453125">
        <ele>988.79998779296875</ele>
        <time>2019-07-07T11:59:44.000Z</time>
      </trkpt>
      <trkpt lat="40.77265284955501556396484375" lon="-1.4751909859478473663330078125">
        <ele>992</ele>
        <time>2019-07-07T11:59:45.000Z</time>
      </trkpt>
      <trkpt lat="40.77267154119908809661865234375" lon="-1.47551561705768108367919921875">
        <ele>995.5999755859375</ele>
        <time>2019-07-07T11:59:46.000Z</time>
      </trkpt>
      <trkpt lat="40.77269115485250949859619140625" lon="-1.4758430980145931243896484375">
        <ele>998.5999755859375</ele>
        <time>2019-07-07T11:59:47.000Z</time>
      </trkpt>
      <trkpt lat="40.77271244488656520843505859375" lon="-1.47617242299020290374755859375">
        <ele>1002</ele>
        <time>2019-07-07T11:59:48.000Z</time>
      </trkpt>
      <trkpt lat="40.7727348245680332183837890625" lon="-1.47650334052741527557373046875">
        <ele>1005.4000244140625</ele>
        <time>2019-07-07T11:59:49.000Z</time>
      </trkpt>
      <trkpt lat="40.772757790982723236083984375" lon="-1.47683442570269107818603515625">
        <ele>1007.4000244140625</ele>
        <time>2019-07-07T11:59:50.000Z</time>
      </trkpt>
      <trkpt lat="40.77277983538806438446044921875" lon="-1.4771650917828083038330078125">
        <ele>1009.79998779296875</ele>
        <time>2019-07-07T11:59:51.000Z</time>
      </trkpt>
      <trkpt lat="40.7728012092411518096923828125" lon="-1.47749642841517925262451171875">
        <ele>1012.20001220703125</ele>
        <time>2019-07-07T11:59:52.000Z</time>
      </trkpt>
      <trkpt lat="40.77284638769924640655517578125" lon="-1.47816429845988750457763671875">
        <ele>1012.4000244140625</ele>
        <time>2019-07-07T11:59:54.000Z</time>
      </trkpt>
      <trkpt lat="40.7728930748999118804931640625" lon="-1.478830911219120025634765625">
        <ele>1012.5999755859375</ele>
        <time>2019-07-07T11:59:56.000Z</time>
      </trkpt>
      <trkpt lat="40.7729172147810459136962890625" lon="-1.47916040383279323577880859375">
        <ele>1013.5999755859375</ele>
        <time>2019-07-07T11:59:57.000Z</time>
      </trkpt>
      <trkpt lat="40.772938169538974761962890625" lon="-1.4794875495135784149169921875">
        <ele>1015</ele>
        <time>2019-07-07T11:59:58.000Z</time>
      </trkpt>
      <trkpt lat="40.77295820228755474090576171875" lon="-1.479815281927585601806640625">
        <ele>1016</ele>
        <time>2019-07-07T11:59:59.000Z</time>
      </trkpt>
      <trkpt lat="40.77297831885516643524169921875" lon="-1.4801423437893390655517578125">
        <ele>1020</ele>
        <time>2019-07-07T12:00:00.000Z</time>
      </trkpt>
      <trkpt lat="40.7729981839656829833984375" lon="-1.48046915419399738311767578125">
        <ele>1022.79998779296875</ele>
        <time>2019-07-07T12:00:01.000Z</time>
      </trkpt>
      <trkpt lat="40.77301804907619953155517578125" lon="-1.4807951264083385467529296875">
        <ele>1024.199951171875</ele>
        <time>2019-07-07T12:00:02.000Z</time>
      </trkpt>
      <trkpt lat="40.7730382494628429412841796875" lon="-1.4811196736991405487060546875">
        <ele>1022</ele>
        <time>2019-07-07T12:00:03.000Z</time>
      </trkpt>
      <trkpt lat="40.77305828221142292022705078125" lon="-1.48144313134253025054931640625">
        <ele>1021</ele>
        <time>2019-07-07T12:00:04.000Z</time>
      </trkpt>
      <trkpt lat="40.77307823114097118377685546875" lon="-1.48176549933850765228271484375">
        <ele>1018.5999755859375</ele>
        <time>2019-07-07T12:00:05.000Z</time>
      </trkpt>
      <trkpt lat="40.7730975933372974395751953125" lon="-1.48208769969642162322998046875">
        <ele>1016.5999755859375</ele>
        <time>2019-07-07T12:00:06.000Z</time>
      </trkpt>
      <trkpt lat="40.7731167040765285491943359375" lon="-1.48241107352077960968017578125">
        <ele>1015.4000244140625</ele>
        <time>2019-07-07T12:00:07.000Z</time>
      </trkpt>
      <trkpt lat="40.77313606627285480499267578125" lon="-1.482736207544803619384765625">
        <ele>1014.20001220703125</ele>
        <time>2019-07-07T12:00:08.000Z</time>
      </trkpt>
      <trkpt lat="40.77317143790423870086669921875" lon="-1.4833874814212322235107421875">
        <ele>1012.20001220703125</ele>
        <time>2019-07-07T12:00:10.000Z</time>
      </trkpt>
      <trkpt lat="40.773210413753986358642578125" lon="-1.4840422756969928741455078125">
        <ele>1011.4000244140625</ele>
        <time>2019-07-07T12:00:12.000Z</time>
      </trkpt>
      <trkpt lat="40.7732488028705120086669921875" lon="-1.48469313047826290130615234375">
        <ele>1011</ele>
        <time>2019-07-07T12:00:14.000Z</time>
      </trkpt>
      <trkpt lat="40.77328761108219623565673828125" lon="-1.48535647429525852203369140625">
        <ele>1008.5999755859375</ele>
        <time>2019-07-07T12:00:16.000Z</time>
      </trkpt>
      <trkpt lat="40.77330856584012508392333984375" lon="-1.4857010543346405029296875">
        <ele>1006.5999755859375</ele>
        <time>2019-07-07T12:00:17.000Z</time>
      </trkpt>
      <trkpt lat="40.77334930188953876495361328125" lon="-1.48641443811357021331787109375">
        <ele>1003.79998779296875</ele>
        <time>2019-07-07T12:00:19.000Z</time>
      </trkpt>
      <trkpt lat="40.7733695022761821746826171875" lon="-1.48678156547248363494873046875">
        <ele>1001.20001220703125</ele>
        <time>2019-07-07T12:00:20.000Z</time>
      </trkpt>
      <trkpt lat="40.77339179813861846923828125" lon="-1.48715120740234851837158203125">
        <ele>999.4000244140625</ele>
        <time>2019-07-07T12:00:21.000Z</time>
      </trkpt>
      <trkpt lat="40.77341535128653049468994140625" lon="-1.4875241182744503021240234375">
        <ele>997.4000244140625</ele>
        <time>2019-07-07T12:00:22.000Z</time>
      </trkpt>
      <trkpt lat="40.77343798242509365081787109375" lon="-1.48789820261299610137939453125">
        <ele>995.20001220703125</ele>
        <time>2019-07-07T12:00:23.000Z</time>
      </trkpt>
      <trkpt lat="40.7734845019876956939697265625" lon="-1.4886365644633769989013671875">
        <ele>996.5999755859375</ele>
        <time>2019-07-07T12:00:25.000Z</time>
      </trkpt>
      <trkpt lat="40.7735274173319339752197265625" lon="-1.48935489356517791748046875">
        <ele>998.4000244140625</ele>
        <time>2019-07-07T12:00:27.000Z</time>
      </trkpt>
      <trkpt lat="40.7735485397279262542724609375" lon="-1.48970651440322399139404296875">
        <ele>1002.5999755859375</ele>
        <time>2019-07-07T12:00:28.000Z</time>
      </trkpt>
      <trkpt lat="40.7735699974000453948974609375" lon="-1.4900524355471134185791015625">
        <ele>1006.20001220703125</ele>
        <time>2019-07-07T12:00:29.000Z</time>
      </trkpt>
      <trkpt lat="40.77359220944344997406005859375" lon="-1.490392573177814483642578125">
        <ele>1008.4000244140625</ele>
        <time>2019-07-07T12:00:30.000Z</time>
      </trkpt>
      <trkpt lat="40.7736152596771717071533203125" lon="-1.49072843603789806365966796875">
        <ele>1010.4000244140625</ele>
        <time>2019-07-07T12:00:31.000Z</time>
      </trkpt>
      <trkpt lat="40.7736357115209102630615234375" lon="-1.49106320925056934356689453125">
        <ele>1013.20001220703125</ele>
        <time>2019-07-07T12:00:32.000Z</time>
      </trkpt>
      <trkpt lat="40.7736534811556339263916015625" lon="-1.49139630608260631561279296875">
        <ele>1015</ele>
        <time>2019-07-07T12:00:33.000Z</time>
      </trkpt>
      <trkpt lat="40.77367183752357959747314453125" lon="-1.49173007346689701080322265625">
        <ele>1017.20001220703125</ele>
        <time>2019-07-07T12:00:34.000Z</time>
      </trkpt>
      <trkpt lat="40.77371089719235897064208984375" lon="-1.492400877177715301513671875">
        <ele>1020.20001220703125</ele>
        <time>2019-07-07T12:00:36.000Z</time>
      </trkpt>
      <trkpt lat="40.77372984029352664947509765625" lon="-1.4927379973232746124267578125">
        <ele>1023</ele>
        <time>2019-07-07T12:00:37.000Z</time>
      </trkpt>
      <trkpt lat="40.77374811284244060516357421875" lon="-1.49307671003043651580810546875">
        <ele>1024.4000244140625</ele>
        <time>2019-07-07T12:00:38.000Z</time>
      </trkpt>
      <trkpt lat="40.77378566376864910125732421875" lon="-1.49375103414058685302734375">
        <ele>1024.800048828125</ele>
        <time>2019-07-07T12:00:40.000Z</time>
      </trkpt>
      <trkpt lat="40.77382656745612621307373046875" lon="-1.4943969435989856719970703125">
        <ele>1024.4000244140625</ele>
        <time>2019-07-07T12:00:42.000Z</time>
      </trkpt>
      <trkpt lat="40.773864872753620147705078125" lon="-1.49501502513885498046875">
        <ele>1023.5999755859375</ele>
        <time>2019-07-07T12:00:44.000Z</time>
      </trkpt>
      <trkpt lat="40.77388272620737552642822265625" lon="-1.495309062302112579345703125">
        <ele>1021.79998779296875</ele>
        <time>2019-07-07T12:00:45.000Z</time>
      </trkpt>
      <trkpt lat="40.77391893602907657623291015625" lon="-1.49586905725300312042236328125">
        <ele>1020.79998779296875</ele>
        <time>2019-07-07T12:00:47.000Z</time>
      </trkpt>
      <trkpt lat="40.7739367894828319549560546875" lon="-1.496144235134124755859375">
        <ele>1022</ele>
        <time>2019-07-07T12:00:48.000Z</time>
      </trkpt>
      <trkpt lat="40.773961432278156280517578125" lon="-1.49669475853443145751953125">
        <ele>1025.5999755859375</ele>
        <time>2019-07-07T12:00:50.000Z</time>
      </trkpt>
      <trkpt lat="40.77397475950419902801513671875" lon="-1.4969624765217304229736328125">
        <ele>1027.800048828125</ele>
        <time>2019-07-07T12:00:51.000Z</time>
      </trkpt>
      <trkpt lat="40.77398951165378093719482421875" lon="-1.49722357280552387237548828125">
        <ele>1029.800048828125</ele>
        <time>2019-07-07T12:00:52.000Z</time>
      </trkpt>
      <trkpt lat="40.774030499160289764404296875" lon="-1.49796553887426853179931640625">
        <ele>1031.199951171875</ele>
        <time>2019-07-07T12:00:55.000Z</time>
      </trkpt>
      <trkpt lat="40.7740759290754795074462890625" lon="-1.498703397810459136962890625">
        <ele>1030.800048828125</ele>
        <time>2019-07-07T12:00:58.000Z</time>
      </trkpt>
      <trkpt lat="40.77412261627614498138427734375" lon="-1.49946254678070545196533203125">
        <ele>1032.4000244140625</ele>
        <time>2019-07-07T12:01:01.000Z</time>
      </trkpt>
      <trkpt lat="40.77416888438165187835693359375" lon="-1.50023736990988254547119140625">
        <ele>1034</ele>
        <time>2019-07-07T12:01:04.000Z</time>
      </trkpt>
      <trkpt lat="40.77418212778866291046142578125" lon="-1.5004959516227245330810546875">
        <ele>1035</ele>
        <time>2019-07-07T12:01:05.000Z</time>
      </trkpt>
      <trkpt lat="40.7741962932050228118896484375" lon="-1.5007527731359004974365234375">
        <ele>1036.199951171875</ele>
        <time>2019-07-07T12:01:06.000Z</time>
      </trkpt>
      <trkpt lat="40.77422537840902805328369140625" lon="-1.50125979445874691009521484375">
        <ele>1037.199951171875</ele>
        <time>2019-07-07T12:01:08.000Z</time>
      </trkpt>
      <trkpt lat="40.77425421215593814849853515625" lon="-1.50177595205605030059814453125">
        <ele>1038.199951171875</ele>
        <time>2019-07-07T12:01:10.000Z</time>
      </trkpt>
      <trkpt lat="40.774300731718540191650390625" lon="-1.5025721490383148193359375">
        <ele>1038.800048828125</ele>
        <time>2019-07-07T12:01:13.000Z</time>
      </trkpt>
      <trkpt lat="40.774351693689823150634765625" lon="-1.50340673513710498809814453125">
        <ele>1038</ele>
        <time>2019-07-07T12:01:16.000Z</time>
      </trkpt>
      <trkpt lat="40.77440843917429447174072265625" lon="-1.5042941272258758544921875">
        <ele>1037.800048828125</ele>
        <time>2019-07-07T12:01:19.000Z</time>
      </trkpt>
      <trkpt lat="40.774452947080135345458984375" lon="-1.5049044974148273468017578125">
        <ele>1039.800048828125</ele>
        <time>2019-07-07T12:01:21.000Z</time>
      </trkpt>
      <trkpt lat="40.77447666786611080169677734375" lon="-1.50521454401314258575439453125">
        <ele>1041.199951171875</ele>
        <time>2019-07-07T12:01:22.000Z</time>
      </trkpt>
      <trkpt lat="40.77451740391552448272705078125" lon="-1.50583840906620025634765625">
        <ele>1042.4000244140625</ele>
        <time>2019-07-07T12:01:24.000Z</time>
      </trkpt>
      <trkpt lat="40.774535425007343292236328125" lon="-1.5061487071216106414794921875">
        <ele>1043.800048828125</ele>
        <time>2019-07-07T12:01:25.000Z</time>
      </trkpt>
      <trkpt lat="40.7745707966387271881103515625" lon="-1.506764106452465057373046875">
        <ele>1045.199951171875</ele>
        <time>2019-07-07T12:01:27.000Z</time>
      </trkpt>
      <trkpt lat="40.77460281550884246826171875" lon="-1.50737925432622432708740234375">
        <ele>1046.4000244140625</ele>
        <time>2019-07-07T12:01:29.000Z</time>
      </trkpt>
      <trkpt lat="40.77461614273488521575927734375" lon="-1.50768854655325412750244140625">
        <ele>1047.800048828125</ele>
        <time>2019-07-07T12:01:30.000Z</time>
      </trkpt>
      <trkpt lat="40.77462921850383281707763671875" lon="-1.50799985043704509735107421875">
        <ele>1049.800048828125</ele>
        <time>2019-07-07T12:01:31.000Z</time>
      </trkpt>
      <trkpt lat="40.7746452279388904571533203125" lon="-1.50831081904470920562744140625">
        <ele>1051</ele>
        <time>2019-07-07T12:01:32.000Z</time>
      </trkpt>
      <trkpt lat="40.77466316521167755126953125" lon="-1.50861977599561214447021484375">
        <ele>1053</ele>
        <time>2019-07-07T12:01:33.000Z</time>
      </trkpt>
      <trkpt lat="40.7746800966560840606689453125" lon="-1.508927643299102783203125">
        <ele>1054.4000244140625</ele>
        <time>2019-07-07T12:01:34.000Z</time>
      </trkpt>
      <trkpt lat="40.7746968604624271392822265625" lon="-1.509232409298419952392578125">
        <ele>1055.5999755859375</ele>
        <time>2019-07-07T12:01:35.000Z</time>
      </trkpt>
      <trkpt lat="40.77476232312619686126708984375" lon="-1.51010840199887752532958984375">
        <ele>1057.199951171875</ele>
        <time>2019-07-07T12:01:38.000Z</time>
      </trkpt>
      <trkpt lat="40.774832479655742645263671875" lon="-1.51067820377647876739501953125">
        <ele>1058.199951171875</ele>
        <time>2019-07-07T12:01:40.000Z</time>
      </trkpt>
      <trkpt lat="40.7748712040483951568603515625" lon="-1.5109706483781337738037109375">
        <ele>1059.800048828125</ele>
        <time>2019-07-07T12:01:41.000Z</time>
      </trkpt>
      <trkpt lat="40.774950496852397918701171875" lon="-1.511578671634197235107421875">
        <ele>1061</ele>
        <time>2019-07-07T12:01:43.000Z</time>
      </trkpt>
      <trkpt lat="40.77498905360698699951171875" lon="-1.51189508847892284393310546875">
        <ele>1064</ele>
        <time>2019-07-07T12:01:44.000Z</time>
      </trkpt>
      <trkpt lat="40.7750291191041469573974609375" lon="-1.51221812702715396881103515625">
        <ele>1065.199951171875</ele>
        <time>2019-07-07T12:01:45.000Z</time>
      </trkpt>
      <trkpt lat="40.77507094480097293853759765625" lon="-1.5125461108982563018798828125">
        <ele>1063.5999755859375</ele>
        <time>2019-07-07T12:01:46.000Z</time>
      </trkpt>
      <trkpt lat="40.77515325509011745452880859375" lon="-1.5132022462785243988037109375">
        <ele>1061.5999755859375</ele>
        <time>2019-07-07T12:01:48.000Z</time>
      </trkpt>
      <trkpt lat="40.77523422427475452423095703125" lon="-1.5138489939272403717041015625">
        <ele>1061</ele>
        <time>2019-07-07T12:01:50.000Z</time>
      </trkpt>
      <trkpt lat="40.7752755470573902130126953125" lon="-1.5141675062477588653564453125">
        <ele>1060.4000244140625</ele>
        <time>2019-07-07T12:01:51.000Z</time>
      </trkpt>
      <trkpt lat="40.77535727061331272125244140625" lon="-1.51479321531951427459716796875">
        <ele>1061.199951171875</ele>
        <time>2019-07-07T12:01:53.000Z</time>
      </trkpt>
      <trkpt lat="40.77539716847240924835205078125" lon="-1.5150985680520534515380859375">
        <ele>1061.800048828125</ele>
        <time>2019-07-07T12:01:54.000Z</time>
      </trkpt>
      <trkpt lat="40.77543564140796661376953125" lon="-1.5154006518423557281494140625">
        <ele>1060.5999755859375</ele>
        <time>2019-07-07T12:01:55.000Z</time>
      </trkpt>
      <trkpt lat="40.77551367692649364471435546875" lon="-1.51600171811878681182861328125">
        <ele>1059.800048828125</ele>
        <time>2019-07-07T12:01:57.000Z</time>
      </trkpt>
      <trkpt lat="40.77555290423333644866943359375" lon="-1.51630246080458164215087890625">
        <ele>1056.4000244140625</ele>
        <time>2019-07-07T12:01:58.000Z</time>
      </trkpt>
      <trkpt lat="40.7755910418927669525146484375" lon="-1.51660286821424961090087890625">
        <ele>1054.4000244140625</ele>
        <time>2019-07-07T12:01:59.000Z</time>
      </trkpt>
      <trkpt lat="40.7756272517144680023193359375" lon="-1.5169053710997104644775390625">
        <ele>1053.199951171875</ele>
        <time>2019-07-07T12:02:00.000Z</time>
      </trkpt>
      <trkpt lat="40.77566421590745449066162109375" lon="-1.51720871217548847198486328125">
        <ele>1054.800048828125</ele>
        <time>2019-07-07T12:02:01.000Z</time>
      </trkpt>
      <trkpt lat="40.775702185928821563720703125" lon="-1.5175125561654567718505859375">
        <ele>1055.800048828125</ele>
        <time>2019-07-07T12:02:02.000Z</time>
      </trkpt>
      <trkpt lat="40.77577904798090457916259765625" lon="-1.5181163884699344635009765625">
        <ele>1057.199951171875</ele>
        <time>2019-07-07T12:02:04.000Z</time>
      </trkpt>
      <trkpt lat="40.77585465274751186370849609375" lon="-1.518726088106632232666015625">
        <ele>1058.800048828125</ele>
        <time>2019-07-07T12:02:06.000Z</time>
      </trkpt>
      <trkpt lat="40.77589337714016437530517578125" lon="-1.5190328657627105712890625">
        <ele>1061</ele>
        <time>2019-07-07T12:02:07.000Z</time>
      </trkpt>
      <trkpt lat="40.77593143098056316375732421875" lon="-1.51934199035167694091796875">
        <ele>1062.800048828125</ele>
        <time>2019-07-07T12:02:08.000Z</time>
      </trkpt>
      <trkpt lat="40.775969736278057098388671875" lon="-1.51965178549289703369140625">
        <ele>1065.4000244140625</ele>
        <time>2019-07-07T12:02:09.000Z</time>
      </trkpt>
      <trkpt lat="40.7760081253945827484130859375" lon="-1.5199630893766880035400390625">
        <ele>1067.4000244140625</ele>
        <time>2019-07-07T12:02:10.000Z</time>
      </trkpt>
      <trkpt lat="40.776085741817951202392578125" lon="-1.5205924026668071746826171875">
        <ele>1068.5999755859375</ele>
        <time>2019-07-07T12:02:12.000Z</time>
      </trkpt>
      <trkpt lat="40.77616612426936626434326171875" lon="-1.5212317742407321929931640625">
        <ele>1068.800048828125</ele>
        <time>2019-07-07T12:02:14.000Z</time>
      </trkpt>
      <trkpt lat="40.7762478478252887725830078125" lon="-1.52187290601432323455810546875">
        <ele>1069.4000244140625</ele>
        <time>2019-07-07T12:02:16.000Z</time>
      </trkpt>
      <trkpt lat="40.776329822838306427001953125" lon="-1.52250221930444240570068359375">
        <ele>1068.4000244140625</ele>
        <time>2019-07-07T12:02:18.000Z</time>
      </trkpt>
      <trkpt lat="40.77642948366701602935791015625" lon="-1.52311057783663272857666015625">
        <ele>1065.4000244140625</ele>
        <time>2019-07-07T12:02:20.000Z</time>
      </trkpt>
      <trkpt lat="40.7765697129070758819580078125" lon="-1.5236930362880229949951171875">
        <ele>1067.800048828125</ele>
        <time>2019-07-07T12:02:22.000Z</time>
      </trkpt>
      <trkpt lat="40.776752270758152008056640625" lon="-1.5242579765617847442626953125">
        <ele>1067.4000244140625</ele>
        <time>2019-07-07T12:02:24.000Z</time>
      </trkpt>
      <trkpt lat="40.77695067040622234344482421875" lon="-1.524833478033542633056640625">
        <ele>1066.800048828125</ele>
        <time>2019-07-07T12:02:26.000Z</time>
      </trkpt>
      <trkpt lat="40.7771554403007030487060546875" lon="-1.525420881807804107666015625">
        <ele>1065</ele>
        <time>2019-07-07T12:02:28.000Z</time>
      </trkpt>
      <trkpt lat="40.777260549366474151611328125" lon="-1.52571718208491802215576171875">
        <ele>1062.4000244140625</ele>
        <time>2019-07-07T12:02:29.000Z</time>
      </trkpt>
      <trkpt lat="40.777363814413547515869140625" lon="-1.52601666748523712158203125">
        <ele>1061</ele>
        <time>2019-07-07T12:02:30.000Z</time>
      </trkpt>
      <trkpt lat="40.77746766619384288787841796875" lon="-1.52631598524749279022216796875">
        <ele>1062.4000244140625</ele>
        <time>2019-07-07T12:02:31.000Z</time>
      </trkpt>
      <trkpt lat="40.77767671085894107818603515625" lon="-1.526904813945293426513671875">
        <ele>1061.199951171875</ele>
        <time>2019-07-07T12:02:33.000Z</time>
      </trkpt>
      <trkpt lat="40.77777922153472900390625" lon="-1.52719574980437755584716796875">
        <ele>1062.199951171875</ele>
        <time>2019-07-07T12:02:34.000Z</time>
      </trkpt>
      <trkpt lat="40.77788022346794605255126953125" lon="-1.52748660184442996978759765625">
        <ele>1065</ele>
        <time>2019-07-07T12:02:35.000Z</time>
      </trkpt>
      <trkpt lat="40.77797980047762393951416015625" lon="-1.5277741849422454833984375">
        <ele>1066.5999755859375</ele>
        <time>2019-07-07T12:02:36.000Z</time>
      </trkpt>
      <trkpt lat="40.77818566001951694488525390625" lon="-1.52835127897560596466064453125">
        <ele>1067</ele>
        <time>2019-07-07T12:02:38.000Z</time>
      </trkpt>
      <trkpt lat="40.77839705161750316619873046875" lon="-1.5289463102817535400390625">
        <ele>1067.5999755859375</ele>
        <time>2019-07-07T12:02:40.000Z</time>
      </trkpt>
      <trkpt lat="40.77862478792667388916015625" lon="-1.5295835025608539581298828125">
        <ele>1066.5999755859375</ele>
        <time>2019-07-07T12:02:42.000Z</time>
      </trkpt>
      <trkpt lat="40.77887029387056827545166015625" lon="-1.53027593158185482025146484375">
        <ele>1065.199951171875</ele>
        <time>2019-07-07T12:02:44.000Z</time>
      </trkpt>
      <trkpt lat="40.77912108041346073150634765625" lon="-1.53098369948565959930419921875">
        <ele>1063.800048828125</ele>
        <time>2019-07-07T12:02:46.000Z</time>
      </trkpt>
      <trkpt lat="40.77924680896103382110595703125" lon="-1.53133188374340534210205078125">
        <ele>1061.4000244140625</ele>
        <time>2019-07-07T12:02:47.000Z</time>
      </trkpt>
      <trkpt lat="40.77937220223248004913330078125" lon="-1.531672775745391845703125">
        <ele>1057.4000244140625</ele>
        <time>2019-07-07T12:02:48.000Z</time>
      </trkpt>
      <trkpt lat="40.7794998586177825927734375" lon="-1.531998999416828155517578125">
        <ele>1054</ele>
        <time>2019-07-07T12:02:49.000Z</time>
      </trkpt>
      <trkpt lat="40.77963522635400295257568359375" lon="-1.53230351395905017852783203125">
        <ele>1050.800048828125</ele>
        <time>2019-07-07T12:02:50.000Z</time>
      </trkpt>
      <trkpt lat="40.7797809876501560211181640625" lon="-1.53257994912564754486083984375">
        <ele>1048.199951171875</ele>
        <time>2019-07-07T12:02:51.000Z</time>
      </trkpt>
      <trkpt lat="40.7799382321536540985107421875" lon="-1.5328269638121128082275390625">
        <ele>1045.199951171875</ele>
        <time>2019-07-07T12:02:52.000Z</time>
      </trkpt>
      <trkpt lat="40.7801060378551483154296875" lon="-1.533050425350666046142578125">
        <ele>1043.800048828125</ele>
        <time>2019-07-07T12:02:53.000Z</time>
      </trkpt>
      <trkpt lat="40.7802776992321014404296875" lon="-1.53325469233095645904541015625">
        <ele>1045.4000244140625</ele>
        <time>2019-07-07T12:02:54.000Z</time>
      </trkpt>
      <trkpt lat="40.7804453372955322265625" lon="-1.53344278223812580108642578125">
        <ele>1049</ele>
        <time>2019-07-07T12:02:55.000Z</time>
      </trkpt>
      <trkpt lat="40.7806049287319183349609375" lon="-1.5336188860237598419189453125">
        <ele>1051.4000244140625</ele>
        <time>2019-07-07T12:02:56.000Z</time>
      </trkpt>
      <trkpt lat="40.7807506062090396881103515625" lon="-1.53379239141941070556640625">
        <ele>1054.5999755859375</ele>
        <time>2019-07-07T12:02:57.000Z</time>
      </trkpt>
      <trkpt lat="40.78087918460369110107421875" lon="-1.53396916575729846954345703125">
        <ele>1056.800048828125</ele>
        <time>2019-07-07T12:02:58.000Z</time>
      </trkpt>
      <trkpt lat="40.78099058009684085845947265625" lon="-1.53415583074092864990234375">
        <ele>1058.5999755859375</ele>
        <time>2019-07-07T12:02:59.000Z</time>
      </trkpt>
      <trkpt lat="40.78115251846611499786376953125" lon="-1.53457291424274444580078125">
        <ele>1060.4000244140625</ele>
        <time>2019-07-07T12:03:01.000Z</time>
      </trkpt>
      <trkpt lat="40.78122225590050220489501953125" lon="-1.535041965544223785400390625">
        <ele>1061.199951171875</ele>
        <time>2019-07-07T12:03:03.000Z</time>
      </trkpt>
      <trkpt lat="40.78122192062437534332275390625" lon="-1.53528780676424503326416015625">
        <ele>1062.199951171875</ele>
        <time>2019-07-07T12:03:04.000Z</time>
      </trkpt>
      <trkpt lat="40.78119124285876750946044921875" lon="-1.53553423471748828887939453125">
        <ele>1062.4000244140625</ele>
        <time>2019-07-07T12:03:05.000Z</time>
      </trkpt>
      <trkpt lat="40.7810342498123645782470703125" lon="-1.536012925207614898681640625">
        <ele>1063.199951171875</ele>
        <time>2019-07-07T12:03:07.000Z</time>
      </trkpt>
      <trkpt lat="40.78076058067381381988525390625" lon="-1.5364244766533374786376953125">
        <ele>1061.5999755859375</ele>
        <time>2019-07-07T12:03:09.000Z</time>
      </trkpt>
      <trkpt lat="40.78038859181106090545654296875" lon="-1.53672748245298862457275390625">
        <ele>1062.199951171875</ele>
        <time>2019-07-07T12:03:11.000Z</time>
      </trkpt>
      <trkpt lat="40.78017711639404296875" lon="-1.5368427336215972900390625">
        <ele>1063</ele>
        <time>2019-07-07T12:03:12.000Z</time>
      </trkpt>
      <trkpt lat="40.779726505279541015625" lon="-1.5370331704616546630859375">
        <ele>1061.199951171875</ele>
        <time>2019-07-07T12:03:14.000Z</time>
      </trkpt>
      <trkpt lat="40.77926893718540668487548828125" lon="-1.537207178771495819091796875">
        <ele>1062.800048828125</ele>
        <time>2019-07-07T12:03:16.000Z</time>
      </trkpt>
      <trkpt lat="40.77884062193334102630615234375" lon="-1.5374403633177280426025390625">
        <ele>1064</ele>
        <time>2019-07-07T12:03:18.000Z</time>
      </trkpt>
      <trkpt lat="40.77864649705588817596435546875" lon="-1.537598110735416412353515625">
        <ele>1063</ele>
        <time>2019-07-07T12:03:19.000Z</time>
      </trkpt>
      <trkpt lat="40.77846880070865154266357421875" lon="-1.53778058476746082305908203125">
        <ele>1063.800048828125</ele>
        <time>2019-07-07T12:03:20.000Z</time>
      </trkpt>
      <trkpt lat="40.77830987982451915740966796875" lon="-1.5379880368709564208984375">
        <ele>1065</ele>
        <time>2019-07-07T12:03:21.000Z</time>
      </trkpt>
      <trkpt lat="40.77816881239414215087890625" lon="-1.538215018808841705322265625">
        <ele>1065.5999755859375</ele>
        <time>2019-07-07T12:03:22.000Z</time>
      </trkpt>
      <trkpt lat="40.77803864143788814544677734375" lon="-1.53845465742051601409912109375">
        <ele>1066.800048828125</ele>
        <time>2019-07-07T12:03:23.000Z</time>
      </trkpt>
      <trkpt lat="40.77778852544724941253662109375" lon="-1.53894885443150997161865234375">
        <ele>1067.5999755859375</ele>
        <time>2019-07-07T12:03:25.000Z</time>
      </trkpt>
      <trkpt lat="40.7776573486626148223876953125" lon="-1.5392005629837512969970703125">
        <ele>1068.4000244140625</ele>
        <time>2019-07-07T12:03:26.000Z</time>
      </trkpt>
      <trkpt lat="40.77752348966896533966064453125" lon="-1.53945721685886383056640625">
        <ele>1069.800048828125</ele>
        <time>2019-07-07T12:03:27.000Z</time>
      </trkpt>
      <trkpt lat="40.7774018682539463043212890625" lon="-1.53972703032195568084716796875">
        <ele>1070.800048828125</ele>
        <time>2019-07-07T12:03:28.000Z</time>
      </trkpt>
      <trkpt lat="40.77729986049234867095947265625" lon="-1.54000966809689998626708984375">
        <ele>1071.199951171875</ele>
        <time>2019-07-07T12:03:29.000Z</time>
      </trkpt>
      <trkpt lat="40.7772224955260753631591796875" lon="-1.54030747711658477783203125">
        <ele>1071.199951171875</ele>
        <time>2019-07-07T12:03:30.000Z</time>
      </trkpt>
      <trkpt lat="40.7771678455173969268798828125" lon="-1.54062003828585147857666015625">
        <ele>1070</ele>
        <time>2019-07-07T12:03:31.000Z</time>
      </trkpt>
      <trkpt lat="40.7771296240389347076416015625" lon="-1.540944837033748626708984375">
        <ele>1067</ele>
        <time>2019-07-07T12:03:32.000Z</time>
      </trkpt>
      <trkpt lat="40.7771004550158977508544921875" lon="-1.54127977788448333740234375">
        <ele>1063</ele>
        <time>2019-07-07T12:03:33.000Z</time>
      </trkpt>
      <trkpt lat="40.77707371674478054046630859375" lon="-1.54162217862904071807861328125">
        <ele>1061</ele>
        <time>2019-07-07T12:03:34.000Z</time>
      </trkpt>
      <trkpt lat="40.77701806090772151947021484375" lon="-1.5423250012099742889404296875">
        <ele>1059.800048828125</ele>
        <time>2019-07-07T12:03:36.000Z</time>
      </trkpt>
      <trkpt lat="40.77695787884294986724853515625" lon="-1.543026231229305267333984375">
        <ele>1058.800048828125</ele>
        <time>2019-07-07T12:03:38.000Z</time>
      </trkpt>
      <trkpt lat="40.776929296553134918212890625" lon="-1.54335371218621730804443359375">
        <ele>1057.5999755859375</ele>
        <time>2019-07-07T12:03:39.000Z</time>
      </trkpt>
      <trkpt lat="40.7769023068249225616455078125" lon="-1.54365755617618560791015625">
        <ele>1058.800048828125</ele>
        <time>2019-07-07T12:03:40.000Z</time>
      </trkpt>
      <trkpt lat="40.77683282084763050079345703125" lon="-1.5441958419978618621826171875">
        <ele>1059.5999755859375</ele>
        <time>2019-07-07T12:03:42.000Z</time>
      </trkpt>
      <trkpt lat="40.77677364461123943328857421875" lon="-1.54442676343023777008056640625">
        <ele>1060.800048828125</ele>
        <time>2019-07-07T12:03:43.000Z</time>
      </trkpt>
      <trkpt lat="40.77669083140790462493896484375" lon="-1.544630192220211029052734375">
        <ele>1062.199951171875</ele>
        <time>2019-07-07T12:03:44.000Z</time>
      </trkpt>
      <trkpt lat="40.77658094465732574462890625" lon="-1.54480420053005218505859375">
        <ele>1065.199951171875</ele>
        <time>2019-07-07T12:03:45.000Z</time>
      </trkpt>
      <trkpt lat="40.77644557692110538482666015625" lon="-1.54494644142687320709228515625">
        <ele>1069</ele>
        <time>2019-07-07T12:03:46.000Z</time>
      </trkpt>
      <trkpt lat="40.776289589703083038330078125" lon="-1.545051634311676025390625">
        <ele>1073.5999755859375</ele>
        <time>2019-07-07T12:03:47.000Z</time>
      </trkpt>
      <trkpt lat="40.7761157490313053131103515625" lon="-1.54511810280382633209228515625">
        <ele>1076.800048828125</ele>
        <time>2019-07-07T12:03:48.000Z</time>
      </trkpt>
      <trkpt lat="40.7759239710867404937744140625" lon="-1.54514408670365810394287109375">
        <ele>1078.5999755859375</ele>
        <time>2019-07-07T12:03:49.000Z</time>
      </trkpt>
      <trkpt lat="40.77572037465870380401611328125" lon="-1.54512966983020305633544921875">
        <ele>1079.4000244140625</ele>
        <time>2019-07-07T12:03:50.000Z</time>
      </trkpt>
      <trkpt lat="40.77551032416522502899169921875" lon="-1.5450799651443958282470703125">
        <ele>1080.199951171875</ele>
        <time>2019-07-07T12:03:51.000Z</time>
      </trkpt>
      <trkpt lat="40.7748487405478954315185546875" lon="-1.5448901988565921783447265625">
        <ele>1079.4000244140625</ele>
        <time>2019-07-07T12:03:54.000Z</time>
      </trkpt>
      <trkpt lat="40.774623937904834747314453125" lon="-1.54486211948096752166748046875">
        <ele>1079.199951171875</ele>
        <time>2019-07-07T12:03:55.000Z</time>
      </trkpt>
      <trkpt lat="40.7741795293986797332763671875" lon="-1.54490386135876178741455078125">
        <ele>1081</ele>
        <time>2019-07-07T12:03:57.000Z</time>
      </trkpt>
      <trkpt lat="40.7737637870013713836669921875" lon="-1.54509312473237514495849609375">
        <ele>1082</ele>
        <time>2019-07-07T12:03:59.000Z</time>
      </trkpt>
      <trkpt lat="40.773404538631439208984375" lon="-1.54541599564254283905029296875">
        <ele>1083.800048828125</ele>
        <time>2019-07-07T12:04:01.000Z</time>
      </trkpt>
      <trkpt lat="40.77310840599238872528076171875" lon="-1.5458702109754085540771484375">
        <ele>1083.800048828125</ele>
        <time>2019-07-07T12:04:03.000Z</time>
      </trkpt>
      <trkpt lat="40.77289885841310024261474609375" lon="-1.54643825255334377288818359375">
        <ele>1084.5999755859375</ele>
        <time>2019-07-07T12:04:05.000Z</time>
      </trkpt>
      <trkpt lat="40.77281587757170200347900390625" lon="-1.54675148427486419677734375">
        <ele>1085</ele>
        <time>2019-07-07T12:04:06.000Z</time>
      </trkpt>
      <trkpt lat="40.7726570405066013336181640625" lon="-1.5473853237926959991455078125">
        <ele>1086.5999755859375</ele>
        <time>2019-07-07T12:04:08.000Z</time>
      </trkpt>
      <trkpt lat="40.77250373549759387969970703125" lon="-1.54802159406244754791259765625">
        <ele>1087.4000244140625</ele>
        <time>2019-07-07T12:04:10.000Z</time>
      </trkpt>
      <trkpt lat="40.772445313632488250732421875" lon="-1.5483442135155200958251953125">
        <ele>1088.5999755859375</ele>
        <time>2019-07-07T12:04:11.000Z</time>
      </trkpt>
      <trkpt lat="40.77240466140210628509521484375" lon="-1.54867085628211498260498046875">
        <ele>1090.5999755859375</ele>
        <time>2019-07-07T12:04:12.000Z</time>
      </trkpt>
      <trkpt lat="40.7723834551870822906494140625" lon="-1.5490038692951202392578125">
        <ele>1091.800048828125</ele>
        <time>2019-07-07T12:04:13.000Z</time>
      </trkpt>
      <trkpt lat="40.77239359728991985321044921875" lon="-1.54968942515552043914794921875">
        <ele>1093.4000244140625</ele>
        <time>2019-07-07T12:04:15.000Z</time>
      </trkpt>
      <trkpt lat="40.77244095504283905029296875" lon="-1.5503959357738494873046875">
        <ele>1095.4000244140625</ele>
        <time>2019-07-07T12:04:17.000Z</time>
      </trkpt>
      <trkpt lat="40.772464089095592498779296875" lon="-1.55075493268668651580810546875">
        <ele>1097.199951171875</ele>
        <time>2019-07-07T12:04:18.000Z</time>
      </trkpt>
      <trkpt lat="40.77251161448657512664794921875" lon="-1.55147829093039035797119140625">
        <ele>1097</ele>
        <time>2019-07-07T12:04:20.000Z</time>
      </trkpt>
      <trkpt lat="40.7725795917212963104248046875" lon="-1.5521911717951297760009765625">
        <ele>1098</ele>
        <time>2019-07-07T12:04:22.000Z</time>
      </trkpt>
      <trkpt lat="40.77272124588489532470703125" lon="-1.5528823435306549072265625">
        <ele>1094.5999755859375</ele>
        <time>2019-07-07T12:04:24.000Z</time>
      </trkpt>
      <trkpt lat="40.77281386591494083404541015625" lon="-1.5532197989523410797119140625">
        <ele>1091.199951171875</ele>
        <time>2019-07-07T12:04:25.000Z</time>
      </trkpt>
      <trkpt lat="40.77291025780141353607177734375" lon="-1.5535564161837100982666015625">
        <ele>1089.5999755859375</ele>
        <time>2019-07-07T12:04:26.000Z</time>
      </trkpt>
      <trkpt lat="40.77310170046985149383544921875" lon="-1.5542299859225749969482421875">
        <ele>1088.4000244140625</ele>
        <time>2019-07-07T12:04:28.000Z</time>
      </trkpt>
      <trkpt lat="40.77319608069956302642822265625" lon="-1.55456802807748317718505859375">
        <ele>1089.5999755859375</ele>
        <time>2019-07-07T12:04:29.000Z</time>
      </trkpt>
      <trkpt lat="40.7732903771102428436279296875" lon="-1.55490615405142307281494140625">
        <ele>1090.800048828125</ele>
        <time>2019-07-07T12:04:30.000Z</time>
      </trkpt>
      <trkpt lat="40.7733852602541446685791015625" lon="-1.55524562112987041473388671875">
        <ele>1092.199951171875</ele>
        <time>2019-07-07T12:04:31.000Z</time>
      </trkpt>
      <trkpt lat="40.773576200008392333984375" lon="-1.55592958442866802215576171875">
        <ele>1094</ele>
        <time>2019-07-07T12:04:33.000Z</time>
      </trkpt>
      <trkpt lat="40.7736725918948650360107421875" lon="-1.55627424828708171844482421875">
        <ele>1095.199951171875</ele>
        <time>2019-07-07T12:04:34.000Z</time>
      </trkpt>
      <trkpt lat="40.77386654913425445556640625" lon="-1.55696810223162174224853515625">
        <ele>1095.5999755859375</ele>
        <time>2019-07-07T12:04:36.000Z</time>
      </trkpt>
      <trkpt lat="40.7740631885826587677001953125" lon="-1.55766447074711322784423828125">
        <ele>1095.5999755859375</ele>
        <time>2019-07-07T12:04:38.000Z</time>
      </trkpt>
      <trkpt lat="40.77425873838365077972412109375" lon="-1.55836938880383968353271484375">
        <ele>1095.5999755859375</ele>
        <time>2019-07-07T12:04:40.000Z</time>
      </trkpt>
      <trkpt lat="40.7744537852704524993896484375" lon="-1.5590653382241725921630859375">
        <ele>1096.4000244140625</ele>
        <time>2019-07-07T12:04:42.000Z</time>
      </trkpt>
      <trkpt lat="40.7745496742427349090576171875" lon="-1.55940840952098369598388671875">
        <ele>1097.800048828125</ele>
        <time>2019-07-07T12:04:43.000Z</time>
      </trkpt>
      <trkpt lat="40.77464573085308074951171875" lon="-1.5597482956945896148681640625">
        <ele>1100.199951171875</ele>
        <time>2019-07-07T12:04:44.000Z</time>
      </trkpt>
      <trkpt lat="40.7747411169111728668212890625" lon="-1.5600867569446563720703125">
        <ele>1103.4000244140625</ele>
        <time>2019-07-07T12:04:45.000Z</time>
      </trkpt>
      <trkpt lat="40.7748353295028209686279296875" lon="-1.56042647548019886016845703125">
        <ele>1105.4000244140625</ele>
        <time>2019-07-07T12:04:46.000Z</time>
      </trkpt>
      <trkpt lat="40.77492929063737392425537109375" lon="-1.56076795421540737152099609375">
        <ele>1108</ele>
        <time>2019-07-07T12:04:47.000Z</time>
      </trkpt>
      <trkpt lat="40.77502383850514888763427734375" lon="-1.5611108578741550445556640625">
        <ele>1109.4000244140625</ele>
        <time>2019-07-07T12:04:48.000Z</time>
      </trkpt>
      <trkpt lat="40.775118805468082427978515625" lon="-1.56145401298999786376953125">
        <ele>1110.5999755859375</ele>
        <time>2019-07-07T12:04:49.000Z</time>
      </trkpt>
      <trkpt lat="40.77521377243101596832275390625" lon="-1.561795659363269805908203125">
        <ele>1112.5999755859375</ele>
        <time>2019-07-07T12:04:50.000Z</time>
      </trkpt>
      <trkpt lat="40.77530865557491779327392578125" lon="-1.56213487498462200164794921875">
        <ele>1113.800048828125</ele>
        <time>2019-07-07T12:04:51.000Z</time>
      </trkpt>
      <trkpt lat="40.775402449071407318115234375" lon="-1.56246914528310298919677734375">
        <ele>1115.800048828125</ele>
        <time>2019-07-07T12:04:52.000Z</time>
      </trkpt>
      <trkpt lat="40.77558316290378570556640625" lon="-1.56311564147472381591796875">
        <ele>1115.800048828125</ele>
        <time>2019-07-07T12:04:54.000Z</time>
      </trkpt>
      <trkpt lat="40.77575474046170711517333984375" lon="-1.56373749487102031707763671875">
        <ele>1118</ele>
        <time>2019-07-07T12:04:56.000Z</time>
      </trkpt>
      <trkpt lat="40.775838308036327362060546875" lon="-1.56403790228068828582763671875">
        <ele>1119.800048828125</ele>
        <time>2019-07-07T12:04:57.000Z</time>
      </trkpt>
      <trkpt lat="40.7759196124970912933349609375" lon="-1.5643301792442798614501953125">
        <ele>1122.199951171875</ele>
        <time>2019-07-07T12:04:58.000Z</time>
      </trkpt>
      <trkpt lat="40.77607844956219196319580078125" lon="-1.5648914314806461334228515625">
        <ele>1121.5999755859375</ele>
        <time>2019-07-07T12:05:00.000Z</time>
      </trkpt>
      <trkpt lat="40.77621884644031524658203125" lon="-1.5653873048722743988037109375">
        <ele>1121</ele>
        <time>2019-07-07T12:05:02.000Z</time>
      </trkpt>
      <trkpt lat="40.776337869465351104736328125" lon="-1.56582140363752841949462890625">
        <ele>1119.800048828125</ele>
        <time>2019-07-07T12:05:04.000Z</time>
      </trkpt>
      <trkpt lat="40.7764475047588348388671875" lon="-1.56621401198208332061767578125">
        <ele>1121.4000244140625</ele>
        <time>2019-07-07T12:05:06.000Z</time>
      </trkpt>
      <trkpt lat="40.77649972401559352874755859375" lon="-1.56640310771763324737548828125">
        <ele>1124</ele>
        <time>2019-07-07T12:05:07.000Z</time>
      </trkpt>
      <trkpt lat="40.77655269764363765716552734375" lon="-1.566592790186405181884765625">
        <ele>1126.5999755859375</ele>
        <time>2019-07-07T12:05:08.000Z</time>
      </trkpt>
      <trkpt lat="40.77660567127168178558349609375" lon="-1.56678113155066967010498046875">
        <ele>1130</ele>
        <time>2019-07-07T12:05:09.000Z</time>
      </trkpt>
      <trkpt lat="40.776659063994884490966796875" lon="-1.566968970000743865966796875">
        <ele>1133</ele>
        <time>2019-07-07T12:05:10.000Z</time>
      </trkpt>
      <trkpt lat="40.7767138816416263580322265625" lon="-1.5671599097549915313720703125">
        <ele>1134.800048828125</ele>
        <time>2019-07-07T12:05:11.000Z</time>
      </trkpt>
      <trkpt lat="40.77676844783127307891845703125" lon="-1.56735277734696865081787109375">
        <ele>1136</ele>
        <time>2019-07-07T12:05:12.000Z</time>
      </trkpt>
      <trkpt lat="40.776930637657642364501953125" lon="-1.56793615780770778656005859375">
        <ele>1135.800048828125</ele>
        <time>2019-07-07T12:05:15.000Z</time>
      </trkpt>
      <trkpt lat="40.77698570676147937774658203125" lon="-1.56813480891287326812744140625">
        <ele>1133.800048828125</ele>
        <time>2019-07-07T12:05:16.000Z</time>
      </trkpt>
      <trkpt lat="40.7770401053130626678466796875" lon="-1.56833614222705364227294921875">
        <ele>1130.5999755859375</ele>
        <time>2019-07-07T12:05:17.000Z</time>
      </trkpt>
      <trkpt lat="40.77709534205496311187744140625" lon="-1.56853848136961460113525390625">
        <ele>1129.199951171875</ele>
        <time>2019-07-07T12:05:18.000Z</time>
      </trkpt>
      <trkpt lat="40.77715133316814899444580078125" lon="-1.56874115578830242156982421875">
        <ele>1127.800048828125</ele>
        <time>2019-07-07T12:05:19.000Z</time>
      </trkpt>
      <trkpt lat="40.777264572679996490478515625" lon="-1.569150276482105255126953125">
        <ele>1128.800048828125</ele>
        <time>2019-07-07T12:05:21.000Z</time>
      </trkpt>
      <trkpt lat="40.777321569621562957763671875" lon="-1.56935940496623516082763671875">
        <ele>1131.4000244140625</ele>
        <time>2019-07-07T12:05:22.000Z</time>
      </trkpt>
      <trkpt lat="40.77742475084960460662841796875" lon="-1.569786630570888519287109375">
        <ele>1133</ele>
        <time>2019-07-07T12:05:24.000Z</time>
      </trkpt>
      <trkpt lat="40.7774947397410869598388671875" lon="-1.570241264998912811279296875">
        <ele>1131.800048828125</ele>
        <time>2019-07-07T12:05:26.000Z</time>
      </trkpt>
      <trkpt lat="40.77750630676746368408203125" lon="-1.570481322705745697021484375">
        <ele>1130</ele>
        <time>2019-07-07T12:05:27.000Z</time>
      </trkpt>
      <trkpt lat="40.777498595416545867919921875" lon="-1.57072632573544979095458984375">
        <ele>1127.4000244140625</ele>
        <time>2019-07-07T12:05:28.000Z</time>
      </trkpt>
      <trkpt lat="40.77747269533574581146240234375" lon="-1.57097258605062961578369140625">
        <ele>1125.4000244140625</ele>
        <time>2019-07-07T12:05:29.000Z</time>
      </trkpt>
      <trkpt lat="40.77742743305861949920654296875" lon="-1.57121599651873111724853515625">
        <ele>1124.4000244140625</ele>
        <time>2019-07-07T12:05:30.000Z</time>
      </trkpt>
      <trkpt lat="40.77728628180921077728271484375" lon="-1.57168395817279815673828125">
        <ele>1126.4000244140625</ele>
        <time>2019-07-07T12:05:32.000Z</time>
      </trkpt>
      <trkpt lat="40.7771990261971950531005859375" lon="-1.57191471196711063385009765625">
        <ele>1129</ele>
        <time>2019-07-07T12:05:33.000Z</time>
      </trkpt>
      <trkpt lat="40.77710942365229129791259765625" lon="-1.5721461363136768341064453125">
        <ele>1131.4000244140625</ele>
        <time>2019-07-07T12:05:34.000Z</time>
      </trkpt>
      <trkpt lat="40.77701554633677005767822265625" lon="-1.57237940467894077301025390625">
        <ele>1133.5999755859375</ele>
        <time>2019-07-07T12:05:35.000Z</time>
      </trkpt>
      <trkpt lat="40.77691756188869476318359375" lon="-1.57261510379612445831298828125">
        <ele>1135.4000244140625</ele>
        <time>2019-07-07T12:05:36.000Z</time>
      </trkpt>
      <trkpt lat="40.7766111195087432861328125" lon="-1.57336712814867496490478515625">
        <ele>1136</ele>
        <time>2019-07-07T12:05:39.000Z</time>
      </trkpt>
      <trkpt lat="40.7763950340449810028076171875" lon="-1.5739053301513195037841796875">
        <ele>1135.5999755859375</ele>
        <time>2019-07-07T12:05:41.000Z</time>
      </trkpt>
      <trkpt lat="40.77616863884031772613525390625" lon="-1.57447521574795246124267578125">
        <ele>1134.4000244140625</ele>
        <time>2019-07-07T12:05:43.000Z</time>
      </trkpt>
      <trkpt lat="40.77605481259524822235107421875" lon="-1.57476447522640228271484375">
        <ele>1133.199951171875</ele>
        <time>2019-07-07T12:05:44.000Z</time>
      </trkpt>
      <trkpt lat="40.7759414054453372955322265625" lon="-1.57505105249583721160888671875">
        <ele>1131</ele>
        <time>2019-07-07T12:05:45.000Z</time>
      </trkpt>
      <trkpt lat="40.775828249752521514892578125" lon="-1.57533301971852779388427734375">
        <ele>1130</ele>
        <time>2019-07-07T12:05:46.000Z</time>
      </trkpt>
      <trkpt lat="40.77571534551680088043212890625" lon="-1.57561280764639377593994140625">
        <ele>1127</ele>
        <time>2019-07-07T12:05:47.000Z</time>
      </trkpt>
      <trkpt lat="40.7756024412810802459716796875" lon="-1.5758948586881160736083984375">
        <ele>1129.5999755859375</ele>
        <time>2019-07-07T12:05:48.000Z</time>
      </trkpt>
      <trkpt lat="40.77549062669277191162109375" lon="-1.57618043012917041778564453125">
        <ele>1132</ele>
        <time>2019-07-07T12:05:49.000Z</time>
      </trkpt>
      <trkpt lat="40.77526574023067951202392578125" lon="-1.57675735652446746826171875">
        <ele>1134.4000244140625</ele>
        <time>2019-07-07T12:05:51.000Z</time>
      </trkpt>
      <trkpt lat="40.77515258453786373138427734375" lon="-1.5770463645458221435546875">
        <ele>1136.5999755859375</ele>
        <time>2019-07-07T12:05:52.000Z</time>
      </trkpt>
      <trkpt lat="40.775040686130523681640625" lon="-1.5773318521678447723388671875">
        <ele>1137.5999755859375</ele>
        <time>2019-07-07T12:05:53.000Z</time>
      </trkpt>
      <trkpt lat="40.774930380284786224365234375" lon="-1.57761306501924991607666015625">
        <ele>1139</ele>
        <time>2019-07-07T12:05:54.000Z</time>
      </trkpt>
      <trkpt lat="40.77471421100199222564697265625" lon="-1.5781680308282375335693359375">
        <ele>1139.199951171875</ele>
        <time>2019-07-07T12:05:56.000Z</time>
      </trkpt>
      <trkpt lat="40.77460776083171367645263671875" lon="-1.57844505272805690765380859375">
        <ele>1140.4000244140625</ele>
        <time>2019-07-07T12:05:57.000Z</time>
      </trkpt>
      <trkpt lat="40.77450382523238658905029296875" lon="-1.5787235833704471588134765625">
        <ele>1142.4000244140625</ele>
        <time>2019-07-07T12:05:58.000Z</time>
      </trkpt>
      <trkpt lat="40.77440299093723297119140625" lon="-1.57900496385991573333740234375">
        <ele>1144.4000244140625</ele>
        <time>2019-07-07T12:05:59.000Z</time>
      </trkpt>
      <trkpt lat="40.77430668286979198455810546875" lon="-1.579289697110652923583984375">
        <ele>1146.800048828125</ele>
        <time>2019-07-07T12:06:00.000Z</time>
      </trkpt>
      <trkpt lat="40.77421666122972965240478515625" lon="-1.579579375684261322021484375">
        <ele>1149.199951171875</ele>
        <time>2019-07-07T12:06:01.000Z</time>
      </trkpt>
      <trkpt lat="40.7741346023976802825927734375" lon="-1.5798755921423435211181640625">
        <ele>1150.5999755859375</ele>
        <time>2019-07-07T12:06:02.000Z</time>
      </trkpt>
      <trkpt lat="40.774061344563961029052734375" lon="-1.58017843030393123626708984375">
        <ele>1152.199951171875</ele>
        <time>2019-07-07T12:06:03.000Z</time>
      </trkpt>
      <trkpt lat="40.77394676394760608673095703125" lon="-1.5808046422898769378662109375">
        <ele>1151.5999755859375</ele>
        <time>2019-07-07T12:06:05.000Z</time>
      </trkpt>
      <trkpt lat="40.7739119790494441986083984375" lon="-1.58112809993326663970947265625">
        <ele>1150.5999755859375</ele>
        <time>2019-07-07T12:06:06.000Z</time>
      </trkpt>
      <trkpt lat="40.77389747835695743560791015625" lon="-1.58178926445543766021728515625">
        <ele>1150.800048828125</ele>
        <time>2019-07-07T12:06:08.000Z</time>
      </trkpt>
      <trkpt lat="40.77392094768583774566650390625" lon="-1.5821289829909801483154296875">
        <ele>1151.800048828125</ele>
        <time>2019-07-07T12:06:09.000Z</time>
      </trkpt>
      <trkpt lat="40.774029828608036041259765625" lon="-1.582821495831012725830078125">
        <ele>1153.4000244140625</ele>
        <time>2019-07-07T12:06:11.000Z</time>
      </trkpt>
      <trkpt lat="40.774190090596675872802734375" lon="-1.58354066312313079833984375">
        <ele>1154.5999755859375</ele>
        <time>2019-07-07T12:06:13.000Z</time>
      </trkpt>
      <trkpt lat="40.77435672283172607421875" lon="-1.58428321592509746551513671875">
        <ele>1152.199951171875</ele>
        <time>2019-07-07T12:06:15.000Z</time>
      </trkpt>
      <trkpt lat="40.7744390331208705902099609375" lon="-1.58465512096881866455078125">
        <ele>1148.4000244140625</ele>
        <time>2019-07-07T12:06:16.000Z</time>
      </trkpt>
      <trkpt lat="40.77452109195291996002197265625" lon="-1.585023589432239532470703125">
        <ele>1145.4000244140625</ele>
        <time>2019-07-07T12:06:17.000Z</time>
      </trkpt>
      <trkpt lat="40.7746023125946521759033203125" lon="-1.585388369858264923095703125">
        <ele>1143.800048828125</ele>
        <time>2019-07-07T12:06:18.000Z</time>
      </trkpt>
      <trkpt lat="40.77476433478295803070068359375" lon="-1.5861100517213344573974609375">
        <ele>1145</ele>
        <time>2019-07-07T12:06:20.000Z</time>
      </trkpt>
      <trkpt lat="40.77484329231083393096923828125" lon="-1.58646829426288604736328125">
        <ele>1149.800048828125</ele>
        <time>2019-07-07T12:06:21.000Z</time>
      </trkpt>
      <trkpt lat="40.77492007054388523101806640625" lon="-1.58682460896670818328857421875">
        <ele>1156.800048828125</ele>
        <time>2019-07-07T12:06:22.000Z</time>
      </trkpt>
      <trkpt lat="40.77499601058661937713623046875" lon="-1.58717815764248371124267578125">
        <ele>1164</ele>
        <time>2019-07-07T12:06:23.000Z</time>
      </trkpt>
      <trkpt lat="40.775069184601306915283203125" lon="-1.5875311195850372314453125">
        <ele>1170.4000244140625</ele>
        <time>2019-07-07T12:06:24.000Z</time>
      </trkpt>
      <trkpt lat="40.77513699419796466827392578125" lon="-1.58788584172725677490234375">
        <ele>1174.4000244140625</ele>
        <time>2019-07-07T12:06:25.000Z</time>
      </trkpt>
      <trkpt lat="40.77519893646240234375" lon="-1.58824249170720577239990234375">
        <ele>1176.199951171875</ele>
        <time>2019-07-07T12:06:26.000Z</time>
      </trkpt>
      <trkpt lat="40.7753124274313449859619140625" lon="-1.58896098844707012176513671875">
        <ele>1177.4000244140625</ele>
        <time>2019-07-07T12:06:28.000Z</time>
      </trkpt>
      <trkpt lat="40.7754136808216571807861328125" lon="-1.58967965282499790191650390625">
        <ele>1177.800048828125</ele>
        <time>2019-07-07T12:06:30.000Z</time>
      </trkpt>
      <trkpt lat="40.7754589430987834930419921875" lon="-1.59003965556621551513671875">
        <ele>1179.199951171875</ele>
        <time>2019-07-07T12:06:31.000Z</time>
      </trkpt>
      <trkpt lat="40.7755436003208160400390625" lon="-1.59076879732310771942138671875">
        <ele>1177.5999755859375</ele>
        <time>2019-07-07T12:06:33.000Z</time>
      </trkpt>
      <trkpt lat="40.77558509074151515960693359375" lon="-1.59113776870071887969970703125">
        <ele>1175.800048828125</ele>
        <time>2019-07-07T12:06:34.000Z</time>
      </trkpt>
      <trkpt lat="40.77562582679092884063720703125" lon="-1.59150942228734493255615234375">
        <ele>1172.199951171875</ele>
        <time>2019-07-07T12:06:35.000Z</time>
      </trkpt>
      <trkpt lat="40.77566639520227909088134765625" lon="-1.59188442863523960113525390625">
        <ele>1166.800048828125</ele>
        <time>2019-07-07T12:06:36.000Z</time>
      </trkpt>
      <trkpt lat="40.7757072150707244873046875" lon="-1.5922620333731174468994140625">
        <ele>1162.5999755859375</ele>
        <time>2019-07-07T12:06:37.000Z</time>
      </trkpt>
      <trkpt lat="40.77574870549142360687255859375" lon="-1.5926419012248516082763671875">
        <ele>1159.199951171875</ele>
        <time>2019-07-07T12:06:38.000Z</time>
      </trkpt>
      <trkpt lat="40.77579095028340816497802734375" lon="-1.59302302636206150054931640625">
        <ele>1157.4000244140625</ele>
        <time>2019-07-07T12:06:39.000Z</time>
      </trkpt>
      <trkpt lat="40.77583336271345615386962890625" lon="-1.59340507350862026214599609375">
        <ele>1155.800048828125</ele>
        <time>2019-07-07T12:06:40.000Z</time>
      </trkpt>
      <trkpt lat="40.77587611041963100433349609375" lon="-1.5937861986458301544189453125">
        <ele>1154.800048828125</ele>
        <time>2019-07-07T12:06:41.000Z</time>
      </trkpt>
      <trkpt lat="40.775960348546504974365234375" lon="-1.59454467706382274627685546875">
        <ele>1154.800048828125</ele>
        <time>2019-07-07T12:06:43.000Z</time>
      </trkpt>
      <trkpt lat="40.77604358084499835968017578125" lon="-1.595299132168292999267578125">
        <ele>1156</ele>
        <time>2019-07-07T12:06:45.000Z</time>
      </trkpt>
      <trkpt lat="40.7760842330753803253173828125" lon="-1.5956743061542510986328125">
        <ele>1154.5999755859375</ele>
        <time>2019-07-07T12:06:46.000Z</time>
      </trkpt>
      <trkpt lat="40.776123963296413421630859375" lon="-1.5960489772260189056396484375">
        <ele>1152.199951171875</ele>
        <time>2019-07-07T12:06:47.000Z</time>
      </trkpt>
      <trkpt lat="40.776164196431636810302734375" lon="-1.5964224748313426971435546875">
        <ele>1151.199951171875</ele>
        <time>2019-07-07T12:06:48.000Z</time>
      </trkpt>
      <trkpt lat="40.7762045972049236297607421875" lon="-1.59679471515119075775146484375">
        <ele>1147.5999755859375</ele>
        <time>2019-07-07T12:06:49.000Z</time>
      </trkpt>
      <trkpt lat="40.7762455008924007415771484375" lon="-1.59716636873781681060791015625">
        <ele>1144.199951171875</ele>
        <time>2019-07-07T12:06:50.000Z</time>
      </trkpt>
      <trkpt lat="40.77628732658922672271728515625" lon="-1.597536765038967132568359375">
        <ele>1141.800048828125</ele>
        <time>2019-07-07T12:06:51.000Z</time>
      </trkpt>
      <trkpt lat="40.77633024193346500396728515625" lon="-1.59790615551173686981201171875">
        <ele>1140.5999755859375</ele>
        <time>2019-07-07T12:06:52.000Z</time>
      </trkpt>
      <trkpt lat="40.77641422860324382781982421875" lon="-1.59863747656345367431640625">
        <ele>1140.800048828125</ele>
        <time>2019-07-07T12:06:54.000Z</time>
      </trkpt>
      <trkpt lat="40.7764929346740245819091796875" lon="-1.59936175681650638580322265625">
        <ele>1140.4000244140625</ele>
        <time>2019-07-07T12:06:56.000Z</time>
      </trkpt>
      <trkpt lat="40.7765697129070758819580078125" lon="-1.60007807426154613494873046875">
        <ele>1140.5999755859375</ele>
        <time>2019-07-07T12:06:58.000Z</time>
      </trkpt>
      <trkpt lat="40.776647664606571197509765625" lon="-1.60079003311693668365478515625">
        <ele>1140.199951171875</ele>
        <time>2019-07-07T12:07:00.000Z</time>
      </trkpt>
      <trkpt lat="40.77672368846833705902099609375" lon="-1.60150568000972270965576171875">
        <ele>1142</ele>
        <time>2019-07-07T12:07:02.000Z</time>
      </trkpt>
      <trkpt lat="40.77680096961557865142822265625" lon="-1.60222820006310939788818359375">
        <ele>1143.199951171875</ele>
        <time>2019-07-07T12:07:04.000Z</time>
      </trkpt>
      <trkpt lat="40.77687908895313739776611328125" lon="-1.602958180010318756103515625">
        <ele>1143</ele>
        <time>2019-07-07T12:07:06.000Z</time>
      </trkpt>
      <trkpt lat="40.7769187353551387786865234375" lon="-1.6033254750072956085205078125">
        <ele>1145.5999755859375</ele>
        <time>2019-07-07T12:07:07.000Z</time>
      </trkpt>
      <trkpt lat="40.77699811197817325592041015625" lon="-1.60406484268605709075927734375">
        <ele>1145.4000244140625</ele>
        <time>2019-07-07T12:07:09.000Z</time>
      </trkpt>
      <trkpt lat="40.77707841061055660247802734375" lon="-1.60480546765029430389404296875">
        <ele>1146</ele>
        <time>2019-07-07T12:07:11.000Z</time>
      </trkpt>
      <trkpt lat="40.7771207392215728759765625" lon="-1.6051748581230640411376953125">
        <ele>1149</ele>
        <time>2019-07-07T12:07:12.000Z</time>
      </trkpt>
      <trkpt lat="40.7771624810993671417236328125" lon="-1.6055443324148654937744140625">
        <ele>1152.5999755859375</ele>
        <time>2019-07-07T12:07:13.000Z</time>
      </trkpt>
      <trkpt lat="40.7772027142345905303955078125" lon="-1.60591372288763523101806640625">
        <ele>1159.4000244140625</ele>
        <time>2019-07-07T12:07:14.000Z</time>
      </trkpt>
      <trkpt lat="40.77724353410303592681884765625" lon="-1.60628235898911952972412109375">
        <ele>1169</ele>
        <time>2019-07-07T12:07:15.000Z</time>
      </trkpt>
      <trkpt lat="40.77728502452373504638671875" lon="-1.60665166564285755157470703125">
        <ele>1179.4000244140625</ele>
        <time>2019-07-07T12:07:16.000Z</time>
      </trkpt>
      <trkpt lat="40.7773264311254024505615234375" lon="-1.60702097229659557342529296875">
        <ele>1184.800048828125</ele>
        <time>2019-07-07T12:07:17.000Z</time>
      </trkpt>
      <trkpt lat="40.77736658044159412384033203125" lon="-1.6073896922171115875244140625">
        <ele>1188</ele>
        <time>2019-07-07T12:07:18.000Z</time>
      </trkpt>
      <trkpt lat="40.77740647830069065093994140625" lon="-1.60775757394731044769287109375">
        <ele>1189.800048828125</ele>
        <time>2019-07-07T12:07:19.000Z</time>
      </trkpt>
      <trkpt lat="40.77744604088366031646728515625" lon="-1.60812336020171642303466796875">
        <ele>1191.4000244140625</ele>
        <time>2019-07-07T12:07:20.000Z</time>
      </trkpt>
      <trkpt lat="40.77748644165694713592529296875" lon="-1.60848679952323436737060546875">
        <ele>1193.199951171875</ele>
        <time>2019-07-07T12:07:21.000Z</time>
      </trkpt>
      <trkpt lat="40.77752784825861454010009765625" lon="-1.60884805954992771148681640625">
        <ele>1195</ele>
        <time>2019-07-07T12:07:22.000Z</time>
      </trkpt>
      <trkpt lat="40.77756657265126705169677734375" lon="-1.60920881666243076324462890625">
        <ele>1196</ele>
        <time>2019-07-07T12:07:23.000Z</time>
      </trkpt>
      <trkpt lat="40.77764041721820831298828125" lon="-1.60993083380162715911865234375">
        <ele>1197.800048828125</ele>
        <time>2019-07-07T12:07:25.000Z</time>
      </trkpt>
      <trkpt lat="40.7777156867086887359619140625" lon="-1.61064966581761837005615234375">
        <ele>1199.5999755859375</ele>
        <time>2019-07-07T12:07:27.000Z</time>
      </trkpt>
      <trkpt lat="40.77775583602488040924072265625" lon="-1.61100975237786769866943359375">
        <ele>1200.800048828125</ele>
        <time>2019-07-07T12:07:28.000Z</time>
      </trkpt>
      <trkpt lat="40.77779598534107208251953125" lon="-1.611369587481021881103515625">
        <ele>1202.199951171875</ele>
        <time>2019-07-07T12:07:29.000Z</time>
      </trkpt>
      <trkpt lat="40.7778368890285491943359375" lon="-1.61173093132674694061279296875">
        <ele>1204.199951171875</ele>
        <time>2019-07-07T12:07:30.000Z</time>
      </trkpt>
      <trkpt lat="40.777878127992153167724609375" lon="-1.61209554411470890045166015625">
        <ele>1205.800048828125</ele>
        <time>2019-07-07T12:07:31.000Z</time>
      </trkpt>
      <trkpt lat="40.7779198698699474334716796875" lon="-1.6124622523784637451171875">
        <ele>1207.199951171875</ele>
        <time>2019-07-07T12:07:32.000Z</time>
      </trkpt>
      <trkpt lat="40.77800008468329906463623046875" lon="-1.6132087446749210357666015625">
        <ele>1208.4000244140625</ele>
        <time>2019-07-07T12:07:34.000Z</time>
      </trkpt>
      <trkpt lat="40.77808071859180927276611328125" lon="-1.613968312740325927734375">
        <ele>1209.4000244140625</ele>
        <time>2019-07-07T12:07:36.000Z</time>
      </trkpt>
      <trkpt lat="40.77812111936509609222412109375" lon="-1.61434943787753582000732421875">
        <ele>1209.5999755859375</ele>
        <time>2019-07-07T12:07:37.000Z</time>
      </trkpt>
      <trkpt lat="40.77820368111133575439453125" lon="-1.61509894765913486480712890625">
        <ele>1209</ele>
        <time>2019-07-07T12:07:39.000Z</time>
      </trkpt>
      <trkpt lat="40.778242908418178558349609375" lon="-1.615466661751270294189453125">
        <ele>1203.5999755859375</ele>
        <time>2019-07-07T12:07:40.000Z</time>
      </trkpt>
      <trkpt lat="40.77828154899179935455322265625" lon="-1.6158295981585979461669921875">
        <ele>1195.800048828125</ele>
        <time>2019-07-07T12:07:41.000Z</time>
      </trkpt>
      <trkpt lat="40.7783265598118305206298828125" lon="-1.61618582904338836669921875">
        <ele>1186.5999755859375</ele>
        <time>2019-07-07T12:07:42.000Z</time>
      </trkpt>
      <trkpt lat="40.7783875800669193267822265625" lon="-1.61653476767241954803466796875">
        <ele>1181.4000244140625</ele>
        <time>2019-07-07T12:07:43.000Z</time>
      </trkpt>
      <trkpt lat="40.77847198583185672760009765625" lon="-1.616874821484088897705078125">
        <ele>1177.5999755859375</ele>
        <time>2019-07-07T12:07:44.000Z</time>
      </trkpt>
      <trkpt lat="40.7785756699740886688232421875" lon="-1.61720909178256988525390625">
        <ele>1176.4000244140625</ele>
        <time>2019-07-07T12:07:45.000Z</time>
      </trkpt>
      <trkpt lat="40.77868958003818988800048828125" lon="-1.6175435297191143035888671875">
        <ele>1175</ele>
        <time>2019-07-07T12:07:46.000Z</time>
      </trkpt>
      <trkpt lat="40.7789253629744052886962890625" lon="-1.61821869201958179473876953125">
        <ele>1172.199951171875</ele>
        <time>2019-07-07T12:07:48.000Z</time>
      </trkpt>
      <trkpt lat="40.77904463745653629302978515625" lon="-1.6185600869357585906982421875">
        <ele>1170.4000244140625</ele>
        <time>2019-07-07T12:07:49.000Z</time>
      </trkpt>
      <trkpt lat="40.7791624031960964202880859375" lon="-1.61890265531837940216064453125">
        <ele>1167</ele>
        <time>2019-07-07T12:07:50.000Z</time>
      </trkpt>
      <trkpt lat="40.77928050421178340911865234375" lon="-1.619245223701000213623046875">
        <ele>1165</ele>
        <time>2019-07-07T12:07:51.000Z</time>
      </trkpt>
      <trkpt lat="40.77939818613231182098388671875" lon="-1.6195887140929698944091796875">
        <ele>1163.800048828125</ele>
        <time>2019-07-07T12:07:52.000Z</time>
      </trkpt>
      <trkpt lat="40.7796314544975757598876953125" lon="-1.6202773712575435638427734375">
        <ele>1162.4000244140625</ele>
        <time>2019-07-07T12:07:54.000Z</time>
      </trkpt>
      <trkpt lat="40.77987025491893291473388671875" lon="-1.62096812389791011810302734375">
        <ele>1163.5999755859375</ele>
        <time>2019-07-07T12:07:56.000Z</time>
      </trkpt>
      <trkpt lat="40.7799915410578250885009765625" lon="-1.6213140450417995452880859375">
        <ele>1165.4000244140625</ele>
        <time>2019-07-07T12:07:57.000Z</time>
      </trkpt>
      <trkpt lat="40.78010947443544864654541015625" lon="-1.6216607205569744110107421875">
        <ele>1171.4000244140625</ele>
        <time>2019-07-07T12:07:58.000Z</time>
      </trkpt>
      <trkpt lat="40.78022648580372333526611328125" lon="-1.62200680933892726898193359375">
        <ele>1183.4000244140625</ele>
        <time>2019-07-07T12:07:59.000Z</time>
      </trkpt>
      <trkpt lat="40.7803435809910297393798828125" lon="-1.622352562844753265380859375">
        <ele>1199.4000244140625</ele>
        <time>2019-07-07T12:08:00.000Z</time>
      </trkpt>
      <trkpt lat="40.7804605923593044281005859375" lon="-1.62269680760800838470458984375">
        <ele>1211.5999755859375</ele>
        <time>2019-07-07T12:08:01.000Z</time>
      </trkpt>
      <trkpt lat="40.780577771365642547607421875" lon="-1.6230353526771068572998046875">
        <ele>1218.199951171875</ele>
        <time>2019-07-07T12:08:02.000Z</time>
      </trkpt>
      <trkpt lat="40.78069352544844150543212890625" lon="-1.62336409091949462890625">
        <ele>1221.5999755859375</ele>
        <time>2019-07-07T12:08:03.000Z</time>
      </trkpt>
      <trkpt lat="40.7808079384267330169677734375" lon="-1.6236854530870914459228515625">
        <ele>1223.5999755859375</ele>
        <time>2019-07-07T12:08:04.000Z</time>
      </trkpt>
      <trkpt lat="40.78092235140502452850341796875" lon="-1.62400136701762676239013671875">
        <ele>1224.800048828125</ele>
        <time>2019-07-07T12:08:05.000Z</time>
      </trkpt>
      <trkpt lat="40.781160481274127960205078125" lon="-1.6246238909661769866943359375">
        <ele>1226</ele>
        <time>2019-07-07T12:08:07.000Z</time>
      </trkpt>
      <trkpt lat="40.7814107649028301239013671875" lon="-1.6252444870769977569580078125">
        <ele>1225.800048828125</ele>
        <time>2019-07-07T12:08:09.000Z</time>
      </trkpt>
      <trkpt lat="40.781676135957241058349609375" lon="-1.6258811764419078826904296875">
        <ele>1224.5999755859375</ele>
        <time>2019-07-07T12:08:11.000Z</time>
      </trkpt>
      <trkpt lat="40.78180748037993907928466796875" lon="-1.62620865739881992340087890625">
        <ele>1223</ele>
        <time>2019-07-07T12:08:12.000Z</time>
      </trkpt>
      <trkpt lat="40.78193572349846363067626953125" lon="-1.6265440173447132110595703125">
        <ele>1218.800048828125</ele>
        <time>2019-07-07T12:08:13.000Z</time>
      </trkpt>
      <trkpt lat="40.78205307014286518096923828125" lon="-1.6268885135650634765625">
        <ele>1210</ele>
        <time>2019-07-07T12:08:14.000Z</time>
      </trkpt>
      <trkpt lat="40.7821547426283359527587890625" lon="-1.62724616937339305877685546875">
        <ele>1199.199951171875</ele>
        <time>2019-07-07T12:08:15.000Z</time>
      </trkpt>
      <trkpt lat="40.7822425849735736846923828125" lon="-1.627613045275211334228515625">
        <ele>1190.800048828125</ele>
        <time>2019-07-07T12:08:16.000Z</time>
      </trkpt>
      <trkpt lat="40.78231877647340297698974609375" lon="-1.6279867105185985565185546875">
        <ele>1185.199951171875</ele>
        <time>2019-07-07T12:08:17.000Z</time>
      </trkpt>
      <trkpt lat="40.7823850773274898529052734375" lon="-1.62836431525647640228271484375">
        <ele>1182.4000244140625</ele>
        <time>2019-07-07T12:08:18.000Z</time>
      </trkpt>
      <trkpt lat="40.78244618140161037445068359375" lon="-1.62874317727982997894287109375">
        <ele>1180.5999755859375</ele>
        <time>2019-07-07T12:08:19.000Z</time>
      </trkpt>
      <trkpt lat="40.78257224522531032562255859375" lon="-1.62949486635625362396240234375">
        <ele>1180.800048828125</ele>
        <time>2019-07-07T12:08:21.000Z</time>
      </trkpt>
      <trkpt lat="40.78269646503031253814697265625" lon="-1.63023565895855426788330078125">
        <ele>1181.800048828125</ele>
        <time>2019-07-07T12:08:23.000Z</time>
      </trkpt>
      <trkpt lat="40.78275673091411590576171875" lon="-1.6306042112410068511962890625">
        <ele>1183.4000244140625</ele>
        <time>2019-07-07T12:08:24.000Z</time>
      </trkpt>
      <trkpt lat="40.78281666152179241180419921875" lon="-1.63097016513347625732421875">
        <ele>1184.800048828125</ele>
        <time>2019-07-07T12:08:25.000Z</time>
      </trkpt>
      <trkpt lat="40.7829357683658599853515625" lon="-1.63169427774846553802490234375">
        <ele>1186.5999755859375</ele>
        <time>2019-07-07T12:08:27.000Z</time>
      </trkpt>
      <trkpt lat="40.7830537855625152587890625" lon="-1.63240305148065090179443359375">
        <ele>1185.4000244140625</ele>
        <time>2019-07-07T12:08:29.000Z</time>
      </trkpt>
      <trkpt lat="40.78317037783563137054443359375" lon="-1.63309640251100063323974609375">
        <ele>1185.4000244140625</ele>
        <time>2019-07-07T12:08:31.000Z</time>
      </trkpt>
      <trkpt lat="40.7832822762429714202880859375" lon="-1.63378179073333740234375">
        <ele>1186.800048828125</ele>
        <time>2019-07-07T12:08:33.000Z</time>
      </trkpt>
      <trkpt lat="40.783338434994220733642578125" lon="-1.63412016816437244415283203125">
        <ele>1185.5999755859375</ele>
        <time>2019-07-07T12:08:34.000Z</time>
      </trkpt>
      <trkpt lat="40.7834468968212604522705078125" lon="-1.63477177731692790985107421875">
        <ele>1184.5999755859375</ele>
        <time>2019-07-07T12:08:36.000Z</time>
      </trkpt>
      <trkpt lat="40.78349693678319454193115234375" lon="-1.635075621306896209716796875">
        <ele>1182.800048828125</ele>
        <time>2019-07-07T12:08:37.000Z</time>
      </trkpt>
      <trkpt lat="40.7835444621741771697998046875" lon="-1.63536622188985347747802734375">
        <ele>1181</ele>
        <time>2019-07-07T12:08:38.000Z</time>
      </trkpt>
      <trkpt lat="40.78363356180489063262939453125" lon="-1.63592026568949222564697265625">
        <ele>1179.800048828125</ele>
        <time>2019-07-07T12:08:40.000Z</time>
      </trkpt>
      <trkpt lat="40.78367748297750949859619140625" lon="-1.63618278689682483673095703125">
        <ele>1181</ele>
        <time>2019-07-07T12:08:41.000Z</time>
      </trkpt>
      <trkpt lat="40.7837184704840183258056640625" lon="-1.6364346630871295928955078125">
        <ele>1182.199951171875</ele>
        <time>2019-07-07T12:08:42.000Z</time>
      </trkpt>
      <trkpt lat="40.78379482962191104888916015625" lon="-1.636909581720829010009765625">
        <ele>1183.4000244140625</ele>
        <time>2019-07-07T12:08:44.000Z</time>
      </trkpt>
      <trkpt lat="40.78383103944361209869384765625" lon="-1.63713195361196994781494140625">
        <ele>1185.199951171875</ele>
        <time>2019-07-07T12:08:45.000Z</time>
      </trkpt>
      <trkpt lat="40.7838676683604717254638671875" lon="-1.63734368048608303070068359375">
        <ele>1188.199951171875</ele>
        <time>2019-07-07T12:08:46.000Z</time>
      </trkpt>
      <trkpt lat="40.78390262089669704437255859375" lon="-1.63754560053348541259765625">
        <ele>1192</ele>
        <time>2019-07-07T12:08:47.000Z</time>
      </trkpt>
      <trkpt lat="40.78393531031906604766845703125" lon="-1.63774182088673114776611328125">
        <ele>1195.199951171875</ele>
        <time>2019-07-07T12:08:48.000Z</time>
      </trkpt>
      <trkpt lat="40.78396699391305446624755859375" lon="-1.63793527521193027496337890625">
        <ele>1198</ele>
        <time>2019-07-07T12:08:49.000Z</time>
      </trkpt>
      <trkpt lat="40.7839990966022014617919921875" lon="-1.63812571205198764801025390625">
        <ele>1202</ele>
        <time>2019-07-07T12:08:50.000Z</time>
      </trkpt>
      <trkpt lat="40.7840316183865070343017578125" lon="-1.63831681944429874420166015625">
        <ele>1206.199951171875</ele>
        <time>2019-07-07T12:08:51.000Z</time>
      </trkpt>
      <trkpt lat="40.78406321816146373748779296875" lon="-1.6385063342750072479248046875">
        <ele>1209.800048828125</ele>
        <time>2019-07-07T12:08:52.000Z</time>
      </trkpt>
      <trkpt lat="40.78409573994576930999755859375" lon="-1.63868981413543224334716796875">
        <ele>1212</ele>
        <time>2019-07-07T12:08:53.000Z</time>
      </trkpt>
      <trkpt lat="40.78412775881588459014892578125" lon="-1.6388737969100475311279296875">
        <ele>1213.199951171875</ele>
        <time>2019-07-07T12:08:54.000Z</time>
      </trkpt>
      <trkpt lat="40.78422498889267444610595703125" lon="-1.6394239850342273712158203125">
        <ele>1214.199951171875</ele>
        <time>2019-07-07T12:08:57.000Z</time>
      </trkpt>
      <trkpt lat="40.78434485010802745819091796875" lon="-1.64017894305288791656494140625">
        <ele>1212.199951171875</ele>
        <time>2019-07-07T12:09:01.000Z</time>
      </trkpt>
      <trkpt lat="40.7843772880733013153076171875" lon="-1.64037575013935565948486328125">
        <ele>1209.800048828125</ele>
        <time>2019-07-07T12:09:02.000Z</time>
      </trkpt>
      <trkpt lat="40.78441056422889232635498046875" lon="-1.64057658053934574127197265625">
        <ele>1207.199951171875</ele>
        <time>2019-07-07T12:09:03.000Z</time>
      </trkpt>
      <trkpt lat="40.7844450138509273529052734375" lon="-1.6407825239002704620361328125">
        <ele>1205.5999755859375</ele>
        <time>2019-07-07T12:09:04.000Z</time>
      </trkpt>
      <trkpt lat="40.78451684676110744476318359375" lon="-1.6412187181413173675537109375">
        <ele>1204.199951171875</ele>
        <time>2019-07-07T12:09:06.000Z</time>
      </trkpt>
      <trkpt lat="40.7846357859671115875244140625" lon="-1.64193159900605678558349609375">
        <ele>1204</ele>
        <time>2019-07-07T12:09:09.000Z</time>
      </trkpt>
      <trkpt lat="40.78477467410266399383544921875" lon="-1.642708517611026763916015625">
        <ele>1204</ele>
        <time>2019-07-07T12:09:12.000Z</time>
      </trkpt>
      <trkpt lat="40.78492403961718082427978515625" lon="-1.643551401793956756591796875">
        <ele>1204.199951171875</ele>
        <time>2019-07-07T12:09:15.000Z</time>
      </trkpt>
      <trkpt lat="40.7850263826549053192138671875" lon="-1.644149534404277801513671875">
        <ele>1202.800048828125</ele>
        <time>2019-07-07T12:09:17.000Z</time>
      </trkpt>
      <trkpt lat="40.7851324975490570068359375" lon="-1.64476954378187656402587890625">
        <ele>1204</ele>
        <time>2019-07-07T12:09:19.000Z</time>
      </trkpt>
      <trkpt lat="40.7851863093674182891845703125" lon="-1.64508637972176074981689453125">
        <ele>1205.800048828125</ele>
        <time>2019-07-07T12:09:20.000Z</time>
      </trkpt>
      <trkpt lat="40.78529049642384052276611328125" lon="-1.64572793059051036834716796875">
        <ele>1205.5999755859375</ele>
        <time>2019-07-07T12:09:22.000Z</time>
      </trkpt>
      <trkpt lat="40.78538068570196628570556640625" lon="-1.64637099020183086395263671875">
        <ele>1205.5999755859375</ele>
        <time>2019-07-07T12:09:24.000Z</time>
      </trkpt>
      <trkpt lat="40.785458385944366455078125" lon="-1.6470132954418659210205078125">
        <ele>1204</ele>
        <time>2019-07-07T12:09:26.000Z</time>
      </trkpt>
      <trkpt lat="40.7854977808892726898193359375" lon="-1.64733557961881160736083984375">
        <ele>1203</ele>
        <time>2019-07-07T12:09:27.000Z</time>
      </trkpt>
      <trkpt lat="40.78553692437708377838134765625" lon="-1.6476613841950893402099609375">
        <ele>1202.5999755859375</ele>
        <time>2019-07-07T12:09:28.000Z</time>
      </trkpt>
      <trkpt lat="40.78557531349360942840576171875" lon="-1.64798987098038196563720703125">
        <ele>1201.199951171875</ele>
        <time>2019-07-07T12:09:29.000Z</time>
      </trkpt>
      <trkpt lat="40.785612948238849639892578125" lon="-1.64832003414630889892578125">
        <ele>1200</ele>
        <time>2019-07-07T12:09:30.000Z</time>
      </trkpt>
      <trkpt lat="40.78565091826021671295166015625" lon="-1.648649610579013824462890625">
        <ele>1198.800048828125</ele>
        <time>2019-07-07T12:09:31.000Z</time>
      </trkpt>
      <trkpt lat="40.78568913973867893218994140625" lon="-1.64897776208817958831787109375">
        <ele>1197.4000244140625</ele>
        <time>2019-07-07T12:09:32.000Z</time>
      </trkpt>
      <trkpt lat="40.7857267744839191436767578125" lon="-1.64930733852088451385498046875">
        <ele>1195.5999755859375</ele>
        <time>2019-07-07T12:09:33.000Z</time>
      </trkpt>
      <trkpt lat="40.7857646606862545013427734375" lon="-1.649638675153255462646484375">
        <ele>1193.4000244140625</ele>
        <time>2019-07-07T12:09:34.000Z</time>
      </trkpt>
      <trkpt lat="40.785804055631160736083984375" lon="-1.64997051469981670379638671875">
        <ele>1192.4000244140625</ele>
        <time>2019-07-07T12:09:35.000Z</time>
      </trkpt>
      <trkpt lat="40.7858816720545291900634765625" lon="-1.650637127459049224853515625">
        <ele>1192.4000244140625</ele>
        <time>2019-07-07T12:09:37.000Z</time>
      </trkpt>
      <trkpt lat="40.7859559357166290283203125" lon="-1.65131513960659503936767578125">
        <ele>1193.199951171875</ele>
        <time>2019-07-07T12:09:39.000Z</time>
      </trkpt>
      <trkpt lat="40.7860342226922512054443359375" lon="-1.6520022042095661163330078125">
        <ele>1194.199951171875</ele>
        <time>2019-07-07T12:09:41.000Z</time>
      </trkpt>
      <trkpt lat="40.7861143536865711212158203125" lon="-1.65269714780151844024658203125">
        <ele>1194.199951171875</ele>
        <time>2019-07-07T12:09:43.000Z</time>
      </trkpt>
      <trkpt lat="40.7861904613673686981201171875" lon="-1.6534013114869594573974609375">
        <ele>1194.199951171875</ele>
        <time>2019-07-07T12:09:45.000Z</time>
      </trkpt>
      <trkpt lat="40.7862283475697040557861328125" lon="-1.6541142761707305908203125">
        <ele>1195.5999755859375</ele>
        <time>2019-07-07T12:09:47.000Z</time>
      </trkpt>
      <trkpt lat="40.78619943000376224517822265625" lon="-1.65483134798705577850341796875">
        <ele>1196.4000244140625</ele>
        <time>2019-07-07T12:09:49.000Z</time>
      </trkpt>
      <trkpt lat="40.78617176972329616546630859375" lon="-1.65519411675631999969482421875">
        <ele>1196.5999755859375</ele>
        <time>2019-07-07T12:09:50.000Z</time>
      </trkpt>
      <trkpt lat="40.78611359931528568267822265625" lon="-1.6559313051402568817138671875">
        <ele>1197.199951171875</ele>
        <time>2019-07-07T12:09:52.000Z</time>
      </trkpt>
      <trkpt lat="40.7860524952411651611328125" lon="-1.656680144369602203369140625">
        <ele>1197</ele>
        <time>2019-07-07T12:09:54.000Z</time>
      </trkpt>
      <trkpt lat="40.78599013388156890869140625" lon="-1.6574336774647235870361328125">
        <ele>1196.199951171875</ele>
        <time>2019-07-07T12:09:56.000Z</time>
      </trkpt>
      <trkpt lat="40.785931460559368133544921875" lon="-1.65818494744598865509033203125">
        <ele>1196.5999755859375</ele>
        <time>2019-07-07T12:09:58.000Z</time>
      </trkpt>
      <trkpt lat="40.78587035648524761199951171875" lon="-1.658929176628589630126953125">
        <ele>1196</ele>
        <time>2019-07-07T12:10:00.000Z</time>
      </trkpt>
      <trkpt lat="40.78583984635770320892333984375" lon="-1.6592998243868350982666015625">
        <ele>1195.4000244140625</ele>
        <time>2019-07-07T12:10:01.000Z</time>
      </trkpt>
      <trkpt lat="40.78578234650194644927978515625" lon="-1.66004338301718235015869140625">
        <ele>1194</ele>
        <time>2019-07-07T12:10:03.000Z</time>
      </trkpt>
      <trkpt lat="40.78575317747890949249267578125" lon="-1.66041587479412555694580078125">
        <ele>1192.800048828125</ele>
        <time>2019-07-07T12:10:04.000Z</time>
      </trkpt>
      <trkpt lat="40.7856930792331695556640625" lon="-1.66116379201412200927734375">
        <ele>1191.199951171875</ele>
        <time>2019-07-07T12:10:06.000Z</time>
      </trkpt>
      <trkpt lat="40.7856325618922710418701171875" lon="-1.66191757656633853912353515625">
        <ele>1190</ele>
        <time>2019-07-07T12:10:08.000Z</time>
      </trkpt>
      <trkpt lat="40.7856023870408535003662109375" lon="-1.6622975282371044158935546875">
        <ele>1188</ele>
        <time>2019-07-07T12:10:09.000Z</time>
      </trkpt>
      <trkpt lat="40.78557145781815052032470703125" lon="-1.6626777313649654388427734375">
        <ele>1186</ele>
        <time>2019-07-07T12:10:10.000Z</time>
      </trkpt>
      <trkpt lat="40.78551278449594974517822265625" lon="-1.66342933662235736846923828125">
        <ele>1186.199951171875</ele>
        <time>2019-07-07T12:10:12.000Z</time>
      </trkpt>
      <trkpt lat="40.78545595519244670867919921875" lon="-1.6641693748533725738525390625">
        <ele>1185.199951171875</ele>
        <time>2019-07-07T12:10:14.000Z</time>
      </trkpt>
      <trkpt lat="40.78542762435972690582275390625" lon="-1.66453541256487369537353515625">
        <ele>1185</ele>
        <time>2019-07-07T12:10:15.000Z</time>
      </trkpt>
      <trkpt lat="40.7853998802602291107177734375" lon="-1.66489684022963047027587890625">
        <ele>1186.4000244140625</ele>
        <time>2019-07-07T12:10:16.000Z</time>
      </trkpt>
      <trkpt lat="40.7853713817894458770751953125" lon="-1.66525147855281829833984375">
        <ele>1188.800048828125</ele>
        <time>2019-07-07T12:10:17.000Z</time>
      </trkpt>
      <trkpt lat="40.78534212894737720489501953125" lon="-1.66559957899153232574462890625">
        <ele>1190.5999755859375</ele>
        <time>2019-07-07T12:10:18.000Z</time>
      </trkpt>
      <trkpt lat="40.7852892391383647918701171875" lon="-1.66627717204391956329345703125">
        <ele>1192.4000244140625</ele>
        <time>2019-07-07T12:10:20.000Z</time>
      </trkpt>
      <trkpt lat="40.78524020500481128692626953125" lon="-1.66694219224154949188232421875">
        <ele>1191.199951171875</ele>
        <time>2019-07-07T12:10:22.000Z</time>
      </trkpt>
      <trkpt lat="40.78518840484321117401123046875" lon="-1.66759648360311985015869140625">
        <ele>1189.800048828125</ele>
        <time>2019-07-07T12:10:24.000Z</time>
      </trkpt>
      <trkpt lat="40.78513559885323047637939453125" lon="-1.6682275570929050445556640625">
        <ele>1189.800048828125</ele>
        <time>2019-07-07T12:10:26.000Z</time>
      </trkpt>
      <trkpt lat="40.7850961200892925262451171875" lon="-1.66883013211190700531005859375">
        <ele>1191.5999755859375</ele>
        <time>2019-07-07T12:10:28.000Z</time>
      </trkpt>
      <trkpt lat="40.78509301878511905670166015625" lon="-1.6691304557025432586669921875">
        <ele>1192.800048828125</ele>
        <time>2019-07-07T12:10:29.000Z</time>
      </trkpt>
      <trkpt lat="40.7851083576679229736328125" lon="-1.6694328747689723968505859375">
        <ele>1194.5999755859375</ele>
        <time>2019-07-07T12:10:30.000Z</time>
      </trkpt>
      <trkpt lat="40.78514481894671916961669921875" lon="-1.6697373054921627044677734375">
        <ele>1197</ele>
        <time>2019-07-07T12:10:31.000Z</time>
      </trkpt>
      <trkpt lat="40.78520617447793483734130859375" lon="-1.6700398921966552734375">
        <ele>1199</ele>
        <time>2019-07-07T12:10:32.000Z</time>
      </trkpt>
      <trkpt lat="40.78529234044253826141357421875" lon="-1.67033904232084751129150390625">
        <ele>1200</ele>
        <time>2019-07-07T12:10:33.000Z</time>
      </trkpt>
      <trkpt lat="40.7853955216705799102783203125" lon="-1.67063777334988117218017578125">
        <ele>1200.4000244140625</ele>
        <time>2019-07-07T12:10:34.000Z</time>
      </trkpt>
      <trkpt lat="40.78562359325587749481201171875" lon="-1.67124328203499317169189453125">
        <ele>1198.4000244140625</ele>
        <time>2019-07-07T12:10:36.000Z</time>
      </trkpt>
      <trkpt lat="40.78574110753834247589111328125" lon="-1.6715471260249614715576171875">
        <ele>1196.5999755859375</ele>
        <time>2019-07-07T12:10:37.000Z</time>
      </trkpt>
      <trkpt lat="40.78585661016404628753662109375" lon="-1.671850718557834625244140625">
        <ele>1195.199951171875</ele>
        <time>2019-07-07T12:10:38.000Z</time>
      </trkpt>
      <trkpt lat="40.7859693467617034912109375" lon="-1.6721536405384540557861328125">
        <ele>1194</ele>
        <time>2019-07-07T12:10:39.000Z</time>
      </trkpt>
      <trkpt lat="40.7861787267029285430908203125" lon="-1.67276543565094470977783203125">
        <ele>1191.800048828125</ele>
        <time>2019-07-07T12:10:41.000Z</time>
      </trkpt>
      <trkpt lat="40.7862655632197856903076171875" lon="-1.6730800084769725799560546875">
        <ele>1190</ele>
        <time>2019-07-07T12:10:42.000Z</time>
      </trkpt>
      <trkpt lat="40.78633387573063373565673828125" lon="-1.67340229265391826629638671875">
        <ele>1189</ele>
        <time>2019-07-07T12:10:43.000Z</time>
      </trkpt>
      <trkpt lat="40.78638710081577301025390625" lon="-1.67373396456241607666015625">
        <ele>1187</ele>
        <time>2019-07-07T12:10:44.000Z</time>
      </trkpt>
      <trkpt lat="40.7864355482161045074462890625" lon="-1.67407150380313396453857421875">
        <ele>1185.4000244140625</ele>
        <time>2019-07-07T12:10:45.000Z</time>
      </trkpt>
      <trkpt lat="40.78653001226484775543212890625" lon="-1.6747691296041011810302734375">
        <ele>1186.800048828125</ele>
        <time>2019-07-07T12:10:47.000Z</time>
      </trkpt>
      <trkpt lat="40.78662791289389133453369140625" lon="-1.6754809208214282989501953125">
        <ele>1189.199951171875</ele>
        <time>2019-07-07T12:10:49.000Z</time>
      </trkpt>
      <trkpt lat="40.78668038360774517059326171875" lon="-1.67583555914461612701416015625">
        <ele>1190.800048828125</ele>
        <time>2019-07-07T12:10:50.000Z</time>
      </trkpt>
      <trkpt lat="40.78673754818737506866455078125" lon="-1.676186509430408477783203125">
        <ele>1192</ele>
        <time>2019-07-07T12:10:51.000Z</time>
      </trkpt>
      <trkpt lat="40.786866210401058197021484375" lon="-1.67687692679464817047119140625">
        <ele>1192.4000244140625</ele>
        <time>2019-07-07T12:10:53.000Z</time>
      </trkpt>
      <trkpt lat="40.7870149053633213043212890625" lon="-1.67756575159728527069091796875">
        <ele>1191</ele>
        <time>2019-07-07T12:10:55.000Z</time>
      </trkpt>
      <trkpt lat="40.7870972156524658203125" lon="-1.67790790088474750518798828125">
        <ele>1189</ele>
        <time>2019-07-07T12:10:56.000Z</time>
      </trkpt>
      <trkpt lat="40.78718162141740322113037109375" lon="-1.6782514750957489013671875">
        <ele>1185.5999755859375</ele>
        <time>2019-07-07T12:10:57.000Z</time>
      </trkpt>
      <trkpt lat="40.7872666977345943450927734375" lon="-1.6785979829728603363037109375">
        <ele>1179.4000244140625</ele>
        <time>2019-07-07T12:10:58.000Z</time>
      </trkpt>
      <trkpt lat="40.78735345043241977691650390625" lon="-1.6789453290402889251708984375">
        <ele>1176.4000244140625</ele>
        <time>2019-07-07T12:10:59.000Z</time>
      </trkpt>
      <trkpt lat="40.78744179569184780120849609375" lon="-1.6792953573167324066162109375">
        <ele>1171.199951171875</ele>
        <time>2019-07-07T12:11:00.000Z</time>
      </trkpt>
      <trkpt lat="40.787531398236751556396484375" lon="-1.67964597232639789581298828125">
        <ele>1165</ele>
        <time>2019-07-07T12:11:01.000Z</time>
      </trkpt>
      <trkpt lat="40.787707082927227020263671875" lon="-1.68036044575273990631103515625">
        <ele>1169</ele>
        <time>2019-07-07T12:11:03.000Z</time>
      </trkpt>
      <trkpt lat="40.787794589996337890625" lon="-1.68072187341749668121337890625">
        <ele>1171</ele>
        <time>2019-07-07T12:11:04.000Z</time>
      </trkpt>
      <trkpt lat="40.7878817617893218994140625" lon="-1.68107676319777965545654296875">
        <ele>1174.199951171875</ele>
        <time>2019-07-07T12:11:05.000Z</time>
      </trkpt>
      <trkpt lat="40.78796884976327419281005859375" lon="-1.6814163140952587127685546875">
        <ele>1172.5999755859375</ele>
        <time>2019-07-07T12:11:06.000Z</time>
      </trkpt>
      <trkpt lat="40.78805736266076564788818359375" lon="-1.6817458905279636383056640625">
        <ele>1171.4000244140625</ele>
        <time>2019-07-07T12:11:07.000Z</time>
      </trkpt>
      <trkpt lat="40.78816314227879047393798828125" lon="-1.68206683360040187835693359375">
        <ele>1170.800048828125</ele>
        <time>2019-07-07T12:11:08.000Z</time>
      </trkpt>
      <trkpt lat="40.7882980071008205413818359375" lon="-1.682373024523258209228515625">
        <ele>1165.5999755859375</ele>
        <time>2019-07-07T12:11:09.000Z</time>
      </trkpt>
      <trkpt lat="40.78845835290849208831787109375" lon="-1.68266731314361095428466796875">
        <ele>1157.4000244140625</ele>
        <time>2019-07-07T12:11:10.000Z</time>
      </trkpt>
      <trkpt lat="40.78863588161766529083251953125" lon="-1.68295112438499927520751953125">
        <ele>1152.4000244140625</ele>
        <time>2019-07-07T12:11:11.000Z</time>
      </trkpt>
      <trkpt lat="40.788823552429676055908203125" lon="-1.6832314990460872650146484375">
        <ele>1147.800048828125</ele>
        <time>2019-07-07T12:11:12.000Z</time>
      </trkpt>
      <trkpt lat="40.7890165038406848907470703125" lon="-1.68351187370717525482177734375">
        <ele>1145.800048828125</ele>
        <time>2019-07-07T12:11:13.000Z</time>
      </trkpt>
      <trkpt lat="40.78921146690845489501953125" lon="-1.683796606957912445068359375">
        <ele>1142.800048828125</ele>
        <time>2019-07-07T12:11:14.000Z</time>
      </trkpt>
      <trkpt lat="40.7896039076149463653564453125" lon="-1.68436934240162372589111328125">
        <ele>1143.199951171875</ele>
        <time>2019-07-07T12:11:16.000Z</time>
      </trkpt>
      <trkpt lat="40.78998821787536144256591796875" lon="-1.68493411503732204437255859375">
        <ele>1143.199951171875</ele>
        <time>2019-07-07T12:11:18.000Z</time>
      </trkpt>
      <trkpt lat="40.79017563723027706146240234375" lon="-1.68521239422261714935302734375">
        <ele>1145</ele>
        <time>2019-07-07T12:11:19.000Z</time>
      </trkpt>
      <trkpt lat="40.79036020673811435699462890625" lon="-1.685485728085041046142578125">
        <ele>1146.199951171875</ele>
        <time>2019-07-07T12:11:20.000Z</time>
      </trkpt>
      <trkpt lat="40.7907160185277462005615234375" lon="-1.68601588346064090728759765625">
        <ele>1148.199951171875</ele>
        <time>2019-07-07T12:11:22.000Z</time>
      </trkpt>
      <trkpt lat="40.79089078120887279510498046875" lon="-1.68627572245895862579345703125">
        <ele>1150.800048828125</ele>
        <time>2019-07-07T12:11:23.000Z</time>
      </trkpt>
      <trkpt lat="40.79106512479484081268310546875" lon="-1.6865309514105319976806640625">
        <ele>1154</ele>
        <time>2019-07-07T12:11:24.000Z</time>
      </trkpt>
      <trkpt lat="40.7914086990058422088623046875" lon="-1.6870435886085033416748046875">
        <ele>1149.800048828125</ele>
        <time>2019-07-07T12:11:26.000Z</time>
      </trkpt>
      <trkpt lat="40.791573822498321533203125" lon="-1.6873146593570709228515625">
        <ele>1148</ele>
        <time>2019-07-07T12:11:27.000Z</time>
      </trkpt>
      <trkpt lat="40.79172897152602672576904296875" lon="-1.68760442174971103668212890625">
        <ele>1146.800048828125</ele>
        <time>2019-07-07T12:11:28.000Z</time>
      </trkpt>
      <trkpt lat="40.791874565184116363525390625" lon="-1.68791304342448711395263671875">
        <ele>1144.4000244140625</ele>
        <time>2019-07-07T12:11:29.000Z</time>
      </trkpt>
      <trkpt lat="40.79201580025255680084228515625" lon="-1.68823641724884510040283203125">
        <ele>1141.5999755859375</ele>
        <time>2019-07-07T12:11:30.000Z</time>
      </trkpt>
      <trkpt lat="40.79215745441615581512451171875" lon="-1.68856968171894550323486328125">
        <ele>1138.4000244140625</ele>
        <time>2019-07-07T12:11:31.000Z</time>
      </trkpt>
      <trkpt lat="40.7923015393316745758056640625" lon="-1.68890948407351970672607421875">
        <ele>1136.4000244140625</ele>
        <time>2019-07-07T12:11:32.000Z</time>
      </trkpt>
      <trkpt lat="40.79259230755269527435302734375" lon="-1.68960266746580600738525390625">
        <ele>1134.199951171875</ele>
        <time>2019-07-07T12:11:34.000Z</time>
      </trkpt>
      <trkpt lat="40.79273882322013378143310546875" lon="-1.68994833715260028839111328125">
        <ele>1132.199951171875</ele>
        <time>2019-07-07T12:11:35.000Z</time>
      </trkpt>
      <trkpt lat="40.79288466833531856536865234375" lon="-1.690290905535221099853515625">
        <ele>1131</ele>
        <time>2019-07-07T12:11:36.000Z</time>
      </trkpt>
      <trkpt lat="40.79316915012896060943603515625" lon="-1.69096891768276691436767578125">
        <ele>1130.4000244140625</ele>
        <time>2019-07-07T12:11:38.000Z</time>
      </trkpt>
      <trkpt lat="40.7934451662003993988037109375" lon="-1.691642738878726959228515625">
        <ele>1130.5999755859375</ele>
        <time>2019-07-07T12:11:40.000Z</time>
      </trkpt>
      <trkpt lat="40.79358355142176151275634765625" lon="-1.6919812001287937164306640625">
        <ele>1129.5999755859375</ele>
        <time>2019-07-07T12:11:41.000Z</time>
      </trkpt>
      <trkpt lat="40.793725959956645965576171875" lon="-1.69231790117919445037841796875">
        <ele>1128.199951171875</ele>
        <time>2019-07-07T12:11:42.000Z</time>
      </trkpt>
      <trkpt lat="40.79401664435863494873046875" lon="-1.692987196147441864013671875">
        <ele>1127</ele>
        <time>2019-07-07T12:11:44.000Z</time>
      </trkpt>
      <trkpt lat="40.79430540092289447784423828125" lon="-1.69365850277245044708251953125">
        <ele>1126</ele>
        <time>2019-07-07T12:11:46.000Z</time>
      </trkpt>
      <trkpt lat="40.79458401538431644439697265625" lon="-1.69431614689528942108154296875">
        <ele>1126.800048828125</ele>
        <time>2019-07-07T12:11:48.000Z</time>
      </trkpt>
      <trkpt lat="40.7947225682437419891357421875" lon="-1.69463901780545711517333984375">
        <ele>1127.5999755859375</ele>
        <time>2019-07-07T12:11:49.000Z</time>
      </trkpt>
      <trkpt lat="40.79498802311718463897705078125" lon="-1.6952628828585147857666015625">
        <ele>1128.4000244140625</ele>
        <time>2019-07-07T12:11:51.000Z</time>
      </trkpt>
      <trkpt lat="40.79510922543704509735107421875" lon="-1.69555842876434326171875">
        <ele>1129</ele>
        <time>2019-07-07T12:11:52.000Z</time>
      </trkpt>
      <trkpt lat="40.795326568186283111572265625" lon="-1.6961310803890228271484375">
        <ele>1130.4000244140625</ele>
        <time>2019-07-07T12:11:54.000Z</time>
      </trkpt>
      <trkpt lat="40.79547819681465625762939453125" lon="-1.69670767150819301605224609375">
        <ele>1131.800048828125</ele>
        <time>2019-07-07T12:11:56.000Z</time>
      </trkpt>
      <trkpt lat="40.79552144743502140045166015625" lon="-1.69700087048113346099853515625">
        <ele>1132.199951171875</ele>
        <time>2019-07-07T12:11:57.000Z</time>
      </trkpt>
      <trkpt lat="40.795536451041698455810546875" lon="-1.69760319404304027557373046875">
        <ele>1132</ele>
        <time>2019-07-07T12:11:59.000Z</time>
      </trkpt>
      <trkpt lat="40.79550803638994693756103515625" lon="-1.69791148044168949127197265625">
        <ele>1130.5999755859375</ele>
        <time>2019-07-07T12:12:00.000Z</time>
      </trkpt>
      <trkpt lat="40.79545372165739536285400390625" lon="-1.69822311960160732269287109375">
        <ele>1129</ele>
        <time>2019-07-07T12:12:01.000Z</time>
      </trkpt>
      <trkpt lat="40.79527753405272960662841796875" lon="-1.69885796494781970977783203125">
        <ele>1127.4000244140625</ele>
        <time>2019-07-07T12:12:03.000Z</time>
      </trkpt>
      <trkpt lat="40.79505591653287410736083984375" lon="-1.6995101608335971832275390625">
        <ele>1127.5999755859375</ele>
        <time>2019-07-07T12:12:05.000Z</time>
      </trkpt>
      <trkpt lat="40.794833712279796600341796875" lon="-1.700154058635234832763671875">
        <ele>1128</ele>
        <time>2019-07-07T12:12:07.000Z</time>
      </trkpt>
      <trkpt lat="40.794662721455097198486328125" lon="-1.7008006386458873748779296875">
        <ele>1128.199951171875</ele>
        <time>2019-07-07T12:12:09.000Z</time>
      </trkpt>
      <trkpt lat="40.7946159504354000091552734375" lon="-1.7011402733623981475830078125">
        <ele>1128.5999755859375</ele>
        <time>2019-07-07T12:12:10.000Z</time>
      </trkpt>
      <trkpt lat="40.79460002481937408447265625" lon="-1.70148921199142932891845703125">
        <ele>1128.800048828125</ele>
        <time>2019-07-07T12:12:11.000Z</time>
      </trkpt>
      <trkpt lat="40.79463011585175991058349609375" lon="-1.702210642397403717041015625">
        <ele>1126.5999755859375</ele>
        <time>2019-07-07T12:12:13.000Z</time>
      </trkpt>
      <trkpt lat="40.794656686484813690185546875" lon="-1.70257768593728542327880859375">
        <ele>1123.800048828125</ele>
        <time>2019-07-07T12:12:14.000Z</time>
      </trkpt>
      <trkpt lat="40.79470689408481121063232421875" lon="-1.70330154709517955780029296875">
        <ele>1122.800048828125</ele>
        <time>2019-07-07T12:12:16.000Z</time>
      </trkpt>
      <trkpt lat="40.79477009363472461700439453125" lon="-1.70400177128612995147705078125">
        <ele>1124.5999755859375</ele>
        <time>2019-07-07T12:12:18.000Z</time>
      </trkpt>
      <trkpt lat="40.7948261685669422149658203125" lon="-1.70433838851749897003173828125">
        <ele>1126.800048828125</ele>
        <time>2019-07-07T12:12:19.000Z</time>
      </trkpt>
      <trkpt lat="40.79490705393254756927490234375" lon="-1.70466721057891845703125">
        <ele>1127.800048828125</ele>
        <time>2019-07-07T12:12:20.000Z</time>
      </trkpt>
      <trkpt lat="40.79513520933687686920166015625" lon="-1.70531622134149074554443359375">
        <ele>1127.4000244140625</ele>
        <time>2019-07-07T12:12:22.000Z</time>
      </trkpt>
      <trkpt lat="40.7952680625021457672119140625" lon="-1.705643869936466217041015625">
        <ele>1125.4000244140625</ele>
        <time>2019-07-07T12:12:23.000Z</time>
      </trkpt>
      <trkpt lat="40.795403011143207550048828125" lon="-1.7059732787311077117919921875">
        <ele>1122.800048828125</ele>
        <time>2019-07-07T12:12:24.000Z</time>
      </trkpt>
      <trkpt lat="40.7955382950603961944580078125" lon="-1.70630411244928836822509765625">
        <ele>1121.5999755859375</ele>
        <time>2019-07-07T12:12:25.000Z</time>
      </trkpt>
      <trkpt lat="40.79581079073250293731689453125" lon="-1.7069693841040134429931640625">
        <ele>1119.800048828125</ele>
        <time>2019-07-07T12:12:27.000Z</time>
      </trkpt>
      <trkpt lat="40.7960831187665462493896484375" lon="-1.70763247646391391754150390625">
        <ele>1119.800048828125</ele>
        <time>2019-07-07T12:12:29.000Z</time>
      </trkpt>
      <trkpt lat="40.79635108821094036102294921875" lon="-1.7082910425961017608642578125">
        <ele>1121.5999755859375</ele>
        <time>2019-07-07T12:12:31.000Z</time>
      </trkpt>
      <trkpt lat="40.79661394469439983367919921875" lon="-1.70893393456935882568359375">
        <ele>1123.199951171875</ele>
        <time>2019-07-07T12:12:33.000Z</time>
      </trkpt>
      <trkpt lat="40.79674285836517810821533203125" lon="-1.70924347825348377227783203125">
        <ele>1124.4000244140625</ele>
        <time>2019-07-07T12:12:34.000Z</time>
      </trkpt>
      <trkpt lat="40.79687051475048065185546875" lon="-1.70954237692058086395263671875">
        <ele>1125.4000244140625</ele>
        <time>2019-07-07T12:12:35.000Z</time>
      </trkpt>
      <trkpt lat="40.79713362269103527069091796875" lon="-1.710112094879150390625">
        <ele>1126.800048828125</ele>
        <time>2019-07-07T12:12:37.000Z</time>
      </trkpt>
      <trkpt lat="40.79740636982023715972900390625" lon="-1.71066152863204479217529296875">
        <ele>1129</ele>
        <time>2019-07-07T12:12:39.000Z</time>
      </trkpt>
      <trkpt lat="40.79769286327064037322998046875" lon="-1.711203418672084808349609375">
        <ele>1131</ele>
        <time>2019-07-07T12:12:41.000Z</time>
      </trkpt>
      <trkpt lat="40.79784088768064975738525390625" lon="-1.7114759981632232666015625">
        <ele>1133.199951171875</ele>
        <time>2019-07-07T12:12:42.000Z</time>
      </trkpt>
      <trkpt lat="40.79799109138548374176025390625" lon="-1.71175050549209117889404296875">
        <ele>1134.4000244140625</ele>
        <time>2019-07-07T12:12:43.000Z</time>
      </trkpt>
      <trkpt lat="40.79829669557511806488037109375" lon="-1.71230672858655452728271484375">
        <ele>1135.800048828125</ele>
        <time>2019-07-07T12:12:45.000Z</time>
      </trkpt>
      <trkpt lat="40.798606574535369873046875" lon="-1.7128653824329376220703125">
        <ele>1136.5999755859375</ele>
        <time>2019-07-07T12:12:47.000Z</time>
      </trkpt>
      <trkpt lat="40.79876105301082134246826171875" lon="-1.7131421528756618499755859375">
        <ele>1137.5999755859375</ele>
        <time>2019-07-07T12:12:48.000Z</time>
      </trkpt>
      <trkpt lat="40.79891444183886051177978515625" lon="-1.7134179174900054931640625">
        <ele>1138.5999755859375</ele>
        <time>2019-07-07T12:12:49.000Z</time>
      </trkpt>
      <trkpt lat="40.7992202974855899810791015625" lon="-1.71396617777645587921142578125">
        <ele>1139</ele>
        <time>2019-07-07T12:12:51.000Z</time>
      </trkpt>
      <trkpt lat="40.79953034408390522003173828125" lon="-1.7145174555480480194091796875">
        <ele>1138.800048828125</ele>
        <time>2019-07-07T12:12:53.000Z</time>
      </trkpt>
      <trkpt lat="40.79984910786151885986328125" lon="-1.71507292427122592926025390625">
        <ele>1138.5999755859375</ele>
        <time>2019-07-07T12:12:55.000Z</time>
      </trkpt>
      <trkpt lat="40.80017365515232086181640625" lon="-1.7156332544982433319091796875">
        <ele>1139</ele>
        <time>2019-07-07T12:12:57.000Z</time>
      </trkpt>
      <trkpt lat="40.80033634789288043975830078125" lon="-1.71591396443545818328857421875">
        <ele>1141</ele>
        <time>2019-07-07T12:12:58.000Z</time>
      </trkpt>
      <trkpt lat="40.80049954354763031005859375" lon="-1.7161948420107364654541015625">
        <ele>1142.199951171875</ele>
        <time>2019-07-07T12:12:59.000Z</time>
      </trkpt>
      <trkpt lat="40.80082434229552745819091796875" lon="-1.7167540825903415679931640625">
        <ele>1143</ele>
        <time>2019-07-07T12:13:01.000Z</time>
      </trkpt>
      <trkpt lat="40.80114855431020259857177734375" lon="-1.71730921603739261627197265625">
        <ele>1140.4000244140625</ele>
        <time>2019-07-07T12:13:03.000Z</time>
      </trkpt>
      <trkpt lat="40.801311247050762176513671875" lon="-1.7175882495939731597900390625">
        <ele>1139.199951171875</ele>
        <time>2019-07-07T12:13:04.000Z</time>
      </trkpt>
      <trkpt lat="40.801473520696163177490234375" lon="-1.71786812134087085723876953125">
        <ele>1137.5999755859375</ele>
        <time>2019-07-07T12:13:05.000Z</time>
      </trkpt>
      <trkpt lat="40.8017975650727748870849609375" lon="-1.71842493116855621337890625">
        <ele>1137.4000244140625</ele>
        <time>2019-07-07T12:13:07.000Z</time>
      </trkpt>
      <trkpt lat="40.80195774324238300323486328125" lon="-1.71870094723999500274658203125">
        <ele>1139.199951171875</ele>
        <time>2019-07-07T12:13:08.000Z</time>
      </trkpt>
      <trkpt lat="40.8021164126694202423095703125" lon="-1.71897612512111663818359375">
        <ele>1141.199951171875</ele>
        <time>2019-07-07T12:13:09.000Z</time>
      </trkpt>
      <trkpt lat="40.802275501191616058349609375" lon="-1.719253063201904296875">
        <ele>1143.800048828125</ele>
        <time>2019-07-07T12:13:10.000Z</time>
      </trkpt>
      <trkpt lat="40.80243702046573162078857421875" lon="-1.719529666006565093994140625">
        <ele>1145</ele>
        <time>2019-07-07T12:13:11.000Z</time>
      </trkpt>
      <trkpt lat="40.8026005513966083526611328125" lon="-1.71980668790638446807861328125">
        <ele>1146.4000244140625</ele>
        <time>2019-07-07T12:13:12.000Z</time>
      </trkpt>
      <trkpt lat="40.8027648366987705230712890625" lon="-1.7200850509107112884521484375">
        <ele>1148.199951171875</ele>
        <time>2019-07-07T12:13:13.000Z</time>
      </trkpt>
      <trkpt lat="40.8030934073030948638916015625" lon="-1.72064554877579212188720703125">
        <ele>1149.4000244140625</ele>
        <time>2019-07-07T12:13:15.000Z</time>
      </trkpt>
      <trkpt lat="40.8034209720790386199951171875" lon="-1.72120898030698299407958984375">
        <ele>1148.5999755859375</ele>
        <time>2019-07-07T12:13:17.000Z</time>
      </trkpt>
      <trkpt lat="40.8037458546459674835205078125" lon="-1.72176905907690525054931640625">
        <ele>1149.5999755859375</ele>
        <time>2019-07-07T12:13:19.000Z</time>
      </trkpt>
      <trkpt lat="40.80406914465129375457763671875" lon="-1.7223240248858928680419921875">
        <ele>1149.800048828125</ele>
        <time>2019-07-07T12:13:21.000Z</time>
      </trkpt>
      <trkpt lat="40.80439218319952487945556640625" lon="-1.722880415618419647216796875">
        <ele>1148.5999755859375</ele>
        <time>2019-07-07T12:13:23.000Z</time>
      </trkpt>
      <trkpt lat="40.80455495975911617279052734375" lon="-1.72316011972725391387939453125">
        <ele>1148.4000244140625</ele>
        <time>2019-07-07T12:13:24.000Z</time>
      </trkpt>
      <trkpt lat="40.804881267249584197998046875" lon="-1.72372271306812763214111328125">
        <ele>1148.4000244140625</ele>
        <time>2019-07-07T12:13:26.000Z</time>
      </trkpt>
      <trkpt lat="40.8052123524248600006103515625" lon="-1.724291928112506866455078125">
        <ele>1148</ele>
        <time>2019-07-07T12:13:28.000Z</time>
      </trkpt>
      <trkpt lat="40.80554922111332416534423828125" lon="-1.724869273602962493896484375">
        <ele>1148.4000244140625</ele>
        <time>2019-07-07T12:13:30.000Z</time>
      </trkpt>
      <trkpt lat="40.805881060659885406494140625" lon="-1.7254494689404964447021484375">
        <ele>1149.800048828125</ele>
        <time>2019-07-07T12:13:32.000Z</time>
      </trkpt>
      <trkpt lat="40.8062134869396686553955078125" lon="-1.72602538950741291046142578125">
        <ele>1152</ele>
        <time>2019-07-07T12:13:34.000Z</time>
      </trkpt>
      <trkpt lat="40.8063797838985919952392578125" lon="-1.726312302052974700927734375">
        <ele>1153</ele>
        <time>2019-07-07T12:13:35.000Z</time>
      </trkpt>
      <trkpt lat="40.8067117072641849517822265625" lon="-1.72688319347798824310302734375">
        <ele>1154.4000244140625</ele>
        <time>2019-07-07T12:13:37.000Z</time>
      </trkpt>
      <trkpt lat="40.80704321153461933135986328125" lon="-1.72744696028530597686767578125">
        <ele>1154.5999755859375</ele>
        <time>2019-07-07T12:13:39.000Z</time>
      </trkpt>
      <trkpt lat="40.80736809410154819488525390625" lon="-1.7280056141316890716552734375">
        <ele>1154.800048828125</ele>
        <time>2019-07-07T12:13:41.000Z</time>
      </trkpt>
      <trkpt lat="40.807529278099536895751953125" lon="-1.72828230075538158416748046875">
        <ele>1155.800048828125</ele>
        <time>2019-07-07T12:13:42.000Z</time>
      </trkpt>
      <trkpt lat="40.8076910488307476043701171875" lon="-1.72855739481747150421142578125">
        <ele>1157.5999755859375</ele>
        <time>2019-07-07T12:13:43.000Z</time>
      </trkpt>
      <trkpt lat="40.8078526519238948822021484375" lon="-1.72883190214633941650390625">
        <ele>1159.5999755859375</ele>
        <time>2019-07-07T12:13:44.000Z</time>
      </trkpt>
      <trkpt lat="40.80801232717931270599365234375" lon="-1.72910691238939762115478515625">
        <ele>1161.800048828125</ele>
        <time>2019-07-07T12:13:45.000Z</time>
      </trkpt>
      <trkpt lat="40.80817225389182567596435546875" lon="-1.72938167117536067962646484375">
        <ele>1163</ele>
        <time>2019-07-07T12:13:46.000Z</time>
      </trkpt>
      <trkpt lat="40.80833201296627521514892578125" lon="-1.7296548373997211456298828125">
        <ele>1164</ele>
        <time>2019-07-07T12:13:47.000Z</time>
      </trkpt>
      <trkpt lat="40.8084903471171855926513671875" lon="-1.729926578700542449951171875">
        <ele>1165.5999755859375</ele>
        <time>2019-07-07T12:13:48.000Z</time>
      </trkpt>
      <trkpt lat="40.80864532850682735443115234375" lon="-1.73019471578299999237060546875">
        <ele>1168.4000244140625</ele>
        <time>2019-07-07T12:13:49.000Z</time>
      </trkpt>
      <trkpt lat="40.8089397847652435302734375" lon="-1.730729900300502777099609375">
        <ele>1169</ele>
        <time>2019-07-07T12:13:51.000Z</time>
      </trkpt>
      <trkpt lat="40.80918512307107448577880859375" lon="-1.731289811432361602783203125">
        <ele>1167.199951171875</ele>
        <time>2019-07-07T12:13:53.000Z</time>
      </trkpt>
      <trkpt lat="40.80928637646138668060302734375" lon="-1.73158929683268070220947265625">
        <ele>1164.4000244140625</ele>
        <time>2019-07-07T12:13:54.000Z</time>
      </trkpt>
      <trkpt lat="40.80937631428241729736328125" lon="-1.73190026544034481048583984375">
        <ele>1162.800048828125</ele>
        <time>2019-07-07T12:13:55.000Z</time>
      </trkpt>
      <trkpt lat="40.80954621545970439910888671875" lon="-1.73255120404064655303955078125">
        <ele>1163.5999755859375</ele>
        <time>2019-07-07T12:13:57.000Z</time>
      </trkpt>
      <trkpt lat="40.809632129967212677001953125" lon="-1.73288715071976184844970703125">
        <ele>1164.4000244140625</ele>
        <time>2019-07-07T12:13:58.000Z</time>
      </trkpt>
      <trkpt lat="40.80980437807738780975341796875" lon="-1.73358167521655559539794921875">
        <ele>1165.800048828125</ele>
        <time>2019-07-07T12:14:00.000Z</time>
      </trkpt>
      <trkpt lat="40.8098934777081012725830078125" lon="-1.733933798968791961669921875">
        <ele>1164.4000244140625</ele>
        <time>2019-07-07T12:14:01.000Z</time>
      </trkpt>
      <trkpt lat="40.80998190678656101226806640625" lon="-1.7342860065400600433349609375">
        <ele>1159.5999755859375</ele>
        <time>2019-07-07T12:14:02.000Z</time>
      </trkpt>
      <trkpt lat="40.81006756983697414398193359375" lon="-1.7346387170255184173583984375">
        <ele>1153.4000244140625</ele>
        <time>2019-07-07T12:14:03.000Z</time>
      </trkpt>
      <trkpt lat="40.8101519756019115447998046875" lon="-1.73499050550162792205810546875">
        <ele>1150.199951171875</ele>
        <time>2019-07-07T12:14:04.000Z</time>
      </trkpt>
      <trkpt lat="40.81023730337619781494140625" lon="-1.7353387735784053802490234375">
        <ele>1146.800048828125</ele>
        <time>2019-07-07T12:14:05.000Z</time>
      </trkpt>
      <trkpt lat="40.81032053567469120025634765625" lon="-1.7356874607503414154052734375">
        <ele>1142.5999755859375</ele>
        <time>2019-07-07T12:14:06.000Z</time>
      </trkpt>
      <trkpt lat="40.81040167249739170074462890625" lon="-1.73603975214064121246337890625">
        <ele>1140.5999755859375</ele>
        <time>2019-07-07T12:14:07.000Z</time>
      </trkpt>
      <trkpt lat="40.8104842342436313629150390625" lon="-1.73639346845448017120361328125">
        <ele>1139.4000244140625</ele>
        <time>2019-07-07T12:14:08.000Z</time>
      </trkpt>
      <trkpt lat="40.81057199276983737945556640625" lon="-1.7367452569305896759033203125">
        <ele>1137.5999755859375</ele>
        <time>2019-07-07T12:14:09.000Z</time>
      </trkpt>
      <trkpt lat="40.81075228750705718994140625" lon="-1.73745159991085529327392578125">
        <ele>1136.4000244140625</ele>
        <time>2019-07-07T12:14:11.000Z</time>
      </trkpt>
      <trkpt lat="40.81093073822557926177978515625" lon="-1.73816104419529438018798828125">
        <ele>1135.4000244140625</ele>
        <time>2019-07-07T12:14:13.000Z</time>
      </trkpt>
      <trkpt lat="40.8110210113227367401123046875" lon="-1.73851509578526020050048828125">
        <ele>1133.4000244140625</ele>
        <time>2019-07-07T12:14:14.000Z</time>
      </trkpt>
      <trkpt lat="40.81119778566062450408935546875" lon="-1.7392199300229549407958984375">
        <ele>1131.4000244140625</ele>
        <time>2019-07-07T12:14:16.000Z</time>
      </trkpt>
      <trkpt lat="40.811373554170131683349609375" lon="-1.73992577008903026580810546875">
        <ele>1130.199951171875</ele>
        <time>2019-07-07T12:14:18.000Z</time>
      </trkpt>
      <trkpt lat="40.8115495741367340087890625" lon="-1.74062733538448810577392578125">
        <ele>1130.800048828125</ele>
        <time>2019-07-07T12:14:20.000Z</time>
      </trkpt>
      <trkpt lat="40.81163716502487659454345703125" lon="-1.74097619019448757171630859375">
        <ele>1132.199951171875</ele>
        <time>2019-07-07T12:14:21.000Z</time>
      </trkpt>
      <trkpt lat="40.8118129335343837738037109375" lon="-1.741664595901966094970703125">
        <ele>1132.199951171875</ele>
        <time>2019-07-07T12:14:23.000Z</time>
      </trkpt>
      <trkpt lat="40.81198652274906635284423828125" lon="-1.74233816564083099365234375">
        <ele>1134.199951171875</ele>
        <time>2019-07-07T12:14:25.000Z</time>
      </trkpt>
      <trkpt lat="40.812070928514003753662109375" lon="-1.742671765387058258056640625">
        <ele>1137.199951171875</ele>
        <time>2019-07-07T12:14:26.000Z</time>
      </trkpt>
      <trkpt lat="40.81215441226959228515625" lon="-1.74300662241876125335693359375">
        <ele>1144.5999755859375</ele>
        <time>2019-07-07T12:14:27.000Z</time>
      </trkpt>
      <trkpt lat="40.812238566577434539794921875" lon="-1.7433455027639865875244140625">
        <ele>1151.5999755859375</ele>
        <time>2019-07-07T12:14:28.000Z</time>
      </trkpt>
      <trkpt lat="40.8123238943517208099365234375" lon="-1.74368740059435367584228515625">
        <ele>1157</ele>
        <time>2019-07-07T12:14:29.000Z</time>
      </trkpt>
      <trkpt lat="40.81240930594503879547119140625" lon="-1.74403055571019649505615234375">
        <ele>1161.5999755859375</ele>
        <time>2019-07-07T12:14:30.000Z</time>
      </trkpt>
      <trkpt lat="40.81249446608126163482666015625" lon="-1.7443774826824665069580078125">
        <ele>1163.800048828125</ele>
        <time>2019-07-07T12:14:31.000Z</time>
      </trkpt>
      <trkpt lat="40.8125807158648967742919921875" lon="-1.74472558312118053436279296875">
        <ele>1165</ele>
        <time>2019-07-07T12:14:32.000Z</time>
      </trkpt>
      <trkpt lat="40.81275732256472110748291015625" lon="-1.74542010761797428131103515625">
        <ele>1163.5999755859375</ele>
        <time>2019-07-07T12:14:34.000Z</time>
      </trkpt>
      <trkpt lat="40.81293426454067230224609375" lon="-1.74610977061092853546142578125">
        <ele>1163</ele>
        <time>2019-07-07T12:14:36.000Z</time>
      </trkpt>
      <trkpt lat="40.81302344799041748046875" lon="-1.7464508302509784698486328125">
        <ele>1161.5999755859375</ele>
        <time>2019-07-07T12:14:37.000Z</time>
      </trkpt>
      <trkpt lat="40.81322193145751953125" lon="-1.7471160180866718292236328125">
        <ele>1161.4000244140625</ele>
        <time>2019-07-07T12:14:39.000Z</time>
      </trkpt>
      <trkpt lat="40.8133464865386486053466796875" lon="-1.7474308423697948455810546875">
        <ele>1160.800048828125</ele>
        <time>2019-07-07T12:14:40.000Z</time>
      </trkpt>
      <trkpt lat="40.81349216401576995849609375" lon="-1.74773200415074825286865234375">
        <ele>1159</ele>
        <time>2019-07-07T12:14:41.000Z</time>
      </trkpt>
      <trkpt lat="40.81382115371525287628173828125" lon="-1.74831144511699676513671875">
        <ele>1158.199951171875</ele>
        <time>2019-07-07T12:14:43.000Z</time>
      </trkpt>
      <trkpt lat="40.81399499438703060150146484375" lon="-1.74860338680446147918701171875">
        <ele>1157.800048828125</ele>
        <time>2019-07-07T12:14:44.000Z</time>
      </trkpt>
      <trkpt lat="40.81434988416731357574462890625" lon="-1.7491990886628627777099609375">
        <ele>1156.199951171875</ele>
        <time>2019-07-07T12:14:46.000Z</time>
      </trkpt>
      <trkpt lat="40.81452992744743824005126953125" lon="-1.74950041808187961578369140625">
        <ele>1155.199951171875</ele>
        <time>2019-07-07T12:14:47.000Z</time>
      </trkpt>
      <trkpt lat="40.81489185802638530731201171875" lon="-1.75010123290121555328369140625">
        <ele>1154.199951171875</ele>
        <time>2019-07-07T12:14:49.000Z</time>
      </trkpt>
      <trkpt lat="40.81524976529181003570556640625" lon="-1.750702299177646636962890625">
        <ele>1154.4000244140625</ele>
        <time>2019-07-07T12:14:51.000Z</time>
      </trkpt>
      <trkpt lat="40.81542595289647579193115234375" lon="-1.75100128166377544403076171875">
        <ele>1153.800048828125</ele>
        <time>2019-07-07T12:14:52.000Z</time>
      </trkpt>
      <trkpt lat="40.815770365297794342041015625" lon="-1.7515835724771022796630859375">
        <ele>1153.5999755859375</ele>
        <time>2019-07-07T12:14:54.000Z</time>
      </trkpt>
      <trkpt lat="40.81608108244836330413818359375" lon="-1.752123199403285980224609375">
        <ele>1150</ele>
        <time>2019-07-07T12:14:56.000Z</time>
      </trkpt>
      <trkpt lat="40.81622692756354808807373046875" lon="-1.7523748241364955902099609375">
        <ele>1142.800048828125</ele>
        <time>2019-07-07T12:14:57.000Z</time>
      </trkpt>
      <trkpt lat="40.81636883318424224853515625" lon="-1.75261798314750194549560546875">
        <ele>1134</ele>
        <time>2019-07-07T12:14:58.000Z</time>
      </trkpt>
      <trkpt lat="40.81650822423398494720458984375" lon="-1.7528566159307956695556640625">
        <ele>1129.5999755859375</ele>
        <time>2019-07-07T12:14:59.000Z</time>
      </trkpt>
      <trkpt lat="40.8166462741792201995849609375" lon="-1.7530926503241062164306640625">
        <ele>1127.4000244140625</ele>
        <time>2019-07-07T12:15:00.000Z</time>
      </trkpt>
      <trkpt lat="40.81678323447704315185546875" lon="-1.75332591868937015533447265625">
        <ele>1130</ele>
        <time>2019-07-07T12:15:01.000Z</time>
      </trkpt>
      <trkpt lat="40.81691994331777095794677734375" lon="-1.75355759449303150177001953125">
        <ele>1133.199951171875</ele>
        <time>2019-07-07T12:15:02.000Z</time>
      </trkpt>
      <trkpt lat="40.81705681979656219482421875" lon="-1.75378717482089996337890625">
        <ele>1138.199951171875</ele>
        <time>2019-07-07T12:15:03.000Z</time>
      </trkpt>
      <trkpt lat="40.8171934448182582855224609375" lon="-1.75401574932038784027099609375">
        <ele>1140.800048828125</ele>
        <time>2019-07-07T12:15:04.000Z</time>
      </trkpt>
      <trkpt lat="40.81732881255447864532470703125" lon="-1.75424155779182910919189453125">
        <ele>1142</ele>
        <time>2019-07-07T12:15:05.000Z</time>
      </trkpt>
      <trkpt lat="40.8175830356776714324951171875" lon="-1.75466333515942096710205078125">
        <ele>1140.4000244140625</ele>
        <time>2019-07-07T12:15:07.000Z</time>
      </trkpt>
      <trkpt lat="40.8176997117698192596435546875" lon="-1.75485670566558837890625">
        <ele>1137.800048828125</ele>
        <time>2019-07-07T12:15:08.000Z</time>
      </trkpt>
      <trkpt lat="40.81780959852039813995361328125" lon="-1.7550382576882839202880859375">
        <ele>1136.4000244140625</ele>
        <time>2019-07-07T12:15:09.000Z</time>
      </trkpt>
      <trkpt lat="40.81791336648166179656982421875" lon="-1.7552094161510467529296875">
        <ele>1134.5999755859375</ele>
        <time>2019-07-07T12:15:10.000Z</time>
      </trkpt>
      <trkpt lat="40.8180128596723079681396484375" lon="-1.75537177361547946929931640625">
        <ele>1133.4000244140625</ele>
        <time>2019-07-07T12:15:11.000Z</time>
      </trkpt>
      <trkpt lat="40.818301700055599212646484375" lon="-1.7558274976909160614013671875">
        <ele>1134.4000244140625</ele>
        <time>2019-07-07T12:15:14.000Z</time>
      </trkpt>
      <trkpt lat="40.81860990263521671295166015625" lon="-1.7562921904027462005615234375">
        <ele>1135.800048828125</ele>
        <time>2019-07-07T12:15:17.000Z</time>
      </trkpt>
      <trkpt lat="40.8187176100909709930419921875" lon="-1.75645689480006694793701171875">
        <ele>1137.5999755859375</ele>
        <time>2019-07-07T12:15:18.000Z</time>
      </trkpt>
      <trkpt lat="40.81882632337510585784912109375" lon="-1.7566261254251003265380859375">
        <ele>1140.4000244140625</ele>
        <time>2019-07-07T12:15:19.000Z</time>
      </trkpt>
      <trkpt lat="40.81893780268728733062744140625" lon="-1.75679124891757965087890625">
        <ele>1143.199951171875</ele>
        <time>2019-07-07T12:15:20.000Z</time>
      </trkpt>
      <trkpt lat="40.81904961727559566497802734375" lon="-1.75695578567683696746826171875">
        <ele>1144.800048828125</ele>
        <time>2019-07-07T12:15:21.000Z</time>
      </trkpt>
      <trkpt lat="40.81937952898442745208740234375" lon="-1.7574395053088665008544921875">
        <ele>1145.199951171875</ele>
        <time>2019-07-07T12:15:24.000Z</time>
      </trkpt>
      <trkpt lat="40.81969586201012134552001953125" lon="-1.7579192854464054107666015625">
        <ele>1143.199951171875</ele>
        <time>2019-07-07T12:15:27.000Z</time>
      </trkpt>
      <trkpt lat="40.81999861635267734527587890625" lon="-1.75840266980230808258056640625">
        <ele>1142.4000244140625</ele>
        <time>2019-07-07T12:15:30.000Z</time>
      </trkpt>
      <trkpt lat="40.820092745125293731689453125" lon="-1.75857315771281719207763671875">
        <ele>1142</ele>
        <time>2019-07-07T12:15:31.000Z</time>
      </trkpt>
      <trkpt lat="40.8202561922371387481689453125" lon="-1.75894279964268207550048828125">
        <ele>1140.5999755859375</ele>
        <time>2019-07-07T12:15:33.000Z</time>
      </trkpt>
      <trkpt lat="40.82037848420441150665283203125" lon="-1.75936885178089141845703125">
        <ele>1139</ele>
        <time>2019-07-07T12:15:35.000Z</time>
      </trkpt>
      <trkpt lat="40.82051242701709270477294921875" lon="-1.76009573042392730712890625">
        <ele>1138</ele>
        <time>2019-07-07T12:15:38.000Z</time>
      </trkpt>
      <trkpt lat="40.82055668346583843231201171875" lon="-1.760352887213230133056640625">
        <ele>1136.4000244140625</ele>
        <time>2019-07-07T12:15:39.000Z</time>
      </trkpt>
      <trkpt lat="40.82060244865715503692626953125" lon="-1.76061742007732391357421875">
        <ele>1135.199951171875</ele>
        <time>2019-07-07T12:15:40.000Z</time>
      </trkpt>
      <trkpt lat="40.820647962391376495361328125" lon="-1.76088991574943065643310546875">
        <ele>1133.199951171875</ele>
        <time>2019-07-07T12:15:41.000Z</time>
      </trkpt>
      <trkpt lat="40.820744521915912628173828125" lon="-1.761451251804828643798828125">
        <ele>1132</ele>
        <time>2019-07-07T12:15:43.000Z</time>
      </trkpt>
      <trkpt lat="40.8207926340401172637939453125" lon="-1.76174721680581569671630859375">
        <ele>1131</ele>
        <time>2019-07-07T12:15:44.000Z</time>
      </trkpt>
      <trkpt lat="40.82089581526815891265869140625" lon="-1.76237233914434909820556640625">
        <ele>1131</ele>
        <time>2019-07-07T12:15:46.000Z</time>
      </trkpt>
      <trkpt lat="40.82100092433393001556396484375" lon="-1.763039790093898773193359375">
        <ele>1132.199951171875</ele>
        <time>2019-07-07T12:15:48.000Z</time>
      </trkpt>
      <trkpt lat="40.82108415663242340087890625" lon="-1.76374931819736957550048828125">
        <ele>1131.4000244140625</ele>
        <time>2019-07-07T12:15:50.000Z</time>
      </trkpt>
      <trkpt lat="40.82108792848885059356689453125" lon="-1.76449782215058803558349609375">
        <ele>1131.199951171875</ele>
        <time>2019-07-07T12:15:52.000Z</time>
      </trkpt>
      <trkpt lat="40.8210551552474498748779296875" lon="-1.764872074127197265625">
        <ele>1129</ele>
        <time>2019-07-07T12:15:53.000Z</time>
      </trkpt>
      <trkpt lat="40.82099941559135913848876953125" lon="-1.7652417160570621490478515625">
        <ele>1127.4000244140625</ele>
        <time>2019-07-07T12:15:54.000Z</time>
      </trkpt>
      <trkpt lat="40.8208254911005496978759765625" lon="-1.765955351293087005615234375">
        <ele>1126.199951171875</ele>
        <time>2019-07-07T12:15:56.000Z</time>
      </trkpt>
      <trkpt lat="40.82060043700039386749267578125" lon="-1.76662330515682697296142578125">
        <ele>1125.800048828125</ele>
        <time>2019-07-07T12:15:58.000Z</time>
      </trkpt>
      <trkpt lat="40.8204040490090847015380859375" lon="-1.767270974814891815185546875">
        <ele>1125.800048828125</ele>
        <time>2019-07-07T12:16:00.000Z</time>
      </trkpt>
      <trkpt lat="40.8202816732227802276611328125" lon="-1.767933480441570281982421875">
        <ele>1126</ele>
        <time>2019-07-07T12:16:02.000Z</time>
      </trkpt>
      <trkpt lat="40.820216126739978790283203125" lon="-1.7686263285577297210693359375">
        <ele>1126.5999755859375</ele>
        <time>2019-07-07T12:16:04.000Z</time>
      </trkpt>
      <trkpt lat="40.8202119357883930206298828125" lon="-1.7689745128154754638671875">
        <ele>1127.4000244140625</ele>
        <time>2019-07-07T12:16:05.000Z</time>
      </trkpt>
      <trkpt lat="40.8202665857970714569091796875" lon="-1.76967867650091648101806640625">
        <ele>1127.800048828125</ele>
        <time>2019-07-07T12:16:07.000Z</time>
      </trkpt>
      <trkpt lat="40.8204067312180995941162109375" lon="-1.7703757993876934051513671875">
        <ele>1126.199951171875</ele>
        <time>2019-07-07T12:16:09.000Z</time>
      </trkpt>
      <trkpt lat="40.8206288516521453857421875" lon="-1.7710446752607822418212890625">
        <ele>1126.4000244140625</ele>
        <time>2019-07-07T12:16:11.000Z</time>
      </trkpt>
      <trkpt lat="40.82076991908252239227294921875" lon="-1.77136377431452274322509765625">
        <ele>1125.199951171875</ele>
        <time>2019-07-07T12:16:12.000Z</time>
      </trkpt>
      <trkpt lat="40.820922888815402984619140625" lon="-1.77167457528412342071533203125">
        <ele>1123.800048828125</ele>
        <time>2019-07-07T12:16:13.000Z</time>
      </trkpt>
      <trkpt lat="40.8210860006511211395263671875" lon="-1.7719777487218379974365234375">
        <ele>1122.199951171875</ele>
        <time>2019-07-07T12:16:14.000Z</time>
      </trkpt>
      <trkpt lat="40.82141733728349208831787109375" lon="-1.77258250303566455841064453125">
        <ele>1119.5999755859375</ele>
        <time>2019-07-07T12:16:16.000Z</time>
      </trkpt>
      <trkpt lat="40.8215822093188762664794921875" lon="-1.772884838283061981201171875">
        <ele>1117.5999755859375</ele>
        <time>2019-07-07T12:16:17.000Z</time>
      </trkpt>
      <trkpt lat="40.8219117857515811920166015625" lon="-1.77349068224430084228515625">
        <ele>1115.5999755859375</ele>
        <time>2019-07-07T12:16:19.000Z</time>
      </trkpt>
      <trkpt lat="40.8220772445201873779296875" lon="-1.77379201166331768035888671875">
        <ele>1114.5999755859375</ele>
        <time>2019-07-07T12:16:20.000Z</time>
      </trkpt>
      <trkpt lat="40.82240690477192401885986328125" lon="-1.77439592778682708740234375">
        <ele>1115.800048828125</ele>
        <time>2019-07-07T12:16:22.000Z</time>
      </trkpt>
      <trkpt lat="40.82273128442466259002685546875" lon="-1.7749992571771144866943359375">
        <ele>1119</ele>
        <time>2019-07-07T12:16:24.000Z</time>
      </trkpt>
      <trkpt lat="40.82289255224168300628662109375" lon="-1.77529874257743358612060546875">
        <ele>1120.4000244140625</ele>
        <time>2019-07-07T12:16:25.000Z</time>
      </trkpt>
      <trkpt lat="40.823214836418628692626953125" lon="-1.7758857272565364837646484375">
        <ele>1121.800048828125</ele>
        <time>2019-07-07T12:16:27.000Z</time>
      </trkpt>
      <trkpt lat="40.82353963516652584075927734375" lon="-1.77644840441644191741943359375">
        <ele>1123</ele>
        <time>2019-07-07T12:16:29.000Z</time>
      </trkpt>
      <trkpt lat="40.82389418967068195343017578125" lon="-1.77696607075631618499755859375">
        <ele>1123.5999755859375</ele>
        <time>2019-07-07T12:16:31.000Z</time>
      </trkpt>
      <trkpt lat="40.8243023045361042022705078125" lon="-1.777420453727245330810546875">
        <ele>1125.800048828125</ele>
        <time>2019-07-07T12:16:33.000Z</time>
      </trkpt>
      <trkpt lat="40.8245222456753253936767578125" lon="-1.77762798964977264404296875">
        <ele>1127.5999755859375</ele>
        <time>2019-07-07T12:16:34.000Z</time>
      </trkpt>
      <trkpt lat="40.82474931143224239349365234375" lon="-1.77782823331654071807861328125">
        <ele>1129</ele>
        <time>2019-07-07T12:16:35.000Z</time>
      </trkpt>
      <trkpt lat="40.825207717716693878173828125" lon="-1.77822746336460113525390625">
        <ele>1128.5999755859375</ele>
        <time>2019-07-07T12:16:37.000Z</time>
      </trkpt>
      <trkpt lat="40.82543897442519664764404296875" lon="-1.77842795848846435546875">
        <ele>1127.4000244140625</ele>
        <time>2019-07-07T12:16:38.000Z</time>
      </trkpt>
      <trkpt lat="40.82590014673769474029541015625" lon="-1.77883171476423740386962890625">
        <ele>1125.800048828125</ele>
        <time>2019-07-07T12:16:40.000Z</time>
      </trkpt>
      <trkpt lat="40.8263280428946018218994140625" lon="-1.77924728952348232269287109375">
        <ele>1125.199951171875</ele>
        <time>2019-07-07T12:16:42.000Z</time>
      </trkpt>
      <trkpt lat="40.8267015404999256134033203125" lon="-1.7797229625284671783447265625">
        <ele>1124.4000244140625</ele>
        <time>2019-07-07T12:16:44.000Z</time>
      </trkpt>
      <trkpt lat="40.82703505642712116241455078125" lon="-1.78026535548269748687744140625">
        <ele>1123.5999755859375</ele>
        <time>2019-07-07T12:16:46.000Z</time>
      </trkpt>
      <trkpt lat="40.82735775969922542572021484375" lon="-1.780833564698696136474609375">
        <ele>1122.199951171875</ele>
        <time>2019-07-07T12:16:48.000Z</time>
      </trkpt>
      <trkpt lat="40.8275189436972141265869140625" lon="-1.781120561063289642333984375">
        <ele>1119.5999755859375</ele>
        <time>2019-07-07T12:16:49.000Z</time>
      </trkpt>
      <trkpt lat="40.8276795409619808197021484375" lon="-1.7814092338085174560546875">
        <ele>1117.800048828125</ele>
        <time>2019-07-07T12:16:50.000Z</time>
      </trkpt>
      <trkpt lat="40.82783795893192291259765625" lon="-1.78169555962085723876953125">
        <ele>1114.5999755859375</ele>
        <time>2019-07-07T12:16:51.000Z</time>
      </trkpt>
      <trkpt lat="40.8279920183122158050537109375" lon="-1.78197643719613552093505859375">
        <ele>1113.4000244140625</ele>
        <time>2019-07-07T12:16:52.000Z</time>
      </trkpt>
      <trkpt lat="40.82826585508882999420166015625" lon="-1.78254045546054840087890625">
        <ele>1112.4000244140625</ele>
        <time>2019-07-07T12:16:54.000Z</time>
      </trkpt>
      <trkpt lat="40.828370712697505950927734375" lon="-1.78283876739442348480224609375">
        <ele>1112.800048828125</ele>
        <time>2019-07-07T12:16:55.000Z</time>
      </trkpt>
      <trkpt lat="40.8284501731395721435546875" lon="-1.78315426222980022430419921875">
        <ele>1114.800048828125</ele>
        <time>2019-07-07T12:16:56.000Z</time>
      </trkpt>
      <trkpt lat="40.82850591279566287994384765625" lon="-1.78348534740507602691650390625">
        <ele>1118.199951171875</ele>
        <time>2019-07-07T12:16:57.000Z</time>
      </trkpt>
      <trkpt lat="40.82854027859866619110107421875" lon="-1.78383059799671173095703125">
        <ele>1121.5999755859375</ele>
        <time>2019-07-07T12:16:58.000Z</time>
      </trkpt>
      <trkpt lat="40.82855637185275554656982421875" lon="-1.7841881699860095977783203125">
        <ele>1123.4000244140625</ele>
        <time>2019-07-07T12:16:59.000Z</time>
      </trkpt>
      <trkpt lat="40.82856081426143646240234375" lon="-1.784555129706859588623046875">
        <ele>1124.800048828125</ele>
        <time>2019-07-07T12:17:00.000Z</time>
      </trkpt>
      <trkpt lat="40.828559808433055877685546875" lon="-1.78530975244939327239990234375">
        <ele>1125.4000244140625</ele>
        <time>2019-07-07T12:17:02.000Z</time>
      </trkpt>
      <trkpt lat="40.82856777124106884002685546875" lon="-1.78608767688274383544921875">
        <ele>1122</ele>
        <time>2019-07-07T12:17:04.000Z</time>
      </trkpt>
      <trkpt lat="40.828572213649749755859375" lon="-1.7864838056266307830810546875">
        <ele>1119.199951171875</ele>
        <time>2019-07-07T12:17:05.000Z</time>
      </trkpt>
      <trkpt lat="40.8285762369632720947265625" lon="-1.7868841253221035003662109375">
        <ele>1117.4000244140625</ele>
        <time>2019-07-07T12:17:06.000Z</time>
      </trkpt>
      <trkpt lat="40.82858453504741191864013671875" lon="-1.787693314254283905029296875">
        <ele>1116</ele>
        <time>2019-07-07T12:17:08.000Z</time>
      </trkpt>
      <trkpt lat="40.8285951800644397735595703125" lon="-1.78850837051868438720703125">
        <ele>1115.800048828125</ele>
        <time>2019-07-07T12:17:10.000Z</time>
      </trkpt>
      <trkpt lat="40.82859928719699382781982421875" lon="-1.78891631774604320526123046875">
        <ele>1114.5999755859375</ele>
        <time>2019-07-07T12:17:11.000Z</time>
      </trkpt>
      <trkpt lat="40.82860230468213558197021484375" lon="-1.7893235944211483001708984375">
        <ele>1111.800048828125</ele>
        <time>2019-07-07T12:17:12.000Z</time>
      </trkpt>
      <trkpt lat="40.82860515452921390533447265625" lon="-1.7897289432585239410400390625">
        <ele>1108.5999755859375</ele>
        <time>2019-07-07T12:17:13.000Z</time>
      </trkpt>
      <trkpt lat="40.82860733382403850555419921875" lon="-1.7901332862675189971923828125">
        <ele>1105</ele>
        <time>2019-07-07T12:17:14.000Z</time>
      </trkpt>
      <trkpt lat="40.82860582508146762847900390625" lon="-1.79053871892392635345458984375">
        <ele>1101.800048828125</ele>
        <time>2019-07-07T12:17:15.000Z</time>
      </trkpt>
      <trkpt lat="40.82860632799565792083740234375" lon="-1.79093216545879840850830078125">
        <ele>1099.4000244140625</ele>
        <time>2019-07-07T12:17:16.000Z</time>
      </trkpt>
      <trkpt lat="40.8286085911095142364501953125" lon="-1.7913080938160419464111328125">
        <ele>1096.5999755859375</ele>
        <time>2019-07-07T12:17:17.000Z</time>
      </trkpt>
      <trkpt lat="40.82861085422337055206298828125" lon="-1.7916708625853061676025390625">
        <ele>1095</ele>
        <time>2019-07-07T12:17:18.000Z</time>
      </trkpt>
      <trkpt lat="40.82861244678497314453125" lon="-1.79237267933785915374755859375">
        <ele>1093.800048828125</ele>
        <time>2019-07-07T12:17:20.000Z</time>
      </trkpt>
      <trkpt lat="40.82861672155559062957763671875" lon="-1.7930515296757221221923828125">
        <ele>1094.4000244140625</ele>
        <time>2019-07-07T12:17:22.000Z</time>
      </trkpt>
      <trkpt lat="40.828619487583637237548828125" lon="-1.79338806308805942535400390625">
        <ele>1096.4000244140625</ele>
        <time>2019-07-07T12:17:23.000Z</time>
      </trkpt>
      <trkpt lat="40.8286230079829692840576171875" lon="-1.7940543405711650848388671875">
        <ele>1097.800048828125</ele>
        <time>2019-07-07T12:17:25.000Z</time>
      </trkpt>
      <trkpt lat="40.82862560637295246124267578125" lon="-1.794386766850948333740234375">
        <ele>1100</ele>
        <time>2019-07-07T12:17:26.000Z</time>
      </trkpt>
      <trkpt lat="40.82863214425742626190185546875" lon="-1.7947210371494293212890625">
        <ele>1102.5999755859375</ele>
        <time>2019-07-07T12:17:27.000Z</time>
      </trkpt>
      <trkpt lat="40.8286437951028347015380859375" lon="-1.795057989656925201416015625">
        <ele>1105.199951171875</ele>
        <time>2019-07-07T12:17:28.000Z</time>
      </trkpt>
      <trkpt lat="40.82865946926176548004150390625" lon="-1.7953977920114994049072265625">
        <ele>1107.5999755859375</ele>
        <time>2019-07-07T12:17:29.000Z</time>
      </trkpt>
      <trkpt lat="40.8286773227155208587646484375" lon="-1.79574203677475452423095703125">
        <ele>1110.800048828125</ele>
        <time>2019-07-07T12:17:30.000Z</time>
      </trkpt>
      <trkpt lat="40.8286974392831325531005859375" lon="-1.7960904724895954132080078125">
        <ele>1112.4000244140625</ele>
        <time>2019-07-07T12:17:31.000Z</time>
      </trkpt>
      <trkpt lat="40.82874764688313007354736328125" lon="-1.79679312743246555328369140625">
        <ele>1112.800048828125</ele>
        <time>2019-07-07T12:17:33.000Z</time>
      </trkpt>
      <trkpt lat="40.828777737915515899658203125" lon="-1.797147430479526519775390625">
        <ele>1111.199951171875</ele>
        <time>2019-07-07T12:17:34.000Z</time>
      </trkpt>
      <trkpt lat="40.8288097567856311798095703125" lon="-1.7975051701068878173828125">
        <ele>1109.4000244140625</ele>
        <time>2019-07-07T12:17:35.000Z</time>
      </trkpt>
      <trkpt lat="40.82884521223604679107666015625" lon="-1.79786550812423229217529296875">
        <ele>1108</ele>
        <time>2019-07-07T12:17:36.000Z</time>
      </trkpt>
      <trkpt lat="40.8289230801165103912353515625" lon="-1.798593811690807342529296875">
        <ele>1106.800048828125</ele>
        <time>2019-07-07T12:17:38.000Z</time>
      </trkpt>
      <trkpt lat="40.82900832407176494598388671875" lon="-1.7993356101214885711669921875">
        <ele>1108</ele>
        <time>2019-07-07T12:17:40.000Z</time>
      </trkpt>
      <trkpt lat="40.8290521614253520965576171875" lon="-1.7997121252119541168212890625">
        <ele>1110</ele>
        <time>2019-07-07T12:17:41.000Z</time>
      </trkpt>
      <trkpt lat="40.82909583114087581634521484375" lon="-1.80009040050208568572998046875">
        <ele>1112.800048828125</ele>
        <time>2019-07-07T12:17:42.000Z</time>
      </trkpt>
      <trkpt lat="40.82914059050381183624267578125" lon="-1.800468675792217254638671875">
        <ele>1114.5999755859375</ele>
        <time>2019-07-07T12:17:43.000Z</time>
      </trkpt>
      <trkpt lat="40.82918551750481128692626953125" lon="-1.8008483760058879852294921875">
        <ele>1116.5999755859375</ele>
        <time>2019-07-07T12:17:44.000Z</time>
      </trkpt>
      <trkpt lat="40.82923002541065216064453125" lon="-1.801229082047939300537109375">
        <ele>1118</ele>
        <time>2019-07-07T12:17:45.000Z</time>
      </trkpt>
      <trkpt lat="40.8292741142213344573974609375" lon="-1.8016101233661174774169921875">
        <ele>1119.199951171875</ele>
        <time>2019-07-07T12:17:46.000Z</time>
      </trkpt>
      <trkpt lat="40.8293626271188259124755859375" lon="-1.80237396620213985443115234375">
        <ele>1120.199951171875</ele>
        <time>2019-07-07T12:17:48.000Z</time>
      </trkpt>
      <trkpt lat="40.8294541575014591217041015625" lon="-1.80314074270427227020263671875">
        <ele>1121.199951171875</ele>
        <time>2019-07-07T12:17:50.000Z</time>
      </trkpt>
      <trkpt lat="40.829540826380252838134765625" lon="-1.80391154251992702484130859375">
        <ele>1121</ele>
        <time>2019-07-07T12:17:52.000Z</time>
      </trkpt>
      <trkpt lat="40.8295825682580471038818359375" lon="-1.80429845117032527923583984375">
        <ele>1122</ele>
        <time>2019-07-07T12:17:53.000Z</time>
      </trkpt>
      <trkpt lat="40.82966865040361881256103515625" lon="-1.80506824515759944915771484375">
        <ele>1123.199951171875</ele>
        <time>2019-07-07T12:17:55.000Z</time>
      </trkpt>
      <trkpt lat="40.82975976169109344482421875" lon="-1.805826388299465179443359375">
        <ele>1123.800048828125</ele>
        <time>2019-07-07T12:17:57.000Z</time>
      </trkpt>
      <trkpt lat="40.82980326376855373382568359375" lon="-1.8061993829905986785888671875">
        <ele>1124.800048828125</ele>
        <time>2019-07-07T12:17:58.000Z</time>
      </trkpt>
      <trkpt lat="40.82988725043833255767822265625" lon="-1.80692936293780803680419921875">
        <ele>1124</ele>
        <time>2019-07-07T12:18:00.000Z</time>
      </trkpt>
      <trkpt lat="40.82996805198490619659423828125" lon="-1.8076424114406108856201171875">
        <ele>1123.800048828125</ele>
        <time>2019-07-07T12:18:02.000Z</time>
      </trkpt>
      <trkpt lat="40.8300486020743846893310546875" lon="-1.80834875442087650299072265625">
        <ele>1120.5999755859375</ele>
        <time>2019-07-07T12:18:04.000Z</time>
      </trkpt>
      <trkpt lat="40.8300901763141155242919921875" lon="-1.80870247073471546173095703125">
        <ele>1119.199951171875</ele>
        <time>2019-07-07T12:18:05.000Z</time>
      </trkpt>
      <trkpt lat="40.8301320858299732208251953125" lon="-1.80905769579112529754638671875">
        <ele>1117.800048828125</ele>
        <time>2019-07-07T12:18:06.000Z</time>
      </trkpt>
      <trkpt lat="40.83022604696452617645263671875" lon="-1.80976697243750095367431640625">
        <ele>1115.4000244140625</ele>
        <time>2019-07-07T12:18:08.000Z</time>
      </trkpt>
      <trkpt lat="40.8303526975214481353759765625" lon="-1.8104704655706882476806640625">
        <ele>1116.800048828125</ele>
        <time>2019-07-07T12:18:10.000Z</time>
      </trkpt>
      <trkpt lat="40.830493010580539703369140625" lon="-1.8111495673656463623046875">
        <ele>1116</ele>
        <time>2019-07-07T12:18:12.000Z</time>
      </trkpt>
      <trkpt lat="40.830560736358165740966796875" lon="-1.8114796467125415802001953125">
        <ele>1114.4000244140625</ele>
        <time>2019-07-07T12:18:13.000Z</time>
      </trkpt>
      <trkpt lat="40.8306276239454746246337890625" lon="-1.8117995001375675201416015625">
        <ele>1110.4000244140625</ele>
        <time>2019-07-07T12:18:14.000Z</time>
      </trkpt>
      <trkpt lat="40.83069358952343463897705078125" lon="-1.81211021728813648223876953125">
        <ele>1108.4000244140625</ele>
        <time>2019-07-07T12:18:15.000Z</time>
      </trkpt>
      <trkpt lat="40.83075863309204578399658203125" lon="-1.81242026388645172119140625">
        <ele>1107.4000244140625</ele>
        <time>2019-07-07T12:18:16.000Z</time>
      </trkpt>
      <trkpt lat="40.83082250319421291351318359375" lon="-1.812733747065067291259765625">
        <ele>1102.5999755859375</ele>
        <time>2019-07-07T12:18:17.000Z</time>
      </trkpt>
      <trkpt lat="40.8309525065124034881591796875" lon="-1.813366413116455078125">
        <ele>1101.199951171875</ele>
        <time>2019-07-07T12:18:19.000Z</time>
      </trkpt>
      <trkpt lat="40.8310192264616489410400390625" lon="-1.8136844225227832794189453125">
        <ele>1104.4000244140625</ele>
        <time>2019-07-07T12:18:20.000Z</time>
      </trkpt>
      <trkpt lat="40.83108569495379924774169921875" lon="-1.81400385685265064239501953125">
        <ele>1106</ele>
        <time>2019-07-07T12:18:21.000Z</time>
      </trkpt>
      <trkpt lat="40.8312170393764972686767578125" lon="-1.81464624591171741485595703125">
        <ele>1107.4000244140625</ele>
        <time>2019-07-07T12:18:23.000Z</time>
      </trkpt>
      <trkpt lat="40.831280909478664398193359375" lon="-1.8149628303945064544677734375">
        <ele>1108.5999755859375</ele>
        <time>2019-07-07T12:18:24.000Z</time>
      </trkpt>
      <trkpt lat="40.83141074515879154205322265625" lon="-1.81558736599981784820556640625">
        <ele>1108.800048828125</ele>
        <time>2019-07-07T12:18:26.000Z</time>
      </trkpt>
      <trkpt lat="40.8315395750105381011962890625" lon="-1.8162150867283344268798828125">
        <ele>1109.199951171875</ele>
        <time>2019-07-07T12:18:28.000Z</time>
      </trkpt>
      <trkpt lat="40.83166815340518951416015625" lon="-1.81685269810259342193603515625">
        <ele>1106</ele>
        <time>2019-07-07T12:18:30.000Z</time>
      </trkpt>
      <trkpt lat="40.83173462189733982086181640625" lon="-1.81717372499406337738037109375">
        <ele>1103.199951171875</ele>
        <time>2019-07-07T12:18:31.000Z</time>
      </trkpt>
      <trkpt lat="40.83180251531302928924560546875" lon="-1.81749458424746990203857421875">
        <ele>1099.800048828125</ele>
        <time>2019-07-07T12:18:32.000Z</time>
      </trkpt>
      <trkpt lat="40.83186906762421131134033203125" lon="-1.8178150244057178497314453125">
        <ele>1096.800048828125</ele>
        <time>2019-07-07T12:18:33.000Z</time>
      </trkpt>
      <trkpt lat="40.83193444646894931793212890625" lon="-1.81813496164977550506591796875">
        <ele>1095.4000244140625</ele>
        <time>2019-07-07T12:18:34.000Z</time>
      </trkpt>
      <trkpt lat="40.831999741494655609130859375" lon="-1.81845498271286487579345703125">
        <ele>1093.5999755859375</ele>
        <time>2019-07-07T12:18:35.000Z</time>
      </trkpt>
      <trkpt lat="40.83206646144390106201171875" lon="-1.81877701543271541595458984375">
        <ele>1090.5999755859375</ele>
        <time>2019-07-07T12:18:36.000Z</time>
      </trkpt>
      <trkpt lat="40.83213460631668567657470703125" lon="-1.81909955106675624847412109375">
        <ele>1089.199951171875</ele>
        <time>2019-07-07T12:18:37.000Z</time>
      </trkpt>
      <trkpt lat="40.8322696387767791748046875" lon="-1.81974898092448711395263671875">
        <ele>1090.199951171875</ele>
        <time>2019-07-07T12:18:39.000Z</time>
      </trkpt>
      <trkpt lat="40.83233602344989776611328125" lon="-1.820074282586574554443359375">
        <ele>1090.800048828125</ele>
        <time>2019-07-07T12:18:40.000Z</time>
      </trkpt>
      <trkpt lat="40.83240333013236522674560546875" lon="-1.820400170981884002685546875">
        <ele>1089.199951171875</ele>
        <time>2019-07-07T12:18:41.000Z</time>
      </trkpt>
      <trkpt lat="40.8325405418872833251953125" lon="-1.82105571962893009185791015625">
        <ele>1089.199951171875</ele>
        <time>2019-07-07T12:18:43.000Z</time>
      </trkpt>
      <trkpt lat="40.83260885439813137054443359375" lon="-1.82138831354677677154541015625">
        <ele>1090.800048828125</ele>
        <time>2019-07-07T12:18:44.000Z</time>
      </trkpt>
      <trkpt lat="40.83274581469595432281494140625" lon="-1.8220607936382293701171875">
        <ele>1090.5999755859375</ele>
        <time>2019-07-07T12:18:46.000Z</time>
      </trkpt>
      <trkpt lat="40.83288445137441158294677734375" lon="-1.8227254785597324371337890625">
        <ele>1089.800048828125</ele>
        <time>2019-07-07T12:18:48.000Z</time>
      </trkpt>
      <trkpt lat="40.83302191458642482757568359375" lon="-1.823383457958698272705078125">
        <ele>1089.199951171875</ele>
        <time>2019-07-07T12:18:50.000Z</time>
      </trkpt>
      <trkpt lat="40.8330892212688922882080078125" lon="-1.82371228002011775970458984375">
        <ele>1087.800048828125</ele>
        <time>2019-07-07T12:18:51.000Z</time>
      </trkpt>
      <trkpt lat="40.83322207443416118621826171875" lon="-1.82436682283878326416015625">
        <ele>1088.199951171875</ele>
        <time>2019-07-07T12:18:53.000Z</time>
      </trkpt>
      <trkpt lat="40.83335392177104949951171875" lon="-1.82502153329551219940185546875">
        <ele>1088.199951171875</ele>
        <time>2019-07-07T12:18:55.000Z</time>
      </trkpt>
      <trkpt lat="40.83348811604082584381103515625" lon="-1.825672723352909088134765625">
        <ele>1089.5999755859375</ele>
        <time>2019-07-07T12:18:57.000Z</time>
      </trkpt>
      <trkpt lat="40.83355517126619815826416015625" lon="-1.82599651627242565155029296875">
        <ele>1091</ele>
        <time>2019-07-07T12:18:58.000Z</time>
      </trkpt>
      <trkpt lat="40.8336866833269596099853515625" lon="-1.82664426974952220916748046875">
        <ele>1091</ele>
        <time>2019-07-07T12:19:00.000Z</time>
      </trkpt>
      <trkpt lat="40.833751894533634185791015625" lon="-1.82696999050676822662353515625">
        <ele>1089.800048828125</ele>
        <time>2019-07-07T12:19:01.000Z</time>
      </trkpt>
      <trkpt lat="40.83388675935566425323486328125" lon="-1.82763182558119297027587890625">
        <ele>1088.199951171875</ele>
        <time>2019-07-07T12:19:03.000Z</time>
      </trkpt>
      <trkpt lat="40.83395666442811489105224609375" lon="-1.8279685266315937042236328125">
        <ele>1081.5999755859375</ele>
        <time>2019-07-07T12:19:04.000Z</time>
      </trkpt>
      <trkpt lat="40.834026820957660675048828125" lon="-1.8283098377287387847900390625">
        <ele>1072</ele>
        <time>2019-07-07T12:19:05.000Z</time>
      </trkpt>
      <trkpt lat="40.83409714512526988983154296875" lon="-1.828656010329723358154296875">
        <ele>1060.5999755859375</ele>
        <time>2019-07-07T12:19:06.000Z</time>
      </trkpt>
      <trkpt lat="40.83416755311191082000732421875" lon="-1.829006373882293701171875">
        <ele>1053.4000244140625</ele>
        <time>2019-07-07T12:19:07.000Z</time>
      </trkpt>
      <trkpt lat="40.8342397212982177734375" lon="-1.82935967110097408294677734375">
        <ele>1049</ele>
        <time>2019-07-07T12:19:08.000Z</time>
      </trkpt>
      <trkpt lat="40.83431289531290531158447265625" lon="-1.8297166563570499420166015625">
        <ele>1046</ele>
        <time>2019-07-07T12:19:09.000Z</time>
      </trkpt>
      <trkpt lat="40.83438782952725887298583984375" lon="-1.8300784192979335784912109375">
        <ele>1044.4000244140625</ele>
        <time>2019-07-07T12:19:10.000Z</time>
      </trkpt>
      <trkpt lat="40.83454205654561519622802734375" lon="-1.83081393130123615264892578125">
        <ele>1043.199951171875</ele>
        <time>2019-07-07T12:19:12.000Z</time>
      </trkpt>
      <trkpt lat="40.83461883477866649627685546875" lon="-1.8311895243823528289794921875">
        <ele>1044.199951171875</ele>
        <time>2019-07-07T12:19:13.000Z</time>
      </trkpt>
      <trkpt lat="40.83469678647816181182861328125" lon="-1.831572912633419036865234375">
        <ele>1045.199951171875</ele>
        <time>2019-07-07T12:19:14.000Z</time>
      </trkpt>
      <trkpt lat="40.8348601497709751129150390625" lon="-1.83235578238964080810546875">
        <ele>1046</ele>
        <time>2019-07-07T12:19:16.000Z</time>
      </trkpt>
      <trkpt lat="40.83502502180635929107666015625" lon="-1.83315348811447620391845703125">
        <ele>1043.4000244140625</ele>
        <time>2019-07-07T12:19:18.000Z</time>
      </trkpt>
      <trkpt lat="40.83510364405810832977294921875" lon="-1.8335538916289806365966796875">
        <ele>1040.800048828125</ele>
        <time>2019-07-07T12:19:19.000Z</time>
      </trkpt>
      <trkpt lat="40.8351789973676204681396484375" lon="-1.83395027182996273040771484375">
        <ele>1038.5999755859375</ele>
        <time>2019-07-07T12:19:20.000Z</time>
      </trkpt>
      <trkpt lat="40.83525049500167369842529296875" lon="-1.8343427963554859161376953125">
        <ele>1037</ele>
        <time>2019-07-07T12:19:21.000Z</time>
      </trkpt>
      <trkpt lat="40.83538359962403774261474609375" lon="-1.835122816264629364013671875">
        <ele>1036.199951171875</ele>
        <time>2019-07-07T12:19:23.000Z</time>
      </trkpt>
      <trkpt lat="40.83550932817161083221435546875" lon="-1.835897974669933319091796875">
        <ele>1036.800048828125</ele>
        <time>2019-07-07T12:19:25.000Z</time>
      </trkpt>
      <trkpt lat="40.83563203923404216766357421875" lon="-1.83667187578976154327392578125">
        <ele>1039</ele>
        <time>2019-07-07T12:19:27.000Z</time>
      </trkpt>
      <trkpt lat="40.83569373004138469696044921875" lon="-1.83705358766019344329833984375">
        <ele>1040.199951171875</ele>
        <time>2019-07-07T12:19:28.000Z</time>
      </trkpt>
      <trkpt lat="40.835814513266086578369140625" lon="-1.83780712075531482696533203125">
        <ele>1042</ele>
        <time>2019-07-07T12:19:30.000Z</time>
      </trkpt>
      <trkpt lat="40.83587377332150936126708984375" lon="-1.8381790257990360260009765625">
        <ele>1043.199951171875</ele>
        <time>2019-07-07T12:19:31.000Z</time>
      </trkpt>
      <trkpt lat="40.83593311719596385955810546875" lon="-1.83854891918599605560302734375">
        <ele>1044.5999755859375</ele>
        <time>2019-07-07T12:19:32.000Z</time>
      </trkpt>
      <trkpt lat="40.835992209613323211669921875" lon="-1.83891738764941692352294921875">
        <ele>1045.800048828125</ele>
        <time>2019-07-07T12:19:33.000Z</time>
      </trkpt>
      <trkpt lat="40.8360510505735874176025390625" lon="-1.83928535319864749908447265625">
        <ele>1047</ele>
        <time>2019-07-07T12:19:34.000Z</time>
      </trkpt>
      <trkpt lat="40.8361683972179889678955078125" lon="-1.84002220630645751953125">
        <ele>1047.800048828125</ele>
        <time>2019-07-07T12:19:36.000Z</time>
      </trkpt>
      <trkpt lat="40.836285911500453948974609375" lon="-1.84076526202261447906494140625">
        <ele>1047.5999755859375</ele>
        <time>2019-07-07T12:19:38.000Z</time>
      </trkpt>
      <trkpt lat="40.83634500391781330108642578125" lon="-1.8411385081708431243896484375">
        <ele>1048.4000244140625</ele>
        <time>2019-07-07T12:19:39.000Z</time>
      </trkpt>
      <trkpt lat="40.83646352402865886688232421875" lon="-1.84188776649534702301025390625">
        <ele>1047.800048828125</ele>
        <time>2019-07-07T12:19:41.000Z</time>
      </trkpt>
      <trkpt lat="40.836585648357868194580078125" lon="-1.8426387012004852294921875">
        <ele>1047.199951171875</ele>
        <time>2019-07-07T12:19:43.000Z</time>
      </trkpt>
      <trkpt lat="40.83670844323933124542236328125" lon="-1.84339198283851146697998046875">
        <ele>1047.4000244140625</ele>
        <time>2019-07-07T12:19:45.000Z</time>
      </trkpt>
      <trkpt lat="40.8368282206356525421142578125" lon="-1.84413872659206390380859375">
        <ele>1046.4000244140625</ele>
        <time>2019-07-07T12:19:47.000Z</time>
      </trkpt>
      <trkpt lat="40.83688664250075817108154296875" lon="-1.84450962580740451812744140625">
        <ele>1045.5999755859375</ele>
        <time>2019-07-07T12:19:48.000Z</time>
      </trkpt>
      <trkpt lat="40.8370018936693668365478515625" lon="-1.84523843228816986083984375">
        <ele>1044.5999755859375</ele>
        <time>2019-07-07T12:19:50.000Z</time>
      </trkpt>
      <trkpt lat="40.83706115372478961944580078125" lon="-1.84559893794357776641845703125">
        <ele>1043.199951171875</ele>
        <time>2019-07-07T12:19:51.000Z</time>
      </trkpt>
      <trkpt lat="40.8371163904666900634765625" lon="-1.8459621258080005645751953125">
        <ele>1040.5999755859375</ele>
        <time>2019-07-07T12:19:52.000Z</time>
      </trkpt>
      <trkpt lat="40.83717196248471736907958984375" lon="-1.84632296673953533172607421875">
        <ele>1039.5999755859375</ele>
        <time>2019-07-07T12:19:53.000Z</time>
      </trkpt>
      <trkpt lat="40.83728143014013767242431640625" lon="-1.84704565443098545074462890625">
        <ele>1039.4000244140625</ele>
        <time>2019-07-07T12:19:55.000Z</time>
      </trkpt>
      <trkpt lat="40.83738653920590877532958984375" lon="-1.84777404181659221649169921875">
        <ele>1038</ele>
        <time>2019-07-07T12:19:57.000Z</time>
      </trkpt>
      <trkpt lat="40.83746264688670635223388671875" lon="-1.8485102243721485137939453125">
        <ele>1038</ele>
        <time>2019-07-07T12:19:59.000Z</time>
      </trkpt>
      <trkpt lat="40.83748980425298213958740234375" lon="-1.84925143606960773468017578125">
        <ele>1036.800048828125</ele>
        <time>2019-07-07T12:20:01.000Z</time>
      </trkpt>
      <trkpt lat="40.8375128544867038726806640625" lon="-1.8499817512929439544677734375">
        <ele>1036.4000244140625</ele>
        <time>2019-07-07T12:20:03.000Z</time>
      </trkpt>
      <trkpt lat="40.8375413529574871063232421875" lon="-1.8506992422044277191162109375">
        <ele>1037.800048828125</ele>
        <time>2019-07-07T12:20:05.000Z</time>
      </trkpt>
      <trkpt lat="40.83755426108837127685546875" lon="-1.8510566465556621551513671875">
        <ele>1039.800048828125</ele>
        <time>2019-07-07T12:20:06.000Z</time>
      </trkpt>
      <trkpt lat="40.83756574429571628570556640625" lon="-1.85141379944980144500732421875">
        <ele>1042.800048828125</ele>
        <time>2019-07-07T12:20:07.000Z</time>
      </trkpt>
      <trkpt lat="40.83757705986499786376953125" lon="-1.8517738021910190582275390625">
        <ele>1044.199951171875</ele>
        <time>2019-07-07T12:20:08.000Z</time>
      </trkpt>
      <trkpt lat="40.837604217231273651123046875" lon="-1.852502524852752685546875">
        <ele>1042</ele>
        <time>2019-07-07T12:20:10.000Z</time>
      </trkpt>
      <trkpt lat="40.83763179369270801544189453125" lon="-1.853248178958892822265625">
        <ele>1040.5999755859375</ele>
        <time>2019-07-07T12:20:12.000Z</time>
      </trkpt>
      <trkpt lat="40.837643109261989593505859375" lon="-1.8536282144486904144287109375">
        <ele>1037</ele>
        <time>2019-07-07T12:20:13.000Z</time>
      </trkpt>
      <trkpt lat="40.83765727467834949493408203125" lon="-1.85400967486202716827392578125">
        <ele>1032.800048828125</ele>
        <time>2019-07-07T12:20:14.000Z</time>
      </trkpt>
      <trkpt lat="40.83767286501824855804443359375" lon="-1.85439272783696651458740234375">
        <ele>1027.800048828125</ele>
        <time>2019-07-07T12:20:15.000Z</time>
      </trkpt>
      <trkpt lat="40.837688036262989044189453125" lon="-1.8547772057354450225830078125">
        <ele>1023.20001220703125</ele>
        <time>2019-07-07T12:20:16.000Z</time>
      </trkpt>
      <trkpt lat="40.8377016149461269378662109375" lon="-1.85516336001455783843994140625">
        <ele>1019.5999755859375</ele>
        <time>2019-07-07T12:20:17.000Z</time>
      </trkpt>
      <trkpt lat="40.8377140201628208160400390625" lon="-1.8555503524839878082275390625">
        <ele>1017</ele>
        <time>2019-07-07T12:20:18.000Z</time>
      </trkpt>
      <trkpt lat="40.83772785030305385589599609375" lon="-1.855936758220195770263671875">
        <ele>1015.5999755859375</ele>
        <time>2019-07-07T12:20:19.000Z</time>
      </trkpt>
      <trkpt lat="40.8377579413354396820068359375" lon="-1.856712587177753448486328125">
        <ele>1011.5999755859375</ele>
        <time>2019-07-07T12:20:21.000Z</time>
      </trkpt>
      <trkpt lat="40.83777227438986301422119140625" lon="-1.85710175894200801849365234375">
        <ele>1006.79998779296875</ele>
        <time>2019-07-07T12:20:22.000Z</time>
      </trkpt>
      <trkpt lat="40.83780077286064624786376953125" lon="-1.857884041965007781982421875">
        <ele>1003</ele>
        <time>2019-07-07T12:20:24.000Z</time>
      </trkpt>
      <trkpt lat="40.83781451918184757232666015625" lon="-1.85827740468084812164306640625">
        <ele>1001.4000244140625</ele>
        <time>2019-07-07T12:20:25.000Z</time>
      </trkpt>
      <trkpt lat="40.8378405869007110595703125" lon="-1.85906413011252880096435546875">
        <ele>1000</ele>
        <time>2019-07-07T12:20:27.000Z</time>
      </trkpt>
      <trkpt lat="40.83785257302224636077880859375" lon="-1.8594482727348804473876953125">
        <ele>1001.4000244140625</ele>
        <time>2019-07-07T12:20:28.000Z</time>
      </trkpt>
      <trkpt lat="40.8378652296960353851318359375" lon="-1.85982034541666507720947265625">
        <ele>1003</ele>
        <time>2019-07-07T12:20:29.000Z</time>
      </trkpt>
      <trkpt lat="40.83790202625095844268798828125" lon="-1.8605439551174640655517578125">
        <ele>1005</ele>
        <time>2019-07-07T12:20:31.000Z</time>
      </trkpt>
      <trkpt lat="40.8379842527210712432861328125" lon="-1.86125080101191997528076171875">
        <ele>1005.20001220703125</ele>
        <time>2019-07-07T12:20:33.000Z</time>
      </trkpt>
      <trkpt lat="40.83810956217348575592041015625" lon="-1.861945576965808868408203125">
        <ele>1005</ele>
        <time>2019-07-07T12:20:35.000Z</time>
      </trkpt>
      <trkpt lat="40.83824886940419673919677734375" lon="-1.86263389885425567626953125">
        <ele>1004.79998779296875</ele>
        <time>2019-07-07T12:20:37.000Z</time>
      </trkpt>
      <trkpt lat="40.83839245140552520751953125" lon="-1.86332012526690959930419921875">
        <ele>1006.5999755859375</ele>
        <time>2019-07-07T12:20:39.000Z</time>
      </trkpt>
      <trkpt lat="40.83846629597246646881103515625" lon="-1.86366244219243526458740234375">
        <ele>1012.20001220703125</ele>
        <time>2019-07-07T12:20:40.000Z</time>
      </trkpt>
      <trkpt lat="40.8385465107858180999755859375" lon="-1.86400123871862888336181640625">
        <ele>1020.79998779296875</ele>
        <time>2019-07-07T12:20:41.000Z</time>
      </trkpt>
      <trkpt lat="40.8386363647878170013427734375" lon="-1.86433441936969757080078125">
        <ele>1029.199951171875</ele>
        <time>2019-07-07T12:20:42.000Z</time>
      </trkpt>
      <trkpt lat="40.838738121092319488525390625" lon="-1.86466089449822902679443359375">
        <ele>1034.4000244140625</ele>
        <time>2019-07-07T12:20:43.000Z</time>
      </trkpt>
      <trkpt lat="40.838852114975452423095703125" lon="-1.8649799935519695281982421875">
        <ele>1037.199951171875</ele>
        <time>2019-07-07T12:20:44.000Z</time>
      </trkpt>
      <trkpt lat="40.83911036141216754913330078125" lon="-1.8656029365956783294677734375">
        <ele>1038.4000244140625</ele>
        <time>2019-07-07T12:20:46.000Z</time>
      </trkpt>
      <trkpt lat="40.8392499200999736785888671875" lon="-1.8659097142517566680908203125">
        <ele>1037</ele>
        <time>2019-07-07T12:20:47.000Z</time>
      </trkpt>
      <trkpt lat="40.83939283154904842376708984375" lon="-1.8662166595458984375">
        <ele>1035</ele>
        <time>2019-07-07T12:20:48.000Z</time>
      </trkpt>
      <trkpt lat="40.83953733555972576141357421875" lon="-1.8665225990116596221923828125">
        <ele>1033.800048828125</ele>
        <time>2019-07-07T12:20:49.000Z</time>
      </trkpt>
      <trkpt lat="40.839818380773067474365234375" lon="-1.8671385012567043304443359375">
        <ele>1033</ele>
        <time>2019-07-07T12:20:51.000Z</time>
      </trkpt>
      <trkpt lat="40.839954502880573272705078125" lon="-1.8674437701702117919921875">
        <ele>1032.5999755859375</ele>
        <time>2019-07-07T12:20:52.000Z</time>
      </trkpt>
      <trkpt lat="40.84019464440643787384033203125" lon="-1.8680256418883800506591796875">
        <ele>1033.199951171875</ele>
        <time>2019-07-07T12:20:54.000Z</time>
      </trkpt>
      <trkpt lat="40.84037586115300655364990234375" lon="-1.8685837090015411376953125">
        <ele>1033.199951171875</ele>
        <time>2019-07-07T12:20:56.000Z</time>
      </trkpt>
      <trkpt lat="40.8405362069606781005859375" lon="-1.86936968006193637847900390625">
        <ele>1032</ele>
        <time>2019-07-07T12:20:59.000Z</time>
      </trkpt>
      <trkpt lat="40.84057845175266265869140625" lon="-1.8696205504238605499267578125">
        <ele>1031.4000244140625</ele>
        <time>2019-07-07T12:21:00.000Z</time>
      </trkpt>
      <trkpt lat="40.84065481089055538177490234375" lon="-1.870114244520664215087890625">
        <ele>1030</ele>
        <time>2019-07-07T12:21:02.000Z</time>
      </trkpt>
      <trkpt lat="40.8407335169613361358642578125" lon="-1.87058522365987300872802734375">
        <ele>1029</ele>
        <time>2019-07-07T12:21:04.000Z</time>
      </trkpt>
      <trkpt lat="40.840771235525608062744140625" lon="-1.8708137981593608856201171875">
        <ele>1027</ele>
        <time>2019-07-07T12:21:05.000Z</time>
      </trkpt>
      <trkpt lat="40.84080903790891170501708984375" lon="-1.87104052864015102386474609375">
        <ele>1023.79998779296875</ele>
        <time>2019-07-07T12:21:06.000Z</time>
      </trkpt>
      <trkpt lat="40.840846337378025054931640625" lon="-1.87126399017870426177978515625">
        <ele>1021</ele>
        <time>2019-07-07T12:21:07.000Z</time>
      </trkpt>
      <trkpt lat="40.84088296629488468170166015625" lon="-1.871482841670513153076171875">
        <ele>1018.5999755859375</ele>
        <time>2019-07-07T12:21:08.000Z</time>
      </trkpt>
      <trkpt lat="40.84095622412860393524169921875" lon="-1.871921718120574951171875">
        <ele>1017.4000244140625</ele>
        <time>2019-07-07T12:21:10.000Z</time>
      </trkpt>
      <trkpt lat="40.8410577289760112762451171875" lon="-1.87255597673356533050537109375">
        <ele>1016.79998779296875</ele>
        <time>2019-07-07T12:21:13.000Z</time>
      </trkpt>
      <trkpt lat="40.841178596019744873046875" lon="-1.8733095936477184295654296875">
        <ele>1017</ele>
        <time>2019-07-07T12:21:17.000Z</time>
      </trkpt>
      <trkpt lat="40.8413033187389373779296875" lon="-1.87401694245636463165283203125">
        <ele>1016.4000244140625</ele>
        <time>2019-07-07T12:21:21.000Z</time>
      </trkpt>
      <trkpt lat="40.84136031568050384521484375" lon="-1.8743626959621906280517578125">
        <ele>1016</ele>
        <time>2019-07-07T12:21:23.000Z</time>
      </trkpt>
      <trkpt lat="40.841470621526241302490234375" lon="-1.87504640780389308929443359375">
        <ele>1015.4000244140625</ele>
        <time>2019-07-07T12:21:27.000Z</time>
      </trkpt>
      <trkpt lat="40.84158821962773799896240234375" lon="-1.875735819339752197265625">
        <ele>1016.4000244140625</ele>
        <time>2019-07-07T12:21:31.000Z</time>
      </trkpt>
      <trkpt lat="40.84161378443241119384765625" lon="-1.8759019486606121063232421875">
        <ele>1017.20001220703125</ele>
        <time>2019-07-07T12:21:32.000Z</time>
      </trkpt>
      <trkpt lat="40.8416592143476009368896484375" lon="-1.87620730139315128326416015625">
        <ele>1018.20001220703125</ele>
        <time>2019-07-07T12:21:34.000Z</time>
      </trkpt>
      <trkpt lat="40.84172501228749752044677734375" lon="-1.8766303360462188720703125">
        <ele>1019.20001220703125</ele>
        <time>2019-07-07T12:21:37.000Z</time>
      </trkpt>
      <trkpt lat="40.84178812801837921142578125" lon="-1.877044402062892913818359375">
        <ele>1018.20001220703125</ele>
        <time>2019-07-07T12:21:40.000Z</time>
      </trkpt>
      <trkpt lat="40.84184487350285053253173828125" lon="-1.87748730182647705078125">
        <ele>1017.20001220703125</ele>
        <time>2019-07-07T12:21:43.000Z</time>
      </trkpt>
      <trkpt lat="40.841948054730892181396484375" lon="-1.87808518297970294952392578125">
        <ele>1016</ele>
        <time>2019-07-07T12:21:47.000Z</time>
      </trkpt>
      <trkpt lat="40.8420286886394023895263671875" lon="-1.87855138443410396575927734375">
        <ele>1017.20001220703125</ele>
        <time>2019-07-07T12:21:50.000Z</time>
      </trkpt>
      <trkpt lat="40.84213656373322010040283203125" lon="-1.8792510218918323516845703125">
        <ele>1017</ele>
        <time>2019-07-07T12:21:55.000Z</time>
      </trkpt>
      <trkpt lat="40.84222222678363323211669921875" lon="-1.87976843677461147308349609375">
        <ele>1016</ele>
        <time>2019-07-07T12:21:59.000Z</time>
      </trkpt>
      <trkpt lat="40.8422680757939815521240234375" lon="-1.88002802431583404541015625">
        <ele>1014.20001220703125</ele>
        <time>2019-07-07T12:22:01.000Z</time>
      </trkpt>
      <trkpt lat="40.84229238331317901611328125" lon="-1.88016087748110294342041015625">
        <ele>1013</ele>
        <time>2019-07-07T12:22:02.000Z</time>
      </trkpt>
      <trkpt lat="40.8423803932964801788330078125" lon="-1.88054342754185199737548828125">
        <ele>1011.5999755859375</ele>
        <time>2019-07-07T12:22:05.000Z</time>
      </trkpt>
      <trkpt lat="40.84262589924037456512451171875" lon="-1.8811552226543426513671875">
        <ele>1011</ele>
        <time>2019-07-07T12:22:10.000Z</time>
      </trkpt>
      <trkpt lat="40.84298715926706790924072265625" lon="-1.88171186484396457672119140625">
        <ele>1012.79998779296875</ele>
        <time>2019-07-07T12:22:15.000Z</time>
      </trkpt>
      <trkpt lat="40.84337591193616390228271484375" lon="-1.88209223560988903045654296875">
        <ele>1014.20001220703125</ele>
        <time>2019-07-07T12:22:19.000Z</time>
      </trkpt>
      <trkpt lat="40.84348169155418872833251953125" lon="-1.88216306269168853759765625">
        <ele>1015</ele>
        <time>2019-07-07T12:22:20.000Z</time>
      </trkpt>
      <trkpt lat="40.8435885608196258544921875" lon="-1.8822205625474452972412109375">
        <ele>1015.79998779296875</ele>
        <time>2019-07-07T12:22:21.000Z</time>
      </trkpt>
      <trkpt lat="40.84390112198889255523681640625" lon="-1.8823566846549510955810546875">
        <ele>1017.4000244140625</ele>
        <time>2019-07-07T12:22:24.000Z</time>
      </trkpt>
      <trkpt lat="40.844193398952484130859375" lon="-1.88248316757380962371826171875">
        <ele>1019.20001220703125</ele>
        <time>2019-07-07T12:22:27.000Z</time>
      </trkpt>
      <trkpt lat="40.8443709276616573333740234375" lon="-1.8825809843838214874267578125">
        <ele>1020.4000244140625</ele>
        <time>2019-07-07T12:22:29.000Z</time>
      </trkpt>
      <trkpt lat="40.84452875889837741851806640625" lon="-1.8827335350215435028076171875">
        <ele>1021</ele>
        <time>2019-07-07T12:22:31.000Z</time>
      </trkpt>
      <trkpt lat="40.8446589298546314239501953125" lon="-1.88294450752437114715576171875">
        <ele>1021.5999755859375</ele>
        <time>2019-07-07T12:22:33.000Z</time>
      </trkpt>
      <trkpt lat="40.84473646245896816253662109375" lon="-1.88320920802652835845947265625">
        <ele>1021.79998779296875</ele>
        <time>2019-07-07T12:22:35.000Z</time>
      </trkpt>
      <trkpt lat="40.8448523841798305511474609375" lon="-1.8837762437760829925537109375">
        <ele>1022.5999755859375</ele>
        <time>2019-07-07T12:22:39.000Z</time>
      </trkpt>
      <trkpt lat="40.8450315892696380615234375" lon="-1.88446397893130779266357421875">
        <ele>1023.4000244140625</ele>
        <time>2019-07-07T12:22:44.000Z</time>
      </trkpt>
      <trkpt lat="40.8450424857437610626220703125" lon="-1.8846045434474945068359375">
        <ele>1023.5999755859375</ele>
        <time>2019-07-07T12:22:45.000Z</time>
      </trkpt>
      <trkpt lat="40.84502547048032283782958984375" lon="-1.88474066555500030517578125">
        <ele>1023.79998779296875</ele>
        <time>2019-07-07T12:22:46.000Z</time>
      </trkpt>
      <trkpt lat="40.84490678273141384124755859375" lon="-1.884973682463169097900390625">
        <ele>1024.800048828125</ele>
        <time>2019-07-07T12:22:48.000Z</time>
      </trkpt>
      <trkpt lat="40.844737552106380462646484375" lon="-1.88516621477901935577392578125">
        <ele>1025.800048828125</ele>
        <time>2019-07-07T12:22:50.000Z</time>
      </trkpt>
      <trkpt lat="40.84458491764962673187255859375" lon="-1.885384730994701385498046875">
        <ele>1027.800048828125</ele>
        <time>2019-07-07T12:22:52.000Z</time>
      </trkpt>
      <trkpt lat="40.84450520575046539306640625" lon="-1.88565555028617382049560546875">
        <ele>1029.199951171875</ele>
        <time>2019-07-07T12:22:54.000Z</time>
      </trkpt>
      <trkpt lat="40.84452423267066478729248046875" lon="-1.8859644234180450439453125">
        <ele>1030.4000244140625</ele>
        <time>2019-07-07T12:22:56.000Z</time>
      </trkpt>
      <trkpt lat="40.8446072973310947418212890625" lon="-1.886243037879467010498046875">
        <ele>1031.5999755859375</ele>
        <time>2019-07-07T12:22:58.000Z</time>
      </trkpt>
      <trkpt lat="40.84475523792207241058349609375" lon="-1.88660438172519207000732421875">
        <ele>1033</ele>
        <time>2019-07-07T12:23:01.000Z</time>
      </trkpt>
      <trkpt lat="40.84485950879752635955810546875" lon="-1.88713327981531620025634765625">
        <ele>1034.199951171875</ele>
        <time>2019-07-07T12:23:05.000Z</time>
      </trkpt>
      <trkpt lat="40.84490326233208179473876953125" lon="-1.88740904442965984344482421875">
        <ele>1035.4000244140625</ele>
        <time>2019-07-07T12:23:07.000Z</time>
      </trkpt>
      <trkpt lat="40.84497316740453243255615234375" lon="-1.888011284172534942626953125">
        <ele>1035.199951171875</ele>
        <time>2019-07-07T12:23:11.000Z</time>
      </trkpt>
      <trkpt lat="40.84492857567965984344482421875" lon="-1.888326443731784820556640625">
        <ele>1033.5999755859375</ele>
        <time>2019-07-07T12:23:13.000Z</time>
      </trkpt>
      <trkpt lat="40.84471818991005420684814453125" lon="-1.88893203623592853546142578125">
        <ele>1032.199951171875</ele>
        <time>2019-07-07T12:23:17.000Z</time>
      </trkpt>
      <trkpt lat="40.84452808834612369537353515625" lon="-1.8894940428435802459716796875">
        <ele>1030.800048828125</ele>
        <time>2019-07-07T12:23:21.000Z</time>
      </trkpt>
      <trkpt lat="40.8445020206272602081298828125" lon="-1.88979118131101131439208984375">
        <ele>1030.4000244140625</ele>
        <time>2019-07-07T12:23:23.000Z</time>
      </trkpt>
      <trkpt lat="40.8445506356656551361083984375" lon="-1.8901079334318637847900390625">
        <ele>1030.199951171875</ele>
        <time>2019-07-07T12:23:25.000Z</time>
      </trkpt>
      <trkpt lat="40.8446780405938625335693359375" lon="-1.8904019705951213836669921875">
        <ele>1029.4000244140625</ele>
        <time>2019-07-07T12:23:27.000Z</time>
      </trkpt>
      <trkpt lat="40.844882391393184661865234375" lon="-1.89058025367558002471923828125">
        <ele>1028.4000244140625</ele>
        <time>2019-07-07T12:23:29.000Z</time>
      </trkpt>
      <trkpt lat="40.84539997391402721405029296875" lon="-1.89073498360812664031982421875">
        <ele>1027.199951171875</ele>
        <time>2019-07-07T12:23:33.000Z</time>
      </trkpt>
      <trkpt lat="40.845540203154087066650390625" lon="-1.89074772410094738006591796875">
        <ele>1026.800048828125</ele>
        <time>2019-07-07T12:23:34.000Z</time>
      </trkpt>
      <trkpt lat="40.8458246849477291107177734375" lon="-1.89067815430462360382080078125">
        <ele>1025.800048828125</ele>
        <time>2019-07-07T12:23:36.000Z</time>
      </trkpt>
      <trkpt lat="40.84607639349997043609619140625" lon="-1.89047346822917461395263671875">
        <ele>1024.5999755859375</ele>
        <time>2019-07-07T12:23:38.000Z</time>
      </trkpt>
      <trkpt lat="40.84630521945655345916748046875" lon="-1.890215389430522918701171875">
        <ele>1023.4000244140625</ele>
        <time>2019-07-07T12:23:40.000Z</time>
      </trkpt>
      <trkpt lat="40.84653186611831188201904296875" lon="-1.88996426761150360107421875">
        <ele>1021.20001220703125</ele>
        <time>2019-07-07T12:23:42.000Z</time>
      </trkpt>
      <trkpt lat="40.846645943820476531982421875" lon="-1.88985471613705158233642578125">
        <ele>1019.5999755859375</ele>
        <time>2019-07-07T12:23:43.000Z</time>
      </trkpt>
      <trkpt lat="40.846878625452518463134765625" lon="-1.88969076611101627349853515625">
        <ele>1018</ele>
        <time>2019-07-07T12:23:45.000Z</time>
      </trkpt>
      <trkpt lat="40.84712144918739795684814453125" lon="-1.88963309861719608306884765625">
        <ele>1016.4000244140625</ele>
        <time>2019-07-07T12:23:47.000Z</time>
      </trkpt>
      <trkpt lat="40.8473629318177700042724609375" lon="-1.88971255905926227569580078125">
        <ele>1015.5999755859375</ele>
        <time>2019-07-07T12:23:49.000Z</time>
      </trkpt>
      <trkpt lat="40.84747164510190486907958984375" lon="-1.88980526290833950042724609375">
        <ele>1015.20001220703125</ele>
        <time>2019-07-07T12:23:50.000Z</time>
      </trkpt>
      <trkpt lat="40.8475661091506481170654296875" lon="-1.8899282254278659820556640625">
        <ele>1014</ele>
        <time>2019-07-07T12:23:51.000Z</time>
      </trkpt>
      <trkpt lat="40.84772394038736820220947265625" lon="-1.8902212567627429962158203125">
        <ele>1012.4000244140625</ele>
        <time>2019-07-07T12:23:53.000Z</time>
      </trkpt>
      <trkpt lat="40.84779300726950168609619140625" lon="-1.890380345284938812255859375">
        <ele>1011.20001220703125</ele>
        <time>2019-07-07T12:23:54.000Z</time>
      </trkpt>
      <trkpt lat="40.8478591404855251312255859375" lon="-1.89054429531097412109375">
        <ele>1009.79998779296875</ele>
        <time>2019-07-07T12:23:55.000Z</time>
      </trkpt>
      <trkpt lat="40.847924016416072845458984375" lon="-1.89070614986121654510498046875">
        <ele>1008.20001220703125</ele>
        <time>2019-07-07T12:23:56.000Z</time>
      </trkpt>
      <trkpt lat="40.8479912392795085906982421875" lon="-1.89086423255503177642822265625">
        <ele>1006.5999755859375</ele>
        <time>2019-07-07T12:23:57.000Z</time>
      </trkpt>
      <trkpt lat="40.84812576882541179656982421875" lon="-1.89119598828256130218505859375">
        <ele>1005.20001220703125</ele>
        <time>2019-07-07T12:23:59.000Z</time>
      </trkpt>
      <trkpt lat="40.848331041634082794189453125" lon="-1.8917185999453067779541015625">
        <ele>1004</ele>
        <time>2019-07-07T12:24:02.000Z</time>
      </trkpt>
      <trkpt lat="40.84854017011821269989013671875" lon="-1.89226937480270862579345703125">
        <ele>1003.79998779296875</ele>
        <time>2019-07-07T12:24:05.000Z</time>
      </trkpt>
      <trkpt lat="40.848683416843414306640625" lon="-1.89286130480468273162841796875">
        <ele>1003.5999755859375</ele>
        <time>2019-07-07T12:24:08.000Z</time>
      </trkpt>
      <trkpt lat="40.84877519868314266204833984375" lon="-1.8935029394924640655517578125">
        <ele>1003.5999755859375</ele>
        <time>2019-07-07T12:24:11.000Z</time>
      </trkpt>
      <trkpt lat="40.8488954789936542510986328125" lon="-1.89419017173349857330322265625">
        <ele>1003.5999755859375</ele>
        <time>2019-07-07T12:24:14.000Z</time>
      </trkpt>
      <trkpt lat="40.8490228839218616485595703125" lon="-1.89462997019290924072265625">
        <ele>1005.20001220703125</ele>
        <time>2019-07-07T12:24:16.000Z</time>
      </trkpt>
      <trkpt lat="40.84919932298362255096435546875" lon="-1.895070858299732208251953125">
        <ele>1007</ele>
        <time>2019-07-07T12:24:18.000Z</time>
      </trkpt>
      <trkpt lat="40.84946771152317523956298828125" lon="-1.8955025263130664825439453125">
        <ele>1007.5999755859375</ele>
        <time>2019-07-07T12:24:20.000Z</time>
      </trkpt>
      <trkpt lat="40.84980717860162258148193359375" lon="-1.89591684378683567047119140625">
        <ele>1007</ele>
        <time>2019-07-07T12:24:22.000Z</time>
      </trkpt>
      <trkpt lat="40.85014848969876766204833984375" lon="-1.8963427282869815826416015625">
        <ele>1006.79998779296875</ele>
        <time>2019-07-07T12:24:24.000Z</time>
      </trkpt>
      <trkpt lat="40.850315876305103302001953125" lon="-1.8965646810829639434814453125">
        <ele>1005.4000244140625</ele>
        <time>2019-07-07T12:24:25.000Z</time>
      </trkpt>
      <trkpt lat="40.85065123625099658966064453125" lon="-1.8970236741006374359130859375">
        <ele>1005.4000244140625</ele>
        <time>2019-07-07T12:24:27.000Z</time>
      </trkpt>
      <trkpt lat="40.85099271498620510101318359375" lon="-1.8974964134395122528076171875">
        <ele>1005</ele>
        <time>2019-07-07T12:24:29.000Z</time>
      </trkpt>
      <trkpt lat="40.85116236470639705657958984375" lon="-1.897724568843841552734375">
        <ele>1003.20001220703125</ele>
        <time>2019-07-07T12:24:30.000Z</time>
      </trkpt>
      <trkpt lat="40.85132614709436893463134765625" lon="-1.8979456834495067596435546875">
        <ele>1001</ele>
        <time>2019-07-07T12:24:31.000Z</time>
      </trkpt>
      <trkpt lat="40.85163678042590618133544921875" lon="-1.89837374724447727203369140625">
        <ele>999.79998779296875</ele>
        <time>2019-07-07T12:24:33.000Z</time>
      </trkpt>
      <trkpt lat="40.85209183394908905029296875" lon="-1.89900591038167476654052734375">
        <ele>1000</ele>
        <time>2019-07-07T12:24:36.000Z</time>
      </trkpt>
      <trkpt lat="40.8522445522248744964599609375" lon="-1.89921478740870952606201171875">
        <ele>1001.20001220703125</ele>
        <time>2019-07-07T12:24:37.000Z</time>
      </trkpt>
      <trkpt lat="40.85239802487194538116455078125" lon="-1.89942307770252227783203125">
        <ele>1003.20001220703125</ele>
        <time>2019-07-07T12:24:38.000Z</time>
      </trkpt>
      <trkpt lat="40.85255091078579425811767578125" lon="-1.899630613625049591064453125">
        <ele>1004.20001220703125</ele>
        <time>2019-07-07T12:24:39.000Z</time>
      </trkpt>
      <trkpt lat="40.85285048000514507293701171875" lon="-1.90004861913621425628662109375">
        <ele>1002.79998779296875</ele>
        <time>2019-07-07T12:24:41.000Z</time>
      </trkpt>
      <trkpt lat="40.8529982529580593109130859375" lon="-1.90025732852518558502197265625">
        <ele>999.79998779296875</ele>
        <time>2019-07-07T12:24:42.000Z</time>
      </trkpt>
      <trkpt lat="40.85314300842583179473876953125" lon="-1.9004689715802669525146484375">
        <ele>998.79998779296875</ele>
        <time>2019-07-07T12:24:43.000Z</time>
      </trkpt>
      <trkpt lat="40.85328214801847934722900390625" lon="-1.9006865657866001129150390625">
        <ele>997.5999755859375</ele>
        <time>2019-07-07T12:24:44.000Z</time>
      </trkpt>
      <trkpt lat="40.853649191558361053466796875" lon="-1.90140414051711559295654296875">
        <ele>996.5999755859375</ele>
        <time>2019-07-07T12:24:47.000Z</time>
      </trkpt>
      <trkpt lat="40.85383258759975433349609375" lon="-1.90194946713745594024658203125">
        <ele>997.4000244140625</ele>
        <time>2019-07-07T12:24:49.000Z</time>
      </trkpt>
      <trkpt lat="40.85390559397637844085693359375" lon="-1.90224920399487018585205078125">
        <ele>999.20001220703125</ele>
        <time>2019-07-07T12:24:50.000Z</time>
      </trkpt>
      <trkpt lat="40.8539749123156070709228515625" lon="-1.90256134606897830963134765625">
        <ele>1002</ele>
        <time>2019-07-07T12:24:51.000Z</time>
      </trkpt>
      <trkpt lat="40.85404506884515285491943359375" lon="-1.902882121503353118896484375">
        <ele>1003.4000244140625</ele>
        <time>2019-07-07T12:24:52.000Z</time>
      </trkpt>
      <trkpt lat="40.854191668331623077392578125" lon="-1.90354873426258563995361328125">
        <ele>1004.5999755859375</ele>
        <time>2019-07-07T12:24:54.000Z</time>
      </trkpt>
      <trkpt lat="40.8542666025459766387939453125" lon="-1.9038881175220012664794921875">
        <ele>1002</ele>
        <time>2019-07-07T12:24:55.000Z</time>
      </trkpt>
      <trkpt lat="40.8543420396745204925537109375" lon="-1.90422532148659229278564453125">
        <ele>999.4000244140625</ele>
        <time>2019-07-07T12:24:56.000Z</time>
      </trkpt>
      <trkpt lat="40.8544166386127471923828125" lon="-1.90456093288958072662353515625">
        <ele>997</ele>
        <time>2019-07-07T12:24:57.000Z</time>
      </trkpt>
      <trkpt lat="40.85449048317968845367431640625" lon="-1.90489788539707660675048828125">
        <ele>995.79998779296875</ele>
        <time>2019-07-07T12:24:58.000Z</time>
      </trkpt>
      <trkpt lat="40.854563154280185699462890625" lon="-1.90523282624781131744384765625">
        <ele>993.79998779296875</ele>
        <time>2019-07-07T12:24:59.000Z</time>
      </trkpt>
      <trkpt lat="40.85470522753894329071044921875" lon="-1.90588183701038360595703125">
        <ele>994.20001220703125</ele>
        <time>2019-07-07T12:25:01.000Z</time>
      </trkpt>
      <trkpt lat="40.854776389896869659423828125" lon="-1.9061981700360774993896484375">
        <ele>995.4000244140625</ele>
        <time>2019-07-07T12:25:02.000Z</time>
      </trkpt>
      <trkpt lat="40.8549150265753269195556640625" lon="-1.90682337619364261627197265625">
        <ele>994</ele>
        <time>2019-07-07T12:25:04.000Z</time>
      </trkpt>
      <trkpt lat="40.8549827523529529571533203125" lon="-1.9071275554597377777099609375">
        <ele>992</ele>
        <time>2019-07-07T12:25:05.000Z</time>
      </trkpt>
      <trkpt lat="40.85511359386146068572998046875" lon="-1.90772225148975849151611328125">
        <ele>991.20001220703125</ele>
        <time>2019-07-07T12:25:07.000Z</time>
      </trkpt>
      <trkpt lat="40.8552454411983489990234375" lon="-1.9083125889301300048828125">
        <ele>991</ele>
        <time>2019-07-07T12:25:09.000Z</time>
      </trkpt>
      <trkpt lat="40.8553773723542690277099609375" lon="-1.908898316323757171630859375">
        <ele>991.79998779296875</ele>
        <time>2019-07-07T12:25:11.000Z</time>
      </trkpt>
      <trkpt lat="40.8554410748183727264404296875" lon="-1.90918556414544582366943359375">
        <ele>992.79998779296875</ele>
        <time>2019-07-07T12:25:12.000Z</time>
      </trkpt>
      <trkpt lat="40.85562975145876407623291015625" lon="-1.91002358682453632354736328125">
        <ele>994.20001220703125</ele>
        <time>2019-07-07T12:25:15.000Z</time>
      </trkpt>
      <trkpt lat="40.8558098785579204559326171875" lon="-1.91086613573133945465087890625">
        <ele>995.79998779296875</ele>
        <time>2019-07-07T12:25:18.000Z</time>
      </trkpt>
      <trkpt lat="40.85593686439096927642822265625" lon="-1.91142755560576915740966796875">
        <ele>992.20001220703125</ele>
        <time>2019-07-07T12:25:20.000Z</time>
      </trkpt>
      <trkpt lat="40.85606594569981098175048828125" lon="-1.911987550556659698486328125">
        <ele>990.79998779296875</ele>
        <time>2019-07-07T12:25:22.000Z</time>
      </trkpt>
      <trkpt lat="40.8561957813799381256103515625" lon="-1.9125556759536266326904296875">
        <ele>989.4000244140625</ele>
        <time>2019-07-07T12:25:24.000Z</time>
      </trkpt>
      <trkpt lat="40.856330394744873046875" lon="-1.913133524358272552490234375">
        <ele>990.5999755859375</ele>
        <time>2019-07-07T12:25:26.000Z</time>
      </trkpt>
      <trkpt lat="40.8563962765038013458251953125" lon="-1.9134277291595935821533203125">
        <ele>992</ele>
        <time>2019-07-07T12:25:27.000Z</time>
      </trkpt>
      <trkpt lat="40.85646291263401508331298828125" lon="-1.91372335888445377349853515625">
        <ele>993</ele>
        <time>2019-07-07T12:25:28.000Z</time>
      </trkpt>
      <trkpt lat="40.85652946494519710540771484375" lon="-1.91401965916156768798828125">
        <ele>994</ele>
        <time>2019-07-07T12:25:29.000Z</time>
      </trkpt>
      <trkpt lat="40.85665519349277019500732421875" lon="-1.9146072305738925933837890625">
        <ele>995.20001220703125</ele>
        <time>2019-07-07T12:25:31.000Z</time>
      </trkpt>
      <trkpt lat="40.85678259842097759246826171875" lon="-1.9151755236089229583740234375">
        <ele>994</ele>
        <time>2019-07-07T12:25:33.000Z</time>
      </trkpt>
      <trkpt lat="40.856849066913127899169921875" lon="-1.91545556299388408660888671875">
        <ele>992</ele>
        <time>2019-07-07T12:25:34.000Z</time>
      </trkpt>
      <trkpt lat="40.856914781033992767333984375" lon="-1.91573719494044780731201171875">
        <ele>990.4000244140625</ele>
        <time>2019-07-07T12:25:35.000Z</time>
      </trkpt>
      <trkpt lat="40.8569786511361598968505859375" lon="-1.9160210900008678436279296875">
        <ele>988.79998779296875</ele>
        <time>2019-07-07T12:25:36.000Z</time>
      </trkpt>
      <trkpt lat="40.857040844857692718505859375" lon="-1.9163055717945098876953125">
        <ele>987.20001220703125</ele>
        <time>2019-07-07T12:25:37.000Z</time>
      </trkpt>
      <trkpt lat="40.8571033738553524017333984375" lon="-1.91659315489232540130615234375">
        <ele>986.20001220703125</ele>
        <time>2019-07-07T12:25:38.000Z</time>
      </trkpt>
      <trkpt lat="40.857167579233646392822265625" lon="-1.916881240904331207275390625">
        <ele>985</ele>
        <time>2019-07-07T12:25:39.000Z</time>
      </trkpt>
      <trkpt lat="40.85729607380926609039306640625" lon="-1.9174543954432010650634765625">
        <ele>984.5999755859375</ele>
        <time>2019-07-07T12:25:41.000Z</time>
      </trkpt>
      <trkpt lat="40.85742683149874210357666015625" lon="-1.91803785972297191619873046875">
        <ele>984.4000244140625</ele>
        <time>2019-07-07T12:25:43.000Z</time>
      </trkpt>
      <trkpt lat="40.85755951702594757080078125" lon="-1.91864102147519588470458984375">
        <ele>986.5999755859375</ele>
        <time>2019-07-07T12:25:45.000Z</time>
      </trkpt>
      <trkpt lat="40.85762665607035160064697265625" lon="-1.918947882950305938720703125">
        <ele>988.5999755859375</ele>
        <time>2019-07-07T12:25:46.000Z</time>
      </trkpt>
      <trkpt lat="40.857694633305072784423828125" lon="-1.91925809718668460845947265625">
        <ele>990.4000244140625</ele>
        <time>2019-07-07T12:25:47.000Z</time>
      </trkpt>
      <trkpt lat="40.85783553309738636016845703125" lon="-1.91989813931286334991455078125">
        <ele>991.5999755859375</ele>
        <time>2019-07-07T12:25:49.000Z</time>
      </trkpt>
      <trkpt lat="40.8579874970018863677978515625" lon="-1.920555531978607177734375">
        <ele>992</ele>
        <time>2019-07-07T12:25:51.000Z</time>
      </trkpt>
      <trkpt lat="40.8581400476396083831787109375" lon="-1.92123077809810638427734375">
        <ele>988</ele>
        <time>2019-07-07T12:25:53.000Z</time>
      </trkpt>
      <trkpt lat="40.858216993510723114013671875" lon="-1.92157468758523464202880859375">
        <ele>982.5999755859375</ele>
        <time>2019-07-07T12:25:54.000Z</time>
      </trkpt>
      <trkpt lat="40.858293436467647552490234375" lon="-1.9219192676246166229248046875">
        <ele>979.4000244140625</ele>
        <time>2019-07-07T12:25:55.000Z</time>
      </trkpt>
      <trkpt lat="40.8583697117865085601806640625" lon="-1.92225747741758823394775390625">
        <ele>980.79998779296875</ele>
        <time>2019-07-07T12:25:56.000Z</time>
      </trkpt>
      <trkpt lat="40.85844556801021099090576171875" lon="-1.9225884787738323211669921875">
        <ele>982.4000244140625</ele>
        <time>2019-07-07T12:25:57.000Z</time>
      </trkpt>
      <trkpt lat="40.85852586664259433746337890625" lon="-1.9229100085794925689697265625">
        <ele>979</ele>
        <time>2019-07-07T12:25:58.000Z</time>
      </trkpt>
      <trkpt lat="40.85860700346529483795166015625" lon="-1.92322759889066219329833984375">
        <ele>980.20001220703125</ele>
        <time>2019-07-07T12:25:59.000Z</time>
      </trkpt>
      <trkpt lat="40.85868730209767818450927734375" lon="-1.923540495336055755615234375">
        <ele>984.4000244140625</ele>
        <time>2019-07-07T12:26:00.000Z</time>
      </trkpt>
      <trkpt lat="40.8587717078626155853271484375" lon="-1.92384886555373668670654296875">
        <ele>988.5999755859375</ele>
        <time>2019-07-07T12:26:01.000Z</time>
      </trkpt>
      <trkpt lat="40.85886315442621707916259765625" lon="-1.9241491891443729400634765625">
        <ele>990.5999755859375</ele>
        <time>2019-07-07T12:26:02.000Z</time>
      </trkpt>
      <trkpt lat="40.858966670930385589599609375" lon="-1.924439035356044769287109375">
        <ele>988.79998779296875</ele>
        <time>2019-07-07T12:26:03.000Z</time>
      </trkpt>
      <trkpt lat="40.85922474972903728485107421875" lon="-1.924976147711277008056640625">
        <ele>989.5999755859375</ele>
        <time>2019-07-07T12:26:05.000Z</time>
      </trkpt>
      <trkpt lat="40.85938048548996448516845703125" lon="-1.925218887627124786376953125">
        <ele>990.79998779296875</ele>
        <time>2019-07-07T12:26:06.000Z</time>
      </trkpt>
      <trkpt lat="40.85973654873669147491455078125" lon="-1.925662457942962646484375">
        <ele>988.5999755859375</ele>
        <time>2019-07-07T12:26:08.000Z</time>
      </trkpt>
      <trkpt lat="40.86012194864451885223388671875" lon="-1.9260917790234088897705078125">
        <ele>990.5999755859375</ele>
        <time>2019-07-07T12:26:10.000Z</time>
      </trkpt>
      <trkpt lat="40.8603186719119548797607421875" lon="-1.92631180398166179656982421875">
        <ele>991.79998779296875</ele>
        <time>2019-07-07T12:26:11.000Z</time>
      </trkpt>
      <trkpt lat="40.86051841266453266143798828125" lon="-1.926535181701183319091796875">
        <ele>993.20001220703125</ele>
        <time>2019-07-07T12:26:12.000Z</time>
      </trkpt>
      <trkpt lat="40.8607189916074275970458984375" lon="-1.926762163639068603515625">
        <ele>995.4000244140625</ele>
        <time>2019-07-07T12:26:13.000Z</time>
      </trkpt>
      <trkpt lat="40.86092124693095684051513671875" lon="-1.9269923307001590728759765625">
        <ele>996.4000244140625</ele>
        <time>2019-07-07T12:26:14.000Z</time>
      </trkpt>
      <trkpt lat="40.8613288588821887969970703125" lon="-1.92745752632617950439453125">
        <ele>997.20001220703125</ele>
        <time>2019-07-07T12:26:16.000Z</time>
      </trkpt>
      <trkpt lat="40.8615343831479549407958984375" lon="-1.92769129760563373565673828125">
        <ele>997.5999755859375</ele>
        <time>2019-07-07T12:26:17.000Z</time>
      </trkpt>
      <trkpt lat="40.86194953881204128265380859375" lon="-1.92816671915352344512939453125">
        <ele>997.79998779296875</ele>
        <time>2019-07-07T12:26:19.000Z</time>
      </trkpt>
      <trkpt lat="40.86233410052955150604248046875" lon="-1.9286854751408100128173828125">
        <ele>998.20001220703125</ele>
        <time>2019-07-07T12:26:21.000Z</time>
      </trkpt>
      <trkpt lat="40.86249235086143016815185546875" lon="-1.92896358668804168701171875">
        <ele>998.79998779296875</ele>
        <time>2019-07-07T12:26:22.000Z</time>
      </trkpt>
      <trkpt lat="40.862746573984622955322265625" lon="-1.9295461289584636688232421875">
        <ele>999.5999755859375</ele>
        <time>2019-07-07T12:26:24.000Z</time>
      </trkpt>
      <trkpt lat="40.8628550358116626739501953125" lon="-1.92984729073941707611083984375">
        <ele>1000</ele>
        <time>2019-07-07T12:26:25.000Z</time>
      </trkpt>
      <trkpt lat="40.86295855231583118438720703125" lon="-1.93015088327229022979736328125">
        <ele>1001.20001220703125</ele>
        <time>2019-07-07T12:26:26.000Z</time>
      </trkpt>
      <trkpt lat="40.86305863223969936370849609375" lon="-1.9304530508816242218017578125">
        <ele>1002.5999755859375</ele>
        <time>2019-07-07T12:26:27.000Z</time>
      </trkpt>
      <trkpt lat="40.863253176212310791015625" lon="-1.93102964200079441070556640625">
        <ele>1003.79998779296875</ele>
        <time>2019-07-07T12:26:29.000Z</time>
      </trkpt>
      <trkpt lat="40.86343028582632541656494140625" lon="-1.931542865931987762451171875">
        <ele>1002</ele>
        <time>2019-07-07T12:26:31.000Z</time>
      </trkpt>
      <trkpt lat="40.86358912289142608642578125" lon="-1.9320130906999111175537109375">
        <ele>999.4000244140625</ele>
        <time>2019-07-07T12:26:33.000Z</time>
      </trkpt>
      <trkpt lat="40.86366422474384307861328125" lon="-1.93223110400140285491943359375">
        <ele>998</ele>
        <time>2019-07-07T12:26:34.000Z</time>
      </trkpt>
      <trkpt lat="40.86373639293015003204345703125" lon="-1.93244081921875476837158203125">
        <ele>996.79998779296875</ele>
        <time>2019-07-07T12:26:35.000Z</time>
      </trkpt>
      <trkpt lat="40.86393856443464756011962890625" lon="-1.93304783664643764495849609375">
        <ele>998</ele>
        <time>2019-07-07T12:26:38.000Z</time>
      </trkpt>
      <trkpt lat="40.86407166905701160430908203125" lon="-1.93343340419232845306396484375">
        <ele>999.20001220703125</ele>
        <time>2019-07-07T12:26:40.000Z</time>
      </trkpt>
      <trkpt lat="40.8642001636326313018798828125" lon="-1.9338041357696056365966796875">
        <ele>1000.4000244140625</ele>
        <time>2019-07-07T12:26:42.000Z</time>
      </trkpt>
      <trkpt lat="40.86438414640724658966064453125" lon="-1.9343489594757556915283203125">
        <ele>999.79998779296875</ele>
        <time>2019-07-07T12:26:45.000Z</time>
      </trkpt>
      <trkpt lat="40.86457273922860622406005859375" lon="-1.9348907656967639923095703125">
        <ele>999.5999755859375</ele>
        <time>2019-07-07T12:26:48.000Z</time>
      </trkpt>
      <trkpt lat="40.86476887576282024383544921875" lon="-1.93546383641660213470458984375">
        <ele>999.4000244140625</ele>
        <time>2019-07-07T12:26:51.000Z</time>
      </trkpt>
      <trkpt lat="40.86497423239052295684814453125" lon="-1.93605174310505390167236328125">
        <ele>1000.79998779296875</ele>
        <time>2019-07-07T12:26:54.000Z</time>
      </trkpt>
      <trkpt lat="40.865044556558132171630859375" lon="-1.9362516514956951141357421875">
        <ele>1001.79998779296875</ele>
        <time>2019-07-07T12:26:55.000Z</time>
      </trkpt>
      <trkpt lat="40.86525552906095981597900390625" lon="-1.93685338832437992095947265625">
        <ele>1002.4000244140625</ele>
        <time>2019-07-07T12:26:58.000Z</time>
      </trkpt>
      <trkpt lat="40.86544043384492397308349609375" lon="-1.93738664500415325164794921875">
        <ele>1000</ele>
        <time>2019-07-07T12:27:01.000Z</time>
      </trkpt>
      <trkpt lat="40.865552164614200592041015625" lon="-1.937700547277927398681640625">
        <ele>999</ele>
        <time>2019-07-07T12:27:03.000Z</time>
      </trkpt>
      <trkpt lat="40.865741260349750518798828125" lon="-1.93815727718174457550048828125">
        <ele>998</ele>
        <time>2019-07-07T12:27:06.000Z</time>
      </trkpt>
      <trkpt lat="40.86582650430500507354736328125" lon="-1.93829591386020183563232421875">
        <ele>998</ele>
        <time>2019-07-07T12:27:07.000Z</time>
      </trkpt>
      <trkpt lat="40.86593094281852245330810546875" lon="-1.938425414264202117919921875">
        <ele>998</ele>
        <time>2019-07-07T12:27:08.000Z</time>
      </trkpt>
      <trkpt lat="40.86619178764522075653076171875" lon="-1.938659437000751495361328125">
        <ele>999.20001220703125</ele>
        <time>2019-07-07T12:27:10.000Z</time>
      </trkpt>
      <trkpt lat="40.86660836823284626007080078125" lon="-1.9389814697206020355224609375">
        <ele>999.79998779296875</ele>
        <time>2019-07-07T12:27:13.000Z</time>
      </trkpt>
      <trkpt lat="40.867109186947345733642578125" lon="-1.93937969394028186798095703125">
        <ele>997.5999755859375</ele>
        <time>2019-07-07T12:27:17.000Z</time>
      </trkpt>
      <trkpt lat="40.86749886162579059600830078125" lon="-1.93969267420470714569091796875">
        <ele>998.4000244140625</ele>
        <time>2019-07-07T12:27:20.000Z</time>
      </trkpt>
      <trkpt lat="40.867638252675533294677734375" lon="-1.9398042373359203338623046875">
        <ele>998.79998779296875</ele>
        <time>2019-07-07T12:27:21.000Z</time>
      </trkpt>
      <trkpt lat="40.86778719909489154815673828125" lon="-1.939921416342258453369140625">
        <ele>999.79998779296875</ele>
        <time>2019-07-07T12:27:22.000Z</time>
      </trkpt>
      <trkpt lat="40.8682863414287567138671875" lon="-1.94031880237162113189697265625">
        <ele>1000.79998779296875</ele>
        <time>2019-07-07T12:27:25.000Z</time>
      </trkpt>
      <trkpt lat="40.86885136552155017852783203125" lon="-1.9407627917826175689697265625">
        <ele>1000.4000244140625</ele>
        <time>2019-07-07T12:27:28.000Z</time>
      </trkpt>
      <trkpt lat="40.869254954159259796142578125" lon="-1.94105657748878002166748046875">
        <ele>1000.4000244140625</ele>
        <time>2019-07-07T12:27:30.000Z</time>
      </trkpt>
      <trkpt lat="40.86967505514621734619140625" lon="-1.94133837707340717315673828125">
        <ele>1001.20001220703125</ele>
        <time>2019-07-07T12:27:32.000Z</time>
      </trkpt>
      <trkpt lat="40.87011158466339111328125" lon="-1.941624619066715240478515625">
        <ele>997.79998779296875</ele>
        <time>2019-07-07T12:27:34.000Z</time>
      </trkpt>
      <trkpt lat="40.87033127434551715850830078125" lon="-1.94176602177321910858154296875">
        <ele>994.4000244140625</ele>
        <time>2019-07-07T12:27:35.000Z</time>
      </trkpt>
      <trkpt lat="40.870549120008945465087890625" lon="-1.94190365262329578399658203125">
        <ele>990.20001220703125</ele>
        <time>2019-07-07T12:27:36.000Z</time>
      </trkpt>
      <trkpt lat="40.8707668818533420562744140625" lon="-1.94204044528305530548095703125">
        <ele>987.4000244140625</ele>
        <time>2019-07-07T12:27:37.000Z</time>
      </trkpt>
      <trkpt lat="40.87098707444965839385986328125" lon="-1.94218075834214687347412109375">
        <ele>985.79998779296875</ele>
        <time>2019-07-07T12:27:38.000Z</time>
      </trkpt>
      <trkpt lat="40.8714324049651622772216796875" lon="-1.94246289320290088653564453125">
        <ele>985.4000244140625</ele>
        <time>2019-07-07T12:27:40.000Z</time>
      </trkpt>
      <trkpt lat="40.871892236173152923583984375" lon="-1.94274720735847949981689453125">
        <ele>986</ele>
        <time>2019-07-07T12:27:42.000Z</time>
      </trkpt>
      <trkpt lat="40.87236740626394748687744140625" lon="-1.9430399872362613677978515625">
        <ele>987</ele>
        <time>2019-07-07T12:27:44.000Z</time>
      </trkpt>
      <trkpt lat="40.8728516288101673126220703125" lon="-1.94334693253040313720703125">
        <ele>986.4000244140625</ele>
        <time>2019-07-07T12:27:46.000Z</time>
      </trkpt>
      <trkpt lat="40.87309755384922027587890625" lon="-1.943504512310028076171875">
        <ele>985.20001220703125</ele>
        <time>2019-07-07T12:27:47.000Z</time>
      </trkpt>
      <trkpt lat="40.87360105477273464202880859375" lon="-1.94382662884891033172607421875">
        <ele>984.5999755859375</ele>
        <time>2019-07-07T12:27:49.000Z</time>
      </trkpt>
      <trkpt lat="40.87385787628591060638427734375" lon="-1.9439908303320407867431640625">
        <ele>984</ele>
        <time>2019-07-07T12:27:50.000Z</time>
      </trkpt>
      <trkpt lat="40.87438057176768779754638671875" lon="-1.9443214125931262969970703125">
        <ele>985.20001220703125</ele>
        <time>2019-07-07T12:27:52.000Z</time>
      </trkpt>
      <trkpt lat="40.874912403523921966552734375" lon="-1.94466163404285907745361328125">
        <ele>985.20001220703125</ele>
        <time>2019-07-07T12:27:54.000Z</time>
      </trkpt>
      <trkpt lat="40.87544859386980533599853515625" lon="-1.94500411860644817352294921875">
        <ele>982.79998779296875</ele>
        <time>2019-07-07T12:27:56.000Z</time>
      </trkpt>
      <trkpt lat="40.87599056772887706756591796875" lon="-1.9453436695039272308349609375">
        <ele>981.20001220703125</ele>
        <time>2019-07-07T12:27:58.000Z</time>
      </trkpt>
      <trkpt lat="40.87653421796858310699462890625" lon="-1.94568690843880176544189453125">
        <ele>980</ele>
        <time>2019-07-07T12:28:00.000Z</time>
      </trkpt>
      <trkpt lat="40.877068899571895599365234375" lon="-1.94602268747985363006591796875">
        <ele>980.5999755859375</ele>
        <time>2019-07-07T12:28:02.000Z</time>
      </trkpt>
      <trkpt lat="40.8775920979678630828857421875" lon="-1.94635243155062198638916015625">
        <ele>981.20001220703125</ele>
        <time>2019-07-07T12:28:04.000Z</time>
      </trkpt>
      <trkpt lat="40.87810649536550045013427734375" lon="-1.94667899049818515777587890625">
        <ele>982.79998779296875</ele>
        <time>2019-07-07T12:28:06.000Z</time>
      </trkpt>
      <trkpt lat="40.8786136843264102935791015625" lon="-1.94699850864708423614501953125">
        <ele>984.20001220703125</ele>
        <time>2019-07-07T12:28:08.000Z</time>
      </trkpt>
      <trkpt lat="40.8791117370128631591796875" lon="-1.94731450639665126800537109375">
        <ele>986</ele>
        <time>2019-07-07T12:28:10.000Z</time>
      </trkpt>
      <trkpt lat="40.8793596737086772918701171875" lon="-1.94747761823236942291259765625">
        <ele>987.79998779296875</ele>
        <time>2019-07-07T12:28:11.000Z</time>
      </trkpt>
      <trkpt lat="40.8796077780425548553466796875" lon="-1.94764140062034130096435546875">
        <ele>988.79998779296875</ele>
        <time>2019-07-07T12:28:12.000Z</time>
      </trkpt>
      <trkpt lat="40.8798444829881191253662109375" lon="-1.94783032871782779693603515625">
        <ele>991.5999755859375</ele>
        <time>2019-07-07T12:28:13.000Z</time>
      </trkpt>
      <trkpt lat="40.8800681121647357940673828125" lon="-1.94804457016289234161376953125">
        <ele>995</ele>
        <time>2019-07-07T12:28:14.000Z</time>
      </trkpt>
      <trkpt lat="40.88028662838041782379150390625" lon="-1.9482679478824138641357421875">
        <ele>999.4000244140625</ele>
        <time>2019-07-07T12:28:15.000Z</time>
      </trkpt>
      <trkpt lat="40.88050221092998981475830078125" lon="-1.94849736057221889495849609375">
        <ele>1002.5999755859375</ele>
        <time>2019-07-07T12:28:16.000Z</time>
      </trkpt>
      <trkpt lat="40.8807182125747203826904296875" lon="-1.948729790747165679931640625">
        <ele>1005.20001220703125</ele>
        <time>2019-07-07T12:28:17.000Z</time>
      </trkpt>
      <trkpt lat="40.8809358067810535430908203125" lon="-1.94896280765533447265625">
        <ele>1006.5999755859375</ele>
        <time>2019-07-07T12:28:18.000Z</time>
      </trkpt>
      <trkpt lat="40.88137761689722537994384765625" lon="-1.94943261332809925079345703125">
        <ele>1008</ele>
        <time>2019-07-07T12:28:20.000Z</time>
      </trkpt>
      <trkpt lat="40.8818242885172367095947265625" lon="-1.9499134831130504608154296875">
        <ele>1008.4000244140625</ele>
        <time>2019-07-07T12:28:22.000Z</time>
      </trkpt>
      <trkpt lat="40.88227867148816585540771484375" lon="-1.95039602927863597869873046875">
        <ele>1008</ele>
        <time>2019-07-07T12:28:24.000Z</time>
      </trkpt>
      <trkpt lat="40.882747806608676910400390625" lon="-1.9508646614849567413330078125">
        <ele>1008.79998779296875</ele>
        <time>2019-07-07T12:28:26.000Z</time>
      </trkpt>
      <trkpt lat="40.88298845104873180389404296875" lon="-1.95109323598444461822509765625">
        <ele>1009.79998779296875</ele>
        <time>2019-07-07T12:28:27.000Z</time>
      </trkpt>
      <trkpt lat="40.88347376324236392974853515625" lon="-1.95155046880245208740234375">
        <ele>1010.5999755859375</ele>
        <time>2019-07-07T12:28:29.000Z</time>
      </trkpt>
      <trkpt lat="40.88371641933917999267578125" lon="-1.9517809711396694183349609375">
        <ele>1011.20001220703125</ele>
        <time>2019-07-07T12:28:30.000Z</time>
      </trkpt>
      <trkpt lat="40.88395890779793262481689453125" lon="-1.9520089589059352874755859375">
        <ele>1013.4000244140625</ele>
        <time>2019-07-07T12:28:31.000Z</time>
      </trkpt>
      <trkpt lat="40.8844273723661899566650390625" lon="-1.95245211012661457061767578125">
        <ele>1011.20001220703125</ele>
        <time>2019-07-07T12:28:33.000Z</time>
      </trkpt>
      <trkpt lat="40.8846459724009037017822265625" lon="-1.952665261924266815185546875">
        <ele>1008.4000244140625</ele>
        <time>2019-07-07T12:28:34.000Z</time>
      </trkpt>
      <trkpt lat="40.88485275395214557647705078125" lon="-1.9528806768357753753662109375">
        <ele>1005</ele>
        <time>2019-07-07T12:28:35.000Z</time>
      </trkpt>
      <trkpt lat="40.88504520244896411895751953125" lon="-1.95310774259269237518310546875">
        <ele>1001.4000244140625</ele>
        <time>2019-07-07T12:28:36.000Z</time>
      </trkpt>
      <trkpt lat="40.8852213062345981597900390625" lon="-1.95335316471755504608154296875">
        <ele>999.4000244140625</ele>
        <time>2019-07-07T12:28:37.000Z</time>
      </trkpt>
      <trkpt lat="40.88537712581455707550048828125" lon="-1.95362205617129802703857421875">
        <ele>998.20001220703125</ele>
        <time>2019-07-07T12:28:38.000Z</time>
      </trkpt>
      <trkpt lat="40.88550972752273082733154296875" lon="-1.95391559042036533355712890625">
        <ele>998.20001220703125</ele>
        <time>2019-07-07T12:28:39.000Z</time>
      </trkpt>
      <trkpt lat="40.88571927510201930999755859375" lon="-1.954538114368915557861328125">
        <ele>999.20001220703125</ele>
        <time>2019-07-07T12:28:41.000Z</time>
      </trkpt>
      <trkpt lat="40.88580778799951076507568359375" lon="-1.9548464007675647735595703125">
        <ele>1000.20001220703125</ele>
        <time>2019-07-07T12:28:42.000Z</time>
      </trkpt>
      <trkpt lat="40.88588607497513294219970703125" lon="-1.95514722727239131927490234375">
        <ele>1005.4000244140625</ele>
        <time>2019-07-07T12:28:43.000Z</time>
      </trkpt>
      <trkpt lat="40.885957069694995880126953125" lon="-1.9554378278553485870361328125">
        <ele>1012</ele>
        <time>2019-07-07T12:28:44.000Z</time>
      </trkpt>
      <trkpt lat="40.88602571748197078704833984375" lon="-1.955720968544483184814453125">
        <ele>1017.5999755859375</ele>
        <time>2019-07-07T12:28:45.000Z</time>
      </trkpt>
      <trkpt lat="40.8860936947166919708251953125" lon="-1.9559947215020656585693359375">
        <ele>1021.20001220703125</ele>
        <time>2019-07-07T12:28:46.000Z</time>
      </trkpt>
      <trkpt lat="40.8861604146659374237060546875" lon="-1.95626168511807918548583984375">
        <ele>1023</ele>
        <time>2019-07-07T12:28:47.000Z</time>
      </trkpt>
      <trkpt lat="40.88629393838346004486083984375" lon="-1.95677809417247772216796875">
        <ele>1021.79998779296875</ele>
        <time>2019-07-07T12:28:49.000Z</time>
      </trkpt>
      <trkpt lat="40.88646928779780864715576171875" lon="-1.9574803300201892852783203125">
        <ele>1021.4000244140625</ele>
        <time>2019-07-07T12:28:52.000Z</time>
      </trkpt>
      <trkpt lat="40.88662133552134037017822265625" lon="-1.958114840090274810791015625">
        <ele>1022.20001220703125</ele>
        <time>2019-07-07T12:28:55.000Z</time>
      </trkpt>
      <trkpt lat="40.88667078875005245208740234375" lon="-1.9583171792328357696533203125">
        <ele>1022.79998779296875</ele>
        <time>2019-07-07T12:28:56.000Z</time>
      </trkpt>
      <trkpt lat="40.8868071623146533966064453125" lon="-1.95887516252696514129638671875">
        <ele>1024</ele>
        <time>2019-07-07T12:28:59.000Z</time>
      </trkpt>
      <trkpt lat="40.8869657479226589202880859375" lon="-1.9594919867813587188720703125">
        <ele>1023.4000244140625</ele>
        <time>2019-07-07T12:29:03.000Z</time>
      </trkpt>
      <trkpt lat="40.88715861551463603973388671875" lon="-1.960021555423736572265625">
        <ele>1025.199951171875</ele>
        <time>2019-07-07T12:29:07.000Z</time>
      </trkpt>
      <trkpt lat="40.887419879436492919921875" lon="-1.960544586181640625">
        <ele>1025.5999755859375</ele>
        <time>2019-07-07T12:29:11.000Z</time>
      </trkpt>
      <trkpt lat="40.88763755746185779571533203125" lon="-1.96095504797995090484619140625">
        <ele>1024</ele>
        <time>2019-07-07T12:29:14.000Z</time>
      </trkpt>
      <trkpt lat="40.88793628849089145660400390625" lon="-1.96149283088743686676025390625">
        <ele>1024</ele>
        <time>2019-07-07T12:29:18.000Z</time>
      </trkpt>
      <trkpt lat="40.88825396262109279632568359375" lon="-1.96206347085535526275634765625">
        <ele>1023.4000244140625</ele>
        <time>2019-07-07T12:29:22.000Z</time>
      </trkpt>
      <trkpt lat="40.88851489126682281494140625" lon="-1.9625577516853809356689453125">
        <ele>1022.5999755859375</ele>
        <time>2019-07-07T12:29:25.000Z</time>
      </trkpt>
      <trkpt lat="40.88882108218967914581298828125" lon="-1.96313031949102878570556640625">
        <ele>1023</ele>
        <time>2019-07-07T12:29:28.000Z</time>
      </trkpt>
      <trkpt lat="40.88893490843474864959716796875" lon="-1.963336765766143798828125">
        <ele>1024.199951171875</ele>
        <time>2019-07-07T12:29:29.000Z</time>
      </trkpt>
      <trkpt lat="40.88930656202137470245361328125" lon="-1.96399650536477565765380859375">
        <ele>1023.20001220703125</ele>
        <time>2019-07-07T12:29:32.000Z</time>
      </trkpt>
      <trkpt lat="40.889437906444072723388671875" lon="-1.96423061192035675048828125">
        <ele>1021.79998779296875</ele>
        <time>2019-07-07T12:29:33.000Z</time>
      </trkpt>
      <trkpt lat="40.8897029422223567962646484375" lon="-1.9647219590842723846435546875">
        <ele>1022.4000244140625</ele>
        <time>2019-07-07T12:29:35.000Z</time>
      </trkpt>
      <trkpt lat="40.889986418187618255615234375" lon="-1.96523669175803661346435546875">
        <ele>1022</ele>
        <time>2019-07-07T12:29:37.000Z</time>
      </trkpt>
      <trkpt lat="40.8902846463024616241455078125" lon="-1.9657703675329685211181640625">
        <ele>1022</ele>
        <time>2019-07-07T12:29:39.000Z</time>
      </trkpt>
      <trkpt lat="40.890582539141178131103515625" lon="-1.966321058571338653564453125">
        <ele>1019.79998779296875</ele>
        <time>2019-07-07T12:29:41.000Z</time>
      </trkpt>
      <trkpt lat="40.89087397791445255279541015625" lon="-1.9668667204678058624267578125">
        <ele>1019</ele>
        <time>2019-07-07T12:29:43.000Z</time>
      </trkpt>
      <trkpt lat="40.891016386449337005615234375" lon="-1.96713049896061420440673828125">
        <ele>1018.5999755859375</ele>
        <time>2019-07-07T12:29:44.000Z</time>
      </trkpt>
      <trkpt lat="40.89131654240190982818603515625" lon="-1.9676291383802890777587890625">
        <ele>1020.20001220703125</ele>
        <time>2019-07-07T12:29:46.000Z</time>
      </trkpt>
      <trkpt lat="40.8914815820753574371337890625" lon="-1.967861652374267578125">
        <ele>1021.4000244140625</ele>
        <time>2019-07-07T12:29:47.000Z</time>
      </trkpt>
      <trkpt lat="40.8916572667658329010009765625" lon="-1.96808368898928165435791015625">
        <ele>1023.79998779296875</ele>
        <time>2019-07-07T12:29:48.000Z</time>
      </trkpt>
      <trkpt lat="40.89184074662625789642333984375" lon="-1.96829809807240962982177734375">
        <ele>1025.5999755859375</ele>
        <time>2019-07-07T12:29:49.000Z</time>
      </trkpt>
      <trkpt lat="40.89221910573542118072509765625" lon="-1.96871920488774776458740234375">
        <ele>1028.5999755859375</ele>
        <time>2019-07-07T12:29:51.000Z</time>
      </trkpt>
      <trkpt lat="40.8924099616706371307373046875" lon="-1.96893009357154369354248046875">
        <ele>1029.800048828125</ele>
        <time>2019-07-07T12:29:52.000Z</time>
      </trkpt>
      <trkpt lat="40.892787314951419830322265625" lon="-1.9693507812917232513427734375">
        <ele>1030.5999755859375</ele>
        <time>2019-07-07T12:29:54.000Z</time>
      </trkpt>
      <trkpt lat="40.8929733932018280029296875" lon="-1.96955940686166286468505859375">
        <ele>1028</ele>
        <time>2019-07-07T12:29:55.000Z</time>
      </trkpt>
      <trkpt lat="40.89315787889063358306884765625" lon="-1.96976761333644390106201171875">
        <ele>1024</ele>
        <time>2019-07-07T12:29:56.000Z</time>
      </trkpt>
      <trkpt lat="40.89334144257009029388427734375" lon="-1.969974897801876068115234375">
        <ele>1020.20001220703125</ele>
        <time>2019-07-07T12:29:57.000Z</time>
      </trkpt>
      <trkpt lat="40.8935259282588958740234375" lon="-1.970181427896022796630859375">
        <ele>1014.5999755859375</ele>
        <time>2019-07-07T12:29:58.000Z</time>
      </trkpt>
      <trkpt lat="40.89371141977608203887939453125" lon="-1.97038787417113780975341796875">
        <ele>1011.79998779296875</ele>
        <time>2019-07-07T12:29:59.000Z</time>
      </trkpt>
      <trkpt lat="40.89389867149293422698974609375" lon="-1.9705939851701259613037109375">
        <ele>1010.4000244140625</ele>
        <time>2019-07-07T12:30:00.000Z</time>
      </trkpt>
      <trkpt lat="40.8942794613540172576904296875" lon="-1.9710174389183521270751953125">
        <ele>1012.4000244140625</ele>
        <time>2019-07-07T12:30:02.000Z</time>
      </trkpt>
      <trkpt lat="40.894473083317279815673828125" lon="-1.97123310528695583343505859375">
        <ele>1013.5999755859375</ele>
        <time>2019-07-07T12:30:03.000Z</time>
      </trkpt>
      <trkpt lat="40.89486527256667613983154296875" lon="-1.97167667560279369354248046875">
        <ele>1015.5999755859375</ele>
        <time>2019-07-07T12:30:05.000Z</time>
      </trkpt>
      <trkpt lat="40.89526441879570484161376953125" lon="-1.97213374078273773193359375">
        <ele>1014.79998779296875</ele>
        <time>2019-07-07T12:30:07.000Z</time>
      </trkpt>
      <trkpt lat="40.89546717703342437744140625" lon="-1.97236164472997188568115234375">
        <ele>1013.5999755859375</ele>
        <time>2019-07-07T12:30:08.000Z</time>
      </trkpt>
      <trkpt lat="40.895877219736576080322265625" lon="-1.972818039357662200927734375">
        <ele>1012.4000244140625</ele>
        <time>2019-07-07T12:30:10.000Z</time>
      </trkpt>
      <trkpt lat="40.89628851972520351409912109375" lon="-1.97328331880271434783935546875">
        <ele>1012.79998779296875</ele>
        <time>2019-07-07T12:30:12.000Z</time>
      </trkpt>
      <trkpt lat="40.896700657904148101806640625" lon="-1.97375605814158916473388671875">
        <ele>1013.4000244140625</ele>
        <time>2019-07-07T12:30:14.000Z</time>
      </trkpt>
      <trkpt lat="40.89690928347408771514892578125" lon="-1.97399544529616832733154296875">
        <ele>1014.20001220703125</ele>
        <time>2019-07-07T12:30:15.000Z</time>
      </trkpt>
      <trkpt lat="40.89712084271013736724853515625" lon="-1.97423525154590606689453125">
        <ele>1015.4000244140625</ele>
        <time>2019-07-07T12:30:16.000Z</time>
      </trkpt>
      <trkpt lat="40.89733533561229705810546875" lon="-1.97447455488145351409912109375">
        <ele>1016.5999755859375</ele>
        <time>2019-07-07T12:30:17.000Z</time>
      </trkpt>
      <trkpt lat="40.89755049906671047210693359375" lon="-1.97471729479730129241943359375">
        <ele>1018.4000244140625</ele>
        <time>2019-07-07T12:30:18.000Z</time>
      </trkpt>
      <trkpt lat="40.89776658453047275543212890625" lon="-1.97496456094086170196533203125">
        <ele>1020.20001220703125</ele>
        <time>2019-07-07T12:30:19.000Z</time>
      </trkpt>
      <trkpt lat="40.89820127002894878387451171875" lon="-1.97546311654150485992431640625">
        <ele>1021.4000244140625</ele>
        <time>2019-07-07T12:30:21.000Z</time>
      </trkpt>
      <trkpt lat="40.898634530603885650634765625" lon="-1.97595999576151371002197265625">
        <ele>1022.20001220703125</ele>
        <time>2019-07-07T12:30:23.000Z</time>
      </trkpt>
      <trkpt lat="40.89884315617382526397705078125" lon="-1.97621530853211879730224609375">
        <ele>1024.4000244140625</ele>
        <time>2019-07-07T12:30:24.000Z</time>
      </trkpt>
      <trkpt lat="40.89904331602156162261962890625" lon="-1.9764780811965465545654296875">
        <ele>1025.4000244140625</ele>
        <time>2019-07-07T12:30:25.000Z</time>
      </trkpt>
      <trkpt lat="40.8994118683040142059326171875" lon="-1.9770396687090396881103515625">
        <ele>1026</ele>
        <time>2019-07-07T12:30:27.000Z</time>
      </trkpt>
      <trkpt lat="40.8995878882706165313720703125" lon="-1.97732909582555294036865234375">
        <ele>1027.199951171875</ele>
        <time>2019-07-07T12:30:28.000Z</time>
      </trkpt>
      <trkpt lat="40.89993883855640888214111328125" lon="-1.9779093749821186065673828125">
        <ele>1027.5999755859375</ele>
        <time>2019-07-07T12:30:30.000Z</time>
      </trkpt>
      <trkpt lat="40.9002904593944549560546875" lon="-1.978485547006130218505859375">
        <ele>1026.800048828125</ele>
        <time>2019-07-07T12:30:32.000Z</time>
      </trkpt>
      <trkpt lat="40.9006364643573760986328125" lon="-1.97906364686787128448486328125">
        <ele>1026</ele>
        <time>2019-07-07T12:30:34.000Z</time>
      </trkpt>
      <trkpt lat="40.90098104439675807952880859375" lon="-1.9796320237219333648681640625">
        <ele>1026.199951171875</ele>
        <time>2019-07-07T12:30:36.000Z</time>
      </trkpt>
      <trkpt lat="40.90115211904048919677734375" lon="-1.97991407476365566253662109375">
        <ele>1027.199951171875</ele>
        <time>2019-07-07T12:30:37.000Z</time>
      </trkpt>
      <trkpt lat="40.90149007737636566162109375" lon="-1.9804827868938446044921875">
        <ele>1028.800048828125</ele>
        <time>2019-07-07T12:30:39.000Z</time>
      </trkpt>
      <trkpt lat="40.90165561996400356292724609375" lon="-1.9807706214487552642822265625">
        <ele>1030</ele>
        <time>2019-07-07T12:30:40.000Z</time>
      </trkpt>
      <trkpt lat="40.90181185863912105560302734375" lon="-1.98106926865875720977783203125">
        <ele>1032</ele>
        <time>2019-07-07T12:30:41.000Z</time>
      </trkpt>
      <trkpt lat="40.90208820998668670654296875" lon="-1.98169606737792491912841796875">
        <ele>1033.5999755859375</ele>
        <time>2019-07-07T12:30:43.000Z</time>
      </trkpt>
      <trkpt lat="40.90233388356864452362060546875" lon="-1.9823434017598628997802734375">
        <ele>1032.800048828125</ele>
        <time>2019-07-07T12:30:45.000Z</time>
      </trkpt>
      <trkpt lat="40.902455337345600128173828125" lon="-1.98266669176518917083740234375">
        <ele>1032.4000244140625</ele>
        <time>2019-07-07T12:30:46.000Z</time>
      </trkpt>
      <trkpt lat="40.90269866399466991424560546875" lon="-1.9833157025277614593505859375">
        <ele>1032.4000244140625</ele>
        <time>2019-07-07T12:30:48.000Z</time>
      </trkpt>
      <trkpt lat="40.902821458876132965087890625" lon="-1.98363773524761199951171875">
        <ele>1034.199951171875</ele>
        <time>2019-07-07T12:30:49.000Z</time>
      </trkpt>
      <trkpt lat="40.90294324792921543121337890625" lon="-1.9839597679674625396728515625">
        <ele>1036.5999755859375</ele>
        <time>2019-07-07T12:30:50.000Z</time>
      </trkpt>
      <trkpt lat="40.903065539896488189697265625" lon="-1.9842816330492496490478515625">
        <ele>1038.800048828125</ele>
        <time>2019-07-07T12:30:51.000Z</time>
      </trkpt>
      <trkpt lat="40.9031904302537441253662109375" lon="-1.98460458777844905853271484375">
        <ele>1040.5999755859375</ele>
        <time>2019-07-07T12:30:52.000Z</time>
      </trkpt>
      <trkpt lat="40.903317667543888092041015625" lon="-1.98492947034537792205810546875">
        <ele>1043.199951171875</ele>
        <time>2019-07-07T12:30:53.000Z</time>
      </trkpt>
      <trkpt lat="40.90359636582434177398681640625" lon="-1.98556733317673206329345703125">
        <ele>1046.5999755859375</ele>
        <time>2019-07-07T12:30:55.000Z</time>
      </trkpt>
      <trkpt lat="40.903750844299793243408203125" lon="-1.985879056155681610107421875">
        <ele>1049.5999755859375</ele>
        <time>2019-07-07T12:30:56.000Z</time>
      </trkpt>
      <trkpt lat="40.9039152972400188446044921875" lon="-1.9861846603453159332275390625">
        <ele>1051.800048828125</ele>
        <time>2019-07-07T12:30:57.000Z</time>
      </trkpt>
      <trkpt lat="40.9040882997214794158935546875" lon="-1.98648716323077678680419921875">
        <ele>1052.800048828125</ele>
        <time>2019-07-07T12:30:58.000Z</time>
      </trkpt>
      <trkpt lat="40.9044450335204601287841796875" lon="-1.98708898387849330902099609375">
        <ele>1053.199951171875</ele>
        <time>2019-07-07T12:31:00.000Z</time>
      </trkpt>
      <trkpt lat="40.90480671264231204986572265625" lon="-1.98769885115325450897216796875">
        <ele>1051.5999755859375</ele>
        <time>2019-07-07T12:31:02.000Z</time>
      </trkpt>
      <trkpt lat="40.904987342655658721923828125" lon="-1.98800479061901569366455078125">
        <ele>1050.4000244140625</ele>
        <time>2019-07-07T12:31:03.000Z</time>
      </trkpt>
      <trkpt lat="40.90534818358719348907470703125" lon="-1.98861734010279178619384765625">
        <ele>1051.199951171875</ele>
        <time>2019-07-07T12:31:05.000Z</time>
      </trkpt>
      <trkpt lat="40.9055279754102230072021484375" lon="-1.9889228604733943939208984375">
        <ele>1053</ele>
        <time>2019-07-07T12:31:06.000Z</time>
      </trkpt>
      <trkpt lat="40.905707515776157379150390625" lon="-1.98922787792980670928955078125">
        <ele>1051.800048828125</ele>
        <time>2019-07-07T12:31:07.000Z</time>
      </trkpt>
      <trkpt lat="40.90606416575610637664794921875" lon="-1.9898302853107452392578125">
        <ele>1053</ele>
        <time>2019-07-07T12:31:09.000Z</time>
      </trkpt>
      <trkpt lat="40.90623892843723297119140625" lon="-1.9901278428733348846435546875">
        <ele>1055.4000244140625</ele>
        <time>2019-07-07T12:31:10.000Z</time>
      </trkpt>
      <trkpt lat="40.90641058981418609619140625" lon="-1.99042129330337047576904296875">
        <ele>1057.199951171875</ele>
        <time>2019-07-07T12:31:11.000Z</time>
      </trkpt>
      <trkpt lat="40.90658065862953662872314453125" lon="-1.99071130715310573577880859375">
        <ele>1060.4000244140625</ele>
        <time>2019-07-07T12:31:12.000Z</time>
      </trkpt>
      <trkpt lat="40.9067493863403797149658203125" lon="-1.99099662713706493377685546875">
        <ele>1063.800048828125</ele>
        <time>2019-07-07T12:31:13.000Z</time>
      </trkpt>
      <trkpt lat="40.906917192041873931884765625" lon="-1.99127725325524806976318359375">
        <ele>1066.4000244140625</ele>
        <time>2019-07-07T12:31:14.000Z</time>
      </trkpt>
      <trkpt lat="40.9070833213627338409423828125" lon="-1.99155771173536777496337890625">
        <ele>1067.800048828125</ele>
        <time>2019-07-07T12:31:15.000Z</time>
      </trkpt>
      <trkpt lat="40.90741910040378570556640625" lon="-1.9921227358281612396240234375">
        <ele>1068.199951171875</ele>
        <time>2019-07-07T12:31:17.000Z</time>
      </trkpt>
      <trkpt lat="40.90776954777538776397705078125" lon="-1.992692537605762481689453125">
        <ele>1066.5999755859375</ele>
        <time>2019-07-07T12:31:19.000Z</time>
      </trkpt>
      <trkpt lat="40.90814555995166301727294921875" lon="-1.99325420893728733062744140625">
        <ele>1066.4000244140625</ele>
        <time>2019-07-07T12:31:21.000Z</time>
      </trkpt>
      <trkpt lat="40.90855233371257781982421875" lon="-1.99380104430019855499267578125">
        <ele>1067.5999755859375</ele>
        <time>2019-07-07T12:31:23.000Z</time>
      </trkpt>
      <trkpt lat="40.908763892948627471923828125" lon="-1.99407462961971759796142578125">
        <ele>1067.800048828125</ele>
        <time>2019-07-07T12:31:24.000Z</time>
      </trkpt>
      <trkpt lat="40.90918910689651966094970703125" lon="-1.99463169090449810028076171875">
        <ele>1068.5999755859375</ele>
        <time>2019-07-07T12:31:26.000Z</time>
      </trkpt>
      <trkpt lat="40.909609459340572357177734375" lon="-1.99519512243568897247314453125">
        <ele>1068.4000244140625</ele>
        <time>2019-07-07T12:31:28.000Z</time>
      </trkpt>
      <trkpt lat="40.91000483371317386627197265625" lon="-1.99574933387339115142822265625">
        <ele>1068</ele>
        <time>2019-07-07T12:31:30.000Z</time>
      </trkpt>
      <trkpt lat="40.91035972349345684051513671875" lon="-1.99631058610975742340087890625">
        <ele>1065.800048828125</ele>
        <time>2019-07-07T12:31:32.000Z</time>
      </trkpt>
      <trkpt lat="40.910518057644367218017578125" lon="-1.99659976176917552947998046875">
        <ele>1062.199951171875</ele>
        <time>2019-07-07T12:31:33.000Z</time>
      </trkpt>
      <trkpt lat="40.91066599823534488677978515625" lon="-1.99688893742859363555908203125">
        <ele>1060.5999755859375</ele>
        <time>2019-07-07T12:31:34.000Z</time>
      </trkpt>
      <trkpt lat="40.91094545088708400726318359375" lon="-1.997466869652271270751953125">
        <ele>1058.5999755859375</ele>
        <time>2019-07-07T12:31:36.000Z</time>
      </trkpt>
      <trkpt lat="40.91108660213649272918701171875" lon="-1.99775713495910167694091796875">
        <ele>1060</ele>
        <time>2019-07-07T12:31:37.000Z</time>
      </trkpt>
      <trkpt lat="40.91123127378523349761962890625" lon="-1.99804714880883693695068359375">
        <ele>1061.4000244140625</ele>
        <time>2019-07-07T12:31:38.000Z</time>
      </trkpt>
      <trkpt lat="40.911376364529132843017578125" lon="-1.9983397610485553741455078125">
        <ele>1063.199951171875</ele>
        <time>2019-07-07T12:31:39.000Z</time>
      </trkpt>
      <trkpt lat="40.91166763566434383392333984375" lon="-1.9989231415092945098876953125">
        <ele>1064.800048828125</ele>
        <time>2019-07-07T12:31:41.000Z</time>
      </trkpt>
      <trkpt lat="40.9119612537324428558349609375" lon="-1.999500654637813568115234375">
        <ele>1066</ele>
        <time>2019-07-07T12:31:43.000Z</time>
      </trkpt>
      <trkpt lat="40.9121055901050567626953125" lon="-1.99978639371693134307861328125">
        <ele>1068.199951171875</ele>
        <time>2019-07-07T12:31:44.000Z</time>
      </trkpt>
      <trkpt lat="40.9122462384402751922607421875" lon="-2.00007037259638309478759765625">
        <ele>1070.4000244140625</ele>
        <time>2019-07-07T12:31:45.000Z</time>
      </trkpt>
      <trkpt lat="40.9123845398426055908203125" lon="-2.0003510825335979461669921875">
        <ele>1071.4000244140625</ele>
        <time>2019-07-07T12:31:46.000Z</time>
      </trkpt>
      <trkpt lat="40.91252108104526996612548828125" lon="-2.00062894262373447418212890625">
        <ele>1073.4000244140625</ele>
        <time>2019-07-07T12:31:47.000Z</time>
      </trkpt>
      <trkpt lat="40.912798941135406494140625" lon="-2.00116370804607868194580078125">
        <ele>1074.5999755859375</ele>
        <time>2019-07-07T12:31:49.000Z</time>
      </trkpt>
      <trkpt lat="40.9130985103547573089599609375" lon="-2.0016693882644176483154296875">
        <ele>1074.800048828125</ele>
        <time>2019-07-07T12:31:51.000Z</time>
      </trkpt>
      <trkpt lat="40.91343286447227001190185546875" lon="-2.00214304961264133453369140625">
        <ele>1074.800048828125</ele>
        <time>2019-07-07T12:31:53.000Z</time>
      </trkpt>
      <trkpt lat="40.913604609668254852294921875" lon="-2.0023808442056179046630859375">
        <ele>1073.199951171875</ele>
        <time>2019-07-07T12:31:54.000Z</time>
      </trkpt>
      <trkpt lat="40.913772247731685638427734375" lon="-2.00262517668306827545166015625">
        <ele>1074.4000244140625</ele>
        <time>2019-07-07T12:31:55.000Z</time>
      </trkpt>
      <trkpt lat="40.914080031216144561767578125" lon="-2.00313546694815158843994140625">
        <ele>1077</ele>
        <time>2019-07-07T12:31:57.000Z</time>
      </trkpt>
      <trkpt lat="40.91421674005687236785888671875" lon="-2.00340016745030879974365234375">
        <ele>1078.199951171875</ele>
        <time>2019-07-07T12:31:58.000Z</time>
      </trkpt>
      <trkpt lat="40.9143346734344959259033203125" lon="-2.0036740042269229888916015625">
        <ele>1077.4000244140625</ele>
        <time>2019-07-07T12:31:59.000Z</time>
      </trkpt>
      <trkpt lat="40.91443517245352268218994140625" lon="-2.0039601624011993408203125">
        <ele>1076.800048828125</ele>
        <time>2019-07-07T12:32:00.000Z</time>
      </trkpt>
      <trkpt lat="40.91461814939975738525390625" lon="-2.0045628212392330169677734375">
        <ele>1079</ele>
        <time>2019-07-07T12:32:02.000Z</time>
      </trkpt>
      <trkpt lat="40.91470926068723201751708984375" lon="-2.00487806461751461029052734375">
        <ele>1080.4000244140625</ele>
        <time>2019-07-07T12:32:03.000Z</time>
      </trkpt>
      <trkpt lat="40.9148959256708621978759765625" lon="-2.0055247284471988677978515625">
        <ele>1082.199951171875</ele>
        <time>2019-07-07T12:32:05.000Z</time>
      </trkpt>
      <trkpt lat="40.914991311728954315185546875" lon="-2.00585271231830120086669921875">
        <ele>1083.800048828125</ele>
        <time>2019-07-07T12:32:06.000Z</time>
      </trkpt>
      <trkpt lat="40.91508728452026844024658203125" lon="-2.00618430040776729583740234375">
        <ele>1085.5999755859375</ele>
        <time>2019-07-07T12:32:07.000Z</time>
      </trkpt>
      <trkpt lat="40.91518451459705829620361328125" lon="-2.006514631211757659912109375">
        <ele>1087.199951171875</ele>
        <time>2019-07-07T12:32:08.000Z</time>
      </trkpt>
      <trkpt lat="40.91528174467384815216064453125" lon="-2.00684512965381145477294921875">
        <ele>1088.5999755859375</ele>
        <time>2019-07-07T12:32:09.000Z</time>
      </trkpt>
      <trkpt lat="40.915379226207733154296875" lon="-2.00717437081038951873779296875">
        <ele>1090.800048828125</ele>
        <time>2019-07-07T12:32:10.000Z</time>
      </trkpt>
      <trkpt lat="40.91547821648418903350830078125" lon="-2.007504366338253021240234375">
        <ele>1091.800048828125</ele>
        <time>2019-07-07T12:32:11.000Z</time>
      </trkpt>
      <trkpt lat="40.91558265499770641326904296875" lon="-2.00783369131386280059814453125">
        <ele>1093.5999755859375</ele>
        <time>2019-07-07T12:32:12.000Z</time>
      </trkpt>
      <trkpt lat="40.9156908653676509857177734375" lon="-2.00816511176526546478271484375">
        <ele>1095.4000244140625</ele>
        <time>2019-07-07T12:32:13.000Z</time>
      </trkpt>
      <trkpt lat="40.91579966247081756591796875" lon="-2.008497454226016998291015625">
        <ele>1096.5999755859375</ele>
        <time>2019-07-07T12:32:14.000Z</time>
      </trkpt>
      <trkpt lat="40.916018597781658172607421875" lon="-2.009155265986919403076171875">
        <ele>1097.5999755859375</ele>
        <time>2019-07-07T12:32:16.000Z</time>
      </trkpt>
      <trkpt lat="40.9161277301609516143798828125" lon="-2.00947889126837253570556640625">
        <ele>1098.5999755859375</ele>
        <time>2019-07-07T12:32:17.000Z</time>
      </trkpt>
      <trkpt lat="40.91623392887413501739501953125" lon="-2.009802348911762237548828125">
        <ele>1100.800048828125</ele>
        <time>2019-07-07T12:32:18.000Z</time>
      </trkpt>
      <trkpt lat="40.91633970849215984344482421875" lon="-2.01012060977518558502197265625">
        <ele>1103.199951171875</ele>
        <time>2019-07-07T12:32:19.000Z</time>
      </trkpt>
      <trkpt lat="40.9164438955485820770263671875" lon="-2.01043409295380115509033203125">
        <ele>1106.4000244140625</ele>
        <time>2019-07-07T12:32:20.000Z</time>
      </trkpt>
      <trkpt lat="40.91654456220567226409912109375" lon="-2.0107436366379261016845703125">
        <ele>1108.4000244140625</ele>
        <time>2019-07-07T12:32:21.000Z</time>
      </trkpt>
      <trkpt lat="40.91664179228246212005615234375" lon="-2.0110514201223850250244140625">
        <ele>1109.4000244140625</ele>
        <time>2019-07-07T12:32:22.000Z</time>
      </trkpt>
      <trkpt lat="40.91683843173086643218994140625" lon="-2.01166103594005107879638671875">
        <ele>1109.4000244140625</ele>
        <time>2019-07-07T12:32:24.000Z</time>
      </trkpt>
      <trkpt lat="40.91704554855823516845703125" lon="-2.012302167713642120361328125">
        <ele>1109.5999755859375</ele>
        <time>2019-07-07T12:32:26.000Z</time>
      </trkpt>
      <trkpt lat="40.91726859100162982940673828125" lon="-2.01296542771160602569580078125">
        <ele>1106.800048828125</ele>
        <time>2019-07-07T12:32:28.000Z</time>
      </trkpt>
      <trkpt lat="40.91749607585370540618896484375" lon="-2.0136295258998870849609375">
        <ele>1107.5999755859375</ele>
        <time>2019-07-07T12:32:30.000Z</time>
      </trkpt>
      <trkpt lat="40.9176140092313289642333984375" lon="-2.01397511176764965057373046875">
        <ele>1108</ele>
        <time>2019-07-07T12:32:31.000Z</time>
      </trkpt>
      <trkpt lat="40.91773496009409427642822265625" lon="-2.0143341086804866790771484375">
        <ele>1106.800048828125</ele>
        <time>2019-07-07T12:32:32.000Z</time>
      </trkpt>
      <trkpt lat="40.91798591427505016326904296875" lon="-2.01509275473654270172119140625">
        <ele>1107.4000244140625</ele>
        <time>2019-07-07T12:32:34.000Z</time>
      </trkpt>
      <trkpt lat="40.91811843216419219970703125" lon="-2.015485949814319610595703125">
        <ele>1107.800048828125</ele>
        <time>2019-07-07T12:32:35.000Z</time>
      </trkpt>
      <trkpt lat="40.91839478351175785064697265625" lon="-2.01628667302429676055908203125">
        <ele>1106</ele>
        <time>2019-07-07T12:32:37.000Z</time>
      </trkpt>
      <trkpt lat="40.9185370244085788726806640625" lon="-2.0166780240833759307861328125">
        <ele>1103.800048828125</ele>
        <time>2019-07-07T12:32:38.000Z</time>
      </trkpt>
      <trkpt lat="40.91867624782025814056396484375" lon="-2.01705596409738063812255859375">
        <ele>1101.199951171875</ele>
        <time>2019-07-07T12:32:39.000Z</time>
      </trkpt>
      <trkpt lat="40.918806083500385284423828125" lon="-2.0174152962863445281982421875">
        <ele>1097.5999755859375</ele>
        <time>2019-07-07T12:32:40.000Z</time>
      </trkpt>
      <trkpt lat="40.9189266152679920196533203125" lon="-2.01775032095611095428466796875">
        <ele>1095.800048828125</ele>
        <time>2019-07-07T12:32:41.000Z</time>
      </trkpt>
      <trkpt lat="40.91914915479719638824462890625" lon="-2.0183711685240268707275390625">
        <ele>1092.4000244140625</ele>
        <time>2019-07-07T12:32:43.000Z</time>
      </trkpt>
      <trkpt lat="40.91925300657749176025390625" lon="-2.018667720258235931396484375">
        <ele>1094.199951171875</ele>
        <time>2019-07-07T12:32:44.000Z</time>
      </trkpt>
      <trkpt lat="40.91935484670102596282958984375" lon="-2.0189612545073032379150390625">
        <ele>1099</ele>
        <time>2019-07-07T12:32:45.000Z</time>
      </trkpt>
      <trkpt lat="40.91945844702422618865966796875" lon="-2.01925747096538543701171875">
        <ele>1105.4000244140625</ele>
        <time>2019-07-07T12:32:46.000Z</time>
      </trkpt>
      <trkpt lat="40.91956137679517269134521484375" lon="-2.01955276541411876678466796875">
        <ele>1108.5999755859375</ele>
        <time>2019-07-07T12:32:47.000Z</time>
      </trkpt>
      <trkpt lat="40.9196565113961696624755859375" lon="-2.01985887251794338226318359375">
        <ele>1112.199951171875</ele>
        <time>2019-07-07T12:32:48.000Z</time>
      </trkpt>
      <trkpt lat="40.9197631292045116424560546875" lon="-2.02015089802443981170654296875">
        <ele>1114</ele>
        <time>2019-07-07T12:32:49.000Z</time>
      </trkpt>
      <trkpt lat="40.91986983083188533782958984375" lon="-2.020439989864826202392578125">
        <ele>1116.199951171875</ele>
        <time>2019-07-07T12:32:50.000Z</time>
      </trkpt>
      <trkpt lat="40.91997359879314899444580078125" lon="-2.02072891406714916229248046875">
        <ele>1117.5999755859375</ele>
        <time>2019-07-07T12:32:51.000Z</time>
      </trkpt>
      <trkpt lat="40.9200769476592540740966796875" lon="-2.02101306058466434478759765625">
        <ele>1119</ele>
        <time>2019-07-07T12:32:52.000Z</time>
      </trkpt>
      <trkpt lat="40.92017878778278827667236328125" lon="-2.0212951116263866424560546875">
        <ele>1120</ele>
        <time>2019-07-07T12:32:53.000Z</time>
      </trkpt>
      <trkpt lat="40.92027886770665645599365234375" lon="-2.0215764082968235015869140625">
        <ele>1121.199951171875</ele>
        <time>2019-07-07T12:32:54.000Z</time>
      </trkpt>
      <trkpt lat="40.92037827707827091217041015625" lon="-2.0218587107956409454345703125">
        <ele>1122.800048828125</ele>
        <time>2019-07-07T12:32:55.000Z</time>
      </trkpt>
      <trkpt lat="40.9205842204391956329345703125" lon="-2.0224390737712383270263671875">
        <ele>1124.4000244140625</ele>
        <time>2019-07-07T12:32:57.000Z</time>
      </trkpt>
      <trkpt lat="40.92069025151431560516357421875" lon="-2.022739313542842864990234375">
        <ele>1126.5999755859375</ele>
        <time>2019-07-07T12:32:58.000Z</time>
      </trkpt>
      <trkpt lat="40.92079636640846729278564453125" lon="-2.0230422355234622955322265625">
        <ele>1129.5999755859375</ele>
        <time>2019-07-07T12:32:59.000Z</time>
      </trkpt>
      <trkpt lat="40.92090130783617496490478515625" lon="-2.0233439840376377105712890625">
        <ele>1133.5999755859375</ele>
        <time>2019-07-07T12:33:00.000Z</time>
      </trkpt>
      <trkpt lat="40.9210036508738994598388671875" lon="-2.023637853562831878662109375">
        <ele>1137.5999755859375</ele>
        <time>2019-07-07T12:33:01.000Z</time>
      </trkpt>
      <trkpt lat="40.9211025573313236236572265625" lon="-2.0239173062145709991455078125">
        <ele>1141</ele>
        <time>2019-07-07T12:33:02.000Z</time>
      </trkpt>
      <trkpt lat="40.92119819484651088714599609375" lon="-2.024187035858631134033203125">
        <ele>1143.4000244140625</ele>
        <time>2019-07-07T12:33:03.000Z</time>
      </trkpt>
      <trkpt lat="40.9212939999997615814208984375" lon="-2.02445265837013721466064453125">
        <ele>1145.4000244140625</ele>
        <time>2019-07-07T12:33:04.000Z</time>
      </trkpt>
      <trkpt lat="40.92138946987688541412353515625" lon="-2.02472171746194362640380859375">
        <ele>1147</ele>
        <time>2019-07-07T12:33:05.000Z</time>
      </trkpt>
      <trkpt lat="40.92148485593497753143310546875" lon="-2.02499664388597011566162109375">
        <ele>1148.4000244140625</ele>
        <time>2019-07-07T12:33:06.000Z</time>
      </trkpt>
      <trkpt lat="40.9216837584972381591796875" lon="-2.0255655236542224884033203125">
        <ele>1149.800048828125</ele>
        <time>2019-07-07T12:33:08.000Z</time>
      </trkpt>
      <trkpt lat="40.9218928031623363494873046875" lon="-2.026167847216129302978515625">
        <ele>1151.800048828125</ele>
        <time>2019-07-07T12:33:10.000Z</time>
      </trkpt>
      <trkpt lat="40.92200352810323238372802734375" lon="-2.02647370286285877227783203125">
        <ele>1153.5999755859375</ele>
        <time>2019-07-07T12:33:11.000Z</time>
      </trkpt>
      <trkpt lat="40.9222309291362762451171875" lon="-2.02711902558803558349609375">
        <ele>1155.800048828125</ele>
        <time>2019-07-07T12:33:13.000Z</time>
      </trkpt>
      <trkpt lat="40.9223457612097263336181640625" lon="-2.0274708978831768035888671875">
        <ele>1157.199951171875</ele>
        <time>2019-07-07T12:33:14.000Z</time>
      </trkpt>
      <trkpt lat="40.9224661253392696380615234375" lon="-2.02784095890820026397705078125">
        <ele>1158.4000244140625</ele>
        <time>2019-07-07T12:33:15.000Z</time>
      </trkpt>
      <trkpt lat="40.92273225076496601104736328125" lon="-2.02862081117928028106689453125">
        <ele>1156.800048828125</ele>
        <time>2019-07-07T12:33:17.000Z</time>
      </trkpt>
      <trkpt lat="40.92286937870085239410400390625" lon="-2.02901777811348438262939453125">
        <ele>1152.5999755859375</ele>
        <time>2019-07-07T12:33:18.000Z</time>
      </trkpt>
      <trkpt lat="40.92299695126712322235107421875" lon="-2.02940669842064380645751953125">
        <ele>1150.5999755859375</ele>
        <time>2019-07-07T12:33:19.000Z</time>
      </trkpt>
      <trkpt lat="40.92310792766511440277099609375" lon="-2.02978908084332942962646484375">
        <ele>1144.5999755859375</ele>
        <time>2019-07-07T12:33:20.000Z</time>
      </trkpt>
      <trkpt lat="40.92320700176060199737548828125" lon="-2.0301653444766998291015625">
        <ele>1136.5999755859375</ele>
        <time>2019-07-07T12:33:21.000Z</time>
      </trkpt>
      <trkpt lat="40.9232979454100131988525390625" lon="-2.0305366627871990203857421875">
        <ele>1132.800048828125</ele>
        <time>2019-07-07T12:33:22.000Z</time>
      </trkpt>
      <trkpt lat="40.92338151298463344573974609375" lon="-2.03090588562190532684326171875">
        <ele>1130.800048828125</ele>
        <time>2019-07-07T12:33:23.000Z</time>
      </trkpt>
      <trkpt lat="40.9235344827175140380859375" lon="-2.031636536121368408203125">
        <ele>1137.800048828125</ele>
        <time>2019-07-07T12:33:25.000Z</time>
      </trkpt>
      <trkpt lat="40.9236047230660915374755859375" lon="-2.0319981314241886138916015625">
        <ele>1145.4000244140625</ele>
        <time>2019-07-07T12:33:26.000Z</time>
      </trkpt>
      <trkpt lat="40.9236712753772735595703125" lon="-2.03235561959445476531982421875">
        <ele>1150</ele>
        <time>2019-07-07T12:33:27.000Z</time>
      </trkpt>
      <trkpt lat="40.92373589985072612762451171875" lon="-2.03270967118442058563232421875">
        <ele>1152.5999755859375</ele>
        <time>2019-07-07T12:33:28.000Z</time>
      </trkpt>
      <trkpt lat="40.92379993759095668792724609375" lon="-2.033056430518627166748046875">
        <ele>1154.4000244140625</ele>
        <time>2019-07-07T12:33:29.000Z</time>
      </trkpt>
      <trkpt lat="40.9238635562360286712646484375" lon="-2.033398412168025970458984375">
        <ele>1157.199951171875</ele>
        <time>2019-07-07T12:33:30.000Z</time>
      </trkpt>
      <trkpt lat="40.92392348684370517730712890625" lon="-2.0337380468845367431640625">
        <ele>1160.4000244140625</ele>
        <time>2019-07-07T12:33:31.000Z</time>
      </trkpt>
      <trkpt lat="40.92397528700530529022216796875" lon="-2.03408128581941127777099609375">
        <ele>1164</ele>
        <time>2019-07-07T12:33:32.000Z</time>
      </trkpt>
      <trkpt lat="40.9240140952169895172119140625" lon="-2.03443030826747417449951171875">
        <ele>1166.199951171875</ele>
        <time>2019-07-07T12:33:33.000Z</time>
      </trkpt>
      <trkpt lat="40.92403999529778957366943359375" lon="-2.03478285111486911773681640625">
        <ele>1167.199951171875</ele>
        <time>2019-07-07T12:33:34.000Z</time>
      </trkpt>
      <trkpt lat="40.9240573458373546600341796875" lon="-2.035137824714183807373046875">
        <ele>1168.5999755859375</ele>
        <time>2019-07-07T12:33:35.000Z</time>
      </trkpt>
      <trkpt lat="40.9240871854126453399658203125" lon="-2.03585623763501644134521484375">
        <ele>1169.5999755859375</ele>
        <time>2019-07-07T12:33:37.000Z</time>
      </trkpt>
      <trkpt lat="40.9241111576557159423828125" lon="-2.0362289808690547943115234375">
        <ele>1169.5999755859375</ele>
        <time>2019-07-07T12:33:38.000Z</time>
      </trkpt>
      <trkpt lat="40.9241498820483684539794921875" lon="-2.03661513514816761016845703125">
        <ele>1168.4000244140625</ele>
        <time>2019-07-07T12:33:39.000Z</time>
      </trkpt>
      <trkpt lat="40.924281813204288482666015625" lon="-2.0374255813658237457275390625">
        <ele>1166.800048828125</ele>
        <time>2019-07-07T12:33:41.000Z</time>
      </trkpt>
      <trkpt lat="40.924377702176570892333984375" lon="-2.03784492798149585723876953125">
        <ele>1164.5999755859375</ele>
        <time>2019-07-07T12:33:42.000Z</time>
      </trkpt>
      <trkpt lat="40.92449312098324298858642578125" lon="-2.038258574903011322021484375">
        <ele>1163.199951171875</ele>
        <time>2019-07-07T12:33:43.000Z</time>
      </trkpt>
      <trkpt lat="40.9246159158647060394287109375" lon="-2.03865193761885166168212890625">
        <ele>1159.800048828125</ele>
        <time>2019-07-07T12:33:44.000Z</time>
      </trkpt>
      <trkpt lat="40.92485488392412662506103515625" lon="-2.03938485123217105865478515625">
        <ele>1159.5999755859375</ele>
        <time>2019-07-07T12:33:46.000Z</time>
      </trkpt>
      <trkpt lat="40.92510080896317958831787109375" lon="-2.04008138738572597503662109375">
        <ele>1159</ele>
        <time>2019-07-07T12:33:48.000Z</time>
      </trkpt>
      <trkpt lat="40.92523391358554363250732421875" lon="-2.04041515477001667022705078125">
        <ele>1161</ele>
        <time>2019-07-07T12:33:49.000Z</time>
      </trkpt>
      <trkpt lat="40.92537003569304943084716796875" lon="-2.040734589099884033203125">
        <ele>1165.4000244140625</ele>
        <time>2019-07-07T12:33:50.000Z</time>
      </trkpt>
      <trkpt lat="40.92550582252442836761474609375" lon="-2.04104161821305751800537109375">
        <ele>1169.5999755859375</ele>
        <time>2019-07-07T12:33:51.000Z</time>
      </trkpt>
      <trkpt lat="40.9256411902606487274169921875" lon="-2.04133599065244197845458984375">
        <ele>1172.199951171875</ele>
        <time>2019-07-07T12:33:52.000Z</time>
      </trkpt>
      <trkpt lat="40.92577622272074222564697265625" lon="-2.0416183769702911376953125">
        <ele>1175.199951171875</ele>
        <time>2019-07-07T12:33:53.000Z</time>
      </trkpt>
      <trkpt lat="40.9260354749858379364013671875" lon="-2.04215942882001399993896484375">
        <ele>1177.4000244140625</ele>
        <time>2019-07-07T12:33:55.000Z</time>
      </trkpt>
      <trkpt lat="40.926158688962459564208984375" lon="-2.04241759143769741058349609375">
        <ele>1179.800048828125</ele>
        <time>2019-07-07T12:33:56.000Z</time>
      </trkpt>
      <trkpt lat="40.92627779580652713775634765625" lon="-2.04266988672316074371337890625">
        <ele>1182</ele>
        <time>2019-07-07T12:33:57.000Z</time>
      </trkpt>
      <trkpt lat="40.926392376422882080078125" lon="-2.0429227687418460845947265625">
        <ele>1183</ele>
        <time>2019-07-07T12:33:58.000Z</time>
      </trkpt>
      <trkpt lat="40.92650310136377811431884765625" lon="-2.043180763721466064453125">
        <ele>1184</ele>
        <time>2019-07-07T12:33:59.000Z</time>
      </trkpt>
      <trkpt lat="40.92670954763889312744140625" lon="-2.043719552457332611083984375">
        <ele>1185.199951171875</ele>
        <time>2019-07-07T12:34:01.000Z</time>
      </trkpt>
      <trkpt lat="40.926909036934375762939453125" lon="-2.0443091355264186859130859375">
        <ele>1185.199951171875</ele>
        <time>2019-07-07T12:34:03.000Z</time>
      </trkpt>
      <trkpt lat="40.9271150641143321990966796875" lon="-2.04493367113173007965087890625">
        <ele>1185.199951171875</ele>
        <time>2019-07-07T12:34:05.000Z</time>
      </trkpt>
      <trkpt lat="40.92732989229261875152587890625" lon="-2.045584358274936676025390625">
        <ele>1185.199951171875</ele>
        <time>2019-07-07T12:34:07.000Z</time>
      </trkpt>
      <trkpt lat="40.92755083926022052764892578125" lon="-2.04628701321780681610107421875">
        <ele>1183.800048828125</ele>
        <time>2019-07-07T12:34:09.000Z</time>
      </trkpt>
      <trkpt lat="40.9277889691293239593505859375" lon="-2.047062255442142486572265625">
        <ele>1184</ele>
        <time>2019-07-07T12:34:11.000Z</time>
      </trkpt>
      <trkpt lat="40.92791511677205562591552734375" lon="-2.0474701188504695892333984375">
        <ele>1182</ele>
        <time>2019-07-07T12:34:12.000Z</time>
      </trkpt>
      <trkpt lat="40.92804486863315105438232421875" lon="-2.04788175411522388458251953125">
        <ele>1178.199951171875</ele>
        <time>2019-07-07T12:34:13.000Z</time>
      </trkpt>
      <trkpt lat="40.928321219980716705322265625" lon="-2.0486927032470703125">
        <ele>1176.199951171875</ele>
        <time>2019-07-07T12:34:15.000Z</time>
      </trkpt>
      <trkpt lat="40.92846103012561798095703125" lon="-2.0490861497819423675537109375">
        <ele>1172.4000244140625</ele>
        <time>2019-07-07T12:34:16.000Z</time>
      </trkpt>
      <trkpt lat="40.928592793643474578857421875" lon="-2.04947129823267459869384765625">
        <ele>1167.4000244140625</ele>
        <time>2019-07-07T12:34:17.000Z</time>
      </trkpt>
      <trkpt lat="40.92871793545782566070556640625" lon="-2.04984965734183788299560546875">
        <ele>1162.5999755859375</ele>
        <time>2019-07-07T12:34:18.000Z</time>
      </trkpt>
      <trkpt lat="40.9288410656154155731201171875" lon="-2.0502213947474956512451171875">
        <ele>1160.199951171875</ele>
        <time>2019-07-07T12:34:19.000Z</time>
      </trkpt>
      <trkpt lat="40.928962267935276031494140625" lon="-2.05058642663061618804931640625">
        <ele>1161.800048828125</ele>
        <time>2019-07-07T12:34:20.000Z</time>
      </trkpt>
      <trkpt lat="40.92919704504311084747314453125" lon="-2.05130894668400287628173828125">
        <ele>1163.800048828125</ele>
        <time>2019-07-07T12:34:22.000Z</time>
      </trkpt>
      <trkpt lat="40.929312966763973236083984375" lon="-2.0516657643020153045654296875">
        <ele>1167.800048828125</ele>
        <time>2019-07-07T12:34:23.000Z</time>
      </trkpt>
      <trkpt lat="40.92942788265645503997802734375" lon="-2.05201738514006137847900390625">
        <ele>1171.199951171875</ele>
        <time>2019-07-07T12:34:24.000Z</time>
      </trkpt>
      <trkpt lat="40.92954154126346111297607421875" lon="-2.05236221663653850555419921875">
        <ele>1173.4000244140625</ele>
        <time>2019-07-07T12:34:25.000Z</time>
      </trkpt>
      <trkpt lat="40.929653607308864593505859375" lon="-2.05270252190530300140380859375">
        <ele>1174.4000244140625</ele>
        <time>2019-07-07T12:34:26.000Z</time>
      </trkpt>
      <trkpt lat="40.92976458370685577392578125" lon="-2.05303947441279888153076171875">
        <ele>1175.5999755859375</ele>
        <time>2019-07-07T12:34:27.000Z</time>
      </trkpt>
      <trkpt lat="40.92999131418764591217041015625" lon="-2.05371136777102947235107421875">
        <ele>1176.5999755859375</ele>
        <time>2019-07-07T12:34:29.000Z</time>
      </trkpt>
      <trkpt lat="40.93023271299898624420166015625" lon="-2.05439097248017787933349609375">
        <ele>1176.800048828125</ele>
        <time>2019-07-07T12:34:31.000Z</time>
      </trkpt>
      <trkpt lat="40.9304849244654178619384765625" lon="-2.05508373677730560302734375">
        <ele>1175.4000244140625</ele>
        <time>2019-07-07T12:34:33.000Z</time>
      </trkpt>
      <trkpt lat="40.93061216175556182861328125" lon="-2.05543284304440021514892578125">
        <ele>1173.199951171875</ele>
        <time>2019-07-07T12:34:34.000Z</time>
      </trkpt>
      <trkpt lat="40.9307393990457057952880859375" lon="-2.055784128606319427490234375">
        <ele>1171</ele>
        <time>2019-07-07T12:34:35.000Z</time>
      </trkpt>
      <trkpt lat="40.9308664686977863311767578125" lon="-2.05613457597792148590087890625">
        <ele>1168.199951171875</ele>
        <time>2019-07-07T12:34:36.000Z</time>
      </trkpt>
      <trkpt lat="40.93099345453083515167236328125" lon="-2.0564846880733966827392578125">
        <ele>1166.800048828125</ele>
        <time>2019-07-07T12:34:37.000Z</time>
      </trkpt>
      <trkpt lat="40.9312466718256473541259765625" lon="-2.057174853980541229248046875">
        <ele>1165.5999755859375</ele>
        <time>2019-07-07T12:34:39.000Z</time>
      </trkpt>
      <trkpt lat="40.9314967878162860870361328125" lon="-2.05785722471773624420166015625">
        <ele>1171.4000244140625</ele>
        <time>2019-07-07T12:34:41.000Z</time>
      </trkpt>
      <trkpt lat="40.9316213428974151611328125" lon="-2.0581979490816593170166015625">
        <ele>1176</ele>
        <time>2019-07-07T12:34:42.000Z</time>
      </trkpt>
      <trkpt lat="40.931744389235973358154296875" lon="-2.0585416071116924285888671875">
        <ele>1179.800048828125</ele>
        <time>2019-07-07T12:34:43.000Z</time>
      </trkpt>
      <trkpt lat="40.93186684884130954742431640625" lon="-2.05888551659882068634033203125">
        <ele>1177.5999755859375</ele>
        <time>2019-07-07T12:34:44.000Z</time>
      </trkpt>
      <trkpt lat="40.93211445026099681854248046875" lon="-2.0595816336572170257568359375">
        <ele>1180.5999755859375</ele>
        <time>2019-07-07T12:34:46.000Z</time>
      </trkpt>
      <trkpt lat="40.93223850242793560028076171875" lon="-2.059933505952358245849609375">
        <ele>1181.800048828125</ele>
        <time>2019-07-07T12:34:47.000Z</time>
      </trkpt>
      <trkpt lat="40.93249465338885784149169921875" lon="-2.06064906902611255645751953125">
        <ele>1183.199951171875</ele>
        <time>2019-07-07T12:34:49.000Z</time>
      </trkpt>
      <trkpt lat="40.932625494897365570068359375" lon="-2.06101351417601108551025390625">
        <ele>1185</ele>
        <time>2019-07-07T12:34:50.000Z</time>
      </trkpt>
      <trkpt lat="40.93289564363658428192138671875" lon="-2.061750032007694244384765625">
        <ele>1186.4000244140625</ele>
        <time>2019-07-07T12:34:52.000Z</time>
      </trkpt>
      <trkpt lat="40.93316202051937580108642578125" lon="-2.0624928362667560577392578125">
        <ele>1186.4000244140625</ele>
        <time>2019-07-07T12:34:54.000Z</time>
      </trkpt>
      <trkpt lat="40.93342655338346958160400390625" lon="-2.063229940831661224365234375">
        <ele>1187</ele>
        <time>2019-07-07T12:34:56.000Z</time>
      </trkpt>
      <trkpt lat="40.93369326554238796234130859375" lon="-2.0639589987695217132568359375">
        <ele>1186.5999755859375</ele>
        <time>2019-07-07T12:34:58.000Z</time>
      </trkpt>
      <trkpt lat="40.93395863659679889678955078125" lon="-2.064687050879001617431640625">
        <ele>1186.199951171875</ele>
        <time>2019-07-07T12:35:00.000Z</time>
      </trkpt>
      <trkpt lat="40.93422920443117618560791015625" lon="-2.0654037036001682281494140625">
        <ele>1185</ele>
        <time>2019-07-07T12:35:02.000Z</time>
      </trkpt>
      <trkpt lat="40.93449977226555347442626953125" lon="-2.0660923607647418975830078125">
        <ele>1184</ele>
        <time>2019-07-07T12:35:04.000Z</time>
      </trkpt>
      <trkpt lat="40.9346406720578670501708984375" lon="-2.06642654724419116973876953125">
        <ele>1183</ele>
        <time>2019-07-07T12:35:05.000Z</time>
      </trkpt>
      <trkpt lat="40.93493965454399585723876953125" lon="-2.067085616290569305419921875">
        <ele>1182.5999755859375</ele>
        <time>2019-07-07T12:35:07.000Z</time>
      </trkpt>
      <trkpt lat="40.93526252545416355133056640625" lon="-2.06773228012025356292724609375">
        <ele>1182.5999755859375</ele>
        <time>2019-07-07T12:35:09.000Z</time>
      </trkpt>
      <trkpt lat="40.935583300888538360595703125" lon="-2.0683853141963481903076171875">
        <ele>1183.199951171875</ele>
        <time>2019-07-07T12:35:11.000Z</time>
      </trkpt>
      <trkpt lat="40.93574456870555877685546875" lon="-2.06871380098164081573486328125">
        <ele>1184.199951171875</ele>
        <time>2019-07-07T12:35:12.000Z</time>
      </trkpt>
      <trkpt lat="40.9360749833285808563232421875" lon="-2.0693706907331943511962890625">
        <ele>1185</ele>
        <time>2019-07-07T12:35:14.000Z</time>
      </trkpt>
      <trkpt lat="40.9362412802875041961669921875" lon="-2.06969984807074069976806640625">
        <ele>1185.4000244140625</ele>
        <time>2019-07-07T12:35:15.000Z</time>
      </trkpt>
      <trkpt lat="40.93657496385276317596435546875" lon="-2.07036704756319522857666015625">
        <ele>1186.5999755859375</ele>
        <time>2019-07-07T12:35:17.000Z</time>
      </trkpt>
      <trkpt lat="40.93691510148346424102783203125" lon="-2.07104547880589962005615234375">
        <ele>1185.5999755859375</ele>
        <time>2019-07-07T12:35:19.000Z</time>
      </trkpt>
      <trkpt lat="40.93708793632686138153076171875" lon="-2.0713853649795055389404296875">
        <ele>1184.4000244140625</ele>
        <time>2019-07-07T12:35:20.000Z</time>
      </trkpt>
      <trkpt lat="40.9372621960937976837158203125" lon="-2.07172458060085773468017578125">
        <ele>1183</ele>
        <time>2019-07-07T12:35:21.000Z</time>
      </trkpt>
      <trkpt lat="40.9374395571649074554443359375" lon="-2.0720596052706241607666015625">
        <ele>1181.199951171875</ele>
        <time>2019-07-07T12:35:22.000Z</time>
      </trkpt>
      <trkpt lat="40.93762454576790332794189453125" lon="-2.07238675095140933990478515625">
        <ele>1179.199951171875</ele>
        <time>2019-07-07T12:35:23.000Z</time>
      </trkpt>
      <trkpt lat="40.93782118521630764007568359375" lon="-2.07270123995840549468994140625">
        <ele>1177.5999755859375</ele>
        <time>2019-07-07T12:35:24.000Z</time>
      </trkpt>
      <trkpt lat="40.93803073279559612274169921875" lon="-2.0730029046535491943359375">
        <ele>1175.5999755859375</ele>
        <time>2019-07-07T12:35:25.000Z</time>
      </trkpt>
      <trkpt lat="40.93824841082096099853515625" lon="-2.07329459488391876220703125">
        <ele>1174.4000244140625</ele>
        <time>2019-07-07T12:35:26.000Z</time>
      </trkpt>
      <trkpt lat="40.93868871219456195831298828125" lon="-2.07387529313564300537109375">
        <ele>1174.4000244140625</ele>
        <time>2019-07-07T12:35:28.000Z</time>
      </trkpt>
      <trkpt lat="40.9391216374933719635009765625" lon="-2.07444484345614910125732421875">
        <ele>1174.4000244140625</ele>
        <time>2019-07-07T12:35:30.000Z</time>
      </trkpt>
      <trkpt lat="40.939530842006206512451171875" lon="-2.07498413510620594024658203125">
        <ele>1175.800048828125</ele>
        <time>2019-07-07T12:35:32.000Z</time>
      </trkpt>
      <trkpt lat="40.93972706235945224761962890625" lon="-2.0752440579235553741455078125">
        <ele>1177.4000244140625</ele>
        <time>2019-07-07T12:35:33.000Z</time>
      </trkpt>
      <trkpt lat="40.9399212710559368133544921875" lon="-2.0755012147128582000732421875">
        <ele>1180</ele>
        <time>2019-07-07T12:35:34.000Z</time>
      </trkpt>
      <trkpt lat="40.940114222466945648193359375" lon="-2.07575711421668529510498046875">
        <ele>1181.199951171875</ele>
        <time>2019-07-07T12:35:35.000Z</time>
      </trkpt>
      <trkpt lat="40.94030759297311305999755859375" lon="-2.076012678444385528564453125">
        <ele>1184.4000244140625</ele>
        <time>2019-07-07T12:35:36.000Z</time>
      </trkpt>
      <trkpt lat="40.94050305895507335662841796875" lon="-2.07626782357692718505859375">
        <ele>1186.5999755859375</ele>
        <time>2019-07-07T12:35:37.000Z</time>
      </trkpt>
      <trkpt lat="40.94069969840347766876220703125" lon="-2.0765248127281665802001953125">
        <ele>1190.199951171875</ele>
        <time>2019-07-07T12:35:38.000Z</time>
      </trkpt>
      <trkpt lat="40.9408989362418651580810546875" lon="-2.07678440026938915252685546875">
        <ele>1194.199951171875</ele>
        <time>2019-07-07T12:35:39.000Z</time>
      </trkpt>
      <trkpt lat="40.94110119156539440155029296875" lon="-2.07704708911478519439697265625">
        <ele>1197.199951171875</ele>
        <time>2019-07-07T12:35:40.000Z</time>
      </trkpt>
      <trkpt lat="40.9413059614598751068115234375" lon="-2.07731145434081554412841796875">
        <ele>1198.800048828125</ele>
        <time>2019-07-07T12:35:41.000Z</time>
      </trkpt>
      <trkpt lat="40.9417237155139446258544921875" lon="-2.077848650515079498291015625">
        <ele>1199.5999755859375</ele>
        <time>2019-07-07T12:35:43.000Z</time>
      </trkpt>
      <trkpt lat="40.9419339336454868316650390625" lon="-2.07812064327299594879150390625">
        <ele>1200</ele>
        <time>2019-07-07T12:35:44.000Z</time>
      </trkpt>
      <trkpt lat="40.94235596247017383575439453125" lon="-2.0786677300930023193359375">
        <ele>1200.199951171875</ele>
        <time>2019-07-07T12:35:46.000Z</time>
      </trkpt>
      <trkpt lat="40.942783020436763763427734375" lon="-2.07922269590198993682861328125">
        <ele>1200.800048828125</ele>
        <time>2019-07-07T12:35:48.000Z</time>
      </trkpt>
      <trkpt lat="40.9429967589676380157470703125" lon="-2.0795064233243465423583984375">
        <ele>1201.5999755859375</ele>
        <time>2019-07-07T12:35:49.000Z</time>
      </trkpt>
      <trkpt lat="40.94342197291553020477294921875" lon="-2.08008117042481899261474609375">
        <ele>1203.199951171875</ele>
        <time>2019-07-07T12:35:51.000Z</time>
      </trkpt>
      <trkpt lat="40.94384081661701202392578125" lon="-2.08067980594933032989501953125">
        <ele>1204</ele>
        <time>2019-07-07T12:35:53.000Z</time>
      </trkpt>
      <trkpt lat="40.94404826872050762176513671875" lon="-2.080992199480533599853515625">
        <ele>1204.199951171875</ele>
        <time>2019-07-07T12:35:54.000Z</time>
      </trkpt>
      <trkpt lat="40.94446535222232341766357421875" lon="-2.08163048140704631805419921875">
        <ele>1204.4000244140625</ele>
        <time>2019-07-07T12:35:56.000Z</time>
      </trkpt>
      <trkpt lat="40.9448823519051074981689453125" lon="-2.08227999508380889892578125">
        <ele>1204.4000244140625</ele>
        <time>2019-07-07T12:35:58.000Z</time>
      </trkpt>
      <trkpt lat="40.94529650174081325531005859375" lon="-2.0829265750944614410400390625">
        <ele>1204.4000244140625</ele>
        <time>2019-07-07T12:36:00.000Z</time>
      </trkpt>
      <trkpt lat="40.94570956192910671234130859375" lon="-2.083565108478069305419921875">
        <ele>1204</ele>
        <time>2019-07-07T12:36:02.000Z</time>
      </trkpt>
      <trkpt lat="40.94612161628901958465576171875" lon="-2.084192745387554168701171875">
        <ele>1201.5999755859375</ele>
        <time>2019-07-07T12:36:04.000Z</time>
      </trkpt>
      <trkpt lat="40.94632579945027828216552734375" lon="-2.08450681529939174652099609375">
        <ele>1197.4000244140625</ele>
        <time>2019-07-07T12:36:05.000Z</time>
      </trkpt>
      <trkpt lat="40.94652981497347354888916015625" lon="-2.0848225615918636322021484375">
        <ele>1189.800048828125</ele>
        <time>2019-07-07T12:36:06.000Z</time>
      </trkpt>
      <trkpt lat="40.94693801365792751312255859375" lon="-2.08545363508164882659912109375">
        <ele>1188.800048828125</ele>
        <time>2019-07-07T12:36:08.000Z</time>
      </trkpt>
      <trkpt lat="40.94713716767728328704833984375" lon="-2.08576460368931293487548828125">
        <ele>1183.199951171875</ele>
        <time>2019-07-07T12:36:09.000Z</time>
      </trkpt>
      <trkpt lat="40.94732224009931087493896484375" lon="-2.0860842056572437286376953125">
        <ele>1174.4000244140625</ele>
        <time>2019-07-07T12:36:10.000Z</time>
      </trkpt>
      <trkpt lat="40.9474839270114898681640625" lon="-2.086420319974422454833984375">
        <ele>1164.199951171875</ele>
        <time>2019-07-07T12:36:11.000Z</time>
      </trkpt>
      <trkpt lat="40.94762885011732578277587890625" lon="-2.08676825277507305145263671875">
        <ele>1158.800048828125</ele>
        <time>2019-07-07T12:36:12.000Z</time>
      </trkpt>
      <trkpt lat="40.94776765443384647369384765625" lon="-2.0871225558221340179443359375">
        <ele>1153.199951171875</ele>
        <time>2019-07-07T12:36:13.000Z</time>
      </trkpt>
      <trkpt lat="40.94790629111230373382568359375" lon="-2.08747543394565582275390625">
        <ele>1148.5999755859375</ele>
        <time>2019-07-07T12:36:14.000Z</time>
      </trkpt>
      <trkpt lat="40.94804626889526844024658203125" lon="-2.087819091975688934326171875">
        <ele>1145.800048828125</ele>
        <time>2019-07-07T12:36:15.000Z</time>
      </trkpt>
      <trkpt lat="40.94833083450794219970703125" lon="-2.08850431255996227264404296875">
        <ele>1144.800048828125</ele>
        <time>2019-07-07T12:36:17.000Z</time>
      </trkpt>
      <trkpt lat="40.9486592374742031097412109375" lon="-2.08916162140667438507080078125">
        <ele>1144.800048828125</ele>
        <time>2019-07-07T12:36:19.000Z</time>
      </trkpt>
      <trkpt lat="40.9488547034561634063720703125" lon="-2.0894641242921352386474609375">
        <ele>1147.800048828125</ele>
        <time>2019-07-07T12:36:20.000Z</time>
      </trkpt>
      <trkpt lat="40.94906366430222988128662109375" lon="-2.08974885754287242889404296875">
        <ele>1149.4000244140625</ele>
        <time>2019-07-07T12:36:21.000Z</time>
      </trkpt>
      <trkpt lat="40.94927220605313777923583984375" lon="-2.0900320820510387420654296875">
        <ele>1152.800048828125</ele>
        <time>2019-07-07T12:36:22.000Z</time>
      </trkpt>
      <trkpt lat="40.949479155242443084716796875" lon="-2.09031832404434680938720703125">
        <ele>1154.5999755859375</ele>
        <time>2019-07-07T12:36:23.000Z</time>
      </trkpt>
      <trkpt lat="40.9496922232210636138916015625" lon="-2.09060448221862316131591796875">
        <ele>1156.4000244140625</ele>
        <time>2019-07-07T12:36:24.000Z</time>
      </trkpt>
      <trkpt lat="40.9501210413873195648193359375" lon="-2.09118895232677459716796875">
        <ele>1156</ele>
        <time>2019-07-07T12:36:26.000Z</time>
      </trkpt>
      <trkpt lat="40.950331427156925201416015625" lon="-2.09148374386131763458251953125">
        <ele>1153</ele>
        <time>2019-07-07T12:36:27.000Z</time>
      </trkpt>
      <trkpt lat="40.95054231584072113037109375" lon="-2.09177509881556034088134765625">
        <ele>1151.4000244140625</ele>
        <time>2019-07-07T12:36:28.000Z</time>
      </trkpt>
      <trkpt lat="40.95075479708611965179443359375" lon="-2.09206846542656421661376953125">
        <ele>1147</ele>
        <time>2019-07-07T12:36:29.000Z</time>
      </trkpt>
      <trkpt lat="40.95096786506474018096923828125" lon="-2.092362083494663238525390625">
        <ele>1148.5999755859375</ele>
        <time>2019-07-07T12:36:30.000Z</time>
      </trkpt>
      <trkpt lat="40.951182357966899871826171875" lon="-2.092657126486301422119140625">
        <ele>1150.800048828125</ele>
        <time>2019-07-07T12:36:31.000Z</time>
      </trkpt>
      <trkpt lat="40.9513967670500278472900390625" lon="-2.09295677952468395233154296875">
        <ele>1152</ele>
        <time>2019-07-07T12:36:32.000Z</time>
      </trkpt>
      <trkpt lat="40.95160841010510921478271484375" lon="-2.09326037205755710601806640625">
        <ele>1149.199951171875</ele>
        <time>2019-07-07T12:36:33.000Z</time>
      </trkpt>
      <trkpt lat="40.951819382607936859130859375" lon="-2.09356379695236682891845703125">
        <ele>1152</ele>
        <time>2019-07-07T12:36:34.000Z</time>
      </trkpt>
      <trkpt lat="40.95203362405300140380859375" lon="-2.09386403672397136688232421875">
        <ele>1157.5999755859375</ele>
        <time>2019-07-07T12:36:35.000Z</time>
      </trkpt>
      <trkpt lat="40.95224694348871707916259765625" lon="-2.09416762925684452056884765625">
        <ele>1160.4000244140625</ele>
        <time>2019-07-07T12:36:36.000Z</time>
      </trkpt>
      <trkpt lat="40.95267894677817821502685546875" lon="-2.09477908909320831298828125">
        <ele>1157.4000244140625</ele>
        <time>2019-07-07T12:36:38.000Z</time>
      </trkpt>
      <trkpt lat="40.95289821736514568328857421875" lon="-2.095078490674495697021484375">
        <ele>1151.800048828125</ele>
        <time>2019-07-07T12:36:39.000Z</time>
      </trkpt>
      <trkpt lat="40.95311111770570278167724609375" lon="-2.095371522009372711181640625">
        <ele>1145.4000244140625</ele>
        <time>2019-07-07T12:36:40.000Z</time>
      </trkpt>
      <trkpt lat="40.95331395976245403289794921875" lon="-2.09565080702304840087890625">
        <ele>1136.4000244140625</ele>
        <time>2019-07-07T12:36:41.000Z</time>
      </trkpt>
      <trkpt lat="40.9535033069550991058349609375" lon="-2.09591290913522243499755859375">
        <ele>1128.800048828125</ele>
        <time>2019-07-07T12:36:42.000Z</time>
      </trkpt>
      <trkpt lat="40.95367890782654285430908203125" lon="-2.09616285748779773712158203125">
        <ele>1124.800048828125</ele>
        <time>2019-07-07T12:36:43.000Z</time>
      </trkpt>
      <trkpt lat="40.95384302549064159393310546875" lon="-2.09640509448945522308349609375">
        <ele>1123</ele>
        <time>2019-07-07T12:36:44.000Z</time>
      </trkpt>
      <trkpt lat="40.95399700105190277099609375" lon="-2.096642218530178070068359375">
        <ele>1127.800048828125</ele>
        <time>2019-07-07T12:36:45.000Z</time>
      </trkpt>
      <trkpt lat="40.95414125360548496246337890625" lon="-2.09687523543834686279296875">
        <ele>1133.800048828125</ele>
        <time>2019-07-07T12:36:46.000Z</time>
      </trkpt>
      <trkpt lat="40.95428307540714740753173828125" lon="-2.0971060730516910552978515625">
        <ele>1138.5999755859375</ele>
        <time>2019-07-07T12:36:47.000Z</time>
      </trkpt>
      <trkpt lat="40.95442791469395160675048828125" lon="-2.097337245941162109375">
        <ele>1141.5999755859375</ele>
        <time>2019-07-07T12:36:48.000Z</time>
      </trkpt>
      <trkpt lat="40.9545758552849292755126953125" lon="-2.09757219068706035614013671875">
        <ele>1143</ele>
        <time>2019-07-07T12:36:49.000Z</time>
      </trkpt>
      <trkpt lat="40.9547247178852558135986328125" lon="-2.0978124998509883880615234375">
        <ele>1141.199951171875</ele>
        <time>2019-07-07T12:36:50.000Z</time>
      </trkpt>
      <trkpt lat="40.95487114973366260528564453125" lon="-2.0980599336326122283935546875">
        <ele>1139.4000244140625</ele>
        <time>2019-07-07T12:36:51.000Z</time>
      </trkpt>
      <trkpt lat="40.9551729820668697357177734375" lon="-2.0985608361661434173583984375">
        <ele>1137.800048828125</ele>
        <time>2019-07-07T12:36:53.000Z</time>
      </trkpt>
      <trkpt lat="40.95532813109457492828369140625" lon="-2.09881179034709930419921875">
        <ele>1139</ele>
        <time>2019-07-07T12:36:54.000Z</time>
      </trkpt>
      <trkpt lat="40.95564597286283969879150390625" lon="-2.09931512363255023956298828125">
        <ele>1140.199951171875</ele>
        <time>2019-07-07T12:36:56.000Z</time>
      </trkpt>
      <trkpt lat="40.9559635631740093231201171875" lon="-2.0998392440378665924072265625">
        <ele>1141.4000244140625</ele>
        <time>2019-07-07T12:36:58.000Z</time>
      </trkpt>
      <trkpt lat="40.95628785900771617889404296875" lon="-2.10037912242114543914794921875">
        <ele>1139.800048828125</ele>
        <time>2019-07-07T12:37:00.000Z</time>
      </trkpt>
      <trkpt lat="40.956620872020721435546875" lon="-2.100925035774707794189453125">
        <ele>1139.800048828125</ele>
        <time>2019-07-07T12:37:02.000Z</time>
      </trkpt>
      <trkpt lat="40.9569536335766315460205078125" lon="-2.10148083977401256561279296875">
        <ele>1138.4000244140625</ele>
        <time>2019-07-07T12:37:04.000Z</time>
      </trkpt>
      <trkpt lat="40.95728941261768341064453125" lon="-2.10204091854393482208251953125">
        <ele>1138.5999755859375</ele>
        <time>2019-07-07T12:37:06.000Z</time>
      </trkpt>
      <trkpt lat="40.9576387703418731689453125" lon="-2.10261021740734577178955078125">
        <ele>1138.5999755859375</ele>
        <time>2019-07-07T12:37:08.000Z</time>
      </trkpt>
      <trkpt lat="40.957991816103458404541015625" lon="-2.1031879819929599761962890625">
        <ele>1138.5999755859375</ele>
        <time>2019-07-07T12:37:10.000Z</time>
      </trkpt>
      <trkpt lat="40.95835533924400806427001953125" lon="-2.1037871204316616058349609375">
        <ele>1138.4000244140625</ele>
        <time>2019-07-07T12:37:12.000Z</time>
      </trkpt>
      <trkpt lat="40.958743505179882049560546875" lon="-2.10442967712879180908203125">
        <ele>1139</ele>
        <time>2019-07-07T12:37:14.000Z</time>
      </trkpt>
      <trkpt lat="40.958946011960506439208984375" lon="-2.10476185195147991180419921875">
        <ele>1139.800048828125</ele>
        <time>2019-07-07T12:37:15.000Z</time>
      </trkpt>
      <trkpt lat="40.95935345627367496490478515625" lon="-2.10542335174977779388427734375">
        <ele>1140</ele>
        <time>2019-07-07T12:37:17.000Z</time>
      </trkpt>
      <trkpt lat="40.959744639694690704345703125" lon="-2.1060817502439022064208984375">
        <ele>1140</ele>
        <time>2019-07-07T12:37:19.000Z</time>
      </trkpt>
      <trkpt lat="40.96010514535009860992431640625" lon="-2.10676261223852634429931640625">
        <ele>1139</ele>
        <time>2019-07-07T12:37:21.000Z</time>
      </trkpt>
      <trkpt lat="40.96026389859616756439208984375" lon="-2.1071201004087924957275390625">
        <ele>1137</ele>
        <time>2019-07-07T12:37:22.000Z</time>
      </trkpt>
      <trkpt lat="40.96040739677846431732177734375" lon="-2.10748873651027679443359375">
        <ele>1135.5999755859375</ele>
        <time>2019-07-07T12:37:23.000Z</time>
      </trkpt>
      <trkpt lat="40.96054167486727237701416015625" lon="-2.107865922152996063232421875">
        <ele>1133.5999755859375</ele>
        <time>2019-07-07T12:37:24.000Z</time>
      </trkpt>
      <trkpt lat="40.9606684930622577667236328125" lon="-2.1082439459860324859619140625">
        <ele>1125.199951171875</ele>
        <time>2019-07-07T12:37:25.000Z</time>
      </trkpt>
      <trkpt lat="40.960791371762752532958984375" lon="-2.1086167730391025543212890625">
        <ele>1114.4000244140625</ele>
        <time>2019-07-07T12:37:26.000Z</time>
      </trkpt>
      <trkpt lat="40.96091031096875667572021484375" lon="-2.1089795418083667755126953125">
        <ele>1103.199951171875</ele>
        <time>2019-07-07T12:37:27.000Z</time>
      </trkpt>
      <trkpt lat="40.961025394499301910400390625" lon="-2.109334766864776611328125">
        <ele>1097.800048828125</ele>
        <time>2019-07-07T12:37:28.000Z</time>
      </trkpt>
      <trkpt lat="40.9611402265727519989013671875" lon="-2.109683789312839508056640625">
        <ele>1095</ele>
        <time>2019-07-07T12:37:29.000Z</time>
      </trkpt>
      <trkpt lat="40.96137600950896739959716796875" lon="-2.11036783643066883087158203125">
        <ele>1097</ele>
        <time>2019-07-07T12:37:31.000Z</time>
      </trkpt>
      <trkpt lat="40.96150316298007965087890625" lon="-2.11070579476654529571533203125">
        <ele>1100</ele>
        <time>2019-07-07T12:37:32.000Z</time>
      </trkpt>
      <trkpt lat="40.96163769252598285675048828125" lon="-2.11104207672178745269775390625">
        <ele>1104.4000244140625</ele>
        <time>2019-07-07T12:37:33.000Z</time>
      </trkpt>
      <trkpt lat="40.9617779217660427093505859375" lon="-2.11137802340090274810791015625">
        <ele>1109.199951171875</ele>
        <time>2019-07-07T12:37:34.000Z</time>
      </trkpt>
      <trkpt lat="40.9619234316051006317138671875" lon="-2.11171681992709636688232421875">
        <ele>1113.800048828125</ele>
        <time>2019-07-07T12:37:35.000Z</time>
      </trkpt>
      <trkpt lat="40.9620726294815540313720703125" lon="-2.11205922067165374755859375">
        <ele>1116.199951171875</ele>
        <time>2019-07-07T12:37:36.000Z</time>
      </trkpt>
      <trkpt lat="40.96222459338605403900146484375" lon="-2.1124050579965114593505859375">
        <ele>1118.199951171875</ele>
        <time>2019-07-07T12:37:37.000Z</time>
      </trkpt>
      <trkpt lat="40.962529443204402923583984375" lon="-2.1131010912358760833740234375">
        <ele>1119.199951171875</ele>
        <time>2019-07-07T12:37:39.000Z</time>
      </trkpt>
      <trkpt lat="40.9628333710134029388427734375" lon="-2.11380123160779476165771484375">
        <ele>1114.199951171875</ele>
        <time>2019-07-07T12:37:41.000Z</time>
      </trkpt>
      <trkpt lat="40.96298642456531524658203125" lon="-2.11415310390293598175048828125">
        <ele>1112.5999755859375</ele>
        <time>2019-07-07T12:37:42.000Z</time>
      </trkpt>
      <trkpt lat="40.96314073540270328521728515625" lon="-2.114505730569362640380859375">
        <ele>1111</ele>
        <time>2019-07-07T12:37:43.000Z</time>
      </trkpt>
      <trkpt lat="40.963294208049774169921875" lon="-2.114859782159328460693359375">
        <ele>1108.5999755859375</ele>
        <time>2019-07-07T12:37:44.000Z</time>
      </trkpt>
      <trkpt lat="40.963600315153598785400390625" lon="-2.11556780152022838592529296875">
        <ele>1107.5999755859375</ele>
        <time>2019-07-07T12:37:46.000Z</time>
      </trkpt>
      <trkpt lat="40.96375412307679653167724609375" lon="-2.11591917090117931365966796875">
        <ele>1106.4000244140625</ele>
        <time>2019-07-07T12:37:47.000Z</time>
      </trkpt>
      <trkpt lat="40.96390835009515285491943359375" lon="-2.1162687800824642181396484375">
        <ele>1105.199951171875</ele>
        <time>2019-07-07T12:37:48.000Z</time>
      </trkpt>
      <trkpt lat="40.96406123600900173187255859375" lon="-2.11661905981600284576416015625">
        <ele>1103.800048828125</ele>
        <time>2019-07-07T12:37:49.000Z</time>
      </trkpt>
      <trkpt lat="40.96436449326574802398681640625" lon="-2.117322050034999847412109375">
        <ele>1102.5999755859375</ele>
        <time>2019-07-07T12:37:51.000Z</time>
      </trkpt>
      <trkpt lat="40.96467043273150920867919921875" lon="-2.1180239506065845489501953125">
        <ele>1103.4000244140625</ele>
        <time>2019-07-07T12:37:53.000Z</time>
      </trkpt>
      <trkpt lat="40.964822731912136077880859375" lon="-2.1183753199875354766845703125">
        <ele>1106</ele>
        <time>2019-07-07T12:37:54.000Z</time>
      </trkpt>
      <trkpt lat="40.9649744443595409393310546875" lon="-2.11872576735913753509521484375">
        <ele>1111.199951171875</ele>
        <time>2019-07-07T12:37:55.000Z</time>
      </trkpt>
      <trkpt lat="40.96512674354016780853271484375" lon="-2.1190733648836612701416015625">
        <ele>1119.5999755859375</ele>
        <time>2019-07-07T12:37:56.000Z</time>
      </trkpt>
      <trkpt lat="40.96527879126369953155517578125" lon="-2.11941928602755069732666015625">
        <ele>1128.800048828125</ele>
        <time>2019-07-07T12:37:57.000Z</time>
      </trkpt>
      <trkpt lat="40.965429581701755523681640625" lon="-2.119763195514678955078125">
        <ele>1136.4000244140625</ele>
        <time>2019-07-07T12:37:58.000Z</time>
      </trkpt>
      <trkpt lat="40.96557869575917720794677734375" lon="-2.12010442279279232025146484375">
        <ele>1140.199951171875</ele>
        <time>2019-07-07T12:37:59.000Z</time>
      </trkpt>
      <trkpt lat="40.9657261334359645843505859375" lon="-2.12044388987123966217041015625">
        <ele>1142.800048828125</ele>
        <time>2019-07-07T12:38:00.000Z</time>
      </trkpt>
      <trkpt lat="40.96601866185665130615234375" lon="-2.12111578322947025299072265625">
        <ele>1143.800048828125</ele>
        <time>2019-07-07T12:38:02.000Z</time>
      </trkpt>
      <trkpt lat="40.96631144173443317413330078125" lon="-2.12178432382643222808837890625">
        <ele>1143.5999755859375</ele>
        <time>2019-07-07T12:38:04.000Z</time>
      </trkpt>
      <trkpt lat="40.96660732291638851165771484375" lon="-2.12244733236730098724365234375">
        <ele>1143.199951171875</ele>
        <time>2019-07-07T12:38:06.000Z</time>
      </trkpt>
      <trkpt lat="40.96690035425126552581787109375" lon="-2.12310514412820339202880859375">
        <ele>1142.800048828125</ele>
        <time>2019-07-07T12:38:08.000Z</time>
      </trkpt>
      <trkpt lat="40.967183746397495269775390625" lon="-2.12376010604202747344970703125">
        <ele>1142</ele>
        <time>2019-07-07T12:38:10.000Z</time>
      </trkpt>
      <trkpt lat="40.96732179634273052215576171875" lon="-2.12407861836254596710205078125">
        <ele>1140.5999755859375</ele>
        <time>2019-07-07T12:38:11.000Z</time>
      </trkpt>
      <trkpt lat="40.967455990612506866455078125" lon="-2.12438455782830715179443359375">
        <ele>1139.199951171875</ele>
        <time>2019-07-07T12:38:12.000Z</time>
      </trkpt>
      <trkpt lat="40.96758565865457057952880859375" lon="-2.12467675097286701202392578125">
        <ele>1134.199951171875</ele>
        <time>2019-07-07T12:38:13.000Z</time>
      </trkpt>
      <trkpt lat="40.96771054901182651519775390625" lon="-2.12495821528136730194091796875">
        <ele>1127</ele>
        <time>2019-07-07T12:38:14.000Z</time>
      </trkpt>
      <trkpt lat="40.967830829322338104248046875" lon="-2.12522794492542743682861328125">
        <ele>1119.800048828125</ele>
        <time>2019-07-07T12:38:15.000Z</time>
      </trkpt>
      <trkpt lat="40.9679476730525493621826171875" lon="-2.12548845447599887847900390625">
        <ele>1114.800048828125</ele>
        <time>2019-07-07T12:38:16.000Z</time>
      </trkpt>
      <trkpt lat="40.968060158193111419677734375" lon="-2.12574142031371593475341796875">
        <ele>1110.5999755859375</ele>
        <time>2019-07-07T12:38:17.000Z</time>
      </trkpt>
      <trkpt lat="40.96837154589593410491943359375" lon="-2.126445583999156951904296875">
        <ele>1109.800048828125</ele>
        <time>2019-07-07T12:38:20.000Z</time>
      </trkpt>
      <trkpt lat="40.96864781342446804046630859375" lon="-2.127061150968074798583984375">
        <ele>1111.199951171875</ele>
        <time>2019-07-07T12:38:23.000Z</time>
      </trkpt>
      <trkpt lat="40.96873280592262744903564453125" lon="-2.12725393474102020263671875">
        <ele>1112.4000244140625</ele>
        <time>2019-07-07T12:38:24.000Z</time>
      </trkpt>
      <trkpt lat="40.96881528384983539581298828125" lon="-2.12744244374334812164306640625">
        <ele>1113.800048828125</ele>
        <time>2019-07-07T12:38:25.000Z</time>
      </trkpt>
      <trkpt lat="40.9689702652394771575927734375" lon="-2.127796076238155364990234375">
        <ele>1114.800048828125</ele>
        <time>2019-07-07T12:38:27.000Z</time>
      </trkpt>
      <trkpt lat="40.96910722553730010986328125" lon="-2.1281399019062519073486328125">
        <ele>1116.5999755859375</ele>
        <time>2019-07-07T12:38:29.000Z</time>
      </trkpt>
      <trkpt lat="40.96933680586516857147216796875" lon="-2.12876292876899242401123046875">
        <ele>1117.199951171875</ele>
        <time>2019-07-07T12:38:33.000Z</time>
      </trkpt>
      <trkpt lat="40.9695472754538059234619140625" lon="-2.12936223484575748443603515625">
        <ele>1116.5999755859375</ele>
        <time>2019-07-07T12:38:37.000Z</time>
      </trkpt>
      <trkpt lat="40.9697618521749973297119140625" lon="-2.12997864000499248504638671875">
        <ele>1117.199951171875</ele>
        <time>2019-07-07T12:38:41.000Z</time>
      </trkpt>
      <trkpt lat="40.969817005097866058349609375" lon="-2.13013454340398311614990234375">
        <ele>1117.800048828125</ele>
        <time>2019-07-07T12:38:42.000Z</time>
      </trkpt>
      <trkpt lat="40.969988666474819183349609375" lon="-2.130603678524494171142578125">
        <ele>1119</ele>
        <time>2019-07-07T12:38:45.000Z</time>
      </trkpt>
      <trkpt lat="40.97011799924075603485107421875" lon="-2.1309066005051136016845703125">
        <ele>1120.4000244140625</ele>
        <time>2019-07-07T12:38:47.000Z</time>
      </trkpt>
      <trkpt lat="40.970443300902843475341796875" lon="-2.131493501365184783935546875">
        <ele>1121.199951171875</ele>
        <time>2019-07-07T12:38:51.000Z</time>
      </trkpt>
      <trkpt lat="40.9708397649228572845458984375" lon="-2.13205366395413875579833984375">
        <ele>1121.5999755859375</ele>
        <time>2019-07-07T12:38:55.000Z</time>
      </trkpt>
      <trkpt lat="40.97105207853019237518310546875" lon="-2.132331691682338714599609375">
        <ele>1123.4000244140625</ele>
        <time>2019-07-07T12:38:57.000Z</time>
      </trkpt>
      <trkpt lat="40.9711629711091518402099609375" lon="-2.13246722705662250518798828125">
        <ele>1124.5999755859375</ele>
        <time>2019-07-07T12:38:58.000Z</time>
      </trkpt>
      <trkpt lat="40.9714033640921115875244140625" lon="-2.1327150799334049224853515625">
        <ele>1125.5999755859375</ele>
        <time>2019-07-07T12:39:00.000Z</time>
      </trkpt>
      <trkpt lat="40.97182069905102252960205078125" lon="-2.13299922645092010498046875">
        <ele>1126.199951171875</ele>
        <time>2019-07-07T12:39:03.000Z</time>
      </trkpt>
      <trkpt lat="40.97213334403932094573974609375" lon="-2.1331294812262058258056640625">
        <ele>1126.5999755859375</ele>
        <time>2019-07-07T12:39:05.000Z</time>
      </trkpt>
      <trkpt lat="40.97264061681926250457763671875" lon="-2.133210115134716033935546875">
        <ele>1128.5999755859375</ele>
        <time>2019-07-07T12:39:08.000Z</time>
      </trkpt>
      <trkpt lat="40.9728133678436279296875" lon="-2.1332012303173542022705078125">
        <ele>1129.5999755859375</ele>
        <time>2019-07-07T12:39:09.000Z</time>
      </trkpt>
      <trkpt lat="40.9731524996459484100341796875" lon="-2.1331227757036685943603515625">
        <ele>1131.4000244140625</ele>
        <time>2019-07-07T12:39:11.000Z</time>
      </trkpt>
      <trkpt lat="40.973636470735073089599609375" lon="-2.1328786946833133697509765625">
        <ele>1132.4000244140625</ele>
        <time>2019-07-07T12:39:14.000Z</time>
      </trkpt>
      <trkpt lat="40.9739471040666103363037109375" lon="-2.13263117708265781402587890625">
        <ele>1133.4000244140625</ele>
        <time>2019-07-07T12:39:16.000Z</time>
      </trkpt>
      <trkpt lat="40.9742444939911365509033203125" lon="-2.13230377994477748870849609375">
        <ele>1134.800048828125</ele>
        <time>2019-07-07T12:39:18.000Z</time>
      </trkpt>
      <trkpt lat="40.9746770001947879791259765625" lon="-2.131770439445972442626953125">
        <ele>1135.800048828125</ele>
        <time>2019-07-07T12:39:21.000Z</time>
      </trkpt>
      <trkpt lat="40.97509953193366527557373046875" lon="-2.13130004703998565673828125">
        <ele>1136.199951171875</ele>
        <time>2019-07-07T12:39:24.000Z</time>
      </trkpt>
      <trkpt lat="40.97539273090660572052001953125" lon="-2.13100223802030086517333984375">
        <ele>1134.5999755859375</ele>
        <time>2019-07-07T12:39:26.000Z</time>
      </trkpt>
      <trkpt lat="40.97554310224950313568115234375" lon="-2.13086393661797046661376953125">
        <ele>1133.4000244140625</ele>
        <time>2019-07-07T12:39:27.000Z</time>
      </trkpt>
      <trkpt lat="40.9758591838181018829345703125" lon="-2.13061499409377574920654296875">
        <ele>1132.199951171875</ele>
        <time>2019-07-07T12:39:29.000Z</time>
      </trkpt>
      <trkpt lat="40.97636285237967967987060546875" lon="-2.1302789635956287384033203125">
        <ele>1132.4000244140625</ele>
        <time>2019-07-07T12:39:32.000Z</time>
      </trkpt>
      <trkpt lat="40.97692024894058704376220703125" lon="-2.12999456562101840972900390625">
        <ele>1134</ele>
        <time>2019-07-07T12:39:35.000Z</time>
      </trkpt>
      <trkpt lat="40.977524332702159881591796875" lon="-2.129703797399997711181640625">
        <ele>1135</ele>
        <time>2019-07-07T12:39:38.000Z</time>
      </trkpt>
      <trkpt lat="40.97796656191349029541015625" lon="-2.1295785717666149139404296875">
        <ele>1136.5999755859375</ele>
        <time>2019-07-07T12:39:40.000Z</time>
      </trkpt>
      <trkpt lat="40.97845195792615413665771484375" lon="-2.12962006218731403350830078125">
        <ele>1137</ele>
        <time>2019-07-07T12:39:42.000Z</time>
      </trkpt>
      <trkpt lat="40.97897532396018505096435546875" lon="-2.129774875938892364501953125">
        <ele>1137.800048828125</ele>
        <time>2019-07-07T12:39:44.000Z</time>
      </trkpt>
      <trkpt lat="40.97950614988803863525390625" lon="-2.12996589951217174530029296875">
        <ele>1137.199951171875</ele>
        <time>2019-07-07T12:39:46.000Z</time>
      </trkpt>
      <trkpt lat="40.979759953916072845458984375" lon="-2.13004837743937969207763671875">
        <ele>1135.4000244140625</ele>
        <time>2019-07-07T12:39:47.000Z</time>
      </trkpt>
      <trkpt lat="40.98000244237482547760009765625" lon="-2.13012515567243099212646484375">
        <ele>1133.4000244140625</ele>
        <time>2019-07-07T12:39:48.000Z</time>
      </trkpt>
      <trkpt lat="40.98023428581655025482177734375" lon="-2.13020260445773601531982421875">
        <ele>1132</ele>
        <time>2019-07-07T12:39:49.000Z</time>
      </trkpt>
      <trkpt lat="40.98045422695577144622802734375" lon="-2.13028491474688053131103515625">
        <ele>1130.4000244140625</ele>
        <time>2019-07-07T12:39:50.000Z</time>
      </trkpt>
      <trkpt lat="40.9808604978024959564208984375" lon="-2.1304911933839321136474609375">
        <ele>1129</ele>
        <time>2019-07-07T12:39:52.000Z</time>
      </trkpt>
      <trkpt lat="40.98104448057711124420166015625" lon="-2.13063678704202175140380859375">
        <ele>1128.800048828125</ele>
        <time>2019-07-07T12:39:53.000Z</time>
      </trkpt>
      <trkpt lat="40.98137271590530872344970703125" lon="-2.13103316724300384521484375">
        <ele>1129.4000244140625</ele>
        <time>2019-07-07T12:39:55.000Z</time>
      </trkpt>
      <trkpt lat="40.9816467203199863433837890625" lon="-2.13157254271209239959716796875">
        <ele>1129.5999755859375</ele>
        <time>2019-07-07T12:39:57.000Z</time>
      </trkpt>
      <trkpt lat="40.98189826123416423797607421875" lon="-2.132176458835601806640625">
        <ele>1128</ele>
        <time>2019-07-07T12:39:59.000Z</time>
      </trkpt>
      <trkpt lat="40.9822212159633636474609375" lon="-2.13272706605494022369384765625">
        <ele>1127</ele>
        <time>2019-07-07T12:40:01.000Z</time>
      </trkpt>
      <trkpt lat="40.98241274245083332061767578125" lon="-2.1329876594245433807373046875">
        <ele>1125.5999755859375</ele>
        <time>2019-07-07T12:40:02.000Z</time>
      </trkpt>
      <trkpt lat="40.98282563500106334686279296875" lon="-2.1335070021450519561767578125">
        <ele>1125.4000244140625</ele>
        <time>2019-07-07T12:40:04.000Z</time>
      </trkpt>
      <trkpt lat="40.98324959166347980499267578125" lon="-2.134035564959049224853515625">
        <ele>1124.199951171875</ele>
        <time>2019-07-07T12:40:06.000Z</time>
      </trkpt>
      <trkpt lat="40.98367522470653057098388671875" lon="-2.13456722907721996307373046875">
        <ele>1121.4000244140625</ele>
        <time>2019-07-07T12:40:08.000Z</time>
      </trkpt>
      <trkpt lat="40.983886532485485076904296875" lon="-2.13483385741710662841796875">
        <ele>1119.199951171875</ele>
        <time>2019-07-07T12:40:09.000Z</time>
      </trkpt>
      <trkpt lat="40.98409700207412242889404296875" lon="-2.13509730063378810882568359375">
        <ele>1117.199951171875</ele>
        <time>2019-07-07T12:40:10.000Z</time>
      </trkpt>
      <trkpt lat="40.98451240919530391693115234375" lon="-2.13561463169753551483154296875">
        <ele>1119.4000244140625</ele>
        <time>2019-07-07T12:40:12.000Z</time>
      </trkpt>
      <trkpt lat="40.9847158379852771759033203125" lon="-2.1358733810484409332275390625">
        <ele>1124.5999755859375</ele>
        <time>2019-07-07T12:40:13.000Z</time>
      </trkpt>
      <trkpt lat="40.98512294702231884002685546875" lon="-2.13638015091419219970703125">
        <ele>1123.199951171875</ele>
        <time>2019-07-07T12:40:15.000Z</time>
      </trkpt>
      <trkpt lat="40.98552594892680644989013671875" lon="-2.13688180781900882720947265625">
        <ele>1123.800048828125</ele>
        <time>2019-07-07T12:40:17.000Z</time>
      </trkpt>
      <trkpt lat="40.98572292365133762359619140625" lon="-2.1371326781809329986572265625">
        <ele>1121.4000244140625</ele>
        <time>2019-07-07T12:40:18.000Z</time>
      </trkpt>
      <trkpt lat="40.985917635262012481689453125" lon="-2.1373858116567134857177734375">
        <ele>1119.4000244140625</ele>
        <time>2019-07-07T12:40:19.000Z</time>
      </trkpt>
      <trkpt lat="40.98610882647335529327392578125" lon="-2.13764615356922149658203125">
        <ele>1117.5999755859375</ele>
        <time>2019-07-07T12:40:20.000Z</time>
      </trkpt>
      <trkpt lat="40.98629473708570003509521484375" lon="-2.137916386127471923828125">
        <ele>1116.199951171875</ele>
        <time>2019-07-07T12:40:21.000Z</time>
      </trkpt>
      <trkpt lat="40.9866428375244140625" lon="-2.13850186206400394439697265625">
        <ele>1116.4000244140625</ele>
        <time>2019-07-07T12:40:23.000Z</time>
      </trkpt>
      <trkpt lat="40.98695590160787105560302734375" lon="-2.13914693333208560943603515625">
        <ele>1116.199951171875</ele>
        <time>2019-07-07T12:40:25.000Z</time>
      </trkpt>
      <trkpt lat="40.98725580610334873199462890625" lon="-2.139817737042903900146484375">
        <ele>1117.5999755859375</ele>
        <time>2019-07-07T12:40:27.000Z</time>
      </trkpt>
      <trkpt lat="40.98755470477044582366943359375" lon="-2.1404874511063098907470703125">
        <ele>1116.800048828125</ele>
        <time>2019-07-07T12:40:29.000Z</time>
      </trkpt>
      <trkpt lat="40.9877044893801212310791015625" lon="-2.1408193744719028472900390625">
        <ele>1115.800048828125</ele>
        <time>2019-07-07T12:40:30.000Z</time>
      </trkpt>
      <trkpt lat="40.9880169667303562164306640625" lon="-2.14147106744349002838134765625">
        <ele>1117.5999755859375</ele>
        <time>2019-07-07T12:40:32.000Z</time>
      </trkpt>
      <trkpt lat="40.98836355842649936676025390625" lon="-2.14208847843110561370849609375">
        <ele>1118.800048828125</ele>
        <time>2019-07-07T12:40:34.000Z</time>
      </trkpt>
      <trkpt lat="40.98874895833432674407958984375" lon="-2.1426625549793243408203125">
        <ele>1119.199951171875</ele>
        <time>2019-07-07T12:40:36.000Z</time>
      </trkpt>
      <trkpt lat="40.98916637711226940155029296875" lon="-2.14320226572453975677490234375">
        <ele>1118.5999755859375</ele>
        <time>2019-07-07T12:40:38.000Z</time>
      </trkpt>
      <trkpt lat="40.98938380368053913116455078125" lon="-2.143462188541889190673828125">
        <ele>1116.4000244140625</ele>
        <time>2019-07-07T12:40:39.000Z</time>
      </trkpt>
      <trkpt lat="40.98960273899137973785400390625" lon="-2.1437191776931285858154296875">
        <ele>1114.199951171875</ele>
        <time>2019-07-07T12:40:40.000Z</time>
      </trkpt>
      <trkpt lat="40.98982117138803005218505859375" lon="-2.1439746581017971038818359375">
        <ele>1112.4000244140625</ele>
        <time>2019-07-07T12:40:41.000Z</time>
      </trkpt>
      <trkpt lat="40.99025619216263294219970703125" lon="-2.144477069377899169921875">
        <ele>1111.199951171875</ele>
        <time>2019-07-07T12:40:43.000Z</time>
      </trkpt>
      <trkpt lat="40.9906891174614429473876953125" lon="-2.14497051201760768890380859375">
        <ele>1111.4000244140625</ele>
        <time>2019-07-07T12:40:45.000Z</time>
      </trkpt>
      <trkpt lat="40.99090444855391979217529296875" lon="-2.14521375484764575958251953125">
        <ele>1112.5999755859375</ele>
        <time>2019-07-07T12:40:46.000Z</time>
      </trkpt>
      <trkpt lat="40.99132622592151165008544921875" lon="-2.14569009840488433837890625">
        <ele>1115.4000244140625</ele>
        <time>2019-07-07T12:40:48.000Z</time>
      </trkpt>
      <trkpt lat="40.99152437411248683929443359375" lon="-2.14591205120086669921875">
        <ele>1117</ele>
        <time>2019-07-07T12:40:49.000Z</time>
      </trkpt>
      <trkpt lat="40.99188982509076595306396484375" lon="-2.14632184244692325592041015625">
        <ele>1118.800048828125</ele>
        <time>2019-07-07T12:40:51.000Z</time>
      </trkpt>
      <trkpt lat="40.992061905562877655029296875" lon="-2.146515883505344390869140625">
        <ele>1119.4000244140625</ele>
        <time>2019-07-07T12:40:52.000Z</time>
      </trkpt>
      <trkpt lat="40.99223096854984760284423828125" lon="-2.1467058174312114715576171875">
        <ele>1120.5999755859375</ele>
        <time>2019-07-07T12:40:53.000Z</time>
      </trkpt>
      <trkpt lat="40.99239684641361236572265625" lon="-2.14689466170966625213623046875">
        <ele>1122.199951171875</ele>
        <time>2019-07-07T12:40:54.000Z</time>
      </trkpt>
      <trkpt lat="40.9925599582493305206298828125" lon="-2.14708610437810420989990234375">
        <ele>1124</ele>
        <time>2019-07-07T12:40:55.000Z</time>
      </trkpt>
      <trkpt lat="40.99272080697119235992431640625" lon="-2.1472808159887790679931640625">
        <ele>1127</ele>
        <time>2019-07-07T12:40:56.000Z</time>
      </trkpt>
      <trkpt lat="40.9928784705698490142822265625" lon="-2.14748139493167400360107421875">
        <ele>1129.800048828125</ele>
        <time>2019-07-07T12:40:57.000Z</time>
      </trkpt>
      <trkpt lat="40.9930343739688396453857421875" lon="-2.14768826030194759368896484375">
        <ele>1132.800048828125</ele>
        <time>2019-07-07T12:40:58.000Z</time>
      </trkpt>
      <trkpt lat="40.99319078028202056884765625" lon="-2.14789881370961666107177734375">
        <ele>1134.5999755859375</ele>
        <time>2019-07-07T12:40:59.000Z</time>
      </trkpt>
      <trkpt lat="40.99349931813776493072509765625" lon="-2.14834271930158138275146484375">
        <ele>1135.5999755859375</ele>
        <time>2019-07-07T12:41:01.000Z</time>
      </trkpt>
      <trkpt lat="40.99365404807031154632568359375" lon="-2.14857489801943302154541015625">
        <ele>1134.5999755859375</ele>
        <time>2019-07-07T12:41:02.000Z</time>
      </trkpt>
      <trkpt lat="40.99380961619317531585693359375" lon="-2.1488157100975513458251953125">
        <ele>1132.800048828125</ele>
        <time>2019-07-07T12:41:03.000Z</time>
      </trkpt>
      <trkpt lat="40.99411639384925365447998046875" lon="-2.14932675473392009735107421875">
        <ele>1130</ele>
        <time>2019-07-07T12:41:05.000Z</time>
      </trkpt>
      <trkpt lat="40.99441076628863811492919921875" lon="-2.149867974221706390380859375">
        <ele>1130.800048828125</ele>
        <time>2019-07-07T12:41:07.000Z</time>
      </trkpt>
      <trkpt lat="40.99455560557544231414794921875" lon="-2.15014868415892124176025390625">
        <ele>1134.800048828125</ele>
        <time>2019-07-07T12:41:08.000Z</time>
      </trkpt>
      <trkpt lat="40.9946970082819461822509765625" lon="-2.15043266303837299346923828125">
        <ele>1139.4000244140625</ele>
        <time>2019-07-07T12:41:09.000Z</time>
      </trkpt>
      <trkpt lat="40.99483422003686428070068359375" lon="-2.1507194079458713531494140625">
        <ele>1141.800048828125</ele>
        <time>2019-07-07T12:41:10.000Z</time>
      </trkpt>
      <trkpt lat="40.99509648978710174560546875" lon="-2.15128979645669460296630859375">
        <ele>1142.4000244140625</ele>
        <time>2019-07-07T12:41:12.000Z</time>
      </trkpt>
      <trkpt lat="40.9952183626592159271240234375" lon="-2.15155600570142269134521484375">
        <ele>1139.199951171875</ele>
        <time>2019-07-07T12:41:13.000Z</time>
      </trkpt>
      <trkpt lat="40.9953300096094608306884765625" lon="-2.15179773978888988494873046875">
        <ele>1135.199951171875</ele>
        <time>2019-07-07T12:41:14.000Z</time>
      </trkpt>
      <trkpt lat="40.99543511867523193359375" lon="-2.1520155854523181915283203125">
        <ele>1131.199951171875</ele>
        <time>2019-07-07T12:41:15.000Z</time>
      </trkpt>
      <trkpt lat="40.99553612060844898223876953125" lon="-2.15221549384295940399169921875">
        <ele>1129</ele>
        <time>2019-07-07T12:41:16.000Z</time>
      </trkpt>
      <trkpt lat="40.99563502706587314605712890625" lon="-2.1523961238563060760498046875">
        <ele>1130.199951171875</ele>
        <time>2019-07-07T12:41:17.000Z</time>
      </trkpt>
      <trkpt lat="40.9958382882177829742431640625" lon="-2.15270885266363620758056640625">
        <ele>1134.5999755859375</ele>
        <time>2019-07-07T12:41:19.000Z</time>
      </trkpt>
      <trkpt lat="40.9959472529590129852294921875" lon="-2.15284489095211029052734375">
        <ele>1139.199951171875</ele>
        <time>2019-07-07T12:41:20.000Z</time>
      </trkpt>
      <trkpt lat="40.996063761413097381591796875" lon="-2.15297305025160312652587890625">
        <ele>1141.800048828125</ele>
        <time>2019-07-07T12:41:21.000Z</time>
      </trkpt>
      <trkpt lat="40.9961913339793682098388671875" lon="-2.153094001114368438720703125">
        <ele>1143</ele>
        <time>2019-07-07T12:41:22.000Z</time>
      </trkpt>
      <trkpt lat="40.99633139558136463165283203125" lon="-2.153206653892993927001953125">
        <ele>1144.199951171875</ele>
        <time>2019-07-07T12:41:23.000Z</time>
      </trkpt>
      <trkpt lat="40.996824838221073150634765625" lon="-2.15349733829498291015625">
        <ele>1145.4000244140625</ele>
        <time>2019-07-07T12:41:26.000Z</time>
      </trkpt>
      <trkpt lat="40.9974080510437488555908203125" lon="-2.1537798084318637847900390625">
        <ele>1145.4000244140625</ele>
        <time>2019-07-07T12:41:29.000Z</time>
      </trkpt>
      <trkpt lat="40.9978338517248630523681640625" lon="-2.15398759581148624420166015625">
        <ele>1145</ele>
        <time>2019-07-07T12:41:31.000Z</time>
      </trkpt>
      <trkpt lat="40.99805253557860851287841796875" lon="-2.15409806929528713226318359375">
        <ele>1144.199951171875</ele>
        <time>2019-07-07T12:41:32.000Z</time>
      </trkpt>
      <trkpt lat="40.99849753081798553466796875" lon="-2.15432136319577693939208984375">
        <ele>1144</ele>
        <time>2019-07-07T12:41:34.000Z</time>
      </trkpt>
      <trkpt lat="40.99894755519926548004150390625" lon="-2.15456225909292697906494140625">
        <ele>1145</ele>
        <time>2019-07-07T12:41:36.000Z</time>
      </trkpt>
      <trkpt lat="40.9993861801922321319580078125" lon="-2.15486249886453151702880859375">
        <ele>1146.800048828125</ele>
        <time>2019-07-07T12:41:38.000Z</time>
      </trkpt>
      <trkpt lat="40.99959396757185459136962890625" lon="-2.15503625571727752685546875">
        <ele>1149.4000244140625</ele>
        <time>2019-07-07T12:41:39.000Z</time>
      </trkpt>
      <trkpt lat="40.999799072742462158203125" lon="-2.15521772392094135284423828125">
        <ele>1153</ele>
        <time>2019-07-07T12:41:40.000Z</time>
      </trkpt>
      <trkpt lat="41.00000451318919658660888671875" lon="-2.15539961121976375579833984375">
        <ele>1155.199951171875</ele>
        <time>2019-07-07T12:41:41.000Z</time>
      </trkpt>
      <trkpt lat="41.00020878016948699951171875" lon="-2.15558476746082305908203125">
        <ele>1157.5999755859375</ele>
        <time>2019-07-07T12:41:42.000Z</time>
      </trkpt>
      <trkpt lat="41.0004121251404285430908203125" lon="-2.15577193535864353179931640625">
        <ele>1159.4000244140625</ele>
        <time>2019-07-07T12:41:43.000Z</time>
      </trkpt>
      <trkpt lat="41.0006183199584484100341796875" lon="-2.15595667250454425811767578125">
        <ele>1160.800048828125</ele>
        <time>2019-07-07T12:41:44.000Z</time>
      </trkpt>
      <trkpt lat="41.00083373486995697021484375" lon="-2.1561354584991931915283203125">
        <ele>1161.800048828125</ele>
        <time>2019-07-07T12:41:45.000Z</time>
      </trkpt>
      <trkpt lat="41.001306474208831787109375" lon="-2.1564670465886592864990234375">
        <ele>1163.800048828125</ele>
        <time>2019-07-07T12:41:47.000Z</time>
      </trkpt>
      <trkpt lat="41.00156354717910289764404296875" lon="-2.1566135622560977935791015625">
        <ele>1165.199951171875</ele>
        <time>2019-07-07T12:41:48.000Z</time>
      </trkpt>
      <trkpt lat="41.00210702978074550628662109375" lon="-2.15687080286443233489990234375">
        <ele>1166.800048828125</ele>
        <time>2019-07-07T12:41:50.000Z</time>
      </trkpt>
      <trkpt lat="41.0026618279516696929931640625" lon="-2.1571047417819499969482421875">
        <ele>1168.5999755859375</ele>
        <time>2019-07-07T12:41:52.000Z</time>
      </trkpt>
      <trkpt lat="41.003217212855815887451171875" lon="-2.15733784250915050506591796875">
        <ele>1167.4000244140625</ele>
        <time>2019-07-07T12:41:54.000Z</time>
      </trkpt>
      <trkpt lat="41.00376295857131481170654296875" lon="-2.15756733901798725128173828125">
        <ele>1166.199951171875</ele>
        <time>2019-07-07T12:41:56.000Z</time>
      </trkpt>
      <trkpt lat="41.0042738355696201324462890625" lon="-2.15778660960495471954345703125">
        <ele>1166.199951171875</ele>
        <time>2019-07-07T12:41:58.000Z</time>
      </trkpt>
      <trkpt lat="41.00475118495523929595947265625" lon="-2.15801510028541088104248046875">
        <ele>1169</ele>
        <time>2019-07-07T12:42:00.000Z</time>
      </trkpt>
      <trkpt lat="41.00497347302734851837158203125" lon="-2.1581544913351535797119140625">
        <ele>1172.199951171875</ele>
        <time>2019-07-07T12:42:01.000Z</time>
      </trkpt>
      <trkpt lat="41.00518184714019298553466796875" lon="-2.15831793844699859619140625">
        <ele>1175.800048828125</ele>
        <time>2019-07-07T12:42:02.000Z</time>
      </trkpt>
      <trkpt lat="41.00537471473217010498046875" lon="-2.1585085429251194000244140625">
        <ele>1179.199951171875</ele>
        <time>2019-07-07T12:42:03.000Z</time>
      </trkpt>
      <trkpt lat="41.00555199198424816131591796875" lon="-2.1587271429598331451416015625">
        <ele>1182.5999755859375</ele>
        <time>2019-07-07T12:42:04.000Z</time>
      </trkpt>
      <trkpt lat="41.00571359507739543914794921875" lon="-2.158972732722759246826171875">
        <ele>1185.4000244140625</ele>
        <time>2019-07-07T12:42:05.000Z</time>
      </trkpt>
      <trkpt lat="41.0058583505451679229736328125" lon="-2.15924388729035854339599609375">
        <ele>1187</ele>
        <time>2019-07-07T12:42:06.000Z</time>
      </trkpt>
      <trkpt lat="41.00598365999758243560791015625" lon="-2.15954010374844074249267578125">
        <ele>1189</ele>
        <time>2019-07-07T12:42:07.000Z</time>
      </trkpt>
      <trkpt lat="41.00609329529106616973876953125" lon="-2.1598555147647857666015625">
        <ele>1191</ele>
        <time>2019-07-07T12:42:08.000Z</time>
      </trkpt>
      <trkpt lat="41.00619555450975894927978515625" lon="-2.160181067883968353271484375">
        <ele>1193.4000244140625</ele>
        <time>2019-07-07T12:42:09.000Z</time>
      </trkpt>
      <trkpt lat="41.00629814900457859039306640625" lon="-2.16051357798278331756591796875">
        <ele>1195.4000244140625</ele>
        <time>2019-07-07T12:42:10.000Z</time>
      </trkpt>
      <trkpt lat="41.00640309043228626251220703125" lon="-2.16085086576640605926513671875">
        <ele>1197.199951171875</ele>
        <time>2019-07-07T12:42:11.000Z</time>
      </trkpt>
      <trkpt lat="41.00661984644830226898193359375" lon="-2.16153700836002826690673828125">
        <ele>1198.5999755859375</ele>
        <time>2019-07-07T12:42:13.000Z</time>
      </trkpt>
      <trkpt lat="41.0068407095968723297119140625" lon="-2.16223320923745632171630859375">
        <ele>1199.800048828125</ele>
        <time>2019-07-07T12:42:15.000Z</time>
      </trkpt>
      <trkpt lat="41.00694975815713405609130859375" lon="-2.16258105821907520294189453125">
        <ele>1201.199951171875</ele>
        <time>2019-07-07T12:42:16.000Z</time>
      </trkpt>
      <trkpt lat="41.00705352611839771270751953125" lon="-2.16293008066713809967041015625">
        <ele>1203</ele>
        <time>2019-07-07T12:42:17.000Z</time>
      </trkpt>
      <trkpt lat="41.00714287720620632171630859375" lon="-2.1632806956768035888671875">
        <ele>1205.800048828125</ele>
        <time>2019-07-07T12:42:18.000Z</time>
      </trkpt>
      <trkpt lat="41.0072054900228977203369140625" lon="-2.1636372618377208709716796875">
        <ele>1207.199951171875</ele>
        <time>2019-07-07T12:42:19.000Z</time>
      </trkpt>
      <trkpt lat="41.00723491050302982330322265625" lon="-2.16399726457893848419189453125">
        <ele>1209.199951171875</ele>
        <time>2019-07-07T12:42:20.000Z</time>
      </trkpt>
      <trkpt lat="41.00723474286496639251708984375" lon="-2.1643517352640628814697265625">
        <ele>1212.4000244140625</ele>
        <time>2019-07-07T12:42:21.000Z</time>
      </trkpt>
      <trkpt lat="41.00722250528633594512939453125" lon="-2.16469665057957172393798828125">
        <ele>1214.800048828125</ele>
        <time>2019-07-07T12:42:22.000Z</time>
      </trkpt>
      <trkpt lat="41.0072135366499423980712890625" lon="-2.165031172335147857666015625">
        <ele>1217.199951171875</ele>
        <time>2019-07-07T12:42:23.000Z</time>
      </trkpt>
      <trkpt lat="41.007221080362796783447265625" lon="-2.16534507460892200469970703125">
        <ele>1218.5999755859375</ele>
        <time>2019-07-07T12:42:24.000Z</time>
      </trkpt>
      <trkpt lat="41.00725494325160980224609375" lon="-2.16563642956316471099853515625">
        <ele>1220.199951171875</ele>
        <time>2019-07-07T12:42:25.000Z</time>
      </trkpt>
      <trkpt lat="41.00731537677347660064697265625" lon="-2.1659121103584766387939453125">
        <ele>1221.5999755859375</ele>
        <time>2019-07-07T12:42:26.000Z</time>
      </trkpt>
      <trkpt lat="41.00751704536378383636474609375" lon="-2.16641996987164020538330078125">
        <ele>1222.5999755859375</ele>
        <time>2019-07-07T12:42:28.000Z</time>
      </trkpt>
      <trkpt lat="41.00765903480350971221923828125" lon="-2.166640497744083404541015625">
        <ele>1224</ele>
        <time>2019-07-07T12:42:29.000Z</time>
      </trkpt>
      <trkpt lat="41.0078301094472408294677734375" lon="-2.16683487407863140106201171875">
        <ele>1225.4000244140625</ele>
        <time>2019-07-07T12:42:30.000Z</time>
      </trkpt>
      <trkpt lat="41.00802700035274028778076171875" lon="-2.16700368560850620269775390625">
        <ele>1227.5999755859375</ele>
        <time>2019-07-07T12:42:31.000Z</time>
      </trkpt>
      <trkpt lat="41.0082428343594074249267578125" lon="-2.1671511232852935791015625">
        <ele>1228.800048828125</ele>
        <time>2019-07-07T12:42:32.000Z</time>
      </trkpt>
      <trkpt lat="41.00871046073734760284423828125" lon="-2.16740702278912067413330078125">
        <ele>1227.4000244140625</ele>
        <time>2019-07-07T12:42:34.000Z</time>
      </trkpt>
      <trkpt lat="41.00918856449425220489501953125" lon="-2.16765529476106166839599609375">
        <ele>1225.4000244140625</ele>
        <time>2019-07-07T12:42:36.000Z</time>
      </trkpt>
      <trkpt lat="41.009425185620784759521484375" lon="-2.167782448232173919677734375">
        <ele>1222.5999755859375</ele>
        <time>2019-07-07T12:42:37.000Z</time>
      </trkpt>
      <trkpt lat="41.0096523351967334747314453125" lon="-2.16791697777807712554931640625">
        <ele>1220.4000244140625</ele>
        <time>2019-07-07T12:42:38.000Z</time>
      </trkpt>
      <trkpt lat="41.009866409003734588623046875" lon="-2.16806684620678424835205078125">
        <ele>1219.199951171875</ele>
        <time>2019-07-07T12:42:39.000Z</time>
      </trkpt>
      <trkpt lat="41.01006397046148777008056640625" lon="-2.16824286617338657379150390625">
        <ele>1217.5999755859375</ele>
        <time>2019-07-07T12:42:40.000Z</time>
      </trkpt>
      <trkpt lat="41.01024501956999301910400390625" lon="-2.16844822280108928680419921875">
        <ele>1215.800048828125</ele>
        <time>2019-07-07T12:42:41.000Z</time>
      </trkpt>
      <trkpt lat="41.01041181944310665130615234375" lon="-2.1686798147857189178466796875">
        <ele>1214.800048828125</ele>
        <time>2019-07-07T12:42:42.000Z</time>
      </trkpt>
      <trkpt lat="41.01057107560336589813232421875" lon="-2.16892716474831104278564453125">
        <ele>1212.5999755859375</ele>
        <time>2019-07-07T12:42:43.000Z</time>
      </trkpt>
      <trkpt lat="41.010882295668125152587890625" lon="-2.1694462560117244720458984375">
        <ele>1211.199951171875</ele>
        <time>2019-07-07T12:42:45.000Z</time>
      </trkpt>
      <trkpt lat="41.01119837723672389984130859375" lon="-2.16997574083507061004638671875">
        <ele>1211</ele>
        <time>2019-07-07T12:42:47.000Z</time>
      </trkpt>
      <trkpt lat="41.01151923649013042449951171875" lon="-2.170506902039051055908203125">
        <ele>1211.800048828125</ele>
        <time>2019-07-07T12:42:49.000Z</time>
      </trkpt>
      <trkpt lat="41.01167857646942138671875" lon="-2.17077520675957202911376953125">
        <ele>1213.5999755859375</ele>
        <time>2019-07-07T12:42:50.000Z</time>
      </trkpt>
      <trkpt lat="41.0118390060961246490478515625" lon="-2.17104770243167877197265625">
        <ele>1215.4000244140625</ele>
        <time>2019-07-07T12:42:51.000Z</time>
      </trkpt>
      <trkpt lat="41.01217838935554027557373046875" lon="-2.17162513174116611480712890625">
        <ele>1214.800048828125</ele>
        <time>2019-07-07T12:42:53.000Z</time>
      </trkpt>
      <trkpt lat="41.01235658861696720123291015625" lon="-2.17193392105400562286376953125">
        <ele>1213.5999755859375</ele>
        <time>2019-07-07T12:42:54.000Z</time>
      </trkpt>
      <trkpt lat="41.0127261467278003692626953125" lon="-2.1725820936262607574462890625">
        <ele>1213.4000244140625</ele>
        <time>2019-07-07T12:42:56.000Z</time>
      </trkpt>
      <trkpt lat="41.01291532628238201141357421875" lon="-2.1729190461337566375732421875">
        <ele>1209.5999755859375</ele>
        <time>2019-07-07T12:42:57.000Z</time>
      </trkpt>
      <trkpt lat="41.01311179809272289276123046875" lon="-2.17325457371771335601806640625">
        <ele>1202.5999755859375</ele>
        <time>2019-07-07T12:42:58.000Z</time>
      </trkpt>
      <trkpt lat="41.01331547833979129791259765625" lon="-2.1735835634171962738037109375">
        <ele>1196</ele>
        <time>2019-07-07T12:42:59.000Z</time>
      </trkpt>
      <trkpt lat="41.01352200843393802642822265625" lon="-2.173907272517681121826171875">
        <ele>1192.5999755859375</ele>
        <time>2019-07-07T12:43:00.000Z</time>
      </trkpt>
      <trkpt lat="41.01372937671840190887451171875" lon="-2.17422503046691417694091796875">
        <ele>1190.800048828125</ele>
        <time>2019-07-07T12:43:01.000Z</time>
      </trkpt>
      <trkpt lat="41.01394026540219783782958984375" lon="-2.17453482560813426971435546875">
        <ele>1189</ele>
        <time>2019-07-07T12:43:02.000Z</time>
      </trkpt>
      <trkpt lat="41.0143689997494220733642578125" lon="-2.17513270676136016845703125">
        <ele>1189.5999755859375</ele>
        <time>2019-07-07T12:43:04.000Z</time>
      </trkpt>
      <trkpt lat="41.01458349265158176422119140625" lon="-2.17542506754398345947265625">
        <ele>1192</ele>
        <time>2019-07-07T12:43:05.000Z</time>
      </trkpt>
      <trkpt lat="41.014795638620853424072265625" lon="-2.17571650631725788116455078125">
        <ele>1193.4000244140625</ele>
        <time>2019-07-07T12:43:06.000Z</time>
      </trkpt>
      <trkpt lat="41.01500392891466617584228515625" lon="-2.17600920237600803375244140625">
        <ele>1192.199951171875</ele>
        <time>2019-07-07T12:43:07.000Z</time>
      </trkpt>
      <trkpt lat="41.01539921946823596954345703125" lon="-2.17660926282405853271484375">
        <ele>1193</ele>
        <time>2019-07-07T12:43:09.000Z</time>
      </trkpt>
      <trkpt lat="41.01576031185686588287353515625" lon="-2.17721234075725078582763671875">
        <ele>1190.5999755859375</ele>
        <time>2019-07-07T12:43:11.000Z</time>
      </trkpt>
      <trkpt lat="41.01608787663280963897705078125" lon="-2.17777862213551998138427734375">
        <ele>1189</ele>
        <time>2019-07-07T12:43:13.000Z</time>
      </trkpt>
      <trkpt lat="41.0162502340972423553466796875" lon="-2.178038544952869415283203125">
        <ele>1187.199951171875</ele>
        <time>2019-07-07T12:43:14.000Z</time>
      </trkpt>
      <trkpt lat="41.01642415858805179595947265625" lon="-2.17827281914651393890380859375">
        <ele>1185.5999755859375</ele>
        <time>2019-07-07T12:43:15.000Z</time>
      </trkpt>
      <trkpt lat="41.016831435263156890869140625" lon="-2.17864505946636199951171875">
        <ele>1183.5999755859375</ele>
        <time>2019-07-07T12:43:17.000Z</time>
      </trkpt>
      <trkpt lat="41.0173030011355876922607421875" lon="-2.178911268711090087890625">
        <ele>1183.199951171875</ele>
        <time>2019-07-07T12:43:19.000Z</time>
      </trkpt>
      <trkpt lat="41.0178075917065143585205078125" lon="-2.17915945686399936676025390625">
        <ele>1185.800048828125</ele>
        <time>2019-07-07T12:43:21.000Z</time>
      </trkpt>
      <trkpt lat="41.0183219052851200103759765625" lon="-2.17941946350038051605224609375">
        <ele>1185.5999755859375</ele>
        <time>2019-07-07T12:43:23.000Z</time>
      </trkpt>
      <trkpt lat="41.018576212227344512939453125" lon="-2.1795618720352649688720703125">
        <ele>1187.5999755859375</ele>
        <time>2019-07-07T12:43:24.000Z</time>
      </trkpt>
      <trkpt lat="41.019054986536502838134765625" lon="-2.17991969548165798187255859375">
        <ele>1188.4000244140625</ele>
        <time>2019-07-07T12:43:26.000Z</time>
      </trkpt>
      <trkpt lat="41.01947517134249210357666015625" lon="-2.1803990565240383148193359375">
        <ele>1186.4000244140625</ele>
        <time>2019-07-07T12:43:28.000Z</time>
      </trkpt>
      <trkpt lat="41.0198772512376308441162109375" lon="-2.18092736788094043731689453125">
        <ele>1184.199951171875</ele>
        <time>2019-07-07T12:43:30.000Z</time>
      </trkpt>
      <trkpt lat="41.0200804285705089569091796875" lon="-2.181194834411144256591796875">
        <ele>1183</ele>
        <time>2019-07-07T12:43:31.000Z</time>
      </trkpt>
      <trkpt lat="41.0202859528362751007080078125" lon="-2.18146163038909435272216796875">
        <ele>1181.199951171875</ele>
        <time>2019-07-07T12:43:32.000Z</time>
      </trkpt>
      <trkpt lat="41.02049323730170726776123046875" lon="-2.1817264147102832794189453125">
        <ele>1178.4000244140625</ele>
        <time>2019-07-07T12:43:33.000Z</time>
      </trkpt>
      <trkpt lat="41.02070060558617115020751953125" lon="-2.181990109384059906005859375">
        <ele>1175.4000244140625</ele>
        <time>2019-07-07T12:43:34.000Z</time>
      </trkpt>
      <trkpt lat="41.020905710756778717041015625" lon="-2.1822519600391387939453125">
        <ele>1173</ele>
        <time>2019-07-07T12:43:35.000Z</time>
      </trkpt>
      <trkpt lat="41.0211060382425785064697265625" lon="-2.1825106255710124969482421875">
        <ele>1171.800048828125</ele>
        <time>2019-07-07T12:43:36.000Z</time>
      </trkpt>
      <trkpt lat="41.021477691829204559326171875" lon="-2.183039523661136627197265625">
        <ele>1170.5999755859375</ele>
        <time>2019-07-07T12:43:38.000Z</time>
      </trkpt>
      <trkpt lat="41.02163694798946380615234375" lon="-2.18332677148282527923583984375">
        <ele>1170.800048828125</ele>
        <time>2019-07-07T12:43:39.000Z</time>
      </trkpt>
      <trkpt lat="41.02187960408627986907958984375" lon="-2.18395826406776905059814453125">
        <ele>1171.5999755859375</ele>
        <time>2019-07-07T12:43:41.000Z</time>
      </trkpt>
      <trkpt lat="41.021960489451885223388671875" lon="-2.1842976473271846771240234375">
        <ele>1172.4000244140625</ele>
        <time>2019-07-07T12:43:42.000Z</time>
      </trkpt>
      <trkpt lat="41.02205813862383365631103515625" lon="-2.18499527312815189361572265625">
        <ele>1173</ele>
        <time>2019-07-07T12:43:44.000Z</time>
      </trkpt>
      <trkpt lat="41.02209920994937419891357421875" lon="-2.18533926643431186676025390625">
        <ele>1175</ele>
        <time>2019-07-07T12:43:45.000Z</time>
      </trkpt>
      <trkpt lat="41.02215335704386234283447265625" lon="-2.18567471019923686981201171875">
        <ele>1177.4000244140625</ele>
        <time>2019-07-07T12:43:46.000Z</time>
      </trkpt>
      <trkpt lat="41.0222245194017887115478515625" lon="-2.18599489890038967132568359375">
        <ele>1179.199951171875</ele>
        <time>2019-07-07T12:43:47.000Z</time>
      </trkpt>
      <trkpt lat="41.0223157145082950592041015625" lon="-2.186296395957469940185546875">
        <ele>1180.5999755859375</ele>
        <time>2019-07-07T12:43:48.000Z</time>
      </trkpt>
      <trkpt lat="41.02242811582982540130615234375" lon="-2.18657844699919223785400390625">
        <ele>1182</ele>
        <time>2019-07-07T12:43:49.000Z</time>
      </trkpt>
      <trkpt lat="41.022565327584743499755859375" lon="-2.1868380345404148101806640625">
        <ele>1182.5999755859375</ele>
        <time>2019-07-07T12:43:50.000Z</time>
      </trkpt>
      <trkpt lat="41.02272751741111278533935546875" lon="-2.18707566149532794952392578125">
        <ele>1183.4000244140625</ele>
        <time>2019-07-07T12:43:51.000Z</time>
      </trkpt>
      <trkpt lat="41.0229121707379817962646484375" lon="-2.1872913278639316558837890625">
        <ele>1184.800048828125</ele>
        <time>2019-07-07T12:43:52.000Z</time>
      </trkpt>
      <trkpt lat="41.02333855815231800079345703125" lon="-2.187643535435199737548828125">
        <ele>1186.199951171875</ele>
        <time>2019-07-07T12:43:54.000Z</time>
      </trkpt>
      <trkpt lat="41.0238187573850154876708984375" lon="-2.1878604590892791748046875">
        <ele>1186</ele>
        <time>2019-07-07T12:43:56.000Z</time>
      </trkpt>
      <trkpt lat="41.02432259358465671539306640625" lon="-2.1879229880869388580322265625">
        <ele>1187.199951171875</ele>
        <time>2019-07-07T12:43:58.000Z</time>
      </trkpt>
      <trkpt lat="41.02482802234590053558349609375" lon="-2.18782399781048297882080078125">
        <ele>1188.800048828125</ele>
        <time>2019-07-07T12:44:00.000Z</time>
      </trkpt>
      <trkpt lat="41.02507897652685642242431640625" lon="-2.18771754764020442962646484375">
        <ele>1190.800048828125</ele>
        <time>2019-07-07T12:44:01.000Z</time>
      </trkpt>
      <trkpt lat="41.02532473392784595489501953125" lon="-2.1875774860382080078125">
        <ele>1193</ele>
        <time>2019-07-07T12:44:02.000Z</time>
      </trkpt>
      <trkpt lat="41.02556512691080570220947265625" lon="-2.18740289099514484405517578125">
        <ele>1194</ele>
        <time>2019-07-07T12:44:03.000Z</time>
      </trkpt>
      <trkpt lat="41.02604423649609088897705078125" lon="-2.18700994737446308135986328125">
        <ele>1195.4000244140625</ele>
        <time>2019-07-07T12:44:05.000Z</time>
      </trkpt>
      <trkpt lat="41.0265435464680194854736328125" lon="-2.18664919026196002960205078125">
        <ele>1194.4000244140625</ele>
        <time>2019-07-07T12:44:07.000Z</time>
      </trkpt>
      <trkpt lat="41.02680447511374950408935546875" lon="-2.18650569207966327667236328125">
        <ele>1194</ele>
        <time>2019-07-07T12:44:08.000Z</time>
      </trkpt>
      <trkpt lat="41.02735265158116817474365234375" lon="-2.18631575815379619598388671875">
        <ele>1195</ele>
        <time>2019-07-07T12:44:10.000Z</time>
      </trkpt>
      <trkpt lat="41.0279201902449131011962890625" lon="-2.18620947562158107757568359375">
        <ele>1192</ele>
        <time>2019-07-07T12:44:12.000Z</time>
      </trkpt>
      <trkpt lat="41.02820626460015773773193359375" lon="-2.18616731464862823486328125">
        <ele>1189.5999755859375</ele>
        <time>2019-07-07T12:44:13.000Z</time>
      </trkpt>
      <trkpt lat="41.02849409915506839752197265625" lon="-2.1861384809017181396484375">
        <ele>1187.5999755859375</ele>
        <time>2019-07-07T12:44:14.000Z</time>
      </trkpt>
      <trkpt lat="41.02878025732934474945068359375" lon="-2.18613655306398868560791015625">
        <ele>1184.199951171875</ele>
        <time>2019-07-07T12:44:15.000Z</time>
      </trkpt>
      <trkpt lat="41.029061637818813323974609375" lon="-2.1861715056002140045166015625">
        <ele>1182.4000244140625</ele>
        <time>2019-07-07T12:44:16.000Z</time>
      </trkpt>
      <trkpt lat="41.029335893690586090087890625" lon="-2.18624769710004329681396484375">
        <ele>1181</ele>
        <time>2019-07-07T12:44:17.000Z</time>
      </trkpt>
      <trkpt lat="41.029851548373699188232421875" lon="-2.18652329407632350921630859375">
        <ele>1180.5999755859375</ele>
        <time>2019-07-07T12:44:19.000Z</time>
      </trkpt>
      <trkpt lat="41.03031733073294162750244140625" lon="-2.18694171868264675140380859375">
        <ele>1181.4000244140625</ele>
        <time>2019-07-07T12:44:21.000Z</time>
      </trkpt>
      <trkpt lat="41.03054146282374858856201171875" lon="-2.1871873922646045684814453125">
        <ele>1183.5999755859375</ele>
        <time>2019-07-07T12:44:22.000Z</time>
      </trkpt>
      <trkpt lat="41.03099307976663112640380859375" lon="-2.18770556151866912841796875">
        <ele>1185</ele>
        <time>2019-07-07T12:44:24.000Z</time>
      </trkpt>
      <trkpt lat="41.0314476303756237030029296875" lon="-2.188228257000446319580078125">
        <ele>1183.800048828125</ele>
        <time>2019-07-07T12:44:26.000Z</time>
      </trkpt>
      <trkpt lat="41.03189597837626934051513671875" lon="-2.18874785117805004119873046875">
        <ele>1184</ele>
        <time>2019-07-07T12:44:28.000Z</time>
      </trkpt>
      <trkpt lat="41.03233703412115573883056640625" lon="-2.18927222304046154022216796875">
        <ele>1183.800048828125</ele>
        <time>2019-07-07T12:44:30.000Z</time>
      </trkpt>
      <trkpt lat="41.0325590707361698150634765625" lon="-2.1895313076674938201904296875">
        <ele>1185.199951171875</ele>
        <time>2019-07-07T12:44:31.000Z</time>
      </trkpt>
      <trkpt lat="41.03278261609375476837158203125" lon="-2.189786620438098907470703125">
        <ele>1187.5999755859375</ele>
        <time>2019-07-07T12:44:32.000Z</time>
      </trkpt>
      <trkpt lat="41.0330059938132762908935546875" lon="-2.1900409273803234100341796875">
        <ele>1189</ele>
        <time>2019-07-07T12:44:33.000Z</time>
      </trkpt>
      <trkpt lat="41.0334505699574947357177734375" lon="-2.1905492059886455535888671875">
        <ele>1192.199951171875</ele>
        <time>2019-07-07T12:44:35.000Z</time>
      </trkpt>
      <trkpt lat="41.0336705110967159271240234375" lon="-2.1908070333302021026611328125">
        <ele>1193.800048828125</ele>
        <time>2019-07-07T12:44:36.000Z</time>
      </trkpt>
      <trkpt lat="41.03411148302257061004638671875" lon="-2.19131891615688800811767578125">
        <ele>1191.5999755859375</ele>
        <time>2019-07-07T12:44:38.000Z</time>
      </trkpt>
      <trkpt lat="41.03433209471404552459716796875" lon="-2.19157204963266849517822265625">
        <ele>1190</ele>
        <time>2019-07-07T12:44:39.000Z</time>
      </trkpt>
      <trkpt lat="41.03477633558213710784912109375" lon="-2.192075550556182861328125">
        <ele>1187.800048828125</ele>
        <time>2019-07-07T12:44:41.000Z</time>
      </trkpt>
      <trkpt lat="41.03499912656843662261962890625" lon="-2.19232876785099506378173828125">
        <ele>1185.800048828125</ele>
        <time>2019-07-07T12:44:42.000Z</time>
      </trkpt>
      <trkpt lat="41.03522275574505329132080078125" lon="-2.19258206896483898162841796875">
        <ele>1184</ele>
        <time>2019-07-07T12:44:43.000Z</time>
      </trkpt>
      <trkpt lat="41.03567101992666721343994140625" lon="-2.19309101812541484832763671875">
        <ele>1185.5999755859375</ele>
        <time>2019-07-07T12:44:45.000Z</time>
      </trkpt>
      <trkpt lat="41.036116182804107666015625" lon="-2.1935995481908321380615234375">
        <ele>1187.199951171875</ele>
        <time>2019-07-07T12:44:47.000Z</time>
      </trkpt>
      <trkpt lat="41.03655715472996234893798828125" lon="-2.1941041387617588043212890625">
        <ele>1189</ele>
        <time>2019-07-07T12:44:49.000Z</time>
      </trkpt>
      <trkpt lat="41.0367758385837078094482421875" lon="-2.19435450620949268341064453125">
        <ele>1190.800048828125</ele>
        <time>2019-07-07T12:44:50.000Z</time>
      </trkpt>
      <trkpt lat="41.036993600428104400634765625" lon="-2.1946048736572265625">
        <ele>1192.5999755859375</ele>
        <time>2019-07-07T12:44:51.000Z</time>
      </trkpt>
      <trkpt lat="41.03743239305913448333740234375" lon="-2.19510535709559917449951171875">
        <ele>1194.4000244140625</ele>
        <time>2019-07-07T12:44:53.000Z</time>
      </trkpt>
      <trkpt lat="41.03789515793323516845703125" lon="-2.1955798566341400146484375">
        <ele>1196</ele>
        <time>2019-07-07T12:44:55.000Z</time>
      </trkpt>
      <trkpt lat="41.0383818112313747406005859375" lon="-2.19602669589221477508544921875">
        <ele>1196.4000244140625</ele>
        <time>2019-07-07T12:44:57.000Z</time>
      </trkpt>
      <trkpt lat="41.038872487843036651611328125" lon="-2.19645358622074127197265625">
        <ele>1194.800048828125</ele>
        <time>2019-07-07T12:44:59.000Z</time>
      </trkpt>
      <trkpt lat="41.0391083545982837677001953125" lon="-2.19665877521038055419921875">
        <ele>1192</ele>
        <time>2019-07-07T12:45:00.000Z</time>
      </trkpt>
      <trkpt lat="41.0393370129168033599853515625" lon="-2.19685818068683147430419921875">
        <ele>1187.5999755859375</ele>
        <time>2019-07-07T12:45:01.000Z</time>
      </trkpt>
      <trkpt lat="41.03956080973148345947265625" lon="-2.19705230556428432464599609375">
        <ele>1185.5999755859375</ele>
        <time>2019-07-07T12:45:02.000Z</time>
      </trkpt>
      <trkpt lat="41.03978167288005352020263671875" lon="-2.19724483788013458251953125">
        <ele>1184.4000244140625</ele>
        <time>2019-07-07T12:45:03.000Z</time>
      </trkpt>
      <trkpt lat="41.04022205807268619537353515625" lon="-2.1976278908550739288330078125">
        <ele>1183.800048828125</ele>
        <time>2019-07-07T12:45:05.000Z</time>
      </trkpt>
      <trkpt lat="41.0406573303043842315673828125" lon="-2.19800801016390323638916015625">
        <ele>1185.199951171875</ele>
        <time>2019-07-07T12:45:07.000Z</time>
      </trkpt>
      <trkpt lat="41.04107785038650035858154296875" lon="-2.19837362878024578094482421875">
        <ele>1183.800048828125</ele>
        <time>2019-07-07T12:45:09.000Z</time>
      </trkpt>
      <trkpt lat="41.0412759147584438323974609375" lon="-2.19854478724300861358642578125">
        <ele>1181</ele>
        <time>2019-07-07T12:45:10.000Z</time>
      </trkpt>
      <trkpt lat="41.04146517813205718994140625" lon="-2.1987098269164562225341796875">
        <ele>1179.800048828125</ele>
        <time>2019-07-07T12:45:11.000Z</time>
      </trkpt>
      <trkpt lat="41.04199080727994441986083984375" lon="-2.19916521571576595306396484375">
        <ele>1181.199951171875</ele>
        <time>2019-07-07T12:45:14.000Z</time>
      </trkpt>
      <trkpt lat="41.0421533323824405670166015625" lon="-2.1993039362132549285888671875">
        <ele>1183.5999755859375</ele>
        <time>2019-07-07T12:45:15.000Z</time>
      </trkpt>
      <trkpt lat="41.04230948723852634429931640625" lon="-2.19943863339722156524658203125">
        <ele>1184.800048828125</ele>
        <time>2019-07-07T12:45:16.000Z</time>
      </trkpt>
      <trkpt lat="41.042738892138004302978515625" lon="-2.19981841742992401123046875">
        <ele>1184.5999755859375</ele>
        <time>2019-07-07T12:45:19.000Z</time>
      </trkpt>
      <trkpt lat="41.0431192629039287567138671875" lon="-2.200162075459957122802734375">
        <ele>1185.5999755859375</ele>
        <time>2019-07-07T12:45:22.000Z</time>
      </trkpt>
      <trkpt lat="41.04323887266218662261962890625" lon="-2.2002668492496013641357421875">
        <ele>1186.4000244140625</ele>
        <time>2019-07-07T12:45:23.000Z</time>
      </trkpt>
      <trkpt lat="41.04335479438304901123046875" lon="-2.20036818645894527435302734375">
        <ele>1187.800048828125</ele>
        <time>2019-07-07T12:45:24.000Z</time>
      </trkpt>
      <trkpt lat="41.04357766918838024139404296875" lon="-2.20056683756411075592041015625">
        <ele>1189</ele>
        <time>2019-07-07T12:45:26.000Z</time>
      </trkpt>
      <trkpt lat="41.0440208204090595245361328125" lon="-2.20095994882285594940185546875">
        <ele>1189.199951171875</ele>
        <time>2019-07-07T12:45:30.000Z</time>
      </trkpt>
      <trkpt lat="41.04436196386814117431640625" lon="-2.20125985331833362579345703125">
        <ele>1187.4000244140625</ele>
        <time>2019-07-07T12:45:33.000Z</time>
      </trkpt>
      <trkpt lat="41.04477829299867153167724609375" lon="-2.2016304172575473785400390625">
        <ele>1187</ele>
        <time>2019-07-07T12:45:37.000Z</time>
      </trkpt>
      <trkpt lat="41.0451748408377170562744140625" lon="-2.20197751186788082122802734375">
        <ele>1186.199951171875</ele>
        <time>2019-07-07T12:45:41.000Z</time>
      </trkpt>
      <trkpt lat="41.04547432623803615570068359375" lon="-2.20224254764616489410400390625">
        <ele>1185</ele>
        <time>2019-07-07T12:45:44.000Z</time>
      </trkpt>
      <trkpt lat="41.04592435061931610107421875" lon="-2.20264806412160396575927734375">
        <ele>1185</ele>
        <time>2019-07-07T12:45:49.000Z</time>
      </trkpt>
      <trkpt lat="41.04617773555219173431396484375" lon="-2.20286867581307888031005859375">
        <ele>1186.4000244140625</ele>
        <time>2019-07-07T12:45:52.000Z</time>
      </trkpt>
      <trkpt lat="41.04649775661528110504150390625" lon="-2.20315382815897464752197265625">
        <ele>1188</ele>
        <time>2019-07-07T12:45:56.000Z</time>
      </trkpt>
      <trkpt lat="41.0466550849378108978271484375" lon="-2.20329456031322479248046875">
        <ele>1189</ele>
        <time>2019-07-07T12:45:58.000Z</time>
      </trkpt>
      <trkpt lat="41.046892963349819183349609375" lon="-2.20351039431989192962646484375">
        <ele>1187.800048828125</ele>
        <time>2019-07-07T12:46:01.000Z</time>
      </trkpt>
      <trkpt lat="41.04696571826934814453125" lon="-2.20358423888683319091796875">
        <ele>1186</ele>
        <time>2019-07-07T12:46:02.000Z</time>
      </trkpt>
      <trkpt lat="41.04709220118820667266845703125" lon="-2.203730084002017974853515625">
        <ele>1184.800048828125</ele>
        <time>2019-07-07T12:46:04.000Z</time>
      </trkpt>
      <trkpt lat="41.0473310016095638275146484375" lon="-2.20401179976761341094970703125">
        <ele>1185.800048828125</ele>
        <time>2019-07-07T12:46:08.000Z</time>
      </trkpt>
      <trkpt lat="41.0477006435394287109375" lon="-2.20446844585239887237548828125">
        <ele>1185.800048828125</ele>
        <time>2019-07-07T12:46:15.000Z</time>
      </trkpt>
      <trkpt lat="41.0479814372956752777099609375" lon="-2.20489709638059139251708984375">
        <ele>1186</ele>
        <time>2019-07-07T12:47:11.000Z</time>
      </trkpt>
      <trkpt lat="41.0482530109584331512451171875" lon="-2.20546052791178226470947265625">
        <ele>1184.199951171875</ele>
        <time>2019-07-07T12:47:16.000Z</time>
      </trkpt>
      <trkpt lat="41.048473455011844635009765625" lon="-2.20606637187302112579345703125">
        <ele>1183.199951171875</ele>
        <time>2019-07-07T12:47:21.000Z</time>
      </trkpt>
      <trkpt lat="41.04864922352135181427001953125" lon="-2.20665008760988712310791015625">
        <ele>1183.4000244140625</ele>
        <time>2019-07-07T12:47:26.000Z</time>
      </trkpt>
      <trkpt lat="41.048694066703319549560546875" lon="-2.2068976052105426788330078125">
        <ele>1182.5999755859375</ele>
        <time>2019-07-07T12:47:28.000Z</time>
      </trkpt>
      <trkpt lat="41.048701107501983642578125" lon="-2.207172699272632598876953125">
        <ele>1181.800048828125</ele>
        <time>2019-07-07T12:47:30.000Z</time>
      </trkpt>
      <trkpt lat="41.04868610389530658721923828125" lon="-2.20730823464691638946533203125">
        <ele>1181.5999755859375</ele>
        <time>2019-07-07T12:47:31.000Z</time>
      </trkpt>
      <trkpt lat="41.04865794070065021514892578125" lon="-2.207436896860599517822265625">
        <ele>1181.4000244140625</ele>
        <time>2019-07-07T12:47:32.000Z</time>
      </trkpt>
      <trkpt lat="41.04855802841484546661376953125" lon="-2.207656167447566986083984375">
        <ele>1181.4000244140625</ele>
        <time>2019-07-07T12:47:34.000Z</time>
      </trkpt>
      <trkpt lat="41.04820079170167446136474609375" lon="-2.20822420902550220489501953125">
        <ele>1181</ele>
        <time>2019-07-07T12:47:39.000Z</time>
      </trkpt>
      <trkpt lat="41.04813457466661930084228515625" lon="-2.20836460590362548828125">
        <ele>1179.5999755859375</ele>
        <time>2019-07-07T12:47:40.000Z</time>
      </trkpt>
      <trkpt lat="41.04800708591938018798828125" lon="-2.20868806354701519012451171875">
        <ele>1177.800048828125</ele>
        <time>2019-07-07T12:47:42.000Z</time>
      </trkpt>
      <trkpt lat="41.047814972698688507080078125" lon="-2.2092663310468196868896484375">
        <ele>1177.4000244140625</ele>
        <time>2019-07-07T12:47:45.000Z</time>
      </trkpt>
      <trkpt lat="41.0477544553577899932861328125" lon="-2.2094604559242725372314453125">
        <ele>1179.199951171875</ele>
        <time>2019-07-07T12:47:46.000Z</time>
      </trkpt>
      <trkpt lat="41.04763635434210300445556640625" lon="-2.2098557464778423309326171875">
        <ele>1184.199951171875</ele>
        <time>2019-07-07T12:47:48.000Z</time>
      </trkpt>
      <trkpt lat="41.0475858114659786224365234375" lon="-2.210058085620403289794921875">
        <ele>1188.5999755859375</ele>
        <time>2019-07-07T12:47:49.000Z</time>
      </trkpt>
      <trkpt lat="41.04753845371305942535400390625" lon="-2.21026386134326457977294921875">
        <ele>1192</ele>
        <time>2019-07-07T12:47:50.000Z</time>
      </trkpt>
      <trkpt lat="41.0475016571581363677978515625" lon="-2.21047751605510711669921875">
        <ele>1193.199951171875</ele>
        <time>2019-07-07T12:47:51.000Z</time>
      </trkpt>
      <trkpt lat="41.047446839511394500732421875" lon="-2.2111418657004833221435546875">
        <ele>1192.4000244140625</ele>
        <time>2019-07-07T12:47:54.000Z</time>
      </trkpt>
      <trkpt lat="41.047441475093364715576171875" lon="-2.2113705240190029144287109375">
        <ele>1190</ele>
        <time>2019-07-07T12:47:55.000Z</time>
      </trkpt>
      <trkpt lat="41.047437451779842376708984375" lon="-2.21159960143268108367919921875">
        <ele>1187.800048828125</ele>
        <time>2019-07-07T12:47:56.000Z</time>
      </trkpt>
      <trkpt lat="41.04743435047566890716552734375" lon="-2.21182893030345439910888671875">
        <ele>1186.199951171875</ele>
        <time>2019-07-07T12:47:57.000Z</time>
      </trkpt>
      <trkpt lat="41.047429740428924560546875" lon="-2.2122901864349842071533203125">
        <ele>1184.800048828125</ele>
        <time>2019-07-07T12:47:59.000Z</time>
      </trkpt>
      <trkpt lat="41.04742370545864105224609375" lon="-2.21302351914346218109130859375">
        <ele>1186.5999755859375</ele>
        <time>2019-07-07T12:48:02.000Z</time>
      </trkpt>
      <trkpt lat="41.0474203526973724365234375" lon="-2.21382893621921539306640625">
        <ele>1184.800048828125</ele>
        <time>2019-07-07T12:48:05.000Z</time>
      </trkpt>
      <trkpt lat="41.0474178381264209747314453125" lon="-2.21411936916410923004150390625">
        <ele>1183.4000244140625</ele>
        <time>2019-07-07T12:48:06.000Z</time>
      </trkpt>
      <trkpt lat="41.04741021059453487396240234375" lon="-2.2147387079894542694091796875">
        <ele>1182.800048828125</ele>
        <time>2019-07-07T12:48:08.000Z</time>
      </trkpt>
      <trkpt lat="41.04740627110004425048828125" lon="-2.215410768985748291015625">
        <ele>1182.5999755859375</ele>
        <time>2019-07-07T12:48:10.000Z</time>
      </trkpt>
      <trkpt lat="41.04739822447299957275390625" lon="-2.21610286273062229156494140625">
        <ele>1184</ele>
        <time>2019-07-07T12:48:12.000Z</time>
      </trkpt>
      <trkpt lat="41.04739311151206493377685546875" lon="-2.21644752658903598785400390625">
        <ele>1186.5999755859375</ele>
        <time>2019-07-07T12:48:13.000Z</time>
      </trkpt>
      <trkpt lat="41.04738338850438594818115234375" lon="-2.21713551320135593414306640625">
        <ele>1184.800048828125</ele>
        <time>2019-07-07T12:48:15.000Z</time>
      </trkpt>
      <trkpt lat="41.04737936519086360931396484375" lon="-2.2174852900207042694091796875">
        <ele>1186.800048828125</ele>
        <time>2019-07-07T12:48:16.000Z</time>
      </trkpt>
      <trkpt lat="41.04737618006765842437744140625" lon="-2.2178416885435581207275390625">
        <ele>1187.800048828125</ele>
        <time>2019-07-07T12:48:17.000Z</time>
      </trkpt>
      <trkpt lat="41.047373749315738677978515625" lon="-2.21820219419896602630615234375">
        <ele>1186.199951171875</ele>
        <time>2019-07-07T12:48:18.000Z</time>
      </trkpt>
      <trkpt lat="41.04737081564962863922119140625" lon="-2.21856630407273769378662109375">
        <ele>1182.800048828125</ele>
        <time>2019-07-07T12:48:19.000Z</time>
      </trkpt>
      <trkpt lat="41.0473682172596454620361328125" lon="-2.2189330123364925384521484375">
        <ele>1179.4000244140625</ele>
        <time>2019-07-07T12:48:20.000Z</time>
      </trkpt>
      <trkpt lat="41.04736603796482086181640625" lon="-2.21929905004799365997314453125">
        <ele>1177.800048828125</ele>
        <time>2019-07-07T12:48:21.000Z</time>
      </trkpt>
      <trkpt lat="41.0473621822893619537353515625" lon="-2.22002710215747356414794921875">
        <ele>1176.800048828125</ele>
        <time>2019-07-07T12:48:23.000Z</time>
      </trkpt>
      <trkpt lat="41.04735539294779300689697265625" lon="-2.22075414843857288360595703125">
        <ele>1176.199951171875</ele>
        <time>2019-07-07T12:48:25.000Z</time>
      </trkpt>
      <trkpt lat="41.04734315536916255950927734375" lon="-2.2214770875871181488037109375">
        <ele>1176.5999755859375</ele>
        <time>2019-07-07T12:48:27.000Z</time>
      </trkpt>
      <trkpt lat="41.04733929969370365142822265625" lon="-2.22183675505220890045166015625">
        <ele>1177.800048828125</ele>
        <time>2019-07-07T12:48:28.000Z</time>
      </trkpt>
      <trkpt lat="41.0473345220088958740234375" lon="-2.22255189903080463409423828125">
        <ele>1177.199951171875</ele>
        <time>2019-07-07T12:48:30.000Z</time>
      </trkpt>
      <trkpt lat="41.04732907377183437347412109375" lon="-2.2232615947723388671875">
        <ele>1176.800048828125</ele>
        <time>2019-07-07T12:48:32.000Z</time>
      </trkpt>
      <trkpt lat="41.0473246313631534576416015625" lon="-2.22361237742006778717041015625">
        <ele>1175.800048828125</ele>
        <time>2019-07-07T12:48:33.000Z</time>
      </trkpt>
      <trkpt lat="41.04731616564095020294189453125" lon="-2.22430757246911525726318359375">
        <ele>1174.800048828125</ele>
        <time>2019-07-07T12:48:35.000Z</time>
      </trkpt>
      <trkpt lat="41.04731264524161815643310546875" lon="-2.2249978221952915191650390625">
        <ele>1176</ele>
        <time>2019-07-07T12:48:37.000Z</time>
      </trkpt>
      <trkpt lat="41.04732622392475605010986328125" lon="-2.22534005530178546905517578125">
        <ele>1177.5999755859375</ele>
        <time>2019-07-07T12:48:38.000Z</time>
      </trkpt>
      <trkpt lat="41.04735933244228363037109375" lon="-2.22567751072347164154052734375">
        <ele>1181</ele>
        <time>2019-07-07T12:48:39.000Z</time>
      </trkpt>
      <trkpt lat="41.04741641320288181304931640625" lon="-2.22600708715617656707763671875">
        <ele>1185</ele>
        <time>2019-07-07T12:48:40.000Z</time>
      </trkpt>
      <trkpt lat="41.04749721474945545196533203125" lon="-2.22632861696183681488037109375">
        <ele>1187.5999755859375</ele>
        <time>2019-07-07T12:48:41.000Z</time>
      </trkpt>
      <trkpt lat="41.04759561829268932342529296875" lon="-2.22664478234946727752685546875">
        <ele>1189</ele>
        <time>2019-07-07T12:48:42.000Z</time>
      </trkpt>
      <trkpt lat="41.04779745452105998992919921875" lon="-2.2272830642759799957275390625">
        <ele>1191.199951171875</ele>
        <time>2019-07-07T12:48:44.000Z</time>
      </trkpt>
      <trkpt lat="41.04787842370569705963134765625" lon="-2.2276180051267147064208984375">
        <ele>1192.800048828125</ele>
        <time>2019-07-07T12:48:45.000Z</time>
      </trkpt>
      <trkpt lat="41.04793625883758068084716796875" lon="-2.227964513003826141357421875">
        <ele>1193.4000244140625</ele>
        <time>2019-07-07T12:48:46.000Z</time>
      </trkpt>
      <trkpt lat="41.047960482537746429443359375" lon="-2.22867169417440891265869140625">
        <ele>1191</ele>
        <time>2019-07-07T12:48:48.000Z</time>
      </trkpt>
      <trkpt lat="41.04792972095310688018798828125" lon="-2.2290211357176303863525390625">
        <ele>1189.199951171875</ele>
        <time>2019-07-07T12:48:49.000Z</time>
      </trkpt>
      <trkpt lat="41.0478146374225616455078125" lon="-2.22969420254230499267578125">
        <ele>1188.5999755859375</ele>
        <time>2019-07-07T12:48:51.000Z</time>
      </trkpt>
      <trkpt lat="41.047676503658294677734375" lon="-2.23034463822841644287109375">
        <ele>1189</ele>
        <time>2019-07-07T12:48:53.000Z</time>
      </trkpt>
      <trkpt lat="41.04761146008968353271484375" lon="-2.23066843114793300628662109375">
        <ele>1190.5999755859375</ele>
        <time>2019-07-07T12:48:54.000Z</time>
      </trkpt>
      <trkpt lat="41.04755857028067111968994140625" lon="-2.230999767780303955078125">
        <ele>1192.4000244140625</ele>
        <time>2019-07-07T12:48:55.000Z</time>
      </trkpt>
      <trkpt lat="41.04751892387866973876953125" lon="-2.2313419170677661895751953125">
        <ele>1194.199951171875</ele>
        <time>2019-07-07T12:48:56.000Z</time>
      </trkpt>
      <trkpt lat="41.0474714823067188262939453125" lon="-2.23205530084669589996337890625">
        <ele>1196.5999755859375</ele>
        <time>2019-07-07T12:48:58.000Z</time>
      </trkpt>
      <trkpt lat="41.04744650423526763916015625" lon="-2.232799865305423736572265625">
        <ele>1197.5999755859375</ele>
        <time>2019-07-07T12:49:00.000Z</time>
      </trkpt>
      <trkpt lat="41.04743585921823978424072265625" lon="-2.23317529074847698211669921875">
        <ele>1197.800048828125</ele>
        <time>2019-07-07T12:49:01.000Z</time>
      </trkpt>
      <trkpt lat="41.04741289280354976654052734375" lon="-2.23392412997782230377197265625">
        <ele>1198.4000244140625</ele>
        <time>2019-07-07T12:49:03.000Z</time>
      </trkpt>
      <trkpt lat="41.04740182869136333465576171875" lon="-2.23429620265960693359375">
        <ele>1199.199951171875</ele>
        <time>2019-07-07T12:49:04.000Z</time>
      </trkpt>
      <trkpt lat="41.04738003574311733245849609375" lon="-2.2350353188812732696533203125">
        <ele>1199</ele>
        <time>2019-07-07T12:49:06.000Z</time>
      </trkpt>
      <trkpt lat="41.0473554767668247222900390625" lon="-2.235768735408782958984375">
        <ele>1199</ele>
        <time>2019-07-07T12:49:08.000Z</time>
      </trkpt>
      <trkpt lat="41.0473316721618175506591796875" lon="-2.23649653606116771697998046875">
        <ele>1200</ele>
        <time>2019-07-07T12:49:10.000Z</time>
      </trkpt>
      <trkpt lat="41.04731130413711071014404296875" lon="-2.23722291179001331329345703125">
        <ele>1199.5999755859375</ele>
        <time>2019-07-07T12:49:12.000Z</time>
      </trkpt>
      <trkpt lat="41.0473169200122356414794921875" lon="-2.23796051926910877227783203125">
        <ele>1200.800048828125</ele>
        <time>2019-07-07T12:49:14.000Z</time>
      </trkpt>
      <trkpt lat="41.04733041487634181976318359375" lon="-2.23833736963570117950439453125">
        <ele>1202.5999755859375</ele>
        <time>2019-07-07T12:49:15.000Z</time>
      </trkpt>
      <trkpt lat="41.04737148620188236236572265625" lon="-2.239110432565212249755859375">
        <ele>1205</ele>
        <time>2019-07-07T12:49:17.000Z</time>
      </trkpt>
      <trkpt lat="41.04742714203894138336181640625" lon="-2.2399072162806987762451171875">
        <ele>1206.199951171875</ele>
        <time>2019-07-07T12:49:19.000Z</time>
      </trkpt>
      <trkpt lat="41.04748581536114215850830078125" lon="-2.2406974621117115020751953125">
        <ele>1202.4000244140625</ele>
        <time>2019-07-07T12:49:21.000Z</time>
      </trkpt>
      <trkpt lat="41.04751490056514739990234375" lon="-2.2410749830305576324462890625">
        <ele>1197</ele>
        <time>2019-07-07T12:49:22.000Z</time>
      </trkpt>
      <trkpt lat="41.0475428961217403411865234375" lon="-2.241438925266265869140625">
        <ele>1193.199951171875</ele>
        <time>2019-07-07T12:49:23.000Z</time>
      </trkpt>
      <trkpt lat="41.04756963439285755157470703125" lon="-2.24179356358945369720458984375">
        <ele>1191</ele>
        <time>2019-07-07T12:49:24.000Z</time>
      </trkpt>
      <trkpt lat="41.04759578593075275421142578125" lon="-2.2421428374946117401123046875">
        <ele>1190</ele>
        <time>2019-07-07T12:49:25.000Z</time>
      </trkpt>
      <trkpt lat="41.0476454906165599822998046875" lon="-2.24283576942980289459228515625">
        <ele>1192.5999755859375</ele>
        <time>2019-07-07T12:49:27.000Z</time>
      </trkpt>
      <trkpt lat="41.04766703210771083831787109375" lon="-2.24318428896367549896240234375">
        <ele>1195.4000244140625</ele>
        <time>2019-07-07T12:49:28.000Z</time>
      </trkpt>
      <trkpt lat="41.04768262244760990142822265625" lon="-2.2435355745255947113037109375">
        <ele>1198.800048828125</ele>
        <time>2019-07-07T12:49:29.000Z</time>
      </trkpt>
      <trkpt lat="41.04768647812306880950927734375" lon="-2.2438916377723217010498046875">
        <ele>1201.199951171875</ele>
        <time>2019-07-07T12:49:30.000Z</time>
      </trkpt>
      <trkpt lat="41.04767189361155033111572265625" lon="-2.24425256252288818359375">
        <ele>1203.199951171875</ele>
        <time>2019-07-07T12:49:31.000Z</time>
      </trkpt>
      <trkpt lat="41.04763132520020008087158203125" lon="-2.24461340345442295074462890625">
        <ele>1203.4000244140625</ele>
        <time>2019-07-07T12:49:32.000Z</time>
      </trkpt>
      <trkpt lat="41.0474641062319278717041015625" lon="-2.24531136453151702880859375">
        <ele>1203</ele>
        <time>2019-07-07T12:49:34.000Z</time>
      </trkpt>
      <trkpt lat="41.04721977375447750091552734375" lon="-2.24598317407071590423583984375">
        <ele>1204.5999755859375</ele>
        <time>2019-07-07T12:49:36.000Z</time>
      </trkpt>
      <trkpt lat="41.0469575040042400360107421875" lon="-2.24664735607802867889404296875">
        <ele>1205.800048828125</ele>
        <time>2019-07-07T12:49:38.000Z</time>
      </trkpt>
      <trkpt lat="41.046725325286388397216796875" lon="-2.2473141364753246307373046875">
        <ele>1206.4000244140625</ele>
        <time>2019-07-07T12:49:40.000Z</time>
      </trkpt>
      <trkpt lat="41.0466282628476619720458984375" lon="-2.24764849059283733367919921875">
        <ele>1208</ele>
        <time>2019-07-07T12:49:41.000Z</time>
      </trkpt>
      <trkpt lat="41.0465459525585174560546875" lon="-2.24798426963388919830322265625">
        <ele>1210.4000244140625</ele>
        <time>2019-07-07T12:49:42.000Z</time>
      </trkpt>
      <trkpt lat="41.04642600752413272857666015625" lon="-2.2486674785614013671875">
        <ele>1214.199951171875</ele>
        <time>2019-07-07T12:49:44.000Z</time>
      </trkpt>
      <trkpt lat="41.04638795368373394012451171875" lon="-2.2490173391997814178466796875">
        <ele>1218.199951171875</ele>
        <time>2019-07-07T12:49:45.000Z</time>
      </trkpt>
      <trkpt lat="41.0463664121925830841064453125" lon="-2.249372899532318115234375">
        <ele>1220</ele>
        <time>2019-07-07T12:49:46.000Z</time>
      </trkpt>
      <trkpt lat="41.04637471027672290802001953125" lon="-2.25009785033762454986572265625">
        <ele>1220.800048828125</ele>
        <time>2019-07-07T12:49:48.000Z</time>
      </trkpt>
      <trkpt lat="41.04644763283431529998779296875" lon="-2.25083629600703716278076171875">
        <ele>1219</ele>
        <time>2019-07-07T12:49:50.000Z</time>
      </trkpt>
      <trkpt lat="41.0465575195848941802978515625" lon="-2.2515862248837947845458984375">
        <ele>1218.800048828125</ele>
        <time>2019-07-07T12:49:52.000Z</time>
      </trkpt>
      <trkpt lat="41.04667310602962970733642578125" lon="-2.25234813988208770751953125">
        <ele>1217.4000244140625</ele>
        <time>2019-07-07T12:49:54.000Z</time>
      </trkpt>
      <trkpt lat="41.0467268340289592742919921875" lon="-2.25272406823933124542236328125">
        <ele>1215.4000244140625</ele>
        <time>2019-07-07T12:49:55.000Z</time>
      </trkpt>
      <trkpt lat="41.0467720963060855865478515625" lon="-2.253086082637310028076171875">
        <ele>1211</ele>
        <time>2019-07-07T12:49:56.000Z</time>
      </trkpt>
      <trkpt lat="41.0468034446239471435546875" lon="-2.25342831574380397796630859375">
        <ele>1203.4000244140625</ele>
        <time>2019-07-07T12:49:57.000Z</time>
      </trkpt>
      <trkpt lat="41.04681978933513164520263671875" lon="-2.25374691188335418701171875">
        <ele>1196</ele>
        <time>2019-07-07T12:49:58.000Z</time>
      </trkpt>
      <trkpt lat="41.0468230582773685455322265625" lon="-2.25404203869402408599853515625">
        <ele>1192</ele>
        <time>2019-07-07T12:49:59.000Z</time>
      </trkpt>
      <trkpt lat="41.0468168556690216064453125" lon="-2.25431956350803375244140625">
        <ele>1190</ele>
        <time>2019-07-07T12:50:00.000Z</time>
      </trkpt>
      <trkpt lat="41.046758852899074554443359375" lon="-2.25506060756742954254150390625">
        <ele>1192.800048828125</ele>
        <time>2019-07-07T12:50:03.000Z</time>
      </trkpt>
      <trkpt lat="41.04672901332378387451171875" lon="-2.25526713766157627105712890625">
        <ele>1196.4000244140625</ele>
        <time>2019-07-07T12:50:04.000Z</time>
      </trkpt>
      <trkpt lat="41.04669188149273395538330078125" lon="-2.25546243600547313690185546875">
        <ele>1198.199951171875</ele>
        <time>2019-07-07T12:50:05.000Z</time>
      </trkpt>
      <trkpt lat="41.04659624397754669189453125" lon="-2.25586392916738986968994140625">
        <ele>1200.800048828125</ele>
        <time>2019-07-07T12:50:07.000Z</time>
      </trkpt>
      <trkpt lat="41.0465377382934093475341796875" lon="-2.256072722375392913818359375">
        <ele>1202.4000244140625</ele>
        <time>2019-07-07T12:50:08.000Z</time>
      </trkpt>
      <trkpt lat="41.046316958963871002197265625" lon="-2.256723828613758087158203125">
        <ele>1201.199951171875</ele>
        <time>2019-07-07T12:50:11.000Z</time>
      </trkpt>
      <trkpt lat="41.0460532642900943756103515625" lon="-2.25740544497966766357421875">
        <ele>1201.4000244140625</ele>
        <time>2019-07-07T12:50:14.000Z</time>
      </trkpt>
      <trkpt lat="41.045887134969234466552734375" lon="-2.257859073579311370849609375">
        <ele>1199.199951171875</ele>
        <time>2019-07-07T12:50:16.000Z</time>
      </trkpt>
      <trkpt lat="41.0457655973732471466064453125" lon="-2.258308343589305877685546875">
        <ele>1197.800048828125</ele>
        <time>2019-07-07T12:50:18.000Z</time>
      </trkpt>
      <trkpt lat="41.0456589795649051666259765625" lon="-2.25901569239795207977294921875">
        <ele>1196.5999755859375</ele>
        <time>2019-07-07T12:50:21.000Z</time>
      </trkpt>
      <trkpt lat="41.045605838298797607421875" lon="-2.25952832959592342376708984375">
        <ele>1195.4000244140625</ele>
        <time>2019-07-07T12:50:23.000Z</time>
      </trkpt>
      <trkpt lat="41.0455293953418731689453125" lon="-2.2603265382349491119384765625">
        <ele>1194.5999755859375</ele>
        <time>2019-07-07T12:50:26.000Z</time>
      </trkpt>
      <trkpt lat="41.0455040819942951202392578125" lon="-2.2605987824499607086181640625">
        <ele>1193.4000244140625</ele>
        <time>2019-07-07T12:50:27.000Z</time>
      </trkpt>
      <trkpt lat="41.0454159043729305267333984375" lon="-2.261458933353424072265625">
        <ele>1191</ele>
        <time>2019-07-07T12:50:30.000Z</time>
      </trkpt>
      <trkpt lat="41.04538480751216411590576171875" lon="-2.26175758056342601776123046875">
        <ele>1189.199951171875</ele>
        <time>2019-07-07T12:50:31.000Z</time>
      </trkpt>
      <trkpt lat="41.0453575663268566131591796875" lon="-2.26206100545823574066162109375">
        <ele>1186.800048828125</ele>
        <time>2019-07-07T12:50:32.000Z</time>
      </trkpt>
      <trkpt lat="41.04534004814922809600830078125" lon="-2.26236912421882152557373046875">
        <ele>1185.199951171875</ele>
        <time>2019-07-07T12:50:33.000Z</time>
      </trkpt>
      <trkpt lat="41.04534138925373554229736328125" lon="-2.26268210448324680328369140625">
        <ele>1184.5999755859375</ele>
        <time>2019-07-07T12:50:34.000Z</time>
      </trkpt>
      <trkpt lat="41.0453652776777744293212890625" lon="-2.262999527156352996826171875">
        <ele>1183.5999755859375</ele>
        <time>2019-07-07T12:50:35.000Z</time>
      </trkpt>
      <trkpt lat="41.045474745333194732666015625" lon="-2.26363697089254856109619140625">
        <ele>1186</ele>
        <time>2019-07-07T12:50:37.000Z</time>
      </trkpt>
      <trkpt lat="41.045626290142536163330078125" lon="-2.26427013985812664031982421875">
        <ele>1186.800048828125</ele>
        <time>2019-07-07T12:50:39.000Z</time>
      </trkpt>
      <trkpt lat="41.04570197872817516326904296875" lon="-2.26458571851253509521484375">
        <ele>1187</ele>
        <time>2019-07-07T12:50:40.000Z</time>
      </trkpt>
      <trkpt lat="41.04584924876689910888671875" lon="-2.2652024589478969573974609375">
        <ele>1187</ele>
        <time>2019-07-07T12:50:42.000Z</time>
      </trkpt>
      <trkpt lat="41.04599182493984699249267578125" lon="-2.26581676863133907318115234375">
        <ele>1186.800048828125</ele>
        <time>2019-07-07T12:50:44.000Z</time>
      </trkpt>
      <trkpt lat="41.046123169362545013427734375" lon="-2.26644105277955532073974609375">
        <ele>1188</ele>
        <time>2019-07-07T12:50:46.000Z</time>
      </trkpt>
      <trkpt lat="41.04618125595152378082275390625" lon="-2.26675830781459808349609375">
        <ele>1188.199951171875</ele>
        <time>2019-07-07T12:50:47.000Z</time>
      </trkpt>
      <trkpt lat="41.04627127759158611297607421875" lon="-2.267397679388523101806640625">
        <ele>1184.800048828125</ele>
        <time>2019-07-07T12:50:49.000Z</time>
      </trkpt>
      <trkpt lat="41.04629960842430591583251953125" lon="-2.26771585643291473388671875">
        <ele>1180.199951171875</ele>
        <time>2019-07-07T12:50:50.000Z</time>
      </trkpt>
      <trkpt lat="41.04632089845836162567138671875" lon="-2.26802908815443515777587890625">
        <ele>1175.4000244140625</ele>
        <time>2019-07-07T12:50:51.000Z</time>
      </trkpt>
      <trkpt lat="41.0463372431695461273193359375" lon="-2.26833402179181575775146484375">
        <ele>1173</ele>
        <time>2019-07-07T12:50:52.000Z</time>
      </trkpt>
      <trkpt lat="41.0463509894907474517822265625" lon="-2.26862520910799503326416015625">
        <ele>1171.199951171875</ele>
        <time>2019-07-07T12:50:53.000Z</time>
      </trkpt>
      <trkpt lat="41.0463850200176239013671875" lon="-2.26917120628058910369873046875">
        <ele>1172.5999755859375</ele>
        <time>2019-07-07T12:50:55.000Z</time>
      </trkpt>
      <trkpt lat="41.0464046336710453033447265625" lon="-2.26942333392798900604248046875">
        <ele>1175</ele>
        <time>2019-07-07T12:50:56.000Z</time>
      </trkpt>
      <trkpt lat="41.04642349295318126678466796875" lon="-2.2696619667112827301025390625">
        <ele>1177.800048828125</ele>
        <time>2019-07-07T12:50:57.000Z</time>
      </trkpt>
      <trkpt lat="41.0464384965598583221435546875" lon="-2.2698896192014217376708984375">
        <ele>1181</ele>
        <time>2019-07-07T12:50:58.000Z</time>
      </trkpt>
      <trkpt lat="41.04645014740526676177978515625" lon="-2.2701075486838817596435546875">
        <ele>1183.199951171875</ele>
        <time>2019-07-07T12:50:59.000Z</time>
      </trkpt>
      <trkpt lat="41.04646121151745319366455078125" lon="-2.2703194431960582733154296875">
        <ele>1184.800048828125</ele>
        <time>2019-07-07T12:51:00.000Z</time>
      </trkpt>
      <trkpt lat="41.0464847646653652191162109375" lon="-2.2707271389663219451904296875">
        <ele>1186.4000244140625</ele>
        <time>2019-07-07T12:51:02.000Z</time>
      </trkpt>
      <trkpt lat="41.046495325863361358642578125" lon="-2.27092168293893337249755859375">
        <ele>1187.5999755859375</ele>
        <time>2019-07-07T12:51:03.000Z</time>
      </trkpt>
      <trkpt lat="41.0465055517852306365966796875" lon="-2.27111128158867359161376953125">
        <ele>1188.5999755859375</ele>
        <time>2019-07-07T12:51:04.000Z</time>
      </trkpt>
      <trkpt lat="41.04651519097387790679931640625" lon="-2.27129618637263774871826171875">
        <ele>1190</ele>
        <time>2019-07-07T12:51:05.000Z</time>
      </trkpt>
      <trkpt lat="41.04655542410910129547119140625" lon="-2.272088527679443359375">
        <ele>1189.4000244140625</ele>
        <time>2019-07-07T12:51:09.000Z</time>
      </trkpt>
      <trkpt lat="41.04656866751611232757568359375" lon="-2.27232464589178562164306640625">
        <ele>1188.199951171875</ele>
        <time>2019-07-07T12:51:10.000Z</time>
      </trkpt>
      <trkpt lat="41.04659565724432468414306640625" lon="-2.27280593477189540863037109375">
        <ele>1185.800048828125</ele>
        <time>2019-07-07T12:51:12.000Z</time>
      </trkpt>
      <trkpt lat="41.046622730791568756103515625" lon="-2.27325017563998699188232421875">
        <ele>1183</ele>
        <time>2019-07-07T12:51:14.000Z</time>
      </trkpt>
      <trkpt lat="41.0466356389224529266357421875" lon="-2.27346039377152919769287109375">
        <ele>1181</ele>
        <time>2019-07-07T12:51:15.000Z</time>
      </trkpt>
      <trkpt lat="41.0466534085571765899658203125" lon="-2.2738894633948802947998046875">
        <ele>1178.800048828125</ele>
        <time>2019-07-07T12:51:17.000Z</time>
      </trkpt>
      <trkpt lat="41.04668852873146533966064453125" lon="-2.27458298206329345703125">
        <ele>1178.5999755859375</ele>
        <time>2019-07-07T12:51:20.000Z</time>
      </trkpt>
      <trkpt lat="41.04671484790742397308349609375" lon="-2.274999730288982391357421875">
        <ele>1180.5999755859375</ele>
        <time>2019-07-07T12:51:22.000Z</time>
      </trkpt>
      <trkpt lat="41.04673613794147968292236328125" lon="-2.2752399556338787078857421875">
        <ele>1182</ele>
        <time>2019-07-07T12:51:24.000Z</time>
      </trkpt>
      <trkpt lat="41.04674150235950946807861328125" lon="-2.275303490459918975830078125">
        <ele>1184.199951171875</ele>
        <time>2019-07-07T12:51:26.000Z</time>
      </trkpt>
      <trkpt lat="41.04674049653112888336181640625" lon="-2.2752922587096691131591796875">
        <ele>1185.4000244140625</ele>
        <time>2019-07-07T12:51:27.000Z</time>
      </trkpt>
      <trkpt lat="41.04673898778855800628662109375" lon="-2.275280021131038665771484375">
        <ele>1186.800048828125</ele>
        <time>2019-07-07T12:51:29.000Z</time>
      </trkpt>
      <trkpt lat="41.0467417538166046142578125" lon="-2.2752674482762813568115234375">
        <ele>1187.800048828125</ele>
        <time>2019-07-07T12:51:34.000Z</time>
      </trkpt>
      <trkpt lat="41.04675021953880786895751953125" lon="-2.275353111326694488525390625">
        <ele>1187</ele>
        <time>2019-07-07T12:52:59.000Z</time>
      </trkpt>
      <trkpt lat="41.0467553324997425079345703125" lon="-2.275443971157073974609375">
        <ele>1186.4000244140625</ele>
        <time>2019-07-07T12:53:00.000Z</time>
      </trkpt>
      <trkpt lat="41.04679875075817108154296875" lon="-2.276039086282253265380859375">
        <ele>1186</ele>
        <time>2019-07-07T12:53:04.000Z</time>
      </trkpt>
      <trkpt lat="41.04684040881693363189697265625" lon="-2.27671642787754535675048828125">
        <ele>1185.800048828125</ele>
        <time>2019-07-07T12:53:08.000Z</time>
      </trkpt>
      <trkpt lat="41.0468562506139278411865234375" lon="-2.2770457528531551361083984375">
        <ele>1185.4000244140625</ele>
        <time>2019-07-07T12:53:10.000Z</time>
      </trkpt>
      <trkpt lat="41.046871840953826904296875" lon="-2.27735512889921665191650390625">
        <ele>1184.199951171875</ele>
        <time>2019-07-07T12:53:12.000Z</time>
      </trkpt>
      <trkpt lat="41.04688600637018680572509765625" lon="-2.27763064205646514892578125">
        <ele>1182.800048828125</ele>
        <time>2019-07-07T12:53:14.000Z</time>
      </trkpt>
      <trkpt lat="41.04690696112811565399169921875" lon="-2.27786156348884105682373046875">
        <ele>1182</ele>
        <time>2019-07-07T12:53:16.000Z</time>
      </trkpt>
      <trkpt lat="41.0469585098326206207275390625" lon="-2.27800254710018634796142578125">
        <ele>1182.5999755859375</ele>
        <time>2019-07-07T12:53:18.000Z</time>
      </trkpt>
      <trkpt lat="41.04701391421258449554443359375" lon="-2.2781219892203807830810546875">
        <ele>1183.199951171875</ele>
        <time>2019-07-07T12:53:21.000Z</time>
      </trkpt>
      <trkpt lat="41.046984493732452392578125" lon="-2.27817823179066181182861328125">
        <ele>1183.199951171875</ele>
        <time>2019-07-07T12:53:23.000Z</time>
      </trkpt>
      <trkpt lat="41.0468545742332935333251953125" lon="-2.2780841030180454254150390625">
        <ele>1182.800048828125</ele>
        <time>2019-07-07T12:53:28.000Z</time>
      </trkpt>
      <trkpt lat="41.04681258089840412139892578125" lon="-2.27787204086780548095703125">
        <ele>1183.199951171875</ele>
        <time>2019-07-07T12:53:30.000Z</time>
      </trkpt>
      <trkpt lat="41.04679632000625133514404296875" lon="-2.277585379779338836669921875">
        <ele>1184</ele>
        <time>2019-07-07T12:53:32.000Z</time>
      </trkpt>
      <trkpt lat="41.04675055481493473052978515625" lon="-2.2768201120197772979736328125">
        <ele>1185.199951171875</ele>
        <time>2019-07-07T12:53:36.000Z</time>
      </trkpt>
      <trkpt lat="41.04671903885900974273681640625" lon="-2.2761668264865875244140625">
        <ele>1186</ele>
        <time>2019-07-07T12:53:39.000Z</time>
      </trkpt>
      <trkpt lat="41.04670487344264984130859375" lon="-2.275932468473911285400390625">
        <ele>1186.4000244140625</ele>
        <time>2019-07-07T12:53:40.000Z</time>
      </trkpt>
      <trkpt lat="41.04666405357420444488525390625" lon="-2.27518555708229541778564453125">
        <ele>1186.800048828125</ele>
        <time>2019-07-07T12:53:43.000Z</time>
      </trkpt>
      <trkpt lat="41.046622060239315032958984375" lon="-2.27440402843058109283447265625">
        <ele>1187.800048828125</ele>
        <time>2019-07-07T12:53:46.000Z</time>
      </trkpt>
      <trkpt lat="41.04660839773714542388916015625" lon="-2.27412994019687175750732421875">
        <ele>1189.800048828125</ele>
        <time>2019-07-07T12:53:47.000Z</time>
      </trkpt>
      <trkpt lat="41.04659448377788066864013671875" lon="-2.2738512419164180755615234375">
        <ele>1191.199951171875</ele>
        <time>2019-07-07T12:53:48.000Z</time>
      </trkpt>
      <trkpt lat="41.0465642251074314117431640625" lon="-2.27328470908105373382568359375">
        <ele>1192.4000244140625</ele>
        <time>2019-07-07T12:53:50.000Z</time>
      </trkpt>
      <trkpt lat="41.0465166158974170684814453125" lon="-2.27243361063301563262939453125">
        <ele>1192.4000244140625</ele>
        <time>2019-07-07T12:53:53.000Z</time>
      </trkpt>
      <trkpt lat="41.0464750416576862335205078125" lon="-2.27161084301769733428955078125">
        <ele>1193.199951171875</ele>
        <time>2019-07-07T12:53:56.000Z</time>
      </trkpt>
      <trkpt lat="41.04646272026002407073974609375" lon="-2.271345891058444976806640625">
        <ele>1194</ele>
        <time>2019-07-07T12:53:57.000Z</time>
      </trkpt>
      <trkpt lat="41.04645006358623504638671875" lon="-2.27108395658433437347412109375">
        <ele>1195.199951171875</ele>
        <time>2019-07-07T12:53:58.000Z</time>
      </trkpt>
      <trkpt lat="41.046436317265033721923828125" lon="-2.2708253748714923858642578125">
        <ele>1196.4000244140625</ele>
        <time>2019-07-07T12:53:59.000Z</time>
      </trkpt>
      <trkpt lat="41.04642324149608612060546875" lon="-2.27057064883410930633544921875">
        <ele>1197.4000244140625</ele>
        <time>2019-07-07T12:54:00.000Z</time>
      </trkpt>
      <trkpt lat="41.04638376273214817047119140625" lon="-2.26980336941778659820556640625">
        <ele>1198</ele>
        <time>2019-07-07T12:54:03.000Z</time>
      </trkpt>
      <trkpt lat="41.04633967392146587371826171875" lon="-2.2689800150692462921142578125">
        <ele>1194.800048828125</ele>
        <time>2019-07-07T12:54:06.000Z</time>
      </trkpt>
      <trkpt lat="41.046323664486408233642578125" lon="-2.2686957009136676788330078125">
        <ele>1193.5999755859375</ele>
        <time>2019-07-07T12:54:07.000Z</time>
      </trkpt>
      <trkpt lat="41.0463072359561920166015625" lon="-2.26841029711067676544189453125">
        <ele>1195.199951171875</ele>
        <time>2019-07-07T12:54:08.000Z</time>
      </trkpt>
      <trkpt lat="41.04625468142330646514892578125" lon="-2.267529778182506561279296875">
        <ele>1194.199951171875</ele>
        <time>2019-07-07T12:54:11.000Z</time>
      </trkpt>
      <trkpt lat="41.04619349353015422821044921875" lon="-2.26692594587802886962890625">
        <ele>1196.4000244140625</ele>
        <time>2019-07-07T12:54:13.000Z</time>
      </trkpt>
      <trkpt lat="41.0460941679775714874267578125" lon="-2.2663165815174579620361328125">
        <ele>1196.5999755859375</ele>
        <time>2019-07-07T12:54:15.000Z</time>
      </trkpt>
      <trkpt lat="41.0460309684276580810546875" lon="-2.26601324044167995452880859375">
        <ele>1194.800048828125</ele>
        <time>2019-07-07T12:54:16.000Z</time>
      </trkpt>
      <trkpt lat="41.0458981990814208984375" lon="-2.2654177062213420867919921875">
        <ele>1195</ele>
        <time>2019-07-07T12:54:18.000Z</time>
      </trkpt>
      <trkpt lat="41.04576618410646915435791015625" lon="-2.26484647952020168304443359375">
        <ele>1193.5999755859375</ele>
        <time>2019-07-07T12:54:20.000Z</time>
      </trkpt>
      <trkpt lat="41.0456311516463756561279296875" lon="-2.264274917542934417724609375">
        <ele>1194</ele>
        <time>2019-07-07T12:54:22.000Z</time>
      </trkpt>
      <trkpt lat="41.04556418024003505706787109375" lon="-2.26398683153092861175537109375">
        <ele>1195.199951171875</ele>
        <time>2019-07-07T12:54:23.000Z</time>
      </trkpt>
      <trkpt lat="41.04543275199830532073974609375" lon="-2.263403870165348052978515625">
        <ele>1193.800048828125</ele>
        <time>2019-07-07T12:54:25.000Z</time>
      </trkpt>
      <trkpt lat="41.0453746654093265533447265625" lon="-2.2631089948117733001708984375">
        <ele>1191.800048828125</ele>
        <time>2019-07-07T12:54:26.000Z</time>
      </trkpt>
      <trkpt lat="41.045326553285121917724609375" lon="-2.26280950941145420074462890625">
        <ele>1190.5999755859375</ele>
        <time>2019-07-07T12:54:27.000Z</time>
      </trkpt>
      <trkpt lat="41.04529646225273609161376953125" lon="-2.26250558160245418548583984375">
        <ele>1188.800048828125</ele>
        <time>2019-07-07T12:54:28.000Z</time>
      </trkpt>
      <trkpt lat="41.0452884994447231292724609375" lon="-2.26219729520380496978759765625">
        <ele>1187</ele>
        <time>2019-07-07T12:54:29.000Z</time>
      </trkpt>
      <trkpt lat="41.0453005693852901458740234375" lon="-2.2618862427771091461181640625">
        <ele>1185</ele>
        <time>2019-07-07T12:54:30.000Z</time>
      </trkpt>
      <trkpt lat="41.045326553285121917724609375" lon="-2.26157502271234989166259765625">
        <ele>1183.800048828125</ele>
        <time>2019-07-07T12:54:31.000Z</time>
      </trkpt>
      <trkpt lat="41.04539318941533565521240234375" lon="-2.26095090620219707489013671875">
        <ele>1182.4000244140625</ele>
        <time>2019-07-07T12:54:33.000Z</time>
      </trkpt>
      <trkpt lat="41.04542705230414867401123046875" lon="-2.2606450505554676055908203125">
        <ele>1183.4000244140625</ele>
        <time>2019-07-07T12:54:34.000Z</time>
      </trkpt>
      <trkpt lat="41.0454843007028102874755859375" lon="-2.2600574791431427001953125">
        <ele>1185.199951171875</ele>
        <time>2019-07-07T12:54:36.000Z</time>
      </trkpt>
      <trkpt lat="41.0455084405839443206787109375" lon="-2.25977978669106960296630859375">
        <ele>1186.800048828125</ele>
        <time>2019-07-07T12:54:37.000Z</time>
      </trkpt>
      <trkpt lat="41.04553316719830036163330078125" lon="-2.25951860658824443817138671875">
        <ele>1189</ele>
        <time>2019-07-07T12:54:38.000Z</time>
      </trkpt>
      <trkpt lat="41.0455594025552272796630859375" lon="-2.259275279939174652099609375">
        <ele>1190.4000244140625</ele>
        <time>2019-07-07T12:54:39.000Z</time>
      </trkpt>
      <trkpt lat="41.04563475586473941802978515625" lon="-2.25867605768144130706787109375">
        <ele>1191.800048828125</ele>
        <time>2019-07-07T12:54:42.000Z</time>
      </trkpt>
      <trkpt lat="41.04569795541465282440185546875" lon="-2.25832167081534862518310546875">
        <ele>1194.199951171875</ele>
        <time>2019-07-07T12:54:44.000Z</time>
      </trkpt>
      <trkpt lat="41.04574288241565227508544921875" lon="-2.2581274621188640594482421875">
        <ele>1196.199951171875</ele>
        <time>2019-07-07T12:54:45.000Z</time>
      </trkpt>
      <trkpt lat="41.04579837061464786529541015625" lon="-2.257924787700176239013671875">
        <ele>1198.4000244140625</ele>
        <time>2019-07-07T12:54:46.000Z</time>
      </trkpt>
      <trkpt lat="41.04586341418325901031494140625" lon="-2.25771180354058742523193359375">
        <ele>1199.800048828125</ele>
        <time>2019-07-07T12:54:47.000Z</time>
      </trkpt>
      <trkpt lat="41.04602736420929431915283203125" lon="-2.25724929012358188629150390625">
        <ele>1201.4000244140625</ele>
        <time>2019-07-07T12:54:49.000Z</time>
      </trkpt>
      <trkpt lat="41.0462306253612041473388671875" lon="-2.256743609905242919921875">
        <ele>1202.5999755859375</ele>
        <time>2019-07-07T12:54:51.000Z</time>
      </trkpt>
      <trkpt lat="41.04632626287639141082763671875" lon="-2.256495170295238494873046875">
        <ele>1203.5999755859375</ele>
        <time>2019-07-07T12:54:52.000Z</time>
      </trkpt>
      <trkpt lat="41.04648484848439693450927734375" lon="-2.25604112260043621063232421875">
        <ele>1205</ele>
        <time>2019-07-07T12:54:54.000Z</time>
      </trkpt>
      <trkpt lat="41.04662801139056682586669921875" lon="-2.25552521646022796630859375">
        <ele>1206</ele>
        <time>2019-07-07T12:54:57.000Z</time>
      </trkpt>
      <trkpt lat="41.04668433777987957000732421875" lon="-2.25535799749195575714111328125">
        <ele>1207.4000244140625</ele>
        <time>2019-07-07T12:54:59.000Z</time>
      </trkpt>
      <trkpt lat="41.0467231459915637969970703125" lon="-2.25531860254704952239990234375">
        <ele>1208.4000244140625</ele>
        <time>2019-07-07T12:55:00.000Z</time>
      </trkpt>
      <trkpt lat="41.04677670635282993316650390625" lon="-2.255306281149387359619140625">
        <ele>1209.199951171875</ele>
        <time>2019-07-07T12:55:01.000Z</time>
      </trkpt>
      <trkpt lat="41.04684342630207538604736328125" lon="-2.25531910546123981475830078125">
        <ele>1209.5999755859375</ele>
        <time>2019-07-07T12:55:02.000Z</time>
      </trkpt>
      <trkpt lat="41.04691836051642894744873046875" lon="-2.25536235608160495758056640625">
        <ele>1209.800048828125</ele>
        <time>2019-07-07T12:55:03.000Z</time>
      </trkpt>
      <trkpt lat="41.0472756810486316680908203125" lon="-2.2557852230966091156005859375">
        <ele>1209.199951171875</ele>
        <time>2019-07-07T12:55:07.000Z</time>
      </trkpt>
      <trkpt lat="41.04751112870872020721435546875" lon="-2.25606090389192104339599609375">
        <ele>1208.5999755859375</ele>
        <time>2019-07-07T12:55:09.000Z</time>
      </trkpt>
      <trkpt lat="41.04791832156479358673095703125" lon="-2.25651897490024566650390625">
        <ele>1207.5999755859375</ele>
        <time>2019-07-07T12:55:12.000Z</time>
      </trkpt>
      <trkpt lat="41.04806534014642238616943359375" lon="-2.25667915306985378265380859375">
        <ele>1206.5999755859375</ele>
        <time>2019-07-07T12:55:13.000Z</time>
      </trkpt>
      <trkpt lat="41.04852072894573211669921875" lon="-2.2571741044521331787109375">
        <ele>1205</ele>
        <time>2019-07-07T12:55:16.000Z</time>
      </trkpt>
      <trkpt lat="41.04868032038211822509765625" lon="-2.25734869949519634246826171875">
        <ele>1202.4000244140625</ele>
        <time>2019-07-07T12:55:17.000Z</time>
      </trkpt>
      <trkpt lat="41.04884502477943897247314453125" lon="-2.25752840749919414520263671875">
        <ele>1199.800048828125</ele>
        <time>2019-07-07T12:55:18.000Z</time>
      </trkpt>
      <trkpt lat="41.049015931785106658935546875" lon="-2.257711552083492279052734375">
        <ele>1197</ele>
        <time>2019-07-07T12:55:19.000Z</time>
      </trkpt>
      <trkpt lat="41.0491911135613918304443359375" lon="-2.257897965610027313232421875">
        <ele>1195.199951171875</ele>
        <time>2019-07-07T12:55:20.000Z</time>
      </trkpt>
      <trkpt lat="41.0493698157370090484619140625" lon="-2.25808940827846527099609375">
        <ele>1194</ele>
        <time>2019-07-07T12:55:21.000Z</time>
      </trkpt>
      <trkpt lat="41.04973467998206615447998046875" lon="-2.25848503410816192626953125">
        <ele>1192.5999755859375</ele>
        <time>2019-07-07T12:55:23.000Z</time>
      </trkpt>
      <trkpt lat="41.0501017235219478607177734375" lon="-2.25888040848076343536376953125">
        <ele>1190.800048828125</ele>
        <time>2019-07-07T12:55:25.000Z</time>
      </trkpt>
      <trkpt lat="41.0504485666751861572265625" lon="-2.25925943814218044281005859375">
        <ele>1188.4000244140625</ele>
        <time>2019-07-07T12:55:27.000Z</time>
      </trkpt>
      <trkpt lat="41.05060472153127193450927734375" lon="-2.2594548203051090240478515625">
        <ele>1187</ele>
        <time>2019-07-07T12:55:28.000Z</time>
      </trkpt>
      <trkpt lat="41.0507394187152385711669921875" lon="-2.2596774436533451080322265625">
        <ele>1185.199951171875</ele>
        <time>2019-07-07T12:55:29.000Z</time>
      </trkpt>
      <trkpt lat="41.05085534043610095977783203125" lon="-2.25992898456752300262451171875">
        <ele>1184.4000244140625</ele>
        <time>2019-07-07T12:55:30.000Z</time>
      </trkpt>
      <trkpt lat="41.050963886082172393798828125" lon="-2.2602004744112491607666015625">
        <ele>1183.800048828125</ele>
        <time>2019-07-07T12:55:31.000Z</time>
      </trkpt>
      <trkpt lat="41.0511846654117107391357421875" lon="-2.26077002473175525665283203125">
        <ele>1183.5999755859375</ele>
        <time>2019-07-07T12:55:33.000Z</time>
      </trkpt>
      <trkpt lat="41.05141726322472095489501953125" lon="-2.26135156117379665374755859375">
        <ele>1184</ele>
        <time>2019-07-07T12:55:35.000Z</time>
      </trkpt>
      <trkpt lat="41.05164944194257259368896484375" lon="-2.26193703711032867431640625">
        <ele>1184</ele>
        <time>2019-07-07T12:55:37.000Z</time>
      </trkpt>
      <trkpt lat="41.05176360346376895904541015625" lon="-2.26222545839846134185791015625">
        <ele>1182.800048828125</ele>
        <time>2019-07-07T12:55:38.000Z</time>
      </trkpt>
      <trkpt lat="41.05187491513788700103759765625" lon="-2.262511365115642547607421875">
        <ele>1181.199951171875</ele>
        <time>2019-07-07T12:55:39.000Z</time>
      </trkpt>
      <trkpt lat="41.052110195159912109375" lon="-2.26307102479040622711181640625">
        <ele>1180.800048828125</ele>
        <time>2019-07-07T12:55:41.000Z</time>
      </trkpt>
      <trkpt lat="41.0522555373609066009521484375" lon="-2.2633346356451511383056640625">
        <ele>1180.5999755859375</ele>
        <time>2019-07-07T12:55:42.000Z</time>
      </trkpt>
      <trkpt lat="41.0524211637675762176513671875" lon="-2.26358802057802677154541015625">
        <ele>1179.800048828125</ele>
        <time>2019-07-07T12:55:43.000Z</time>
      </trkpt>
      <trkpt lat="41.0527799092233180999755859375" lon="-2.2641087882220745086669921875">
        <ele>1178.800048828125</ele>
        <time>2019-07-07T12:55:45.000Z</time>
      </trkpt>
      <trkpt lat="41.05317302048206329345703125" lon="-2.264623604714870452880859375">
        <ele>1178.199951171875</ele>
        <time>2019-07-07T12:55:47.000Z</time>
      </trkpt>
      <trkpt lat="41.0533820651471614837646484375" lon="-2.26486408151686191558837890625">
        <ele>1176.5999755859375</ele>
        <time>2019-07-07T12:55:48.000Z</time>
      </trkpt>
      <trkpt lat="41.05359303764998912811279296875" lon="-2.2651012055575847625732421875">
        <ele>1174.800048828125</ele>
        <time>2019-07-07T12:55:49.000Z</time>
      </trkpt>
      <trkpt lat="41.05379822663962841033935546875" lon="-2.26533430628478527069091796875">
        <ele>1173.4000244140625</ele>
        <time>2019-07-07T12:55:50.000Z</time>
      </trkpt>
      <trkpt lat="41.0541689582169055938720703125" lon="-2.2657593525946140289306640625">
        <ele>1172</ele>
        <time>2019-07-07T12:55:52.000Z</time>
      </trkpt>
      <trkpt lat="41.0543295554816722869873046875" lon="-2.26594048552215099334716796875">
        <ele>1170.800048828125</ele>
        <time>2019-07-07T12:55:53.000Z</time>
      </trkpt>
      <trkpt lat="41.0545974411070346832275390625" lon="-2.26629688404500484466552734375">
        <ele>1169.5999755859375</ele>
        <time>2019-07-07T12:55:55.000Z</time>
      </trkpt>
      <trkpt lat="41.05488955043256282806396484375" lon="-2.26696609519422054290771484375">
        <ele>1170.4000244140625</ele>
        <time>2019-07-07T12:55:58.000Z</time>
      </trkpt>
      <trkpt lat="41.0549975931644439697265625" lon="-2.267163656651973724365234375">
        <ele>1170.4000244140625</ele>
        <time>2019-07-07T12:55:59.000Z</time>
      </trkpt>
      <trkpt lat="41.055266819894313812255859375" lon="-2.2674216516315937042236328125">
        <ele>1170.199951171875</ele>
        <time>2019-07-07T12:56:01.000Z</time>
      </trkpt>
      <trkpt lat="41.05580837465822696685791015625" lon="-2.267720215022563934326171875">
        <ele>1170.4000244140625</ele>
        <time>2019-07-07T12:56:04.000Z</time>
      </trkpt>
      <trkpt lat="41.056002080440521240234375" lon="-2.267828173935413360595703125">
        <ele>1171</ele>
        <time>2019-07-07T12:56:05.000Z</time>
      </trkpt>
      <trkpt lat="41.05619628913700580596923828125" lon="-2.26793772540986537933349609375">
        <ele>1172.199951171875</ele>
        <time>2019-07-07T12:56:06.000Z</time>
      </trkpt>
      <trkpt lat="41.05658076703548431396484375" lon="-2.26816219277679920196533203125">
        <ele>1173.5999755859375</ele>
        <time>2019-07-07T12:56:08.000Z</time>
      </trkpt>
      <trkpt lat="41.0569772310554981231689453125" lon="-2.2683406434953212738037109375">
        <ele>1173</ele>
        <time>2019-07-07T12:56:10.000Z</time>
      </trkpt>
      <trkpt lat="41.0576028563082218170166015625" lon="-2.2685069404542446136474609375">
        <ele>1172.199951171875</ele>
        <time>2019-07-07T12:56:13.000Z</time>
      </trkpt>
      <trkpt lat="41.05800904333591461181640625" lon="-2.2686128877103328704833984375">
        <ele>1170.4000244140625</ele>
        <time>2019-07-07T12:56:15.000Z</time>
      </trkpt>
      <trkpt lat="41.05819285847246646881103515625" lon="-2.2686594910919666290283203125">
        <ele>1169</ele>
        <time>2019-07-07T12:56:16.000Z</time>
      </trkpt>
      <trkpt lat="41.05835312046110630035400390625" lon="-2.26870165206491947174072265625">
        <ele>1167.5999755859375</ele>
        <time>2019-07-07T12:56:17.000Z</time>
      </trkpt>
      <trkpt lat="41.058486141264438629150390625" lon="-2.26874071173369884490966796875">
        <ele>1166.5999755859375</ele>
        <time>2019-07-07T12:56:18.000Z</time>
      </trkpt>
      <trkpt lat="41.05859301052987575531005859375" lon="-2.268790416419506072998046875">
        <ele>1166</ele>
        <time>2019-07-07T12:56:19.000Z</time>
      </trkpt>
      <trkpt lat="41.05875662527978420257568359375" lon="-2.2689659334719181060791015625">
        <ele>1166</ele>
        <time>2019-07-07T12:56:21.000Z</time>
      </trkpt>
      <trkpt lat="41.05905066244304180145263671875" lon="-2.26961108855903148651123046875">
        <ele>1168</ele>
        <time>2019-07-07T12:56:25.000Z</time>
      </trkpt>
      <trkpt lat="41.05913749895989894866943359375" lon="-2.26981200277805328369140625">
        <ele>1169</ele>
        <time>2019-07-07T12:56:26.000Z</time>
      </trkpt>
      <trkpt lat="41.059228442609310150146484375" lon="-2.2700270824134349822998046875">
        <ele>1170.4000244140625</ele>
        <time>2019-07-07T12:56:27.000Z</time>
      </trkpt>
      <trkpt lat="41.059523485600948333740234375" lon="-2.270722948014736175537109375">
        <ele>1170.800048828125</ele>
        <time>2019-07-07T12:56:30.000Z</time>
      </trkpt>
      <trkpt lat="41.05962507426738739013671875" lon="-2.27096610702574253082275390625">
        <ele>1169.4000244140625</ele>
        <time>2019-07-07T12:56:31.000Z</time>
      </trkpt>
      <trkpt lat="41.0597263276576995849609375" lon="-2.27120934985578060150146484375">
        <ele>1166.4000244140625</ele>
        <time>2019-07-07T12:56:32.000Z</time>
      </trkpt>
      <trkpt lat="41.05982598848640918731689453125" lon="-2.2714499942958354949951171875">
        <ele>1163.5999755859375</ele>
        <time>2019-07-07T12:56:33.000Z</time>
      </trkpt>
      <trkpt lat="41.05992321856319904327392578125" lon="-2.2716823406517505645751953125">
        <ele>1161</ele>
        <time>2019-07-07T12:56:34.000Z</time>
      </trkpt>
      <trkpt lat="41.06001676060259342193603515625" lon="-2.27190144360065460205078125">
        <ele>1159.5999755859375</ele>
        <time>2019-07-07T12:56:35.000Z</time>
      </trkpt>
      <trkpt lat="41.0601930320262908935546875" lon="-2.27230804972350597381591796875">
        <ele>1158.5999755859375</ele>
        <time>2019-07-07T12:56:37.000Z</time>
      </trkpt>
      <trkpt lat="41.06027592904865741729736328125" lon="-2.27250150404870510101318359375">
        <ele>1160.199951171875</ele>
        <time>2019-07-07T12:56:38.000Z</time>
      </trkpt>
      <trkpt lat="41.06045563705265522003173828125" lon="-2.272885479032993316650390625">
        <ele>1161.5999755859375</ele>
        <time>2019-07-07T12:56:40.000Z</time>
      </trkpt>
      <trkpt lat="41.06081999838352203369140625" lon="-2.27342871017754077911376953125">
        <ele>1161.4000244140625</ele>
        <time>2019-07-07T12:56:43.000Z</time>
      </trkpt>
      <trkpt lat="41.06106542050838470458984375" lon="-2.2737416066229343414306640625">
        <ele>1160.4000244140625</ele>
        <time>2019-07-07T12:56:45.000Z</time>
      </trkpt>
      <trkpt lat="41.0614253394305706024169921875" lon="-2.27418961934745311737060546875">
        <ele>1159.4000244140625</ele>
        <time>2019-07-07T12:56:48.000Z</time>
      </trkpt>
      <trkpt lat="41.06168325059115886688232421875" lon="-2.2745067067444324493408203125">
        <ele>1161.4000244140625</ele>
        <time>2019-07-07T12:56:50.000Z</time>
      </trkpt>
      <trkpt lat="41.06181987561285495758056640625" lon="-2.27467711083590984344482421875">
        <ele>1162.5999755859375</ele>
        <time>2019-07-07T12:56:51.000Z</time>
      </trkpt>
      <trkpt lat="41.06210016645491123199462890625" lon="-2.27503501810133457183837890625">
        <ele>1163.800048828125</ele>
        <time>2019-07-07T12:56:53.000Z</time>
      </trkpt>
      <trkpt lat="41.0622400604188442230224609375" lon="-2.27520667947828769683837890625">
        <ele>1165.4000244140625</ele>
        <time>2019-07-07T12:56:54.000Z</time>
      </trkpt>
      <trkpt lat="41.06253527104854583740234375" lon="-2.27549652568995952606201171875">
        <ele>1165</ele>
        <time>2019-07-07T12:56:56.000Z</time>
      </trkpt>
      <trkpt lat="41.0627044178545475006103515625" lon="-2.275613285601139068603515625">
        <ele>1163.5999755859375</ele>
        <time>2019-07-07T12:56:57.000Z</time>
      </trkpt>
      <trkpt lat="41.06288571842014789581298828125" lon="-2.275716550648212432861328125">
        <ele>1162.4000244140625</ele>
        <time>2019-07-07T12:56:58.000Z</time>
      </trkpt>
      <trkpt lat="41.06327078305184841156005859375" lon="-2.27591327391564846038818359375">
        <ele>1160.5999755859375</ele>
        <time>2019-07-07T12:57:00.000Z</time>
      </trkpt>
      <trkpt lat="41.0634735412895679473876953125" lon="-2.27601821534335613250732421875">
        <ele>1159.199951171875</ele>
        <time>2019-07-07T12:57:01.000Z</time>
      </trkpt>
      <trkpt lat="41.06367948465049266815185546875" lon="-2.27612600661814212799072265625">
        <ele>1158.199951171875</ele>
        <time>2019-07-07T12:57:02.000Z</time>
      </trkpt>
      <trkpt lat="41.06388366781175136566162109375" lon="-2.27623346261680126190185546875">
        <ele>1156.199951171875</ele>
        <time>2019-07-07T12:57:03.000Z</time>
      </trkpt>
      <trkpt lat="41.0640813969075679779052734375" lon="-2.27633706294000148773193359375">
        <ele>1153.4000244140625</ele>
        <time>2019-07-07T12:57:04.000Z</time>
      </trkpt>
      <trkpt lat="41.06426931917667388916015625" lon="-2.276436388492584228515625">
        <ele>1152</ele>
        <time>2019-07-07T12:57:05.000Z</time>
      </trkpt>
      <trkpt lat="41.06461339630186557769775390625" lon="-2.27662322111427783966064453125">
        <ele>1150.5999755859375</ele>
        <time>2019-07-07T12:57:07.000Z</time>
      </trkpt>
      <trkpt lat="41.064903326332569122314453125" lon="-2.2767708264291286468505859375">
        <ele>1152.4000244140625</ele>
        <time>2019-07-07T12:57:09.000Z</time>
      </trkpt>
      <trkpt lat="41.06503718532621860504150390625" lon="-2.276812233030796051025390625">
        <ele>1153.800048828125</ele>
        <time>2019-07-07T12:57:10.000Z</time>
      </trkpt>
      <trkpt lat="41.06531915254890918731689453125" lon="-2.2767926193773746490478515625">
        <ele>1155.5999755859375</ele>
        <time>2019-07-07T12:57:12.000Z</time>
      </trkpt>
      <trkpt lat="41.0657540895044803619384765625" lon="-2.27661835961043834686279296875">
        <ele>1156</ele>
        <time>2019-07-07T12:57:15.000Z</time>
      </trkpt>
      <trkpt lat="41.06616488657891750335693359375" lon="-2.27649162523448467254638671875">
        <ele>1155.199951171875</ele>
        <time>2019-07-07T12:57:18.000Z</time>
      </trkpt>
      <trkpt lat="41.06642707251012325286865234375" lon="-2.2765673138201236724853515625">
        <ele>1155.199951171875</ele>
        <time>2019-07-07T12:57:20.000Z</time>
      </trkpt>
      <trkpt lat="41.06686435639858245849609375" lon="-2.276838719844818115234375">
        <ele>1155.4000244140625</ele>
        <time>2019-07-07T12:57:23.000Z</time>
      </trkpt>
      <trkpt lat="41.067287810146808624267578125" lon="-2.27716284804046154022216796875">
        <ele>1156.5999755859375</ele>
        <time>2019-07-07T12:57:26.000Z</time>
      </trkpt>
      <trkpt lat="41.067433319985866546630859375" lon="-2.2772563062608242034912109375">
        <ele>1157</ele>
        <time>2019-07-07T12:57:27.000Z</time>
      </trkpt>
      <trkpt lat="41.06775728054344654083251953125" lon="-2.2773709706962108612060546875">
        <ele>1157.800048828125</ele>
        <time>2019-07-07T12:57:29.000Z</time>
      </trkpt>
      <trkpt lat="41.06808350421488285064697265625" lon="-2.27737985551357269287109375">
        <ele>1156.800048828125</ele>
        <time>2019-07-07T12:57:31.000Z</time>
      </trkpt>
      <trkpt lat="41.06841207481920719146728515625" lon="-2.27727566845715045928955078125">
        <ele>1155.4000244140625</ele>
        <time>2019-07-07T12:57:33.000Z</time>
      </trkpt>
      <trkpt lat="41.06873989105224609375" lon="-2.2771704755723476409912109375">
        <ele>1154.800048828125</ele>
        <time>2019-07-07T12:57:35.000Z</time>
      </trkpt>
      <trkpt lat="41.0690860636532306671142578125" lon="-2.2771838866174221038818359375">
        <ele>1155</ele>
        <time>2019-07-07T12:57:37.000Z</time>
      </trkpt>
      <trkpt lat="41.0696208290755748748779296875" lon="-2.27742813527584075927734375">
        <ele>1154.4000244140625</ele>
        <time>2019-07-07T12:57:40.000Z</time>
      </trkpt>
      <trkpt lat="41.06994043104350566864013671875" lon="-2.2777203284204006195068359375">
        <ele>1153.5999755859375</ele>
        <time>2019-07-07T12:57:42.000Z</time>
      </trkpt>
      <trkpt lat="41.0700903832912445068359375" lon="-2.2779050655663013458251953125">
        <ele>1152.4000244140625</ele>
        <time>2019-07-07T12:57:43.000Z</time>
      </trkpt>
      <trkpt lat="41.0702427662909030914306640625" lon="-2.2780998609960079193115234375">
        <ele>1150.5999755859375</ele>
        <time>2019-07-07T12:57:44.000Z</time>
      </trkpt>
      <trkpt lat="41.0704010166227817535400390625" lon="-2.27830060757696628570556640625">
        <ele>1148.5999755859375</ele>
        <time>2019-07-07T12:57:45.000Z</time>
      </trkpt>
      <trkpt lat="41.07056622393429279327392578125" lon="-2.2785058803856372833251953125">
        <ele>1145.800048828125</ele>
        <time>2019-07-07T12:57:46.000Z</time>
      </trkpt>
      <trkpt lat="41.07073738239705562591552734375" lon="-2.27871500886976718902587890625">
        <ele>1143</ele>
        <time>2019-07-07T12:57:47.000Z</time>
      </trkpt>
      <trkpt lat="41.0709113068878650665283203125" lon="-2.2789276577532291412353515625">
        <ele>1140.800048828125</ele>
        <time>2019-07-07T12:57:48.000Z</time>
      </trkpt>
      <trkpt lat="41.07108690775930881500244140625" lon="-2.27914399467408657073974609375">
        <ele>1138.800048828125</ele>
        <time>2019-07-07T12:57:49.000Z</time>
      </trkpt>
      <trkpt lat="41.07126125134527683258056640625" lon="-2.27935957722365856170654296875">
        <ele>1136.4000244140625</ele>
        <time>2019-07-07T12:57:50.000Z</time>
      </trkpt>
      <trkpt lat="41.07143257744610309600830078125" lon="-2.279571555554866790771484375">
        <ele>1135</ele>
        <time>2019-07-07T12:57:51.000Z</time>
      </trkpt>
      <trkpt lat="41.07159736566245555877685546875" lon="-2.279774062335491180419921875">
        <ele>1133.199951171875</ele>
        <time>2019-07-07T12:57:52.000Z</time>
      </trkpt>
      <trkpt lat="41.0717562027275562286376953125" lon="-2.27996760047972202301025390625">
        <ele>1131.5999755859375</ele>
        <time>2019-07-07T12:57:53.000Z</time>
      </trkpt>
      <trkpt lat="41.0720556043088436126708984375" lon="-2.28034503757953643798828125">
        <ele>1130.199951171875</ele>
        <time>2019-07-07T12:57:55.000Z</time>
      </trkpt>
      <trkpt lat="41.07232692651450634002685546875" lon="-2.2807187028229236602783203125">
        <ele>1130.5999755859375</ele>
        <time>2019-07-07T12:57:57.000Z</time>
      </trkpt>
      <trkpt lat="41.072434298694133758544921875" lon="-2.28092833422124385833740234375">
        <ele>1131.4000244140625</ele>
        <time>2019-07-07T12:57:58.000Z</time>
      </trkpt>
      <trkpt lat="41.07252038083970546722412109375" lon="-2.281154058873653411865234375">
        <ele>1133</ele>
        <time>2019-07-07T12:57:59.000Z</time>
      </trkpt>
      <trkpt lat="41.0726517252624034881591796875" lon="-2.28161640465259552001953125">
        <ele>1134.800048828125</ele>
        <time>2019-07-07T12:58:01.000Z</time>
      </trkpt>
      <trkpt lat="41.0727087222039699554443359375" lon="-2.28183500468730926513671875">
        <ele>1136.5999755859375</ele>
        <time>2019-07-07T12:58:02.000Z</time>
      </trkpt>
      <trkpt lat="41.07277586124837398529052734375" lon="-2.2820319794118404388427734375">
        <ele>1138.199951171875</ele>
        <time>2019-07-07T12:58:03.000Z</time>
      </trkpt>
      <trkpt lat="41.072866804897785186767578125" lon="-2.28220070712268352508544921875">
        <ele>1139.5999755859375</ele>
        <time>2019-07-07T12:58:04.000Z</time>
      </trkpt>
      <trkpt lat="41.07298222370445728302001953125" lon="-2.2823424451053142547607421875">
        <ele>1140</ele>
        <time>2019-07-07T12:58:05.000Z</time>
      </trkpt>
      <trkpt lat="41.07322479598224163055419921875" lon="-2.2826069779694080352783203125">
        <ele>1139.800048828125</ele>
        <time>2019-07-07T12:58:07.000Z</time>
      </trkpt>
      <trkpt lat="41.0733680427074432373046875" lon="-2.28297167457640171051025390625">
        <ele>1140.5999755859375</ele>
        <time>2019-07-07T12:58:09.000Z</time>
      </trkpt>
      <trkpt lat="41.07340198941528797149658203125" lon="-2.2831853292882442474365234375">
        <ele>1140.800048828125</ele>
        <time>2019-07-07T12:58:10.000Z</time>
      </trkpt>
      <trkpt lat="41.0734714753925800323486328125" lon="-2.28383098728954792022705078125">
        <ele>1141</ele>
        <time>2019-07-07T12:58:13.000Z</time>
      </trkpt>
      <trkpt lat="41.07351816259324550628662109375" lon="-2.28418671526014804840087890625">
        <ele>1139.199951171875</ele>
        <time>2019-07-07T12:58:15.000Z</time>
      </trkpt>
      <trkpt lat="41.0735603235661983489990234375" lon="-2.28433222509920597076416015625">
        <ele>1138.199951171875</ele>
        <time>2019-07-07T12:58:16.000Z</time>
      </trkpt>
      <trkpt lat="41.07363081537187099456787109375" lon="-2.28445493616163730621337890625">
        <ele>1137.5999755859375</ele>
        <time>2019-07-07T12:58:17.000Z</time>
      </trkpt>
      <trkpt lat="41.0737293027341365814208984375" lon="-2.2845447063446044921875">
        <ele>1137.5999755859375</ele>
        <time>2019-07-07T12:58:18.000Z</time>
      </trkpt>
      <trkpt lat="41.07398838736116886138916015625" lon="-2.28459826670587062835693359375">
        <ele>1137.4000244140625</ele>
        <time>2019-07-07T12:58:20.000Z</time>
      </trkpt>
      <trkpt lat="41.074471771717071533203125" lon="-2.28445996530354022979736328125">
        <ele>1138.4000244140625</ele>
        <time>2019-07-07T12:58:23.000Z</time>
      </trkpt>
      <trkpt lat="41.0746432654559612274169921875" lon="-2.2844144515693187713623046875">
        <ele>1138.800048828125</ele>
        <time>2019-07-07T12:58:24.000Z</time>
      </trkpt>
      <trkpt lat="41.0751357860863208770751953125" lon="-2.28431059978902339935302734375">
        <ele>1137.4000244140625</ele>
        <time>2019-07-07T12:58:27.000Z</time>
      </trkpt>
      <trkpt lat="41.07528959400951862335205078125" lon="-2.28430087678134441375732421875">
        <ele>1135.800048828125</ele>
        <time>2019-07-07T12:58:28.000Z</time>
      </trkpt>
      <trkpt lat="41.0754371993243694305419921875" lon="-2.2843235917389392852783203125">
        <ele>1133.800048828125</ele>
        <time>2019-07-07T12:58:29.000Z</time>
      </trkpt>
      <trkpt lat="41.0755723156034946441650390625" lon="-2.28438218124210834503173828125">
        <ele>1132.4000244140625</ele>
        <time>2019-07-07T12:58:30.000Z</time>
      </trkpt>
      <trkpt lat="41.07576551847159862518310546875" lon="-2.28458837606012821197509765625">
        <ele>1131.199951171875</ele>
        <time>2019-07-07T12:58:32.000Z</time>
      </trkpt>
      <trkpt lat="41.07581966556608676910400390625" lon="-2.2848912142217159271240234375">
        <ele>1131</ele>
        <time>2019-07-07T12:58:34.000Z</time>
      </trkpt>
      <trkpt lat="41.07573199085891246795654296875" lon="-2.2853884287178516387939453125">
        <ele>1131.5999755859375</ele>
        <time>2019-07-07T12:58:37.000Z</time>
      </trkpt>
      <trkpt lat="41.07577960006892681121826171875" lon="-2.28573736734688282012939453125">
        <ele>1132</ele>
        <time>2019-07-07T12:58:39.000Z</time>
      </trkpt>
      <trkpt lat="41.07592997141182422637939453125" lon="-2.28606283664703369140625">
        <ele>1131.800048828125</ele>
        <time>2019-07-07T12:58:41.000Z</time>
      </trkpt>
      <trkpt lat="41.07613801024854183197021484375" lon="-2.2863211669027805328369140625">
        <ele>1131.199951171875</ele>
        <time>2019-07-07T12:58:43.000Z</time>
      </trkpt>
      <trkpt lat="41.0763970948755741119384765625" lon="-2.286433987319469451904296875">
        <ele>1130.4000244140625</ele>
        <time>2019-07-07T12:58:45.000Z</time>
      </trkpt>
      <trkpt lat="41.07654319144785404205322265625" lon="-2.28642870672047138214111328125">
        <ele>1130</ele>
        <time>2019-07-07T12:58:46.000Z</time>
      </trkpt>
      <trkpt lat="41.07669532299041748046875" lon="-2.28639065288007259368896484375">
        <ele>1129.800048828125</ele>
        <time>2019-07-07T12:58:47.000Z</time>
      </trkpt>
      <trkpt lat="41.07701928354799747467041015625" lon="-2.2862926684319972991943359375">
        <ele>1128.4000244140625</ele>
        <time>2019-07-07T12:58:49.000Z</time>
      </trkpt>
      <trkpt lat="41.07719228602945804595947265625" lon="-2.28626593016088008880615234375">
        <ele>1127.5999755859375</ele>
        <time>2019-07-07T12:58:50.000Z</time>
      </trkpt>
      <trkpt lat="41.0773730836808681488037109375" lon="-2.286267019808292388916015625">
        <ele>1126.800048828125</ele>
        <time>2019-07-07T12:58:51.000Z</time>
      </trkpt>
      <trkpt lat="41.07793693430721759796142578125" lon="-2.28630733676254749298095703125">
        <ele>1125.800048828125</ele>
        <time>2019-07-07T12:58:54.000Z</time>
      </trkpt>
      <trkpt lat="41.0781204141676425933837890625" lon="-2.2862748987972736358642578125">
        <ele>1125.199951171875</ele>
        <time>2019-07-07T12:58:55.000Z</time>
      </trkpt>
      <trkpt lat="41.07846222817897796630859375" lon="-2.28624195791780948638916015625">
        <ele>1123.199951171875</ele>
        <time>2019-07-07T12:58:57.000Z</time>
      </trkpt>
      <trkpt lat="41.0787889547646045684814453125" lon="-2.28634119965136051177978515625">
        <ele>1123</ele>
        <time>2019-07-07T12:58:59.000Z</time>
      </trkpt>
      <trkpt lat="41.07908424921333789825439453125" lon="-2.2865263558924198150634765625">
        <ele>1121</ele>
        <time>2019-07-07T12:59:01.000Z</time>
      </trkpt>
      <trkpt lat="41.0792147554457187652587890625" lon="-2.28660305030643939971923828125">
        <ele>1119.5999755859375</ele>
        <time>2019-07-07T12:59:02.000Z</time>
      </trkpt>
      <trkpt lat="41.07933587394654750823974609375" lon="-2.28665686212480068206787109375">
        <ele>1119.199951171875</ele>
        <time>2019-07-07T12:59:03.000Z</time>
      </trkpt>
      <trkpt lat="41.0795584134757518768310546875" lon="-2.28663540445268154144287109375">
        <ele>1119</ele>
        <time>2019-07-07T12:59:05.000Z</time>
      </trkpt>
      <trkpt lat="41.08006417751312255859375" lon="-2.286261655390262603759765625">
        <ele>1119.4000244140625</ele>
        <time>2019-07-07T12:59:09.000Z</time>
      </trkpt>
      <trkpt lat="41.0805615596473217010498046875" lon="-2.2859305702149868011474609375">
        <ele>1119.199951171875</ele>
        <time>2019-07-07T12:59:12.000Z</time>
      </trkpt>
      <trkpt lat="41.08110847882926464080810546875" lon="-2.28556872345507144927978515625">
        <ele>1119</ele>
        <time>2019-07-07T12:59:15.000Z</time>
      </trkpt>
      <trkpt lat="41.08148030005395412445068359375" lon="-2.28532464243471622467041015625">
        <ele>1118.4000244140625</ele>
        <time>2019-07-07T12:59:17.000Z</time>
      </trkpt>
      <trkpt lat="41.081842146813869476318359375" lon="-2.2850883565843105316162109375">
        <ele>1116.4000244140625</ele>
        <time>2019-07-07T12:59:19.000Z</time>
      </trkpt>
      <trkpt lat="41.08201841823756694793701171875" lon="-2.28497344069182872772216796875">
        <ele>1115.4000244140625</ele>
        <time>2019-07-07T12:59:20.000Z</time>
      </trkpt>
      <trkpt lat="41.08236777596175670623779296875" lon="-2.28477663360536098480224609375">
        <ele>1114</ele>
        <time>2019-07-07T12:59:22.000Z</time>
      </trkpt>
      <trkpt lat="41.082926429808139801025390625" lon="-2.28461117483675479888916015625">
        <ele>1113</ele>
        <time>2019-07-07T12:59:25.000Z</time>
      </trkpt>
      <trkpt lat="41.08350276947021484375" lon="-2.28447522036731243133544921875">
        <ele>1112.5999755859375</ele>
        <time>2019-07-07T12:59:28.000Z</time>
      </trkpt>
      <trkpt lat="41.08385958708822727203369140625" lon="-2.284388132393360137939453125">
        <ele>1111.199951171875</ele>
        <time>2019-07-07T12:59:30.000Z</time>
      </trkpt>
      <trkpt lat="41.0840279795229434967041015625" lon="-2.28435653261840343475341796875">
        <ele>1110</ele>
        <time>2019-07-07T12:59:31.000Z</time>
      </trkpt>
      <trkpt lat="41.08419268392026424407958984375" lon="-2.284348905086517333984375">
        <ele>1109.199951171875</ele>
        <time>2019-07-07T12:59:32.000Z</time>
      </trkpt>
      <trkpt lat="41.08435194008052349090576171875" lon="-2.2843822650611400604248046875">
        <ele>1108.800048828125</ele>
        <time>2019-07-07T12:59:33.000Z</time>
      </trkpt>
      <trkpt lat="41.08450591564178466796875" lon="-2.28445954620838165283203125">
        <ele>1108.199951171875</ele>
        <time>2019-07-07T12:59:34.000Z</time>
      </trkpt>
      <trkpt lat="41.0849791578948497772216796875" lon="-2.28483798913657665252685546875">
        <ele>1108</ele>
        <time>2019-07-07T12:59:37.000Z</time>
      </trkpt>
      <trkpt lat="41.0854914598166942596435546875" lon="-2.28527368046343326568603515625">
        <ele>1108</ele>
        <time>2019-07-07T12:59:40.000Z</time>
      </trkpt>
      <trkpt lat="41.0860312543809413909912109375" lon="-2.28571079671382904052734375">
        <ele>1107</ele>
        <time>2019-07-07T12:59:43.000Z</time>
      </trkpt>
      <trkpt lat="41.08664187602698802947998046875" lon="-2.28601950220763683319091796875">
        <ele>1106.4000244140625</ele>
        <time>2019-07-07T12:59:46.000Z</time>
      </trkpt>
      <trkpt lat="41.08685879968106746673583984375" lon="-2.28610248304903507232666015625">
        <ele>1105</ele>
        <time>2019-07-07T12:59:47.000Z</time>
      </trkpt>
      <trkpt lat="41.08729532919824123382568359375" lon="-2.28627213276922702789306640625">
        <ele>1104.5999755859375</ele>
        <time>2019-07-07T12:59:49.000Z</time>
      </trkpt>
      <trkpt lat="41.08751242049038410186767578125" lon="-2.2863597236573696136474609375">
        <ele>1103.5999755859375</ele>
        <time>2019-07-07T12:59:50.000Z</time>
      </trkpt>
      <trkpt lat="41.087727248668670654296875" lon="-2.28645167313516139984130859375">
        <ele>1101.5999755859375</ele>
        <time>2019-07-07T12:59:51.000Z</time>
      </trkpt>
      <trkpt lat="41.08793486841022968292236328125" lon="-2.28655259124934673309326171875">
        <ele>1099.800048828125</ele>
        <time>2019-07-07T12:59:52.000Z</time>
      </trkpt>
      <trkpt lat="41.08831188641488552093505859375" lon="-2.28676021099090576171875">
        <ele>1098.800048828125</ele>
        <time>2019-07-07T12:59:54.000Z</time>
      </trkpt>
      <trkpt lat="41.0884796082973480224609375" lon="-2.286855764687061309814453125">
        <ele>1097.4000244140625</ele>
        <time>2019-07-07T12:59:55.000Z</time>
      </trkpt>
      <trkpt lat="41.08863056637346744537353515625" lon="-2.2869447804987430572509765625">
        <ele>1096</ele>
        <time>2019-07-07T12:59:56.000Z</time>
      </trkpt>
      <trkpt lat="41.08876266516745090484619140625" lon="-2.28703656233847141265869140625">
        <ele>1095.199951171875</ele>
        <time>2019-07-07T12:59:57.000Z</time>
      </trkpt>
      <trkpt lat="41.0889511741697788238525390625" lon="-2.28726874105632305145263671875">
        <ele>1096.4000244140625</ele>
        <time>2019-07-07T12:59:59.000Z</time>
      </trkpt>
      <trkpt lat="41.089050583541393280029296875" lon="-2.28757627308368682861328125">
        <ele>1096.800048828125</ele>
        <time>2019-07-07T13:00:01.000Z</time>
      </trkpt>
      <trkpt lat="41.08912258408963680267333984375" lon="-2.28793443180620670318603515625">
        <ele>1097.199951171875</ele>
        <time>2019-07-07T13:00:03.000Z</time>
      </trkpt>
      <trkpt lat="41.0891674272716045379638671875" lon="-2.2881192527711391448974609375">
        <ele>1098.5999755859375</ele>
        <time>2019-07-07T13:00:04.000Z</time>
      </trkpt>
      <trkpt lat="41.08923037536442279815673828125" lon="-2.2883019782602787017822265625">
        <ele>1100</ele>
        <time>2019-07-07T13:00:05.000Z</time>
      </trkpt>
      <trkpt lat="41.089316792786121368408203125" lon="-2.2884736396372318267822265625">
        <ele>1101.5999755859375</ele>
        <time>2019-07-07T13:00:06.000Z</time>
      </trkpt>
      <trkpt lat="41.08942550607025623321533203125" lon="-2.2886342369019985198974609375">
        <ele>1101.800048828125</ele>
        <time>2019-07-07T13:00:07.000Z</time>
      </trkpt>
      <trkpt lat="41.08981928788125514984130859375" lon="-2.28911024518311023712158203125">
        <ele>1102.199951171875</ele>
        <time>2019-07-07T13:00:10.000Z</time>
      </trkpt>
      <trkpt lat="41.09025933779776096343994140625" lon="-2.28963327594101428985595703125">
        <ele>1101.800048828125</ele>
        <time>2019-07-07T13:00:13.000Z</time>
      </trkpt>
      <trkpt lat="41.09073123894631862640380859375" lon="-2.29020274244248867034912109375">
        <ele>1101.4000244140625</ele>
        <time>2019-07-07T13:00:16.000Z</time>
      </trkpt>
      <trkpt lat="41.0912020504474639892578125" lon="-2.290777824819087982177734375">
        <ele>1101.5999755859375</ele>
        <time>2019-07-07T13:00:19.000Z</time>
      </trkpt>
      <trkpt lat="41.0916685871779918670654296875" lon="-2.291343770921230316162109375">
        <ele>1100.5999755859375</ele>
        <time>2019-07-07T13:00:22.000Z</time>
      </trkpt>
      <trkpt lat="41.0918167792260646820068359375" lon="-2.2915162704885005950927734375">
        <ele>1099.4000244140625</ele>
        <time>2019-07-07T13:00:23.000Z</time>
      </trkpt>
      <trkpt lat="41.0919664800167083740234375" lon="-2.29167225770652294158935546875">
        <ele>1096.800048828125</ele>
        <time>2019-07-07T13:00:24.000Z</time>
      </trkpt>
      <trkpt lat="41.09212196432054042816162109375" lon="-2.2917979024350643157958984375">
        <ele>1095.199951171875</ele>
        <time>2019-07-07T13:00:25.000Z</time>
      </trkpt>
      <trkpt lat="41.09243947081267833709716796875" lon="-2.29196143336594104766845703125">
        <ele>1094</ele>
        <time>2019-07-07T13:00:27.000Z</time>
      </trkpt>
      <trkpt lat="41.09258481301367282867431640625" lon="-2.2920325957238674163818359375">
        <ele>1095.199951171875</ele>
        <time>2019-07-07T13:00:28.000Z</time>
      </trkpt>
      <trkpt lat="41.0927153192460536956787109375" lon="-2.29212353937327861785888671875">
        <ele>1096.800048828125</ele>
        <time>2019-07-07T13:00:29.000Z</time>
      </trkpt>
      <trkpt lat="41.0928296484053134918212890625" lon="-2.29224541224539279937744140625">
        <ele>1098.199951171875</ele>
        <time>2019-07-07T13:00:30.000Z</time>
      </trkpt>
      <trkpt lat="41.09293148852884769439697265625" lon="-2.2923977114260196685791015625">
        <ele>1099.199951171875</ele>
        <time>2019-07-07T13:00:31.000Z</time>
      </trkpt>
      <trkpt lat="41.09303156845271587371826171875" lon="-2.29257029481232166290283203125">
        <ele>1099.800048828125</ele>
        <time>2019-07-07T13:00:32.000Z</time>
      </trkpt>
      <trkpt lat="41.09336189925670623779296875" lon="-2.29315199889242649078369140625">
        <ele>1100.4000244140625</ele>
        <time>2019-07-07T13:00:35.000Z</time>
      </trkpt>
      <trkpt lat="41.0937181301414966583251953125" lon="-2.293776534497737884521484375">
        <ele>1100.5999755859375</ele>
        <time>2019-07-07T13:00:38.000Z</time>
      </trkpt>
      <trkpt lat="41.09414133243262767791748046875" lon="-2.29434750974178314208984375">
        <ele>1100.5999755859375</ele>
        <time>2019-07-07T13:00:41.000Z</time>
      </trkpt>
      <trkpt lat="41.0946284048259258270263671875" lon="-2.2948418743908405303955078125">
        <ele>1099.4000244140625</ele>
        <time>2019-07-07T13:00:44.000Z</time>
      </trkpt>
      <trkpt lat="41.09477953054010868072509765625" lon="-2.29497849941253662109375">
        <ele>1098.5999755859375</ele>
        <time>2019-07-07T13:00:45.000Z</time>
      </trkpt>
      <trkpt lat="41.0949289798736572265625" lon="-2.29508486576378345489501953125">
        <ele>1098.199951171875</ele>
        <time>2019-07-07T13:00:46.000Z</time>
      </trkpt>
      <trkpt lat="41.09542451798915863037109375" lon="-2.29528628289699554443359375">
        <ele>1098.5999755859375</ele>
        <time>2019-07-07T13:00:49.000Z</time>
      </trkpt>
      <trkpt lat="41.096004210412502288818359375" lon="-2.29552508331835269927978515625">
        <ele>1098.5999755859375</ele>
        <time>2019-07-07T13:00:52.000Z</time>
      </trkpt>
      <trkpt lat="41.096395812928676605224609375" lon="-2.2956974990665912628173828125">
        <ele>1097.4000244140625</ele>
        <time>2019-07-07T13:00:54.000Z</time>
      </trkpt>
      <trkpt lat="41.09658650122582912445068359375" lon="-2.295786179602146148681640625">
        <ele>1095.800048828125</ele>
        <time>2019-07-07T13:00:55.000Z</time>
      </trkpt>
      <trkpt lat="41.09676972962915897369384765625" lon="-2.29587209410965442657470703125">
        <ele>1093.800048828125</ele>
        <time>2019-07-07T13:00:56.000Z</time>
      </trkpt>
      <trkpt lat="41.096943654119968414306640625" lon="-2.29595608077943325042724609375">
        <ele>1091.800048828125</ele>
        <time>2019-07-07T13:00:57.000Z</time>
      </trkpt>
      <trkpt lat="41.09710684977471828460693359375" lon="-2.2960441745817661285400390625">
        <ele>1090.4000244140625</ele>
        <time>2019-07-07T13:00:58.000Z</time>
      </trkpt>
      <trkpt lat="41.09739585779607295989990234375" lon="-2.2962605953216552734375">
        <ele>1089</ele>
        <time>2019-07-07T13:01:00.000Z</time>
      </trkpt>
      <trkpt lat="41.09762066043913364410400390625" lon="-2.296596877276897430419921875">
        <ele>1088.800048828125</ele>
        <time>2019-07-07T13:01:02.000Z</time>
      </trkpt>
      <trkpt lat="41.09779081307351589202880859375" lon="-2.29697196744382381439208984375">
        <ele>1088.800048828125</ele>
        <time>2019-07-07T13:01:04.000Z</time>
      </trkpt>
      <trkpt lat="41.09794755466282367706298828125" lon="-2.29762726463377475738525390625">
        <ele>1088.199951171875</ele>
        <time>2019-07-07T13:01:07.000Z</time>
      </trkpt>
      <trkpt lat="41.0979960858821868896484375" lon="-2.29787302203476428985595703125">
        <ele>1087.800048828125</ele>
        <time>2019-07-07T13:01:08.000Z</time>
      </trkpt>
      <trkpt lat="41.09814318828284740447998046875" lon="-2.2985912673175334930419921875">
        <ele>1087</ele>
        <time>2019-07-07T13:01:11.000Z</time>
      </trkpt>
      <trkpt lat="41.0981887020170688629150390625" lon="-2.298811376094818115234375">
        <ele>1086.800048828125</ele>
        <time>2019-07-07T13:01:12.000Z</time>
      </trkpt>
      <trkpt lat="41.0983613692224025726318359375" lon="-2.299389727413654327392578125">
        <ele>1086.4000244140625</ele>
        <time>2019-07-07T13:01:15.000Z</time>
      </trkpt>
      <trkpt lat="41.09863671474158763885498046875" lon="-2.29988954029977321624755859375">
        <ele>1086.4000244140625</ele>
        <time>2019-07-07T13:01:18.000Z</time>
      </trkpt>
      <trkpt lat="41.09897551126778125762939453125" lon="-2.3003952205181121826171875">
        <ele>1086.5999755859375</ele>
        <time>2019-07-07T13:01:21.000Z</time>
      </trkpt>
      <trkpt lat="41.0992210172116756439208984375" lon="-2.30068112723529338836669921875">
        <ele>1085.199951171875</ele>
        <time>2019-07-07T13:01:23.000Z</time>
      </trkpt>
      <trkpt lat="41.0994900763034820556640625" lon="-2.30097818188369274139404296875">
        <ele>1086.5999755859375</ele>
        <time>2019-07-07T13:01:26.000Z</time>
      </trkpt>
      <trkpt lat="41.09954011626541614532470703125" lon="-2.3010605759918689727783203125">
        <ele>1087</ele>
        <time>2019-07-07T13:01:27.000Z</time>
      </trkpt>
      <trkpt lat="41.09956610016524791717529296875" lon="-2.30114833451807498931884765625">
        <ele>1087.800048828125</ele>
        <time>2019-07-07T13:01:28.000Z</time>
      </trkpt>
      <trkpt lat="41.09956576488912105560302734375" lon="-2.30123181827366352081298828125">
        <ele>1088.4000244140625</ele>
        <time>2019-07-07T13:01:29.000Z</time>
      </trkpt>
      <trkpt lat="41.099484376609325408935546875" lon="-2.30138487182557582855224609375">
        <ele>1088.5999755859375</ele>
        <time>2019-07-07T13:01:31.000Z</time>
      </trkpt>
      <trkpt lat="41.09936661086976528167724609375" lon="-2.30152484960854053497314453125">
        <ele>1088</ele>
        <time>2019-07-07T13:01:33.000Z</time>
      </trkpt>
      <trkpt lat="41.0992900840938091278076171875" lon="-2.30166398920118808746337890625">
        <ele>1087</ele>
        <time>2019-07-07T13:01:35.000Z</time>
      </trkpt>
      <trkpt lat="41.0992421396076679229736328125" lon="-2.30178100056946277618408203125">
        <ele>1086.800048828125</ele>
        <time>2019-07-07T13:01:37.000Z</time>
      </trkpt>
      <trkpt lat="41.09912286512553691864013671875" lon="-2.30221350677311420440673828125">
        <ele>1088</ele>
        <time>2019-07-07T13:01:45.000Z</time>
      </trkpt>
      <trkpt lat="41.09912286512553691864013671875" lon="-2.3022075556218624114990234375">
        <ele>1089</ele>
        <time>2019-07-07T13:01:48.000Z</time>
      </trkpt>
      <trkpt lat="41.09903234057128429412841796875" lon="-2.30237678624689579010009765625">
        <ele>1089.4000244140625</ele>
        <time>2019-07-07T13:02:08.000Z</time>
      </trkpt>
      <trkpt lat="41.09877736307680606842041015625" lon="-2.30285950005054473876953125">
        <ele>1090.4000244140625</ele>
        <time>2019-07-07T13:02:13.000Z</time>
      </trkpt>
      <trkpt lat="41.0985809750854969024658203125" lon="-2.3033391125500202178955078125">
        <ele>1091.4000244140625</ele>
        <time>2019-07-07T13:02:17.000Z</time>
      </trkpt>
      <trkpt lat="41.09852238558232784271240234375" lon="-2.3034467361867427825927734375">
        <ele>1092</ele>
        <time>2019-07-07T13:02:18.000Z</time>
      </trkpt>
      <trkpt lat="41.0984532348811626434326171875" lon="-2.30354388244450092315673828125">
        <ele>1092.5999755859375</ele>
        <time>2019-07-07T13:02:19.000Z</time>
      </trkpt>
      <trkpt lat="41.09837184660136699676513671875" lon="-2.303628623485565185546875">
        <ele>1092.800048828125</ele>
        <time>2019-07-07T13:02:20.000Z</time>
      </trkpt>
      <trkpt lat="41.0978960059583187103271484375" lon="-2.30403900146484375">
        <ele>1093.5999755859375</ele>
        <time>2019-07-07T13:02:25.000Z</time>
      </trkpt>
      <trkpt lat="41.09760205261409282684326171875" lon="-2.304322309792041778564453125">
        <ele>1093.199951171875</ele>
        <time>2019-07-07T13:02:28.000Z</time>
      </trkpt>
      <trkpt lat="41.097513623535633087158203125" lon="-2.3044341243803501129150390625">
        <ele>1093.800048828125</ele>
        <time>2019-07-07T13:02:29.000Z</time>
      </trkpt>
      <trkpt lat="41.09742854721844196319580078125" lon="-2.3045501299202442169189453125">
        <ele>1094</ele>
        <time>2019-07-07T13:02:30.000Z</time>
      </trkpt>
      <trkpt lat="41.097200810909271240234375" lon="-2.3050557263195514678955078125">
        <ele>1094.800048828125</ele>
        <time>2019-07-07T13:02:33.000Z</time>
      </trkpt>
      <trkpt lat="41.09704297967255115509033203125" lon="-2.3054262064397335052490234375">
        <ele>1095.800048828125</ele>
        <time>2019-07-07T13:02:35.000Z</time>
      </trkpt>
      <trkpt lat="41.09681163914501667022705078125" lon="-2.3059753887355327606201171875">
        <ele>1093.4000244140625</ele>
        <time>2019-07-07T13:02:38.000Z</time>
      </trkpt>
      <trkpt lat="41.0966313444077968597412109375" lon="-2.30646430514752864837646484375">
        <ele>1093.4000244140625</ele>
        <time>2019-07-07T13:02:41.000Z</time>
      </trkpt>
      <trkpt lat="41.09659102745354175567626953125" lon="-2.30685708113014698028564453125">
        <ele>1097</ele>
        <time>2019-07-07T13:02:43.000Z</time>
      </trkpt>
      <trkpt lat="41.09659857116639614105224609375" lon="-2.307080291211605072021484375">
        <ele>1098.5999755859375</ele>
        <time>2019-07-07T13:02:44.000Z</time>
      </trkpt>
      <trkpt lat="41.09661650843918323516845703125" lon="-2.30731272138655185699462890625">
        <ele>1100.199951171875</ele>
        <time>2019-07-07T13:02:45.000Z</time>
      </trkpt>
      <trkpt lat="41.09664534218609333038330078125" lon="-2.30754255317151546478271484375">
        <ele>1101.5999755859375</ele>
        <time>2019-07-07T13:02:46.000Z</time>
      </trkpt>
      <trkpt lat="41.0967274010181427001953125" lon="-2.30796634219586849212646484375">
        <ele>1103.199951171875</ele>
        <time>2019-07-07T13:02:48.000Z</time>
      </trkpt>
      <trkpt lat="41.09677107073366641998291015625" lon="-2.30815191753208637237548828125">
        <ele>1104.5999755859375</ele>
        <time>2019-07-07T13:02:49.000Z</time>
      </trkpt>
      <trkpt lat="41.09682555310428142547607421875" lon="-2.30832525528967380523681640625">
        <ele>1106.199951171875</ele>
        <time>2019-07-07T13:02:50.000Z</time>
      </trkpt>
      <trkpt lat="41.0968972183763980865478515625" lon="-2.30848954059183597564697265625">
        <ele>1107.5999755859375</ele>
        <time>2019-07-07T13:02:51.000Z</time>
      </trkpt>
      <trkpt lat="41.096987240016460418701171875" lon="-2.308649383485317230224609375">
        <ele>1108.199951171875</ele>
        <time>2019-07-07T13:02:52.000Z</time>
      </trkpt>
      <trkpt lat="41.09708991833031177520751953125" lon="-2.3088118247687816619873046875">
        <ele>1108.5999755859375</ele>
        <time>2019-07-07T13:02:53.000Z</time>
      </trkpt>
      <trkpt lat="41.09740692190825939178466796875" lon="-2.30930476449429988861083984375">
        <ele>1109.4000244140625</ele>
        <time>2019-07-07T13:02:56.000Z</time>
      </trkpt>
      <trkpt lat="41.09755092300474643707275390625" lon="-2.309583127498626708984375">
        <ele>1109.4000244140625</ele>
        <time>2019-07-07T13:02:58.000Z</time>
      </trkpt>
      <trkpt lat="41.097575984895229339599609375" lon="-2.30986853130161762237548828125">
        <ele>1109.800048828125</ele>
        <time>2019-07-07T13:03:00.000Z</time>
      </trkpt>
      <trkpt lat="41.097476072609424591064453125" lon="-2.31019659899175167083740234375">
        <ele>1111</ele>
        <time>2019-07-07T13:03:02.000Z</time>
      </trkpt>
      <trkpt lat="41.09733835794031620025634765625" lon="-2.3105581104755401611328125">
        <ele>1112.5999755859375</ele>
        <time>2019-07-07T13:03:04.000Z</time>
      </trkpt>
      <trkpt lat="41.097285635769367218017578125" lon="-2.31075097806751728057861328125">
        <ele>1113</ele>
        <time>2019-07-07T13:03:05.000Z</time>
      </trkpt>
      <trkpt lat="41.09725738875567913055419921875" lon="-2.310962788760662078857421875">
        <ele>1113.5999755859375</ele>
        <time>2019-07-07T13:03:06.000Z</time>
      </trkpt>
      <trkpt lat="41.09724976122379302978515625" lon="-2.311702407896518707275390625">
        <ele>1114</ele>
        <time>2019-07-07T13:03:09.000Z</time>
      </trkpt>
      <trkpt lat="41.09729326330125331878662109375" lon="-2.31220724992454051971435546875">
        <ele>1115</ele>
        <time>2019-07-07T13:03:11.000Z</time>
      </trkpt>
      <trkpt lat="41.097351349890232086181640625" lon="-2.31243498623371124267578125">
        <ele>1116</ele>
        <time>2019-07-07T13:03:12.000Z</time>
      </trkpt>
      <trkpt lat="41.09743894077837467193603515625" lon="-2.3126453720033168792724609375">
        <ele>1117.4000244140625</ele>
        <time>2019-07-07T13:03:13.000Z</time>
      </trkpt>
      <trkpt lat="41.097555868327617645263671875" lon="-2.31284628622233867645263671875">
        <ele>1118.4000244140625</ele>
        <time>2019-07-07T13:03:14.000Z</time>
      </trkpt>
      <trkpt lat="41.09798879362642765045166015625" lon="-2.313471324741840362548828125">
        <ele>1119.199951171875</ele>
        <time>2019-07-07T13:03:17.000Z</time>
      </trkpt>
      <trkpt lat="41.09843135811388492584228515625" lon="-2.3141309805214405059814453125">
        <ele>1118.4000244140625</ele>
        <time>2019-07-07T13:03:20.000Z</time>
      </trkpt>
      <trkpt lat="41.098780967295169830322265625" lon="-2.31488459743559360504150390625">
        <ele>1118.5999755859375</ele>
        <time>2019-07-07T13:03:23.000Z</time>
      </trkpt>
      <trkpt lat="41.09899277798831462860107421875" lon="-2.3154348693788051605224609375">
        <ele>1119</ele>
        <time>2019-07-07T13:03:25.000Z</time>
      </trkpt>
      <trkpt lat="41.09921657480299472808837890625" lon="-2.3160095326602458953857421875">
        <ele>1116.800048828125</ele>
        <time>2019-07-07T13:03:27.000Z</time>
      </trkpt>
      <trkpt lat="41.099450848996639251708984375" lon="-2.31660339049994945526123046875">
        <ele>1116.5999755859375</ele>
        <time>2019-07-07T13:03:29.000Z</time>
      </trkpt>
      <trkpt lat="41.099692247807979583740234375" lon="-2.317213006317615509033203125">
        <ele>1119.4000244140625</ele>
        <time>2019-07-07T13:03:31.000Z</time>
      </trkpt>
      <trkpt lat="41.09981437213718891143798828125" lon="-2.31752447783946990966796875">
        <ele>1121.4000244140625</ele>
        <time>2019-07-07T13:03:32.000Z</time>
      </trkpt>
      <trkpt lat="41.0999364964663982391357421875" lon="-2.3178404755890369415283203125">
        <ele>1122.4000244140625</ele>
        <time>2019-07-07T13:03:33.000Z</time>
      </trkpt>
      <trkpt lat="41.1001842655241489410400390625" lon="-2.31848713941872119903564453125">
        <ele>1124.199951171875</ele>
        <time>2019-07-07T13:03:35.000Z</time>
      </trkpt>
      <trkpt lat="41.100441254675388336181640625" lon="-2.319140844047069549560546875">
        <ele>1123.4000244140625</ele>
        <time>2019-07-07T13:03:37.000Z</time>
      </trkpt>
      <trkpt lat="41.100570671260356903076171875" lon="-2.31947117485105991363525390625">
        <ele>1122.199951171875</ele>
        <time>2019-07-07T13:03:38.000Z</time>
      </trkpt>
      <trkpt lat="41.1007010936737060546875" lon="-2.31980242766439914703369140625">
        <ele>1121</ele>
        <time>2019-07-07T13:03:39.000Z</time>
      </trkpt>
      <trkpt lat="41.10096302814781665802001953125" lon="-2.320463173091411590576171875">
        <ele>1121</ele>
        <time>2019-07-07T13:03:41.000Z</time>
      </trkpt>
      <trkpt lat="41.101217754185199737548828125" lon="-2.32111033983528614044189453125">
        <ele>1121.4000244140625</ele>
        <time>2019-07-07T13:03:43.000Z</time>
      </trkpt>
      <trkpt lat="41.101468540728092193603515625" lon="-2.32174870558083057403564453125">
        <ele>1122.199951171875</ele>
        <time>2019-07-07T13:03:45.000Z</time>
      </trkpt>
      <trkpt lat="41.10171890817582607269287109375" lon="-2.32238086871802806854248046875">
        <ele>1124.199951171875</ele>
        <time>2019-07-07T13:03:47.000Z</time>
      </trkpt>
      <trkpt lat="41.1018435470759868621826171875" lon="-2.32269569300115108489990234375">
        <ele>1126.5999755859375</ele>
        <time>2019-07-07T13:03:48.000Z</time>
      </trkpt>
      <trkpt lat="41.10196684487164020538330078125" lon="-2.323010601103305816650390625">
        <ele>1128</ele>
        <time>2019-07-07T13:03:49.000Z</time>
      </trkpt>
      <trkpt lat="41.1022140271961688995361328125" lon="-2.32363932766020298004150390625">
        <ele>1128.5999755859375</ele>
        <time>2019-07-07T13:03:51.000Z</time>
      </trkpt>
      <trkpt lat="41.102458275854587554931640625" lon="-2.324263192713260650634765625">
        <ele>1128.199951171875</ele>
        <time>2019-07-07T13:03:53.000Z</time>
      </trkpt>
      <trkpt lat="41.102693639695644378662109375" lon="-2.32488504610955715179443359375">
        <ele>1128</ele>
        <time>2019-07-07T13:03:55.000Z</time>
      </trkpt>
      <trkpt lat="41.10293361358344554901123046875" lon="-2.3255092464387416839599609375">
        <ele>1129</ele>
        <time>2019-07-07T13:03:57.000Z</time>
      </trkpt>
      <trkpt lat="41.10317233018577098846435546875" lon="-2.32613705098628997802734375">
        <ele>1130.5999755859375</ele>
        <time>2019-07-07T13:03:59.000Z</time>
      </trkpt>
      <trkpt lat="41.10340886749327182769775390625" lon="-2.32676611281931400299072265625">
        <ele>1131.4000244140625</ele>
        <time>2019-07-07T13:04:01.000Z</time>
      </trkpt>
      <trkpt lat="41.1036466620862483978271484375" lon="-2.32739760540425777435302734375">
        <ele>1128</ele>
        <time>2019-07-07T13:04:03.000Z</time>
      </trkpt>
      <trkpt lat="41.10376350581645965576171875" lon="-2.3277049697935581207275390625">
        <ele>1125.4000244140625</ele>
        <time>2019-07-07T13:04:04.000Z</time>
      </trkpt>
      <trkpt lat="41.10397598706185817718505859375" lon="-2.32827016152441501617431640625">
        <ele>1124</ele>
        <time>2019-07-07T13:04:06.000Z</time>
      </trkpt>
      <trkpt lat="41.10423968173563480377197265625" lon="-2.3289676196873188018798828125">
        <ele>1126.199951171875</ele>
        <time>2019-07-07T13:04:09.000Z</time>
      </trkpt>
      <trkpt lat="41.104332469403743743896484375" lon="-2.3291691206395626068115234375">
        <ele>1128.800048828125</ele>
        <time>2019-07-07T13:04:10.000Z</time>
      </trkpt>
      <trkpt lat="41.104443110525608062744140625" lon="-2.32935377396643161773681640625">
        <ele>1130.4000244140625</ele>
        <time>2019-07-07T13:04:11.000Z</time>
      </trkpt>
      <trkpt lat="41.10468492843210697174072265625" lon="-2.329686619341373443603515625">
        <ele>1131.5999755859375</ele>
        <time>2019-07-07T13:04:13.000Z</time>
      </trkpt>
      <trkpt lat="41.104789115488529205322265625" lon="-2.3298691771924495697021484375">
        <ele>1130.4000244140625</ele>
        <time>2019-07-07T13:04:14.000Z</time>
      </trkpt>
      <trkpt lat="41.10487134195864200592041015625" lon="-2.33007981441915035247802734375">
        <ele>1128.199951171875</ele>
        <time>2019-07-07T13:04:15.000Z</time>
      </trkpt>
      <trkpt lat="41.10493102110922336578369140625" lon="-2.33030964620411396026611328125">
        <ele>1126.5999755859375</ele>
        <time>2019-07-07T13:04:16.000Z</time>
      </trkpt>
      <trkpt lat="41.10501701943576335906982421875" lon="-2.33081490732729434967041015625">
        <ele>1125</ele>
        <time>2019-07-07T13:04:18.000Z</time>
      </trkpt>
      <trkpt lat="41.10509446822106838226318359375" lon="-2.33135738410055637359619140625">
        <ele>1122.800048828125</ele>
        <time>2019-07-07T13:04:20.000Z</time>
      </trkpt>
      <trkpt lat="41.10523042269051074981689453125" lon="-2.3321369849145412445068359375">
        <ele>1123.800048828125</ele>
        <time>2019-07-07T13:04:23.000Z</time>
      </trkpt>
      <trkpt lat="41.105454303324222564697265625" lon="-2.332720197737216949462890625">
        <ele>1122.199951171875</ele>
        <time>2019-07-07T13:04:26.000Z</time>
      </trkpt>
      <trkpt lat="41.10551155172288417816162109375" lon="-2.33288926072418689727783203125">
        <ele>1122.199951171875</ele>
        <time>2019-07-07T13:04:27.000Z</time>
      </trkpt>
      <trkpt lat="41.10554776154458522796630859375" lon="-2.3332574777305126190185546875">
        <ele>1121.5999755859375</ele>
        <time>2019-07-07T13:04:29.000Z</time>
      </trkpt>
      <trkpt lat="41.10553334467113018035888671875" lon="-2.33344833366572856903076171875">
        <ele>1121</ele>
        <time>2019-07-07T13:04:30.000Z</time>
      </trkpt>
      <trkpt lat="41.10552479512989521026611328125" lon="-2.33363449573516845703125">
        <ele>1120.5999755859375</ele>
        <time>2019-07-07T13:04:31.000Z</time>
      </trkpt>
      <trkpt lat="41.10558883287012577056884765625" lon="-2.33400371856987476348876953125">
        <ele>1121</ele>
        <time>2019-07-07T13:04:33.000Z</time>
      </trkpt>
      <trkpt lat="41.10581497661769390106201171875" lon="-2.33459816314280033111572265625">
        <ele>1121.4000244140625</ele>
        <time>2019-07-07T13:04:36.000Z</time>
      </trkpt>
      <trkpt lat="41.1059154756367206573486328125" lon="-2.33535706065595149993896484375">
        <ele>1119.4000244140625</ele>
        <time>2019-07-07T13:04:39.000Z</time>
      </trkpt>
      <trkpt lat="41.105939447879791259765625" lon="-2.33565662987530231475830078125">
        <ele>1118.4000244140625</ele>
        <time>2019-07-07T13:04:40.000Z</time>
      </trkpt>
      <trkpt lat="41.1059944331645965576171875" lon="-2.336277477443218231201171875">
        <ele>1118.199951171875</ele>
        <time>2019-07-07T13:04:42.000Z</time>
      </trkpt>
      <trkpt lat="41.1060425452888011932373046875" lon="-2.33657998032867908477783203125">
        <ele>1119.4000244140625</ele>
        <time>2019-07-07T13:04:43.000Z</time>
      </trkpt>
      <trkpt lat="41.10612041316926479339599609375" lon="-2.33687133528292179107666015625">
        <ele>1120.5999755859375</ele>
        <time>2019-07-07T13:04:44.000Z</time>
      </trkpt>
      <trkpt lat="41.106221415102481842041015625" lon="-2.33715380541980266571044921875">
        <ele>1122.4000244140625</ele>
        <time>2019-07-07T13:04:45.000Z</time>
      </trkpt>
      <trkpt lat="41.10643926076591014862060546875" lon="-2.33771078288555145263671875">
        <ele>1123.800048828125</ele>
        <time>2019-07-07T13:04:47.000Z</time>
      </trkpt>
      <trkpt lat="41.10661997459828853607177734375" lon="-2.33825552277266979217529296875">
        <ele>1122.199951171875</ele>
        <time>2019-07-07T13:04:49.000Z</time>
      </trkpt>
      <trkpt lat="41.10669876448810100555419921875" lon="-2.338517121970653533935546875">
        <ele>1120.4000244140625</ele>
        <time>2019-07-07T13:04:50.000Z</time>
      </trkpt>
      <trkpt lat="41.1067794822156429290771484375" lon="-2.33876698650419712066650390625">
        <ele>1119.199951171875</ele>
        <time>2019-07-07T13:04:51.000Z</time>
      </trkpt>
      <trkpt lat="41.10687176696956157684326171875" lon="-2.33900335617363452911376953125">
        <ele>1118.5999755859375</ele>
        <time>2019-07-07T13:04:52.000Z</time>
      </trkpt>
      <trkpt lat="41.10725213773548603057861328125" lon="-2.33970165252685546875">
        <ele>1118.800048828125</ele>
        <time>2019-07-07T13:04:55.000Z</time>
      </trkpt>
      <trkpt lat="41.1075348593294620513916015625" lon="-2.3401960171759128570556640625">
        <ele>1118.199951171875</ele>
        <time>2019-07-07T13:04:57.000Z</time>
      </trkpt>
      <trkpt lat="41.1076827161014080047607421875" lon="-2.3404494859278202056884765625">
        <ele>1117.199951171875</ele>
        <time>2019-07-07T13:04:58.000Z</time>
      </trkpt>
      <trkpt lat="41.10783367417752742767333984375" lon="-2.34071058221161365509033203125">
        <ele>1115.199951171875</ele>
        <time>2019-07-07T13:04:59.000Z</time>
      </trkpt>
      <trkpt lat="41.108141876757144927978515625" lon="-2.3412518016993999481201171875">
        <ele>1113.5999755859375</ele>
        <time>2019-07-07T13:05:01.000Z</time>
      </trkpt>
      <trkpt lat="41.1084598861634731292724609375" lon="-2.3418112099170684814453125">
        <ele>1113.199951171875</ele>
        <time>2019-07-07T13:05:03.000Z</time>
      </trkpt>
      <trkpt lat="41.10878468491137027740478515625" lon="-2.342384867370128631591796875">
        <ele>1114</ele>
        <time>2019-07-07T13:05:05.000Z</time>
      </trkpt>
      <trkpt lat="41.108949892222881317138671875" lon="-2.34267462976276874542236328125">
        <ele>1114.800048828125</ele>
        <time>2019-07-07T13:05:06.000Z</time>
      </trkpt>
      <trkpt lat="41.10928609035909175872802734375" lon="-2.34326370991766452789306640625">
        <ele>1119.800048828125</ele>
        <time>2019-07-07T13:05:08.000Z</time>
      </trkpt>
      <trkpt lat="41.10945649445056915283203125" lon="-2.34356411732733249664306640625">
        <ele>1121.4000244140625</ele>
        <time>2019-07-07T13:05:09.000Z</time>
      </trkpt>
      <trkpt lat="41.10962924547493457794189453125" lon="-2.34386854805052280426025390625">
        <ele>1124.800048828125</ele>
        <time>2019-07-07T13:05:10.000Z</time>
      </trkpt>
      <trkpt lat="41.10980342142283916473388671875" lon="-2.34417356550693511962890625">
        <ele>1127.800048828125</ele>
        <time>2019-07-07T13:05:11.000Z</time>
      </trkpt>
      <trkpt lat="41.109978519380092620849609375" lon="-2.34448092989623546600341796875">
        <ele>1129.199951171875</ele>
        <time>2019-07-07T13:05:12.000Z</time>
      </trkpt>
      <trkpt lat="41.1101530306041240692138671875" lon="-2.3447906412184238433837890625">
        <ele>1127.800048828125</ele>
        <time>2019-07-07T13:05:13.000Z</time>
      </trkpt>
      <trkpt lat="41.11032695509493350982666015625" lon="-2.34510202892124652862548828125">
        <ele>1126.4000244140625</ele>
        <time>2019-07-07T13:05:14.000Z</time>
      </trkpt>
      <trkpt lat="41.11067689955234527587890625" lon="-2.345726229250431060791015625">
        <ele>1125.199951171875</ele>
        <time>2019-07-07T13:05:16.000Z</time>
      </trkpt>
      <trkpt lat="41.111031286418437957763671875" lon="-2.34634749591350555419921875">
        <ele>1124.800048828125</ele>
        <time>2019-07-07T13:05:18.000Z</time>
      </trkpt>
      <trkpt lat="41.1113868467509746551513671875" lon="-2.3469729535281658172607421875">
        <ele>1126</ele>
        <time>2019-07-07T13:05:20.000Z</time>
      </trkpt>
      <trkpt lat="41.11156429164111614227294921875" lon="-2.347287945449352264404296875">
        <ele>1127</ele>
        <time>2019-07-07T13:05:21.000Z</time>
      </trkpt>
      <trkpt lat="41.11174450255930423736572265625" lon="-2.34760352410376071929931640625">
        <ele>1128</ele>
        <time>2019-07-07T13:05:22.000Z</time>
      </trkpt>
      <trkpt lat="41.11210676841437816619873046875" lon="-2.34823518432676792144775390625">
        <ele>1129.4000244140625</ele>
        <time>2019-07-07T13:05:24.000Z</time>
      </trkpt>
      <trkpt lat="41.11246685497462749481201171875" lon="-2.3488722927868366241455078125">
        <ele>1129.199951171875</ele>
        <time>2019-07-07T13:05:26.000Z</time>
      </trkpt>
      <trkpt lat="41.11282945610582828521728515625" lon="-2.34950655139982700347900390625">
        <ele>1130.4000244140625</ele>
        <time>2019-07-07T13:05:28.000Z</time>
      </trkpt>
      <trkpt lat="41.11301033757627010345458984375" lon="-2.34982229769229888916015625">
        <ele>1132.199951171875</ele>
        <time>2019-07-07T13:05:29.000Z</time>
      </trkpt>
      <trkpt lat="41.1133629642426967620849609375" lon="-2.350448258221149444580078125">
        <ele>1131.5999755859375</ele>
        <time>2019-07-07T13:05:31.000Z</time>
      </trkpt>
      <trkpt lat="41.11370243132114410400390625" lon="-2.35106089152395725250244140625">
        <ele>1134.199951171875</ele>
        <time>2019-07-07T13:05:33.000Z</time>
      </trkpt>
      <trkpt lat="41.11386663280427455902099609375" lon="-2.3513543419539928436279296875">
        <ele>1132.199951171875</ele>
        <time>2019-07-07T13:05:34.000Z</time>
      </trkpt>
      <trkpt lat="41.11402354203164577484130859375" lon="-2.35163412988185882568359375">
        <ele>1128.5999755859375</ele>
        <time>2019-07-07T13:05:35.000Z</time>
      </trkpt>
      <trkpt lat="41.11417123116552829742431640625" lon="-2.35190008766949176788330078125">
        <ele>1126</ele>
        <time>2019-07-07T13:05:36.000Z</time>
      </trkpt>
      <trkpt lat="41.114441715180873870849609375" lon="-2.352391518652439117431640625">
        <ele>1127.5999755859375</ele>
        <time>2019-07-07T13:05:38.000Z</time>
      </trkpt>
      <trkpt lat="41.11467850394546985626220703125" lon="-2.35280600376427173614501953125">
        <ele>1129.4000244140625</ele>
        <time>2019-07-07T13:05:40.000Z</time>
      </trkpt>
      <trkpt lat="41.11478495411574840545654296875" lon="-2.35298537649214267730712890625">
        <ele>1131.800048828125</ele>
        <time>2019-07-07T13:05:41.000Z</time>
      </trkpt>
      <trkpt lat="41.114885620772838592529296875" lon="-2.353153266012668609619140625">
        <ele>1135.199951171875</ele>
        <time>2019-07-07T13:05:42.000Z</time>
      </trkpt>
      <trkpt lat="41.11498176120221614837646484375" lon="-2.3533160425722599029541015625">
        <ele>1138.4000244140625</ele>
        <time>2019-07-07T13:05:43.000Z</time>
      </trkpt>
      <trkpt lat="41.115076728165149688720703125" lon="-2.35348175279796123504638671875">
        <ele>1140.5999755859375</ele>
        <time>2019-07-07T13:05:44.000Z</time>
      </trkpt>
      <trkpt lat="41.115173287689685821533203125" lon="-2.35365073196589946746826171875">
        <ele>1142.800048828125</ele>
        <time>2019-07-07T13:05:45.000Z</time>
      </trkpt>
      <trkpt lat="41.1152690090239048004150390625" lon="-2.35381669364869594573974609375">
        <ele>1144</ele>
        <time>2019-07-07T13:05:46.000Z</time>
      </trkpt>
      <trkpt lat="41.11555181443691253662109375" lon="-2.3542947135865688323974609375">
        <ele>1143.199951171875</ele>
        <time>2019-07-07T13:05:49.000Z</time>
      </trkpt>
      <trkpt lat="41.1156532354652881622314453125" lon="-2.3544606752693653106689453125">
        <ele>1142</ele>
        <time>2019-07-07T13:05:50.000Z</time>
      </trkpt>
      <trkpt lat="41.1158547364175319671630859375" lon="-2.35475479625165462493896484375">
        <ele>1140.4000244140625</ele>
        <time>2019-07-07T13:05:52.000Z</time>
      </trkpt>
      <trkpt lat="41.116235442459583282470703125" lon="-2.35531504265964031219482421875">
        <ele>1140</ele>
        <time>2019-07-07T13:05:56.000Z</time>
      </trkpt>
      <trkpt lat="41.11643350683152675628662109375" lon="-2.35566138289868831634521484375">
        <ele>1141.5999755859375</ele>
        <time>2019-07-07T13:05:58.000Z</time>
      </trkpt>
      <trkpt lat="41.11669435165822505950927734375" lon="-2.35630779527127742767333984375">
        <ele>1142.4000244140625</ele>
        <time>2019-07-07T13:06:01.000Z</time>
      </trkpt>
      <trkpt lat="41.11676626838743686676025390625" lon="-2.356551624834537506103515625">
        <ele>1142.800048828125</ele>
        <time>2019-07-07T13:06:02.000Z</time>
      </trkpt>
      <trkpt lat="41.11698302440345287322998046875" lon="-2.3573680222034454345703125">
        <ele>1143</ele>
        <time>2019-07-07T13:06:05.000Z</time>
      </trkpt>
      <trkpt lat="41.11718385480344295501708984375" lon="-2.3579763807356357574462890625">
        <ele>1145</ele>
        <time>2019-07-07T13:06:07.000Z</time>
      </trkpt>
      <trkpt lat="41.11731276847422122955322265625" lon="-2.358265221118927001953125">
        <ele>1145.5999755859375</ele>
        <time>2019-07-07T13:06:08.000Z</time>
      </trkpt>
      <trkpt lat="41.11763580702245235443115234375" lon="-2.3587793670594692230224609375">
        <ele>1144.199951171875</ele>
        <time>2019-07-07T13:06:10.000Z</time>
      </trkpt>
      <trkpt lat="41.1178167723119258880615234375" lon="-2.35900886356830596923828125">
        <ele>1143</ele>
        <time>2019-07-07T13:06:11.000Z</time>
      </trkpt>
      <trkpt lat="41.11817895434796810150146484375" lon="-2.3594542779028415679931640625">
        <ele>1141.4000244140625</ele>
        <time>2019-07-07T13:06:13.000Z</time>
      </trkpt>
      <trkpt lat="41.118526719510555267333984375" lon="-2.35988602973520755767822265625">
        <ele>1141.4000244140625</ele>
        <time>2019-07-07T13:06:15.000Z</time>
      </trkpt>
      <trkpt lat="41.1187025718390941619873046875" lon="-2.36009457148611545562744140625">
        <ele>1142.5999755859375</ele>
        <time>2019-07-07T13:06:16.000Z</time>
      </trkpt>
      <trkpt lat="41.11905486322939395904541015625" lon="-2.36051626503467559814453125">
        <ele>1143.5999755859375</ele>
        <time>2019-07-07T13:06:18.000Z</time>
      </trkpt>
      <trkpt lat="41.11940807662904262542724609375" lon="-2.36094818450510501861572265625">
        <ele>1143.800048828125</ele>
        <time>2019-07-07T13:06:20.000Z</time>
      </trkpt>
      <trkpt lat="41.11976782791316509246826171875" lon="-2.36138337291777133941650390625">
        <ele>1142.800048828125</ele>
        <time>2019-07-07T13:06:22.000Z</time>
      </trkpt>
      <trkpt lat="41.11994954757392406463623046875" lon="-2.36160457134246826171875">
        <ele>1142.4000244140625</ele>
        <time>2019-07-07T13:06:23.000Z</time>
      </trkpt>
      <trkpt lat="41.1203175969421863555908203125" lon="-2.36205317080020904541015625">
        <ele>1143.4000244140625</ele>
        <time>2019-07-07T13:06:25.000Z</time>
      </trkpt>
      <trkpt lat="41.1205051839351654052734375" lon="-2.3622766323387622833251953125">
        <ele>1145.199951171875</ele>
        <time>2019-07-07T13:06:26.000Z</time>
      </trkpt>
      <trkpt lat="41.1206934414803981781005859375" lon="-2.36250244081020355224609375">
        <ele>1146.800048828125</ele>
        <time>2019-07-07T13:06:27.000Z</time>
      </trkpt>
      <trkpt lat="41.121070124208927154541015625" lon="-2.36296369694173336029052734375">
        <ele>1148.199951171875</ele>
        <time>2019-07-07T13:06:29.000Z</time>
      </trkpt>
      <trkpt lat="41.121450997889041900634765625" lon="-2.36342369578778743743896484375">
        <ele>1148.800048828125</ele>
        <time>2019-07-07T13:06:31.000Z</time>
      </trkpt>
      <trkpt lat="41.121831201016902923583984375" lon="-2.3638857901096343994140625">
        <ele>1146.199951171875</ele>
        <time>2019-07-07T13:06:33.000Z</time>
      </trkpt>
      <trkpt lat="41.1220204643905162811279296875" lon="-2.3641169629991054534912109375">
        <ele>1145</ele>
        <time>2019-07-07T13:06:34.000Z</time>
      </trkpt>
      <trkpt lat="41.12239605747163295745849609375" lon="-2.36457788385450839996337890625">
        <ele>1144</ele>
        <time>2019-07-07T13:06:36.000Z</time>
      </trkpt>
      <trkpt lat="41.12277139909565448760986328125" lon="-2.3650339432060718536376953125">
        <ele>1144.5999755859375</ele>
        <time>2019-07-07T13:06:38.000Z</time>
      </trkpt>
      <trkpt lat="41.1231500096619129180908203125" lon="-2.36549603752791881561279296875">
        <ele>1145.4000244140625</ele>
        <time>2019-07-07T13:06:40.000Z</time>
      </trkpt>
      <trkpt lat="41.1233421228826045989990234375" lon="-2.3657296411693096160888671875">
        <ele>1146.199951171875</ele>
        <time>2019-07-07T13:06:41.000Z</time>
      </trkpt>
      <trkpt lat="41.12373079173266887664794921875" lon="-2.36620263196527957916259765625">
        <ele>1146.199951171875</ele>
        <time>2019-07-07T13:06:43.000Z</time>
      </trkpt>
      <trkpt lat="41.124125160276889801025390625" lon="-2.366682328283786773681640625">
        <ele>1145.4000244140625</ele>
        <time>2019-07-07T13:06:45.000Z</time>
      </trkpt>
      <trkpt lat="41.12432288937270641326904296875" lon="-2.36692330799996852874755859375">
        <ele>1145</ele>
        <time>2019-07-07T13:06:46.000Z</time>
      </trkpt>
      <trkpt lat="41.124714575707912445068359375" lon="-2.3673989810049533843994140625">
        <ele>1143.800048828125</ele>
        <time>2019-07-07T13:06:48.000Z</time>
      </trkpt>
      <trkpt lat="41.12509989179670810699462890625" lon="-2.3678640089929103851318359375">
        <ele>1142.5999755859375</ele>
        <time>2019-07-07T13:06:50.000Z</time>
      </trkpt>
      <trkpt lat="41.1254811845719814300537109375" lon="-2.36832342110574245452880859375">
        <ele>1140</ele>
        <time>2019-07-07T13:06:52.000Z</time>
      </trkpt>
      <trkpt lat="41.12586029805243015289306640625" lon="-2.36878928728401660919189453125">
        <ele>1138.800048828125</ele>
        <time>2019-07-07T13:06:54.000Z</time>
      </trkpt>
      <trkpt lat="41.12605392001569271087646484375" lon="-2.369025237858295440673828125">
        <ele>1137.4000244140625</ele>
        <time>2019-07-07T13:06:55.000Z</time>
      </trkpt>
      <trkpt lat="41.12624821253120899200439453125" lon="-2.36926118843257427215576171875">
        <ele>1135.5999755859375</ele>
        <time>2019-07-07T13:06:56.000Z</time>
      </trkpt>
      <trkpt lat="41.12663227133452892303466796875" lon="-2.36971867270767688751220703125">
        <ele>1135.5999755859375</ele>
        <time>2019-07-07T13:06:58.000Z</time>
      </trkpt>
      <trkpt lat="41.1268313415348529815673828125" lon="-2.369938530027866363525390625">
        <ele>1137.800048828125</ele>
        <time>2019-07-07T13:06:59.000Z</time>
      </trkpt>
      <trkpt lat="41.127268373966217041015625" lon="-2.3703326471149921417236328125">
        <ele>1140.800048828125</ele>
        <time>2019-07-07T13:07:01.000Z</time>
      </trkpt>
      <trkpt lat="41.12749912776052951812744140625" lon="-2.37051486968994140625">
        <ele>1144.199951171875</ele>
        <time>2019-07-07T13:07:02.000Z</time>
      </trkpt>
      <trkpt lat="41.12773306667804718017578125" lon="-2.37069801427423954010009765625">
        <ele>1146</ele>
        <time>2019-07-07T13:07:03.000Z</time>
      </trkpt>
      <trkpt lat="41.12819214351475238800048828125" lon="-2.37105474807322025299072265625">
        <ele>1146.4000244140625</ele>
        <time>2019-07-07T13:07:05.000Z</time>
      </trkpt>
      <trkpt lat="41.12841434776782989501953125" lon="-2.37122808583080768585205078125">
        <ele>1144.800048828125</ele>
        <time>2019-07-07T13:07:06.000Z</time>
      </trkpt>
      <trkpt lat="41.12885959446430206298828125" lon="-2.371576689183712005615234375">
        <ele>1145</ele>
        <time>2019-07-07T13:07:08.000Z</time>
      </trkpt>
      <trkpt lat="41.12930408678948879241943359375" lon="-2.37192596308887004852294921875">
        <ele>1142.199951171875</ele>
        <time>2019-07-07T13:07:10.000Z</time>
      </trkpt>
      <trkpt lat="41.1297448910772800445556640625" lon="-2.3722708784043788909912109375">
        <ele>1141</ele>
        <time>2019-07-07T13:07:12.000Z</time>
      </trkpt>
      <trkpt lat="41.130188293755054473876953125" lon="-2.3726245947182178497314453125">
        <ele>1139.800048828125</ele>
        <time>2019-07-07T13:07:14.000Z</time>
      </trkpt>
      <trkpt lat="41.130412928760051727294921875" lon="-2.3728022910654544830322265625">
        <ele>1138.4000244140625</ele>
        <time>2019-07-07T13:07:15.000Z</time>
      </trkpt>
      <trkpt lat="41.1306380666792392730712890625" lon="-2.37297973595559597015380859375">
        <ele>1137.199951171875</ele>
        <time>2019-07-07T13:07:16.000Z</time>
      </trkpt>
      <trkpt lat="41.130863539874553680419921875" lon="-2.37315759994089603424072265625">
        <ele>1136</ele>
        <time>2019-07-07T13:07:17.000Z</time>
      </trkpt>
      <trkpt lat="41.13131809048354625701904296875" lon="-2.3735207878053188323974609375">
        <ele>1136</ele>
        <time>2019-07-07T13:07:19.000Z</time>
      </trkpt>
      <trkpt lat="41.13154574297368526458740234375" lon="-2.3737028427422046661376953125">
        <ele>1134.800048828125</ele>
        <time>2019-07-07T13:07:20.000Z</time>
      </trkpt>
      <trkpt lat="41.13199920393526554107666015625" lon="-2.37405882216989994049072265625">
        <ele>1135.199951171875</ele>
        <time>2019-07-07T13:07:22.000Z</time>
      </trkpt>
      <trkpt lat="41.1322266049683094024658203125" lon="-2.37423500977456569671630859375">
        <ele>1136.199951171875</ele>
        <time>2019-07-07T13:07:23.000Z</time>
      </trkpt>
      <trkpt lat="41.13268065266311168670654296875" lon="-2.3745883069932460784912109375">
        <ele>1135.5999755859375</ele>
        <time>2019-07-07T13:07:25.000Z</time>
      </trkpt>
      <trkpt lat="41.13310896791517734527587890625" lon="-2.374922074377536773681640625">
        <ele>1135.199951171875</ele>
        <time>2019-07-07T13:07:27.000Z</time>
      </trkpt>
      <trkpt lat="41.13330476917326450347900390625" lon="-2.3750744573771953582763671875">
        <ele>1133.800048828125</ele>
        <time>2019-07-07T13:07:28.000Z</time>
      </trkpt>
      <trkpt lat="41.13348548300564289093017578125" lon="-2.3752169497311115264892578125">
        <ele>1132.5999755859375</ele>
        <time>2019-07-07T13:07:29.000Z</time>
      </trkpt>
      <trkpt lat="41.13365245051681995391845703125" lon="-2.37534561194479465484619140625">
        <ele>1130.800048828125</ele>
        <time>2019-07-07T13:07:30.000Z</time>
      </trkpt>
      <trkpt lat="41.13407892175018787384033203125" lon="-2.37569228745996952056884765625">
        <ele>1131.199951171875</ele>
        <time>2019-07-07T13:07:33.000Z</time>
      </trkpt>
      <trkpt lat="41.13419291563332080841064453125" lon="-2.37583394162356853485107421875">
        <ele>1132</ele>
        <time>2019-07-07T13:07:34.000Z</time>
      </trkpt>
      <trkpt lat="41.1342863738536834716796875" lon="-2.37600803375244140625">
        <ele>1132.800048828125</ele>
        <time>2019-07-07T13:07:35.000Z</time>
      </trkpt>
      <trkpt lat="41.13447890616953372955322265625" lon="-2.37669132649898529052734375">
        <ele>1132.800048828125</ele>
        <time>2019-07-07T13:07:38.000Z</time>
      </trkpt>
      <trkpt lat="41.1345591209828853607177734375" lon="-2.3769406042993068695068359375">
        <ele>1132.199951171875</ele>
        <time>2019-07-07T13:07:39.000Z</time>
      </trkpt>
      <trkpt lat="41.13479725085198879241943359375" lon="-2.37742633558809757232666015625">
        <ele>1130.199951171875</ele>
        <time>2019-07-07T13:07:41.000Z</time>
      </trkpt>
      <trkpt lat="41.13494326360523700714111328125" lon="-2.3776661418378353118896484375">
        <ele>1128</ele>
        <time>2019-07-07T13:07:42.000Z</time>
      </trkpt>
      <trkpt lat="41.1350932158529758453369140625" lon="-2.37790770828723907470703125">
        <ele>1125.800048828125</ele>
        <time>2019-07-07T13:07:43.000Z</time>
      </trkpt>
      <trkpt lat="41.1353959701955318450927734375" lon="-2.378393523395061492919921875">
        <ele>1124</ele>
        <time>2019-07-07T13:07:45.000Z</time>
      </trkpt>
      <trkpt lat="41.13554575480520725250244140625" lon="-2.37863190472126007080078125">
        <ele>1122.5999755859375</ele>
        <time>2019-07-07T13:07:46.000Z</time>
      </trkpt>
      <trkpt lat="41.13582453690469264984130859375" lon="-2.37907455302774906158447265625">
        <ele>1120.800048828125</ele>
        <time>2019-07-07T13:07:48.000Z</time>
      </trkpt>
      <trkpt lat="41.13595412112772464752197265625" lon="-2.37927840091288089752197265625">
        <ele>1119.4000244140625</ele>
        <time>2019-07-07T13:07:49.000Z</time>
      </trkpt>
      <trkpt lat="41.13608806394040584564208984375" lon="-2.37946582026779651641845703125">
        <ele>1118.4000244140625</ele>
        <time>2019-07-07T13:07:50.000Z</time>
      </trkpt>
      <trkpt lat="41.13623793236911296844482421875" lon="-2.379637397825717926025390625">
        <ele>1117.800048828125</ele>
        <time>2019-07-07T13:07:51.000Z</time>
      </trkpt>
      <trkpt lat="41.13656817935407161712646484375" lon="-2.3799537308514118194580078125">
        <ele>1117.199951171875</ele>
        <time>2019-07-07T13:07:53.000Z</time>
      </trkpt>
      <trkpt lat="41.136894486844539642333984375" lon="-2.380256317555904388427734375">
        <ele>1115.800048828125</ele>
        <time>2019-07-07T13:07:55.000Z</time>
      </trkpt>
      <trkpt lat="41.137199588119983673095703125" lon="-2.38053451292216777801513671875">
        <ele>1114.5999755859375</ele>
        <time>2019-07-07T13:07:57.000Z</time>
      </trkpt>
      <trkpt lat="41.137479878962039947509765625" lon="-2.38078764639794826507568359375">
        <ele>1113.199951171875</ele>
        <time>2019-07-07T13:07:59.000Z</time>
      </trkpt>
      <trkpt lat="41.13761323504149913787841796875" lon="-2.38090641796588897705078125">
        <ele>1112.199951171875</ele>
        <time>2019-07-07T13:08:00.000Z</time>
      </trkpt>
      <trkpt lat="41.137953288853168487548828125" lon="-2.381263487040996551513671875">
        <ele>1111.199951171875</ele>
        <time>2019-07-07T13:08:03.000Z</time>
      </trkpt>
      <trkpt lat="41.138038448989391326904296875" lon="-2.3813964240252971649169921875">
        <ele>1110</ele>
        <time>2019-07-07T13:08:04.000Z</time>
      </trkpt>
      <trkpt lat="41.13810055889189243316650390625" lon="-2.38154478371143341064453125">
        <ele>1110.199951171875</ele>
        <time>2019-07-07T13:08:05.000Z</time>
      </trkpt>
      <trkpt lat="41.1381633393466472625732421875" lon="-2.3818899504840373992919921875">
        <ele>1111.800048828125</ele>
        <time>2019-07-07T13:08:07.000Z</time>
      </trkpt>
      <trkpt lat="41.138147749006748199462890625" lon="-2.382255233824253082275390625">
        <ele>1112.4000244140625</ele>
        <time>2019-07-07T13:08:09.000Z</time>
      </trkpt>
      <trkpt lat="41.138114891946315765380859375" lon="-2.3824300803244113922119140625">
        <ele>1113.800048828125</ele>
        <time>2019-07-07T13:08:10.000Z</time>
      </trkpt>
      <trkpt lat="41.1380602419376373291015625" lon="-2.38278329372406005859375">
        <ele>1114.800048828125</ele>
        <time>2019-07-07T13:08:12.000Z</time>
      </trkpt>
      <trkpt lat="41.13805982284247875213623046875" lon="-2.38297381438314914703369140625">
        <ele>1114.800048828125</ele>
        <time>2019-07-07T13:08:13.000Z</time>
      </trkpt>
      <trkpt lat="41.13810089416801929473876953125" lon="-2.3835968412458896636962890625">
        <ele>1114.800048828125</ele>
        <time>2019-07-07T13:08:16.000Z</time>
      </trkpt>
      <trkpt lat="41.13811531104147434234619140625" lon="-2.38381099887192249298095703125">
        <ele>1113.5999755859375</ele>
        <time>2019-07-07T13:08:17.000Z</time>
      </trkpt>
      <trkpt lat="41.13813324831426143646240234375" lon="-2.3840291798114776611328125">
        <ele>1111.5999755859375</ele>
        <time>2019-07-07T13:08:18.000Z</time>
      </trkpt>
      <trkpt lat="41.13815437071025371551513671875" lon="-2.3842492885887622833251953125">
        <ele>1109.4000244140625</ele>
        <time>2019-07-07T13:08:19.000Z</time>
      </trkpt>
      <trkpt lat="41.138175912201404571533203125" lon="-2.3844665475189685821533203125">
        <ele>1107.4000244140625</ele>
        <time>2019-07-07T13:08:20.000Z</time>
      </trkpt>
      <trkpt lat="41.13819510675966739654541015625" lon="-2.38467819057404994964599609375">
        <ele>1105.4000244140625</ele>
        <time>2019-07-07T13:08:21.000Z</time>
      </trkpt>
      <trkpt lat="41.13821170292794704437255859375" lon="-2.38488136790692806243896484375">
        <ele>1103.199951171875</ele>
        <time>2019-07-07T13:08:22.000Z</time>
      </trkpt>
      <trkpt lat="41.13822586834430694580078125" lon="-2.385078258812427520751953125">
        <ele>1101.800048828125</ele>
        <time>2019-07-07T13:08:23.000Z</time>
      </trkpt>
      <trkpt lat="41.13823802210390567779541015625" lon="-2.3852645047008991241455078125">
        <ele>1100.5999755859375</ele>
        <time>2019-07-07T13:08:24.000Z</time>
      </trkpt>
      <trkpt lat="41.13824908621609210968017578125" lon="-2.38543323241174221038818359375">
        <ele>1099.4000244140625</ele>
        <time>2019-07-07T13:08:25.000Z</time>
      </trkpt>
      <trkpt lat="41.1382645927369594573974609375" lon="-2.38558343611657619476318359375">
        <ele>1098.5999755859375</ele>
        <time>2019-07-07T13:08:26.000Z</time>
      </trkpt>
      <trkpt lat="41.13829292356967926025390625" lon="-2.3857171274721622467041015625">
        <ele>1098</ele>
        <time>2019-07-07T13:08:27.000Z</time>
      </trkpt>
      <trkpt lat="41.138342209160327911376953125" lon="-2.38583556376397609710693359375">
        <ele>1098.199951171875</ele>
        <time>2019-07-07T13:08:28.000Z</time>
      </trkpt>
      <trkpt lat="41.1386022157967090606689453125" lon="-2.386170923709869384765625">
        <ele>1099</ele>
        <time>2019-07-07T13:08:31.000Z</time>
      </trkpt>
      <trkpt lat="41.13894327543675899505615234375" lon="-2.38657350651919841766357421875">
        <ele>1098</ele>
        <time>2019-07-07T13:08:34.000Z</time>
      </trkpt>
      <trkpt lat="41.13906498067080974578857421875" lon="-2.38672471605241298675537109375">
        <ele>1096.4000244140625</ele>
        <time>2019-07-07T13:08:35.000Z</time>
      </trkpt>
      <trkpt lat="41.13918341696262359619140625" lon="-2.38688045181334018707275390625">
        <ele>1094.5999755859375</ele>
        <time>2019-07-07T13:08:36.000Z</time>
      </trkpt>
      <trkpt lat="41.13940813578665256500244140625" lon="-2.387206256389617919921875">
        <ele>1093.199951171875</ele>
        <time>2019-07-07T13:08:38.000Z</time>
      </trkpt>
      <trkpt lat="41.1396331898868083953857421875" lon="-2.38754748366773128509521484375">
        <ele>1091.800048828125</ele>
        <time>2019-07-07T13:08:40.000Z</time>
      </trkpt>
      <trkpt lat="41.13985128700733184814453125" lon="-2.3879091627895832061767578125">
        <ele>1089</ele>
        <time>2019-07-07T13:08:42.000Z</time>
      </trkpt>
      <trkpt lat="41.13995178602635860443115234375" lon="-2.38809415139257907867431640625">
        <ele>1086.800048828125</ele>
        <time>2019-07-07T13:08:43.000Z</time>
      </trkpt>
      <trkpt lat="41.14004574716091156005859375" lon="-2.388276793062686920166015625">
        <ele>1084.800048828125</ele>
        <time>2019-07-07T13:08:44.000Z</time>
      </trkpt>
      <trkpt lat="41.140129230916500091552734375" lon="-2.38845138810575008392333984375">
        <ele>1082.800048828125</ele>
        <time>2019-07-07T13:08:45.000Z</time>
      </trkpt>
      <trkpt lat="41.14020056091248989105224609375" lon="-2.3886202834546566009521484375">
        <ele>1081.5999755859375</ele>
        <time>2019-07-07T13:08:46.000Z</time>
      </trkpt>
      <trkpt lat="41.14033014513552188873291015625" lon="-2.38893829286098480224609375">
        <ele>1080.800048828125</ele>
        <time>2019-07-07T13:08:48.000Z</time>
      </trkpt>
      <trkpt lat="41.14052309654653072357177734375" lon="-2.389185726642608642578125">
        <ele>1080.4000244140625</ele>
        <time>2019-07-07T13:08:50.000Z</time>
      </trkpt>
      <trkpt lat="41.14079953171312808990478515625" lon="-2.389368452131748199462890625">
        <ele>1079.199951171875</ele>
        <time>2019-07-07T13:08:52.000Z</time>
      </trkpt>
      <trkpt lat="41.1409478075802326202392578125" lon="-2.38946040160953998565673828125">
        <ele>1077.199951171875</ele>
        <time>2019-07-07T13:08:53.000Z</time>
      </trkpt>
      <trkpt lat="41.1410946585237979888916015625" lon="-2.38955360837280750274658203125">
        <ele>1074.800048828125</ele>
        <time>2019-07-07T13:08:54.000Z</time>
      </trkpt>
      <trkpt lat="41.14123874343931674957275390625" lon="-2.38964547403156757354736328125">
        <ele>1072.5999755859375</ele>
        <time>2019-07-07T13:08:55.000Z</time>
      </trkpt>
      <trkpt lat="41.1413796432316303253173828125" lon="-2.3897350765764713287353515625">
        <ele>1071.199951171875</ele>
        <time>2019-07-07T13:08:56.000Z</time>
      </trkpt>
      <trkpt lat="41.14163788966834545135498046875" lon="-2.3899399302899837493896484375">
        <ele>1070</ele>
        <time>2019-07-07T13:08:58.000Z</time>
      </trkpt>
      <trkpt lat="41.1418047733604907989501953125" lon="-2.390238158404827117919921875">
        <ele>1069.800048828125</ele>
        <time>2019-07-07T13:09:00.000Z</time>
      </trkpt>
      <trkpt lat="41.1419693939387798309326171875" lon="-2.39095891825854778289794921875">
        <ele>1068.800048828125</ele>
        <time>2019-07-07T13:09:04.000Z</time>
      </trkpt>
      <trkpt lat="41.1421145685017108917236328125" lon="-2.391209788620471954345703125">
        <ele>1068</ele>
        <time>2019-07-07T13:09:06.000Z</time>
      </trkpt>
      <trkpt lat="41.14222663454711437225341796875" lon="-2.391286902129650115966796875">
        <ele>1067.5999755859375</ele>
        <time>2019-07-07T13:09:07.000Z</time>
      </trkpt>
      <trkpt lat="41.14235336892306804656982421875" lon="-2.39133358933031558990478515625">
        <ele>1067.199951171875</ele>
        <time>2019-07-07T13:09:08.000Z</time>
      </trkpt>
      <trkpt lat="41.1425980366766452789306640625" lon="-2.39141992293298244476318359375">
        <ele>1066.199951171875</ele>
        <time>2019-07-07T13:09:10.000Z</time>
      </trkpt>
      <trkpt lat="41.1426962725818157196044921875" lon="-2.391504161059856414794921875">
        <ele>1065</ele>
        <time>2019-07-07T13:09:11.000Z</time>
      </trkpt>
      <trkpt lat="41.1427675187587738037109375" lon="-2.391626536846160888671875">
        <ele>1063.5999755859375</ele>
        <time>2019-07-07T13:09:12.000Z</time>
      </trkpt>
      <trkpt lat="41.14281705580651760101318359375" lon="-2.3919636569917201995849609375">
        <ele>1061.800048828125</ele>
        <time>2019-07-07T13:09:14.000Z</time>
      </trkpt>
      <trkpt lat="41.142835579812526702880859375" lon="-2.39236657507717609405517578125">
        <ele>1061</ele>
        <time>2019-07-07T13:09:16.000Z</time>
      </trkpt>
      <trkpt lat="41.14287170581519603729248046875" lon="-2.3925738595426082611083984375">
        <ele>1060.5999755859375</ele>
        <time>2019-07-07T13:09:17.000Z</time>
      </trkpt>
      <trkpt lat="41.14291361533105373382568359375" lon="-2.39277544431388378143310546875">
        <ele>1059.4000244140625</ele>
        <time>2019-07-07T13:09:18.000Z</time>
      </trkpt>
      <trkpt lat="41.142958290874958038330078125" lon="-2.39295967854559421539306640625">
        <ele>1057.800048828125</ele>
        <time>2019-07-07T13:09:19.000Z</time>
      </trkpt>
      <trkpt lat="41.1430164612829685211181640625" lon="-2.39312061108648777008056640625">
        <ele>1056.800048828125</ele>
        <time>2019-07-07T13:09:20.000Z</time>
      </trkpt>
      <trkpt lat="41.1432182975113391876220703125" lon="-2.39337508566677570343017578125">
        <ele>1055.4000244140625</ele>
        <time>2019-07-07T13:09:22.000Z</time>
      </trkpt>
      <trkpt lat="41.1436699144542217254638671875" lon="-2.39370231516659259796142578125">
        <ele>1055.199951171875</ele>
        <time>2019-07-07T13:09:25.000Z</time>
      </trkpt>
      <trkpt lat="41.14399387501180171966552734375" lon="-2.39397405646741390228271484375">
        <ele>1054.199951171875</ele>
        <time>2019-07-07T13:09:27.000Z</time>
      </trkpt>
      <trkpt lat="41.144142486155033111572265625" lon="-2.39414337091147899627685546875">
        <ele>1052</ele>
        <time>2019-07-07T13:09:28.000Z</time>
      </trkpt>
      <trkpt lat="41.1442824639379978179931640625" lon="-2.39432995207607746124267578125">
        <ele>1048.800048828125</ele>
        <time>2019-07-07T13:09:29.000Z</time>
      </trkpt>
      <trkpt lat="41.144415400922298431396484375" lon="-2.394518963992595672607421875">
        <ele>1045.5999755859375</ele>
        <time>2019-07-07T13:09:30.000Z</time>
      </trkpt>
      <trkpt lat="41.1445402912795543670654296875" lon="-2.39470143802464008331298828125">
        <ele>1043.800048828125</ele>
        <time>2019-07-07T13:09:31.000Z</time>
      </trkpt>
      <trkpt lat="41.14464581944048404693603515625" lon="-2.39487276412546634674072265625">
        <ele>1042.800048828125</ele>
        <time>2019-07-07T13:09:32.000Z</time>
      </trkpt>
      <trkpt lat="41.14472343586385250091552734375" lon="-2.39504174329340457916259765625">
        <ele>1042.199951171875</ele>
        <time>2019-07-07T13:09:33.000Z</time>
      </trkpt>
      <trkpt lat="41.1448296345770359039306640625" lon="-2.39535891450941562652587890625">
        <ele>1041</ele>
        <time>2019-07-07T13:09:35.000Z</time>
      </trkpt>
      <trkpt lat="41.14499978721141815185546875" lon="-2.395579777657985687255859375">
        <ele>1039.5999755859375</ele>
        <time>2019-07-07T13:09:37.000Z</time>
      </trkpt>
      <trkpt lat="41.14519768394529819488525390625" lon="-2.39573978818953037261962890625">
        <ele>1038.199951171875</ele>
        <time>2019-07-07T13:09:39.000Z</time>
      </trkpt>
      <trkpt lat="41.14530329592525959014892578125" lon="-2.39600582979619503021240234375">
        <ele>1037.199951171875</ele>
        <time>2019-07-07T13:09:41.000Z</time>
      </trkpt>
      <trkpt lat="41.145353503525257110595703125" lon="-2.396327443420886993408203125">
        <ele>1036.199951171875</ele>
        <time>2019-07-07T13:09:43.000Z</time>
      </trkpt>
      <trkpt lat="41.14540052600204944610595703125" lon="-2.3964845202863216400146484375">
        <ele>1036</ele>
        <time>2019-07-07T13:09:44.000Z</time>
      </trkpt>
      <trkpt lat="41.14547965116798877716064453125" lon="-2.39663145504891872406005859375">
        <ele>1035.800048828125</ele>
        <time>2019-07-07T13:09:45.000Z</time>
      </trkpt>
      <trkpt lat="41.1457211337983608245849609375" lon="-2.39687226712703704833984375">
        <ele>1035.199951171875</ele>
        <time>2019-07-07T13:09:47.000Z</time>
      </trkpt>
      <trkpt lat="41.145855076611042022705078125" lon="-2.3969733528792858123779296875">
        <ele>1034.4000244140625</ele>
        <time>2019-07-07T13:09:48.000Z</time>
      </trkpt>
      <trkpt lat="41.14598625339567661285400390625" lon="-2.3970719240605831146240234375">
        <ele>1033</ele>
        <time>2019-07-07T13:09:49.000Z</time>
      </trkpt>
      <trkpt lat="41.1461175978183746337890625" lon="-2.39716420881450176239013671875">
        <ele>1031.199951171875</ele>
        <time>2019-07-07T13:09:50.000Z</time>
      </trkpt>
      <trkpt lat="41.14625548012554645538330078125" lon="-2.39723226986825466156005859375">
        <ele>1030.199951171875</ele>
        <time>2019-07-07T13:09:51.000Z</time>
      </trkpt>
      <trkpt lat="41.14656343124806880950927734375" lon="-2.397255487740039825439453125">
        <ele>1028.199951171875</ele>
        <time>2019-07-07T13:09:53.000Z</time>
      </trkpt>
      <trkpt lat="41.14688336849212646484375" lon="-2.3972147516906261444091796875">
        <ele>1026.800048828125</ele>
        <time>2019-07-07T13:09:55.000Z</time>
      </trkpt>
      <trkpt lat="41.14716701209545135498046875" lon="-2.39719186909496784210205078125">
        <ele>1024.800048828125</ele>
        <time>2019-07-07T13:09:57.000Z</time>
      </trkpt>
      <trkpt lat="41.147284694015979766845703125" lon="-2.39720913581550121307373046875">
        <ele>1024</ele>
        <time>2019-07-07T13:09:58.000Z</time>
      </trkpt>
      <trkpt lat="41.1473854444921016693115234375" lon="-2.39726445637643337249755859375">
        <ele>1023.5999755859375</ele>
        <time>2019-07-07T13:09:59.000Z</time>
      </trkpt>
      <trkpt lat="41.14746649749577045440673828125" lon="-2.39736185409128665924072265625">
        <ele>1023.20001220703125</ele>
        <time>2019-07-07T13:10:00.000Z</time>
      </trkpt>
      <trkpt lat="41.1475284397602081298828125" lon="-2.3974933661520481109619140625">
        <ele>1022.4000244140625</ele>
        <time>2019-07-07T13:10:01.000Z</time>
      </trkpt>
      <trkpt lat="41.147573031485080718994140625" lon="-2.3976516164839267730712890625">
        <ele>1021.20001220703125</ele>
        <time>2019-07-07T13:10:02.000Z</time>
      </trkpt>
      <trkpt lat="41.1475970037281513214111328125" lon="-2.39782311022281646728515625">
        <ele>1019.79998779296875</ele>
        <time>2019-07-07T13:10:03.000Z</time>
      </trkpt>
      <trkpt lat="41.14759574644267559051513671875" lon="-2.397997118532657623291015625">
        <ele>1018.20001220703125</ele>
        <time>2019-07-07T13:10:04.000Z</time>
      </trkpt>
      <trkpt lat="41.14757110364735126495361328125" lon="-2.39817255176603794097900390625">
        <ele>1017.20001220703125</ele>
        <time>2019-07-07T13:10:05.000Z</time>
      </trkpt>
      <trkpt lat="41.147504635155200958251953125" lon="-2.3985199816524982452392578125">
        <ele>1016.20001220703125</ele>
        <time>2019-07-07T13:10:07.000Z</time>
      </trkpt>
      <trkpt lat="41.14750388078391551971435546875" lon="-2.39885576069355010986328125">
        <ele>1015</ele>
        <time>2019-07-07T13:10:09.000Z</time>
      </trkpt>
      <trkpt lat="41.1476221494376659393310546875" lon="-2.3991273343563079833984375">
        <ele>1014.5999755859375</ele>
        <time>2019-07-07T13:10:11.000Z</time>
      </trkpt>
      <trkpt lat="41.14785457961261272430419921875" lon="-2.39933461882174015045166015625">
        <ele>1013.5999755859375</ele>
        <time>2019-07-07T13:10:13.000Z</time>
      </trkpt>
      <trkpt lat="41.1479859240353107452392578125" lon="-2.39944458939135074615478515625">
        <ele>1012.5999755859375</ele>
        <time>2019-07-07T13:10:14.000Z</time>
      </trkpt>
      <trkpt lat="41.1481139995157718658447265625" lon="-2.39956780336797237396240234375">
        <ele>1011.4000244140625</ele>
        <time>2019-07-07T13:10:15.000Z</time>
      </trkpt>
      <trkpt lat="41.14822858013212680816650390625" lon="-2.3997092060744762420654296875">
        <ele>1010.4000244140625</ele>
        <time>2019-07-07T13:10:16.000Z</time>
      </trkpt>
      <trkpt lat="41.1483191885054111480712890625" lon="-2.39987977780401706695556640625">
        <ele>1009.20001220703125</ele>
        <time>2019-07-07T13:10:17.000Z</time>
      </trkpt>
      <trkpt lat="41.1483885906636714935302734375" lon="-2.400079183280467987060546875">
        <ele>1008.4000244140625</ele>
        <time>2019-07-07T13:10:18.000Z</time>
      </trkpt>
      <trkpt lat="41.148453466594219207763671875" lon="-2.400295771658420562744140625">
        <ele>1007.4000244140625</ele>
        <time>2019-07-07T13:10:19.000Z</time>
      </trkpt>
      <trkpt lat="41.14852286875247955322265625" lon="-2.4005212448537349700927734375">
        <ele>1005.79998779296875</ele>
        <time>2019-07-07T13:10:20.000Z</time>
      </trkpt>
      <trkpt lat="41.14859134890139102935791015625" lon="-2.4007500708103179931640625">
        <ele>1004.79998779296875</ele>
        <time>2019-07-07T13:10:21.000Z</time>
      </trkpt>
      <trkpt lat="41.14879871718585491180419921875" lon="-2.401387430727481842041015625">
        <ele>1004.20001220703125</ele>
        <time>2019-07-07T13:10:24.000Z</time>
      </trkpt>
      <trkpt lat="41.14911790005862712860107421875" lon="-2.4019408039748668670654296875">
        <ele>1003.79998779296875</ele>
        <time>2019-07-07T13:10:27.000Z</time>
      </trkpt>
      <trkpt lat="41.14924144931137561798095703125" lon="-2.40213073790073394775390625">
        <ele>1003.20001220703125</ele>
        <time>2019-07-07T13:10:28.000Z</time>
      </trkpt>
      <trkpt lat="41.149610839784145355224609375" lon="-2.40269928239285945892333984375">
        <ele>1002.20001220703125</ele>
        <time>2019-07-07T13:10:31.000Z</time>
      </trkpt>
      <trkpt lat="41.149975955486297607421875" lon="-2.40323069505393505096435546875">
        <ele>1002.5999755859375</ele>
        <time>2019-07-07T13:10:34.000Z</time>
      </trkpt>
      <trkpt lat="41.15023621357977390289306640625" lon="-2.4035357125103473663330078125">
        <ele>1003</ele>
        <time>2019-07-07T13:10:36.000Z</time>
      </trkpt>
      <trkpt lat="41.150549612939357757568359375" lon="-2.40375121124088764190673828125">
        <ele>1002</ele>
        <time>2019-07-07T13:10:38.000Z</time>
      </trkpt>
      <trkpt lat="41.15072504617273807525634765625" lon="-2.40383083932101726531982421875">
        <ele>1000.20001220703125</ele>
        <time>2019-07-07T13:10:39.000Z</time>
      </trkpt>
      <trkpt lat="41.1510743200778961181640625" lon="-2.40396670997142791748046875">
        <ele>998.79998779296875</ele>
        <time>2019-07-07T13:10:41.000Z</time>
      </trkpt>
      <trkpt lat="41.15139777772128582000732421875" lon="-2.40413107909262180328369140625">
        <ele>999.79998779296875</ele>
        <time>2019-07-07T13:10:43.000Z</time>
      </trkpt>
      <trkpt lat="41.15153968334197998046875" lon="-2.404249012470245361328125">
        <ele>1001.20001220703125</ele>
        <time>2019-07-07T13:10:44.000Z</time>
      </trkpt>
      <trkpt lat="41.15181419067084789276123046875" lon="-2.40453508682548999786376953125">
        <ele>1002.20001220703125</ele>
        <time>2019-07-07T13:10:46.000Z</time>
      </trkpt>
      <trkpt lat="41.15195877850055694580078125" lon="-2.40469551645219326019287109375">
        <ele>1001</ele>
        <time>2019-07-07T13:10:47.000Z</time>
      </trkpt>
      <trkpt lat="41.152110658586025238037109375" lon="-2.40486667491495609283447265625">
        <ele>998.79998779296875</ele>
        <time>2019-07-07T13:10:48.000Z</time>
      </trkpt>
      <trkpt lat="41.1522670648992061614990234375" lon="-2.405048310756683349609375">
        <ele>995</ele>
        <time>2019-07-07T13:10:49.000Z</time>
      </trkpt>
      <trkpt lat="41.15242824889719486236572265625" lon="-2.40523874759674072265625">
        <ele>991.79998779296875</ele>
        <time>2019-07-07T13:10:50.000Z</time>
      </trkpt>
      <trkpt lat="41.15259446203708648681640625" lon="-2.40543563850224018096923828125">
        <ele>988.4000244140625</ele>
        <time>2019-07-07T13:10:51.000Z</time>
      </trkpt>
      <trkpt lat="41.152767129242420196533203125" lon="-2.4056365527212619781494140625">
        <ele>985.5999755859375</ele>
        <time>2019-07-07T13:10:52.000Z</time>
      </trkpt>
      <trkpt lat="41.15294474177062511444091796875" lon="-2.4058393947780132293701171875">
        <ele>983</ele>
        <time>2019-07-07T13:10:53.000Z</time>
      </trkpt>
      <trkpt lat="41.15312176756560802459716796875" lon="-2.40604299120604991912841796875">
        <ele>981.4000244140625</ele>
        <time>2019-07-07T13:10:54.000Z</time>
      </trkpt>
      <trkpt lat="41.15329678170382976531982421875" lon="-2.40624633617699146270751953125">
        <ele>979.79998779296875</ele>
        <time>2019-07-07T13:10:55.000Z</time>
      </trkpt>
      <trkpt lat="41.15346861071884632110595703125" lon="-2.40644448436796665191650390625">
        <ele>978.79998779296875</ele>
        <time>2019-07-07T13:10:56.000Z</time>
      </trkpt>
      <trkpt lat="41.15379810333251953125" lon="-2.4068254418671131134033203125">
        <ele>977.5999755859375</ele>
        <time>2019-07-07T13:10:58.000Z</time>
      </trkpt>
      <trkpt lat="41.154273860156536102294921875" lon="-2.4073709361255168914794921875">
        <ele>977.79998779296875</ele>
        <time>2019-07-07T13:11:01.000Z</time>
      </trkpt>
      <trkpt lat="41.1547129042446613311767578125" lon="-2.40794803015887737274169921875">
        <ele>980.20001220703125</ele>
        <time>2019-07-07T13:11:04.000Z</time>
      </trkpt>
      <trkpt lat="41.1548386327922344207763671875" lon="-2.40815891884267330169677734375">
        <ele>981.79998779296875</ele>
        <time>2019-07-07T13:11:05.000Z</time>
      </trkpt>
      <trkpt lat="41.15506670437753200531005859375" lon="-2.4085326679050922393798828125">
        <ele>982.79998779296875</ele>
        <time>2019-07-07T13:11:07.000Z</time>
      </trkpt>
      <trkpt lat="41.15518421865999698638916015625" lon="-2.40869066677987575531005859375">
        <ele>984</ele>
        <time>2019-07-07T13:11:08.000Z</time>
      </trkpt>
      <trkpt lat="41.15547649562358856201171875" lon="-2.40895427763462066650390625">
        <ele>985.20001220703125</ele>
        <time>2019-07-07T13:11:10.000Z</time>
      </trkpt>
      <trkpt lat="41.1559899710118770599365234375" lon="-2.409244962036609649658203125">
        <ele>985.20001220703125</ele>
        <time>2019-07-07T13:11:13.000Z</time>
      </trkpt>
      <trkpt lat="41.15615383721888065338134765625" lon="-2.4093309603631496429443359375">
        <ele>983.79998779296875</ele>
        <time>2019-07-07T13:11:14.000Z</time>
      </trkpt>
      <trkpt lat="41.1564601957798004150390625" lon="-2.4095146916806697845458984375">
        <ele>982.20001220703125</ele>
        <time>2019-07-07T13:11:16.000Z</time>
      </trkpt>
      <trkpt lat="41.1565998382866382598876953125" lon="-2.40963262505829334259033203125">
        <ele>981</ele>
        <time>2019-07-07T13:11:17.000Z</time>
      </trkpt>
      <trkpt lat="41.156722046434879302978515625" lon="-2.4097802303731441497802734375">
        <ele>979.79998779296875</ele>
        <time>2019-07-07T13:11:18.000Z</time>
      </trkpt>
      <trkpt lat="41.15682187490165233612060546875" lon="-2.40995951928198337554931640625">
        <ele>979.79998779296875</ele>
        <time>2019-07-07T13:11:19.000Z</time>
      </trkpt>
      <trkpt lat="41.1569602601230144500732421875" lon="-2.4103926122188568115234375">
        <ele>979.5999755859375</ele>
        <time>2019-07-07T13:11:21.000Z</time>
      </trkpt>
      <trkpt lat="41.15700803697109222412109375" lon="-2.41063124500215053558349609375">
        <ele>978.79998779296875</ele>
        <time>2019-07-07T13:11:22.000Z</time>
      </trkpt>
      <trkpt lat="41.15705321542918682098388671875" lon="-2.410874404013156890869140625">
        <ele>977.5999755859375</ele>
        <time>2019-07-07T13:11:23.000Z</time>
      </trkpt>
      <trkpt lat="41.157141812145709991455078125" lon="-2.41134680807590484619140625">
        <ele>976</ele>
        <time>2019-07-07T13:11:25.000Z</time>
      </trkpt>
      <trkpt lat="41.15718548186123371124267578125" lon="-2.41157253272831439971923828125">
        <ele>974.79998779296875</ele>
        <time>2019-07-07T13:11:26.000Z</time>
      </trkpt>
      <trkpt lat="41.15727491676807403564453125" lon="-2.41201308555901050567626953125">
        <ele>972.4000244140625</ele>
        <time>2019-07-07T13:11:28.000Z</time>
      </trkpt>
      <trkpt lat="41.15731892175972461700439453125" lon="-2.41222766228020191192626953125">
        <ele>971.20001220703125</ele>
        <time>2019-07-07T13:11:29.000Z</time>
      </trkpt>
      <trkpt lat="41.15740207023918628692626953125" lon="-2.41264373995363712310791015625">
        <ele>969.5999755859375</ele>
        <time>2019-07-07T13:11:31.000Z</time>
      </trkpt>
      <trkpt lat="41.15751723758876323699951171875" lon="-2.413183115422725677490234375">
        <ele>970.20001220703125</ele>
        <time>2019-07-07T13:11:34.000Z</time>
      </trkpt>
      <trkpt lat="41.1575744859874248504638671875" lon="-2.41333977319300174713134765625">
        <ele>972</ele>
        <time>2019-07-07T13:11:35.000Z</time>
      </trkpt>
      <trkpt lat="41.157649420201778411865234375" lon="-2.4134830199182033538818359375">
        <ele>974.4000244140625</ele>
        <time>2019-07-07T13:11:36.000Z</time>
      </trkpt>
      <trkpt lat="41.15774095058441162109375" lon="-2.41361503489315509796142578125">
        <ele>976.4000244140625</ele>
        <time>2019-07-07T13:11:37.000Z</time>
      </trkpt>
      <trkpt lat="41.15795812569558620452880859375" lon="-2.4138541705906391143798828125">
        <ele>977.79998779296875</ele>
        <time>2019-07-07T13:11:39.000Z</time>
      </trkpt>
      <trkpt lat="41.158332712948322296142578125" lon="-2.41420092992484569549560546875">
        <ele>977</ele>
        <time>2019-07-07T13:11:42.000Z</time>
      </trkpt>
      <trkpt lat="41.15845936350524425506591796875" lon="-2.4143202044069766998291015625">
        <ele>976.5999755859375</ele>
        <time>2019-07-07T13:11:43.000Z</time>
      </trkpt>
      <trkpt lat="41.15881760604679584503173828125" lon="-2.41470484994351863861083984375">
        <ele>976</ele>
        <time>2019-07-07T13:11:46.000Z</time>
      </trkpt>
      <trkpt lat="41.15892925299704074859619140625" lon="-2.4148408882319927215576171875">
        <ele>975.4000244140625</ele>
        <time>2019-07-07T13:11:47.000Z</time>
      </trkpt>
      <trkpt lat="41.1591479368507862091064453125" lon="-2.4151020683348178863525390625">
        <ele>974.4000244140625</ele>
        <time>2019-07-07T13:11:49.000Z</time>
      </trkpt>
      <trkpt lat="41.15937751717865467071533203125" lon="-2.4153506755828857421875">
        <ele>972.79998779296875</ele>
        <time>2019-07-07T13:11:51.000Z</time>
      </trkpt>
      <trkpt lat="41.15962360985577106475830078125" lon="-2.41558059118688106536865234375">
        <ele>971.79998779296875</ele>
        <time>2019-07-07T13:11:53.000Z</time>
      </trkpt>
      <trkpt lat="41.16003348492085933685302734375" lon="-2.415889464318752288818359375">
        <ele>971.5999755859375</ele>
        <time>2019-07-07T13:11:56.000Z</time>
      </trkpt>
      <trkpt lat="41.16043682210147380828857421875" lon="-2.416190542280673980712890625">
        <ele>971.20001220703125</ele>
        <time>2019-07-07T13:11:59.000Z</time>
      </trkpt>
      <trkpt lat="41.16056322120130062103271484375" lon="-2.41630746982991695404052734375">
        <ele>970.5999755859375</ele>
        <time>2019-07-07T13:12:00.000Z</time>
      </trkpt>
      <trkpt lat="41.1606824956834316253662109375" lon="-2.41643940098583698272705078125">
        <ele>970.79998779296875</ele>
        <time>2019-07-07T13:12:01.000Z</time>
      </trkpt>
      <trkpt lat="41.160794310271739959716796875" lon="-2.41658792831003665924072265625">
        <ele>971.20001220703125</ele>
        <time>2019-07-07T13:12:02.000Z</time>
      </trkpt>
      <trkpt lat="41.1608938872814178466796875" lon="-2.41674936376512050628662109375">
        <ele>971.4000244140625</ele>
        <time>2019-07-07T13:12:03.000Z</time>
      </trkpt>
      <trkpt lat="41.16097896359860897064208984375" lon="-2.41691909730434417724609375">
        <ele>971.79998779296875</ele>
        <time>2019-07-07T13:12:04.000Z</time>
      </trkpt>
      <trkpt lat="41.1611156724393367767333984375" lon="-2.4172461591660976409912109375">
        <ele>973.20001220703125</ele>
        <time>2019-07-07T13:12:06.000Z</time>
      </trkpt>
      <trkpt lat="41.16117359139025211334228515625" lon="-2.417406924068927764892578125">
        <ele>974.79998779296875</ele>
        <time>2019-07-07T13:12:07.000Z</time>
      </trkpt>
      <trkpt lat="41.16122941486537456512451171875" lon="-2.4175670184195041656494140625">
        <ele>975.79998779296875</ele>
        <time>2019-07-07T13:12:08.000Z</time>
      </trkpt>
      <trkpt lat="41.16142421029508113861083984375" lon="-2.4182415939867496490478515625">
        <ele>976.79998779296875</ele>
        <time>2019-07-07T13:12:12.000Z</time>
      </trkpt>
      <trkpt lat="41.16150165908038616180419921875" lon="-2.4188175983726978302001953125">
        <ele>974.79998779296875</ele>
        <time>2019-07-07T13:12:15.000Z</time>
      </trkpt>
      <trkpt lat="41.16155765019357204437255859375" lon="-2.4194207601249217987060546875">
        <ele>973.5999755859375</ele>
        <time>2019-07-07T13:12:18.000Z</time>
      </trkpt>
      <trkpt lat="41.1615760065615177154541015625" lon="-2.41962251253426074981689453125">
        <ele>972</ele>
        <time>2019-07-07T13:12:19.000Z</time>
      </trkpt>
      <trkpt lat="41.16159587167203426361083984375" lon="-2.419821582734584808349609375">
        <ele>970.5999755859375</ele>
        <time>2019-07-07T13:12:20.000Z</time>
      </trkpt>
      <trkpt lat="41.1616162396967411041259765625" lon="-2.4200155399739742279052734375">
        <ele>968.5999755859375</ele>
        <time>2019-07-07T13:12:21.000Z</time>
      </trkpt>
      <trkpt lat="41.161632835865020751953125" lon="-2.42020304314792156219482421875">
        <ele>966.5999755859375</ele>
        <time>2019-07-07T13:12:22.000Z</time>
      </trkpt>
      <trkpt lat="41.16164155304431915283203125" lon="-2.42038660682737827301025390625">
        <ele>965.20001220703125</ele>
        <time>2019-07-07T13:12:23.000Z</time>
      </trkpt>
      <trkpt lat="41.1616360209882259368896484375" lon="-2.4205700866878032684326171875">
        <ele>964.5999755859375</ele>
        <time>2019-07-07T13:12:24.000Z</time>
      </trkpt>
      <trkpt lat="41.1616085283458232879638671875" lon="-2.4207571707665920257568359375">
        <ele>964.20001220703125</ele>
        <time>2019-07-07T13:12:25.000Z</time>
      </trkpt>
      <trkpt lat="41.16156301461160182952880859375" lon="-2.42094618268311023712158203125">
        <ele>963.79998779296875</ele>
        <time>2019-07-07T13:12:26.000Z</time>
      </trkpt>
      <trkpt lat="41.16142856888473033905029296875" lon="-2.421298138797283172607421875">
        <ele>963.79998779296875</ele>
        <time>2019-07-07T13:12:28.000Z</time>
      </trkpt>
      <trkpt lat="41.16123628802597522735595703125" lon="-2.42160885594785213470458984375">
        <ele>964.5999755859375</ele>
        <time>2019-07-07T13:12:30.000Z</time>
      </trkpt>
      <trkpt lat="41.160982735455036163330078125" lon="-2.42185436189174652099609375">
        <ele>965.20001220703125</ele>
        <time>2019-07-07T13:12:32.000Z</time>
      </trkpt>
      <trkpt lat="41.16083479486405849456787109375" lon="-2.421943880617618560791015625">
        <ele>966.4000244140625</ele>
        <time>2019-07-07T13:12:33.000Z</time>
      </trkpt>
      <trkpt lat="41.16067654453217983245849609375" lon="-2.42201118730008602142333984375">
        <ele>967.20001220703125</ele>
        <time>2019-07-07T13:12:34.000Z</time>
      </trkpt>
      <trkpt lat="41.16051678545773029327392578125" lon="-2.42206583730876445770263671875">
        <ele>968.4000244140625</ele>
        <time>2019-07-07T13:12:35.000Z</time>
      </trkpt>
      <trkpt lat="41.16035702638328075408935546875" lon="-2.42211545817553997039794921875">
        <ele>969.5999755859375</ele>
        <time>2019-07-07T13:12:36.000Z</time>
      </trkpt>
      <trkpt lat="41.1601986922323703765869140625" lon="-2.42216474376618862152099609375">
        <ele>970.79998779296875</ele>
        <time>2019-07-07T13:12:37.000Z</time>
      </trkpt>
      <trkpt lat="41.16004186682403087615966796875" lon="-2.42221553809940814971923828125">
        <ele>972</ele>
        <time>2019-07-07T13:12:38.000Z</time>
      </trkpt>
      <trkpt lat="41.15988646633923053741455078125" lon="-2.42227010428905487060546875">
        <ele>973.20001220703125</ele>
        <time>2019-07-07T13:12:39.000Z</time>
      </trkpt>
      <trkpt lat="41.159737519919872283935546875" lon="-2.42233808152377605438232421875">
        <ele>974</ele>
        <time>2019-07-07T13:12:40.000Z</time>
      </trkpt>
      <trkpt lat="41.15960215218365192413330078125" lon="-2.42242709733545780181884765625">
        <ele>975.20001220703125</ele>
        <time>2019-07-07T13:12:41.000Z</time>
      </trkpt>
      <trkpt lat="41.15948799066245555877685546875" lon="-2.42253690026700496673583984375">
        <ele>976</ele>
        <time>2019-07-07T13:12:42.000Z</time>
      </trkpt>
      <trkpt lat="41.159394197165966033935546875" lon="-2.42265877313911914825439453125">
        <ele>977</ele>
        <time>2019-07-07T13:12:43.000Z</time>
      </trkpt>
      <trkpt lat="41.15932186134159564971923828125" lon="-2.42278240621089935302734375">
        <ele>977.5999755859375</ele>
        <time>2019-07-07T13:12:44.000Z</time>
      </trkpt>
      <trkpt lat="41.1592294089496135711669921875" lon="-2.42302170954644680023193359375">
        <ele>978.4000244140625</ele>
        <time>2019-07-07T13:12:46.000Z</time>
      </trkpt>
      <trkpt lat="41.15921993739902973175048828125" lon="-2.42322488687932491302490234375">
        <ele>979</ele>
        <time>2019-07-07T13:12:48.000Z</time>
      </trkpt>
      <trkpt lat="41.15925178863108158111572265625" lon="-2.4232908524572849273681640625">
        <ele>979.5999755859375</ele>
        <time>2019-07-07T13:12:49.000Z</time>
      </trkpt>
      <trkpt lat="41.1593004874885082244873046875" lon="-2.42332496680319309234619140625">
        <ele>980</ele>
        <time>2019-07-07T13:12:50.000Z</time>
      </trkpt>
      <trkpt lat="41.159423030912876129150390625" lon="-2.423305101692676544189453125">
        <ele>980.5999755859375</ele>
        <time>2019-07-07T13:12:52.000Z</time>
      </trkpt>
      <trkpt lat="41.1599462293088436126708984375" lon="-2.42297912947833538055419921875">
        <ele>980.20001220703125</ele>
        <time>2019-07-07T13:12:57.000Z</time>
      </trkpt>
      <trkpt lat="41.16007916629314422607421875" lon="-2.4228838272392749786376953125">
        <ele>979.20001220703125</ele>
        <time>2019-07-07T13:12:58.000Z</time>
      </trkpt>
      <trkpt lat="41.1602167971432209014892578125" lon="-2.4227845855057239532470703125">
        <ele>977.79998779296875</ele>
        <time>2019-07-07T13:12:59.000Z</time>
      </trkpt>
      <trkpt lat="41.160363145172595977783203125" lon="-2.42268794216215610504150390625">
        <ele>975.79998779296875</ele>
        <time>2019-07-07T13:13:00.000Z</time>
      </trkpt>
      <trkpt lat="41.1605135165154933929443359375" lon="-2.42260579951107501983642578125">
        <ele>974.20001220703125</ele>
        <time>2019-07-07T13:13:01.000Z</time>
      </trkpt>
      <trkpt lat="41.16066229529678821563720703125" lon="-2.42254360578954219818115234375">
        <ele>973</ele>
        <time>2019-07-07T13:13:02.000Z</time>
      </trkpt>
      <trkpt lat="41.16094862110912799835205078125" lon="-2.42246967740356922149658203125">
        <ele>972</ele>
        <time>2019-07-07T13:13:04.000Z</time>
      </trkpt>
      <trkpt lat="41.16144550032913684844970703125" lon="-2.42243631742894649505615234375">
        <ele>972.5999755859375</ele>
        <time>2019-07-07T13:13:08.000Z</time>
      </trkpt>
      <trkpt lat="41.1615713126957416534423828125" lon="-2.422449477016925811767578125">
        <ele>973.20001220703125</ele>
        <time>2019-07-07T13:13:09.000Z</time>
      </trkpt>
      <trkpt lat="41.162068359553813934326171875" lon="-2.4225391633808612823486328125">
        <ele>972.79998779296875</ele>
        <time>2019-07-07T13:13:13.000Z</time>
      </trkpt>
      <trkpt lat="41.16232241503894329071044921875" lon="-2.42258434183895587921142578125">
        <ele>971.5999755859375</ele>
        <time>2019-07-07T13:13:15.000Z</time>
      </trkpt>
      <trkpt lat="41.1628098227083683013916015625" lon="-2.4226829968392848968505859375">
        <ele>973.20001220703125</ele>
        <time>2019-07-07T13:13:19.000Z</time>
      </trkpt>
      <trkpt lat="41.16304107941687107086181640625" lon="-2.4227289296686649322509765625">
        <ele>974.5999755859375</ele>
        <time>2019-07-07T13:13:21.000Z</time>
      </trkpt>
      <trkpt lat="41.16355103440582752227783203125" lon="-2.422749213874340057373046875">
        <ele>974</ele>
        <time>2019-07-07T13:13:26.000Z</time>
      </trkpt>
      <trkpt lat="41.163727305829524993896484375" lon="-2.42273236624896526336669921875">
        <ele>973.5999755859375</ele>
        <time>2019-07-07T13:13:28.000Z</time>
      </trkpt>
      <trkpt lat="41.164238937199115753173828125" lon="-2.42267536930739879608154296875">
        <ele>973</ele>
        <time>2019-07-07T13:13:34.000Z</time>
      </trkpt>
      <trkpt lat="41.164754927158355712890625" lon="-2.4225730262696743011474609375">
        <ele>974.5999755859375</ele>
        <time>2019-07-07T13:13:41.000Z</time>
      </trkpt>
      <trkpt lat="41.1650974117219448089599609375" lon="-2.4224355630576610565185546875">
        <ele>975.5999755859375</ele>
        <time>2019-07-07T13:13:46.000Z</time>
      </trkpt>
      <trkpt lat="41.16551977582275867462158203125" lon="-2.4221991933882236480712890625">
        <ele>975</ele>
        <time>2019-07-07T13:13:56.000Z</time>
      </trkpt>
      <trkpt lat="41.16558079607784748077392578125" lon="-2.42227639071643352508544921875">
        <ele>975</ele>
        <time>2019-07-07T13:13:58.000Z</time>
      </trkpt>
      <trkpt lat="41.1658289842307567596435546875" lon="-2.42285038344562053680419921875">
        <ele>975.5999755859375</ele>
        <time>2019-07-07T13:14:05.000Z</time>
      </trkpt>
      <trkpt lat="41.16596032865345478057861328125" lon="-2.42316051386296749114990234375">
        <ele>976.79998779296875</ele>
        <time>2019-07-07T13:14:08.000Z</time>
      </trkpt>
      <trkpt lat="41.1661189980804920196533203125" lon="-2.42357139475643634796142578125">
        <ele>978</ele>
        <time>2019-07-07T13:14:11.000Z</time>
      </trkpt>
      <trkpt lat="41.16639836691319942474365234375" lon="-2.424223758280277252197265625">
        <ele>978</ele>
        <time>2019-07-07T13:14:15.000Z</time>
      </trkpt>
      <trkpt lat="41.166671030223369598388671875" lon="-2.42490939795970916748046875">
        <ele>980.5999755859375</ele>
        <time>2019-07-07T13:14:19.000Z</time>
      </trkpt>
      <trkpt lat="41.1667452938854694366455078125" lon="-2.42533058859407901763916015625">
        <ele>980.5999755859375</ele>
        <time>2019-07-07T13:14:21.000Z</time>
      </trkpt>
      <trkpt lat="41.1667449586093425750732421875" lon="-2.42556896992027759552001953125">
        <ele>981.5999755859375</ele>
        <time>2019-07-07T13:14:22.000Z</time>
      </trkpt>
      <trkpt lat="41.1667235009372234344482421875" lon="-2.425818331539630889892578125">
        <ele>981.79998779296875</ele>
        <time>2019-07-07T13:14:23.000Z</time>
      </trkpt>
      <trkpt lat="41.16660674102604389190673828125" lon="-2.42662006057798862457275390625">
        <ele>981.5999755859375</ele>
        <time>2019-07-07T13:14:26.000Z</time>
      </trkpt>
      <trkpt lat="41.16652174852788448333740234375" lon="-2.4271609447896480560302734375">
        <ele>982.5999755859375</ele>
        <time>2019-07-07T13:14:28.000Z</time>
      </trkpt>
      <trkpt lat="41.16643088869750499725341796875" lon="-2.42769730277359485626220703125">
        <ele>985.20001220703125</ele>
        <time>2019-07-07T13:14:30.000Z</time>
      </trkpt>
      <trkpt lat="41.16638545878231525421142578125" lon="-2.42796116508543491363525390625">
        <ele>988</ele>
        <time>2019-07-07T13:14:31.000Z</time>
      </trkpt>
      <trkpt lat="41.16634539328515529632568359375" lon="-2.4282210879027843475341796875">
        <ele>991.20001220703125</ele>
        <time>2019-07-07T13:14:32.000Z</time>
      </trkpt>
      <trkpt lat="41.16630784235894680023193359375" lon="-2.42847581394016742706298828125">
        <ele>994.4000244140625</ele>
        <time>2019-07-07T13:14:33.000Z</time>
      </trkpt>
      <trkpt lat="41.16626995615661144256591796875" lon="-2.42872416973114013671875">
        <ele>996</ele>
        <time>2019-07-07T13:14:34.000Z</time>
      </trkpt>
      <trkpt lat="41.16622972302138805389404296875" lon="-2.42896665818989276885986328125">
        <ele>997.79998779296875</ele>
        <time>2019-07-07T13:14:35.000Z</time>
      </trkpt>
      <trkpt lat="41.16618253290653228759765625" lon="-2.42920302785933017730712890625">
        <ele>999.5999755859375</ele>
        <time>2019-07-07T13:14:36.000Z</time>
      </trkpt>
      <trkpt lat="41.16600827313959598541259765625" lon="-2.429832257330417633056640625">
        <ele>1001.79998779296875</ele>
        <time>2019-07-07T13:14:39.000Z</time>
      </trkpt>
      <trkpt lat="41.1659553833305835723876953125" lon="-2.42999914102256298065185546875">
        <ele>1003.20001220703125</ele>
        <time>2019-07-07T13:14:40.000Z</time>
      </trkpt>
      <trkpt lat="41.16589981131255626678466796875" lon="-2.4301438964903354644775390625">
        <ele>1004.79998779296875</ele>
        <time>2019-07-07T13:14:41.000Z</time>
      </trkpt>
      <trkpt lat="41.16574139334261417388916015625" lon="-2.430344559252262115478515625">
        <ele>1007.4000244140625</ele>
        <time>2019-07-07T13:14:43.000Z</time>
      </trkpt>
      <trkpt lat="41.1656405590474605560302734375" lon="-2.4303698725998401641845703125">
        <ele>1009.5999755859375</ele>
        <time>2019-07-07T13:14:44.000Z</time>
      </trkpt>
      <trkpt lat="41.16553570143878459930419921875" lon="-2.43034011684358119964599609375">
        <ele>1011.79998779296875</ele>
        <time>2019-07-07T13:14:45.000Z</time>
      </trkpt>
      <trkpt lat="41.16543210111558437347412109375" lon="-2.43025428615510463714599609375">
        <ele>1013.20001220703125</ele>
        <time>2019-07-07T13:14:46.000Z</time>
      </trkpt>
      <trkpt lat="41.1653331108391284942626953125" lon="-2.430127970874309539794921875">
        <ele>1014.4000244140625</ele>
        <time>2019-07-07T13:14:47.000Z</time>
      </trkpt>
      <trkpt lat="41.1651259101927280426025390625" lon="-2.4297957122325897216796875">
        <ele>1016</ele>
        <time>2019-07-07T13:14:49.000Z</time>
      </trkpt>
      <trkpt lat="41.16490437649190425872802734375" lon="-2.4294176883995532989501953125">
        <ele>1018</ele>
        <time>2019-07-07T13:14:51.000Z</time>
      </trkpt>
      <trkpt lat="41.16468057967722415924072265625" lon="-2.429032288491725921630859375">
        <ele>1019</ele>
        <time>2019-07-07T13:14:53.000Z</time>
      </trkpt>
      <trkpt lat="41.16458795964717864990234375" lon="-2.42882408201694488525390625">
        <ele>1019.4000244140625</ele>
        <time>2019-07-07T13:14:54.000Z</time>
      </trkpt>
      <trkpt lat="41.16449248977005481719970703125" lon="-2.428357712924480438232421875">
        <ele>1020.5999755859375</ele>
        <time>2019-07-07T13:14:56.000Z</time>
      </trkpt>
      <trkpt lat="41.1644248478114604949951171875" lon="-2.42762505076825618743896484375">
        <ele>1021.5999755859375</ele>
        <time>2019-07-07T13:14:59.000Z</time>
      </trkpt>
      <trkpt lat="41.16435284726321697235107421875" lon="-2.42718533612787723541259765625">
        <ele>1022.79998779296875</ele>
        <time>2019-07-07T13:15:01.000Z</time>
      </trkpt>
      <trkpt lat="41.16430959664285182952880859375" lon="-2.42698936723172664642333984375">
        <ele>1024.199951171875</ele>
        <time>2019-07-07T13:15:02.000Z</time>
      </trkpt>
      <trkpt lat="41.164253018796443939208984375" lon="-2.42680345661938190460205078125">
        <ele>1025.199951171875</ele>
        <time>2019-07-07T13:15:03.000Z</time>
      </trkpt>
      <trkpt lat="41.16417448036372661590576171875" lon="-2.42663145996630191802978515625">
        <ele>1027.5999755859375</ele>
        <time>2019-07-07T13:15:04.000Z</time>
      </trkpt>
      <trkpt lat="41.16407163441181182861328125" lon="-2.4264778196811676025390625">
        <ele>1029.800048828125</ele>
        <time>2019-07-07T13:15:05.000Z</time>
      </trkpt>
      <trkpt lat="41.16394691169261932373046875" lon="-2.42633842863142490386962890625">
        <ele>1031.800048828125</ele>
        <time>2019-07-07T13:15:06.000Z</time>
      </trkpt>
      <trkpt lat="41.1638072691857814788818359375" lon="-2.426200211048126220703125">
        <ele>1033.199951171875</ele>
        <time>2019-07-07T13:15:07.000Z</time>
      </trkpt>
      <trkpt lat="41.16351666860282421112060546875" lon="-2.4259187467396259307861328125">
        <ele>1034.800048828125</ele>
        <time>2019-07-07T13:15:09.000Z</time>
      </trkpt>
      <trkpt lat="41.16313411854207515716552734375" lon="-2.42554030381143093109130859375">
        <ele>1036</ele>
        <time>2019-07-07T13:15:12.000Z</time>
      </trkpt>
      <trkpt lat="41.16294552572071552276611328125" lon="-2.42537149228155612945556640625">
        <ele>1036.199951171875</ele>
        <time>2019-07-07T13:15:14.000Z</time>
      </trkpt>
      <trkpt lat="41.16279649548232555389404296875" lon="-2.42534366436302661895751953125">
        <ele>1037.800048828125</ele>
        <time>2019-07-07T13:15:16.000Z</time>
      </trkpt>
      <trkpt lat="41.16275190375745296478271484375" lon="-2.4254014156758785247802734375">
        <ele>1039.199951171875</ele>
        <time>2019-07-07T13:15:17.000Z</time>
      </trkpt>
      <trkpt lat="41.16274318657815456390380859375" lon="-2.42548163048923015594482421875">
        <ele>1040.800048828125</ele>
        <time>2019-07-07T13:15:18.000Z</time>
      </trkpt>
      <trkpt lat="41.16282465867698192596435546875" lon="-2.425646670162677764892578125">
        <ele>1042</ele>
        <time>2019-07-07T13:15:20.000Z</time>
      </trkpt>
      <trkpt lat="41.16321106441318988800048828125" lon="-2.426048330962657928466796875">
        <ele>1042.800048828125</ele>
        <time>2019-07-07T13:15:24.000Z</time>
      </trkpt>
      <trkpt lat="41.1635185964405536651611328125" lon="-2.42646038532257080078125">
        <ele>1043</ele>
        <time>2019-07-07T13:15:27.000Z</time>
      </trkpt>
      <trkpt lat="41.163591854274272918701171875" lon="-2.426605559885501861572265625">
        <ele>1043</ele>
        <time>2019-07-07T13:15:28.000Z</time>
      </trkpt>
      <trkpt lat="41.16367466747760772705078125" lon="-2.4269423447549343109130859375">
        <ele>1043.4000244140625</ele>
        <time>2019-07-07T13:15:30.000Z</time>
      </trkpt>
      <trkpt lat="41.1636798642575740814208984375" lon="-2.42712565697729587554931640625">
        <ele>1044.199951171875</ele>
        <time>2019-07-07T13:15:31.000Z</time>
      </trkpt>
      <trkpt lat="41.16367173381149768829345703125" lon="-2.4273200333118438720703125">
        <ele>1046</ele>
        <time>2019-07-07T13:15:32.000Z</time>
      </trkpt>
      <trkpt lat="41.1636389605700969696044921875" lon="-2.4277116358280181884765625">
        <ele>1048.4000244140625</ele>
        <time>2019-07-07T13:15:34.000Z</time>
      </trkpt>
      <trkpt lat="41.1636057682335376739501953125" lon="-2.4278998933732509613037109375">
        <ele>1049.5999755859375</ele>
        <time>2019-07-07T13:15:35.000Z</time>
      </trkpt>
      <trkpt lat="41.16355187259614467620849609375" lon="-2.4280873127281665802001953125">
        <ele>1050.5999755859375</ele>
        <time>2019-07-07T13:15:36.000Z</time>
      </trkpt>
      <trkpt lat="41.1634760163724422454833984375" lon="-2.4282703734934329986572265625">
        <ele>1051.800048828125</ele>
        <time>2019-07-07T13:15:37.000Z</time>
      </trkpt>
      <trkpt lat="41.163385994732379913330078125" lon="-2.4284537695348262786865234375">
        <ele>1053.199951171875</ele>
        <time>2019-07-07T13:15:38.000Z</time>
      </trkpt>
      <trkpt lat="41.1632931232452392578125" lon="-2.4286371655762195587158203125">
        <ele>1054.5999755859375</ele>
        <time>2019-07-07T13:15:39.000Z</time>
      </trkpt>
      <trkpt lat="41.16320720873773097991943359375" lon="-2.4288175441324710845947265625">
        <ele>1056</ele>
        <time>2019-07-07T13:15:40.000Z</time>
      </trkpt>
      <trkpt lat="41.163137890398502349853515625" lon="-2.4289977550506591796875">
        <ele>1057</ele>
        <time>2019-07-07T13:15:41.000Z</time>
      </trkpt>
      <trkpt lat="41.163096986711025238037109375" lon="-2.429187186062335968017578125">
        <ele>1058.4000244140625</ele>
        <time>2019-07-07T13:15:42.000Z</time>
      </trkpt>
      <trkpt lat="41.1630924604833126068115234375" lon="-2.42938759736716747283935546875">
        <ele>1059.5999755859375</ele>
        <time>2019-07-07T13:15:43.000Z</time>
      </trkpt>
      <trkpt lat="41.1631192825734615325927734375" lon="-2.4295940436422824859619140625">
        <ele>1060.5999755859375</ele>
        <time>2019-07-07T13:15:44.000Z</time>
      </trkpt>
      <trkpt lat="41.1631710827350616455078125" lon="-2.42980333976447582244873046875">
        <ele>1061.5999755859375</ele>
        <time>2019-07-07T13:15:45.000Z</time>
      </trkpt>
      <trkpt lat="41.16324878297746181488037109375" lon="-2.43000693619251251220703125">
        <ele>1062.4000244140625</ele>
        <time>2019-07-07T13:15:46.000Z</time>
      </trkpt>
      <trkpt lat="41.163353137671947479248046875" lon="-2.430191673338413238525390625">
        <ele>1063.199951171875</ele>
        <time>2019-07-07T13:15:47.000Z</time>
      </trkpt>
      <trkpt lat="41.1634750105440616607666015625" lon="-2.43035520426928997039794921875">
        <ele>1063.5999755859375</ele>
        <time>2019-07-07T13:15:48.000Z</time>
      </trkpt>
      <trkpt lat="41.16359663195908069610595703125" lon="-2.430518567562103271484375">
        <ele>1064.199951171875</ele>
        <time>2019-07-07T13:15:49.000Z</time>
      </trkpt>
      <trkpt lat="41.1637013219296932220458984375" lon="-2.430699281394481658935546875">
        <ele>1064.800048828125</ele>
        <time>2019-07-07T13:15:50.000Z</time>
      </trkpt>
      <trkpt lat="41.1637881584465503692626953125" lon="-2.43090120144188404083251953125">
        <ele>1065.800048828125</ele>
        <time>2019-07-07T13:15:51.000Z</time>
      </trkpt>
      <trkpt lat="41.163857392966747283935546875" lon="-2.4311158619821071624755859375">
        <ele>1067</ele>
        <time>2019-07-07T13:15:52.000Z</time>
      </trkpt>
      <trkpt lat="41.1639051698148250579833984375" lon="-2.4313379824161529541015625">
        <ele>1068.199951171875</ele>
        <time>2019-07-07T13:15:53.000Z</time>
      </trkpt>
      <trkpt lat="41.16394297219812870025634765625" lon="-2.431766130030155181884765625">
        <ele>1069.4000244140625</ele>
        <time>2019-07-07T13:15:55.000Z</time>
      </trkpt>
      <trkpt lat="41.16398169659078121185302734375" lon="-2.43213258683681488037109375">
        <ele>1069.4000244140625</ele>
        <time>2019-07-07T13:15:57.000Z</time>
      </trkpt>
      <trkpt lat="41.16413977928459644317626953125" lon="-2.43242838419973850250244140625">
        <ele>1069.199951171875</ele>
        <time>2019-07-07T13:15:59.000Z</time>
      </trkpt>
      <trkpt lat="41.16456340067088603973388671875" lon="-2.43279886431992053985595703125">
        <ele>1069.4000244140625</ele>
        <time>2019-07-07T13:16:02.000Z</time>
      </trkpt>
      <trkpt lat="41.16489431820809841156005859375" lon="-2.43308342993259429931640625">
        <ele>1070.5999755859375</ele>
        <time>2019-07-07T13:16:04.000Z</time>
      </trkpt>
      <trkpt lat="41.16539119742810726165771484375" lon="-2.43357351981103420257568359375">
        <ele>1072.199951171875</ele>
        <time>2019-07-07T13:16:07.000Z</time>
      </trkpt>
      <trkpt lat="41.1657790280878543853759765625" lon="-2.43431179784238338470458984375">
        <ele>1072.4000244140625</ele>
        <time>2019-07-07T13:16:10.000Z</time>
      </trkpt>
      <trkpt lat="41.1658970452845096588134765625" lon="-2.43457817472517490386962890625">
        <ele>1073.5999755859375</ele>
        <time>2019-07-07T13:16:11.000Z</time>
      </trkpt>
      <trkpt lat="41.166020929813385009765625" lon="-2.43483357131481170654296875">
        <ele>1075.199951171875</ele>
        <time>2019-07-07T13:16:12.000Z</time>
      </trkpt>
      <trkpt lat="41.16616467945277690887451171875" lon="-2.43506533093750476837158203125">
        <ele>1077.800048828125</ele>
        <time>2019-07-07T13:16:13.000Z</time>
      </trkpt>
      <trkpt lat="41.16632812656462192535400390625" lon="-2.435269095003604888916015625">
        <ele>1080.4000244140625</ele>
        <time>2019-07-07T13:16:14.000Z</time>
      </trkpt>
      <trkpt lat="41.1665050685405731201171875" lon="-2.43545182049274444580078125">
        <ele>1082</ele>
        <time>2019-07-07T13:16:15.000Z</time>
      </trkpt>
      <trkpt lat="41.16668435744941234588623046875" lon="-2.43562172167003154754638671875">
        <ele>1084.800048828125</ele>
        <time>2019-07-07T13:16:16.000Z</time>
      </trkpt>
      <trkpt lat="41.16685383953154087066650390625" lon="-2.43578298948705196380615234375">
        <ele>1088.800048828125</ele>
        <time>2019-07-07T13:16:17.000Z</time>
      </trkpt>
      <trkpt lat="41.1670037917792797088623046875" lon="-2.435943000018596649169921875">
        <ele>1092.4000244140625</ele>
        <time>2019-07-07T13:16:18.000Z</time>
      </trkpt>
      <trkpt lat="41.16713781841099262237548828125" lon="-2.43611005134880542755126953125">
        <ele>1096</ele>
        <time>2019-07-07T13:16:19.000Z</time>
      </trkpt>
      <trkpt lat="41.16737720556557178497314453125" lon="-2.4364752508699893951416015625">
        <ele>1097.5999755859375</ele>
        <time>2019-07-07T13:16:21.000Z</time>
      </trkpt>
      <trkpt lat="41.1674921214580535888671875" lon="-2.43666828610002994537353515625">
        <ele>1098.800048828125</ele>
        <time>2019-07-07T13:16:22.000Z</time>
      </trkpt>
      <trkpt lat="41.1676136590540409088134765625" lon="-2.43685570545494556427001953125">
        <ele>1100.4000244140625</ele>
        <time>2019-07-07T13:16:23.000Z</time>
      </trkpt>
      <trkpt lat="41.167881377041339874267578125" lon="-2.43721160106360912322998046875">
        <ele>1101.4000244140625</ele>
        <time>2019-07-07T13:16:25.000Z</time>
      </trkpt>
      <trkpt lat="41.16829435341060161590576171875" lon="-2.4376185424625873565673828125">
        <ele>1100.5999755859375</ele>
        <time>2019-07-07T13:16:28.000Z</time>
      </trkpt>
      <trkpt lat="41.1684166453778743743896484375" lon="-2.437718622386455535888671875">
        <ele>1099</ele>
        <time>2019-07-07T13:16:29.000Z</time>
      </trkpt>
      <trkpt lat="41.168629713356494903564453125" lon="-2.43789036758244037628173828125">
        <ele>1097.800048828125</ele>
        <time>2019-07-07T13:16:31.000Z</time>
      </trkpt>
      <trkpt lat="41.16878804750740528106689453125" lon="-2.43803889490664005279541015625">
        <ele>1099</ele>
        <time>2019-07-07T13:16:33.000Z</time>
      </trkpt>
      <trkpt lat="41.1688488163053989410400390625" lon="-2.43809253908693790435791015625">
        <ele>1101</ele>
        <time>2019-07-07T13:16:34.000Z</time>
      </trkpt>
      <trkpt lat="41.16889684461057186126708984375" lon="-2.438117600977420806884765625">
        <ele>1102.5999755859375</ele>
        <time>2019-07-07T13:16:35.000Z</time>
      </trkpt>
      <trkpt lat="41.16893556900322437286376953125" lon="-2.43811190128326416015625">
        <ele>1103.800048828125</ele>
        <time>2019-07-07T13:16:36.000Z</time>
      </trkpt>
      <trkpt lat="41.1689621396362781524658203125" lon="-2.438080720603466033935546875">
        <ele>1105.199951171875</ele>
        <time>2019-07-07T13:16:37.000Z</time>
      </trkpt>
      <trkpt lat="41.16896876133978366851806640625" lon="-2.43802942335605621337890625">
        <ele>1106.199951171875</ele>
        <time>2019-07-07T13:16:38.000Z</time>
      </trkpt>
      <trkpt lat="41.1689326353371143341064453125" lon="-2.43789237923920154571533203125">
        <ele>1107.4000244140625</ele>
        <time>2019-07-07T13:16:40.000Z</time>
      </trkpt>
      <trkpt lat="41.16886197589337825775146484375" lon="-2.43767981417477130889892578125">
        <ele>1107.800048828125</ele>
        <time>2019-07-07T13:16:42.000Z</time>
      </trkpt>
      <trkpt lat="41.1687867902219295501708984375" lon="-2.43720523081719875335693359375">
        <ele>1108.4000244140625</ele>
        <time>2019-07-07T13:16:45.000Z</time>
      </trkpt>
      <trkpt lat="41.168787293136119842529296875" lon="-2.437024600803852081298828125">
        <ele>1108.800048828125</ele>
        <time>2019-07-07T13:16:46.000Z</time>
      </trkpt>
      <trkpt lat="41.16881151683628559112548828125" lon="-2.43684799410402774810791015625">
        <ele>1109.800048828125</ele>
        <time>2019-07-07T13:16:47.000Z</time>
      </trkpt>
      <trkpt lat="41.16886348463594913482666015625" lon="-2.43667851202189922332763671875">
        <ele>1111</ele>
        <time>2019-07-07T13:16:48.000Z</time>
      </trkpt>
      <trkpt lat="41.16893825121223926544189453125" lon="-2.43651665747165679931640625">
        <ele>1112.5999755859375</ele>
        <time>2019-07-07T13:16:49.000Z</time>
      </trkpt>
      <trkpt lat="41.16910438053309917449951171875" lon="-2.4362036772072315216064453125">
        <ele>1114</ele>
        <time>2019-07-07T13:16:51.000Z</time>
      </trkpt>
      <trkpt lat="41.16926573216915130615234375" lon="-2.43585691787302494049072265625">
        <ele>1116.199951171875</ele>
        <time>2019-07-07T13:16:53.000Z</time>
      </trkpt>
      <trkpt lat="41.1693373136222362518310546875" lon="-2.43565910495817661285400390625">
        <ele>1117.5999755859375</ele>
        <time>2019-07-07T13:16:54.000Z</time>
      </trkpt>
      <trkpt lat="41.16939707659184932708740234375" lon="-2.43544335477054119110107421875">
        <ele>1119</ele>
        <time>2019-07-07T13:16:55.000Z</time>
      </trkpt>
      <trkpt lat="41.169446446001529693603515625" lon="-2.43522291071712970733642578125">
        <ele>1120.199951171875</ele>
        <time>2019-07-07T13:16:56.000Z</time>
      </trkpt>
      <trkpt lat="41.1694942228496074676513671875" lon="-2.43501218967139720916748046875">
        <ele>1121.199951171875</ele>
        <time>2019-07-07T13:16:57.000Z</time>
      </trkpt>
      <trkpt lat="41.16954945959150791168212890625" lon="-2.4348163045942783355712890625">
        <ele>1122.4000244140625</ele>
        <time>2019-07-07T13:16:58.000Z</time>
      </trkpt>
      <trkpt lat="41.1696191132068634033203125" lon="-2.43463265709578990936279296875">
        <ele>1124.199951171875</ele>
        <time>2019-07-07T13:16:59.000Z</time>
      </trkpt>
      <trkpt lat="41.16970821283757686614990234375" lon="-2.43446082808077335357666015625">
        <ele>1126.199951171875</ele>
        <time>2019-07-07T13:17:00.000Z</time>
      </trkpt>
      <trkpt lat="41.169810555875301361083984375" lon="-2.43429771624505519866943359375">
        <ele>1128.199951171875</ele>
        <time>2019-07-07T13:17:01.000Z</time>
      </trkpt>
      <trkpt lat="41.16991373710334300994873046875" lon="-2.43413477204740047454833984375">
        <ele>1129.800048828125</ele>
        <time>2019-07-07T13:17:02.000Z</time>
      </trkpt>
      <trkpt lat="41.170010380446910858154296875" lon="-2.43396629579365253448486328125">
        <ele>1130.800048828125</ele>
        <time>2019-07-07T13:17:03.000Z</time>
      </trkpt>
      <trkpt lat="41.1701501905918121337890625" lon="-2.43359439074993133544921875">
        <ele>1132.5999755859375</ele>
        <time>2019-07-07T13:17:05.000Z</time>
      </trkpt>
      <trkpt lat="41.1702516116201877593994140625" lon="-2.4332267604768276214599609375">
        <ele>1133.800048828125</ele>
        <time>2019-07-07T13:17:07.000Z</time>
      </trkpt>
      <trkpt lat="41.1703069321811199188232421875" lon="-2.43306742049753665924072265625">
        <ele>1134.4000244140625</ele>
        <time>2019-07-07T13:17:08.000Z</time>
      </trkpt>
      <trkpt lat="41.1703702993690967559814453125" lon="-2.432929538190364837646484375">
        <ele>1135</ele>
        <time>2019-07-07T13:17:09.000Z</time>
      </trkpt>
      <trkpt lat="41.17049686610698699951171875" lon="-2.43270532228052616119384765625">
        <ele>1136.4000244140625</ele>
        <time>2019-07-07T13:17:11.000Z</time>
      </trkpt>
      <trkpt lat="41.170637346804141998291015625" lon="-2.43243844248354434967041015625">
        <ele>1137.5999755859375</ele>
        <time>2019-07-07T13:17:14.000Z</time>
      </trkpt>
      <trkpt lat="41.170771457254886627197265625" lon="-2.43224079720675945281982421875">
        <ele>1138.800048828125</ele>
        <time>2019-07-07T13:17:17.000Z</time>
      </trkpt>
      <trkpt lat="41.170835830271244049072265625" lon="-2.4321766756474971771240234375">
        <ele>1140</ele>
        <time>2019-07-07T13:17:19.000Z</time>
      </trkpt>
      <trkpt lat="41.170870698988437652587890625" lon="-2.43217189796268939971923828125">
        <ele>1141.199951171875</ele>
        <time>2019-07-07T13:17:22.000Z</time>
      </trkpt>
      <trkpt lat="41.1708708666265010833740234375" lon="-2.43218011222779750823974609375">
        <ele>1142.199951171875</ele>
        <time>2019-07-07T13:17:32.000Z</time>
      </trkpt>
      <trkpt lat="41.1708985269069671630859375" lon="-2.43212093599140644073486328125">
        <ele>1142.199951171875</ele>
        <time>2019-07-07T13:17:38.000Z</time>
      </trkpt>
      <trkpt lat="41.1709758080542087554931640625" lon="-2.43180410005152225494384765625">
        <ele>1142.5999755859375</ele>
        <time>2019-07-07T13:18:14.000Z</time>
      </trkpt>
      <trkpt lat="41.1710016243159770965576171875" lon="-2.43169144727289676666259765625">
        <ele>1142.5999755859375</ele>
        <time>2019-07-07T13:18:17.000Z</time>
      </trkpt>
      <trkpt lat="41.171028949320316314697265625" lon="-2.43168599903583526611328125">
        <ele>1142.5999755859375</ele>
        <time>2019-07-07T13:18:19.000Z</time>
      </trkpt>
      <trkpt lat="41.17102769203484058380126953125" lon="-2.43177794851362705230712890625">
        <ele>1142.5999755859375</ele>
        <time>2019-07-07T13:18:28.000Z</time>
      </trkpt>
      <trkpt lat="41.17092065513134002685546875" lon="-2.43199520744383335113525390625">
        <ele>1142.199951171875</ele>
        <time>2019-07-07T13:18:35.000Z</time>
      </trkpt>
      <trkpt lat="41.17091654799878597259521484375" lon="-2.43209411390125751495361328125">
        <ele>1142.4000244140625</ele>
        <time>2019-07-07T13:18:41.000Z</time>
      </trkpt>
      <trkpt lat="41.17095711641013622283935546875" lon="-2.43214105255901813507080078125">
        <ele>1142.5999755859375</ele>
        <time>2019-07-07T13:18:44.000Z</time>
      </trkpt>
      <trkpt lat="41.17109240032732486724853515625" lon="-2.43216670118272304534912109375">
        <ele>1142.5999755859375</ele>
        <time>2019-07-07T13:18:47.000Z</time>
      </trkpt>
      <trkpt lat="41.1712872795760631561279296875" lon="-2.4322765879333019256591796875">
        <ele>1142.800048828125</ele>
        <time>2019-07-07T13:18:51.000Z</time>
      </trkpt>
      <trkpt lat="41.1714706756174564361572265625" lon="-2.43239276111125946044921875">
        <ele>1143.199951171875</ele>
        <time>2019-07-07T13:19:02.000Z</time>
      </trkpt>
      <trkpt lat="41.17152088321745395660400390625" lon="-2.43249124847352504730224609375">
        <ele>1143.199951171875</ele>
        <time>2019-07-07T13:24:50.000Z</time>
      </trkpt>
      <trkpt lat="41.171584837138652801513671875" lon="-2.43262435309588909149169921875">
        <ele>1142.5999755859375</ele>
        <time>2019-07-07T13:25:02.000Z</time>
      </trkpt>
      <trkpt lat="41.17164560593664646148681640625" lon="-2.4327419511973857879638671875">
        <ele>1143</ele>
        <time>2019-07-07T13:25:19.000Z</time>
      </trkpt>
      <trkpt lat="41.1716577596962451934814453125" lon="-2.4327691085636615753173828125">
        <ele>1142.800048828125</ele>
        <time>2019-07-07T13:25:22.000Z</time>
      </trkpt>
      <trkpt lat="41.1716658063232898712158203125" lon="-2.4327976070344448089599609375">
        <ele>1142.800048828125</ele>
        <time>2019-07-07T13:25:24.000Z</time>
      </trkpt>
      <trkpt lat="41.17174266837537288665771484375" lon="-2.43288637138903141021728515625">
        <ele>1142.800048828125</ele>
        <time>2019-07-07T13:25:36.000Z</time>
      </trkpt>
      <trkpt lat="41.17175876162946224212646484375" lon="-2.432908080518245697021484375">
        <ele>1142.800048828125</ele>
        <time>2019-07-07T13:25:38.000Z</time>
      </trkpt>
      <trkpt lat="41.17181408219039440155029296875" lon="-2.4329867027699947357177734375">
        <ele>1143</ele>
        <time>2019-07-07T13:25:47.000Z</time>
      </trkpt>
      <trkpt lat="41.17185330949723720550537109375" lon="-2.43303607217967510223388671875">
        <ele>1142.199951171875</ele>
        <time>2019-07-07T13:26:18.000Z</time>
      </trkpt>
      <trkpt lat="41.17179933004081249237060546875" lon="-2.432873211801052093505859375">
        <ele>1141.199951171875</ele>
        <time>2019-07-07T13:26:38.000Z</time>
      </trkpt>
      <trkpt lat="41.171547956764698028564453125" lon="-2.432548664510250091552734375">
        <ele>1140.199951171875</ele>
        <time>2019-07-07T13:27:09.000Z</time>
      </trkpt>
      <trkpt lat="41.17153949104249477386474609375" lon="-2.4325387738645076751708984375">
        <ele>1140.199951171875</ele>
        <time>2019-07-07T13:27:10.000Z</time>
      </trkpt>
      <trkpt lat="41.17151987738907337188720703125" lon="-2.43249242193996906280517578125">
        <ele>1140.4000244140625</ele>
        <time>2019-07-07T13:27:14.000Z</time>
      </trkpt>
      <trkpt lat="41.1714968271553516387939453125" lon="-2.43243291042745113372802734375">
        <ele>1140.199951171875</ele>
        <time>2019-07-07T13:27:20.000Z</time>
      </trkpt>
      <trkpt lat="41.17150680162012577056884765625" lon="-2.43261002004146575927734375">
        <ele>1139.4000244140625</ele>
        <time>2019-07-07T13:27:58.000Z</time>
      </trkpt>
      <trkpt lat="41.1715407483279705047607421875" lon="-2.43264128454029560089111328125">
        <ele>1139</ele>
        <time>2019-07-07T13:27:59.000Z</time>
      </trkpt>
      <trkpt lat="41.1716373078525066375732421875" lon="-2.43271739222109317779541015625">
        <ele>1138</ele>
        <time>2019-07-07T13:28:02.000Z</time>
      </trkpt>
      <trkpt lat="41.17175348103046417236328125" lon="-2.43290078826248645782470703125">
        <ele>1137.4000244140625</ele>
        <time>2019-07-07T13:28:16.000Z</time>
      </trkpt>
      <trkpt lat="41.1717590130865573883056640625" lon="-2.4328934960067272186279296875">
        <ele>1139</ele>
        <time>2019-07-07T13:29:07.000Z</time>
      </trkpt>
      <trkpt lat="41.17183319292962551116943359375" lon="-2.43294957093894481658935546875">
        <ele>1138.800048828125</ele>
        <time>2019-07-07T13:30:03.000Z</time>
      </trkpt>
      <trkpt lat="41.17192924953997135162353515625" lon="-2.4331157840788364410400390625">
        <ele>1139</ele>
        <time>2019-07-07T13:30:34.000Z</time>
      </trkpt>
      <trkpt lat="41.1719561554491519927978515625" lon="-2.433183677494525909423828125">
        <ele>1139</ele>
        <time>2019-07-07T13:30:40.000Z</time>
      </trkpt>
      <trkpt lat="41.17212303914129734039306640625" lon="-2.43342381902039051055908203125">
        <ele>1138</ele>
        <time>2019-07-07T13:31:03.000Z</time>
      </trkpt>
      <trkpt lat="41.17224968969821929931640625" lon="-2.43334821425378322601318359375">
        <ele>1138.199951171875</ele>
        <time>2019-07-07T13:31:17.000Z</time>
      </trkpt>
      <trkpt lat="41.17226284928619861602783203125" lon="-2.43332658894360065460205078125">
        <ele>1138.199951171875</ele>
        <time>2019-07-07T13:31:19.000Z</time>
      </trkpt>
      <trkpt lat="41.1722944490611553192138671875" lon="-2.4333045445382595062255859375">
        <ele>1138.199951171875</ele>
        <time>2019-07-07T13:31:22.000Z</time>
      </trkpt>
      <trkpt lat="41.1723159067332744598388671875" lon="-2.43329037912189960479736328125">
        <ele>1138.199951171875</ele>
        <time>2019-07-07T13:31:24.000Z</time>
      </trkpt>
      <trkpt lat="41.1723470874130725860595703125" lon="-2.4332458712160587310791015625">
        <ele>1138.199951171875</ele>
        <time>2019-07-07T13:31:27.000Z</time>
      </trkpt>
      <trkpt lat="41.17241841740906238555908203125" lon="-2.43324168026447296142578125">
        <ele>1138.4000244140625</ele>
        <time>2019-07-07T13:31:33.000Z</time>
      </trkpt>
      <trkpt lat="41.172445155680179595947265625" lon="-2.4332733638584613800048828125">
        <ele>1138.5999755859375</ele>
        <time>2019-07-07T13:31:36.000Z</time>
      </trkpt>
      <trkpt lat="41.172420345246791839599609375" lon="-2.43342683650553226470947265625">
        <ele>1138.800048828125</ele>
        <time>2019-07-07T13:31:57.000Z</time>
      </trkpt>
      <trkpt lat="41.172397546470165252685546875" lon="-2.4335754476487636566162109375">
        <ele>1138.800048828125</ele>
        <time>2019-07-07T13:32:06.000Z</time>
      </trkpt>
      <trkpt lat="41.17236074991524219512939453125" lon="-2.43358768522739410400390625">
        <ele>1139</ele>
        <time>2019-07-07T13:32:08.000Z</time>
      </trkpt>
      <trkpt lat="41.17239276878535747528076171875" lon="-2.43382413871586322784423828125">
        <ele>1140</ele>
        <time>2019-07-07T13:32:30.000Z</time>
      </trkpt>
      <trkpt lat="41.1723957024514675140380859375" lon="-2.43391516618430614471435546875">
        <ele>1140.199951171875</ele>
        <time>2019-07-07T13:32:35.000Z</time>
      </trkpt>
      <trkpt lat="41.17239092476665973663330078125" lon="-2.434023879468441009521484375">
        <ele>1140.199951171875</ele>
        <time>2019-07-07T13:32:41.000Z</time>
      </trkpt>
      <trkpt lat="41.1723554693162441253662109375" lon="-2.43415094912052154541015625">
        <ele>1140.4000244140625</ele>
        <time>2019-07-07T13:32:47.000Z</time>
      </trkpt>
      <trkpt lat="41.1723397113382816314697265625" lon="-2.43419411592185497283935546875">
        <ele>1140.4000244140625</ele>
        <time>2019-07-07T13:32:51.000Z</time>
      </trkpt>
      <trkpt lat="41.17235563695430755615234375" lon="-2.43424876593053340911865234375">
        <ele>1140.4000244140625</ele>
        <time>2019-07-07T13:32:54.000Z</time>
      </trkpt>
      <trkpt lat="41.172417663037776947021484375" lon="-2.43430743925273418426513671875">
        <ele>1140.4000244140625</ele>
        <time>2019-07-07T13:33:17.000Z</time>
      </trkpt>
      <trkpt lat="41.17244289256632328033447265625" lon="-2.43429570458829402923583984375">
        <ele>1140.5999755859375</ele>
        <time>2019-07-07T13:33:20.000Z</time>
      </trkpt>
      <trkpt lat="41.1725851334631443023681640625" lon="-2.434160001575946807861328125">
        <ele>1138.800048828125</ele>
        <time>2019-07-07T13:33:48.000Z</time>
      </trkpt>
      <trkpt lat="41.17265579290688037872314453125" lon="-2.434098981320858001708984375">
        <ele>1137.800048828125</ele>
        <time>2019-07-07T13:34:52.000Z</time>
      </trkpt>
      <trkpt lat="41.17264959029853343963623046875" lon="-2.4341524578630924224853515625">
        <ele>1136.800048828125</ele>
        <time>2019-07-07T13:36:04.000Z</time>
      </trkpt>
      <trkpt lat="41.17263802327215671539306640625" lon="-2.434153966605663299560546875">
        <ele>1136.800048828125</ele>
        <time>2019-07-07T13:36:53.000Z</time>
      </trkpt>
      <trkpt lat="41.1669665761291980743408203125" lon="-2.43594668805599212646484375">
        <ele>1101.5999755859375</ele>
        <time>2019-07-07T14:52:54.000Z</time>
      </trkpt>
      <trkpt lat="41.16693799383938312530517578125" lon="-2.4359492026269435882568359375">
        <ele>1100.5999755859375</ele>
        <time>2019-07-07T14:53:32.000Z</time>
      </trkpt>
      <trkpt lat="41.16693799383938312530517578125" lon="-2.43595096282660961151123046875">
        <ele>1099.5999755859375</ele>
        <time>2019-07-07T14:53:45.000Z</time>
      </trkpt>
      <trkpt lat="41.1669404245913028717041015625" lon="-2.4359513819217681884765625">
        <ele>1099.800048828125</ele>
        <time>2019-07-07T14:55:08.000Z</time>
      </trkpt>
      <trkpt lat="41.16685719229280948638916015625" lon="-2.43581618182361125946044921875">
        <ele>1099.5999755859375</ele>
        <time>2019-07-07T14:55:32.000Z</time>
      </trkpt>
      <trkpt lat="41.16661277599632740020751953125" lon="-2.4355733580887317657470703125">
        <ele>1098.199951171875</ele>
        <time>2019-07-07T14:55:36.000Z</time>
      </trkpt>
      <trkpt lat="41.1664663441479206085205078125" lon="-2.4354328773915767669677734375">
        <ele>1096.5999755859375</ele>
        <time>2019-07-07T14:55:38.000Z</time>
      </trkpt>
      <trkpt lat="41.16632175631821155548095703125" lon="-2.435291893780231475830078125">
        <ele>1095.199951171875</ele>
        <time>2019-07-07T14:55:40.000Z</time>
      </trkpt>
      <trkpt lat="41.165997125208377838134765625" lon="-2.43485695682466030120849609375">
        <ele>1094.4000244140625</ele>
        <time>2019-07-07T14:55:45.000Z</time>
      </trkpt>
      <trkpt lat="41.16594381630420684814453125" lon="-2.43475134484469890594482421875">
        <ele>1094</ele>
        <time>2019-07-07T14:55:46.000Z</time>
      </trkpt>
      <trkpt lat="41.16583862341940402984619140625" lon="-2.4345286376774311065673828125">
        <ele>1092.4000244140625</ele>
        <time>2019-07-07T14:55:48.000Z</time>
      </trkpt>
      <trkpt lat="41.16573317907750606536865234375" lon="-2.43428749032318592071533203125">
        <ele>1091</ele>
        <time>2019-07-07T14:55:50.000Z</time>
      </trkpt>
      <trkpt lat="41.16561834700405597686767578125" lon="-2.4340294115245342254638671875">
        <ele>1089.4000244140625</ele>
        <time>2019-07-07T14:55:52.000Z</time>
      </trkpt>
      <trkpt lat="41.1654896847903728485107421875" lon="-2.43375758640468120574951171875">
        <ele>1087.199951171875</ele>
        <time>2019-07-07T14:55:54.000Z</time>
      </trkpt>
      <trkpt lat="41.16541315801441669464111328125" lon="-2.43362657725811004638671875">
        <ele>1085.5999755859375</ele>
        <time>2019-07-07T14:55:55.000Z</time>
      </trkpt>
      <trkpt lat="41.1653260700404644012451171875" lon="-2.4335000105202198028564453125">
        <ele>1084</ele>
        <time>2019-07-07T14:55:56.000Z</time>
      </trkpt>
      <trkpt lat="41.165225319564342498779296875" lon="-2.43338006548583507537841796875">
        <ele>1083</ele>
        <time>2019-07-07T14:55:57.000Z</time>
      </trkpt>
      <trkpt lat="41.164998002350330352783203125" lon="-2.43316381238400936126708984375">
        <ele>1081.199951171875</ele>
        <time>2019-07-07T14:55:59.000Z</time>
      </trkpt>
      <trkpt lat="41.1647510714828968048095703125" lon="-2.43295057676732540130615234375">
        <ele>1079.800048828125</ele>
        <time>2019-07-07T14:56:01.000Z</time>
      </trkpt>
      <trkpt lat="41.16451285779476165771484375" lon="-2.43274010717868804931640625">
        <ele>1078</ele>
        <time>2019-07-07T14:56:03.000Z</time>
      </trkpt>
      <trkpt lat="41.1644027195870876312255859375" lon="-2.43264413438737392425537109375">
        <ele>1076.5999755859375</ele>
        <time>2019-07-07T14:56:04.000Z</time>
      </trkpt>
      <trkpt lat="41.1642977781593799591064453125" lon="-2.43255226872861385345458984375">
        <ele>1075.4000244140625</ele>
        <time>2019-07-07T14:56:05.000Z</time>
      </trkpt>
      <trkpt lat="41.164021007716655731201171875" lon="-2.4322739057242870330810546875">
        <ele>1074.199951171875</ele>
        <time>2019-07-07T14:56:08.000Z</time>
      </trkpt>
      <trkpt lat="41.16391229443252086639404296875" lon="-2.4320080317556858062744140625">
        <ele>1074.199951171875</ele>
        <time>2019-07-07T14:56:10.000Z</time>
      </trkpt>
      <trkpt lat="41.163848340511322021484375" lon="-2.43130437098443508148193359375">
        <ele>1074.5999755859375</ele>
        <time>2019-07-07T14:56:14.000Z</time>
      </trkpt>
      <trkpt lat="41.16368807852268218994140625" lon="-2.4306672625243663787841796875">
        <ele>1072.4000244140625</ele>
        <time>2019-07-07T14:56:18.000Z</time>
      </trkpt>
      <trkpt lat="41.163625381886959075927734375" lon="-2.4305368401110172271728515625">
        <ele>1071</ele>
        <time>2019-07-07T14:56:19.000Z</time>
      </trkpt>
      <trkpt lat="41.1635491065680980682373046875" lon="-2.430417649447917938232421875">
        <ele>1070.199951171875</ele>
        <time>2019-07-07T14:56:20.000Z</time>
      </trkpt>
      <trkpt lat="41.16346302442252635955810546875" lon="-2.43030575104057788848876953125">
        <ele>1069.5999755859375</ele>
        <time>2019-07-07T14:56:21.000Z</time>
      </trkpt>
      <trkpt lat="41.16328918375074863433837890625" lon="-2.4300758354365825653076171875">
        <ele>1068.4000244140625</ele>
        <time>2019-07-07T14:56:23.000Z</time>
      </trkpt>
      <trkpt lat="41.1632128246128559112548828125" lon="-2.42994465865194797515869140625">
        <ele>1067.800048828125</ele>
        <time>2019-07-07T14:56:24.000Z</time>
      </trkpt>
      <trkpt lat="41.1631501279771327972412109375" lon="-2.4297992326319217681884765625">
        <ele>1067.4000244140625</ele>
        <time>2019-07-07T14:56:25.000Z</time>
      </trkpt>
      <trkpt lat="41.1631025187671184539794921875" lon="-2.42964123375713825225830078125">
        <ele>1066.800048828125</ele>
        <time>2019-07-07T14:56:26.000Z</time>
      </trkpt>
      <trkpt lat="41.16306806914508342742919921875" lon="-2.42947510443627834320068359375">
        <ele>1066.199951171875</ele>
        <time>2019-07-07T14:56:27.000Z</time>
      </trkpt>
      <trkpt lat="41.16304703056812286376953125" lon="-2.4293053708970546722412109375">
        <ele>1065.4000244140625</ele>
        <time>2019-07-07T14:56:28.000Z</time>
      </trkpt>
      <trkpt lat="41.16304929368197917938232421875" lon="-2.4291320331394672393798828125">
        <ele>1064.5999755859375</ele>
        <time>2019-07-07T14:56:29.000Z</time>
      </trkpt>
      <trkpt lat="41.16308315657079219818115234375" lon="-2.42896020412445068359375">
        <ele>1063.800048828125</ele>
        <time>2019-07-07T14:56:30.000Z</time>
      </trkpt>
      <trkpt lat="41.16314166225492954254150390625" lon="-2.428795583546161651611328125">
        <ele>1063.199951171875</ele>
        <time>2019-07-07T14:56:31.000Z</time>
      </trkpt>
      <trkpt lat="41.1632795445621013641357421875" lon="-2.428496181964874267578125">
        <ele>1062</ele>
        <time>2019-07-07T14:56:33.000Z</time>
      </trkpt>
      <trkpt lat="41.16346671245992183685302734375" lon="-2.42808421142399311065673828125">
        <ele>1061</ele>
        <time>2019-07-07T14:56:36.000Z</time>
      </trkpt>
      <trkpt lat="41.16356243379414081573486328125" lon="-2.4277952872216701507568359375">
        <ele>1060.199951171875</ele>
        <time>2019-07-07T14:56:38.000Z</time>
      </trkpt>
      <trkpt lat="41.16359143517911434173583984375" lon="-2.427634857594966888427734375">
        <ele>1059.4000244140625</ele>
        <time>2019-07-07T14:56:39.000Z</time>
      </trkpt>
      <trkpt lat="41.163628399372100830078125" lon="-2.42730729281902313232421875">
        <ele>1057.5999755859375</ele>
        <time>2019-07-07T14:56:41.000Z</time>
      </trkpt>
      <trkpt lat="41.16364491172134876251220703125" lon="-2.4269954860210418701171875">
        <ele>1056</ele>
        <time>2019-07-07T14:56:43.000Z</time>
      </trkpt>
      <trkpt lat="41.16360652260482311248779296875" lon="-2.4266950786113739013671875">
        <ele>1054.4000244140625</ele>
        <time>2019-07-07T14:56:45.000Z</time>
      </trkpt>
      <trkpt lat="41.16348297335207462310791015625" lon="-2.42640816606581211090087890625">
        <ele>1053.199951171875</ele>
        <time>2019-07-07T14:56:47.000Z</time>
      </trkpt>
      <trkpt lat="41.1633103899657726287841796875" lon="-2.4261648394167423248291015625">
        <ele>1051</ele>
        <time>2019-07-07T14:56:49.000Z</time>
      </trkpt>
      <trkpt lat="41.1632195301353931427001953125" lon="-2.42605947889387607574462890625">
        <ele>1049.800048828125</ele>
        <time>2019-07-07T14:56:50.000Z</time>
      </trkpt>
      <trkpt lat="41.16304258815944194793701171875" lon="-2.42588144727051258087158203125">
        <ele>1048.4000244140625</ele>
        <time>2019-07-07T14:56:52.000Z</time>
      </trkpt>
      <trkpt lat="41.1628165282309055328369140625" lon="-2.4256651103496551513671875">
        <ele>1047.4000244140625</ele>
        <time>2019-07-07T14:56:55.000Z</time>
      </trkpt>
      <trkpt lat="41.1627561785280704498291015625" lon="-2.42560601793229579925537109375">
        <ele>1047.199951171875</ele>
        <time>2019-07-07T14:56:56.000Z</time>
      </trkpt>
      <trkpt lat="41.16270094178617000579833984375" lon="-2.425473667681217193603515625">
        <ele>1047</ele>
        <time>2019-07-07T14:56:58.000Z</time>
      </trkpt>
      <trkpt lat="41.162823401391506195068359375" lon="-2.42536797188222408294677734375">
        <ele>1046.800048828125</ele>
        <time>2019-07-07T14:57:01.000Z</time>
      </trkpt>
      <trkpt lat="41.1629731021821498870849609375" lon="-2.4254558980464935302734375">
        <ele>1046.4000244140625</ele>
        <time>2019-07-07T14:57:03.000Z</time>
      </trkpt>
      <trkpt lat="41.16305750794708728790283203125" lon="-2.425531335175037384033203125">
        <ele>1045.800048828125</ele>
        <time>2019-07-07T14:57:04.000Z</time>
      </trkpt>
      <trkpt lat="41.1632456816732883453369140625" lon="-2.42570676840841770172119140625">
        <ele>1044</ele>
        <time>2019-07-07T14:57:06.000Z</time>
      </trkpt>
      <trkpt lat="41.1633469350636005401611328125" lon="-2.42580483667552471160888671875">
        <ele>1043</ele>
        <time>2019-07-07T14:57:07.000Z</time>
      </trkpt>
      <trkpt lat="41.16366452537477016448974609375" lon="-2.42611446417868137359619140625">
        <ele>1041.199951171875</ele>
        <time>2019-07-07T14:57:09.000Z</time>
      </trkpt>
      <trkpt lat="41.16405277512967586517333984375" lon="-2.42649097926914691925048828125">
        <ele>1040</ele>
        <time>2019-07-07T14:57:14.000Z</time>
      </trkpt>
      <trkpt lat="41.16413575597107410430908203125" lon="-2.426589466631412506103515625">
        <ele>1039.800048828125</ele>
        <time>2019-07-07T14:57:15.000Z</time>
      </trkpt>
      <trkpt lat="41.16427238099277019500732421875" lon="-2.42682424373924732208251953125">
        <ele>1038.800048828125</ele>
        <time>2019-07-07T14:57:17.000Z</time>
      </trkpt>
      <trkpt lat="41.1643229238688945770263671875" lon="-2.42695868946611881256103515625">
        <ele>1037.5999755859375</ele>
        <time>2019-07-07T14:57:18.000Z</time>
      </trkpt>
      <trkpt lat="41.1643624864518642425537109375" lon="-2.42710151709616184234619140625">
        <ele>1036.4000244140625</ele>
        <time>2019-07-07T14:57:19.000Z</time>
      </trkpt>
      <trkpt lat="41.164422668516635894775390625" lon="-2.427406869828701019287109375">
        <ele>1034.800048828125</ele>
        <time>2019-07-07T14:57:21.000Z</time>
      </trkpt>
      <trkpt lat="41.1644504964351654052734375" lon="-2.42756654508411884307861328125">
        <ele>1033.800048828125</ele>
        <time>2019-07-07T14:57:22.000Z</time>
      </trkpt>
      <trkpt lat="41.16447530686855316162109375" lon="-2.42772948928177356719970703125">
        <ele>1032.4000244140625</ele>
        <time>2019-07-07T14:57:23.000Z</time>
      </trkpt>
      <trkpt lat="41.1644960939884185791015625" lon="-2.4278945289552211761474609375">
        <ele>1030.800048828125</ele>
        <time>2019-07-07T14:57:24.000Z</time>
      </trkpt>
      <trkpt lat="41.16451260633766651153564453125" lon="-2.42806158028542995452880859375">
        <ele>1029.5999755859375</ele>
        <time>2019-07-07T14:57:25.000Z</time>
      </trkpt>
      <trkpt lat="41.16453825496137142181396484375" lon="-2.42840557359158992767333984375">
        <ele>1028</ele>
        <time>2019-07-07T14:57:27.000Z</time>
      </trkpt>
      <trkpt lat="41.16459223441779613494873046875" lon="-2.4287538416683673858642578125">
        <ele>1026.800048828125</ele>
        <time>2019-07-07T14:57:29.000Z</time>
      </trkpt>
      <trkpt lat="41.16472165100276470184326171875" lon="-2.42908501066267490386962890625">
        <ele>1025.199951171875</ele>
        <time>2019-07-07T14:57:31.000Z</time>
      </trkpt>
      <trkpt lat="41.164812929928302764892578125" lon="-2.42923873476684093475341796875">
        <ele>1024</ele>
        <time>2019-07-07T14:57:32.000Z</time>
      </trkpt>
      <trkpt lat="41.1649059690535068511962890625" lon="-2.42938944138586521148681640625">
        <ele>1022.79998779296875</ele>
        <time>2019-07-07T14:57:33.000Z</time>
      </trkpt>
      <trkpt lat="41.16508156992495059967041015625" lon="-2.42968104779720306396484375">
        <ele>1021.4000244140625</ele>
        <time>2019-07-07T14:57:35.000Z</time>
      </trkpt>
      <trkpt lat="41.1653207056224346160888671875" lon="-2.43008011020720005035400390625">
        <ele>1020.20001220703125</ele>
        <time>2019-07-07T14:57:38.000Z</time>
      </trkpt>
      <trkpt lat="41.165403686463832855224609375" lon="-2.43018672801554203033447265625">
        <ele>1020</ele>
        <time>2019-07-07T14:57:39.000Z</time>
      </trkpt>
      <trkpt lat="41.165593452751636505126953125" lon="-2.43031430058181285858154296875">
        <ele>1019.5999755859375</ele>
        <time>2019-07-07T14:57:41.000Z</time>
      </trkpt>
      <trkpt lat="41.16579051129519939422607421875" lon="-2.43027641437947750091552734375">
        <ele>1019.4000244140625</ele>
        <time>2019-07-07T14:57:43.000Z</time>
      </trkpt>
      <trkpt lat="41.1659423075616359710693359375" lon="-2.43004473857581615447998046875">
        <ele>1019</ele>
        <time>2019-07-07T14:57:45.000Z</time>
      </trkpt>
      <trkpt lat="41.1660955287516117095947265625" lon="-2.4295045249164104461669921875">
        <ele>1017.4000244140625</ele>
        <time>2019-07-07T14:57:48.000Z</time>
      </trkpt>
      <trkpt lat="41.16614456288516521453857421875" lon="-2.4293067120015621185302734375">
        <ele>1016.20001220703125</ele>
        <time>2019-07-07T14:57:49.000Z</time>
      </trkpt>
      <trkpt lat="41.1661917530000209808349609375" lon="-2.429102025926113128662109375">
        <ele>1015</ele>
        <time>2019-07-07T14:57:50.000Z</time>
      </trkpt>
      <trkpt lat="41.166231147944927215576171875" lon="-2.42889356799423694610595703125">
        <ele>1013.79998779296875</ele>
        <time>2019-07-07T14:57:51.000Z</time>
      </trkpt>
      <trkpt lat="41.16626358591020107269287109375" lon="-2.42868552915751934051513671875">
        <ele>1012.4000244140625</ele>
        <time>2019-07-07T14:57:52.000Z</time>
      </trkpt>
      <trkpt lat="41.16629309020936489105224609375" lon="-2.42848101072013378143310546875">
        <ele>1011</ele>
        <time>2019-07-07T14:57:53.000Z</time>
      </trkpt>
      <trkpt lat="41.16632108576595783233642578125" lon="-2.42828453890979290008544921875">
        <ele>1009.5999755859375</ele>
        <time>2019-07-07T14:57:54.000Z</time>
      </trkpt>
      <trkpt lat="41.16634824313223361968994140625" lon="-2.428096197545528411865234375">
        <ele>1008.5999755859375</ele>
        <time>2019-07-07T14:57:55.000Z</time>
      </trkpt>
      <trkpt lat="41.1663748137652873992919921875" lon="-2.42791489697992801666259765625">
        <ele>1007.4000244140625</ele>
        <time>2019-07-07T14:57:56.000Z</time>
      </trkpt>
      <trkpt lat="41.16642703302204608917236328125" lon="-2.42757040075957775115966796875">
        <ele>1005.79998779296875</ele>
        <time>2019-07-07T14:57:58.000Z</time>
      </trkpt>
      <trkpt lat="41.1665028892457485198974609375" lon="-2.42707503028213977813720703125">
        <ele>1004.20001220703125</ele>
        <time>2019-07-07T14:58:00.000Z</time>
      </trkpt>
      <trkpt lat="41.16655494086444377899169921875" lon="-2.42673598229885101318359375">
        <ele>1003</ele>
        <time>2019-07-07T14:58:02.000Z</time>
      </trkpt>
      <trkpt lat="41.16660774685442447662353515625" lon="-2.4263888038694858551025390625">
        <ele>1002</ele>
        <time>2019-07-07T14:58:04.000Z</time>
      </trkpt>
      <trkpt lat="41.16663188673555850982666015625" lon="-2.4262154661118984222412109375">
        <ele>1000.20001220703125</ele>
        <time>2019-07-07T14:58:06.000Z</time>
      </trkpt>
      <trkpt lat="41.16667564027011394500732421875" lon="-2.42588111199438571929931640625">
        <ele>999</ele>
        <time>2019-07-07T14:58:07.000Z</time>
      </trkpt>
      <trkpt lat="41.16671067662537097930908203125" lon="-2.425562180578708648681640625">
        <ele>997.79998779296875</ele>
        <time>2019-07-07T14:58:09.000Z</time>
      </trkpt>
      <trkpt lat="41.166718304157257080078125" lon="-2.42525431327521800994873046875">
        <ele>996.20001220703125</ele>
        <time>2019-07-07T14:58:12.000Z</time>
      </trkpt>
      <trkpt lat="41.16667899303138256072998046875" lon="-2.424960024654865264892578125">
        <ele>995</ele>
        <time>2019-07-07T14:58:14.000Z</time>
      </trkpt>
      <trkpt lat="41.16659450344741344451904296875" lon="-2.42469306103885173797607421875">
        <ele>993</ele>
        <time>2019-07-07T14:58:16.000Z</time>
      </trkpt>
      <trkpt lat="41.16654354147613048553466796875" lon="-2.42456884123384952545166015625">
        <ele>991.5999755859375</ele>
        <time>2019-07-07T14:58:17.000Z</time>
      </trkpt>
      <trkpt lat="41.16644128225743770599365234375" lon="-2.42433113045990467071533203125">
        <ele>990.5999755859375</ele>
        <time>2019-07-07T14:58:18.000Z</time>
      </trkpt>
      <trkpt lat="41.1663325689733028411865234375" lon="-2.4240921624004840850830078125">
        <ele>989.20001220703125</ele>
        <time>2019-07-07T14:58:21.000Z</time>
      </trkpt>
      <trkpt lat="41.166218407452106475830078125" lon="-2.42383358068764209747314453125">
        <ele>987.79998779296875</ele>
        <time>2019-07-07T14:58:23.000Z</time>
      </trkpt>
      <trkpt lat="41.166159398853778839111328125" lon="-2.42370081134140491485595703125">
        <ele>986.5999755859375</ele>
        <time>2019-07-07T14:58:24.000Z</time>
      </trkpt>
      <trkpt lat="41.165984384715557098388671875" lon="-2.42330971173942089080810546875">
        <ele>985</ele>
        <time>2019-07-07T14:58:27.000Z</time>
      </trkpt>
      <trkpt lat="41.1659292317926883697509765625" lon="-2.42318582721054553985595703125">
        <ele>984</ele>
        <time>2019-07-07T14:58:28.000Z</time>
      </trkpt>
      <trkpt lat="41.16587634198367595672607421875" lon="-2.4230675585567951202392578125">
        <ele>982.79998779296875</ele>
        <time>2019-07-07T14:58:29.000Z</time>
      </trkpt>
      <trkpt lat="41.16578028537333011627197265625" lon="-2.4228442646563053131103515625">
        <ele>981.4000244140625</ele>
        <time>2019-07-07T14:58:31.000Z</time>
      </trkpt>
      <trkpt lat="41.16556294262409210205078125" lon="-2.4223654903471469879150390625">
        <ele>980.79998779296875</ele>
        <time>2019-07-07T14:58:37.000Z</time>
      </trkpt>
      <trkpt lat="41.16550753824412822723388671875" lon="-2.42228846065700054168701171875">
        <ele>980.20001220703125</ele>
        <time>2019-07-07T14:58:39.000Z</time>
      </trkpt>
      <trkpt lat="41.1654923669993877410888671875" lon="-2.42211478762328624725341796875">
        <ele>980.20001220703125</ele>
        <time>2019-07-07T14:58:47.000Z</time>
      </trkpt>
      <trkpt lat="41.1655689775943756103515625" lon="-2.42202627472579479217529296875">
        <ele>980.20001220703125</ele>
        <time>2019-07-07T14:58:49.000Z</time>
      </trkpt>
      <trkpt lat="41.16582001559436321258544921875" lon="-2.421873472630977630615234375">
        <ele>980.4000244140625</ele>
        <time>2019-07-07T14:59:43.000Z</time>
      </trkpt>
      <trkpt lat="41.16591322235763072967529296875" lon="-2.42180029861629009246826171875">
        <ele>980.20001220703125</ele>
        <time>2019-07-07T14:59:45.000Z</time>
      </trkpt>
      <trkpt lat="41.1663615703582763671875" lon="-2.421538196504116058349609375">
        <ele>979.20001220703125</ele>
        <time>2019-07-07T14:59:50.000Z</time>
      </trkpt>
      <trkpt lat="41.16645184345543384552001953125" lon="-2.4214739911258220672607421875">
        <ele>979</ele>
        <time>2019-07-07T14:59:51.000Z</time>
      </trkpt>
      <trkpt lat="41.16690413095057010650634765625" lon="-2.42114667780697345733642578125">
        <ele>978</ele>
        <time>2019-07-07T14:59:56.000Z</time>
      </trkpt>
      <trkpt lat="41.1670041270554065704345703125" lon="-2.42107744328677654266357421875">
        <ele>977.79998779296875</ele>
        <time>2019-07-07T14:59:57.000Z</time>
      </trkpt>
      <trkpt lat="41.16744744591414928436279296875" lon="-2.4208386428654193878173828125">
        <ele>978</ele>
        <time>2019-07-07T15:00:01.000Z</time>
      </trkpt>
      <trkpt lat="41.1678681336343288421630859375" lon="-2.4207803048193454742431640625">
        <ele>979</ele>
        <time>2019-07-07T15:00:05.000Z</time>
      </trkpt>
      <trkpt lat="41.1683261208236217498779296875" lon="-2.42089547216892242431640625">
        <ele>979.5999755859375</ele>
        <time>2019-07-07T15:00:10.000Z</time>
      </trkpt>
      <trkpt lat="41.1687619797885417938232421875" lon="-2.42108666338026523590087890625">
        <ele>978.79998779296875</ele>
        <time>2019-07-07T15:00:15.000Z</time>
      </trkpt>
      <trkpt lat="41.168857030570507049560546875" lon="-2.421116419136524200439453125">
        <ele>978.4000244140625</ele>
        <time>2019-07-07T15:00:16.000Z</time>
      </trkpt>
      <trkpt lat="41.1690563522279262542724609375" lon="-2.42113427259027957916259765625">
        <ele>977.79998779296875</ele>
        <time>2019-07-07T15:00:18.000Z</time>
      </trkpt>
      <trkpt lat="41.16925173439085483551025390625" lon="-2.4210803769528865814208984375">
        <ele>977.5999755859375</ele>
        <time>2019-07-07T15:00:20.000Z</time>
      </trkpt>
      <trkpt lat="41.16939858533442020416259765625" lon="-2.42093612439930438995361328125">
        <ele>977.5999755859375</ele>
        <time>2019-07-07T15:00:22.000Z</time>
      </trkpt>
      <trkpt lat="41.16951358504593372344970703125" lon="-2.42059514857828617095947265625">
        <ele>978</ele>
        <time>2019-07-07T15:00:25.000Z</time>
      </trkpt>
      <trkpt lat="41.16973645985126495361328125" lon="-2.42026993073523044586181640625">
        <ele>978</ele>
        <time>2019-07-07T15:00:28.000Z</time>
      </trkpt>
      <trkpt lat="41.17009629495441913604736328125" lon="-2.4196940101683139801025390625">
        <ele>976.5999755859375</ele>
        <time>2019-07-07T15:00:32.000Z</time>
      </trkpt>
      <trkpt lat="41.17030014283955097198486328125" lon="-2.41942503489553928375244140625">
        <ele>975.5999755859375</ele>
        <time>2019-07-07T15:00:34.000Z</time>
      </trkpt>
      <trkpt lat="41.17060826160013675689697265625" lon="-2.419072575867176055908203125">
        <ele>974.4000244140625</ele>
        <time>2019-07-07T15:00:37.000Z</time>
      </trkpt>
      <trkpt lat="41.17071655578911304473876953125" lon="-2.4189899303019046783447265625">
        <ele>974</ele>
        <time>2019-07-07T15:00:38.000Z</time>
      </trkpt>
      <trkpt lat="41.17089785635471343994140625" lon="-2.418914996087551116943359375">
        <ele>974</ele>
        <time>2019-07-07T15:00:40.000Z</time>
      </trkpt>
      <trkpt lat="41.17103062570095062255859375" lon="-2.41886864416301250457763671875">
        <ele>974.4000244140625</ele>
        <time>2019-07-07T15:00:42.000Z</time>
      </trkpt>
      <trkpt lat="41.1712034605443477630615234375" lon="-2.4186848290264606475830078125">
        <ele>974.79998779296875</ele>
        <time>2019-07-07T15:00:45.000Z</time>
      </trkpt>
      <trkpt lat="41.1713598668575286865234375" lon="-2.41862975992262363433837890625">
        <ele>975</ele>
        <time>2019-07-07T15:00:47.000Z</time>
      </trkpt>
      <trkpt lat="41.1715234816074371337890625" lon="-2.418724559247493743896484375">
        <ele>975.20001220703125</ele>
        <time>2019-07-07T15:00:49.000Z</time>
      </trkpt>
      <trkpt lat="41.17168734781444072723388671875" lon="-2.41889630444347858428955078125">
        <ele>974.79998779296875</ele>
        <time>2019-07-07T15:00:51.000Z</time>
      </trkpt>
      <trkpt lat="41.1718802154064178466796875" lon="-2.419010214507579803466796875">
        <ele>974.4000244140625</ele>
        <time>2019-07-07T15:00:53.000Z</time>
      </trkpt>
      <trkpt lat="41.17208565585315227508544921875" lon="-2.41912378929555416107177734375">
        <ele>974.4000244140625</ele>
        <time>2019-07-07T15:00:55.000Z</time>
      </trkpt>
      <trkpt lat="41.17224340327084064483642578125" lon="-2.41935630328953266143798828125">
        <ele>975.20001220703125</ele>
        <time>2019-07-07T15:00:57.000Z</time>
      </trkpt>
      <trkpt lat="41.172284223139286041259765625" lon="-2.4195148050785064697265625">
        <ele>975.79998779296875</ele>
        <time>2019-07-07T15:00:58.000Z</time>
      </trkpt>
      <trkpt lat="41.17232236079871654510498046875" lon="-2.41988117806613445281982421875">
        <ele>977.5999755859375</ele>
        <time>2019-07-07T15:01:00.000Z</time>
      </trkpt>
      <trkpt lat="41.1723578162491321563720703125" lon="-2.4200654961168766021728515625">
        <ele>978.4000244140625</ele>
        <time>2019-07-07T15:01:01.000Z</time>
      </trkpt>
      <trkpt lat="41.17241087369620800018310546875" lon="-2.42024377919733524322509765625">
        <ele>979</ele>
        <time>2019-07-07T15:01:02.000Z</time>
      </trkpt>
      <trkpt lat="41.17248111404478549957275390625" lon="-2.42041259072721004486083984375">
        <ele>979.79998779296875</ele>
        <time>2019-07-07T15:01:03.000Z</time>
      </trkpt>
      <trkpt lat="41.17256493307650089263916015625" lon="-2.42056958377361297607421875">
        <ele>980.20001220703125</ele>
        <time>2019-07-07T15:01:04.000Z</time>
      </trkpt>
      <trkpt lat="41.17266409099102020263671875" lon="-2.4207137525081634521484375">
        <ele>981</ele>
        <time>2019-07-07T15:01:05.000Z</time>
      </trkpt>
      <trkpt lat="41.172785125672817230224609375" lon="-2.4208478629589080810546875">
        <ele>981.79998779296875</ele>
        <time>2019-07-07T15:01:06.000Z</time>
      </trkpt>
      <trkpt lat="41.17324822582304477691650390625" lon="-2.42122814990580081939697265625">
        <ele>982.4000244140625</ele>
        <time>2019-07-07T15:01:09.000Z</time>
      </trkpt>
      <trkpt lat="41.17375968955457210540771484375" lon="-2.42160634137690067291259765625">
        <ele>982.5999755859375</ele>
        <time>2019-07-07T15:01:12.000Z</time>
      </trkpt>
      <trkpt lat="41.1743188463151454925537109375" lon="-2.4220385961234569549560546875">
        <ele>983.79998779296875</ele>
        <time>2019-07-07T15:01:15.000Z</time>
      </trkpt>
      <trkpt lat="41.17472059093415737152099609375" lon="-2.42235015146434307098388671875">
        <ele>986</ele>
        <time>2019-07-07T15:01:17.000Z</time>
      </trkpt>
      <trkpt lat="41.174924187362194061279296875" lon="-2.42250588722527027130126953125">
        <ele>987.4000244140625</ele>
        <time>2019-07-07T15:01:18.000Z</time>
      </trkpt>
      <trkpt lat="41.17513046599924564361572265625" lon="-2.42266631685197353363037109375">
        <ele>988.5999755859375</ele>
        <time>2019-07-07T15:01:19.000Z</time>
      </trkpt>
      <trkpt lat="41.1755360662937164306640625" lon="-2.4230139143764972686767578125">
        <ele>990.20001220703125</ele>
        <time>2019-07-07T15:01:21.000Z</time>
      </trkpt>
      <trkpt lat="41.1759275011718273162841796875" lon="-2.423408031463623046875">
        <ele>991.20001220703125</ele>
        <time>2019-07-07T15:01:23.000Z</time>
      </trkpt>
      <trkpt lat="41.17632170207798480987548828125" lon="-2.4238628335297107696533203125">
        <ele>992.5999755859375</ele>
        <time>2019-07-07T15:01:25.000Z</time>
      </trkpt>
      <trkpt lat="41.17671095766127109527587890625" lon="-2.42434521205723285675048828125">
        <ele>994.20001220703125</ele>
        <time>2019-07-07T15:01:27.000Z</time>
      </trkpt>
      <trkpt lat="41.1771006323397159576416015625" lon="-2.4248324520885944366455078125">
        <ele>994.79998779296875</ele>
        <time>2019-07-07T15:01:29.000Z</time>
      </trkpt>
      <trkpt lat="41.17729852907359600067138671875" lon="-2.4250684864819049835205078125">
        <ele>995.5999755859375</ele>
        <time>2019-07-07T15:01:30.000Z</time>
      </trkpt>
      <trkpt lat="41.17770471610128879547119140625" lon="-2.42551398463547229766845703125">
        <ele>997</ele>
        <time>2019-07-07T15:01:32.000Z</time>
      </trkpt>
      <trkpt lat="41.178128756582736968994140625" lon="-2.425926290452480316162109375">
        <ele>996.5999755859375</ele>
        <time>2019-07-07T15:01:34.000Z</time>
      </trkpt>
      <trkpt lat="41.17857710458338260650634765625" lon="-2.42630993016064167022705078125">
        <ele>999.4000244140625</ele>
        <time>2019-07-07T15:01:36.000Z</time>
      </trkpt>
      <trkpt lat="41.1788095347583293914794921875" lon="-2.4264917336404323577880859375">
        <ele>1000.5999755859375</ele>
        <time>2019-07-07T15:01:37.000Z</time>
      </trkpt>
      <trkpt lat="41.17904598824679851531982421875" lon="-2.42667018435895442962646484375">
        <ele>1002</ele>
        <time>2019-07-07T15:01:38.000Z</time>
      </trkpt>
      <trkpt lat="41.17928604595363140106201171875" lon="-2.426844276487827301025390625">
        <ele>1003.5999755859375</ele>
        <time>2019-07-07T15:01:39.000Z</time>
      </trkpt>
      <trkpt lat="41.17952778004109859466552734375" lon="-2.4270187877118587493896484375">
        <ele>1005.20001220703125</ele>
        <time>2019-07-07T15:01:40.000Z</time>
      </trkpt>
      <trkpt lat="41.17976951412856578826904296875" lon="-2.42719732224941253662109375">
        <ele>1006.79998779296875</ele>
        <time>2019-07-07T15:01:41.000Z</time>
      </trkpt>
      <trkpt lat="41.18000957183539867401123046875" lon="-2.427380383014678955078125">
        <ele>1008.20001220703125</ele>
        <time>2019-07-07T15:01:42.000Z</time>
      </trkpt>
      <trkpt lat="41.180247701704502105712890625" lon="-2.427565120160579681396484375">
        <ele>1009.5999755859375</ele>
        <time>2019-07-07T15:01:43.000Z</time>
      </trkpt>
      <trkpt lat="41.18071733973920345306396484375" lon="-2.4279381148517131805419921875">
        <ele>1011.4000244140625</ele>
        <time>2019-07-07T15:01:45.000Z</time>
      </trkpt>
      <trkpt lat="41.18094901554286479949951171875" lon="-2.42812679149210453033447265625">
        <ele>1012.5999755859375</ele>
        <time>2019-07-07T15:01:46.000Z</time>
      </trkpt>
      <trkpt lat="41.18117834441363811492919921875" lon="-2.4283176474273204803466796875">
        <ele>1014.20001220703125</ele>
        <time>2019-07-07T15:01:47.000Z</time>
      </trkpt>
      <trkpt lat="41.181406415998935699462890625" lon="-2.42850816808640956878662109375">
        <ele>1015.79998779296875</ele>
        <time>2019-07-07T15:01:48.000Z</time>
      </trkpt>
      <trkpt lat="41.18163264356553554534912109375" lon="-2.42869793437421321868896484375">
        <ele>1017.79998779296875</ele>
        <time>2019-07-07T15:01:49.000Z</time>
      </trkpt>
      <trkpt lat="41.18185778148472309112548828125" lon="-2.4288882873952388763427734375">
        <ele>1019.4000244140625</ele>
        <time>2019-07-07T15:01:50.000Z</time>
      </trkpt>
      <trkpt lat="41.1820818297564983367919921875" lon="-2.4290814064443111419677734375">
        <ele>1020.79998779296875</ele>
        <time>2019-07-07T15:01:51.000Z</time>
      </trkpt>
      <trkpt lat="41.18230487219989299774169921875" lon="-2.4292762018740177154541015625">
        <ele>1022</ele>
        <time>2019-07-07T15:01:52.000Z</time>
      </trkpt>
      <trkpt lat="41.1827500350773334503173828125" lon="-2.42966495454311370849609375">
        <ele>1024</ele>
        <time>2019-07-07T15:01:54.000Z</time>
      </trkpt>
      <trkpt lat="41.1832056753337383270263671875" lon="-2.4300329200923442840576171875">
        <ele>1025.5999755859375</ele>
        <time>2019-07-07T15:01:56.000Z</time>
      </trkpt>
      <trkpt lat="41.18344363756477832794189453125" lon="-2.430196702480316162109375">
        <ele>1026.800048828125</ele>
        <time>2019-07-07T15:01:57.000Z</time>
      </trkpt>
      <trkpt lat="41.18368889205157756805419921875" lon="-2.4303447268903255462646484375">
        <ele>1028.4000244140625</ele>
        <time>2019-07-07T15:01:58.000Z</time>
      </trkpt>
      <trkpt lat="41.18394143879413604736328125" lon="-2.4304823577404022216796875">
        <ele>1029.5999755859375</ele>
        <time>2019-07-07T15:01:59.000Z</time>
      </trkpt>
      <trkpt lat="41.1844646371901035308837890625" lon="-2.43072400800883769989013671875">
        <ele>1031.4000244140625</ele>
        <time>2019-07-07T15:02:01.000Z</time>
      </trkpt>
      <trkpt lat="41.18501155637204647064208984375" lon="-2.43091310374438762664794921875">
        <ele>1033</ele>
        <time>2019-07-07T15:02:03.000Z</time>
      </trkpt>
      <trkpt lat="41.18529436178505420684814453125" lon="-2.43098082952201366424560546875">
        <ele>1034.199951171875</ele>
        <time>2019-07-07T15:02:04.000Z</time>
      </trkpt>
      <trkpt lat="41.18558085523545742034912109375" lon="-2.43103045038878917694091796875">
        <ele>1035.800048828125</ele>
        <time>2019-07-07T15:02:05.000Z</time>
      </trkpt>
      <trkpt lat="41.1858721263706684112548828125" lon="-2.43105911649763584136962890625">
        <ele>1037.5999755859375</ele>
        <time>2019-07-07T15:02:06.000Z</time>
      </trkpt>
      <trkpt lat="41.186461038887500762939453125" lon="-2.43106917478144168853759765625">
        <ele>1038.5999755859375</ele>
        <time>2019-07-07T15:02:07.000Z</time>
      </trkpt>
      <trkpt lat="41.186758093535900115966796875" lon="-2.43106196634471416473388671875">
        <ele>1039.4000244140625</ele>
        <time>2019-07-07T15:02:08.000Z</time>
      </trkpt>
      <trkpt lat="41.18705472908914089202880859375" lon="-2.43105291388928890228271484375">
        <ele>1041</ele>
        <time>2019-07-07T15:02:10.000Z</time>
      </trkpt>
      <trkpt lat="41.18765017949044704437255859375" lon="-2.4310524947941303253173828125">
        <ele>1042.5999755859375</ele>
        <time>2019-07-07T15:02:12.000Z</time>
      </trkpt>
      <trkpt lat="41.18824428878724575042724609375" lon="-2.4311138503253459930419921875">
        <ele>1044</ele>
        <time>2019-07-07T15:02:14.000Z</time>
      </trkpt>
      <trkpt lat="41.18883001618087291717529296875" lon="-2.4312573485076427459716796875">
        <ele>1045</ele>
        <time>2019-07-07T15:02:16.000Z</time>
      </trkpt>
      <trkpt lat="41.189118437469005584716796875" lon="-2.4313525669276714324951171875">
        <ele>1046</ele>
        <time>2019-07-07T15:02:17.000Z</time>
      </trkpt>
      <trkpt lat="41.1896858923137187957763671875" lon="-2.431587763130664825439453125">
        <ele>1047.199951171875</ele>
        <time>2019-07-07T15:02:19.000Z</time>
      </trkpt>
      <trkpt lat="41.19023582898080348968505859375" lon="-2.4318940378725528717041015625">
        <ele>1048.199951171875</ele>
        <time>2019-07-07T15:02:21.000Z</time>
      </trkpt>
      <trkpt lat="41.1907567642629146575927734375" lon="-2.43227415718138217926025390625">
        <ele>1049.199951171875</ele>
        <time>2019-07-07T15:02:23.000Z</time>
      </trkpt>
      <trkpt lat="41.19100595824420452117919921875" lon="-2.43248437531292438507080078125">
        <ele>1050.199951171875</ele>
        <time>2019-07-07T15:02:24.000Z</time>
      </trkpt>
      <trkpt lat="41.191245429217815399169921875" lon="-2.432707250118255615234375">
        <ele>1051.800048828125</ele>
        <time>2019-07-07T15:02:25.000Z</time>
      </trkpt>
      <trkpt lat="41.19169377721846103668212890625" lon="-2.4332006089389324188232421875">
        <ele>1052.4000244140625</ele>
        <time>2019-07-07T15:02:27.000Z</time>
      </trkpt>
      <trkpt lat="41.19190366007387638092041015625" lon="-2.43346539326012134552001953125">
        <ele>1053</ele>
        <time>2019-07-07T15:02:28.000Z</time>
      </trkpt>
      <trkpt lat="41.19228838942945003509521484375" lon="-2.43403536267578601837158203125">
        <ele>1053</ele>
        <time>2019-07-07T15:02:30.000Z</time>
      </trkpt>
      <trkpt lat="41.1926393397152423858642578125" lon="-2.434630729258060455322265625">
        <ele>1051.4000244140625</ele>
        <time>2019-07-07T15:02:32.000Z</time>
      </trkpt>
      <trkpt lat="41.19294720701873302459716796875" lon="-2.4352545104920864105224609375">
        <ele>1053</ele>
        <time>2019-07-07T15:02:34.000Z</time>
      </trkpt>
      <trkpt lat="41.19308148510754108428955078125" lon="-2.43557662703096866607666015625">
        <ele>1054.199951171875</ele>
        <time>2019-07-07T15:02:35.000Z</time>
      </trkpt>
      <trkpt lat="41.1933057010173797607421875" lon="-2.436236701905727386474609375">
        <ele>1055</ele>
        <time>2019-07-07T15:02:36.000Z</time>
      </trkpt>
      <trkpt lat="41.1933057010173797607421875" lon="-2.436236701905727386474609375">
        <ele>1057.800048828125</ele>
        <time>2019-07-07T15:02:37.000Z</time>
      </trkpt>
      <trkpt lat="41.19339781813323497772216796875" lon="-2.4365748278796672821044921875">
        <ele>1062.199951171875</ele>
        <time>2019-07-07T15:02:38.000Z</time>
      </trkpt>
      <trkpt lat="41.19347845204174518585205078125" lon="-2.43691605515778064727783203125">
        <ele>1068.199951171875</ele>
        <time>2019-07-07T15:02:39.000Z</time>
      </trkpt>
      <trkpt lat="41.19361440651118755340576171875" lon="-2.4376064725220203399658203125">
        <ele>1074</ele>
        <time>2019-07-07T15:02:40.000Z</time>
      </trkpt>
      <trkpt lat="41.19361440651118755340576171875" lon="-2.4376064725220203399658203125">
        <ele>1078</ele>
        <time>2019-07-07T15:02:41.000Z</time>
      </trkpt>
      <trkpt lat="41.19366654194891452789306640625" lon="-2.43795298039913177490234375">
        <ele>1080.199951171875</ele>
        <time>2019-07-07T15:02:42.000Z</time>
      </trkpt>
      <trkpt lat="41.19370744563639163970947265625" lon="-2.43830326013267040252685546875">
        <ele>1081.5999755859375</ele>
        <time>2019-07-07T15:02:43.000Z</time>
      </trkpt>
      <trkpt lat="41.193760335445404052734375" lon="-2.439011447131633758544921875">
        <ele>1082.199951171875</ele>
        <time>2019-07-07T15:02:45.000Z</time>
      </trkpt>
      <trkpt lat="41.19378388859331607818603515625" lon="-2.43972181342542171478271484375">
        <ele>1078.5999755859375</ele>
        <time>2019-07-07T15:02:47.000Z</time>
      </trkpt>
      <trkpt lat="41.19378154166042804718017578125" lon="-2.4400831572711467742919921875">
        <ele>1075.4000244140625</ele>
        <time>2019-07-07T15:02:48.000Z</time>
      </trkpt>
      <trkpt lat="41.193775422871112823486328125" lon="-2.44044735096395015716552734375">
        <ele>1073.800048828125</ele>
        <time>2019-07-07T15:02:49.000Z</time>
      </trkpt>
      <trkpt lat="41.193766705691814422607421875" lon="-2.44117992930114269256591796875">
        <ele>1072.4000244140625</ele>
        <time>2019-07-07T15:02:51.000Z</time>
      </trkpt>
      <trkpt lat="41.1937645263969898223876953125" lon="-2.4419152736663818359375">
        <ele>1071.4000244140625</ele>
        <time>2019-07-07T15:02:53.000Z</time>
      </trkpt>
      <trkpt lat="41.1937616765499114990234375" lon="-2.442283742129802703857421875">
        <ele>1070.5999755859375</ele>
        <time>2019-07-07T15:02:54.000Z</time>
      </trkpt>
      <trkpt lat="41.19375371374189853668212890625" lon="-2.443022020161151885986328125">
        <ele>1069.199951171875</ele>
        <time>2019-07-07T15:02:56.000Z</time>
      </trkpt>
      <trkpt lat="41.19374818168580532073974609375" lon="-2.44375971145927906036376953125">
        <ele>1068.5999755859375</ele>
        <time>2019-07-07T15:02:58.000Z</time>
      </trkpt>
      <trkpt lat="41.1937437392771244049072265625" lon="-2.44449212215840816497802734375">
        <ele>1072.199951171875</ele>
        <time>2019-07-07T15:03:00.000Z</time>
      </trkpt>
      <trkpt lat="41.1937402188777923583984375" lon="-2.44485673494637012481689453125">
        <ele>1073.800048828125</ele>
        <time>2019-07-07T15:03:01.000Z</time>
      </trkpt>
      <trkpt lat="41.1937353573739528656005859375" lon="-2.4452215991914272308349609375">
        <ele>1075.199951171875</ele>
        <time>2019-07-07T15:03:02.000Z</time>
      </trkpt>
      <trkpt lat="41.1937309987843036651611328125" lon="-2.445586882531642913818359375">
        <ele>1076.800048828125</ele>
        <time>2019-07-07T15:03:03.000Z</time>
      </trkpt>
      <trkpt lat="41.19372404180467128753662109375" lon="-2.44631870649755001068115234375">
        <ele>1077</ele>
        <time>2019-07-07T15:03:05.000Z</time>
      </trkpt>
      <trkpt lat="41.193719096481800079345703125" lon="-2.4470508657395839691162109375">
        <ele>1078.4000244140625</ele>
        <time>2019-07-07T15:03:07.000Z</time>
      </trkpt>
      <trkpt lat="41.19371415115892887115478515625" lon="-2.4477826058864593505859375">
        <ele>1078.4000244140625</ele>
        <time>2019-07-07T15:03:09.000Z</time>
      </trkpt>
      <trkpt lat="41.1937058530747890472412109375" lon="-2.44851007126271724700927734375">
        <ele>1078.4000244140625</ele>
        <time>2019-07-07T15:03:11.000Z</time>
      </trkpt>
      <trkpt lat="41.19370912201702594757080078125" lon="-2.44923527352511882781982421875">
        <ele>1080.5999755859375</ele>
        <time>2019-07-07T15:03:13.000Z</time>
      </trkpt>
      <trkpt lat="41.1937293224036693572998046875" lon="-2.44995209388434886932373046875">
        <ele>1080.800048828125</ele>
        <time>2019-07-07T15:03:15.000Z</time>
      </trkpt>
      <trkpt lat="41.1937450803816318511962890625" lon="-2.45030715130269527435302734375">
        <ele>1082</ele>
        <time>2019-07-07T15:03:16.000Z</time>
      </trkpt>
      <trkpt lat="41.19378875009715557098388671875" lon="-2.4510165117681026458740234375">
        <ele>1083.5999755859375</ele>
        <time>2019-07-07T15:03:18.000Z</time>
      </trkpt>
      <trkpt lat="41.19385966099798679351806640625" lon="-2.4517182447016239166259765625">
        <ele>1083.199951171875</ele>
        <time>2019-07-07T15:03:20.000Z</time>
      </trkpt>
      <trkpt lat="41.1939633451402187347412109375" lon="-2.4524142779409885406494140625">
        <ele>1084.5999755859375</ele>
        <time>2019-07-07T15:03:22.000Z</time>
      </trkpt>
      <trkpt lat="41.1941044963896274566650390625" lon="-2.45310050435364246368408203125">
        <ele>1084.800048828125</ele>
        <time>2019-07-07T15:03:24.000Z</time>
      </trkpt>
      <trkpt lat="41.1941896565258502960205078125" lon="-2.45344198308885097503662109375">
        <ele>1085.800048828125</ele>
        <time>2019-07-07T15:03:25.000Z</time>
      </trkpt>
      <trkpt lat="41.19428445585072040557861328125" lon="-2.45378195308148860931396484375">
        <ele>1089.199951171875</ele>
        <time>2019-07-07T15:03:26.000Z</time>
      </trkpt>
      <trkpt lat="41.1943893134593963623046875" lon="-2.45411957614123821258544921875">
        <ele>1093.5999755859375</ele>
        <time>2019-07-07T15:03:27.000Z</time>
      </trkpt>
      <trkpt lat="41.194505989551544189453125" lon="-2.45445166714489459991455078125">
        <ele>1098.4000244140625</ele>
        <time>2019-07-07T15:03:28.000Z</time>
      </trkpt>
      <trkpt lat="41.1946365796029567718505859375" lon="-2.45477923192083835601806640625">
        <ele>1101.4000244140625</ele>
        <time>2019-07-07T15:03:29.000Z</time>
      </trkpt>
      <trkpt lat="41.1947794072329998016357421875" lon="-2.4551011808216571807861328125">
        <ele>1103.800048828125</ele>
        <time>2019-07-07T15:03:30.000Z</time>
      </trkpt>
      <trkpt lat="41.194930113852024078369140625" lon="-2.4554193578660488128662109375">
        <ele>1105.800048828125</ele>
        <time>2019-07-07T15:03:31.000Z</time>
      </trkpt>
      <trkpt lat="41.19526597671210765838623046875" lon="-2.4560288898646831512451171875">
        <ele>1105.199951171875</ele>
        <time>2019-07-07T15:03:33.000Z</time>
      </trkpt>
      <trkpt lat="41.1954513005912303924560546875" lon="-2.45631429366767406463623046875">
        <ele>1101</ele>
        <time>2019-07-07T15:03:34.000Z</time>
      </trkpt>
      <trkpt lat="41.195648610591888427734375" lon="-2.456589639186859130859375">
        <ele>1094.800048828125</ele>
        <time>2019-07-07T15:03:35.000Z</time>
      </trkpt>
      <trkpt lat="41.19585807435214519500732421875" lon="-2.45685526169836521148681640625">
        <ele>1088.199951171875</ele>
        <time>2019-07-07T15:03:36.000Z</time>
      </trkpt>
      <trkpt lat="41.19607851840555667877197265625" lon="-2.45711107738316059112548828125">
        <ele>1084.800048828125</ele>
        <time>2019-07-07T15:03:37.000Z</time>
      </trkpt>
      <trkpt lat="41.19631036184728145599365234375" lon="-2.457354068756103515625">
        <ele>1082.800048828125</ele>
        <time>2019-07-07T15:03:38.000Z</time>
      </trkpt>
      <trkpt lat="41.19680187664926052093505859375" lon="-2.45780241675674915313720703125">
        <ele>1082.5999755859375</ele>
        <time>2019-07-07T15:03:40.000Z</time>
      </trkpt>
      <trkpt lat="41.19733295403420925140380859375" lon="-2.45820005424320697784423828125">
        <ele>1083</ele>
        <time>2019-07-07T15:03:42.000Z</time>
      </trkpt>
      <trkpt lat="41.19789202697575092315673828125" lon="-2.45855494402348995208740234375">
        <ele>1081.4000244140625</ele>
        <time>2019-07-07T15:03:44.000Z</time>
      </trkpt>
      <trkpt lat="41.19845914654433727264404296875" lon="-2.4588976800441741943359375">
        <ele>1079.199951171875</ele>
        <time>2019-07-07T15:03:46.000Z</time>
      </trkpt>
      <trkpt lat="41.198742873966693878173828125" lon="-2.459072358906269073486328125">
        <ele>1078</ele>
        <time>2019-07-07T15:03:47.000Z</time>
      </trkpt>
      <trkpt lat="41.199309490621089935302734375" lon="-2.459421716630458831787109375">
        <ele>1076.4000244140625</ele>
        <time>2019-07-07T15:03:49.000Z</time>
      </trkpt>
      <trkpt lat="41.19987870566546916961669921875" lon="-2.45977384038269519805908203125">
        <ele>1074.5999755859375</ele>
        <time>2019-07-07T15:03:51.000Z</time>
      </trkpt>
      <trkpt lat="41.20016318745911121368408203125" lon="-2.45995254255831241607666015625">
        <ele>1073.5999755859375</ele>
        <time>2019-07-07T15:03:52.000Z</time>
      </trkpt>
      <trkpt lat="41.2004469148814678192138671875" lon="-2.46013426221907138824462890625">
        <ele>1072.4000244140625</ele>
        <time>2019-07-07T15:03:53.000Z</time>
      </trkpt>
      <trkpt lat="41.2007308937609195709228515625" lon="-2.46031732298433780670166015625">
        <ele>1071.199951171875</ele>
        <time>2019-07-07T15:03:54.000Z</time>
      </trkpt>
      <trkpt lat="41.201016046106815338134765625" lon="-2.4604987911880016326904296875">
        <ele>1070.199951171875</ele>
        <time>2019-07-07T15:03:55.000Z</time>
      </trkpt>
      <trkpt lat="41.201587021350860595703125" lon="-2.460855357348918914794921875">
        <ele>1068.800048828125</ele>
        <time>2019-07-07T15:03:57.000Z</time>
      </trkpt>
      <trkpt lat="41.2021551467478275299072265625" lon="-2.46121183969080448150634765625">
        <ele>1067.5999755859375</ele>
        <time>2019-07-07T15:03:59.000Z</time>
      </trkpt>
      <trkpt lat="41.202434264123439788818359375" lon="-2.46138920076191425323486328125">
        <ele>1066.4000244140625</ele>
        <time>2019-07-07T15:04:00.000Z</time>
      </trkpt>
      <trkpt lat="41.202976740896701812744140625" lon="-2.46173922903835773468017578125">
        <ele>1066</ele>
        <time>2019-07-07T15:04:02.000Z</time>
      </trkpt>
      <trkpt lat="41.2032417766749858856201171875" lon="-2.46191055513918399810791015625">
        <ele>1064.5999755859375</ele>
        <time>2019-07-07T15:04:03.000Z</time>
      </trkpt>
      <trkpt lat="41.203763298690319061279296875" lon="-2.462252788245677947998046875">
        <ele>1064.800048828125</ele>
        <time>2019-07-07T15:04:05.000Z</time>
      </trkpt>
      <trkpt lat="41.20402238331735134124755859375" lon="-2.46242352761328220367431640625">
        <ele>1064.199951171875</ele>
        <time>2019-07-07T15:04:06.000Z</time>
      </trkpt>
      <trkpt lat="41.20428054593503475189208984375" lon="-2.4625937640666961669921875">
        <ele>1063.5999755859375</ele>
        <time>2019-07-07T15:04:07.000Z</time>
      </trkpt>
      <trkpt lat="41.2045382894575595855712890625" lon="-2.46276400052011013031005859375">
        <ele>1062.4000244140625</ele>
        <time>2019-07-07T15:04:08.000Z</time>
      </trkpt>
      <trkpt lat="41.20504774153232574462890625" lon="-2.463101036846637725830078125">
        <ele>1064.5999755859375</ele>
        <time>2019-07-07T15:04:10.000Z</time>
      </trkpt>
      <trkpt lat="41.20555358938872814178466796875" lon="-2.46343396604061126708984375">
        <ele>1066.4000244140625</ele>
        <time>2019-07-07T15:04:11.000Z</time>
      </trkpt>
      <trkpt lat="41.20580739341676235198974609375" lon="-2.4635967426002025604248046875">
        <ele>1065</ele>
        <time>2019-07-07T15:04:13.000Z</time>
      </trkpt>
      <trkpt lat="41.206063292920589447021484375" lon="-2.4637576751410961151123046875">
        <ele>1062.800048828125</ele>
        <time>2019-07-07T15:04:14.000Z</time>
      </trkpt>
      <trkpt lat="41.20632120408117771148681640625" lon="-2.4639196135103702545166015625">
        <ele>1058.5999755859375</ele>
        <time>2019-07-07T15:04:15.000Z</time>
      </trkpt>
      <trkpt lat="41.2065804563462734222412109375" lon="-2.46408314444124698638916015625">
        <ele>1052</ele>
        <time>2019-07-07T15:04:16.000Z</time>
      </trkpt>
      <trkpt lat="41.20684021152555942535400390625" lon="-2.4642488546669483184814453125">
        <ele>1047.800048828125</ele>
        <time>2019-07-07T15:04:17.000Z</time>
      </trkpt>
      <trkpt lat="41.20710055343806743621826171875" lon="-2.4644176661968231201171875">
        <ele>1045.800048828125</ele>
        <time>2019-07-07T15:04:18.000Z</time>
      </trkpt>
      <trkpt lat="41.20736273936927318572998046875" lon="-2.46459041722118854522705078125">
        <ele>1044.800048828125</ele>
        <time>2019-07-07T15:04:19.000Z</time>
      </trkpt>
      <trkpt lat="41.207891888916492462158203125" lon="-2.464945055544376373291015625">
        <ele>1046</ele>
        <time>2019-07-07T15:04:21.000Z</time>
      </trkpt>
      <trkpt lat="41.2081599421799182891845703125" lon="-2.46512518264353275299072265625">
        <ele>1047.5999755859375</ele>
        <time>2019-07-07T15:04:22.000Z</time>
      </trkpt>
      <trkpt lat="41.20843000710010528564453125" lon="-2.465306483209133148193359375">
        <ele>1050.4000244140625</ele>
        <time>2019-07-07T15:04:23.000Z</time>
      </trkpt>
      <trkpt lat="41.2087017484009265899658203125" lon="-2.4654883705079555511474609375">
        <ele>1052.199951171875</ele>
        <time>2019-07-07T15:04:24.000Z</time>
      </trkpt>
      <trkpt lat="41.2092442251741886138916015625" lon="-2.46585331857204437255859375">
        <ele>1052.4000244140625</ele>
        <time>2019-07-07T15:04:26.000Z</time>
      </trkpt>
      <trkpt lat="41.20978477410972118377685546875" lon="-2.46621784754097461700439453125">
        <ele>1053.4000244140625</ele>
        <time>2019-07-07T15:04:28.000Z</time>
      </trkpt>
      <trkpt lat="41.21032389812171459197998046875" lon="-2.46658153831958770751953125">
        <ele>1054.4000244140625</ele>
        <time>2019-07-07T15:04:30.000Z</time>
      </trkpt>
      <trkpt lat="41.2105927057564258575439453125" lon="-2.46676501818001270294189453125">
        <ele>1054.800048828125</ele>
        <time>2019-07-07T15:04:31.000Z</time>
      </trkpt>
      <trkpt lat="41.211130321025848388671875" lon="-2.46713331900537014007568359375">
        <ele>1056</ele>
        <time>2019-07-07T15:04:33.000Z</time>
      </trkpt>
      <trkpt lat="41.211668439209461212158203125" lon="-2.467501200735569000244140625">
        <ele>1056.800048828125</ele>
        <time>2019-07-07T15:04:35.000Z</time>
      </trkpt>
      <trkpt lat="41.2122073955833911895751953125" lon="-2.46787494979798793792724609375">
        <ele>1057.4000244140625</ele>
        <time>2019-07-07T15:04:37.000Z</time>
      </trkpt>
      <trkpt lat="41.21274610050022602081298828125" lon="-2.46825255453586578369140625">
        <ele>1057.5999755859375</ele>
        <time>2019-07-07T15:04:39.000Z</time>
      </trkpt>
      <trkpt lat="41.21328120119869709014892578125" lon="-2.468622364103794097900390625">
        <ele>1057.5999755859375</ele>
        <time>2019-07-07T15:04:41.000Z</time>
      </trkpt>
      <trkpt lat="41.21354623697698116302490234375" lon="-2.46880634687840938568115234375">
        <ele>1056.199951171875</ele>
        <time>2019-07-07T15:04:42.000Z</time>
      </trkpt>
      <trkpt lat="41.2140732072293758392333984375" lon="-2.46917699463665485382080078125">
        <ele>1054.4000244140625</ele>
        <time>2019-07-07T15:04:44.000Z</time>
      </trkpt>
      <trkpt lat="41.214598082005977630615234375" lon="-2.46954043395817279815673828125">
        <ele>1054.199951171875</ele>
        <time>2019-07-07T15:04:46.000Z</time>
      </trkpt>
      <trkpt lat="41.2151185981929302215576171875" lon="-2.46990119107067584991455078125">
        <ele>1054</ele>
        <time>2019-07-07T15:04:48.000Z</time>
      </trkpt>
      <trkpt lat="41.2156409583985805511474609375" lon="-2.470263540744781494140625">
        <ele>1055.800048828125</ele>
        <time>2019-07-07T15:04:50.000Z</time>
      </trkpt>
      <trkpt lat="41.216173879802227020263671875" lon="-2.470609210431575775146484375">
        <ele>1057.5999755859375</ele>
        <time>2019-07-07T15:04:52.000Z</time>
      </trkpt>
      <trkpt lat="41.2167192064225673675537109375" lon="-2.47092311270534992218017578125">
        <ele>1058.4000244140625</ele>
        <time>2019-07-07T15:04:54.000Z</time>
      </trkpt>
      <trkpt lat="41.2172739207744598388671875" lon="-2.4711997993290424346923828125">
        <ele>1057</ele>
        <time>2019-07-07T15:04:56.000Z</time>
      </trkpt>
      <trkpt lat="41.21755421161651611328125" lon="-2.471325695514678955078125">
        <ele>1056.199951171875</ele>
        <time>2019-07-07T15:04:57.000Z</time>
      </trkpt>
      <trkpt lat="41.21812091208994388580322265625" lon="-2.4715523421764373779296875">
        <ele>1055</ele>
        <time>2019-07-07T15:04:59.000Z</time>
      </trkpt>
      <trkpt lat="41.2186886183917522430419921875" lon="-2.4717454612255096435546875">
        <ele>1053</ele>
        <time>2019-07-07T15:05:01.000Z</time>
      </trkpt>
      <trkpt lat="41.2192528881132602691650390625" lon="-2.47190882451832294464111328125">
        <ele>1053.800048828125</ele>
        <time>2019-07-07T15:05:03.000Z</time>
      </trkpt>
      <trkpt lat="41.2195350229740142822265625" lon="-2.4719783104956150054931640625">
        <ele>1054.199951171875</ele>
        <time>2019-07-07T15:05:04.000Z</time>
      </trkpt>
      <trkpt lat="41.22010021470487117767333984375" lon="-2.4720872752368450164794921875">
        <ele>1054.5999755859375</ele>
        <time>2019-07-07T15:05:06.000Z</time>
      </trkpt>
      <trkpt lat="41.2206642329692840576171875" lon="-2.47216480784118175506591796875">
        <ele>1056</ele>
        <time>2019-07-07T15:05:08.000Z</time>
      </trkpt>
      <trkpt lat="41.22122414410114288330078125" lon="-2.47223622165620326995849609375">
        <ele>1055.800048828125</ele>
        <time>2019-07-07T15:05:10.000Z</time>
      </trkpt>
      <trkpt lat="41.22178070247173309326171875" lon="-2.47231786139309406280517578125">
        <ele>1056.199951171875</ele>
        <time>2019-07-07T15:05:12.000Z</time>
      </trkpt>
      <trkpt lat="41.2220584787428379058837890625" lon="-2.47235993854701519012451171875">
        <ele>1057.199951171875</ele>
        <time>2019-07-07T15:05:13.000Z</time>
      </trkpt>
      <trkpt lat="41.2226147018373012542724609375" lon="-2.47244912199676036834716796875">
        <ele>1058</ele>
        <time>2019-07-07T15:05:15.000Z</time>
      </trkpt>
      <trkpt lat="41.22316916473209857940673828125" lon="-2.47255691327154636383056640625">
        <ele>1058.199951171875</ele>
        <time>2019-07-07T15:05:17.000Z</time>
      </trkpt>
      <trkpt lat="41.2237194366753101348876953125" lon="-2.47269563376903533935546875">
        <ele>1056.800048828125</ele>
        <time>2019-07-07T15:05:19.000Z</time>
      </trkpt>
      <trkpt lat="41.2239920161664485931396484375" lon="-2.47277786023914813995361328125">
        <ele>1055.5999755859375</ele>
        <time>2019-07-07T15:05:20.000Z</time>
      </trkpt>
      <trkpt lat="41.22453155927360057830810546875" lon="-2.472958825528621673583984375">
        <ele>1054.800048828125</ele>
        <time>2019-07-07T15:05:22.000Z</time>
      </trkpt>
      <trkpt lat="41.22506313957273960113525390625" lon="-2.47316208668053150177001953125">
        <ele>1056.4000244140625</ele>
        <time>2019-07-07T15:05:24.000Z</time>
      </trkpt>
      <trkpt lat="41.22532784007489681243896484375" lon="-2.47326903976500034332275390625">
        <ele>1056.800048828125</ele>
        <time>2019-07-07T15:05:25.000Z</time>
      </trkpt>
      <trkpt lat="41.2258516252040863037109375" lon="-2.473496608436107635498046875">
        <ele>1058</ele>
        <time>2019-07-07T15:05:27.000Z</time>
      </trkpt>
      <trkpt lat="41.22636602260172367095947265625" lon="-2.473754100501537322998046875">
        <ele>1058.199951171875</ele>
        <time>2019-07-07T15:05:29.000Z</time>
      </trkpt>
      <trkpt lat="41.2268676795065402984619140625" lon="-2.47403413988649845123291015625">
        <ele>1058</ele>
        <time>2019-07-07T15:05:31.000Z</time>
      </trkpt>
      <trkpt lat="41.2273612059652805328369140625" lon="-2.4743316136300563812255859375">
        <ele>1057.4000244140625</ele>
        <time>2019-07-07T15:05:33.000Z</time>
      </trkpt>
      <trkpt lat="41.2278466857969760894775390625" lon="-2.4746501259505748748779296875">
        <ele>1058.800048828125</ele>
        <time>2019-07-07T15:05:35.000Z</time>
      </trkpt>
      <trkpt lat="41.22808883897960186004638671875" lon="-2.47481726109981536865234375">
        <ele>1059.5999755859375</ele>
        <time>2019-07-07T15:05:36.000Z</time>
      </trkpt>
      <trkpt lat="41.228328980505466461181640625" lon="-2.47499001212418079376220703125">
        <ele>1060.5999755859375</ele>
        <time>2019-07-07T15:05:37.000Z</time>
      </trkpt>
      <trkpt lat="41.22856727801263332366943359375" lon="-2.47516921721398830413818359375">
        <ele>1062</ele>
        <time>2019-07-07T15:05:38.000Z</time>
      </trkpt>
      <trkpt lat="41.228802390396595001220703125" lon="-2.47535563074052333831787109375">
        <ele>1063</ele>
        <time>2019-07-07T15:05:39.000Z</time>
      </trkpt>
      <trkpt lat="41.229267418384552001953125" lon="-2.47574605979025363922119140625">
        <ele>1064.199951171875</ele>
        <time>2019-07-07T15:05:41.000Z</time>
      </trkpt>
      <trkpt lat="41.2294989265501499176025390625" lon="-2.4759458005428314208984375">
        <ele>1065.4000244140625</ele>
        <time>2019-07-07T15:05:42.000Z</time>
      </trkpt>
      <trkpt lat="41.22972917743027210235595703125" lon="-2.476148642599582672119140625">
        <ele>1066.4000244140625</ele>
        <time>2019-07-07T15:05:43.000Z</time>
      </trkpt>
      <trkpt lat="41.22995934449136257171630859375" lon="-2.47635140083730220794677734375">
        <ele>1067.800048828125</ele>
        <time>2019-07-07T15:05:44.000Z</time>
      </trkpt>
      <trkpt lat="41.2304226122796535491943359375" lon="-2.47675113379955291748046875">
        <ele>1069.4000244140625</ele>
        <time>2019-07-07T15:05:46.000Z</time>
      </trkpt>
      <trkpt lat="41.2306566350162029266357421875" lon="-2.47694718651473522186279296875">
        <ele>1070.800048828125</ele>
        <time>2019-07-07T15:05:47.000Z</time>
      </trkpt>
      <trkpt lat="41.2311317212879657745361328125" lon="-2.47732671909034252166748046875">
        <ele>1071</ele>
        <time>2019-07-07T15:05:49.000Z</time>
      </trkpt>
      <trkpt lat="41.23137496411800384521484375" lon="-2.47750818729400634765625">
        <ele>1071.800048828125</ele>
        <time>2019-07-07T15:05:50.000Z</time>
      </trkpt>
      <trkpt lat="41.2318713404238224029541015625" lon="-2.47784991748631000518798828125">
        <ele>1073.199951171875</ele>
        <time>2019-07-07T15:05:52.000Z</time>
      </trkpt>
      <trkpt lat="41.23238020576536655426025390625" lon="-2.4781601317226886749267578125">
        <ele>1073.5999755859375</ele>
        <time>2019-07-07T15:05:54.000Z</time>
      </trkpt>
      <trkpt lat="41.232639290392398834228515625" lon="-2.47830304317176342010498046875">
        <ele>1074.4000244140625</ele>
        <time>2019-07-07T15:05:55.000Z</time>
      </trkpt>
      <trkpt lat="41.23290072195231914520263671875" lon="-2.47843950055539608001708984375">
        <ele>1075.800048828125</ele>
        <time>2019-07-07T15:05:56.000Z</time>
      </trkpt>
      <trkpt lat="41.2331628240644931793212890625" lon="-2.47857243753969669342041015625">
        <ele>1077.5999755859375</ele>
        <time>2019-07-07T15:05:57.000Z</time>
      </trkpt>
      <trkpt lat="41.23369373381137847900390625" lon="-2.47881450690329074859619140625">
        <ele>1078.4000244140625</ele>
        <time>2019-07-07T15:05:59.000Z</time>
      </trkpt>
      <trkpt lat="41.23396254144608974456787109375" lon="-2.47892313636839389801025390625">
        <ele>1079.199951171875</ele>
        <time>2019-07-07T15:06:00.000Z</time>
      </trkpt>
      <trkpt lat="41.2345079518854618072509765625" lon="-2.4791136570274829864501953125">
        <ele>1078.5999755859375</ele>
        <time>2019-07-07T15:06:02.000Z</time>
      </trkpt>
      <trkpt lat="41.2347842194139957427978515625" lon="-2.47919688932597637176513671875">
        <ele>1078.199951171875</ele>
        <time>2019-07-07T15:06:03.000Z</time>
      </trkpt>
      <trkpt lat="41.23534354381263256072998046875" lon="-2.47933921404182910919189453125">
        <ele>1078.800048828125</ele>
        <time>2019-07-07T15:06:05.000Z</time>
      </trkpt>
      <trkpt lat="41.23591384850442409515380859375" lon="-2.47944130562245845794677734375">
        <ele>1079</ele>
        <time>2019-07-07T15:06:07.000Z</time>
      </trkpt>
      <trkpt lat="41.23620302416384220123291015625" lon="-2.47947818599641323089599609375">
        <ele>1079.5999755859375</ele>
        <time>2019-07-07T15:06:08.000Z</time>
      </trkpt>
      <trkpt lat="41.23678254894912242889404296875" lon="-2.47953015379607677459716796875">
        <ele>1079.800048828125</ele>
        <time>2019-07-07T15:06:10.000Z</time>
      </trkpt>
      <trkpt lat="41.23736643232405185699462890625" lon="-2.4795468337833881378173828125">
        <ele>1079.199951171875</ele>
        <time>2019-07-07T15:06:12.000Z</time>
      </trkpt>
      <trkpt lat="41.237958781421184539794921875" lon="-2.479526884853839874267578125">
        <ele>1079.800048828125</ele>
        <time>2019-07-07T15:06:14.000Z</time>
      </trkpt>
      <trkpt lat="41.2382573448121547698974609375" lon="-2.47950576245784759521484375">
        <ele>1081.800048828125</ele>
        <time>2019-07-07T15:06:15.000Z</time>
      </trkpt>
      <trkpt lat="41.2385580874979496002197265625" lon="-2.4794760905206203460693359375">
        <ele>1084.5999755859375</ele>
        <time>2019-07-07T15:06:16.000Z</time>
      </trkpt>
      <trkpt lat="41.23885832726955413818359375" lon="-2.47943728230893611907958984375">
        <ele>1087.199951171875</ele>
        <time>2019-07-07T15:06:17.000Z</time>
      </trkpt>
      <trkpt lat="41.23915865086019039154052734375" lon="-2.4793897569179534912109375">
        <ele>1088.5999755859375</ele>
        <time>2019-07-07T15:06:18.000Z</time>
      </trkpt>
      <trkpt lat="41.23945637606084346771240234375" lon="-2.4793292395770549774169921875">
        <ele>1089.800048828125</ele>
        <time>2019-07-07T15:06:19.000Z</time>
      </trkpt>
      <trkpt lat="41.2400453723967075347900390625" lon="-2.4791778624057769775390625">
        <ele>1091.199951171875</ele>
        <time>2019-07-07T15:06:21.000Z</time>
      </trkpt>
      <trkpt lat="41.24062514863908290863037109375" lon="-2.47898851521313190460205078125">
        <ele>1089.800048828125</ele>
        <time>2019-07-07T15:06:23.000Z</time>
      </trkpt>
      <trkpt lat="41.24119696207344532012939453125" lon="-2.478757761418819427490234375">
        <ele>1090</ele>
        <time>2019-07-07T15:06:25.000Z</time>
      </trkpt>
      <trkpt lat="41.2417639978229999542236328125" lon="-2.4784927256405353546142578125">
        <ele>1087.4000244140625</ele>
        <time>2019-07-07T15:06:27.000Z</time>
      </trkpt>
      <trkpt lat="41.2423235736787319183349609375" lon="-2.47820028103888034820556640625">
        <ele>1086</ele>
        <time>2019-07-07T15:06:29.000Z</time>
      </trkpt>
      <trkpt lat="41.24259925447404384613037109375" lon="-2.47803968377411365509033203125">
        <ele>1085.5999755859375</ele>
        <time>2019-07-07T15:06:30.000Z</time>
      </trkpt>
      <trkpt lat="41.24314449727535247802734375" lon="-2.47769200243055820465087890625">
        <ele>1084.800048828125</ele>
        <time>2019-07-07T15:06:32.000Z</time>
      </trkpt>
      <trkpt lat="41.2436871416866779327392578125" lon="-2.477330155670642852783203125">
        <ele>1084.5999755859375</ele>
        <time>2019-07-07T15:06:34.000Z</time>
      </trkpt>
      <trkpt lat="41.24423087574541568756103515625" lon="-2.47696529142558574676513671875">
        <ele>1084.5999755859375</ele>
        <time>2019-07-07T15:06:36.000Z</time>
      </trkpt>
      <trkpt lat="41.24478072859346866607666015625" lon="-2.4766037799417972564697265625">
        <ele>1084.199951171875</ele>
        <time>2019-07-07T15:06:38.000Z</time>
      </trkpt>
      <trkpt lat="41.245059259235858917236328125" lon="-2.47642633505165576934814453125">
        <ele>1083.5999755859375</ele>
        <time>2019-07-07T15:06:39.000Z</time>
      </trkpt>
      <trkpt lat="41.24533946625888347625732421875" lon="-2.4762534163892269134521484375">
        <ele>1082.5999755859375</ele>
        <time>2019-07-07T15:06:40.000Z</time>
      </trkpt>
      <trkpt lat="41.2456221878528594970703125" lon="-2.476082928478717803955078125">
        <ele>1081.4000244140625</ele>
        <time>2019-07-07T15:06:41.000Z</time>
      </trkpt>
      <trkpt lat="41.24619307927787303924560546875" lon="-2.47575477696955204010009765625">
        <ele>1079.800048828125</ele>
        <time>2019-07-07T15:06:43.000Z</time>
      </trkpt>
      <trkpt lat="41.246476806700229644775390625" lon="-2.47560138814151287078857421875">
        <ele>1080.800048828125</ele>
        <time>2019-07-07T15:06:44.000Z</time>
      </trkpt>
      <trkpt lat="41.246762461960315704345703125" lon="-2.47545294463634490966796875">
        <ele>1079.800048828125</ele>
        <time>2019-07-07T15:06:45.000Z</time>
      </trkpt>
      <trkpt lat="41.24733838252723217010498046875" lon="-2.47517290525138378143310546875">
        <ele>1079.800048828125</ele>
        <time>2019-07-07T15:06:47.000Z</time>
      </trkpt>
      <trkpt lat="41.24762873165309429168701171875" lon="-2.47504382394254207611083984375">
        <ele>1081</ele>
        <time>2019-07-07T15:06:48.000Z</time>
      </trkpt>
      <trkpt lat="41.24821328558027744293212890625" lon="-2.47480376623570919036865234375">
        <ele>1079.800048828125</ele>
        <time>2019-07-07T15:06:50.000Z</time>
      </trkpt>
      <trkpt lat="41.2485084123909473419189453125" lon="-2.47469413094222545623779296875">
        <ele>1078.4000244140625</ele>
        <time>2019-07-07T15:06:51.000Z</time>
      </trkpt>
      <trkpt lat="41.24880471266806125640869140625" lon="-2.4745904467999935150146484375">
        <ele>1076.800048828125</ele>
        <time>2019-07-07T15:06:52.000Z</time>
      </trkpt>
      <trkpt lat="41.24910260550677776336669921875" lon="-2.47449330054223537445068359375">
        <ele>1074.199951171875</ele>
        <time>2019-07-07T15:06:53.000Z</time>
      </trkpt>
      <trkpt lat="41.2494012527167797088623046875" lon="-2.474403195083141326904296875">
        <ele>1071.5999755859375</ele>
        <time>2019-07-07T15:06:54.000Z</time>
      </trkpt>
      <trkpt lat="41.2497003190219402313232421875" lon="-2.47431795112788677215576171875">
        <ele>1069.4000244140625</ele>
        <time>2019-07-07T15:06:55.000Z</time>
      </trkpt>
      <trkpt lat="41.2499983794987201690673828125" lon="-2.47423932887613773345947265625">
        <ele>1067.4000244140625</ele>
        <time>2019-07-07T15:06:56.000Z</time>
      </trkpt>
      <trkpt lat="41.25059642829000949859619140625" lon="-2.47410085983574390411376953125">
        <ele>1065.800048828125</ele>
        <time>2019-07-07T15:06:58.000Z</time>
      </trkpt>
      <trkpt lat="41.25120109878480434417724609375" lon="-2.473983429372310638427734375">
        <ele>1064.5999755859375</ele>
        <time>2019-07-07T15:07:00.000Z</time>
      </trkpt>
      <trkpt lat="41.25181079842150211334228515625" lon="-2.47388728894293308258056640625">
        <ele>1064.4000244140625</ele>
        <time>2019-07-07T15:07:02.000Z</time>
      </trkpt>
      <trkpt lat="41.25241932459175586700439453125" lon="-2.47381537221372127532958984375">
        <ele>1065.4000244140625</ele>
        <time>2019-07-07T15:07:04.000Z</time>
      </trkpt>
      <trkpt lat="41.25302852131426334381103515625" lon="-2.47376315295696258544921875">
        <ele>1065.199951171875</ele>
        <time>2019-07-07T15:07:06.000Z</time>
      </trkpt>
      <trkpt lat="41.25333429314196109771728515625" lon="-2.47374571859836578369140625">
        <ele>1066.5999755859375</ele>
        <time>2019-07-07T15:07:07.000Z</time>
      </trkpt>
      <trkpt lat="41.25364123843610286712646484375" lon="-2.47373272664844989776611328125">
        <ele>1069</ele>
        <time>2019-07-07T15:07:08.000Z</time>
      </trkpt>
      <trkpt lat="41.25394918955862522125244140625" lon="-2.47372023761272430419921875">
        <ele>1070.800048828125</ele>
        <time>2019-07-07T15:07:09.000Z</time>
      </trkpt>
      <trkpt lat="41.25456542707979679107666015625" lon="-2.47368746437132358551025390625">
        <ele>1069.800048828125</ele>
        <time>2019-07-07T15:07:11.000Z</time>
      </trkpt>
      <trkpt lat="41.25487379729747772216796875" lon="-2.47366785071790218353271484375">
        <ele>1069.5999755859375</ele>
        <time>2019-07-07T15:07:12.000Z</time>
      </trkpt>
      <trkpt lat="41.2554918788373470306396484375" lon="-2.47362812049686908721923828125">
        <ele>1069.199951171875</ele>
        <time>2019-07-07T15:07:14.000Z</time>
      </trkpt>
      <trkpt lat="41.25610920600593090057373046875" lon="-2.4735889770090579986572265625">
        <ele>1068</ele>
        <time>2019-07-07T15:07:16.000Z</time>
      </trkpt>
      <trkpt lat="41.2567253597080707550048828125" lon="-2.47353189624845981597900390625">
        <ele>1067.199951171875</ele>
        <time>2019-07-07T15:07:18.000Z</time>
      </trkpt>
      <trkpt lat="41.25764988362789154052734375" lon="-2.4734511785209178924560546875">
        <ele>1067.4000244140625</ele>
        <time>2019-07-07T15:07:20.000Z</time>
      </trkpt>
      <trkpt lat="41.25764988362789154052734375" lon="-2.4734511785209178924560546875">
        <ele>1065.800048828125</ele>
        <time>2019-07-07T15:07:21.000Z</time>
      </trkpt>
      <trkpt lat="41.25795657746493816375732421875" lon="-2.4734303914010524749755859375">
        <ele>1063.4000244140625</ele>
        <time>2019-07-07T15:07:22.000Z</time>
      </trkpt>
      <trkpt lat="41.25856258906424045562744140625" lon="-2.47339108027517795562744140625">
        <ele>1061.5999755859375</ele>
        <time>2019-07-07T15:07:23.000Z</time>
      </trkpt>
      <trkpt lat="41.25856258906424045562744140625" lon="-2.47339108027517795562744140625">
        <ele>1058.199951171875</ele>
        <time>2019-07-07T15:07:24.000Z</time>
      </trkpt>
      <trkpt lat="41.25886249355971813201904296875" lon="-2.4733717180788516998291015625">
        <ele>1056.5999755859375</ele>
        <time>2019-07-07T15:07:25.000Z</time>
      </trkpt>
      <trkpt lat="41.259452663362026214599609375" lon="-2.47333936393260955810546875">
        <ele>1057.800048828125</ele>
        <time>2019-07-07T15:07:27.000Z</time>
      </trkpt>
      <trkpt lat="41.2597445212304592132568359375" lon="-2.4733271263539791107177734375">
        <ele>1062.199951171875</ele>
        <time>2019-07-07T15:07:28.000Z</time>
      </trkpt>
      <trkpt lat="41.260034032166004180908203125" lon="-2.47331698425114154815673828125">
        <ele>1068.800048828125</ele>
        <time>2019-07-07T15:07:29.000Z</time>
      </trkpt>
      <trkpt lat="41.2603222019970417022705078125" lon="-2.47331011109054088592529296875">
        <ele>1072.199951171875</ele>
        <time>2019-07-07T15:07:30.000Z</time>
      </trkpt>
      <trkpt lat="41.260607354342937469482421875" lon="-2.4733076803386211395263671875">
        <ele>1074</ele>
        <time>2019-07-07T15:07:31.000Z</time>
      </trkpt>
      <trkpt lat="41.26116734929382801055908203125" lon="-2.47332553379237651824951171875">
        <ele>1074.800048828125</ele>
        <time>2019-07-07T15:07:33.000Z</time>
      </trkpt>
      <trkpt lat="41.2617209739983081817626953125" lon="-2.47335948050022125244140625">
        <ele>1069.4000244140625</ele>
        <time>2019-07-07T15:07:35.000Z</time>
      </trkpt>
      <trkpt lat="41.2619995884597301483154296875" lon="-2.4733797647058963775634765625">
        <ele>1064.199951171875</ele>
        <time>2019-07-07T15:07:36.000Z</time>
      </trkpt>
      <trkpt lat="41.26227811910212039947509765625" lon="-2.47340482659637928009033203125">
        <ele>1059</ele>
        <time>2019-07-07T15:07:37.000Z</time>
      </trkpt>
      <trkpt lat="41.26255773939192295074462890625" lon="-2.47343651019036769866943359375">
        <ele>1056.199951171875</ele>
        <time>2019-07-07T15:07:38.000Z</time>
      </trkpt>
      <trkpt lat="41.26283861696720123291015625" lon="-2.47347171418368816375732421875">
        <ele>1053.800048828125</ele>
        <time>2019-07-07T15:07:39.000Z</time>
      </trkpt>
      <trkpt lat="41.26312150619924068450927734375" lon="-2.47351027093827724456787109375">
        <ele>1052.199951171875</ele>
        <time>2019-07-07T15:07:40.000Z</time>
      </trkpt>
      <trkpt lat="41.263689883053302764892578125" lon="-2.47360046021640300750732421875">
        <ele>1051.4000244140625</ele>
        <time>2019-07-07T15:07:42.000Z</time>
      </trkpt>
      <trkpt lat="41.2642640434205532073974609375" lon="-2.4736966006457805633544921875">
        <ele>1052.800048828125</ele>
        <time>2019-07-07T15:07:44.000Z</time>
      </trkpt>
      <trkpt lat="41.26455347053706645965576171875" lon="-2.4737463891506195068359375">
        <ele>1054.4000244140625</ele>
        <time>2019-07-07T15:07:45.000Z</time>
      </trkpt>
      <trkpt lat="41.26513718627393245697021484375" lon="-2.47384387068450450897216796875">
        <ele>1057</ele>
        <time>2019-07-07T15:07:47.000Z</time>
      </trkpt>
      <trkpt lat="41.2657255120575428009033203125" lon="-2.473934479057788848876953125">
        <ele>1059</ele>
        <time>2019-07-07T15:07:49.000Z</time>
      </trkpt>
      <trkpt lat="41.26631484366953372955322265625" lon="-2.47401720844209194183349609375">
        <ele>1057</ele>
        <time>2019-07-07T15:07:51.000Z</time>
      </trkpt>
      <trkpt lat="41.26660821028053760528564453125" lon="-2.47405777685344219207763671875">
        <ele>1055.5999755859375</ele>
        <time>2019-07-07T15:07:52.000Z</time>
      </trkpt>
      <trkpt lat="41.2671925127506256103515625" lon="-2.4741351418197154998779296875">
        <ele>1057</ele>
        <time>2019-07-07T15:07:54.000Z</time>
      </trkpt>
      <trkpt lat="41.26748286187648773193359375" lon="-2.474171854555606842041015625">
        <ele>1058.5999755859375</ele>
        <time>2019-07-07T15:07:55.000Z</time>
      </trkpt>
      <trkpt lat="41.26777388155460357666015625" lon="-2.47420596890151500701904296875">
        <ele>1060.5999755859375</ele>
        <time>2019-07-07T15:07:56.000Z</time>
      </trkpt>
      <trkpt lat="41.26806632615625858306884765625" lon="-2.47423966415226459503173828125">
        <ele>1062.800048828125</ele>
        <time>2019-07-07T15:07:57.000Z</time>
      </trkpt>
      <trkpt lat="41.26835994422435760498046875" lon="-2.47427335940301418304443359375">
        <ele>1065.800048828125</ele>
        <time>2019-07-07T15:07:58.000Z</time>
      </trkpt>
      <trkpt lat="41.2686544843018054962158203125" lon="-2.47430638410151004791259765625">
        <ele>1068.5999755859375</ele>
        <time>2019-07-07T15:07:59.000Z</time>
      </trkpt>
      <trkpt lat="41.2692449055612087249755859375" lon="-2.47437478043138980865478515625">
        <ele>1070.800048828125</ele>
        <time>2019-07-07T15:08:01.000Z</time>
      </trkpt>
      <trkpt lat="41.26954254694283008575439453125" lon="-2.474407218396663665771484375">
        <ele>1072.4000244140625</ele>
        <time>2019-07-07T15:08:02.000Z</time>
      </trkpt>
      <trkpt lat="41.26984094269573688507080078125" lon="-2.4744378961622714996337890625">
        <ele>1074.800048828125</ele>
        <time>2019-07-07T15:08:03.000Z</time>
      </trkpt>
      <trkpt lat="41.27014034427702426910400390625" lon="-2.47446664609014987945556640625">
        <ele>1076.800048828125</ele>
        <time>2019-07-07T15:08:04.000Z</time>
      </trkpt>
      <trkpt lat="41.271047852933406829833984375" lon="-2.47452515177428722381591796875">
        <ele>1078</ele>
        <time>2019-07-07T15:08:06.000Z</time>
      </trkpt>
      <trkpt lat="41.27166015096008777618408203125" lon="-2.4745445139706134796142578125">
        <ele>1077</ele>
        <time>2019-07-07T15:08:08.000Z</time>
      </trkpt>
      <trkpt lat="41.27227772958576679229736328125" lon="-2.47455650009214878082275390625">
        <ele>1074.5999755859375</ele>
        <time>2019-07-07T15:08:11.000Z</time>
      </trkpt>
      <trkpt lat="41.2725876085460186004638671875" lon="-2.4745644629001617431640625">
        <ele>1073.199951171875</ele>
        <time>2019-07-07T15:08:12.000Z</time>
      </trkpt>
      <trkpt lat="41.27321130596101284027099609375" lon="-2.47457762248814105987548828125">
        <ele>1072.800048828125</ele>
        <time>2019-07-07T15:08:14.000Z</time>
      </trkpt>
      <trkpt lat="41.27383475191891193389892578125" lon="-2.4745904467999935150146484375">
        <ele>1072.5999755859375</ele>
        <time>2019-07-07T15:08:16.000Z</time>
      </trkpt>
      <trkpt lat="41.27445886842906475067138671875" lon="-2.47460402548313140869140625">
        <ele>1072</ele>
        <time>2019-07-07T15:08:17.000Z</time>
      </trkpt>
      <trkpt lat="41.2747709266841411590576171875" lon="-2.4746115691959857940673828125">
        <ele>1070.800048828125</ele>
        <time>2019-07-07T15:08:19.000Z</time>
      </trkpt>
      <trkpt lat="41.275393702089786529541015625" lon="-2.47463411651551723480224609375">
        <ele>1069</ele>
        <time>2019-07-07T15:08:20.000Z</time>
      </trkpt>
      <trkpt lat="41.275393702089786529541015625" lon="-2.47463411651551723480224609375">
        <ele>1066.199951171875</ele>
        <time>2019-07-07T15:08:21.000Z</time>
      </trkpt>
      <trkpt lat="41.2757029943168163299560546875" lon="-2.4746504612267017364501953125">
        <ele>1063.5999755859375</ele>
        <time>2019-07-07T15:08:22.000Z</time>
      </trkpt>
      <trkpt lat="41.27600985579192638397216796875" lon="-2.47467284090816974639892578125">
        <ele>1061.199951171875</ele>
        <time>2019-07-07T15:08:23.000Z</time>
      </trkpt>
      <trkpt lat="41.27661653794348239898681640625" lon="-2.4747372977435588836669921875">
        <ele>1059.4000244140625</ele>
        <time>2019-07-07T15:08:24.000Z</time>
      </trkpt>
      <trkpt lat="41.27661653794348239898681640625" lon="-2.4747372977435588836669921875">
        <ele>1058.199951171875</ele>
        <time>2019-07-07T15:08:25.000Z</time>
      </trkpt>
      <trkpt lat="41.27691644243896007537841796875" lon="-2.474778033792972564697265625">
        <ele>1056.800048828125</ele>
        <time>2019-07-07T15:08:26.000Z</time>
      </trkpt>
      <trkpt lat="41.27721467055380344390869140625" lon="-2.4748244695365428924560546875">
        <ele>1055.5999755859375</ele>
        <time>2019-07-07T15:08:27.000Z</time>
      </trkpt>
      <trkpt lat="41.2778048403561115264892578125" lon="-2.47492865659296512603759765625">
        <ele>1055</ele>
        <time>2019-07-07T15:08:29.000Z</time>
      </trkpt>
      <trkpt lat="41.27839182503521442413330078125" lon="-2.4750470928847789764404296875">
        <ele>1054.199951171875</ele>
        <time>2019-07-07T15:08:31.000Z</time>
      </trkpt>
      <trkpt lat="41.2789714336395263671875" lon="-2.475182376801967620849609375">
        <ele>1056.199951171875</ele>
        <time>2019-07-07T15:08:33.000Z</time>
      </trkpt>
      <trkpt lat="41.27925985492765903472900390625" lon="-2.4752506054937839508056640625">
        <ele>1057.199951171875</ele>
        <time>2019-07-07T15:08:34.000Z</time>
      </trkpt>
      <trkpt lat="41.27954802475869655609130859375" lon="-2.4753176607191562652587890625">
        <ele>1058.4000244140625</ele>
        <time>2019-07-07T15:08:35.000Z</time>
      </trkpt>
      <trkpt lat="41.28012302331626415252685546875" lon="-2.47545084916055202484130859375">
        <ele>1060.199951171875</ele>
        <time>2019-07-07T15:08:37.000Z</time>
      </trkpt>
      <trkpt lat="41.2806949205696582794189453125" lon="-2.47558361850678920745849609375">
        <ele>1061</ele>
        <time>2019-07-07T15:08:39.000Z</time>
      </trkpt>
      <trkpt lat="41.28126916475594043731689453125" lon="-2.47570230625569820404052734375">
        <ele>1061</ele>
        <time>2019-07-07T15:08:41.000Z</time>
      </trkpt>
      <trkpt lat="41.2818452529609203338623046875" lon="-2.47580070979893207550048828125">
        <ele>1060.199951171875</ele>
        <time>2019-07-07T15:08:43.000Z</time>
      </trkpt>
      <trkpt lat="41.28242284990847110748291015625" lon="-2.475875727832317352294921875">
        <ele>1059.5999755859375</ele>
        <time>2019-07-07T15:08:45.000Z</time>
      </trkpt>
      <trkpt lat="41.283000446856021881103515625" lon="-2.4759256839752197265625">
        <ele>1059.199951171875</ele>
        <time>2019-07-07T15:08:47.000Z</time>
      </trkpt>
      <trkpt lat="41.2835756130516529083251953125" lon="-2.475952170789241790771484375">
        <ele>1059.5999755859375</ele>
        <time>2019-07-07T15:08:48.000Z</time>
      </trkpt>
      <trkpt lat="41.28414851613342761993408203125" lon="-2.47596147470176219940185546875">
        <ele>1059.800048828125</ele>
        <time>2019-07-07T15:08:50.000Z</time>
      </trkpt>
      <trkpt lat="41.28471362404525279998779296875" lon="-2.47596465982496738433837890625">
        <ele>1059.800048828125</ele>
        <time>2019-07-07T15:08:52.000Z</time>
      </trkpt>
      <trkpt lat="41.28526967950165271759033203125" lon="-2.47596390545368194580078125">
        <ele>1059.4000244140625</ele>
        <time>2019-07-07T15:08:55.000Z</time>
      </trkpt>
      <trkpt lat="41.285821460187435150146484375" lon="-2.475961558520793914794921875">
        <ele>1060</ele>
        <time>2019-07-07T15:08:57.000Z</time>
      </trkpt>
      <trkpt lat="41.28609932027757167816162109375" lon="-2.47596482746303081512451171875">
        <ele>1060.5999755859375</ele>
        <time>2019-07-07T15:08:58.000Z</time>
      </trkpt>
      <trkpt lat="41.2866547890007495880126953125" lon="-2.47597723267972469329833984375">
        <ele>1061.199951171875</ele>
        <time>2019-07-07T15:08:59.000Z</time>
      </trkpt>
      <trkpt lat="41.2869317270815372467041015625" lon="-2.4759865365922451019287109375">
        <ele>1062.4000244140625</ele>
        <time>2019-07-07T15:09:00.000Z</time>
      </trkpt>
      <trkpt lat="41.28720774315297603607177734375" lon="-2.47599550522863864898681640625">
        <ele>1063.800048828125</ele>
        <time>2019-07-07T15:09:01.000Z</time>
      </trkpt>
      <trkpt lat="41.28748476505279541015625" lon="-2.47600615024566650390625">
        <ele>1065.4000244140625</ele>
        <time>2019-07-07T15:09:02.000Z</time>
      </trkpt>
      <trkpt lat="41.28748476505279541015625" lon="-2.47600615024566650390625">
        <ele>1067</ele>
        <time>2019-07-07T15:09:03.000Z</time>
      </trkpt>
      <trkpt lat="41.28832538612186908721923828125" lon="-2.47603707946836948394775390625">
        <ele>1067</ele>
        <time>2019-07-07T15:09:05.000Z</time>
      </trkpt>
      <trkpt lat="41.28832538612186908721923828125" lon="-2.47603707946836948394775390625">
        <ele>1066</ele>
        <time>2019-07-07T15:09:06.000Z</time>
      </trkpt>
      <trkpt lat="41.28860802389681339263916015625" lon="-2.47605099342763423919677734375">
        <ele>1062.199951171875</ele>
        <time>2019-07-07T15:09:07.000Z</time>
      </trkpt>
      <trkpt lat="41.28889024257659912109375" lon="-2.47607027180492877960205078125">
        <ele>1056.199951171875</ele>
        <time>2019-07-07T15:09:08.000Z</time>
      </trkpt>
      <trkpt lat="41.28917254507541656494140625" lon="-2.4760934896767139434814453125">
        <ele>1052.4000244140625</ele>
        <time>2019-07-07T15:09:09.000Z</time>
      </trkpt>
      <trkpt lat="41.28945560194551944732666015625" lon="-2.47611721046268939971923828125">
        <ele>1050.4000244140625</ele>
        <time>2019-07-07T15:09:10.000Z</time>
      </trkpt>
      <trkpt lat="41.2900223024189472198486328125" lon="-2.4761632271111011505126953125">
        <ele>1051.4000244140625</ele>
        <time>2019-07-07T15:09:12.000Z</time>
      </trkpt>
      <trkpt lat="41.2903059460222721099853515625" lon="-2.47618577443063259124755859375">
        <ele>1053.5999755859375</ele>
        <time>2019-07-07T15:09:13.000Z</time>
      </trkpt>
      <trkpt lat="41.29058950580656528472900390625" lon="-2.47620890848338603973388671875">
        <ele>1056.5999755859375</ele>
        <time>2019-07-07T15:09:14.000Z</time>
      </trkpt>
      <trkpt lat="41.2908732332289218902587890625" lon="-2.47623455710709095001220703125">
        <ele>1059.800048828125</ele>
        <time>2019-07-07T15:09:15.000Z</time>
      </trkpt>
      <trkpt lat="41.29115696065127849578857421875" lon="-2.4762631393969058990478515625">
        <ele>1064</ele>
        <time>2019-07-07T15:09:16.000Z</time>
      </trkpt>
      <trkpt lat="41.29144093953073024749755859375" lon="-2.47629339806735515594482421875">
        <ele>1068.4000244140625</ele>
        <time>2019-07-07T15:09:17.000Z</time>
      </trkpt>
      <trkpt lat="41.2917244993150234222412109375" lon="-2.47632256709039211273193359375">
        <ele>1072</ele>
        <time>2019-07-07T15:09:18.000Z</time>
      </trkpt>
      <trkpt lat="41.2920084781944751739501953125" lon="-2.476353161036968231201171875">
        <ele>1075.800048828125</ele>
        <time>2019-07-07T15:09:19.000Z</time>
      </trkpt>
      <trkpt lat="41.29229187034070491790771484375" lon="-2.47638626955449581146240234375">
        <ele>1078.800048828125</ele>
        <time>2019-07-07T15:09:20.000Z</time>
      </trkpt>
      <trkpt lat="41.29257467575371265411376953125" lon="-2.47642122209072113037109375">
        <ele>1081.4000244140625</ele>
        <time>2019-07-07T15:09:21.000Z</time>
      </trkpt>
      <trkpt lat="41.29285647533833980560302734375" lon="-2.47645768336951732635498046875">
        <ele>1083.800048828125</ele>
        <time>2019-07-07T15:09:22.000Z</time>
      </trkpt>
      <trkpt lat="41.2931373529136180877685546875" lon="-2.476496659219264984130859375">
        <ele>1085.5999755859375</ele>
        <time>2019-07-07T15:09:23.000Z</time>
      </trkpt>
      <trkpt lat="41.293691731989383697509765625" lon="-2.4765850044786930084228515625">
        <ele>1087</ele>
        <time>2019-07-07T15:09:25.000Z</time>
      </trkpt>
      <trkpt lat="41.29424083046615123748779296875" lon="-2.47667980380356311798095703125">
        <ele>1088.800048828125</ele>
        <time>2019-07-07T15:09:27.000Z</time>
      </trkpt>
      <trkpt lat="41.29478800110518932342529296875" lon="-2.47678197920322418212890625">
        <ele>1089.4000244140625</ele>
        <time>2019-07-07T15:09:29.000Z</time>
      </trkpt>
      <trkpt lat="41.29506208933889865875244140625" lon="-2.4768391437828540802001953125">
        <ele>1090.4000244140625</ele>
        <time>2019-07-07T15:09:30.000Z</time>
      </trkpt>
      <trkpt lat="41.29533617757260799407958984375" lon="-2.47690125368535518646240234375">
        <ele>1091.800048828125</ele>
        <time>2019-07-07T15:09:31.000Z</time>
      </trkpt>
      <trkpt lat="41.29560993053019046783447265625" lon="-2.476968728005886077880859375">
        <ele>1093</ele>
        <time>2019-07-07T15:09:32.000Z</time>
      </trkpt>
      <trkpt lat="41.29615576006472110748291015625" lon="-2.47712194919586181640625">
        <ele>1096</ele>
        <time>2019-07-07T15:09:34.000Z</time>
      </trkpt>
      <trkpt lat="41.2964285910129547119140625" lon="-2.47720576822757720947265625">
        <ele>1099</ele>
        <time>2019-07-07T15:09:35.000Z</time>
      </trkpt>
      <trkpt lat="41.29670226015150547027587890625" lon="-2.47729235328733921051025390625">
        <ele>1102.199951171875</ele>
        <time>2019-07-07T15:09:36.000Z</time>
      </trkpt>
      <trkpt lat="41.296976096928119659423828125" lon="-2.47738120146095752716064453125">
        <ele>1103.800048828125</ele>
        <time>2019-07-07T15:09:37.000Z</time>
      </trkpt>
      <trkpt lat="41.297251023352146148681640625" lon="-2.4774711392819881439208984375">
        <ele>1105.199951171875</ele>
        <time>2019-07-07T15:09:38.000Z</time>
      </trkpt>
      <trkpt lat="41.2978057377040386199951171875" lon="-2.47765026055276393890380859375">
        <ele>1106.4000244140625</ele>
        <time>2019-07-07T15:09:40.000Z</time>
      </trkpt>
      <trkpt lat="41.29836522974073886871337890625" lon="-2.47783399187028408050537109375">
        <ele>1108</ele>
        <time>2019-07-07T15:09:42.000Z</time>
      </trkpt>
      <trkpt lat="41.2989275716245174407958984375" lon="-2.47802560217678546905517578125">
        <ele>1108.5999755859375</ele>
        <time>2019-07-07T15:09:44.000Z</time>
      </trkpt>
      <trkpt lat="41.29949460737407207489013671875" lon="-2.478218637406826019287109375">
        <ele>1108.800048828125</ele>
        <time>2019-07-07T15:09:46.000Z</time>
      </trkpt>
      <trkpt lat="41.30006407387554645538330078125" lon="-2.47841401956975460052490234375">
        <ele>1108.800048828125</ele>
        <time>2019-07-07T15:09:48.000Z</time>
      </trkpt>
      <trkpt lat="41.300350315868854522705078125" lon="-2.478511333465576171875">
        <ele>1109.199951171875</ele>
        <time>2019-07-07T15:09:49.000Z</time>
      </trkpt>
      <trkpt lat="41.30092372186481952667236328125" lon="-2.47870839200913906097412109375">
        <ele>1110</ele>
        <time>2019-07-07T15:09:51.000Z</time>
      </trkpt>
      <trkpt lat="41.3012101314961910247802734375" lon="-2.47880713082849979400634765625">
        <ele>1110.5999755859375</ele>
        <time>2019-07-07T15:09:52.000Z</time>
      </trkpt>
      <trkpt lat="41.3017834536731243133544921875" lon="-2.47900594957172870635986328125">
        <ele>1111.5999755859375</ele>
        <time>2019-07-07T15:09:54.000Z</time>
      </trkpt>
      <trkpt lat="41.30207103677093982696533203125" lon="-2.479105778038501739501953125">
        <ele>1112</ele>
        <time>2019-07-07T15:09:55.000Z</time>
      </trkpt>
      <trkpt lat="41.3026494719088077545166015625" lon="-2.479302920401096343994140625">
        <ele>1112.800048828125</ele>
        <time>2019-07-07T15:09:57.000Z</time>
      </trkpt>
      <trkpt lat="41.30294057540595531463623046875" lon="-2.4794009886682033538818359375">
        <ele>1113.199951171875</ele>
        <time>2019-07-07T15:09:58.000Z</time>
      </trkpt>
      <trkpt lat="41.3035257160663604736328125" lon="-2.47959536500275135040283203125">
        <ele>1113.4000244140625</ele>
        <time>2019-07-07T15:10:00.000Z</time>
      </trkpt>
      <trkpt lat="41.30410532467067241668701171875" lon="-2.47979418374598026275634765625">
        <ele>1114.5999755859375</ele>
        <time>2019-07-07T15:10:02.000Z</time>
      </trkpt>
      <trkpt lat="41.3043942488729953765869140625" lon="-2.4798945151269435882568359375">
        <ele>1116.800048828125</ele>
        <time>2019-07-07T15:10:03.000Z</time>
      </trkpt>
      <trkpt lat="41.30468308925628662109375" lon="-2.47999400831758975982666015625">
        <ele>1118.199951171875</ele>
        <time>2019-07-07T15:10:04.000Z</time>
      </trkpt>
      <trkpt lat="41.305261440575122833251953125" lon="-2.480193413794040679931640625">
        <ele>1119</ele>
        <time>2019-07-07T15:10:06.000Z</time>
      </trkpt>
      <trkpt lat="41.30555036477744579315185546875" lon="-2.480293326079845428466796875">
        <ele>1119.199951171875</ele>
        <time>2019-07-07T15:10:07.000Z</time>
      </trkpt>
      <trkpt lat="41.305838786065578460693359375" lon="-2.480393238365650177001953125">
        <ele>1117.5999755859375</ele>
        <time>2019-07-07T15:10:08.000Z</time>
      </trkpt>
      <trkpt lat="41.30641671828925609588623046875" lon="-2.48059339821338653564453125">
        <ele>1115</ele>
        <time>2019-07-07T15:10:10.000Z</time>
      </trkpt>
      <trkpt lat="41.30699724890291690826416015625" lon="-2.48078928329050540924072265625">
        <ele>1114.800048828125</ele>
        <time>2019-07-07T15:10:12.000Z</time>
      </trkpt>
      <trkpt lat="41.3075797073543071746826171875" lon="-2.4809851683676242828369140625">
        <ele>1114.4000244140625</ele>
        <time>2019-07-07T15:10:14.000Z</time>
      </trkpt>
      <trkpt lat="41.30787164904177188873291015625" lon="-2.4810870923101902008056640625">
        <ele>1113.5999755859375</ele>
        <time>2019-07-07T15:10:15.000Z</time>
      </trkpt>
      <trkpt lat="41.30816468037664890289306640625" lon="-2.48118926770985126495361328125">
        <ele>1112</ele>
        <time>2019-07-07T15:10:16.000Z</time>
      </trkpt>
      <trkpt lat="41.30875510163605213165283203125" lon="-2.48139194212853908538818359375">
        <ele>1109.5999755859375</ele>
        <time>2019-07-07T15:10:18.000Z</time>
      </trkpt>
      <trkpt lat="41.30905182100832462310791015625" lon="-2.4814921058714389801025390625">
        <ele>1108.5999755859375</ele>
        <time>2019-07-07T15:10:19.000Z</time>
      </trkpt>
      <trkpt lat="41.309350468218326568603515625" lon="-2.48159126378595829010009765625">
        <ele>1107.4000244140625</ele>
        <time>2019-07-07T15:10:20.000Z</time>
      </trkpt>
      <trkpt lat="41.3096490316092967987060546875" lon="-2.4816899187862873077392578125">
        <ele>1106.199951171875</ele>
        <time>2019-07-07T15:10:21.000Z</time>
      </trkpt>
      <trkpt lat="41.31024154834449291229248046875" lon="-2.4818873964250087738037109375">
        <ele>1104</ele>
        <time>2019-07-07T15:10:23.000Z</time>
      </trkpt>
      <trkpt lat="41.31053525023162364959716796875" lon="-2.481984794139862060546875">
        <ele>1101.5999755859375</ele>
        <time>2019-07-07T15:10:24.000Z</time>
      </trkpt>
      <trkpt lat="41.310828030109405517578125" lon="-2.4820771627128124237060546875">
        <ele>1099.4000244140625</ele>
        <time>2019-07-07T15:10:25.000Z</time>
      </trkpt>
      <trkpt lat="41.31111946888267993927001953125" lon="-2.482161819934844970703125">
        <ele>1097.800048828125</ele>
        <time>2019-07-07T15:10:26.000Z</time>
      </trkpt>
      <trkpt lat="41.31170687265694141387939453125" lon="-2.4823001213371753692626953125">
        <ele>1096.4000244140625</ele>
        <time>2019-07-07T15:10:28.000Z</time>
      </trkpt>
      <trkpt lat="41.3122973777353763580322265625" lon="-2.48239852488040924072265625">
        <ele>1095.5999755859375</ele>
        <time>2019-07-07T15:10:30.000Z</time>
      </trkpt>
      <trkpt lat="41.312595270574092864990234375" lon="-2.48243012465536594390869140625">
        <ele>1095</ele>
        <time>2019-07-07T15:10:31.000Z</time>
      </trkpt>
      <trkpt lat="41.3131912238895893096923828125" lon="-2.4824627302587032318115234375">
        <ele>1092.800048828125</ele>
        <time>2019-07-07T15:10:33.000Z</time>
      </trkpt>
      <trkpt lat="41.3134912960231304168701171875" lon="-2.48246231116354465484619140625">
        <ele>1090.5999755859375</ele>
        <time>2019-07-07T15:10:34.000Z</time>
      </trkpt>
      <trkpt lat="41.31379178725183010101318359375" lon="-2.48244990594685077667236328125">
        <ele>1088.4000244140625</ele>
        <time>2019-07-07T15:10:35.000Z</time>
      </trkpt>
      <trkpt lat="41.31409420631825923919677734375" lon="-2.48242400586605072021484375">
        <ele>1085.5999755859375</ele>
        <time>2019-07-07T15:10:36.000Z</time>
      </trkpt>
      <trkpt lat="41.31439729593694210052490234375" lon="-2.48238586820662021636962890625">
        <ele>1083.5999755859375</ele>
        <time>2019-07-07T15:10:37.000Z</time>
      </trkpt>
      <trkpt lat="41.31470172666013240814208984375" lon="-2.48233658261597156524658203125">
        <ele>1081.199951171875</ele>
        <time>2019-07-07T15:10:38.000Z</time>
      </trkpt>
      <trkpt lat="41.31500624120235443115234375" lon="-2.48227707110345363616943359375">
        <ele>1078</ele>
        <time>2019-07-07T15:10:39.000Z</time>
      </trkpt>
      <trkpt lat="41.31530933082103729248046875" lon="-2.48220942914485931396484375">
        <ele>1075.4000244140625</ele>
        <time>2019-07-07T15:10:40.000Z</time>
      </trkpt>
      <trkpt lat="41.31561116315424442291259765625" lon="-2.4821274541318416595458984375">
        <ele>1073.4000244140625</ele>
        <time>2019-07-07T15:10:41.000Z</time>
      </trkpt>
      <trkpt lat="41.3159103132784366607666015625" lon="-2.48203366063535213470458984375">
        <ele>1072</ele>
        <time>2019-07-07T15:10:42.000Z</time>
      </trkpt>
      <trkpt lat="41.31677524186670780181884765625" lon="-2.48169042170047760009765625">
        <ele>1070.4000244140625</ele>
        <time>2019-07-07T15:10:44.000Z</time>
      </trkpt>
      <trkpt lat="41.31733247078955173492431640625" lon="-2.48143183998763561248779296875">
        <ele>1070.5999755859375</ele>
        <time>2019-07-07T15:10:47.000Z</time>
      </trkpt>
      <trkpt lat="41.31788651458919048309326171875" lon="-2.48115808703005313873291015625">
        <ele>1069.4000244140625</ele>
        <time>2019-07-07T15:10:48.000Z</time>
      </trkpt>
      <trkpt lat="41.31788651458919048309326171875" lon="-2.48115808703005313873291015625">
        <ele>1068.5999755859375</ele>
        <time>2019-07-07T15:10:49.000Z</time>
      </trkpt>
      <trkpt lat="41.31843938492238521575927734375" lon="-2.48088919557631015777587890625">
        <ele>1067.199951171875</ele>
        <time>2019-07-07T15:10:50.000Z</time>
      </trkpt>
      <trkpt lat="41.31899929605424404144287109375" lon="-2.4806450307369232177734375">
        <ele>1063.5999755859375</ele>
        <time>2019-07-07T15:10:52.000Z</time>
      </trkpt>
      <trkpt lat="41.31899929605424404144287109375" lon="-2.4806450307369232177734375">
        <ele>1061.5999755859375</ele>
        <time>2019-07-07T15:10:53.000Z</time>
      </trkpt>
      <trkpt lat="41.31956758908927440643310546875" lon="-2.4804383330047130584716796875">
        <ele>1060</ele>
        <time>2019-07-07T15:10:54.000Z</time>
      </trkpt>
      <trkpt lat="41.31985391490161418914794921875" lon="-2.4803491495549678802490234375">
        <ele>1058.5999755859375</ele>
        <time>2019-07-07T15:10:56.000Z</time>
      </trkpt>
      <trkpt lat="41.32014225237071514129638671875" lon="-2.48026885092258453369140625">
        <ele>1057.5999755859375</ele>
        <time>2019-07-07T15:10:57.000Z</time>
      </trkpt>
      <trkpt lat="41.3207238726317882537841796875" lon="-2.48013683594763278961181640625">
        <ele>1056.4000244140625</ele>
        <time>2019-07-07T15:10:59.000Z</time>
      </trkpt>
      <trkpt lat="41.32130943238735198974609375" lon="-2.4800360016524791717529296875">
        <ele>1056.5999755859375</ele>
        <time>2019-07-07T15:11:01.000Z</time>
      </trkpt>
      <trkpt lat="41.3218970037996768951416015625" lon="-2.479979507625102996826171875">
        <ele>1055.5999755859375</ele>
        <time>2019-07-07T15:11:03.000Z</time>
      </trkpt>
      <trkpt lat="41.32219322025775909423828125" lon="-2.4799691140651702880859375">
        <ele>1055.4000244140625</ele>
        <time>2019-07-07T15:11:04.000Z</time>
      </trkpt>
      <trkpt lat="41.322492621839046478271484375" lon="-2.47996735386550426483154296875">
        <ele>1054</ele>
        <time>2019-07-07T15:11:05.000Z</time>
      </trkpt>
      <trkpt lat="41.322790347039699554443359375" lon="-2.47997523285448551177978515625">
        <ele>1050.5999755859375</ele>
        <time>2019-07-07T15:11:06.000Z</time>
      </trkpt>
      <trkpt lat="41.3230905868113040924072265625" lon="-2.4799927510321140289306640625">
        <ele>1047.5999755859375</ele>
        <time>2019-07-07T15:11:07.000Z</time>
      </trkpt>
      <trkpt lat="41.32339124567806720733642578125" lon="-2.48001982457935810089111328125">
        <ele>1045.199951171875</ele>
        <time>2019-07-07T15:11:08.000Z</time>
      </trkpt>
      <trkpt lat="41.32369349710643291473388671875" lon="-2.48005695641040802001953125">
        <ele>1043.800048828125</ele>
        <time>2019-07-07T15:11:09.000Z</time>
      </trkpt>
      <trkpt lat="41.32399675436317920684814453125" lon="-2.48010146431624889373779296875">
        <ele>1042.5999755859375</ele>
        <time>2019-07-07T15:11:10.000Z</time>
      </trkpt>
      <trkpt lat="41.32430185563862323760986328125" lon="-2.48014907352626323699951171875">
        <ele>1041.4000244140625</ele>
        <time>2019-07-07T15:11:11.000Z</time>
      </trkpt>
      <trkpt lat="41.32460745982825756072998046875" lon="-2.48019701801240444183349609375">
        <ele>1039.800048828125</ele>
        <time>2019-07-07T15:11:12.000Z</time>
      </trkpt>
      <trkpt lat="41.3249131478369235992431640625" lon="-2.480244375765323638916015625">
        <ele>1037.800048828125</ele>
        <time>2019-07-07T15:11:13.000Z</time>
      </trkpt>
      <trkpt lat="41.32522084750235080718994140625" lon="-2.48028888367116451263427734375">
        <ele>1036.800048828125</ele>
        <time>2019-07-07T15:11:14.000Z</time>
      </trkpt>
      <trkpt lat="41.32583834230899810791015625" lon="-2.48038125224411487579345703125">
        <ele>1036.199951171875</ele>
        <time>2019-07-07T15:11:16.000Z</time>
      </trkpt>
      <trkpt lat="41.32645885460078716278076171875" lon="-2.48047596774995326995849609375">
        <ele>1038.4000244140625</ele>
        <time>2019-07-07T15:11:18.000Z</time>
      </trkpt>
      <trkpt lat="41.32707995362579822540283203125" lon="-2.48057185672223567962646484375">
        <ele>1039.800048828125</ele>
        <time>2019-07-07T15:11:20.000Z</time>
      </trkpt>
      <trkpt lat="41.3277016393840312957763671875" lon="-2.480665482580661773681640625">
        <ele>1037.800048828125</ele>
        <time>2019-07-07T15:11:22.000Z</time>
      </trkpt>
      <trkpt lat="41.3283239118754863739013671875" lon="-2.48075860552489757537841796875">
        <ele>1036</ele>
        <time>2019-07-07T15:11:24.000Z</time>
      </trkpt>
      <trkpt lat="41.32894509471952915191650390625" lon="-2.48084661550819873809814453125">
        <ele>1034</ele>
        <time>2019-07-07T15:11:26.000Z</time>
      </trkpt>
      <trkpt lat="41.329568289220333099365234375" lon="-2.4809362180531024932861328125">
        <ele>1033.4000244140625</ele>
        <time>2019-07-07T15:11:28.000Z</time>
      </trkpt>
      <trkpt lat="41.329880766570568084716796875" lon="-2.48098231852054595947265625">
        <ele>1032.5999755859375</ele>
        <time>2019-07-07T15:11:29.000Z</time>
      </trkpt>
      <trkpt lat="41.33050915785133838653564453125" lon="-2.48107544146478176116943359375">
        <ele>1032.4000244140625</ele>
        <time>2019-07-07T15:11:31.000Z</time>
      </trkpt>
      <trkpt lat="41.33113838732242584228515625" lon="-2.48116965405642986297607421875">
        <ele>1031.800048828125</ele>
        <time>2019-07-07T15:11:33.000Z</time>
      </trkpt>
      <trkpt lat="41.33145153522491455078125" lon="-2.4812165088951587677001953125">
        <ele>1031</ele>
        <time>2019-07-07T15:11:34.000Z</time>
      </trkpt>
      <trkpt lat="41.33207741193473339080810546875" lon="-2.48130694963037967681884765625">
        <ele>1030.5999755859375</ele>
        <time>2019-07-07T15:11:36.000Z</time>
      </trkpt>
      <trkpt lat="41.33238737471401691436767578125" lon="-2.48135246336460113525390625">
        <ele>1029.5999755859375</ele>
        <time>2019-07-07T15:11:37.000Z</time>
      </trkpt>
      <trkpt lat="41.33300394751131534576416015625" lon="-2.48144139535725116729736328125">
        <ele>1028.5999755859375</ele>
        <time>2019-07-07T15:11:39.000Z</time>
      </trkpt>
      <trkpt lat="41.333615072071552276611328125" lon="-2.4815276451408863067626953125">
        <ele>1028.199951171875</ele>
        <time>2019-07-07T15:11:41.000Z</time>
      </trkpt>
      <trkpt lat="41.33422150276601314544677734375" lon="-2.481608279049396514892578125">
        <ele>1028.199951171875</ele>
        <time>2019-07-07T15:11:43.000Z</time>
      </trkpt>
      <trkpt lat="41.334828771650791168212890625" lon="-2.48167273588478565216064453125">
        <ele>1028.5999755859375</ele>
        <time>2019-07-07T15:11:45.000Z</time>
      </trkpt>
      <trkpt lat="41.33543922565877437591552734375" lon="-2.4817197583615779876708984375">
        <ele>1028.800048828125</ele>
        <time>2019-07-07T15:11:47.000Z</time>
      </trkpt>
      <trkpt lat="41.3360610790550708770751953125" lon="-2.4817420542240142822265625">
        <ele>1028.4000244140625</ele>
        <time>2019-07-07T15:11:48.000Z</time>
      </trkpt>
      <trkpt lat="41.3366912305355072021484375" lon="-2.48175521381199359893798828125">
        <ele>1028.199951171875</ele>
        <time>2019-07-07T15:11:50.000Z</time>
      </trkpt>
      <trkpt lat="41.33700982667505741119384765625" lon="-2.4817566387355327606201171875">
        <ele>1027.199951171875</ele>
        <time>2019-07-07T15:11:51.000Z</time>
      </trkpt>
      <trkpt lat="41.33764785714447498321533203125" lon="-2.48173736035823822021484375">
        <ele>1026.5999755859375</ele>
        <time>2019-07-07T15:11:53.000Z</time>
      </trkpt>
      <trkpt lat="41.33796452544629573822021484375" lon="-2.4817164056003093719482421875">
        <ele>1026</ele>
        <time>2019-07-07T15:11:54.000Z</time>
      </trkpt>
      <trkpt lat="41.33796452544629573822021484375" lon="-2.4817164056003093719482421875">
        <ele>1024.5999755859375</ele>
        <time>2019-07-07T15:11:55.000Z</time>
      </trkpt>
      <trkpt lat="41.33859266526997089385986328125" lon="-2.48165412805974483489990234375">
        <ele>1023.5999755859375</ele>
        <time>2019-07-07T15:11:56.000Z</time>
      </trkpt>
      <trkpt lat="41.33859266526997089385986328125" lon="-2.48165412805974483489990234375">
        <ele>1022</ele>
        <time>2019-07-07T15:11:57.000Z</time>
      </trkpt>
      <trkpt lat="41.33921057917177677154541015625" lon="-2.48156226240098476409912109375">
        <ele>1021</ele>
        <time>2019-07-07T15:11:59.000Z</time>
      </trkpt>
      <trkpt lat="41.33982338011264801025390625" lon="-2.48145447112619876861572265625">
        <ele>1023.4000244140625</ele>
        <time>2019-07-07T15:12:01.000Z</time>
      </trkpt>
      <trkpt lat="41.34043760597705841064453125" lon="-2.48136495240032672882080078125">
        <ele>1023</ele>
        <time>2019-07-07T15:12:03.000Z</time>
      </trkpt>
      <trkpt lat="41.3410526700317859649658203125" lon="-2.48128415085375308990478515625">
        <ele>1022.5999755859375</ele>
        <time>2019-07-07T15:12:04.000Z</time>
      </trkpt>
      <trkpt lat="41.3410526700317859649658203125" lon="-2.48128415085375308990478515625">
        <ele>1020.79998779296875</ele>
        <time>2019-07-07T15:12:05.000Z</time>
      </trkpt>
      <trkpt lat="41.34166614152491092681884765625" lon="-2.48120502568781375885009765625">
        <ele>1018.4000244140625</ele>
        <time>2019-07-07T15:12:06.000Z</time>
      </trkpt>
      <trkpt lat="41.34197090752422809600830078125" lon="-2.48116311617195606231689453125">
        <ele>1016.5999755859375</ele>
        <time>2019-07-07T15:12:07.000Z</time>
      </trkpt>
      <trkpt lat="41.342274248600006103515625" lon="-2.481118105351924896240234375">
        <ele>1015.5999755859375</ele>
        <time>2019-07-07T15:12:08.000Z</time>
      </trkpt>
      <trkpt lat="41.342274248600006103515625" lon="-2.481118105351924896240234375">
        <ele>1014.4000244140625</ele>
        <time>2019-07-07T15:12:09.000Z</time>
      </trkpt>
      <trkpt lat="41.34287062101066112518310546875" lon="-2.4810341186821460723876953125">
        <ele>1012.5999755859375</ele>
        <time>2019-07-07T15:12:11.000Z</time>
      </trkpt>
      <trkpt lat="41.34346171282231807708740234375" lon="-2.48095910064876079559326171875">
        <ele>1012.20001220703125</ele>
        <time>2019-07-07T15:12:12.000Z</time>
      </trkpt>
      <trkpt lat="41.34405565448105335235595703125" lon="-2.480882070958614349365234375">
        <ele>1011.20001220703125</ele>
        <time>2019-07-07T15:12:14.000Z</time>
      </trkpt>
      <trkpt lat="41.34465940296649932861328125" lon="-2.4808021076023578643798828125">
        <ele>1010.4000244140625</ele>
        <time>2019-07-07T15:12:16.000Z</time>
      </trkpt>
      <trkpt lat="41.34527362883090972900390625" lon="-2.48071904294192790985107421875">
        <ele>1011.5999755859375</ele>
        <time>2019-07-07T15:12:18.000Z</time>
      </trkpt>
      <trkpt lat="41.34589598514139652252197265625" lon="-2.48063363134860992431640625">
        <ele>1012.4000244140625</ele>
        <time>2019-07-07T15:12:20.000Z</time>
      </trkpt>
      <trkpt lat="41.34620930068194866180419921875" lon="-2.48059046454727649688720703125">
        <ele>1013.5999755859375</ele>
        <time>2019-07-07T15:12:21.000Z</time>
      </trkpt>
      <trkpt lat="41.34652395732700824737548828125" lon="-2.48054536990821361541748046875">
        <ele>1015.20001220703125</ele>
        <time>2019-07-07T15:12:22.000Z</time>
      </trkpt>
      <trkpt lat="41.34652395732700824737548828125" lon="-2.48054536990821361541748046875">
        <ele>1017.20001220703125</ele>
        <time>2019-07-07T15:12:23.000Z</time>
      </trkpt>
      <trkpt lat="41.3471590541303157806396484375" lon="-2.48045182786881923675537109375">
        <ele>1018.5999755859375</ele>
        <time>2019-07-07T15:12:24.000Z</time>
      </trkpt>
      <trkpt lat="41.3474790751934051513671875" lon="-2.480404637753963470458984375">
        <ele>1019.79998779296875</ele>
        <time>2019-07-07T15:12:25.000Z</time>
      </trkpt>
      <trkpt lat="41.348121464252471923828125" lon="-2.480298690497875213623046875">
        <ele>1020.79998779296875</ele>
        <time>2019-07-07T15:12:27.000Z</time>
      </trkpt>
      <trkpt lat="41.34876309894025325775146484375" lon="-2.4801617302000522613525390625">
        <ele>1022</ele>
        <time>2019-07-07T15:12:29.000Z</time>
      </trkpt>
      <trkpt lat="41.34908010251820087432861328125" lon="-2.48008285649120807647705078125">
        <ele>1023.20001220703125</ele>
        <time>2019-07-07T15:12:30.000Z</time>
      </trkpt>
      <trkpt lat="41.3493983633816242218017578125" lon="-2.4799986183643341064453125">
        <ele>1024.5999755859375</ele>
        <time>2019-07-07T15:12:31.000Z</time>
      </trkpt>
      <trkpt lat="41.3500352203845977783203125" lon="-2.47980885207653045654296875">
        <ele>1025</ele>
        <time>2019-07-07T15:12:33.000Z</time>
      </trkpt>
      <trkpt lat="41.35035448707640171051025390625" lon="-2.4797020666301250457763671875">
        <ele>1025.800048828125</ele>
        <time>2019-07-07T15:12:35.000Z</time>
      </trkpt>
      <trkpt lat="41.35098111815750598907470703125" lon="-2.479470558464527130126953125">
        <ele>1027.4000244140625</ele>
        <time>2019-07-07T15:12:37.000Z</time>
      </trkpt>
      <trkpt lat="41.351601295173168182373046875" lon="-2.47920929454267024993896484375">
        <ele>1028.199951171875</ele>
        <time>2019-07-07T15:12:39.000Z</time>
      </trkpt>
      <trkpt lat="41.35221174918115139007568359375" lon="-2.4789188615977764129638671875">
        <ele>1028.4000244140625</ele>
        <time>2019-07-07T15:12:41.000Z</time>
      </trkpt>
      <trkpt lat="41.35281734168529510498046875" lon="-2.478600852191448211669921875">
        <ele>1027.5999755859375</ele>
        <time>2019-07-07T15:12:43.000Z</time>
      </trkpt>
      <trkpt lat="41.353416480123996734619140625" lon="-2.47825476340949535369873046875">
        <ele>1026.800048828125</ele>
        <time>2019-07-07T15:12:45.000Z</time>
      </trkpt>
      <trkpt lat="41.35400212369859218597412109375" lon="-2.47788813896477222442626953125">
        <ele>1026.5999755859375</ele>
        <time>2019-07-07T15:12:47.000Z</time>
      </trkpt>
      <trkpt lat="41.35428844951093196868896484375" lon="-2.477698288857936859130859375">
        <ele>1025.800048828125</ele>
        <time>2019-07-07T15:12:48.000Z</time>
      </trkpt>
      <trkpt lat="41.354847438633441925048828125" lon="-2.477303333580493927001953125">
        <ele>1025.5999755859375</ele>
        <time>2019-07-07T15:12:49.000Z</time>
      </trkpt>
      <trkpt lat="41.3553894124925136566162109375" lon="-2.4768911115825176239013671875">
        <ele>1026.5999755859375</ele>
        <time>2019-07-07T15:12:51.000Z</time>
      </trkpt>
      <trkpt lat="41.355654783546924591064453125" lon="-2.47667846269905567169189453125">
        <ele>1027</ele>
        <time>2019-07-07T15:12:52.000Z</time>
      </trkpt>
      <trkpt lat="41.35618108324706554412841796875" lon="-2.4762450344860553741455078125">
        <ele>1026.5999755859375</ele>
        <time>2019-07-07T15:12:55.000Z</time>
      </trkpt>
      <trkpt lat="41.35644444264471530914306640625" lon="-2.4760203994810581207275390625">
        <ele>1025</ele>
        <time>2019-07-07T15:12:56.000Z</time>
      </trkpt>
      <trkpt lat="41.35670746676623821258544921875" lon="-2.475794591009616851806640625">
        <ele>1022.4000244140625</ele>
        <time>2019-07-07T15:12:57.000Z</time>
      </trkpt>
      <trkpt lat="41.35696671903133392333984375" lon="-2.47556869871914386749267578125">
        <ele>1021</ele>
        <time>2019-07-07T15:12:58.000Z</time>
      </trkpt>
      <trkpt lat="41.357227899134159088134765625" lon="-2.4753423035144805908203125">
        <ele>1020</ele>
        <time>2019-07-07T15:12:59.000Z</time>
      </trkpt>
      <trkpt lat="41.35775503702461719512939453125" lon="-2.47488222084939479827880859375">
        <ele>1018.4000244140625</ele>
        <time>2019-07-07T15:13:01.000Z</time>
      </trkpt>
      <trkpt lat="41.3582831807434558868408203125" lon="-2.47442272491753101348876953125">
        <ele>1016.4000244140625</ele>
        <time>2019-07-07T15:13:03.000Z</time>
      </trkpt>
      <trkpt lat="41.35854343883693218231201171875" lon="-2.47419708408415317535400390625">
        <ele>1015</ele>
        <time>2019-07-07T15:13:04.000Z</time>
      </trkpt>
      <trkpt lat="41.3587951473891735076904296875" lon="-2.47397948987782001495361328125">
        <ele>1013</ele>
        <time>2019-07-07T15:13:05.000Z</time>
      </trkpt>
      <trkpt lat="41.35904568247497081756591796875" lon="-2.47376323677599430084228515625">
        <ele>1010.79998779296875</ele>
        <time>2019-07-07T15:13:06.000Z</time>
      </trkpt>
      <trkpt lat="41.3592967204749584197998046875" lon="-2.47354857623577117919921875">
        <ele>1009.79998779296875</ele>
        <time>2019-07-07T15:13:07.000Z</time>
      </trkpt>
      <trkpt lat="41.3595485128462314605712890625" lon="-2.4733328260481357574462890625">
        <ele>1008.5999755859375</ele>
        <time>2019-07-07T15:13:08.000Z</time>
      </trkpt>
      <trkpt lat="41.36004991829395294189453125" lon="-2.47289009392261505126953125">
        <ele>1008.4000244140625</ele>
        <time>2019-07-07T15:13:10.000Z</time>
      </trkpt>
      <trkpt lat="41.3605553470551967620849609375" lon="-2.472446858882904052734375">
        <ele>1008.5999755859375</ele>
        <time>2019-07-07T15:13:12.000Z</time>
      </trkpt>
      <trkpt lat="41.36106370948255062103271484375" lon="-2.47201091609895229339599609375">
        <ele>1008.20001220703125</ele>
        <time>2019-07-07T15:13:14.000Z</time>
      </trkpt>
      <trkpt lat="41.3615715689957141876220703125" lon="-2.47157589532434940338134765625">
        <ele>1008</ele>
        <time>2019-07-07T15:13:16.000Z</time>
      </trkpt>
      <trkpt lat="41.3620781712234020233154296875" lon="-2.471143305301666259765625">
        <ele>1008.5999755859375</ele>
        <time>2019-07-07T15:13:18.000Z</time>
      </trkpt>
      <trkpt lat="41.3623323105275630950927734375" lon="-2.4709329195320606231689453125">
        <ele>1010.4000244140625</ele>
        <time>2019-07-07T15:13:19.000Z</time>
      </trkpt>
      <trkpt lat="41.3628446124494075775146484375" lon="-2.47052145190536975860595703125">
        <ele>1010.4000244140625</ele>
        <time>2019-07-07T15:13:21.000Z</time>
      </trkpt>
      <trkpt lat="41.3631034456193447113037109375" lon="-2.4703207053244113922119140625">
        <ele>1008.5999755859375</ele>
        <time>2019-07-07T15:13:22.000Z</time>
      </trkpt>
      <trkpt lat="41.36362924240529537200927734375" lon="-2.46994234621524810791015625">
        <ele>1005</ele>
        <time>2019-07-07T15:13:24.000Z</time>
      </trkpt>
      <trkpt lat="41.36390048079192638397216796875" lon="-2.46976925991475582122802734375">
        <ele>1002.4000244140625</ele>
        <time>2019-07-07T15:13:25.000Z</time>
      </trkpt>
      <trkpt lat="41.36417658068239688873291015625" lon="-2.4696062318980693817138671875">
        <ele>1001.20001220703125</ele>
        <time>2019-07-07T15:13:26.000Z</time>
      </trkpt>
      <trkpt lat="41.3644536025822162628173828125" lon="-2.46945083141326904296875">
        <ele>999.5999755859375</ele>
        <time>2019-07-07T15:13:27.000Z</time>
      </trkpt>
      <trkpt lat="41.3650131784379482269287109375" lon="-2.46915654279291629791259765625">
        <ele>999</ele>
        <time>2019-07-07T15:13:29.000Z</time>
      </trkpt>
      <trkpt lat="41.36587031185626983642578125" lon="-2.468754462897777557373046875">
        <ele>999.79998779296875</ele>
        <time>2019-07-07T15:13:32.000Z</time>
      </trkpt>
      <trkpt lat="41.36674605309963226318359375" lon="-2.4684270657598972320556640625">
        <ele>998.5999755859375</ele>
        <time>2019-07-07T15:13:34.000Z</time>
      </trkpt>
      <trkpt lat="41.36674605309963226318359375" lon="-2.4684270657598972320556640625">
        <ele>997.5999755859375</ele>
        <time>2019-07-07T15:13:35.000Z</time>
      </trkpt>
      <trkpt lat="41.36734175495803356170654296875" lon="-2.4682520516216754913330078125">
        <ele>995.79998779296875</ele>
        <time>2019-07-07T15:13:36.000Z</time>
      </trkpt>
      <trkpt lat="41.36794776655733585357666015625" lon="-2.46810779906809329986572265625">
        <ele>993.20001220703125</ele>
        <time>2019-07-07T15:13:38.000Z</time>
      </trkpt>
      <trkpt lat="41.36856216005980968475341796875" lon="-2.46799715794622898101806640625">
        <ele>993.79998779296875</ele>
        <time>2019-07-07T15:13:41.000Z</time>
      </trkpt>
      <trkpt lat="41.369179151952266693115234375" lon="-2.46792725287377834320068359375">
        <ele>993.4000244140625</ele>
        <time>2019-07-07T15:13:42.000Z</time>
      </trkpt>
      <trkpt lat="41.3697977364063262939453125" lon="-2.4678902886807918548583984375">
        <ele>992.79998779296875</ele>
        <time>2019-07-07T15:13:44.000Z</time>
      </trkpt>
      <trkpt lat="41.37041254900395870208740234375" lon="-2.46786606498062610626220703125">
        <ele>991.79998779296875</ele>
        <time>2019-07-07T15:13:46.000Z</time>
      </trkpt>
      <trkpt lat="41.3707177340984344482421875" lon="-2.46785365976393222808837890625">
        <ele>990.4000244140625</ele>
        <time>2019-07-07T15:13:47.000Z</time>
      </trkpt>
      <trkpt lat="41.37132617644965648651123046875" lon="-2.46782465837895870208740234375">
        <ele>988.5999755859375</ele>
        <time>2019-07-07T15:13:49.000Z</time>
      </trkpt>
      <trkpt lat="41.37162976898252964019775390625" lon="-2.467804290354251861572265625">
        <ele>986.5999755859375</ele>
        <time>2019-07-07T15:13:50.000Z</time>
      </trkpt>
      <trkpt lat="41.371931768953800201416015625" lon="-2.46777688153088092803955078125">
        <ele>985.20001220703125</ele>
        <time>2019-07-07T15:13:51.000Z</time>
      </trkpt>
      <trkpt lat="41.371931768953800201416015625" lon="-2.46777688153088092803955078125">
        <ele>984</ele>
        <time>2019-07-07T15:13:52.000Z</time>
      </trkpt>
      <trkpt lat="41.37253266759216785430908203125" lon="-2.467689625918865203857421875">
        <ele>983.4000244140625</ele>
        <time>2019-07-07T15:13:53.000Z</time>
      </trkpt>
      <trkpt lat="41.37283273972570896148681640625" lon="-2.4676336348056793212890625">
        <ele>983</ele>
        <time>2019-07-07T15:13:54.000Z</time>
      </trkpt>
      <trkpt lat="41.373432464897632598876953125" lon="-2.4674993567168712615966796875">
        <ele>983</ele>
        <time>2019-07-07T15:13:56.000Z</time>
      </trkpt>
      <trkpt lat="41.37402984313666820526123046875" lon="-2.467323504388332366943359375">
        <ele>983</ele>
        <time>2019-07-07T15:13:58.000Z</time>
      </trkpt>
      <trkpt lat="41.37462235987186431884765625" lon="-2.46710951440036296844482421875">
        <ele>982.4000244140625</ele>
        <time>2019-07-07T15:14:01.000Z</time>
      </trkpt>
      <trkpt lat="41.37520976364612579345703125" lon="-2.4668847955763339996337890625">
        <ele>982</ele>
        <time>2019-07-07T15:14:03.000Z</time>
      </trkpt>
      <trkpt lat="41.37607284821569919586181640625" lon="-2.46655513532459735870361328125">
        <ele>980.5999755859375</ele>
        <time>2019-07-07T15:14:05.000Z</time>
      </trkpt>
      <trkpt lat="41.37607284821569919586181640625" lon="-2.46655513532459735870361328125">
        <ele>979.20001220703125</ele>
        <time>2019-07-07T15:14:06.000Z</time>
      </trkpt>
      <trkpt lat="41.376643069088459014892578125" lon="-2.46636453084647655487060546875">
        <ele>977.20001220703125</ele>
        <time>2019-07-07T15:14:07.000Z</time>
      </trkpt>
      <trkpt lat="41.3772155530750751495361328125" lon="-2.46620200574398040771484375">
        <ele>976.79998779296875</ele>
        <time>2019-07-07T15:14:09.000Z</time>
      </trkpt>
      <trkpt lat="41.37779541313648223876953125" lon="-2.4660779535770416259765625">
        <ele>976.20001220703125</ele>
        <time>2019-07-07T15:14:12.000Z</time>
      </trkpt>
      <trkpt lat="41.37838147580623626708984375" lon="-2.46599153615534305572509765625">
        <ele>976</ele>
        <time>2019-07-07T15:14:13.000Z</time>
      </trkpt>
      <trkpt lat="41.37897332198917865753173828125" lon="-2.4659279175102710723876953125">
        <ele>975</ele>
        <time>2019-07-07T15:14:15.000Z</time>
      </trkpt>
      <trkpt lat="41.37927087955176830291748046875" lon="-2.4659062922000885009765625">
        <ele>973.79998779296875</ele>
        <time>2019-07-07T15:14:17.000Z</time>
      </trkpt>
      <trkpt lat="41.3798732869327068328857421875" lon="-2.46589631773531436920166015625">
        <ele>973.5999755859375</ele>
        <time>2019-07-07T15:14:18.000Z</time>
      </trkpt>
      <trkpt lat="41.38048122636973857879638671875" lon="-2.46592833660542964935302734375">
        <ele>974.5999755859375</ele>
        <time>2019-07-07T15:14:21.000Z</time>
      </trkpt>
      <trkpt lat="41.38078616000711917877197265625" lon="-2.46595717035233974456787109375">
        <ele>975</ele>
        <time>2019-07-07T15:14:22.000Z</time>
      </trkpt>
      <trkpt lat="41.38139703311026096343994140625" lon="-2.46603864245116710662841796875">
        <ele>975.4000244140625</ele>
        <time>2019-07-07T15:14:23.000Z</time>
      </trkpt>
      <trkpt lat="41.38200840912759304046630859375" lon="-2.46615615673363208770751953125">
        <ele>974</ele>
        <time>2019-07-07T15:14:26.000Z</time>
      </trkpt>
      <trkpt lat="41.38261509127914905548095703125" lon="-2.4663111381232738494873046875">
        <ele>971.5999755859375</ele>
        <time>2019-07-07T15:14:28.000Z</time>
      </trkpt>
      <trkpt lat="41.38291516341269016265869140625" lon="-2.46640208177268505096435546875">
        <ele>969.20001220703125</ele>
        <time>2019-07-07T15:14:29.000Z</time>
      </trkpt>
      <trkpt lat="41.38321188278496265411376953125" lon="-2.46650299988687038421630859375">
        <ele>966</ele>
        <time>2019-07-07T15:14:30.000Z</time>
      </trkpt>
      <trkpt lat="41.3835043273866176605224609375" lon="-2.46661548502743244171142578125">
        <ele>963.4000244140625</ele>
        <time>2019-07-07T15:14:31.000Z</time>
      </trkpt>
      <trkpt lat="41.38408192433416843414306640625" lon="-2.4668730609118938446044921875">
        <ele>962</ele>
        <time>2019-07-07T15:14:32.000Z</time>
      </trkpt>
      <trkpt lat="41.38436757959425449371337890625" lon="-2.46701471507549285888671875">
        <ele>960.79998779296875</ele>
        <time>2019-07-07T15:14:34.000Z</time>
      </trkpt>
      <trkpt lat="41.3846492953598499298095703125" lon="-2.4671640805900096893310546875">
        <ele>959.79998779296875</ele>
        <time>2019-07-07T15:14:35.000Z</time>
      </trkpt>
      <trkpt lat="41.38518163003027439117431640625" lon="-2.4674678407609462738037109375">
        <ele>961.4000244140625</ele>
        <time>2019-07-07T15:14:37.000Z</time>
      </trkpt>
      <trkpt lat="41.38543576933443546295166015625" lon="-2.467624247074127197265625">
        <ele>962</ele>
        <time>2019-07-07T15:14:38.000Z</time>
      </trkpt>
      <trkpt lat="41.38617840595543384552001953125" lon="-2.46810863725841045379638671875">
        <ele>962.79998779296875</ele>
        <time>2019-07-07T15:14:41.000Z</time>
      </trkpt>
      <trkpt lat="41.38666355051100254058837890625" lon="-2.46844273991882801055908203125">
        <ele>962.79998779296875</ele>
        <time>2019-07-07T15:14:43.000Z</time>
      </trkpt>
      <trkpt lat="41.38714785687625408172607421875" lon="-2.4687735736370086669921875">
        <ele>962.79998779296875</ele>
        <time>2019-07-07T15:14:45.000Z</time>
      </trkpt>
      <trkpt lat="41.3876302354037761688232421875" lon="-2.46908697299659252166748046875">
        <ele>962.20001220703125</ele>
        <time>2019-07-07T15:14:47.000Z</time>
      </trkpt>
      <trkpt lat="41.38787037692964076995849609375" lon="-2.4692397750914096832275390625">
        <ele>961.20001220703125</ele>
        <time>2019-07-07T15:14:48.000Z</time>
      </trkpt>
      <trkpt lat="41.3883504085242748260498046875" lon="-2.46954646892845630645751953125">
        <ele>960.79998779296875</ele>
        <time>2019-07-07T15:14:50.000Z</time>
      </trkpt>
      <trkpt lat="41.3888308592140674591064453125" lon="-2.46985224075615406036376953125">
        <ele>961.20001220703125</ele>
        <time>2019-07-07T15:14:52.000Z</time>
      </trkpt>
      <trkpt lat="41.389320194721221923828125" lon="-2.4701577611267566680908203125">
        <ele>962</ele>
        <time>2019-07-07T15:14:53.000Z</time>
      </trkpt>
      <trkpt lat="41.389571316540241241455078125" lon="-2.47030989266932010650634765625">
        <ele>962.20001220703125</ele>
        <time>2019-07-07T15:14:54.000Z</time>
      </trkpt>
      <trkpt lat="41.390081606805324554443359375" lon="-2.47061960399150848388671875">
        <ele>962.79998779296875</ele>
        <time>2019-07-07T15:14:56.000Z</time>
      </trkpt>
      <trkpt lat="41.39034035615622997283935546875" lon="-2.47077592648565769195556640625">
        <ele>960</ele>
        <time>2019-07-07T15:14:58.000Z</time>
      </trkpt>
      <trkpt lat="41.39086908660829067230224609375" lon="-2.471089661121368408203125">
        <ele>958.5999755859375</ele>
        <time>2019-07-07T15:15:00.000Z</time>
      </trkpt>
      <trkpt lat="41.39141575433313846588134765625" lon="-2.47140222229063510894775390625">
        <ele>959</ele>
        <time>2019-07-07T15:15:02.000Z</time>
      </trkpt>
      <trkpt lat="41.39197432436048984527587890625" lon="-2.47173297218978404998779296875">
        <ele>959.4000244140625</ele>
        <time>2019-07-07T15:15:04.000Z</time>
      </trkpt>
      <trkpt lat="41.3925383426249027252197265625" lon="-2.4720839224755764007568359375">
        <ele>959.79998779296875</ele>
        <time>2019-07-07T15:15:06.000Z</time>
      </trkpt>
      <trkpt lat="41.39310487546026706695556640625" lon="-2.472446858882904052734375">
        <ele>962</ele>
        <time>2019-07-07T15:15:08.000Z</time>
      </trkpt>
      <trkpt lat="41.39338835142552852630615234375" lon="-2.4726324342191219329833984375">
        <ele>964</ele>
        <time>2019-07-07T15:15:09.000Z</time>
      </trkpt>
      <trkpt lat="41.3939525373280048370361328125" lon="-2.47300811111927032470703125">
        <ele>963.79998779296875</ele>
        <time>2019-07-07T15:15:11.000Z</time>
      </trkpt>
      <trkpt lat="41.39450959861278533935546875" lon="-2.4733827821910381317138671875">
        <ele>963.4000244140625</ele>
        <time>2019-07-07T15:15:13.000Z</time>
      </trkpt>
      <trkpt lat="41.394783519208431243896484375" lon="-2.47357045300304889678955078125">
        <ele>962</ele>
        <time>2019-07-07T15:15:14.000Z</time>
      </trkpt>
      <trkpt lat="41.39505366794764995574951171875" lon="-2.473756782710552215576171875">
        <ele>960.5999755859375</ele>
        <time>2019-07-07T15:15:15.000Z</time>
      </trkpt>
      <trkpt lat="41.3953194580972194671630859375" lon="-2.47394143603742122650146484375">
        <ele>959.20001220703125</ele>
        <time>2019-07-07T15:15:16.000Z</time>
      </trkpt>
      <trkpt lat="41.39583804644644260406494140625" lon="-2.47430655173957347869873046875">
        <ele>958</ele>
        <time>2019-07-07T15:15:17.000Z</time>
      </trkpt>
      <trkpt lat="41.396349258720874786376953125" lon="-2.4746578373014926910400390625">
        <ele>957</ele>
        <time>2019-07-07T15:15:20.000Z</time>
      </trkpt>
      <trkpt lat="41.39660515822470188140869140625" lon="-2.47482933104038238525390625">
        <ele>956.79998779296875</ele>
        <time>2019-07-07T15:15:21.000Z</time>
      </trkpt>
      <trkpt lat="41.3971151970326900482177734375" lon="-2.47516955249011516571044921875">
        <ele>956</ele>
        <time>2019-07-07T15:15:23.000Z</time>
      </trkpt>
      <trkpt lat="41.3976274989545345306396484375" lon="-2.4755070917308330535888671875">
        <ele>955.79998779296875</ele>
        <time>2019-07-07T15:15:25.000Z</time>
      </trkpt>
      <trkpt lat="41.39814323745667934417724609375" lon="-2.47584454715251922607421875">
        <ele>956</ele>
        <time>2019-07-07T15:15:27.000Z</time>
      </trkpt>
      <trkpt lat="41.3984023220837116241455078125" lon="-2.4760120175778865814208984375">
        <ele>955</ele>
        <time>2019-07-07T15:15:28.000Z</time>
      </trkpt>
      <trkpt lat="41.3991828449070453643798828125" lon="-2.476512081921100616455078125">
        <ele>954.4000244140625</ele>
        <time>2019-07-07T15:15:30.000Z</time>
      </trkpt>
      <trkpt lat="41.39944477938115596771240234375" lon="-2.47667494229972362518310546875">
        <ele>953.5999755859375</ele>
        <time>2019-07-07T15:15:32.000Z</time>
      </trkpt>
      <trkpt lat="41.39997183345258235931396484375" lon="-2.47700032778084278106689453125">
        <ele>953.20001220703125</ele>
        <time>2019-07-07T15:15:34.000Z</time>
      </trkpt>
      <trkpt lat="41.4005038328468799591064453125" lon="-2.47732244431972503662109375">
        <ele>953.4000244140625</ele>
        <time>2019-07-07T15:15:36.000Z</time>
      </trkpt>
      <trkpt lat="41.4010402746498584747314453125" lon="-2.477634251117706298828125">
        <ele>953.20001220703125</ele>
        <time>2019-07-07T15:15:38.000Z</time>
      </trkpt>
      <trkpt lat="41.401576213538646697998046875" lon="-2.47794111259281635284423828125">
        <ele>952.79998779296875</ele>
        <time>2019-07-07T15:15:40.000Z</time>
      </trkpt>
      <trkpt lat="41.4018452726304531097412109375" lon="-2.47809584252536296844482421875">
        <ele>951.5999755859375</ele>
        <time>2019-07-07T15:15:41.000Z</time>
      </trkpt>
      <trkpt lat="41.4023833908140659332275390625" lon="-2.4784115888178348541259765625">
        <ele>950.5999755859375</ele>
        <time>2019-07-07T15:15:43.000Z</time>
      </trkpt>
      <trkpt lat="41.4029198326170444488525390625" lon="-2.47874141670763492584228515625">
        <ele>951.5999755859375</ele>
        <time>2019-07-07T15:15:45.000Z</time>
      </trkpt>
      <trkpt lat="41.4034559391438961029052734375" lon="-2.479076273739337921142578125">
        <ele>952.4000244140625</ele>
        <time>2019-07-07T15:15:47.000Z</time>
      </trkpt>
      <trkpt lat="41.4039878547191619873046875" lon="-2.47941314242780208587646484375">
        <ele>952</ele>
        <time>2019-07-07T15:15:49.000Z</time>
      </trkpt>
      <trkpt lat="41.40451616607606410980224609375" lon="-2.479758895933628082275390625">
        <ele>951</ele>
        <time>2019-07-07T15:15:51.000Z</time>
      </trkpt>
      <trkpt lat="41.40477919019758701324462890625" lon="-2.47993432916700839996337890625">
        <ele>950.4000244140625</ele>
        <time>2019-07-07T15:15:52.000Z</time>
      </trkpt>
      <trkpt lat="41.40556507743895053863525390625" lon="-2.4804658256471157073974609375">
        <ele>951.20001220703125</ele>
        <time>2019-07-07T15:15:54.000Z</time>
      </trkpt>
      <trkpt lat="41.40582743100821971893310546875" lon="-2.48064729385077953338623046875">
        <ele>952.5999755859375</ele>
        <time>2019-07-07T15:15:55.000Z</time>
      </trkpt>
      <trkpt lat="41.40609045512974262237548828125" lon="-2.48083169572055339813232421875">
        <ele>954.20001220703125</ele>
        <time>2019-07-07T15:15:56.000Z</time>
      </trkpt>
      <trkpt lat="41.4063554070889949798583984375" lon="-2.4810207076370716094970703125">
        <ele>955.5999755859375</ele>
        <time>2019-07-07T15:15:57.000Z</time>
      </trkpt>
      <trkpt lat="41.40662136487662792205810546875" lon="-2.4812109768390655517578125">
        <ele>957</ele>
        <time>2019-07-07T15:15:59.000Z</time>
      </trkpt>
      <trkpt lat="41.4074192382395267486572265625" lon="-2.4818049184978008270263671875">
        <ele>957.20001220703125</ele>
        <time>2019-07-07T15:16:01.000Z</time>
      </trkpt>
      <trkpt lat="41.4074192382395267486572265625" lon="-2.4818049184978008270263671875">
        <ele>954</ele>
        <time>2019-07-07T15:16:02.000Z</time>
      </trkpt>
      <trkpt lat="41.40768586657941341400146484375" lon="-2.4820017255842685699462890625">
        <ele>948.4000244140625</ele>
        <time>2019-07-07T15:16:03.000Z</time>
      </trkpt>
      <trkpt lat="41.40795283019542694091796875" lon="-2.4821951799094676971435546875">
        <ele>942</ele>
        <time>2019-07-07T15:16:04.000Z</time>
      </trkpt>
      <trkpt lat="41.408219039440155029296875" lon="-2.4823882989585399627685546875">
        <ele>937.79998779296875</ele>
        <time>2019-07-07T15:16:05.000Z</time>
      </trkpt>
      <trkpt lat="41.40848550014197826385498046875" lon="-2.48257915489375591278076171875">
        <ele>934.4000244140625</ele>
        <time>2019-07-07T15:16:06.000Z</time>
      </trkpt>
      <trkpt lat="41.4087529666721820831298828125" lon="-2.48276774771511554718017578125">
        <ele>931.20001220703125</ele>
        <time>2019-07-07T15:16:07.000Z</time>
      </trkpt>
      <trkpt lat="41.40929049812257289886474609375" lon="-2.48314375989139080047607421875">
        <ele>928.4000244140625</ele>
        <time>2019-07-07T15:16:08.000Z</time>
      </trkpt>
      <trkpt lat="41.40929049812257289886474609375" lon="-2.48314375989139080047607421875">
        <ele>926</ele>
        <time>2019-07-07T15:16:09.000Z</time>
      </trkpt>
      <trkpt lat="41.40955972485244274139404296875" lon="-2.4833304248750209808349609375">
        <ele>924.79998779296875</ele>
        <time>2019-07-07T15:16:10.000Z</time>
      </trkpt>
      <trkpt lat="41.4103589393198490142822265625" lon="-2.48387348838150501251220703125">
        <ele>924.79998779296875</ele>
        <time>2019-07-07T15:16:13.000Z</time>
      </trkpt>
      <trkpt lat="41.41088255681097507476806640625" lon="-2.48421597294509410858154296875">
        <ele>924.79998779296875</ele>
        <time>2019-07-07T15:16:14.000Z</time>
      </trkpt>
      <trkpt lat="41.41114491038024425506591796875" lon="-2.4843813478946685791015625">
        <ele>928.20001220703125</ele>
        <time>2019-07-07T15:16:16.000Z</time>
      </trkpt>
      <trkpt lat="41.4116651751101016998291015625" lon="-2.48470597900450229644775390625">
        <ele>931.79998779296875</ele>
        <time>2019-07-07T15:16:17.000Z</time>
      </trkpt>
      <trkpt lat="41.4119263552129268646240234375" lon="-2.484865151345729827880859375">
        <ele>933.4000244140625</ele>
        <time>2019-07-07T15:16:18.000Z</time>
      </trkpt>
      <trkpt lat="41.4119263552129268646240234375" lon="-2.484865151345729827880859375">
        <ele>935</ele>
        <time>2019-07-07T15:16:19.000Z</time>
      </trkpt>
      <trkpt lat="41.41245282255113124847412109375" lon="-2.485181652009487152099609375">
        <ele>936.20001220703125</ele>
        <time>2019-07-07T15:16:21.000Z</time>
      </trkpt>
      <trkpt lat="41.4132439903914928436279296875" lon="-2.48566352762281894683837890625">
        <ele>934</ele>
        <time>2019-07-07T15:16:23.000Z</time>
      </trkpt>
      <trkpt lat="41.4132439903914928436279296875" lon="-2.48566352762281894683837890625">
        <ele>931.20001220703125</ele>
        <time>2019-07-07T15:16:24.000Z</time>
      </trkpt>
      <trkpt lat="41.41350927762687206268310546875" lon="-2.4858218617737293243408203125">
        <ele>928</ele>
        <time>2019-07-07T15:16:25.000Z</time>
      </trkpt>
      <trkpt lat="41.4137770794332027435302734375" lon="-2.4859781004488468170166015625">
        <ele>925.4000244140625</ele>
        <time>2019-07-07T15:16:26.000Z</time>
      </trkpt>
      <trkpt lat="41.41404655762016773223876953125" lon="-2.4861326627433300018310546875">
        <ele>924</ele>
        <time>2019-07-07T15:16:27.000Z</time>
      </trkpt>
      <trkpt lat="41.414587609469890594482421875" lon="-2.4864387698471546173095703125">
        <ele>922.5999755859375</ele>
        <time>2019-07-07T15:16:29.000Z</time>
      </trkpt>
      <trkpt lat="41.41512882895767688751220703125" lon="-2.486732639372348785400390625">
        <ele>922.5999755859375</ele>
        <time>2019-07-07T15:16:31.000Z</time>
      </trkpt>
      <trkpt lat="41.415662504732608795166015625" lon="-2.48701854608952999114990234375">
        <ele>923.5999755859375</ele>
        <time>2019-07-07T15:16:33.000Z</time>
      </trkpt>
      <trkpt lat="41.41619366593658924102783203125" lon="-2.4872915446758270263671875">
        <ele>923</ele>
        <time>2019-07-07T15:16:35.000Z</time>
      </trkpt>
      <trkpt lat="41.4167275093495845794677734375" lon="-2.4875636212527751922607421875">
        <ele>924</ele>
        <time>2019-07-07T15:16:37.000Z</time>
      </trkpt>
      <trkpt lat="41.4172594249248504638671875" lon="-2.48782823793590068817138671875">
        <ele>924.20001220703125</ele>
        <time>2019-07-07T15:16:39.000Z</time>
      </trkpt>
      <trkpt lat="41.41752672381699085235595703125" lon="-2.48795731924474239349365234375">
        <ele>925.4000244140625</ele>
        <time>2019-07-07T15:16:40.000Z</time>
      </trkpt>
      <trkpt lat="41.418064422905445098876953125" lon="-2.48820953071117401123046875">
        <ele>926.20001220703125</ele>
        <time>2019-07-07T15:16:42.000Z</time>
      </trkpt>
      <trkpt lat="41.41833457164466381072998046875" lon="-2.48833618126809597015380859375">
        <ele>927.5999755859375</ele>
        <time>2019-07-07T15:16:43.000Z</time>
      </trkpt>
      <trkpt lat="41.4186047203838825225830078125" lon="-2.48846408911049365997314453125">
        <ele>929.79998779296875</ele>
        <time>2019-07-07T15:16:44.000Z</time>
      </trkpt>
      <trkpt lat="41.418875120580196380615234375" lon="-2.48859300278127193450927734375">
        <ele>932</ele>
        <time>2019-07-07T15:16:45.000Z</time>
      </trkpt>
      <trkpt lat="41.41914174892008304595947265625" lon="-2.48872258700430393218994140625">
        <ele>934</ele>
        <time>2019-07-07T15:16:46.000Z</time>
      </trkpt>
      <trkpt lat="41.4194046892225742340087890625" lon="-2.4888507463037967681884765625">
        <ele>935.4000244140625</ele>
        <time>2019-07-07T15:16:47.000Z</time>
      </trkpt>
      <trkpt lat="41.41966469585895538330078125" lon="-2.4889781512320041656494140625">
        <ele>936.5999755859375</ele>
        <time>2019-07-07T15:16:48.000Z</time>
      </trkpt>
      <trkpt lat="41.41992428340017795562744140625" lon="-2.4891047179698944091796875">
        <ele>937.5999755859375</ele>
        <time>2019-07-07T15:16:49.000Z</time>
      </trkpt>
      <trkpt lat="41.420444548130035400390625" lon="-2.48936346732079982757568359375">
        <ele>937.79998779296875</ele>
        <time>2019-07-07T15:16:51.000Z</time>
      </trkpt>
      <trkpt lat="41.4212312735617160797119140625" lon="-2.4897673912346363067626953125">
        <ele>936.4000244140625</ele>
        <time>2019-07-07T15:16:53.000Z</time>
      </trkpt>
      <trkpt lat="41.42149555496871471405029296875" lon="-2.4899048544466495513916015625">
        <ele>935.20001220703125</ele>
        <time>2019-07-07T15:16:55.000Z</time>
      </trkpt>
      <trkpt lat="41.42202713526785373687744140625" lon="-2.49019025824964046478271484375">
        <ele>933.79998779296875</ele>
        <time>2019-07-07T15:16:57.000Z</time>
      </trkpt>
      <trkpt lat="41.422563828527927398681640625" lon="-2.490490414202213287353515625">
        <ele>933.5999755859375</ele>
        <time>2019-07-07T15:16:59.000Z</time>
      </trkpt>
      <trkpt lat="41.423108316957950592041015625" lon="-2.490803562104701995849609375">
        <ele>932.79998779296875</ele>
        <time>2019-07-07T15:17:01.000Z</time>
      </trkpt>
      <trkpt lat="41.423663534224033355712890625" lon="-2.49112911522388458251953125">
        <ele>931.4000244140625</ele>
        <time>2019-07-07T15:17:03.000Z</time>
      </trkpt>
      <trkpt lat="41.42422579228878021240234375" lon="-2.4914742819964885711669921875">
        <ele>932.79998779296875</ele>
        <time>2019-07-07T15:17:05.000Z</time>
      </trkpt>
      <trkpt lat="41.42479299567639827728271484375" lon="-2.4918370507657527923583984375">
        <ele>933</ele>
        <time>2019-07-07T15:17:07.000Z</time>
      </trkpt>
      <trkpt lat="41.42565934918820858001708984375" lon="-2.49238749034702777862548828125">
        <ele>932.4000244140625</ele>
        <time>2019-07-07T15:17:09.000Z</time>
      </trkpt>
      <trkpt lat="41.42565934918820858001708984375" lon="-2.49238749034702777862548828125">
        <ele>934.5999755859375</ele>
        <time>2019-07-07T15:17:10.000Z</time>
      </trkpt>
      <trkpt lat="41.42624289728701114654541015625" lon="-2.49276132322847843170166015625">
        <ele>934.5999755859375</ele>
        <time>2019-07-07T15:17:11.000Z</time>
      </trkpt>
      <trkpt lat="41.427101790904998779296875" lon="-2.4933417700231075286865234375">
        <ele>935</ele>
        <time>2019-07-07T15:17:14.000Z</time>
      </trkpt>
      <trkpt lat="41.4276695810258388519287109375" lon="-2.493712417781352996826171875">
        <ele>934.79998779296875</ele>
        <time>2019-07-07T15:17:16.000Z</time>
      </trkpt>
      <trkpt lat="41.42823929898440837860107421875" lon="-2.4940612725913524627685546875">
        <ele>933</ele>
        <time>2019-07-07T15:17:18.000Z</time>
      </trkpt>
      <trkpt lat="41.428524367511272430419921875" lon="-2.494230754673480987548828125">
        <ele>931.4000244140625</ele>
        <time>2019-07-07T15:17:20.000Z</time>
      </trkpt>
      <trkpt lat="41.42909224145114421844482421875" lon="-2.4945672042667865753173828125">
        <ele>931.5999755859375</ele>
        <time>2019-07-07T15:17:22.000Z</time>
      </trkpt>
      <trkpt lat="41.429374627768993377685546875" lon="-2.49473693780601024627685546875">
        <ele>932.5999755859375</ele>
        <time>2019-07-07T15:17:23.000Z</time>
      </trkpt>
      <trkpt lat="41.4296567626297473907470703125" lon="-2.4949078448116779327392578125">
        <ele>934.5999755859375</ele>
        <time>2019-07-07T15:17:24.000Z</time>
      </trkpt>
      <trkpt lat="41.42993931658565998077392578125" lon="-2.49507724307477474212646484375">
        <ele>935.79998779296875</ele>
        <time>2019-07-07T15:17:25.000Z</time>
      </trkpt>
      <trkpt lat="41.4305068552494049072265625" lon="-2.495406232774257659912109375">
        <ele>936.4000244140625</ele>
        <time>2019-07-07T15:17:27.000Z</time>
      </trkpt>
      <trkpt lat="41.43107640556991100311279296875" lon="-2.49572901986539363861083984375">
        <ele>936.5999755859375</ele>
        <time>2019-07-07T15:17:29.000Z</time>
      </trkpt>
      <trkpt lat="41.4313629828393459320068359375" lon="-2.495891042053699493408203125">
        <ele>937.20001220703125</ele>
        <time>2019-07-07T15:17:30.000Z</time>
      </trkpt>
      <trkpt lat="41.43194309435784816741943359375" lon="-2.49621056020259857177734375">
        <ele>937.4000244140625</ele>
        <time>2019-07-07T15:17:32.000Z</time>
      </trkpt>
      <trkpt lat="41.4325300790369510650634765625" lon="-2.49652463011443614959716796875">
        <ele>937.4000244140625</ele>
        <time>2019-07-07T15:17:34.000Z</time>
      </trkpt>
      <trkpt lat="41.4331168122589588165283203125" lon="-2.4968428909778594970703125">
        <ele>936.4000244140625</ele>
        <time>2019-07-07T15:17:36.000Z</time>
      </trkpt>
      <trkpt lat="41.4334095083177089691162109375" lon="-2.49701119959354400634765625">
        <ele>935.20001220703125</ele>
        <time>2019-07-07T15:17:37.000Z</time>
      </trkpt>
      <trkpt lat="41.4337052218616008758544921875" lon="-2.4971833638846874237060546875">
        <ele>934</ele>
        <time>2019-07-07T15:17:38.000Z</time>
      </trkpt>
      <trkpt lat="41.43430176191031932830810546875" lon="-2.497531212866306304931640625">
        <ele>932.4000244140625</ele>
        <time>2019-07-07T15:17:40.000Z</time>
      </trkpt>
      <trkpt lat="41.43459965474903583526611328125" lon="-2.49770781956613063812255859375">
        <ele>931</ele>
        <time>2019-07-07T15:17:41.000Z</time>
      </trkpt>
      <trkpt lat="41.4351710490882396697998046875" lon="-2.49805432744324207305908203125">
        <ele>930</ele>
        <time>2019-07-07T15:17:42.000Z</time>
      </trkpt>
      <trkpt lat="41.43598719500005245208740234375" lon="-2.49857400543987751007080078125">
        <ele>929</ele>
        <time>2019-07-07T15:17:45.000Z</time>
      </trkpt>
      <trkpt lat="41.436527073383331298828125" lon="-2.4989264644682407379150390625">
        <ele>932.20001220703125</ele>
        <time>2019-07-07T15:17:48.000Z</time>
      </trkpt>
      <trkpt lat="41.43679487518966197967529296875" lon="-2.4991068430244922637939453125">
        <ele>933.79998779296875</ele>
        <time>2019-07-07T15:17:49.000Z</time>
      </trkpt>
      <trkpt lat="41.43733165226876735687255859375" lon="-2.4994712881743907928466796875">
        <ele>934.5999755859375</ele>
        <time>2019-07-07T15:17:51.000Z</time>
      </trkpt>
      <trkpt lat="41.437600962817668914794921875" lon="-2.49965426512062549591064453125">
        <ele>934.79998779296875</ele>
        <time>2019-07-07T15:17:52.000Z</time>
      </trkpt>
      <trkpt lat="41.43813849426805973052978515625" lon="-2.50002625398337841033935546875">
        <ele>934</ele>
        <time>2019-07-07T15:17:54.000Z</time>
      </trkpt>
      <trkpt lat="41.43867527134716510772705078125" lon="-2.5004075467586517333984375">
        <ele>933.5999755859375</ele>
        <time>2019-07-07T15:17:56.000Z</time>
      </trkpt>
      <trkpt lat="41.43921355716884136199951171875" lon="-2.5007946230471134185791015625">
        <ele>933</ele>
        <time>2019-07-07T15:17:58.000Z</time>
      </trkpt>
      <trkpt lat="41.439748741686344146728515625" lon="-2.50119016505777835845947265625">
        <ele>932.20001220703125</ele>
        <time>2019-07-07T15:17:59.000Z</time>
      </trkpt>
      <trkpt lat="41.44028409384191036224365234375" lon="-2.50159048475325107574462890625">
        <ele>930</ele>
        <time>2019-07-07T15:18:01.000Z</time>
      </trkpt>
      <trkpt lat="41.44055147655308246612548828125" lon="-2.501791231334209442138671875">
        <ele>926.5999755859375</ele>
        <time>2019-07-07T15:18:02.000Z</time>
      </trkpt>
      <trkpt lat="41.44081818871200084686279296875" lon="-2.5019925646483898162841796875">
        <ele>920.4000244140625</ele>
        <time>2019-07-07T15:18:03.000Z</time>
      </trkpt>
      <trkpt lat="41.441083140671253204345703125" lon="-2.50219616107642650604248046875">
        <ele>916.4000244140625</ele>
        <time>2019-07-07T15:18:04.000Z</time>
      </trkpt>
      <trkpt lat="41.44134557805955410003662109375" lon="-2.5024039484560489654541015625">
        <ele>913.20001220703125</ele>
        <time>2019-07-07T15:18:05.000Z</time>
      </trkpt>
      <trkpt lat="41.44134557805955410003662109375" lon="-2.5024039484560489654541015625">
        <ele>911.5999755859375</ele>
        <time>2019-07-07T15:18:06.000Z</time>
      </trkpt>
      <trkpt lat="41.44186592660844326019287109375" lon="-2.5028270669281482696533203125">
        <ele>915.5999755859375</ele>
        <time>2019-07-07T15:18:07.000Z</time>
      </trkpt>
      <trkpt lat="41.44186592660844326019287109375" lon="-2.5028270669281482696533203125">
        <ele>921.5999755859375</ele>
        <time>2019-07-07T15:18:08.000Z</time>
      </trkpt>
      <trkpt lat="41.4421250112354755401611328125" lon="-2.50303988344967365264892578125">
        <ele>930.20001220703125</ele>
        <time>2019-07-07T15:18:09.000Z</time>
      </trkpt>
      <trkpt lat="41.44238325767219066619873046875" lon="-2.50325529836118221282958984375">
        <ele>935.5999755859375</ele>
        <time>2019-07-07T15:18:10.000Z</time>
      </trkpt>
      <trkpt lat="41.4428974874317646026611328125" lon="-2.50369065441191196441650390625">
        <ele>938.4000244140625</ele>
        <time>2019-07-07T15:18:11.000Z</time>
      </trkpt>
      <trkpt lat="41.4428974874317646026611328125" lon="-2.50369065441191196441650390625">
        <ele>939.5999755859375</ele>
        <time>2019-07-07T15:18:12.000Z</time>
      </trkpt>
      <trkpt lat="41.44341356121003627777099609375" lon="-2.5041265971958637237548828125">
        <ele>940.20001220703125</ele>
        <time>2019-07-07T15:18:13.000Z</time>
      </trkpt>
      <trkpt lat="41.4436739869415760040283203125" lon="-2.50434393994510173797607421875">
        <ele>940.5999755859375</ele>
        <time>2019-07-07T15:18:14.000Z</time>
      </trkpt>
      <trkpt lat="41.444455683231353759765625" lon="-2.50500393100082874298095703125">
        <ele>939.4000244140625</ele>
        <time>2019-07-07T15:18:17.000Z</time>
      </trkpt>
      <trkpt lat="41.444455683231353759765625" lon="-2.50500393100082874298095703125">
        <ele>938</ele>
        <time>2019-07-07T15:18:18.000Z</time>
      </trkpt>
      <trkpt lat="41.44497829489409923553466796875" lon="-2.50544616021215915679931640625">
        <ele>937.79998779296875</ele>
        <time>2019-07-07T15:18:19.000Z</time>
      </trkpt>
      <trkpt lat="41.44549973309040069580078125" lon="-2.505893670022487640380859375">
        <ele>937</ele>
        <time>2019-07-07T15:18:21.000Z</time>
      </trkpt>
      <trkpt lat="41.44549973309040069580078125" lon="-2.505893670022487640380859375">
        <ele>935.5999755859375</ele>
        <time>2019-07-07T15:18:22.000Z</time>
      </trkpt>
      <trkpt lat="41.44602184183895587921142578125" lon="-2.50633665360510349273681640625">
        <ele>933.79998779296875</ele>
        <time>2019-07-07T15:18:23.000Z</time>
      </trkpt>
      <trkpt lat="41.44602184183895587921142578125" lon="-2.50633665360510349273681640625">
        <ele>932.4000244140625</ele>
        <time>2019-07-07T15:18:24.000Z</time>
      </trkpt>
      <trkpt lat="41.44654302857816219329833984375" lon="-2.5067756138741970062255859375">
        <ele>929.4000244140625</ele>
        <time>2019-07-07T15:18:26.000Z</time>
      </trkpt>
      <trkpt lat="41.447063796222209930419921875" lon="-2.50721700489521026611328125">
        <ele>927.79998779296875</ele>
        <time>2019-07-07T15:18:28.000Z</time>
      </trkpt>
      <trkpt lat="41.44758540205657482147216796875" lon="-2.5076654367148876190185546875">
        <ele>927.4000244140625</ele>
        <time>2019-07-07T15:18:29.000Z</time>
      </trkpt>
      <trkpt lat="41.4478478394448757171630859375" lon="-2.50789082609117031097412109375">
        <ele>927.5999755859375</ele>
        <time>2019-07-07T15:18:31.000Z</time>
      </trkpt>
      <trkpt lat="41.44864168949425220489501953125" lon="-2.5085616298019886016845703125">
        <ele>928</ele>
        <time>2019-07-07T15:18:34.000Z</time>
      </trkpt>
      <trkpt lat="41.44944165833294391632080078125" lon="-2.50924115069210529327392578125">
        <ele>927.79998779296875</ele>
        <time>2019-07-07T15:18:36.000Z</time>
      </trkpt>
      <trkpt lat="41.44970987923443317413330078125" lon="-2.50946846790611743927001953125">
        <ele>926.5999755859375</ele>
        <time>2019-07-07T15:18:38.000Z</time>
      </trkpt>
      <trkpt lat="41.4502470754086971282958984375" lon="-2.509921006858348846435546875">
        <ele>926.20001220703125</ele>
        <time>2019-07-07T15:18:39.000Z</time>
      </trkpt>
      <trkpt lat="41.45078158937394618988037109375" lon="-2.510372959077358245849609375">
        <ele>926.5999755859375</ele>
        <time>2019-07-07T15:18:41.000Z</time>
      </trkpt>
      <trkpt lat="41.4515720866620540618896484375" lon="-2.51104946248233318328857421875">
        <ele>925.5999755859375</ele>
        <time>2019-07-07T15:18:44.000Z</time>
      </trkpt>
      <trkpt lat="41.452094614505767822265625" lon="-2.511491440236568450927734375">
        <ele>925</ele>
        <time>2019-07-07T15:18:47.000Z</time>
      </trkpt>
      <trkpt lat="41.45261487923562526702880859375" lon="-2.51193207688629627227783203125">
        <ele>924.5999755859375</ele>
        <time>2019-07-07T15:18:48.000Z</time>
      </trkpt>
      <trkpt lat="41.4531341381371021270751953125" lon="-2.51237397082149982452392578125">
        <ele>924</ele>
        <time>2019-07-07T15:18:51.000Z</time>
      </trkpt>
      <trkpt lat="41.45365037955343723297119140625" lon="-2.51281301490962505340576171875">
        <ele>925</ele>
        <time>2019-07-07T15:18:53.000Z</time>
      </trkpt>
      <trkpt lat="41.4539049379527568817138671875" lon="-2.5130332075059413909912109375">
        <ele>926.4000244140625</ele>
        <time>2019-07-07T15:18:54.000Z</time>
      </trkpt>
      <trkpt lat="41.45415731705725193023681640625" lon="-2.51325172372162342071533203125">
        <ele>929.4000244140625</ele>
        <time>2019-07-07T15:18:55.000Z</time>
      </trkpt>
      <trkpt lat="41.45441045053303241729736328125" lon="-2.51347057521343231201171875">
        <ele>931</ele>
        <time>2019-07-07T15:18:56.000Z</time>
      </trkpt>
      <trkpt lat="41.45492359064519405364990234375" lon="-2.513900063931941986083984375">
        <ele>929.79998779296875</ele>
        <time>2019-07-07T15:18:58.000Z</time>
      </trkpt>
      <trkpt lat="41.45518041215837001800537109375" lon="-2.5141117908060550689697265625">
        <ele>928.4000244140625</ele>
        <time>2019-07-07T15:18:59.000Z</time>
      </trkpt>
      <trkpt lat="41.455436646938323974609375" lon="-2.5143236853182315826416015625">
        <ele>925.79998779296875</ele>
        <time>2019-07-07T15:19:00.000Z</time>
      </trkpt>
      <trkpt lat="41.45569187588989734649658203125" lon="-2.5145379267632961273193359375">
        <ele>922.79998779296875</ele>
        <time>2019-07-07T15:19:01.000Z</time>
      </trkpt>
      <trkpt lat="41.456195376813411712646484375" lon="-2.51497797667980194091796875">
        <ele>920.79998779296875</ele>
        <time>2019-07-07T15:19:02.000Z</time>
      </trkpt>
      <trkpt lat="41.45644976757466793060302734375" lon="-2.51519925892353057861328125">
        <ele>922.5999755859375</ele>
        <time>2019-07-07T15:19:04.000Z</time>
      </trkpt>
      <trkpt lat="41.45695955492556095123291015625" lon="-2.51564291305840015411376953125">
        <ele>923.5999755859375</ele>
        <time>2019-07-07T15:19:05.000Z</time>
      </trkpt>
      <trkpt lat="41.457461379468441009521484375" lon="-2.51609654165804386138916015625">
        <ele>922.4000244140625</ele>
        <time>2019-07-07T15:19:08.000Z</time>
      </trkpt>
      <trkpt lat="41.45770889706909656524658203125" lon="-2.5163226015865802764892578125">
        <ele>921.5999755859375</ele>
        <time>2019-07-07T15:19:09.000Z</time>
      </trkpt>
      <trkpt lat="41.45819538272917270660400390625" lon="-2.516778409481048583984375">
        <ele>919.5999755859375</ele>
        <time>2019-07-07T15:19:11.000Z</time>
      </trkpt>
      <trkpt lat="41.45867348648607730865478515625" lon="-2.51723899506032466888427734375">
        <ele>918</ele>
        <time>2019-07-07T15:19:13.000Z</time>
      </trkpt>
      <trkpt lat="41.4589096046984195709228515625" lon="-2.5174722634255886077880859375">
        <ele>917</ele>
        <time>2019-07-07T15:19:14.000Z</time>
      </trkpt>
      <trkpt lat="41.4591432921588420867919921875" lon="-2.5177082978188991546630859375">
        <ele>916</ele>
        <time>2019-07-07T15:19:15.000Z</time>
      </trkpt>
      <trkpt lat="41.459605135023593902587890625" lon="-2.5181830488145351409912109375">
        <ele>914.79998779296875</ele>
        <time>2019-07-07T15:19:16.000Z</time>
      </trkpt>
      <trkpt lat="41.46006287075579166412353515625" lon="-2.51866400241851806640625">
        <ele>913.4000244140625</ele>
        <time>2019-07-07T15:19:18.000Z</time>
      </trkpt>
      <trkpt lat="41.46051599644124507904052734375" lon="-2.5191519968211650848388671875">
        <ele>914.5999755859375</ele>
        <time>2019-07-07T15:19:20.000Z</time>
      </trkpt>
      <trkpt lat="41.46074029617011547088623046875" lon="-2.51940001733601093292236328125">
        <ele>917.20001220703125</ele>
        <time>2019-07-07T15:19:21.000Z</time>
      </trkpt>
      <trkpt lat="41.46074029617011547088623046875" lon="-2.51940001733601093292236328125">
        <ele>919.5999755859375</ele>
        <time>2019-07-07T15:19:22.000Z</time>
      </trkpt>
      <trkpt lat="41.460960991680622100830078125" lon="-2.51965331844985485076904296875">
        <ele>921.4000244140625</ele>
        <time>2019-07-07T15:19:23.000Z</time>
      </trkpt>
      <trkpt lat="41.46139643155038356781005859375" lon="-2.52015866339206695556640625">
        <ele>922.20001220703125</ele>
        <time>2019-07-07T15:19:24.000Z</time>
      </trkpt>
      <trkpt lat="41.46182156167924404144287109375" lon="-2.52065956592559814453125">
        <ele>919</ele>
        <time>2019-07-07T15:19:26.000Z</time>
      </trkpt>
      <trkpt lat="41.46182156167924404144287109375" lon="-2.52065956592559814453125">
        <ele>913.5999755859375</ele>
        <time>2019-07-07T15:19:27.000Z</time>
      </trkpt>
      <trkpt lat="41.4620357193052768707275390625" lon="-2.52090632915496826171875">
        <ele>907</ele>
        <time>2019-07-07T15:19:28.000Z</time>
      </trkpt>
      <trkpt lat="41.462253145873546600341796875" lon="-2.5211509130895137786865234375">
        <ele>903.79998779296875</ele>
        <time>2019-07-07T15:19:29.000Z</time>
      </trkpt>
      <trkpt lat="41.462474763393402099609375" lon="-2.52138921059668064117431640625">
        <ele>901.20001220703125</ele>
        <time>2019-07-07T15:19:30.000Z</time>
      </trkpt>
      <trkpt lat="41.46270073950290679931640625" lon="-2.52162088640034198760986328125">
        <ele>900</ele>
        <time>2019-07-07T15:19:31.000Z</time>
      </trkpt>
      <trkpt lat="41.46293140947818756103515625" lon="-2.521846778690814971923828125">
        <ele>898.5999755859375</ele>
        <time>2019-07-07T15:19:32.000Z</time>
      </trkpt>
      <trkpt lat="41.46341110579669475555419921875" lon="-2.52227266319096088409423828125">
        <ele>896.20001220703125</ele>
        <time>2019-07-07T15:19:34.000Z</time>
      </trkpt>
      <trkpt lat="41.4639115892350673675537109375" lon="-2.52266024239361286163330078125">
        <ele>896.5999755859375</ele>
        <time>2019-07-07T15:19:35.000Z</time>
      </trkpt>
      <trkpt lat="41.4646877534687519073486328125" lon="-2.52317489124834537506103515625">
        <ele>897</ele>
        <time>2019-07-07T15:19:38.000Z</time>
      </trkpt>
      <trkpt lat="41.4646877534687519073486328125" lon="-2.52317489124834537506103515625">
        <ele>898</ele>
        <time>2019-07-07T15:19:39.000Z</time>
      </trkpt>
      <trkpt lat="41.4652240276336669921875" lon="-2.52347999252378940582275390625">
        <ele>898.20001220703125</ele>
        <time>2019-07-07T15:19:41.000Z</time>
      </trkpt>
      <trkpt lat="41.46577497012913227081298828125" lon="-2.52374553121626377105712890625">
        <ele>898.20001220703125</ele>
        <time>2019-07-07T15:19:43.000Z</time>
      </trkpt>
      <trkpt lat="41.46634259261190891265869140625" lon="-2.52396061085164546966552734375">
        <ele>896.79998779296875</ele>
        <time>2019-07-07T15:19:45.000Z</time>
      </trkpt>
      <trkpt lat="41.46663109771907329559326171875" lon="-2.5240533985197544097900390625">
        <ele>895.5999755859375</ele>
        <time>2019-07-07T15:19:46.000Z</time>
      </trkpt>
      <trkpt lat="41.4672143943607807159423828125" lon="-2.52421282231807708740234375">
        <ele>894.4000244140625</ele>
        <time>2019-07-07T15:19:48.000Z</time>
      </trkpt>
      <trkpt lat="41.4678041450679302215576171875" lon="-2.52433310262858867645263671875">
        <ele>893.5999755859375</ele>
        <time>2019-07-07T15:19:50.000Z</time>
      </trkpt>
      <trkpt lat="41.468402445316314697265625" lon="-2.52440996468067169189453125">
        <ele>894.4000244140625</ele>
        <time>2019-07-07T15:19:51.000Z</time>
      </trkpt>
      <trkpt lat="41.4693115465342998504638671875" lon="-2.52444081008434295654296875">
        <ele>891.5999755859375</ele>
        <time>2019-07-07T15:19:54.000Z</time>
      </trkpt>
      <trkpt lat="41.4699217490851879119873046875" lon="-2.5244052708148956298828125">
        <ele>889.5999755859375</ele>
        <time>2019-07-07T15:19:56.000Z</time>
      </trkpt>
      <trkpt lat="41.4702271856367588043212890625" lon="-2.5243702344596385955810546875">
        <ele>887.5999755859375</ele>
        <time>2019-07-07T15:19:57.000Z</time>
      </trkpt>
      <trkpt lat="41.47053237073123455047607421875" lon="-2.5243212841451168060302734375">
        <ele>886.4000244140625</ele>
        <time>2019-07-07T15:19:58.000Z</time>
      </trkpt>
      <trkpt lat="41.47114139981567859649658203125" lon="-2.5241844914853572845458984375">
        <ele>887.5999755859375</ele>
        <time>2019-07-07T15:20:00.000Z</time>
      </trkpt>
      <trkpt lat="41.471444070339202880859375" lon="-2.5240922905504703521728515625">
        <ele>890</ele>
        <time>2019-07-07T15:20:01.000Z</time>
      </trkpt>
      <trkpt lat="41.47174556739628314971923828125" lon="-2.523988522589206695556640625">
        <ele>893.20001220703125</ele>
        <time>2019-07-07T15:20:02.000Z</time>
      </trkpt>
      <trkpt lat="41.47174556739628314971923828125" lon="-2.523988522589206695556640625">
        <ele>898.20001220703125</ele>
        <time>2019-07-07T15:20:03.000Z</time>
      </trkpt>
      <trkpt lat="41.4720467291772365570068359375" lon="-2.5238733552396297454833984375">
        <ele>901.4000244140625</ele>
        <time>2019-07-07T15:20:04.000Z</time>
      </trkpt>
      <trkpt lat="41.47234604693949222564697265625" lon="-2.52374905161559581756591796875">
        <ele>905.20001220703125</ele>
        <time>2019-07-07T15:20:05.000Z</time>
      </trkpt>
      <trkpt lat="41.47264234721660614013671875" lon="-2.5236128456890583038330078125">
        <ele>909.4000244140625</ele>
        <time>2019-07-07T15:20:06.000Z</time>
      </trkpt>
      <trkpt lat="41.4732272364199161529541015625" lon="-2.5233194790780544281005859375">
        <ele>910.20001220703125</ele>
        <time>2019-07-07T15:20:08.000Z</time>
      </trkpt>
      <trkpt lat="41.47351347841322422027587890625" lon="-2.523155026137828826904296875">
        <ele>912.79998779296875</ele>
        <time>2019-07-07T15:20:09.000Z</time>
      </trkpt>
      <trkpt lat="41.47407422773540019989013671875" lon="-2.5227857194840908050537109375">
        <ele>913.4000244140625</ele>
        <time>2019-07-07T15:20:11.000Z</time>
      </trkpt>
      <trkpt lat="41.47461645305156707763671875" lon="-2.52238011918962001800537109375">
        <ele>912.5999755859375</ele>
        <time>2019-07-07T15:20:13.000Z</time>
      </trkpt>
      <trkpt lat="41.47488056682050228118896484375" lon="-2.52216160297393798828125">
        <ele>913.79998779296875</ele>
        <time>2019-07-07T15:20:14.000Z</time>
      </trkpt>
      <trkpt lat="41.47539655677974224090576171875" lon="-2.52170470543205738067626953125">
        <ele>912.4000244140625</ele>
        <time>2019-07-07T15:20:16.000Z</time>
      </trkpt>
      <trkpt lat="41.476154029369354248046875" lon="-2.521001882851123809814453125">
        <ele>915.5999755859375</ele>
        <time>2019-07-07T15:20:18.000Z</time>
      </trkpt>
      <trkpt lat="41.476154029369354248046875" lon="-2.521001882851123809814453125">
        <ele>918.5999755859375</ele>
        <time>2019-07-07T15:20:19.000Z</time>
      </trkpt>
      <trkpt lat="41.47665635682642459869384765625" lon="-2.5205373577773571014404296875">
        <ele>920.20001220703125</ele>
        <time>2019-07-07T15:20:20.000Z</time>
      </trkpt>
      <trkpt lat="41.47665635682642459869384765625" lon="-2.5205373577773571014404296875">
        <ele>921.5999755859375</ele>
        <time>2019-07-07T15:20:21.000Z</time>
      </trkpt>
      <trkpt lat="41.4769082330167293548583984375" lon="-2.52030618488788604736328125">
        <ele>925.79998779296875</ele>
        <time>2019-07-07T15:20:22.000Z</time>
      </trkpt>
      <trkpt lat="41.477411650121212005615234375" lon="-2.51984291709959506988525390625">
        <ele>927.79998779296875</ele>
        <time>2019-07-07T15:20:23.000Z</time>
      </trkpt>
      <trkpt lat="41.4779133908450603485107421875" lon="-2.51937705092132091522216796875">
        <ele>928.5999755859375</ele>
        <time>2019-07-07T15:20:25.000Z</time>
      </trkpt>
      <trkpt lat="41.4784132875502109527587890625" lon="-2.51891520805656909942626953125">
        <ele>930.20001220703125</ele>
        <time>2019-07-07T15:20:27.000Z</time>
      </trkpt>
      <trkpt lat="41.4784132875502109527587890625" lon="-2.51891520805656909942626953125">
        <ele>931.5999755859375</ele>
        <time>2019-07-07T15:20:28.000Z</time>
      </trkpt>
      <trkpt lat="41.47891175933182239532470703125" lon="-2.51845085062086582183837890625">
        <ele>933</ele>
        <time>2019-07-07T15:20:29.000Z</time>
      </trkpt>
      <trkpt lat="41.47916036657989025115966796875" lon="-2.518219761550426483154296875">
        <ele>934.4000244140625</ele>
        <time>2019-07-07T15:20:30.000Z</time>
      </trkpt>
      <trkpt lat="41.4796571619808673858642578125" lon="-2.51776236109435558319091796875">
        <ele>935.4000244140625</ele>
        <time>2019-07-07T15:20:32.000Z</time>
      </trkpt>
      <trkpt lat="41.4801533706486225128173828125" lon="-2.51730906777083873748779296875">
        <ele>932.5999755859375</ele>
        <time>2019-07-07T15:20:34.000Z</time>
      </trkpt>
      <trkpt lat="41.4806462265551090240478515625" lon="-2.5168566964566707611083984375">
        <ele>931.20001220703125</ele>
        <time>2019-07-07T15:20:36.000Z</time>
      </trkpt>
      <trkpt lat="41.4811367355287075042724609375" lon="-2.51640650443732738494873046875">
        <ele>931</ele>
        <time>2019-07-07T15:20:38.000Z</time>
      </trkpt>
      <trkpt lat="41.4811367355287075042724609375" lon="-2.51640650443732738494873046875">
        <ele>933</ele>
        <time>2019-07-07T15:20:39.000Z</time>
      </trkpt>
      <trkpt lat="41.481381990015506744384765625" lon="-2.5161824561655521392822265625">
        <ele>935</ele>
        <time>2019-07-07T15:20:40.000Z</time>
      </trkpt>
      <trkpt lat="41.481878198683261871337890625" lon="-2.5157310068607330322265625">
        <ele>936</ele>
        <time>2019-07-07T15:20:41.000Z</time>
      </trkpt>
      <trkpt lat="41.48239041678607463836669921875" lon="-2.51528919674456119537353515625">
        <ele>937</ele>
        <time>2019-07-07T15:20:43.000Z</time>
      </trkpt>
      <trkpt lat="41.48291051387786865234375" lon="-2.51485266722738742828369140625">
        <ele>936.79998779296875</ele>
        <time>2019-07-07T15:20:45.000Z</time>
      </trkpt>
      <trkpt lat="41.483172364532947540283203125" lon="-2.51463993452489376068115234375">
        <ele>938.5999755859375</ele>
        <time>2019-07-07T15:20:46.000Z</time>
      </trkpt>
      <trkpt lat="41.48370469920337200164794921875" lon="-2.51423324458301067352294921875">
        <ele>938.5999755859375</ele>
        <time>2019-07-07T15:20:48.000Z</time>
      </trkpt>
      <trkpt lat="41.4842491038143634796142578125" lon="-2.5138489343225955963134765625">
        <ele>937.20001220703125</ele>
        <time>2019-07-07T15:20:51.000Z</time>
      </trkpt>
      <trkpt lat="41.48452796973288059234619140625" lon="-2.5136675499379634857177734375">
        <ele>935.79998779296875</ele>
        <time>2019-07-07T15:20:52.000Z</time>
      </trkpt>
      <trkpt lat="41.48509693332016468048095703125" lon="-2.5133289210498332977294921875">
        <ele>934.20001220703125</ele>
        <time>2019-07-07T15:20:53.000Z</time>
      </trkpt>
      <trkpt lat="41.485386528074741363525390625" lon="-2.51317075453698635101318359375">
        <ele>932.5999755859375</ele>
        <time>2019-07-07T15:20:54.000Z</time>
      </trkpt>
      <trkpt lat="41.485386528074741363525390625" lon="-2.51317075453698635101318359375">
        <ele>931.5999755859375</ele>
        <time>2019-07-07T15:20:55.000Z</time>
      </trkpt>
      <trkpt lat="41.48597669787704944610595703125" lon="-2.51288493163883686065673828125">
        <ele>930.5999755859375</ele>
        <time>2019-07-07T15:20:57.000Z</time>
      </trkpt>
      <trkpt lat="41.48658446967601776123046875" lon="-2.5126446224749088287353515625">
        <ele>929.5999755859375</ele>
        <time>2019-07-07T15:20:59.000Z</time>
      </trkpt>
      <trkpt lat="41.48689426481723785400390625" lon="-2.51254915259778499603271484375">
        <ele>928.79998779296875</ele>
        <time>2019-07-07T15:21:00.000Z</time>
      </trkpt>
      <trkpt lat="41.48720716126263141632080078125" lon="-2.51246969215571880340576171875">
        <ele>927.4000244140625</ele>
        <time>2019-07-07T15:21:01.000Z</time>
      </trkpt>
      <trkpt lat="41.487832032144069671630859375" lon="-2.5123525969684123992919921875">
        <ele>924.79998779296875</ele>
        <time>2019-07-07T15:21:02.000Z</time>
      </trkpt>
      <trkpt lat="41.488137803971767425537109375" lon="-2.51231395639479160308837890625">
        <ele>921.5999755859375</ele>
        <time>2019-07-07T15:21:03.000Z</time>
      </trkpt>
      <trkpt lat="41.4884397201240062713623046875" lon="-2.512285709381103515625">
        <ele>920</ele>
        <time>2019-07-07T15:21:04.000Z</time>
      </trkpt>
      <trkpt lat="41.4887387864291667938232421875" lon="-2.5122671015560626983642578125">
        <ele>918</ele>
        <time>2019-07-07T15:21:05.000Z</time>
      </trkpt>
      <trkpt lat="41.48932945914566516876220703125" lon="-2.51227254979312419891357421875">
        <ele>918.5999755859375</ele>
        <time>2019-07-07T15:21:07.000Z</time>
      </trkpt>
      <trkpt lat="41.48991133086383342742919921875" lon="-2.51233331859111785888671875">
        <ele>917</ele>
        <time>2019-07-07T15:21:09.000Z</time>
      </trkpt>
      <trkpt lat="41.49019866250455379486083984375" lon="-2.5123809278011322021484375">
        <ele>916.20001220703125</ele>
        <time>2019-07-07T15:21:10.000Z</time>
      </trkpt>
      <trkpt lat="41.490484736859798431396484375" lon="-2.512438260018825531005859375">
        <ele>913.4000244140625</ele>
        <time>2019-07-07T15:21:11.000Z</time>
      </trkpt>
      <trkpt lat="41.490484736859798431396484375" lon="-2.512438260018825531005859375">
        <ele>909.5999755859375</ele>
        <time>2019-07-07T15:21:12.000Z</time>
      </trkpt>
      <trkpt lat="41.4907698892056941986083984375" lon="-2.51250523142516613006591796875">
        <ele>905.4000244140625</ele>
        <time>2019-07-07T15:21:13.000Z</time>
      </trkpt>
      <trkpt lat="41.49105445481836795806884765625" lon="-2.51258385367691516876220703125">
        <ele>901.4000244140625</ele>
        <time>2019-07-07T15:21:14.000Z</time>
      </trkpt>
      <trkpt lat="41.49133642204105854034423828125" lon="-2.51267261803150177001953125">
        <ele>899.4000244140625</ele>
        <time>2019-07-07T15:21:15.000Z</time>
      </trkpt>
      <trkpt lat="41.49161604233086109161376953125" lon="-2.51277387142181396484375">
        <ele>898.20001220703125</ele>
        <time>2019-07-07T15:21:16.000Z</time>
      </trkpt>
      <trkpt lat="41.49189390242099761962890625" lon="-2.51288811676204204559326171875">
        <ele>897.20001220703125</ele>
        <time>2019-07-07T15:21:17.000Z</time>
      </trkpt>
      <trkpt lat="41.4924425818026065826416015625" lon="-2.51315181143581867218017578125">
        <ele>897.5999755859375</ele>
        <time>2019-07-07T15:21:19.000Z</time>
      </trkpt>
      <trkpt lat="41.49298195727169513702392578125" lon="-2.5134596787393093109130859375">
        <ele>898.20001220703125</ele>
        <time>2019-07-07T15:21:20.000Z</time>
      </trkpt>
      <trkpt lat="41.49324799887835979461669921875" lon="-2.5136283226311206817626953125">
        <ele>899.4000244140625</ele>
        <time>2019-07-07T15:21:22.000Z</time>
      </trkpt>
      <trkpt lat="41.494014523923397064208984375" lon="-2.514187060296535491943359375">
        <ele>902.4000244140625</ele>
        <time>2019-07-07T15:21:24.000Z</time>
      </trkpt>
      <trkpt lat="41.49425885640084743499755859375" lon="-2.514393590390682220458984375">
        <ele>904.4000244140625</ele>
        <time>2019-07-07T15:21:25.000Z</time>
      </trkpt>
      <trkpt lat="41.49425885640084743499755859375" lon="-2.514393590390682220458984375">
        <ele>905.79998779296875</ele>
        <time>2019-07-07T15:21:26.000Z</time>
      </trkpt>
      <trkpt lat="41.49495841003954410552978515625" lon="-2.515075542032718658447265625">
        <ele>906</ele>
        <time>2019-07-07T15:21:28.000Z</time>
      </trkpt>
      <trkpt lat="41.49539527483284473419189453125" lon="-2.51558675430715084075927734375">
        <ele>904.79998779296875</ele>
        <time>2019-07-07T15:21:31.000Z</time>
      </trkpt>
      <trkpt lat="41.4958144538104534149169921875" lon="-2.51612788997590541839599609375">
        <ele>904</ele>
        <time>2019-07-07T15:21:33.000Z</time>
      </trkpt>
      <trkpt lat="41.49621183983981609344482421875" lon="-2.51669836230576038360595703125">
        <ele>903.79998779296875</ele>
        <time>2019-07-07T15:21:35.000Z</time>
      </trkpt>
      <trkpt lat="41.496580727398395538330078125" lon="-2.51730403862893581390380859375">
        <ele>903.79998779296875</ele>
        <time>2019-07-07T15:21:37.000Z</time>
      </trkpt>
      <trkpt lat="41.4969265647232532501220703125" lon="-2.5179369561374187469482421875">
        <ele>903</ele>
        <time>2019-07-07T15:21:39.000Z</time>
      </trkpt>
      <trkpt lat="41.49709026329219341278076171875" lon="-2.51826494000852108001708984375">
        <ele>902.4000244140625</ele>
        <time>2019-07-07T15:21:40.000Z</time>
      </trkpt>
      <trkpt lat="41.49739251472055912017822265625" lon="-2.51894286833703517913818359375">
        <ele>902.20001220703125</ele>
        <time>2019-07-07T15:21:41.000Z</time>
      </trkpt>
      <trkpt lat="41.4976640045642852783203125" lon="-2.51964493654668331146240234375">
        <ele>901.79998779296875</ele>
        <time>2019-07-07T15:21:44.000Z</time>
      </trkpt>
      <trkpt lat="41.49778746999800205230712890625" lon="-2.520006783306598663330078125">
        <ele>900.5999755859375</ele>
        <time>2019-07-07T15:21:45.000Z</time>
      </trkpt>
      <trkpt lat="41.4979025535285472869873046875" lon="-2.52037164755165576934814453125">
        <ele>903.4000244140625</ele>
        <time>2019-07-07T15:21:46.000Z</time>
      </trkpt>
      <trkpt lat="41.4980105124413967132568359375" lon="-2.52073927782475948333740234375">
        <ele>904.79998779296875</ele>
        <time>2019-07-07T15:21:47.000Z</time>
      </trkpt>
      <trkpt lat="41.49820153601467609405517578125" lon="-2.521489374339580535888671875">
        <ele>906.4000244140625</ele>
        <time>2019-07-07T15:21:48.000Z</time>
      </trkpt>
      <trkpt lat="41.49828887544572353363037109375" lon="-2.5218690745532512664794921875">
        <ele>908.4000244140625</ele>
        <time>2019-07-07T15:21:49.000Z</time>
      </trkpt>
      <trkpt lat="41.49845332838594913482666015625" lon="-2.5226308219134807586669921875">
        <ele>907.4000244140625</ele>
        <time>2019-07-07T15:21:51.000Z</time>
      </trkpt>
      <trkpt lat="41.49852926842868328094482421875" lon="-2.52301253378391265869140625">
        <ele>906.79998779296875</ele>
        <time>2019-07-07T15:21:52.000Z</time>
      </trkpt>
      <trkpt lat="41.49852926842868328094482421875" lon="-2.52301253378391265869140625">
        <ele>905.20001220703125</ele>
        <time>2019-07-07T15:21:53.000Z</time>
      </trkpt>
      <trkpt lat="41.49866782128810882568359375" lon="-2.5237808190286159515380859375">
        <ele>904.20001220703125</ele>
        <time>2019-07-07T15:21:54.000Z</time>
      </trkpt>
      <trkpt lat="41.49873085319995880126953125" lon="-2.52416579984128475189208984375">
        <ele>901</ele>
        <time>2019-07-07T15:21:55.000Z</time>
      </trkpt>
      <trkpt lat="41.49873085319995880126953125" lon="-2.52416579984128475189208984375">
        <ele>897</ele>
        <time>2019-07-07T15:21:56.000Z</time>
      </trkpt>
      <trkpt lat="41.49884543381631374359130859375" lon="-2.524936683475971221923828125">
        <ele>894.4000244140625</ele>
        <time>2019-07-07T15:21:57.000Z</time>
      </trkpt>
      <trkpt lat="41.498898155987262725830078125" lon="-2.525326274335384368896484375">
        <ele>892</ele>
        <time>2019-07-07T15:21:58.000Z</time>
      </trkpt>
      <trkpt lat="41.49894702248275279998779296875" lon="-2.52571745775640010833740234375">
        <ele>890.79998779296875</ele>
        <time>2019-07-07T15:21:59.000Z</time>
      </trkpt>
      <trkpt lat="41.49904157035052776336669921875" lon="-2.52649915404617786407470703125">
        <ele>891</ele>
        <time>2019-07-07T15:22:01.000Z</time>
      </trkpt>
      <trkpt lat="41.4990924485027790069580078125" lon="-2.5268881581723690032958984375">
        <ele>892.4000244140625</ele>
        <time>2019-07-07T15:22:02.000Z</time>
      </trkpt>
      <trkpt lat="41.499145589768886566162109375" lon="-2.52727598883211612701416015625">
        <ele>894</ele>
        <time>2019-07-07T15:22:03.000Z</time>
      </trkpt>
      <trkpt lat="41.49924944154918193817138671875" lon="-2.528050057590007781982421875">
        <ele>895.5999755859375</ele>
        <time>2019-07-07T15:22:05.000Z</time>
      </trkpt>
      <trkpt lat="41.49929570965468883514404296875" lon="-2.528439648449420928955078125">
        <ele>899.5999755859375</ele>
        <time>2019-07-07T15:22:07.000Z</time>
      </trkpt>
      <trkpt lat="41.49938623420894145965576171875" lon="-2.5292156450450420379638671875">
        <ele>905.79998779296875</ele>
        <time>2019-07-07T15:22:08.000Z</time>
      </trkpt>
      <trkpt lat="41.49943501688539981842041015625" lon="-2.52960079349577426910400390625">
        <ele>910</ele>
        <time>2019-07-07T15:22:09.000Z</time>
      </trkpt>
      <trkpt lat="41.49948581121861934661865234375" lon="-2.52998367883265018463134765625">
        <ele>912.79998779296875</ele>
        <time>2019-07-07T15:22:10.000Z</time>
      </trkpt>
      <trkpt lat="41.49948581121861934661865234375" lon="-2.52998367883265018463134765625">
        <ele>914.79998779296875</ele>
        <time>2019-07-07T15:22:11.000Z</time>
      </trkpt>
      <trkpt lat="41.49954347871243953704833984375" lon="-2.53036639653146266937255859375">
        <ele>913.5999755859375</ele>
        <time>2019-07-07T15:22:12.000Z</time>
      </trkpt>
      <trkpt lat="41.499610953032970428466796875" lon="-2.5307460129261016845703125">
        <ele>912.4000244140625</ele>
        <time>2019-07-07T15:22:13.000Z</time>
      </trkpt>
      <trkpt lat="41.49978202767670154571533203125" lon="-2.53148823045194149017333984375">
        <ele>911</ele>
        <time>2019-07-07T15:22:15.000Z</time>
      </trkpt>
      <trkpt lat="41.49998889304697513580322265625" lon="-2.5322104990482330322265625">
        <ele>911.20001220703125</ele>
        <time>2019-07-07T15:22:17.000Z</time>
      </trkpt>
      <trkpt lat="41.5002273581922054290771484375" lon="-2.53290410153567790985107421875">
        <ele>909.79998779296875</ele>
        <time>2019-07-07T15:22:19.000Z</time>
      </trkpt>
      <trkpt lat="41.5006457827985286712646484375" lon="-2.5338681042194366455078125">
        <ele>909.5999755859375</ele>
        <time>2019-07-07T15:22:21.000Z</time>
      </trkpt>
      <trkpt lat="41.5006457827985286712646484375" lon="-2.5338681042194366455078125">
        <ele>911.20001220703125</ele>
        <time>2019-07-07T15:22:22.000Z</time>
      </trkpt>
      <trkpt lat="41.50113679468631744384765625" lon="-2.53475566394627094268798828125">
        <ele>909.79998779296875</ele>
        <time>2019-07-07T15:22:24.000Z</time>
      </trkpt>
      <trkpt lat="41.50149662978947162628173828125" lon="-2.5353106297552585601806640625">
        <ele>912.5999755859375</ele>
        <time>2019-07-07T15:22:26.000Z</time>
      </trkpt>
      <trkpt lat="41.5016905032098293304443359375" lon="-2.53557323478162288665771484375">
        <ele>913.79998779296875</ele>
        <time>2019-07-07T15:22:28.000Z</time>
      </trkpt>
      <trkpt lat="41.5021003782749176025390625" lon="-2.53607145510613918304443359375">
        <ele>915.20001220703125</ele>
        <time>2019-07-07T15:22:30.000Z</time>
      </trkpt>
      <trkpt lat="41.50252617895603179931640625" lon="-2.53654352389276027679443359375">
        <ele>917.4000244140625</ele>
        <time>2019-07-07T15:22:32.000Z</time>
      </trkpt>
      <trkpt lat="41.50295558385550975799560546875" lon="-2.53700561821460723876953125">
        <ele>918.20001220703125</ele>
        <time>2019-07-07T15:22:33.000Z</time>
      </trkpt>
      <trkpt lat="41.50316881947219371795654296875" lon="-2.53723704256117343902587890625">
        <ele>919.4000244140625</ele>
        <time>2019-07-07T15:22:34.000Z</time>
      </trkpt>
      <trkpt lat="41.50338046252727508544921875" lon="-2.53746888600289821624755859375">
        <ele>920.5999755859375</ele>
        <time>2019-07-07T15:22:35.000Z</time>
      </trkpt>
      <trkpt lat="41.503799222409725189208984375" lon="-2.53793408162891864776611328125">
        <ele>923</ele>
        <time>2019-07-07T15:22:37.000Z</time>
      </trkpt>
      <trkpt lat="41.504008769989013671875" lon="-2.538166344165802001953125">
        <ele>924.4000244140625</ele>
        <time>2019-07-07T15:22:38.000Z</time>
      </trkpt>
      <trkpt lat="41.504220664501190185546875" lon="-2.53839810378849506378173828125">
        <ele>926.5999755859375</ele>
        <time>2019-07-07T15:22:40.000Z</time>
      </trkpt>
      <trkpt lat="41.504648141562938690185546875" lon="-2.53886665217578411102294921875">
        <ele>927.5999755859375</ele>
        <time>2019-07-07T15:22:41.000Z</time>
      </trkpt>
      <trkpt lat="41.50486615486443042755126953125" lon="-2.5390970706939697265625">
        <ele>929.20001220703125</ele>
        <time>2019-07-07T15:22:42.000Z</time>
      </trkpt>
      <trkpt lat="41.50529958307743072509765625" lon="-2.539561092853546142578125">
        <ele>930.79998779296875</ele>
        <time>2019-07-07T15:22:44.000Z</time>
      </trkpt>
      <trkpt lat="41.5055149979889392852783203125" lon="-2.539796791970729827880859375">
        <ele>932.20001220703125</ele>
        <time>2019-07-07T15:22:45.000Z</time>
      </trkpt>
      <trkpt lat="41.50594993494451045989990234375" lon="-2.540266513824462890625">
        <ele>933</ele>
        <time>2019-07-07T15:22:47.000Z</time>
      </trkpt>
      <trkpt lat="41.50616803206503391265869140625" lon="-2.5405025482177734375">
        <ele>933.20001220703125</ele>
        <time>2019-07-07T15:22:48.000Z</time>
      </trkpt>
      <trkpt lat="41.506602466106414794921875" lon="-2.540980316698551177978515625">
        <ele>933.4000244140625</ele>
        <time>2019-07-07T15:22:50.000Z</time>
      </trkpt>
      <trkpt lat="41.507037319242954254150390625" lon="-2.54145934246480464935302734375">
        <ele>935.4000244140625</ele>
        <time>2019-07-07T15:22:53.000Z</time>
      </trkpt>
      <trkpt lat="41.50725751183927059173583984375" lon="-2.541695125401020050048828125">
        <ele>938</ele>
        <time>2019-07-07T15:22:54.000Z</time>
      </trkpt>
      <trkpt lat="41.50747996754944324493408203125" lon="-2.54192587919533252716064453125">
        <ele>940.20001220703125</ele>
        <time>2019-07-07T15:22:55.000Z</time>
      </trkpt>
      <trkpt lat="41.5077073685824871063232421875" lon="-2.54214632324874401092529296875">
        <ele>942.20001220703125</ele>
        <time>2019-07-07T15:22:56.000Z</time>
      </trkpt>
      <trkpt lat="41.50842008180916309356689453125" lon="-2.54274177365005016326904296875">
        <ele>944</ele>
        <time>2019-07-07T15:22:58.000Z</time>
      </trkpt>
      <trkpt lat="41.50891897268593311309814453125" lon="-2.54309498704969882965087890625">
        <ele>945</ele>
        <time>2019-07-07T15:23:00.000Z</time>
      </trkpt>
      <trkpt lat="41.50944032706320285797119140625" lon="-2.54339589737355709075927734375">
        <ele>945</ele>
        <time>2019-07-07T15:23:03.000Z</time>
      </trkpt>
      <trkpt lat="41.509985066950321197509765625" lon="-2.54365053959190845489501953125">
        <ele>944</ele>
        <time>2019-07-07T15:23:05.000Z</time>
      </trkpt>
      <trkpt lat="41.5102651901543140411376953125" lon="-2.54375883378088474273681640625">
        <ele>942.79998779296875</ele>
        <time>2019-07-07T15:23:06.000Z</time>
      </trkpt>
      <trkpt lat="41.51083004660904407501220703125" lon="-2.54392697475850582122802734375">
        <ele>941.4000244140625</ele>
        <time>2019-07-07T15:23:07.000Z</time>
      </trkpt>
      <trkpt lat="41.51083004660904407501220703125" lon="-2.54392697475850582122802734375">
        <ele>939</ele>
        <time>2019-07-07T15:23:08.000Z</time>
      </trkpt>
      <trkpt lat="41.51111151091754436492919921875" lon="-2.5439895875751972198486328125">
        <ele>937.79998779296875</ele>
        <time>2019-07-07T15:23:09.000Z</time>
      </trkpt>
      <trkpt lat="41.51167477481067180633544921875" lon="-2.5440747477114200592041015625">
        <ele>936.4000244140625</ele>
        <time>2019-07-07T15:23:10.000Z</time>
      </trkpt>
      <trkpt lat="41.5119553171098232269287109375" lon="-2.5440975464880466461181640625">
        <ele>934.79998779296875</ele>
        <time>2019-07-07T15:23:11.000Z</time>
      </trkpt>
      <trkpt lat="41.5119553171098232269287109375" lon="-2.5440975464880466461181640625">
        <ele>932.79998779296875</ele>
        <time>2019-07-07T15:23:12.000Z</time>
      </trkpt>
      <trkpt lat="41.51223485358059406280517578125" lon="-2.54410542547702789306640625">
        <ele>930.4000244140625</ele>
        <time>2019-07-07T15:23:13.000Z</time>
      </trkpt>
      <trkpt lat="41.51279660873115062713623046875" lon="-2.54408338107168674468994140625">
        <ele>931.4000244140625</ele>
        <time>2019-07-07T15:23:14.000Z</time>
      </trkpt>
      <trkpt lat="41.51308092288672924041748046875" lon="-2.54405236802995204925537109375">
        <ele>933.20001220703125</ele>
        <time>2019-07-07T15:23:15.000Z</time>
      </trkpt>
      <trkpt lat="41.5133688412606716156005859375" lon="-2.54400408826768398284912109375">
        <ele>934.5999755859375</ele>
        <time>2019-07-07T15:23:17.000Z</time>
      </trkpt>
      <trkpt lat="41.5136581845581531524658203125" lon="-2.54394440911710262298583984375">
        <ele>936.4000244140625</ele>
        <time>2019-07-07T15:23:18.000Z</time>
      </trkpt>
      <trkpt lat="41.5139488689601421356201171875" lon="-2.54386930726468563079833984375">
        <ele>937.79998779296875</ele>
        <time>2019-07-07T15:23:19.000Z</time>
      </trkpt>
      <trkpt lat="41.51452914811670780181884765625" lon="-2.54369496367871761322021484375">
        <ele>939</ele>
        <time>2019-07-07T15:23:20.000Z</time>
      </trkpt>
      <trkpt lat="41.5151122771203517913818359375" lon="-2.54350150935351848602294921875">
        <ele>940.4000244140625</ele>
        <time>2019-07-07T15:23:22.000Z</time>
      </trkpt>
      <trkpt lat="41.51540555991232395172119140625" lon="-2.5434072129428386688232421875">
        <ele>942</ele>
        <time>2019-07-07T15:23:24.000Z</time>
      </trkpt>
      <trkpt lat="41.51629370637238025665283203125" lon="-2.54314963705837726593017578125">
        <ele>942.5999755859375</ele>
        <time>2019-07-07T15:23:26.000Z</time>
      </trkpt>
      <trkpt lat="41.51689301244914531707763671875" lon="-2.54298451356589794158935546875">
        <ele>943</ele>
        <time>2019-07-07T15:23:28.000Z</time>
      </trkpt>
      <trkpt lat="41.51748930104076862335205078125" lon="-2.54283347167074680328369140625">
        <ele>943.20001220703125</ele>
        <time>2019-07-07T15:23:30.000Z</time>
      </trkpt>
      <trkpt lat="41.51807871647179126739501953125" lon="-2.54270288161933422088623046875">
        <ele>943</ele>
        <time>2019-07-07T15:23:32.000Z</time>
      </trkpt>
      <trkpt lat="41.51866343803703784942626953125" lon="-2.542596347630023956298828125">
        <ele>943.20001220703125</ele>
        <time>2019-07-07T15:23:35.000Z</time>
      </trkpt>
      <trkpt lat="41.519245393574237823486328125" lon="-2.542510516941547393798828125">
        <ele>943.20001220703125</ele>
        <time>2019-07-07T15:23:36.000Z</time>
      </trkpt>
      <trkpt lat="41.5195359103381633758544921875" lon="-2.542476318776607513427734375">
        <ele>944.4000244140625</ele>
        <time>2019-07-07T15:23:37.000Z</time>
      </trkpt>
      <trkpt lat="41.5198270976543426513671875" lon="-2.5424483232200145721435546875">
        <ele>945.4000244140625</ele>
        <time>2019-07-07T15:23:38.000Z</time>
      </trkpt>
      <trkpt lat="41.5204099752008914947509765625" lon="-2.54240632988512516021728515625">
        <ele>946.20001220703125</ele>
        <time>2019-07-07T15:23:40.000Z</time>
      </trkpt>
      <trkpt lat="41.5207014977931976318359375" lon="-2.54239283502101898193359375">
        <ele>946.4000244140625</ele>
        <time>2019-07-07T15:23:41.000Z</time>
      </trkpt>
      <trkpt lat="41.52128823101520538330078125" lon="-2.542383782565593719482421875">
        <ele>946.4000244140625</ele>
        <time>2019-07-07T15:23:43.000Z</time>
      </trkpt>
      <trkpt lat="41.52158419601619243621826171875" lon="-2.54238537512719631195068359375">
        <ele>945.20001220703125</ele>
        <time>2019-07-07T15:23:44.000Z</time>
      </trkpt>
      <trkpt lat="41.52218031696975231170654296875" lon="-2.54239819943904876708984375">
        <ele>945.4000244140625</ele>
        <time>2019-07-07T15:23:46.000Z</time>
      </trkpt>
      <trkpt lat="41.522479467093944549560546875" lon="-2.54240691661834716796875">
        <ele>946.79998779296875</ele>
        <time>2019-07-07T15:23:47.000Z</time>
      </trkpt>
      <trkpt lat="41.523073576390743255615234375" lon="-2.54242979921400547027587890625">
        <ele>946.5999755859375</ele>
        <time>2019-07-07T15:23:49.000Z</time>
      </trkpt>
      <trkpt lat="41.52366240508854389190673828125" lon="-2.54245796240866184234619140625">
        <ele>947.20001220703125</ele>
        <time>2019-07-07T15:23:51.000Z</time>
      </trkpt>
      <trkpt lat="41.52395627461373805999755859375" lon="-2.5424738042056560516357421875">
        <ele>947.4000244140625</ele>
        <time>2019-07-07T15:23:52.000Z</time>
      </trkpt>
      <trkpt lat="41.52454485185444355010986328125" lon="-2.5425029732286930084228515625">
        <ele>948.20001220703125</ele>
        <time>2019-07-07T15:23:54.000Z</time>
      </trkpt>
      <trkpt lat="41.5248386375606060028076171875" lon="-2.542509175837039947509765625">
        <ele>950.20001220703125</ele>
        <time>2019-07-07T15:23:55.000Z</time>
      </trkpt>
      <trkpt lat="41.52513175271451473236083984375" lon="-2.54250925965607166290283203125">
        <ele>952</ele>
        <time>2019-07-07T15:23:56.000Z</time>
      </trkpt>
      <trkpt lat="41.52542361058294773101806640625" lon="-2.542507834732532501220703125">
        <ele>954</ele>
        <time>2019-07-07T15:23:58.000Z</time>
      </trkpt>
      <trkpt lat="41.526006571948528289794921875" lon="-2.54247891716659069061279296875">
        <ele>955.20001220703125</ele>
        <time>2019-07-07T15:23:59.000Z</time>
      </trkpt>
      <trkpt lat="41.526297591626644134521484375" lon="-2.5424580462276935577392578125">
        <ele>957</ele>
        <time>2019-07-07T15:24:00.000Z</time>
      </trkpt>
      <trkpt lat="41.52687728404998779296875" lon="-2.54239610396325588226318359375">
        <ele>957.79998779296875</ele>
        <time>2019-07-07T15:24:02.000Z</time>
      </trkpt>
      <trkpt lat="41.52745722793042659759521484375" lon="-2.54230675287544727325439453125">
        <ele>957.79998779296875</ele>
        <time>2019-07-07T15:24:04.000Z</time>
      </trkpt>
      <trkpt lat="41.52803666889667510986328125" lon="-2.54219175316393375396728515625">
        <ele>956</ele>
        <time>2019-07-07T15:24:06.000Z</time>
      </trkpt>
      <trkpt lat="41.528328694403171539306640625" lon="-2.542120926082134246826171875">
        <ele>955.5999755859375</ele>
        <time>2019-07-07T15:24:07.000Z</time>
      </trkpt>
      <trkpt lat="41.5286208875477313995361328125" lon="-2.54204272292554378509521484375">
        <ele>956.5999755859375</ele>
        <time>2019-07-07T15:24:09.000Z</time>
      </trkpt>
      <trkpt lat="41.52920569293200969696044921875" lon="-2.5418632663786411285400390625">
        <ele>958.4000244140625</ele>
        <time>2019-07-07T15:24:10.000Z</time>
      </trkpt>
      <trkpt lat="41.52920569293200969696044921875" lon="-2.5418632663786411285400390625">
        <ele>960.20001220703125</ele>
        <time>2019-07-07T15:24:11.000Z</time>
      </trkpt>
      <trkpt lat="41.529785804450511932373046875" lon="-2.54165598191320896148681640625">
        <ele>961.20001220703125</ele>
        <time>2019-07-07T15:24:12.000Z</time>
      </trkpt>
      <trkpt lat="41.5300691127777099609375" lon="-2.5415454246103763580322265625">
        <ele>962.20001220703125</ele>
        <time>2019-07-07T15:24:13.000Z</time>
      </trkpt>
      <trkpt lat="41.53035099618136882781982421875" lon="-2.54143034107983112335205078125">
        <ele>963.79998779296875</ele>
        <time>2019-07-07T15:24:15.000Z</time>
      </trkpt>
      <trkpt lat="41.530908644199371337890625" lon="-2.5411883555352687835693359375">
        <ele>966</ele>
        <time>2019-07-07T15:24:17.000Z</time>
      </trkpt>
      <trkpt lat="41.53145925141870975494384765625" lon="-2.5409244932234287261962890625">
        <ele>968.20001220703125</ele>
        <time>2019-07-07T15:24:19.000Z</time>
      </trkpt>
      <trkpt lat="41.5319977886974811553955078125" lon="-2.5406421907246112823486328125">
        <ele>967.79998779296875</ele>
        <time>2019-07-07T15:24:20.000Z</time>
      </trkpt>
      <trkpt lat="41.532531045377254486083984375" lon="-2.5403592176735401153564453125">
        <ele>969.20001220703125</ele>
        <time>2019-07-07T15:24:22.000Z</time>
      </trkpt>
      <trkpt lat="41.533062458038330078125" lon="-2.54007314331829547882080078125">
        <ele>970.5999755859375</ele>
        <time>2019-07-07T15:24:24.000Z</time>
      </trkpt>
      <trkpt lat="41.53359445743262767791748046875" lon="-2.53979285247623920440673828125">
        <ele>971.4000244140625</ele>
        <time>2019-07-07T15:24:26.000Z</time>
      </trkpt>
      <trkpt lat="41.53386184014379978179931640625" lon="-2.5396588258445262908935546875">
        <ele>972</ele>
        <time>2019-07-07T15:24:27.000Z</time>
      </trkpt>
      <trkpt lat="41.53439886868000030517578125" lon="-2.53939974121749401092529296875">
        <ele>973.20001220703125</ele>
        <time>2019-07-07T15:24:29.000Z</time>
      </trkpt>
      <trkpt lat="41.5346677601337432861328125" lon="-2.53927133046090602874755859375">
        <ele>974.4000244140625</ele>
        <time>2019-07-07T15:24:31.000Z</time>
      </trkpt>
      <trkpt lat="41.53520462103188037872314453125" lon="-2.53901786170899868011474609375">
        <ele>975.20001220703125</ele>
        <time>2019-07-07T15:24:32.000Z</time>
      </trkpt>
      <trkpt lat="41.535469405353069305419921875" lon="-2.5388964079320430755615234375">
        <ele>976.20001220703125</ele>
        <time>2019-07-07T15:24:33.000Z</time>
      </trkpt>
      <trkpt lat="41.53600576333701610565185546875" lon="-2.5386600382626056671142578125">
        <ele>978.20001220703125</ele>
        <time>2019-07-07T15:24:35.000Z</time>
      </trkpt>
      <trkpt lat="41.53627574443817138671875" lon="-2.53854663111269474029541015625">
        <ele>980</ele>
        <time>2019-07-07T15:24:36.000Z</time>
      </trkpt>
      <trkpt lat="41.53681243769824504852294921875" lon="-2.53833062946796417236328125">
        <ele>979.79998779296875</ele>
        <time>2019-07-07T15:24:38.000Z</time>
      </trkpt>
      <trkpt lat="41.53735139407217502593994140625" lon="-2.538125105202198028564453125">
        <ele>981.20001220703125</ele>
        <time>2019-07-07T15:24:40.000Z</time>
      </trkpt>
      <trkpt lat="41.53789873234927654266357421875" lon="-2.53792561590671539306640625">
        <ele>981.4000244140625</ele>
        <time>2019-07-07T15:24:42.000Z</time>
      </trkpt>
      <trkpt lat="41.53818078339099884033203125" lon="-2.5378252007067203521728515625">
        <ele>982.20001220703125</ele>
        <time>2019-07-07T15:24:43.000Z</time>
      </trkpt>
      <trkpt lat="41.53875083662569522857666015625" lon="-2.53762830980122089385986328125">
        <ele>984.5999755859375</ele>
        <time>2019-07-07T15:24:45.000Z</time>
      </trkpt>
      <trkpt lat="41.53875083662569522857666015625" lon="-2.53762830980122089385986328125">
        <ele>986.5999755859375</ele>
        <time>2019-07-07T15:24:46.000Z</time>
      </trkpt>
      <trkpt lat="41.53933287598192691802978515625" lon="-2.537442483007907867431640625">
        <ele>990.79998779296875</ele>
        <time>2019-07-07T15:24:47.000Z</time>
      </trkpt>
      <trkpt lat="41.53962649405002593994140625" lon="-2.5373531319200992584228515625">
        <ele>993.79998779296875</ele>
        <time>2019-07-07T15:24:48.000Z</time>
      </trkpt>
      <trkpt lat="41.53992262668907642364501953125" lon="-2.537266127765178680419921875">
        <ele>995.20001220703125</ele>
        <time>2019-07-07T15:24:49.000Z</time>
      </trkpt>
      <trkpt lat="41.54022018425166606903076171875" lon="-2.53718172200024127960205078125">
        <ele>996.20001220703125</ele>
        <time>2019-07-07T15:24:50.000Z</time>
      </trkpt>
      <trkpt lat="41.5405205078423023223876953125" lon="-2.53710083663463592529296875">
        <ele>997.79998779296875</ele>
        <time>2019-07-07T15:24:51.000Z</time>
      </trkpt>
      <trkpt lat="41.5405205078423023223876953125" lon="-2.53710083663463592529296875">
        <ele>999.4000244140625</ele>
        <time>2019-07-07T15:24:52.000Z</time>
      </trkpt>
      <trkpt lat="41.5411233343183994293212890625" lon="-2.5369434244930744171142578125">
        <ele>1000</ele>
        <time>2019-07-07T15:24:53.000Z</time>
      </trkpt>
      <trkpt lat="41.5417271666228771209716796875" lon="-2.5367858447134494781494140625">
        <ele>1000.79998779296875</ele>
        <time>2019-07-07T15:24:55.000Z</time>
      </trkpt>
      <trkpt lat="41.54202966950833797454833984375" lon="-2.53670495934784412384033203125">
        <ele>1002.5999755859375</ele>
        <time>2019-07-07T15:24:57.000Z</time>
      </trkpt>
      <trkpt lat="41.5429254435002803802490234375" lon="-2.53645869903266429901123046875">
        <ele>1001.79998779296875</ele>
        <time>2019-07-07T15:24:59.000Z</time>
      </trkpt>
      <trkpt lat="41.543510667979717254638671875" lon="-2.53630413673818111419677734375">
        <ele>1002</ele>
        <time>2019-07-07T15:25:01.000Z</time>
      </trkpt>
      <trkpt lat="41.5443792007863521575927734375" lon="-2.5360864587128162384033203125">
        <ele>1002</ele>
        <time>2019-07-07T15:25:04.000Z</time>
      </trkpt>
      <trkpt lat="41.544955708086490631103515625" lon="-2.5359546951949596405029296875">
        <ele>1006.20001220703125</ele>
        <time>2019-07-07T15:25:06.000Z</time>
      </trkpt>
      <trkpt lat="41.54524513520300388336181640625" lon="-2.53590197302401065826416015625">
        <ele>1007.79998779296875</ele>
        <time>2019-07-07T15:25:07.000Z</time>
      </trkpt>
      <trkpt lat="41.54553514905273914337158203125" lon="-2.5358648411929607391357421875">
        <ele>1009.79998779296875</ele>
        <time>2019-07-07T15:25:09.000Z</time>
      </trkpt>
      <trkpt lat="41.54611920006573200225830078125" lon="-2.53583349287509918212890625">
        <ele>1010.4000244140625</ele>
        <time>2019-07-07T15:25:10.000Z</time>
      </trkpt>
      <trkpt lat="41.54641055501997470855712890625" lon="-2.53583240322768688201904296875">
        <ele>1010.79998779296875</ele>
        <time>2019-07-07T15:25:12.000Z</time>
      </trkpt>
      <trkpt lat="41.5469898283481597900390625" lon="-2.53585704602301120758056640625">
        <ele>1010.79998779296875</ele>
        <time>2019-07-07T15:25:14.000Z</time>
      </trkpt>
      <trkpt lat="41.547560803592205047607421875" lon="-2.5359248556196689605712890625">
        <ele>1010.79998779296875</ele>
        <time>2019-07-07T15:25:15.000Z</time>
      </trkpt>
      <trkpt lat="41.547560803592205047607421875" lon="-2.5359248556196689605712890625">
        <ele>1012</ele>
        <time>2019-07-07T15:25:16.000Z</time>
      </trkpt>
      <trkpt lat="41.54812733642756938934326171875" lon="-2.5360462255775928497314453125">
        <ele>1012.79998779296875</ele>
        <time>2019-07-07T15:25:18.000Z</time>
      </trkpt>
      <trkpt lat="41.54869101941585540771484375" lon="-2.53622584976255893707275390625">
        <ele>1013</ele>
        <time>2019-07-07T15:25:19.000Z</time>
      </trkpt>
      <trkpt lat="41.549257300794124603271484375" lon="-2.53643791191279888153076171875">
        <ele>1013.4000244140625</ele>
        <time>2019-07-07T15:25:21.000Z</time>
      </trkpt>
      <trkpt lat="41.54981754720211029052734375" lon="-2.53668836317956447601318359375">
        <ele>1014.5999755859375</ele>
        <time>2019-07-07T15:25:24.000Z</time>
      </trkpt>
      <trkpt lat="41.55009507201611995697021484375" lon="-2.536835633218288421630859375">
        <ele>1016</ele>
        <time>2019-07-07T15:25:25.000Z</time>
      </trkpt>
      <trkpt lat="41.5506414882838726043701171875" lon="-2.5371670536696910858154296875">
        <ele>1018</ele>
        <time>2019-07-07T15:25:26.000Z</time>
      </trkpt>
      <trkpt lat="41.55117952264845371246337890625" lon="-2.53753594122827053070068359375">
        <ele>1017.4000244140625</ele>
        <time>2019-07-07T15:25:28.000Z</time>
      </trkpt>
      <trkpt lat="41.55171697027981281280517578125" lon="-2.53792871721088886260986328125">
        <ele>1018.20001220703125</ele>
        <time>2019-07-07T15:25:30.000Z</time>
      </trkpt>
      <trkpt lat="41.552253663539886474609375" lon="-2.53831462003290653228759765625">
        <ele>1018.5999755859375</ele>
        <time>2019-07-07T15:25:32.000Z</time>
      </trkpt>
      <trkpt lat="41.55279655940830707550048828125" lon="-2.53868929110467433929443359375">
        <ele>1015.20001220703125</ele>
        <time>2019-07-07T15:25:34.000Z</time>
      </trkpt>
      <trkpt lat="41.55306930653750896453857421875" lon="-2.53886966966092586517333984375">
        <ele>1016.79998779296875</ele>
        <time>2019-07-07T15:25:35.000Z</time>
      </trkpt>
      <trkpt lat="41.55306930653750896453857421875" lon="-2.53886966966092586517333984375">
        <ele>1018.5999755859375</ele>
        <time>2019-07-07T15:25:36.000Z</time>
      </trkpt>
      <trkpt lat="41.553618572652339935302734375" lon="-2.5392189435660839080810546875">
        <ele>1017.79998779296875</ele>
        <time>2019-07-07T15:25:38.000Z</time>
      </trkpt>
      <trkpt lat="41.5541799925267696380615234375" lon="-2.53954374231398105621337890625">
        <ele>1016.20001220703125</ele>
        <time>2019-07-07T15:25:39.000Z</time>
      </trkpt>
      <trkpt lat="41.55475188978016376495361328125" lon="-2.539844401180744171142578125">
        <ele>1015.4000244140625</ele>
        <time>2019-07-07T15:25:42.000Z</time>
      </trkpt>
      <trkpt lat="41.5550406463444232940673828125" lon="-2.5399820320308208465576171875">
        <ele>1013.79998779296875</ele>
        <time>2019-07-07T15:25:43.000Z</time>
      </trkpt>
      <trkpt lat="41.5556293912231922149658203125" lon="-2.54022804088890552520751953125">
        <ele>1013.20001220703125</ele>
        <time>2019-07-07T15:25:44.000Z</time>
      </trkpt>
      <trkpt lat="41.5559271164238452911376953125" lon="-2.540343292057514190673828125">
        <ele>1011.79998779296875</ele>
        <time>2019-07-07T15:25:45.000Z</time>
      </trkpt>
      <trkpt lat="41.55622777529060840606689453125" lon="-2.540454603731632232666015625">
        <ele>1016</ele>
        <time>2019-07-07T15:25:47.000Z</time>
      </trkpt>
      <trkpt lat="41.55683244578540325164794921875" lon="-2.540667168796062469482421875">
        <ele>1020.5999755859375</ele>
        <time>2019-07-07T15:25:48.000Z</time>
      </trkpt>
      <trkpt lat="41.55683244578540325164794921875" lon="-2.540667168796062469482421875">
        <ele>1023.4000244140625</ele>
        <time>2019-07-07T15:25:49.000Z</time>
      </trkpt>
      <trkpt lat="41.55744113959372043609619140625" lon="-2.54086758010089397430419921875">
        <ele>1026.5999755859375</ele>
        <time>2019-07-07T15:25:50.000Z</time>
      </trkpt>
      <trkpt lat="41.5580500848591327667236328125" lon="-2.54105919040739536285400390625">
        <ele>1027.5999755859375</ele>
        <time>2019-07-07T15:25:52.000Z</time>
      </trkpt>
      <trkpt lat="41.55865903012454509735107421875" lon="-2.5412533991038799285888671875">
        <ele>1027.4000244140625</ele>
        <time>2019-07-07T15:25:54.000Z</time>
      </trkpt>
      <trkpt lat="41.55927157960832118988037109375" lon="-2.54144894890487194061279296875">
        <ele>1026.4000244140625</ele>
        <time>2019-07-07T15:25:56.000Z</time>
      </trkpt>
      <trkpt lat="41.55988798476755619049072265625" lon="-2.5416446663439273834228515625">
        <ele>1026.5999755859375</ele>
        <time>2019-07-07T15:25:59.000Z</time>
      </trkpt>
      <trkpt lat="41.56050078570842742919921875" lon="-2.5418357737362384796142578125">
        <ele>1027</ele>
        <time>2019-07-07T15:26:00.000Z</time>
      </trkpt>
      <trkpt lat="41.56110503710806369781494140625" lon="-2.542026042938232421875">
        <ele>1027.4000244140625</ele>
        <time>2019-07-07T15:26:02.000Z</time>
      </trkpt>
      <trkpt lat="41.5614040195941925048828125" lon="-2.54211983643472194671630859375">
        <ele>1027.4000244140625</ele>
        <time>2019-07-07T15:26:03.000Z</time>
      </trkpt>
      <trkpt lat="41.56199502758681774139404296875" lon="-2.5423028133809566497802734375">
        <ele>1026</ele>
        <time>2019-07-07T15:26:05.000Z</time>
      </trkpt>
      <trkpt lat="41.562575139105319976806640625" lon="-2.54248763434588909149169921875">
        <ele>1025</ele>
        <time>2019-07-07T15:26:07.000Z</time>
      </trkpt>
      <trkpt lat="41.5631549991667270660400390625" lon="-2.5426515005528926849365234375">
        <ele>1024.5999755859375</ele>
        <time>2019-07-07T15:26:10.000Z</time>
      </trkpt>
      <trkpt lat="41.563733853399753570556640625" lon="-2.5427762232720851898193359375">
        <ele>1026.199951171875</ele>
        <time>2019-07-07T15:26:12.000Z</time>
      </trkpt>
      <trkpt lat="41.56431128270924091339111328125" lon="-2.542860545217990875244140625">
        <ele>1027.800048828125</ele>
        <time>2019-07-07T15:26:13.000Z</time>
      </trkpt>
      <trkpt lat="41.56459987163543701171875" lon="-2.54288862459361553192138671875">
        <ele>1029</ele>
        <time>2019-07-07T15:26:14.000Z</time>
      </trkpt>
      <trkpt lat="41.56488887965679168701171875" lon="-2.54291175864636898040771484375">
        <ele>1030.5999755859375</ele>
        <time>2019-07-07T15:26:16.000Z</time>
      </trkpt>
      <trkpt lat="41.56546899117529392242431640625" lon="-2.54292634315788745880126953125">
        <ele>1030.199951171875</ele>
        <time>2019-07-07T15:26:18.000Z</time>
      </trkpt>
      <trkpt lat="41.5660484321415424346923828125" lon="-2.54289533011615276336669921875">
        <ele>1031.5999755859375</ele>
        <time>2019-07-07T15:26:20.000Z</time>
      </trkpt>
      <trkpt lat="41.56662787310779094696044921875" lon="-2.54282710142433643341064453125">
        <ele>1032.4000244140625</ele>
        <time>2019-07-07T15:26:21.000Z</time>
      </trkpt>
      <trkpt lat="41.56749355606734752655029296875" lon="-2.54265527240931987762451171875">
        <ele>1032.5999755859375</ele>
        <time>2019-07-07T15:26:24.000Z</time>
      </trkpt>
      <trkpt lat="41.56778155826032161712646484375" lon="-2.542575895786285400390625">
        <ele>1035</ele>
        <time>2019-07-07T15:26:26.000Z</time>
      </trkpt>
      <trkpt lat="41.56835605390369892120361328125" lon="-2.54238470457494258880615234375">
        <ele>1037.800048828125</ele>
        <time>2019-07-07T15:26:28.000Z</time>
      </trkpt>
      <trkpt lat="41.56864221207797527313232421875" lon="-2.542275488376617431640625">
        <ele>1039.5999755859375</ele>
        <time>2019-07-07T15:26:29.000Z</time>
      </trkpt>
      <trkpt lat="41.56892619095742702484130859375" lon="-2.54215420223772525787353515625">
        <ele>1040.800048828125</ele>
        <time>2019-07-07T15:26:30.000Z</time>
      </trkpt>
      <trkpt lat="41.5694930590689182281494140625" lon="-2.54188832826912403106689453125">
        <ele>1041.800048828125</ele>
        <time>2019-07-07T15:26:32.000Z</time>
      </trkpt>
      <trkpt lat="41.5700526349246501922607421875" lon="-2.54158549010753631591796875">
        <ele>1042.4000244140625</ele>
        <time>2019-07-07T15:26:34.000Z</time>
      </trkpt>
      <trkpt lat="41.5706014819443225860595703125" lon="-2.54122951067984104156494140625">
        <ele>1042.5999755859375</ele>
        <time>2019-07-07T15:26:36.000Z</time>
      </trkpt>
      <trkpt lat="41.57113800756633281707763671875" lon="-2.5408257544040679931640625">
        <ele>1043.199951171875</ele>
        <time>2019-07-07T15:26:38.000Z</time>
      </trkpt>
      <trkpt lat="41.5716626308858394622802734375" lon="-2.54038578830659389495849609375">
        <ele>1043.4000244140625</ele>
        <time>2019-07-07T15:26:40.000Z</time>
      </trkpt>
      <trkpt lat="41.57217250205576419830322265625" lon="-2.5399133004248142242431640625">
        <ele>1044.199951171875</ele>
        <time>2019-07-07T15:26:42.000Z</time>
      </trkpt>
      <trkpt lat="41.57266636379063129425048828125" lon="-2.53940158523619174957275390625">
        <ele>1045.5999755859375</ele>
        <time>2019-07-07T15:26:44.000Z</time>
      </trkpt>
      <trkpt lat="41.57314178533852100372314453125" lon="-2.53884754143655300140380859375">
        <ele>1044.5999755859375</ele>
        <time>2019-07-07T15:26:46.000Z</time>
      </trkpt>
      <trkpt lat="41.57336994074285030364990234375" lon="-2.53855618648231029510498046875">
        <ele>1041.4000244140625</ele>
        <time>2019-07-07T15:26:47.000Z</time>
      </trkpt>
      <trkpt lat="41.57380915246903896331787109375" lon="-2.53794631920754909515380859375">
        <ele>1037.4000244140625</ele>
        <time>2019-07-07T15:26:48.000Z</time>
      </trkpt>
      <trkpt lat="41.57380915246903896331787109375" lon="-2.53794631920754909515380859375">
        <ele>1033.800048828125</ele>
        <time>2019-07-07T15:26:49.000Z</time>
      </trkpt>
      <trkpt lat="41.57423227094113826751708984375" lon="-2.53731549717485904693603515625">
        <ele>1030.4000244140625</ele>
        <time>2019-07-07T15:26:50.000Z</time>
      </trkpt>
      <trkpt lat="41.57443930394947528839111328125" lon="-2.53699748776853084564208984375">
        <ele>1027</ele>
        <time>2019-07-07T15:26:51.000Z</time>
      </trkpt>
      <trkpt lat="41.57443930394947528839111328125" lon="-2.53699748776853084564208984375">
        <ele>1024.4000244140625</ele>
        <time>2019-07-07T15:26:52.000Z</time>
      </trkpt>
      <trkpt lat="41.57464633695781230926513671875" lon="-2.536679394543170928955078125">
        <ele>1021</ele>
        <time>2019-07-07T15:26:53.000Z</time>
      </trkpt>
      <trkpt lat="41.57506526447832584381103515625" lon="-2.53604999743402004241943359375">
        <ele>1020</ele>
        <time>2019-07-07T15:26:54.000Z</time>
      </trkpt>
      <trkpt lat="41.57506526447832584381103515625" lon="-2.53604999743402004241943359375">
        <ele>1018</ele>
        <time>2019-07-07T15:26:55.000Z</time>
      </trkpt>
      <trkpt lat="41.575483269989490509033203125" lon="-2.53543241880834102630615234375">
        <ele>1016</ele>
        <time>2019-07-07T15:26:56.000Z</time>
      </trkpt>
      <trkpt lat="41.57590161077678203582763671875" lon="-2.53483814187347888946533203125">
        <ele>1018.20001220703125</ele>
        <time>2019-07-07T15:26:59.000Z</time>
      </trkpt>
      <trkpt lat="41.57611115835607051849365234375" lon="-2.5345545820891857147216796875">
        <ele>1021</ele>
        <time>2019-07-07T15:27:00.000Z</time>
      </trkpt>
      <trkpt lat="41.57632120884954929351806640625" lon="-2.53428074531257152557373046875">
        <ele>1023.4000244140625</ele>
        <time>2019-07-07T15:27:01.000Z</time>
      </trkpt>
      <trkpt lat="41.57653427682816982269287109375" lon="-2.5340151228010654449462890625">
        <ele>1026.5999755859375</ele>
        <time>2019-07-07T15:27:02.000Z</time>
      </trkpt>
      <trkpt lat="41.57675036229193210601806640625" lon="-2.53375620581209659576416015625">
        <ele>1029</ele>
        <time>2019-07-07T15:27:03.000Z</time>
      </trkpt>
      <trkpt lat="41.57696954905986785888671875" lon="-2.53350139595568180084228515625">
        <ele>1030.800048828125</ele>
        <time>2019-07-07T15:27:04.000Z</time>
      </trkpt>
      <trkpt lat="41.5776399336755275726318359375" lon="-2.53276613540947437286376953125">
        <ele>1032.800048828125</ele>
        <time>2019-07-07T15:27:06.000Z</time>
      </trkpt>
      <trkpt lat="41.57810118980705738067626953125" lon="-2.5322944857180118560791015625">
        <ele>1031.5999755859375</ele>
        <time>2019-07-07T15:27:08.000Z</time>
      </trkpt>
      <trkpt lat="41.57810118980705738067626953125" lon="-2.5322944857180118560791015625">
        <ele>1030</ele>
        <time>2019-07-07T15:27:09.000Z</time>
      </trkpt>
      <trkpt lat="41.5785723365843296051025390625" lon="-2.5318443775177001953125">
        <ele>1027.800048828125</ele>
        <time>2019-07-07T15:27:10.000Z</time>
      </trkpt>
      <trkpt lat="41.5785723365843296051025390625" lon="-2.5318443775177001953125">
        <ele>1026.199951171875</ele>
        <time>2019-07-07T15:27:11.000Z</time>
      </trkpt>
      <trkpt lat="41.57905320636928081512451171875" lon="-2.53140726126730442047119140625">
        <ele>1025.800048828125</ele>
        <time>2019-07-07T15:27:12.000Z</time>
      </trkpt>
      <trkpt lat="41.5792992152273654937744140625" lon="-2.53119461238384246826171875">
        <ele>1025</ele>
        <time>2019-07-07T15:27:14.000Z</time>
      </trkpt>
      <trkpt lat="41.5798048116266727447509765625" lon="-2.53078825771808624267578125">
        <ele>1025.4000244140625</ele>
        <time>2019-07-07T15:27:16.000Z</time>
      </trkpt>
      <trkpt lat="41.5803305245935916900634765625" lon="-2.53040394745767116546630859375">
        <ele>1025.4000244140625</ele>
        <time>2019-07-07T15:27:17.000Z</time>
      </trkpt>
      <trkpt lat="41.581129990518093109130859375" lon="-2.5298530049622058868408203125">
        <ele>1026.5999755859375</ele>
        <time>2019-07-07T15:27:20.000Z</time>
      </trkpt>
      <trkpt lat="41.581129990518093109130859375" lon="-2.5298530049622058868408203125">
        <ele>1027.5999755859375</ele>
        <time>2019-07-07T15:27:21.000Z</time>
      </trkpt>
      <trkpt lat="41.58167682588100433349609375" lon="-2.5295090116560459136962890625">
        <ele>1029.5999755859375</ele>
        <time>2019-07-07T15:27:22.000Z</time>
      </trkpt>
      <trkpt lat="41.58195485360920429229736328125" lon="-2.52934330143034458160400390625">
        <ele>1030.5999755859375</ele>
        <time>2019-07-07T15:27:23.000Z</time>
      </trkpt>
      <trkpt lat="41.58223547972738742828369140625" lon="-2.5291777588427066802978515625">
        <ele>1031.5999755859375</ele>
        <time>2019-07-07T15:27:24.000Z</time>
      </trkpt>
      <trkpt lat="41.58251761458814144134521484375" lon="-2.529010958969593048095703125">
        <ele>1034</ele>
        <time>2019-07-07T15:27:25.000Z</time>
      </trkpt>
      <trkpt lat="41.58251761458814144134521484375" lon="-2.529010958969593048095703125">
        <ele>1035.199951171875</ele>
        <time>2019-07-07T15:27:26.000Z</time>
      </trkpt>
      <trkpt lat="41.58280159346759319305419921875" lon="-2.528843320906162261962890625">
        <ele>1037</ele>
        <time>2019-07-07T15:27:27.000Z</time>
      </trkpt>
      <trkpt lat="41.58337608911097049713134765625" lon="-2.52850293181836605072021484375">
        <ele>1039</ele>
        <time>2019-07-07T15:27:28.000Z</time>
      </trkpt>
      <trkpt lat="41.58395678736269474029541015625" lon="-2.52814200706779956817626953125">
        <ele>1040.800048828125</ele>
        <time>2019-07-07T15:27:30.000Z</time>
      </trkpt>
      <trkpt lat="41.584535725414752960205078125" lon="-2.52776197157800197601318359375">
        <ele>1042.5999755859375</ele>
        <time>2019-07-07T15:27:32.000Z</time>
      </trkpt>
      <trkpt lat="41.5851196087896823883056640625" lon="-2.5273665972054004669189453125">
        <ele>1041.800048828125</ele>
        <time>2019-07-07T15:27:34.000Z</time>
      </trkpt>
      <trkpt lat="41.58541188575327396392822265625" lon="-2.52716182731091976165771484375">
        <ele>1040.5999755859375</ele>
        <time>2019-07-07T15:27:35.000Z</time>
      </trkpt>
      <trkpt lat="41.58570324070751667022705078125" lon="-2.52695244736969470977783203125">
        <ele>1042</ele>
        <time>2019-07-07T15:27:37.000Z</time>
      </trkpt>
      <trkpt lat="41.5862860344350337982177734375" lon="-2.5265257246792316436767578125">
        <ele>1042</ele>
        <time>2019-07-07T15:27:38.000Z</time>
      </trkpt>
      <trkpt lat="41.58657613210380077362060546875" lon="-2.5263069570064544677734375">
        <ele>1039.199951171875</ele>
        <time>2019-07-07T15:27:39.000Z</time>
      </trkpt>
      <trkpt lat="41.58657613210380077362060546875" lon="-2.5263069570064544677734375">
        <ele>1036.800048828125</ele>
        <time>2019-07-07T15:27:40.000Z</time>
      </trkpt>
      <trkpt lat="41.58686614595353603363037109375" lon="-2.5260855071246623992919921875">
        <ele>1035.5999755859375</ele>
        <time>2019-07-07T15:27:41.000Z</time>
      </trkpt>
      <trkpt lat="41.5871564112603664398193359375" lon="-2.525862045586109161376953125">
        <ele>1034.199951171875</ele>
        <time>2019-07-07T15:27:42.000Z</time>
      </trkpt>
      <trkpt lat="41.58744617365300655364990234375" lon="-2.525635398924350738525390625">
        <ele>1033</ele>
        <time>2019-07-07T15:27:43.000Z</time>
      </trkpt>
      <trkpt lat="41.5883027203381061553955078125" lon="-2.52493777312338352203369140625">
        <ele>1032.4000244140625</ele>
        <time>2019-07-07T15:27:45.000Z</time>
      </trkpt>
      <trkpt lat="41.5888629667460918426513671875" lon="-2.52446469850838184356689453125">
        <ele>1031.199951171875</ele>
        <time>2019-07-07T15:27:47.000Z</time>
      </trkpt>
      <trkpt lat="41.5888629667460918426513671875" lon="-2.52446469850838184356689453125">
        <ele>1032.5999755859375</ele>
        <time>2019-07-07T15:27:48.000Z</time>
      </trkpt>
      <trkpt lat="41.5891362167894840240478515625" lon="-2.524225898087024688720703125">
        <ele>1036.800048828125</ele>
        <time>2019-07-07T15:27:49.000Z</time>
      </trkpt>
      <trkpt lat="41.5896723233163356781005859375" lon="-2.52375676296651363372802734375">
        <ele>1043.199951171875</ele>
        <time>2019-07-07T15:27:50.000Z</time>
      </trkpt>
      <trkpt lat="41.5899365209043025970458984375" lon="-2.52352860756218433380126953125">
        <ele>1044.800048828125</ele>
        <time>2019-07-07T15:27:51.000Z</time>
      </trkpt>
      <trkpt lat="41.5899365209043025970458984375" lon="-2.52352860756218433380126953125">
        <ele>1043.5999755859375</ele>
        <time>2019-07-07T15:27:52.000Z</time>
      </trkpt>
      <trkpt lat="41.59045963548123836517333984375" lon="-2.5230844505131244659423828125">
        <ele>1044.800048828125</ele>
        <time>2019-07-07T15:27:53.000Z</time>
      </trkpt>
      <trkpt lat="41.590983085334300994873046875" lon="-2.5226618349552154541015625">
        <ele>1043.199951171875</ele>
        <time>2019-07-07T15:27:55.000Z</time>
      </trkpt>
      <trkpt lat="41.5912477858364582061767578125" lon="-2.522457651793956756591796875">
        <ele>1042.199951171875</ele>
        <time>2019-07-07T15:27:56.000Z</time>
      </trkpt>
      <trkpt lat="41.59178364090621471405029296875" lon="-2.52206143923103809356689453125">
        <ele>1043.800048828125</ele>
        <time>2019-07-07T15:27:59.000Z</time>
      </trkpt>
      <trkpt lat="41.59261059947311878204345703125" lon="-2.52149733714759349822998046875">
        <ele>1044.4000244140625</ele>
        <time>2019-07-07T15:28:01.000Z</time>
      </trkpt>
      <trkpt lat="41.59261059947311878204345703125" lon="-2.52149733714759349822998046875">
        <ele>1045.199951171875</ele>
        <time>2019-07-07T15:28:02.000Z</time>
      </trkpt>
      <trkpt lat="41.593175791203975677490234375" lon="-2.52114546485245227813720703125">
        <ele>1047.199951171875</ele>
        <time>2019-07-07T15:28:04.000Z</time>
      </trkpt>
      <trkpt lat="41.59375741146504878997802734375" lon="-2.52082259394228458404541015625">
        <ele>1047.800048828125</ele>
        <time>2019-07-07T15:28:05.000Z</time>
      </trkpt>
      <trkpt lat="41.59435085020959377288818359375" lon="-2.52052151598036289215087890625">
        <ele>1048.5999755859375</ele>
        <time>2019-07-07T15:28:07.000Z</time>
      </trkpt>
      <trkpt lat="41.59465201199054718017578125" lon="-2.5203757546842098236083984375">
        <ele>1049.5999755859375</ele>
        <time>2019-07-07T15:28:08.000Z</time>
      </trkpt>
      <trkpt lat="41.59495510160923004150390625" lon="-2.52023133449256420135498046875">
        <ele>1051.800048828125</ele>
        <time>2019-07-07T15:28:09.000Z</time>
      </trkpt>
      <trkpt lat="41.59495510160923004150390625" lon="-2.52023133449256420135498046875">
        <ele>1053</ele>
        <time>2019-07-07T15:28:10.000Z</time>
      </trkpt>
      <trkpt lat="41.595872752368450164794921875" lon="-2.51983084715902805328369140625">
        <ele>1053</ele>
        <time>2019-07-07T15:28:12.000Z</time>
      </trkpt>
      <trkpt lat="41.59617743454873561859130859375" lon="-2.51971165649592876434326171875">
        <ele>1054.800048828125</ele>
        <time>2019-07-07T15:28:13.000Z</time>
      </trkpt>
      <trkpt lat="41.5964814461767673492431640625" lon="-2.519600428640842437744140625">
        <ele>1058.199951171875</ele>
        <time>2019-07-07T15:28:14.000Z</time>
      </trkpt>
      <trkpt lat="41.59709039144217967987060546875" lon="-2.51940219663083553314208984375">
        <ele>1057.4000244140625</ele>
        <time>2019-07-07T15:28:16.000Z</time>
      </trkpt>
      <trkpt lat="41.59771048463881015777587890625" lon="-2.51923019997775554656982421875">
        <ele>1061.199951171875</ele>
        <time>2019-07-07T15:28:18.000Z</time>
      </trkpt>
      <trkpt lat="41.59771048463881015777587890625" lon="-2.51923019997775554656982421875">
        <ele>1063.800048828125</ele>
        <time>2019-07-07T15:28:19.000Z</time>
      </trkpt>
      <trkpt lat="41.598341725766658782958984375" lon="-2.5190695188939571380615234375">
        <ele>1065.4000244140625</ele>
        <time>2019-07-07T15:28:20.000Z</time>
      </trkpt>
      <trkpt lat="41.59866216592490673065185546875" lon="-2.518990226089954376220703125">
        <ele>1066.4000244140625</ele>
        <time>2019-07-07T15:28:22.000Z</time>
      </trkpt>
      <trkpt lat="41.599303297698497772216796875" lon="-2.51883608289062976837158203125">
        <ele>1067.800048828125</ele>
        <time>2019-07-07T15:28:24.000Z</time>
      </trkpt>
      <trkpt lat="41.60026344470679759979248046875" lon="-2.51859904266893863677978515625">
        <ele>1066.800048828125</ele>
        <time>2019-07-07T15:28:26.000Z</time>
      </trkpt>
      <trkpt lat="41.60026344470679759979248046875" lon="-2.51859904266893863677978515625">
        <ele>1066.4000244140625</ele>
        <time>2019-07-07T15:28:27.000Z</time>
      </trkpt>
      <trkpt lat="41.600893177092075347900390625" lon="-2.51844204962253570556640625">
        <ele>1065.199951171875</ele>
        <time>2019-07-07T15:28:28.000Z</time>
      </trkpt>
      <trkpt lat="41.6015105880796909332275390625" lon="-2.51828790642321109771728515625">
        <ele>1063.800048828125</ele>
        <time>2019-07-07T15:28:30.000Z</time>
      </trkpt>
      <trkpt lat="41.60181543789803981781005859375" lon="-2.51821163110435009002685546875">
        <ele>1062.5999755859375</ele>
        <time>2019-07-07T15:28:31.000Z</time>
      </trkpt>
      <trkpt lat="41.6021197848021984100341796875" lon="-2.5181364454329013824462890625">
        <ele>1061.199951171875</ele>
        <time>2019-07-07T15:28:33.000Z</time>
      </trkpt>
      <trkpt lat="41.60303634591400623321533203125" lon="-2.51791725866496562957763671875">
        <ele>1059.4000244140625</ele>
        <time>2019-07-07T15:28:35.000Z</time>
      </trkpt>
      <trkpt lat="41.6036432795226573944091796875" lon="-2.517781555652618408203125">
        <ele>1056.800048828125</ele>
        <time>2019-07-07T15:28:37.000Z</time>
      </trkpt>
      <trkpt lat="41.60425390116870403289794921875" lon="-2.51763378269970417022705078125">
        <ele>1054</ele>
        <time>2019-07-07T15:28:39.000Z</time>
      </trkpt>
      <trkpt lat="41.604557745158672332763671875" lon="-2.51755566336214542388916015625">
        <ele>1050.199951171875</ele>
        <time>2019-07-07T15:28:40.000Z</time>
      </trkpt>
      <trkpt lat="41.6048616729676723480224609375" lon="-2.5174789689481258392333984375">
        <ele>1046.5999755859375</ele>
        <time>2019-07-07T15:28:41.000Z</time>
      </trkpt>
      <trkpt lat="41.60516635514795780181884765625" lon="-2.51740629784762859344482421875">
        <ele>1044.5999755859375</ele>
        <time>2019-07-07T15:28:42.000Z</time>
      </trkpt>
      <trkpt lat="41.60516635514795780181884765625" lon="-2.51740629784762859344482421875">
        <ele>1043</ele>
        <time>2019-07-07T15:28:43.000Z</time>
      </trkpt>
      <trkpt lat="41.60577890463173389434814453125" lon="-2.51726464368402957916259765625">
        <ele>1042</ele>
        <time>2019-07-07T15:28:44.000Z</time>
      </trkpt>
      <trkpt lat="41.6060844250023365020751953125" lon="-2.5171936489641666412353515625">
        <ele>1041.5999755859375</ele>
        <time>2019-07-07T15:28:45.000Z</time>
      </trkpt>
      <trkpt lat="41.606694795191287994384765625" lon="-2.5170464627444744110107421875">
        <ele>1040.800048828125</ele>
        <time>2019-07-07T15:28:47.000Z</time>
      </trkpt>
      <trkpt lat="41.60700090229511260986328125" lon="-2.51697085797786712646484375">
        <ele>1040.199951171875</ele>
        <time>2019-07-07T15:28:48.000Z</time>
      </trkpt>
      <trkpt lat="41.6076132841408252716064453125" lon="-2.5168161280453205108642578125">
        <ele>1039.199951171875</ele>
        <time>2019-07-07T15:28:50.000Z</time>
      </trkpt>
      <trkpt lat="41.60791981033980846405029296875" lon="-2.51674043945968151092529296875">
        <ele>1038.5999755859375</ele>
        <time>2019-07-07T15:28:51.000Z</time>
      </trkpt>
      <trkpt lat="41.60791981033980846405029296875" lon="-2.51674043945968151092529296875">
        <ele>1037.5999755859375</ele>
        <time>2019-07-07T15:28:52.000Z</time>
      </trkpt>
      <trkpt lat="41.6085336171090602874755859375" lon="-2.5165866315364837646484375">
        <ele>1034</ele>
        <time>2019-07-07T15:28:53.000Z</time>
      </trkpt>
      <trkpt lat="41.6085336171090602874755859375" lon="-2.5165866315364837646484375">
        <ele>1026.5999755859375</ele>
        <time>2019-07-07T15:28:54.000Z</time>
      </trkpt>
      <trkpt lat="41.60884131677448749542236328125" lon="-2.51651245169341564178466796875">
        <ele>1017.79998779296875</ele>
        <time>2019-07-07T15:28:55.000Z</time>
      </trkpt>
      <trkpt lat="41.6094556264579296112060546875" lon="-2.51636124216020107269287109375">
        <ele>1010</ele>
        <time>2019-07-07T15:28:56.000Z</time>
      </trkpt>
      <trkpt lat="41.60976148210465908050537109375" lon="-2.51628647558391094207763671875">
        <ele>1005.4000244140625</ele>
        <time>2019-07-07T15:28:57.000Z</time>
      </trkpt>
      <trkpt lat="41.61006876267492771148681640625" lon="-2.5162136368453502655029296875">
        <ele>1003.20001220703125</ele>
        <time>2019-07-07T15:28:58.000Z</time>
      </trkpt>
      <trkpt lat="41.61037721671164035797119140625" lon="-2.51614272594451904296875">
        <ele>1001.5999755859375</ele>
        <time>2019-07-07T15:28:59.000Z</time>
      </trkpt>
      <trkpt lat="41.6109925322234630584716796875" lon="-2.51600719057023525238037109375">
        <ele>1000.5999755859375</ele>
        <time>2019-07-07T15:29:01.000Z</time>
      </trkpt>
      <trkpt lat="41.6109925322234630584716796875" lon="-2.51600719057023525238037109375">
        <ele>1000.20001220703125</ele>
        <time>2019-07-07T15:29:02.000Z</time>
      </trkpt>
      <trkpt lat="41.6116067580878734588623046875" lon="-2.5158723257482051849365234375">
        <ele>999.79998779296875</ele>
        <time>2019-07-07T15:29:03.000Z</time>
      </trkpt>
      <trkpt lat="41.61191336810588836669921875" lon="-2.51580669544637203216552734375">
        <ele>998.79998779296875</ele>
        <time>2019-07-07T15:29:04.000Z</time>
      </trkpt>
      <trkpt lat="41.61221872083842754364013671875" lon="-2.51574433408677577972412109375">
        <ele>997.5999755859375</ele>
        <time>2019-07-07T15:29:05.000Z</time>
      </trkpt>
      <trkpt lat="41.61221872083842754364013671875" lon="-2.51574433408677577972412109375">
        <ele>996</ele>
        <time>2019-07-07T15:29:06.000Z</time>
      </trkpt>
      <trkpt lat="41.61282875575125217437744140625" lon="-2.5156264007091522216796875">
        <ele>994.4000244140625</ele>
        <time>2019-07-07T15:29:07.000Z</time>
      </trkpt>
      <trkpt lat="41.6134383715689182281494140625" lon="-2.51549991779029369354248046875">
        <ele>993.79998779296875</ele>
        <time>2019-07-07T15:29:09.000Z</time>
      </trkpt>
      <trkpt lat="41.61404966376721858978271484375" lon="-2.5153523124754428863525390625">
        <ele>994</ele>
        <time>2019-07-07T15:29:11.000Z</time>
      </trkpt>
      <trkpt lat="41.61466171033680438995361328125" lon="-2.51519230194389820098876953125">
        <ele>997.4000244140625</ele>
        <time>2019-07-07T15:29:13.000Z</time>
      </trkpt>
      <trkpt lat="41.61466171033680438995361328125" lon="-2.51519230194389820098876953125">
        <ele>998.4000244140625</ele>
        <time>2019-07-07T15:29:14.000Z</time>
      </trkpt>
      <trkpt lat="41.61527392454445362091064453125" lon="-2.51502382569015026092529296875">
        <ele>999.4000244140625</ele>
        <time>2019-07-07T15:29:15.000Z</time>
      </trkpt>
      <trkpt lat="41.61527392454445362091064453125" lon="-2.51502382569015026092529296875">
        <ele>1001.20001220703125</ele>
        <time>2019-07-07T15:29:16.000Z</time>
      </trkpt>
      <trkpt lat="41.615884043276309967041015625" lon="-2.51484981738030910491943359375">
        <ele>1002.20001220703125</ele>
        <time>2019-07-07T15:29:17.000Z</time>
      </trkpt>
      <trkpt lat="41.61618654616177082061767578125" lon="-2.5147628970444202423095703125">
        <ele>1002.79998779296875</ele>
        <time>2019-07-07T15:29:18.000Z</time>
      </trkpt>
      <trkpt lat="41.6167887859046459197998046875" lon="-2.51458595506846904754638671875">
        <ele>1003.79998779296875</ele>
        <time>2019-07-07T15:29:20.000Z</time>
      </trkpt>
      <trkpt lat="41.6170878522098064422607421875" lon="-2.5145003758370876312255859375">
        <ele>1005</ele>
        <time>2019-07-07T15:29:21.000Z</time>
      </trkpt>
      <trkpt lat="41.6176853142678737640380859375" lon="-2.5143407844007015228271484375">
        <ele>1005.79998779296875</ele>
        <time>2019-07-07T15:29:23.000Z</time>
      </trkpt>
      <trkpt lat="41.6182834468781948089599609375" lon="-2.51418898813426494598388671875">
        <ele>1006.4000244140625</ele>
        <time>2019-07-07T15:29:25.000Z</time>
      </trkpt>
      <trkpt lat="41.61888233385980129241943359375" lon="-2.51404548995196819305419921875">
        <ele>1008.4000244140625</ele>
        <time>2019-07-07T15:29:27.000Z</time>
      </trkpt>
      <trkpt lat="41.6191816516220569610595703125" lon="-2.513976506888866424560546875">
        <ele>1009.4000244140625</ele>
        <time>2019-07-07T15:29:28.000Z</time>
      </trkpt>
      <trkpt lat="41.61948130466043949127197265625" lon="-2.5139089487493038177490234375">
        <ele>1011</ele>
        <time>2019-07-07T15:29:29.000Z</time>
      </trkpt>
      <trkpt lat="41.619781963527202606201171875" lon="-2.51384449191391468048095703125">
        <ele>1012.79998779296875</ele>
        <time>2019-07-07T15:29:30.000Z</time>
      </trkpt>
      <trkpt lat="41.6200840473175048828125" lon="-2.5137810409069061279296875">
        <ele>1014.5999755859375</ele>
        <time>2019-07-07T15:29:31.000Z</time>
      </trkpt>
      <trkpt lat="41.62038722075521945953369140625" lon="-2.51372027210891246795654296875">
        <ele>1016.4000244140625</ele>
        <time>2019-07-07T15:29:32.000Z</time>
      </trkpt>
      <trkpt lat="41.62069064565002918243408203125" lon="-2.51366478390991687774658203125">
        <ele>1018.4000244140625</ele>
        <time>2019-07-07T15:29:33.000Z</time>
      </trkpt>
      <trkpt lat="41.62130068056285381317138671875" lon="-2.513580210506916046142578125">
        <ele>1020.79998779296875</ele>
        <time>2019-07-07T15:29:35.000Z</time>
      </trkpt>
      <trkpt lat="41.62191641516983509063720703125" lon="-2.51353587023913860321044921875">
        <ele>1019.4000244140625</ele>
        <time>2019-07-07T15:29:37.000Z</time>
      </trkpt>
      <trkpt lat="41.62253634072840213775634765625" lon="-2.513524554669857025146484375">
        <ele>1019</ele>
        <time>2019-07-07T15:29:39.000Z</time>
      </trkpt>
      <trkpt lat="41.62316196598112583160400390625" lon="-2.5135409832000732421875">
        <ele>1019</ele>
        <time>2019-07-07T15:29:41.000Z</time>
      </trkpt>
      <trkpt lat="41.62347695790231227874755859375" lon="-2.51356051303446292877197265625">
        <ele>1018</ele>
        <time>2019-07-07T15:29:42.000Z</time>
      </trkpt>
      <trkpt lat="41.624107696115970611572265625" lon="-2.5136296637356281280517578125">
        <ele>1018</ele>
        <time>2019-07-07T15:29:44.000Z</time>
      </trkpt>
      <trkpt lat="41.62473432719707489013671875" lon="-2.51373209059238433837890625">
        <ele>1017.5999755859375</ele>
        <time>2019-07-07T15:29:46.000Z</time>
      </trkpt>
      <trkpt lat="41.62504739128053188323974609375" lon="-2.51379319466650485992431640625">
        <ele>1016.79998779296875</ele>
        <time>2019-07-07T15:29:47.000Z</time>
      </trkpt>
      <trkpt lat="41.6259890981018543243408203125" lon="-2.51401129178702831268310546875">
        <ele>1016.20001220703125</ele>
        <time>2019-07-07T15:29:50.000Z</time>
      </trkpt>
      <trkpt lat="41.62630165927112102508544921875" lon="-2.5140899978578090667724609375">
        <ele>1015.4000244140625</ele>
        <time>2019-07-07T15:29:51.000Z</time>
      </trkpt>
      <trkpt lat="41.62692426703870296478271484375" lon="-2.514242716133594512939453125">
        <ele>1014</ele>
        <time>2019-07-07T15:29:53.000Z</time>
      </trkpt>
      <trkpt lat="41.627235151827335357666015625" lon="-2.51431681215763092041015625">
        <ele>1012.20001220703125</ele>
        <time>2019-07-07T15:29:55.000Z</time>
      </trkpt>
      <trkpt lat="41.6278575919568538665771484375" lon="-2.5144785828888416290283203125">
        <ele>1011.5999755859375</ele>
        <time>2019-07-07T15:29:56.000Z</time>
      </trkpt>
      <trkpt lat="41.62847877480089664459228515625" lon="-2.51464261673390865325927734375">
        <ele>1010.79998779296875</ele>
        <time>2019-07-07T15:29:58.000Z</time>
      </trkpt>
      <trkpt lat="41.62941184826195240020751953125" lon="-2.51488703303039073944091796875">
        <ele>1012.5999755859375</ele>
        <time>2019-07-07T15:30:01.000Z</time>
      </trkpt>
      <trkpt lat="41.6297220624983310699462890625" lon="-2.51496716402471065521240234375">
        <ele>1015</ele>
        <time>2019-07-07T15:30:02.000Z</time>
      </trkpt>
      <trkpt lat="41.63003060035407543182373046875" lon="-2.51504763029515743255615234375">
        <ele>1016.4000244140625</ele>
        <time>2019-07-07T15:30:03.000Z</time>
      </trkpt>
      <trkpt lat="41.63033754564821720123291015625" lon="-2.5151301920413970947265625">
        <ele>1018.79998779296875</ele>
        <time>2019-07-07T15:30:05.000Z</time>
      </trkpt>
      <trkpt lat="41.630950681865215301513671875" lon="-2.51529313623905181884765625">
        <ele>1018.4000244140625</ele>
        <time>2019-07-07T15:30:06.000Z</time>
      </trkpt>
      <trkpt lat="41.6315620578825473785400390625" lon="-2.51544677652418613433837890625">
        <ele>1017.5999755859375</ele>
        <time>2019-07-07T15:30:08.000Z</time>
      </trkpt>
      <trkpt lat="41.6318668238818645477294921875" lon="-2.51552104018628597259521484375">
        <ele>1016.4000244140625</ele>
        <time>2019-07-07T15:30:09.000Z</time>
      </trkpt>
      <trkpt lat="41.6321702487766742706298828125" lon="-2.515593878924846649169921875">
        <ele>1014.79998779296875</ele>
        <time>2019-07-07T15:30:10.000Z</time>
      </trkpt>
      <trkpt lat="41.6327749192714691162109375" lon="-2.515729330480098724365234375">
        <ele>1013.5999755859375</ele>
        <time>2019-07-07T15:30:12.000Z</time>
      </trkpt>
      <trkpt lat="41.6336729563772678375244140625" lon="-2.51590727828443050384521484375">
        <ele>1014.4000244140625</ele>
        <time>2019-07-07T15:30:15.000Z</time>
      </trkpt>
      <trkpt lat="41.6342663951218128204345703125" lon="-2.516014315187931060791015625">
        <ele>1012.5999755859375</ele>
        <time>2019-07-07T15:30:17.000Z</time>
      </trkpt>
      <trkpt lat="41.63456252776086330413818359375" lon="-2.516061924397945404052734375">
        <ele>1010</ele>
        <time>2019-07-07T15:30:18.000Z</time>
      </trkpt>
      <trkpt lat="41.63456252776086330413818359375" lon="-2.516061924397945404052734375">
        <ele>1008.79998779296875</ele>
        <time>2019-07-07T15:30:19.000Z</time>
      </trkpt>
      <trkpt lat="41.6351542063057422637939453125" lon="-2.51614565961062908172607421875">
        <ele>1009.79998779296875</ele>
        <time>2019-07-07T15:30:20.000Z</time>
      </trkpt>
      <trkpt lat="41.635745465755462646484375" lon="-2.51621849834918975830078125">
        <ele>1011.5999755859375</ele>
        <time>2019-07-07T15:30:22.000Z</time>
      </trkpt>
      <trkpt lat="41.63604176603257656097412109375" lon="-2.5162461586296558380126953125">
        <ele>1013.4000244140625</ele>
        <time>2019-07-07T15:30:23.000Z</time>
      </trkpt>
      <trkpt lat="41.63604176603257656097412109375" lon="-2.5162461586296558380126953125">
        <ele>1015.4000244140625</ele>
        <time>2019-07-07T15:30:24.000Z</time>
      </trkpt>
      <trkpt lat="41.6366399824619293212890625" lon="-2.51627884805202484130859375">
        <ele>1017.5999755859375</ele>
        <time>2019-07-07T15:30:25.000Z</time>
      </trkpt>
      <trkpt lat="41.6369408927857875823974609375" lon="-2.5162850506603717803955078125">
        <ele>1018.79998779296875</ele>
        <time>2019-07-07T15:30:26.000Z</time>
      </trkpt>
      <trkpt lat="41.63784722797572612762451171875" lon="-2.5162669457495212554931640625">
        <ele>1018</ele>
        <time>2019-07-07T15:30:29.000Z</time>
      </trkpt>
      <trkpt lat="41.63784722797572612762451171875" lon="-2.5162669457495212554931640625">
        <ele>1017.20001220703125</ele>
        <time>2019-07-07T15:30:30.000Z</time>
      </trkpt>
      <trkpt lat="41.638458184897899627685546875" lon="-2.516233921051025390625">
        <ele>1016.4000244140625</ele>
        <time>2019-07-07T15:30:31.000Z</time>
      </trkpt>
      <trkpt lat="41.63876621983945369720458984375" lon="-2.51621975563466548919677734375">
        <ele>1015.5999755859375</ele>
        <time>2019-07-07T15:30:32.000Z</time>
      </trkpt>
      <trkpt lat="41.639385558664798736572265625" lon="-2.51617868430912494659423828125">
        <ele>1015.20001220703125</ele>
        <time>2019-07-07T15:30:34.000Z</time>
      </trkpt>
      <trkpt lat="41.640008501708507537841796875" lon="-2.51611799933016300201416015625">
        <ele>1014.20001220703125</ele>
        <time>2019-07-07T15:30:36.000Z</time>
      </trkpt>
      <trkpt lat="41.64031871594488620758056640625" lon="-2.516078688204288482666015625">
        <ele>1013</ele>
        <time>2019-07-07T15:30:37.000Z</time>
      </trkpt>
      <trkpt lat="41.6409360431134700775146484375" lon="-2.51598807983100414276123046875">
        <ele>1012.20001220703125</ele>
        <time>2019-07-07T15:30:39.000Z</time>
      </trkpt>
      <trkpt lat="41.64124340750277042388916015625" lon="-2.51593594439327716827392578125">
        <ele>1011.5999755859375</ele>
        <time>2019-07-07T15:30:40.000Z</time>
      </trkpt>
      <trkpt lat="41.64155068807303905487060546875" lon="-2.5158807076513767242431640625">
        <ele>1010.5999755859375</ele>
        <time>2019-07-07T15:30:41.000Z</time>
      </trkpt>
      <trkpt lat="41.6418568789958953857421875" lon="-2.5158227048814296722412109375">
        <ele>1009</ele>
        <time>2019-07-07T15:30:42.000Z</time>
      </trkpt>
      <trkpt lat="41.6418568789958953857421875" lon="-2.5158227048814296722412109375">
        <ele>1007.4000244140625</ele>
        <time>2019-07-07T15:30:43.000Z</time>
      </trkpt>
      <trkpt lat="41.64216239936649799346923828125" lon="-2.51576118171215057373046875">
        <ele>1004.20001220703125</ele>
        <time>2019-07-07T15:30:44.000Z</time>
      </trkpt>
      <trkpt lat="41.6424682550132274627685546875" lon="-2.515695132315158843994140625">
        <ele>999.79998779296875</ele>
        <time>2019-07-07T15:30:45.000Z</time>
      </trkpt>
      <trkpt lat="41.64277444593608379364013671875" lon="-2.51562430523335933685302734375">
        <ele>994.79998779296875</ele>
        <time>2019-07-07T15:30:46.000Z</time>
      </trkpt>
      <trkpt lat="41.6433845646679401397705078125" lon="-2.51546605490148067474365234375">
        <ele>992.4000244140625</ele>
        <time>2019-07-07T15:30:47.000Z</time>
      </trkpt>
      <trkpt lat="41.6433845646679401397705078125" lon="-2.51546605490148067474365234375">
        <ele>991.20001220703125</ele>
        <time>2019-07-07T15:30:48.000Z</time>
      </trkpt>
      <trkpt lat="41.64399401284754276275634765625" lon="-2.5152936391532421112060546875">
        <ele>996.4000244140625</ele>
        <time>2019-07-07T15:30:50.000Z</time>
      </trkpt>
      <trkpt lat="41.6446016170084476470947265625" lon="-2.5150978378951549530029296875">
        <ele>998.20001220703125</ele>
        <time>2019-07-07T15:30:51.000Z</time>
      </trkpt>
      <trkpt lat="41.6452051140367984771728515625" lon="-2.5148849375545978546142578125">
        <ele>999</ele>
        <time>2019-07-07T15:30:53.000Z</time>
      </trkpt>
      <trkpt lat="41.64550661109387874603271484375" lon="-2.514776475727558135986328125">
        <ele>993.4000244140625</ele>
        <time>2019-07-07T15:30:55.000Z</time>
      </trkpt>
      <trkpt lat="41.6461056657135486602783203125" lon="-2.51454287208616733551025390625">
        <ele>990.20001220703125</ele>
        <time>2019-07-07T15:30:56.000Z</time>
      </trkpt>
      <trkpt lat="41.6461056657135486602783203125" lon="-2.51454287208616733551025390625">
        <ele>988.5999755859375</ele>
        <time>2019-07-07T15:30:57.000Z</time>
      </trkpt>
      <trkpt lat="41.64670153521001338958740234375" lon="-2.51428403891623020172119140625">
        <ele>990.20001220703125</ele>
        <time>2019-07-07T15:30:59.000Z</time>
      </trkpt>
      <trkpt lat="41.6469988413155078887939453125" lon="-2.51415261067450046539306640625">
        <ele>993.5999755859375</ele>
        <time>2019-07-07T15:31:00.000Z</time>
      </trkpt>
      <trkpt lat="41.64729832671582698822021484375" lon="-2.5140212662518024444580078125">
        <ele>999</ele>
        <time>2019-07-07T15:31:01.000Z</time>
      </trkpt>
      <trkpt lat="41.64788589812815189361572265625" lon="-2.51374307088553905487060546875">
        <ele>1003.5999755859375</ele>
        <time>2019-07-07T15:31:02.000Z</time>
      </trkpt>
      <trkpt lat="41.64817390032112598419189453125" lon="-2.51359621994197368621826171875">
        <ele>1006</ele>
        <time>2019-07-07T15:31:03.000Z</time>
      </trkpt>
      <trkpt lat="41.6484599746763706207275390625" lon="-2.51344467513263225555419921875">
        <ele>1007.20001220703125</ele>
        <time>2019-07-07T15:31:04.000Z</time>
      </trkpt>
      <trkpt lat="41.64874370209872722625732421875" lon="-2.5132900290191173553466796875">
        <ele>1005.20001220703125</ele>
        <time>2019-07-07T15:31:06.000Z</time>
      </trkpt>
      <trkpt lat="41.64902650751173496246337890625" lon="-2.5131319463253021240234375">
        <ele>1003.4000244140625</ele>
        <time>2019-07-07T15:31:07.000Z</time>
      </trkpt>
      <trkpt lat="41.64958231151103973388671875" lon="-2.51279893331229686737060546875">
        <ele>1002.20001220703125</ele>
        <time>2019-07-07T15:31:09.000Z</time>
      </trkpt>
      <trkpt lat="41.6501397080719470977783203125" lon="-2.512454353272914886474609375">
        <ele>1002.4000244140625</ele>
        <time>2019-07-07T15:31:10.000Z</time>
      </trkpt>
      <trkpt lat="41.65041538886725902557373046875" lon="-2.51227724365890026092529296875">
        <ele>1004.4000244140625</ele>
        <time>2019-07-07T15:31:12.000Z</time>
      </trkpt>
      <trkpt lat="41.65123530663549900054931640625" lon="-2.51172579824924468994140625">
        <ele>1005.79998779296875</ele>
        <time>2019-07-07T15:31:14.000Z</time>
      </trkpt>
      <trkpt lat="41.651771999895572662353515625" lon="-2.511340565979480743408203125">
        <ele>1006.79998779296875</ele>
        <time>2019-07-07T15:31:16.000Z</time>
      </trkpt>
      <trkpt lat="41.65230634622275829315185546875" lon="-2.51095055602490901947021484375">
        <ele>1006.5999755859375</ele>
        <time>2019-07-07T15:31:18.000Z</time>
      </trkpt>
      <trkpt lat="41.65283490903675556182861328125" lon="-2.510547973215579986572265625">
        <ele>1006.20001220703125</ele>
        <time>2019-07-07T15:31:21.000Z</time>
      </trkpt>
      <trkpt lat="41.6533670760691165924072265625" lon="-2.510140277445316314697265625">
        <ele>1006.79998779296875</ele>
        <time>2019-07-07T15:31:22.000Z</time>
      </trkpt>
      <trkpt lat="41.65390066802501678466796875" lon="-2.5097320787608623504638671875">
        <ele>1007.20001220703125</ele>
        <time>2019-07-07T15:31:24.000Z</time>
      </trkpt>
      <trkpt lat="41.65416813455522060394287109375" lon="-2.50952378846704959869384765625">
        <ele>1008.4000244140625</ele>
        <time>2019-07-07T15:31:25.000Z</time>
      </trkpt>
      <trkpt lat="41.6544349305331707000732421875" lon="-2.50931390561163425445556640625">
        <ele>1010</ele>
        <time>2019-07-07T15:31:26.000Z</time>
      </trkpt>
      <trkpt lat="41.6544349305331707000732421875" lon="-2.50931390561163425445556640625">
        <ele>1012</ele>
        <time>2019-07-07T15:31:27.000Z</time>
      </trkpt>
      <trkpt lat="41.65524252690374851226806640625" lon="-2.50868341885507106781005859375">
        <ele>1014</ele>
        <time>2019-07-07T15:31:29.000Z</time>
      </trkpt>
      <trkpt lat="41.65551560930907726287841796875" lon="-2.5084744580090045928955078125">
        <ele>1015.4000244140625</ele>
        <time>2019-07-07T15:31:30.000Z</time>
      </trkpt>
      <trkpt lat="41.6560645401477813720703125" lon="-2.50805712305009365081787109375">
        <ele>1015.79998779296875</ele>
        <time>2019-07-07T15:31:32.000Z</time>
      </trkpt>
      <trkpt lat="41.6566145606338977813720703125" lon="-2.5076362676918506622314453125">
        <ele>1016.20001220703125</ele>
        <time>2019-07-07T15:31:34.000Z</time>
      </trkpt>
      <trkpt lat="41.65689024142920970916748046875" lon="-2.50742529518902301788330078125">
        <ele>1016.5999755859375</ele>
        <time>2019-07-07T15:31:35.000Z</time>
      </trkpt>
      <trkpt lat="41.6574418544769287109375" lon="-2.5070015899837017059326171875">
        <ele>1016</ele>
        <time>2019-07-07T15:31:37.000Z</time>
      </trkpt>
      <trkpt lat="41.65826722048223018646240234375" lon="-2.50636716373264789581298828125">
        <ele>1018.20001220703125</ele>
        <time>2019-07-07T15:31:40.000Z</time>
      </trkpt>
      <trkpt lat="41.6585420630872249603271484375" lon="-2.50615359283983707427978515625">
        <ele>1019.79998779296875</ele>
        <time>2019-07-07T15:31:41.000Z</time>
      </trkpt>
      <trkpt lat="41.65881774388253688812255859375" lon="-2.505941279232501983642578125">
        <ele>1021.5999755859375</ele>
        <time>2019-07-07T15:31:42.000Z</time>
      </trkpt>
      <trkpt lat="41.65909535251557826995849609375" lon="-2.5057290494441986083984375">
        <ele>1023.4000244140625</ele>
        <time>2019-07-07T15:31:43.000Z</time>
      </trkpt>
      <trkpt lat="41.65965341962873935699462890625" lon="-2.50530282966792583465576171875">
        <ele>1023.5999755859375</ele>
        <time>2019-07-07T15:31:45.000Z</time>
      </trkpt>
      <trkpt lat="41.65965341962873935699462890625" lon="-2.50530282966792583465576171875">
        <ele>1021.79998779296875</ele>
        <time>2019-07-07T15:31:46.000Z</time>
      </trkpt>
      <trkpt lat="41.6602150909602642059326171875" lon="-2.5048705749213695526123046875">
        <ele>1020.5999755859375</ele>
        <time>2019-07-07T15:31:47.000Z</time>
      </trkpt>
      <trkpt lat="41.660497896373271942138671875" lon="-2.50465390272438526153564453125">
        <ele>1018.79998779296875</ele>
        <time>2019-07-07T15:31:48.000Z</time>
      </trkpt>
      <trkpt lat="41.660497896373271942138671875" lon="-2.50465390272438526153564453125">
        <ele>1017.4000244140625</ele>
        <time>2019-07-07T15:31:49.000Z</time>
      </trkpt>
      <trkpt lat="41.66078061796724796295166015625" lon="-2.50443614087998867034912109375">
        <ele>1016.4000244140625</ele>
        <time>2019-07-07T15:31:50.000Z</time>
      </trkpt>
      <trkpt lat="41.66134036146104335784912109375" lon="-2.50399424694478511810302734375">
        <ele>1015.4000244140625</ele>
        <time>2019-07-07T15:31:51.000Z</time>
      </trkpt>
      <trkpt lat="41.66134036146104335784912109375" lon="-2.50399424694478511810302734375">
        <ele>1014.79998779296875</ele>
        <time>2019-07-07T15:31:52.000Z</time>
      </trkpt>
      <trkpt lat="41.6618951596319675445556640625" lon="-2.50354665331542491912841796875">
        <ele>1014.5999755859375</ele>
        <time>2019-07-07T15:31:53.000Z</time>
      </trkpt>
      <trkpt lat="41.6624481976032257080078125" lon="-2.50310895033180713653564453125">
        <ele>1014.4000244140625</ele>
        <time>2019-07-07T15:31:55.000Z</time>
      </trkpt>
      <trkpt lat="41.6629965417087078094482421875" lon="-2.50268382020294666290283203125">
        <ele>1014.5999755859375</ele>
        <time>2019-07-07T15:31:57.000Z</time>
      </trkpt>
      <trkpt lat="41.66353926993906497955322265625" lon="-2.50226757489144802093505859375">
        <ele>1012.5999755859375</ele>
        <time>2019-07-07T15:31:59.000Z</time>
      </trkpt>
      <trkpt lat="41.66380765847861766815185546875" lon="-2.502060793340206146240234375">
        <ele>1010.20001220703125</ele>
        <time>2019-07-07T15:32:00.000Z</time>
      </trkpt>
      <trkpt lat="41.66380765847861766815185546875" lon="-2.502060793340206146240234375">
        <ele>1008.79998779296875</ele>
        <time>2019-07-07T15:32:01.000Z</time>
      </trkpt>
      <trkpt lat="41.6643430106341838836669921875" lon="-2.50164295546710491180419921875">
        <ele>1007.4000244140625</ele>
        <time>2019-07-07T15:32:02.000Z</time>
      </trkpt>
      <trkpt lat="41.6648740880191326141357421875" lon="-2.501211203634738922119140625">
        <ele>1007.20001220703125</ele>
        <time>2019-07-07T15:32:04.000Z</time>
      </trkpt>
      <trkpt lat="41.66513903997838497161865234375" lon="-2.50099050812423229217529296875">
        <ele>1008.5999755859375</ele>
        <time>2019-07-07T15:32:06.000Z</time>
      </trkpt>
      <trkpt lat="41.66566810570657253265380859375" lon="-2.500540651381015777587890625">
        <ele>1007.20001220703125</ele>
        <time>2019-07-07T15:32:08.000Z</time>
      </trkpt>
      <trkpt lat="41.66619650088250637054443359375" lon="-2.500078640878200531005859375">
        <ele>1007.79998779296875</ele>
        <time>2019-07-07T15:32:09.000Z</time>
      </trkpt>
      <trkpt lat="41.66672472842037677764892578125" lon="-2.49960347078740596771240234375">
        <ele>1005.20001220703125</ele>
        <time>2019-07-07T15:32:11.000Z</time>
      </trkpt>
      <trkpt lat="41.66672472842037677764892578125" lon="-2.49960347078740596771240234375">
        <ele>1003.4000244140625</ele>
        <time>2019-07-07T15:32:12.000Z</time>
      </trkpt>
      <trkpt lat="41.66698875837028026580810546875" lon="-2.49936173669993877410888671875">
        <ele>1001.79998779296875</ele>
        <time>2019-07-07T15:32:13.000Z</time>
      </trkpt>
      <trkpt lat="41.66751832701265811920166015625" lon="-2.4988741613924503326416015625">
        <ele>1002</ele>
        <time>2019-07-07T15:32:14.000Z</time>
      </trkpt>
      <trkpt lat="41.6677852906286716461181640625" lon="-2.4986297450959682464599609375">
        <ele>1003</ele>
        <time>2019-07-07T15:32:16.000Z</time>
      </trkpt>
      <trkpt lat="41.66805359534919261932373046875" lon="-2.49838558025658130645751953125">
        <ele>1004.20001220703125</ele>
        <time>2019-07-07T15:32:17.000Z</time>
      </trkpt>
      <trkpt lat="41.668589450418949127197265625" lon="-2.4978988431394100189208984375">
        <ele>1005.20001220703125</ele>
        <time>2019-07-07T15:32:19.000Z</time>
      </trkpt>
      <trkpt lat="41.668854318559169769287109375" lon="-2.49765484593808650970458984375">
        <ele>1005.20001220703125</ele>
        <time>2019-07-07T15:32:20.000Z</time>
      </trkpt>
      <trkpt lat="41.66937525384128093719482421875" lon="-2.497169114649295806884765625">
        <ele>1004.4000244140625</ele>
        <time>2019-07-07T15:32:22.000Z</time>
      </trkpt>
      <trkpt lat="41.66988638229668140411376953125" lon="-2.49669134616851806640625">
        <ele>1004</ele>
        <time>2019-07-07T15:32:24.000Z</time>
      </trkpt>
      <trkpt lat="41.67038845829665660858154296875" lon="-2.4962271563708782196044921875">
        <ele>1003.79998779296875</ele>
        <time>2019-07-07T15:32:25.000Z</time>
      </trkpt>
      <trkpt lat="41.6706351377069950103759765625" lon="-2.49599673785269260406494140625">
        <ele>1006</ele>
        <time>2019-07-07T15:32:27.000Z</time>
      </trkpt>
      <trkpt lat="41.67112103663384914398193359375" lon="-2.495534308254718780517578125">
        <ele>1008.20001220703125</ele>
        <time>2019-07-07T15:32:28.000Z</time>
      </trkpt>
      <trkpt lat="41.6713646985590457916259765625" lon="-2.4953068234026432037353515625">
        <ele>1009.20001220703125</ele>
        <time>2019-07-07T15:32:29.000Z</time>
      </trkpt>
      <trkpt lat="41.67160970158874988555908203125" lon="-2.4950821883976459503173828125">
        <ele>1010.5999755859375</ele>
        <time>2019-07-07T15:32:30.000Z</time>
      </trkpt>
      <trkpt lat="41.67160970158874988555908203125" lon="-2.4950821883976459503173828125">
        <ele>1012.4000244140625</ele>
        <time>2019-07-07T15:32:31.000Z</time>
      </trkpt>
      <trkpt lat="41.6720976121723651885986328125" lon="-2.4946319125592708587646484375">
        <ele>1014.79998779296875</ele>
        <time>2019-07-07T15:32:32.000Z</time>
      </trkpt>
      <trkpt lat="41.6723401844501495361328125" lon="-2.4944069422781467437744140625">
        <ele>1016.79998779296875</ele>
        <time>2019-07-07T15:32:34.000Z</time>
      </trkpt>
      <trkpt lat="41.672581247985363006591796875" lon="-2.4941809661686420440673828125">
        <ele>1015</ele>
        <time>2019-07-07T15:32:35.000Z</time>
      </trkpt>
      <trkpt lat="41.673062033951282501220703125" lon="-2.4937243200838565826416015625">
        <ele>1016.4000244140625</ele>
        <time>2019-07-07T15:32:37.000Z</time>
      </trkpt>
      <trkpt lat="41.67355128563940525054931640625" lon="-2.49326490797102451324462890625">
        <ele>1015.5999755859375</ele>
        <time>2019-07-07T15:32:39.000Z</time>
      </trkpt>
      <trkpt lat="41.674043051898479461669921875" lon="-2.49280960299074649810791015625">
        <ele>1016.4000244140625</ele>
        <time>2019-07-07T15:32:40.000Z</time>
      </trkpt>
      <trkpt lat="41.67453012429177761077880859375" lon="-2.4923620931804180145263671875">
        <ele>1016.79998779296875</ele>
        <time>2019-07-07T15:32:42.000Z</time>
      </trkpt>
      <trkpt lat="41.67477051727473735809326171875" lon="-2.49213720671832561492919921875">
        <ele>1017.5999755859375</ele>
        <time>2019-07-07T15:32:43.000Z</time>
      </trkpt>
      <trkpt lat="41.6750089824199676513671875" lon="-2.49191240407526493072509765625">
        <ele>1018.5999755859375</ele>
        <time>2019-07-07T15:32:44.000Z</time>
      </trkpt>
      <trkpt lat="41.67547862045466899871826171875" lon="-2.491462714970111846923828125">
        <ele>1020.5999755859375</ele>
        <time>2019-07-07T15:32:46.000Z</time>
      </trkpt>
      <trkpt lat="41.67571499012410640716552734375" lon="-2.491235397756099700927734375">
        <ele>1022</ele>
        <time>2019-07-07T15:32:47.000Z</time>
      </trkpt>
      <trkpt lat="41.6759526170790195465087890625" lon="-2.4910079129040241241455078125">
        <ele>1023.5999755859375</ele>
        <time>2019-07-07T15:32:48.000Z</time>
      </trkpt>
      <trkpt lat="41.6759526170790195465087890625" lon="-2.4910079129040241241455078125">
        <ele>1024.800048828125</ele>
        <time>2019-07-07T15:32:49.000Z</time>
      </trkpt>
      <trkpt lat="41.676429212093353271484375" lon="-2.49055805616080760955810546875">
        <ele>1025.800048828125</ele>
        <time>2019-07-07T15:32:50.000Z</time>
      </trkpt>
      <trkpt lat="41.67667069472372531890869140625" lon="-2.49033476226031780242919921875">
        <ele>1026.199951171875</ele>
        <time>2019-07-07T15:32:51.000Z</time>
      </trkpt>
      <trkpt lat="41.67715407907962799072265625" lon="-2.4898911081254482269287109375">
        <ele>1027</ele>
        <time>2019-07-07T15:32:54.000Z</time>
      </trkpt>
      <trkpt lat="41.67763955891132354736328125" lon="-2.48945617116987705230712890625">
        <ele>1027.4000244140625</ele>
        <time>2019-07-07T15:32:55.000Z</time>
      </trkpt>
      <trkpt lat="41.6781242005527019500732421875" lon="-2.489028275012969970703125">
        <ele>1028.5999755859375</ele>
        <time>2019-07-07T15:32:57.000Z</time>
      </trkpt>
      <trkpt lat="41.67861965484917163848876953125" lon="-2.4886002950370311737060546875">
        <ele>1030.4000244140625</ele>
        <time>2019-07-07T15:32:59.000Z</time>
      </trkpt>
      <trkpt lat="41.6791327111423015594482421875" lon="-2.488179020583629608154296875">
        <ele>1032.4000244140625</ele>
        <time>2019-07-07T15:33:01.000Z</time>
      </trkpt>
      <trkpt lat="41.67939933948218822479248046875" lon="-2.4879733286798000335693359375">
        <ele>1034</ele>
        <time>2019-07-07T15:33:02.000Z</time>
      </trkpt>
      <trkpt lat="41.6796688176691532135009765625" lon="-2.48777308501303195953369140625">
        <ele>1035.5999755859375</ele>
        <time>2019-07-07T15:33:03.000Z</time>
      </trkpt>
      <trkpt lat="41.679941900074481964111328125" lon="-2.48757611028850078582763671875">
        <ele>1036.800048828125</ele>
        <time>2019-07-07T15:33:04.000Z</time>
      </trkpt>
      <trkpt lat="41.68049971573054790496826171875" lon="-2.4871867708861827850341796875">
        <ele>1037.5999755859375</ele>
        <time>2019-07-07T15:33:06.000Z</time>
      </trkpt>
      <trkpt lat="41.68049971573054790496826171875" lon="-2.4871867708861827850341796875">
        <ele>1038.199951171875</ele>
        <time>2019-07-07T15:33:07.000Z</time>
      </trkpt>
      <trkpt lat="41.68136539869010448455810546875" lon="-2.486616633832454681396484375">
        <ele>1039.5999755859375</ele>
        <time>2019-07-07T15:33:09.000Z</time>
      </trkpt>
      <trkpt lat="41.6819627769291400909423828125" lon="-2.486254870891571044921875">
        <ele>1040.4000244140625</ele>
        <time>2019-07-07T15:33:11.000Z</time>
      </trkpt>
      <trkpt lat="41.6819627769291400909423828125" lon="-2.486254870891571044921875">
        <ele>1041.199951171875</ele>
        <time>2019-07-07T15:33:12.000Z</time>
      </trkpt>
      <trkpt lat="41.6825753264129161834716796875" lon="-2.4859174154698848724365234375">
        <ele>1042.5999755859375</ele>
        <time>2019-07-07T15:33:13.000Z</time>
      </trkpt>
      <trkpt lat="41.6825753264129161834716796875" lon="-2.4859174154698848724365234375">
        <ele>1043.800048828125</ele>
        <time>2019-07-07T15:33:14.000Z</time>
      </trkpt>
      <trkpt lat="41.68319500051438808441162109375" lon="-2.4855990707874298095703125">
        <ele>1044.800048828125</ele>
        <time>2019-07-07T15:33:15.000Z</time>
      </trkpt>
      <trkpt lat="41.68319500051438808441162109375" lon="-2.4855990707874298095703125">
        <ele>1045.800048828125</ele>
        <time>2019-07-07T15:33:16.000Z</time>
      </trkpt>
      <trkpt lat="41.6838131658732891082763671875" lon="-2.48529857955873012542724609375">
        <ele>1046.5999755859375</ele>
        <time>2019-07-07T15:33:18.000Z</time>
      </trkpt>
      <trkpt lat="41.68412438593804836273193359375" lon="-2.485152818262577056884765625">
        <ele>1047.199951171875</ele>
        <time>2019-07-07T15:33:19.000Z</time>
      </trkpt>
      <trkpt lat="41.68474875390529632568359375" lon="-2.4848787300288677215576171875">
        <ele>1047.199951171875</ele>
        <time>2019-07-07T15:33:20.000Z</time>
      </trkpt>
      <trkpt lat="41.68537530116736888885498046875" lon="-2.48463280498981475830078125">
        <ele>1045.4000244140625</ele>
        <time>2019-07-07T15:33:22.000Z</time>
      </trkpt>
      <trkpt lat="41.6856897063553333282470703125" lon="-2.484517805278301239013671875">
        <ele>1042.199951171875</ele>
        <time>2019-07-07T15:33:23.000Z</time>
      </trkpt>
      <trkpt lat="41.68600377626717090606689453125" lon="-2.48440691269934177398681640625">
        <ele>1040.5999755859375</ele>
        <time>2019-07-07T15:33:24.000Z</time>
      </trkpt>
      <trkpt lat="41.68631851673126220703125" lon="-2.4843008816242218017578125">
        <ele>1037.4000244140625</ele>
        <time>2019-07-07T15:33:25.000Z</time>
      </trkpt>
      <trkpt lat="41.6866331733763217926025390625" lon="-2.48419904150068759918212890625">
        <ele>1035.800048828125</ele>
        <time>2019-07-07T15:33:26.000Z</time>
      </trkpt>
      <trkpt lat="41.68694690801203250885009765625" lon="-2.4841008894145488739013671875">
        <ele>1034.800048828125</ele>
        <time>2019-07-07T15:33:27.000Z</time>
      </trkpt>
      <trkpt lat="41.68725854717195034027099609375" lon="-2.48400625772774219512939453125">
        <ele>1033.5999755859375</ele>
        <time>2019-07-07T15:33:28.000Z</time>
      </trkpt>
      <trkpt lat="41.68818659149110317230224609375" lon="-2.48375547118484973907470703125">
        <ele>1034</ele>
        <time>2019-07-07T15:33:31.000Z</time>
      </trkpt>
      <trkpt lat="41.68880383484065532684326171875" lon="-2.48363024555146694183349609375">
        <ele>1033</ele>
        <time>2019-07-07T15:33:33.000Z</time>
      </trkpt>
      <trkpt lat="41.6891168989241123199462890625" lon="-2.483574338257312774658203125">
        <ele>1031</ele>
        <time>2019-07-07T15:33:34.000Z</time>
      </trkpt>
      <trkpt lat="41.6891168989241123199462890625" lon="-2.483574338257312774658203125">
        <ele>1029.4000244140625</ele>
        <time>2019-07-07T15:33:35.000Z</time>
      </trkpt>
      <trkpt lat="41.689748726785182952880859375" lon="-2.48347333632409572601318359375">
        <ele>1026.800048828125</ele>
        <time>2019-07-07T15:33:36.000Z</time>
      </trkpt>
      <trkpt lat="41.6900677420198917388916015625" lon="-2.483428157866001129150390625">
        <ele>1025.5999755859375</ele>
        <time>2019-07-07T15:33:37.000Z</time>
      </trkpt>
      <trkpt lat="41.6903887689113616943359375" lon="-2.4833860807120800018310546875">
        <ele>1024.199951171875</ele>
        <time>2019-07-07T15:33:38.000Z</time>
      </trkpt>
      <trkpt lat="41.6910356841981410980224609375" lon="-2.48331257142126560211181640625">
        <ele>1020.79998779296875</ele>
        <time>2019-07-07T15:33:40.000Z</time>
      </trkpt>
      <trkpt lat="41.691361404955387115478515625" lon="-2.48328574933111667633056640625">
        <ele>1017.20001220703125</ele>
        <time>2019-07-07T15:33:41.000Z</time>
      </trkpt>
      <trkpt lat="41.6916874609887599945068359375" lon="-2.48326429165899753570556640625">
        <ele>1013.79998779296875</ele>
        <time>2019-07-07T15:33:42.000Z</time>
      </trkpt>
      <trkpt lat="41.69200890697538852691650390625" lon="-2.4832476116716861724853515625">
        <ele>1012</ele>
        <time>2019-07-07T15:33:43.000Z</time>
      </trkpt>
      <trkpt lat="41.69264878146350383758544921875" lon="-2.4832301773130893707275390625">
        <ele>1009.5999755859375</ele>
        <time>2019-07-07T15:33:45.000Z</time>
      </trkpt>
      <trkpt lat="41.6932857222855091094970703125" lon="-2.48323763720691204071044921875">
        <ele>1007.79998779296875</ele>
        <time>2019-07-07T15:33:47.000Z</time>
      </trkpt>
      <trkpt lat="41.69360582716763019561767578125" lon="-2.48324752785265445709228515625">
        <ele>1006.4000244140625</ele>
        <time>2019-07-07T15:33:48.000Z</time>
      </trkpt>
      <trkpt lat="41.6942469589412212371826171875" lon="-2.48327552340924739837646484375">
        <ele>1005.4000244140625</ele>
        <time>2019-07-07T15:33:50.000Z</time>
      </trkpt>
      <trkpt lat="41.69488616287708282470703125" lon="-2.48330452479422092437744140625">
        <ele>1004.20001220703125</ele>
        <time>2019-07-07T15:33:52.000Z</time>
      </trkpt>
      <trkpt lat="41.6952051781117916107177734375" lon="-2.4833176843822002410888671875">
        <ele>1002.5999755859375</ele>
        <time>2019-07-07T15:33:54.000Z</time>
      </trkpt>
      <trkpt lat="41.69616364873945713043212890625" lon="-2.48334861360490322113037109375">
        <ele>1001.20001220703125</ele>
        <time>2019-07-07T15:33:56.000Z</time>
      </trkpt>
      <trkpt lat="41.69680620543658733367919921875" lon="-2.48337258584797382354736328125">
        <ele>999.4000244140625</ele>
        <time>2019-07-07T15:33:58.000Z</time>
      </trkpt>
      <trkpt lat="41.697126813232898712158203125" lon="-2.4833887629210948944091796875">
        <ele>998.4000244140625</ele>
        <time>2019-07-07T15:33:59.000Z</time>
      </trkpt>
      <trkpt lat="41.6977690346539020538330078125" lon="-2.48342187143862247467041015625">
        <ele>996.79998779296875</ele>
        <time>2019-07-07T15:34:02.000Z</time>
      </trkpt>
      <trkpt lat="41.6984112560749053955078125" lon="-2.4834467656910419464111328125">
        <ele>996.4000244140625</ele>
        <time>2019-07-07T15:34:03.000Z</time>
      </trkpt>
      <trkpt lat="41.6987309418618679046630859375" lon="-2.48345799744129180908203125">
        <ele>997.79998779296875</ele>
        <time>2019-07-07T15:34:04.000Z</time>
      </trkpt>
      <trkpt lat="41.6990504600107669830322265625" lon="-2.48346713371574878692626953125">
        <ele>1000.20001220703125</ele>
        <time>2019-07-07T15:34:05.000Z</time>
      </trkpt>
      <trkpt lat="41.699368469417095184326171875" lon="-2.48347668908536434173583984375">
        <ele>1005.20001220703125</ele>
        <time>2019-07-07T15:34:06.000Z</time>
      </trkpt>
      <trkpt lat="41.699686981737613677978515625" lon="-2.483485154807567596435546875">
        <ele>1010.4000244140625</ele>
        <time>2019-07-07T15:34:07.000Z</time>
      </trkpt>
      <trkpt lat="41.70000272803008556365966796875" lon="-2.483494542539119720458984375">
        <ele>1014.79998779296875</ele>
        <time>2019-07-07T15:34:08.000Z</time>
      </trkpt>
      <trkpt lat="41.70031621120870113372802734375" lon="-2.48350585810840129852294921875">
        <ele>1017.20001220703125</ele>
        <time>2019-07-07T15:34:09.000Z</time>
      </trkpt>
      <trkpt lat="41.70062852092087268829345703125" lon="-2.48351943679153919219970703125">
        <ele>1018.5999755859375</ele>
        <time>2019-07-07T15:34:10.000Z</time>
      </trkpt>
      <trkpt lat="41.70124945230782032012939453125" lon="-2.48354977928102016448974609375">
        <ele>1015.20001220703125</ele>
        <time>2019-07-07T15:34:12.000Z</time>
      </trkpt>
      <trkpt lat="41.70124945230782032012939453125" lon="-2.48354977928102016448974609375">
        <ele>1013</ele>
        <time>2019-07-07T15:34:13.000Z</time>
      </trkpt>
      <trkpt lat="41.70155757106840610504150390625" lon="-2.4835610948503017425537109375">
        <ele>1005.5999755859375</ele>
        <time>2019-07-07T15:34:14.000Z</time>
      </trkpt>
      <trkpt lat="41.70217028819024562835693359375" lon="-2.4835818819701671600341796875">
        <ele>997.79998779296875</ele>
        <time>2019-07-07T15:34:15.000Z</time>
      </trkpt>
      <trkpt lat="41.70217028819024562835693359375" lon="-2.4835818819701671600341796875">
        <ele>988.79998779296875</ele>
        <time>2019-07-07T15:34:16.000Z</time>
      </trkpt>
      <trkpt lat="41.70247790403664112091064453125" lon="-2.48359235934913158416748046875">
        <ele>982.79998779296875</ele>
        <time>2019-07-07T15:34:17.000Z</time>
      </trkpt>
      <trkpt lat="41.70309506356716156005859375" lon="-2.48361834324896335601806640625">
        <ele>978.4000244140625</ele>
        <time>2019-07-07T15:34:18.000Z</time>
      </trkpt>
      <trkpt lat="41.70309506356716156005859375" lon="-2.48361834324896335601806640625">
        <ele>974.4000244140625</ele>
        <time>2019-07-07T15:34:19.000Z</time>
      </trkpt>
      <trkpt lat="41.70340276323258876800537109375" lon="-2.48363326303660869598388671875">
        <ele>972.4000244140625</ele>
        <time>2019-07-07T15:34:20.000Z</time>
      </trkpt>
      <trkpt lat="41.7040152288973331451416015625" lon="-2.48366192914545536041259765625">
        <ele>970.4000244140625</ele>
        <time>2019-07-07T15:34:21.000Z</time>
      </trkpt>
      <trkpt lat="41.7040152288973331451416015625" lon="-2.48366192914545536041259765625">
        <ele>966.79998779296875</ele>
        <time>2019-07-07T15:34:22.000Z</time>
      </trkpt>
      <trkpt lat="41.7046272754669189453125" lon="-2.48368958942592144012451171875">
        <ele>964.4000244140625</ele>
        <time>2019-07-07T15:34:23.000Z</time>
      </trkpt>
      <trkpt lat="41.7046272754669189453125" lon="-2.48368958942592144012451171875">
        <ele>962.5999755859375</ele>
        <time>2019-07-07T15:34:24.000Z</time>
      </trkpt>
      <trkpt lat="41.70524560846388339996337890625" lon="-2.4837136454880237579345703125">
        <ele>961.79998779296875</ele>
        <time>2019-07-07T15:34:25.000Z</time>
      </trkpt>
      <trkpt lat="41.7055541463196277618408203125" lon="-2.483726553618907928466796875">
        <ele>961</ele>
        <time>2019-07-07T15:34:26.000Z</time>
      </trkpt>
      <trkpt lat="41.70616728253662586212158203125" lon="-2.483745329082012176513671875">
        <ele>960.4000244140625</ele>
        <time>2019-07-07T15:34:28.000Z</time>
      </trkpt>
      <trkpt lat="41.7064714618027210235595703125" lon="-2.48375413008034229278564453125">
        <ele>960</ele>
        <time>2019-07-07T15:34:29.000Z</time>
      </trkpt>
      <trkpt lat="41.70677480287849903106689453125" lon="-2.48376485891640186309814453125">
        <ele>958.79998779296875</ele>
        <time>2019-07-07T15:34:31.000Z</time>
      </trkpt>
      <trkpt lat="41.70737913809716701507568359375" lon="-2.48378547839820384979248046875">
        <ele>958.20001220703125</ele>
        <time>2019-07-07T15:34:33.000Z</time>
      </trkpt>
      <trkpt lat="41.70798380859196186065673828125" lon="-2.4838075228035449981689453125">
        <ele>959.20001220703125</ele>
        <time>2019-07-07T15:34:34.000Z</time>
      </trkpt>
      <trkpt lat="41.70798380859196186065673828125" lon="-2.4838075228035449981689453125">
        <ele>964.4000244140625</ele>
        <time>2019-07-07T15:34:35.000Z</time>
      </trkpt>
      <trkpt lat="41.70828538946807384490966796875" lon="-2.4838226102292537689208984375">
        <ele>970.4000244140625</ele>
        <time>2019-07-07T15:34:36.000Z</time>
      </trkpt>
      <trkpt lat="41.7088881321251392364501953125" lon="-2.48385203070938587188720703125">
        <ele>977.20001220703125</ele>
        <time>2019-07-07T15:34:37.000Z</time>
      </trkpt>
      <trkpt lat="41.70918828807771205902099609375" lon="-2.48386141844093799591064453125">
        <ele>981.20001220703125</ele>
        <time>2019-07-07T15:34:38.000Z</time>
      </trkpt>
      <trkpt lat="41.70949003659188747406005859375" lon="-2.4838658608496189117431640625">
        <ele>983.79998779296875</ele>
        <time>2019-07-07T15:34:39.000Z</time>
      </trkpt>
      <trkpt lat="41.71009722165763378143310546875" lon="-2.48386225663125514984130859375">
        <ele>984.5999755859375</ele>
        <time>2019-07-07T15:34:41.000Z</time>
      </trkpt>
      <trkpt lat="41.71070138923823833465576171875" lon="-2.48384951613843441009521484375">
        <ele>984.20001220703125</ele>
        <time>2019-07-07T15:34:43.000Z</time>
      </trkpt>
      <trkpt lat="41.71129499562084674835205078125" lon="-2.48382604680955410003662109375">
        <ele>984.20001220703125</ele>
        <time>2019-07-07T15:34:45.000Z</time>
      </trkpt>
      <trkpt lat="41.7118751071393489837646484375" lon="-2.4837937764823436737060546875">
        <ele>985</ele>
        <time>2019-07-07T15:34:47.000Z</time>
      </trkpt>
      <trkpt lat="41.71216134913265705108642578125" lon="-2.48377340845763683319091796875">
        <ele>986.79998779296875</ele>
        <time>2019-07-07T15:34:48.000Z</time>
      </trkpt>
      <trkpt lat="41.7127240262925624847412109375" lon="-2.483729235827922821044921875">
        <ele>988.20001220703125</ele>
        <time>2019-07-07T15:34:50.000Z</time>
      </trkpt>
      <trkpt lat="41.71300171874463558197021484375" lon="-2.483704090118408203125">
        <ele>990.5999755859375</ele>
        <time>2019-07-07T15:34:51.000Z</time>
      </trkpt>
      <trkpt lat="41.71300171874463558197021484375" lon="-2.483704090118408203125">
        <ele>991.79998779296875</ele>
        <time>2019-07-07T15:34:52.000Z</time>
      </trkpt>
      <trkpt lat="41.713550984859466552734375" lon="-2.4836479313671588897705078125">
        <ele>994.20001220703125</ele>
        <time>2019-07-07T15:34:53.000Z</time>
      </trkpt>
      <trkpt lat="41.7138227261602878570556640625" lon="-2.4836142361164093017578125">
        <ele>996.79998779296875</ele>
        <time>2019-07-07T15:34:54.000Z</time>
      </trkpt>
      <trkpt lat="41.7140919528901576995849609375" lon="-2.48357660137116909027099609375">
        <ele>998.4000244140625</ele>
        <time>2019-07-07T15:34:55.000Z</time>
      </trkpt>
      <trkpt lat="41.71435891650617122650146484375" lon="-2.48353787697851657867431640625">
        <ele>1000.4000244140625</ele>
        <time>2019-07-07T15:34:56.000Z</time>
      </trkpt>
      <trkpt lat="41.71435891650617122650146484375" lon="-2.48353787697851657867431640625">
        <ele>1002.79998779296875</ele>
        <time>2019-07-07T15:34:57.000Z</time>
      </trkpt>
      <trkpt lat="41.71488940715789794921875" lon="-2.48347132466733455657958984375">
        <ele>1005.4000244140625</ele>
        <time>2019-07-07T15:34:58.000Z</time>
      </trkpt>
      <trkpt lat="41.71515469439327716827392578125" lon="-2.48344383202493190765380859375">
        <ele>1006.79998779296875</ele>
        <time>2019-07-07T15:34:59.000Z</time>
      </trkpt>
      <trkpt lat="41.715422160923480987548828125" lon="-2.4834211170673370361328125">
        <ele>1009</ele>
        <time>2019-07-07T15:35:00.000Z</time>
      </trkpt>
      <trkpt lat="41.7156927287578582763671875" lon="-2.483402006328105926513671875">
        <ele>1011.20001220703125</ele>
        <time>2019-07-07T15:35:01.000Z</time>
      </trkpt>
      <trkpt lat="41.71596740372478961944580078125" lon="-2.48338566161692142486572265625">
        <ele>1012.5999755859375</ele>
        <time>2019-07-07T15:35:02.000Z</time>
      </trkpt>
      <trkpt lat="41.71652354300022125244140625" lon="-2.48335313983261585235595703125">
        <ele>1012</ele>
        <time>2019-07-07T15:35:04.000Z</time>
      </trkpt>
      <trkpt lat="41.71708890236914157867431640625" lon="-2.4833186902105808258056640625">
        <ele>1013.20001220703125</ele>
        <time>2019-07-07T15:35:06.000Z</time>
      </trkpt>
      <trkpt lat="41.71766155399382114410400390625" lon="-2.48329094611108303070068359375">
        <ele>1014.4000244140625</ele>
        <time>2019-07-07T15:35:08.000Z</time>
      </trkpt>
      <trkpt lat="41.7179484665393829345703125" lon="-2.48328055255115032196044921875">
        <ele>1016.79998779296875</ele>
        <time>2019-07-07T15:35:09.000Z</time>
      </trkpt>
      <trkpt lat="41.7179484665393829345703125" lon="-2.48328055255115032196044921875">
        <ele>1018.5999755859375</ele>
        <time>2019-07-07T15:35:10.000Z</time>
      </trkpt>
      <trkpt lat="41.71852170489728450775146484375" lon="-2.48327535577118396759033203125">
        <ele>1019.79998779296875</ele>
        <time>2019-07-07T15:35:11.000Z</time>
      </trkpt>
      <trkpt lat="41.71880819834768772125244140625" lon="-2.48327904380857944488525390625">
        <ele>1021.5999755859375</ele>
        <time>2019-07-07T15:35:12.000Z</time>
      </trkpt>
      <trkpt lat="41.71909502707421779632568359375" lon="-2.48328231275081634521484375">
        <ele>1022.79998779296875</ele>
        <time>2019-07-07T15:35:13.000Z</time>
      </trkpt>
      <trkpt lat="41.71966801397502422332763671875" lon="-2.48328709043562412261962890625">
        <ele>1023.79998779296875</ele>
        <time>2019-07-07T15:35:15.000Z</time>
      </trkpt>
      <trkpt lat="41.719955094158649444580078125" lon="-2.483292035758495330810546875">
        <ele>1024</ele>
        <time>2019-07-07T15:35:16.000Z</time>
      </trkpt>
      <trkpt lat="41.7202442698180675506591796875" lon="-2.48329413123428821563720703125">
        <ele>1025</ele>
        <time>2019-07-07T15:35:17.000Z</time>
      </trkpt>
      <trkpt lat="41.72053344547748565673828125" lon="-2.4832915328443050384521484375">
        <ele>1026.4000244140625</ele>
        <time>2019-07-07T15:35:18.000Z</time>
      </trkpt>
      <trkpt lat="41.72111607156693935394287109375" lon="-2.48326261527836322784423828125">
        <ele>1027.800048828125</ele>
        <time>2019-07-07T15:35:20.000Z</time>
      </trkpt>
      <trkpt lat="41.7217057384550571441650390625" lon="-2.48320561833679676055908203125">
        <ele>1028.4000244140625</ele>
        <time>2019-07-07T15:35:22.000Z</time>
      </trkpt>
      <trkpt lat="41.72230194322764873504638671875" lon="-2.48311844654381275177001953125">
        <ele>1028.199951171875</ele>
        <time>2019-07-07T15:35:24.000Z</time>
      </trkpt>
      <trkpt lat="41.722906865179538726806640625" lon="-2.483005709946155548095703125">
        <ele>1030.4000244140625</ele>
        <time>2019-07-07T15:35:26.000Z</time>
      </trkpt>
      <trkpt lat="41.723505668342113494873046875" lon="-2.48287470079958438873291015625">
        <ele>1032.4000244140625</ele>
        <time>2019-07-07T15:35:28.000Z</time>
      </trkpt>
      <trkpt lat="41.72380029223859310150146484375" lon="-2.482798509299755096435546875">
        <ele>1033.5999755859375</ele>
        <time>2019-07-07T15:35:29.000Z</time>
      </trkpt>
      <trkpt lat="41.72380029223859310150146484375" lon="-2.482798509299755096435546875">
        <ele>1034.800048828125</ele>
        <time>2019-07-07T15:35:30.000Z</time>
      </trkpt>
      <trkpt lat="41.72466999851167201995849609375" lon="-2.482521235942840576171875">
        <ele>1035.5999755859375</ele>
        <time>2019-07-07T15:35:32.000Z</time>
      </trkpt>
      <trkpt lat="41.7252360284328460693359375" lon="-2.48231395147740840911865234375">
        <ele>1034.4000244140625</ele>
        <time>2019-07-07T15:35:34.000Z</time>
      </trkpt>
      <trkpt lat="41.72551439143717288970947265625" lon="-2.48220196925103664398193359375">
        <ele>1033</ele>
        <time>2019-07-07T15:35:35.000Z</time>
      </trkpt>
      <trkpt lat="41.725790239870548248291015625" lon="-2.4820826947689056396484375">
        <ele>1029.199951171875</ele>
        <time>2019-07-07T15:35:36.000Z</time>
      </trkpt>
      <trkpt lat="41.72606122680008411407470703125" lon="-2.4819567985832691192626953125">
        <ele>1023.79998779296875</ele>
        <time>2019-07-07T15:35:37.000Z</time>
      </trkpt>
      <trkpt lat="41.726326011121273040771484375" lon="-2.4818283878266811370849609375">
        <ele>1019</ele>
        <time>2019-07-07T15:35:38.000Z</time>
      </trkpt>
      <trkpt lat="41.72658559866249561309814453125" lon="-2.48169955797493457794189453125">
        <ele>1016.5999755859375</ele>
        <time>2019-07-07T15:35:39.000Z</time>
      </trkpt>
      <trkpt lat="41.7268426716327667236328125" lon="-2.481571398675441741943359375">
        <ele>1015.4000244140625</ele>
        <time>2019-07-07T15:35:40.000Z</time>
      </trkpt>
      <trkpt lat="41.727098487317562103271484375" lon="-2.4814414791762828826904296875">
        <ele>1016.5999755859375</ele>
        <time>2019-07-07T15:35:42.000Z</time>
      </trkpt>
      <trkpt lat="41.72761020250618457794189453125" lon="-2.48117744922637939453125">
        <ele>1018.4000244140625</ele>
        <time>2019-07-07T15:35:43.000Z</time>
      </trkpt>
      <trkpt lat="41.7278681136667728424072265625" lon="-2.48104526661336421966552734375">
        <ele>1019.79998779296875</ele>
        <time>2019-07-07T15:35:44.000Z</time>
      </trkpt>
      <trkpt lat="41.72812786884605884552001953125" lon="-2.48091526329517364501953125">
        <ele>1020.79998779296875</ele>
        <time>2019-07-07T15:35:45.000Z</time>
      </trkpt>
      <trkpt lat="41.7286531627178192138671875" lon="-2.480670511722564697265625">
        <ele>1022.5999755859375</ele>
        <time>2019-07-07T15:35:47.000Z</time>
      </trkpt>
      <trkpt lat="41.7289173603057861328125" lon="-2.48055442236363887786865234375">
        <ele>1025</ele>
        <time>2019-07-07T15:35:48.000Z</time>
      </trkpt>
      <trkpt lat="41.72918222844600677490234375" lon="-2.480442188680171966552734375">
        <ele>1028.4000244140625</ele>
        <time>2019-07-07T15:35:49.000Z</time>
      </trkpt>
      <trkpt lat="41.72944818623363971710205078125" lon="-2.48033632524311542510986328125">
        <ele>1031.5999755859375</ele>
        <time>2019-07-07T15:35:50.000Z</time>
      </trkpt>
      <trkpt lat="41.72971523366868495941162109375" lon="-2.48023624531924724578857421875">
        <ele>1033.199951171875</ele>
        <time>2019-07-07T15:35:51.000Z</time>
      </trkpt>
      <trkpt lat="41.72971523366868495941162109375" lon="-2.48023624531924724578857421875">
        <ele>1034.800048828125</ele>
        <time>2019-07-07T15:35:52.000Z</time>
      </trkpt>
      <trkpt lat="41.7302542738616466522216796875" lon="-2.4800577946007251739501953125">
        <ele>1035.199951171875</ele>
        <time>2019-07-07T15:35:53.000Z</time>
      </trkpt>
      <trkpt lat="41.7305228300392627716064453125" lon="-2.4799803458154201507568359375">
        <ele>1035.800048828125</ele>
        <time>2019-07-07T15:35:55.000Z</time>
      </trkpt>
      <trkpt lat="41.73104829154908657073974609375" lon="-2.4798536114394664764404296875">
        <ele>1037</ele>
        <time>2019-07-07T15:35:56.000Z</time>
      </trkpt>
      <trkpt lat="41.73131181858479976654052734375" lon="-2.47980256564915180206298828125">
        <ele>1039.199951171875</ele>
        <time>2019-07-07T15:35:57.000Z</time>
      </trkpt>
      <trkpt lat="41.73131181858479976654052734375" lon="-2.47980256564915180206298828125">
        <ele>1042.199951171875</ele>
        <time>2019-07-07T15:35:58.000Z</time>
      </trkpt>
      <trkpt lat="41.731845326721668243408203125" lon="-2.47972729615867137908935546875">
        <ele>1045.5999755859375</ele>
        <time>2019-07-07T15:35:59.000Z</time>
      </trkpt>
      <trkpt lat="41.73211522400379180908203125" lon="-2.47969896532595157623291015625">
        <ele>1049.4000244140625</ele>
        <time>2019-07-07T15:36:00.000Z</time>
      </trkpt>
      <trkpt lat="41.73238755203783512115478515625" lon="-2.4796767532825469970703125">
        <ele>1051.199951171875</ele>
        <time>2019-07-07T15:36:01.000Z</time>
      </trkpt>
      <trkpt lat="41.7326635681092739105224609375" lon="-2.4796601571142673492431640625">
        <ele>1052.5999755859375</ele>
        <time>2019-07-07T15:36:02.000Z</time>
      </trkpt>
      <trkpt lat="41.7326635681092739105224609375" lon="-2.4796601571142673492431640625">
        <ele>1053.800048828125</ele>
        <time>2019-07-07T15:36:03.000Z</time>
      </trkpt>
      <trkpt lat="41.73349614255130290985107421875" lon="-2.47965672053396701812744140625">
        <ele>1053.800048828125</ele>
        <time>2019-07-07T15:36:05.000Z</time>
      </trkpt>
      <trkpt lat="41.73405689187347888946533203125" lon="-2.47969443909823894500732421875">
        <ele>1053.800048828125</ele>
        <time>2019-07-07T15:36:07.000Z</time>
      </trkpt>
      <trkpt lat="41.73461663536727428436279296875" lon="-2.47976954095065593719482421875">
        <ele>1052.5999755859375</ele>
        <time>2019-07-07T15:36:09.000Z</time>
      </trkpt>
      <trkpt lat="41.7348973453044891357421875" lon="-2.479819916188716888427734375">
        <ele>1050.4000244140625</ele>
        <time>2019-07-07T15:36:10.000Z</time>
      </trkpt>
      <trkpt lat="41.7354601062834262847900390625" lon="-2.47993935830891132354736328125">
        <ele>1049.4000244140625</ele>
        <time>2019-07-07T15:36:12.000Z</time>
      </trkpt>
      <trkpt lat="41.73574115149676799774169921875" lon="-2.4800068326294422149658203125">
        <ele>1046.800048828125</ele>
        <time>2019-07-07T15:36:14.000Z</time>
      </trkpt>
      <trkpt lat="41.73628740012645721435546875" lon="-2.48016466386616230010986328125">
        <ele>1045.5999755859375</ele>
        <time>2019-07-07T15:36:15.000Z</time>
      </trkpt>
      <trkpt lat="41.7368055693805217742919921875" lon="-2.4803545139729976654052734375">
        <ele>1045</ele>
        <time>2019-07-07T15:36:17.000Z</time>
      </trkpt>
      <trkpt lat="41.73730990849435329437255859375" lon="-2.48057034797966480255126953125">
        <ele>1045</ele>
        <time>2019-07-07T15:36:19.000Z</time>
      </trkpt>
      <trkpt lat="41.73730990849435329437255859375" lon="-2.48057034797966480255126953125">
        <ele>1043.800048828125</ele>
        <time>2019-07-07T15:36:20.000Z</time>
      </trkpt>
      <trkpt lat="41.7375607788562774658203125" lon="-2.4806743673980236053466796875">
        <ele>1042.4000244140625</ele>
        <time>2019-07-07T15:36:21.000Z</time>
      </trkpt>
      <trkpt lat="41.73781231977045536041259765625" lon="-2.48077939264476299285888671875">
        <ele>1039</ele>
        <time>2019-07-07T15:36:22.000Z</time>
      </trkpt>
      <trkpt lat="41.738066375255584716796875" lon="-2.48088517226278781890869140625">
        <ele>1034.199951171875</ele>
        <time>2019-07-07T15:36:23.000Z</time>
      </trkpt>
      <trkpt lat="41.73832160420715808868408203125" lon="-2.48098894022405147552490234375">
        <ele>1029.800048828125</ele>
        <time>2019-07-07T15:36:24.000Z</time>
      </trkpt>
      <trkpt lat="41.738576330244541168212890625" lon="-2.4810857512056827545166015625">
        <ele>1027.5999755859375</ele>
        <time>2019-07-07T15:36:25.000Z</time>
      </trkpt>
      <trkpt lat="41.738827116787433624267578125" lon="-2.481174767017364501953125">
        <ele>1026</ele>
        <time>2019-07-07T15:36:26.000Z</time>
      </trkpt>
      <trkpt lat="41.73931804485619068145751953125" lon="-2.48132404871284961700439453125">
        <ele>1024.800048828125</ele>
        <time>2019-07-07T15:36:27.000Z</time>
      </trkpt>
      <trkpt lat="41.73931804485619068145751953125" lon="-2.48132404871284961700439453125">
        <ele>1023.5999755859375</ele>
        <time>2019-07-07T15:36:28.000Z</time>
      </trkpt>
      <trkpt lat="41.7398049496114253997802734375" lon="-2.481445334851741790771484375">
        <ele>1023.79998779296875</ele>
        <time>2019-07-07T15:36:29.000Z</time>
      </trkpt>
      <trkpt lat="41.74030057154595851898193359375" lon="-2.48153812251985073089599609375">
        <ele>1022.5999755859375</ele>
        <time>2019-07-07T15:36:32.000Z</time>
      </trkpt>
      <trkpt lat="41.74080717377364635467529296875" lon="-2.48160190880298614501953125">
        <ele>1021.5999755859375</ele>
        <time>2019-07-07T15:36:34.000Z</time>
      </trkpt>
      <trkpt lat="41.74105661921203136444091796875" lon="-2.481619678437709808349609375">
        <ele>1021.4000244140625</ele>
        <time>2019-07-07T15:36:35.000Z</time>
      </trkpt>
      <trkpt lat="41.7417485453188419342041015625" lon="-2.48163677752017974853515625">
        <ele>1020.79998779296875</ele>
        <time>2019-07-07T15:36:37.000Z</time>
      </trkpt>
      <trkpt lat="41.74241096712648868560791015625" lon="-2.48164373449981212615966796875">
        <ele>1021.5999755859375</ele>
        <time>2019-07-07T15:36:41.000Z</time>
      </trkpt>
      <trkpt lat="41.743100546300411224365234375" lon="-2.4816972948610782623291015625">
        <ele>1023.4000244140625</ele>
        <time>2019-07-07T15:36:43.000Z</time>
      </trkpt>
      <trkpt lat="41.743338592350482940673828125" lon="-2.48173191212117671966552734375">
        <ele>1025</ele>
        <time>2019-07-07T15:36:44.000Z</time>
      </trkpt>
      <trkpt lat="41.74357739277184009552001953125" lon="-2.48177851550281047821044921875">
        <ele>1026.5999755859375</ele>
        <time>2019-07-07T15:36:45.000Z</time>
      </trkpt>
      <trkpt lat="41.74357739277184009552001953125" lon="-2.48177851550281047821044921875">
        <ele>1028.199951171875</ele>
        <time>2019-07-07T15:36:46.000Z</time>
      </trkpt>
      <trkpt lat="41.74381577409803867340087890625" lon="-2.48184557072818279266357421875">
        <ele>1029.199951171875</ele>
        <time>2019-07-07T15:36:47.000Z</time>
      </trkpt>
      <trkpt lat="41.74428633414208889007568359375" lon="-2.4820141308009624481201171875">
        <ele>1029.800048828125</ele>
        <time>2019-07-07T15:36:48.000Z</time>
      </trkpt>
      <trkpt lat="41.74473610706627368927001953125" lon="-2.48221470974385738372802734375">
        <ele>1026.199951171875</ele>
        <time>2019-07-07T15:36:51.000Z</time>
      </trkpt>
      <trkpt lat="41.7449462413787841796875" lon="-2.48233591206371784210205078125">
        <ele>1023.5999755859375</ele>
        <time>2019-07-07T15:36:52.000Z</time>
      </trkpt>
      <trkpt lat="41.7453525960445404052734375" lon="-2.48261704109609127044677734375">
        <ele>1021.5999755859375</ele>
        <time>2019-07-07T15:36:53.000Z</time>
      </trkpt>
      <trkpt lat="41.745550073683261871337890625" lon="-2.482762299478054046630859375">
        <ele>1020.20001220703125</ele>
        <time>2019-07-07T15:36:54.000Z</time>
      </trkpt>
      <trkpt lat="41.74574377946555614471435546875" lon="-2.48290655203163623809814453125">
        <ele>1018.20001220703125</ele>
        <time>2019-07-07T15:36:55.000Z</time>
      </trkpt>
      <trkpt lat="41.7461309395730495452880859375" lon="-2.48319690115749835968017578125">
        <ele>1015.4000244140625</ele>
        <time>2019-07-07T15:36:57.000Z</time>
      </trkpt>
      <trkpt lat="41.7461309395730495452880859375" lon="-2.48319690115749835968017578125">
        <ele>1012.79998779296875</ele>
        <time>2019-07-07T15:36:58.000Z</time>
      </trkpt>
      <trkpt lat="41.74652765505015850067138671875" lon="-2.483497560024261474609375">
        <ele>1010</ele>
        <time>2019-07-07T15:36:59.000Z</time>
      </trkpt>
      <trkpt lat="41.74672613851726055145263671875" lon="-2.48364784754812717437744140625">
        <ele>1007.79998779296875</ele>
        <time>2019-07-07T15:37:00.000Z</time>
      </trkpt>
      <trkpt lat="41.74672613851726055145263671875" lon="-2.48364784754812717437744140625">
        <ele>1006</ele>
        <time>2019-07-07T15:37:01.000Z</time>
      </trkpt>
      <trkpt lat="41.74711673520505428314208984375" lon="-2.483941800892353057861328125">
        <ele>1005</ele>
        <time>2019-07-07T15:37:02.000Z</time>
      </trkpt>
      <trkpt lat="41.74731069244444370269775390625" lon="-2.4840847961604595184326171875">
        <ele>1003</ele>
        <time>2019-07-07T15:37:04.000Z</time>
      </trkpt>
      <trkpt lat="41.747699193656444549560546875" lon="-2.48436785303056240081787109375">
        <ele>1002</ele>
        <time>2019-07-07T15:37:05.000Z</time>
      </trkpt>
      <trkpt lat="41.7480862699449062347412109375" lon="-2.4846530891954898834228515625">
        <ele>1000.20001220703125</ele>
        <time>2019-07-07T15:37:07.000Z</time>
      </trkpt>
      <trkpt lat="41.748281233012676239013671875" lon="-2.48479382134974002838134765625">
        <ele>999</ele>
        <time>2019-07-07T15:37:09.000Z</time>
      </trkpt>
      <trkpt lat="41.74867610447108745574951171875" lon="-2.48504628427326679229736328125">
        <ele>996.5999755859375</ele>
        <time>2019-07-07T15:37:11.000Z</time>
      </trkpt>
      <trkpt lat="41.74909251742064952850341796875" lon="-2.48522079549729824066162109375">
        <ele>995.5999755859375</ele>
        <time>2019-07-07T15:37:12.000Z</time>
      </trkpt>
      <trkpt lat="41.74930592067539691925048828125" lon="-2.48528248630464076995849609375">
        <ele>995.20001220703125</ele>
        <time>2019-07-07T15:37:13.000Z</time>
      </trkpt>
      <trkpt lat="41.7497401870787143707275390625" lon="-2.48536228202283382415771484375">
        <ele>995.4000244140625</ele>
        <time>2019-07-07T15:37:15.000Z</time>
      </trkpt>
      <trkpt lat="41.75039255060255527496337890625" lon="-2.4853672273457050323486328125">
        <ele>996.5999755859375</ele>
        <time>2019-07-07T15:37:18.000Z</time>
      </trkpt>
      <trkpt lat="41.75122654996812343597412109375" lon="-2.4852155148983001708984375">
        <ele>997.20001220703125</ele>
        <time>2019-07-07T15:37:22.000Z</time>
      </trkpt>
      <trkpt lat="41.751822419464588165283203125" lon="-2.48508417047560214996337890625">
        <ele>997.79998779296875</ele>
        <time>2019-07-07T15:37:26.000Z</time>
      </trkpt>
      <trkpt lat="41.75241694785654544830322265625" lon="-2.48495240695774555206298828125">
        <ele>997.4000244140625</ele>
        <time>2019-07-07T15:37:28.000Z</time>
      </trkpt>
      <trkpt lat="41.75261777825653553009033203125" lon="-2.4849097430706024169921875">
        <ele>996.4000244140625</ele>
        <time>2019-07-07T15:37:29.000Z</time>
      </trkpt>
      <trkpt lat="41.75324323587119579315185546875" lon="-2.48477320186793804168701171875">
        <ele>995.20001220703125</ele>
        <time>2019-07-07T15:37:32.000Z</time>
      </trkpt>
      <trkpt lat="41.7536808550357818603515625" lon="-2.48468837700784206390380859375">
        <ele>996.20001220703125</ele>
        <time>2019-07-07T15:37:35.000Z</time>
      </trkpt>
      <trkpt lat="41.75413423217833042144775390625" lon="-2.4846400134265422821044921875">
        <ele>997</ele>
        <time>2019-07-07T15:37:36.000Z</time>
      </trkpt>
      <trkpt lat="41.75436557270586490631103515625" lon="-2.4846416898071765899658203125">
        <ele>997.4000244140625</ele>
        <time>2019-07-07T15:37:37.000Z</time>
      </trkpt>
      <trkpt lat="41.75482816994190216064453125" lon="-2.48469650745391845703125">
        <ele>997.4000244140625</ele>
        <time>2019-07-07T15:37:39.000Z</time>
      </trkpt>
      <trkpt lat="41.75528054125607013702392578125" lon="-2.48482282273471355438232421875">
        <ele>996.79998779296875</ele>
        <time>2019-07-07T15:37:41.000Z</time>
      </trkpt>
      <trkpt lat="41.7557228542864322662353515625" lon="-2.4850044585764408111572265625">
        <ele>995.4000244140625</ele>
        <time>2019-07-07T15:37:43.000Z</time>
      </trkpt>
      <trkpt lat="41.7559401132166385650634765625" lon="-2.485113926231861114501953125">
        <ele>993.5999755859375</ele>
        <time>2019-07-07T15:37:45.000Z</time>
      </trkpt>
      <trkpt lat="41.7563605494797229766845703125" lon="-2.48536932282149791717529296875">
        <ele>993.5999755859375</ele>
        <time>2019-07-07T15:37:47.000Z</time>
      </trkpt>
      <trkpt lat="41.75676212646067142486572265625" lon="-2.4856937862932682037353515625">
        <ele>993.79998779296875</ele>
        <time>2019-07-07T15:37:48.000Z</time>
      </trkpt>
      <trkpt lat="41.756956167519092559814453125" lon="-2.485879696905612945556640625">
        <ele>995</ele>
        <time>2019-07-07T15:37:49.000Z</time>
      </trkpt>
      <trkpt lat="41.75714719109237194061279296875" lon="-2.48607642017304897308349609375">
        <ele>996.20001220703125</ele>
        <time>2019-07-07T15:37:50.000Z</time>
      </trkpt>
      <trkpt lat="41.75750308670103549957275390625" lon="-2.4865192361176013946533203125">
        <ele>997.79998779296875</ele>
        <time>2019-07-07T15:37:52.000Z</time>
      </trkpt>
      <trkpt lat="41.75782176665961742401123046875" lon="-2.48702474869787693023681640625">
        <ele>998.4000244140625</ele>
        <time>2019-07-07T15:37:54.000Z</time>
      </trkpt>
      <trkpt lat="41.75782176665961742401123046875" lon="-2.48702474869787693023681640625">
        <ele>998.79998779296875</ele>
        <time>2019-07-07T15:37:55.000Z</time>
      </trkpt>
      <trkpt lat="41.75809820182621479034423828125" lon="-2.48758248053491115570068359375">
        <ele>999</ele>
        <time>2019-07-07T15:37:56.000Z</time>
      </trkpt>
      <trkpt lat="41.75809820182621479034423828125" lon="-2.48758248053491115570068359375">
        <ele>1000.20001220703125</ele>
        <time>2019-07-07T15:37:57.000Z</time>
      </trkpt>
      <trkpt lat="41.758217476308345794677734375" lon="-2.48788020573556423187255859375">
        <ele>1001.79998779296875</ele>
        <time>2019-07-07T15:37:58.000Z</time>
      </trkpt>
      <trkpt lat="41.7583245970308780670166015625" lon="-2.48818865977227687835693359375">
        <ele>1003.5999755859375</ele>
        <time>2019-07-07T15:37:59.000Z</time>
      </trkpt>
      <trkpt lat="41.75850925035774707794189453125" lon="-2.48882786370813846588134765625">
        <ele>1005.4000244140625</ele>
        <time>2019-07-07T15:38:00.000Z</time>
      </trkpt>
      <trkpt lat="41.75867579877376556396484375" lon="-2.4894797243177890777587890625">
        <ele>1006.5999755859375</ele>
        <time>2019-07-07T15:38:02.000Z</time>
      </trkpt>
      <trkpt lat="41.75884653814136981964111328125" lon="-2.4901301600039005279541015625">
        <ele>1006.79998779296875</ele>
        <time>2019-07-07T15:38:04.000Z</time>
      </trkpt>
      <trkpt lat="41.759013421833515167236328125" lon="-2.49078084714710712432861328125">
        <ele>1006</ele>
        <time>2019-07-07T15:38:06.000Z</time>
      </trkpt>
      <trkpt lat="41.75918265245854854583740234375" lon="-2.49141904525458812713623046875">
        <ele>1005.5999755859375</ele>
        <time>2019-07-07T15:38:08.000Z</time>
      </trkpt>
      <trkpt lat="41.7593844048678874969482421875" lon="-2.4920175969600677490234375">
        <ele>1005.20001220703125</ele>
        <time>2019-07-07T15:38:10.000Z</time>
      </trkpt>
      <trkpt lat="41.759502924978733062744140625" lon="-2.4922992289066314697265625">
        <ele>1007</ele>
        <time>2019-07-07T15:38:12.000Z</time>
      </trkpt>
      <trkpt lat="41.75963477231562137603759765625" lon="-2.4925749935209751129150390625">
        <ele>1009.20001220703125</ele>
        <time>2019-07-07T15:38:13.000Z</time>
      </trkpt>
      <trkpt lat="41.759933419525623321533203125" lon="-2.49309743754565715789794921875">
        <ele>1011</ele>
        <time>2019-07-07T15:38:14.000Z</time>
      </trkpt>
      <trkpt lat="41.759933419525623321533203125" lon="-2.49309743754565715789794921875">
        <ele>1012.79998779296875</ele>
        <time>2019-07-07T15:38:15.000Z</time>
      </trkpt>
      <trkpt lat="41.7600988782942295074462890625" lon="-2.49334369786083698272705078125">
        <ele>1014.20001220703125</ele>
        <time>2019-07-07T15:38:16.000Z</time>
      </trkpt>
      <trkpt lat="41.760460473597049713134765625" lon="-2.49380193650722503662109375">
        <ele>1015.4000244140625</ele>
        <time>2019-07-07T15:38:18.000Z</time>
      </trkpt>
      <trkpt lat="41.7608542554080486297607421875" lon="-2.49418959952890872955322265625">
        <ele>1015.4000244140625</ele>
        <time>2019-07-07T15:38:20.000Z</time>
      </trkpt>
      <trkpt lat="41.76126287318766117095947265625" lon="-2.49450542964041233062744140625">
        <ele>1016.5999755859375</ele>
        <time>2019-07-07T15:38:22.000Z</time>
      </trkpt>
      <trkpt lat="41.761472336947917938232421875" lon="-2.49463870190083980560302734375">
        <ele>1018</ele>
        <time>2019-07-07T15:38:23.000Z</time>
      </trkpt>
      <trkpt lat="41.761685572564601898193359375" lon="-2.49475671909749507904052734375">
        <ele>1019.4000244140625</ele>
        <time>2019-07-07T15:38:24.000Z</time>
      </trkpt>
      <trkpt lat="41.7621303163468837738037109375" lon="-2.494947910308837890625">
        <ele>1021.4000244140625</ele>
        <time>2019-07-07T15:38:26.000Z</time>
      </trkpt>
      <trkpt lat="41.76259123720228672027587890625" lon="-2.49508378095924854278564453125">
        <ele>1022.4000244140625</ele>
        <time>2019-07-07T15:38:28.000Z</time>
      </trkpt>
      <trkpt lat="41.763064898550510406494140625" lon="-2.49518184922635555267333984375">
        <ele>1022.5999755859375</ele>
        <time>2019-07-07T15:38:29.000Z</time>
      </trkpt>
      <trkpt lat="41.763305626809597015380859375" lon="-2.49522375874221324920654296875">
        <ele>1023.5999755859375</ele>
        <time>2019-07-07T15:38:30.000Z</time>
      </trkpt>
      <trkpt lat="41.76354442723095417022705078125" lon="-2.49526650644838809967041015625">
        <ele>1025</ele>
        <time>2019-07-07T15:38:31.000Z</time>
      </trkpt>
      <trkpt lat="41.76378146745264530181884765625" lon="-2.49530933797359466552734375">
        <ele>1026.4000244140625</ele>
        <time>2019-07-07T15:38:32.000Z</time>
      </trkpt>
      <trkpt lat="41.76401582546532154083251953125" lon="-2.49535485170781612396240234375">
        <ele>1027.5999755859375</ele>
        <time>2019-07-07T15:38:33.000Z</time>
      </trkpt>
      <trkpt lat="41.76447666250169277191162109375" lon="-2.49543934129178524017333984375">
        <ele>1029.199951171875</ele>
        <time>2019-07-07T15:38:35.000Z</time>
      </trkpt>
      <trkpt lat="41.76470716483891010284423828125" lon="-2.4954825080931186676025390625">
        <ele>1031.5999755859375</ele>
        <time>2019-07-07T15:38:37.000Z</time>
      </trkpt>
      <trkpt lat="41.76516984589397907257080078125" lon="-2.49557680450379848480224609375">
        <ele>1032.5999755859375</ele>
        <time>2019-07-07T15:38:38.000Z</time>
      </trkpt>
      <trkpt lat="41.765398085117340087890625" lon="-2.49562181532382965087890625">
        <ele>1034.5999755859375</ele>
        <time>2019-07-07T15:38:40.000Z</time>
      </trkpt>
      <trkpt lat="41.76583771593868732452392578125" lon="-2.49569918029010295867919921875">
        <ele>1036.4000244140625</ele>
        <time>2019-07-07T15:38:41.000Z</time>
      </trkpt>
      <trkpt lat="41.76583771593868732452392578125" lon="-2.49569918029010295867919921875">
        <ele>1038.4000244140625</ele>
        <time>2019-07-07T15:38:42.000Z</time>
      </trkpt>
      <trkpt lat="41.766452528536319732666015625" lon="-2.49579037539660930633544921875">
        <ele>1040.800048828125</ele>
        <time>2019-07-07T15:38:44.000Z</time>
      </trkpt>
      <trkpt lat="41.76664539612829685211181640625" lon="-2.49581702984869480133056640625">
        <ele>1042.5999755859375</ele>
        <time>2019-07-07T15:38:45.000Z</time>
      </trkpt>
      <trkpt lat="41.76683952100574970245361328125" lon="-2.49584049917757511138916015625">
        <ele>1044.5999755859375</ele>
        <time>2019-07-07T15:38:46.000Z</time>
      </trkpt>
      <trkpt lat="41.7670354060828685760498046875" lon="-2.49585994519293308258056640625">
        <ele>1047</ele>
        <time>2019-07-07T15:38:47.000Z</time>
      </trkpt>
      <trkpt lat="41.76723204553127288818359375" lon="-2.49587503261864185333251953125">
        <ele>1048.800048828125</ele>
        <time>2019-07-07T15:38:48.000Z</time>
      </trkpt>
      <trkpt lat="41.76763211376965045928955078125" lon="-2.49588844366371631622314453125">
        <ele>1051.199951171875</ele>
        <time>2019-07-07T15:38:50.000Z</time>
      </trkpt>
      <trkpt lat="41.7678350396454334259033203125" lon="-2.49588056467473506927490234375">
        <ele>1052.199951171875</ele>
        <time>2019-07-07T15:38:51.000Z</time>
      </trkpt>
      <trkpt lat="41.7680398933589458465576171875" lon="-2.49585860408842563629150390625">
        <ele>1053.4000244140625</ele>
        <time>2019-07-07T15:38:52.000Z</time>
      </trkpt>
      <trkpt lat="41.768246255815029144287109375" lon="-2.49582490883767604827880859375">
        <ele>1054.800048828125</ele>
        <time>2019-07-07T15:38:53.000Z</time>
      </trkpt>
      <trkpt lat="41.76845471374690532684326171875" lon="-2.4957825802266597747802734375">
        <ele>1056.4000244140625</ele>
        <time>2019-07-07T15:38:54.000Z</time>
      </trkpt>
      <trkpt lat="41.76845471374690532684326171875" lon="-2.4957825802266597747802734375">
        <ele>1057.800048828125</ele>
        <time>2019-07-07T15:38:55.000Z</time>
      </trkpt>
      <trkpt lat="41.76886123605072498321533203125" lon="-2.49567680060863494873046875">
        <ele>1058.800048828125</ele>
        <time>2019-07-07T15:38:57.000Z</time>
      </trkpt>
      <trkpt lat="41.7693759687244892120361328125" lon="-2.49548862688243389129638671875">
        <ele>1057.199951171875</ele>
        <time>2019-07-07T15:39:00.000Z</time>
      </trkpt>
      <trkpt lat="41.76991266198456287384033203125" lon="-2.49527790583670139312744140625">
        <ele>1056.800048828125</ele>
        <time>2019-07-07T15:39:03.000Z</time>
      </trkpt>
      <trkpt lat="41.770158000290393829345703125" lon="-2.49518729746341705322265625">
        <ele>1058.5999755859375</ele>
        <time>2019-07-07T15:39:06.000Z</time>
      </trkpt>
      <trkpt lat="41.7705031670629978179931640625" lon="-2.4950701184570789337158203125">
        <ele>1059.5999755859375</ele>
        <time>2019-07-07T15:39:09.000Z</time>
      </trkpt>
      <trkpt lat="41.7707982100546360015869140625" lon="-2.494933493435382843017578125">
        <ele>1059.800048828125</ele>
        <time>2019-07-07T15:39:13.000Z</time>
      </trkpt>
      <trkpt lat="41.77087909542024135589599609375" lon="-2.49479628168046474456787109375">
        <ele>1059.5999755859375</ele>
        <time>2019-07-07T15:39:15.000Z</time>
      </trkpt>
      <trkpt lat="41.7709728889167308807373046875" lon="-2.494478523731231689453125">
        <ele>1059.5999755859375</ele>
        <time>2019-07-07T15:39:18.000Z</time>
      </trkpt>
      <trkpt lat="41.77109166048467159271240234375" lon="-2.49429286457598209381103515625">
        <ele>1059.4000244140625</ele>
        <time>2019-07-07T15:39:20.000Z</time>
      </trkpt>
      <trkpt lat="41.771257705986499786376953125" lon="-2.49417786486446857452392578125">
        <ele>1059.199951171875</ele>
        <time>2019-07-07T15:39:22.000Z</time>
      </trkpt>
      <trkpt lat="41.771542690694332122802734375" lon="-2.49417769722640514373779296875">
        <ele>1058.5999755859375</ele>
        <time>2019-07-07T15:39:24.000Z</time>
      </trkpt>
      <trkpt lat="41.77171560935676097869873046875" lon="-2.494295798242092132568359375">
        <ele>1058.5999755859375</ele>
        <time>2019-07-07T15:39:26.000Z</time>
      </trkpt>
      <trkpt lat="41.771786101162433624267578125" lon="-2.49438531696796417236328125">
        <ele>1058.4000244140625</ele>
        <time>2019-07-07T15:39:28.000Z</time>
      </trkpt>
      <trkpt lat="41.77188307978212833404541015625" lon="-2.49460819177329540252685546875">
        <ele>1058.4000244140625</ele>
        <time>2019-07-07T15:39:30.000Z</time>
      </trkpt>
      <trkpt lat="41.771901436150074005126953125" lon="-2.4948749877512454986572265625">
        <ele>1058.800048828125</ele>
        <time>2019-07-07T15:39:32.000Z</time>
      </trkpt>
      <trkpt lat="41.77186698652803897857666015625" lon="-2.49531730078160762786865234375">
        <ele>1057.800048828125</ele>
        <time>2019-07-07T15:39:34.000Z</time>
      </trkpt>
      <trkpt lat="41.771967150270938873291015625" lon="-2.4955968372523784637451171875">
        <ele>1058.199951171875</ele>
        <time>2019-07-07T15:39:37.000Z</time>
      </trkpt>
      <trkpt lat="41.77217259071767330169677734375" lon="-2.4958265013992786407470703125">
        <ele>1058.800048828125</ele>
        <time>2019-07-07T15:39:39.000Z</time>
      </trkpt>
      <trkpt lat="41.77265253849327564239501953125" lon="-2.49626529403030872344970703125">
        <ele>1059.800048828125</ele>
        <time>2019-07-07T15:39:42.000Z</time>
      </trkpt>
      <trkpt lat="41.77305201999843120574951171875" lon="-2.49658095650374889373779296875">
        <ele>1060</ele>
        <time>2019-07-07T15:39:46.000Z</time>
      </trkpt>
      <trkpt lat="41.77348217926919460296630859375" lon="-2.49692000448703765869140625">
        <ele>1059.5999755859375</ele>
        <time>2019-07-07T15:39:49.000Z</time>
      </trkpt>
      <trkpt lat="41.7740587703883647918701171875" lon="-2.497364580631256103515625">
        <ele>1058.5999755859375</ele>
        <time>2019-07-07T15:39:52.000Z</time>
      </trkpt>
      <trkpt lat="41.77420620806515216827392578125" lon="-2.497474886476993560791015625">
        <ele>1057.4000244140625</ele>
        <time>2019-07-07T15:39:53.000Z</time>
      </trkpt>
      <trkpt lat="41.77420620806515216827392578125" lon="-2.497474886476993560791015625">
        <ele>1056.199951171875</ele>
        <time>2019-07-07T15:39:54.000Z</time>
      </trkpt>
      <trkpt lat="41.7746569029986858367919921875" lon="-2.49781410209834575653076171875">
        <ele>1054.800048828125</ele>
        <time>2019-07-07T15:39:56.000Z</time>
      </trkpt>
      <trkpt lat="41.775129474699497222900390625" lon="-2.4981546588242053985595703125">
        <ele>1054.4000244140625</ele>
        <time>2019-07-07T15:39:59.000Z</time>
      </trkpt>
      <trkpt lat="41.775290407240390777587890625" lon="-2.49827611260116100311279296875">
        <ele>1056.800048828125</ele>
        <time>2019-07-07T15:40:01.000Z</time>
      </trkpt>
      <trkpt lat="41.7756171338260173797607421875" lon="-2.49852824024856090545654296875">
        <ele>1058.5999755859375</ele>
        <time>2019-07-07T15:40:02.000Z</time>
      </trkpt>
      <trkpt lat="41.77578569389879703521728515625" lon="-2.49865539371967315673828125">
        <ele>1060.4000244140625</ele>
        <time>2019-07-07T15:40:04.000Z</time>
      </trkpt>
      <trkpt lat="41.7763027735054492950439453125" lon="-2.49904590658843517303466796875">
        <ele>1060.199951171875</ele>
        <time>2019-07-07T15:40:07.000Z</time>
      </trkpt>
      <trkpt lat="41.77665171213448047637939453125" lon="-2.49932602979242801666259765625">
        <ele>1058.5999755859375</ele>
        <time>2019-07-07T15:40:08.000Z</time>
      </trkpt>
      <trkpt lat="41.7768261395394802093505859375" lon="-2.4994692765176296234130859375">
        <ele>1057.4000244140625</ele>
        <time>2019-07-07T15:40:09.000Z</time>
      </trkpt>
      <trkpt lat="41.7768261395394802093505859375" lon="-2.4994692765176296234130859375">
        <ele>1056.199951171875</ele>
        <time>2019-07-07T15:40:10.000Z</time>
      </trkpt>
      <trkpt lat="41.777368448674678802490234375" lon="-2.49994511716067790985107421875">
        <ele>1054.5999755859375</ele>
        <time>2019-07-07T15:40:13.000Z</time>
      </trkpt>
      <trkpt lat="41.77775342948734760284423828125" lon="-2.5002947263419628143310546875">
        <ele>1055</ele>
        <time>2019-07-07T15:40:14.000Z</time>
      </trkpt>
      <trkpt lat="41.7783389054238796234130859375" lon="-2.50081985257565975189208984375">
        <ele>1055.5999755859375</ele>
        <time>2019-07-07T15:40:17.000Z</time>
      </trkpt>
      <trkpt lat="41.77853428758680820465087890625" lon="-2.50099620781838893890380859375">
        <ele>1055.800048828125</ele>
        <time>2019-07-07T15:40:18.000Z</time>
      </trkpt>
      <trkpt lat="41.7789212800562381744384765625" lon="-2.5013468228280544281005859375">
        <ele>1055.5999755859375</ele>
        <time>2019-07-07T15:40:20.000Z</time>
      </trkpt>
      <trkpt lat="41.77911129780113697052001953125" lon="-2.50151932239532470703125">
        <ele>1057</ele>
        <time>2019-07-07T15:40:21.000Z</time>
      </trkpt>
      <trkpt lat="41.7792974598705768585205078125" lon="-2.501691989600658416748046875">
        <ele>1056</ele>
        <time>2019-07-07T15:40:22.000Z</time>
      </trkpt>
      <trkpt lat="41.7794761620461940765380859375" lon="-2.5018675066530704498291015625">
        <ele>1057</ele>
        <time>2019-07-07T15:40:23.000Z</time>
      </trkpt>
      <trkpt lat="41.7794761620461940765380859375" lon="-2.5018675066530704498291015625">
        <ele>1058.5999755859375</ele>
        <time>2019-07-07T15:40:24.000Z</time>
      </trkpt>
      <trkpt lat="41.77964187227189540863037109375" lon="-2.50204972922801971435546875">
        <ele>1062.199951171875</ele>
        <time>2019-07-07T15:40:25.000Z</time>
      </trkpt>
      <trkpt lat="41.77979442290961742401123046875" lon="-2.502239830791950225830078125">
        <ele>1065</ele>
        <time>2019-07-07T15:40:26.000Z</time>
      </trkpt>
      <trkpt lat="41.78007521666586399078369140625" lon="-2.5026316009461879730224609375">
        <ele>1067.199951171875</ele>
        <time>2019-07-07T15:40:28.000Z</time>
      </trkpt>
      <trkpt lat="41.780408732593059539794921875" lon="-2.50326083041727542877197265625">
        <ele>1069.800048828125</ele>
        <time>2019-07-07T15:40:30.000Z</time>
      </trkpt>
      <trkpt lat="41.780408732593059539794921875" lon="-2.50326083041727542877197265625">
        <ele>1071.800048828125</ele>
        <time>2019-07-07T15:40:31.000Z</time>
      </trkpt>
      <trkpt lat="41.78055516444146633148193359375" lon="-2.50370867550373077392578125">
        <ele>1073.800048828125</ele>
        <time>2019-07-07T15:40:32.000Z</time>
      </trkpt>
      <trkpt lat="41.78068089298903942108154296875" lon="-2.504177726805210113525390625">
        <ele>1073.5999755859375</ele>
        <time>2019-07-07T15:40:35.000Z</time>
      </trkpt>
      <trkpt lat="41.780799664556980133056640625" lon="-2.50467619858682155609130859375">
        <ele>1071.5999755859375</ele>
        <time>2019-07-07T15:40:37.000Z</time>
      </trkpt>
      <trkpt lat="41.7808608524501323699951171875" lon="-2.50493419356644153594970703125">
        <ele>1069</ele>
        <time>2019-07-07T15:40:38.000Z</time>
      </trkpt>
      <trkpt lat="41.78092329762876033782958984375" lon="-2.50519931316375732421875">
        <ele>1066.800048828125</ele>
        <time>2019-07-07T15:40:39.000Z</time>
      </trkpt>
      <trkpt lat="41.7809884250164031982421875" lon="-2.5054715573787689208984375">
        <ele>1065.800048828125</ele>
        <time>2019-07-07T15:40:40.000Z</time>
      </trkpt>
      <trkpt lat="41.78112186491489410400390625" lon="-2.50603456981480121612548828125">
        <ele>1063.800048828125</ele>
        <time>2019-07-07T15:40:42.000Z</time>
      </trkpt>
      <trkpt lat="41.78125974722206592559814453125" lon="-2.50660705380141735076904296875">
        <ele>1063.4000244140625</ele>
        <time>2019-07-07T15:40:44.000Z</time>
      </trkpt>
      <trkpt lat="41.781596951186656951904296875" lon="-2.50803315080702304840087890625">
        <ele>1065.4000244140625</ele>
        <time>2019-07-07T15:40:48.000Z</time>
      </trkpt>
      <trkpt lat="41.781596951186656951904296875" lon="-2.50803315080702304840087890625">
        <ele>1066.5999755859375</ele>
        <time>2019-07-07T15:40:49.000Z</time>
      </trkpt>
      <trkpt lat="41.78179518319666385650634765625" lon="-2.5088925473392009735107421875">
        <ele>1065.800048828125</ele>
        <time>2019-07-07T15:40:52.000Z</time>
      </trkpt>
      <trkpt lat="41.78198645822703838348388671875" lon="-2.50974364578723907470703125">
        <ele>1066.199951171875</ele>
        <time>2019-07-07T15:40:54.000Z</time>
      </trkpt>
      <trkpt lat="41.78198645822703838348388671875" lon="-2.50974364578723907470703125">
        <ele>1065.4000244140625</ele>
        <time>2019-07-07T15:40:55.000Z</time>
      </trkpt>
      <trkpt lat="41.7821409367024898529052734375" lon="-2.51059734262526035308837890625">
        <ele>1064.5999755859375</ele>
        <time>2019-07-07T15:40:58.000Z</time>
      </trkpt>
      <trkpt lat="41.782194413244724273681640625" lon="-2.5111606903374195098876953125">
        <ele>1063.4000244140625</ele>
        <time>2019-07-07T15:41:00.000Z</time>
      </trkpt>
      <trkpt lat="41.78219667635858058929443359375" lon="-2.51199427060782909393310546875">
        <ele>1063.4000244140625</ele>
        <time>2019-07-07T15:41:03.000Z</time>
      </trkpt>
      <trkpt lat="41.78211403079330921173095703125" lon="-2.5128323771059513092041015625">
        <ele>1064</ele>
        <time>2019-07-07T15:41:06.000Z</time>
      </trkpt>
      <trkpt lat="41.7819484882056713104248046875" lon="-2.51368707977235317230224609375">
        <ele>1064.199951171875</ele>
        <time>2019-07-07T15:41:08.000Z</time>
      </trkpt>
      <trkpt lat="41.78188604302704334259033203125" lon="-2.5139733217656612396240234375">
        <ele>1061.4000244140625</ele>
        <time>2019-07-07T15:41:10.000Z</time>
      </trkpt>
      <trkpt lat="41.78182552568614482879638671875" lon="-2.51426358707249164581298828125">
        <ele>1058.4000244140625</ele>
        <time>2019-07-07T15:41:11.000Z</time>
      </trkpt>
      <trkpt lat="41.781764589250087738037109375" lon="-2.51455930061638355255126953125">
        <ele>1057</ele>
        <time>2019-07-07T15:41:12.000Z</time>
      </trkpt>
      <trkpt lat="41.78170197643339633941650390625" lon="-2.5148591212928295135498046875">
        <ele>1055.800048828125</ele>
        <time>2019-07-07T15:41:13.000Z</time>
      </trkpt>
      <trkpt lat="41.78163894452154636383056640625" lon="-2.51516162417829036712646484375">
        <ele>1054.4000244140625</ele>
        <time>2019-07-07T15:41:14.000Z</time>
      </trkpt>
      <trkpt lat="41.7815236933529376983642578125" lon="-2.5157814659178256988525390625">
        <ele>1052.5999755859375</ele>
        <time>2019-07-07T15:41:16.000Z</time>
      </trkpt>
      <trkpt lat="41.7814660258591175079345703125" lon="-2.516431398689746856689453125">
        <ele>1051.5999755859375</ele>
        <time>2019-07-07T15:41:18.000Z</time>
      </trkpt>
      <trkpt lat="41.78146325983107089996337890625" lon="-2.51676189713180065155029296875">
        <ele>1050</ele>
        <time>2019-07-07T15:41:19.000Z</time>
      </trkpt>
      <trkpt lat="41.7814760841429233551025390625" lon="-2.51709558069705963134765625">
        <ele>1048.800048828125</ele>
        <time>2019-07-07T15:41:20.000Z</time>
      </trkpt>
      <trkpt lat="41.78150466643273830413818359375" lon="-2.51742943190038204193115234375">
        <ele>1047.5999755859375</ele>
        <time>2019-07-07T15:41:21.000Z</time>
      </trkpt>
      <trkpt lat="41.7815508507192134857177734375" lon="-2.51776076853275299072265625">
        <ele>1046.199951171875</ele>
        <time>2019-07-07T15:41:22.000Z</time>
      </trkpt>
      <trkpt lat="41.781614720821380615234375" lon="-2.51808590255677700042724609375">
        <ele>1044.5999755859375</ele>
        <time>2019-07-07T15:41:23.000Z</time>
      </trkpt>
      <trkpt lat="41.78179468028247356414794921875" lon="-2.5187154673039913177490234375">
        <ele>1043</ele>
        <time>2019-07-07T15:41:25.000Z</time>
      </trkpt>
      <trkpt lat="41.78203389979898929595947265625" lon="-2.5193063914775848388671875">
        <ele>1043.4000244140625</ele>
        <time>2019-07-07T15:41:27.000Z</time>
      </trkpt>
      <trkpt lat="41.78229801356792449951171875" lon="-2.519872672855854034423828125">
        <ele>1044.199951171875</ele>
        <time>2019-07-07T15:41:29.000Z</time>
      </trkpt>
      <trkpt lat="41.78269539959728717803955078125" lon="-2.52071798779070377349853515625">
        <ele>1043.4000244140625</ele>
        <time>2019-07-07T15:41:32.000Z</time>
      </trkpt>
      <trkpt lat="41.78283588029444217681884765625" lon="-2.52098989672958850860595703125">
        <ele>1042.800048828125</ele>
        <time>2019-07-07T15:41:33.000Z</time>
      </trkpt>
      <trkpt lat="41.78314349614083766937255859375" lon="-2.52150471322238445281982421875">
        <ele>1040.800048828125</ele>
        <time>2019-07-07T15:41:35.000Z</time>
      </trkpt>
      <trkpt lat="41.78348765708506107330322265625" lon="-2.5219619460403919219970703125">
        <ele>1042.4000244140625</ele>
        <time>2019-07-07T15:41:37.000Z</time>
      </trkpt>
      <trkpt lat="41.78365965373814105987548828125" lon="-2.5221629440784454345703125">
        <ele>1043.5999755859375</ele>
        <time>2019-07-07T15:41:38.000Z</time>
      </trkpt>
      <trkpt lat="41.78382578305900096893310546875" lon="-2.52235463820397853851318359375">
        <ele>1045.800048828125</ele>
        <time>2019-07-07T15:41:39.000Z</time>
      </trkpt>
      <trkpt lat="41.78398822434246540069580078125" lon="-2.52254440449178218841552734375">
        <ele>1048.800048828125</ele>
        <time>2019-07-07T15:41:40.000Z</time>
      </trkpt>
      <trkpt lat="41.78414873778820037841796875" lon="-2.52273584716022014617919921875">
        <ele>1051.199951171875</ele>
        <time>2019-07-07T15:41:41.000Z</time>
      </trkpt>
      <trkpt lat="41.784305311739444732666015625" lon="-2.52293072640895843505859375">
        <ele>1052.5999755859375</ele>
        <time>2019-07-07T15:41:42.000Z</time>
      </trkpt>
      <trkpt lat="41.78445660509169101715087890625" lon="-2.523129545152187347412109375">
        <ele>1054.199951171875</ele>
        <time>2019-07-07T15:41:43.000Z</time>
      </trkpt>
      <trkpt lat="41.78459624759852886199951171875" lon="-2.52333196811378002166748046875">
        <ele>1056.199951171875</ele>
        <time>2019-07-07T15:41:44.000Z</time>
      </trkpt>
      <trkpt lat="41.7849401570856571197509765625" lon="-2.52396983094513416290283203125">
        <ele>1055</ele>
        <time>2019-07-07T15:41:47.000Z</time>
      </trkpt>
      <trkpt lat="41.7850330285727977752685546875" lon="-2.52419044263660907745361328125">
        <ele>1056.5999755859375</ele>
        <time>2019-07-07T15:41:48.000Z</time>
      </trkpt>
      <trkpt lat="41.78527719341218471527099609375" lon="-2.5248868949711322784423828125">
        <ele>1055.199951171875</ele>
        <time>2019-07-07T15:41:51.000Z</time>
      </trkpt>
      <trkpt lat="41.78549713455140590667724609375" lon="-2.52567328512668609619140625">
        <ele>1054.4000244140625</ele>
        <time>2019-07-07T15:41:54.000Z</time>
      </trkpt>
      <trkpt lat="41.7855701409280300140380859375" lon="-2.52595483325421810150146484375">
        <ele>1053.800048828125</ele>
        <time>2019-07-07T15:41:55.000Z</time>
      </trkpt>
      <trkpt lat="41.7856475897133350372314453125" lon="-2.52624467946588993072509765625">
        <ele>1052.5999755859375</ele>
        <time>2019-07-07T15:41:56.000Z</time>
      </trkpt>
      <trkpt lat="41.78583676926791667938232421875" lon="-2.52682873047888278961181640625">
        <ele>1050.5999755859375</ele>
        <time>2019-07-07T15:41:58.000Z</time>
      </trkpt>
      <trkpt lat="41.78595713339745998382568359375" lon="-2.5271087698638439178466796875">
        <ele>1048.5999755859375</ele>
        <time>2019-07-07T15:41:59.000Z</time>
      </trkpt>
      <trkpt lat="41.78609442897140979766845703125" lon="-2.52737405709922313690185546875">
        <ele>1046.5999755859375</ele>
        <time>2019-07-07T15:42:00.000Z</time>
      </trkpt>
      <trkpt lat="41.78624446503818035125732421875" lon="-2.52762501128017902374267578125">
        <ele>1044.199951171875</ele>
        <time>2019-07-07T15:42:01.000Z</time>
      </trkpt>
      <trkpt lat="41.78640539757907390594482421875" lon="-2.52786733210086822509765625">
        <ele>1042.800048828125</ele>
        <time>2019-07-07T15:42:02.000Z</time>
      </trkpt>
      <trkpt lat="41.7867687530815601348876953125" lon="-2.52831148914992809295654296875">
        <ele>1041.800048828125</ele>
        <time>2019-07-07T15:42:04.000Z</time>
      </trkpt>
      <trkpt lat="41.78696949966251850128173828125" lon="-2.52851315774023532867431640625">
        <ele>1042.800048828125</ele>
        <time>2019-07-07T15:42:05.000Z</time>
      </trkpt>
      <trkpt lat="41.7873883433640003204345703125" lon="-2.52889235503971576690673828125">
        <ele>1043.800048828125</ele>
        <time>2019-07-07T15:42:06.000Z</time>
      </trkpt>
      <trkpt lat="41.7873883433640003204345703125" lon="-2.52889235503971576690673828125">
        <ele>1044.199951171875</ele>
        <time>2019-07-07T15:42:07.000Z</time>
      </trkpt>
      <trkpt lat="41.78782009519636631011962890625" lon="-2.52925663255155086517333984375">
        <ele>1044.4000244140625</ele>
        <time>2019-07-07T15:42:08.000Z</time>
      </trkpt>
      <trkpt lat="41.788040958344936370849609375" lon="-2.5294292159378528594970703125">
        <ele>1042.800048828125</ele>
        <time>2019-07-07T15:42:09.000Z</time>
      </trkpt>
      <trkpt lat="41.78826232440769672393798828125" lon="-2.52959844656288623809814453125">
        <ele>1041.199951171875</ele>
        <time>2019-07-07T15:42:10.000Z</time>
      </trkpt>
      <trkpt lat="41.78848452866077423095703125" lon="-2.5297678448259830474853515625">
        <ele>1038.4000244140625</ele>
        <time>2019-07-07T15:42:11.000Z</time>
      </trkpt>
      <trkpt lat="41.788706816732883453369140625" lon="-2.5299385003745555877685546875">
        <ele>1033.199951171875</ele>
        <time>2019-07-07T15:42:12.000Z</time>
      </trkpt>
      <trkpt lat="41.78892885334789752960205078125" lon="-2.5301094911992549896240234375">
        <ele>1028.4000244140625</ele>
        <time>2019-07-07T15:42:13.000Z</time>
      </trkpt>
      <trkpt lat="41.78914728574454784393310546875" lon="-2.53027888946235179901123046875">
        <ele>1024</ele>
        <time>2019-07-07T15:42:14.000Z</time>
      </trkpt>
      <trkpt lat="41.789567470550537109375" lon="-2.5306080467998981475830078125">
        <ele>1021</ele>
        <time>2019-07-07T15:42:16.000Z</time>
      </trkpt>
      <trkpt lat="41.789567470550537109375" lon="-2.5306080467998981475830078125">
        <ele>1019.79998779296875</ele>
        <time>2019-07-07T15:42:17.000Z</time>
      </trkpt>
      <trkpt lat="41.7897708155214786529541015625" lon="-2.53076470457017421722412109375">
        <ele>1021</ele>
        <time>2019-07-07T15:42:18.000Z</time>
      </trkpt>
      <trkpt lat="41.79015956819057464599609375" lon="-2.53106796182692050933837890625">
        <ele>1023.20001220703125</ele>
        <time>2019-07-07T15:42:19.000Z</time>
      </trkpt>
      <trkpt lat="41.79034589789807796478271484375" lon="-2.5312122143805027008056640625">
        <ele>1024.4000244140625</ele>
        <time>2019-07-07T15:42:20.000Z</time>
      </trkpt>
      <trkpt lat="41.79087731055915355682373046875" lon="-2.53162737004458904266357421875">
        <ele>1025</ele>
        <time>2019-07-07T15:42:23.000Z</time>
      </trkpt>
      <trkpt lat="41.79140671156346797943115234375" lon="-2.5320430286228656768798828125">
        <ele>1024.199951171875</ele>
        <time>2019-07-07T15:42:26.000Z</time>
      </trkpt>
      <trkpt lat="41.7915873415768146514892578125" lon="-2.532184682786464691162109375">
        <ele>1025.5999755859375</ele>
        <time>2019-07-07T15:42:27.000Z</time>
      </trkpt>
      <trkpt lat="41.79213702678680419921875" lon="-2.53262900747358798980712890625">
        <ele>1024.800048828125</ele>
        <time>2019-07-07T15:42:30.000Z</time>
      </trkpt>
      <trkpt lat="41.79231874644756317138671875" lon="-2.532791532576084136962890625">
        <ele>1023.79998779296875</ele>
        <time>2019-07-07T15:42:31.000Z</time>
      </trkpt>
      <trkpt lat="41.7924966104328632354736328125" lon="-2.53296545706689357757568359375">
        <ele>1021.20001220703125</ele>
        <time>2019-07-07T15:42:32.000Z</time>
      </trkpt>
      <trkpt lat="41.79266902618110179901123046875" lon="-2.53315371461212635040283203125">
        <ele>1019.4000244140625</ele>
        <time>2019-07-07T15:42:33.000Z</time>
      </trkpt>
      <trkpt lat="41.79299491457641124725341796875" lon="-2.53356711007654666900634765625">
        <ele>1018.20001220703125</ele>
        <time>2019-07-07T15:42:35.000Z</time>
      </trkpt>
      <trkpt lat="41.79314578883349895477294921875" lon="-2.533794008195400238037109375">
        <ele>1017</ele>
        <time>2019-07-07T15:42:37.000Z</time>
      </trkpt>
      <trkpt lat="41.79341836832463741302490234375" lon="-2.534277476370334625244140625">
        <ele>1016.5999755859375</ele>
        <time>2019-07-07T15:42:39.000Z</time>
      </trkpt>
      <trkpt lat="41.793656833469867706298828125" lon="-2.5347879342734813690185546875">
        <ele>1015.20001220703125</ele>
        <time>2019-07-07T15:42:41.000Z</time>
      </trkpt>
      <trkpt lat="41.79386663250625133514404296875" lon="-2.53532395698130130767822265625">
        <ele>1014.79998779296875</ele>
        <time>2019-07-07T15:42:43.000Z</time>
      </trkpt>
      <trkpt lat="41.79407400079071521759033203125" lon="-2.53587883897125720977783203125">
        <ele>1016.5999755859375</ele>
        <time>2019-07-07T15:42:45.000Z</time>
      </trkpt>
      <trkpt lat="41.79418019950389862060546875" lon="-2.53616206347942352294921875">
        <ele>1018.4000244140625</ele>
        <time>2019-07-07T15:42:46.000Z</time>
      </trkpt>
      <trkpt lat="41.79428706876933574676513671875" lon="-2.5364492274820804595947265625">
        <ele>1021.20001220703125</ele>
        <time>2019-07-07T15:42:47.000Z</time>
      </trkpt>
      <trkpt lat="41.79439452476799488067626953125" lon="-2.5367395766079425811767578125">
        <ele>1022.79998779296875</ele>
        <time>2019-07-07T15:42:48.000Z</time>
      </trkpt>
      <trkpt lat="41.7946142144501209259033203125" lon="-2.53732622601091861724853515625">
        <ele>1023.79998779296875</ele>
        <time>2019-07-07T15:42:50.000Z</time>
      </trkpt>
      <trkpt lat="41.79483407177031040191650390625" lon="-2.53792301751673221588134765625">
        <ele>1021.4000244140625</ele>
        <time>2019-07-07T15:42:52.000Z</time>
      </trkpt>
      <trkpt lat="41.7949454672634601593017578125" lon="-2.5382241792976856231689453125">
        <ele>1019.20001220703125</ele>
        <time>2019-07-07T15:42:53.000Z</time>
      </trkpt>
      <trkpt lat="41.7950574494898319244384765625" lon="-2.538526095449924468994140625">
        <ele>1018.20001220703125</ele>
        <time>2019-07-07T15:42:54.000Z</time>
      </trkpt>
      <trkpt lat="41.79528283886611461639404296875" lon="-2.53913420252501964569091796875">
        <ele>1017.4000244140625</ele>
        <time>2019-07-07T15:42:56.000Z</time>
      </trkpt>
      <trkpt lat="41.79561652243137359619140625" lon="-2.54005118273198604583740234375">
        <ele>1017.5999755859375</ele>
        <time>2019-07-07T15:42:59.000Z</time>
      </trkpt>
      <trkpt lat="41.79584409110248088836669921875" lon="-2.5406599603593349456787109375">
        <ele>1018.4000244140625</ele>
        <time>2019-07-07T15:43:01.000Z</time>
      </trkpt>
      <trkpt lat="41.79607358761131763458251953125" lon="-2.54127108491957187652587890625">
        <ele>1018.79998779296875</ele>
        <time>2019-07-07T15:43:03.000Z</time>
      </trkpt>
      <trkpt lat="41.79630425758659839630126953125" lon="-2.541890926659107208251953125">
        <ele>1018.20001220703125</ele>
        <time>2019-07-07T15:43:05.000Z</time>
      </trkpt>
      <trkpt lat="41.79653610102832317352294921875" lon="-2.5425240956246852874755859375">
        <ele>1017</ele>
        <time>2019-07-07T15:43:06.000Z</time>
      </trkpt>
      <trkpt lat="41.79653610102832317352294921875" lon="-2.5425240956246852874755859375">
        <ele>1015.4000244140625</ele>
        <time>2019-07-07T15:43:07.000Z</time>
      </trkpt>
      <trkpt lat="41.79677297361195087432861328125" lon="-2.54315366037189960479736328125">
        <ele>1013</ele>
        <time>2019-07-07T15:43:08.000Z</time>
      </trkpt>
      <trkpt lat="41.79677297361195087432861328125" lon="-2.54315366037189960479736328125">
        <ele>1011.5999755859375</ele>
        <time>2019-07-07T15:43:09.000Z</time>
      </trkpt>
      <trkpt lat="41.79688981734216213226318359375" lon="-2.5434662215411663055419921875">
        <ele>1009.5999755859375</ele>
        <time>2019-07-07T15:43:10.000Z</time>
      </trkpt>
      <trkpt lat="41.79700599052011966705322265625" lon="-2.543773837387561798095703125">
        <ele>1007.4000244140625</ele>
        <time>2019-07-07T15:43:11.000Z</time>
      </trkpt>
      <trkpt lat="41.79712065495550632476806640625" lon="-2.5440781004726886749267578125">
        <ele>1006.4000244140625</ele>
        <time>2019-07-07T15:43:12.000Z</time>
      </trkpt>
      <trkpt lat="41.7973460443317890167236328125" lon="-2.544678412377834320068359375">
        <ele>1007.4000244140625</ele>
        <time>2019-07-07T15:43:14.000Z</time>
      </trkpt>
      <trkpt lat="41.79745660163462162017822265625" lon="-2.54497588612139225006103515625">
        <ele>1009.20001220703125</ele>
        <time>2019-07-07T15:43:15.000Z</time>
      </trkpt>
      <trkpt lat="41.797566153109073638916015625" lon="-2.54527210257947444915771484375">
        <ele>1010.5999755859375</ele>
        <time>2019-07-07T15:43:16.000Z</time>
      </trkpt>
      <trkpt lat="41.79767620749771595001220703125" lon="-2.54556714557111263275146484375">
        <ele>1012.5999755859375</ele>
        <time>2019-07-07T15:43:17.000Z</time>
      </trkpt>
      <trkpt lat="41.7977871000766754150390625" lon="-2.54586151801049709320068359375">
        <ele>1014.20001220703125</ele>
        <time>2019-07-07T15:43:18.000Z</time>
      </trkpt>
      <trkpt lat="41.79789841175079345703125" lon="-2.54615505225956439971923828125">
        <ele>1016.79998779296875</ele>
        <time>2019-07-07T15:43:19.000Z</time>
      </trkpt>
      <trkpt lat="41.79800963960587978363037109375" lon="-2.54645026288926601409912109375">
        <ele>1019</ele>
        <time>2019-07-07T15:43:20.000Z</time>
      </trkpt>
      <trkpt lat="41.798120699822902679443359375" lon="-2.54674731753766536712646484375">
        <ele>1021.79998779296875</ele>
        <time>2019-07-07T15:43:21.000Z</time>
      </trkpt>
      <trkpt lat="41.79823226295411586761474609375" lon="-2.54704705439507961273193359375">
        <ele>1024</ele>
        <time>2019-07-07T15:43:22.000Z</time>
      </trkpt>
      <trkpt lat="41.7983449995517730712890625" lon="-2.54734930582344532012939453125">
        <ele>1025</ele>
        <time>2019-07-07T15:43:23.000Z</time>
      </trkpt>
      <trkpt lat="41.798571981489658355712890625" lon="-2.54795732907950878143310546875">
        <ele>1022.79998779296875</ele>
        <time>2019-07-07T15:43:25.000Z</time>
      </trkpt>
      <trkpt lat="41.7986831255257129669189453125" lon="-2.5482683815062046051025390625">
        <ele>1020.79998779296875</ele>
        <time>2019-07-07T15:43:26.000Z</time>
      </trkpt>
      <trkpt lat="41.79879418574273586273193359375" lon="-2.54858228377997875213623046875">
        <ele>1018.4000244140625</ele>
        <time>2019-07-07T15:43:27.000Z</time>
      </trkpt>
      <trkpt lat="41.79890616796910762786865234375" lon="-2.5488973595201969146728515625">
        <ele>1017.20001220703125</ele>
        <time>2019-07-07T15:43:28.000Z</time>
      </trkpt>
      <trkpt lat="41.79901714436709880828857421875" lon="-2.5492103397846221923828125">
        <ele>1015.5999755859375</ele>
        <time>2019-07-07T15:43:29.000Z</time>
      </trkpt>
      <trkpt lat="41.79923909716308116912841796875" lon="-2.5498233921825885772705078125">
        <ele>1014.4000244140625</ele>
        <time>2019-07-07T15:43:31.000Z</time>
      </trkpt>
      <trkpt lat="41.79945987649261951446533203125" lon="-2.55041263997554779052734375">
        <ele>1012.79998779296875</ele>
        <time>2019-07-07T15:43:33.000Z</time>
      </trkpt>
      <trkpt lat="41.7996708489954471588134765625" lon="-2.55098772235214710235595703125">
        <ele>1011.4000244140625</ele>
        <time>2019-07-07T15:43:35.000Z</time>
      </trkpt>
      <trkpt lat="41.79977470077574253082275390625" lon="-2.551275305449962615966796875">
        <ele>1010.20001220703125</ele>
        <time>2019-07-07T15:43:36.000Z</time>
      </trkpt>
      <trkpt lat="41.79998558945953845977783203125" lon="-2.55184619687497615814208984375">
        <ele>1009.20001220703125</ele>
        <time>2019-07-07T15:43:38.000Z</time>
      </trkpt>
      <trkpt lat="41.80009086616337299346923828125" lon="-2.55213285796344280242919921875">
        <ele>1011.20001220703125</ele>
        <time>2019-07-07T15:43:39.000Z</time>
      </trkpt>
      <trkpt lat="41.80019631050527095794677734375" lon="-2.552419938147068023681640625">
        <ele>1014.5999755859375</ele>
        <time>2019-07-07T15:43:40.000Z</time>
      </trkpt>
      <trkpt lat="41.80030276067554950714111328125" lon="-2.55270768888294696807861328125">
        <ele>1015.79998779296875</ele>
        <time>2019-07-07T15:43:41.000Z</time>
      </trkpt>
      <trkpt lat="41.800411641597747802734375" lon="-2.5529961101710796356201171875">
        <ele>1019</ele>
        <time>2019-07-07T15:43:42.000Z</time>
      </trkpt>
      <trkpt lat="41.800518929958343505859375" lon="-2.55328738130629062652587890625">
        <ele>1021</ele>
        <time>2019-07-07T15:43:43.000Z</time>
      </trkpt>
      <trkpt lat="41.80071682669222354888916015625" lon="-2.5538809038698673248291015625">
        <ele>1019.79998779296875</ele>
        <time>2019-07-07T15:43:45.000Z</time>
      </trkpt>
      <trkpt lat="41.8008060939610004425048828125" lon="-2.55418122746050357818603515625">
        <ele>1018</ele>
        <time>2019-07-07T15:43:46.000Z</time>
      </trkpt>
      <trkpt lat="41.80088999681174755096435546875" lon="-2.55448197014629840850830078125">
        <ele>1017</ele>
        <time>2019-07-07T15:43:47.000Z</time>
      </trkpt>
      <trkpt lat="41.8010451458394527435302734375" lon="-2.555086053907871246337890625">
        <ele>1016</ele>
        <time>2019-07-07T15:43:49.000Z</time>
      </trkpt>
      <trkpt lat="41.80117783136665821075439453125" lon="-2.55569851957261562347412109375">
        <ele>1016.4000244140625</ele>
        <time>2019-07-07T15:43:51.000Z</time>
      </trkpt>
      <trkpt lat="41.8012362532317638397216796875" lon="-2.55600948818027973175048828125">
        <ele>1018</ele>
        <time>2019-07-07T15:43:52.000Z</time>
      </trkpt>
      <trkpt lat="41.80134563706815242767333984375" lon="-2.556628994643688201904296875">
        <ele>1020</ele>
        <time>2019-07-07T15:43:54.000Z</time>
      </trkpt>
      <trkpt lat="41.80144772864878177642822265625" lon="-2.55725361406803131103515625">
        <ele>1023</ele>
        <time>2019-07-07T15:43:56.000Z</time>
      </trkpt>
      <trkpt lat="41.801551915705204010009765625" lon="-2.55792542360723018646240234375">
        <ele>1020</ele>
        <time>2019-07-07T15:43:58.000Z</time>
      </trkpt>
      <trkpt lat="41.8016607128083705902099609375" lon="-2.55865716375410556793212890625">
        <ele>1020.20001220703125</ele>
        <time>2019-07-07T15:44:00.000Z</time>
      </trkpt>
      <trkpt lat="41.8017938174307346343994140625" lon="-2.559410445392131805419921875">
        <ele>1022</ele>
        <time>2019-07-07T15:44:02.000Z</time>
      </trkpt>
      <trkpt lat="41.80193320848047733306884765625" lon="-2.56015266291797161102294921875">
        <ele>1021.5999755859375</ele>
        <time>2019-07-07T15:44:04.000Z</time>
      </trkpt>
      <trkpt lat="41.80205977521836757659912109375" lon="-2.56089345552027225494384765625">
        <ele>1020.79998779296875</ele>
        <time>2019-07-07T15:44:06.000Z</time>
      </trkpt>
      <trkpt lat="41.80212113074958324432373046875" lon="-2.5612599961459636688232421875">
        <ele>1018.5999755859375</ele>
        <time>2019-07-07T15:44:07.000Z</time>
      </trkpt>
      <trkpt lat="41.80218231864273548126220703125" lon="-2.561623938381671905517578125">
        <ele>1017.4000244140625</ele>
        <time>2019-07-07T15:44:08.000Z</time>
      </trkpt>
      <trkpt lat="41.802302263677120208740234375" lon="-2.5623429380357265472412109375">
        <ele>1015</ele>
        <time>2019-07-07T15:44:10.000Z</time>
      </trkpt>
      <trkpt lat="41.8024214543402194976806640625" lon="-2.56304844282567501068115234375">
        <ele>1014.79998779296875</ele>
        <time>2019-07-07T15:44:12.000Z</time>
      </trkpt>
      <trkpt lat="41.8024791218340396881103515625" lon="-2.56339729763567447662353515625">
        <ele>1016</ele>
        <time>2019-07-07T15:44:13.000Z</time>
      </trkpt>
      <trkpt lat="41.80259236134588718414306640625" lon="-2.5640917383134365081787109375">
        <ele>1014.5999755859375</ele>
        <time>2019-07-07T15:44:15.000Z</time>
      </trkpt>
      <trkpt lat="41.80264751426875591278076171875" lon="-2.564434893429279327392578125">
        <ele>1012</ele>
        <time>2019-07-07T15:44:16.000Z</time>
      </trkpt>
      <trkpt lat="41.80275681428611278533935546875" lon="-2.56510653533041477203369140625">
        <ele>1014.4000244140625</ele>
        <time>2019-07-07T15:44:18.000Z</time>
      </trkpt>
      <trkpt lat="41.8028636835515499114990234375" lon="-2.56576367653906345367431640625">
        <ele>1013.5999755859375</ele>
        <time>2019-07-07T15:44:20.000Z</time>
      </trkpt>
      <trkpt lat="41.8029699660837650299072265625" lon="-2.5664135254919528961181640625">
        <ele>1016.5999755859375</ele>
        <time>2019-07-07T15:44:22.000Z</time>
      </trkpt>
      <trkpt lat="41.8030232749879360198974609375" lon="-2.5667397491633892059326171875">
        <ele>1017.79998779296875</ele>
        <time>2019-07-07T15:44:23.000Z</time>
      </trkpt>
      <trkpt lat="41.80312830023467540740966796875" lon="-2.56739462725818157196044921875">
        <ele>1020</ele>
        <time>2019-07-07T15:44:25.000Z</time>
      </trkpt>
      <trkpt lat="41.8031811900436878204345703125" lon="-2.5677221082150936126708984375">
        <ele>1021</ele>
        <time>2019-07-07T15:44:26.000Z</time>
      </trkpt>
      <trkpt lat="41.8032348342239856719970703125" lon="-2.568047828972339630126953125">
        <ele>1022.79998779296875</ele>
        <time>2019-07-07T15:44:27.000Z</time>
      </trkpt>
      <trkpt lat="41.803340613842010498046875" lon="-2.5686930678784847259521484375">
        <ele>1023.79998779296875</ele>
        <time>2019-07-07T15:44:29.000Z</time>
      </trkpt>
      <trkpt lat="41.8033914081752300262451171875" lon="-2.56901183165609836578369140625">
        <ele>1023.79998779296875</ele>
        <time>2019-07-07T15:44:30.000Z</time>
      </trkpt>
      <trkpt lat="41.80349039845168590545654296875" lon="-2.56963544525206089019775390625">
        <ele>1022.4000244140625</ele>
        <time>2019-07-07T15:44:32.000Z</time>
      </trkpt>
      <trkpt lat="41.80359031073749065399169921875" lon="-2.57024296559393405914306640625">
        <ele>1023</ele>
        <time>2019-07-07T15:44:34.000Z</time>
      </trkpt>
      <trkpt lat="41.80369575507938861846923828125" lon="-2.57083833217620849609375">
        <ele>1024</ele>
        <time>2019-07-07T15:44:36.000Z</time>
      </trkpt>
      <trkpt lat="41.80374638177454471588134765625" lon="-2.57113195024430751800537109375">
        <ele>1025.199951171875</ele>
        <time>2019-07-07T15:44:37.000Z</time>
      </trkpt>
      <trkpt lat="41.80389239452779293060302734375" lon="-2.57200903259217739105224609375">
        <ele>1026.5999755859375</ele>
        <time>2019-07-07T15:44:40.000Z</time>
      </trkpt>
      <trkpt lat="41.80399096570909023284912109375" lon="-2.57260750047862529754638671875">
        <ele>1025.199951171875</ele>
        <time>2019-07-07T15:44:42.000Z</time>
      </trkpt>
      <trkpt lat="41.804038323462009429931640625" lon="-2.57291109301149845123291015625">
        <ele>1023.79998779296875</ele>
        <time>2019-07-07T15:44:43.000Z</time>
      </trkpt>
      <trkpt lat="41.80408635176718235015869140625" lon="-2.57321552373468875885009765625">
        <ele>1021.5999755859375</ele>
        <time>2019-07-07T15:44:44.000Z</time>
      </trkpt>
      <trkpt lat="41.8041350506246089935302734375" lon="-2.573512494564056396484375">
        <ele>1019</ele>
        <time>2019-07-07T15:44:45.000Z</time>
      </trkpt>
      <trkpt lat="41.8041826598346233367919921875" lon="-2.573797143995761871337890625">
        <ele>1017.4000244140625</ele>
        <time>2019-07-07T15:44:46.000Z</time>
      </trkpt>
      <trkpt lat="41.8043137528002262115478515625" lon="-2.574612200260162353515625">
        <ele>1017.79998779296875</ele>
        <time>2019-07-07T15:44:49.000Z</time>
      </trkpt>
      <trkpt lat="41.80435490794479846954345703125" lon="-2.57488167844712734222412109375">
        <ele>1019.20001220703125</ele>
        <time>2019-07-07T15:44:50.000Z</time>
      </trkpt>
      <trkpt lat="41.8043965660035610198974609375" lon="-2.5751504860818386077880859375">
        <ele>1021</ele>
        <time>2019-07-07T15:44:51.000Z</time>
      </trkpt>
      <trkpt lat="41.80443822406232357025146484375" lon="-2.575422227382659912109375">
        <ele>1022.5999755859375</ele>
        <time>2019-07-07T15:44:52.000Z</time>
      </trkpt>
      <trkpt lat="41.804480887949466705322265625" lon="-2.575696147978305816650390625">
        <ele>1024.199951171875</ele>
        <time>2019-07-07T15:44:53.000Z</time>
      </trkpt>
      <trkpt lat="41.804570071399211883544921875" lon="-2.5762545503675937652587890625">
        <ele>1025.4000244140625</ele>
        <time>2019-07-07T15:44:55.000Z</time>
      </trkpt>
      <trkpt lat="41.804659925401210784912109375" lon="-2.57680716924369335174560546875">
        <ele>1023.79998779296875</ele>
        <time>2019-07-07T15:44:57.000Z</time>
      </trkpt>
      <trkpt lat="41.80470493622124195098876953125" lon="-2.57707823999226093292236328125">
        <ele>1022.20001220703125</ele>
        <time>2019-07-07T15:44:58.000Z</time>
      </trkpt>
      <trkpt lat="41.80475187487900257110595703125" lon="-2.577353753149509429931640625">
        <ele>1020.4000244140625</ele>
        <time>2019-07-07T15:44:59.000Z</time>
      </trkpt>
      <trkpt lat="41.80479998700320720672607421875" lon="-2.577640749514102935791015625">
        <ele>1018.4000244140625</ele>
        <time>2019-07-07T15:45:00.000Z</time>
      </trkpt>
      <trkpt lat="41.80488917045295238494873046875" lon="-2.57827081717550754547119140625">
        <ele>1018</ele>
        <time>2019-07-07T15:45:02.000Z</time>
      </trkpt>
      <trkpt lat="41.80500886403024196624755859375" lon="-2.57897078990936279296875">
        <ele>1016.5999755859375</ele>
        <time>2019-07-07T15:45:04.000Z</time>
      </trkpt>
      <trkpt lat="41.8051402084529399871826171875" lon="-2.5796529091894626617431640625">
        <ele>1016.4000244140625</ele>
        <time>2019-07-07T15:45:06.000Z</time>
      </trkpt>
      <trkpt lat="41.80524406023323535919189453125" lon="-2.580272667109966278076171875">
        <ele>1017.4000244140625</ele>
        <time>2019-07-07T15:45:08.000Z</time>
      </trkpt>
      <trkpt lat="41.80533123202621936798095703125" lon="-2.580793015658855438232421875">
        <ele>1018.20001220703125</ele>
        <time>2019-07-07T15:45:10.000Z</time>
      </trkpt>
      <trkpt lat="41.80537037551403045654296875" lon="-2.5810198299586772918701171875">
        <ele>1019.5999755859375</ele>
        <time>2019-07-07T15:45:11.000Z</time>
      </trkpt>
      <trkpt lat="41.80540524423122406005859375" lon="-2.5812226720154285430908203125">
        <ele>1021.4000244140625</ele>
        <time>2019-07-07T15:45:12.000Z</time>
      </trkpt>
      <trkpt lat="41.8054365925490856170654296875" lon="-2.58140749298036098480224609375">
        <ele>1023.20001220703125</ele>
        <time>2019-07-07T15:45:13.000Z</time>
      </trkpt>
      <trkpt lat="41.8054644204676151275634765625" lon="-2.58157848380506038665771484375">
        <ele>1025</ele>
        <time>2019-07-07T15:45:14.000Z</time>
      </trkpt>
      <trkpt lat="41.80548797361552715301513671875" lon="-2.58174218237400054931640625">
        <ele>1026.5999755859375</ele>
        <time>2019-07-07T15:45:15.000Z</time>
      </trkpt>
      <trkpt lat="41.80550909601151943206787109375" lon="-2.581895403563976287841796875">
        <ele>1027.800048828125</ele>
        <time>2019-07-07T15:45:16.000Z</time>
      </trkpt>
      <trkpt lat="41.80554874241352081298828125" lon="-2.58218030445277690887451171875">
        <ele>1029.199951171875</ele>
        <time>2019-07-07T15:45:18.000Z</time>
      </trkpt>
      <trkpt lat="41.8055613152682781219482421875" lon="-2.58261063136160373687744140625">
        <ele>1030.5999755859375</ele>
        <time>2019-07-07T15:45:21.000Z</time>
      </trkpt>
      <trkpt lat="41.80553457699716091156005859375" lon="-2.58307926356792449951171875">
        <ele>1031.800048828125</ele>
        <time>2019-07-07T15:45:23.000Z</time>
      </trkpt>
      <trkpt lat="41.80552233941853046417236328125" lon="-2.58324866183102130889892578125">
        <ele>1032.800048828125</ele>
        <time>2019-07-07T15:45:25.000Z</time>
      </trkpt>
      <trkpt lat="41.80548705160617828369140625" lon="-2.58361394517123699188232421875">
        <ele>1031.4000244140625</ele>
        <time>2019-07-07T15:45:27.000Z</time>
      </trkpt>
      <trkpt lat="41.80545209906995296478271484375" lon="-2.58402784354984760284423828125">
        <ele>1030.199951171875</ele>
        <time>2019-07-07T15:45:29.000Z</time>
      </trkpt>
      <trkpt lat="41.80540918372571468353271484375" lon="-2.58453276939690113067626953125">
        <ele>1029.199951171875</ele>
        <time>2019-07-07T15:45:31.000Z</time>
      </trkpt>
      <trkpt lat="41.8053403683006763458251953125" lon="-2.58539241738617420196533203125">
        <ele>1029.4000244140625</ele>
        <time>2019-07-07T15:45:34.000Z</time>
      </trkpt>
      <trkpt lat="41.8052974529564380645751953125" lon="-2.58600664325058460235595703125">
        <ele>1029.5999755859375</ele>
        <time>2019-07-07T15:45:36.000Z</time>
      </trkpt>
      <trkpt lat="41.8052756600081920623779296875" lon="-2.58662086911499500274658203125">
        <ele>1030.199951171875</ele>
        <time>2019-07-07T15:45:38.000Z</time>
      </trkpt>
      <trkpt lat="41.8053018115460872650146484375" lon="-2.58723341859877109527587890625">
        <ele>1030.199951171875</ele>
        <time>2019-07-07T15:45:40.000Z</time>
      </trkpt>
      <trkpt lat="41.8053329922258853912353515625" lon="-2.58753583766520023345947265625">
        <ele>1030.199951171875</ele>
        <time>2019-07-07T15:45:41.000Z</time>
      </trkpt>
      <trkpt lat="41.80543181486427783966064453125" lon="-2.58813413791358470916748046875">
        <ele>1031.4000244140625</ele>
        <time>2019-07-07T15:45:43.000Z</time>
      </trkpt>
      <trkpt lat="41.8054925836622714996337890625" lon="-2.58843270130455493927001953125">
        <ele>1032.5999755859375</ele>
        <time>2019-07-07T15:45:44.000Z</time>
      </trkpt>
      <trkpt lat="41.805615462362766265869140625" lon="-2.5890332646667957305908203125">
        <ele>1034</ele>
        <time>2019-07-07T15:45:46.000Z</time>
      </trkpt>
      <trkpt lat="41.80573876015841960906982421875" lon="-2.5896448083221912384033203125">
        <ele>1034</ele>
        <time>2019-07-07T15:45:47.000Z</time>
      </trkpt>
      <trkpt lat="41.80586993694305419921875" lon="-2.5902680866420269012451171875">
        <ele>1033.800048828125</ele>
        <time>2019-07-07T15:45:49.000Z</time>
      </trkpt>
      <trkpt lat="41.80586993694305419921875" lon="-2.5902680866420269012451171875">
        <ele>1032.4000244140625</ele>
        <time>2019-07-07T15:45:50.000Z</time>
      </trkpt>
      <trkpt lat="41.80599809624254703521728515625" lon="-2.590892203152179718017578125">
        <ele>1029.800048828125</ele>
        <time>2019-07-07T15:45:52.000Z</time>
      </trkpt>
      <trkpt lat="41.806062050163745880126953125" lon="-2.5912048481404781341552734375">
        <ele>1028.800048828125</ele>
        <time>2019-07-07T15:45:53.000Z</time>
      </trkpt>
      <trkpt lat="41.80619180202484130859375" lon="-2.5918284617364406585693359375">
        <ele>1028.199951171875</ele>
        <time>2019-07-07T15:45:54.000Z</time>
      </trkpt>
      <trkpt lat="41.806318201124668121337890625" lon="-2.5924550928175449371337890625">
        <ele>1028.800048828125</ele>
        <time>2019-07-07T15:45:56.000Z</time>
      </trkpt>
      <trkpt lat="41.80638232268393039703369140625" lon="-2.59276832453906536102294921875">
        <ele>1026.800048828125</ele>
        <time>2019-07-07T15:45:58.000Z</time>
      </trkpt>
      <trkpt lat="41.80644535459578037261962890625" lon="-2.59308122098445892333984375">
        <ele>1028</ele>
        <time>2019-07-07T15:45:59.000Z</time>
      </trkpt>
      <trkpt lat="41.806508637964725494384765625" lon="-2.5933942012488842010498046875">
        <ele>1029</ele>
        <time>2019-07-07T15:46:00.000Z</time>
      </trkpt>
      <trkpt lat="41.80663344450294971466064453125" lon="-2.5940211676061153411865234375">
        <ele>1029.800048828125</ele>
        <time>2019-07-07T15:46:02.000Z</time>
      </trkpt>
      <trkpt lat="41.80675716139376163482666015625" lon="-2.594655342400074005126953125">
        <ele>1032.199951171875</ele>
        <time>2019-07-07T15:46:03.000Z</time>
      </trkpt>
      <trkpt lat="41.80675716139376163482666015625" lon="-2.594655342400074005126953125">
        <ele>1034.4000244140625</ele>
        <time>2019-07-07T15:46:04.000Z</time>
      </trkpt>
      <trkpt lat="41.80681600235402584075927734375" lon="-2.5949767045676708221435546875">
        <ele>1036.4000244140625</ele>
        <time>2019-07-07T15:46:05.000Z</time>
      </trkpt>
      <trkpt lat="41.80687216110527515411376953125" lon="-2.595301754772663116455078125">
        <ele>1038</ele>
        <time>2019-07-07T15:46:06.000Z</time>
      </trkpt>
      <trkpt lat="41.80692781694233417510986328125" lon="-2.595629654824733734130859375">
        <ele>1039.4000244140625</ele>
        <time>2019-07-07T15:46:07.000Z</time>
      </trkpt>
      <trkpt lat="41.8069832213222980499267578125" lon="-2.59596015326678752899169921875">
        <ele>1040.5999755859375</ele>
        <time>2019-07-07T15:46:08.000Z</time>
      </trkpt>
      <trkpt lat="41.80703761987388134002685546875" lon="-2.59629450738430023193359375">
        <ele>1041.800048828125</ele>
        <time>2019-07-07T15:46:09.000Z</time>
      </trkpt>
      <trkpt lat="41.80709226988255977630615234375" lon="-2.5966336391866207122802734375">
        <ele>1043</ele>
        <time>2019-07-07T15:46:10.000Z</time>
      </trkpt>
      <trkpt lat="41.80720073170959949493408203125" lon="-2.59731969796121120452880859375">
        <ele>1043.800048828125</ele>
        <time>2019-07-07T15:46:12.000Z</time>
      </trkpt>
      <trkpt lat="41.80730969645082950592041015625" lon="-2.59800969623029232025146484375">
        <ele>1043</ele>
        <time>2019-07-07T15:46:14.000Z</time>
      </trkpt>
      <trkpt lat="41.807362250983715057373046875" lon="-2.5983556173741817474365234375">
        <ele>1041.5999755859375</ele>
        <time>2019-07-07T15:46:15.000Z</time>
      </trkpt>
      <trkpt lat="41.807414554059505462646484375" lon="-2.59870111942291259765625">
        <ele>1040.199951171875</ele>
        <time>2019-07-07T15:46:16.000Z</time>
      </trkpt>
      <trkpt lat="41.80746786296367645263671875" lon="-2.5990457832813262939453125">
        <ele>1039</ele>
        <time>2019-07-07T15:46:17.000Z</time>
      </trkpt>
      <trkpt lat="41.807578504085540771484375" lon="-2.59973133914172649383544921875">
        <ele>1037.5999755859375</ele>
        <time>2019-07-07T15:46:18.000Z</time>
      </trkpt>
      <trkpt lat="41.807578504085540771484375" lon="-2.59973133914172649383544921875">
        <ele>1036.199951171875</ele>
        <time>2019-07-07T15:46:19.000Z</time>
      </trkpt>
      <trkpt lat="41.8076329864561557769775390625" lon="-2.6000745780766010284423828125">
        <ele>1035</ele>
        <time>2019-07-07T15:46:20.000Z</time>
      </trkpt>
      <trkpt lat="41.807741783559322357177734375" lon="-2.6007628999650478363037109375">
        <ele>1034</ele>
        <time>2019-07-07T15:46:21.000Z</time>
      </trkpt>
      <trkpt lat="41.807741783559322357177734375" lon="-2.6007628999650478363037109375">
        <ele>1033.4000244140625</ele>
        <time>2019-07-07T15:46:22.000Z</time>
      </trkpt>
      <trkpt lat="41.8078482337296009063720703125" lon="-2.60144443251192569732666015625">
        <ele>1033.800048828125</ele>
        <time>2019-07-07T15:46:24.000Z</time>
      </trkpt>
      <trkpt lat="41.80801947601139545440673828125" lon="-2.60251144878566265106201171875">
        <ele>1033.5999755859375</ele>
        <time>2019-07-07T15:46:26.000Z</time>
      </trkpt>
      <trkpt lat="41.80814201943576335906982421875" lon="-2.60327235795557498931884765625">
        <ele>1033</ele>
        <time>2019-07-07T15:46:29.000Z</time>
      </trkpt>
      <trkpt lat="41.80825668387115001678466796875" lon="-2.60400158353149890899658203125">
        <ele>1032.5999755859375</ele>
        <time>2019-07-07T15:46:31.000Z</time>
      </trkpt>
      <trkpt lat="41.808365397155284881591796875" lon="-2.60468873195350170135498046875">
        <ele>1032.4000244140625</ele>
        <time>2019-07-07T15:46:33.000Z</time>
      </trkpt>
      <trkpt lat="41.80847327224910259246826171875" lon="-2.60535626672208309173583984375">
        <ele>1031.800048828125</ele>
        <time>2019-07-07T15:46:35.000Z</time>
      </trkpt>
      <trkpt lat="41.8085734359920024871826171875" lon="-2.60598507709801197052001953125">
        <ele>1032</ele>
        <time>2019-07-07T15:46:37.000Z</time>
      </trkpt>
      <trkpt lat="41.8087117373943328857421875" lon="-2.6068582199513912200927734375">
        <ele>1031.4000244140625</ele>
        <time>2019-07-07T15:46:40.000Z</time>
      </trkpt>
      <trkpt lat="41.808755658566951751708984375" lon="-2.607140354812145233154296875">
        <ele>1031.199951171875</ele>
        <time>2019-07-07T15:46:41.000Z</time>
      </trkpt>
      <trkpt lat="41.80888432078063488006591796875" lon="-2.6079793833196163177490234375">
        <ele>1031.5999755859375</ele>
        <time>2019-07-07T15:46:43.000Z</time>
      </trkpt>
      <trkpt lat="41.80888432078063488006591796875" lon="-2.6079793833196163177490234375">
        <ele>1032.199951171875</ele>
        <time>2019-07-07T15:46:44.000Z</time>
      </trkpt>
      <trkpt lat="41.8090672977268695831298828125" lon="-2.60914823971688747406005859375">
        <ele>1030.800048828125</ele>
        <time>2019-07-07T15:46:48.000Z</time>
      </trkpt>
      <trkpt lat="41.80911700241267681121826171875" lon="-2.60945116169750690460205078125">
        <ele>1028.800048828125</ele>
        <time>2019-07-07T15:46:49.000Z</time>
      </trkpt>
      <trkpt lat="41.809215657413005828857421875" lon="-2.61006672866642475128173828125">
        <ele>1026.800048828125</ele>
        <time>2019-07-07T15:46:50.000Z</time>
      </trkpt>
      <trkpt lat="41.80926603265106678009033203125" lon="-2.61037719435989856719970703125">
        <ele>1025.4000244140625</ele>
        <time>2019-07-07T15:46:52.000Z</time>
      </trkpt>
      <trkpt lat="41.8093661963939666748046875" lon="-2.61099837720394134521484375">
        <ele>1025</ele>
        <time>2019-07-07T15:46:54.000Z</time>
      </trkpt>
      <trkpt lat="41.809470467269420623779296875" lon="-2.61160883121192455291748046875">
        <ele>1025.4000244140625</ele>
        <time>2019-07-07T15:46:56.000Z</time>
      </trkpt>
      <trkpt lat="41.80956979282200336456298828125" lon="-2.61222925968468189239501953125">
        <ele>1027</ele>
        <time>2019-07-07T15:46:58.000Z</time>
      </trkpt>
      <trkpt lat="41.8096692860126495361328125" lon="-2.6128569804131984710693359375">
        <ele>1027</ele>
        <time>2019-07-07T15:46:59.000Z</time>
      </trkpt>
      <trkpt lat="41.80976944975554943084716796875" lon="-2.6134752295911312103271484375">
        <ele>1028</ele>
        <time>2019-07-07T15:47:02.000Z</time>
      </trkpt>
      <trkpt lat="41.80986584164202213287353515625" lon="-2.61406489647924900054931640625">
        <ele>1027</ele>
        <time>2019-07-07T15:47:04.000Z</time>
      </trkpt>
      <trkpt lat="41.8099131993949413299560546875" lon="-2.614354826509952545166015625">
        <ele>1026.4000244140625</ele>
        <time>2019-07-07T15:47:05.000Z</time>
      </trkpt>
      <trkpt lat="41.8100045621395111083984375" lon="-2.6149346865713596343994140625">
        <ele>1025.4000244140625</ele>
        <time>2019-07-07T15:47:07.000Z</time>
      </trkpt>
      <trkpt lat="41.8101405166089534759521484375" lon="-2.61581017635762691497802734375">
        <ele>1025.5999755859375</ele>
        <time>2019-07-07T15:47:10.000Z</time>
      </trkpt>
      <trkpt lat="41.810280494391918182373046875" lon="-2.61668558232486248016357421875">
        <ele>1025.5999755859375</ele>
        <time>2019-07-07T15:47:13.000Z</time>
      </trkpt>
      <trkpt lat="41.81040949188172817230224609375" lon="-2.61750784702599048614501953125">
        <ele>1025.800048828125</ele>
        <time>2019-07-07T15:47:16.000Z</time>
      </trkpt>
      <trkpt lat="41.8105441890656948089599609375" lon="-2.61831016279757022857666015625">
        <ele>1026.4000244140625</ele>
        <time>2019-07-07T15:47:18.000Z</time>
      </trkpt>
      <trkpt lat="41.8105441890656948089599609375" lon="-2.61831016279757022857666015625">
        <ele>1027.5999755859375</ele>
        <time>2019-07-07T15:47:19.000Z</time>
      </trkpt>
      <trkpt lat="41.81059054099023342132568359375" lon="-2.61858441866934299468994140625">
        <ele>1029</ele>
        <time>2019-07-07T15:47:20.000Z</time>
      </trkpt>
      <trkpt lat="41.81063530035316944122314453125" lon="-2.61886655353009700775146484375">
        <ele>1030.199951171875</ele>
        <time>2019-07-07T15:47:21.000Z</time>
      </trkpt>
      <trkpt lat="41.81072716601192951202392578125" lon="-2.61944674886763095855712890625">
        <ele>1031.199951171875</ele>
        <time>2019-07-07T15:47:23.000Z</time>
      </trkpt>
      <trkpt lat="41.81091659702360630035400390625" lon="-2.620598338544368743896484375">
        <ele>1030.5999755859375</ele>
        <time>2019-07-07T15:47:26.000Z</time>
      </trkpt>
      <trkpt lat="41.81101013906300067901611328125" lon="-2.62115799821913242340087890625">
        <ele>1029.800048828125</ele>
        <time>2019-07-07T15:47:28.000Z</time>
      </trkpt>
      <trkpt lat="41.81114517152309417724609375" lon="-2.6220006309449672698974609375">
        <ele>1030.4000244140625</ele>
        <time>2019-07-07T15:47:32.000Z</time>
      </trkpt>
      <trkpt lat="41.81127551011741161346435546875" lon="-2.6228730194270610809326171875">
        <ele>1029.5999755859375</ele>
        <time>2019-07-07T15:47:34.000Z</time>
      </trkpt>
      <trkpt lat="41.8113585747778415679931640625" lon="-2.6234882511198520660400390625">
        <ele>1028</ele>
        <time>2019-07-07T15:47:37.000Z</time>
      </trkpt>
      <trkpt lat="41.8114527873694896697998046875" lon="-2.62415821664035320281982421875">
        <ele>1027.4000244140625</ele>
        <time>2019-07-07T15:47:38.000Z</time>
      </trkpt>
      <trkpt lat="41.81155647151172161102294921875" lon="-2.6248840056359767913818359375">
        <ele>1028.199951171875</ele>
        <time>2019-07-07T15:47:40.000Z</time>
      </trkpt>
      <trkpt lat="41.81168437935411930084228515625" lon="-2.62562655843794345855712890625">
        <ele>1028.199951171875</ele>
        <time>2019-07-07T15:47:42.000Z</time>
      </trkpt>
      <trkpt lat="41.811877079308032989501953125" lon="-2.62671872042119503021240234375">
        <ele>1027.199951171875</ele>
        <time>2019-07-07T15:47:45.000Z</time>
      </trkpt>
      <trkpt lat="41.81193239986896514892578125" lon="-2.62708266265690326690673828125">
        <ele>1026.4000244140625</ele>
        <time>2019-07-07T15:47:46.000Z</time>
      </trkpt>
      <trkpt lat="41.8120430409908294677734375" lon="-2.627805769443511962890625">
        <ele>1025.199951171875</ele>
        <time>2019-07-07T15:47:48.000Z</time>
      </trkpt>
      <trkpt lat="41.8121578730642795562744140625" lon="-2.62853197753429412841796875">
        <ele>1026</ele>
        <time>2019-07-07T15:47:50.000Z</time>
      </trkpt>
      <trkpt lat="41.81227513588964939117431640625" lon="-2.62924821116030216217041015625">
        <ele>1024.4000244140625</ele>
        <time>2019-07-07T15:47:52.000Z</time>
      </trkpt>
      <trkpt lat="41.8123340606689453125" lon="-2.6296070404350757598876953125">
        <ele>1023.4000244140625</ele>
        <time>2019-07-07T15:47:53.000Z</time>
      </trkpt>
      <trkpt lat="41.812449730932712554931640625" lon="-2.63032696209847927093505859375">
        <ele>1021.5999755859375</ele>
        <time>2019-07-07T15:47:55.000Z</time>
      </trkpt>
      <trkpt lat="41.812564395368099212646484375" lon="-2.63104679994285106658935546875">
        <ele>1021.5999755859375</ele>
        <time>2019-07-07T15:47:57.000Z</time>
      </trkpt>
      <trkpt lat="41.8126215599477291107177734375" lon="-2.63140722177922725677490234375">
        <ele>1024</ele>
        <time>2019-07-07T15:47:58.000Z</time>
      </trkpt>
      <trkpt lat="41.8126795627176761627197265625" lon="-2.63176781125366687774658203125">
        <ele>1027.5999755859375</ele>
        <time>2019-07-07T15:47:59.000Z</time>
      </trkpt>
      <trkpt lat="41.8126795627176761627197265625" lon="-2.63176781125366687774658203125">
        <ele>1031</ele>
        <time>2019-07-07T15:48:00.000Z</time>
      </trkpt>
      <trkpt lat="41.81273530237376689910888671875" lon="-2.63211934827268123626708984375">
        <ele>1032.800048828125</ele>
        <time>2019-07-07T15:48:01.000Z</time>
      </trkpt>
      <trkpt lat="41.812842674553394317626953125" lon="-2.63278269208967685699462890625">
        <ele>1031.5999755859375</ele>
        <time>2019-07-07T15:48:03.000Z</time>
      </trkpt>
      <trkpt lat="41.8128961510956287384033203125" lon="-2.63310858048498630523681640625">
        <ele>1027.199951171875</ele>
        <time>2019-07-07T15:48:04.000Z</time>
      </trkpt>
      <trkpt lat="41.81294887326657772064208984375" lon="-2.633432038128376007080078125">
        <ele>1023.5999755859375</ele>
        <time>2019-07-07T15:48:05.000Z</time>
      </trkpt>
      <trkpt lat="41.81300084106624126434326171875" lon="-2.63375147245824337005615234375">
        <ele>1021.4000244140625</ele>
        <time>2019-07-07T15:48:06.000Z</time>
      </trkpt>
      <trkpt lat="41.8130537308752536773681640625" lon="-2.6340568251907825469970703125">
        <ele>1020.4000244140625</ele>
        <time>2019-07-07T15:48:07.000Z</time>
      </trkpt>
      <trkpt lat="41.813185997307300567626953125" lon="-2.6348715461790561676025390625">
        <ele>1021.5999755859375</ele>
        <time>2019-07-07T15:48:10.000Z</time>
      </trkpt>
      <trkpt lat="41.81325850076973438262939453125" lon="-2.63533397577702999114990234375">
        <ele>1023.20001220703125</ele>
        <time>2019-07-07T15:48:12.000Z</time>
      </trkpt>
      <trkpt lat="41.81329253129661083221435546875" lon="-2.6355474628508090972900390625">
        <ele>1024.4000244140625</ele>
        <time>2019-07-07T15:48:13.000Z</time>
      </trkpt>
      <trkpt lat="41.81335070170462131500244140625" lon="-2.6359400711953639984130859375">
        <ele>1026.800048828125</ele>
        <time>2019-07-07T15:48:15.000Z</time>
      </trkpt>
      <trkpt lat="41.813378445804119110107421875" lon="-2.63612086884677410125732421875">
        <ele>1028.5999755859375</ele>
        <time>2019-07-07T15:48:16.000Z</time>
      </trkpt>
      <trkpt lat="41.81340484879910945892333984375" lon="-2.6362937875092029571533203125">
        <ele>1030.5999755859375</ele>
        <time>2019-07-07T15:48:17.000Z</time>
      </trkpt>
      <trkpt lat="41.8134533800184726715087890625" lon="-2.63662646524608135223388671875">
        <ele>1032.4000244140625</ele>
        <time>2019-07-07T15:48:18.000Z</time>
      </trkpt>
      <trkpt lat="41.8134755082428455352783203125" lon="-2.636780776083469390869140625">
        <ele>1034.5999755859375</ele>
        <time>2019-07-07T15:48:19.000Z</time>
      </trkpt>
      <trkpt lat="41.8134941160678863525390625" lon="-2.63692519627511501312255859375">
        <ele>1037.199951171875</ele>
        <time>2019-07-07T15:48:20.000Z</time>
      </trkpt>
      <trkpt lat="41.8134941160678863525390625" lon="-2.63692519627511501312255859375">
        <ele>1039.199951171875</ele>
        <time>2019-07-07T15:48:21.000Z</time>
      </trkpt>
      <trkpt lat="41.81351347826421260833740234375" lon="-2.63705410994589328765869140625">
        <ele>1040.4000244140625</ele>
        <time>2019-07-07T15:48:22.000Z</time>
      </trkpt>
      <trkpt lat="41.8135301582515239715576171875" lon="-2.6371779106557369232177734375">
        <ele>1041.5999755859375</ele>
        <time>2019-07-07T15:48:23.000Z</time>
      </trkpt>
      <trkpt lat="41.813556812703609466552734375" lon="-2.63740346767008304595947265625">
        <ele>1042.800048828125</ele>
        <time>2019-07-07T15:48:25.000Z</time>
      </trkpt>
      <trkpt lat="41.81362160481512546539306640625" lon="-2.63807184062898159027099609375">
        <ele>1043.199951171875</ele>
        <time>2019-07-07T15:48:30.000Z</time>
      </trkpt>
      <trkpt lat="41.813643313944339752197265625" lon="-2.63873451389372348785400390625">
        <ele>1043.800048828125</ele>
        <time>2019-07-07T15:48:36.000Z</time>
      </trkpt>
      <trkpt lat="41.81363761425018310546875" lon="-2.63938612304627895355224609375">
        <ele>1044.199951171875</ele>
        <time>2019-07-07T15:48:40.000Z</time>
      </trkpt>
      <trkpt lat="41.81362831033766269683837890625" lon="-2.6397229917347431182861328125">
        <ele>1045</ele>
        <time>2019-07-07T15:48:42.000Z</time>
      </trkpt>
      <trkpt lat="41.813608109951019287109375" lon="-2.64035381376743316650390625">
        <ele>1046</ele>
        <time>2019-07-07T15:48:45.000Z</time>
      </trkpt>
      <trkpt lat="41.81360299699008464813232421875" lon="-2.6405154168605804443359375">
        <ele>1046.199951171875</ele>
        <time>2019-07-07T15:48:47.000Z</time>
      </trkpt>
      <trkpt lat="41.813582964241504669189453125" lon="-2.64120767824351787567138671875">
        <ele>1046.5999755859375</ele>
        <time>2019-07-07T15:48:50.000Z</time>
      </trkpt>
      <trkpt lat="41.81355672888457775115966796875" lon="-2.64191578142344951629638671875">
        <ele>1047.199951171875</ele>
        <time>2019-07-07T15:48:55.000Z</time>
      </trkpt>
      <trkpt lat="41.81353426538407802581787109375" lon="-2.64264182187616825103759765625">
        <ele>1047.199951171875</ele>
        <time>2019-07-07T15:48:59.000Z</time>
      </trkpt>
      <trkpt lat="41.81351029314100742340087890625" lon="-2.64341689646244049072265625">
        <ele>1046.800048828125</ele>
        <time>2019-07-07T15:49:03.000Z</time>
      </trkpt>
      <trkpt lat="41.81348850019276142120361328125" lon="-2.6440534181892871856689453125">
        <ele>1046.5999755859375</ele>
        <time>2019-07-07T15:49:06.000Z</time>
      </trkpt>
      <trkpt lat="41.81346419267356395721435546875" lon="-2.6448128186166286468505859375">
        <ele>1046.5999755859375</ele>
        <time>2019-07-07T15:49:09.000Z</time>
      </trkpt>
      <trkpt lat="41.8134356103837490081787109375" lon="-2.64571010135114192962646484375">
        <ele>1046.199951171875</ele>
        <time>2019-07-07T15:49:11.000Z</time>
      </trkpt>
      <trkpt lat="41.81341591291129589080810546875" lon="-2.6463463716208934783935546875">
        <ele>1046.5999755859375</ele>
        <time>2019-07-07T15:49:13.000Z</time>
      </trkpt>
      <trkpt lat="41.8134054355323314666748046875" lon="-2.6466737687587738037109375">
        <ele>1045.199951171875</ele>
        <time>2019-07-07T15:49:14.000Z</time>
      </trkpt>
      <trkpt lat="41.81339462287724018096923828125" lon="-2.64700703322887420654296875">
        <ele>1043.5999755859375</ele>
        <time>2019-07-07T15:49:15.000Z</time>
      </trkpt>
      <trkpt lat="41.8133715726435184478759765625" lon="-2.6476911641657352447509765625">
        <ele>1043.5999755859375</ele>
        <time>2019-07-07T15:49:17.000Z</time>
      </trkpt>
      <trkpt lat="41.8133715726435184478759765625" lon="-2.6476911641657352447509765625">
        <ele>1045.5999755859375</ele>
        <time>2019-07-07T15:49:18.000Z</time>
      </trkpt>
      <trkpt lat="41.81333812884986400604248046875" lon="-2.6487509720027446746826171875">
        <ele>1043.199951171875</ele>
        <time>2019-07-07T15:49:20.000Z</time>
      </trkpt>
      <trkpt lat="41.813315413892269134521484375" lon="-2.64947290532290935516357421875">
        <ele>1045.199951171875</ele>
        <time>2019-07-07T15:49:22.000Z</time>
      </trkpt>
      <trkpt lat="41.81329035200178623199462890625" lon="-2.65020481310784816741943359375">
        <ele>1045.199951171875</ele>
        <time>2019-07-07T15:49:24.000Z</time>
      </trkpt>
      <trkpt lat="41.81329035200178623199462890625" lon="-2.65020481310784816741943359375">
        <ele>1044.199951171875</ele>
        <time>2019-07-07T15:49:25.000Z</time>
      </trkpt>
      <trkpt lat="41.8132542259991168975830078125" lon="-2.6513005793094635009765625">
        <ele>1043.4000244140625</ele>
        <time>2019-07-07T15:49:27.000Z</time>
      </trkpt>
      <trkpt lat="41.8132411502301692962646484375" lon="-2.65166200697422027587890625">
        <ele>1042.5999755859375</ele>
        <time>2019-07-07T15:49:28.000Z</time>
      </trkpt>
      <trkpt lat="41.81322782300412654876708984375" lon="-2.65202083624899387359619140625">
        <ele>1040</ele>
        <time>2019-07-07T15:49:29.000Z</time>
      </trkpt>
      <trkpt lat="41.8132163397967815399169921875" lon="-2.6523789949715137481689453125">
        <ele>1038.5999755859375</ele>
        <time>2019-07-07T15:49:30.000Z</time>
      </trkpt>
      <trkpt lat="41.8132163397967815399169921875" lon="-2.6523789949715137481689453125">
        <ele>1036.800048828125</ele>
        <time>2019-07-07T15:49:31.000Z</time>
      </trkpt>
      <trkpt lat="41.81319396011531352996826171875" lon="-2.65309891663491725921630859375">
        <ele>1035.4000244140625</ele>
        <time>2019-07-07T15:49:32.000Z</time>
      </trkpt>
      <trkpt lat="41.81317015551030635833740234375" lon="-2.653828226029872894287109375">
        <ele>1035.800048828125</ele>
        <time>2019-07-07T15:49:34.000Z</time>
      </trkpt>
      <trkpt lat="41.81317015551030635833740234375" lon="-2.653828226029872894287109375">
        <ele>1037.199951171875</ele>
        <time>2019-07-07T15:49:35.000Z</time>
      </trkpt>
      <trkpt lat="41.81314350105822086334228515625" lon="-2.6545710302889347076416015625">
        <ele>1039.4000244140625</ele>
        <time>2019-07-07T15:49:36.000Z</time>
      </trkpt>
      <trkpt lat="41.81314350105822086334228515625" lon="-2.6545710302889347076416015625">
        <ele>1040.4000244140625</ele>
        <time>2019-07-07T15:49:37.000Z</time>
      </trkpt>
      <trkpt lat="41.8131308443844318389892578125" lon="-2.65494846738874912261962890625">
        <ele>1042.199951171875</ele>
        <time>2019-07-07T15:49:38.000Z</time>
      </trkpt>
      <trkpt lat="41.81310377083718776702880859375" lon="-2.655717171728610992431640625">
        <ele>1045</ele>
        <time>2019-07-07T15:49:39.000Z</time>
      </trkpt>
      <trkpt lat="41.81310377083718776702880859375" lon="-2.655717171728610992431640625">
        <ele>1047</ele>
        <time>2019-07-07T15:49:40.000Z</time>
      </trkpt>
      <trkpt lat="41.81308952160179615020751953125" lon="-2.656109444797039031982421875">
        <ele>1049.800048828125</ele>
        <time>2019-07-07T15:49:41.000Z</time>
      </trkpt>
      <trkpt lat="41.8130649626255035400390625" lon="-2.65690664760768413543701171875">
        <ele>1050.199951171875</ele>
        <time>2019-07-07T15:49:43.000Z</time>
      </trkpt>
      <trkpt lat="41.8130409903824329376220703125" lon="-2.6577058620750904083251953125">
        <ele>1050</ele>
        <time>2019-07-07T15:49:44.000Z</time>
      </trkpt>
      <trkpt lat="41.8130409903824329376220703125" lon="-2.6577058620750904083251953125">
        <ele>1045.199951171875</ele>
        <time>2019-07-07T15:49:45.000Z</time>
      </trkpt>
      <trkpt lat="41.81302833370864391326904296875" lon="-2.658100984990596771240234375">
        <ele>1040.5999755859375</ele>
        <time>2019-07-07T15:49:46.000Z</time>
      </trkpt>
      <trkpt lat="41.813000924885272979736328125" lon="-2.6588840223848819732666015625">
        <ele>1038.199951171875</ele>
        <time>2019-07-07T15:49:47.000Z</time>
      </trkpt>
      <trkpt lat="41.812987513840198516845703125" lon="-2.65927168540656566619873046875">
        <ele>1036</ele>
        <time>2019-07-07T15:49:48.000Z</time>
      </trkpt>
      <trkpt lat="41.81297368369996547698974609375" lon="-2.65965524129569530487060546875">
        <ele>1033.800048828125</ele>
        <time>2019-07-07T15:49:49.000Z</time>
      </trkpt>
      <trkpt lat="41.8129598535597324371337890625" lon="-2.6600360311567783355712890625">
        <ele>1031</ele>
        <time>2019-07-07T15:49:50.000Z</time>
      </trkpt>
      <trkpt lat="41.8129350431263446807861328125" lon="-2.6607904024422168731689453125">
        <ele>1032.4000244140625</ele>
        <time>2019-07-07T15:49:52.000Z</time>
      </trkpt>
      <trkpt lat="41.8129112385213375091552734375" lon="-2.66153681091964244842529296875">
        <ele>1033.800048828125</ele>
        <time>2019-07-07T15:49:54.000Z</time>
      </trkpt>
      <trkpt lat="41.81289958767592906951904296875" lon="-2.66190796159207820892333984375">
        <ele>1036.5999755859375</ele>
        <time>2019-07-07T15:49:55.000Z</time>
      </trkpt>
      <trkpt lat="41.81288768537342548370361328125" lon="-2.66227877698838710784912109375">
        <ele>1039.800048828125</ele>
        <time>2019-07-07T15:49:56.000Z</time>
      </trkpt>
      <trkpt lat="41.8128743581473827362060546875" lon="-2.6626498438417911529541015625">
        <ele>1041.4000244140625</ele>
        <time>2019-07-07T15:49:57.000Z</time>
      </trkpt>
      <trkpt lat="41.8128602765500545501708984375" lon="-2.663018144667148590087890625">
        <ele>1045.800048828125</ele>
        <time>2019-07-07T15:49:58.000Z</time>
      </trkpt>
      <trkpt lat="41.81284745223820209503173828125" lon="-2.663385607302188873291015625">
        <ele>1050.199951171875</ele>
        <time>2019-07-07T15:49:59.000Z</time>
      </trkpt>
      <trkpt lat="41.81284745223820209503173828125" lon="-2.663385607302188873291015625">
        <ele>1054</ele>
        <time>2019-07-07T15:50:00.000Z</time>
      </trkpt>
      <trkpt lat="41.8128156848251819610595703125" lon="-2.66446880064904689788818359375">
        <ele>1054</ele>
        <time>2019-07-07T15:50:02.000Z</time>
      </trkpt>
      <trkpt lat="41.8128156848251819610595703125" lon="-2.66446880064904689788818359375">
        <ele>1055.800048828125</ele>
        <time>2019-07-07T15:50:03.000Z</time>
      </trkpt>
      <trkpt lat="41.812790371477603912353515625" lon="-2.66517187468707561492919921875">
        <ele>1057.4000244140625</ele>
        <time>2019-07-07T15:50:04.000Z</time>
      </trkpt>
      <trkpt lat="41.81276581250131130218505859375" lon="-2.66586120240390300750732421875">
        <ele>1059.5999755859375</ele>
        <time>2019-07-07T15:50:06.000Z</time>
      </trkpt>
      <trkpt lat="41.81274217553436756134033203125" lon="-2.6665113866329193115234375">
        <ele>1059.5999755859375</ele>
        <time>2019-07-07T15:50:09.000Z</time>
      </trkpt>
      <trkpt lat="41.8127224780619144439697265625" lon="-2.667077668011188507080078125">
        <ele>1058</ele>
        <time>2019-07-07T15:50:11.000Z</time>
      </trkpt>
      <trkpt lat="41.81269892491400241851806640625" lon="-2.667738161981105804443359375">
        <ele>1058.4000244140625</ele>
        <time>2019-07-07T15:50:14.000Z</time>
      </trkpt>
      <trkpt lat="41.81269322521984577178955078125" lon="-2.6679130084812641143798828125">
        <ele>1059</ele>
        <time>2019-07-07T15:50:15.000Z</time>
      </trkpt>
      <trkpt lat="41.81268853135406970977783203125" lon="-2.6680782996118068695068359375">
        <ele>1060.199951171875</ele>
        <time>2019-07-07T15:50:16.000Z</time>
      </trkpt>
      <trkpt lat="41.81268434040248394012451171875" lon="-2.66822791658341884613037109375">
        <ele>1061.5999755859375</ele>
        <time>2019-07-07T15:50:17.000Z</time>
      </trkpt>
      <trkpt lat="41.81267227046191692352294921875" lon="-2.66849563457071781158447265625">
        <ele>1063.199951171875</ele>
        <time>2019-07-07T15:50:19.000Z</time>
      </trkpt>
      <trkpt lat="41.81266003288328647613525390625" lon="-2.66899821348488330841064453125">
        <ele>1064.4000244140625</ele>
        <time>2019-07-07T15:50:23.000Z</time>
      </trkpt>
      <trkpt lat="41.8126517347991466522216796875" lon="-2.6692769117653369903564453125">
        <ele>1065.4000244140625</ele>
        <time>2019-07-07T15:50:25.000Z</time>
      </trkpt>
      <trkpt lat="41.81261963210999965667724609375" lon="-2.669747136533260345458984375">
        <ele>1066.5999755859375</ele>
        <time>2019-07-07T15:50:28.000Z</time>
      </trkpt>
      <trkpt lat="41.81254687719047069549560546875" lon="-2.67020856030285358428955078125">
        <ele>1068</ele>
        <time>2019-07-07T15:50:31.000Z</time>
      </trkpt>
      <trkpt lat="41.8123942427337169647216796875" lon="-2.67079688608646392822265625">
        <ele>1068.800048828125</ele>
        <time>2019-07-07T15:50:35.000Z</time>
      </trkpt>
      <trkpt lat="41.81222182698547840118408203125" lon="-2.67148747108876705169677734375">
        <ele>1067.5999755859375</ele>
        <time>2019-07-07T15:50:40.000Z</time>
      </trkpt>
      <trkpt lat="41.812073886394500732421875" lon="-2.67209415324032306671142578125">
        <ele>1067.4000244140625</ele>
        <time>2019-07-07T15:50:44.000Z</time>
      </trkpt>
      <trkpt lat="41.81186324916779994964599609375" lon="-2.6729756779968738555908203125">
        <ele>1067.4000244140625</ele>
        <time>2019-07-07T15:50:48.000Z</time>
      </trkpt>
      <trkpt lat="41.8117143027484416961669921875" lon="-2.6735909096896648406982421875">
        <ele>1068.199951171875</ele>
        <time>2019-07-07T15:50:52.000Z</time>
      </trkpt>
      <trkpt lat="41.81155663914978504180908203125" lon="-2.674273364245891571044921875">
        <ele>1069.4000244140625</ele>
        <time>2019-07-07T15:50:55.000Z</time>
      </trkpt>
      <trkpt lat="41.811392605304718017578125" lon="-2.6750336028635501861572265625">
        <ele>1068.4000244140625</ele>
        <time>2019-07-07T15:50:58.000Z</time>
      </trkpt>
      <trkpt lat="41.81126159615814685821533203125" lon="-2.6758540235459804534912109375">
        <ele>1067.4000244140625</ele>
        <time>2019-07-07T15:51:01.000Z</time>
      </trkpt>
      <trkpt lat="41.81117610074579715728759765625" lon="-2.67674862407147884368896484375">
        <ele>1066.800048828125</ele>
        <time>2019-07-07T15:51:04.000Z</time>
      </trkpt>
      <trkpt lat="41.811122037470340728759765625" lon="-2.6773651130497455596923828125">
        <ele>1067.199951171875</ele>
        <time>2019-07-07T15:51:06.000Z</time>
      </trkpt>
      <trkpt lat="41.8110414035618305206298828125" lon="-2.67830849625170230865478515625">
        <ele>1067.199951171875</ele>
        <time>2019-07-07T15:51:08.000Z</time>
      </trkpt>
      <trkpt lat="41.8110414035618305206298828125" lon="-2.67830849625170230865478515625">
        <ele>1066.4000244140625</ele>
        <time>2019-07-07T15:51:09.000Z</time>
      </trkpt>
      <trkpt lat="41.8110144138336181640625" lon="-2.67861954867839813232421875">
        <ele>1064.199951171875</ele>
        <time>2019-07-07T15:51:10.000Z</time>
      </trkpt>
      <trkpt lat="41.81095079518854618072509765625" lon="-2.679244838654994964599609375">
        <ele>1060.199951171875</ele>
        <time>2019-07-07T15:51:11.000Z</time>
      </trkpt>
      <trkpt lat="41.81095079518854618072509765625" lon="-2.679244838654994964599609375">
        <ele>1058.199951171875</ele>
        <time>2019-07-07T15:51:12.000Z</time>
      </trkpt>
      <trkpt lat="41.81091357953846454620361328125" lon="-2.67956058494746685028076171875">
        <ele>1057</ele>
        <time>2019-07-07T15:51:13.000Z</time>
      </trkpt>
      <trkpt lat="41.81081668473780155181884765625" lon="-2.68020339310169219970703125">
        <ele>1057.800048828125</ele>
        <time>2019-07-07T15:51:15.000Z</time>
      </trkpt>
      <trkpt lat="41.810757927596569061279296875" lon="-2.68053196370601654052734375">
        <ele>1058.5999755859375</ele>
        <time>2019-07-07T15:51:16.000Z</time>
      </trkpt>
      <trkpt lat="41.81063815020024776458740234375" lon="-2.6812072098255157470703125">
        <ele>1059.4000244140625</ele>
        <time>2019-07-07T15:51:18.000Z</time>
      </trkpt>
      <trkpt lat="41.810523234307765960693359375" lon="-2.681890167295932769775390625">
        <ele>1058.4000244140625</ele>
        <time>2019-07-07T15:51:20.000Z</time>
      </trkpt>
      <trkpt lat="41.81034511886537075042724609375" lon="-2.68290781415998935699462890625">
        <ele>1057.199951171875</ele>
        <time>2019-07-07T15:51:22.000Z</time>
      </trkpt>
      <trkpt lat="41.81022576056420803070068359375" lon="-2.683583311736583709716796875">
        <ele>1057.5999755859375</ele>
        <time>2019-07-07T15:51:25.000Z</time>
      </trkpt>
      <trkpt lat="41.81016826070845127105712890625" lon="-2.6839214377105236053466796875">
        <ele>1059</ele>
        <time>2019-07-07T15:51:26.000Z</time>
      </trkpt>
      <trkpt lat="41.81011520326137542724609375" lon="-2.6842637546360492706298828125">
        <ele>1060</ele>
        <time>2019-07-07T15:51:27.000Z</time>
      </trkpt>
      <trkpt lat="41.810070611536502838134765625" lon="-2.68461856059730052947998046875">
        <ele>1061.800048828125</ele>
        <time>2019-07-07T15:51:28.000Z</time>
      </trkpt>
      <trkpt lat="41.81003867648541927337646484375" lon="-2.68499222584068775177001953125">
        <ele>1063.800048828125</ele>
        <time>2019-07-07T15:51:29.000Z</time>
      </trkpt>
      <trkpt lat="41.81002006866037845611572265625" lon="-2.6853825710713863372802734375">
        <ele>1065.5999755859375</ele>
        <time>2019-07-07T15:51:30.000Z</time>
      </trkpt>
      <trkpt lat="41.81000011973083019256591796875" lon="-2.6861825399100780487060546875">
        <ele>1066.5999755859375</ele>
        <time>2019-07-07T15:51:32.000Z</time>
      </trkpt>
      <trkpt lat="41.80999089963734149932861328125" lon="-2.68658026121556758880615234375">
        <ele>1066.5999755859375</ele>
        <time>2019-07-07T15:51:33.000Z</time>
      </trkpt>
      <trkpt lat="41.80997371673583984375" lon="-2.68736933358013629913330078125">
        <ele>1065.5999755859375</ele>
        <time>2019-07-07T15:51:35.000Z</time>
      </trkpt>
      <trkpt lat="41.80999475531280040740966796875" lon="-2.68814030103385448455810546875">
        <ele>1065.199951171875</ele>
        <time>2019-07-07T15:51:37.000Z</time>
      </trkpt>
      <trkpt lat="41.8100600503385066986083984375" lon="-2.6888996176421642303466796875">
        <ele>1067.199951171875</ele>
        <time>2019-07-07T15:51:39.000Z</time>
      </trkpt>
      <trkpt lat="41.810096763074398040771484375" lon="-2.68927286379039287567138671875">
        <ele>1069.199951171875</ele>
        <time>2019-07-07T15:51:40.000Z</time>
      </trkpt>
      <trkpt lat="41.81013288907706737518310546875" lon="-2.6896435953676700592041015625">
        <ele>1071.199951171875</ele>
        <time>2019-07-07T15:51:41.000Z</time>
      </trkpt>
      <trkpt lat="41.8101676739752292633056640625" lon="-2.690012566745281219482421875">
        <ele>1072.800048828125</ele>
        <time>2019-07-07T15:51:42.000Z</time>
      </trkpt>
      <trkpt lat="41.81020296178758144378662109375" lon="-2.6903803646564483642578125">
        <ele>1074</ele>
        <time>2019-07-07T15:51:43.000Z</time>
      </trkpt>
      <trkpt lat="41.81023883633315563201904296875" lon="-2.69074589945375919342041015625">
        <ele>1075</ele>
        <time>2019-07-07T15:51:44.000Z</time>
      </trkpt>
      <trkpt lat="41.81034361012279987335205078125" lon="-2.691833116114139556884765625">
        <ele>1076</ele>
        <time>2019-07-07T15:51:47.000Z</time>
      </trkpt>
      <trkpt lat="41.81041435338556766510009765625" lon="-2.69254624843597412109375">
        <ele>1076.4000244140625</ele>
        <time>2019-07-07T15:51:48.000Z</time>
      </trkpt>
      <trkpt lat="41.81044779717922210693359375" lon="-2.69290004856884479522705078125">
        <ele>1078.4000244140625</ele>
        <time>2019-07-07T15:51:50.000Z</time>
      </trkpt>
      <trkpt lat="41.8104801513254642486572265625" lon="-2.69325057975947856903076171875">
        <ele>1079.800048828125</ele>
        <time>2019-07-07T15:51:51.000Z</time>
      </trkpt>
      <trkpt lat="41.8105455301702022552490234375" lon="-2.6939461939036846160888671875">
        <ele>1080.800048828125</ele>
        <time>2019-07-07T15:51:52.000Z</time>
      </trkpt>
      <trkpt lat="41.8105783872306346893310546875" lon="-2.69429504871368408203125">
        <ele>1081.5999755859375</ele>
        <time>2019-07-07T15:51:53.000Z</time>
      </trkpt>
      <trkpt lat="41.81067486293613910675048828125" lon="-2.69535544328391551971435546875">
        <ele>1082.5999755859375</ele>
        <time>2019-07-07T15:51:56.000Z</time>
      </trkpt>
      <trkpt lat="41.81070805527269840240478515625" lon="-2.69571418873965740203857421875">
        <ele>1081.5999755859375</ele>
        <time>2019-07-07T15:51:58.000Z</time>
      </trkpt>
      <trkpt lat="41.81084920652210712432861328125" lon="-2.6971816085278987884521484375">
        <ele>1079.800048828125</ele>
        <time>2019-07-07T15:52:01.000Z</time>
      </trkpt>
      <trkpt lat="41.8108843266963958740234375" lon="-2.69755619578063488006591796875">
        <ele>1078.199951171875</ele>
        <time>2019-07-07T15:52:02.000Z</time>
      </trkpt>
      <trkpt lat="41.8108843266963958740234375" lon="-2.69755619578063488006591796875">
        <ele>1077</ele>
        <time>2019-07-07T15:52:03.000Z</time>
      </trkpt>
      <trkpt lat="41.81098583154380321502685546875" lon="-2.6986819691956043243408203125">
        <ele>1075.4000244140625</ele>
        <time>2019-07-07T15:52:05.000Z</time>
      </trkpt>
      <trkpt lat="41.8110206164419651031494140625" lon="-2.6990544609725475311279296875">
        <ele>1074.199951171875</ele>
        <time>2019-07-07T15:52:06.000Z</time>
      </trkpt>
      <trkpt lat="41.81105456314980983734130859375" lon="-2.69942167215049266815185546875">
        <ele>1074</ele>
        <time>2019-07-07T15:52:07.000Z</time>
      </trkpt>
      <trkpt lat="41.81105456314980983734130859375" lon="-2.69942167215049266815185546875">
        <ele>1073.199951171875</ele>
        <time>2019-07-07T15:52:08.000Z</time>
      </trkpt>
      <trkpt lat="41.81112078018486499786376953125" lon="-2.70014486275613307952880859375">
        <ele>1073</ele>
        <time>2019-07-07T15:52:09.000Z</time>
      </trkpt>
      <trkpt lat="41.81115481071174144744873046875" lon="-2.70050344057381153106689453125">
        <ele>1072.199951171875</ele>
        <time>2019-07-07T15:52:11.000Z</time>
      </trkpt>
      <trkpt lat="41.811254136264324188232421875" lon="-2.70156995393335819244384765625">
        <ele>1072.5999755859375</ele>
        <time>2019-07-07T15:52:13.000Z</time>
      </trkpt>
      <trkpt lat="41.8113267235457897186279296875" lon="-2.70227135159075260162353515625">
        <ele>1073</ele>
        <time>2019-07-07T15:52:16.000Z</time>
      </trkpt>
      <trkpt lat="41.81142772547900676727294921875" lon="-2.70296059548854827880859375">
        <ele>1072.199951171875</ele>
        <time>2019-07-07T15:52:18.000Z</time>
      </trkpt>
      <trkpt lat="41.8115976266562938690185546875" lon="-2.70363676361739635467529296875">
        <ele>1070.800048828125</ele>
        <time>2019-07-07T15:52:20.000Z</time>
      </trkpt>
      <trkpt lat="41.8118219263851642608642578125" lon="-2.70432407967746257781982421875">
        <ele>1069.199951171875</ele>
        <time>2019-07-07T15:52:22.000Z</time>
      </trkpt>
      <trkpt lat="41.8119379319250583648681640625" lon="-2.70466840825974941253662109375">
        <ele>1067.5999755859375</ele>
        <time>2019-07-07T15:52:23.000Z</time>
      </trkpt>
      <trkpt lat="41.81216667406260967254638671875" lon="-2.705350778996944427490234375">
        <ele>1066.199951171875</ele>
        <time>2019-07-07T15:52:25.000Z</time>
      </trkpt>
      <trkpt lat="41.81238728575408458709716796875" lon="-2.7060067467391490936279296875">
        <ele>1068</ele>
        <time>2019-07-07T15:52:27.000Z</time>
      </trkpt>
      <trkpt lat="41.8126009404659271240234375" lon="-2.7066498063504695892333984375">
        <ele>1069.4000244140625</ele>
        <time>2019-07-07T15:52:29.000Z</time>
      </trkpt>
      <trkpt lat="41.81281576864421367645263671875" lon="-2.707294709980487823486328125">
        <ele>1070.199951171875</ele>
        <time>2019-07-07T15:52:31.000Z</time>
      </trkpt>
      <trkpt lat="41.8130354583263397216796875" lon="-2.70794254727661609649658203125">
        <ele>1068.5999755859375</ele>
        <time>2019-07-07T15:52:33.000Z</time>
      </trkpt>
      <trkpt lat="41.81314341723918914794921875" lon="-2.708267010748386383056640625">
        <ele>1067</ele>
        <time>2019-07-07T15:52:34.000Z</time>
      </trkpt>
      <trkpt lat="41.81334592401981353759765625" lon="-2.70891367457807064056396484375">
        <ele>1065</ele>
        <time>2019-07-07T15:52:36.000Z</time>
      </trkpt>
      <trkpt lat="41.81350551545619964599609375" lon="-2.70955958403646945953369140625">
        <ele>1062.199951171875</ele>
        <time>2019-07-07T15:52:38.000Z</time>
      </trkpt>
      <trkpt lat="41.8135620094835758209228515625" lon="-2.70989351905882358551025390625">
        <ele>1060.800048828125</ele>
        <time>2019-07-07T15:52:39.000Z</time>
      </trkpt>
      <trkpt lat="41.81362126953899860382080078125" lon="-2.71056675352156162261962890625">
        <ele>1062.4000244140625</ele>
        <time>2019-07-07T15:52:41.000Z</time>
      </trkpt>
      <trkpt lat="41.81363292038440704345703125" lon="-2.71089725196361541748046875">
        <ele>1061</ele>
        <time>2019-07-07T15:52:42.000Z</time>
      </trkpt>
      <trkpt lat="41.81365496478974819183349609375" lon="-2.71153335459530353546142578125">
        <ele>1061.4000244140625</ele>
        <time>2019-07-07T15:52:43.000Z</time>
      </trkpt>
      <trkpt lat="41.8136961199343204498291015625" lon="-2.7124832756817340850830078125">
        <ele>1062</ele>
        <time>2019-07-07T15:52:46.000Z</time>
      </trkpt>
      <trkpt lat="41.8137209303677082061767578125" lon="-2.71313555538654327392578125">
        <ele>1064.199951171875</ele>
        <time>2019-07-07T15:52:49.000Z</time>
      </trkpt>
      <trkpt lat="41.8137309886515140533447265625" lon="-2.71346680819988250732421875">
        <ele>1065.4000244140625</ele>
        <time>2019-07-07T15:52:50.000Z</time>
      </trkpt>
      <trkpt lat="41.81374733336269855499267578125" lon="-2.71413442678749561309814453125">
        <ele>1067</ele>
        <time>2019-07-07T15:52:52.000Z</time>
      </trkpt>
      <trkpt lat="41.81375470943748950958251953125" lon="-2.7148043923079967498779296875">
        <ele>1068</ele>
        <time>2019-07-07T15:52:54.000Z</time>
      </trkpt>
      <trkpt lat="41.81375898420810699462890625" lon="-2.7154791355133056640625">
        <ele>1067.4000244140625</ele>
        <time>2019-07-07T15:52:56.000Z</time>
      </trkpt>
      <trkpt lat="41.8137621693313121795654296875" lon="-2.71582002751529216766357421875">
        <ele>1067</ele>
        <time>2019-07-07T15:52:57.000Z</time>
      </trkpt>
      <trkpt lat="41.81377532891929149627685546875" lon="-2.71650650538504123687744140625">
        <ele>1066.5999755859375</ele>
        <time>2019-07-07T15:52:59.000Z</time>
      </trkpt>
      <trkpt lat="41.81378404609858989715576171875" lon="-2.7171935699880123138427734375">
        <ele>1066.800048828125</ele>
        <time>2019-07-07T15:53:01.000Z</time>
      </trkpt>
      <trkpt lat="41.8137859739363193511962890625" lon="-2.7178869210183620452880859375">
        <ele>1068.5999755859375</ele>
        <time>2019-07-07T15:53:03.000Z</time>
      </trkpt>
      <trkpt lat="41.81378538720309734344482421875" lon="-2.71823502145707607269287109375">
        <ele>1069.5999755859375</ele>
        <time>2019-07-07T15:53:04.000Z</time>
      </trkpt>
      <trkpt lat="41.813785135746002197265625" lon="-2.71858219988644123077392578125">
        <ele>1071</ele>
        <time>2019-07-07T15:53:05.000Z</time>
      </trkpt>
      <trkpt lat="41.81378404609858989715576171875" lon="-2.71892887540161609649658203125">
        <ele>1072.199951171875</ele>
        <time>2019-07-07T15:53:06.000Z</time>
      </trkpt>
      <trkpt lat="41.8137618340551853179931640625" lon="-2.71962893195450305938720703125">
        <ele>1074</ele>
        <time>2019-07-07T15:53:08.000Z</time>
      </trkpt>
      <trkpt lat="41.8137336708605289459228515625" lon="-2.71997912786900997161865234375">
        <ele>1075.199951171875</ele>
        <time>2019-07-07T15:53:09.000Z</time>
      </trkpt>
      <trkpt lat="41.8136441521346569061279296875" lon="-2.72065739147365093231201171875">
        <ele>1076.4000244140625</ele>
        <time>2019-07-07T15:53:11.000Z</time>
      </trkpt>
      <trkpt lat="41.81355237029492855072021484375" lon="-2.72130296565592288970947265625">
        <ele>1077.800048828125</ele>
        <time>2019-07-07T15:53:13.000Z</time>
      </trkpt>
      <trkpt lat="41.813463605940341949462890625" lon="-2.72193311713635921478271484375">
        <ele>1080.4000244140625</ele>
        <time>2019-07-07T15:53:15.000Z</time>
      </trkpt>
      <trkpt lat="41.81341742165386676788330078125" lon="-2.72224609740078449249267578125">
        <ele>1082</ele>
        <time>2019-07-07T15:53:16.000Z</time>
      </trkpt>
      <trkpt lat="41.8133705668151378631591796875" lon="-2.72256108932197093963623046875">
        <ele>1083.199951171875</ele>
        <time>2019-07-07T15:53:17.000Z</time>
      </trkpt>
      <trkpt lat="41.813324131071567535400390625" lon="-2.72288077510893344879150390625">
        <ele>1084.800048828125</ele>
        <time>2019-07-07T15:53:18.000Z</time>
      </trkpt>
      <trkpt lat="41.8132790364325046539306640625" lon="-2.72320699878036975860595703125">
        <ele>1085.800048828125</ele>
        <time>2019-07-07T15:53:19.000Z</time>
      </trkpt>
      <trkpt lat="41.81319111026823520660400390625" lon="-2.72387201897799968719482421875">
        <ele>1085.4000244140625</ele>
        <time>2019-07-07T15:53:21.000Z</time>
      </trkpt>
      <trkpt lat="41.8130963109433650970458984375" lon="-2.7245485223829746246337890625">
        <ele>1084.800048828125</ele>
        <time>2019-07-07T15:53:23.000Z</time>
      </trkpt>
      <trkpt lat="41.81299648247659206390380859375" lon="-2.72523701190948486328125">
        <ele>1083.800048828125</ele>
        <time>2019-07-07T15:53:25.000Z</time>
      </trkpt>
      <trkpt lat="41.81294803507626056671142578125" lon="-2.72558578290045261383056640625">
        <ele>1083.199951171875</ele>
        <time>2019-07-07T15:53:26.000Z</time>
      </trkpt>
      <trkpt lat="41.812859438359737396240234375" lon="-2.72628449834883213043212890625">
        <ele>1082.4000244140625</ele>
        <time>2019-07-07T15:53:28.000Z</time>
      </trkpt>
      <trkpt lat="41.812820546329021453857421875" lon="-2.72663377225399017333984375">
        <ele>1081.199951171875</ele>
        <time>2019-07-07T15:53:29.000Z</time>
      </trkpt>
      <trkpt lat="41.8127855099737644195556640625" lon="-2.726981453597545623779296875">
        <ele>1079.4000244140625</ele>
        <time>2019-07-07T15:53:30.000Z</time>
      </trkpt>
      <trkpt lat="41.81275374256074428558349609375" lon="-2.72732905112206935882568359375">
        <ele>1075.800048828125</ele>
        <time>2019-07-07T15:53:31.000Z</time>
      </trkpt>
      <trkpt lat="41.812722980976104736328125" lon="-2.727676816284656524658203125">
        <ele>1073</ele>
        <time>2019-07-07T15:53:32.000Z</time>
      </trkpt>
      <trkpt lat="41.81269104592502117156982421875" lon="-2.72802407853305339813232421875">
        <ele>1070.4000244140625</ele>
        <time>2019-07-07T15:53:33.000Z</time>
      </trkpt>
      <trkpt lat="41.81265634484589099884033203125" lon="-2.72836941294372081756591796875">
        <ele>1069</ele>
        <time>2019-07-07T15:53:34.000Z</time>
      </trkpt>
      <trkpt lat="41.8126215599477291107177734375" lon="-2.728710137307643890380859375">
        <ele>1068</ele>
        <time>2019-07-07T15:53:35.000Z</time>
      </trkpt>
      <trkpt lat="41.812550313770771026611328125" lon="-2.72941027767956256866455078125">
        <ele>1070</ele>
        <time>2019-07-07T15:53:37.000Z</time>
      </trkpt>
      <trkpt lat="41.812508068978786468505859375" lon="-2.729789055883884429931640625">
        <ele>1072</ele>
        <time>2019-07-07T15:53:38.000Z</time>
      </trkpt>
      <trkpt lat="41.81246138177812099456787109375" lon="-2.73018962703645229339599609375">
        <ele>1074.800048828125</ele>
        <time>2019-07-07T15:53:39.000Z</time>
      </trkpt>
      <trkpt lat="41.8124136887490749359130859375" lon="-2.73060838691890239715576171875">
        <ele>1076.4000244140625</ele>
        <time>2019-07-07T15:53:40.000Z</time>
      </trkpt>
      <trkpt lat="41.81232693605124950408935546875" lon="-2.7314847148954868316650390625">
        <ele>1077.4000244140625</ele>
        <time>2019-07-07T15:53:42.000Z</time>
      </trkpt>
      <trkpt lat="41.81226239539682865142822265625" lon="-2.73235852830111980438232421875">
        <ele>1072.199951171875</ele>
        <time>2019-07-07T15:53:44.000Z</time>
      </trkpt>
      <trkpt lat="41.81222903542220592498779296875" lon="-2.732787765562534332275390625">
        <ele>1070</ele>
        <time>2019-07-07T15:53:45.000Z</time>
      </trkpt>
      <trkpt lat="41.8121934123337268829345703125" lon="-2.7332117222249507904052734375">
        <ele>1066.800048828125</ele>
        <time>2019-07-07T15:53:46.000Z</time>
      </trkpt>
      <trkpt lat="41.8121565319597721099853515625" lon="-2.73362922482192516326904296875">
        <ele>1064.4000244140625</ele>
        <time>2019-07-07T15:53:47.000Z</time>
      </trkpt>
      <trkpt lat="41.8121173046529293060302734375" lon="-2.73403993807733058929443359375">
        <ele>1062.5999755859375</ele>
        <time>2019-07-07T15:53:48.000Z</time>
      </trkpt>
      <trkpt lat="41.81203776039183139801025390625" lon="-2.7348398230969905853271484375">
        <ele>1064.800048828125</ele>
        <time>2019-07-07T15:53:50.000Z</time>
      </trkpt>
      <trkpt lat="41.81199953891336917877197265625" lon="-2.7352294139564037322998046875">
        <ele>1067.4000244140625</ele>
        <time>2019-07-07T15:53:51.000Z</time>
      </trkpt>
      <trkpt lat="41.81196081452071666717529296875" lon="-2.735616154968738555908203125">
        <ele>1069.5999755859375</ele>
        <time>2019-07-07T15:53:52.000Z</time>
      </trkpt>
      <trkpt lat="41.8119218386709690093994140625" lon="-2.73600046522915363311767578125">
        <ele>1073.199951171875</ele>
        <time>2019-07-07T15:53:53.000Z</time>
      </trkpt>
      <trkpt lat="41.8118832819163799285888671875" lon="-2.736381255090236663818359375">
        <ele>1075.800048828125</ele>
        <time>2019-07-07T15:53:54.000Z</time>
      </trkpt>
      <trkpt lat="41.8118467368185520172119140625" lon="-2.73675852455198764801025390625">
        <ele>1078.4000244140625</ele>
        <time>2019-07-07T15:53:55.000Z</time>
      </trkpt>
      <trkpt lat="41.8118108622729778289794921875" lon="-2.73713420145213603973388671875">
        <ele>1080.199951171875</ele>
        <time>2019-07-07T15:53:56.000Z</time>
      </trkpt>
      <trkpt lat="41.81173819117248058319091796875" lon="-2.73788723163306713104248046875">
        <ele>1080</ele>
        <time>2019-07-07T15:53:58.000Z</time>
      </trkpt>
      <trkpt lat="41.81170147843658924102783203125" lon="-2.73826441727578639984130859375">
        <ele>1078.800048828125</ele>
        <time>2019-07-07T15:53:59.000Z</time>
      </trkpt>
      <trkpt lat="41.81166543625295162200927734375" lon="-2.7386385016143321990966796875">
        <ele>1076.5999755859375</ele>
        <time>2019-07-07T15:54:00.000Z</time>
      </trkpt>
      <trkpt lat="41.81162972934544086456298828125" lon="-2.73900738917291164398193359375">
        <ele>1075.199951171875</ele>
        <time>2019-07-07T15:54:01.000Z</time>
      </trkpt>
      <trkpt lat="41.81156099773943424224853515625" lon="-2.73972655646502971649169921875">
        <ele>1073.199951171875</ele>
        <time>2019-07-07T15:54:03.000Z</time>
      </trkpt>
      <trkpt lat="41.81149645708501338958740234375" lon="-2.7404241822659969329833984375">
        <ele>1071.800048828125</ele>
        <time>2019-07-07T15:54:05.000Z</time>
      </trkpt>
      <trkpt lat="41.81143208406865596771240234375" lon="-2.7411084808409214019775390625">
        <ele>1074</ele>
        <time>2019-07-07T15:54:07.000Z</time>
      </trkpt>
      <trkpt lat="41.811365447938442230224609375" lon="-2.74178951047360897064208984375">
        <ele>1076.199951171875</ele>
        <time>2019-07-07T15:54:08.000Z</time>
      </trkpt>
      <trkpt lat="41.811365447938442230224609375" lon="-2.74178951047360897064208984375">
        <ele>1078.5999755859375</ele>
        <time>2019-07-07T15:54:09.000Z</time>
      </trkpt>
      <trkpt lat="41.81133091449737548828125" lon="-2.742129899561405181884765625">
        <ele>1081.199951171875</ele>
        <time>2019-07-07T15:54:10.000Z</time>
      </trkpt>
      <trkpt lat="41.8112958781421184539794921875" lon="-2.74247179739177227020263671875">
        <ele>1084.4000244140625</ele>
        <time>2019-07-07T15:54:11.000Z</time>
      </trkpt>
      <trkpt lat="41.8112620152533054351806640625" lon="-2.74281595833599567413330078125">
        <ele>1087.199951171875</ele>
        <time>2019-07-07T15:54:12.000Z</time>
      </trkpt>
      <trkpt lat="41.81122907437384128570556640625" lon="-2.7431627176702022552490234375">
        <ele>1088.800048828125</ele>
        <time>2019-07-07T15:54:13.000Z</time>
      </trkpt>
      <trkpt lat="41.81116336025297641754150390625" lon="-2.7438528835773468017578125">
        <ele>1087.4000244140625</ele>
        <time>2019-07-07T15:54:15.000Z</time>
      </trkpt>
      <trkpt lat="41.8111309222877025604248046875" lon="-2.74419344030320644378662109375">
        <ele>1083.199951171875</ele>
        <time>2019-07-07T15:54:16.000Z</time>
      </trkpt>
      <trkpt lat="41.81109881959855556488037109375" lon="-2.74453190155327320098876953125">
        <ele>1078.5999755859375</ele>
        <time>2019-07-07T15:54:17.000Z</time>
      </trkpt>
      <trkpt lat="41.8110678903758525848388671875" lon="-2.74486868642270565032958984375">
        <ele>1075.4000244140625</ele>
        <time>2019-07-07T15:54:18.000Z</time>
      </trkpt>
      <trkpt lat="41.8110377155244350433349609375" lon="-2.7452022023499011993408203125">
        <ele>1073.199951171875</ele>
        <time>2019-07-07T15:54:19.000Z</time>
      </trkpt>
      <trkpt lat="41.81100896559655666351318359375" lon="-2.74552498944103717803955078125">
        <ele>1071.4000244140625</ele>
        <time>2019-07-07T15:54:20.000Z</time>
      </trkpt>
      <trkpt lat="41.81095213629305362701416015625" lon="-2.74612647481262683868408203125">
        <ele>1071.199951171875</ele>
        <time>2019-07-07T15:54:22.000Z</time>
      </trkpt>
      <trkpt lat="41.8109250627458095550537109375" lon="-2.7464155666530132293701171875">
        <ele>1072.800048828125</ele>
        <time>2019-07-07T15:54:23.000Z</time>
      </trkpt>
      <trkpt lat="41.81089748628437519073486328125" lon="-2.74670130573213100433349609375">
        <ele>1074.199951171875</ele>
        <time>2019-07-07T15:54:24.000Z</time>
      </trkpt>
      <trkpt lat="41.81086949072778224945068359375" lon="-2.746986038982868194580078125">
        <ele>1076.5999755859375</ele>
        <time>2019-07-07T15:54:25.000Z</time>
      </trkpt>
      <trkpt lat="41.8108402378857135772705078125" lon="-2.747273705899715423583984375">
        <ele>1078.800048828125</ele>
        <time>2019-07-07T15:54:26.000Z</time>
      </trkpt>
      <trkpt lat="41.8108120746910572052001953125" lon="-2.74756497703492641448974609375">
        <ele>1080.5999755859375</ele>
        <time>2019-07-07T15:54:27.000Z</time>
      </trkpt>
      <trkpt lat="41.8107902817428112030029296875" lon="-2.747861444950103759765625">
        <ele>1082.5999755859375</ele>
        <time>2019-07-07T15:54:28.000Z</time>
      </trkpt>
      <trkpt lat="41.81077913381159305572509765625" lon="-2.7481663785874843597412109375">
        <ele>1084.5999755859375</ele>
        <time>2019-07-07T15:54:29.000Z</time>
      </trkpt>
      <trkpt lat="41.81078114546835422515869140625" lon="-2.748481370508670806884765625">
        <ele>1087.5999755859375</ele>
        <time>2019-07-07T15:54:30.000Z</time>
      </trkpt>
      <trkpt lat="41.8107966519892215728759765625" lon="-2.74880398996174335479736328125">
        <ele>1090.5999755859375</ele>
        <time>2019-07-07T15:54:31.000Z</time>
      </trkpt>
      <trkpt lat="41.81082732975482940673828125" lon="-2.74913214147090911865234375">
        <ele>1092.800048828125</ele>
        <time>2019-07-07T15:54:32.000Z</time>
      </trkpt>
      <trkpt lat="41.810872592031955718994140625" lon="-2.74946339428424835205078125">
        <ele>1094.4000244140625</ele>
        <time>2019-07-07T15:54:33.000Z</time>
      </trkpt>
      <trkpt lat="41.81099337525665760040283203125" lon="-2.75012053549289703369140625">
        <ele>1095.800048828125</ele>
        <time>2019-07-07T15:54:35.000Z</time>
      </trkpt>
      <trkpt lat="41.8111257255077362060546875" lon="-2.75075613521039485931396484375">
        <ele>1094</ele>
        <time>2019-07-07T15:54:37.000Z</time>
      </trkpt>
      <trkpt lat="41.811250112950801849365234375" lon="-2.75136298500001430511474609375">
        <ele>1091</ele>
        <time>2019-07-07T15:54:38.000Z</time>
      </trkpt>
      <trkpt lat="41.81130920536816120147705078125" lon="-2.75166548788547515869140625">
        <ele>1089</ele>
        <time>2019-07-07T15:54:40.000Z</time>
      </trkpt>
      <trkpt lat="41.8113605864346027374267578125" lon="-2.7519734390079975128173828125">
        <ele>1088</ele>
        <time>2019-07-07T15:54:41.000Z</time>
      </trkpt>
      <trkpt lat="41.81142504326999187469482421875" lon="-2.75260434485971927642822265625">
        <ele>1090</ele>
        <time>2019-07-07T15:54:43.000Z</time>
      </trkpt>
      <trkpt lat="41.8114199303090572357177734375" lon="-2.75325226597487926483154296875">
        <ele>1091.5999755859375</ele>
        <time>2019-07-07T15:54:45.000Z</time>
      </trkpt>
      <trkpt lat="41.8113456666469573974609375" lon="-2.7539004385471343994140625">
        <ele>1091</ele>
        <time>2019-07-07T15:54:47.000Z</time>
      </trkpt>
      <trkpt lat="41.8112861551344394683837890625" lon="-2.75421165861189365386962890625">
        <ele>1089.5999755859375</ele>
        <time>2019-07-07T15:54:48.000Z</time>
      </trkpt>
      <trkpt lat="41.81121113710105419158935546875" lon="-2.75450904853641986846923828125">
        <ele>1087.800048828125</ele>
        <time>2019-07-07T15:54:49.000Z</time>
      </trkpt>
      <trkpt lat="41.81112161837518215179443359375" lon="-2.75479688309133052825927734375">
        <ele>1085</ele>
        <time>2019-07-07T15:54:50.000Z</time>
      </trkpt>
      <trkpt lat="41.81102170608937740325927734375" lon="-2.7550777606666088104248046875">
        <ele>1083.800048828125</ele>
        <time>2019-07-07T15:54:51.000Z</time>
      </trkpt>
      <trkpt lat="41.81079019792377948760986328125" lon="-2.7556172199547290802001953125">
        <ele>1082.199951171875</ele>
        <time>2019-07-07T15:54:53.000Z</time>
      </trkpt>
      <trkpt lat="41.81052826344966888427734375" lon="-2.7561199665069580078125">
        <ele>1081.5999755859375</ele>
        <time>2019-07-07T15:54:55.000Z</time>
      </trkpt>
      <trkpt lat="41.81026565842330455780029296875" lon="-2.7566304244101047515869140625">
        <ele>1084.5999755859375</ele>
        <time>2019-07-07T15:54:57.000Z</time>
      </trkpt>
      <trkpt lat="41.81001202203333377838134765625" lon="-2.7571970410645008087158203125">
        <ele>1084</ele>
        <time>2019-07-07T15:54:59.000Z</time>
      </trkpt>
      <trkpt lat="41.809729635715484619140625" lon="-2.7578468061983585357666015625">
        <ele>1085.199951171875</ele>
        <time>2019-07-07T15:55:01.000Z</time>
      </trkpt>
      <trkpt lat="41.8094190023839473724365234375" lon="-2.7585559152066707611083984375">
        <ele>1082</ele>
        <time>2019-07-07T15:55:03.000Z</time>
      </trkpt>
      <trkpt lat="41.80927474983036518096923828125" lon="-2.75891759432852268218994140625">
        <ele>1080</ele>
        <time>2019-07-07T15:55:04.000Z</time>
      </trkpt>
      <trkpt lat="41.80914332158863544464111328125" lon="-2.75927298702299594879150390625">
        <ele>1078.199951171875</ele>
        <time>2019-07-07T15:55:05.000Z</time>
      </trkpt>
      <trkpt lat="41.8088778667151927947998046875" lon="-2.759968936443328857421875">
        <ele>1075.800048828125</ele>
        <time>2019-07-07T15:55:07.000Z</time>
      </trkpt>
      <trkpt lat="41.808603443205356597900390625" lon="-2.7606406621634960174560546875">
        <ele>1074.800048828125</ele>
        <time>2019-07-07T15:55:09.000Z</time>
      </trkpt>
      <trkpt lat="41.80833949707448482513427734375" lon="-2.76127676479518413543701171875">
        <ele>1076.4000244140625</ele>
        <time>2019-07-07T15:55:11.000Z</time>
      </trkpt>
      <trkpt lat="41.8082140199840068817138671875" lon="-2.76158119551837444305419921875">
        <ele>1077.5999755859375</ele>
        <time>2019-07-07T15:55:12.000Z</time>
      </trkpt>
      <trkpt lat="41.80797672830522060394287109375" lon="-2.76216901838779449462890625">
        <ele>1078.5999755859375</ele>
        <time>2019-07-07T15:55:14.000Z</time>
      </trkpt>
      <trkpt lat="41.80787128396332263946533203125" lon="-2.76246012188494205474853515625">
        <ele>1080</ele>
        <time>2019-07-07T15:55:15.000Z</time>
      </trkpt>
      <trkpt lat="41.80778059177100658416748046875" lon="-2.7627572603523731231689453125">
        <ele>1082</ele>
        <time>2019-07-07T15:55:16.000Z</time>
      </trkpt>
      <trkpt lat="41.8077090941369533538818359375" lon="-2.763063870370388031005859375">
        <ele>1082.5999755859375</ele>
        <time>2019-07-07T15:55:17.000Z</time>
      </trkpt>
      <trkpt lat="41.80761496536433696746826171875" lon="-2.7637174911797046661376953125">
        <ele>1082.4000244140625</ele>
        <time>2019-07-07T15:55:19.000Z</time>
      </trkpt>
      <trkpt lat="41.8075461499392986297607421875" lon="-2.764408327639102935791015625">
        <ele>1080.5999755859375</ele>
        <time>2019-07-07T15:55:21.000Z</time>
      </trkpt>
      <trkpt lat="41.80750968866050243377685546875" lon="-2.76476405560970306396484375">
        <ele>1079.4000244140625</ele>
        <time>2019-07-07T15:55:22.000Z</time>
      </trkpt>
      <trkpt lat="41.807471215724945068359375" lon="-2.7651259861886501312255859375">
        <ele>1077.800048828125</ele>
        <time>2019-07-07T15:55:23.000Z</time>
      </trkpt>
      <trkpt lat="41.80743207223713397979736328125" lon="-2.76549252681434154510498046875">
        <ele>1077</ele>
        <time>2019-07-07T15:55:24.000Z</time>
      </trkpt>
      <trkpt lat="41.80739284493029117584228515625" lon="-2.76586183346807956695556640625">
        <ele>1076.5999755859375</ele>
        <time>2019-07-07T15:55:25.000Z</time>
      </trkpt>
      <trkpt lat="41.807315647602081298828125" lon="-2.7666015364229679107666015625">
        <ele>1074.5999755859375</ele>
        <time>2019-07-07T15:55:27.000Z</time>
      </trkpt>
      <trkpt lat="41.807236187160015106201171875" lon="-2.76732799597084522247314453125">
        <ele>1074.199951171875</ele>
        <time>2019-07-07T15:55:29.000Z</time>
      </trkpt>
      <trkpt lat="41.807160079479217529296875" lon="-2.768048755824565887451171875">
        <ele>1073.199951171875</ele>
        <time>2019-07-07T15:55:31.000Z</time>
      </trkpt>
      <trkpt lat="41.80712797679007053375244140625" lon="-2.76840783655643463134765625">
        <ele>1071.199951171875</ele>
        <time>2019-07-07T15:55:32.000Z</time>
      </trkpt>
      <trkpt lat="41.80710442364215850830078125" lon="-2.76876725256443023681640625">
        <ele>1068.199951171875</ele>
        <time>2019-07-07T15:55:33.000Z</time>
      </trkpt>
      <trkpt lat="41.807093359529972076416015625" lon="-2.7691273391246795654296875">
        <ele>1066</ele>
        <time>2019-07-07T15:55:34.000Z</time>
      </trkpt>
      <trkpt lat="41.8070997297763824462890625" lon="-2.7694815583527088165283203125">
        <ele>1063</ele>
        <time>2019-07-07T15:55:35.000Z</time>
      </trkpt>
      <trkpt lat="41.8071226961910724639892578125" lon="-2.76982781477272510528564453125">
        <ele>1061.5999755859375</ele>
        <time>2019-07-07T15:55:36.000Z</time>
      </trkpt>
      <trkpt lat="41.80721573531627655029296875" lon="-2.77049954049289226531982421875">
        <ele>1060</ele>
        <time>2019-07-07T15:55:38.000Z</time>
      </trkpt>
      <trkpt lat="41.80736216716468334197998046875" lon="-2.771168164908885955810546875">
        <ele>1060.199951171875</ele>
        <time>2019-07-07T15:55:40.000Z</time>
      </trkpt>
      <trkpt lat="41.80755411274731159210205078125" lon="-2.77183544822037220001220703125">
        <ele>1059.199951171875</ele>
        <time>2019-07-07T15:55:42.000Z</time>
      </trkpt>
      <trkpt lat="41.80765519849956035614013671875" lon="-2.772171311080455780029296875">
        <ele>1058.4000244140625</ele>
        <time>2019-07-07T15:55:43.000Z</time>
      </trkpt>
      <trkpt lat="41.80775544606149196624755859375" lon="-2.77251170016825199127197265625">
        <ele>1057.4000244140625</ele>
        <time>2019-07-07T15:55:44.000Z</time>
      </trkpt>
      <trkpt lat="41.80793833918869495391845703125" lon="-2.7731920592486858367919921875">
        <ele>1056.199951171875</ele>
        <time>2019-07-07T15:55:46.000Z</time>
      </trkpt>
      <trkpt lat="41.80806775577366352081298828125" lon="-2.77380854822695255279541015625">
        <ele>1055.800048828125</ele>
        <time>2019-07-07T15:55:48.000Z</time>
      </trkpt>
      <trkpt lat="41.8081533350050449371337890625" lon="-2.77460281737148761749267578125">
        <ele>1059</ele>
        <time>2019-07-07T15:55:51.000Z</time>
      </trkpt>
      <trkpt lat="41.80815978907048702239990234375" lon="-2.77484253980219364166259765625">
        <ele>1061.5999755859375</ele>
        <time>2019-07-07T15:55:52.000Z</time>
      </trkpt>
      <trkpt lat="41.80815895088016986846923828125" lon="-2.77507471852004528045654296875">
        <ele>1062.800048828125</ele>
        <time>2019-07-07T15:55:53.000Z</time>
      </trkpt>
      <trkpt lat="41.80815308354794979095458984375" lon="-2.77530170045793056488037109375">
        <ele>1064.5999755859375</ele>
        <time>2019-07-07T15:55:54.000Z</time>
      </trkpt>
      <trkpt lat="41.80813900195062160491943359375" lon="-2.77552465908229351043701171875">
        <ele>1066.800048828125</ele>
        <time>2019-07-07T15:55:55.000Z</time>
      </trkpt>
      <trkpt lat="41.8080886267125606536865234375" lon="-2.7759651280939579010009765625">
        <ele>1068.4000244140625</ele>
        <time>2019-07-07T15:55:56.000Z</time>
      </trkpt>
      <trkpt lat="41.8080886267125606536865234375" lon="-2.7759651280939579010009765625">
        <ele>1069.800048828125</ele>
        <time>2019-07-07T15:55:57.000Z</time>
      </trkpt>
      <trkpt lat="41.80805618874728679656982421875" lon="-2.776184566318988800048828125">
        <ele>1071.199951171875</ele>
        <time>2019-07-07T15:55:58.000Z</time>
      </trkpt>
      <trkpt lat="41.8079816736280918121337890625" lon="-2.77662520296871662139892578125">
        <ele>1072.5999755859375</ele>
        <time>2019-07-07T15:55:59.000Z</time>
      </trkpt>
      <trkpt lat="41.8079816736280918121337890625" lon="-2.77662520296871662139892578125">
        <ele>1074.199951171875</ele>
        <time>2019-07-07T15:56:00.000Z</time>
      </trkpt>
      <trkpt lat="41.8079424463212490081787109375" lon="-2.77684682048857212066650390625">
        <ele>1075.5999755859375</ele>
        <time>2019-07-07T15:56:01.000Z</time>
      </trkpt>
      <trkpt lat="41.80786256678402423858642578125" lon="-2.77730028145015239715576171875">
        <ele>1077.199951171875</ele>
        <time>2019-07-07T15:56:03.000Z</time>
      </trkpt>
      <trkpt lat="41.80778210051357746124267578125" lon="-2.77776581235229969024658203125">
        <ele>1079.199951171875</ele>
        <time>2019-07-07T15:56:05.000Z</time>
      </trkpt>
      <trkpt lat="41.807691492140293121337890625" lon="-2.77825414203107357025146484375">
        <ele>1080.800048828125</ele>
        <time>2019-07-07T15:56:06.000Z</time>
      </trkpt>
      <trkpt lat="41.807691492140293121337890625" lon="-2.77825414203107357025146484375">
        <ele>1082.5999755859375</ele>
        <time>2019-07-07T15:56:07.000Z</time>
      </trkpt>
      <trkpt lat="41.80764664895832538604736328125" lon="-2.77850744314491748809814453125">
        <ele>1084.5999755859375</ele>
        <time>2019-07-07T15:56:08.000Z</time>
      </trkpt>
      <trkpt lat="41.80759920738637447357177734375" lon="-2.7787616662681102752685546875">
        <ele>1085.5999755859375</ele>
        <time>2019-07-07T15:56:09.000Z</time>
      </trkpt>
      <trkpt lat="41.80742000229656696319580078125" lon="-2.77952634729444980621337890625">
        <ele>1084.800048828125</ele>
        <time>2019-07-07T15:56:11.000Z</time>
      </trkpt>
      <trkpt lat="41.80742000229656696319580078125" lon="-2.77952634729444980621337890625">
        <ele>1083.4000244140625</ele>
        <time>2019-07-07T15:56:12.000Z</time>
      </trkpt>
      <trkpt lat="41.8073466606438159942626953125" lon="-2.77977864257991313934326171875">
        <ele>1081.5999755859375</ele>
        <time>2019-07-07T15:56:13.000Z</time>
      </trkpt>
      <trkpt lat="41.8072695471346378326416015625" lon="-2.7800256572663784027099609375">
        <ele>1080.199951171875</ele>
        <time>2019-07-07T15:56:14.000Z</time>
      </trkpt>
      <trkpt lat="41.8071139790117740631103515625" lon="-2.78047702275216579437255859375">
        <ele>1079</ele>
        <time>2019-07-07T15:56:16.000Z</time>
      </trkpt>
      <trkpt lat="41.8069745041429996490478515625" lon="-2.7808655239641666412353515625">
        <ele>1080.199951171875</ele>
        <time>2019-07-07T15:56:18.000Z</time>
      </trkpt>
      <trkpt lat="41.80690954439342021942138671875" lon="-2.78104246594011783599853515625">
        <ele>1081.4000244140625</ele>
        <time>2019-07-07T15:56:19.000Z</time>
      </trkpt>
      <trkpt lat="41.8067897669970989227294921875" lon="-2.7813769876956939697265625">
        <ele>1082.4000244140625</ele>
        <time>2019-07-07T15:56:20.000Z</time>
      </trkpt>
      <trkpt lat="41.80673184804618358612060546875" lon="-2.78154253028333187103271484375">
        <ele>1084.199951171875</ele>
        <time>2019-07-07T15:56:22.000Z</time>
      </trkpt>
      <trkpt lat="41.80655348114669322967529296875" lon="-2.78203974477946758270263671875">
        <ele>1085.4000244140625</ele>
        <time>2019-07-07T15:56:25.000Z</time>
      </trkpt>
      <trkpt lat="41.80644300766289234161376953125" lon="-2.78239731676876544952392578125">
        <ele>1086.5999755859375</ele>
        <time>2019-07-07T15:56:27.000Z</time>
      </trkpt>
      <trkpt lat="41.8063009344041347503662109375" lon="-2.78299477882683277130126953125">
        <ele>1086.800048828125</ele>
        <time>2019-07-07T15:56:29.000Z</time>
      </trkpt>
      <trkpt lat="41.806204877793788909912109375" lon="-2.78342393226921558380126953125">
        <ele>1088</ele>
        <time>2019-07-07T15:56:32.000Z</time>
      </trkpt>
      <trkpt lat="41.806010417640209197998046875" lon="-2.78433269821107387542724609375">
        <ele>1089.199951171875</ele>
        <time>2019-07-07T15:56:36.000Z</time>
      </trkpt>
      <trkpt lat="41.80585543625056743621826171875" lon="-2.785058319568634033203125">
        <ele>1089.800048828125</ele>
        <time>2019-07-07T15:56:38.000Z</time>
      </trkpt>
      <trkpt lat="41.8057333119213581085205078125" lon="-2.78566374443471431732177734375">
        <ele>1089.5999755859375</ele>
        <time>2019-07-07T15:56:42.000Z</time>
      </trkpt>
      <trkpt lat="41.8056893907487392425537109375" lon="-2.78591453097760677337646484375">
        <ele>1090.4000244140625</ele>
        <time>2019-07-07T15:56:44.000Z</time>
      </trkpt>
      <trkpt lat="41.80568645708262920379638671875" lon="-2.78599583543837070465087890625">
        <ele>1090.800048828125</ele>
        <time>2019-07-07T15:56:45.000Z</time>
      </trkpt>
      <trkpt lat="41.80569894611835479736328125" lon="-2.78606138192117214202880859375">
        <ele>1091.800048828125</ele>
        <time>2019-07-07T15:56:46.000Z</time>
      </trkpt>
      <trkpt lat="41.8057256005704402923583984375" lon="-2.786112762987613677978515625">
        <ele>1093</ele>
        <time>2019-07-07T15:56:47.000Z</time>
      </trkpt>
      <trkpt lat="41.80575937964022159576416015625" lon="-2.7861477993428707122802734375">
        <ele>1094.199951171875</ele>
        <time>2019-07-07T15:56:48.000Z</time>
      </trkpt>
      <trkpt lat="41.80585828609764575958251953125" lon="-2.7861716039478778839111328125">
        <ele>1095.5999755859375</ele>
        <time>2019-07-07T15:56:50.000Z</time>
      </trkpt>
      <trkpt lat="41.80600480176508426666259765625" lon="-2.7861853502690792083740234375">
        <ele>1096.5999755859375</ele>
        <time>2019-07-07T15:56:55.000Z</time>
      </trkpt>
      <trkpt lat="41.80617847479879856109619140625" lon="-2.7864244021475315093994140625">
        <ele>1097.199951171875</ele>
        <time>2019-07-07T15:57:03.000Z</time>
      </trkpt>
      <trkpt lat="41.80616590194404125213623046875" lon="-2.78650025837123394012451171875">
        <ele>1097.199951171875</ele>
        <time>2019-07-07T15:57:05.000Z</time>
      </trkpt>
      <trkpt lat="41.80609499104321002960205078125" lon="-2.78641157783567905426025390625">
        <ele>1097.4000244140625</ele>
        <time>2019-07-07T15:57:09.000Z</time>
      </trkpt>
      <trkpt lat="41.8060816638171672821044921875" lon="-2.786256261169910430908203125">
        <ele>1097.199951171875</ele>
        <time>2019-07-07T15:57:12.000Z</time>
      </trkpt>
      <trkpt lat="41.80588343180716037750244140625" lon="-2.7861464582383632659912109375">
        <ele>1096.800048828125</ele>
        <time>2019-07-07T15:57:19.000Z</time>
      </trkpt>
      <trkpt lat="41.80585644207894802093505859375" lon="-2.7862517349421977996826171875">
        <ele>1097.5999755859375</ele>
        <time>2019-07-07T15:57:49.000Z</time>
      </trkpt>
      <trkpt lat="41.8058610521256923675537109375" lon="-2.78624578379094600677490234375">
        <ele>1097.4000244140625</ele>
        <time>2019-07-07T16:00:43.000Z</time>
      </trkpt>
      <trkpt lat="41.80587337352335453033447265625" lon="-2.78616481460630893707275390625">
        <ele>1096.5999755859375</ele>
        <time>2019-07-07T16:21:51.000Z</time>
      </trkpt>
      <trkpt lat="41.80578209459781646728515625" lon="-2.78614905662834644317626953125">
        <ele>1096</ele>
        <time>2019-07-07T16:23:38.000Z</time>
      </trkpt>
      <trkpt lat="41.80571009404957294464111328125" lon="-2.78615609742701053619384765625">
        <ele>1096</ele>
        <time>2019-07-07T16:23:49.000Z</time>
      </trkpt>
      <trkpt lat="41.8056803382933139801025390625" lon="-2.7862584404647350311279296875">
        <ele>1096</ele>
        <time>2019-07-07T16:23:51.000Z</time>
      </trkpt>
      <trkpt lat="41.8055606447160243988037109375" lon="-2.786887250840663909912109375">
        <ele>1096</ele>
        <time>2019-07-07T16:23:59.000Z</time>
      </trkpt>
      <trkpt lat="41.80552326142787933349609375" lon="-2.78752720914781093597412109375">
        <ele>1097</ele>
        <time>2019-07-07T16:24:03.000Z</time>
      </trkpt>
      <trkpt lat="41.80555008351802825927734375" lon="-2.7881281077861785888671875">
        <ele>1096.199951171875</ele>
        <time>2019-07-07T16:24:06.000Z</time>
      </trkpt>
      <trkpt lat="41.80562811903655529022216796875" lon="-2.78875180520117282867431640625">
        <ele>1095.5999755859375</ele>
        <time>2019-07-07T16:24:09.000Z</time>
      </trkpt>
      <trkpt lat="41.8057547695934772491455078125" lon="-2.78936661779880523681640625">
        <ele>1096.800048828125</ele>
        <time>2019-07-07T16:24:12.000Z</time>
      </trkpt>
      <trkpt lat="41.805905140936374664306640625" lon="-2.7900031395256519317626953125">
        <ele>1097.800048828125</ele>
        <time>2019-07-07T16:24:14.000Z</time>
      </trkpt>
      <trkpt lat="41.8060080707073211669921875" lon="-2.79043287970125675201416015625">
        <ele>1095.199951171875</ele>
        <time>2019-07-07T16:24:17.000Z</time>
      </trkpt>
      <trkpt lat="41.8060608766973018646240234375" lon="-2.79064745642244815826416015625">
        <ele>1093.800048828125</ele>
        <time>2019-07-07T16:24:18.000Z</time>
      </trkpt>
      <trkpt lat="41.80616204626858234405517578125" lon="-2.79107124544680118560791015625">
        <ele>1092.5999755859375</ele>
        <time>2019-07-07T16:24:19.000Z</time>
      </trkpt>
      <trkpt lat="41.806210912764072418212890625" lon="-2.79128112830221652984619140625">
        <ele>1092.199951171875</ele>
        <time>2019-07-07T16:24:20.000Z</time>
      </trkpt>
      <trkpt lat="41.80625994689762592315673828125" lon="-2.791487909853458404541015625">
        <ele>1091.5999755859375</ele>
        <time>2019-07-07T16:24:22.000Z</time>
      </trkpt>
      <trkpt lat="41.8064058758318424224853515625" lon="-2.79209165833890438079833984375">
        <ele>1091</ele>
        <time>2019-07-07T16:24:24.000Z</time>
      </trkpt>
      <trkpt lat="41.8064058758318424224853515625" lon="-2.79209165833890438079833984375">
        <ele>1089.199951171875</ele>
        <time>2019-07-07T16:24:25.000Z</time>
      </trkpt>
      <trkpt lat="41.80645256303250789642333984375" lon="-2.79227656312286853790283203125">
        <ele>1086.800048828125</ele>
        <time>2019-07-07T16:24:26.000Z</time>
      </trkpt>
      <trkpt lat="41.80649564601480960845947265625" lon="-2.792454846203327178955078125">
        <ele>1085.199951171875</ele>
        <time>2019-07-07T16:24:27.000Z</time>
      </trkpt>
      <trkpt lat="41.8065768666565418243408203125" lon="-2.79281350784003734588623046875">
        <ele>1084</ele>
        <time>2019-07-07T16:24:29.000Z</time>
      </trkpt>
      <trkpt lat="41.80670611560344696044921875" lon="-2.79340929351747035980224609375">
        <ele>1084</ele>
        <time>2019-07-07T16:24:32.000Z</time>
      </trkpt>
      <trkpt lat="41.8068207800388336181640625" lon="-2.79406827874481678009033203125">
        <ele>1083.5999755859375</ele>
        <time>2019-07-07T16:24:34.000Z</time>
      </trkpt>
      <trkpt lat="41.80689227767288684844970703125" lon="-2.7947476319968700408935546875">
        <ele>1083</ele>
        <time>2019-07-07T16:24:38.000Z</time>
      </trkpt>
      <trkpt lat="41.806921027600765228271484375" lon="-2.79545179568231105804443359375">
        <ele>1085.199951171875</ele>
        <time>2019-07-07T16:24:41.000Z</time>
      </trkpt>
      <trkpt lat="41.8069393001496791839599609375" lon="-2.79650037176907062530517578125">
        <ele>1084.4000244140625</ele>
        <time>2019-07-07T16:24:44.000Z</time>
      </trkpt>
      <trkpt lat="41.80694659240543842315673828125" lon="-2.79704578220844268798828125">
        <ele>1084</ele>
        <time>2019-07-07T16:24:46.000Z</time>
      </trkpt>
      <trkpt lat="41.80695354938507080078125" lon="-2.79813098721206188201904296875">
        <ele>1084</ele>
        <time>2019-07-07T16:24:50.000Z</time>
      </trkpt>
      <trkpt lat="41.80696670897305011749267578125" lon="-2.79894537292420864105224609375">
        <ele>1084.800048828125</ele>
        <time>2019-07-07T16:24:53.000Z</time>
      </trkpt>
      <trkpt lat="41.80697022937238216400146484375" lon="-2.79921761713922023773193359375">
        <ele>1085.199951171875</ele>
        <time>2019-07-07T16:24:55.000Z</time>
      </trkpt>
      <trkpt lat="41.80697525851428508758544921875" lon="-2.80004507862031459808349609375">
        <ele>1084.5999755859375</ele>
        <time>2019-07-07T16:24:58.000Z</time>
      </trkpt>
      <trkpt lat="41.80698062293231487274169921875" lon="-2.8003242798149585723876953125">
        <ele>1084</ele>
        <time>2019-07-07T16:24:59.000Z</time>
      </trkpt>
      <trkpt lat="41.80698866955935955047607421875" lon="-2.8008878789842128753662109375">
        <ele>1081.800048828125</ele>
        <time>2019-07-07T16:25:01.000Z</time>
      </trkpt>
      <trkpt lat="41.80699311196804046630859375" lon="-2.80117026530206203460693359375">
        <ele>1080.4000244140625</ele>
        <time>2019-07-07T16:25:02.000Z</time>
      </trkpt>
      <trkpt lat="41.80700409226119518280029296875" lon="-2.80173671431839466094970703125">
        <ele>1079.199951171875</ele>
        <time>2019-07-07T16:25:04.000Z</time>
      </trkpt>
      <trkpt lat="41.80702085606753826141357421875" lon="-2.8025833703577518463134765625">
        <ele>1079.199951171875</ele>
        <time>2019-07-07T16:25:07.000Z</time>
      </trkpt>
      <trkpt lat="41.80703225545585155487060546875" lon="-2.80341611243784427642822265625">
        <ele>1079.800048828125</ele>
        <time>2019-07-07T16:25:10.000Z</time>
      </trkpt>
      <trkpt lat="41.80704130791127681732177734375" lon="-2.8039663843810558319091796875">
        <ele>1080.800048828125</ele>
        <time>2019-07-07T16:25:12.000Z</time>
      </trkpt>
      <trkpt lat="41.8070496059954166412353515625" lon="-2.8045155666768550872802734375">
        <ele>1082.4000244140625</ele>
        <time>2019-07-07T16:25:14.000Z</time>
      </trkpt>
      <trkpt lat="41.80705421604216098785400390625" lon="-2.80478906817734241485595703125">
        <ele>1083.800048828125</ele>
        <time>2019-07-07T16:25:15.000Z</time>
      </trkpt>
      <trkpt lat="41.80705907754600048065185546875" lon="-2.80506583862006664276123046875">
        <ele>1087.5999755859375</ele>
        <time>2019-07-07T16:25:16.000Z</time>
      </trkpt>
      <trkpt lat="41.8070640228688716888427734375" lon="-2.80534051358699798583984375">
        <ele>1091.800048828125</ele>
        <time>2019-07-07T16:25:17.000Z</time>
      </trkpt>
      <trkpt lat="41.807068549096584320068359375" lon="-2.80561451800167560577392578125">
        <ele>1096.4000244140625</ele>
        <time>2019-07-07T16:25:18.000Z</time>
      </trkpt>
      <trkpt lat="41.80707382969558238983154296875" lon="-2.80588944442570209503173828125">
        <ele>1100.199951171875</ele>
        <time>2019-07-07T16:25:19.000Z</time>
      </trkpt>
      <trkpt lat="41.807079277932643890380859375" lon="-2.80616520904004573822021484375">
        <ele>1102.199951171875</ele>
        <time>2019-07-07T16:25:20.000Z</time>
      </trkpt>
      <trkpt lat="41.80708405561745166778564453125" lon="-2.8064387105405330657958984375">
        <ele>1103.5999755859375</ele>
        <time>2019-07-07T16:25:21.000Z</time>
      </trkpt>
      <trkpt lat="41.807091347873210906982421875" lon="-2.80698965303599834442138671875">
        <ele>1105</ele>
        <time>2019-07-07T16:25:23.000Z</time>
      </trkpt>
      <trkpt lat="41.8070978857576847076416015625" lon="-2.8075434453785419464111328125">
        <ele>1106.199951171875</ele>
        <time>2019-07-07T16:25:25.000Z</time>
      </trkpt>
      <trkpt lat="41.80710869841277599334716796875" lon="-2.80837853439152240753173828125">
        <ele>1104.199951171875</ele>
        <time>2019-07-07T16:25:28.000Z</time>
      </trkpt>
      <trkpt lat="41.8071129731833934783935546875" lon="-2.8086604177951812744140625">
        <ele>1101.5999755859375</ele>
        <time>2019-07-07T16:25:29.000Z</time>
      </trkpt>
      <trkpt lat="41.80711791850626468658447265625" lon="-2.80894347466528415679931640625">
        <ele>1097.800048828125</ele>
        <time>2019-07-07T16:25:30.000Z</time>
      </trkpt>
      <trkpt lat="41.8071220256388187408447265625" lon="-2.80923030339181423187255859375">
        <ele>1095</ele>
        <time>2019-07-07T16:25:31.000Z</time>
      </trkpt>
      <trkpt lat="41.8071257136762142181396484375" lon="-2.80951981432735919952392578125">
        <ele>1093</ele>
        <time>2019-07-07T16:25:32.000Z</time>
      </trkpt>
      <trkpt lat="41.80712931789457798004150390625" lon="-2.80981083400547504425048828125">
        <ele>1091.4000244140625</ele>
        <time>2019-07-07T16:25:33.000Z</time>
      </trkpt>
      <trkpt lat="41.807132251560688018798828125" lon="-2.81010503880679607391357421875">
        <ele>1090.199951171875</ele>
        <time>2019-07-07T16:25:34.000Z</time>
      </trkpt>
      <trkpt lat="41.8071397952735424041748046875" lon="-2.8106977231800556182861328125">
        <ele>1089</ele>
        <time>2019-07-07T16:25:36.000Z</time>
      </trkpt>
      <trkpt lat="41.80715345777571201324462890625" lon="-2.811585366725921630859375">
        <ele>1088.199951171875</ele>
        <time>2019-07-07T16:25:39.000Z</time>
      </trkpt>
      <trkpt lat="41.8071696348488330841064453125" lon="-2.8124503791332244873046875">
        <ele>1087.800048828125</ele>
        <time>2019-07-07T16:25:42.000Z</time>
      </trkpt>
      <trkpt lat="41.8071823753416538238525390625" lon="-2.81329334713518619537353515625">
        <ele>1087.5999755859375</ele>
        <time>2019-07-07T16:25:45.000Z</time>
      </trkpt>
      <trkpt lat="41.80718623101711273193359375" lon="-2.81357045285403728485107421875">
        <ele>1088</ele>
        <time>2019-07-07T16:25:46.000Z</time>
      </trkpt>
      <trkpt lat="41.80719704367220401763916015625" lon="-2.81439254991710186004638671875">
        <ele>1089.800048828125</ele>
        <time>2019-07-07T16:25:49.000Z</time>
      </trkpt>
      <trkpt lat="41.80720358155667781829833984375" lon="-2.8149367868900299072265625">
        <ele>1091.5999755859375</ele>
        <time>2019-07-07T16:25:51.000Z</time>
      </trkpt>
      <trkpt lat="41.80720743723213672637939453125" lon="-2.81520861200988292694091796875">
        <ele>1092.800048828125</ele>
        <time>2019-07-07T16:25:52.000Z</time>
      </trkpt>
      <trkpt lat="41.80721615441143512725830078125" lon="-2.8157513402402400970458984375">
        <ele>1094</ele>
        <time>2019-07-07T16:25:53.000Z</time>
      </trkpt>
      <trkpt lat="41.80721615441143512725830078125" lon="-2.8157513402402400970458984375">
        <ele>1095.800048828125</ele>
        <time>2019-07-07T16:25:54.000Z</time>
      </trkpt>
      <trkpt lat="41.80722051300108432769775390625" lon="-2.81602316536009311676025390625">
        <ele>1097.199951171875</ele>
        <time>2019-07-07T16:25:55.000Z</time>
      </trkpt>
      <trkpt lat="41.80722872726619243621826171875" lon="-2.81657167710363864898681640625">
        <ele>1099.4000244140625</ele>
        <time>2019-07-07T16:25:57.000Z</time>
      </trkpt>
      <trkpt lat="41.80723861791193485260009765625" lon="-2.81712287105619907379150390625">
        <ele>1100.5999755859375</ele>
        <time>2019-07-07T16:25:59.000Z</time>
      </trkpt>
      <trkpt lat="41.80724364705383777618408203125" lon="-2.81739997677505016326904296875">
        <ele>1099.4000244140625</ele>
        <time>2019-07-07T16:26:00.000Z</time>
      </trkpt>
      <trkpt lat="41.80725253187119960784912109375" lon="-2.817958630621433258056640625">
        <ele>1097.5999755859375</ele>
        <time>2019-07-07T16:26:01.000Z</time>
      </trkpt>
      <trkpt lat="41.8072571419179439544677734375" lon="-2.81824252568185329437255859375">
        <ele>1096.4000244140625</ele>
        <time>2019-07-07T16:26:02.000Z</time>
      </trkpt>
      <trkpt lat="41.807261668145656585693359375" lon="-2.8185297735035419464111328125">
        <ele>1095</ele>
        <time>2019-07-07T16:26:04.000Z</time>
      </trkpt>
      <trkpt lat="41.807272396981716156005859375" lon="-2.81940476037561893463134765625">
        <ele>1095.800048828125</ele>
        <time>2019-07-07T16:26:07.000Z</time>
      </trkpt>
      <trkpt lat="41.8072765879333019256591796875" lon="-2.81970013864338397979736328125">
        <ele>1096</ele>
        <time>2019-07-07T16:26:08.000Z</time>
      </trkpt>
      <trkpt lat="41.80729310028254985809326171875" lon="-2.820589542388916015625">
        <ele>1096.800048828125</ele>
        <time>2019-07-07T16:26:11.000Z</time>
      </trkpt>
      <trkpt lat="41.80730533786118030548095703125" lon="-2.82148380763828754425048828125">
        <ele>1094.199951171875</ele>
        <time>2019-07-07T16:26:13.000Z</time>
      </trkpt>
      <trkpt lat="41.80731388740241527557373046875" lon="-2.82208311371505260467529296875">
        <ele>1096.5999755859375</ele>
        <time>2019-07-07T16:26:15.000Z</time>
      </trkpt>
      <trkpt lat="41.80731388740241527557373046875" lon="-2.82208311371505260467529296875">
        <ele>1098.800048828125</ele>
        <time>2019-07-07T16:26:16.000Z</time>
      </trkpt>
      <trkpt lat="41.80732243694365024566650390625" lon="-2.822686694562435150146484375">
        <ele>1098.5999755859375</ele>
        <time>2019-07-07T16:26:18.000Z</time>
      </trkpt>
      <trkpt lat="41.80732713080942630767822265625" lon="-2.8229926340281963348388671875">
        <ele>1100</ele>
        <time>2019-07-07T16:26:19.000Z</time>
      </trkpt>
      <trkpt lat="41.80733869783580303192138671875" lon="-2.82360878773033618927001953125">
        <ele>1101</ele>
        <time>2019-07-07T16:26:20.000Z</time>
      </trkpt>
      <trkpt lat="41.80733869783580303192138671875" lon="-2.82360878773033618927001953125">
        <ele>1102</ele>
        <time>2019-07-07T16:26:21.000Z</time>
      </trkpt>
      <trkpt lat="41.8073406256735324859619140625" lon="-2.8239223547279834747314453125">
        <ele>1103.5999755859375</ele>
        <time>2019-07-07T16:26:22.000Z</time>
      </trkpt>
      <trkpt lat="41.8073513545095920562744140625" lon="-2.82487546093761920928955078125">
        <ele>1104.5999755859375</ele>
        <time>2019-07-07T16:26:24.000Z</time>
      </trkpt>
      <trkpt lat="41.8073513545095920562744140625" lon="-2.82487546093761920928955078125">
        <ele>1103.199951171875</ele>
        <time>2019-07-07T16:26:25.000Z</time>
      </trkpt>
      <trkpt lat="41.80735881440341472625732421875" lon="-2.8255142457783222198486328125">
        <ele>1099.5999755859375</ele>
        <time>2019-07-07T16:26:27.000Z</time>
      </trkpt>
      <trkpt lat="41.8073637597262859344482421875" lon="-2.825839631259441375732421875">
        <ele>1095</ele>
        <time>2019-07-07T16:26:28.000Z</time>
      </trkpt>
      <trkpt lat="41.80737121962010860443115234375" lon="-2.82616644166409969329833984375">
        <ele>1092.4000244140625</ele>
        <time>2019-07-07T16:26:29.000Z</time>
      </trkpt>
      <trkpt lat="41.8073795177042484283447265625" lon="-2.82649098895490169525146484375">
        <ele>1090.800048828125</ele>
        <time>2019-07-07T16:26:30.000Z</time>
      </trkpt>
      <trkpt lat="41.8073909170925617218017578125" lon="-2.827130444347858428955078125">
        <ele>1089.5999755859375</ele>
        <time>2019-07-07T16:26:31.000Z</time>
      </trkpt>
      <trkpt lat="41.80739544332027435302734375" lon="-2.8277389705181121826171875">
        <ele>1090.199951171875</ele>
        <time>2019-07-07T16:26:34.000Z</time>
      </trkpt>
      <trkpt lat="41.80740809999406337738037109375" lon="-2.82861672341823577880859375">
        <ele>1089.800048828125</ele>
        <time>2019-07-07T16:26:37.000Z</time>
      </trkpt>
      <trkpt lat="41.8074153922498226165771484375" lon="-2.82891453243792057037353515625">
        <ele>1090.800048828125</ele>
        <time>2019-07-07T16:26:38.000Z</time>
      </trkpt>
      <trkpt lat="41.8074257858097553253173828125" lon="-2.8295422531664371490478515625">
        <ele>1090.199951171875</ele>
        <time>2019-07-07T16:26:40.000Z</time>
      </trkpt>
      <trkpt lat="41.8074296414852142333984375" lon="-2.829874344170093536376953125">
        <ele>1089</ele>
        <time>2019-07-07T16:26:41.000Z</time>
      </trkpt>
      <trkpt lat="41.80744045414030551910400390625" lon="-2.83054917119443416595458984375">
        <ele>1089.199951171875</ele>
        <time>2019-07-07T16:26:43.000Z</time>
      </trkpt>
      <trkpt lat="41.80745068006217479705810546875" lon="-2.83121444284915924072265625">
        <ele>1088.800048828125</ele>
        <time>2019-07-07T16:26:45.000Z</time>
      </trkpt>
      <trkpt lat="41.8074559606611728668212890625" lon="-2.83154309727251529693603515625">
        <ele>1087</ele>
        <time>2019-07-07T16:26:46.000Z</time>
      </trkpt>
      <trkpt lat="41.807466857135295867919921875" lon="-2.8321996517479419708251953125">
        <ele>1085.4000244140625</ele>
        <time>2019-07-07T16:26:48.000Z</time>
      </trkpt>
      <trkpt lat="41.807478256523609161376953125" lon="-2.83285369165241718292236328125">
        <ele>1083.199951171875</ele>
        <time>2019-07-07T16:26:50.000Z</time>
      </trkpt>
      <trkpt lat="41.8074904941022396087646484375" lon="-2.8335085697472095489501953125">
        <ele>1083.800048828125</ele>
        <time>2019-07-07T16:26:52.000Z</time>
      </trkpt>
      <trkpt lat="41.8074953556060791015625" lon="-2.83384258858859539031982421875">
        <ele>1085</ele>
        <time>2019-07-07T16:26:53.000Z</time>
      </trkpt>
      <trkpt lat="41.807505749166011810302734375" lon="-2.83454951830208301544189453125">
        <ele>1085.4000244140625</ele>
        <time>2019-07-07T16:26:55.000Z</time>
      </trkpt>
      <trkpt lat="41.807515136897563934326171875" lon="-2.83527539111673831939697265625">
        <ele>1085</ele>
        <time>2019-07-07T16:26:57.000Z</time>
      </trkpt>
      <trkpt lat="41.8075256980955600738525390625" lon="-2.835997827351093292236328125">
        <ele>1083.800048828125</ele>
        <time>2019-07-07T16:26:59.000Z</time>
      </trkpt>
      <trkpt lat="41.8075317330658435821533203125" lon="-2.83635833300650119781494140625">
        <ele>1082.199951171875</ele>
        <time>2019-07-07T16:27:00.000Z</time>
      </trkpt>
      <trkpt lat="41.80754288099706172943115234375" lon="-2.83707775175571441650390625">
        <ele>1083.800048828125</ele>
        <time>2019-07-07T16:27:02.000Z</time>
      </trkpt>
      <trkpt lat="41.80755377747118473052978515625" lon="-2.837793566286563873291015625">
        <ele>1083</ele>
        <time>2019-07-07T16:27:04.000Z</time>
      </trkpt>
      <trkpt lat="41.80756450630724430084228515625" lon="-2.83851030282676219940185546875">
        <ele>1082</ele>
        <time>2019-07-07T16:27:06.000Z</time>
      </trkpt>
      <trkpt lat="41.807575486600399017333984375" lon="-2.83922913484275341033935546875">
        <ele>1081.800048828125</ele>
        <time>2019-07-07T16:27:08.000Z</time>
      </trkpt>
      <trkpt lat="41.807580851018428802490234375" lon="-2.83958871848881244659423828125">
        <ele>1080.5999755859375</ele>
        <time>2019-07-07T16:27:09.000Z</time>
      </trkpt>
      <trkpt lat="41.80759334005415439605712890625" lon="-2.840300090610980987548828125">
        <ele>1078</ele>
        <time>2019-07-07T16:27:11.000Z</time>
      </trkpt>
      <trkpt lat="41.80759937502443790435791015625" lon="-2.84065254963934421539306640625">
        <ele>1076.199951171875</ele>
        <time>2019-07-07T16:27:12.000Z</time>
      </trkpt>
      <trkpt lat="41.80761110968887805938720703125" lon="-2.8413560427725315093994140625">
        <ele>1073.800048828125</ele>
        <time>2019-07-07T16:27:14.000Z</time>
      </trkpt>
      <trkpt lat="41.8076199106872081756591796875" lon="-2.84205601550638675689697265625">
        <ele>1072.4000244140625</ele>
        <time>2019-07-07T16:27:16.000Z</time>
      </trkpt>
      <trkpt lat="41.80762837640941143035888671875" lon="-2.8427517972886562347412109375">
        <ele>1072.4000244140625</ele>
        <time>2019-07-07T16:27:18.000Z</time>
      </trkpt>
      <trkpt lat="41.80763692595064640045166015625" lon="-2.84344405867159366607666015625">
        <ele>1072.800048828125</ele>
        <time>2019-07-07T16:27:20.000Z</time>
      </trkpt>
      <trkpt lat="41.80764698423445224761962890625" lon="-2.8441304527223110198974609375">
        <ele>1074.4000244140625</ele>
        <time>2019-07-07T16:27:22.000Z</time>
      </trkpt>
      <trkpt lat="41.80765134282410144805908203125" lon="-2.8444704227149486541748046875">
        <ele>1076.199951171875</ele>
        <time>2019-07-07T16:27:23.000Z</time>
      </trkpt>
      <trkpt lat="41.8076561205089092254638671875" lon="-2.84480913542211055755615234375">
        <ele>1077.5999755859375</ele>
        <time>2019-07-07T16:27:24.000Z</time>
      </trkpt>
      <trkpt lat="41.8076728843152523040771484375" lon="-2.8458098508417606353759765625">
        <ele>1078.5999755859375</ele>
        <time>2019-07-07T16:27:26.000Z</time>
      </trkpt>
      <trkpt lat="41.80768101476132869720458984375" lon="-2.8464592806994915008544921875">
        <ele>1078.4000244140625</ele>
        <time>2019-07-07T16:27:29.000Z</time>
      </trkpt>
      <trkpt lat="41.80768889375030994415283203125" lon="-2.84709085710346698760986328125">
        <ele>1080</ele>
        <time>2019-07-07T16:27:31.000Z</time>
      </trkpt>
      <trkpt lat="41.80769844911992549896240234375" lon="-2.8477078489959239959716796875">
        <ele>1082.4000244140625</ele>
        <time>2019-07-07T16:27:33.000Z</time>
      </trkpt>
      <trkpt lat="41.8077020533382892608642578125" lon="-2.84801202826201915740966796875">
        <ele>1084.4000244140625</ele>
        <time>2019-07-07T16:27:34.000Z</time>
      </trkpt>
      <trkpt lat="41.80770548991858959197998046875" lon="-2.8483157046139240264892578125">
        <ele>1085.800048828125</ele>
        <time>2019-07-07T16:27:35.000Z</time>
      </trkpt>
      <trkpt lat="41.80770968087017536163330078125" lon="-2.8489198721945285797119140625">
        <ele>1087.4000244140625</ele>
        <time>2019-07-07T16:27:37.000Z</time>
      </trkpt>
      <trkpt lat="41.80771437473595142364501953125" lon="-2.84952278248965740203857421875">
        <ele>1088.4000244140625</ele>
        <time>2019-07-07T16:27:39.000Z</time>
      </trkpt>
      <trkpt lat="41.80771890096366405487060546875" lon="-2.849819250404834747314453125">
        <ele>1088.5999755859375</ele>
        <time>2019-07-07T16:27:40.000Z</time>
      </trkpt>
      <trkpt lat="41.80772745050489902496337890625" lon="-2.8506726957857608795166015625">
        <ele>1088.199951171875</ele>
        <time>2019-07-07T16:27:43.000Z</time>
      </trkpt>
      <trkpt lat="41.80772946216166019439697265625" lon="-2.85147853195667266845703125">
        <ele>1088.199951171875</ele>
        <time>2019-07-07T16:27:46.000Z</time>
      </trkpt>
      <trkpt lat="41.8077047355473041534423828125" lon="-2.852223180234432220458984375">
        <ele>1088</ele>
        <time>2019-07-07T16:27:49.000Z</time>
      </trkpt>
      <trkpt lat="41.80768243968486785888671875" lon="-2.85246365703642368316650390625">
        <ele>1087.5999755859375</ele>
        <time>2019-07-07T16:27:50.000Z</time>
      </trkpt>
      <trkpt lat="41.80755344219505786895751953125" lon="-2.853194139897823333740234375">
        <ele>1088.199951171875</ele>
        <time>2019-07-07T16:27:53.000Z</time>
      </trkpt>
      <trkpt lat="41.80749460123479366302490234375" lon="-2.853448279201984405517578125">
        <ele>1089.199951171875</ele>
        <time>2019-07-07T16:27:54.000Z</time>
      </trkpt>
      <trkpt lat="41.80736803449690341949462890625" lon="-2.85396619699895381927490234375">
        <ele>1090.4000244140625</ele>
        <time>2019-07-07T16:27:56.000Z</time>
      </trkpt>
      <trkpt lat="41.8071920983493328094482421875" lon="-2.85471838898956775665283203125">
        <ele>1090.5999755859375</ele>
        <time>2019-07-07T16:27:58.000Z</time>
      </trkpt>
      <trkpt lat="41.8070734106004238128662109375" lon="-2.85520319826900959014892578125">
        <ele>1089.199951171875</ele>
        <time>2019-07-07T16:28:01.000Z</time>
      </trkpt>
      <trkpt lat="41.80679236538708209991455078125" lon="-2.85612470470368862152099609375">
        <ele>1090.5999755859375</ele>
        <time>2019-07-07T16:28:04.000Z</time>
      </trkpt>
      <trkpt lat="41.806554906070232391357421875" lon="-2.85678394138813018798828125">
        <ele>1092.4000244140625</ele>
        <time>2019-07-07T16:28:08.000Z</time>
      </trkpt>
      <trkpt lat="41.8063153512775897979736328125" lon="-2.8574288450181484222412109375">
        <ele>1092.800048828125</ele>
        <time>2019-07-07T16:28:11.000Z</time>
      </trkpt>
      <trkpt lat="41.80609096772968769073486328125" lon="-2.858014069497585296630859375">
        <ele>1093</ele>
        <time>2019-07-07T16:28:14.000Z</time>
      </trkpt>
      <trkpt lat="41.80589717812836170196533203125" lon="-2.85849141888320446014404296875">
        <ele>1093.5999755859375</ele>
        <time>2019-07-07T16:28:17.000Z</time>
      </trkpt>
      <trkpt lat="41.8057976849377155303955078125" lon="-2.858741618692874908447265625">
        <ele>1095</ele>
        <time>2019-07-07T16:28:19.000Z</time>
      </trkpt>
      <trkpt lat="41.80572618730366230010986328125" lon="-2.8589365817606449127197265625">
        <ele>1096.800048828125</ele>
        <time>2019-07-07T16:28:21.000Z</time>
      </trkpt>
      <trkpt lat="41.80567019619047641754150390625" lon="-2.8590737096965312957763671875">
        <ele>1098.4000244140625</ele>
        <time>2019-07-07T16:28:23.000Z</time>
      </trkpt>
      <trkpt lat="41.805635578930377960205078125" lon="-2.859135568141937255859375">
        <ele>1100</ele>
        <time>2019-07-07T16:28:25.000Z</time>
      </trkpt>
      <trkpt lat="41.80557883344590663909912109375" lon="-2.85917035304009914398193359375">
        <ele>1100.800048828125</ele>
        <time>2019-07-07T16:28:27.000Z</time>
      </trkpt>
      <trkpt lat="41.8055408634245395660400390625" lon="-2.859164066612720489501953125">
        <ele>1101</ele>
        <time>2019-07-07T16:28:28.000Z</time>
      </trkpt>
      <trkpt lat="41.8054635822772979736328125" lon="-2.85909173078835010528564453125">
        <ele>1102</ele>
        <time>2019-07-07T16:28:51.000Z</time>
      </trkpt>
      <trkpt lat="41.8054635822772979736328125" lon="-2.85909173078835010528564453125">
        <ele>1103</ele>
        <time>2019-07-07T16:30:04.000Z</time>
      </trkpt>
      <trkpt lat="41.80539526976644992828369140625" lon="-2.8590297885239124298095703125">
        <ele>1103.199951171875</ele>
        <time>2019-07-07T16:30:28.000Z</time>
      </trkpt>
      <trkpt lat="41.80499159730970859527587890625" lon="-2.858748994767665863037109375">
        <ele>1102.800048828125</ele>
        <time>2019-07-07T16:30:34.000Z</time>
      </trkpt>
      <trkpt lat="41.8047100491821765899658203125" lon="-2.8585845418274402618408203125">
        <ele>1104.199951171875</ele>
        <time>2019-07-07T16:30:38.000Z</time>
      </trkpt>
      <trkpt lat="41.804464124143123626708984375" lon="-2.85842922516167163848876953125">
        <ele>1105.4000244140625</ele>
        <time>2019-07-07T16:30:43.000Z</time>
      </trkpt>
      <trkpt lat="41.804469488561153411865234375" lon="-2.85836820490658283233642578125">
        <ele>1106</ele>
        <time>2019-07-07T16:30:45.000Z</time>
      </trkpt>
      <trkpt lat="41.8045018427073955535888671875" lon="-2.85834993235766887664794921875">
        <ele>1106.4000244140625</ele>
        <time>2019-07-07T16:30:47.000Z</time>
      </trkpt>
      <trkpt lat="41.80457451380789279937744140625" lon="-2.85848119296133518218994140625">
        <ele>1106.5999755859375</ele>
        <time>2019-07-07T16:31:16.000Z</time>
      </trkpt>
      <trkpt lat="41.80471382103860378265380859375" lon="-2.85857171751558780670166015625">
        <ele>1106.4000244140625</ele>
        <time>2019-07-07T16:31:18.000Z</time>
      </trkpt>
      <trkpt lat="41.80502261035144329071044921875" lon="-2.85875243134796619415283203125">
        <ele>1105.4000244140625</ele>
        <time>2019-07-07T16:31:22.000Z</time>
      </trkpt>
      <trkpt lat="41.80544036440551280975341796875" lon="-2.858989052474498748779296875">
        <ele>1104</ele>
        <time>2019-07-07T16:31:28.000Z</time>
      </trkpt>
      <trkpt lat="41.8055308051407337188720703125" lon="-2.859001457691192626953125">
        <ele>1103</ele>
        <time>2019-07-07T16:31:30.000Z</time>
      </trkpt>
      <trkpt lat="41.80561169050633907318115234375" lon="-2.858976311981678009033203125">
        <ele>1102</ele>
        <time>2019-07-07T16:31:33.000Z</time>
      </trkpt>
      <trkpt lat="41.80562074296176433563232421875" lon="-2.85896214656531810760498046875">
        <ele>1101.4000244140625</ele>
        <time>2019-07-07T16:31:39.000Z</time>
      </trkpt>
      <trkpt lat="41.805724091827869415283203125" lon="-2.85877422429621219635009765625">
        <ele>1101.4000244140625</ele>
        <time>2019-07-07T16:31:42.000Z</time>
      </trkpt>
      <trkpt lat="41.80591779761016368865966796875" lon="-2.85823099315166473388671875">
        <ele>1101</ele>
        <time>2019-07-07T16:31:46.000Z</time>
      </trkpt>
      <trkpt lat="41.80618819780647754669189453125" lon="-2.85751844756305217742919921875">
        <ele>1100.199951171875</ele>
        <time>2019-07-07T16:31:50.000Z</time>
      </trkpt>
      <trkpt lat="41.80626765824854373931884765625" lon="-2.85731627605855464935302734375">
        <ele>1099.5999755859375</ele>
        <time>2019-07-07T16:31:51.000Z</time>
      </trkpt>
      <trkpt lat="41.8064320273697376251220703125" lon="-2.85690019838511943817138671875">
        <ele>1098.5999755859375</ele>
        <time>2019-07-07T16:31:53.000Z</time>
      </trkpt>
      <trkpt lat="41.806677281856536865234375" lon="-2.85624481737613677978515625">
        <ele>1097.4000244140625</ele>
        <time>2019-07-07T16:31:56.000Z</time>
      </trkpt>
      <trkpt lat="41.80691122077405452728271484375" lon="-2.85555012524127960205078125">
        <ele>1097.4000244140625</ele>
        <time>2019-07-07T16:31:59.000Z</time>
      </trkpt>
      <trkpt lat="41.80711339227855205535888671875" lon="-2.854817211627960205078125">
        <ele>1097.5999755859375</ele>
        <time>2019-07-07T16:32:02.000Z</time>
      </trkpt>
      <trkpt lat="41.80729276500642299652099609375" lon="-2.85405839793384075164794921875">
        <ele>1097</ele>
        <time>2019-07-07T16:32:05.000Z</time>
      </trkpt>
      <trkpt lat="41.80747046135365962982177734375" lon="-2.85329095087945461273193359375">
        <ele>1096.4000244140625</ele>
        <time>2019-07-07T16:32:08.000Z</time>
      </trkpt>
      <trkpt lat="41.807578168809413909912109375" lon="-2.8527926467359066009521484375">
        <ele>1095.199951171875</ele>
        <time>2019-07-07T16:32:10.000Z</time>
      </trkpt>
      <trkpt lat="41.80766575969755649566650390625" lon="-2.85230071283876895904541015625">
        <ele>1093.800048828125</ele>
        <time>2019-07-07T16:32:12.000Z</time>
      </trkpt>
      <trkpt lat="41.8076936714351177215576171875" lon="-2.85205394960939884185791015625">
        <ele>1092.4000244140625</ele>
        <time>2019-07-07T16:32:13.000Z</time>
      </trkpt>
      <trkpt lat="41.80771219544112682342529296875" lon="-2.8518086113035678863525390625">
        <ele>1090.800048828125</ele>
        <time>2019-07-07T16:32:14.000Z</time>
      </trkpt>
      <trkpt lat="41.80771839804947376251220703125" lon="-2.85109807737171649932861328125">
        <ele>1089.199951171875</ele>
        <time>2019-07-07T16:32:17.000Z</time>
      </trkpt>
      <trkpt lat="41.8076993711292743682861328125" lon="-2.8504170477390289306640625">
        <ele>1089.199951171875</ele>
        <time>2019-07-07T16:32:20.000Z</time>
      </trkpt>
      <trkpt lat="41.80768721736967563629150390625" lon="-2.84995730035006999969482421875">
        <ele>1090.5999755859375</ele>
        <time>2019-07-07T16:32:22.000Z</time>
      </trkpt>
      <trkpt lat="41.80767933838069438934326171875" lon="-2.8494905121624469757080078125">
        <ele>1092.4000244140625</ele>
        <time>2019-07-07T16:32:24.000Z</time>
      </trkpt>
      <trkpt lat="41.8076765723526477813720703125" lon="-2.84878383390605449676513671875">
        <ele>1093</ele>
        <time>2019-07-07T16:32:27.000Z</time>
      </trkpt>
      <trkpt lat="41.807663328945636749267578125" lon="-2.84806885756552219390869140625">
        <ele>1091.800048828125</ele>
        <time>2019-07-07T16:32:29.000Z</time>
      </trkpt>
      <trkpt lat="41.807657964527606964111328125" lon="-2.8478300571441650390625">
        <ele>1091.199951171875</ele>
        <time>2019-07-07T16:32:30.000Z</time>
      </trkpt>
      <trkpt lat="41.8076450563967227935791015625" lon="-2.8470959700644016265869140625">
        <ele>1091.199951171875</ele>
        <time>2019-07-07T16:32:34.000Z</time>
      </trkpt>
      <trkpt lat="41.8076406978070735931396484375" lon="-2.84656564705073833465576171875">
        <ele>1092.199951171875</ele>
        <time>2019-07-07T16:32:36.000Z</time>
      </trkpt>
      <trkpt lat="41.80763072334229946136474609375" lon="-2.845676243305206298828125">
        <ele>1093</ele>
        <time>2019-07-07T16:32:39.000Z</time>
      </trkpt>
      <trkpt lat="41.8076172284781932830810546875" lon="-2.845051288604736328125">
        <ele>1093</ele>
        <time>2019-07-07T16:32:41.000Z</time>
      </trkpt>
      <trkpt lat="41.807604320347309112548828125" lon="-2.844403870403766632080078125">
        <ele>1092</ele>
        <time>2019-07-07T16:32:43.000Z</time>
      </trkpt>
      <trkpt lat="41.8075920827686786651611328125" lon="-2.84375703893601894378662109375">
        <ele>1090.800048828125</ele>
        <time>2019-07-07T16:32:44.000Z</time>
      </trkpt>
      <trkpt lat="41.8075920827686786651611328125" lon="-2.84375703893601894378662109375">
        <ele>1089</ele>
        <time>2019-07-07T16:32:45.000Z</time>
      </trkpt>
      <trkpt lat="41.8075853772461414337158203125" lon="-2.84311230294406414031982421875">
        <ele>1087.800048828125</ele>
        <time>2019-07-07T16:32:47.000Z</time>
      </trkpt>
      <trkpt lat="41.8075776658952236175537109375" lon="-2.84247946925461292266845703125">
        <ele>1088</ele>
        <time>2019-07-07T16:32:49.000Z</time>
      </trkpt>
      <trkpt lat="41.80757154710590839385986328125" lon="-2.84185686148703098297119140625">
        <ele>1088.5999755859375</ele>
        <time>2019-07-07T16:32:51.000Z</time>
      </trkpt>
      <trkpt lat="41.8075645901262760162353515625" lon="-2.8415478207170963287353515625">
        <ele>1089.5999755859375</ele>
        <time>2019-07-07T16:32:52.000Z</time>
      </trkpt>
      <trkpt lat="41.80754941888153553009033203125" lon="-2.840935103595256805419921875">
        <ele>1089.4000244140625</ele>
        <time>2019-07-07T16:32:54.000Z</time>
      </trkpt>
      <trkpt lat="41.80753734894096851348876953125" lon="-2.8403304331004619598388671875">
        <ele>1089.5999755859375</ele>
        <time>2019-07-07T16:32:56.000Z</time>
      </trkpt>
      <trkpt lat="41.80751614272594451904296875" lon="-2.8391489200294017791748046875">
        <ele>1090.5999755859375</ele>
        <time>2019-07-07T16:32:59.000Z</time>
      </trkpt>
      <trkpt lat="41.807507760822772979736328125" lon="-2.83827812410891056060791015625">
        <ele>1091.5999755859375</ele>
        <time>2019-07-07T16:33:02.000Z</time>
      </trkpt>
      <trkpt lat="41.80749736726284027099609375" lon="-2.83737187273800373077392578125">
        <ele>1090.800048828125</ele>
        <time>2019-07-07T16:33:05.000Z</time>
      </trkpt>
      <trkpt lat="41.80748471058905124664306640625" lon="-2.8367419727146625518798828125">
        <ele>1090.5999755859375</ele>
        <time>2019-07-07T16:33:08.000Z</time>
      </trkpt>
      <trkpt lat="41.80747264064848423004150390625" lon="-2.83610285259783267974853515625">
        <ele>1091.199951171875</ele>
        <time>2019-07-07T16:33:10.000Z</time>
      </trkpt>
      <trkpt lat="41.80745713412761688232421875" lon="-2.83513373695313930511474609375">
        <ele>1091.199951171875</ele>
        <time>2019-07-07T16:33:12.000Z</time>
      </trkpt>
      <trkpt lat="41.80744506418704986572265625" lon="-2.83448732458055019378662109375">
        <ele>1091.4000244140625</ele>
        <time>2019-07-07T16:33:14.000Z</time>
      </trkpt>
      <trkpt lat="41.80743676610291004180908203125" lon="-2.83383722417056560516357421875">
        <ele>1092.199951171875</ele>
        <time>2019-07-07T16:33:16.000Z</time>
      </trkpt>
      <trkpt lat="41.80743676610291004180908203125" lon="-2.83383722417056560516357421875">
        <ele>1093.5999755859375</ele>
        <time>2019-07-07T16:33:17.000Z</time>
      </trkpt>
      <trkpt lat="41.80743433535099029541015625" lon="-2.83351401798427104949951171875">
        <ele>1096</ele>
        <time>2019-07-07T16:33:18.000Z</time>
      </trkpt>
      <trkpt lat="41.80743374861776828765869140625" lon="-2.833190895617008209228515625">
        <ele>1097.199951171875</ele>
        <time>2019-07-07T16:33:19.000Z</time>
      </trkpt>
      <trkpt lat="41.80742939002811908721923828125" lon="-2.83254372887313365936279296875">
        <ele>1097.5999755859375</ele>
        <time>2019-07-07T16:33:21.000Z</time>
      </trkpt>
      <trkpt lat="41.8074242770671844482421875" lon="-2.83221851103007793426513671875">
        <ele>1095.5999755859375</ele>
        <time>2019-07-07T16:33:22.000Z</time>
      </trkpt>
      <trkpt lat="41.80741748772561550140380859375" lon="-2.83189170062541961669921875">
        <ele>1093.800048828125</ele>
        <time>2019-07-07T16:33:23.000Z</time>
      </trkpt>
      <trkpt lat="41.8074100278317928314208984375" lon="-2.83156438730657100677490234375">
        <ele>1091.800048828125</ele>
        <time>2019-07-07T16:33:24.000Z</time>
      </trkpt>
      <trkpt lat="41.80740357376635074615478515625" lon="-2.83123615197837352752685546875">
        <ele>1090.5999755859375</ele>
        <time>2019-07-07T16:33:25.000Z</time>
      </trkpt>
      <trkpt lat="41.80739418603479862213134765625" lon="-2.83058672212064266204833984375">
        <ele>1089.5999755859375</ele>
        <time>2019-07-07T16:33:27.000Z</time>
      </trkpt>
      <trkpt lat="41.80737926624715328216552734375" lon="-2.8299402259290218353271484375">
        <ele>1091</ele>
        <time>2019-07-07T16:33:29.000Z</time>
      </trkpt>
      <trkpt lat="41.8073671124875545501708984375" lon="-2.8292975015938282012939453125">
        <ele>1092.199951171875</ele>
        <time>2019-07-07T16:33:31.000Z</time>
      </trkpt>
      <trkpt lat="41.80735479108989238739013671875" lon="-2.82833500765264034271240234375">
        <ele>1092.4000244140625</ele>
        <time>2019-07-07T16:33:33.000Z</time>
      </trkpt>
      <trkpt lat="41.80734992958605289459228515625" lon="-2.8276918642222881317138671875">
        <ele>1092.5999755859375</ele>
        <time>2019-07-07T16:33:35.000Z</time>
      </trkpt>
      <trkpt lat="41.807347834110260009765625" lon="-2.82704670913517475128173828125">
        <ele>1093.199951171875</ele>
        <time>2019-07-07T16:33:37.000Z</time>
      </trkpt>
      <trkpt lat="41.80734314024448394775390625" lon="-2.82639811746776103973388671875">
        <ele>1095</ele>
        <time>2019-07-07T16:33:39.000Z</time>
      </trkpt>
      <trkpt lat="41.80733065120875835418701171875" lon="-2.8257452510297298431396484375">
        <ele>1096</ele>
        <time>2019-07-07T16:33:41.000Z</time>
      </trkpt>
      <trkpt lat="41.807324029505252838134765625" lon="-2.82541642896831035614013671875">
        <ele>1096.4000244140625</ele>
        <time>2019-07-07T16:33:42.000Z</time>
      </trkpt>
      <trkpt lat="41.80731137283146381378173828125" lon="-2.82475476153194904327392578125">
        <ele>1097</ele>
        <time>2019-07-07T16:33:44.000Z</time>
      </trkpt>
      <trkpt lat="41.807298548519611358642578125" lon="-2.82408957369625568389892578125">
        <ele>1096.5999755859375</ele>
        <time>2019-07-07T16:33:46.000Z</time>
      </trkpt>
      <trkpt lat="41.80728438310325145721435546875" lon="-2.8234191052615642547607421875">
        <ele>1095.5999755859375</ele>
        <time>2019-07-07T16:33:48.000Z</time>
      </trkpt>
      <trkpt lat="41.80727767758071422576904296875" lon="-2.82308223657310009002685546875">
        <ele>1095</ele>
        <time>2019-07-07T16:33:49.000Z</time>
      </trkpt>
      <trkpt lat="41.8072641827166080474853515625" lon="-2.8224048949778079986572265625">
        <ele>1094.800048828125</ele>
        <time>2019-07-07T16:33:51.000Z</time>
      </trkpt>
      <trkpt lat="41.80725538171827793121337890625" lon="-2.82172285951673984527587890625">
        <ele>1095.5999755859375</ele>
        <time>2019-07-07T16:33:53.000Z</time>
      </trkpt>
      <trkpt lat="41.8072507716715335845947265625" lon="-2.8213799558579921722412109375">
        <ele>1096.5999755859375</ele>
        <time>2019-07-07T16:33:54.000Z</time>
      </trkpt>
      <trkpt lat="41.80724180303514003753662109375" lon="-2.82069146633148193359375">
        <ele>1097.800048828125</ele>
        <time>2019-07-07T16:33:56.000Z</time>
      </trkpt>
      <trkpt lat="41.8072330020368099212646484375" lon="-2.8199976123869419097900390625">
        <ele>1098.800048828125</ele>
        <time>2019-07-07T16:33:59.000Z</time>
      </trkpt>
      <trkpt lat="41.8072262965142726898193359375" lon="-2.8192999027669429779052734375">
        <ele>1099.4000244140625</ele>
        <time>2019-07-07T16:34:00.000Z</time>
      </trkpt>
      <trkpt lat="41.807222105562686920166015625" lon="-2.81860076822340488433837890625">
        <ele>1100.5999755859375</ele>
        <time>2019-07-07T16:34:02.000Z</time>
      </trkpt>
      <trkpt lat="41.80721850134432315826416015625" lon="-2.81790322624146938323974609375">
        <ele>1100.800048828125</ele>
        <time>2019-07-07T16:34:05.000Z</time>
      </trkpt>
      <trkpt lat="41.8072152324020862579345703125" lon="-2.81755420379340648651123046875">
        <ele>1102</ele>
        <time>2019-07-07T16:34:06.000Z</time>
      </trkpt>
      <trkpt lat="41.80721037089824676513671875" lon="-2.81720400787889957427978515625">
        <ele>1103.4000244140625</ele>
        <time>2019-07-07T16:34:07.000Z</time>
      </trkpt>
      <trkpt lat="41.80719939060509204864501953125" lon="-2.8165080584585666656494140625">
        <ele>1103</ele>
        <time>2019-07-07T16:34:09.000Z</time>
      </trkpt>
      <trkpt lat="41.8071803636848926544189453125" lon="-2.81547985039651393890380859375">
        <ele>1103.800048828125</ele>
        <time>2019-07-07T16:34:11.000Z</time>
      </trkpt>
      <trkpt lat="41.8071749992668628692626953125" lon="-2.81513619236648082733154296875">
        <ele>1102</ele>
        <time>2019-07-07T16:34:13.000Z</time>
      </trkpt>
      <trkpt lat="41.80716988630592823028564453125" lon="-2.81479286961257457733154296875">
        <ele>1101</ele>
        <time>2019-07-07T16:34:14.000Z</time>
      </trkpt>
      <trkpt lat="41.80715882219374179840087890625" lon="-2.8141024522483348846435546875">
        <ele>1098.800048828125</ele>
        <time>2019-07-07T16:34:16.000Z</time>
      </trkpt>
      <trkpt lat="41.807153038680553436279296875" lon="-2.8137551061809062957763671875">
        <ele>1096.199951171875</ele>
        <time>2019-07-07T16:34:17.000Z</time>
      </trkpt>
      <trkpt lat="41.8071465007960796356201171875" lon="-2.81340717338025569915771484375">
        <ele>1094.4000244140625</ele>
        <time>2019-07-07T16:34:18.000Z</time>
      </trkpt>
      <trkpt lat="41.80713987909257411956787109375" lon="-2.81305764801800251007080078125">
        <ele>1092.199951171875</ele>
        <time>2019-07-07T16:34:19.000Z</time>
      </trkpt>
      <trkpt lat="41.8071265518665313720703125" lon="-2.812352143228054046630859375">
        <ele>1091.199951171875</ele>
        <time>2019-07-07T16:34:20.000Z</time>
      </trkpt>
      <trkpt lat="41.8071265518665313720703125" lon="-2.812352143228054046630859375">
        <ele>1089.800048828125</ele>
        <time>2019-07-07T16:34:21.000Z</time>
      </trkpt>
      <trkpt lat="41.8071099556982517242431640625" lon="-2.81164144165813922882080078125">
        <ele>1089.199951171875</ele>
        <time>2019-07-07T16:34:22.000Z</time>
      </trkpt>
      <trkpt lat="41.80709637701511383056640625" lon="-2.81093149445950984954833984375">
        <ele>1089.800048828125</ele>
        <time>2019-07-07T16:34:24.000Z</time>
      </trkpt>
      <trkpt lat="41.80709327571094036102294921875" lon="-2.81057777814567089080810546875">
        <ele>1088.4000244140625</ele>
        <time>2019-07-07T16:34:26.000Z</time>
      </trkpt>
      <trkpt lat="41.807083301246166229248046875" lon="-2.80987051315605640411376953125">
        <ele>1086.4000244140625</ele>
        <time>2019-07-07T16:34:27.000Z</time>
      </trkpt>
      <trkpt lat="41.80706846527755260467529296875" lon="-2.8091658465564250946044921875">
        <ele>1088.5999755859375</ele>
        <time>2019-07-07T16:34:29.000Z</time>
      </trkpt>
      <trkpt lat="41.80706846527755260467529296875" lon="-2.8091658465564250946044921875">
        <ele>1090.800048828125</ele>
        <time>2019-07-07T16:34:30.000Z</time>
      </trkpt>
      <trkpt lat="41.80706293322145938873291015625" lon="-2.8088131360709667205810546875">
        <ele>1092.800048828125</ele>
        <time>2019-07-07T16:34:31.000Z</time>
      </trkpt>
      <trkpt lat="41.8070509470999240875244140625" lon="-2.80810914002358913421630859375">
        <ele>1094</ele>
        <time>2019-07-07T16:34:33.000Z</time>
      </trkpt>
      <trkpt lat="41.80703879334032535552978515625" lon="-2.80740053392946720123291015625">
        <ele>1093.5999755859375</ele>
        <time>2019-07-07T16:34:35.000Z</time>
      </trkpt>
      <trkpt lat="41.80702798068523406982421875" lon="-2.806688658893108367919921875">
        <ele>1093</ele>
        <time>2019-07-07T16:34:36.000Z</time>
      </trkpt>
      <trkpt lat="41.807022951543331146240234375" lon="-2.80633402056992053985595703125">
        <ele>1092</ele>
        <time>2019-07-07T16:34:37.000Z</time>
      </trkpt>
      <trkpt lat="41.8070127256214618682861328125" lon="-2.80563731677830219268798828125">
        <ele>1092.4000244140625</ele>
        <time>2019-07-07T16:34:39.000Z</time>
      </trkpt>
      <trkpt lat="41.8070127256214618682861328125" lon="-2.80563731677830219268798828125">
        <ele>1093.199951171875</ele>
        <time>2019-07-07T16:34:40.000Z</time>
      </trkpt>
      <trkpt lat="41.807004511356353759765625" lon="-2.80495704151690006256103515625">
        <ele>1094.199951171875</ele>
        <time>2019-07-07T16:34:41.000Z</time>
      </trkpt>
      <trkpt lat="41.807004511356353759765625" lon="-2.80495704151690006256103515625">
        <ele>1095.199951171875</ele>
        <time>2019-07-07T16:34:42.000Z</time>
      </trkpt>
      <trkpt lat="41.8069924414157867431640625" lon="-2.80428850091993808746337890625">
        <ele>1095.800048828125</ele>
        <time>2019-07-07T16:34:44.000Z</time>
      </trkpt>
      <trkpt lat="41.806983053684234619140625" lon="-2.8036277554929256439208984375">
        <ele>1094.5999755859375</ele>
        <time>2019-07-07T16:34:46.000Z</time>
      </trkpt>
      <trkpt lat="41.8069745041429996490478515625" lon="-2.80297338031232357025146484375">
        <ele>1093.5999755859375</ele>
        <time>2019-07-07T16:34:47.000Z</time>
      </trkpt>
      <trkpt lat="41.8069647811353206634521484375" lon="-2.8023208491504192352294921875">
        <ele>1092</ele>
        <time>2019-07-07T16:34:50.000Z</time>
      </trkpt>
      <trkpt lat="41.80696000345051288604736328125" lon="-2.80199705623090267181396484375">
        <ele>1091.5999755859375</ele>
        <time>2019-07-07T16:34:51.000Z</time>
      </trkpt>
      <trkpt lat="41.80694751441478729248046875" lon="-2.80103313736617565155029296875">
        <ele>1093</ele>
        <time>2019-07-07T16:34:54.000Z</time>
      </trkpt>
      <trkpt lat="41.8069429881870746612548828125" lon="-2.80071730725467205047607421875">
        <ele>1095</ele>
        <time>2019-07-07T16:34:55.000Z</time>
      </trkpt>
      <trkpt lat="41.80693653412163257598876953125" lon="-2.80009537003934383392333984375">
        <ele>1096.199951171875</ele>
        <time>2019-07-07T16:34:57.000Z</time>
      </trkpt>
      <trkpt lat="41.8069329299032688140869140625" lon="-2.799788005650043487548828125">
        <ele>1097.5999755859375</ele>
        <time>2019-07-07T16:34:58.000Z</time>
      </trkpt>
      <trkpt lat="41.80692731402814388275146484375" lon="-2.79917269013822078704833984375">
        <ele>1097.4000244140625</ele>
        <time>2019-07-07T16:35:00.000Z</time>
      </trkpt>
      <trkpt lat="41.80692547000944614410400390625" lon="-2.79886188916862010955810546875">
        <ele>1095.5999755859375</ele>
        <time>2019-07-07T16:35:01.000Z</time>
      </trkpt>
      <trkpt lat="41.80692345835268497467041015625" lon="-2.79855075292289257049560546875">
        <ele>1093.800048828125</ele>
        <time>2019-07-07T16:35:02.000Z</time>
      </trkpt>
      <trkpt lat="41.80691993795335292816162109375" lon="-2.7979327552020549774169921875">
        <ele>1091.800048828125</ele>
        <time>2019-07-07T16:35:04.000Z</time>
      </trkpt>
      <trkpt lat="41.80691775865852832794189453125" lon="-2.79733034782111644744873046875">
        <ele>1090.199951171875</ele>
        <time>2019-07-07T16:35:06.000Z</time>
      </trkpt>
      <trkpt lat="41.80691323243081569671630859375" lon="-2.79643516056239604949951171875">
        <ele>1088.5999755859375</ele>
        <time>2019-07-07T16:35:09.000Z</time>
      </trkpt>
      <trkpt lat="41.8069054372608661651611328125" lon="-2.795534022152423858642578125">
        <ele>1087.4000244140625</ele>
        <time>2019-07-07T16:35:12.000Z</time>
      </trkpt>
      <trkpt lat="41.8068931996822357177734375" lon="-2.7949310280382633209228515625">
        <ele>1086.4000244140625</ele>
        <time>2019-07-07T16:35:14.000Z</time>
      </trkpt>
      <trkpt lat="41.80688045918941497802734375" lon="-2.79463925398886203765869140625">
        <ele>1085.5999755859375</ele>
        <time>2019-07-07T16:35:15.000Z</time>
      </trkpt>
      <trkpt lat="41.80686227045953273773193359375" lon="-2.79435577802360057830810546875">
        <ele>1084.4000244140625</ele>
        <time>2019-07-07T16:35:16.000Z</time>
      </trkpt>
      <trkpt lat="41.806743331253528594970703125" lon="-2.79355396516621112823486328125">
        <ele>1083.4000244140625</ele>
        <time>2019-07-07T16:35:19.000Z</time>
      </trkpt>
      <trkpt lat="41.806583069264888763427734375" lon="-2.79282934963703155517578125">
        <ele>1085</ele>
        <time>2019-07-07T16:35:22.000Z</time>
      </trkpt>
      <trkpt lat="41.8065396510064601898193359375" lon="-2.79262860305607318878173828125">
        <ele>1085.5999755859375</ele>
        <time>2019-07-07T16:35:23.000Z</time>
      </trkpt>
      <trkpt lat="41.80646547116339206695556640625" lon="-2.7922846935689449310302734375">
        <ele>1087.5999755859375</ele>
        <time>2019-07-07T16:35:25.000Z</time>
      </trkpt>
      <trkpt lat="41.80643144063651561737060546875" lon="-2.7921438775956630706787109375">
        <ele>1088.5999755859375</ele>
        <time>2019-07-07T16:35:26.000Z</time>
      </trkpt>
      <trkpt lat="41.806400008499622344970703125" lon="-2.79201957397162914276123046875">
        <ele>1089.800048828125</ele>
        <time>2019-07-07T16:35:27.000Z</time>
      </trkpt>
      <trkpt lat="41.806371845304965972900390625" lon="-2.7919152192771434783935546875">
        <ele>1090.800048828125</ele>
        <time>2019-07-07T16:35:28.000Z</time>
      </trkpt>
      <trkpt lat="41.80632767267525196075439453125" lon="-2.79175722040235996246337890625">
        <ele>1092.5999755859375</ele>
        <time>2019-07-07T16:35:30.000Z</time>
      </trkpt>
      <trkpt lat="41.806298755109310150146484375" lon="-2.79166719876229763031005859375">
        <ele>1094.199951171875</ele>
        <time>2019-07-07T16:35:32.000Z</time>
      </trkpt>
      <trkpt lat="41.80628291331231594085693359375" lon="-2.79162310995161533355712890625">
        <ele>1095.800048828125</ele>
        <time>2019-07-07T16:35:34.000Z</time>
      </trkpt>
      <trkpt lat="41.80625257082283496856689453125" lon="-2.791525460779666900634765625">
        <ele>1096.5999755859375</ele>
        <time>2019-07-07T16:35:41.000Z</time>
      </trkpt>
      <trkpt lat="41.8062640540301799774169921875" lon="-2.7914186753332614898681640625">
        <ele>1096.5999755859375</ele>
        <time>2019-07-07T16:35:43.000Z</time>
      </trkpt>
      <trkpt lat="41.806349046528339385986328125" lon="-2.791379280388355255126953125">
        <ele>1096.5999755859375</ele>
        <time>2019-07-07T16:35:45.000Z</time>
      </trkpt>
      <trkpt lat="41.80681248195469379425048828125" lon="-2.79154457151889801025390625">
        <ele>1094.5999755859375</ele>
        <time>2019-07-07T16:35:50.000Z</time>
      </trkpt>
      <trkpt lat="41.8070368655025959014892578125" lon="-2.79161824844777584075927734375">
        <ele>1093.199951171875</ele>
        <time>2019-07-07T16:35:52.000Z</time>
      </trkpt>
      <trkpt lat="41.8073319084942340850830078125" lon="-2.7917137183248996734619140625">
        <ele>1091.800048828125</ele>
        <time>2019-07-07T16:35:55.000Z</time>
      </trkpt>
      <trkpt lat="41.8074985407292842864990234375" lon="-2.79175386764109134674072265625">
        <ele>1091.5999755859375</ele>
        <time>2019-07-07T16:35:57.000Z</time>
      </trkpt>
      <trkpt lat="41.80771957151591777801513671875" lon="-2.79166803695261478424072265625">
        <ele>1091.5999755859375</ele>
        <time>2019-07-07T16:35:59.000Z</time>
      </trkpt>
      <trkpt lat="41.807787716388702392578125" lon="-2.79161975719034671783447265625">
        <ele>1091.5999755859375</ele>
        <time>2019-07-07T16:36:01.000Z</time>
      </trkpt>
      <trkpt lat="41.8079300411045551300048828125" lon="-2.79159528203308582305908203125">
        <ele>1091.199951171875</ele>
        <time>2019-07-07T16:36:03.000Z</time>
      </trkpt>
      <trkpt lat="41.80805786512792110443115234375" lon="-2.7916952781379222869873046875">
        <ele>1090.800048828125</ele>
        <time>2019-07-07T16:36:05.000Z</time>
      </trkpt>
      <trkpt lat="41.80820169858634471893310546875" lon="-2.79183165170252323150634765625">
        <ele>1090.4000244140625</ele>
        <time>2019-07-07T16:36:07.000Z</time>
      </trkpt>
      <trkpt lat="41.80839599110186100006103515625" lon="-2.7918751537799835205078125">
        <ele>1090.199951171875</ele>
        <time>2019-07-07T16:36:09.000Z</time>
      </trkpt>
      <trkpt lat="41.8086119927465915679931640625" lon="-2.79181170277297496795654296875">
        <ele>1090.4000244140625</ele>
        <time>2019-07-07T16:36:11.000Z</time>
      </trkpt>
      <trkpt lat="41.809204928576946258544921875" lon="-2.7914495207369327545166015625">
        <ele>1089.4000244140625</ele>
        <time>2019-07-07T16:36:15.000Z</time>
      </trkpt>
      <trkpt lat="41.80945563130080699920654296875" lon="-2.79128213413059711456298828125">
        <ele>1088.4000244140625</ele>
        <time>2019-07-07T16:36:17.000Z</time>
      </trkpt>
      <trkpt lat="41.809708513319492340087890625" lon="-2.791093289852142333984375">
        <ele>1087</ele>
        <time>2019-07-07T16:36:19.000Z</time>
      </trkpt>
      <trkpt lat="41.8102119304239749908447265625" lon="-2.79052189551293849945068359375">
        <ele>1085.800048828125</ele>
        <time>2019-07-07T16:36:23.000Z</time>
      </trkpt>
      <trkpt lat="41.81053790263831615447998046875" lon="-2.7900614775717258453369140625">
        <ele>1084.4000244140625</ele>
        <time>2019-07-07T16:36:26.000Z</time>
      </trkpt>
      <trkpt lat="41.8106400780379772186279296875" lon="-2.789917476475238800048828125">
        <ele>1083.4000244140625</ele>
        <time>2019-07-07T16:36:27.000Z</time>
      </trkpt>
      <trkpt lat="41.81085088290274143218994140625" lon="-2.789615057408809661865234375">
        <ele>1082.199951171875</ele>
        <time>2019-07-07T16:36:29.000Z</time>
      </trkpt>
      <trkpt lat="41.811188422143459320068359375" lon="-2.7890868298709392547607421875">
        <ele>1081.5999755859375</ele>
        <time>2019-07-07T16:36:32.000Z</time>
      </trkpt>
      <trkpt lat="41.81138581596314907073974609375" lon="-2.78867502696812152862548828125">
        <ele>1080.4000244140625</ele>
        <time>2019-07-07T16:36:34.000Z</time>
      </trkpt>
      <trkpt lat="41.811468712985515594482421875" lon="-2.78847034089267253875732421875">
        <ele>1079.4000244140625</ele>
        <time>2019-07-07T16:36:35.000Z</time>
      </trkpt>
      <trkpt lat="41.8116308189928531646728515625" lon="-2.78806884773075580596923828125">
        <ele>1078</ele>
        <time>2019-07-07T16:36:37.000Z</time>
      </trkpt>
      <trkpt lat="41.8118014745414257049560546875" lon="-2.78765159659087657928466796875">
        <ele>1076.800048828125</ele>
        <time>2019-07-07T16:36:39.000Z</time>
      </trkpt>
      <trkpt lat="41.8118982017040252685546875" lon="-2.78744506649672985076904296875">
        <ele>1075.4000244140625</ele>
        <time>2019-07-07T16:36:41.000Z</time>
      </trkpt>
      <trkpt lat="41.8120100162923336029052734375" lon="-2.78724842704832553863525390625">
        <ele>1074.199951171875</ele>
        <time>2019-07-07T16:36:42.000Z</time>
      </trkpt>
      <trkpt lat="41.81214161217212677001953125" lon="-2.7870654501020908355712890625">
        <ele>1072.800048828125</ele>
        <time>2019-07-07T16:36:43.000Z</time>
      </trkpt>
      <trkpt lat="41.81228972040116786956787109375" lon="-2.7869058586657047271728515625">
        <ele>1071.800048828125</ele>
        <time>2019-07-07T16:36:44.000Z</time>
      </trkpt>
      <trkpt lat="41.8126299418509006500244140625" lon="-2.786674685776233673095703125">
        <ele>1070.199951171875</ele>
        <time>2019-07-07T16:36:46.000Z</time>
      </trkpt>
      <trkpt lat="41.8130014277994632720947265625" lon="-2.7865611948072910308837890625">
        <ele>1070</ele>
        <time>2019-07-07T16:36:48.000Z</time>
      </trkpt>
      <trkpt lat="41.81356159038841724395751953125" lon="-2.786528170108795166015625">
        <ele>1071.5999755859375</ele>
        <time>2019-07-07T16:36:51.000Z</time>
      </trkpt>
      <trkpt lat="41.8140773288905620574951171875" lon="-2.78653127141296863555908203125">
        <ele>1072.199951171875</ele>
        <time>2019-07-07T16:36:54.000Z</time>
      </trkpt>
      <trkpt lat="41.814396679401397705078125" lon="-2.7865563333034515380859375">
        <ele>1072.5999755859375</ele>
        <time>2019-07-07T16:36:56.000Z</time>
      </trkpt>
      <trkpt lat="41.814545206725597381591796875" lon="-2.7865896932780742645263671875">
        <ele>1073.800048828125</ele>
        <time>2019-07-07T16:36:57.000Z</time>
      </trkpt>
      <trkpt lat="41.814825497567653656005859375" lon="-2.78668449260294437408447265625">
        <ele>1075.5999755859375</ele>
        <time>2019-07-07T16:36:58.000Z</time>
      </trkpt>
      <trkpt lat="41.814825497567653656005859375" lon="-2.78668449260294437408447265625">
        <ele>1077.199951171875</ele>
        <time>2019-07-07T16:36:59.000Z</time>
      </trkpt>
      <trkpt lat="41.8149611167609691619873046875" lon="-2.786748446524143218994140625">
        <ele>1079.4000244140625</ele>
        <time>2019-07-07T16:37:00.000Z</time>
      </trkpt>
      <trkpt lat="41.815095059573650360107421875" lon="-2.786821536719799041748046875">
        <ele>1081.4000244140625</ele>
        <time>2019-07-07T16:37:01.000Z</time>
      </trkpt>
      <trkpt lat="41.81523109786212444305419921875" lon="-2.78690326027572154998779296875">
        <ele>1083.5999755859375</ele>
        <time>2019-07-07T16:37:02.000Z</time>
      </trkpt>
      <trkpt lat="41.81536772288382053375244140625" lon="-2.78699210844933986663818359375">
        <ele>1085.199951171875</ele>
        <time>2019-07-07T16:37:03.000Z</time>
      </trkpt>
      <trkpt lat="41.8155084550380706787109375" lon="-2.78709135018289089202880859375">
        <ele>1086.800048828125</ele>
        <time>2019-07-07T16:37:04.000Z</time>
      </trkpt>
      <trkpt lat="41.8156506121158599853515625" lon="-2.78719495050609111785888671875">
        <ele>1088.199951171875</ele>
        <time>2019-07-07T16:37:05.000Z</time>
      </trkpt>
      <trkpt lat="41.8157927691936492919921875" lon="-2.78730123303830623626708984375">
        <ele>1089.800048828125</ele>
        <time>2019-07-07T16:37:06.000Z</time>
      </trkpt>
      <trkpt lat="41.81593249551951885223388671875" lon="-2.78740734793245792388916015625">
        <ele>1091.199951171875</ele>
        <time>2019-07-07T16:37:07.000Z</time>
      </trkpt>
      <trkpt lat="41.8160658515989780426025390625" lon="-2.7875076793134212493896484375">
        <ele>1092.5999755859375</ele>
        <time>2019-07-07T16:37:08.000Z</time>
      </trkpt>
      <trkpt lat="41.81619132868945598602294921875" lon="-2.7876018919050693511962890625">
        <ele>1093.5999755859375</ele>
        <time>2019-07-07T16:37:09.000Z</time>
      </trkpt>
      <trkpt lat="41.81642652489244937896728515625" lon="-2.7877903170883655548095703125">
        <ele>1095.4000244140625</ele>
        <time>2019-07-07T16:37:11.000Z</time>
      </trkpt>
      <trkpt lat="41.81665283627808094024658203125" lon="-2.7879737131297588348388671875">
        <ele>1097</ele>
        <time>2019-07-07T16:37:13.000Z</time>
      </trkpt>
      <trkpt lat="41.8167622201144695281982421875" lon="-2.78806013055145740509033203125">
        <ele>1098</ele>
        <time>2019-07-07T16:37:14.000Z</time>
      </trkpt>
      <trkpt lat="41.8168698437511920928955078125" lon="-2.78814931400120258331298828125">
        <ele>1099.199951171875</ele>
        <time>2019-07-07T16:37:15.000Z</time>
      </trkpt>
      <trkpt lat="41.816980652511119842529296875" lon="-2.7882439456880092620849609375">
        <ele>1100.5999755859375</ele>
        <time>2019-07-07T16:37:16.000Z</time>
      </trkpt>
      <trkpt lat="41.81709020398557186126708984375" lon="-2.7883493900299072265625">
        <ele>1101.800048828125</ele>
        <time>2019-07-07T16:37:17.000Z</time>
      </trkpt>
      <trkpt lat="41.81720503605902194976806640625" lon="-2.788463048636913299560546875">
        <ele>1102.800048828125</ele>
        <time>2019-07-07T16:37:18.000Z</time>
      </trkpt>
      <trkpt lat="41.81744392029941082000732421875" lon="-2.7887156791985034942626953125">
        <ele>1104.5999755859375</ele>
        <time>2019-07-07T16:37:20.000Z</time>
      </trkpt>
      <trkpt lat="41.8175581656396389007568359375" lon="-2.78885708190500736236572265625">
        <ele>1105.800048828125</ele>
        <time>2019-07-07T16:37:21.000Z</time>
      </trkpt>
      <trkpt lat="41.81768045760691165924072265625" lon="-2.7890013344585895538330078125">
        <ele>1107</ele>
        <time>2019-07-07T16:37:22.000Z</time>
      </trkpt>
      <trkpt lat="41.8179182521998882293701171875" lon="-2.78928405605256557464599609375">
        <ele>1108.800048828125</ele>
        <time>2019-07-07T16:37:24.000Z</time>
      </trkpt>
      <trkpt lat="41.81814012117683887481689453125" lon="-2.78954188339412212371826171875">
        <ele>1110.4000244140625</ele>
        <time>2019-07-07T16:37:26.000Z</time>
      </trkpt>
      <trkpt lat="41.81835687719285488128662109375" lon="-2.7897818572819232940673828125">
        <ele>1112.4000244140625</ele>
        <time>2019-07-07T16:37:28.000Z</time>
      </trkpt>
      <trkpt lat="41.81869558990001678466796875" lon="-2.79014370404183864593505859375">
        <ele>1112.5999755859375</ele>
        <time>2019-07-07T16:37:31.000Z</time>
      </trkpt>
      <trkpt lat="41.81906531564891338348388671875" lon="-2.790505886077880859375">
        <ele>1113.4000244140625</ele>
        <time>2019-07-07T16:37:33.000Z</time>
      </trkpt>
      <trkpt lat="41.81933839805424213409423828125" lon="-2.7907679043710231781005859375">
        <ele>1114.5999755859375</ele>
        <time>2019-07-07T16:37:36.000Z</time>
      </trkpt>
      <trkpt lat="41.819642744958400726318359375" lon="-2.79104475863277912139892578125">
        <ele>1116.4000244140625</ele>
        <time>2019-07-07T16:37:38.000Z</time>
      </trkpt>
      <trkpt lat="41.8198014982044696807861328125" lon="-2.79118574224412441253662109375">
        <ele>1117.800048828125</ele>
        <time>2019-07-07T16:37:39.000Z</time>
      </trkpt>
      <trkpt lat="41.82028479874134063720703125" lon="-2.79159955680370330810546875">
        <ele>1119</ele>
        <time>2019-07-07T16:37:41.000Z</time>
      </trkpt>
      <trkpt lat="41.8206168897449970245361328125" lon="-2.79187808744609355926513671875">
        <ele>1117.199951171875</ele>
        <time>2019-07-07T16:37:44.000Z</time>
      </trkpt>
      <trkpt lat="41.82079031132161617279052734375" lon="-2.79201605357229709625244140625">
        <ele>1114.800048828125</ele>
        <time>2019-07-07T16:37:45.000Z</time>
      </trkpt>
      <trkpt lat="41.82096339762210845947265625" lon="-2.7921519242227077484130859375">
        <ele>1112.5999755859375</ele>
        <time>2019-07-07T16:37:46.000Z</time>
      </trkpt>
      <trkpt lat="41.82113195769488811492919921875" lon="-2.79228620231151580810546875">
        <ele>1110.5999755859375</ele>
        <time>2019-07-07T16:37:47.000Z</time>
      </trkpt>
      <trkpt lat="41.82145399041473865509033203125" lon="-2.79255039989948272705078125">
        <ele>1109</ele>
        <time>2019-07-07T16:37:48.000Z</time>
      </trkpt>
      <trkpt lat="41.82161039672791957855224609375" lon="-2.79267604462802410125732421875">
        <ele>1107.5999755859375</ele>
        <time>2019-07-07T16:37:49.000Z</time>
      </trkpt>
      <trkpt lat="41.82176445610821247100830078125" lon="-2.792797498404979705810546875">
        <ele>1106</ele>
        <time>2019-07-07T16:37:51.000Z</time>
      </trkpt>
      <trkpt lat="41.82206788100302219390869140625" lon="-2.793032191693782806396484375">
        <ele>1104.199951171875</ele>
        <time>2019-07-07T16:37:53.000Z</time>
      </trkpt>
      <trkpt lat="41.82221791706979274749755859375" lon="-2.793141491711139678955078125">
        <ele>1103</ele>
        <time>2019-07-07T16:37:54.000Z</time>
      </trkpt>
      <trkpt lat="41.8223680369555950164794921875" lon="-2.79323796741664409637451171875">
        <ele>1101.800048828125</ele>
        <time>2019-07-07T16:37:55.000Z</time>
      </trkpt>
      <trkpt lat="41.82251907885074615478515625" lon="-2.79331675730645656585693359375">
        <ele>1101</ele>
        <time>2019-07-07T16:37:56.000Z</time>
      </trkpt>
      <trkpt lat="41.8226734735071659088134765625" lon="-2.79337559826672077178955078125">
        <ele>1100.4000244140625</ele>
        <time>2019-07-07T16:37:57.000Z</time>
      </trkpt>
      <trkpt lat="41.82316641323268413543701171875" lon="-2.793451286852359771728515625">
        <ele>1099.199951171875</ele>
        <time>2019-07-07T16:38:00.000Z</time>
      </trkpt>
      <trkpt lat="41.82366765104234218597412109375" lon="-2.79336352832615375518798828125">
        <ele>1098</ele>
        <time>2019-07-07T16:38:03.000Z</time>
      </trkpt>
      <trkpt lat="41.82400192134082317352294921875" lon="-2.7932013384997844696044921875">
        <ele>1097</ele>
        <time>2019-07-07T16:38:05.000Z</time>
      </trkpt>
      <trkpt lat="41.8244722299277782440185546875" lon="-2.79281199909746646881103515625">
        <ele>1096.4000244140625</ele>
        <time>2019-07-07T16:38:07.000Z</time>
      </trkpt>
      <trkpt lat="41.82484857738018035888671875" lon="-2.7922689355909824371337890625">
        <ele>1095</ele>
        <time>2019-07-07T16:38:10.000Z</time>
      </trkpt>
      <trkpt lat="41.824962906539440155029296875" lon="-2.7920647524297237396240234375">
        <ele>1093.5999755859375</ele>
        <time>2019-07-07T16:38:11.000Z</time>
      </trkpt>
      <trkpt lat="41.824962906539440155029296875" lon="-2.7920647524297237396240234375">
        <ele>1092.199951171875</ele>
        <time>2019-07-07T16:38:12.000Z</time>
      </trkpt>
      <trkpt lat="41.8252031318843364715576171875" lon="-2.79164641164243221282958984375">
        <ele>1090.800048828125</ele>
        <time>2019-07-07T16:38:13.000Z</time>
      </trkpt>
      <trkpt lat="41.82544444687664508819580078125" lon="-2.79123703949153423309326171875">
        <ele>1089.4000244140625</ele>
        <time>2019-07-07T16:38:15.000Z</time>
      </trkpt>
      <trkpt lat="41.82568609714508056640625" lon="-2.7908352948725223541259765625">
        <ele>1088.199951171875</ele>
        <time>2019-07-07T16:38:18.000Z</time>
      </trkpt>
      <trkpt lat="41.8261093832552433013916015625" lon="-2.790278904139995574951171875">
        <ele>1087.5999755859375</ele>
        <time>2019-07-07T16:38:20.000Z</time>
      </trkpt>
      <trkpt lat="41.82647667825222015380859375" lon="-2.78997438959777355194091796875">
        <ele>1087</ele>
        <time>2019-07-07T16:38:22.000Z</time>
      </trkpt>
      <trkpt lat="41.82686098851263523101806640625" lon="-2.78972871601581573486328125">
        <ele>1085.199951171875</ele>
        <time>2019-07-07T16:38:24.000Z</time>
      </trkpt>
      <trkpt lat="41.82705159299075603485107421875" lon="-2.78961547650396823883056640625">
        <ele>1083</ele>
        <time>2019-07-07T16:38:25.000Z</time>
      </trkpt>
      <trkpt lat="41.8272395990788936614990234375" lon="-2.789505757391452789306640625">
        <ele>1080.800048828125</ele>
        <time>2019-07-07T16:38:26.000Z</time>
      </trkpt>
      <trkpt lat="41.82742978446185588836669921875" lon="-2.78939788229763507843017578125">
        <ele>1079.5999755859375</ele>
        <time>2019-07-07T16:38:27.000Z</time>
      </trkpt>
      <trkpt lat="41.82780965231359004974365234375" lon="-2.789182551205158233642578125">
        <ele>1077.5999755859375</ele>
        <time>2019-07-07T16:38:29.000Z</time>
      </trkpt>
      <trkpt lat="41.8281951360404491424560546875" lon="-2.78896302916109561920166015625">
        <ele>1076.5999755859375</ele>
        <time>2019-07-07T16:38:31.000Z</time>
      </trkpt>
      <trkpt lat="41.82858355343341827392578125" lon="-2.78874157927930355072021484375">
        <ele>1074.800048828125</ele>
        <time>2019-07-07T16:38:33.000Z</time>
      </trkpt>
      <trkpt lat="41.82877642102539539337158203125" lon="-2.7886385656893253326416015625">
        <ele>1073.4000244140625</ele>
        <time>2019-07-07T16:38:35.000Z</time>
      </trkpt>
      <trkpt lat="41.82917841710150241851806640625" lon="-2.78846061788499355316162109375">
        <ele>1072.4000244140625</ele>
        <time>2019-07-07T16:38:37.000Z</time>
      </trkpt>
      <trkpt lat="41.82993563823401927947998046875" lon="-2.78826867230236530303955078125">
        <ele>1070.800048828125</ele>
        <time>2019-07-07T16:38:39.000Z</time>
      </trkpt>
      <trkpt lat="41.82993563823401927947998046875" lon="-2.78826867230236530303955078125">
        <ele>1069</ele>
        <time>2019-07-07T16:38:40.000Z</time>
      </trkpt>
      <trkpt lat="41.8302074633538722991943359375" lon="-2.7882124297320842742919921875">
        <ele>1065.4000244140625</ele>
        <time>2019-07-07T16:38:41.000Z</time>
      </trkpt>
      <trkpt lat="41.8307219445705413818359375" lon="-2.7880798280239105224609375">
        <ele>1063.5999755859375</ele>
        <time>2019-07-07T16:38:42.000Z</time>
      </trkpt>
      <trkpt lat="41.83097097091376781463623046875" lon="-2.7880122698843479156494140625">
        <ele>1060</ele>
        <time>2019-07-07T16:38:43.000Z</time>
      </trkpt>
      <trkpt lat="41.83097097091376781463623046875" lon="-2.7880122698843479156494140625">
        <ele>1056.4000244140625</ele>
        <time>2019-07-07T16:38:44.000Z</time>
      </trkpt>
      <trkpt lat="41.83121723122894763946533203125" lon="-2.78795066289603710174560546875">
        <ele>1054.4000244140625</ele>
        <time>2019-07-07T16:38:45.000Z</time>
      </trkpt>
      <trkpt lat="41.8314627371728420257568359375" lon="-2.78789651580154895782470703125">
        <ele>1052.800048828125</ele>
        <time>2019-07-07T16:38:46.000Z</time>
      </trkpt>
      <trkpt lat="41.8319408409297466278076171875" lon="-2.7877970226109027862548828125">
        <ele>1051.800048828125</ele>
        <time>2019-07-07T16:38:47.000Z</time>
      </trkpt>
      <trkpt lat="41.8319408409297466278076171875" lon="-2.7877970226109027862548828125">
        <ele>1051.5999755859375</ele>
        <time>2019-07-07T16:38:48.000Z</time>
      </trkpt>
      <trkpt lat="41.83241114951670169830322265625" lon="-2.7876957692205905914306640625">
        <ele>1050.800048828125</ele>
        <time>2019-07-07T16:38:50.000Z</time>
      </trkpt>
      <trkpt lat="41.83288137428462505340576171875" lon="-2.78759107924997806549072265625">
        <ele>1050.5999755859375</ele>
        <time>2019-07-07T16:38:51.000Z</time>
      </trkpt>
      <trkpt lat="41.8333597294986248016357421875" lon="-2.78749166987836360931396484375">
        <ele>1050.199951171875</ele>
        <time>2019-07-07T16:38:54.000Z</time>
      </trkpt>
      <trkpt lat="41.83384001255035400390625" lon="-2.78739242814481258392333984375">
        <ele>1051.199951171875</ele>
        <time>2019-07-07T16:38:56.000Z</time>
      </trkpt>
      <trkpt lat="41.83431820012629032135009765625" lon="-2.78729259967803955078125">
        <ele>1051.5999755859375</ele>
        <time>2019-07-07T16:38:58.000Z</time>
      </trkpt>
      <trkpt lat="41.83481172658503055572509765625" lon="-2.78721825219690799713134765625">
        <ele>1051.800048828125</ele>
        <time>2019-07-07T16:39:00.000Z</time>
      </trkpt>
      <trkpt lat="41.83532117865979671478271484375" lon="-2.78716460801661014556884765625">
        <ele>1052.5999755859375</ele>
        <time>2019-07-07T16:39:02.000Z</time>
      </trkpt>
      <trkpt lat="41.83583532460033893585205078125" lon="-2.78712705709040164947509765625">
        <ele>1054.199951171875</ele>
        <time>2019-07-07T16:39:04.000Z</time>
      </trkpt>
      <trkpt lat="41.836355589330196380615234375" lon="-2.78710677288472652435302734375">
        <ele>1056.4000244140625</ele>
        <time>2019-07-07T16:39:06.000Z</time>
      </trkpt>
      <trkpt lat="41.836616098880767822265625" lon="-2.7871016599237918853759765625">
        <ele>1057.800048828125</ele>
        <time>2019-07-07T16:39:07.000Z</time>
      </trkpt>
      <trkpt lat="41.8371426500380039215087890625" lon="-2.78710392303764820098876953125">
        <ele>1059</ele>
        <time>2019-07-07T16:39:09.000Z</time>
      </trkpt>
      <trkpt lat="41.8376760743558406829833984375" lon="-2.78711046092212200164794921875">
        <ele>1060</ele>
        <time>2019-07-07T16:39:11.000Z</time>
      </trkpt>
      <trkpt lat="41.83794421143829822540283203125" lon="-2.78710593469440937042236328125">
        <ele>1061</ele>
        <time>2019-07-07T16:39:12.000Z</time>
      </trkpt>
      <trkpt lat="41.83847730048000812530517578125" lon="-2.78707123361527919769287109375">
        <ele>1062.199951171875</ele>
        <time>2019-07-07T16:39:14.000Z</time>
      </trkpt>
      <trkpt lat="41.8389963917434215545654296875" lon="-2.786986827850341796875">
        <ele>1063.800048828125</ele>
        <time>2019-07-07T16:39:16.000Z</time>
      </trkpt>
      <trkpt lat="41.83925203979015350341796875" lon="-2.786931507289409637451171875">
        <ele>1065.4000244140625</ele>
        <time>2019-07-07T16:39:17.000Z</time>
      </trkpt>
      <trkpt lat="41.8397591449320316314697265625" lon="-2.78681944124400615692138671875">
        <ele>1066.800048828125</ele>
        <time>2019-07-07T16:39:19.000Z</time>
      </trkpt>
      <trkpt lat="41.840265579521656036376953125" lon="-2.7867362089455127716064453125">
        <ele>1068.5999755859375</ele>
        <time>2019-07-07T16:39:21.000Z</time>
      </trkpt>
      <trkpt lat="41.84077025391161441802978515625" lon="-2.78669421561062335968017578125">
        <ele>1070.800048828125</ele>
        <time>2019-07-07T16:39:23.000Z</time>
      </trkpt>
      <trkpt lat="41.84127886779606342315673828125" lon="-2.78666831552982330322265625">
        <ele>1072.199951171875</ele>
        <time>2019-07-07T16:39:24.000Z</time>
      </trkpt>
      <trkpt lat="41.84127886779606342315673828125" lon="-2.78666831552982330322265625">
        <ele>1074</ele>
        <time>2019-07-07T16:39:25.000Z</time>
      </trkpt>
      <trkpt lat="41.84153728187084197998046875" lon="-2.786657251417636871337890625">
        <ele>1075.199951171875</ele>
        <time>2019-07-07T16:39:26.000Z</time>
      </trkpt>
      <trkpt lat="41.84206307865679264068603515625" lon="-2.78663302771747112274169921875">
        <ele>1076.199951171875</ele>
        <time>2019-07-07T16:39:28.000Z</time>
      </trkpt>
      <trkpt lat="41.84231939725577831268310546875" lon="-2.78662011958658695220947265625">
        <ele>1076.4000244140625</ele>
        <time>2019-07-07T16:39:29.000Z</time>
      </trkpt>
      <trkpt lat="41.84282398782670497894287109375" lon="-2.78655775822699069976806640625">
        <ele>1076.800048828125</ele>
        <time>2019-07-07T16:39:31.000Z</time>
      </trkpt>
      <trkpt lat="41.84306656010448932647705078125" lon="-2.78648667968809604644775390625">
        <ele>1076.800048828125</ele>
        <time>2019-07-07T16:39:32.000Z</time>
      </trkpt>
      <trkpt lat="41.84329907409846782684326171875" lon="-2.7863798104226589202880859375">
        <ele>1077.5999755859375</ele>
        <time>2019-07-07T16:39:33.000Z</time>
      </trkpt>
      <trkpt lat="41.84373007155954837799072265625" lon="-2.786092646420001983642578125">
        <ele>1078.5999755859375</ele>
        <time>2019-07-07T16:39:34.000Z</time>
      </trkpt>
      <trkpt lat="41.84393308125436305999755859375" lon="-2.7859449572861194610595703125">
        <ele>1080.5999755859375</ele>
        <time>2019-07-07T16:39:35.000Z</time>
      </trkpt>
      <trkpt lat="41.8443180620670318603515625" lon="-2.785699702799320220947265625">
        <ele>1083</ele>
        <time>2019-07-07T16:39:37.000Z</time>
      </trkpt>
      <trkpt lat="41.84450740925967693328857421875" lon="-2.78561496175825595855712890625">
        <ele>1084.5999755859375</ele>
        <time>2019-07-07T16:39:39.000Z</time>
      </trkpt>
      <trkpt lat="41.8446970917284488677978515625" lon="-2.78555628843605518341064453125">
        <ele>1085.4000244140625</ele>
        <time>2019-07-07T16:39:40.000Z</time>
      </trkpt>
      <trkpt lat="41.8448848463594913482666015625" lon="-2.78552837669849395751953125">
        <ele>1086.800048828125</ele>
        <time>2019-07-07T16:39:41.000Z</time>
      </trkpt>
      <trkpt lat="41.8450689129531383514404296875" lon="-2.78553047217428684234619140625">
        <ele>1088.800048828125</ele>
        <time>2019-07-07T16:39:42.000Z</time>
      </trkpt>
      <trkpt lat="41.84525138698518276214599609375" lon="-2.785558216273784637451171875">
        <ele>1090.4000244140625</ele>
        <time>2019-07-07T16:39:43.000Z</time>
      </trkpt>
      <trkpt lat="41.84543008916079998016357421875" lon="-2.78560507111251354217529296875">
        <ele>1091.800048828125</ele>
        <time>2019-07-07T16:39:44.000Z</time>
      </trkpt>
      <trkpt lat="41.84559688903391361236572265625" lon="-2.7856643311679363250732421875">
        <ele>1093.4000244140625</ele>
        <time>2019-07-07T16:39:45.000Z</time>
      </trkpt>
      <trkpt lat="41.8457498587667942047119140625" lon="-2.7857280336320400238037109375">
        <ele>1094.800048828125</ele>
        <time>2019-07-07T16:39:46.000Z</time>
      </trkpt>
      <trkpt lat="41.84588924981653690338134765625" lon="-2.78579114936292171478271484375">
        <ele>1095.800048828125</ele>
        <time>2019-07-07T16:39:47.000Z</time>
      </trkpt>
      <trkpt lat="41.84616048820316791534423828125" lon="-2.7859154529869556427001953125">
        <ele>1097.4000244140625</ele>
        <time>2019-07-07T16:39:49.000Z</time>
      </trkpt>
      <trkpt lat="41.846305914223194122314453125" lon="-2.78597605414688587188720703125">
        <ele>1098.800048828125</ele>
        <time>2019-07-07T16:39:50.000Z</time>
      </trkpt>
      <trkpt lat="41.84646056033670902252197265625" lon="-2.78603875078260898590087890625">
        <ele>1100.4000244140625</ele>
        <time>2019-07-07T16:39:51.000Z</time>
      </trkpt>
      <trkpt lat="41.8466266058385372161865234375" lon="-2.786102034151554107666015625">
        <ele>1102</ele>
        <time>2019-07-07T16:39:52.000Z</time>
      </trkpt>
      <trkpt lat="41.84697889722883701324462890625" lon="-2.78620052151381969451904296875">
        <ele>1103</ele>
        <time>2019-07-07T16:39:54.000Z</time>
      </trkpt>
      <trkpt lat="41.84732272289693355560302734375" lon="-2.78624393977224826812744140625">
        <ele>1101.800048828125</ele>
        <time>2019-07-07T16:39:56.000Z</time>
      </trkpt>
      <trkpt lat="41.8474889360368251800537109375" lon="-2.78625433333218097686767578125">
        <ele>1100.800048828125</ele>
        <time>2019-07-07T16:39:57.000Z</time>
      </trkpt>
      <trkpt lat="41.84782178141176700592041015625" lon="-2.78628383763134479522705078125">
        <ele>1099.4000244140625</ele>
        <time>2019-07-07T16:39:59.000Z</time>
      </trkpt>
      <trkpt lat="41.84834472835063934326171875" lon="-2.7863868512213230133056640625">
        <ele>1098.199951171875</ele>
        <time>2019-07-07T16:40:02.000Z</time>
      </trkpt>
      <trkpt lat="41.84852041304111480712890625" lon="-2.78645952232182025909423828125">
        <ele>1097.800048828125</ele>
        <time>2019-07-07T16:40:03.000Z</time>
      </trkpt>
      <trkpt lat="41.84886717237532138824462890625" lon="-2.786672674119472503662109375">
        <ele>1096.5999755859375</ele>
        <time>2019-07-07T16:40:05.000Z</time>
      </trkpt>
      <trkpt lat="41.84903715737164020538330078125" lon="-2.7868042699992656707763671875">
        <ele>1094.800048828125</ele>
        <time>2019-07-07T16:40:06.000Z</time>
      </trkpt>
      <trkpt lat="41.84920412488281726837158203125" lon="-2.78694315813481807708740234375">
        <ele>1092.5999755859375</ele>
        <time>2019-07-07T16:40:07.000Z</time>
      </trkpt>
      <trkpt lat="41.8493681587278842926025390625" lon="-2.78708213008940219879150390625">
        <ele>1090.4000244140625</ele>
        <time>2019-07-07T16:40:08.000Z</time>
      </trkpt>
      <trkpt lat="41.84953252784907817840576171875" lon="-2.7872190065681934356689453125">
        <ele>1089.199951171875</ele>
        <time>2019-07-07T16:40:09.000Z</time>
      </trkpt>
      <trkpt lat="41.85002303682267665863037109375" lon="-2.787628211081027984619140625">
        <ele>1087.800048828125</ele>
        <time>2019-07-07T16:40:11.000Z</time>
      </trkpt>
      <trkpt lat="41.8501865677535533905029296875" lon="-2.7877651713788509368896484375">
        <ele>1086.4000244140625</ele>
        <time>2019-07-07T16:40:13.000Z</time>
      </trkpt>
      <trkpt lat="41.8505084328353404998779296875" lon="-2.78805912472307682037353515625">
        <ele>1085.199951171875</ele>
        <time>2019-07-07T16:40:15.000Z</time>
      </trkpt>
      <trkpt lat="41.850799955427646636962890625" lon="-2.78841820545494556427001953125">
        <ele>1084.199951171875</ele>
        <time>2019-07-07T16:40:16.000Z</time>
      </trkpt>
      <trkpt lat="41.850799955427646636962890625" lon="-2.78841820545494556427001953125">
        <ele>1083.5999755859375</ele>
        <time>2019-07-07T16:40:17.000Z</time>
      </trkpt>
      <trkpt lat="41.85106406919658184051513671875" lon="-2.788854651153087615966796875">
        <ele>1082.199951171875</ele>
        <time>2019-07-07T16:40:19.000Z</time>
      </trkpt>
      <trkpt lat="41.85118963010609149932861328125" lon="-2.7890972234308719635009765625">
        <ele>1081.199951171875</ele>
        <time>2019-07-07T16:40:20.000Z</time>
      </trkpt>
      <trkpt lat="41.85131569392979145050048828125" lon="-2.78934440575540065765380859375">
        <ele>1079</ele>
        <time>2019-07-07T16:40:21.000Z</time>
      </trkpt>
      <trkpt lat="41.851442344486713409423828125" lon="-2.78959368355572223663330078125">
        <ele>1076.800048828125</ele>
        <time>2019-07-07T16:40:22.000Z</time>
      </trkpt>
      <trkpt lat="41.85156832449138164520263671875" lon="-2.78984715230762958526611328125">
        <ele>1075.199951171875</ele>
        <time>2019-07-07T16:40:23.000Z</time>
      </trkpt>
      <trkpt lat="41.851822547614574432373046875" lon="-2.79035023413598537445068359375">
        <ele>1074</ele>
        <time>2019-07-07T16:40:25.000Z</time>
      </trkpt>
      <trkpt lat="41.852083392441272735595703125" lon="-2.79085381887853145599365234375">
        <ele>1074.800048828125</ele>
        <time>2019-07-07T16:40:27.000Z</time>
      </trkpt>
      <trkpt lat="41.8522146530449390411376953125" lon="-2.79110829345881938934326171875">
        <ele>1075.5999755859375</ele>
        <time>2019-07-07T16:40:28.000Z</time>
      </trkpt>
      <trkpt lat="41.8524934351444244384765625" lon="-2.79160114936530590057373046875">
        <ele>1077.4000244140625</ele>
        <time>2019-07-07T16:40:30.000Z</time>
      </trkpt>
      <trkpt lat="41.85265478678047657012939453125" lon="-2.79182276688516139984130859375">
        <ele>1077.800048828125</ele>
        <time>2019-07-07T16:40:31.000Z</time>
      </trkpt>
      <trkpt lat="41.85301688499748706817626953125" lon="-2.7922082506120204925537109375">
        <ele>1078</ele>
        <time>2019-07-07T16:40:33.000Z</time>
      </trkpt>
      <trkpt lat="41.853397674858570098876953125" lon="-2.7925539202988147735595703125">
        <ele>1078.4000244140625</ele>
        <time>2019-07-07T16:40:35.000Z</time>
      </trkpt>
      <trkpt lat="41.85378014110028743743896484375" lon="-2.79288911260664463043212890625">
        <ele>1078.5999755859375</ele>
        <time>2019-07-07T16:40:37.000Z</time>
      </trkpt>
      <trkpt lat="41.85416520573198795318603515625" lon="-2.79322137124836444854736328125">
        <ele>1079.199951171875</ele>
        <time>2019-07-07T16:40:39.000Z</time>
      </trkpt>
      <trkpt lat="41.85455345548689365386962890625" lon="-2.793492861092090606689453125">
        <ele>1077.800048828125</ele>
        <time>2019-07-07T16:40:41.000Z</time>
      </trkpt>
      <trkpt lat="41.85508704744279384613037109375" lon="-2.79370835982263088226318359375">
        <ele>1077.5999755859375</ele>
        <time>2019-07-07T16:40:44.000Z</time>
      </trkpt>
      <trkpt lat="41.85523373074829578399658203125" lon="-2.7937324158847332000732421875">
        <ele>1077.5999755859375</ele>
        <time>2019-07-07T16:40:45.000Z</time>
      </trkpt>
      <trkpt lat="41.8553759716451168060302734375" lon="-2.7937391214072704315185546875">
        <ele>1077</ele>
        <time>2019-07-07T16:40:46.000Z</time>
      </trkpt>
      <trkpt lat="41.85564436018466949462890625" lon="-2.79373534955084323883056640625">
        <ele>1078</ele>
        <time>2019-07-07T16:40:48.000Z</time>
      </trkpt>
      <trkpt lat="41.8562429957091808319091796875" lon="-2.79356301762163639068603515625">
        <ele>1076</ele>
        <time>2019-07-07T16:40:52.000Z</time>
      </trkpt>
      <trkpt lat="41.85640853829681873321533203125" lon="-2.79347349889576435089111328125">
        <ele>1075</ele>
        <time>2019-07-07T16:40:53.000Z</time>
      </trkpt>
      <trkpt lat="41.85657399706542491912841796875" lon="-2.79335782863199710845947265625">
        <ele>1074.199951171875</ele>
        <time>2019-07-07T16:40:54.000Z</time>
      </trkpt>
      <trkpt lat="41.8567415513098239898681640625" lon="-2.79322606511414051055908203125">
        <ele>1073.199951171875</ele>
        <time>2019-07-07T16:40:55.000Z</time>
      </trkpt>
      <trkpt lat="41.8572342395782470703125" lon="-2.79275634326040744781494140625">
        <ele>1071.800048828125</ele>
        <time>2019-07-07T16:40:57.000Z</time>
      </trkpt>
      <trkpt lat="41.8573933281004428863525390625" lon="-2.79259591363370418548583984375">
        <ele>1070.199951171875</ele>
        <time>2019-07-07T16:40:58.000Z</time>
      </trkpt>
      <trkpt lat="41.85754126869142055511474609375" lon="-2.79243548400700092315673828125">
        <ele>1069</ele>
        <time>2019-07-07T16:40:59.000Z</time>
      </trkpt>
      <trkpt lat="41.85767479240894317626953125" lon="-2.79226684011518955230712890625">
        <ele>1067.199951171875</ele>
        <time>2019-07-07T16:41:00.000Z</time>
      </trkpt>
      <trkpt lat="41.85779557563364505767822265625" lon="-2.79208277352154254913330078125">
        <ele>1065</ele>
        <time>2019-07-07T16:41:01.000Z</time>
      </trkpt>
      <trkpt lat="41.85790319927036762237548828125" lon="-2.791880182921886444091796875">
        <ele>1064</ele>
        <time>2019-07-07T16:41:02.000Z</time>
      </trkpt>
      <trkpt lat="41.85800596140325069427490234375" lon="-2.7916684560477733612060546875">
        <ele>1062.800048828125</ele>
        <time>2019-07-07T16:41:03.000Z</time>
      </trkpt>
      <trkpt lat="41.85819220729172229766845703125" lon="-2.79121591709554195404052734375">
        <ele>1061.5999755859375</ele>
        <time>2019-07-07T16:41:05.000Z</time>
      </trkpt>
      <trkpt lat="41.8583719991147518157958984375" lon="-2.79073211364448070526123046875">
        <ele>1060.199951171875</ele>
        <time>2019-07-07T16:41:07.000Z</time>
      </trkpt>
      <trkpt lat="41.8583719991147518157958984375" lon="-2.79073211364448070526123046875">
        <ele>1058.800048828125</ele>
        <time>2019-07-07T16:41:08.000Z</time>
      </trkpt>
      <trkpt lat="41.858681626617908477783203125" lon="-2.7900507487356662750244140625">
        <ele>1057.199951171875</ele>
        <time>2019-07-07T16:41:10.000Z</time>
      </trkpt>
      <trkpt lat="41.85893584974110126495361328125" lon="-2.7896393649280071258544921875">
        <ele>1055.4000244140625</ele>
        <time>2019-07-07T16:41:12.000Z</time>
      </trkpt>
      <trkpt lat="41.8592349998652935028076171875" lon="-2.7892715670168399810791015625">
        <ele>1055.199951171875</ele>
        <time>2019-07-07T16:41:14.000Z</time>
      </trkpt>
      <trkpt lat="41.85978644527494907379150390625" lon="-2.78884551487863063812255859375">
        <ele>1055.5999755859375</ele>
        <time>2019-07-07T16:41:17.000Z</time>
      </trkpt>
      <trkpt lat="41.86038793064653873443603515625" lon="-2.7885379828512668609619140625">
        <ele>1056.199951171875</ele>
        <time>2019-07-07T16:41:20.000Z</time>
      </trkpt>
      <trkpt lat="41.8609512783586978912353515625" lon="-2.78827403672039508819580078125">
        <ele>1055.4000244140625</ele>
        <time>2019-07-07T16:41:23.000Z</time>
      </trkpt>
      <trkpt lat="41.8614796735346317291259765625" lon="-2.788015790283679962158203125">
        <ele>1054.800048828125</ele>
        <time>2019-07-07T16:41:26.000Z</time>
      </trkpt>
      <trkpt lat="41.8616526760160923004150390625" lon="-2.78793339617550373077392578125">
        <ele>1054.4000244140625</ele>
        <time>2019-07-07T16:41:27.000Z</time>
      </trkpt>
      <trkpt lat="41.8621467053890228271484375" lon="-2.78769602067768573760986328125">
        <ele>1053.4000244140625</ele>
        <time>2019-07-07T16:41:31.000Z</time>
      </trkpt>
      <trkpt lat="41.86229799874126911163330078125" lon="-2.787626869976520538330078125">
        <ele>1052.800048828125</ele>
        <time>2019-07-07T16:41:32.000Z</time>
      </trkpt>
      <trkpt lat="41.86284072697162628173828125" lon="-2.78742142952978610992431640625">
        <ele>1053.5999755859375</ele>
        <time>2019-07-07T16:41:35.000Z</time>
      </trkpt>
      <trkpt lat="41.8629729934036731719970703125" lon="-2.787391506135463714599609375">
        <ele>1053.800048828125</ele>
        <time>2019-07-07T16:41:37.000Z</time>
      </trkpt>
      <trkpt lat="41.86324574053287506103515625" lon="-2.78736032545566558837890625">
        <ele>1054</ele>
        <time>2019-07-07T16:41:38.000Z</time>
      </trkpt>
      <trkpt lat="41.86398041434586048126220703125" lon="-2.7873350121080875396728515625">
        <ele>1054</ele>
        <time>2019-07-07T16:41:43.000Z</time>
      </trkpt>
      <trkpt lat="41.864488609135150909423828125" lon="-2.78731246478855609893798828125">
        <ele>1055</ele>
        <time>2019-07-07T16:41:47.000Z</time>
      </trkpt>
      <trkpt lat="41.86485699377954006195068359375" lon="-2.78726133517920970916748046875">
        <ele>1056</ele>
        <time>2019-07-07T16:41:51.000Z</time>
      </trkpt>
      <trkpt lat="41.86498674564063549041748046875" lon="-2.78721758164465427398681640625">
        <ele>1056.4000244140625</ele>
        <time>2019-07-07T16:41:52.000Z</time>
      </trkpt>
      <trkpt lat="41.8652451597154140472412109375" lon="-2.7870530448853969573974609375">
        <ele>1056.5999755859375</ele>
        <time>2019-07-07T16:41:54.000Z</time>
      </trkpt>
      <trkpt lat="41.86545931734144687652587890625" lon="-2.78680636547505855560302734375">
        <ele>1056.4000244140625</ele>
        <time>2019-07-07T16:41:56.000Z</time>
      </trkpt>
      <trkpt lat="41.86561656184494495391845703125" lon="-2.78651584871113300323486328125">
        <ele>1056.4000244140625</ele>
        <time>2019-07-07T16:41:58.000Z</time>
      </trkpt>
      <trkpt lat="41.86583616770803928375244140625" lon="-2.78585837222635746002197265625">
        <ele>1056.4000244140625</ele>
        <time>2019-07-07T16:42:01.000Z</time>
      </trkpt>
      <trkpt lat="41.8659747205674648284912109375" lon="-2.785384543240070343017578125">
        <ele>1056.4000244140625</ele>
        <time>2019-07-07T16:42:05.000Z</time>
      </trkpt>
      <trkpt lat="41.866104640066623687744140625" lon="-2.78495631180703639984130859375">
        <ele>1057.4000244140625</ele>
        <time>2019-07-07T16:42:08.000Z</time>
      </trkpt>
      <trkpt lat="41.86626682989299297332763671875" lon="-2.78450310230255126953125">
        <ele>1058.4000244140625</ele>
        <time>2019-07-07T16:42:10.000Z</time>
      </trkpt>
      <trkpt lat="41.86643086373805999755859375" lon="-2.7841941453516483306884765625">
        <ele>1059.5999755859375</ele>
        <time>2019-07-07T16:42:13.000Z</time>
      </trkpt>
      <trkpt lat="41.86667687259614467620849609375" lon="-2.78390320949256420135498046875">
        <ele>1060.800048828125</ele>
        <time>2019-07-07T16:42:15.000Z</time>
      </trkpt>
      <trkpt lat="41.8671361170709133148193359375" lon="-2.78349970467388629913330078125">
        <ele>1062.199951171875</ele>
        <time>2019-07-07T16:42:18.000Z</time>
      </trkpt>
      <trkpt lat="41.8677640892565250396728515625" lon="-2.78290023095905780792236328125">
        <ele>1061.800048828125</ele>
        <time>2019-07-07T16:42:21.000Z</time>
      </trkpt>
      <trkpt lat="41.868025101721286773681640625" lon="-2.78254047967493534088134765625">
        <ele>1060</ele>
        <time>2019-07-07T16:42:23.000Z</time>
      </trkpt>
      <trkpt lat="41.86814839951694011688232421875" lon="-2.782360352575778961181640625">
        <ele>1058.4000244140625</ele>
        <time>2019-07-07T16:42:24.000Z</time>
      </trkpt>
      <trkpt lat="41.86814839951694011688232421875" lon="-2.782360352575778961181640625">
        <ele>1057</ele>
        <time>2019-07-07T16:42:25.000Z</time>
      </trkpt>
      <trkpt lat="41.86841645278036594390869140625" lon="-2.7820309437811374664306640625">
        <ele>1056.4000244140625</ele>
        <time>2019-07-07T16:42:26.000Z</time>
      </trkpt>
      <trkpt lat="41.86872038058936595916748046875" lon="-2.78176791965961456298828125">
        <ele>1056</ele>
        <time>2019-07-07T16:42:28.000Z</time>
      </trkpt>
      <trkpt lat="41.8688875995576381683349609375" lon="-2.78166574425995349884033203125">
        <ele>1055.800048828125</ele>
        <time>2019-07-07T16:42:29.000Z</time>
      </trkpt>
      <trkpt lat="41.86941758729517459869384765625" lon="-2.7813664264976978302001953125">
        <ele>1055</ele>
        <time>2019-07-07T16:42:32.000Z</time>
      </trkpt>
      <trkpt lat="41.86941758729517459869384765625" lon="-2.7813664264976978302001953125">
        <ele>1054.800048828125</ele>
        <time>2019-07-07T16:42:33.000Z</time>
      </trkpt>
      <trkpt lat="41.86974196694791316986083984375" lon="-2.78110549785196781158447265625">
        <ele>1054.199951171875</ele>
        <time>2019-07-07T16:42:34.000Z</time>
      </trkpt>
      <trkpt lat="41.8700225092470645904541015625" lon="-2.78073485009372234344482421875">
        <ele>1053.199951171875</ele>
        <time>2019-07-07T16:42:36.000Z</time>
      </trkpt>
      <trkpt lat="41.8702575378119945526123046875" lon="-2.7802948839962482452392578125">
        <ele>1051.5999755859375</ele>
        <time>2019-07-07T16:42:38.000Z</time>
      </trkpt>
      <trkpt lat="41.8703779019415378570556640625" lon="-2.780066393315792083740234375">
        <ele>1050.4000244140625</ele>
        <time>2019-07-07T16:42:39.000Z</time>
      </trkpt>
      <trkpt lat="41.87063011340796947479248046875" lon="-2.77963883243501186370849609375">
        <ele>1049.199951171875</ele>
        <time>2019-07-07T16:42:41.000Z</time>
      </trkpt>
      <trkpt lat="41.8709508888423442840576171875" lon="-2.77931344695389270782470703125">
        <ele>1049.199951171875</ele>
        <time>2019-07-07T16:42:43.000Z</time>
      </trkpt>
      <trkpt lat="41.87113705091178417205810546875" lon="-2.77920414693653583526611328125">
        <ele>1050.5999755859375</ele>
        <time>2019-07-07T16:42:45.000Z</time>
      </trkpt>
      <trkpt lat="41.87154642306268215179443359375" lon="-2.77909585274755954742431640625">
        <ele>1052</ele>
        <time>2019-07-07T16:42:47.000Z</time>
      </trkpt>
      <trkpt lat="41.872192919254302978515625" lon="-2.7790962718427181243896484375">
        <ele>1052.5999755859375</ele>
        <time>2019-07-07T16:42:50.000Z</time>
      </trkpt>
      <trkpt lat="41.8726074881851673126220703125" lon="-2.7791579626500606536865234375">
        <ele>1052.4000244140625</ele>
        <time>2019-07-07T16:42:51.000Z</time>
      </trkpt>
      <trkpt lat="41.87300453893840312957763671875" lon="-2.77933926321566104888916015625">
        <ele>1051.5999755859375</ele>
        <time>2019-07-07T16:42:54.000Z</time>
      </trkpt>
      <trkpt lat="41.8735408969223499298095703125" lon="-2.7797644771635532379150390625">
        <ele>1052.4000244140625</ele>
        <time>2019-07-07T16:42:57.000Z</time>
      </trkpt>
      <trkpt lat="41.87371700070798397064208984375" lon="-2.779905796051025390625">
        <ele>1053.4000244140625</ele>
        <time>2019-07-07T16:42:58.000Z</time>
      </trkpt>
      <trkpt lat="41.87389637343585491180419921875" lon="-2.78002993203699588775634765625">
        <ele>1055</ele>
        <time>2019-07-07T16:42:59.000Z</time>
      </trkpt>
      <trkpt lat="41.8740816973149776458740234375" lon="-2.7801269106566905975341796875">
        <ele>1056.5999755859375</ele>
        <time>2019-07-07T16:43:00.000Z</time>
      </trkpt>
      <trkpt lat="41.8742758221924304962158203125" lon="-2.7801949717104434967041015625">
        <ele>1058.800048828125</ele>
        <time>2019-07-07T16:43:01.000Z</time>
      </trkpt>
      <trkpt lat="41.87447690404951572418212890625" lon="-2.78023235499858856201171875">
        <ele>1061.4000244140625</ele>
        <time>2019-07-07T16:43:02.000Z</time>
      </trkpt>
      <trkpt lat="41.87467865645885467529296875" lon="-2.7802397310733795166015625">
        <ele>1063.5999755859375</ele>
        <time>2019-07-07T16:43:03.000Z</time>
      </trkpt>
      <trkpt lat="41.8748766370117664337158203125" lon="-2.78022523038089275360107421875">
        <ele>1064.800048828125</ele>
        <time>2019-07-07T16:43:04.000Z</time>
      </trkpt>
      <trkpt lat="41.8750690855085849761962890625" lon="-2.78020142577588558197021484375">
        <ele>1066</ele>
        <time>2019-07-07T16:43:05.000Z</time>
      </trkpt>
      <trkpt lat="41.8756065331399440765380859375" lon="-2.78013738803565502166748046875">
        <ele>1066.800048828125</ele>
        <time>2019-07-07T16:43:08.000Z</time>
      </trkpt>
      <trkpt lat="41.87595278955996036529541015625" lon="-2.780099920928478240966796875">
        <ele>1067.199951171875</ele>
        <time>2019-07-07T16:43:10.000Z</time>
      </trkpt>
      <trkpt lat="41.87630147673189640045166015625" lon="-2.7800628729164600372314453125">
        <ele>1068.800048828125</ele>
        <time>2019-07-07T16:43:12.000Z</time>
      </trkpt>
      <trkpt lat="41.87665276229381561279296875" lon="-2.78001568280160427093505859375">
        <ele>1070.800048828125</ele>
        <time>2019-07-07T16:43:14.000Z</time>
      </trkpt>
      <trkpt lat="41.8770076520740985870361328125" lon="-2.7799415029585361480712890625">
        <ele>1072.800048828125</ele>
        <time>2019-07-07T16:43:16.000Z</time>
      </trkpt>
      <trkpt lat="41.87756898812949657440185546875" lon="-2.77974645607173442840576171875">
        <ele>1074</ele>
        <time>2019-07-07T16:43:18.000Z</time>
      </trkpt>
      <trkpt lat="41.87814465723931789398193359375" lon="-2.77954428456723690032958984375">
        <ele>1074.4000244140625</ele>
        <time>2019-07-07T16:43:22.000Z</time>
      </trkpt>
      <trkpt lat="41.8786924146115779876708984375" lon="-2.77946800924837589263916015625">
        <ele>1074.800048828125</ele>
        <time>2019-07-07T16:43:24.000Z</time>
      </trkpt>
      <trkpt lat="41.8786924146115779876708984375" lon="-2.77946800924837589263916015625">
        <ele>1075</ele>
        <time>2019-07-07T16:43:25.000Z</time>
      </trkpt>
      <trkpt lat="41.87906113453209400177001953125" lon="-2.77950857765972614288330078125">
        <ele>1077</ele>
        <time>2019-07-07T16:43:27.000Z</time>
      </trkpt>
      <trkpt lat="41.879252158105373382568359375" lon="-2.7795418538153171539306640625">
        <ele>1078.199951171875</ele>
        <time>2019-07-07T16:43:28.000Z</time>
      </trkpt>
      <trkpt lat="41.87978683970868587493896484375" lon="-2.7796518243849277496337890625">
        <ele>1079.800048828125</ele>
        <time>2019-07-07T16:43:30.000Z</time>
      </trkpt>
      <trkpt lat="41.87994383275508880615234375" lon="-2.77968828566372394561767578125">
        <ele>1081.199951171875</ele>
        <time>2019-07-07T16:43:32.000Z</time>
      </trkpt>
      <trkpt lat="41.88037030398845672607421875" lon="-2.7798213064670562744140625">
        <ele>1082.5999755859375</ele>
        <time>2019-07-07T16:43:35.000Z</time>
      </trkpt>
      <trkpt lat="41.88066442497074604034423828125" lon="-2.7799418382346630096435546875">
        <ele>1083.800048828125</ele>
        <time>2019-07-07T16:43:37.000Z</time>
      </trkpt>
      <trkpt lat="41.88112475909292697906494140625" lon="-2.7801554091274738311767578125">
        <ele>1084.4000244140625</ele>
        <time>2019-07-07T16:43:40.000Z</time>
      </trkpt>
      <trkpt lat="41.8814249150454998016357421875" lon="-2.78029815293848514556884765625">
        <ele>1085.199951171875</ele>
        <time>2019-07-07T16:43:42.000Z</time>
      </trkpt>
      <trkpt lat="41.88197250477969646453857421875" lon="-2.780555896461009979248046875">
        <ele>1085.199951171875</ele>
        <time>2019-07-07T16:43:45.000Z</time>
      </trkpt>
      <trkpt lat="41.882354132831096649169921875" lon="-2.78074306435883045196533203125">
        <ele>1083.5999755859375</ele>
        <time>2019-07-07T16:43:49.000Z</time>
      </trkpt>
      <trkpt lat="41.88262361101806163787841796875" lon="-2.7808765880763530731201171875">
        <ele>1082.199951171875</ele>
        <time>2019-07-07T16:43:51.000Z</time>
      </trkpt>
      <trkpt lat="41.88292535953223705291748046875" lon="-2.7810237742960453033447265625">
        <ele>1080</ele>
        <time>2019-07-07T16:43:53.000Z</time>
      </trkpt>
      <trkpt lat="41.88308604061603546142578125" lon="-2.78111438266932964324951171875">
        <ele>1078.5999755859375</ele>
        <time>2019-07-07T16:43:54.000Z</time>
      </trkpt>
      <trkpt lat="41.8832478113472461700439453125" lon="-2.78121647424995899200439453125">
        <ele>1077</ele>
        <time>2019-07-07T16:43:55.000Z</time>
      </trkpt>
      <trkpt lat="41.88340765424072742462158203125" lon="-2.78133197687566280364990234375">
        <ele>1076</ele>
        <time>2019-07-07T16:43:56.000Z</time>
      </trkpt>
      <trkpt lat="41.88369892537593841552734375" lon="-2.7815893851220607757568359375">
        <ele>1074.5999755859375</ele>
        <time>2019-07-07T16:43:58.000Z</time>
      </trkpt>
      <trkpt lat="41.88407979905605316162109375" lon="-2.78204997070133686065673828125">
        <ele>1074.199951171875</ele>
        <time>2019-07-07T16:44:01.000Z</time>
      </trkpt>
      <trkpt lat="41.8843984790146350860595703125" lon="-2.78258322738111019134521484375">
        <ele>1074.199951171875</ele>
        <time>2019-07-07T16:44:04.000Z</time>
      </trkpt>
      <trkpt lat="41.88456603325903415679931640625" lon="-2.782972566783428192138671875">
        <ele>1076.5999755859375</ele>
        <time>2019-07-07T16:44:06.000Z</time>
      </trkpt>
      <trkpt lat="41.88464180566370487213134765625" lon="-2.7831792645156383514404296875">
        <ele>1078.4000244140625</ele>
        <time>2019-07-07T16:44:07.000Z</time>
      </trkpt>
      <trkpt lat="41.88478429801762104034423828125" lon="-2.7836178056895732879638671875">
        <ele>1079.800048828125</ele>
        <time>2019-07-07T16:44:09.000Z</time>
      </trkpt>
      <trkpt lat="41.88492427580058574676513671875" lon="-2.784070260822772979736328125">
        <ele>1077</ele>
        <time>2019-07-07T16:44:11.000Z</time>
      </trkpt>
      <trkpt lat="41.8849949352443218231201171875" lon="-2.78428810648620128631591796875">
        <ele>1074.199951171875</ele>
        <time>2019-07-07T16:44:12.000Z</time>
      </trkpt>
      <trkpt lat="41.885064505040645599365234375" lon="-2.7844982407987117767333984375">
        <ele>1071.800048828125</ele>
        <time>2019-07-07T16:44:13.000Z</time>
      </trkpt>
      <trkpt lat="41.8851377628743648529052734375" lon="-2.7846997417509555816650390625">
        <ele>1070.4000244140625</ele>
        <time>2019-07-07T16:44:14.000Z</time>
      </trkpt>
      <trkpt lat="41.88538343645632266998291015625" lon="-2.7852224372327327728271484375">
        <ele>1069.5999755859375</ele>
        <time>2019-07-07T16:44:17.000Z</time>
      </trkpt>
      <trkpt lat="41.885796077549457550048828125" lon="-2.78574069030582904815673828125">
        <ele>1071.800048828125</ele>
        <time>2019-07-07T16:44:21.000Z</time>
      </trkpt>
      <trkpt lat="41.88597452826797962188720703125" lon="-2.7858911454677581787109375">
        <ele>1073.199951171875</ele>
        <time>2019-07-07T16:44:24.000Z</time>
      </trkpt>
      <trkpt lat="41.88642027787864208221435546875" lon="-2.7862091548740863800048828125">
        <ele>1072.199951171875</ele>
        <time>2019-07-07T16:44:29.000Z</time>
      </trkpt>
      <trkpt lat="41.886594705283641815185546875" lon="-2.78633882291615009307861328125">
        <ele>1070.800048828125</ele>
        <time>2019-07-07T16:44:31.000Z</time>
      </trkpt>
      <trkpt lat="41.88685311935842037200927734375" lon="-2.78652942739427089691162109375">
        <ele>1069.5999755859375</ele>
        <time>2019-07-07T16:44:33.000Z</time>
      </trkpt>
      <trkpt lat="41.88693526200950145721435546875" lon="-2.786597907543182373046875">
        <ele>1068</ele>
        <time>2019-07-07T16:44:35.000Z</time>
      </trkpt>
      <trkpt lat="41.88700969330966472625732421875" lon="-2.78666990809142589569091796875">
        <ele>1067.4000244140625</ele>
        <time>2019-07-07T16:44:36.000Z</time>
      </trkpt>
      <trkpt lat="41.8870753236114978790283203125" lon="-2.786750458180904388427734375">
        <ele>1066.5999755859375</ele>
        <time>2019-07-07T16:44:37.000Z</time>
      </trkpt>
      <trkpt lat="41.88713341020047664642333984375" lon="-2.7868371270596981048583984375">
        <ele>1066.199951171875</ele>
        <time>2019-07-07T16:44:38.000Z</time>
      </trkpt>
      <trkpt lat="41.88726785592734813690185546875" lon="-2.78709889389574527740478515625">
        <ele>1065.5999755859375</ele>
        <time>2019-07-07T16:44:41.000Z</time>
      </trkpt>
      <trkpt lat="41.8875081650912761688232421875" lon="-2.7876441366970539093017578125">
        <ele>1065</ele>
        <time>2019-07-07T16:44:48.000Z</time>
      </trkpt>
      <trkpt lat="41.88762961886823177337646484375" lon="-2.78795720078051090240478515625">
        <ele>1065.199951171875</ele>
        <time>2019-07-07T16:44:52.000Z</time>
      </trkpt>
      <trkpt lat="41.88765225000679492950439453125" lon="-2.78813280165195465087890625">
        <ele>1065.199951171875</ele>
        <time>2019-07-07T16:44:54.000Z</time>
      </trkpt>
      <trkpt lat="41.8875953368842601776123046875" lon="-2.7888477779924869537353515625">
        <ele>1065.800048828125</ele>
        <time>2019-07-07T16:45:00.000Z</time>
      </trkpt>
      <trkpt lat="41.88759810291230678558349609375" lon="-2.7894879877567291259765625">
        <ele>1066.800048828125</ele>
        <time>2019-07-07T16:45:04.000Z</time>
      </trkpt>
      <trkpt lat="41.887628026306629180908203125" lon="-2.7898286283016204833984375">
        <ele>1068.199951171875</ele>
        <time>2019-07-07T16:45:06.000Z</time>
      </trkpt>
      <trkpt lat="41.88765518367290496826171875" lon="-2.79000909067690372467041015625">
        <ele>1069</ele>
        <time>2019-07-07T16:45:07.000Z</time>
      </trkpt>
      <trkpt lat="41.8876918964087963104248046875" lon="-2.79019407927989959716796875">
        <ele>1069.4000244140625</ele>
        <time>2019-07-07T16:45:08.000Z</time>
      </trkpt>
      <trkpt lat="41.8878437764942646026611328125" lon="-2.79076111502945423126220703125">
        <ele>1070.199951171875</ele>
        <time>2019-07-07T16:45:11.000Z</time>
      </trkpt>
      <trkpt lat="41.88804653473198413848876953125" lon="-2.79137165285646915435791015625">
        <ele>1069</ele>
        <time>2019-07-07T16:45:14.000Z</time>
      </trkpt>
      <trkpt lat="41.88822456635534763336181640625" lon="-2.79178236611187458038330078125">
        <ele>1068.199951171875</ele>
        <time>2019-07-07T16:45:16.000Z</time>
      </trkpt>
      <trkpt lat="41.8884958885610103607177734375" lon="-2.79239323921501636505126953125">
        <ele>1067.800048828125</ele>
        <time>2019-07-07T16:45:19.000Z</time>
      </trkpt>
      <trkpt lat="41.88882253132760524749755859375" lon="-2.7931279130280017852783203125">
        <ele>1069.5999755859375</ele>
        <time>2019-07-07T16:45:22.000Z</time>
      </trkpt>
      <trkpt lat="41.88896066509187221527099609375" lon="-2.793514989316463470458984375">
        <ele>1070</ele>
        <time>2019-07-07T16:45:24.000Z</time>
      </trkpt>
      <trkpt lat="41.88908957876265048980712890625" lon="-2.794141285121440887451171875">
        <ele>1068.4000244140625</ele>
        <time>2019-07-07T16:45:28.000Z</time>
      </trkpt>
      <trkpt lat="41.88913769088685512542724609375" lon="-2.7945250086486339569091796875">
        <ele>1067.4000244140625</ele>
        <time>2019-07-07T16:45:30.000Z</time>
      </trkpt>
      <trkpt lat="41.88919837586581707000732421875" lon="-2.7950081415474414825439453125">
        <ele>1068</ele>
        <time>2019-07-07T16:45:33.000Z</time>
      </trkpt>
      <trkpt lat="41.889221258461475372314453125" lon="-2.7951580099761486053466796875">
        <ele>1068.5999755859375</ele>
        <time>2019-07-07T16:45:34.000Z</time>
      </trkpt>
      <trkpt lat="41.8892928399145603179931640625" lon="-2.79557048343122005462646484375">
        <ele>1069.800048828125</ele>
        <time>2019-07-07T16:45:36.000Z</time>
      </trkpt>
      <trkpt lat="41.889339946210384368896484375" lon="-2.7958225272595882415771484375">
        <ele>1071</ele>
        <time>2019-07-07T16:45:39.000Z</time>
      </trkpt>
      <trkpt lat="41.88947296701371669769287109375" lon="-2.79649115167558193206787109375">
        <ele>1071.5999755859375</ele>
        <time>2019-07-07T16:45:44.000Z</time>
      </trkpt>
      <trkpt lat="41.88964764587581157684326171875" lon="-2.7972001768648624420166015625">
        <ele>1070.4000244140625</ele>
        <time>2019-07-07T16:45:48.000Z</time>
      </trkpt>
      <trkpt lat="41.88964764587581157684326171875" lon="-2.7972001768648624420166015625">
        <ele>1069.800048828125</ele>
        <time>2019-07-07T16:45:49.000Z</time>
      </trkpt>
      <trkpt lat="41.8897172994911670684814453125" lon="-2.797613404691219329833984375">
        <ele>1068.800048828125</ele>
        <time>2019-07-07T16:45:51.000Z</time>
      </trkpt>
      <trkpt lat="41.88973926007747650146484375" lon="-2.79787131585180759429931640625">
        <ele>1067.4000244140625</ele>
        <time>2019-07-07T16:45:54.000Z</time>
      </trkpt>
      <trkpt lat="41.8897967599332332611083984375" lon="-2.79850062914192676544189453125">
        <ele>1066.800048828125</ele>
        <time>2019-07-07T16:45:58.000Z</time>
      </trkpt>
      <trkpt lat="41.88986104913055896759033203125" lon="-2.7991769649088382720947265625">
        <ele>1066.4000244140625</ele>
        <time>2019-07-07T16:46:03.000Z</time>
      </trkpt>
      <trkpt lat="41.88989055342972278594970703125" lon="-2.799311242997646331787109375">
        <ele>1066.4000244140625</ele>
        <time>2019-07-07T16:46:05.000Z</time>
      </trkpt>
      <trkpt lat="41.89015374518930912017822265625" lon="-2.80018388293683528900146484375">
        <ele>1066.199951171875</ele>
        <time>2019-07-07T16:46:10.000Z</time>
      </trkpt>
      <trkpt lat="41.8903077207505702972412109375" lon="-2.8004935942590236663818359375">
        <ele>1066</ele>
        <time>2019-07-07T16:46:12.000Z</time>
      </trkpt>
      <trkpt lat="41.8905923701822757720947265625" lon="-2.80105895362794399261474609375">
        <ele>1065.4000244140625</ele>
        <time>2019-07-07T16:46:17.000Z</time>
      </trkpt>
      <trkpt lat="41.890703178942203521728515625" lon="-2.80130269937217235565185546875">
        <ele>1065</ele>
        <time>2019-07-07T16:46:18.000Z</time>
      </trkpt>
      <trkpt lat="41.89098640345036983489990234375" lon="-2.80192472040653228759765625">
        <ele>1065.4000244140625</ele>
        <time>2019-07-07T16:46:23.000Z</time>
      </trkpt>
      <trkpt lat="41.89112017862498760223388671875" lon="-2.8022014908492565155029296875">
        <ele>1066.199951171875</ele>
        <time>2019-07-07T16:46:25.000Z</time>
      </trkpt>
      <trkpt lat="41.891258060932159423828125" lon="-2.8024673648178577423095703125">
        <ele>1067.4000244140625</ele>
        <time>2019-07-07T16:46:28.000Z</time>
      </trkpt>
      <trkpt lat="41.891619823873043060302734375" lon="-2.802975475788116455078125">
        <ele>1068.4000244140625</ele>
        <time>2019-07-07T16:46:31.000Z</time>
      </trkpt>
      <trkpt lat="41.89193506725132465362548828125" lon="-2.80340957455337047576904296875">
        <ele>1068.199951171875</ele>
        <time>2019-07-07T16:46:35.000Z</time>
      </trkpt>
      <trkpt lat="41.892233379185199737548828125" lon="-2.8039747662842273712158203125">
        <ele>1068.5999755859375</ele>
        <time>2019-07-07T16:46:38.000Z</time>
      </trkpt>
      <trkpt lat="41.89254258759319782257080078125" lon="-2.804701142013072967529296875">
        <ele>1069.800048828125</ele>
        <time>2019-07-07T16:46:40.000Z</time>
      </trkpt>
      <trkpt lat="41.8927424959838390350341796875" lon="-2.80520372092723846435546875">
        <ele>1070.800048828125</ele>
        <time>2019-07-07T16:46:43.000Z</time>
      </trkpt>
      <trkpt lat="41.892944835126399993896484375" lon="-2.80569724738597869873046875">
        <ele>1071.800048828125</ele>
        <time>2019-07-07T16:46:44.000Z</time>
      </trkpt>
      <trkpt lat="41.8930519558489322662353515625" lon="-2.805933617055416107177734375">
        <ele>1073</ele>
        <time>2019-07-07T16:46:45.000Z</time>
      </trkpt>
      <trkpt lat="41.89336418174207210540771484375" lon="-2.80661749653518199920654296875">
        <ele>1073.199951171875</ele>
        <time>2019-07-07T16:46:48.000Z</time>
      </trkpt>
      <trkpt lat="41.8936705403029918670654296875" lon="-2.80727036297321319580078125">
        <ele>1071.5999755859375</ele>
        <time>2019-07-07T16:46:52.000Z</time>
      </trkpt>
      <trkpt lat="41.8938777409493923187255859375" lon="-2.80770747922360897064208984375">
        <ele>1071.199951171875</ele>
        <time>2019-07-07T16:46:53.000Z</time>
      </trkpt>
      <trkpt lat="41.89398595131933689117431640625" lon="-2.8079263307154178619384765625">
        <ele>1070.4000244140625</ele>
        <time>2019-07-07T16:46:55.000Z</time>
      </trkpt>
      <trkpt lat="41.89435609616339206695556640625" lon="-2.8085740841925144195556640625">
        <ele>1069.5999755859375</ele>
        <time>2019-07-07T16:46:58.000Z</time>
      </trkpt>
      <trkpt lat="41.89478055573999881744384765625" lon="-2.80919082462787628173828125">
        <ele>1071</ele>
        <time>2019-07-07T16:47:01.000Z</time>
      </trkpt>
      <trkpt lat="41.8950037658214569091796875" lon="-2.8096590377390384674072265625">
        <ele>1071</ele>
        <time>2019-07-07T16:47:03.000Z</time>
      </trkpt>
      <trkpt lat="41.89514684490859508514404296875" lon="-2.81018550507724285125732421875">
        <ele>1068.800048828125</ele>
        <time>2019-07-07T16:47:04.000Z</time>
      </trkpt>
      <trkpt lat="41.89514684490859508514404296875" lon="-2.81018550507724285125732421875">
        <ele>1067.5999755859375</ele>
        <time>2019-07-07T16:47:05.000Z</time>
      </trkpt>
      <trkpt lat="41.8951779417693614959716796875" lon="-2.81046730466187000274658203125">
        <ele>1066.4000244140625</ele>
        <time>2019-07-07T16:47:06.000Z</time>
      </trkpt>
      <trkpt lat="41.8951672129333019256591796875" lon="-2.811315469443798065185546875">
        <ele>1066</ele>
        <time>2019-07-07T16:47:09.000Z</time>
      </trkpt>
      <trkpt lat="41.89517517574131488800048828125" lon="-2.81188200227916240692138671875">
        <ele>1067.4000244140625</ele>
        <time>2019-07-07T16:47:11.000Z</time>
      </trkpt>
      <trkpt lat="41.89521121792495250701904296875" lon="-2.81214796006679534912109375">
        <ele>1069.4000244140625</ele>
        <time>2019-07-07T16:47:12.000Z</time>
      </trkpt>
      <trkpt lat="41.89526863396167755126953125" lon="-2.81240218318998813629150390625">
        <ele>1072</ele>
        <time>2019-07-07T16:47:13.000Z</time>
      </trkpt>
      <trkpt lat="41.895350106060504913330078125" lon="-2.81264961697161197662353515625">
        <ele>1074.199951171875</ele>
        <time>2019-07-07T16:47:14.000Z</time>
      </trkpt>
      <trkpt lat="41.89545362256467342376708984375" lon="-2.81289068050682544708251953125">
        <ele>1075.199951171875</ele>
        <time>2019-07-07T16:47:15.000Z</time>
      </trkpt>
      <trkpt lat="41.8959403596818447113037109375" lon="-2.81373054720461368560791015625">
        <ele>1075.199951171875</ele>
        <time>2019-07-07T16:47:18.000Z</time>
      </trkpt>
      <trkpt lat="41.89627873711287975311279296875" lon="-2.81435751356184482574462890625">
        <ele>1076.199951171875</ele>
        <time>2019-07-07T16:47:22.000Z</time>
      </trkpt>
      <trkpt lat="41.89638384617865085601806640625" lon="-2.81458985991775989532470703125">
        <ele>1076.5999755859375</ele>
        <time>2019-07-07T16:47:23.000Z</time>
      </trkpt>
      <trkpt lat="41.89668442122638225555419921875" lon="-2.81533702276647090911865234375">
        <ele>1076.199951171875</ele>
        <time>2019-07-07T16:47:25.000Z</time>
      </trkpt>
      <trkpt lat="41.89686966128647327423095703125" lon="-2.81582350842654705047607421875">
        <ele>1075.199951171875</ele>
        <time>2019-07-07T16:47:27.000Z</time>
      </trkpt>
      <trkpt lat="41.89704735763370990753173828125" lon="-2.81628769822418689727783203125">
        <ele>1073.800048828125</ele>
        <time>2019-07-07T16:47:29.000Z</time>
      </trkpt>
      <trkpt lat="41.89729294739663600921630859375" lon="-2.81698666512966156005859375">
        <ele>1074.5999755859375</ele>
        <time>2019-07-07T16:47:32.000Z</time>
      </trkpt>
      <trkpt lat="41.89749277196824550628662109375" lon="-2.81774028204381465911865234375">
        <ele>1072.4000244140625</ele>
        <time>2019-07-07T16:47:35.000Z</time>
      </trkpt>
      <trkpt lat="41.897670216858386993408203125" lon="-2.81851778738200664520263671875">
        <ele>1071</ele>
        <time>2019-07-07T16:47:38.000Z</time>
      </trkpt>
      <trkpt lat="41.8978487513959407806396484375" lon="-2.819260843098163604736328125">
        <ele>1069.5999755859375</ele>
        <time>2019-07-07T16:47:42.000Z</time>
      </trkpt>
      <trkpt lat="41.89821227453649044036865234375" lon="-2.8202074952423572540283203125">
        <ele>1072.199951171875</ele>
        <time>2019-07-07T16:47:45.000Z</time>
      </trkpt>
      <trkpt lat="41.89842785708606243133544921875" lon="-2.8206671588122844696044921875">
        <ele>1073.199951171875</ele>
        <time>2019-07-07T16:47:47.000Z</time>
      </trkpt>
      <trkpt lat="41.898535229265689849853515625" lon="-2.82089196145534515380859375">
        <ele>1075.800048828125</ele>
        <time>2019-07-07T16:47:49.000Z</time>
      </trkpt>
      <trkpt lat="41.89874854870140552520751953125" lon="-2.82133896835148334503173828125">
        <ele>1077.800048828125</ele>
        <time>2019-07-07T16:47:51.000Z</time>
      </trkpt>
      <trkpt lat="41.89906421117484569549560546875" lon="-2.82200432382524013519287109375">
        <ele>1079.800048828125</ele>
        <time>2019-07-07T16:47:54.000Z</time>
      </trkpt>
      <trkpt lat="41.8992979824542999267578125" lon="-2.82241168431937694549560546875">
        <ele>1080.4000244140625</ele>
        <time>2019-07-07T16:47:56.000Z</time>
      </trkpt>
      <trkpt lat="41.89958925358951091766357421875" lon="-2.822731621563434600830078125">
        <ele>1081</ele>
        <time>2019-07-07T16:47:58.000Z</time>
      </trkpt>
      <trkpt lat="41.9000852108001708984375" lon="-2.82307796180248260498046875">
        <ele>1081.199951171875</ele>
        <time>2019-07-07T16:48:00.000Z</time>
      </trkpt>
      <trkpt lat="41.90052383579313755035400390625" lon="-2.82344006001949310302734375">
        <ele>1081</ele>
        <time>2019-07-07T16:48:04.000Z</time>
      </trkpt>
      <trkpt lat="41.9007522426545619964599609375" lon="-2.82375513575971126556396484375">
        <ele>1082</ele>
        <time>2019-07-07T16:48:06.000Z</time>
      </trkpt>
      <trkpt lat="41.90084922127425670623779296875" lon="-2.82393752597272396087646484375">
        <ele>1083</ele>
        <time>2019-07-07T16:48:07.000Z</time>
      </trkpt>
      <trkpt lat="41.90103462897241115570068359375" lon="-2.82432963140308856964111328125">
        <ele>1084.4000244140625</ele>
        <time>2019-07-07T16:48:08.000Z</time>
      </trkpt>
      <trkpt lat="41.90103462897241115570068359375" lon="-2.82432963140308856964111328125">
        <ele>1086.199951171875</ele>
        <time>2019-07-07T16:48:09.000Z</time>
      </trkpt>
      <trkpt lat="41.90113403834402561187744140625" lon="-2.82452710904181003570556640625">
        <ele>1088</ele>
        <time>2019-07-07T16:48:10.000Z</time>
      </trkpt>
      <trkpt lat="41.90124786458909511566162109375" lon="-2.82472039572894573211669921875">
        <ele>1089.4000244140625</ele>
        <time>2019-07-07T16:48:11.000Z</time>
      </trkpt>
      <trkpt lat="41.90152547322213649749755859375" lon="-2.82509054057300090789794921875">
        <ele>1091.199951171875</ele>
        <time>2019-07-07T16:48:12.000Z</time>
      </trkpt>
      <trkpt lat="41.90168405883014202117919921875" lon="-2.825266309082508087158203125">
        <ele>1093.199951171875</ele>
        <time>2019-07-07T16:48:13.000Z</time>
      </trkpt>
      <trkpt lat="41.90184884704649448394775390625" lon="-2.82544090412557125091552734375">
        <ele>1094.5999755859375</ele>
        <time>2019-07-07T16:48:14.000Z</time>
      </trkpt>
      <trkpt lat="41.9020165689289569854736328125" lon="-2.8256158344447612762451171875">
        <ele>1095.800048828125</ele>
        <time>2019-07-07T16:48:15.000Z</time>
      </trkpt>
      <trkpt lat="41.9021865539252758026123046875" lon="-2.82578808255493640899658203125">
        <ele>1097.4000244140625</ele>
        <time>2019-07-07T16:48:17.000Z</time>
      </trkpt>
      <trkpt lat="41.90269106067717075347900390625" lon="-2.82631429843604564666748046875">
        <ele>1098.199951171875</ele>
        <time>2019-07-07T16:48:20.000Z</time>
      </trkpt>
      <trkpt lat="41.90284864045679569244384765625" lon="-2.82651110552251338958740234375">
        <ele>1098.4000244140625</ele>
        <time>2019-07-07T16:48:21.000Z</time>
      </trkpt>
      <trkpt lat="41.90299515612423419952392578125" lon="-2.8267252631485462188720703125">
        <ele>1099</ele>
        <time>2019-07-07T16:48:22.000Z</time>
      </trkpt>
      <trkpt lat="41.90324493683874607086181640625" lon="-2.827208898961544036865234375">
        <ele>1099.5999755859375</ele>
        <time>2019-07-07T16:48:24.000Z</time>
      </trkpt>
      <trkpt lat="41.90357350744307041168212890625" lon="-2.82793133519589900970458984375">
        <ele>1099</ele>
        <time>2019-07-07T16:48:27.000Z</time>
      </trkpt>
      <trkpt lat="41.9038094580173492431640625" lon="-2.82834137789905071258544921875">
        <ele>1100</ele>
        <time>2019-07-07T16:48:29.000Z</time>
      </trkpt>
      <trkpt lat="41.90395387820899486541748046875" lon="-2.82851488329470157623291015625">
        <ele>1101.199951171875</ele>
        <time>2019-07-07T16:48:30.000Z</time>
      </trkpt>
      <trkpt lat="41.90411866642534732818603515625" lon="-2.82865972258150577545166015625">
        <ele>1103.199951171875</ele>
        <time>2019-07-07T16:48:31.000Z</time>
      </trkpt>
      <trkpt lat="41.90429837442934513092041015625" lon="-2.82877136953175067901611328125">
        <ele>1105</ele>
        <time>2019-07-07T16:48:32.000Z</time>
      </trkpt>
      <trkpt lat="41.9046763144433498382568359375" lon="-2.828924842178821563720703125">
        <ele>1105.800048828125</ele>
        <time>2019-07-07T16:48:33.000Z</time>
      </trkpt>
      <trkpt lat="41.90486289560794830322265625" lon="-2.82899633981287479400634765625">
        <ele>1106.199951171875</ele>
        <time>2019-07-07T16:48:34.000Z</time>
      </trkpt>
      <trkpt lat="41.90504268743097782135009765625" lon="-2.82909122295677661895751953125">
        <ele>1106.5999755859375</ele>
        <time>2019-07-07T16:48:35.000Z</time>
      </trkpt>
      <trkpt lat="41.90536237321794033050537109375" lon="-2.82938928343355655670166015625">
        <ele>1107.199951171875</ele>
        <time>2019-07-07T16:48:37.000Z</time>
      </trkpt>
      <trkpt lat="41.9054950587451457977294921875" lon="-2.8295901976525783538818359375">
        <ele>1108</ele>
        <time>2019-07-07T16:48:38.000Z</time>
      </trkpt>
      <trkpt lat="41.90561148338019847869873046875" lon="-2.82981776632368564605712890625">
        <ele>1108.4000244140625</ele>
        <time>2019-07-07T16:48:39.000Z</time>
      </trkpt>
      <trkpt lat="41.9059543870389461517333984375" lon="-2.830546908080577850341796875">
        <ele>1108.800048828125</ele>
        <time>2019-07-07T16:48:42.000Z</time>
      </trkpt>
      <trkpt lat="41.9060851447284221649169921875" lon="-2.83077665604650974273681640625">
        <ele>1109.4000244140625</ele>
        <time>2019-07-07T16:48:43.000Z</time>
      </trkpt>
      <trkpt lat="41.90621665678918361663818359375" lon="-2.83099718391895294189453125">
        <ele>1110.5999755859375</ele>
        <time>2019-07-07T16:48:44.000Z</time>
      </trkpt>
      <trkpt lat="41.90634615719318389892578125" lon="-2.831211090087890625">
        <ele>1111.800048828125</ele>
        <time>2019-07-07T16:48:45.000Z</time>
      </trkpt>
      <trkpt lat="41.9064727239310741424560546875" lon="-2.83141301013529300689697265625">
        <ele>1113</ele>
        <time>2019-07-07T16:48:46.000Z</time>
      </trkpt>
      <trkpt lat="41.90673633478581905364990234375" lon="-2.83174929209053516387939453125">
        <ele>1114.4000244140625</ele>
        <time>2019-07-07T16:48:48.000Z</time>
      </trkpt>
      <trkpt lat="41.90689139999449253082275390625" lon="-2.83186982385814189910888671875">
        <ele>1116.800048828125</ele>
        <time>2019-07-07T16:48:50.000Z</time>
      </trkpt>
      <trkpt lat="41.90725634805858135223388671875" lon="-2.83199840225279331207275390625">
        <ele>1118.800048828125</ele>
        <time>2019-07-07T16:48:51.000Z</time>
      </trkpt>
      <trkpt lat="41.90745030529797077178955078125" lon="-2.83201969228684902191162109375">
        <ele>1121.4000244140625</ele>
        <time>2019-07-07T16:48:52.000Z</time>
      </trkpt>
      <trkpt lat="41.90764367580413818359375" lon="-2.832041569054126739501953125">
        <ele>1123.199951171875</ele>
        <time>2019-07-07T16:48:53.000Z</time>
      </trkpt>
      <trkpt lat="41.907830424606800079345703125" lon="-2.83209026791155338287353515625">
        <ele>1124</ele>
        <time>2019-07-07T16:48:54.000Z</time>
      </trkpt>
      <trkpt lat="41.9080056063830852508544921875" lon="-2.8321860730648040771484375">
        <ele>1124.5999755859375</ele>
        <time>2019-07-07T16:48:55.000Z</time>
      </trkpt>
      <trkpt lat="41.90816310234367847442626953125" lon="-2.83232931979000568389892578125">
        <ele>1124.5999755859375</ele>
        <time>2019-07-07T16:48:56.000Z</time>
      </trkpt>
      <trkpt lat="41.9083985500037670135498046875" lon="-2.8327360935509204864501953125">
        <ele>1124.800048828125</ele>
        <time>2019-07-07T16:48:58.000Z</time>
      </trkpt>
      <trkpt lat="41.90856576897203922271728515625" lon="-2.8332222439348697662353515625">
        <ele>1126</ele>
        <time>2019-07-07T16:49:00.000Z</time>
      </trkpt>
      <trkpt lat="41.90865847282111644744873046875" lon="-2.83346406184136867523193359375">
        <ele>1127.199951171875</ele>
        <time>2019-07-07T16:49:01.000Z</time>
      </trkpt>
      <trkpt lat="41.90877011977136135101318359375" lon="-2.83369070850312709808349609375">
        <ele>1128.199951171875</ele>
        <time>2019-07-07T16:49:02.000Z</time>
      </trkpt>
      <trkpt lat="41.90890557132661342620849609375" lon="-2.83389891497790813446044921875">
        <ele>1129.800048828125</ele>
        <time>2019-07-07T16:49:04.000Z</time>
      </trkpt>
      <trkpt lat="41.90939247608184814453125" lon="-2.834455557167530059814453125">
        <ele>1130</ele>
        <time>2019-07-07T16:49:07.000Z</time>
      </trkpt>
      <trkpt lat="41.910051964223384857177734375" lon="-2.83513423986732959747314453125">
        <ele>1128.4000244140625</ele>
        <time>2019-07-07T16:49:10.000Z</time>
      </trkpt>
      <trkpt lat="41.9105868972837924957275390625" lon="-2.83555098809301853179931640625">
        <ele>1127.5999755859375</ele>
        <time>2019-07-07T16:49:13.000Z</time>
      </trkpt>
      <trkpt lat="41.910979337990283966064453125" lon="-2.8357736952602863311767578125">
        <ele>1127.4000244140625</ele>
        <time>2019-07-07T16:49:15.000Z</time>
      </trkpt>
      <trkpt lat="41.91138309426605701446533203125" lon="-2.8360162675380706787109375">
        <ele>1125.800048828125</ele>
        <time>2019-07-07T16:49:17.000Z</time>
      </trkpt>
      <trkpt lat="41.9115840084850788116455078125" lon="-2.83616043627262115478515625">
        <ele>1124.5999755859375</ele>
        <time>2019-07-07T16:49:18.000Z</time>
      </trkpt>
      <trkpt lat="41.91178140230476856231689453125" lon="-2.8363208658993244171142578125">
        <ele>1123</ele>
        <time>2019-07-07T16:49:19.000Z</time>
      </trkpt>
      <trkpt lat="41.91197569482028484344482421875" lon="-2.8364978916943073272705078125">
        <ele>1121.4000244140625</ele>
        <time>2019-07-07T16:49:20.000Z</time>
      </trkpt>
      <trkpt lat="41.91216613166034221649169921875" lon="-2.8366913460195064544677734375">
        <ele>1119.4000244140625</ele>
        <time>2019-07-07T16:49:21.000Z</time>
      </trkpt>
      <trkpt lat="41.91235103644430637359619140625" lon="-2.83690298907458782196044921875">
        <ele>1117.4000244140625</ele>
        <time>2019-07-07T16:49:22.000Z</time>
      </trkpt>
      <trkpt lat="41.91235103644430637359619140625" lon="-2.83690298907458782196044921875">
        <ele>1115.4000244140625</ele>
        <time>2019-07-07T16:49:23.000Z</time>
      </trkpt>
      <trkpt lat="41.9127014838159084320068359375" lon="-2.8373803384602069854736328125">
        <ele>1113.5999755859375</ele>
        <time>2019-07-07T16:49:24.000Z</time>
      </trkpt>
      <trkpt lat="41.91286484710872173309326171875" lon="-2.83764445222914218902587890625">
        <ele>1112.4000244140625</ele>
        <time>2019-07-07T16:49:25.000Z</time>
      </trkpt>
      <trkpt lat="41.91301940940320491790771484375" lon="-2.83792457543313503265380859375">
        <ele>1110.4000244140625</ele>
        <time>2019-07-07T16:49:26.000Z</time>
      </trkpt>
      <trkpt lat="41.91316257230937480926513671875" lon="-2.838220037519931793212890625">
        <ele>1108.4000244140625</ele>
        <time>2019-07-07T16:49:27.000Z</time>
      </trkpt>
      <trkpt lat="41.91329383291304111480712890625" lon="-2.83852555789053440093994140625">
        <ele>1106.4000244140625</ele>
        <time>2019-07-07T16:49:28.000Z</time>
      </trkpt>
      <trkpt lat="41.91341578960418701171875" lon="-2.8388387896120548248291015625">
        <ele>1105</ele>
        <time>2019-07-07T16:49:29.000Z</time>
      </trkpt>
      <trkpt lat="41.91364922560751438140869140625" lon="-2.839469611644744873046875">
        <ele>1103.4000244140625</ele>
        <time>2019-07-07T16:49:31.000Z</time>
      </trkpt>
      <trkpt lat="41.9138749502599239349365234375" lon="-2.84007905982434749603271484375">
        <ele>1101</ele>
        <time>2019-07-07T16:49:33.000Z</time>
      </trkpt>
      <trkpt lat="41.9138749502599239349365234375" lon="-2.84007905982434749603271484375">
        <ele>1099.5999755859375</ele>
        <time>2019-07-07T16:49:34.000Z</time>
      </trkpt>
      <trkpt lat="41.91408290527760982513427734375" lon="-2.84064215607941150665283203125">
        <ele>1098.199951171875</ele>
        <time>2019-07-07T16:49:35.000Z</time>
      </trkpt>
      <trkpt lat="41.91441197879612445831298828125" lon="-2.8413892351090908050537109375">
        <ele>1098</ele>
        <time>2019-07-07T16:49:38.000Z</time>
      </trkpt>
      <trkpt lat="41.914537958800792694091796875" lon="-2.8416220843791961669921875">
        <ele>1099.800048828125</ele>
        <time>2019-07-07T16:49:39.000Z</time>
      </trkpt>
      <trkpt lat="41.91467064432799816131591796875" lon="-2.841851413249969482421875">
        <ele>1102</ele>
        <time>2019-07-07T16:49:40.000Z</time>
      </trkpt>
      <trkpt lat="41.91480726934969425201416015625" lon="-2.8420795686542987823486328125">
        <ele>1103.4000244140625</ele>
        <time>2019-07-07T16:49:41.000Z</time>
      </trkpt>
      <trkpt lat="41.91508387215435504913330078125" lon="-2.8425372205674648284912109375">
        <ele>1104.5999755859375</ele>
        <time>2019-07-07T16:49:43.000Z</time>
      </trkpt>
      <trkpt lat="41.915221251547336578369140625" lon="-2.84275808371603488922119140625">
        <ele>1106.199951171875</ele>
        <time>2019-07-07T16:49:45.000Z</time>
      </trkpt>
      <trkpt lat="41.915356703102588653564453125" lon="-2.84296788275241851806640625">
        <ele>1107.199951171875</ele>
        <time>2019-07-07T16:49:46.000Z</time>
      </trkpt>
      <trkpt lat="41.915618218481540679931640625" lon="-2.84336216747760772705078125">
        <ele>1108.800048828125</ele>
        <time>2019-07-07T16:49:47.000Z</time>
      </trkpt>
      <trkpt lat="41.9157452881336212158203125" lon="-2.84354816190898418426513671875">
        <ele>1110.800048828125</ele>
        <time>2019-07-07T16:49:48.000Z</time>
      </trkpt>
      <trkpt lat="41.915868334472179412841796875" lon="-2.84372870810329914093017578125">
        <ele>1112</ele>
        <time>2019-07-07T16:49:49.000Z</time>
      </trkpt>
      <trkpt lat="41.9159871898591518402099609375" lon="-2.84391336143016815185546875">
        <ele>1113.5999755859375</ele>
        <time>2019-07-07T16:49:51.000Z</time>
      </trkpt>
      <trkpt lat="41.916299499571323394775390625" lon="-2.8445347957313060760498046875">
        <ele>1115.199951171875</ele>
        <time>2019-07-07T16:49:53.000Z</time>
      </trkpt>
      <trkpt lat="41.9163787923753261566162109375" lon="-2.8447715006768703460693359375">
        <ele>1116.5999755859375</ele>
        <time>2019-07-07T16:49:54.000Z</time>
      </trkpt>
      <trkpt lat="41.9163787923753261566162109375" lon="-2.8447715006768703460693359375">
        <ele>1118</ele>
        <time>2019-07-07T16:49:55.000Z</time>
      </trkpt>
      <trkpt lat="41.9164465181529521942138671875" lon="-2.8450293280184268951416015625">
        <ele>1119.199951171875</ele>
        <time>2019-07-07T16:49:56.000Z</time>
      </trkpt>
      <trkpt lat="41.91650359891355037689208984375" lon="-2.84530484117567539215087890625">
        <ele>1120.199951171875</ele>
        <time>2019-07-07T16:49:57.000Z</time>
      </trkpt>
      <trkpt lat="41.9166035950183868408203125" lon="-2.84588419832289218902587890625">
        <ele>1121.4000244140625</ele>
        <time>2019-07-07T16:49:58.000Z</time>
      </trkpt>
      <trkpt lat="41.9166600890457630157470703125" lon="-2.846174798905849456787109375">
        <ele>1122.800048828125</ele>
        <time>2019-07-07T16:50:00.000Z</time>
      </trkpt>
      <trkpt lat="41.916815154254436492919921875" lon="-2.84674175083637237548828125">
        <ele>1123.4000244140625</ele>
        <time>2019-07-07T16:50:02.000Z</time>
      </trkpt>
      <trkpt lat="41.917041800916194915771484375" lon="-2.8472569026052951812744140625">
        <ele>1123.4000244140625</ele>
        <time>2019-07-07T16:50:04.000Z</time>
      </trkpt>
      <trkpt lat="41.91732603125274181365966796875" lon="-2.8477044962346553802490234375">
        <ele>1124</ele>
        <time>2019-07-07T16:50:06.000Z</time>
      </trkpt>
      <trkpt lat="41.91763834096491336822509765625" lon="-2.84812384285032749176025390625">
        <ele>1125.5999755859375</ele>
        <time>2019-07-07T16:50:08.000Z</time>
      </trkpt>
      <trkpt lat="41.9177986867725849151611328125" lon="-2.8483344800770282745361328125">
        <ele>1126.800048828125</ele>
        <time>2019-07-07T16:50:09.000Z</time>
      </trkpt>
      <trkpt lat="41.91809465177357196807861328125" lon="-2.84877545200288295745849609375">
        <ele>1128.199951171875</ele>
        <time>2019-07-07T16:50:11.000Z</time>
      </trkpt>
      <trkpt lat="41.91855967976152896881103515625" lon="-2.84979385323822498321533203125">
        <ele>1128.4000244140625</ele>
        <time>2019-07-07T16:50:14.000Z</time>
      </trkpt>
      <trkpt lat="41.91867568530142307281494140625" lon="-2.8500678576529026031494140625">
        <ele>1127</ele>
        <time>2019-07-07T16:50:16.000Z</time>
      </trkpt>
      <trkpt lat="41.91891792230308055877685546875" lon="-2.85061486065387725830078125">
        <ele>1125.5999755859375</ele>
        <time>2019-07-07T16:50:18.000Z</time>
      </trkpt>
      <trkpt lat="41.91928337328135967254638671875" lon="-2.8513982333242893218994140625">
        <ele>1123.5999755859375</ele>
        <time>2019-07-07T16:50:20.000Z</time>
      </trkpt>
      <trkpt lat="41.91928337328135967254638671875" lon="-2.8513982333242893218994140625">
        <ele>1121.4000244140625</ele>
        <time>2019-07-07T16:50:21.000Z</time>
      </trkpt>
      <trkpt lat="41.9193999655544757843017578125" lon="-2.85166201181709766387939453125">
        <ele>1118.5999755859375</ele>
        <time>2019-07-07T16:50:22.000Z</time>
      </trkpt>
      <trkpt lat="41.9195025600492954254150390625" lon="-2.8519350104033946990966796875">
        <ele>1116.4000244140625</ele>
        <time>2019-07-07T16:50:23.000Z</time>
      </trkpt>
      <trkpt lat="41.91957606934010982513427734375" lon="-2.8522163070738315582275390625">
        <ele>1115</ele>
        <time>2019-07-07T16:50:24.000Z</time>
      </trkpt>
      <trkpt lat="41.91961948759853839874267578125" lon="-2.85250556655228137969970703125">
        <ele>1114.199951171875</ele>
        <time>2019-07-07T16:50:25.000Z</time>
      </trkpt>
      <trkpt lat="41.9196390174329280853271484375" lon="-2.8530739434063434600830078125">
        <ele>1114</ele>
        <time>2019-07-07T16:50:26.000Z</time>
      </trkpt>
      <trkpt lat="41.9196222536265850067138671875" lon="-2.85386226139962673187255859375">
        <ele>1115</ele>
        <time>2019-07-07T16:50:29.000Z</time>
      </trkpt>
      <trkpt lat="41.91964186728000640869140625" lon="-2.8541166521608829498291015625">
        <ele>1115.5999755859375</ele>
        <time>2019-07-07T16:50:30.000Z</time>
      </trkpt>
      <trkpt lat="41.9197283685207366943359375" lon="-2.8546152077615261077880859375">
        <ele>1116.800048828125</ele>
        <time>2019-07-07T16:50:32.000Z</time>
      </trkpt>
      <trkpt lat="41.91982685588300228118896484375" lon="-2.85539447329938411712646484375">
        <ele>1117.5999755859375</ele>
        <time>2019-07-07T16:50:35.000Z</time>
      </trkpt>
      <trkpt lat="41.919860132038593292236328125" lon="-2.85593208856880664825439453125">
        <ele>1118.4000244140625</ele>
        <time>2019-07-07T16:50:37.000Z</time>
      </trkpt>
      <trkpt lat="41.91993498243391513824462890625" lon="-2.856458723545074462890625">
        <ele>1119</ele>
        <time>2019-07-07T16:50:39.000Z</time>
      </trkpt>
      <trkpt lat="41.91993498243391513824462890625" lon="-2.856458723545074462890625">
        <ele>1120.199951171875</ele>
        <time>2019-07-07T16:50:40.000Z</time>
      </trkpt>
      <trkpt lat="41.9200829230248928070068359375" lon="-2.8569482266902923583984375">
        <ele>1121.800048828125</ele>
        <time>2019-07-07T16:50:41.000Z</time>
      </trkpt>
      <trkpt lat="41.9201845116913318634033203125" lon="-2.85717864520847797393798828125">
        <ele>1123</ele>
        <time>2019-07-07T16:50:42.000Z</time>
      </trkpt>
      <trkpt lat="41.92029993049800395965576171875" lon="-2.8573961555957794189453125">
        <ele>1124</ele>
        <time>2019-07-07T16:50:43.000Z</time>
      </trkpt>
      <trkpt lat="41.92052775062620639801025390625" lon="-2.8578469343483448028564453125">
        <ele>1125.5999755859375</ele>
        <time>2019-07-07T16:50:45.000Z</time>
      </trkpt>
      <trkpt lat="41.920772083103656768798828125" lon="-2.8582799434661865234375">
        <ele>1126.5999755859375</ele>
        <time>2019-07-07T16:50:47.000Z</time>
      </trkpt>
      <trkpt lat="41.9209090434014797210693359375" lon="-2.85847297869622707366943359375">
        <ele>1127.5999755859375</ele>
        <time>2019-07-07T16:50:48.000Z</time>
      </trkpt>
      <trkpt lat="41.92106100730597972869873046875" lon="-2.8586487472057342529296875">
        <ele>1128.199951171875</ele>
        <time>2019-07-07T16:50:49.000Z</time>
      </trkpt>
      <trkpt lat="41.921556293964385986328125" lon="-2.8591129370033740997314453125">
        <ele>1127.5999755859375</ele>
        <time>2019-07-07T16:50:53.000Z</time>
      </trkpt>
      <trkpt lat="41.9218857027590274810791015625" lon="-2.859408147633075714111328125">
        <ele>1126.800048828125</ele>
        <time>2019-07-07T16:50:55.000Z</time>
      </trkpt>
      <trkpt lat="41.92220605909824371337890625" lon="-2.8597033582627773284912109375">
        <ele>1125.4000244140625</ele>
        <time>2019-07-07T16:50:56.000Z</time>
      </trkpt>
      <trkpt lat="41.92220605909824371337890625" lon="-2.8597033582627773284912109375">
        <ele>1123.800048828125</ele>
        <time>2019-07-07T16:50:57.000Z</time>
      </trkpt>
      <trkpt lat="41.92250705324113368988037109375" lon="-2.86003620363771915435791015625">
        <ele>1122.5999755859375</ele>
        <time>2019-07-07T16:50:59.000Z</time>
      </trkpt>
      <trkpt lat="41.9227604381740093231201171875" lon="-2.86045596934854984283447265625">
        <ele>1120.5999755859375</ele>
        <time>2019-07-07T16:51:01.000Z</time>
      </trkpt>
      <trkpt lat="41.92297174595296382904052734375" lon="-2.86093273200094699859619140625">
        <ele>1119.5999755859375</ele>
        <time>2019-07-07T16:51:03.000Z</time>
      </trkpt>
      <trkpt lat="41.92323267459869384765625" lon="-2.86165575496852397918701171875">
        <ele>1121</ele>
        <time>2019-07-07T16:51:06.000Z</time>
      </trkpt>
      <trkpt lat="41.92333451472222805023193359375" lon="-2.862177193164825439453125">
        <ele>1121.4000244140625</ele>
        <time>2019-07-07T16:51:07.000Z</time>
      </trkpt>
      <trkpt lat="41.92333451472222805023193359375" lon="-2.862177193164825439453125">
        <ele>1122.5999755859375</ele>
        <time>2019-07-07T16:51:08.000Z</time>
      </trkpt>
      <trkpt lat="41.923398636281490325927734375" lon="-2.862738780677318572998046875">
        <ele>1124</ele>
        <time>2019-07-07T16:51:09.000Z</time>
      </trkpt>
      <trkpt lat="41.92343107424676418304443359375" lon="-2.86303214728832244873046875">
        <ele>1125.199951171875</ele>
        <time>2019-07-07T16:51:10.000Z</time>
      </trkpt>
      <trkpt lat="41.92343107424676418304443359375" lon="-2.86303214728832244873046875">
        <ele>1126.4000244140625</ele>
        <time>2019-07-07T16:51:11.000Z</time>
      </trkpt>
      <trkpt lat="41.92348823882639408111572265625" lon="-2.8636411763727664947509765625">
        <ele>1127</ele>
        <time>2019-07-07T16:51:12.000Z</time>
      </trkpt>
      <trkpt lat="41.9235282205045223236083984375" lon="-2.86425498314201831817626953125">
        <ele>1126.800048828125</ele>
        <time>2019-07-07T16:51:15.000Z</time>
      </trkpt>
      <trkpt lat="41.92357775755226612091064453125" lon="-2.8651294670999050140380859375">
        <ele>1127.199951171875</ele>
        <time>2019-07-07T16:51:18.000Z</time>
      </trkpt>
      <trkpt lat="41.923629306256771087646484375" lon="-2.86600143648684024810791015625">
        <ele>1127.4000244140625</ele>
        <time>2019-07-07T16:51:20.000Z</time>
      </trkpt>
      <trkpt lat="41.9236998818814754486083984375" lon="-2.8665443323552608489990234375">
        <ele>1127.800048828125</ele>
        <time>2019-07-07T16:51:23.000Z</time>
      </trkpt>
      <trkpt lat="41.9238326512277126312255859375" lon="-2.86700709722936153411865234375">
        <ele>1128.800048828125</ele>
        <time>2019-07-07T16:51:25.000Z</time>
      </trkpt>
      <trkpt lat="41.924203969538211822509765625" lon="-2.86760942079126834869384765625">
        <ele>1130.800048828125</ele>
        <time>2019-07-07T16:51:27.000Z</time>
      </trkpt>
      <trkpt lat="41.9243543408811092376708984375" lon="-2.86780488677322864532470703125">
        <ele>1132</ele>
        <time>2019-07-07T16:51:28.000Z</time>
      </trkpt>
      <trkpt lat="41.9245099090039730072021484375" lon="-2.868002615869045257568359375">
        <ele>1133.5999755859375</ele>
        <time>2019-07-07T16:51:29.000Z</time>
      </trkpt>
      <trkpt lat="41.9245099090039730072021484375" lon="-2.868002615869045257568359375">
        <ele>1134.800048828125</ele>
        <time>2019-07-07T16:51:30.000Z</time>
      </trkpt>
      <trkpt lat="41.9246718473732471466064453125" lon="-2.86820210516452789306640625">
        <ele>1136</ele>
        <time>2019-07-07T16:51:31.000Z</time>
      </trkpt>
      <trkpt lat="41.92498021759092807769775390625" lon="-2.86862857639789581298828125">
        <ele>1137.199951171875</ele>
        <time>2019-07-07T16:51:33.000Z</time>
      </trkpt>
      <trkpt lat="41.92524005658924579620361328125" lon="-2.86910072900354862213134765625">
        <ele>1138</ele>
        <time>2019-07-07T16:51:35.000Z</time>
      </trkpt>
      <trkpt lat="41.92543049342930316925048828125" lon="-2.86960758268833160400390625">
        <ele>1136</ele>
        <time>2019-07-07T16:51:37.000Z</time>
      </trkpt>
      <trkpt lat="41.925501488149166107177734375" lon="-2.8698689304292201995849609375">
        <ele>1133.800048828125</ele>
        <time>2019-07-07T16:51:38.000Z</time>
      </trkpt>
      <trkpt lat="41.925555802881717681884765625" lon="-2.87012885324656963348388671875">
        <ele>1132.4000244140625</ele>
        <time>2019-07-07T16:51:39.000Z</time>
      </trkpt>
      <trkpt lat="41.925638951361179351806640625" lon="-2.8708251379430294036865234375">
        <ele>1131.4000244140625</ele>
        <time>2019-07-07T16:51:41.000Z</time>
      </trkpt>
      <trkpt lat="41.92565412260591983795166015625" lon="-2.87103560753166675567626953125">
        <ele>1133.4000244140625</ele>
        <time>2019-07-07T16:51:43.000Z</time>
      </trkpt>
      <trkpt lat="41.9256676174700260162353515625" lon="-2.8712381981313228607177734375">
        <ele>1134.5999755859375</ele>
        <time>2019-07-07T16:51:44.000Z</time>
      </trkpt>
      <trkpt lat="41.92568354308605194091796875" lon="-2.8714329935610294342041015625">
        <ele>1136</ele>
        <time>2019-07-07T16:51:45.000Z</time>
      </trkpt>
      <trkpt lat="41.92572570405900478363037109375" lon="-2.87180364131927490234375">
        <ele>1137.4000244140625</ele>
        <time>2019-07-07T16:51:47.000Z</time>
      </trkpt>
      <trkpt lat="41.92580759525299072265625" lon="-2.87215995602309703826904296875">
        <ele>1138.4000244140625</ele>
        <time>2019-07-07T16:51:49.000Z</time>
      </trkpt>
      <trkpt lat="41.9259593077003955841064453125" lon="-2.87252188660204410552978515625">
        <ele>1139.4000244140625</ele>
        <time>2019-07-07T16:51:51.000Z</time>
      </trkpt>
      <trkpt lat="41.926062069833278656005859375" lon="-2.87270016968250274658203125">
        <ele>1139.800048828125</ele>
        <time>2019-07-07T16:51:52.000Z</time>
      </trkpt>
      <trkpt lat="41.92645593546330928802490234375" lon="-2.8732176683843135833740234375">
        <ele>1140</ele>
        <time>2019-07-07T16:51:55.000Z</time>
      </trkpt>
      <trkpt lat="41.92676338367164134979248046875" lon="-2.87357381545007228851318359375">
        <ele>1138.5999755859375</ele>
        <time>2019-07-07T16:51:57.000Z</time>
      </trkpt>
      <trkpt lat="41.92708575166761875152587890625" lon="-2.8739418648183345794677734375">
        <ele>1136.800048828125</ele>
        <time>2019-07-07T16:51:59.000Z</time>
      </trkpt>
      <trkpt lat="41.92724618129432201385498046875" lon="-2.87412232719361782073974609375">
        <ele>1135.199951171875</ele>
        <time>2019-07-07T16:52:00.000Z</time>
      </trkpt>
      <trkpt lat="41.9273986481130123138427734375" lon="-2.87429817952215671539306640625">
        <ele>1133.199951171875</ele>
        <time>2019-07-07T16:52:01.000Z</time>
      </trkpt>
      <trkpt lat="41.927543990314006805419921875" lon="-2.87446849979460239410400390625">
        <ele>1131.800048828125</ele>
        <time>2019-07-07T16:52:02.000Z</time>
      </trkpt>
      <trkpt lat="41.927811540663242340087890625" lon="-2.87479992024600505828857421875">
        <ele>1130</ele>
        <time>2019-07-07T16:52:04.000Z</time>
      </trkpt>
      <trkpt lat="41.9281583838164806365966796875" lon="-2.875285483896732330322265625">
        <ele>1129.800048828125</ele>
        <time>2019-07-07T16:52:06.000Z</time>
      </trkpt>
      <trkpt lat="41.92846507765352725982666015625" lon="-2.87573751993477344512939453125">
        <ele>1130</ele>
        <time>2019-07-07T16:52:09.000Z</time>
      </trkpt>
      <trkpt lat="41.92885768599808216094970703125" lon="-2.87633464671671390533447265625">
        <ele>1130.5999755859375</ele>
        <time>2019-07-07T16:52:13.000Z</time>
      </trkpt>
      <trkpt lat="41.9290401600301265716552734375" lon="-2.8766643069684505462646484375">
        <ele>1131</ele>
        <time>2019-07-07T16:52:16.000Z</time>
      </trkpt>
      <trkpt lat="41.92917284555733203887939453125" lon="-2.8772480227053165435791015625">
        <ele>1130.800048828125</ele>
        <time>2019-07-07T16:52:18.000Z</time>
      </trkpt>
      <trkpt lat="41.92916505038738250732421875" lon="-2.87788663990795612335205078125">
        <ele>1130.800048828125</ele>
        <time>2019-07-07T16:52:21.000Z</time>
      </trkpt>
      <trkpt lat="41.929149292409420013427734375" lon="-2.87864201702177524566650390625">
        <ele>1129.199951171875</ele>
        <time>2019-07-07T16:52:26.000Z</time>
      </trkpt>
      <trkpt lat="41.9291643798351287841796875" lon="-2.87881837226450443267822265625">
        <ele>1129</ele>
        <time>2019-07-07T16:52:27.000Z</time>
      </trkpt>
      <trkpt lat="41.9292636215686798095703125" lon="-2.87916152738034725189208984375">
        <ele>1130.5999755859375</ele>
        <time>2019-07-07T16:52:29.000Z</time>
      </trkpt>
      <trkpt lat="41.92934350110590457916259765625" lon="-2.87932648323476314544677734375">
        <ele>1132.199951171875</ele>
        <time>2019-07-07T16:52:30.000Z</time>
      </trkpt>
      <trkpt lat="41.9294388033449649810791015625" lon="-2.879488170146942138671875">
        <ele>1133.4000244140625</ele>
        <time>2019-07-07T16:52:31.000Z</time>
      </trkpt>
      <trkpt lat="41.92967659793794155120849609375" lon="-2.8798001445829868316650390625">
        <ele>1134.5999755859375</ele>
        <time>2019-07-07T16:52:33.000Z</time>
      </trkpt>
      <trkpt lat="41.9299583137035369873046875" lon="-2.88007783703505992889404296875">
        <ele>1135.800048828125</ele>
        <time>2019-07-07T16:52:35.000Z</time>
      </trkpt>
      <trkpt lat="41.93011094816029071807861328125" lon="-2.88019099272787570953369140625">
        <ele>1137</ele>
        <time>2019-07-07T16:52:36.000Z</time>
      </trkpt>
      <trkpt lat="41.9302669353783130645751953125" lon="-2.880272381007671356201171875">
        <ele>1138</ele>
        <time>2019-07-07T16:52:37.000Z</time>
      </trkpt>
      <trkpt lat="41.93041839636862277984619140625" lon="-2.880312614142894744873046875">
        <ele>1138.4000244140625</ele>
        <time>2019-07-07T16:52:38.000Z</time>
      </trkpt>
      <trkpt lat="41.93069667555391788482666015625" lon="-2.880283109843730926513671875">
        <ele>1139.199951171875</ele>
        <time>2019-07-07T16:52:40.000Z</time>
      </trkpt>
      <trkpt lat="41.931102275848388671875" lon="-2.88011689670383930206298828125">
        <ele>1140.4000244140625</ele>
        <time>2019-07-07T16:52:43.000Z</time>
      </trkpt>
      <trkpt lat="41.93150469101965427398681640625" lon="-2.87996049039065837860107421875">
        <ele>1142.199951171875</ele>
        <time>2019-07-07T16:52:45.000Z</time>
      </trkpt>
      <trkpt lat="41.93164207041263580322265625" lon="-2.879922688007354736328125">
        <ele>1143.800048828125</ele>
        <time>2019-07-07T16:52:47.000Z</time>
      </trkpt>
      <trkpt lat="41.932073570787906646728515625" lon="-2.87987784482538700103759765625">
        <ele>1145</ele>
        <time>2019-07-07T16:52:49.000Z</time>
      </trkpt>
      <trkpt lat="41.93235059268772602081298828125" lon="-2.87988790310919284820556640625">
        <ele>1146.199951171875</ele>
        <time>2019-07-07T16:52:51.000Z</time>
      </trkpt>
      <trkpt lat="41.9327424466609954833984375" lon="-2.8799084387719631195068359375">
        <ele>1147.4000244140625</ele>
        <time>2019-07-07T16:52:55.000Z</time>
      </trkpt>
      <trkpt lat="41.9332455284893512725830078125" lon="-2.87992394529283046722412109375">
        <ele>1148.5999755859375</ele>
        <time>2019-07-07T16:52:58.000Z</time>
      </trkpt>
      <trkpt lat="41.9334704987704753875732421875" lon="-2.879933752119541168212890625">
        <ele>1149.800048828125</ele>
        <time>2019-07-07T16:53:01.000Z</time>
      </trkpt>
      <trkpt lat="41.93376042880117893218994140625" lon="-2.8799563832581043243408203125">
        <ele>1151</ele>
        <time>2019-07-07T16:53:04.000Z</time>
      </trkpt>
      <trkpt lat="41.933851875364780426025390625" lon="-2.8799803555011749267578125">
        <ele>1151.4000244140625</ele>
        <time>2019-07-07T16:53:05.000Z</time>
      </trkpt>
      <trkpt lat="41.93393846042454242706298828125" lon="-2.880022265017032623291015625">
        <ele>1151.5999755859375</ele>
        <time>2019-07-07T16:53:06.000Z</time>
      </trkpt>
      <trkpt lat="41.934019513428211212158203125" lon="-2.8800868056714534759521484375">
        <ele>1152.199951171875</ele>
        <time>2019-07-07T16:53:07.000Z</time>
      </trkpt>
      <trkpt lat="41.93414834327995777130126953125" lon="-2.88028302602469921112060546875">
        <ele>1152.800048828125</ele>
        <time>2019-07-07T16:53:09.000Z</time>
      </trkpt>
      <trkpt lat="41.93417407572269439697265625" lon="-2.8805427812039852142333984375">
        <ele>1153.4000244140625</ele>
        <time>2019-07-07T16:53:11.000Z</time>
      </trkpt>
      <trkpt lat="41.93414390087127685546875" lon="-2.88068066351115703582763671875">
        <ele>1153.5999755859375</ele>
        <time>2019-07-07T16:53:12.000Z</time>
      </trkpt>
      <trkpt lat="41.93402546457946300506591796875" lon="-2.8809387423098087310791015625">
        <ele>1154.199951171875</ele>
        <time>2019-07-07T16:53:14.000Z</time>
      </trkpt>
      <trkpt lat="41.9337896816432476043701171875" lon="-2.8812646307051181793212890625">
        <ele>1154.800048828125</ele>
        <time>2019-07-07T16:53:16.000Z</time>
      </trkpt>
      <trkpt lat="41.933709047734737396240234375" lon="-2.88136580027639865875244140625">
        <ele>1156.199951171875</ele>
        <time>2019-07-07T16:53:18.000Z</time>
      </trkpt>
      <trkpt lat="41.93356580100953578948974609375" lon="-2.8815601766109466552734375">
        <ele>1157.800048828125</ele>
        <time>2019-07-07T16:53:20.000Z</time>
      </trkpt>
      <trkpt lat="41.933506540954113006591796875" lon="-2.881658077239990234375">
        <ele>1158.4000244140625</ele>
        <time>2019-07-07T16:53:21.000Z</time>
      </trkpt>
      <trkpt lat="41.93342464976012706756591796875" lon="-2.8818540461361408233642578125">
        <ele>1159.199951171875</ele>
        <time>2019-07-07T16:53:22.000Z</time>
      </trkpt>
      <trkpt lat="41.93341023288667201995849609375" lon="-2.88196049630641937255859375">
        <ele>1159.800048828125</ele>
        <time>2019-07-07T16:53:23.000Z</time>
      </trkpt>
      <trkpt lat="41.933424733579158782958984375" lon="-2.88206753320991992950439453125">
        <ele>1160.199951171875</ele>
        <time>2019-07-07T16:53:24.000Z</time>
      </trkpt>
      <trkpt lat="41.93346722982823848724365234375" lon="-2.88217046298086643218994140625">
        <ele>1160.5999755859375</ele>
        <time>2019-07-07T16:53:26.000Z</time>
      </trkpt>
      <trkpt lat="41.93382362835109233856201171875" lon="-2.8826268576085567474365234375">
        <ele>1161.4000244140625</ele>
        <time>2019-07-07T16:53:30.000Z</time>
      </trkpt>
      <trkpt lat="41.934111379086971282958984375" lon="-2.88296632468700408935546875">
        <ele>1162.4000244140625</ele>
        <time>2019-07-07T16:53:35.000Z</time>
      </trkpt>
      <trkpt lat="41.93445428274571895599365234375" lon="-2.88342774845659732818603515625">
        <ele>1163.199951171875</ele>
        <time>2019-07-07T16:53:40.000Z</time>
      </trkpt>
      <trkpt lat="41.93466953001916408538818359375" lon="-2.8837124817073345184326171875">
        <ele>1163.4000244140625</ele>
        <time>2019-07-07T16:53:43.000Z</time>
      </trkpt>
      <trkpt lat="41.9348122738301753997802734375" lon="-2.88386662490665912628173828125">
        <ele>1163.800048828125</ele>
        <time>2019-07-07T16:53:45.000Z</time>
      </trkpt>
      <trkpt lat="41.93497429601848125457763671875" lon="-2.88393015973269939422607421875">
        <ele>1164.4000244140625</ele>
        <time>2019-07-07T16:53:47.000Z</time>
      </trkpt>
      <trkpt lat="41.93505157716572284698486328125" lon="-2.8839340992271900177001953125">
        <ele>1164.800048828125</ele>
        <time>2019-07-07T16:53:48.000Z</time>
      </trkpt>
      <trkpt lat="41.93512701429426670074462890625" lon="-2.8839446604251861572265625">
        <ele>1165.199951171875</ele>
        <time>2019-07-07T16:53:49.000Z</time>
      </trkpt>
      <trkpt lat="41.9352702610194683074951171875" lon="-2.8840088658034801483154296875">
        <ele>1165.800048828125</ele>
        <time>2019-07-07T16:53:51.000Z</time>
      </trkpt>
      <trkpt lat="41.93533170036971569061279296875" lon="-2.88407064042985439300537109375">
        <ele>1165.800048828125</ele>
        <time>2019-07-07T16:53:52.000Z</time>
      </trkpt>
      <trkpt lat="41.93538417108356952667236328125" lon="-2.88415043614804744720458984375">
        <ele>1166</ele>
        <time>2019-07-07T16:53:53.000Z</time>
      </trkpt>
      <trkpt lat="41.93566781468689441680908203125" lon="-2.8847333975136280059814453125">
        <ele>1166.5999755859375</ele>
        <time>2019-07-07T16:53:59.000Z</time>
      </trkpt>
      <trkpt lat="41.9358227960765361785888671875" lon="-2.88501980714499950408935546875">
        <ele>1165.800048828125</ele>
        <time>2019-07-07T16:54:02.000Z</time>
      </trkpt>
      <trkpt lat="41.93595849908888339996337890625" lon="-2.88515525870025157928466796875">
        <ele>1165.4000244140625</ele>
        <time>2019-07-07T16:54:04.000Z</time>
      </trkpt>
      <trkpt lat="41.93623107858002185821533203125" lon="-2.88519113324582576751708984375">
        <ele>1164.800048828125</ele>
        <time>2019-07-07T16:54:06.000Z</time>
      </trkpt>
      <trkpt lat="41.93643249571323394775390625" lon="-2.88516665808856487274169921875">
        <ele>1163.5999755859375</ele>
        <time>2019-07-07T16:54:09.000Z</time>
      </trkpt>
      <trkpt lat="41.9367481581866741180419921875" lon="-2.88512541912496089935302734375">
        <ele>1162</ele>
        <time>2019-07-07T16:54:11.000Z</time>
      </trkpt>
      <trkpt lat="41.936860978603363037109375" lon="-2.8851125948131084442138671875">
        <ele>1160.800048828125</ele>
        <time>2019-07-07T16:54:13.000Z</time>
      </trkpt>
      <trkpt lat="41.93696918897330760955810546875" lon="-2.88511284627020359039306640625">
        <ele>1160.4000244140625</ele>
        <time>2019-07-07T16:54:14.000Z</time>
      </trkpt>
      <trkpt lat="41.937179826200008392333984375" lon="-2.88520722649991512298583984375">
        <ele>1159.4000244140625</ele>
        <time>2019-07-07T16:54:16.000Z</time>
      </trkpt>
      <trkpt lat="41.9374713487923145294189453125" lon="-2.88553277961909770965576171875">
        <ele>1157.800048828125</ele>
        <time>2019-07-07T16:54:18.000Z</time>
      </trkpt>
      <trkpt lat="41.937562711536884307861328125" lon="-2.88565523922443389892578125">
        <ele>1156.800048828125</ele>
        <time>2019-07-07T16:54:20.000Z</time>
      </trkpt>
      <trkpt lat="41.93783797323703765869140625" lon="-2.88603334687650203704833984375">
        <ele>1155.199951171875</ele>
        <time>2019-07-07T16:54:22.000Z</time>
      </trkpt>
      <trkpt lat="41.93801474757492542266845703125" lon="-2.886268794536590576171875">
        <ele>1154.199951171875</ele>
        <time>2019-07-07T16:54:25.000Z</time>
      </trkpt>
      <trkpt lat="41.93832789547741413116455078125" lon="-2.88657062686979770660400390625">
        <ele>1153.199951171875</ele>
        <time>2019-07-07T16:54:28.000Z</time>
      </trkpt>
      <trkpt lat="41.93846954964101314544677734375" lon="-2.88665427826344966888427734375">
        <ele>1153</ele>
        <time>2019-07-07T16:54:29.000Z</time>
      </trkpt>
      <trkpt lat="41.938933990895748138427734375" lon="-2.886904813349246978759765625">
        <ele>1152.4000244140625</ele>
        <time>2019-07-07T16:54:32.000Z</time>
      </trkpt>
      <trkpt lat="41.93907572887837886810302734375" lon="-2.8870119340717792510986328125">
        <ele>1151.4000244140625</ele>
        <time>2019-07-07T16:54:33.000Z</time>
      </trkpt>
      <trkpt lat="41.93920380435883998870849609375" lon="-2.8871403448283672332763671875">
        <ele>1150.199951171875</ele>
        <time>2019-07-07T16:54:34.000Z</time>
      </trkpt>
      <trkpt lat="41.93931696005165576934814453125" lon="-2.88728878833353519439697265625">
        <ele>1148.800048828125</ele>
        <time>2019-07-07T16:54:35.000Z</time>
      </trkpt>
      <trkpt lat="41.93959691561758518218994140625" lon="-2.887815423309803009033203125">
        <ele>1147.800048828125</ele>
        <time>2019-07-07T16:54:37.000Z</time>
      </trkpt>
      <trkpt lat="41.9396811537444591522216796875" lon="-2.88801063783466815948486328125">
        <ele>1147.800048828125</ele>
        <time>2019-07-07T16:54:38.000Z</time>
      </trkpt>
      <trkpt lat="41.93993772380053997039794921875" lon="-2.88857926614582538604736328125">
        <ele>1147.4000244140625</ele>
        <time>2019-07-07T16:54:41.000Z</time>
      </trkpt>
      <trkpt lat="41.94001953117549419403076171875" lon="-2.88876048289239406585693359375">
        <ele>1146.5999755859375</ele>
        <time>2019-07-07T16:54:43.000Z</time>
      </trkpt>
      <trkpt lat="41.94024265743792057037353515625" lon="-2.88928971625864505767822265625">
        <ele>1146.800048828125</ele>
        <time>2019-07-07T16:54:46.000Z</time>
      </trkpt>
      <trkpt lat="41.94029864855110645294189453125" lon="-2.8894700109958648681640625">
        <ele>1147.800048828125</ele>
        <time>2019-07-07T16:54:47.000Z</time>
      </trkpt>
      <trkpt lat="41.94034256972372531890869140625" lon="-2.8896535746753215789794921875">
        <ele>1148.800048828125</ele>
        <time>2019-07-07T16:54:48.000Z</time>
      </trkpt>
      <trkpt lat="41.94037400186061859130859375" lon="-2.88984275422990322113037109375">
        <ele>1149.800048828125</ele>
        <time>2019-07-07T16:54:49.000Z</time>
      </trkpt>
      <trkpt lat="41.9403999857604503631591796875" lon="-2.89023511111736297607421875">
        <ele>1150.800048828125</ele>
        <time>2019-07-07T16:54:50.000Z</time>
      </trkpt>
      <trkpt lat="41.940406523644924163818359375" lon="-2.890434600412845611572265625">
        <ele>1152.199951171875</ele>
        <time>2019-07-07T16:54:52.000Z</time>
      </trkpt>
      <trkpt lat="41.94043301045894622802734375" lon="-2.8909531049430370330810546875">
        <ele>1153.5999755859375</ele>
        <time>2019-07-07T16:54:54.000Z</time>
      </trkpt>
      <trkpt lat="41.94044633768498897552490234375" lon="-2.8910694457590579986572265625">
        <ele>1155</ele>
        <time>2019-07-07T16:54:56.000Z</time>
      </trkpt>
      <trkpt lat="41.9404724054038524627685546875" lon="-2.89122995920479297637939453125">
        <ele>1156.199951171875</ele>
        <time>2019-07-07T16:54:58.000Z</time>
      </trkpt>
      <trkpt lat="41.94052026607096195220947265625" lon="-2.89142928086221218109130859375">
        <ele>1157.4000244140625</ele>
        <time>2019-07-07T16:55:01.000Z</time>
      </trkpt>
      <trkpt lat="41.940739452838897705078125" lon="-2.8919642977416515350341796875">
        <ele>1157.800048828125</ele>
        <time>2019-07-07T16:55:06.000Z</time>
      </trkpt>
      <trkpt lat="41.94105796515941619873046875" lon="-2.89258212782442569732666015625">
        <ele>1157.5999755859375</ele>
        <time>2019-07-07T16:55:09.000Z</time>
      </trkpt>
      <trkpt lat="41.94129810668528079986572265625" lon="-2.893098704516887664794921875">
        <ele>1157</ele>
        <time>2019-07-07T16:55:12.000Z</time>
      </trkpt>
      <trkpt lat="41.9415439479053020477294921875" lon="-2.8936832584440708160400390625">
        <ele>1156.5999755859375</ele>
        <time>2019-07-07T16:55:16.000Z</time>
      </trkpt>
      <trkpt lat="41.94182130508124828338623046875" lon="-2.894384823739528656005859375">
        <ele>1158</ele>
        <time>2019-07-07T16:55:19.000Z</time>
      </trkpt>
      <trkpt lat="41.94191903807222843170166015625" lon="-2.894642315804958343505859375">
        <ele>1158.4000244140625</ele>
        <time>2019-07-07T16:55:20.000Z</time>
      </trkpt>
      <trkpt lat="41.94219614379107952117919921875" lon="-2.89547455497086048126220703125">
        <ele>1157.5999755859375</ele>
        <time>2019-07-07T16:55:23.000Z</time>
      </trkpt>
      <trkpt lat="41.942275352776050567626953125" lon="-2.8957693465054035186767578125">
        <ele>1156.5999755859375</ele>
        <time>2019-07-07T16:55:24.000Z</time>
      </trkpt>
      <trkpt lat="41.94241206161677837371826171875" lon="-2.8963835723698139190673828125">
        <ele>1156.199951171875</ele>
        <time>2019-07-07T16:55:25.000Z</time>
      </trkpt>
      <trkpt lat="41.94253720343112945556640625" lon="-2.897028140723705291748046875">
        <ele>1156</ele>
        <time>2019-07-07T16:55:27.000Z</time>
      </trkpt>
      <trkpt lat="41.9426530413329601287841796875" lon="-2.897650413215160369873046875">
        <ele>1157.5999755859375</ele>
        <time>2019-07-07T16:55:29.000Z</time>
      </trkpt>
      <trkpt lat="41.9427068531513214111328125" lon="-2.897944785654544830322265625">
        <ele>1158.800048828125</ele>
        <time>2019-07-07T16:55:30.000Z</time>
      </trkpt>
      <trkpt lat="41.942762844264507293701171875" lon="-2.89823454804718494415283203125">
        <ele>1160</ele>
        <time>2019-07-07T16:55:31.000Z</time>
      </trkpt>
      <trkpt lat="41.9428860582411289215087890625" lon="-2.89881373755633831024169921875">
        <ele>1161.199951171875</ele>
        <time>2019-07-07T16:55:33.000Z</time>
      </trkpt>
      <trkpt lat="41.9430332444608211517333984375" lon="-2.8993983753025531768798828125">
        <ele>1163</ele>
        <time>2019-07-07T16:55:35.000Z</time>
      </trkpt>
      <trkpt lat="41.9431118667125701904296875" lon="-2.8996910713613033294677734375">
        <ele>1164.800048828125</ele>
        <time>2019-07-07T16:55:36.000Z</time>
      </trkpt>
      <trkpt lat="41.9431118667125701904296875" lon="-2.8996910713613033294677734375">
        <ele>1166.4000244140625</ele>
        <time>2019-07-07T16:55:37.000Z</time>
      </trkpt>
      <trkpt lat="41.94326735101640224456787109375" lon="-2.900266908109188079833984375">
        <ele>1167.199951171875</ele>
        <time>2019-07-07T16:55:38.000Z</time>
      </trkpt>
      <trkpt lat="41.9433413632214069366455078125" lon="-2.9005409963428974151611328125">
        <ele>1167.5999755859375</ele>
        <time>2019-07-07T16:55:39.000Z</time>
      </trkpt>
      <trkpt lat="41.9435529224574565887451171875" lon="-2.90130936540663242340087890625">
        <ele>1167.199951171875</ele>
        <time>2019-07-07T16:55:42.000Z</time>
      </trkpt>
      <trkpt lat="41.94362215697765350341796875" lon="-2.9015599004924297332763671875">
        <ele>1166.199951171875</ele>
        <time>2019-07-07T16:55:43.000Z</time>
      </trkpt>
      <trkpt lat="41.9436866976320743560791015625" lon="-2.90179937146604061126708984375">
        <ele>1164.199951171875</ele>
        <time>2019-07-07T16:55:45.000Z</time>
      </trkpt>
      <trkpt lat="41.94380362518131732940673828125" lon="-2.90224512107670307159423828125">
        <ele>1162.5999755859375</ele>
        <time>2019-07-07T16:55:47.000Z</time>
      </trkpt>
      <trkpt lat="41.94408391602337360382080078125" lon="-2.903232090175151824951171875">
        <ele>1163.199951171875</ele>
        <time>2019-07-07T16:55:50.000Z</time>
      </trkpt>
      <trkpt lat="41.94424903951585292816162109375" lon="-2.90382561273872852325439453125">
        <ele>1163.4000244140625</ele>
        <time>2019-07-07T16:55:52.000Z</time>
      </trkpt>
      <trkpt lat="41.9443349540233612060546875" lon="-2.9041331447660923004150390625">
        <ele>1163.800048828125</ele>
        <time>2019-07-07T16:55:53.000Z</time>
      </trkpt>
      <trkpt lat="41.944601833820343017578125" lon="-2.90508524514734745025634765625">
        <ele>1164.800048828125</ele>
        <time>2019-07-07T16:55:56.000Z</time>
      </trkpt>
      <trkpt lat="41.94477542303502559661865234375" lon="-2.90572847239673137664794921875">
        <ele>1164.199951171875</ele>
        <time>2019-07-07T16:55:58.000Z</time>
      </trkpt>
      <trkpt lat="41.9448618404567241668701171875" lon="-2.90604648180305957794189453125">
        <ele>1164.4000244140625</ele>
        <time>2019-07-07T16:56:00.000Z</time>
      </trkpt>
      <trkpt lat="41.9451154768466949462890625" lon="-2.90696983225643634796142578125">
        <ele>1164.4000244140625</ele>
        <time>2019-07-07T16:56:02.000Z</time>
      </trkpt>
      <trkpt lat="41.9452832825481891632080078125" lon="-2.907590009272098541259765625">
        <ele>1164.199951171875</ele>
        <time>2019-07-07T16:56:04.000Z</time>
      </trkpt>
      <trkpt lat="41.94545402191579341888427734375" lon="-2.90822292678058147430419921875">
        <ele>1163.800048828125</ele>
        <time>2019-07-07T16:56:06.000Z</time>
      </trkpt>
      <trkpt lat="41.94545402191579341888427734375" lon="-2.90822292678058147430419921875">
        <ele>1163.800048828125</ele>
        <time>2019-07-07T16:56:07.000Z</time>
      </trkpt>
      <trkpt lat="41.945637166500091552734375" lon="-2.90887721814215183258056640625">
        <ele>1163.800048828125</ele>
        <time>2019-07-07T16:56:08.000Z</time>
      </trkpt>
      <trkpt lat="41.94584830664098262786865234375" lon="-2.909517847001552581787109375">
        <ele>1162.5999755859375</ele>
        <time>2019-07-07T16:56:11.000Z</time>
      </trkpt>
      <trkpt lat="41.9461023621261119842529296875" lon="-2.9101283848285675048828125">
        <ele>1160.4000244140625</ele>
        <time>2019-07-07T16:56:13.000Z</time>
      </trkpt>
      <trkpt lat="41.9462358020246028900146484375" lon="-2.9104199074208736419677734375">
        <ele>1158.199951171875</ele>
        <time>2019-07-07T16:56:14.000Z</time>
      </trkpt>
      <trkpt lat="41.94636479951441287994384765625" lon="-2.910699360072612762451171875">
        <ele>1157</ele>
        <time>2019-07-07T16:56:15.000Z</time>
      </trkpt>
      <trkpt lat="41.94661013782024383544921875" lon="-2.911224402487277984619140625">
        <ele>1156</ele>
        <time>2019-07-07T16:56:17.000Z</time>
      </trkpt>
      <trkpt lat="41.9467249698936939239501953125" lon="-2.911469154059886932373046875">
        <ele>1155.4000244140625</ele>
        <time>2019-07-07T16:56:18.000Z</time>
      </trkpt>
      <trkpt lat="41.947040297091007232666015625" lon="-2.91213224641978740692138671875">
        <ele>1155.800048828125</ele>
        <time>2019-07-07T16:56:21.000Z</time>
      </trkpt>
      <trkpt lat="41.94721992127597332000732421875" lon="-2.9124959371984004974365234375">
        <ele>1156.5999755859375</ele>
        <time>2019-07-07T16:56:23.000Z</time>
      </trkpt>
      <trkpt lat="41.947405748069286346435546875" lon="-2.912881672382354736328125">
        <ele>1157.800048828125</ele>
        <time>2019-07-07T16:56:25.000Z</time>
      </trkpt>
      <trkpt lat="41.94744623266160488128662109375" lon="-2.91296549141407012939453125">
        <ele>1159</ele>
        <time>2019-07-07T16:56:26.000Z</time>
      </trkpt>
      <trkpt lat="41.94747774861752986907958984375" lon="-2.91303430683910846710205078125">
        <ele>1160.4000244140625</ele>
        <time>2019-07-07T16:56:27.000Z</time>
      </trkpt>
      <trkpt lat="41.94753441028296947479248046875" lon="-2.91316003538668155670166015625">
        <ele>1162</ele>
        <time>2019-07-07T16:56:29.000Z</time>
      </trkpt>
      <trkpt lat="41.9475859589874744415283203125" lon="-2.91327302344143390655517578125">
        <ele>1163.4000244140625</ele>
        <time>2019-07-07T16:56:31.000Z</time>
      </trkpt>
      <trkpt lat="41.94769115187227725982666015625" lon="-2.91350771673023700714111328125">
        <ele>1164.4000244140625</ele>
        <time>2019-07-07T16:56:35.000Z</time>
      </trkpt>
      <trkpt lat="41.9478260166943073272705078125" lon="-2.913798987865447998046875">
        <ele>1165.5999755859375</ele>
        <time>2019-07-07T16:56:40.000Z</time>
      </trkpt>
      <trkpt lat="41.9478531740605831146240234375" lon="-2.91386897675693035125732421875">
        <ele>1166.5999755859375</ele>
        <time>2019-07-07T16:56:46.000Z</time>
      </trkpt>
      <trkpt lat="41.94785535335540771484375" lon="-2.9138937033712863922119140625">
        <ele>1167</ele>
        <time>2019-07-07T16:57:19.000Z</time>
      </trkpt>
      <trkpt lat="41.94782677106559276580810546875" lon="-2.91391155682504177093505859375">
        <ele>1167</ele>
        <time>2019-07-07T16:57:21.000Z</time>
      </trkpt>
      <trkpt lat="41.94755905307829380035400390625" lon="-2.91332063265144824981689453125">
        <ele>1165</ele>
        <time>2019-07-07T16:57:27.000Z</time>
      </trkpt>
      <trkpt lat="41.9472775049507617950439453125" lon="-2.9127048142254352569580078125">
        <ele>1163.5999755859375</ele>
        <time>2019-07-07T16:57:29.000Z</time>
      </trkpt>
      <trkpt lat="41.9472775049507617950439453125" lon="-2.9127048142254352569580078125">
        <ele>1162.5999755859375</ele>
        <time>2019-07-07T16:57:30.000Z</time>
      </trkpt>
      <trkpt lat="41.9471792690455913543701171875" lon="-2.912493087351322174072265625">
        <ele>1161</ele>
        <time>2019-07-07T16:57:31.000Z</time>
      </trkpt>
      <trkpt lat="41.94708849303424358367919921875" lon="-2.91229896247386932373046875">
        <ele>1159</ele>
        <time>2019-07-07T16:57:32.000Z</time>
      </trkpt>
      <trkpt lat="41.94693870842456817626953125" lon="-2.91198908351361751556396484375">
        <ele>1157.5999755859375</ele>
        <time>2019-07-07T16:57:34.000Z</time>
      </trkpt>
      <trkpt lat="41.9467596709728240966796875" lon="-2.91160753928124904632568359375">
        <ele>1158.800048828125</ele>
        <time>2019-07-07T16:57:39.000Z</time>
      </trkpt>
      <trkpt lat="41.9467568211257457733154296875" lon="-2.91157300584018230438232421875">
        <ele>1159</ele>
        <time>2019-07-07T16:57:40.000Z</time>
      </trkpt>
      <trkpt lat="41.94682580418884754180908203125" lon="-2.9116170108318328857421875">
        <ele>1159.800048828125</ele>
        <time>2019-07-07T16:57:51.000Z</time>
      </trkpt>
      <trkpt lat="41.9468986429274082183837890625" lon="-2.91180283762514591217041015625">
        <ele>1160.4000244140625</ele>
        <time>2019-07-07T16:58:21.000Z</time>
      </trkpt>
      <trkpt lat="41.9472644291818141937255859375" lon="-2.91258017532527446746826171875">
        <ele>1161</ele>
        <time>2019-07-07T16:58:27.000Z</time>
      </trkpt>
      <trkpt lat="41.947548575699329376220703125" lon="-2.9131849296391010284423828125">
        <ele>1162.5999755859375</ele>
        <time>2019-07-07T16:58:31.000Z</time>
      </trkpt>
      <trkpt lat="41.9477708637714385986328125" lon="-2.913653813302516937255859375">
        <ele>1164</ele>
        <time>2019-07-07T16:58:34.000Z</time>
      </trkpt>
      <trkpt lat="41.9479705207049846649169921875" lon="-2.91408405639231204986572265625">
        <ele>1165</ele>
        <time>2019-07-07T16:58:37.000Z</time>
      </trkpt>
      <trkpt lat="41.94810521788895130157470703125" lon="-2.9143855534493923187255859375">
        <ele>1166.199951171875</ele>
        <time>2019-07-07T16:58:39.000Z</time>
      </trkpt>
      <trkpt lat="41.9484157674014568328857421875" lon="-2.91506524197757244110107421875">
        <ele>1167</ele>
        <time>2019-07-07T16:58:43.000Z</time>
      </trkpt>
      <trkpt lat="41.94867451675236225128173828125" lon="-2.91564124636352062225341796875">
        <ele>1166.4000244140625</ele>
        <time>2019-07-07T16:58:46.000Z</time>
      </trkpt>
      <trkpt lat="41.9488584995269775390625" lon="-2.91604257188737392425537109375">
        <ele>1165</ele>
        <time>2019-07-07T16:58:48.000Z</time>
      </trkpt>
      <trkpt lat="41.94895413704216480255126953125" lon="-2.9162466712296009063720703125">
        <ele>1164</ele>
        <time>2019-07-07T16:58:49.000Z</time>
      </trkpt>
      <trkpt lat="41.94916267879307270050048828125" lon="-2.91667624376714229583740234375">
        <ele>1162.199951171875</ele>
        <time>2019-07-07T16:58:51.000Z</time>
      </trkpt>
      <trkpt lat="41.94941103458404541015625" lon="-2.91715485043823719024658203125">
        <ele>1161</ele>
        <time>2019-07-07T16:58:53.000Z</time>
      </trkpt>
      <trkpt lat="41.94968218915164470672607421875" lon="-2.91767000220715999603271484375">
        <ele>1160.5999755859375</ele>
        <time>2019-07-07T16:58:55.000Z</time>
      </trkpt>
      <trkpt lat="41.9499419443309307098388671875" lon="-2.9182224534451961517333984375">
        <ele>1160.199951171875</ele>
        <time>2019-07-07T16:58:57.000Z</time>
      </trkpt>
      <trkpt lat="41.95005836896598339080810546875" lon="-2.91850249283015727996826171875">
        <ele>1160</ele>
        <time>2019-07-07T16:58:58.000Z</time>
      </trkpt>
      <trkpt lat="41.9502591155469417572021484375" lon="-2.91905410587787628173828125">
        <ele>1160.199951171875</ele>
        <time>2019-07-07T16:59:00.000Z</time>
      </trkpt>
      <trkpt lat="41.950522474944591522216796875" lon="-2.91982985101640224456787109375">
        <ele>1160.5999755859375</ele>
        <time>2019-07-07T16:59:03.000Z</time>
      </trkpt>
      <trkpt lat="41.95060319267213344573974609375" lon="-2.9200632870197296142578125">
        <ele>1161</ele>
        <time>2019-07-07T16:59:04.000Z</time>
      </trkpt>
      <trkpt lat="41.95081843994557857513427734375" lon="-2.92069570161402225494384765625">
        <ele>1161.800048828125</ele>
        <time>2019-07-07T16:59:07.000Z</time>
      </trkpt>
      <trkpt lat="41.9508847407996654510498046875" lon="-2.9208899103105068206787109375">
        <ele>1162.199951171875</ele>
        <time>2019-07-07T16:59:08.000Z</time>
      </trkpt>
      <trkpt lat="41.9510825537145137786865234375" lon="-2.92147454805672168731689453125">
        <ele>1163.4000244140625</ele>
        <time>2019-07-07T16:59:11.000Z</time>
      </trkpt>
      <trkpt lat="41.951291263103485107421875" lon="-2.92208340950310230255126953125">
        <ele>1163.5999755859375</ele>
        <time>2019-07-07T16:59:14.000Z</time>
      </trkpt>
      <trkpt lat="41.95149636827409267425537109375" lon="-2.9226749204099178314208984375">
        <ele>1162.199951171875</ele>
        <time>2019-07-07T16:59:17.000Z</time>
      </trkpt>
      <trkpt lat="41.95162410847842693328857421875" lon="-2.9230407066643238067626953125">
        <ele>1161</ele>
        <time>2019-07-07T16:59:19.000Z</time>
      </trkpt>
      <trkpt lat="41.95183834992349147796630859375" lon="-2.923722825944423675537109375">
        <ele>1160.800048828125</ele>
        <time>2019-07-07T16:59:23.000Z</time>
      </trkpt>
      <trkpt lat="41.9519765675067901611328125" lon="-2.92443352751433849334716796875">
        <ele>1161.5999755859375</ele>
        <time>2019-07-07T16:59:28.000Z</time>
      </trkpt>
      <trkpt lat="41.952079497277736663818359375" lon="-2.92515076696872711181640625">
        <ele>1161.5999755859375</ele>
        <time>2019-07-07T16:59:31.000Z</time>
      </trkpt>
      <trkpt lat="41.95217312313616275787353515625" lon="-2.9258194752037525177001953125">
        <ele>1160.800048828125</ele>
        <time>2019-07-07T16:59:35.000Z</time>
      </trkpt>
      <trkpt lat="41.95229399017989635467529296875" lon="-2.92666018009185791015625">
        <ele>1160.4000244140625</ele>
        <time>2019-07-07T16:59:41.000Z</time>
      </trkpt>
      <trkpt lat="41.95239834487438201904296875" lon="-2.92737239040434360504150390625">
        <ele>1160.4000244140625</ele>
        <time>2019-07-07T16:59:46.000Z</time>
      </trkpt>
      <trkpt lat="41.95244260132312774658203125" lon="-2.92768620885908603668212890625">
        <ele>1159.800048828125</ele>
        <time>2019-07-07T16:59:48.000Z</time>
      </trkpt>
      <trkpt lat="41.952492892742156982421875" lon="-2.92802182026207447052001953125">
        <ele>1158.199951171875</ele>
        <time>2019-07-07T16:59:51.000Z</time>
      </trkpt>
      <trkpt lat="41.95256439037621021270751953125" lon="-2.92836095206439495086669921875">
        <ele>1156.5999755859375</ele>
        <time>2019-07-07T16:59:53.000Z</time>
      </trkpt>
      <trkpt lat="41.95266748778522014617919921875" lon="-2.92868734337389469146728515625">
        <ele>1155.199951171875</ele>
        <time>2019-07-07T16:59:55.000Z</time>
      </trkpt>
      <trkpt lat="41.9528642110526561737060546875" lon="-2.9291479289531707763671875">
        <ele>1154.199951171875</ele>
        <time>2019-07-07T16:59:57.000Z</time>
      </trkpt>
      <trkpt lat="41.9531686417758464813232421875" lon="-2.92978218756616115570068359375">
        <ele>1154.199951171875</ele>
        <time>2019-07-07T17:00:02.000Z</time>
      </trkpt>
      <trkpt lat="41.9532854855060577392578125" lon="-2.93002442456781864166259765625">
        <ele>1155.199951171875</ele>
        <time>2019-07-07T17:00:04.000Z</time>
      </trkpt>
      <trkpt lat="41.9534703902900218963623046875" lon="-2.93041233904659748077392578125">
        <ele>1156.4000244140625</ele>
        <time>2019-07-07T17:00:08.000Z</time>
      </trkpt>
      <trkpt lat="41.95372469723224639892578125" lon="-2.930945344269275665283203125">
        <ele>1156.5999755859375</ele>
        <time>2019-07-07T17:00:11.000Z</time>
      </trkpt>
      <trkpt lat="41.9540044851601123809814453125" lon="-2.9315510205924510955810546875">
        <ele>1155</ele>
        <time>2019-07-07T17:00:16.000Z</time>
      </trkpt>
      <trkpt lat="41.954095847904682159423828125" lon="-2.93175444938242435455322265625">
        <ele>1153.5999755859375</ele>
        <time>2019-07-07T17:00:18.000Z</time>
      </trkpt>
      <trkpt lat="41.95424462668597698211669921875" lon="-2.93210037052631378173828125">
        <ele>1153</ele>
        <time>2019-07-07T17:00:22.000Z</time>
      </trkpt>
      <trkpt lat="41.95438594557344913482666015625" lon="-2.9323811642825603485107421875">
        <ele>1153</ele>
        <time>2019-07-07T17:00:28.000Z</time>
      </trkpt>
      <trkpt lat="41.9544550962746143341064453125" lon="-2.9323597066104412078857421875">
        <ele>1153</ele>
        <time>2019-07-07T17:00:30.000Z</time>
      </trkpt>
      <trkpt lat="41.9544973410665988922119140625" lon="-2.9323476366698741912841796875">
        <ele>1153</ele>
        <time>2019-07-07T17:00:32.000Z</time>
      </trkpt>
      <trkpt lat="41.95458778180181980133056640625" lon="-2.93236062861979007720947265625">
        <ele>1153</ele>
        <time>2019-07-07T17:00:34.000Z</time>
      </trkpt>
      <trkpt lat="41.9549824856221675872802734375" lon="-2.93269305489957332611083984375">
        <ele>1154.199951171875</ele>
        <time>2019-07-07T17:00:44.000Z</time>
      </trkpt>
      <trkpt lat="41.95513998158276081085205078125" lon="-2.93279112316668033599853515625">
        <ele>1154.5999755859375</ele>
        <time>2019-07-07T17:00:46.000Z</time>
      </trkpt>
      <trkpt lat="41.95542865432798862457275390625" lon="-2.93288893997669219970703125">
        <ele>1155.800048828125</ele>
        <time>2019-07-07T17:00:51.000Z</time>
      </trkpt>
      <trkpt lat="41.955585479736328125" lon="-2.93292724527418613433837890625">
        <ele>1156.800048828125</ele>
        <time>2019-07-07T17:00:55.000Z</time>
      </trkpt>
      <trkpt lat="41.955685056746006011962890625" lon="-2.9329216293990612030029296875">
        <ele>1157.199951171875</ele>
        <time>2019-07-07T17:00:57.000Z</time>
      </trkpt>
      <trkpt lat="41.95583266206085681915283203125" lon="-2.9328545741736888885498046875">
        <ele>1157.199951171875</ele>
        <time>2019-07-07T17:00:59.000Z</time>
      </trkpt>
      <trkpt lat="41.95595168508589267730712890625" lon="-2.9327808134257793426513671875">
        <ele>1156.800048828125</ele>
        <time>2019-07-07T17:01:03.000Z</time>
      </trkpt>
      <trkpt lat="41.95608043111860752105712890625" lon="-2.9326879419386386871337890625">
        <ele>1156.4000244140625</ele>
        <time>2019-07-07T17:01:07.000Z</time>
      </trkpt>
      <trkpt lat="41.95609518326818943023681640625" lon="-2.9325972497463226318359375">
        <ele>1156.199951171875</ele>
        <time>2019-07-07T17:01:09.000Z</time>
      </trkpt>
      <trkpt lat="41.9560557045042514801025390625" lon="-2.93250144459307193756103515625">
        <ele>1156.199951171875</ele>
        <time>2019-07-07T17:01:11.000Z</time>
      </trkpt>
      <trkpt lat="41.955891586840152740478515625" lon="-2.93218209408223628997802734375">
        <ele>1157.199951171875</ele>
        <time>2019-07-07T17:01:17.000Z</time>
      </trkpt>
      <trkpt lat="41.95584406144917011260986328125" lon="-2.932002805173397064208984375">
        <ele>1158</ele>
        <time>2019-07-07T17:01:20.000Z</time>
      </trkpt>
      <trkpt lat="41.955796368420124053955078125" lon="-2.93183407746255397796630859375">
        <ele>1159.199951171875</ele>
        <time>2019-07-07T17:01:23.000Z</time>
      </trkpt>
      <trkpt lat="41.95577784441411495208740234375" lon="-2.93171488679945468902587890625">
        <ele>1159.800048828125</ele>
        <time>2019-07-07T17:01:25.000Z</time>
      </trkpt>
      <trkpt lat="41.9557898305356502532958984375" lon="-2.93158270418643951416015625">
        <ele>1160.199951171875</ele>
        <time>2019-07-07T17:01:27.000Z</time>
      </trkpt>
      <trkpt lat="41.955833919346332550048828125" lon="-2.93146728537976741790771484375">
        <ele>1160.800048828125</ele>
        <time>2019-07-07T17:01:29.000Z</time>
      </trkpt>
      <trkpt lat="41.955919750034809112548828125" lon="-2.9313216917216777801513671875">
        <ele>1161.4000244140625</ele>
        <time>2019-07-07T17:01:32.000Z</time>
      </trkpt>
      <trkpt lat="41.95596341975033283233642578125" lon="-2.93125505559146404266357421875">
        <ele>1162.5999755859375</ele>
        <time>2019-07-07T17:01:36.000Z</time>
      </trkpt>
      <trkpt lat="41.95599443279206752777099609375" lon="-2.93123401701450347900390625">
        <ele>1163.199951171875</ele>
        <time>2019-07-07T17:01:40.000Z</time>
      </trkpt>
      <trkpt lat="41.95605595596134662628173828125" lon="-2.93128321878612041473388671875">
        <ele>1163.199951171875</ele>
        <time>2019-07-07T17:01:43.000Z</time>
      </trkpt>
      <trkpt lat="41.95640514604747295379638671875" lon="-2.9316673614084720611572265625">
        <ele>1162.800048828125</ele>
        <time>2019-07-07T17:01:55.000Z</time>
      </trkpt>
      <trkpt lat="41.95653255097568035125732421875" lon="-2.93176484294235706329345703125">
        <ele>1162</ele>
        <time>2019-07-07T17:02:26.000Z</time>
      </trkpt>
      <trkpt lat="41.9564868696033954620361328125" lon="-2.93175294063985347747802734375">
        <ele>1161.800048828125</ele>
        <time>2019-07-07T17:02:30.000Z</time>
      </trkpt>
      <trkpt lat="41.956442780792713165283203125" lon="-2.9317300580441951751708984375">
        <ele>1161.800048828125</ele>
        <time>2019-07-07T17:02:44.000Z</time>
      </trkpt>
      <trkpt lat="41.95648108609020709991455078125" lon="-2.93165839277207851409912109375">
        <ele>1163</ele>
        <time>2019-07-07T17:05:08.000Z</time>
      </trkpt>
      <trkpt lat="41.97496779263019561767578125" lon="-3.13776738010346889495849609375">
        <ele>1094.199951171875</ele>
        <time>2019-07-08T08:27:19.000Z</time>
      </trkpt>
      <trkpt lat="41.9750665314495563507080078125" lon="-3.13791356049478054046630859375">
        <ele>1089.4000244140625</ele>
        <time>2019-07-08T08:27:20.000Z</time>
      </trkpt>
      <trkpt lat="41.9751667790114879608154296875" lon="-3.13805513083934783935546875">
        <ele>1090.5999755859375</ele>
        <time>2019-07-08T08:27:21.000Z</time>
      </trkpt>
      <trkpt lat="41.97537506930530071258544921875" lon="-3.1383429653942584991455078125">
        <ele>1086.199951171875</ele>
        <time>2019-07-08T08:27:23.000Z</time>
      </trkpt>
      <trkpt lat="41.97549040429294109344482421875" lon="-3.1385065801441669464111328125">
        <ele>1081.800048828125</ele>
        <time>2019-07-08T08:27:24.000Z</time>
      </trkpt>
      <trkpt lat="41.97561554610729217529296875" lon="-3.13868670724332332611083984375">
        <ele>1083.4000244140625</ele>
        <time>2019-07-08T08:27:25.000Z</time>
      </trkpt>
      <trkpt lat="41.9758909754455089569091796875" lon="-3.1390763819217681884765625">
        <ele>1082</ele>
        <time>2019-07-08T08:27:27.000Z</time>
      </trkpt>
      <trkpt lat="41.976038329303264617919921875" lon="-3.1392767094075679779052734375">
        <ele>1079.800048828125</ele>
        <time>2019-07-08T08:27:28.000Z</time>
      </trkpt>
      <trkpt lat="41.976196579635143280029296875" lon="-3.1394765339791774749755859375">
        <ele>1077.4000244140625</ele>
        <time>2019-07-08T08:27:29.000Z</time>
      </trkpt>
      <trkpt lat="41.9763667322695255279541015625" lon="-3.13966906629502773284912109375">
        <ele>1075.5999755859375</ele>
        <time>2019-07-08T08:27:30.000Z</time>
      </trkpt>
      <trkpt lat="41.9765538163483142852783203125" lon="-3.1398466788232326507568359375">
        <ele>1074.4000244140625</ele>
        <time>2019-07-08T08:27:31.000Z</time>
      </trkpt>
      <trkpt lat="41.97675146162509918212890625" lon="-3.1400025822222232818603515625">
        <ele>1073</ele>
        <time>2019-07-08T08:27:32.000Z</time>
      </trkpt>
      <trkpt lat="41.97694592177867889404296875" lon="-3.14014264382421970367431640625">
        <ele>1070.5999755859375</ele>
        <time>2019-07-08T08:27:33.000Z</time>
      </trkpt>
      <trkpt lat="41.9771335087716579437255859375" lon="-3.14027910120785236358642578125">
        <ele>1067.5999755859375</ele>
        <time>2019-07-08T08:27:34.000Z</time>
      </trkpt>
      <trkpt lat="41.97731816209852695465087890625" lon="-3.1404226832091808319091796875">
        <ele>1065.199951171875</ele>
        <time>2019-07-08T08:27:35.000Z</time>
      </trkpt>
      <trkpt lat="41.977493762969970703125" lon="-3.1405769102275371551513671875">
        <ele>1063.5999755859375</ele>
        <time>2019-07-08T08:27:36.000Z</time>
      </trkpt>
      <trkpt lat="41.9778010435402393341064453125" lon="-3.1409232504665851593017578125">
        <ele>1063</ele>
        <time>2019-07-08T08:27:38.000Z</time>
      </trkpt>
      <trkpt lat="41.97814277373254299163818359375" lon="-3.14157628454267978668212890625">
        <ele>1064.4000244140625</ele>
        <time>2019-07-08T08:27:41.000Z</time>
      </trkpt>
      <trkpt lat="41.9782479666173458099365234375" lon="-3.14181097783148288726806640625">
        <ele>1066</ele>
        <time>2019-07-08T08:27:42.000Z</time>
      </trkpt>
      <trkpt lat="41.97835684753954410552978515625" lon="-3.1420497782528400421142578125">
        <ele>1067.199951171875</ele>
        <time>2019-07-08T08:27:43.000Z</time>
      </trkpt>
      <trkpt lat="41.97846530936658382415771484375" lon="-3.14229226671159267425537109375">
        <ele>1068.199951171875</ele>
        <time>2019-07-08T08:27:44.000Z</time>
      </trkpt>
      <trkpt lat="41.97868407703936100006103515625" lon="-3.1427806802093982696533203125">
        <ele>1069.4000244140625</ele>
        <time>2019-07-08T08:27:46.000Z</time>
      </trkpt>
      <trkpt lat="41.97901784442365169525146484375" lon="-3.14351250417530536651611328125">
        <ele>1068.4000244140625</ele>
        <time>2019-07-08T08:27:49.000Z</time>
      </trkpt>
      <trkpt lat="41.97912731207907199859619140625" lon="-3.14375138841569423675537109375">
        <ele>1068</ele>
        <time>2019-07-08T08:27:50.000Z</time>
      </trkpt>
      <trkpt lat="41.97941179387271404266357421875" lon="-3.14447474665939807891845703125">
        <ele>1067</ele>
        <time>2019-07-08T08:27:53.000Z</time>
      </trkpt>
      <trkpt lat="41.97954573668539524078369140625" lon="-3.14499626867473125457763671875">
        <ele>1065.800048828125</ele>
        <time>2019-07-08T08:27:55.000Z</time>
      </trkpt>
      <trkpt lat="41.979622431099414825439453125" lon="-3.14583864994347095489501953125">
        <ele>1064.199951171875</ele>
        <time>2019-07-08T08:27:58.000Z</time>
      </trkpt>
      <trkpt lat="41.9795904122292995452880859375" lon="-3.14641633071005344390869140625">
        <ele>1061.5999755859375</ele>
        <time>2019-07-08T08:28:00.000Z</time>
      </trkpt>
      <trkpt lat="41.97954707778990268707275390625" lon="-3.14670382998883724212646484375">
        <ele>1059</ele>
        <time>2019-07-08T08:28:01.000Z</time>
      </trkpt>
      <trkpt lat="41.979486979544162750244140625" lon="-3.14698764123022556304931640625">
        <ele>1056.4000244140625</ele>
        <time>2019-07-08T08:28:02.000Z</time>
      </trkpt>
      <trkpt lat="41.97941782884299755096435546875" lon="-3.1472717039287090301513671875">
        <ele>1054.199951171875</ele>
        <time>2019-07-08T08:28:03.000Z</time>
      </trkpt>
      <trkpt lat="41.979344151914119720458984375" lon="-3.147555850446224212646484375">
        <ele>1052.4000244140625</ele>
        <time>2019-07-08T08:28:04.000Z</time>
      </trkpt>
      <trkpt lat="41.97926946915686130523681640625" lon="-3.147842176258563995361328125">
        <ele>1051</ele>
        <time>2019-07-08T08:28:05.000Z</time>
      </trkpt>
      <trkpt lat="41.97919671423733234405517578125" lon="-3.1481313519179821014404296875">
        <ele>1049.800048828125</ele>
        <time>2019-07-08T08:28:06.000Z</time>
      </trkpt>
      <trkpt lat="41.97912513278424739837646484375" lon="-3.14842312596738338470458984375">
        <ele>1048.5999755859375</ele>
        <time>2019-07-08T08:28:07.000Z</time>
      </trkpt>
      <trkpt lat="41.97905103676021099090576171875" lon="-3.14871548675000667572021484375">
        <ele>1047.199951171875</ele>
        <time>2019-07-08T08:28:08.000Z</time>
      </trkpt>
      <trkpt lat="41.9788992404937744140625" lon="-3.1492984481155872344970703125">
        <ele>1045.4000244140625</ele>
        <time>2019-07-08T08:28:10.000Z</time>
      </trkpt>
      <trkpt lat="41.97875515557825565338134765625" lon="-3.14988308586180210113525390625">
        <ele>1045.199951171875</ele>
        <time>2019-07-08T08:28:12.000Z</time>
      </trkpt>
      <trkpt lat="41.9786067120730876922607421875" lon="-3.15046445466578006744384765625">
        <ele>1045.5999755859375</ele>
        <time>2019-07-08T08:28:14.000Z</time>
      </trkpt>
      <trkpt lat="41.97846136987209320068359375" lon="-3.15103568136692047119140625">
        <ele>1045.4000244140625</ele>
        <time>2019-07-08T08:28:16.000Z</time>
      </trkpt>
      <trkpt lat="41.97825006209313869476318359375" lon="-3.1518566049635410308837890625">
        <ele>1046</ele>
        <time>2019-07-08T08:28:19.000Z</time>
      </trkpt>
      <trkpt lat="41.97805224917829036712646484375" lon="-3.15263335593044757843017578125">
        <ele>1045.4000244140625</ele>
        <time>2019-07-08T08:28:22.000Z</time>
      </trkpt>
      <trkpt lat="41.97793322615325450897216796875" lon="-3.1531004793941974639892578125">
        <ele>1046.4000244140625</ele>
        <time>2019-07-08T08:28:24.000Z</time>
      </trkpt>
      <trkpt lat="41.97782090865075588226318359375" lon="-3.1535497494041919708251953125">
        <ele>1047.800048828125</ele>
        <time>2019-07-08T08:28:26.000Z</time>
      </trkpt>
      <trkpt lat="41.97771211154758930206298828125" lon="-3.15400547347962856292724609375">
        <ele>1050.199951171875</ele>
        <time>2019-07-08T08:28:28.000Z</time>
      </trkpt>
      <trkpt lat="41.97761001996695995330810546875" lon="-3.154481984674930572509765625">
        <ele>1051.4000244140625</ele>
        <time>2019-07-08T08:28:30.000Z</time>
      </trkpt>
      <trkpt lat="41.97757146321237087249755859375" lon="-3.1547326035797595977783203125">
        <ele>1052.800048828125</ele>
        <time>2019-07-08T08:28:31.000Z</time>
      </trkpt>
      <trkpt lat="41.977539025247097015380859375" lon="-3.15499537624418735504150390625">
        <ele>1053.800048828125</ele>
        <time>2019-07-08T08:28:32.000Z</time>
      </trkpt>
      <trkpt lat="41.97749309241771697998046875" lon="-3.15583423711359500885009765625">
        <ele>1055.800048828125</ele>
        <time>2019-07-08T08:28:35.000Z</time>
      </trkpt>
      <trkpt lat="41.97749703191220760345458984375" lon="-3.15612944774329662322998046875">
        <ele>1057.199951171875</ele>
        <time>2019-07-08T08:28:36.000Z</time>
      </trkpt>
      <trkpt lat="41.9775368459522724151611328125" lon="-3.1567479483783245086669921875">
        <ele>1057.800048828125</ele>
        <time>2019-07-08T08:28:38.000Z</time>
      </trkpt>
      <trkpt lat="41.97761110961437225341796875" lon="-3.15739695914089679718017578125">
        <ele>1057.4000244140625</ele>
        <time>2019-07-08T08:28:40.000Z</time>
      </trkpt>
      <trkpt lat="41.97769266553223133087158203125" lon="-3.15807404927909374237060546875">
        <ele>1056.800048828125</ele>
        <time>2019-07-08T08:28:42.000Z</time>
      </trkpt>
      <trkpt lat="41.97777229361236095428466796875" lon="-3.1587783806025981903076171875">
        <ele>1057</ele>
        <time>2019-07-08T08:28:44.000Z</time>
      </trkpt>
      <trkpt lat="41.9778570346534252166748046875" lon="-3.159504421055316925048828125">
        <ele>1057.199951171875</ele>
        <time>2019-07-08T08:28:46.000Z</time>
      </trkpt>
      <trkpt lat="41.97794512845575809478759765625" lon="-3.1602398492395877838134765625">
        <ele>1058</ele>
        <time>2019-07-08T08:28:48.000Z</time>
      </trkpt>
      <trkpt lat="41.97798787616193294525146484375" lon="-3.16060714423656463623046875">
        <ele>1058.199951171875</ele>
        <time>2019-07-08T08:28:49.000Z</time>
      </trkpt>
      <trkpt lat="41.97808376513421535491943359375" lon="-3.16133343614637851715087890625">
        <ele>1058</ele>
        <time>2019-07-08T08:28:51.000Z</time>
      </trkpt>
      <trkpt lat="41.9781430251896381378173828125" lon="-3.1616855598986148834228515625">
        <ele>1057</ele>
        <time>2019-07-08T08:28:52.000Z</time>
      </trkpt>
      <trkpt lat="41.97821066714823246002197265625" lon="-3.16202444024384021759033203125">
        <ele>1055.5999755859375</ele>
        <time>2019-07-08T08:28:53.000Z</time>
      </trkpt>
      <trkpt lat="41.97828694246709346771240234375" lon="-3.16234798170626163482666015625">
        <ele>1053.4000244140625</ele>
        <time>2019-07-08T08:28:54.000Z</time>
      </trkpt>
      <trkpt lat="41.97837042622268199920654296875" lon="-3.162656016647815704345703125">
        <ele>1052.199951171875</ele>
        <time>2019-07-08T08:28:55.000Z</time>
      </trkpt>
      <trkpt lat="41.9784601964056491851806640625" lon="-3.1629535742104053497314453125">
        <ele>1051</ele>
        <time>2019-07-08T08:28:56.000Z</time>
      </trkpt>
      <trkpt lat="41.97865725494921207427978515625" lon="-3.163531087338924407958984375">
        <ele>1052</ele>
        <time>2019-07-08T08:28:58.000Z</time>
      </trkpt>
      <trkpt lat="41.97876538150012493133544921875" lon="-3.16381447948515415191650390625">
        <ele>1055</ele>
        <time>2019-07-08T08:28:59.000Z</time>
      </trkpt>
      <trkpt lat="41.97887736372649669647216796875" lon="-3.16409669816493988037109375">
        <ele>1058.800048828125</ele>
        <time>2019-07-08T08:29:00.000Z</time>
      </trkpt>
      <trkpt lat="41.97899102233350276947021484375" lon="-3.16438092850148677825927734375">
        <ele>1061.4000244140625</ele>
        <time>2019-07-08T08:29:01.000Z</time>
      </trkpt>
      <trkpt lat="41.97910308837890625" lon="-3.16466524265706539154052734375">
        <ele>1063.5999755859375</ele>
        <time>2019-07-08T08:29:02.000Z</time>
      </trkpt>
      <trkpt lat="41.979213394224643707275390625" lon="-3.164947293698787689208984375">
        <ele>1065</ele>
        <time>2019-07-08T08:29:03.000Z</time>
      </trkpt>
      <trkpt lat="41.9794281385838985443115234375" lon="-3.16550041548907756805419921875">
        <ele>1066.4000244140625</ele>
        <time>2019-07-08T08:29:05.000Z</time>
      </trkpt>
      <trkpt lat="41.9795303978025913238525390625" lon="-3.16576964221894741058349609375">
        <ele>1067.800048828125</ele>
        <time>2019-07-08T08:29:06.000Z</time>
      </trkpt>
      <trkpt lat="41.979631148278713226318359375" lon="-3.16603199578821659088134765625">
        <ele>1069.5999755859375</ele>
        <time>2019-07-08T08:29:07.000Z</time>
      </trkpt>
      <trkpt lat="41.97973147965967655181884765625" lon="-3.16628948785364627838134765625">
        <ele>1071.800048828125</ele>
        <time>2019-07-08T08:29:08.000Z</time>
      </trkpt>
      <trkpt lat="41.97983005084097385406494140625" lon="-3.16654832102358341217041015625">
        <ele>1072.800048828125</ele>
        <time>2019-07-08T08:29:09.000Z</time>
      </trkpt>
      <trkpt lat="41.98000271804630756378173828125" lon="-3.16709272563457489013671875">
        <ele>1074</ele>
        <time>2019-07-08T08:29:11.000Z</time>
      </trkpt>
      <trkpt lat="41.980140097439289093017578125" lon="-3.16766881383955478668212890625">
        <ele>1073.4000244140625</ele>
        <time>2019-07-08T08:29:13.000Z</time>
      </trkpt>
      <trkpt lat="41.98019583709537982940673828125" lon="-3.1679691374301910400390625">
        <ele>1072.5999755859375</ele>
        <time>2019-07-08T08:29:14.000Z</time>
      </trkpt>
      <trkpt lat="41.98028183542191982269287109375" lon="-3.16858780570328235626220703125">
        <ele>1071.800048828125</ele>
        <time>2019-07-08T08:29:16.000Z</time>
      </trkpt>
      <trkpt lat="41.9803099147975444793701171875" lon="-3.1689074076712131500244140625">
        <ele>1071.199951171875</ele>
        <time>2019-07-08T08:29:17.000Z</time>
      </trkpt>
      <trkpt lat="41.98033732362091541290283203125" lon="-3.1695581786334514617919921875">
        <ele>1070.199951171875</ele>
        <time>2019-07-08T08:29:19.000Z</time>
      </trkpt>
      <trkpt lat="41.98031477630138397216796875" lon="-3.17020081914961338043212890625">
        <ele>1069.4000244140625</ele>
        <time>2019-07-08T08:29:21.000Z</time>
      </trkpt>
      <trkpt lat="41.9802488945424556732177734375" lon="-3.170840442180633544921875">
        <ele>1069.199951171875</ele>
        <time>2019-07-08T08:29:23.000Z</time>
      </trkpt>
      <trkpt lat="41.98020287789404392242431640625" lon="-3.17115820012986660003662109375">
        <ele>1069</ele>
        <time>2019-07-08T08:29:24.000Z</time>
      </trkpt>
      <trkpt lat="41.9800735451281070709228515625" lon="-3.171788267791271209716796875">
        <ele>1068.5999755859375</ele>
        <time>2019-07-08T08:29:26.000Z</time>
      </trkpt>
      <trkpt lat="41.979991234838962554931640625" lon="-3.17210066132247447967529296875">
        <ele>1068</ele>
        <time>2019-07-08T08:29:27.000Z</time>
      </trkpt>
      <trkpt lat="41.97990029118955135345458984375" lon="-3.172411881387233734130859375">
        <ele>1065.5999755859375</ele>
        <time>2019-07-08T08:29:28.000Z</time>
      </trkpt>
      <trkpt lat="41.9798018038272857666015625" lon="-3.17271974869072437286376953125">
        <ele>1062.4000244140625</ele>
        <time>2019-07-08T08:29:29.000Z</time>
      </trkpt>
      <trkpt lat="41.9797007180750370025634765625" lon="-3.1730272807180881500244140625">
        <ele>1059.199951171875</ele>
        <time>2019-07-08T08:29:30.000Z</time>
      </trkpt>
      <trkpt lat="41.97960399091243743896484375" lon="-3.17334068007767200469970703125">
        <ele>1057</ele>
        <time>2019-07-08T08:29:31.000Z</time>
      </trkpt>
      <trkpt lat="41.9795203395187854766845703125" lon="-3.1736609525978565216064453125">
        <ele>1055.199951171875</ele>
        <time>2019-07-08T08:29:32.000Z</time>
      </trkpt>
      <trkpt lat="41.979458145797252655029296875" lon="-3.173990361392498016357421875">
        <ele>1054</ele>
        <time>2019-07-08T08:29:33.000Z</time>
      </trkpt>
      <trkpt lat="41.97942218743264675140380859375" lon="-3.17432655952870845794677734375">
        <ele>1052.5999755859375</ele>
        <time>2019-07-08T08:29:34.000Z</time>
      </trkpt>
      <trkpt lat="41.979415901005268096923828125" lon="-3.17466485314071178436279296875">
        <ele>1051.800048828125</ele>
        <time>2019-07-08T08:29:35.000Z</time>
      </trkpt>
      <trkpt lat="41.979440040886402130126953125" lon="-3.17499996162950992584228515625">
        <ele>1051.4000244140625</ele>
        <time>2019-07-08T08:29:36.000Z</time>
      </trkpt>
      <trkpt lat="41.9794918410480022430419921875" lon="-3.1753266043961048126220703125">
        <ele>1051.199951171875</ele>
        <time>2019-07-08T08:29:37.000Z</time>
      </trkpt>
      <trkpt lat="41.97966911830008029937744140625" lon="-3.175936974585056304931640625">
        <ele>1052.199951171875</ele>
        <time>2019-07-08T08:29:39.000Z</time>
      </trkpt>
      <trkpt lat="41.9797932542860507965087890625" lon="-3.176213242113590240478515625">
        <ele>1053</ele>
        <time>2019-07-08T08:29:40.000Z</time>
      </trkpt>
      <trkpt lat="41.9799401052296161651611328125" lon="-3.1764675490558147430419921875">
        <ele>1054.199951171875</ele>
        <time>2019-07-08T08:29:41.000Z</time>
      </trkpt>
      <trkpt lat="41.9801070727407932281494140625" lon="-3.176698386669158935546875">
        <ele>1055.5999755859375</ele>
        <time>2019-07-08T08:29:42.000Z</time>
      </trkpt>
      <trkpt lat="41.98029189370572566986083984375" lon="-3.17690382711589336395263671875">
        <ele>1057.5999755859375</ele>
        <time>2019-07-08T08:29:43.000Z</time>
      </trkpt>
      <trkpt lat="41.98049272410571575164794921875" lon="-3.1770797632634639739990234375">
        <ele>1059.5999755859375</ele>
        <time>2019-07-08T08:29:44.000Z</time>
      </trkpt>
      <trkpt lat="41.98070813901722431182861328125" lon="-3.17722451873123645782470703125">
        <ele>1060.5999755859375</ele>
        <time>2019-07-08T08:29:45.000Z</time>
      </trkpt>
      <trkpt lat="41.98093394748866558074951171875" lon="-3.1773365847766399383544921875">
        <ele>1062</ele>
        <time>2019-07-08T08:29:46.000Z</time>
      </trkpt>
      <trkpt lat="41.98116646148264408111572265625" lon="-3.177418895065784454345703125">
        <ele>1062.4000244140625</ele>
        <time>2019-07-08T08:29:47.000Z</time>
      </trkpt>
      <trkpt lat="41.98140299879014492034912109375" lon="-3.17746876738965511322021484375">
        <ele>1063.199951171875</ele>
        <time>2019-07-08T08:29:48.000Z</time>
      </trkpt>
      <trkpt lat="41.981640122830867767333984375" lon="-3.1774877943098545074462890625">
        <ele>1064.4000244140625</ele>
        <time>2019-07-08T08:29:49.000Z</time>
      </trkpt>
      <trkpt lat="41.982098110020160675048828125" lon="-3.17743255756795406341552734375">
        <ele>1065.4000244140625</ele>
        <time>2019-07-08T08:29:51.000Z</time>
      </trkpt>
      <trkpt lat="41.98252332396805286407470703125" lon="-3.17727162502706050872802734375">
        <ele>1067</ele>
        <time>2019-07-08T08:29:53.000Z</time>
      </trkpt>
      <trkpt lat="41.98291492648422718048095703125" lon="-3.17701614461839199066162109375">
        <ele>1068.199951171875</ele>
        <time>2019-07-08T08:29:55.000Z</time>
      </trkpt>
      <trkpt lat="41.98328808881342411041259765625" lon="-3.1767314113676548004150390625">
        <ele>1069.199951171875</ele>
        <time>2019-07-08T08:29:57.000Z</time>
      </trkpt>
      <trkpt lat="41.98386409319937229156494140625" lon="-3.176442570984363555908203125">
        <ele>1067.800048828125</ele>
        <time>2019-07-08T08:30:00.000Z</time>
      </trkpt>
      <trkpt lat="41.9840559549629688262939453125" lon="-3.1763890944421291351318359375">
        <ele>1066.800048828125</ele>
        <time>2019-07-08T08:30:01.000Z</time>
      </trkpt>
      <trkpt lat="41.98424555361270904541015625" lon="-3.1763592548668384552001953125">
        <ele>1067.199951171875</ele>
        <time>2019-07-08T08:30:02.000Z</time>
      </trkpt>
      <trkpt lat="41.98476816527545452117919921875" lon="-3.17639655433595180511474609375">
        <ele>1066.5999755859375</ele>
        <time>2019-07-08T08:30:05.000Z</time>
      </trkpt>
      <trkpt lat="41.98523461818695068359375" lon="-3.17658397369086742401123046875">
        <ele>1068.199951171875</ele>
        <time>2019-07-08T08:30:08.000Z</time>
      </trkpt>
      <trkpt lat="41.98567877523601055145263671875" lon="-3.17692260257899761199951171875">
        <ele>1066.800048828125</ele>
        <time>2019-07-08T08:30:11.000Z</time>
      </trkpt>
      <trkpt lat="41.986081190407276153564453125" lon="-3.17741897888481616973876953125">
        <ele>1065.199951171875</ele>
        <time>2019-07-08T08:30:14.000Z</time>
      </trkpt>
      <trkpt lat="41.9862007163465023040771484375" lon="-3.17761863581836223602294921875">
        <ele>1064</ele>
        <time>2019-07-08T08:30:15.000Z</time>
      </trkpt>
      <trkpt lat="41.9863128662109375" lon="-3.1778368167579174041748046875">
        <ele>1063</ele>
        <time>2019-07-08T08:30:16.000Z</time>
      </trkpt>
      <trkpt lat="41.98642082512378692626953125" lon="-3.17806757055222988128662109375">
        <ele>1061.800048828125</ele>
        <time>2019-07-08T08:30:17.000Z</time>
      </trkpt>
      <trkpt lat="41.986528448760509490966796875" lon="-3.1783028505742549896240234375">
        <ele>1060.4000244140625</ele>
        <time>2019-07-08T08:30:18.000Z</time>
      </trkpt>
      <trkpt lat="41.98686196468770503997802734375" lon="-3.179030232131481170654296875">
        <ele>1060.199951171875</ele>
        <time>2019-07-08T08:30:21.000Z</time>
      </trkpt>
      <trkpt lat="41.9869755394756793975830078125" lon="-3.17927808500826358795166015625">
        <ele>1062</ele>
        <time>2019-07-08T08:30:22.000Z</time>
      </trkpt>
      <trkpt lat="41.98709003627300262451171875" lon="-3.17952333949506282806396484375">
        <ele>1064.4000244140625</ele>
        <time>2019-07-08T08:30:23.000Z</time>
      </trkpt>
      <trkpt lat="41.9872031919658184051513671875" lon="-3.17977345548570156097412109375">
        <ele>1065.800048828125</ele>
        <time>2019-07-08T08:30:24.000Z</time>
      </trkpt>
      <trkpt lat="41.98743067681789398193359375" lon="-3.180276118218898773193359375">
        <ele>1067.199951171875</ele>
        <time>2019-07-08T08:30:26.000Z</time>
      </trkpt>
      <trkpt lat="41.9876558147370815277099609375" lon="-3.18077157251536846160888671875">
        <ele>1065.800048828125</ele>
        <time>2019-07-08T08:30:28.000Z</time>
      </trkpt>
      <trkpt lat="41.987878270447254180908203125" lon="-3.181255795061588287353515625">
        <ele>1063.800048828125</ele>
        <time>2019-07-08T08:30:30.000Z</time>
      </trkpt>
      <trkpt lat="41.988100223243236541748046875" lon="-3.18174437619745731353759765625">
        <ele>1062</ele>
        <time>2019-07-08T08:30:32.000Z</time>
      </trkpt>
      <trkpt lat="41.9883017241954803466796875" lon="-3.18225550465285778045654296875">
        <ele>1063.4000244140625</ele>
        <time>2019-07-08T08:30:34.000Z</time>
      </trkpt>
      <trkpt lat="41.98854169808328151702880859375" lon="-3.18307441659271717071533203125">
        <ele>1063.5999755859375</ele>
        <time>2019-07-08T08:30:37.000Z</time>
      </trkpt>
      <trkpt lat="41.9886368326842784881591796875" lon="-3.18364220671355724334716796875">
        <ele>1061.800048828125</ele>
        <time>2019-07-08T08:30:39.000Z</time>
      </trkpt>
      <trkpt lat="41.988681256771087646484375" lon="-3.18421787582337856292724609375">
        <ele>1060.4000244140625</ele>
        <time>2019-07-08T08:30:41.000Z</time>
      </trkpt>
      <trkpt lat="41.98865988291800022125244140625" lon="-3.18509093485772609710693359375">
        <ele>1060.199951171875</ele>
        <time>2019-07-08T08:30:44.000Z</time>
      </trkpt>
      <trkpt lat="41.9886043108999729156494140625" lon="-3.1856849603354930877685546875">
        <ele>1059.4000244140625</ele>
        <time>2019-07-08T08:30:46.000Z</time>
      </trkpt>
      <trkpt lat="41.9885339029133319854736328125" lon="-3.18629122339189052581787109375">
        <ele>1058.5999755859375</ele>
        <time>2019-07-08T08:30:48.000Z</time>
      </trkpt>
      <trkpt lat="41.9884618185460567474365234375" lon="-3.18689807318150997161865234375">
        <ele>1059</ele>
        <time>2019-07-08T08:30:50.000Z</time>
      </trkpt>
      <trkpt lat="41.98838965035974979400634765625" lon="-3.1875105388462543487548828125">
        <ele>1058.199951171875</ele>
        <time>2019-07-08T08:30:52.000Z</time>
      </trkpt>
      <trkpt lat="41.9883183203637599945068359375" lon="-3.18812794983386993408203125">
        <ele>1058.4000244140625</ele>
        <time>2019-07-08T08:30:54.000Z</time>
      </trkpt>
      <trkpt lat="41.98824548162519931793212890625" lon="-3.18874997086822986602783203125">
        <ele>1058</ele>
        <time>2019-07-08T08:30:56.000Z</time>
      </trkpt>
      <trkpt lat="41.988169960677623748779296875" lon="-3.189372159540653228759765625">
        <ele>1059.4000244140625</ele>
        <time>2019-07-08T08:30:58.000Z</time>
      </trkpt>
      <trkpt lat="41.98813232593238353729248046875" lon="-3.18968497216701507568359375">
        <ele>1060.4000244140625</ele>
        <time>2019-07-08T08:30:59.000Z</time>
      </trkpt>
      <trkpt lat="41.98805102147161960601806640625" lon="-3.19033406674861907958984375">
        <ele>1062</ele>
        <time>2019-07-08T08:31:01.000Z</time>
      </trkpt>
      <trkpt lat="41.98796368204057216644287109375" lon="-3.1909932196140289306640625">
        <ele>1062.800048828125</ele>
        <time>2019-07-08T08:31:03.000Z</time>
      </trkpt>
      <trkpt lat="41.98785421438515186309814453125" lon="-3.19163368083536624908447265625">
        <ele>1060.800048828125</ele>
        <time>2019-07-08T08:31:05.000Z</time>
      </trkpt>
      <trkpt lat="41.98779017664492130279541015625" lon="-3.191939704120159149169921875">
        <ele>1058.5999755859375</ele>
        <time>2019-07-08T08:31:06.000Z</time>
      </trkpt>
      <trkpt lat="41.9877250492572784423828125" lon="-3.1922399438917636871337890625">
        <ele>1056.5999755859375</ele>
        <time>2019-07-08T08:31:07.000Z</time>
      </trkpt>
      <trkpt lat="41.98760342784225940704345703125" lon="-3.19282843731343746185302734375">
        <ele>1055.5999755859375</ele>
        <time>2019-07-08T08:31:09.000Z</time>
      </trkpt>
      <trkpt lat="41.98742757551372051239013671875" lon="-3.19368808530271053314208984375">
        <ele>1056.4000244140625</ele>
        <time>2019-07-08T08:31:12.000Z</time>
      </trkpt>
      <trkpt lat="41.98736890219151973724365234375" lon="-3.19397407583892345428466796875">
        <ele>1057</ele>
        <time>2019-07-08T08:31:13.000Z</time>
      </trkpt>
      <trkpt lat="41.98724904097616672515869140625" lon="-3.1945573724806308746337890625">
        <ele>1058</ele>
        <time>2019-07-08T08:31:15.000Z</time>
      </trkpt>
      <trkpt lat="41.9871274195611476898193359375" lon="-3.195158354938030242919921875">
        <ele>1057.4000244140625</ele>
        <time>2019-07-08T08:31:17.000Z</time>
      </trkpt>
      <trkpt lat="41.987065561115741729736328125" lon="-3.19546370767056941986083984375">
        <ele>1056.800048828125</ele>
        <time>2019-07-08T08:31:18.000Z</time>
      </trkpt>
      <trkpt lat="41.98700286448001861572265625" lon="-3.19576956331729888916015625">
        <ele>1055.4000244140625</ele>
        <time>2019-07-08T08:31:19.000Z</time>
      </trkpt>
      <trkpt lat="41.98693773709237575531005859375" lon="-3.19607256911695003509521484375">
        <ele>1053.4000244140625</ele>
        <time>2019-07-08T08:31:20.000Z</time>
      </trkpt>
      <trkpt lat="41.9868742860853672027587890625" lon="-3.19637247361242771148681640625">
        <ele>1050.5999755859375</ele>
        <time>2019-07-08T08:31:21.000Z</time>
      </trkpt>
      <trkpt lat="41.98681217618286609649658203125" lon="-3.196668438613414764404296875">
        <ele>1047.800048828125</ele>
        <time>2019-07-08T08:31:22.000Z</time>
      </trkpt>
      <trkpt lat="41.9867512397468090057373046875" lon="-3.1969566084444522857666015625">
        <ele>1046.4000244140625</ele>
        <time>2019-07-08T08:31:23.000Z</time>
      </trkpt>
      <trkpt lat="41.98656675405800342559814453125" lon="-3.1977961398661136627197265625">
        <ele>1050</ele>
        <time>2019-07-08T08:31:26.000Z</time>
      </trkpt>
      <trkpt lat="41.98651059530675411224365234375" lon="-3.1980784423649311065673828125">
        <ele>1054</ele>
        <time>2019-07-08T08:31:27.000Z</time>
      </trkpt>
      <trkpt lat="41.986464746296405792236328125" lon="-3.1983651034533977508544921875">
        <ele>1059.199951171875</ele>
        <time>2019-07-08T08:31:28.000Z</time>
      </trkpt>
      <trkpt lat="41.98643297888338565826416015625" lon="-3.19865922443568706512451171875">
        <ele>1063.4000244140625</ele>
        <time>2019-07-08T08:31:29.000Z</time>
      </trkpt>
      <trkpt lat="41.98641068302094936370849609375" lon="-3.19895409978926181793212890625">
        <ele>1065.4000244140625</ele>
        <time>2019-07-08T08:31:30.000Z</time>
      </trkpt>
      <trkpt lat="41.98638461530208587646484375" lon="-3.19924595765769481658935546875">
        <ele>1066.4000244140625</ele>
        <time>2019-07-08T08:31:31.000Z</time>
      </trkpt>
      <trkpt lat="41.986346729099750518798828125" lon="-3.19953714497387409210205078125">
        <ele>1065</ele>
        <time>2019-07-08T08:31:32.000Z</time>
      </trkpt>
      <trkpt lat="41.98629115708172321319580078125" lon="-3.19982866756618022918701171875">
        <ele>1061.4000244140625</ele>
        <time>2019-07-08T08:31:33.000Z</time>
      </trkpt>
      <trkpt lat="41.98621320538222789764404296875" lon="-3.20011683739721775054931640625">
        <ele>1056.5999755859375</ele>
        <time>2019-07-08T08:31:34.000Z</time>
      </trkpt>
      <trkpt lat="41.98611295782029628753662109375" lon="-3.200396038591861724853515625">
        <ele>1053.199951171875</ele>
        <time>2019-07-08T08:31:35.000Z</time>
      </trkpt>
      <trkpt lat="41.98599728755652904510498046875" lon="-3.200666941702365875244140625">
        <ele>1051</ele>
        <time>2019-07-08T08:31:36.000Z</time>
      </trkpt>
      <trkpt lat="41.98587139137089252471923828125" lon="-3.200935833156108856201171875">
        <ele>1049.5999755859375</ele>
        <time>2019-07-08T08:31:37.000Z</time>
      </trkpt>
      <trkpt lat="41.985615827143192291259765625" lon="-3.20147939957678318023681640625">
        <ele>1047.800048828125</ele>
        <time>2019-07-08T08:31:39.000Z</time>
      </trkpt>
      <trkpt lat="41.9853645376861095428466796875" lon="-3.2020199485123157501220703125">
        <ele>1045.5999755859375</ele>
        <time>2019-07-08T08:31:41.000Z</time>
      </trkpt>
      <trkpt lat="41.98524534702301025390625" lon="-3.20228825323283672332763671875">
        <ele>1043.5999755859375</ele>
        <time>2019-07-08T08:31:42.000Z</time>
      </trkpt>
      <trkpt lat="41.98503772728145122528076171875" lon="-3.2028467394411563873291015625">
        <ele>1041.5999755859375</ele>
        <time>2019-07-08T08:31:44.000Z</time>
      </trkpt>
      <trkpt lat="41.9848844222724437713623046875" lon="-3.203443028032779693603515625">
        <ele>1040</ele>
        <time>2019-07-08T08:31:46.000Z</time>
      </trkpt>
      <trkpt lat="41.9847853481769561767578125" lon="-3.2040741853415966033935546875">
        <ele>1040</ele>
        <time>2019-07-08T08:31:48.000Z</time>
      </trkpt>
      <trkpt lat="41.9847000204026699066162109375" lon="-3.2047289796173572540283203125">
        <ele>1039.199951171875</ele>
        <time>2019-07-08T08:31:50.000Z</time>
      </trkpt>
      <trkpt lat="41.9846560992300510406494140625" lon="-3.205062411725521087646484375">
        <ele>1038.4000244140625</ele>
        <time>2019-07-08T08:31:51.000Z</time>
      </trkpt>
      <trkpt lat="41.98456331156194210052490234375" lon="-3.20573908276855945587158203125">
        <ele>1036.4000244140625</ele>
        <time>2019-07-08T08:31:53.000Z</time>
      </trkpt>
      <trkpt lat="41.98451503179967403411865234375" lon="-3.2060865126550197601318359375">
        <ele>1034.800048828125</ele>
        <time>2019-07-08T08:31:54.000Z</time>
      </trkpt>
      <trkpt lat="41.98441185057163238525390625" lon="-3.2068048417568206787109375">
        <ele>1033</ele>
        <time>2019-07-08T08:31:56.000Z</time>
      </trkpt>
      <trkpt lat="41.9843550212681293487548828125" lon="-3.2071654312312602996826171875">
        <ele>1031.5999755859375</ele>
        <time>2019-07-08T08:31:57.000Z</time>
      </trkpt>
      <trkpt lat="41.9842336513102054595947265625" lon="-3.20785065181553363800048828125">
        <ele>1029</ele>
        <time>2019-07-08T08:31:59.000Z</time>
      </trkpt>
      <trkpt lat="41.98417221195995807647705078125" lon="-3.20817821659147739410400390625">
        <ele>1027.5999755859375</ele>
        <time>2019-07-08T08:32:00.000Z</time>
      </trkpt>
      <trkpt lat="41.98405302129685878753662109375" lon="-3.20882630534470081329345703125">
        <ele>1026.199951171875</ele>
        <time>2019-07-08T08:32:02.000Z</time>
      </trkpt>
      <trkpt lat="41.98393651284277439117431640625" lon="-3.20947120897471904754638671875">
        <ele>1027.199951171875</ele>
        <time>2019-07-08T08:32:04.000Z</time>
      </trkpt>
      <trkpt lat="41.98387616313993930816650390625" lon="-3.2097926549613475799560546875">
        <ele>1028.800048828125</ele>
        <time>2019-07-08T08:32:05.000Z</time>
      </trkpt>
      <trkpt lat="41.98381447233259677886962890625" lon="-3.21011292748153209686279296875">
        <ele>1030</ele>
        <time>2019-07-08T08:32:06.000Z</time>
      </trkpt>
      <trkpt lat="41.98369435966014862060546875" lon="-3.21074961684644222259521484375">
        <ele>1031.4000244140625</ele>
        <time>2019-07-08T08:32:08.000Z</time>
      </trkpt>
      <trkpt lat="41.98357910849153995513916015625" lon="-3.21138043887913227081298828125">
        <ele>1033</ele>
        <time>2019-07-08T08:32:10.000Z</time>
      </trkpt>
      <trkpt lat="41.98352160863578319549560546875" lon="-3.2116926647722721099853515625">
        <ele>1034.199951171875</ele>
        <time>2019-07-08T08:32:11.000Z</time>
      </trkpt>
      <trkpt lat="41.98340660892426967620849609375" lon="-3.21231669746339321136474609375">
        <ele>1034.199951171875</ele>
        <time>2019-07-08T08:32:13.000Z</time>
      </trkpt>
      <trkpt lat="41.983293034136295318603515625" lon="-3.21293025277554988861083984375">
        <ele>1036</ele>
        <time>2019-07-08T08:32:15.000Z</time>
      </trkpt>
      <trkpt lat="41.98319924063980579376220703125" lon="-3.2138209976255893707275390625">
        <ele>1036</ele>
        <time>2019-07-08T08:32:18.000Z</time>
      </trkpt>
      <trkpt lat="41.98322103358805179595947265625" lon="-3.21442860178649425506591796875">
        <ele>1036.800048828125</ele>
        <time>2019-07-08T08:32:20.000Z</time>
      </trkpt>
      <trkpt lat="41.98327861726284027099609375" lon="-3.21506311185657978057861328125">
        <ele>1035.199951171875</ele>
        <time>2019-07-08T08:32:22.000Z</time>
      </trkpt>
      <trkpt lat="41.98331080377101898193359375" lon="-3.21538983844220638275146484375">
        <ele>1034</ele>
        <time>2019-07-08T08:32:23.000Z</time>
      </trkpt>
      <trkpt lat="41.983343660831451416015625" lon="-3.215718828141689300537109375">
        <ele>1032.5999755859375</ele>
        <time>2019-07-08T08:32:24.000Z</time>
      </trkpt>
      <trkpt lat="41.9833773560822010040283203125" lon="-3.2160485722124576568603515625">
        <ele>1031.4000244140625</ele>
        <time>2019-07-08T08:32:25.000Z</time>
      </trkpt>
      <trkpt lat="41.9834088720381259918212890625" lon="-3.21637697517871856689453125">
        <ele>1029.5999755859375</ele>
        <time>2019-07-08T08:32:26.000Z</time>
      </trkpt>
      <trkpt lat="41.9834393821656703948974609375" lon="-3.2167026959359645843505859375">
        <ele>1027.4000244140625</ele>
        <time>2019-07-08T08:32:27.000Z</time>
      </trkpt>
      <trkpt lat="41.98347014375030994415283203125" lon="-3.21702648885548114776611328125">
        <ele>1025.4000244140625</ele>
        <time>2019-07-08T08:32:28.000Z</time>
      </trkpt>
      <trkpt lat="41.98350216262042522430419921875" lon="-3.21734927594661712646484375">
        <ele>1024.4000244140625</ele>
        <time>2019-07-08T08:32:29.000Z</time>
      </trkpt>
      <trkpt lat="41.9835649430751800537109375" lon="-3.217994011938571929931640625">
        <ele>1023.5999755859375</ele>
        <time>2019-07-08T08:32:31.000Z</time>
      </trkpt>
      <trkpt lat="41.983597464859485626220703125" lon="-3.21831478737294673919677734375">
        <ele>1023.20001220703125</ele>
        <time>2019-07-08T08:32:32.000Z</time>
      </trkpt>
      <trkpt lat="41.98369075544178485870361328125" lon="-3.21894812397658824920654296875">
        <ele>1023.20001220703125</ele>
        <time>2019-07-08T08:32:34.000Z</time>
      </trkpt>
      <trkpt lat="41.983845233917236328125" lon="-3.21956067346036434173583984375">
        <ele>1023.20001220703125</ele>
        <time>2019-07-08T08:32:36.000Z</time>
      </trkpt>
      <trkpt lat="41.9840289652347564697265625" lon="-3.2201664336025714874267578125">
        <ele>1023.4000244140625</ele>
        <time>2019-07-08T08:32:38.000Z</time>
      </trkpt>
      <trkpt lat="41.98412083089351654052734375" lon="-3.2204745523631572723388671875">
        <ele>1022.79998779296875</ele>
        <time>2019-07-08T08:32:39.000Z</time>
      </trkpt>
      <trkpt lat="41.98421395383775234222412109375" lon="-3.220785520970821380615234375">
        <ele>1021.5999755859375</ele>
        <time>2019-07-08T08:32:40.000Z</time>
      </trkpt>
      <trkpt lat="41.9843094237148761749267578125" lon="-3.2210981659591197967529296875">
        <ele>1018.4000244140625</ele>
        <time>2019-07-08T08:32:41.000Z</time>
      </trkpt>
      <trkpt lat="41.9844059832394123077392578125" lon="-3.22141340933740139007568359375">
        <ele>1016.79998779296875</ele>
        <time>2019-07-08T08:32:42.000Z</time>
      </trkpt>
      <trkpt lat="41.98450304567813873291015625" lon="-3.22173225693404674530029296875">
        <ele>1015</ele>
        <time>2019-07-08T08:32:43.000Z</time>
      </trkpt>
      <trkpt lat="41.984601952135562896728515625" lon="-3.2220506854355335235595703125">
        <ele>1013.79998779296875</ele>
        <time>2019-07-08T08:32:44.000Z</time>
      </trkpt>
      <trkpt lat="41.9847013615071773529052734375" lon="-3.22236894629895687103271484375">
        <ele>1012.4000244140625</ele>
        <time>2019-07-08T08:32:45.000Z</time>
      </trkpt>
      <trkpt lat="41.984896995127201080322265625" lon="-3.2230082340538501739501953125">
        <ele>1012.79998779296875</ele>
        <time>2019-07-08T08:32:47.000Z</time>
      </trkpt>
      <trkpt lat="41.98507779277861118316650390625" lon="-3.22366126812994480133056640625">
        <ele>1012.79998779296875</ele>
        <time>2019-07-08T08:32:49.000Z</time>
      </trkpt>
      <trkpt lat="41.9852210395038127899169921875" lon="-3.2243263721466064453125">
        <ele>1011.5999755859375</ele>
        <time>2019-07-08T08:32:51.000Z</time>
      </trkpt>
      <trkpt lat="41.98528365232050418853759765625" lon="-3.22466407902538776397705078125">
        <ele>1011.4000244140625</ele>
        <time>2019-07-08T08:32:52.000Z</time>
      </trkpt>
      <trkpt lat="41.98539714328944683074951171875" lon="-3.22534988634288311004638671875">
        <ele>1009.5999755859375</ele>
        <time>2019-07-08T08:32:54.000Z</time>
      </trkpt>
      <trkpt lat="41.985445506870746612548828125" lon="-3.2256994955241680145263671875">
        <ele>1007.4000244140625</ele>
        <time>2019-07-08T08:32:55.000Z</time>
      </trkpt>
      <trkpt lat="41.98549202643334865570068359375" lon="-3.22605245746672153472900390625">
        <ele>1005.79998779296875</ele>
        <time>2019-07-08T08:32:56.000Z</time>
      </trkpt>
      <trkpt lat="41.9855402223765850067138671875" lon="-3.22640583850443363189697265625">
        <ele>1002.5999755859375</ele>
        <time>2019-07-08T08:32:57.000Z</time>
      </trkpt>
      <trkpt lat="41.98558975942432880401611328125" lon="-3.22675704024732112884521484375">
        <ele>999.79998779296875</ele>
        <time>2019-07-08T08:32:58.000Z</time>
      </trkpt>
      <trkpt lat="41.98563787154853343963623046875" lon="-3.22709952481091022491455078125">
        <ele>998.4000244140625</ele>
        <time>2019-07-08T08:32:59.000Z</time>
      </trkpt>
      <trkpt lat="41.985724456608295440673828125" lon="-3.22772146202623844146728515625">
        <ele>997.5999755859375</ele>
        <time>2019-07-08T08:33:01.000Z</time>
      </trkpt>
      <trkpt lat="41.98576259426772594451904296875" lon="-3.22799630463123321533203125">
        <ele>996.5999755859375</ele>
        <time>2019-07-08T08:33:02.000Z</time>
      </trkpt>
      <trkpt lat="41.98586435057222843170166015625" lon="-3.2287139631807804107666015625">
        <ele>997.4000244140625</ele>
        <time>2019-07-08T08:33:05.000Z</time>
      </trkpt>
      <trkpt lat="41.98597147129476070404052734375" lon="-3.229483924806118011474609375">
        <ele>997.5999755859375</ele>
        <time>2019-07-08T08:33:09.000Z</time>
      </trkpt>
      <trkpt lat="41.98599326424300670623779296875" lon="-3.2296453602612018585205078125">
        <ele>998.79998779296875</ele>
        <time>2019-07-08T08:33:10.000Z</time>
      </trkpt>
      <trkpt lat="41.9860317371785640716552734375" lon="-3.22990796528756618499755859375">
        <ele>1000</ele>
        <time>2019-07-08T08:33:12.000Z</time>
      </trkpt>
      <trkpt lat="41.9861142151057720184326171875" lon="-3.23050593025982379913330078125">
        <ele>1000.20001220703125</ele>
        <time>2019-07-08T08:33:17.000Z</time>
      </trkpt>
      <trkpt lat="41.986238770186901092529296875" lon="-3.2310548610985279083251953125">
        <ele>1001</ele>
        <time>2019-07-08T08:33:21.000Z</time>
      </trkpt>
      <trkpt lat="41.986444629728794097900390625" lon="-3.2316208072006702423095703125">
        <ele>1000.79998779296875</ele>
        <time>2019-07-08T08:33:25.000Z</time>
      </trkpt>
      <trkpt lat="41.98657907545566558837890625" lon="-3.23202305473387241363525390625">
        <ele>998.79998779296875</ele>
        <time>2019-07-08T08:33:28.000Z</time>
      </trkpt>
      <trkpt lat="41.98660916648805141448974609375" lon="-3.232158757746219635009765625">
        <ele>997.5999755859375</ele>
        <time>2019-07-08T08:33:29.000Z</time>
      </trkpt>
      <trkpt lat="41.98665325529873371124267578125" lon="-3.23243879713118076324462890625">
        <ele>996.4000244140625</ele>
        <time>2019-07-08T08:33:31.000Z</time>
      </trkpt>
      <trkpt lat="41.986728943884372711181640625" lon="-3.23311664164066314697265625">
        <ele>996.20001220703125</ele>
        <time>2019-07-08T08:33:36.000Z</time>
      </trkpt>
      <trkpt lat="41.98675501160323619842529296875" lon="-3.233340270817279815673828125">
        <ele>995</ele>
        <time>2019-07-08T08:33:38.000Z</time>
      </trkpt>
      <trkpt lat="41.9868186302483081817626953125" lon="-3.2337159477174282073974609375">
        <ele>994</ele>
        <time>2019-07-08T08:33:42.000Z</time>
      </trkpt>
      <trkpt lat="41.9868506491184234619140625" lon="-3.2338239066302776336669921875">
        <ele>993.79998779296875</ele>
        <time>2019-07-08T08:33:43.000Z</time>
      </trkpt>
      <trkpt lat="41.9870258308947086334228515625" lon="-3.23426999151706695556640625">
        <ele>992.5999755859375</ele>
        <time>2019-07-08T08:33:47.000Z</time>
      </trkpt>
      <trkpt lat="41.98710554279386997222900390625" lon="-3.2345018349587917327880859375">
        <ele>991</ele>
        <time>2019-07-08T08:33:49.000Z</time>
      </trkpt>
      <trkpt lat="41.98714074678719043731689453125" lon="-3.23461943306028842926025390625">
        <ele>989.79998779296875</ele>
        <time>2019-07-08T08:33:50.000Z</time>
      </trkpt>
      <trkpt lat="41.98717410676181316375732421875" lon="-3.23473828844726085662841796875">
        <ele>988.5999755859375</ele>
        <time>2019-07-08T08:33:51.000Z</time>
      </trkpt>
      <trkpt lat="41.9871917925775051116943359375" lon="-3.23485747911036014556884765625">
        <ele>987.5999755859375</ele>
        <time>2019-07-08T08:33:52.000Z</time>
      </trkpt>
      <trkpt lat="41.9871756993234157562255859375" lon="-3.23522544465959072113037109375">
        <ele>986.20001220703125</ele>
        <time>2019-07-08T08:33:55.000Z</time>
      </trkpt>
      <trkpt lat="41.98714477010071277618408203125" lon="-3.23572249151766300201416015625">
        <ele>984.79998779296875</ele>
        <time>2019-07-08T08:33:59.000Z</time>
      </trkpt>
      <trkpt lat="41.98712901212275028228759765625" lon="-3.23596053756773471832275390625">
        <ele>982.79998779296875</ele>
        <time>2019-07-08T08:34:01.000Z</time>
      </trkpt>
      <trkpt lat="41.98709950782358646392822265625" lon="-3.23631492443382740020751953125">
        <ele>981.20001220703125</ele>
        <time>2019-07-08T08:34:04.000Z</time>
      </trkpt>
      <trkpt lat="41.98707855306565761566162109375" lon="-3.2364273257553577423095703125">
        <ele>980.5999755859375</ele>
        <time>2019-07-08T08:34:05.000Z</time>
      </trkpt>
      <trkpt lat="41.98704552836716175079345703125" lon="-3.23653721250593662261962890625">
        <ele>979.79998779296875</ele>
        <time>2019-07-08T08:34:06.000Z</time>
      </trkpt>
      <trkpt lat="41.98692097328603267669677734375" lon="-3.23684985749423503875732421875">
        <ele>979</ele>
        <time>2019-07-08T08:34:09.000Z</time>
      </trkpt>
      <trkpt lat="41.9868882000446319580078125" lon="-3.236959241330623626708984375">
        <ele>978.5999755859375</ele>
        <time>2019-07-08T08:34:10.000Z</time>
      </trkpt>
      <trkpt lat="41.986839585006237030029296875" lon="-3.23718496598303318023681640625">
        <ele>977.4000244140625</ele>
        <time>2019-07-08T08:34:12.000Z</time>
      </trkpt>
      <trkpt lat="41.98678292334079742431640625" lon="-3.2375622354447841644287109375">
        <ele>976</ele>
        <time>2019-07-08T08:34:15.000Z</time>
      </trkpt>
      <trkpt lat="41.98674461804330348968505859375" lon="-3.23783339001238346099853515625">
        <ele>975</ele>
        <time>2019-07-08T08:34:17.000Z</time>
      </trkpt>
      <trkpt lat="41.9866855256259441375732421875" lon="-3.23827411048114299774169921875">
        <ele>973.4000244140625</ele>
        <time>2019-07-08T08:34:20.000Z</time>
      </trkpt>
      <trkpt lat="41.9866409339010715484619140625" lon="-3.23857493698596954345703125">
        <ele>972.20001220703125</ele>
        <time>2019-07-08T08:34:22.000Z</time>
      </trkpt>
      <trkpt lat="41.98661704547703266143798828125" lon="-3.23872648179531097412109375">
        <ele>971.20001220703125</ele>
        <time>2019-07-08T08:34:23.000Z</time>
      </trkpt>
      <trkpt lat="41.9865893013775348663330078125" lon="-3.23887961916625499725341796875">
        <ele>969.79998779296875</ele>
        <time>2019-07-08T08:34:24.000Z</time>
      </trkpt>
      <trkpt lat="41.98652048595249652862548828125" lon="-3.23917801491916179656982421875">
        <ele>968</ele>
        <time>2019-07-08T08:34:26.000Z</time>
      </trkpt>
      <trkpt lat="41.98634169995784759521484375" lon="-3.23971194215118885040283203125">
        <ele>969.20001220703125</ele>
        <time>2019-07-08T08:34:34.000Z</time>
      </trkpt>
      <trkpt lat="41.9861309789121150970458984375" lon="-3.2403252460062503814697265625">
        <ele>969.20001220703125</ele>
        <time>2019-07-08T08:34:44.000Z</time>
      </trkpt>
      <trkpt lat="41.98593727312982082366943359375" lon="-3.2410083711147308349609375">
        <ele>968.79998779296875</ele>
        <time>2019-07-08T08:34:50.000Z</time>
      </trkpt>
      <trkpt lat="41.9859177432954311370849609375" lon="-3.241143487393856048583984375">
        <ele>968.79998779296875</ele>
        <time>2019-07-08T08:34:51.000Z</time>
      </trkpt>
      <trkpt lat="41.98591715656220912933349609375" lon="-3.2415957748889923095703125">
        <ele>968.4000244140625</ele>
        <time>2019-07-08T08:34:54.000Z</time>
      </trkpt>
      <trkpt lat="41.98597700335085391998291015625" lon="-3.24193331412971019744873046875">
        <ele>968</ele>
        <time>2019-07-08T08:34:56.000Z</time>
      </trkpt>
      <trkpt lat="41.98621253482997417449951171875" lon="-3.2425343804061412811279296875">
        <ele>967.20001220703125</ele>
        <time>2019-07-08T08:35:00.000Z</time>
      </trkpt>
      <trkpt lat="41.98626232333481311798095703125" lon="-3.2426460273563861846923828125">
        <ele>967</ele>
        <time>2019-07-08T08:35:01.000Z</time>
      </trkpt>
      <trkpt lat="41.9865272752940654754638671875" lon="-3.24322722852230072021484375">
        <ele>967.4000244140625</ele>
        <time>2019-07-08T08:35:07.000Z</time>
      </trkpt>
      <trkpt lat="41.986826844513416290283203125" lon="-3.2439078390598297119140625">
        <ele>967.5999755859375</ele>
        <time>2019-07-08T08:35:11.000Z</time>
      </trkpt>
      <trkpt lat="41.98703094385564327239990234375" lon="-3.2443804107606410980224609375">
        <ele>965.4000244140625</ele>
        <time>2019-07-08T08:35:13.000Z</time>
      </trkpt>
      <trkpt lat="41.9871438480913639068603515625" lon="-3.24464368633925914764404296875">
        <ele>963.79998779296875</ele>
        <time>2019-07-08T08:35:14.000Z</time>
      </trkpt>
      <trkpt lat="41.9872655533254146575927734375" lon="-3.24491433799266815185546875">
        <ele>962.5999755859375</ele>
        <time>2019-07-08T08:35:15.000Z</time>
      </trkpt>
      <trkpt lat="41.98739421553909778594970703125" lon="-3.24518482200801372528076171875">
        <ele>960.4000244140625</ele>
        <time>2019-07-08T08:35:16.000Z</time>
      </trkpt>
      <trkpt lat="41.98752044700086116790771484375" lon="-3.2454509474337100982666015625">
        <ele>959.20001220703125</ele>
        <time>2019-07-08T08:35:17.000Z</time>
      </trkpt>
      <trkpt lat="41.98763930238783359527587890625" lon="-3.24570667929947376251220703125">
        <ele>957.5999755859375</ele>
        <time>2019-07-08T08:35:18.000Z</time>
      </trkpt>
      <trkpt lat="41.9877527095377445220947265625" lon="-3.2459495030343532562255859375">
        <ele>955.20001220703125</ele>
        <time>2019-07-08T08:35:19.000Z</time>
      </trkpt>
      <trkpt lat="41.98786318302154541015625" lon="-3.2461828552186489105224609375">
        <ele>954</ele>
        <time>2019-07-08T08:35:20.000Z</time>
      </trkpt>
      <trkpt lat="41.988070048391819000244140625" lon="-3.24664360843598842620849609375">
        <ele>956.4000244140625</ele>
        <time>2019-07-08T08:35:22.000Z</time>
      </trkpt>
      <trkpt lat="41.9881721399724483489990234375" lon="-3.24687327258288860321044921875">
        <ele>958</ele>
        <time>2019-07-08T08:35:23.000Z</time>
      </trkpt>
      <trkpt lat="41.98827414773404598236083984375" lon="-3.24710662476718425750732421875">
        <ele>960.20001220703125</ele>
        <time>2019-07-08T08:35:24.000Z</time>
      </trkpt>
      <trkpt lat="41.98837506584823131561279296875" lon="-3.24734081514179706573486328125">
        <ele>964</ele>
        <time>2019-07-08T08:35:25.000Z</time>
      </trkpt>
      <trkpt lat="41.9884752295911312103271484375" lon="-3.2475735805928707122802734375">
        <ele>969</ele>
        <time>2019-07-08T08:35:26.000Z</time>
      </trkpt>
      <trkpt lat="41.98857438750565052032470703125" lon="-3.2478055916726589202880859375">
        <ele>972.20001220703125</ele>
        <time>2019-07-08T08:35:27.000Z</time>
      </trkpt>
      <trkpt lat="41.988676227629184722900390625" lon="-3.2480370998382568359375">
        <ele>975.20001220703125</ele>
        <time>2019-07-08T08:35:28.000Z</time>
      </trkpt>
      <trkpt lat="41.98877982795238494873046875" lon="-3.248270116746425628662109375">
        <ele>976.79998779296875</ele>
        <time>2019-07-08T08:35:29.000Z</time>
      </trkpt>
      <trkpt lat="41.98909741826355457305908203125" lon="-3.248985596001148223876953125">
        <ele>976</ele>
        <time>2019-07-08T08:35:32.000Z</time>
      </trkpt>
      <trkpt lat="41.9892084784805774688720703125" lon="-3.24922774918377399444580078125">
        <ele>972.79998779296875</ele>
        <time>2019-07-08T08:35:33.000Z</time>
      </trkpt>
      <trkpt lat="41.9893201254308223724365234375" lon="-3.24947350658476352691650390625">
        <ele>969.20001220703125</ele>
        <time>2019-07-08T08:35:34.000Z</time>
      </trkpt>
      <trkpt lat="41.98943101800978183746337890625" lon="-3.2497240416705608367919921875">
        <ele>966.5999755859375</ele>
        <time>2019-07-08T08:35:35.000Z</time>
      </trkpt>
      <trkpt lat="41.989543251693248748779296875" lon="-3.24997792951762676239013671875">
        <ele>965.20001220703125</ele>
        <time>2019-07-08T08:35:36.000Z</time>
      </trkpt>
      <trkpt lat="41.98977098800241947174072265625" lon="-3.25049559585750102996826171875">
        <ele>964</ele>
        <time>2019-07-08T08:35:38.000Z</time>
      </trkpt>
      <trkpt lat="41.99000098742544651031494140625" lon="-3.25101477093994617462158203125">
        <ele>964.5999755859375</ele>
        <time>2019-07-08T08:35:40.000Z</time>
      </trkpt>
      <trkpt lat="41.990117914974689483642578125" lon="-3.251274190843105316162109375">
        <ele>965.4000244140625</ele>
        <time>2019-07-08T08:35:41.000Z</time>
      </trkpt>
      <trkpt lat="41.99035068042576313018798828125" lon="-3.25179730542004108428955078125">
        <ele>966</ele>
        <time>2019-07-08T08:35:43.000Z</time>
      </trkpt>
      <trkpt lat="41.99046702124178409576416015625" lon="-3.25205898843705654144287109375">
        <ele>966.4000244140625</ele>
        <time>2019-07-08T08:35:44.000Z</time>
      </trkpt>
      <trkpt lat="41.99070104397833347320556640625" lon="-3.25258336029946804046630859375">
        <ele>966.5999755859375</ele>
        <time>2019-07-08T08:35:46.000Z</time>
      </trkpt>
      <trkpt lat="41.9909371621906757354736328125" lon="-3.25310907326638698577880859375">
        <ele>966.20001220703125</ele>
        <time>2019-07-08T08:35:48.000Z</time>
      </trkpt>
      <trkpt lat="41.9911752082407474517822265625" lon="-3.2536388933658599853515625">
        <ele>964.4000244140625</ele>
        <time>2019-07-08T08:35:50.000Z</time>
      </trkpt>
      <trkpt lat="41.99129817076027393341064453125" lon="-3.2539076171815395355224609375">
        <ele>963.20001220703125</ele>
        <time>2019-07-08T08:35:51.000Z</time>
      </trkpt>
      <trkpt lat="41.99155851267278194427490234375" lon="-3.25445001013576984405517578125">
        <ele>962.5999755859375</ele>
        <time>2019-07-08T08:35:53.000Z</time>
      </trkpt>
      <trkpt lat="41.9918346963822841644287109375" lon="-3.25497924350202083587646484375">
        <ele>961.79998779296875</ele>
        <time>2019-07-08T08:35:55.000Z</time>
      </trkpt>
      <trkpt lat="41.9919765181839466094970703125" lon="-3.25523187406361103057861328125">
        <ele>960.20001220703125</ele>
        <time>2019-07-08T08:35:56.000Z</time>
      </trkpt>
      <trkpt lat="41.99226527474820613861083984375" lon="-3.25572154484689235687255859375">
        <ele>960.4000244140625</ele>
        <time>2019-07-08T08:35:58.000Z</time>
      </trkpt>
      <trkpt lat="41.9925582222640514373779296875" lon="-3.25619311071932315826416015625">
        <ele>962.20001220703125</ele>
        <time>2019-07-08T08:36:00.000Z</time>
      </trkpt>
      <trkpt lat="41.992861144244670867919921875" lon="-3.25664422474801540374755859375">
        <ele>964</ele>
        <time>2019-07-08T08:36:02.000Z</time>
      </trkpt>
      <trkpt lat="41.99317538179457187652587890625" lon="-3.25708243064582347869873046875">
        <ele>964.79998779296875</ele>
        <time>2019-07-08T08:36:04.000Z</time>
      </trkpt>
      <trkpt lat="41.9935025274753570556640625" lon="-3.25750487856566905975341796875">
        <ele>965</ele>
        <time>2019-07-08T08:36:06.000Z</time>
      </trkpt>
      <trkpt lat="41.99384543113410472869873046875" lon="-3.257909975945949554443359375">
        <ele>965.5999755859375</ele>
        <time>2019-07-08T08:36:08.000Z</time>
      </trkpt>
      <trkpt lat="41.994206607341766357421875" lon="-3.25829613022506237030029296875">
        <ele>965.79998779296875</ele>
        <time>2019-07-08T08:36:10.000Z</time>
      </trkpt>
      <trkpt lat="41.9945812784135341644287109375" lon="-3.25867532752454280853271484375">
        <ele>965.4000244140625</ele>
        <time>2019-07-08T08:36:12.000Z</time>
      </trkpt>
      <trkpt lat="41.99496860615909099578857421875" lon="-3.259045220911502838134765625">
        <ele>963.20001220703125</ele>
        <time>2019-07-08T08:36:14.000Z</time>
      </trkpt>
      <trkpt lat="41.99536263942718505859375" lon="-3.25940438546240329742431640625">
        <ele>962</ele>
        <time>2019-07-08T08:36:16.000Z</time>
      </trkpt>
      <trkpt lat="41.99575650505721569061279296875" lon="-3.25976598076522350311279296875">
        <ele>961.5999755859375</ele>
        <time>2019-07-08T08:36:18.000Z</time>
      </trkpt>
      <trkpt lat="41.99615665711462497711181640625" lon="-3.26013009063899517059326171875">
        <ele>961.5999755859375</ele>
        <time>2019-07-08T08:36:20.000Z</time>
      </trkpt>
      <trkpt lat="41.9965644367039203643798828125" lon="-3.26049788855016231536865234375">
        <ele>961.5999755859375</ele>
        <time>2019-07-08T08:36:22.000Z</time>
      </trkpt>
      <trkpt lat="41.9969768263399600982666015625" lon="-3.26086685992777347564697265625">
        <ele>961.79998779296875</ele>
        <time>2019-07-08T08:36:24.000Z</time>
      </trkpt>
      <trkpt lat="41.99738896451890468597412109375" lon="-3.2612354122102260589599609375">
        <ele>962.20001220703125</ele>
        <time>2019-07-08T08:36:26.000Z</time>
      </trkpt>
      <trkpt lat="41.99779900722205638885498046875" lon="-3.261604048311710357666015625">
        <ele>962</ele>
        <time>2019-07-08T08:36:28.000Z</time>
      </trkpt>
      <trkpt lat="41.9982052780687808990478515625" lon="-3.26197645626962184906005859375">
        <ele>961</ele>
        <time>2019-07-08T08:36:30.000Z</time>
      </trkpt>
      <trkpt lat="41.99861146509647369384765625" lon="-3.2623455114662647247314453125">
        <ele>960</ele>
        <time>2019-07-08T08:36:32.000Z</time>
      </trkpt>
      <trkpt lat="41.99901773594319820404052734375" lon="-3.2627156563103199005126953125">
        <ele>959.20001220703125</ele>
        <time>2019-07-08T08:36:34.000Z</time>
      </trkpt>
      <trkpt lat="41.9994233362376689910888671875" lon="-3.26308772899210453033447265625">
        <ele>960.20001220703125</ele>
        <time>2019-07-08T08:36:36.000Z</time>
      </trkpt>
      <trkpt lat="41.99983010999858379364013671875" lon="-3.26345644891262054443359375">
        <ele>959.5999755859375</ele>
        <time>2019-07-08T08:36:38.000Z</time>
      </trkpt>
      <trkpt lat="42.000032700598239898681640625" lon="-3.2636413536965847015380859375">
        <ele>958.20001220703125</ele>
        <time>2019-07-08T08:36:39.000Z</time>
      </trkpt>
      <trkpt lat="42.00023554265499114990234375" lon="-3.26382667757570743560791015625">
        <ele>956.5999755859375</ele>
        <time>2019-07-08T08:36:40.000Z</time>
      </trkpt>
      <trkpt lat="42.000638209283351898193359375" lon="-3.26419816352427005767822265625">
        <ele>954.5999755859375</ele>
        <time>2019-07-08T08:36:42.000Z</time>
      </trkpt>
      <trkpt lat="42.001033164560794830322265625" lon="-3.26455724425613880157470703125">
        <ele>953.4000244140625</ele>
        <time>2019-07-08T08:36:44.000Z</time>
      </trkpt>
      <trkpt lat="42.00141898356378078460693359375" lon="-3.26490509323775768280029296875">
        <ele>953.79998779296875</ele>
        <time>2019-07-08T08:36:46.000Z</time>
      </trkpt>
      <trkpt lat="42.00179885141551494598388671875" lon="-3.2652463205158710479736328125">
        <ele>955</ele>
        <time>2019-07-08T08:36:48.000Z</time>
      </trkpt>
      <trkpt lat="42.00198610313236713409423828125" lon="-3.26541471295058727264404296875">
        <ele>956.4000244140625</ele>
        <time>2019-07-08T08:36:49.000Z</time>
      </trkpt>
      <trkpt lat="42.0023563317954540252685546875" lon="-3.2657549344003200531005859375">
        <ele>958</ele>
        <time>2019-07-08T08:36:51.000Z</time>
      </trkpt>
      <trkpt lat="42.00290811248123645782470703125" lon="-3.2662615366280078887939453125">
        <ele>957.79998779296875</ele>
        <time>2019-07-08T08:36:54.000Z</time>
      </trkpt>
      <trkpt lat="42.00346224009990692138671875" lon="-3.26675766147673130035400390625">
        <ele>959.20001220703125</ele>
        <time>2019-07-08T08:36:57.000Z</time>
      </trkpt>
      <trkpt lat="42.0038531720638275146484375" lon="-3.2670700550079345703125">
        <ele>961.20001220703125</ele>
        <time>2019-07-08T08:36:59.000Z</time>
      </trkpt>
      <trkpt lat="42.0042633824050426483154296875" lon="-3.2673417963087558746337890625">
        <ele>962.79998779296875</ele>
        <time>2019-07-08T08:37:01.000Z</time>
      </trkpt>
      <trkpt lat="42.00467803515493869781494140625" lon="-3.26759635470807552337646484375">
        <ele>965.20001220703125</ele>
        <time>2019-07-08T08:37:03.000Z</time>
      </trkpt>
      <trkpt lat="42.0048846490681171417236328125" lon="-3.26772141270339488983154296875">
        <ele>966.79998779296875</ele>
        <time>2019-07-08T08:37:04.000Z</time>
      </trkpt>
      <trkpt lat="42.00508941896259784698486328125" lon="-3.26784789562225341796875">
        <ele>968.4000244140625</ele>
        <time>2019-07-08T08:37:05.000Z</time>
      </trkpt>
      <trkpt lat="42.00549929402768611907958984375" lon="-3.26810681261122226715087890625">
        <ele>969.4000244140625</ele>
        <time>2019-07-08T08:37:07.000Z</time>
      </trkpt>
      <trkpt lat="42.00611335225403308868408203125" lon="-3.2684741914272308349609375">
        <ele>967.79998779296875</ele>
        <time>2019-07-08T08:37:10.000Z</time>
      </trkpt>
      <trkpt lat="42.0065157674252986907958984375" lon="-3.26872388832271099090576171875">
        <ele>966.20001220703125</ele>
        <time>2019-07-08T08:37:12.000Z</time>
      </trkpt>
      <trkpt lat="42.00692136771976947784423828125" lon="-3.26898179948329925537109375">
        <ele>964</ele>
        <time>2019-07-08T08:37:14.000Z</time>
      </trkpt>
      <trkpt lat="42.0073348470032215118408203125" lon="-3.26923937536776065826416015625">
        <ele>962</ele>
        <time>2019-07-08T08:37:16.000Z</time>
      </trkpt>
      <trkpt lat="42.007752098143100738525390625" lon="-3.26950005255639553070068359375">
        <ele>960.79998779296875</ele>
        <time>2019-07-08T08:37:18.000Z</time>
      </trkpt>
      <trkpt lat="42.0081680081784725189208984375" lon="-3.26978017576038837432861328125">
        <ele>959.20001220703125</ele>
        <time>2019-07-08T08:37:20.000Z</time>
      </trkpt>
      <trkpt lat="42.00858802534639835357666015625" lon="-3.27004319988191127777099609375">
        <ele>957.5999755859375</ele>
        <time>2019-07-08T08:37:22.000Z</time>
      </trkpt>
      <trkpt lat="42.00900678522884845733642578125" lon="-3.27029884792864322662353515625">
        <ele>957.5999755859375</ele>
        <time>2019-07-08T08:37:24.000Z</time>
      </trkpt>
      <trkpt lat="42.0094182528555393218994140625" lon="-3.27055516652762889862060546875">
        <ele>958.20001220703125</ele>
        <time>2019-07-08T08:37:26.000Z</time>
      </trkpt>
      <trkpt lat="42.00962302275002002716064453125" lon="-3.2706824876368045806884765625">
        <ele>959.20001220703125</ele>
        <time>2019-07-08T08:37:27.000Z</time>
      </trkpt>
      <trkpt lat="42.00982703827321529388427734375" lon="-3.27080913819372653961181640625">
        <ele>960.4000244140625</ele>
        <time>2019-07-08T08:37:28.000Z</time>
      </trkpt>
      <trkpt lat="42.0102343149483203887939453125" lon="-3.271063864231109619140625">
        <ele>961.79998779296875</ele>
        <time>2019-07-08T08:37:30.000Z</time>
      </trkpt>
      <trkpt lat="42.010646872222423553466796875" lon="-3.2713218592107295989990234375">
        <ele>963.20001220703125</ele>
        <time>2019-07-08T08:37:32.000Z</time>
      </trkpt>
      <trkpt lat="42.01085767708718776702880859375" lon="-3.27145286835730075836181640625">
        <ele>964.20001220703125</ele>
        <time>2019-07-08T08:37:33.000Z</time>
      </trkpt>
      <trkpt lat="42.01107057742774486541748046875" lon="-3.271583877503871917724609375">
        <ele>965.4000244140625</ele>
        <time>2019-07-08T08:37:34.000Z</time>
      </trkpt>
      <trkpt lat="42.0114949531853199005126953125" lon="-3.27185033820569515228271484375">
        <ele>966.5999755859375</ele>
        <time>2019-07-08T08:37:36.000Z</time>
      </trkpt>
      <trkpt lat="42.01191723346710205078125" lon="-3.2721087522804737091064453125">
        <ele>966.20001220703125</ele>
        <time>2019-07-08T08:37:38.000Z</time>
      </trkpt>
      <trkpt lat="42.01234512962400913238525390625" lon="-3.27237102203071117401123046875">
        <ele>965</ele>
        <time>2019-07-08T08:37:40.000Z</time>
      </trkpt>
      <trkpt lat="42.01277277432382106781005859375" lon="-3.27263555489480495452880859375">
        <ele>964.20001220703125</ele>
        <time>2019-07-08T08:37:42.000Z</time>
      </trkpt>
      <trkpt lat="42.0129834115505218505859375" lon="-3.27276798896491527557373046875">
        <ele>963.5999755859375</ele>
        <time>2019-07-08T08:37:43.000Z</time>
      </trkpt>
      <trkpt lat="42.0133932866156101226806640625" lon="-3.27303461730480194091796875">
        <ele>964.20001220703125</ele>
        <time>2019-07-08T08:37:45.000Z</time>
      </trkpt>
      <trkpt lat="42.01399334706366062164306640625" lon="-3.2734173350036144256591796875">
        <ele>964.79998779296875</ele>
        <time>2019-07-08T08:37:48.000Z</time>
      </trkpt>
      <trkpt lat="42.0141909085214138031005859375" lon="-3.27354314737021923065185546875">
        <ele>966.20001220703125</ele>
        <time>2019-07-08T08:37:49.000Z</time>
      </trkpt>
      <trkpt lat="42.014387883245944976806640625" lon="-3.27366686426103115081787109375">
        <ele>967.79998779296875</ele>
        <time>2019-07-08T08:37:50.000Z</time>
      </trkpt>
      <trkpt lat="42.01478250324726104736328125" lon="-3.2739132083952426910400390625">
        <ele>970</ele>
        <time>2019-07-08T08:37:52.000Z</time>
      </trkpt>
      <trkpt lat="42.01518156565725803375244140625" lon="-3.2741604745388031005859375">
        <ele>971.79998779296875</ele>
        <time>2019-07-08T08:37:54.000Z</time>
      </trkpt>
      <trkpt lat="42.01577500440180301666259765625" lon="-3.27453707344830036163330078125">
        <ele>972.4000244140625</ele>
        <time>2019-07-08T08:37:57.000Z</time>
      </trkpt>
      <trkpt lat="42.01633139513432979583740234375" lon="-3.274878300726413726806640625">
        <ele>971.20001220703125</ele>
        <time>2019-07-08T08:38:00.000Z</time>
      </trkpt>
      <trkpt lat="42.01650179922580718994140625" lon="-3.27498282305896282196044921875">
        <ele>969.4000244140625</ele>
        <time>2019-07-08T08:38:01.000Z</time>
      </trkpt>
      <trkpt lat="42.0169579423964023590087890625" lon="-3.2752640359103679656982421875">
        <ele>968.4000244140625</ele>
        <time>2019-07-08T08:38:04.000Z</time>
      </trkpt>
      <trkpt lat="42.01746881939470767974853515625" lon="-3.27559084631502628326416015625">
        <ele>970</ele>
        <time>2019-07-08T08:38:08.000Z</time>
      </trkpt>
      <trkpt lat="42.01758985407650470733642578125" lon="-3.2756636850535869598388671875">
        <ele>970.79998779296875</ele>
        <time>2019-07-08T08:38:09.000Z</time>
      </trkpt>
      <trkpt lat="42.0178283192217350006103515625" lon="-3.27581070363521575927734375">
        <ele>972.5999755859375</ele>
        <time>2019-07-08T08:38:11.000Z</time>
      </trkpt>
      <trkpt lat="42.01803241856396198272705078125" lon="-3.2759429700672626495361328125">
        <ele>974.4000244140625</ele>
        <time>2019-07-08T08:38:13.000Z</time>
      </trkpt>
      <trkpt lat="42.0182014815509319305419921875" lon="-3.2760660164058208465576171875">
        <ele>975.79998779296875</ele>
        <time>2019-07-08T08:38:15.000Z</time>
      </trkpt>
      <trkpt lat="42.0184378512203693389892578125" lon="-3.27627011574804782867431640625">
        <ele>977.20001220703125</ele>
        <time>2019-07-08T08:38:18.000Z</time>
      </trkpt>
      <trkpt lat="42.01868335716426372528076171875" lon="-3.2765498198568820953369140625">
        <ele>978.4000244140625</ele>
        <time>2019-07-08T08:38:21.000Z</time>
      </trkpt>
      <trkpt lat="42.0190178789198398590087890625" lon="-3.27706036157906055450439453125">
        <ele>978</ele>
        <time>2019-07-08T08:38:25.000Z</time>
      </trkpt>
      <trkpt lat="42.01925097964704036712646484375" lon="-3.27748733572661876678466796875">
        <ele>977.20001220703125</ele>
        <time>2019-07-08T08:38:28.000Z</time>
      </trkpt>
      <trkpt lat="42.01940537430346012115478515625" lon="-3.2777692191302776336669921875">
        <ele>976.20001220703125</ele>
        <time>2019-07-08T08:38:30.000Z</time>
      </trkpt>
      <trkpt lat="42.01954032294452190399169921875" lon="-3.27801874838769435882568359375">
        <ele>974.20001220703125</ele>
        <time>2019-07-08T08:38:32.000Z</time>
      </trkpt>
      <trkpt lat="42.0197950489819049835205078125" lon="-3.27848947606980800628662109375">
        <ele>972.79998779296875</ele>
        <time>2019-07-08T08:38:37.000Z</time>
      </trkpt>
      <trkpt lat="42.02007592655718326568603515625" lon="-3.27902290038764476776123046875">
        <ele>971.79998779296875</ele>
        <time>2019-07-08T08:38:42.000Z</time>
      </trkpt>
      <trkpt lat="42.02037868089973926544189453125" lon="-3.27960200607776641845703125">
        <ele>972.20001220703125</ele>
        <time>2019-07-08T08:38:47.000Z</time>
      </trkpt>
      <trkpt lat="42.0206057466566562652587890625" lon="-3.280034847557544708251953125">
        <ele>971.5999755859375</ele>
        <time>2019-07-08T08:38:51.000Z</time>
      </trkpt>
      <trkpt lat="42.02074379660189151763916015625" lon="-3.2803991250693798065185546875">
        <ele>970.4000244140625</ele>
        <time>2019-07-08T08:38:54.000Z</time>
      </trkpt>
      <trkpt lat="42.02084991149604320526123046875" lon="-3.2807828485965728759765625">
        <ele>969</ele>
        <time>2019-07-08T08:38:57.000Z</time>
      </trkpt>
      <trkpt lat="42.02092819847166538238525390625" lon="-3.281027935445308685302734375">
        <ele>967.5999755859375</ele>
        <time>2019-07-08T08:38:59.000Z</time>
      </trkpt>
      <trkpt lat="42.02104453928768634796142578125" lon="-3.28124444000422954559326171875">
        <ele>966.5999755859375</ele>
        <time>2019-07-08T08:39:01.000Z</time>
      </trkpt>
      <trkpt lat="42.02117948792874813079833984375" lon="-3.28145147301256656646728515625">
        <ele>965.5999755859375</ele>
        <time>2019-07-08T08:39:03.000Z</time>
      </trkpt>
      <trkpt lat="42.02123380266129970550537109375" lon="-3.2815692387521266937255859375">
        <ele>965.20001220703125</ele>
        <time>2019-07-08T08:39:04.000Z</time>
      </trkpt>
      <trkpt lat="42.0213651470839977264404296875" lon="-3.28194935806095600128173828125">
        <ele>964.20001220703125</ele>
        <time>2019-07-08T08:39:07.000Z</time>
      </trkpt>
      <trkpt lat="42.02143982984125614166259765625" lon="-3.2822065986692905426025390625">
        <ele>963.20001220703125</ele>
        <time>2019-07-08T08:39:09.000Z</time>
      </trkpt>
      <trkpt lat="42.02151660807430744171142578125" lon="-3.28247238881886005401611328125">
        <ele>962</ele>
        <time>2019-07-08T08:39:11.000Z</time>
      </trkpt>
      <trkpt lat="42.0216000080108642578125" lon="-3.28273507766425609588623046875">
        <ele>960.4000244140625</ele>
        <time>2019-07-08T08:39:13.000Z</time>
      </trkpt>
      <trkpt lat="42.021678127348423004150390625" lon="-3.282980583608150482177734375">
        <ele>958.79998779296875</ele>
        <time>2019-07-08T08:39:15.000Z</time>
      </trkpt>
      <trkpt lat="42.02176320366561412811279296875" lon="-3.2832184620201587677001953125">
        <ele>957.79998779296875</ele>
        <time>2019-07-08T08:39:17.000Z</time>
      </trkpt>
      <trkpt lat="42.0218466036021709442138671875" lon="-3.28347251750528812408447265625">
        <ele>956.5999755859375</ele>
        <time>2019-07-08T08:39:19.000Z</time>
      </trkpt>
      <trkpt lat="42.0219200290739536285400390625" lon="-3.28375012613832950592041015625">
        <ele>955.4000244140625</ele>
        <time>2019-07-08T08:39:21.000Z</time>
      </trkpt>
      <trkpt lat="42.022002674639225006103515625" lon="-3.28413552604615688323974609375">
        <ele>954.4000244140625</ele>
        <time>2019-07-08T08:39:24.000Z</time>
      </trkpt>
      <trkpt lat="42.022070400416851043701171875" lon="-3.284745477139949798583984375">
        <ele>953.5999755859375</ele>
        <time>2019-07-08T08:39:29.000Z</time>
      </trkpt>
      <trkpt lat="42.0221245475113391876220703125" lon="-3.285122998058795928955078125">
        <ele>953.79998779296875</ele>
        <time>2019-07-08T08:39:32.000Z</time>
      </trkpt>
      <trkpt lat="42.02215430326759815216064453125" lon="-3.28572926111519336700439453125">
        <ele>953.79998779296875</ele>
        <time>2019-07-08T08:39:37.000Z</time>
      </trkpt>
      <trkpt lat="42.02222890220582485198974609375" lon="-3.2862708158791065216064453125">
        <ele>953.20001220703125</ele>
        <time>2019-07-08T08:39:42.000Z</time>
      </trkpt>
      <trkpt lat="42.022270895540714263916015625" lon="-3.28669644892215728759765625">
        <ele>953.20001220703125</ele>
        <time>2019-07-08T08:39:47.000Z</time>
      </trkpt>
      <trkpt lat="42.0223481766879558563232421875" lon="-3.28693273477256298065185546875">
        <ele>953.4000244140625</ele>
        <time>2019-07-08T08:39:50.000Z</time>
      </trkpt>
      <trkpt lat="42.02230869792401790618896484375" lon="-3.28706248663365840911865234375">
        <ele>953.4000244140625</ele>
        <time>2019-07-08T08:39:52.000Z</time>
      </trkpt>
      <trkpt lat="42.0222019962966442108154296875" lon="-3.2872025482356548309326171875">
        <ele>953</ele>
        <time>2019-07-08T08:39:54.000Z</time>
      </trkpt>
      <trkpt lat="42.02209026552736759185791015625" lon="-3.28734219074249267578125">
        <ele>952.5999755859375</ele>
        <time>2019-07-08T08:39:56.000Z</time>
      </trkpt>
      <trkpt lat="42.02191743068397045135498046875" lon="-3.28793219290673732757568359375">
        <ele>952.79998779296875</ele>
        <time>2019-07-08T08:40:06.000Z</time>
      </trkpt>
      <trkpt lat="42.022137455642223358154296875" lon="-3.28840342350304126739501953125">
        <ele>953</ele>
        <time>2019-07-08T08:40:17.000Z</time>
      </trkpt>
      <trkpt lat="42.022236026823520660400390625" lon="-3.28851741738617420196533203125">
        <ele>953</ele>
        <time>2019-07-08T08:40:19.000Z</time>
      </trkpt>
      <trkpt lat="42.02263123355805873870849609375" lon="-3.288970626890659332275390625">
        <ele>952.4000244140625</ele>
        <time>2019-07-08T08:40:26.000Z</time>
      </trkpt>
      <trkpt lat="42.02267448417842388153076171875" lon="-3.289050422608852386474609375">
        <ele>952.4000244140625</ele>
        <time>2019-07-08T08:40:27.000Z</time>
      </trkpt>
      <trkpt lat="42.022714801132678985595703125" lon="-3.28913030214607715606689453125">
        <ele>952.20001220703125</ele>
        <time>2019-07-08T08:40:28.000Z</time>
      </trkpt>
      <trkpt lat="42.02301830984652042388916015625" lon="-3.28946809284389019012451171875">
        <ele>952</ele>
        <time>2019-07-08T08:40:32.000Z</time>
      </trkpt>
      <trkpt lat="42.023313604295253753662109375" lon="-3.2899266667664051055908203125">
        <ele>951.79998779296875</ele>
        <time>2019-07-08T08:40:37.000Z</time>
      </trkpt>
      <trkpt lat="42.023528181016445159912109375" lon="-3.29027292318642139434814453125">
        <ele>953.4000244140625</ele>
        <time>2019-07-08T08:40:41.000Z</time>
      </trkpt>
      <trkpt lat="42.023628093302249908447265625" lon="-3.2904168404638767242431640625">
        <ele>954.79998779296875</ele>
        <time>2019-07-08T08:40:43.000Z</time>
      </trkpt>
      <trkpt lat="42.0237214677035808563232421875" lon="-3.2905720733106136322021484375">
        <ele>955.79998779296875</ele>
        <time>2019-07-08T08:40:45.000Z</time>
      </trkpt>
      <trkpt lat="42.02380453236401081085205078125" lon="-3.29074163921177387237548828125">
        <ele>955.5999755859375</ele>
        <time>2019-07-08T08:40:47.000Z</time>
      </trkpt>
      <trkpt lat="42.0238589309155941009521484375" lon="-3.2909207604825496673583984375">
        <ele>955.5999755859375</ele>
        <time>2019-07-08T08:40:49.000Z</time>
      </trkpt>
      <trkpt lat="42.02385867945849895477294921875" lon="-3.29101975075900554656982421875">
        <ele>955.4000244140625</ele>
        <time>2019-07-08T08:40:50.000Z</time>
      </trkpt>
      <trkpt lat="42.0238455198705196380615234375" lon="-3.2911281287670135498046875">
        <ele>955.4000244140625</ele>
        <time>2019-07-08T08:40:51.000Z</time>
      </trkpt>
      <trkpt lat="42.02364695258438587188720703125" lon="-3.2916888780891895294189453125">
        <ele>955.20001220703125</ele>
        <time>2019-07-08T08:40:56.000Z</time>
      </trkpt>
      <trkpt lat="42.0234773866832256317138671875" lon="-3.292179889976978302001953125">
        <ele>957.5999755859375</ele>
        <time>2019-07-08T08:41:01.000Z</time>
      </trkpt>
      <trkpt lat="42.02341209165751934051513671875" lon="-3.2924103923141956329345703125">
        <ele>959</ele>
        <time>2019-07-08T08:41:03.000Z</time>
      </trkpt>
      <trkpt lat="42.02324562706053256988525390625" lon="-3.29300676472485065460205078125">
        <ele>959.5999755859375</ele>
        <time>2019-07-08T08:41:08.000Z</time>
      </trkpt>
      <trkpt lat="42.0231806673109531402587890625" lon="-3.29327498562633991241455078125">
        <ele>960</ele>
        <time>2019-07-08T08:41:11.000Z</time>
      </trkpt>
      <trkpt lat="42.02309223823249340057373046875" lon="-3.29359819181263446807861328125">
        <ele>961</ele>
        <time>2019-07-08T08:41:15.000Z</time>
      </trkpt>
      <trkpt lat="42.02294354327023029327392578125" lon="-3.29427578486502170562744140625">
        <ele>962</ele>
        <time>2019-07-08T08:41:21.000Z</time>
      </trkpt>
      <trkpt lat="42.02279048971831798553466796875" lon="-3.29489839263260364532470703125">
        <ele>962</ele>
        <time>2019-07-08T08:41:25.000Z</time>
      </trkpt>
      <trkpt lat="42.02261966653168201446533203125" lon="-3.295584283769130706787109375">
        <ele>961.4000244140625</ele>
        <time>2019-07-08T08:41:29.000Z</time>
      </trkpt>
      <trkpt lat="42.0224440656602382659912109375" lon="-3.29629247076809406280517578125">
        <ele>961.79998779296875</ele>
        <time>2019-07-08T08:41:33.000Z</time>
      </trkpt>
      <trkpt lat="42.02229411341249942779541015625" lon="-3.29689194448292255401611328125">
        <ele>961.5999755859375</ele>
        <time>2019-07-08T08:41:36.000Z</time>
      </trkpt>
      <trkpt lat="42.0221882499754428863525390625" lon="-3.29731774516403675079345703125">
        <ele>962.4000244140625</ele>
        <time>2019-07-08T08:41:38.000Z</time>
      </trkpt>
      <trkpt lat="42.0220229588449001312255859375" lon="-3.2979803346097469329833984375">
        <ele>962.5999755859375</ele>
        <time>2019-07-08T08:41:41.000Z</time>
      </trkpt>
      <trkpt lat="42.0219669677317142486572265625" lon="-3.29819717444479465484619140625">
        <ele>963.79998779296875</ele>
        <time>2019-07-08T08:41:42.000Z</time>
      </trkpt>
      <trkpt lat="42.021910138428211212158203125" lon="-3.29841376282274723052978515625">
        <ele>965.5999755859375</ele>
        <time>2019-07-08T08:41:43.000Z</time>
      </trkpt>
      <trkpt lat="42.02185406349599361419677734375" lon="-3.29863035120069980621337890625">
        <ele>967</ele>
        <time>2019-07-08T08:41:44.000Z</time>
      </trkpt>
      <trkpt lat="42.02179991640150547027587890625" lon="-3.29884819686412811279296875">
        <ele>968.4000244140625</ele>
        <time>2019-07-08T08:41:45.000Z</time>
      </trkpt>
      <trkpt lat="42.02174711041152477264404296875" lon="-3.2990674674510955810546875">
        <ele>970.20001220703125</ele>
        <time>2019-07-08T08:41:46.000Z</time>
      </trkpt>
      <trkpt lat="42.02169447205960750579833984375" lon="-3.29929101280868053436279296875">
        <ele>972</ele>
        <time>2019-07-08T08:41:47.000Z</time>
      </trkpt>
      <trkpt lat="42.0215864293277263641357421875" lon="-3.29974397085607051849365234375">
        <ele>974.20001220703125</ele>
        <time>2019-07-08T08:41:49.000Z</time>
      </trkpt>
      <trkpt lat="42.02153001911938190460205078125" lon="-3.29996936023235321044921875">
        <ele>975.20001220703125</ele>
        <time>2019-07-08T08:41:50.000Z</time>
      </trkpt>
      <trkpt lat="42.02141694724559783935546875" lon="-3.3004141040146350860595703125">
        <ele>976.20001220703125</ele>
        <time>2019-07-08T08:41:52.000Z</time>
      </trkpt>
      <trkpt lat="42.0212575234472751617431640625" lon="-3.30105305649340152740478515625">
        <ele>976</ele>
        <time>2019-07-08T08:41:55.000Z</time>
      </trkpt>
      <trkpt lat="42.02109198085963726043701171875" lon="-3.3016998879611492156982421875">
        <ele>976.4000244140625</ele>
        <time>2019-07-08T08:41:58.000Z</time>
      </trkpt>
      <trkpt lat="42.02091931365430355072021484375" lon="-3.30238158814609050750732421875">
        <ele>976.5999755859375</ele>
        <time>2019-07-08T08:42:01.000Z</time>
      </trkpt>
      <trkpt lat="42.0208127796649932861328125" lon="-3.3028200455009937286376953125">
        <ele>972.79998779296875</ele>
        <time>2019-07-08T08:42:03.000Z</time>
      </trkpt>
      <trkpt lat="42.02076257206499576568603515625" lon="-3.3030305989086627960205078125">
        <ele>970.4000244140625</ele>
        <time>2019-07-08T08:42:04.000Z</time>
      </trkpt>
      <trkpt lat="42.020713873207569122314453125" lon="-3.30323754809796810150146484375">
        <ele>968.4000244140625</ele>
        <time>2019-07-08T08:42:05.000Z</time>
      </trkpt>
      <trkpt lat="42.0206245221197605133056640625" lon="-3.30365337431430816650390625">
        <ele>967</ele>
        <time>2019-07-08T08:42:07.000Z</time>
      </trkpt>
      <trkpt lat="42.0205365121364593505859375" lon="-3.30431663431227207183837890625">
        <ele>965.79998779296875</ele>
        <time>2019-07-08T08:42:10.000Z</time>
      </trkpt>
      <trkpt lat="42.0205517672002315521240234375" lon="-3.30503127537667751312255859375">
        <ele>964.5999755859375</ele>
        <time>2019-07-08T08:42:13.000Z</time>
      </trkpt>
      <trkpt lat="42.0206892304122447967529296875" lon="-3.305794782936573028564453125">
        <ele>964</ele>
        <time>2019-07-08T08:42:16.000Z</time>
      </trkpt>
      <trkpt lat="42.02084974385797977447509765625" lon="-3.30630348064005374908447265625">
        <ele>963.4000244140625</ele>
        <time>2019-07-08T08:42:18.000Z</time>
      </trkpt>
      <trkpt lat="42.02117596752941608428955078125" lon="-3.3070817403495311737060546875">
        <ele>963</ele>
        <time>2019-07-08T08:42:21.000Z</time>
      </trkpt>
      <trkpt lat="42.02140077017247676849365234375" lon="-3.30768205225467681884765625">
        <ele>962.79998779296875</ele>
        <time>2019-07-08T08:42:23.000Z</time>
      </trkpt>
      <trkpt lat="42.02158349566161632537841796875" lon="-3.308318071067333221435546875">
        <ele>963.5999755859375</ele>
        <time>2019-07-08T08:42:25.000Z</time>
      </trkpt>
      <trkpt lat="42.02173470519483089447021484375" lon="-3.30896372906863689422607421875">
        <ele>960.79998779296875</ele>
        <time>2019-07-08T08:42:27.000Z</time>
      </trkpt>
      <trkpt lat="42.02180385589599609375" lon="-3.30928877927362918853759765625">
        <ele>959.79998779296875</ele>
        <time>2019-07-08T08:42:28.000Z</time>
      </trkpt>
      <trkpt lat="42.0219414867460727691650390625" lon="-3.30991591326892375946044921875">
        <ele>956.4000244140625</ele>
        <time>2019-07-08T08:42:30.000Z</time>
      </trkpt>
      <trkpt lat="42.02200879342854022979736328125" lon="-3.3102122135460376739501953125">
        <ele>954.4000244140625</ele>
        <time>2019-07-08T08:42:31.000Z</time>
      </trkpt>
      <trkpt lat="42.02207517810165882110595703125" lon="-3.310502059757709503173828125">
        <ele>953.4000244140625</ele>
        <time>2019-07-08T08:42:32.000Z</time>
      </trkpt>
      <trkpt lat="42.02220149338245391845703125" lon="-3.31107228063046932220458984375">
        <ele>954.5999755859375</ele>
        <time>2019-07-08T08:42:34.000Z</time>
      </trkpt>
      <trkpt lat="42.02232898212969303131103515625" lon="-3.31163453869521617889404296875">
        <ele>956.20001220703125</ele>
        <time>2019-07-08T08:42:36.000Z</time>
      </trkpt>
      <trkpt lat="42.02245135791599750518798828125" lon="-3.31218992359936237335205078125">
        <ele>957.5999755859375</ele>
        <time>2019-07-08T08:42:38.000Z</time>
      </trkpt>
      <trkpt lat="42.02263022772967815399169921875" lon="-3.31300782971084117889404296875">
        <ele>957.79998779296875</ele>
        <time>2019-07-08T08:42:41.000Z</time>
      </trkpt>
      <trkpt lat="42.02281303703784942626953125" lon="-3.31382607109844684600830078125">
        <ele>957.5999755859375</ele>
        <time>2019-07-08T08:42:44.000Z</time>
      </trkpt>
      <trkpt lat="42.02299634926021099090576171875" lon="-3.3146663568913936614990234375">
        <ele>957.4000244140625</ele>
        <time>2019-07-08T08:42:47.000Z</time>
      </trkpt>
      <trkpt lat="42.02305837534368038177490234375" lon="-3.314949832856655120849609375">
        <ele>956.20001220703125</ele>
        <time>2019-07-08T08:42:48.000Z</time>
      </trkpt>
      <trkpt lat="42.02312241308391094207763671875" lon="-3.31523322500288486480712890625">
        <ele>955</ele>
        <time>2019-07-08T08:42:49.000Z</time>
      </trkpt>
      <trkpt lat="42.02330882661044597625732421875" lon="-3.3160973154008388519287109375">
        <ele>955.5999755859375</ele>
        <time>2019-07-08T08:42:52.000Z</time>
      </trkpt>
      <trkpt lat="42.02343706972897052764892578125" lon="-3.3166801929473876953125">
        <ele>956</ele>
        <time>2019-07-08T08:42:54.000Z</time>
      </trkpt>
      <trkpt lat="42.02350194565951824188232421875" lon="-3.31697129644453525543212890625">
        <ele>956.20001220703125</ele>
        <time>2019-07-08T08:42:55.000Z</time>
      </trkpt>
      <trkpt lat="42.02363622374832630157470703125" lon="-3.31754931248724460601806640625">
        <ele>956.20001220703125</ele>
        <time>2019-07-08T08:42:57.000Z</time>
      </trkpt>
      <trkpt lat="42.02385683543980121612548828125" lon="-3.31840577535331249237060546875">
        <ele>956</ele>
        <time>2019-07-08T08:43:00.000Z</time>
      </trkpt>
      <trkpt lat="42.0240071229636669158935546875" lon="-3.318979851901531219482421875">
        <ele>954.20001220703125</ele>
        <time>2019-07-08T08:43:02.000Z</time>
      </trkpt>
      <trkpt lat="42.02408532612025737762451171875" lon="-3.3192663453519344329833984375">
        <ele>953.20001220703125</ele>
        <time>2019-07-08T08:43:03.000Z</time>
      </trkpt>
      <trkpt lat="42.0242540538311004638671875" lon="-3.31983807496726512908935546875">
        <ele>954.5999755859375</ele>
        <time>2019-07-08T08:43:05.000Z</time>
      </trkpt>
      <trkpt lat="42.02443250454962253570556640625" lon="-3.32041273824870586395263671875">
        <ele>952.79998779296875</ele>
        <time>2019-07-08T08:43:07.000Z</time>
      </trkpt>
      <trkpt lat="42.02452001161873340606689453125" lon="-3.32069537602365016937255859375">
        <ele>950.20001220703125</ele>
        <time>2019-07-08T08:43:08.000Z</time>
      </trkpt>
      <trkpt lat="42.0246082730591297149658203125" lon="-3.320973403751850128173828125">
        <ele>951.4000244140625</ele>
        <time>2019-07-08T08:43:09.000Z</time>
      </trkpt>
      <trkpt lat="42.024697959423065185546875" lon="-3.32124506123363971710205078125">
        <ele>953.4000244140625</ele>
        <time>2019-07-08T08:43:10.000Z</time>
      </trkpt>
      <trkpt lat="42.02479183673858642578125" lon="-3.3215106837451457977294921875">
        <ele>954.79998779296875</ele>
        <time>2019-07-08T08:43:11.000Z</time>
      </trkpt>
      <trkpt lat="42.024969868361949920654296875" lon="-3.32203899510204792022705078125">
        <ele>957.5999755859375</ele>
        <time>2019-07-08T08:43:13.000Z</time>
      </trkpt>
      <trkpt lat="42.02505527995526790618896484375" lon="-3.32230084575712680816650390625">
        <ele>959.20001220703125</ele>
        <time>2019-07-08T08:43:14.000Z</time>
      </trkpt>
      <trkpt lat="42.0251416973769664764404296875" lon="-3.3225582540035247802734375">
        <ele>960.4000244140625</ele>
        <time>2019-07-08T08:43:15.000Z</time>
      </trkpt>
      <trkpt lat="42.0254038833081722259521484375" lon="-3.32329678349196910858154296875">
        <ele>960.79998779296875</ele>
        <time>2019-07-08T08:43:18.000Z</time>
      </trkpt>
      <trkpt lat="42.0256647281348705291748046875" lon="-3.32402131520211696624755859375">
        <ele>959.4000244140625</ele>
        <time>2019-07-08T08:43:21.000Z</time>
      </trkpt>
      <trkpt lat="42.0257535763084888458251953125" lon="-3.32426388747990131378173828125">
        <ele>957.20001220703125</ele>
        <time>2019-07-08T08:43:22.000Z</time>
      </trkpt>
      <trkpt lat="42.02593244612216949462890625" lon="-3.3247578330338001251220703125">
        <ele>955.79998779296875</ele>
        <time>2019-07-08T08:43:24.000Z</time>
      </trkpt>
      <trkpt lat="42.02602707780897617340087890625" lon="-3.325004093348979949951171875">
        <ele>953.4000244140625</ele>
        <time>2019-07-08T08:43:25.000Z</time>
      </trkpt>
      <trkpt lat="42.0263020880520343780517578125" lon="-3.32576416432857513427734375">
        <ele>953.5999755859375</ele>
        <time>2019-07-08T08:43:28.000Z</time>
      </trkpt>
      <trkpt lat="42.02639319933950901031494140625" lon="-3.32601939328014850616455078125">
        <ele>954.79998779296875</ele>
        <time>2019-07-08T08:43:29.000Z</time>
      </trkpt>
      <trkpt lat="42.0264851488173007965087890625" lon="-3.32627353258430957794189453125">
        <ele>956.4000244140625</ele>
        <time>2019-07-08T08:43:30.000Z</time>
      </trkpt>
      <trkpt lat="42.0265770144760608673095703125" lon="-3.32652482204139232635498046875">
        <ele>959</ele>
        <time>2019-07-08T08:43:31.000Z</time>
      </trkpt>
      <trkpt lat="42.02667097561061382293701171875" lon="-3.32677376456558704376220703125">
        <ele>962</ele>
        <time>2019-07-08T08:43:32.000Z</time>
      </trkpt>
      <trkpt lat="42.026766948401927947998046875" lon="-3.3270209468901157379150390625">
        <ele>963.5999755859375</ele>
        <time>2019-07-08T08:43:33.000Z</time>
      </trkpt>
      <trkpt lat="42.02706878073513507843017578125" lon="-3.32778311334550380706787109375">
        <ele>964.20001220703125</ele>
        <time>2019-07-08T08:43:36.000Z</time>
      </trkpt>
      <trkpt lat="42.02728570438921451568603515625" lon="-3.32830958068370819091796875">
        <ele>960.79998779296875</ele>
        <time>2019-07-08T08:43:38.000Z</time>
      </trkpt>
      <trkpt lat="42.0273970998823642730712890625" lon="-3.32857511937618255615234375">
        <ele>958</ele>
        <time>2019-07-08T08:43:39.000Z</time>
      </trkpt>
      <trkpt lat="42.027508579194545745849609375" lon="-3.32884468138217926025390625">
        <ele>955.79998779296875</ele>
        <time>2019-07-08T08:43:40.000Z</time>
      </trkpt>
      <trkpt lat="42.0276237465441226959228515625" lon="-3.32911600358784198760986328125">
        <ele>954.5999755859375</ele>
        <time>2019-07-08T08:43:41.000Z</time>
      </trkpt>
      <trkpt lat="42.02786087058484554290771484375" lon="-3.32966418005526065826416015625">
        <ele>952.5999755859375</ele>
        <time>2019-07-08T08:43:43.000Z</time>
      </trkpt>
      <trkpt lat="42.02798425219953060150146484375" lon="-3.32994380034506320953369140625">
        <ele>951</ele>
        <time>2019-07-08T08:43:44.000Z</time>
      </trkpt>
      <trkpt lat="42.02811031602323055267333984375" lon="-3.33022342063486576080322265625">
        <ele>948.4000244140625</ele>
        <time>2019-07-08T08:43:45.000Z</time>
      </trkpt>
      <trkpt lat="42.028236798942089080810546875" lon="-3.33050304092466831207275390625">
        <ele>942</ele>
        <time>2019-07-08T08:43:46.000Z</time>
      </trkpt>
      <trkpt lat="42.0283637009561061859130859375" lon="-3.33078484050929546356201171875">
        <ele>938.20001220703125</ele>
        <time>2019-07-08T08:43:47.000Z</time>
      </trkpt>
      <trkpt lat="42.02849236316978931427001953125" lon="-3.33106429316103458404541015625">
        <ele>936.20001220703125</ele>
        <time>2019-07-08T08:43:48.000Z</time>
      </trkpt>
      <trkpt lat="42.02862110920250415802001953125" lon="-3.3313436619937419891357421875">
        <ele>933</ele>
        <time>2019-07-08T08:43:49.000Z</time>
      </trkpt>
      <trkpt lat="42.0287472568452358245849609375" lon="-3.33162269555032253265380859375">
        <ele>934.20001220703125</ele>
        <time>2019-07-08T08:43:50.000Z</time>
      </trkpt>
      <trkpt lat="42.02887323684990406036376953125" lon="-3.33190332166850566864013671875">
        <ele>935.4000244140625</ele>
        <time>2019-07-08T08:43:51.000Z</time>
      </trkpt>
      <trkpt lat="42.0290015637874603271484375" lon="-3.3321784995496273040771484375">
        <ele>938</ele>
        <time>2019-07-08T08:43:52.000Z</time>
      </trkpt>
      <trkpt lat="42.02912771143019199371337890625" lon="-3.3324582874774932861328125">
        <ele>940.20001220703125</ele>
        <time>2019-07-08T08:43:53.000Z</time>
      </trkpt>
      <trkpt lat="42.029252685606479644775390625" lon="-3.33273799158632755279541015625">
        <ele>942.20001220703125</ele>
        <time>2019-07-08T08:43:54.000Z</time>
      </trkpt>
      <trkpt lat="42.02950674109160900115966796875" lon="-3.33328952081501483917236328125">
        <ele>942.5999755859375</ele>
        <time>2019-07-08T08:43:56.000Z</time>
      </trkpt>
      <trkpt lat="42.029764987528324127197265625" lon="-3.33384607918560504913330078125">
        <ele>941.20001220703125</ele>
        <time>2019-07-08T08:43:58.000Z</time>
      </trkpt>
      <trkpt lat="42.030024491250514984130859375" lon="-3.3344141207635402679443359375">
        <ele>939.5999755859375</ele>
        <time>2019-07-08T08:44:00.000Z</time>
      </trkpt>
      <trkpt lat="42.030157931149005889892578125" lon="-3.33469566889107227325439453125">
        <ele>935.79998779296875</ele>
        <time>2019-07-08T08:44:01.000Z</time>
      </trkpt>
      <trkpt lat="42.03029011376202106475830078125" lon="-3.33497964777052402496337890625">
        <ele>933.20001220703125</ele>
        <time>2019-07-08T08:44:02.000Z</time>
      </trkpt>
      <trkpt lat="42.0305574126541614532470703125" lon="-3.33554777316749095916748046875">
        <ele>932</ele>
        <time>2019-07-08T08:44:04.000Z</time>
      </trkpt>
      <trkpt lat="42.03069210983812808990478515625" lon="-3.33583191968500614166259765625">
        <ele>930.20001220703125</ele>
        <time>2019-07-08T08:44:05.000Z</time>
      </trkpt>
      <trkpt lat="42.03082722611725330352783203125" lon="-3.33611740730702877044677734375">
        <ele>928.4000244140625</ele>
        <time>2019-07-08T08:44:06.000Z</time>
      </trkpt>
      <trkpt lat="42.0309604145586490631103515625" lon="-3.33640524186193943023681640625">
        <ele>926.79998779296875</ele>
        <time>2019-07-08T08:44:07.000Z</time>
      </trkpt>
      <trkpt lat="42.031228803098201751708984375" lon="-3.33697940222918987274169921875">
        <ele>927.5999755859375</ele>
        <time>2019-07-08T08:44:09.000Z</time>
      </trkpt>
      <trkpt lat="42.0313640870153903961181640625" lon="-3.33726505748927593231201171875">
        <ele>928.4000244140625</ele>
        <time>2019-07-08T08:44:10.000Z</time>
      </trkpt>
      <trkpt lat="42.0314933359622955322265625" lon="-3.3375506289303302764892578125">
        <ele>933.20001220703125</ele>
        <time>2019-07-08T08:44:11.000Z</time>
      </trkpt>
      <trkpt lat="42.03162132762372493743896484375" lon="-3.3378349430859088897705078125">
        <ele>939.5999755859375</ele>
        <time>2019-07-08T08:44:12.000Z</time>
      </trkpt>
      <trkpt lat="42.03175158239901065826416015625" lon="-3.3381185866892337799072265625">
        <ele>945.4000244140625</ele>
        <time>2019-07-08T08:44:13.000Z</time>
      </trkpt>
      <trkpt lat="42.03188158571720123291015625" lon="-3.33839929662644863128662109375">
        <ele>948.5999755859375</ele>
        <time>2019-07-08T08:44:14.000Z</time>
      </trkpt>
      <trkpt lat="42.0320104993879795074462890625" lon="-3.3386810123920440673828125">
        <ele>950.4000244140625</ele>
        <time>2019-07-08T08:44:15.000Z</time>
      </trkpt>
      <trkpt lat="42.032268159091472625732421875" lon="-3.3392389118671417236328125">
        <ele>951.4000244140625</ele>
        <time>2019-07-08T08:44:17.000Z</time>
      </trkpt>
      <trkpt lat="42.03252732753753662109375" lon="-3.33979547023773193359375">
        <ele>951.79998779296875</ele>
        <time>2019-07-08T08:44:19.000Z</time>
      </trkpt>
      <trkpt lat="42.032655738294124603271484375" lon="-3.34007115103304386138916015625">
        <ele>948.79998779296875</ele>
        <time>2019-07-08T08:44:20.000Z</time>
      </trkpt>
      <trkpt lat="42.0327839814126491546630859375" lon="-3.3403478376567363739013671875">
        <ele>943.4000244140625</ele>
        <time>2019-07-08T08:44:21.000Z</time>
      </trkpt>
      <trkpt lat="42.0329122245311737060546875" lon="-3.340624608099460601806640625">
        <ele>942.20001220703125</ele>
        <time>2019-07-08T08:44:22.000Z</time>
      </trkpt>
      <trkpt lat="42.03304298222064971923828125" lon="-3.3409000374376773834228515625">
        <ele>944.4000244140625</ele>
        <time>2019-07-08T08:44:23.000Z</time>
      </trkpt>
      <trkpt lat="42.03330541960895061492919921875" lon="-3.34145751781761646270751953125">
        <ele>944.5999755859375</ele>
        <time>2019-07-08T08:44:25.000Z</time>
      </trkpt>
      <trkpt lat="42.0335705392062664031982421875" lon="-3.342021368443965911865234375">
        <ele>945.20001220703125</ele>
        <time>2019-07-08T08:44:27.000Z</time>
      </trkpt>
      <trkpt lat="42.0337043143808841705322265625" lon="-3.342305682599544525146484375">
        <ele>945.4000244140625</ele>
        <time>2019-07-08T08:44:28.000Z</time>
      </trkpt>
      <trkpt lat="42.03397613950073719024658203125" lon="-3.342881016433238983154296875">
        <ele>945.79998779296875</ele>
        <time>2019-07-08T08:44:30.000Z</time>
      </trkpt>
      <trkpt lat="42.03424922190606594085693359375" lon="-3.34346900694072246551513671875">
        <ele>946.4000244140625</ele>
        <time>2019-07-08T08:44:32.000Z</time>
      </trkpt>
      <trkpt lat="42.03452465124428272247314453125" lon="-3.3440630324184894561767578125">
        <ele>945.79998779296875</ele>
        <time>2019-07-08T08:44:34.000Z</time>
      </trkpt>
      <trkpt lat="42.03480041585862636566162109375" lon="-3.34466007538139820098876953125">
        <ele>945.5999755859375</ele>
        <time>2019-07-08T08:44:36.000Z</time>
      </trkpt>
      <trkpt lat="42.035080455243587493896484375" lon="-3.34525041282176971435546875">
        <ele>945</ele>
        <time>2019-07-08T08:44:38.000Z</time>
      </trkpt>
      <trkpt lat="42.035223282873630523681640625" lon="-3.3455405943095684051513671875">
        <ele>944.20001220703125</ele>
        <time>2019-07-08T08:44:39.000Z</time>
      </trkpt>
      <trkpt lat="42.03551187179982662200927734375" lon="-3.34611944854259490966796875">
        <ele>942.79998779296875</ele>
        <time>2019-07-08T08:44:41.000Z</time>
      </trkpt>
      <trkpt lat="42.035805322229862213134765625" lon="-3.346687741577625274658203125">
        <ele>940</ele>
        <time>2019-07-08T08:44:43.000Z</time>
      </trkpt>
      <trkpt lat="42.03595426864922046661376953125" lon="-3.34697130136191844940185546875">
        <ele>935.79998779296875</ele>
        <time>2019-07-08T08:44:44.000Z</time>
      </trkpt>
      <trkpt lat="42.03610380180180072784423828125" lon="-3.34725293330848217010498046875">
        <ele>932.79998779296875</ele>
        <time>2019-07-08T08:44:45.000Z</time>
      </trkpt>
      <trkpt lat="42.03625249676406383514404296875" lon="-3.34753238596022129058837890625">
        <ele>931.5999755859375</ele>
        <time>2019-07-08T08:44:46.000Z</time>
      </trkpt>
      <trkpt lat="42.03640110790729522705078125" lon="-3.347810916602611541748046875">
        <ele>929.4000244140625</ele>
        <time>2019-07-08T08:44:47.000Z</time>
      </trkpt>
      <trkpt lat="42.0365467853844165802001953125" lon="-3.3480875194072723388671875">
        <ele>926.4000244140625</ele>
        <time>2019-07-08T08:44:48.000Z</time>
      </trkpt>
      <trkpt lat="42.0366887748241424560546875" lon="-3.34836470894515514373779296875">
        <ele>924.79998779296875</ele>
        <time>2019-07-08T08:44:49.000Z</time>
      </trkpt>
      <trkpt lat="42.036821208894252777099609375" lon="-3.34864567033946514129638671875">
        <ele>922.79998779296875</ele>
        <time>2019-07-08T08:44:50.000Z</time>
      </trkpt>
      <trkpt lat="42.0369397290050983428955078125" lon="-3.3489342592656612396240234375">
        <ele>921</ele>
        <time>2019-07-08T08:44:51.000Z</time>
      </trkpt>
      <trkpt lat="42.03704215586185455322265625" lon="-3.34922988899052143096923828125">
        <ele>919.79998779296875</ele>
        <time>2019-07-08T08:44:52.000Z</time>
      </trkpt>
      <trkpt lat="42.03720266930758953094482421875" lon="-3.34983757697045803070068359375">
        <ele>919.4000244140625</ele>
        <time>2019-07-08T08:44:54.000Z</time>
      </trkpt>
      <trkpt lat="42.0373088680207729339599609375" lon="-3.35045549087226390838623046875">
        <ele>922</ele>
        <time>2019-07-08T08:44:56.000Z</time>
      </trkpt>
      <trkpt lat="42.0373501069843769073486328125" lon="-3.3507668785750865936279296875">
        <ele>924.79998779296875</ele>
        <time>2019-07-08T08:44:57.000Z</time>
      </trkpt>
      <trkpt lat="42.03738690353929996490478515625" lon="-3.35107843391597270965576171875">
        <ele>926.79998779296875</ele>
        <time>2019-07-08T08:44:58.000Z</time>
      </trkpt>
      <trkpt lat="42.037423364818096160888671875" lon="-3.35138319991528987884521484375">
        <ele>929</ele>
        <time>2019-07-08T08:44:59.000Z</time>
      </trkpt>
      <trkpt lat="42.03746451996266841888427734375" lon="-3.35167673416435718536376953125">
        <ele>931.4000244140625</ele>
        <time>2019-07-08T08:45:00.000Z</time>
      </trkpt>
      <trkpt lat="42.0375110395252704620361328125" lon="-3.35195585153996944427490234375">
        <ele>932.5999755859375</ele>
        <time>2019-07-08T08:45:01.000Z</time>
      </trkpt>
      <trkpt lat="42.03762017190456390380859375" lon="-3.3524687401950359344482421875">
        <ele>934</ele>
        <time>2019-07-08T08:45:03.000Z</time>
      </trkpt>
      <trkpt lat="42.03775319270789623260498046875" lon="-3.3529096283018589019775390625">
        <ele>935.20001220703125</ele>
        <time>2019-07-08T08:45:05.000Z</time>
      </trkpt>
      <trkpt lat="42.03782594762742519378662109375" lon="-3.35310333408415317535400390625">
        <ele>937</ele>
        <time>2019-07-08T08:45:06.000Z</time>
      </trkpt>
      <trkpt lat="42.03790088184177875518798828125" lon="-3.35328237153589725494384765625">
        <ele>939</ele>
        <time>2019-07-08T08:45:07.000Z</time>
      </trkpt>
      <trkpt lat="42.0379780791699886322021484375" lon="-3.353450261056423187255859375">
        <ele>941.79998779296875</ele>
        <time>2019-07-08T08:45:08.000Z</time>
      </trkpt>
      <trkpt lat="42.0380567014217376708984375" lon="-3.35360993631184101104736328125">
        <ele>944.20001220703125</ele>
        <time>2019-07-08T08:45:09.000Z</time>
      </trkpt>
      <trkpt lat="42.03813758678734302520751953125" lon="-3.353762067854404449462890625">
        <ele>946.4000244140625</ele>
        <time>2019-07-08T08:45:10.000Z</time>
      </trkpt>
      <trkpt lat="42.0382214896380901336669921875" lon="-3.353906907141208648681640625">
        <ele>947.79998779296875</ele>
        <time>2019-07-08T08:45:11.000Z</time>
      </trkpt>
      <trkpt lat="42.038398683071136474609375" lon="-3.35417672060430049896240234375">
        <ele>949.20001220703125</ele>
        <time>2019-07-08T08:45:13.000Z</time>
      </trkpt>
      <trkpt lat="42.0387800596654415130615234375" lon="-3.35467058233916759490966796875">
        <ele>949.79998779296875</ele>
        <time>2019-07-08T08:45:17.000Z</time>
      </trkpt>
      <trkpt lat="42.039171494543552398681640625" lon="-3.3551677130162715911865234375">
        <ele>950.4000244140625</ele>
        <time>2019-07-08T08:45:21.000Z</time>
      </trkpt>
      <trkpt lat="42.03958648256957530975341796875" lon="-3.355664424598217010498046875">
        <ele>950.4000244140625</ele>
        <time>2019-07-08T08:45:25.000Z</time>
      </trkpt>
      <trkpt lat="42.03998814336955547332763671875" lon="-3.3561859466135501861572265625">
        <ele>951.79998779296875</ele>
        <time>2019-07-08T08:45:29.000Z</time>
      </trkpt>
      <trkpt lat="42.04026239924132823944091796875" lon="-3.35653739981353282928466796875">
        <ele>953</ele>
        <time>2019-07-08T08:45:32.000Z</time>
      </trkpt>
      <trkpt lat="42.0404250919818878173828125" lon="-3.35674108006060123443603515625">
        <ele>951.20001220703125</ele>
        <time>2019-07-08T08:45:34.000Z</time>
      </trkpt>
      <trkpt lat="42.0407588593661785125732421875" lon="-3.3571813814342021942138671875">
        <ele>950.5999755859375</ele>
        <time>2019-07-08T08:45:38.000Z</time>
      </trkpt>
      <trkpt lat="42.04115574248135089874267578125" lon="-3.35768069140613079071044921875">
        <ele>952.20001220703125</ele>
        <time>2019-07-08T08:45:42.000Z</time>
      </trkpt>
      <trkpt lat="42.0413707382977008819580078125" lon="-3.357947655022144317626953125">
        <ele>952.4000244140625</ele>
        <time>2019-07-08T08:45:44.000Z</time>
      </trkpt>
      <trkpt lat="42.04160434193909168243408203125" lon="-3.35821579210460186004638671875">
        <ele>953.4000244140625</ele>
        <time>2019-07-08T08:45:46.000Z</time>
      </trkpt>
      <trkpt lat="42.0419886521995067596435546875" lon="-3.3586405031383037567138671875">
        <ele>954.20001220703125</ele>
        <time>2019-07-08T08:45:49.000Z</time>
      </trkpt>
      <trkpt lat="42.04226047731935977935791015625" lon="-3.3589362166821956634521484375">
        <ele>952.20001220703125</ele>
        <time>2019-07-08T08:45:51.000Z</time>
      </trkpt>
      <trkpt lat="42.04240397550165653228759765625" lon="-3.35908499546349048614501953125">
        <ele>950</ele>
        <time>2019-07-08T08:45:52.000Z</time>
      </trkpt>
      <trkpt lat="42.0425525866448879241943359375" lon="-3.35923276841640472412109375">
        <ele>947.20001220703125</ele>
        <time>2019-07-08T08:45:53.000Z</time>
      </trkpt>
      <trkpt lat="42.0427044667303562164306640625" lon="-3.35938054136931896209716796875">
        <ele>944.5999755859375</ele>
        <time>2019-07-08T08:45:54.000Z</time>
      </trkpt>
      <trkpt lat="42.042853832244873046875" lon="-3.359527476131916046142578125">
        <ele>941.79998779296875</ele>
        <time>2019-07-08T08:45:55.000Z</time>
      </trkpt>
      <trkpt lat="42.04300210811197757720947265625" lon="-3.3596711419522762298583984375">
        <ele>938.79998779296875</ele>
        <time>2019-07-08T08:45:56.000Z</time>
      </trkpt>
      <trkpt lat="42.0431520603597164154052734375" lon="-3.35981003008782863616943359375">
        <ele>936.5999755859375</ele>
        <time>2019-07-08T08:45:57.000Z</time>
      </trkpt>
      <trkpt lat="42.043301761150360107421875" lon="-3.3599440567195415496826171875">
        <ele>935.20001220703125</ele>
        <time>2019-07-08T08:45:58.000Z</time>
      </trkpt>
      <trkpt lat="42.04360191710293292999267578125" lon="-3.36021353490650653839111328125">
        <ele>933.5999755859375</ele>
        <time>2019-07-08T08:46:00.000Z</time>
      </trkpt>
      <trkpt lat="42.04408161342144012451171875" lon="-3.36061276495456695556640625">
        <ele>933.4000244140625</ele>
        <time>2019-07-08T08:46:03.000Z</time>
      </trkpt>
      <trkpt lat="42.044584862887859344482421875" lon="-3.3609998412430286407470703125">
        <ele>934.5999755859375</ele>
        <time>2019-07-08T08:46:06.000Z</time>
      </trkpt>
      <trkpt lat="42.0447590388357639312744140625" lon="-3.36112640798091888427734375">
        <ele>934.79998779296875</ele>
        <time>2019-07-08T08:46:07.000Z</time>
      </trkpt>
      <trkpt lat="42.04528248868882656097412109375" lon="-3.361498899757862091064453125">
        <ele>936.20001220703125</ele>
        <time>2019-07-08T08:46:10.000Z</time>
      </trkpt>
      <trkpt lat="42.04580702818930149078369140625" lon="-3.36186979897320270538330078125">
        <ele>937.20001220703125</ele>
        <time>2019-07-08T08:46:13.000Z</time>
      </trkpt>
      <trkpt lat="42.04635034315288066864013671875" lon="-3.36228872649371623992919921875">
        <ele>936.4000244140625</ele>
        <time>2019-07-08T08:46:16.000Z</time>
      </trkpt>
      <trkpt lat="42.04671042971312999725341796875" lon="-3.3626152016222476959228515625">
        <ele>934.5999755859375</ele>
        <time>2019-07-08T08:46:18.000Z</time>
      </trkpt>
      <trkpt lat="42.0468867011368274688720703125" lon="-3.36278828792273998260498046875">
        <ele>933.5999755859375</ele>
        <time>2019-07-08T08:46:19.000Z</time>
      </trkpt>
      <trkpt lat="42.047395817935466766357421875" lon="-3.3633420802652835845947265625">
        <ele>932.79998779296875</ele>
        <time>2019-07-08T08:46:22.000Z</time>
      </trkpt>
      <trkpt lat="42.0478858239948749542236328125" lon="-3.3639304898679256439208984375">
        <ele>936</ele>
        <time>2019-07-08T08:46:25.000Z</time>
      </trkpt>
      <trkpt lat="42.04834657721221446990966796875" lon="-3.364513702690601348876953125">
        <ele>935.4000244140625</ele>
        <time>2019-07-08T08:46:28.000Z</time>
      </trkpt>
      <trkpt lat="42.048606835305690765380859375" lon="-3.36494293995201587677001953125">
        <ele>934.4000244140625</ele>
        <time>2019-07-08T08:46:30.000Z</time>
      </trkpt>
      <trkpt lat="42.04881948418915271759033203125" lon="-3.3654298447072505950927734375">
        <ele>933</ele>
        <time>2019-07-08T08:46:32.000Z</time>
      </trkpt>
      <trkpt lat="42.04897974617779254913330078125" lon="-3.3659885823726654052734375">
        <ele>934.4000244140625</ele>
        <time>2019-07-08T08:46:34.000Z</time>
      </trkpt>
      <trkpt lat="42.0490911416709423065185546875" lon="-3.36660859175026416778564453125">
        <ele>933.20001220703125</ele>
        <time>2019-07-08T08:46:36.000Z</time>
      </trkpt>
      <trkpt lat="42.04914017580449581146240234375" lon="-3.36692668497562408447265625">
        <ele>931.20001220703125</ele>
        <time>2019-07-08T08:46:37.000Z</time>
      </trkpt>
      <trkpt lat="42.04918946139514446258544921875" lon="-3.3672453649342060089111328125">
        <ele>929.20001220703125</ele>
        <time>2019-07-08T08:46:38.000Z</time>
      </trkpt>
      <trkpt lat="42.04923924989998340606689453125" lon="-3.36756513454020023345947265625">
        <ele>927.5999755859375</ele>
        <time>2019-07-08T08:46:39.000Z</time>
      </trkpt>
      <trkpt lat="42.04933681525290012359619140625" lon="-3.36821221746504306793212890625">
        <ele>926.4000244140625</ele>
        <time>2019-07-08T08:46:41.000Z</time>
      </trkpt>
      <trkpt lat="42.04943236894905567169189453125" lon="-3.36886323988437652587890625">
        <ele>926.5999755859375</ele>
        <time>2019-07-08T08:46:43.000Z</time>
      </trkpt>
      <trkpt lat="42.0494807325303554534912109375" lon="-3.36918334476649761199951171875">
        <ele>927.5999755859375</ele>
        <time>2019-07-08T08:46:44.000Z</time>
      </trkpt>
      <trkpt lat="42.0495829917490482330322265625" lon="-3.36980997584760189056396484375">
        <ele>928.79998779296875</ele>
        <time>2019-07-08T08:46:46.000Z</time>
      </trkpt>
      <trkpt lat="42.04967544414103031158447265625" lon="-3.37043576873838901519775390625">
        <ele>929</ele>
        <time>2019-07-08T08:46:48.000Z</time>
      </trkpt>
      <trkpt lat="42.0497670583426952362060546875" lon="-3.3710624836385250091552734375">
        <ele>929</ele>
        <time>2019-07-08T08:46:50.000Z</time>
      </trkpt>
      <trkpt lat="42.049864791333675384521484375" lon="-3.37168852798640727996826171875">
        <ele>928.79998779296875</ele>
        <time>2019-07-08T08:46:52.000Z</time>
      </trkpt>
      <trkpt lat="42.0499595068395137786865234375" lon="-3.3723199367523193359375">
        <ele>929.4000244140625</ele>
        <time>2019-07-08T08:46:54.000Z</time>
      </trkpt>
      <trkpt lat="42.05005715601146221160888671875" lon="-3.372957296669483184814453125">
        <ele>929</ele>
        <time>2019-07-08T08:46:56.000Z</time>
      </trkpt>
      <trkpt lat="42.05010627396404743194580078125" lon="-3.37327555753290653228759765625">
        <ele>927.5999755859375</ele>
        <time>2019-07-08T08:46:57.000Z</time>
      </trkpt>
      <trkpt lat="42.0501546375453472137451171875" lon="-3.37359373457729816436767578125">
        <ele>925</ele>
        <time>2019-07-08T08:46:58.000Z</time>
      </trkpt>
      <trkpt lat="42.05024742521345615386962890625" lon="-3.3742321841418743133544921875">
        <ele>923.4000244140625</ele>
        <time>2019-07-08T08:47:00.000Z</time>
      </trkpt>
      <trkpt lat="42.05029604025185108184814453125" lon="-3.37455111555755138397216796875">
        <ele>921.79998779296875</ele>
        <time>2019-07-08T08:47:01.000Z</time>
      </trkpt>
      <trkpt lat="42.0503953658044338226318359375" lon="-3.37518545798957347869873046875">
        <ele>922</ele>
        <time>2019-07-08T08:47:03.000Z</time>
      </trkpt>
      <trkpt lat="42.0504423044621944427490234375" lon="-3.3755023777484893798828125">
        <ele>923.79998779296875</ele>
        <time>2019-07-08T08:47:04.000Z</time>
      </trkpt>
      <trkpt lat="42.05048865638673305511474609375" lon="-3.37581611238420009613037109375">
        <ele>925.79998779296875</ele>
        <time>2019-07-08T08:47:05.000Z</time>
      </trkpt>
      <trkpt lat="42.05053593032062053680419921875" lon="-3.3761273324489593505859375">
        <ele>927.4000244140625</ele>
        <time>2019-07-08T08:47:06.000Z</time>
      </trkpt>
      <trkpt lat="42.050584293901920318603515625" lon="-3.37643268518149852752685546875">
        <ele>930.20001220703125</ele>
        <time>2019-07-08T08:47:07.000Z</time>
      </trkpt>
      <trkpt lat="42.0506364293396472930908203125" lon="-3.37673326022922992706298828125">
        <ele>932.4000244140625</ele>
        <time>2019-07-08T08:47:08.000Z</time>
      </trkpt>
      <trkpt lat="42.05069568939507007598876953125" lon="-3.3770267106592655181884765625">
        <ele>933.5999755859375</ele>
        <time>2019-07-08T08:47:09.000Z</time>
      </trkpt>
      <trkpt lat="42.05084824003279209136962890625" lon="-3.37758989073336124420166015625">
        <ele>934.79998779296875</ele>
        <time>2019-07-08T08:47:11.000Z</time>
      </trkpt>
      <trkpt lat="42.05103716813027858734130859375" lon="-3.37812767364084720611572265625">
        <ele>933</ele>
        <time>2019-07-08T08:47:13.000Z</time>
      </trkpt>
      <trkpt lat="42.05139574594795703887939453125" lon="-3.37888263165950775146484375">
        <ele>934</ele>
        <time>2019-07-08T08:47:16.000Z</time>
      </trkpt>
      <trkpt lat="42.0515326224267482757568359375" lon="-3.379121683537960052490234375">
        <ele>934.79998779296875</ele>
        <time>2019-07-08T08:47:17.000Z</time>
      </trkpt>
      <trkpt lat="42.0518149249255657196044921875" lon="-3.37959517724812030792236328125">
        <ele>935.4000244140625</ele>
        <time>2019-07-08T08:47:19.000Z</time>
      </trkpt>
      <trkpt lat="42.052227817475795745849609375" lon="-3.380304872989654541015625">
        <ele>935.79998779296875</ele>
        <time>2019-07-08T08:47:22.000Z</time>
      </trkpt>
      <trkpt lat="42.05236637033522129058837890625" lon="-3.38054082356393337249755859375">
        <ele>936.20001220703125</ele>
        <time>2019-07-08T08:47:23.000Z</time>
      </trkpt>
      <trkpt lat="42.05250115133821964263916015625" lon="-3.38078054599463939666748046875">
        <ele>938.4000244140625</ele>
        <time>2019-07-08T08:47:24.000Z</time>
      </trkpt>
      <trkpt lat="42.05263459123671054840087890625" lon="-3.38102160952985286712646484375">
        <ele>942</ele>
        <time>2019-07-08T08:47:25.000Z</time>
      </trkpt>
      <trkpt lat="42.052766270935535430908203125" lon="-3.381264097988605499267578125">
        <ele>945.20001220703125</ele>
        <time>2019-07-08T08:47:26.000Z</time>
      </trkpt>
      <trkpt lat="42.052897028625011444091796875" lon="-3.3815078437328338623046875">
        <ele>947.20001220703125</ele>
        <time>2019-07-08T08:47:27.000Z</time>
      </trkpt>
      <trkpt lat="42.0530272834002971649169921875" lon="-3.38175125420093536376953125">
        <ele>948.20001220703125</ele>
        <time>2019-07-08T08:47:28.000Z</time>
      </trkpt>
      <trkpt lat="42.05326977185904979705810546875" lon="-3.38225458748638629913330078125">
        <ele>949.4000244140625</ele>
        <time>2019-07-08T08:47:30.000Z</time>
      </trkpt>
      <trkpt lat="42.0536240749061107635498046875" lon="-3.383022956550121307373046875">
        <ele>949.20001220703125</ele>
        <time>2019-07-08T08:47:33.000Z</time>
      </trkpt>
      <trkpt lat="42.05373915843665599822998046875" lon="-3.383282460272312164306640625">
        <ele>944.5999755859375</ele>
        <time>2019-07-08T08:47:34.000Z</time>
      </trkpt>
      <trkpt lat="42.05385290086269378662109375" lon="-3.38354489766061305999755859375">
        <ele>938.5999755859375</ele>
        <time>2019-07-08T08:47:35.000Z</time>
      </trkpt>
      <trkpt lat="42.05396563746035099029541015625" lon="-3.3838116936385631561279296875">
        <ele>932.79998779296875</ele>
        <time>2019-07-08T08:47:36.000Z</time>
      </trkpt>
      <trkpt lat="42.05407552421092987060546875" lon="-3.38408477604389190673828125">
        <ele>929</ele>
        <time>2019-07-08T08:47:37.000Z</time>
      </trkpt>
      <trkpt lat="42.0541859976947307586669921875" lon="-3.38436632417142391204833984375">
        <ele>927</ele>
        <time>2019-07-08T08:47:38.000Z</time>
      </trkpt>
      <trkpt lat="42.05429948866367340087890625" lon="-3.384661115705966949462890625">
        <ele>926</ele>
        <time>2019-07-08T08:47:39.000Z</time>
      </trkpt>
      <trkpt lat="42.05453284084796905517578125" lon="-3.38529302738606929779052734375">
        <ele>925.20001220703125</ele>
        <time>2019-07-08T08:47:41.000Z</time>
      </trkpt>
      <trkpt lat="42.0547569729387760162353515625" lon="-3.3859299682080745697021484375">
        <ele>924.79998779296875</ele>
        <time>2019-07-08T08:47:43.000Z</time>
      </trkpt>
      <trkpt lat="42.05497632734477519989013671875" lon="-3.38657730259001255035400390625">
        <ele>924.4000244140625</ele>
        <time>2019-07-08T08:47:45.000Z</time>
      </trkpt>
      <trkpt lat="42.055196352303028106689453125" lon="-3.38723377324640750885009765625">
        <ele>925.4000244140625</ele>
        <time>2019-07-08T08:47:47.000Z</time>
      </trkpt>
      <trkpt lat="42.0553111843764781951904296875" lon="-3.38756284676492214202880859375">
        <ele>926.79998779296875</ele>
        <time>2019-07-08T08:47:48.000Z</time>
      </trkpt>
      <trkpt lat="42.05543045885860919952392578125" lon="-3.3878906629979610443115234375">
        <ele>928.4000244140625</ele>
        <time>2019-07-08T08:47:49.000Z</time>
      </trkpt>
      <trkpt lat="42.055554091930389404296875" lon="-3.3882165513932704925537109375">
        <ele>929.4000244140625</ele>
        <time>2019-07-08T08:47:50.000Z</time>
      </trkpt>
      <trkpt lat="42.0558050461113452911376953125" lon="-3.38886355049908161163330078125">
        <ele>930.5999755859375</ele>
        <time>2019-07-08T08:47:52.000Z</time>
      </trkpt>
      <trkpt lat="42.05606413073837757110595703125" lon="-3.38950040750205516815185546875">
        <ele>929.4000244140625</ele>
        <time>2019-07-08T08:47:54.000Z</time>
      </trkpt>
      <trkpt lat="42.05619941465556621551513671875" lon="-3.3898119628429412841796875">
        <ele>928.20001220703125</ele>
        <time>2019-07-08T08:47:55.000Z</time>
      </trkpt>
      <trkpt lat="42.0563384704291820526123046875" lon="-3.39011949487030506134033203125">
        <ele>926.5999755859375</ele>
        <time>2019-07-08T08:47:56.000Z</time>
      </trkpt>
      <trkpt lat="42.05647853203117847442626953125" lon="-3.39042191393673419952392578125">
        <ele>925</ele>
        <time>2019-07-08T08:47:57.000Z</time>
      </trkpt>
      <trkpt lat="42.05661800689995288848876953125" lon="-3.390720896422863006591796875">
        <ele>923.5999755859375</ele>
        <time>2019-07-08T08:47:58.000Z</time>
      </trkpt>
      <trkpt lat="42.05675865523517131805419921875" lon="-3.39101484976708889007568359375">
        <ele>922.4000244140625</ele>
        <time>2019-07-08T08:47:59.000Z</time>
      </trkpt>
      <trkpt lat="42.05703760497272014617919921875" lon="-3.3915844000875949859619140625">
        <ele>921</ele>
        <time>2019-07-08T08:48:01.000Z</time>
      </trkpt>
      <trkpt lat="42.0573064126074314117431640625" lon="-3.39213165454566478729248046875">
        <ele>919.4000244140625</ele>
        <time>2019-07-08T08:48:03.000Z</time>
      </trkpt>
      <trkpt lat="42.05755979754030704498291015625" lon="-3.3926646597683429718017578125">
        <ele>918.5999755859375</ele>
        <time>2019-07-08T08:48:05.000Z</time>
      </trkpt>
      <trkpt lat="42.05790949054062366485595703125" lon="-3.393407799303531646728515625">
        <ele>919.79998779296875</ele>
        <time>2019-07-08T08:48:08.000Z</time>
      </trkpt>
      <trkpt lat="42.05801996402442455291748046875" lon="-3.3936416544020175933837890625">
        <ele>920.5999755859375</ele>
        <time>2019-07-08T08:48:09.000Z</time>
      </trkpt>
      <trkpt lat="42.0583521388471126556396484375" lon="-3.3943293057382106781005859375">
        <ele>922.4000244140625</ele>
        <time>2019-07-08T08:48:12.000Z</time>
      </trkpt>
      <trkpt lat="42.05846470780670642852783203125" lon="-3.3945589698851108551025390625">
        <ele>923.5999755859375</ele>
        <time>2019-07-08T08:48:13.000Z</time>
      </trkpt>
      <trkpt lat="42.05868498422205448150634765625" lon="-3.3950226567685604095458984375">
        <ele>925.20001220703125</ele>
        <time>2019-07-08T08:48:15.000Z</time>
      </trkpt>
      <trkpt lat="42.05879562534391880035400390625" lon="-3.3952583558857440948486328125">
        <ele>927</ele>
        <time>2019-07-08T08:48:16.000Z</time>
      </trkpt>
      <trkpt lat="42.05890626646578311920166015625" lon="-3.3954943902790546417236328125">
        <ele>928.20001220703125</ele>
        <time>2019-07-08T08:48:17.000Z</time>
      </trkpt>
      <trkpt lat="42.05923550762236118316650390625" lon="-3.3961894176900386810302734375">
        <ele>928</ele>
        <time>2019-07-08T08:48:20.000Z</time>
      </trkpt>
      <trkpt lat="42.0593475736677646636962890625" lon="-3.39641782455146312713623046875">
        <ele>929.4000244140625</ele>
        <time>2019-07-08T08:48:21.000Z</time>
      </trkpt>
      <trkpt lat="42.05968125723302364349365234375" lon="-3.39710681699216365814208984375">
        <ele>930.4000244140625</ele>
        <time>2019-07-08T08:48:24.000Z</time>
      </trkpt>
      <trkpt lat="42.060010917484760284423828125" lon="-3.3978017605841159820556640625">
        <ele>929.5999755859375</ele>
        <time>2019-07-08T08:48:27.000Z</time>
      </trkpt>
      <trkpt lat="42.06012013368308544158935546875" lon="-3.39803167618811130523681640625">
        <ele>926.4000244140625</ele>
        <time>2019-07-08T08:48:28.000Z</time>
      </trkpt>
      <trkpt lat="42.0602305233478546142578125" lon="-3.398260585963726043701171875">
        <ele>924.79998779296875</ele>
        <time>2019-07-08T08:48:29.000Z</time>
      </trkpt>
      <trkpt lat="42.0604469440877437591552734375" lon="-3.3987217582762241363525390625">
        <ele>921.4000244140625</ele>
        <time>2019-07-08T08:48:31.000Z</time>
      </trkpt>
      <trkpt lat="42.06055414862930774688720703125" lon="-3.398951925337314605712890625">
        <ele>920</ele>
        <time>2019-07-08T08:48:32.000Z</time>
      </trkpt>
      <trkpt lat="42.06083142198622226715087890625" lon="-3.39959775097668170928955078125">
        <ele>920.4000244140625</ele>
        <time>2019-07-08T08:48:35.000Z</time>
      </trkpt>
      <trkpt lat="42.06089294515550136566162109375" lon="-3.39980696327984333038330078125">
        <ele>921</ele>
        <time>2019-07-08T08:48:36.000Z</time>
      </trkpt>
      <trkpt lat="42.06100442446768283843994140625" lon="-3.40023997239768505096435546875">
        <ele>922.20001220703125</ele>
        <time>2019-07-08T08:48:38.000Z</time>
      </trkpt>
      <trkpt lat="42.06116854213178157806396484375" lon="-3.4009511768817901611328125">
        <ele>924.4000244140625</ele>
        <time>2019-07-08T08:48:41.000Z</time>
      </trkpt>
      <trkpt lat="42.0612294785678386688232421875" lon="-3.4012081660330295562744140625">
        <ele>926</ele>
        <time>2019-07-08T08:48:42.000Z</time>
      </trkpt>
      <trkpt lat="42.06142335198819637298583984375" lon="-3.40203420259058475494384765625">
        <ele>927</ele>
        <time>2019-07-08T08:48:45.000Z</time>
      </trkpt>
      <trkpt lat="42.0614896528422832489013671875" lon="-3.40233276598155498504638671875">
        <ele>929</ele>
        <time>2019-07-08T08:48:46.000Z</time>
      </trkpt>
      <trkpt lat="42.061558552086353302001953125" lon="-3.40263870544731616973876953125">
        <ele>930.20001220703125</ele>
        <time>2019-07-08T08:48:47.000Z</time>
      </trkpt>
      <trkpt lat="42.06170800141990184783935546875" lon="-3.4032781608402729034423828125">
        <ele>930.5999755859375</ele>
        <time>2019-07-08T08:48:49.000Z</time>
      </trkpt>
      <trkpt lat="42.061865665018558502197265625" lon="-3.4039418399333953857421875">
        <ele>930.79998779296875</ele>
        <time>2019-07-08T08:48:51.000Z</time>
      </trkpt>
      <trkpt lat="42.06202693283557891845703125" lon="-3.40459235943853855133056640625">
        <ele>929.4000244140625</ele>
        <time>2019-07-08T08:48:53.000Z</time>
      </trkpt>
      <trkpt lat="42.06217520870268344879150390625" lon="-3.40519870631396770477294921875">
        <ele>929.79998779296875</ele>
        <time>2019-07-08T08:48:55.000Z</time>
      </trkpt>
      <trkpt lat="42.06231535412371158599853515625" lon="-3.40579113923013210296630859375">
        <ele>931.5999755859375</ele>
        <time>2019-07-08T08:48:57.000Z</time>
      </trkpt>
      <trkpt lat="42.06245080567896366119384765625" lon="-3.4063784591853618621826171875">
        <ele>933.4000244140625</ele>
        <time>2019-07-08T08:48:59.000Z</time>
      </trkpt>
      <trkpt lat="42.062585838139057159423828125" lon="-3.40695655904710292816162109375">
        <ele>933.5999755859375</ele>
        <time>2019-07-08T08:49:01.000Z</time>
      </trkpt>
      <trkpt lat="42.0627824775874614715576171875" lon="-3.4077827632427215576171875">
        <ele>932.4000244140625</ele>
        <time>2019-07-08T08:49:04.000Z</time>
      </trkpt>
      <trkpt lat="42.0628408156335353851318359375" lon="-3.4080471284687519073486328125">
        <ele>932</ele>
        <time>2019-07-08T08:49:05.000Z</time>
      </trkpt>
      <trkpt lat="42.06301666796207427978515625" lon="-3.40882790274918079376220703125">
        <ele>932.20001220703125</ele>
        <time>2019-07-08T08:49:08.000Z</time>
      </trkpt>
      <trkpt lat="42.06320165656507015228271484375" lon="-3.40962183661758899688720703125">
        <ele>931.20001220703125</ele>
        <time>2019-07-08T08:49:11.000Z</time>
      </trkpt>
      <trkpt lat="42.06326602958142757415771484375" lon="-3.40988988988101482391357421875">
        <ele>930.79998779296875</ele>
        <time>2019-07-08T08:49:12.000Z</time>
      </trkpt>
      <trkpt lat="42.06345965154469013214111328125" lon="-3.41071919538080692291259765625">
        <ele>931.4000244140625</ele>
        <time>2019-07-08T08:49:15.000Z</time>
      </trkpt>
      <trkpt lat="42.06358931958675384521484375" lon="-3.41127960942685604095458984375">
        <ele>932</ele>
        <time>2019-07-08T08:49:17.000Z</time>
      </trkpt>
      <trkpt lat="42.0637192390859127044677734375" lon="-3.41184052638709545135498046875">
        <ele>933.5999755859375</ele>
        <time>2019-07-08T08:49:19.000Z</time>
      </trkpt>
      <trkpt lat="42.06391177140176296234130859375" lon="-3.4126833267509937286376953125">
        <ele>933.5999755859375</ele>
        <time>2019-07-08T08:49:22.000Z</time>
      </trkpt>
      <trkpt lat="42.06411302089691162109375" lon="-3.4135493449866771697998046875">
        <ele>932.20001220703125</ele>
        <time>2019-07-08T08:49:25.000Z</time>
      </trkpt>
      <trkpt lat="42.0642511546611785888671875" lon="-3.4141357429325580596923828125">
        <ele>930.4000244140625</ele>
        <time>2019-07-08T08:49:27.000Z</time>
      </trkpt>
      <trkpt lat="42.0643867738544940948486328125" lon="-3.41471216641366481781005859375">
        <ele>930</ele>
        <time>2019-07-08T08:49:29.000Z</time>
      </trkpt>
      <trkpt lat="42.06445701420307159423828125" lon="-3.41500318609178066253662109375">
        <ele>929.4000244140625</ele>
        <time>2019-07-08T08:49:30.000Z</time>
      </trkpt>
      <trkpt lat="42.0645272545516490936279296875" lon="-3.4152983129024505615234375">
        <ele>928.4000244140625</ele>
        <time>2019-07-08T08:49:31.000Z</time>
      </trkpt>
      <trkpt lat="42.0646747760474681854248046875" lon="-3.4158966131508350372314453125">
        <ele>928.5999755859375</ele>
        <time>2019-07-08T08:49:33.000Z</time>
      </trkpt>
      <trkpt lat="42.0647562481462955474853515625" lon="-3.41619618237018585205078125">
        <ele>930</ele>
        <time>2019-07-08T08:49:34.000Z</time>
      </trkpt>
      <trkpt lat="42.06493771634995937347412109375" lon="-3.41679238714277744293212890625">
        <ele>929.4000244140625</ele>
        <time>2019-07-08T08:49:36.000Z</time>
      </trkpt>
      <trkpt lat="42.0651270635426044464111328125" lon="-3.41738062910735607147216796875">
        <ele>930.79998779296875</ele>
        <time>2019-07-08T08:49:38.000Z</time>
      </trkpt>
      <trkpt lat="42.06530635245144367218017578125" lon="-3.41794288717210292816162109375">
        <ele>928.4000244140625</ele>
        <time>2019-07-08T08:49:40.000Z</time>
      </trkpt>
      <trkpt lat="42.0653909258544445037841796875" lon="-3.4182059951126575469970703125">
        <ele>926.4000244140625</ele>
        <time>2019-07-08T08:49:41.000Z</time>
      </trkpt>
      <trkpt lat="42.0655545406043529510498046875" lon="-3.41870061121881008148193359375">
        <ele>924.4000244140625</ele>
        <time>2019-07-08T08:49:43.000Z</time>
      </trkpt>
      <trkpt lat="42.06584296189248561859130859375" lon="-3.4194019250571727752685546875">
        <ele>924.79998779296875</ele>
        <time>2019-07-08T08:49:46.000Z</time>
      </trkpt>
      <trkpt lat="42.0659605599939823150634765625" lon="-3.4196225367486476898193359375">
        <ele>925.79998779296875</ele>
        <time>2019-07-08T08:49:47.000Z</time>
      </trkpt>
      <trkpt lat="42.06637152470648288726806640625" lon="-3.42023449949920177459716796875">
        <ele>927.4000244140625</ele>
        <time>2019-07-08T08:49:50.000Z</time>
      </trkpt>
      <trkpt lat="42.06686790101230144500732421875" lon="-3.42076540924608707427978515625">
        <ele>928.4000244140625</ele>
        <time>2019-07-08T08:49:53.000Z</time>
      </trkpt>
      <trkpt lat="42.06705464981496334075927734375" lon="-3.4209257550537586212158203125">
        <ele>928.5999755859375</ele>
        <time>2019-07-08T08:49:54.000Z</time>
      </trkpt>
      <trkpt lat="42.0676469989120960235595703125" lon="-3.42134694568812847137451171875">
        <ele>929.20001220703125</ele>
        <time>2019-07-08T08:49:57.000Z</time>
      </trkpt>
      <trkpt lat="42.06826038658618927001953125" lon="-3.4216201119124889373779296875">
        <ele>929.79998779296875</ele>
        <time>2019-07-08T08:50:00.000Z</time>
      </trkpt>
      <trkpt lat="42.06888978369534015655517578125" lon="-3.42185572721064090728759765625">
        <ele>931.20001220703125</ele>
        <time>2019-07-08T08:50:03.000Z</time>
      </trkpt>
      <trkpt lat="42.0693044364452362060546875" lon="-3.42202663421630859375">
        <ele>932.5999755859375</ele>
        <time>2019-07-08T08:50:05.000Z</time>
      </trkpt>
      <trkpt lat="42.06990323960781097412109375" lon="-3.4223523549735546112060546875">
        <ele>933.4000244140625</ele>
        <time>2019-07-08T08:50:08.000Z</time>
      </trkpt>
      <trkpt lat="42.07009761594235897064208984375" lon="-3.42248998582363128662109375">
        <ele>933.79998779296875</ele>
        <time>2019-07-08T08:50:09.000Z</time>
      </trkpt>
      <trkpt lat="42.0704750530421733856201171875" lon="-3.42281880788505077362060546875">
        <ele>935</ele>
        <time>2019-07-08T08:50:11.000Z</time>
      </trkpt>
      <trkpt lat="42.07083371467888355255126953125" lon="-3.42321342788636684417724609375">
        <ele>936</ele>
        <time>2019-07-08T08:50:13.000Z</time>
      </trkpt>
      <trkpt lat="42.07116144709289073944091796875" lon="-3.4236857481300830841064453125">
        <ele>936.79998779296875</ele>
        <time>2019-07-08T08:50:15.000Z</time>
      </trkpt>
      <trkpt lat="42.0714513771235942840576171875" lon="-3.42421221546828746795654296875">
        <ele>936.4000244140625</ele>
        <time>2019-07-08T08:50:17.000Z</time>
      </trkpt>
      <trkpt lat="42.07169688306748867034912109375" lon="-3.42479727230966091156005859375">
        <ele>935.5999755859375</ele>
        <time>2019-07-08T08:50:19.000Z</time>
      </trkpt>
      <trkpt lat="42.07180894911289215087890625" lon="-3.42510673217475414276123046875">
        <ele>935</ele>
        <time>2019-07-08T08:50:20.000Z</time>
      </trkpt>
      <trkpt lat="42.0720268785953521728515625" lon="-3.4257456846535205841064453125">
        <ele>936.5999755859375</ele>
        <time>2019-07-08T08:50:22.000Z</time>
      </trkpt>
      <trkpt lat="42.0721390284597873687744140625" lon="-3.42606729827821254730224609375">
        <ele>939.4000244140625</ele>
        <time>2019-07-08T08:50:23.000Z</time>
      </trkpt>
      <trkpt lat="42.07225411199033260345458984375" lon="-3.4263880737125873565673828125">
        <ele>940.79998779296875</ele>
        <time>2019-07-08T08:50:24.000Z</time>
      </trkpt>
      <trkpt lat="42.07236860878765583038330078125" lon="-3.42670901678502559661865234375">
        <ele>942.79998779296875</ele>
        <time>2019-07-08T08:50:25.000Z</time>
      </trkpt>
      <trkpt lat="42.07248176448047161102294921875" lon="-3.42703188769519329071044921875">
        <ele>944.20001220703125</ele>
        <time>2019-07-08T08:50:26.000Z</time>
      </trkpt>
      <trkpt lat="42.07271075807511806488037109375" lon="-3.4276705048978328704833984375">
        <ele>946.20001220703125</ele>
        <time>2019-07-08T08:50:28.000Z</time>
      </trkpt>
      <trkpt lat="42.0728226564824581146240234375" lon="-3.42798759229481220245361328125">
        <ele>947.4000244140625</ele>
        <time>2019-07-08T08:50:29.000Z</time>
      </trkpt>
      <trkpt lat="42.07293354906141757965087890625" lon="-3.42830275185406208038330078125">
        <ele>949.5999755859375</ele>
        <time>2019-07-08T08:50:30.000Z</time>
      </trkpt>
      <trkpt lat="42.07304435782134532928466796875" lon="-3.42861724086105823516845703125">
        <ele>951.20001220703125</ele>
        <time>2019-07-08T08:50:31.000Z</time>
      </trkpt>
      <trkpt lat="42.07326647825539112091064453125" lon="-3.42924177646636962890625">
        <ele>953</ele>
        <time>2019-07-08T08:50:33.000Z</time>
      </trkpt>
      <trkpt lat="42.07337778992950916290283203125" lon="-3.42955215834081172943115234375">
        <ele>954.20001220703125</ele>
        <time>2019-07-08T08:50:34.000Z</time>
      </trkpt>
      <trkpt lat="42.07360711880028247833251953125" lon="-3.43016504310071468353271484375">
        <ele>954.4000244140625</ele>
        <time>2019-07-08T08:50:36.000Z</time>
      </trkpt>
      <trkpt lat="42.07385371439158916473388671875" lon="-3.430757559835910797119140625">
        <ele>953.5999755859375</ele>
        <time>2019-07-08T08:50:38.000Z</time>
      </trkpt>
      <trkpt lat="42.0741013996303081512451171875" lon="-3.431328870356082916259765625">
        <ele>955</ele>
        <time>2019-07-08T08:50:40.000Z</time>
      </trkpt>
      <trkpt lat="42.0742236077785491943359375" lon="-3.4316106699407100677490234375">
        <ele>955.4000244140625</ele>
        <time>2019-07-08T08:50:41.000Z</time>
      </trkpt>
      <trkpt lat="42.07446810789406299591064453125" lon="-3.43216949142515659332275390625">
        <ele>957.20001220703125</ele>
        <time>2019-07-08T08:50:43.000Z</time>
      </trkpt>
      <trkpt lat="42.0747109316289424896240234375" lon="-3.4327361918985843658447265625">
        <ele>958.20001220703125</ele>
        <time>2019-07-08T08:50:45.000Z</time>
      </trkpt>
      <trkpt lat="42.07495543174445629119873046875" lon="-3.43330599367618560791015625">
        <ele>957.79998779296875</ele>
        <time>2019-07-08T08:50:47.000Z</time>
      </trkpt>
      <trkpt lat="42.07520370371639728546142578125" lon="-3.433870933949947357177734375">
        <ele>957.20001220703125</ele>
        <time>2019-07-08T08:50:49.000Z</time>
      </trkpt>
      <trkpt lat="42.07547024823725223541259765625" lon="-3.4344256483018398284912109375">
        <ele>957.20001220703125</ele>
        <time>2019-07-08T08:50:51.000Z</time>
      </trkpt>
      <trkpt lat="42.075754813849925994873046875" lon="-3.43496938236057758331298828125">
        <ele>956.79998779296875</ele>
        <time>2019-07-08T08:50:53.000Z</time>
      </trkpt>
      <trkpt lat="42.07605220377445220947265625" lon="-3.4354926645755767822265625">
        <ele>957</ele>
        <time>2019-07-08T08:50:55.000Z</time>
      </trkpt>
      <trkpt lat="42.07635705359280109405517578125" lon="-3.43599515967071056365966796875">
        <ele>957.20001220703125</ele>
        <time>2019-07-08T08:50:57.000Z</time>
      </trkpt>
      <trkpt lat="42.07666642963886260986328125" lon="-3.4364912845194339752197265625">
        <ele>956.79998779296875</ele>
        <time>2019-07-08T08:50:59.000Z</time>
      </trkpt>
      <trkpt lat="42.07697647623717784881591796875" lon="-3.4369968809187412261962890625">
        <ele>956</ele>
        <time>2019-07-08T08:51:01.000Z</time>
      </trkpt>
      <trkpt lat="42.0771296136081218719482421875" lon="-3.43725613318383693695068359375">
        <ele>954.20001220703125</ele>
        <time>2019-07-08T08:51:02.000Z</time>
      </trkpt>
      <trkpt lat="42.07742926664650440216064453125" lon="-3.43778285197913646697998046875">
        <ele>954</ele>
        <time>2019-07-08T08:51:04.000Z</time>
      </trkpt>
      <trkpt lat="42.077721543610095977783203125" lon="-3.43832843005657196044921875">
        <ele>954.4000244140625</ele>
        <time>2019-07-08T08:51:06.000Z</time>
      </trkpt>
      <trkpt lat="42.0780053548514842987060546875" lon="-3.438890017569065093994140625">
        <ele>955</ele>
        <time>2019-07-08T08:51:08.000Z</time>
      </trkpt>
      <trkpt lat="42.0781455002725124359130859375" lon="-3.43917190097272396087646484375">
        <ele>955.20001220703125</ele>
        <time>2019-07-08T08:51:09.000Z</time>
      </trkpt>
      <trkpt lat="42.078422270715236663818359375" lon="-3.43973281793296337127685546875">
        <ele>955.4000244140625</ele>
        <time>2019-07-08T08:51:11.000Z</time>
      </trkpt>
      <trkpt lat="42.07869493402540683746337890625" lon="-3.44028350897133350372314453125">
        <ele>957.20001220703125</ele>
        <time>2019-07-08T08:51:13.000Z</time>
      </trkpt>
      <trkpt lat="42.07882937975227832794189453125" lon="-3.4405571781098842620849609375">
        <ele>958.4000244140625</ele>
        <time>2019-07-08T08:51:14.000Z</time>
      </trkpt>
      <trkpt lat="42.0789629034698009490966796875" lon="-3.440829254686832427978515625">
        <ele>960.20001220703125</ele>
        <time>2019-07-08T08:51:15.000Z</time>
      </trkpt>
      <trkpt lat="42.0792281068861484527587890625" lon="-3.44136469066143035888671875">
        <ele>961.79998779296875</ele>
        <time>2019-07-08T08:51:17.000Z</time>
      </trkpt>
      <trkpt lat="42.079487107694149017333984375" lon="-3.4418976120650768280029296875">
        <ele>962.4000244140625</ele>
        <time>2019-07-08T08:51:19.000Z</time>
      </trkpt>
      <trkpt lat="42.07975038327276706695556640625" lon="-3.44243749044835567474365234375">
        <ele>961.4000244140625</ele>
        <time>2019-07-08T08:51:21.000Z</time>
      </trkpt>
      <trkpt lat="42.08002145402133464813232421875" lon="-3.44299404881894588470458984375">
        <ele>960.20001220703125</ele>
        <time>2019-07-08T08:51:23.000Z</time>
      </trkpt>
      <trkpt lat="42.08030090667307376861572265625" lon="-3.44356100074946880340576171875">
        <ele>959.79998779296875</ele>
        <time>2019-07-08T08:51:25.000Z</time>
      </trkpt>
      <trkpt lat="42.08059326745569705963134765625" lon="-3.44412627629935741424560546875">
        <ele>961.79998779296875</ele>
        <time>2019-07-08T08:51:27.000Z</time>
      </trkpt>
      <trkpt lat="42.08074548281729221343994140625" lon="-3.4444031305611133575439453125">
        <ele>963</ele>
        <time>2019-07-08T08:51:28.000Z</time>
      </trkpt>
      <trkpt lat="42.08105494268238544464111328125" lon="-3.4449342079460620880126953125">
        <ele>964</ele>
        <time>2019-07-08T08:51:30.000Z</time>
      </trkpt>
      <trkpt lat="42.0812116004526615142822265625" lon="-3.44518910162150859832763671875">
        <ele>964.79998779296875</ele>
        <time>2019-07-08T08:51:31.000Z</time>
      </trkpt>
      <trkpt lat="42.08153170533478260040283203125" lon="-3.44568145461380481719970703125">
        <ele>965.79998779296875</ele>
        <time>2019-07-08T08:51:33.000Z</time>
      </trkpt>
      <trkpt lat="42.08169557154178619384765625" lon="-3.445921428501605987548828125">
        <ele>967.4000244140625</ele>
        <time>2019-07-08T08:51:34.000Z</time>
      </trkpt>
      <trkpt lat="42.08203009329736232757568359375" lon="-3.44639626331627368927001953125">
        <ele>967.5999755859375</ele>
        <time>2019-07-08T08:51:36.000Z</time>
      </trkpt>
      <trkpt lat="42.08219555206596851348876953125" lon="-3.44663816504180431365966796875">
        <ele>969.20001220703125</ele>
        <time>2019-07-08T08:51:37.000Z</time>
      </trkpt>
      <trkpt lat="42.0825175009667873382568359375" lon="-3.44714342616498470306396484375">
        <ele>970.4000244140625</ele>
        <time>2019-07-08T08:51:39.000Z</time>
      </trkpt>
      <trkpt lat="42.0828259550034999847412109375" lon="-3.4476636908948421478271484375">
        <ele>970.20001220703125</ele>
        <time>2019-07-08T08:51:41.000Z</time>
      </trkpt>
      <trkpt lat="42.08311990834772586822509765625" lon="-3.44818814657628536224365234375">
        <ele>971.20001220703125</ele>
        <time>2019-07-08T08:51:43.000Z</time>
      </trkpt>
      <trkpt lat="42.083400450646877288818359375" lon="-3.4487154521048069000244140625">
        <ele>972.79998779296875</ele>
        <time>2019-07-08T08:51:45.000Z</time>
      </trkpt>
      <trkpt lat="42.08353950642049312591552734375" lon="-3.44897545874118804931640625">
        <ele>974.20001220703125</ele>
        <time>2019-07-08T08:51:46.000Z</time>
      </trkpt>
      <trkpt lat="42.083815522491931915283203125" lon="-3.44948851503431797027587890625">
        <ele>976.20001220703125</ele>
        <time>2019-07-08T08:51:48.000Z</time>
      </trkpt>
      <trkpt lat="42.083954326808452606201171875" lon="-3.44974391162395477294921875">
        <ele>977.20001220703125</ele>
        <time>2019-07-08T08:51:49.000Z</time>
      </trkpt>
      <trkpt lat="42.08409455604851245880126953125" lon="-3.45000006258487701416015625">
        <ele>979.20001220703125</ele>
        <time>2019-07-08T08:51:50.000Z</time>
      </trkpt>
      <trkpt lat="42.0842357911169528961181640625" lon="-3.45025981776416301727294921875">
        <ele>981</ele>
        <time>2019-07-08T08:51:51.000Z</time>
      </trkpt>
      <trkpt lat="42.0845221169292926788330078125" lon="-3.450787626206874847412109375">
        <ele>982</ele>
        <time>2019-07-08T08:51:53.000Z</time>
      </trkpt>
      <trkpt lat="42.08466620184481143951416015625" lon="-3.45105643384158611297607421875">
        <ele>982.4000244140625</ele>
        <time>2019-07-08T08:51:54.000Z</time>
      </trkpt>
      <trkpt lat="42.08495940081775188446044921875" lon="-3.45160092227160930633544921875">
        <ele>981.4000244140625</ele>
        <time>2019-07-08T08:51:56.000Z</time>
      </trkpt>
      <trkpt lat="42.08510759286582469940185546875" lon="-3.45187501050531864166259765625">
        <ele>979.79998779296875</ele>
        <time>2019-07-08T08:51:57.000Z</time>
      </trkpt>
      <trkpt lat="42.0852563716471195220947265625" lon="-3.4521490149199962615966796875">
        <ele>978.20001220703125</ele>
        <time>2019-07-08T08:51:58.000Z</time>
      </trkpt>
      <trkpt lat="42.08555116318166255950927734375" lon="-3.45268989913165569305419921875">
        <ele>977.20001220703125</ele>
        <time>2019-07-08T08:52:00.000Z</time>
      </trkpt>
      <trkpt lat="42.08584167994558811187744140625" lon="-3.45322885550558567047119140625">
        <ele>979.20001220703125</ele>
        <time>2019-07-08T08:52:02.000Z</time>
      </trkpt>
      <trkpt lat="42.08598836325109004974365234375" lon="-3.45350210554897785186767578125">
        <ele>982</ele>
        <time>2019-07-08T08:52:03.000Z</time>
      </trkpt>
      <trkpt lat="42.08613638766109943389892578125" lon="-3.45377921126782894134521484375">
        <ele>983.4000244140625</ele>
        <time>2019-07-08T08:52:04.000Z</time>
      </trkpt>
      <trkpt lat="42.08628625608980655670166015625" lon="-3.454057909548282623291015625">
        <ele>984.5999755859375</ele>
        <time>2019-07-08T08:52:05.000Z</time>
      </trkpt>
      <trkpt lat="42.08658833988010883331298828125" lon="-3.4546210058033466339111328125">
        <ele>985.79998779296875</ele>
        <time>2019-07-08T08:52:07.000Z</time>
      </trkpt>
      <trkpt lat="42.08689226768910884857177734375" lon="-3.4551825933158397674560546875">
        <ele>986.20001220703125</ele>
        <time>2019-07-08T08:52:09.000Z</time>
      </trkpt>
      <trkpt lat="42.087195776402950286865234375" lon="-3.45573906786739826202392578125">
        <ele>986.5999755859375</ele>
        <time>2019-07-08T08:52:11.000Z</time>
      </trkpt>
      <trkpt lat="42.08734572865068912506103515625" lon="-3.45601818524301052093505859375">
        <ele>987</ele>
        <time>2019-07-08T08:52:12.000Z</time>
      </trkpt>
      <trkpt lat="42.0876465551555156707763671875" lon="-3.456573821604251861572265625">
        <ele>987.5999755859375</ele>
        <time>2019-07-08T08:52:14.000Z</time>
      </trkpt>
      <trkpt lat="42.08794821985065937042236328125" lon="-3.45712828449904918670654296875">
        <ele>987.5999755859375</ele>
        <time>2019-07-08T08:52:16.000Z</time>
      </trkpt>
      <trkpt lat="42.0882473699748516082763671875" lon="-3.45767897553741931915283203125">
        <ele>987.4000244140625</ele>
        <time>2019-07-08T08:52:18.000Z</time>
      </trkpt>
      <trkpt lat="42.08853947930037975311279296875" lon="-3.45822363160550594329833984375">
        <ele>988</ele>
        <time>2019-07-08T08:52:20.000Z</time>
      </trkpt>
      <trkpt lat="42.088684737682342529296875" lon="-3.45849336124956607818603515625">
        <ele>989.79998779296875</ele>
        <time>2019-07-08T08:52:21.000Z</time>
      </trkpt>
      <trkpt lat="42.08882982842624187469482421875" lon="-3.45876107923686504364013671875">
        <ele>991.4000244140625</ele>
        <time>2019-07-08T08:52:22.000Z</time>
      </trkpt>
      <trkpt lat="42.08897366188466548919677734375" lon="-3.4590275399386882781982421875">
        <ele>993.79998779296875</ele>
        <time>2019-07-08T08:52:23.000Z</time>
      </trkpt>
      <trkpt lat="42.08911799825727939605712890625" lon="-3.45929249189794063568115234375">
        <ele>995.20001220703125</ele>
        <time>2019-07-08T08:52:24.000Z</time>
      </trkpt>
      <trkpt lat="42.08925965242087841033935546875" lon="-3.459556438028812408447265625">
        <ele>996.20001220703125</ele>
        <time>2019-07-08T08:52:25.000Z</time>
      </trkpt>
      <trkpt lat="42.089532651007175445556640625" lon="-3.46006396226584911346435546875">
        <ele>994.5999755859375</ele>
        <time>2019-07-08T08:52:27.000Z</time>
      </trkpt>
      <trkpt lat="42.08965980447828769683837890625" lon="-3.46029949374496936798095703125">
        <ele>992.5999755859375</ele>
        <time>2019-07-08T08:52:28.000Z</time>
      </trkpt>
      <trkpt lat="42.08978134207427501678466796875" lon="-3.46052580513060092926025390625">
        <ele>991.20001220703125</ele>
        <time>2019-07-08T08:52:29.000Z</time>
      </trkpt>
      <trkpt lat="42.0901480503380298614501953125" lon="-3.4612081758677959442138671875">
        <ele>991</ele>
        <time>2019-07-08T08:52:32.000Z</time>
      </trkpt>
      <trkpt lat="42.090394981205463409423828125" lon="-3.46167580224573612213134765625">
        <ele>992.20001220703125</ele>
        <time>2019-07-08T08:52:34.000Z</time>
      </trkpt>
      <trkpt lat="42.09076236002147197723388671875" lon="-3.4624067880213260650634765625">
        <ele>993.5999755859375</ele>
        <time>2019-07-08T08:52:37.000Z</time>
      </trkpt>
      <trkpt lat="42.0911367796361446380615234375" lon="-3.46316325478255748748779296875">
        <ele>994</ele>
        <time>2019-07-08T08:52:40.000Z</time>
      </trkpt>
      <trkpt lat="42.09126393310725688934326171875" lon="-3.463418819010257720947265625">
        <ele>995</ele>
        <time>2019-07-08T08:52:41.000Z</time>
      </trkpt>
      <trkpt lat="42.091516815125942230224609375" lon="-3.463934473693370819091796875">
        <ele>994.79998779296875</ele>
        <time>2019-07-08T08:52:43.000Z</time>
      </trkpt>
      <trkpt lat="42.09164346568286418914794921875" lon="-3.4641904570162296295166015625">
        <ele>993.5999755859375</ele>
        <time>2019-07-08T08:52:44.000Z</time>
      </trkpt>
      <trkpt lat="42.09189861081540584564208984375" lon="-3.46470083110034465789794921875">
        <ele>992.79998779296875</ele>
        <time>2019-07-08T08:52:46.000Z</time>
      </trkpt>
      <trkpt lat="42.09215618669986724853515625" lon="-3.46522134728729724884033203125">
        <ele>992.79998779296875</ele>
        <time>2019-07-08T08:52:48.000Z</time>
      </trkpt>
      <trkpt lat="42.09241745062172412872314453125" lon="-3.4657582081854343414306640625">
        <ele>995</ele>
        <time>2019-07-08T08:52:50.000Z</time>
      </trkpt>
      <trkpt lat="42.092550136148929595947265625" lon="-3.4660277701914310455322265625">
        <ele>997</ele>
        <time>2019-07-08T08:52:51.000Z</time>
      </trkpt>
      <trkpt lat="42.0926837436854839324951171875" lon="-3.46629582345485687255859375">
        <ele>998.79998779296875</ele>
        <time>2019-07-08T08:52:52.000Z</time>
      </trkpt>
      <trkpt lat="42.0928178541362285614013671875" lon="-3.4665622003376483917236328125">
        <ele>1000.5999755859375</ele>
        <time>2019-07-08T08:52:53.000Z</time>
      </trkpt>
      <trkpt lat="42.092949785292148590087890625" lon="-3.46682882867753505706787109375">
        <ele>1001.79998779296875</ele>
        <time>2019-07-08T08:52:54.000Z</time>
      </trkpt>
      <trkpt lat="42.0932042598724365234375" lon="-3.4673692099750041961669921875">
        <ele>1002.79998779296875</ele>
        <time>2019-07-08T08:52:56.000Z</time>
      </trkpt>
      <trkpt lat="42.09343962371349334716796875" lon="-3.46793389879167079925537109375">
        <ele>1005</ele>
        <time>2019-07-08T08:52:58.000Z</time>
      </trkpt>
      <trkpt lat="42.0935454033315181732177734375" lon="-3.46823103725910186767578125">
        <ele>1007.20001220703125</ele>
        <time>2019-07-08T08:52:59.000Z</time>
      </trkpt>
      <trkpt lat="42.0936374366283416748046875" lon="-3.4685413353145122528076171875">
        <ele>1009</ele>
        <time>2019-07-08T08:53:00.000Z</time>
      </trkpt>
      <trkpt lat="42.09371312521398067474365234375" lon="-3.4688645415008068084716796875">
        <ele>1010</ele>
        <time>2019-07-08T08:53:01.000Z</time>
      </trkpt>
      <trkpt lat="42.09381940774619579315185546875" lon="-3.46954892389476299285888671875">
        <ele>1010.5999755859375</ele>
        <time>2019-07-08T08:53:03.000Z</time>
      </trkpt>
      <trkpt lat="42.09386609494686126708984375" lon="-3.470268510282039642333984375">
        <ele>1010.79998779296875</ele>
        <time>2019-07-08T08:53:05.000Z</time>
      </trkpt>
      <trkpt lat="42.09384840913116931915283203125" lon="-3.47098021768033504486083984375">
        <ele>1010.4000244140625</ele>
        <time>2019-07-08T08:53:07.000Z</time>
      </trkpt>
      <trkpt lat="42.09376358427107334136962890625" lon="-3.4716500155627727508544921875">
        <ele>1011.5999755859375</ele>
        <time>2019-07-08T08:53:09.000Z</time>
      </trkpt>
      <trkpt lat="42.09370206110179424285888671875" lon="-3.47197883762419223785400390625">
        <ele>1013.20001220703125</ele>
        <time>2019-07-08T08:53:10.000Z</time>
      </trkpt>
      <trkpt lat="42.0936320722103118896484375" lon="-3.472306989133358001708984375">
        <ele>1015</ele>
        <time>2019-07-08T08:53:11.000Z</time>
      </trkpt>
      <trkpt lat="42.09355655126273632049560546875" lon="-3.47263279370963573455810546875">
        <ele>1016.5999755859375</ele>
        <time>2019-07-08T08:53:12.000Z</time>
      </trkpt>
      <trkpt lat="42.0934770070016384124755859375" lon="-3.472956083714962005615234375">
        <ele>1018.20001220703125</ele>
        <time>2019-07-08T08:53:13.000Z</time>
      </trkpt>
      <trkpt lat="42.0933945290744304656982421875" lon="-3.47327685914933681488037109375">
        <ele>1019.5999755859375</ele>
        <time>2019-07-08T08:53:14.000Z</time>
      </trkpt>
      <trkpt lat="42.09323602728545665740966796875" lon="-3.4739107824862003326416015625">
        <ele>1021</ele>
        <time>2019-07-08T08:53:16.000Z</time>
      </trkpt>
      <trkpt lat="42.093079872429370880126953125" lon="-3.4745400957763195037841796875">
        <ele>1021.79998779296875</ele>
        <time>2019-07-08T08:53:18.000Z</time>
      </trkpt>
      <trkpt lat="42.0929231308400630950927734375" lon="-3.4751680679619312286376953125">
        <ele>1020.4000244140625</ele>
        <time>2019-07-08T08:53:20.000Z</time>
      </trkpt>
      <trkpt lat="42.092845849692821502685546875" lon="-3.4754817187786102294921875">
        <ele>1020</ele>
        <time>2019-07-08T08:53:21.000Z</time>
      </trkpt>
      <trkpt lat="42.09269287995994091033935546875" lon="-3.4761011414229869842529296875">
        <ele>1019.4000244140625</ele>
        <time>2019-07-08T08:53:23.000Z</time>
      </trkpt>
      <trkpt lat="42.09261693991720676422119140625" lon="-3.476407416164875030517578125">
        <ele>1019</ele>
        <time>2019-07-08T08:53:24.000Z</time>
      </trkpt>
      <trkpt lat="42.09247545339167118072509765625" lon="-3.47701837308704853057861328125">
        <ele>1019</ele>
        <time>2019-07-08T08:53:26.000Z</time>
      </trkpt>
      <trkpt lat="42.09236699156463146209716796875" lon="-3.477637879550457000732421875">
        <ele>1019.79998779296875</ele>
        <time>2019-07-08T08:53:28.000Z</time>
      </trkpt>
      <trkpt lat="42.0923082344233989715576171875" lon="-3.4782693721354007720947265625">
        <ele>1019.4000244140625</ele>
        <time>2019-07-08T08:53:30.000Z</time>
      </trkpt>
      <trkpt lat="42.09229893051087856292724609375" lon="-3.47859031520783901214599609375">
        <ele>1020</ele>
        <time>2019-07-08T08:53:31.000Z</time>
      </trkpt>
      <trkpt lat="42.09231770597398281097412109375" lon="-3.479241840541362762451171875">
        <ele>1021</ele>
        <time>2019-07-08T08:53:33.000Z</time>
      </trkpt>
      <trkpt lat="42.0923472940921783447265625" lon="-3.47957074642181396484375">
        <ele>1021.79998779296875</ele>
        <time>2019-07-08T08:53:34.000Z</time>
      </trkpt>
      <trkpt lat="42.09239012561738491058349609375" lon="-3.4799028374254703521728515625">
        <ele>1023.79998779296875</ele>
        <time>2019-07-08T08:53:35.000Z</time>
      </trkpt>
      <trkpt lat="42.09244787693023681640625" lon="-3.480235598981380462646484375">
        <ele>1026.199951171875</ele>
        <time>2019-07-08T08:53:36.000Z</time>
      </trkpt>
      <trkpt lat="42.092521972954273223876953125" lon="-3.48056517541408538818359375">
        <ele>1028.800048828125</ele>
        <time>2019-07-08T08:53:37.000Z</time>
      </trkpt>
      <trkpt lat="42.09261224605143070220947265625" lon="-3.4808902256190776824951171875">
        <ele>1031.199951171875</ele>
        <time>2019-07-08T08:53:38.000Z</time>
      </trkpt>
      <trkpt lat="42.09271609783172607421875" lon="-3.4812070615589618682861328125">
        <ele>1032.800048828125</ele>
        <time>2019-07-08T08:53:39.000Z</time>
      </trkpt>
      <trkpt lat="42.09283134900033473968505859375" lon="-3.48151643760502338409423828125">
        <ele>1034.199951171875</ele>
        <time>2019-07-08T08:53:40.000Z</time>
      </trkpt>
      <trkpt lat="42.09309856407344341278076171875" lon="-3.4821116365492343902587890625">
        <ele>1036.199951171875</ele>
        <time>2019-07-08T08:53:42.000Z</time>
      </trkpt>
      <trkpt lat="42.0932460017502307891845703125" lon="-3.482401482760906219482421875">
        <ele>1037.4000244140625</ele>
        <time>2019-07-08T08:53:43.000Z</time>
      </trkpt>
      <trkpt lat="42.09355101920664310455322265625" lon="-3.482982851564884185791015625">
        <ele>1036.800048828125</ele>
        <time>2019-07-08T08:53:45.000Z</time>
      </trkpt>
      <trkpt lat="42.09370641969144344329833984375" lon="-3.4832750447094440460205078125">
        <ele>1035.800048828125</ele>
        <time>2019-07-08T08:53:46.000Z</time>
      </trkpt>
      <trkpt lat="42.09402032196521759033203125" lon="-3.483865968883037567138671875">
        <ele>1036.5999755859375</ele>
        <time>2019-07-08T08:53:48.000Z</time>
      </trkpt>
      <trkpt lat="42.09417748264968395233154296875" lon="-3.48416293971240520477294921875">
        <ele>1037</ele>
        <time>2019-07-08T08:53:49.000Z</time>
      </trkpt>
      <trkpt lat="42.09449146874248981475830078125" lon="-3.48475000821053981781005859375">
        <ele>1038.199951171875</ele>
        <time>2019-07-08T08:53:51.000Z</time>
      </trkpt>
      <trkpt lat="42.09464552812278270721435546875" lon="-3.48504044115543365478515625">
        <ele>1039.199951171875</ele>
        <time>2019-07-08T08:53:52.000Z</time>
      </trkpt>
      <trkpt lat="42.094797156751155853271484375" lon="-3.48533104173839092254638671875">
        <ele>1040.5999755859375</ele>
        <time>2019-07-08T08:53:53.000Z</time>
      </trkpt>
      <trkpt lat="42.09509630687534809112548828125" lon="-3.48590277135372161865234375">
        <ele>1041.5999755859375</ele>
        <time>2019-07-08T08:53:55.000Z</time>
      </trkpt>
      <trkpt lat="42.09539688192307949066162109375" lon="-3.48646511323750019073486328125">
        <ele>1042</ele>
        <time>2019-07-08T08:53:57.000Z</time>
      </trkpt>
      <trkpt lat="42.09569075144827365875244140625" lon="-3.48701513372361660003662109375">
        <ele>1041.5999755859375</ele>
        <time>2019-07-08T08:53:59.000Z</time>
      </trkpt>
      <trkpt lat="42.0959764905273914337158203125" lon="-3.48755995742976665496826171875">
        <ele>1041.5999755859375</ele>
        <time>2019-07-08T08:54:01.000Z</time>
      </trkpt>
      <trkpt lat="42.09625686518847942352294921875" lon="-3.488106541335582733154296875">
        <ele>1042.5999755859375</ele>
        <time>2019-07-08T08:54:03.000Z</time>
      </trkpt>
      <trkpt lat="42.09639080800116062164306640625" lon="-3.48838624544441699981689453125">
        <ele>1044.800048828125</ele>
        <time>2019-07-08T08:54:04.000Z</time>
      </trkpt>
      <trkpt lat="42.09651854820549488067626953125" lon="-3.48867357708513736724853515625">
        <ele>1047</ele>
        <time>2019-07-08T08:54:05.000Z</time>
      </trkpt>
      <trkpt lat="42.09664377383887767791748046875" lon="-3.4889656864106655120849609375">
        <ele>1049.4000244140625</ele>
        <time>2019-07-08T08:54:06.000Z</time>
      </trkpt>
      <trkpt lat="42.0967674069106578826904296875" lon="-3.489261567592620849609375">
        <ele>1051.199951171875</ele>
        <time>2019-07-08T08:54:07.000Z</time>
      </trkpt>
      <trkpt lat="42.0970041118562221527099609375" lon="-3.48986531607806682586669921875">
        <ele>1052</ele>
        <time>2019-07-08T08:54:09.000Z</time>
      </trkpt>
      <trkpt lat="42.0971187762916088104248046875" lon="-3.49017410539090633392333984375">
        <ele>1052.4000244140625</ele>
        <time>2019-07-08T08:54:10.000Z</time>
      </trkpt>
      <trkpt lat="42.09735221229493618011474609375" lon="-3.490794114768505096435546875">
        <ele>1053.199951171875</ele>
        <time>2019-07-08T08:54:12.000Z</time>
      </trkpt>
      <trkpt lat="42.09762118756771087646484375" lon="-3.491386212408542633056640625">
        <ele>1053.4000244140625</ele>
        <time>2019-07-08T08:54:14.000Z</time>
      </trkpt>
      <trkpt lat="42.097921259701251983642578125" lon="-3.49194905720651149749755859375">
        <ele>1055.199951171875</ele>
        <time>2019-07-08T08:54:16.000Z</time>
      </trkpt>
      <trkpt lat="42.09822979755699634552001953125" lon="-3.49250276573002338409423828125">
        <ele>1055</ele>
        <time>2019-07-08T08:54:18.000Z</time>
      </trkpt>
      <trkpt lat="42.0983831025660037994384765625" lon="-3.492778278887271881103515625">
        <ele>1053.4000244140625</ele>
        <time>2019-07-08T08:54:19.000Z</time>
      </trkpt>
      <trkpt lat="42.09868543781340122222900390625" lon="-3.49332352168858051300048828125">
        <ele>1051.4000244140625</ele>
        <time>2019-07-08T08:54:21.000Z</time>
      </trkpt>
      <trkpt lat="42.09898165427148342132568359375" lon="-3.4938674233853816986083984375">
        <ele>1050.5999755859375</ele>
        <time>2019-07-08T08:54:23.000Z</time>
      </trkpt>
      <trkpt lat="42.09926546551287174224853515625" lon="-3.49441098980605602264404296875">
        <ele>1053</ele>
        <time>2019-07-08T08:54:25.000Z</time>
      </trkpt>
      <trkpt lat="42.099546007812023162841796875" lon="-3.494956903159618377685546875">
        <ele>1054</ele>
        <time>2019-07-08T08:54:27.000Z</time>
      </trkpt>
      <trkpt lat="42.09982939995825290679931640625" lon="-3.4955049119889736175537109375">
        <ele>1054.199951171875</ele>
        <time>2019-07-08T08:54:29.000Z</time>
      </trkpt>
      <trkpt lat="42.1001127921044826507568359375" lon="-3.49606834352016448974609375">
        <ele>1054</ele>
        <time>2019-07-08T08:54:31.000Z</time>
      </trkpt>
      <trkpt lat="42.1003890596330165863037109375" lon="-3.49666421301662921905517578125">
        <ele>1055.5999755859375</ele>
        <time>2019-07-08T08:54:33.000Z</time>
      </trkpt>
      <trkpt lat="42.10064579732716083526611328125" lon="-3.49730039946734905242919921875">
        <ele>1056.4000244140625</ele>
        <time>2019-07-08T08:54:35.000Z</time>
      </trkpt>
      <trkpt lat="42.10076482035219669342041015625" lon="-3.49763249047100543975830078125">
        <ele>1057.4000244140625</ele>
        <time>2019-07-08T08:54:36.000Z</time>
      </trkpt>
      <trkpt lat="42.1009824983775615692138671875" lon="-3.498312346637248992919921875">
        <ele>1057.800048828125</ele>
        <time>2019-07-08T08:54:38.000Z</time>
      </trkpt>
      <trkpt lat="42.10118441842496395111083984375" lon="-3.4990011714398860931396484375">
        <ele>1057.5999755859375</ele>
        <time>2019-07-08T08:54:40.000Z</time>
      </trkpt>
      <trkpt lat="42.1013955585658550262451171875" lon="-3.49967633374035358428955078125">
        <ele>1056.800048828125</ele>
        <time>2019-07-08T08:54:42.000Z</time>
      </trkpt>
      <trkpt lat="42.1015115641057491302490234375" lon="-3.500001132488250732421875">
        <ele>1056</ele>
        <time>2019-07-08T08:54:43.000Z</time>
      </trkpt>
      <trkpt lat="42.10176520049571990966796875" lon="-3.50063086487352848052978515625">
        <ele>1056</ele>
        <time>2019-07-08T08:54:45.000Z</time>
      </trkpt>
      <trkpt lat="42.10203970782458782196044921875" lon="-3.50123855285346508026123046875">
        <ele>1055.199951171875</ele>
        <time>2019-07-08T08:54:47.000Z</time>
      </trkpt>
      <trkpt lat="42.10232687182724475860595703125" lon="-3.501831404864788055419921875">
        <ele>1056.5999755859375</ele>
        <time>2019-07-08T08:54:49.000Z</time>
      </trkpt>
      <trkpt lat="42.10247087292373180389404296875" lon="-3.50212653167545795440673828125">
        <ele>1057.199951171875</ele>
        <time>2019-07-08T08:54:50.000Z</time>
      </trkpt>
      <trkpt lat="42.102755270898342132568359375" lon="-3.50271309725940227508544921875">
        <ele>1059</ele>
        <time>2019-07-08T08:54:52.000Z</time>
      </trkpt>
      <trkpt lat="42.10304059088230133056640625" lon="-3.5033118166029453277587890625">
        <ele>1060</ele>
        <time>2019-07-08T08:54:54.000Z</time>
      </trkpt>
      <trkpt lat="42.10332649759948253631591796875" lon="-3.50395630113780498504638671875">
        <ele>1059.5999755859375</ele>
        <time>2019-07-08T08:54:56.000Z</time>
      </trkpt>
      <trkpt lat="42.10359446704387664794921875" lon="-3.5046247579157352447509765625">
        <ele>1057</ele>
        <time>2019-07-08T08:54:58.000Z</time>
      </trkpt>
      <trkpt lat="42.103721536695957183837890625" lon="-3.50496397353708744049072265625">
        <ele>1055.5999755859375</ele>
        <time>2019-07-08T08:54:59.000Z</time>
      </trkpt>
      <trkpt lat="42.10397458635270595550537109375" lon="-3.50564374588429927825927734375">
        <ele>1055.5999755859375</ele>
        <time>2019-07-08T08:55:01.000Z</time>
      </trkpt>
      <trkpt lat="42.10422302596271038055419921875" lon="-3.5063209198415279388427734375">
        <ele>1055.5999755859375</ele>
        <time>2019-07-08T08:55:03.000Z</time>
      </trkpt>
      <trkpt lat="42.10446626879274845123291015625" lon="-3.50698870606720447540283203125">
        <ele>1055.800048828125</ele>
        <time>2019-07-08T08:55:05.000Z</time>
      </trkpt>
      <trkpt lat="42.10470766760408878326416015625" lon="-3.50763981230556964874267578125">
        <ele>1054.800048828125</ele>
        <time>2019-07-08T08:55:07.000Z</time>
      </trkpt>
      <trkpt lat="42.10494252853095531463623046875" lon="-3.5082722268998622894287109375">
        <ele>1054.800048828125</ele>
        <time>2019-07-08T08:55:09.000Z</time>
      </trkpt>
      <trkpt lat="42.10517160594463348388671875" lon="-3.50889005698263645172119140625">
        <ele>1055</ele>
        <time>2019-07-08T08:55:11.000Z</time>
      </trkpt>
      <trkpt lat="42.1053990907967090606689453125" lon="-3.5095023550093173980712890625">
        <ele>1055.800048828125</ele>
        <time>2019-07-08T08:55:13.000Z</time>
      </trkpt>
      <trkpt lat="42.10563822649419307708740234375" lon="-3.5101185925304889678955078125">
        <ele>1056.4000244140625</ele>
        <time>2019-07-08T08:55:15.000Z</time>
      </trkpt>
      <trkpt lat="42.10576512850821018218994140625" lon="-3.5104260407388210296630859375">
        <ele>1057.199951171875</ele>
        <time>2019-07-08T08:55:16.000Z</time>
      </trkpt>
      <trkpt lat="42.10603125393390655517578125" lon="-3.5110292024910449981689453125">
        <ele>1058.4000244140625</ele>
        <time>2019-07-08T08:55:18.000Z</time>
      </trkpt>
      <trkpt lat="42.1061682142317295074462890625" lon="-3.51132474839687347412109375">
        <ele>1059.5999755859375</ele>
        <time>2019-07-08T08:55:19.000Z</time>
      </trkpt>
      <trkpt lat="42.1064411289989948272705078125" lon="-3.51190955378115177154541015625">
        <ele>1061</ele>
        <time>2019-07-08T08:55:21.000Z</time>
      </trkpt>
      <trkpt lat="42.106716223061084747314453125" lon="-3.51249461062252521514892578125">
        <ele>1063.199951171875</ele>
        <time>2019-07-08T08:55:23.000Z</time>
      </trkpt>
      <trkpt lat="42.10685695521533489227294921875" lon="-3.51279250346124172210693359375">
        <ele>1064.5999755859375</ele>
        <time>2019-07-08T08:55:24.000Z</time>
      </trkpt>
      <trkpt lat="42.107143700122833251953125" lon="-3.51340706460177898406982421875">
        <ele>1066.4000244140625</ele>
        <time>2019-07-08T08:55:26.000Z</time>
      </trkpt>
      <trkpt lat="42.107434384524822235107421875" lon="-3.51403537206351757049560546875">
        <ele>1067.199951171875</ele>
        <time>2019-07-08T08:55:28.000Z</time>
      </trkpt>
      <trkpt lat="42.1077269129455089569091796875" lon="-3.514663763344287872314453125">
        <ele>1067.199951171875</ele>
        <time>2019-07-08T08:55:30.000Z</time>
      </trkpt>
      <trkpt lat="42.1078740991652011871337890625" lon="-3.514978252351284027099609375">
        <ele>1067.4000244140625</ele>
        <time>2019-07-08T08:55:31.000Z</time>
      </trkpt>
      <trkpt lat="42.10816620849072933197021484375" lon="-3.5156087391078472137451171875">
        <ele>1068.4000244140625</ele>
        <time>2019-07-08T08:55:33.000Z</time>
      </trkpt>
      <trkpt lat="42.10831138305366039276123046875" lon="-3.51592339575290679931640625">
        <ele>1068.800048828125</ele>
        <time>2019-07-08T08:55:34.000Z</time>
      </trkpt>
      <trkpt lat="42.1086033247411251068115234375" lon="-3.51655161939561367034912109375">
        <ele>1069.199951171875</ele>
        <time>2019-07-08T08:55:36.000Z</time>
      </trkpt>
      <trkpt lat="42.10889258421957492828369140625" lon="-3.517177663743495941162109375">
        <ele>1068.5999755859375</ele>
        <time>2019-07-08T08:55:38.000Z</time>
      </trkpt>
      <trkpt lat="42.109182178974151611328125" lon="-3.517790548503398895263671875">
        <ele>1067.800048828125</ele>
        <time>2019-07-08T08:55:40.000Z</time>
      </trkpt>
      <trkpt lat="42.10947730578482151031494140625" lon="-3.5183784551918506622314453125">
        <ele>1067.800048828125</ele>
        <time>2019-07-08T08:55:42.000Z</time>
      </trkpt>
      <trkpt lat="42.1097811497747898101806640625" lon="-3.51894146762788295745849609375">
        <ele>1068</ele>
        <time>2019-07-08T08:55:44.000Z</time>
      </trkpt>
      <trkpt lat="42.11009287275373935699462890625" lon="-3.519493080675601959228515625">
        <ele>1068.800048828125</ele>
        <time>2019-07-08T08:55:46.000Z</time>
      </trkpt>
      <trkpt lat="42.11025246419012546539306640625" lon="-3.5197638161480426788330078125">
        <ele>1069</ele>
        <time>2019-07-08T08:55:47.000Z</time>
      </trkpt>
      <trkpt lat="42.110574245452880859375" lon="-3.52030939422547817230224609375">
        <ele>1069</ele>
        <time>2019-07-08T08:55:49.000Z</time>
      </trkpt>
      <trkpt lat="42.11089141666889190673828125" lon="-3.52086938917636871337890625">
        <ele>1068.5999755859375</ele>
        <time>2019-07-08T08:55:51.000Z</time>
      </trkpt>
      <trkpt lat="42.11104807443916797637939453125" lon="-3.521157391369342803955078125">
        <ele>1067.4000244140625</ele>
        <time>2019-07-08T08:55:52.000Z</time>
      </trkpt>
      <trkpt lat="42.1113646589219570159912109375" lon="-3.52174647152423858642578125">
        <ele>1066.5999755859375</ele>
        <time>2019-07-08T08:55:54.000Z</time>
      </trkpt>
      <trkpt lat="42.11152668111026287078857421875" lon="-3.5220467112958431243896484375">
        <ele>1066.199951171875</ele>
        <time>2019-07-08T08:55:55.000Z</time>
      </trkpt>
      <trkpt lat="42.11185726337134838104248046875" lon="-3.5226532258093357086181640625">
        <ele>1068</ele>
        <time>2019-07-08T08:55:57.000Z</time>
      </trkpt>
      <trkpt lat="42.11202255450189113616943359375" lon="-3.52296008728444576263427734375">
        <ele>1069</ele>
        <time>2019-07-08T08:55:58.000Z</time>
      </trkpt>
      <trkpt lat="42.11235414259135723114013671875" lon="-3.523572385311126708984375">
        <ele>1069.199951171875</ele>
        <time>2019-07-08T08:56:00.000Z</time>
      </trkpt>
      <trkpt lat="42.11268153972923755645751953125" lon="-3.5241825878620147705078125">
        <ele>1069</ele>
        <time>2019-07-08T08:56:02.000Z</time>
      </trkpt>
      <trkpt lat="42.11300960741937160491943359375" lon="-3.52479203604161739349365234375">
        <ele>1068.199951171875</ele>
        <time>2019-07-08T08:56:04.000Z</time>
      </trkpt>
      <trkpt lat="42.11317271925508975982666015625" lon="-3.5250967182219028472900390625">
        <ele>1067.5999755859375</ele>
        <time>2019-07-08T08:56:05.000Z</time>
      </trkpt>
      <trkpt lat="42.11349810473620891571044921875" lon="-3.52570298127830028533935546875">
        <ele>1067.4000244140625</ele>
        <time>2019-07-08T08:56:07.000Z</time>
      </trkpt>
      <trkpt lat="42.1138183772563934326171875" lon="-3.526300527155399322509765625">
        <ele>1067.4000244140625</ele>
        <time>2019-07-08T08:56:09.000Z</time>
      </trkpt>
      <trkpt lat="42.11413412354886531829833984375" lon="-3.52688826620578765869140625">
        <ele>1067.4000244140625</ele>
        <time>2019-07-08T08:56:11.000Z</time>
      </trkpt>
      <trkpt lat="42.114445008337497711181640625" lon="-3.52747038938105106353759765625">
        <ele>1069.199951171875</ele>
        <time>2019-07-08T08:56:13.000Z</time>
      </trkpt>
      <trkpt lat="42.11474700830876827239990234375" lon="-3.52804404683411121368408203125">
        <ele>1069.199951171875</ele>
        <time>2019-07-08T08:56:15.000Z</time>
      </trkpt>
      <trkpt lat="42.11503316648304462432861328125" lon="-3.52861016057431697845458984375">
        <ele>1068.5999755859375</ele>
        <time>2019-07-08T08:56:17.000Z</time>
      </trkpt>
      <trkpt lat="42.11517062969505786895751953125" lon="-3.52889665402472019195556640625">
        <ele>1068.199951171875</ele>
        <time>2019-07-08T08:56:18.000Z</time>
      </trkpt>
      <trkpt lat="42.11543868295848369598388671875" lon="-3.52947718463838100433349609375">
        <ele>1068.199951171875</ele>
        <time>2019-07-08T08:56:20.000Z</time>
      </trkpt>
      <trkpt lat="42.11571075953543186187744140625" lon="-3.5300645045936107635498046875">
        <ele>1068.199951171875</ele>
        <time>2019-07-08T08:56:22.000Z</time>
      </trkpt>
      <trkpt lat="42.11598627269268035888671875" lon="-3.5306579433381557464599609375">
        <ele>1068.199951171875</ele>
        <time>2019-07-08T08:56:24.000Z</time>
      </trkpt>
      <trkpt lat="42.1162653900682926177978515625" lon="-3.53125750087201595306396484375">
        <ele>1067.800048828125</ele>
        <time>2019-07-08T08:56:26.000Z</time>
      </trkpt>
      <trkpt lat="42.11654576472938060760498046875" lon="-3.5318652726709842681884765625">
        <ele>1067.199951171875</ele>
        <time>2019-07-08T08:56:28.000Z</time>
      </trkpt>
      <trkpt lat="42.1168278157711029052734375" lon="-3.53247891180217266082763671875">
        <ele>1067</ele>
        <time>2019-07-08T08:56:30.000Z</time>
      </trkpt>
      <trkpt lat="42.11711238138377666473388671875" lon="-3.5330974124372005462646484375">
        <ele>1066.5999755859375</ele>
        <time>2019-07-08T08:56:32.000Z</time>
      </trkpt>
      <trkpt lat="42.117398791015148162841796875" lon="-3.53372119367122650146484375">
        <ele>1067.199951171875</ele>
        <time>2019-07-08T08:56:34.000Z</time>
      </trkpt>
      <trkpt lat="42.1176879666745662689208984375" lon="-3.53434740565717220306396484375">
        <ele>1067</ele>
        <time>2019-07-08T08:56:36.000Z</time>
      </trkpt>
      <trkpt lat="42.117980159819126129150390625" lon="-3.53497370146214962005615234375">
        <ele>1067.5999755859375</ele>
        <time>2019-07-08T08:56:38.000Z</time>
      </trkpt>
      <trkpt lat="42.11827344261109828948974609375" lon="-3.53560469113290309906005859375">
        <ele>1066.800048828125</ele>
        <time>2019-07-08T08:56:40.000Z</time>
      </trkpt>
      <trkpt lat="42.11842046119272708892822265625" lon="-3.535920940339565277099609375">
        <ele>1065.199951171875</ele>
        <time>2019-07-08T08:56:41.000Z</time>
      </trkpt>
      <trkpt lat="42.11871416307985782623291015625" lon="-3.536556623876094818115234375">
        <ele>1066</ele>
        <time>2019-07-08T08:56:43.000Z</time>
      </trkpt>
      <trkpt lat="42.1190096251666545867919921875" lon="-3.53719289414584636688232421875">
        <ele>1065.5999755859375</ele>
        <time>2019-07-08T08:56:45.000Z</time>
      </trkpt>
      <trkpt lat="42.11930877529084682464599609375" lon="-3.5378271527588367462158203125">
        <ele>1064.4000244140625</ele>
        <time>2019-07-08T08:56:47.000Z</time>
      </trkpt>
      <trkpt lat="42.11960591375827789306640625" lon="-3.53846526704728603363037109375">
        <ele>1063</ele>
        <time>2019-07-08T08:56:49.000Z</time>
      </trkpt>
      <trkpt lat="42.11975402198731899261474609375" lon="-3.53878495283424854278564453125">
        <ele>1061.4000244140625</ele>
        <time>2019-07-08T08:56:50.000Z</time>
      </trkpt>
      <trkpt lat="42.11990254931151866912841796875" lon="-3.53910572826862335205078125">
        <ele>1060.4000244140625</ele>
        <time>2019-07-08T08:56:51.000Z</time>
      </trkpt>
      <trkpt lat="42.120050154626369476318359375" lon="-3.53942767716944217681884765625">
        <ele>1060.199951171875</ele>
        <time>2019-07-08T08:56:52.000Z</time>
      </trkpt>
      <trkpt lat="42.1203453652560710906982421875" lon="-3.5400694794952869415283203125">
        <ele>1061</ele>
        <time>2019-07-08T08:56:54.000Z</time>
      </trkpt>
      <trkpt lat="42.120640911161899566650390625" lon="-3.5407142154872417449951171875">
        <ele>1061.199951171875</ele>
        <time>2019-07-08T08:56:56.000Z</time>
      </trkpt>
      <trkpt lat="42.12094022892415523529052734375" lon="-3.54136146605014801025390625">
        <ele>1061</ele>
        <time>2019-07-08T08:56:58.000Z</time>
      </trkpt>
      <trkpt lat="42.12124533019959926605224609375" lon="-3.54201315902173519134521484375">
        <ele>1058.5999755859375</ele>
        <time>2019-07-08T08:57:00.000Z</time>
      </trkpt>
      <trkpt lat="42.12155043147504329681396484375" lon="-3.5426715575158596038818359375">
        <ele>1057.199951171875</ele>
        <time>2019-07-08T08:57:02.000Z</time>
      </trkpt>
      <trkpt lat="42.12185653857886791229248046875" lon="-3.54333548806607723236083984375">
        <ele>1056.5999755859375</ele>
        <time>2019-07-08T08:57:04.000Z</time>
      </trkpt>
      <trkpt lat="42.1221639029681682586669921875" lon="-3.54400067590177059173583984375">
        <ele>1056.4000244140625</ele>
        <time>2019-07-08T08:57:06.000Z</time>
      </trkpt>
      <trkpt lat="42.1224706806242465972900390625" lon="-3.54465966112911701202392578125">
        <ele>1057.800048828125</ele>
        <time>2019-07-08T08:57:08.000Z</time>
      </trkpt>
      <trkpt lat="42.12262348271906375885009765625" lon="-3.544989489018917083740234375">
        <ele>1059.199951171875</ele>
        <time>2019-07-08T08:57:09.000Z</time>
      </trkpt>
      <trkpt lat="42.1227761171758174896240234375" lon="-3.545320071280002593994140625">
        <ele>1060.5999755859375</ele>
        <time>2019-07-08T08:57:10.000Z</time>
      </trkpt>
      <trkpt lat="42.12308012880384922027587890625" lon="-3.54597746394574642181396484375">
        <ele>1061.800048828125</ele>
        <time>2019-07-08T08:57:12.000Z</time>
      </trkpt>
      <trkpt lat="42.1233844757080078125" lon="-3.546634353697299957275390625">
        <ele>1061</ele>
        <time>2019-07-08T08:57:14.000Z</time>
      </trkpt>
      <trkpt lat="42.1235365234315395355224609375" lon="-3.54696325957775115966796875">
        <ele>1059.800048828125</ele>
        <time>2019-07-08T08:57:15.000Z</time>
      </trkpt>
      <trkpt lat="42.12368823587894439697265625" lon="-3.54729224927723407745361328125">
        <ele>1058</ele>
        <time>2019-07-08T08:57:16.000Z</time>
      </trkpt>
      <trkpt lat="42.12384045124053955078125" lon="-3.54761981405317783355712890625">
        <ele>1056.199951171875</ele>
        <time>2019-07-08T08:57:17.000Z</time>
      </trkpt>
      <trkpt lat="42.1241467259824275970458984375" lon="-3.5482777096331119537353515625">
        <ele>1054.800048828125</ele>
        <time>2019-07-08T08:57:19.000Z</time>
      </trkpt>
      <trkpt lat="42.124451659619808197021484375" lon="-3.5489341802895069122314453125">
        <ele>1053.5999755859375</ele>
        <time>2019-07-08T08:57:21.000Z</time>
      </trkpt>
      <trkpt lat="42.124755419790744781494140625" lon="-3.5495872981846332550048828125">
        <ele>1050.5999755859375</ele>
        <time>2019-07-08T08:57:23.000Z</time>
      </trkpt>
      <trkpt lat="42.1249064616858959197998046875" lon="-3.54991234838962554931640625">
        <ele>1047.5999755859375</ele>
        <time>2019-07-08T08:57:24.000Z</time>
      </trkpt>
      <trkpt lat="42.12505616247653961181640625" lon="-3.5502348840236663818359375">
        <ele>1044.199951171875</ele>
        <time>2019-07-08T08:57:25.000Z</time>
      </trkpt>
      <trkpt lat="42.12520368397235870361328125" lon="-3.5505555756390094757080078125">
        <ele>1041.5999755859375</ele>
        <time>2019-07-08T08:57:26.000Z</time>
      </trkpt>
      <trkpt lat="42.12534994818270206451416015625" lon="-3.550873585045337677001953125">
        <ele>1040.4000244140625</ele>
        <time>2019-07-08T08:57:27.000Z</time>
      </trkpt>
      <trkpt lat="42.125636525452136993408203125" lon="-3.5515050776302814483642578125">
        <ele>1040.800048828125</ele>
        <time>2019-07-08T08:57:29.000Z</time>
      </trkpt>
      <trkpt lat="42.12590784765779972076416015625" lon="-3.55213967151939868927001953125">
        <ele>1041.4000244140625</ele>
        <time>2019-07-08T08:57:31.000Z</time>
      </trkpt>
      <trkpt lat="42.12603508494794368743896484375" lon="-3.55246136896312236785888671875">
        <ele>1041.800048828125</ele>
        <time>2019-07-08T08:57:32.000Z</time>
      </trkpt>
      <trkpt lat="42.12627413682639598846435546875" lon="-3.55311046354472637176513671875">
        <ele>1041.5999755859375</ele>
        <time>2019-07-08T08:57:34.000Z</time>
      </trkpt>
      <trkpt lat="42.12650321424007415771484375" lon="-3.55378034524619579315185546875">
        <ele>1041.199951171875</ele>
        <time>2019-07-08T08:57:36.000Z</time>
      </trkpt>
      <trkpt lat="42.126723825931549072265625" lon="-3.5544647276401519775390625">
        <ele>1040.199951171875</ele>
        <time>2019-07-08T08:57:38.000Z</time>
      </trkpt>
      <trkpt lat="42.12693211622536182403564453125" lon="-3.55515749193727970123291015625">
        <ele>1039.4000244140625</ele>
        <time>2019-07-08T08:57:40.000Z</time>
      </trkpt>
      <trkpt lat="42.12703269906342029571533203125" lon="-3.55550483800470829010009765625">
        <ele>1039.199951171875</ele>
        <time>2019-07-08T08:57:41.000Z</time>
      </trkpt>
      <trkpt lat="42.127232439815998077392578125" lon="-3.55619785375893115997314453125">
        <ele>1036.800048828125</ele>
        <time>2019-07-08T08:57:43.000Z</time>
      </trkpt>
      <trkpt lat="42.1274305880069732666015625" lon="-3.55689346790313720703125">
        <ele>1035</ele>
        <time>2019-07-08T08:57:45.000Z</time>
      </trkpt>
      <trkpt lat="42.12761507369577884674072265625" lon="-3.557603247463703155517578125">
        <ele>1034.4000244140625</ele>
        <time>2019-07-08T08:57:47.000Z</time>
      </trkpt>
      <trkpt lat="42.12769939564168453216552734375" lon="-3.557961992919445037841796875">
        <ele>1033.800048828125</ele>
        <time>2019-07-08T08:57:48.000Z</time>
      </trkpt>
      <trkpt lat="42.1278568916022777557373046875" lon="-3.55869012884795665740966796875">
        <ele>1034.800048828125</ele>
        <time>2019-07-08T08:57:50.000Z</time>
      </trkpt>
      <trkpt lat="42.12800198234617710113525390625" lon="-3.55942622758448123931884765625">
        <ele>1034</ele>
        <time>2019-07-08T08:57:52.000Z</time>
      </trkpt>
      <trkpt lat="42.12812586687505245208740234375" lon="-3.5601347498595714569091796875">
        <ele>1033</ele>
        <time>2019-07-08T08:57:54.000Z</time>
      </trkpt>
      <trkpt lat="42.12817867286503314971923828125" lon="-3.56047497130930423736572265625">
        <ele>1031.5999755859375</ele>
        <time>2019-07-08T08:57:55.000Z</time>
      </trkpt>
      <trkpt lat="42.12827540002763271331787109375" lon="-3.5611496306955814361572265625">
        <ele>1029.199951171875</ele>
        <time>2019-07-08T08:57:57.000Z</time>
      </trkpt>
      <trkpt lat="42.12837380357086658477783203125" lon="-3.5618128068745136260986328125">
        <ele>1028.800048828125</ele>
        <time>2019-07-08T08:57:59.000Z</time>
      </trkpt>
      <trkpt lat="42.12847019545733928680419921875" lon="-3.56246483512222766876220703125">
        <ele>1029.4000244140625</ele>
        <time>2019-07-08T08:58:01.000Z</time>
      </trkpt>
      <trkpt lat="42.12851830758154392242431640625" lon="-3.56278837658464908599853515625">
        <ele>1030.5999755859375</ele>
        <time>2019-07-08T08:58:02.000Z</time>
      </trkpt>
      <trkpt lat="42.12861235253512859344482421875" lon="-3.56342271901667118072509765625">
        <ele>1030</ele>
        <time>2019-07-08T08:58:04.000Z</time>
      </trkpt>
      <trkpt lat="42.1286565251648426055908203125" lon="-3.56372463516891002655029296875">
        <ele>1029</ele>
        <time>2019-07-08T08:58:05.000Z</time>
      </trkpt>
      <trkpt lat="42.12869751267135143280029296875" lon="-3.564012385904788970947265625">
        <ele>1027.4000244140625</ele>
        <time>2019-07-08T08:58:06.000Z</time>
      </trkpt>
      <trkpt lat="42.1287376619875431060791015625" lon="-3.564285971224308013916015625">
        <ele>1026.199951171875</ele>
        <time>2019-07-08T08:58:07.000Z</time>
      </trkpt>
      <trkpt lat="42.12882206775248050689697265625" lon="-3.564800955355167388916015625">
        <ele>1024.4000244140625</ele>
        <time>2019-07-08T08:58:09.000Z</time>
      </trkpt>
      <trkpt lat="42.12887428700923919677734375" lon="-3.56504679657518863677978515625">
        <ele>1023.4000244140625</ele>
        <time>2019-07-08T08:58:10.000Z</time>
      </trkpt>
      <trkpt lat="42.1290826611220836639404296875" lon="-3.5657295025885105133056640625">
        <ele>1024.199951171875</ele>
        <time>2019-07-08T08:58:13.000Z</time>
      </trkpt>
      <trkpt lat="42.1291755326092243194580078125" lon="-3.5659336857497692108154296875">
        <ele>1024.800048828125</ele>
        <time>2019-07-08T08:58:14.000Z</time>
      </trkpt>
      <trkpt lat="42.12950066663324832916259765625" lon="-3.56645495630800724029541015625">
        <ele>1026.5999755859375</ele>
        <time>2019-07-08T08:58:17.000Z</time>
      </trkpt>
      <trkpt lat="42.1297320909798145294189453125" lon="-3.56673792935907840728759765625">
        <ele>1025.4000244140625</ele>
        <time>2019-07-08T08:58:19.000Z</time>
      </trkpt>
      <trkpt lat="42.1301538683474063873291015625" lon="-3.567204885184764862060546875">
        <ele>1025.199951171875</ele>
        <time>2019-07-08T08:58:23.000Z</time>
      </trkpt>
      <trkpt lat="42.13055997155606746673583984375" lon="-3.5676316916942596435546875">
        <ele>1025.800048828125</ele>
        <time>2019-07-08T08:58:28.000Z</time>
      </trkpt>
      <trkpt lat="42.13077303953468799591064453125" lon="-3.5679010860621929168701171875">
        <ele>1026.5999755859375</ele>
        <time>2019-07-08T08:58:31.000Z</time>
      </trkpt>
      <trkpt lat="42.13088837452232837677001953125" lon="-3.56810552068054676055908203125">
        <ele>1028.4000244140625</ele>
        <time>2019-07-08T08:58:33.000Z</time>
      </trkpt>
      <trkpt lat="42.13094185106456279754638671875" lon="-3.5682289861142635345458984375">
        <ele>1029.5999755859375</ele>
        <time>2019-07-08T08:58:34.000Z</time>
      </trkpt>
      <trkpt lat="42.1311892010271549224853515625" lon="-3.56884296052157878875732421875">
        <ele>1030</ele>
        <time>2019-07-08T08:58:38.000Z</time>
      </trkpt>
      <trkpt lat="42.1314480341970920562744140625" lon="-3.5694554261863231658935546875">
        <ele>1028.800048828125</ele>
        <time>2019-07-08T08:58:42.000Z</time>
      </trkpt>
      <trkpt lat="42.1316703222692012786865234375" lon="-3.57005381025373935699462890625">
        <ele>1028.800048828125</ele>
        <time>2019-07-08T08:58:46.000Z</time>
      </trkpt>
      <trkpt lat="42.1318476833403110504150390625" lon="-3.57049788348376750946044921875">
        <ele>1028.4000244140625</ele>
        <time>2019-07-08T08:58:49.000Z</time>
      </trkpt>
      <trkpt lat="42.1320833824574947357177734375" lon="-3.57107824645936489105224609375">
        <ele>1028.4000244140625</ele>
        <time>2019-07-08T08:58:53.000Z</time>
      </trkpt>
      <trkpt lat="42.132350765168666839599609375" lon="-3.57173211872577667236328125">
        <ele>1029.199951171875</ele>
        <time>2019-07-08T08:58:57.000Z</time>
      </trkpt>
      <trkpt lat="42.13257171213626861572265625" lon="-3.57226562686264514923095703125">
        <ele>1029</ele>
        <time>2019-07-08T08:59:00.000Z</time>
      </trkpt>
      <trkpt lat="42.13281000964343547821044921875" lon="-3.57281480915844440460205078125">
        <ele>1029</ele>
        <time>2019-07-08T08:59:03.000Z</time>
      </trkpt>
      <trkpt lat="42.13308074511587619781494140625" lon="-3.57336700893938541412353515625">
        <ele>1029.199951171875</ele>
        <time>2019-07-08T08:59:06.000Z</time>
      </trkpt>
      <trkpt lat="42.13343446142971515655517578125" lon="-3.57403638772666454315185546875">
        <ele>1028</ele>
        <time>2019-07-08T08:59:09.000Z</time>
      </trkpt>
      <trkpt lat="42.1337252296507358551025390625" lon="-3.5745703987777233123779296875">
        <ele>1026.800048828125</ele>
        <time>2019-07-08T08:59:11.000Z</time>
      </trkpt>
      <trkpt lat="42.13401868008077144622802734375" lon="-3.5751056671142578125">
        <ele>1025</ele>
        <time>2019-07-08T08:59:13.000Z</time>
      </trkpt>
      <trkpt lat="42.134158574044704437255859375" lon="-3.57536022551357746124267578125">
        <ele>1023.4000244140625</ele>
        <time>2019-07-08T08:59:14.000Z</time>
      </trkpt>
      <trkpt lat="42.134437523782253265380859375" lon="-3.57585744000971317291259765625">
        <ele>1023.4000244140625</ele>
        <time>2019-07-08T08:59:16.000Z</time>
      </trkpt>
      <trkpt lat="42.13471353985369205474853515625" lon="-3.576357252895832061767578125">
        <ele>1025.199951171875</ele>
        <time>2019-07-08T08:59:18.000Z</time>
      </trkpt>
      <trkpt lat="42.13485234417021274566650390625" lon="-3.57661114074289798736572265625">
        <ele>1027.5999755859375</ele>
        <time>2019-07-08T08:59:19.000Z</time>
      </trkpt>
      <trkpt lat="42.13499248959124088287353515625" lon="-3.576866872608661651611328125">
        <ele>1029.800048828125</ele>
        <time>2019-07-08T08:59:20.000Z</time>
      </trkpt>
      <trkpt lat="42.13513347320258617401123046875" lon="-3.5771245323121547698974609375">
        <ele>1031.4000244140625</ele>
        <time>2019-07-08T08:59:21.000Z</time>
      </trkpt>
      <trkpt lat="42.13542030192911624908447265625" lon="-3.5776455514132976531982421875">
        <ele>1033</ele>
        <time>2019-07-08T08:59:23.000Z</time>
      </trkpt>
      <trkpt lat="42.135708220303058624267578125" lon="-3.5781712643802165985107421875">
        <ele>1034.800048828125</ele>
        <time>2019-07-08T08:59:25.000Z</time>
      </trkpt>
      <trkpt lat="42.135853059589862823486328125" lon="-3.57843470759689807891845703125">
        <ele>1036.800048828125</ele>
        <time>2019-07-08T08:59:26.000Z</time>
      </trkpt>
      <trkpt lat="42.1361439116299152374267578125" lon="-3.5789586603641510009765625">
        <ele>1037.800048828125</ele>
        <time>2019-07-08T08:59:28.000Z</time>
      </trkpt>
      <trkpt lat="42.13628598488867282867431640625" lon="-3.57921640388667583465576171875">
        <ele>1037.800048828125</ele>
        <time>2019-07-08T08:59:29.000Z</time>
      </trkpt>
      <trkpt lat="42.13656543754041194915771484375" lon="-3.57971864752471446990966796875">
        <ele>1039.5999755859375</ele>
        <time>2019-07-08T08:59:31.000Z</time>
      </trkpt>
      <trkpt lat="42.13683885522186756134033203125" lon="-3.58022390864789485931396484375">
        <ele>1041.199951171875</ele>
        <time>2019-07-08T08:59:33.000Z</time>
      </trkpt>
      <trkpt lat="42.1369757317006587982177734375" lon="-3.5804803110659122467041015625">
        <ele>1042.800048828125</ele>
        <time>2019-07-08T08:59:34.000Z</time>
      </trkpt>
      <trkpt lat="42.1371148712933063507080078125" lon="-3.58073763549327850341796875">
        <ele>1044.800048828125</ele>
        <time>2019-07-08T08:59:35.000Z</time>
      </trkpt>
      <trkpt lat="42.13725593872368335723876953125" lon="-3.5809971392154693603515625">
        <ele>1046</ele>
        <time>2019-07-08T08:59:36.000Z</time>
      </trkpt>
      <trkpt lat="42.13739826343953609466552734375" lon="-3.581258319318294525146484375">
        <ele>1047.199951171875</ele>
        <time>2019-07-08T08:59:37.000Z</time>
      </trkpt>
      <trkpt lat="42.13754310272634029388427734375" lon="-3.581521846354007720947265625">
        <ele>1049</ele>
        <time>2019-07-08T08:59:38.000Z</time>
      </trkpt>
      <trkpt lat="42.137690372765064239501953125" lon="-3.5817883908748626708984375">
        <ele>1050.4000244140625</ele>
        <time>2019-07-08T08:59:39.000Z</time>
      </trkpt>
      <trkpt lat="42.13783965446054935455322265625" lon="-3.582056947052478790283203125">
        <ele>1051.5999755859375</ele>
        <time>2019-07-08T08:59:40.000Z</time>
      </trkpt>
      <trkpt lat="42.138136960566043853759765625" lon="-3.58259732834994792938232421875">
        <ele>1053</ele>
        <time>2019-07-08T08:59:42.000Z</time>
      </trkpt>
      <trkpt lat="42.1384291537106037139892578125" lon="-3.58313687145709991455078125">
        <ele>1052.5999755859375</ele>
        <time>2019-07-08T08:59:44.000Z</time>
      </trkpt>
      <trkpt lat="42.1387211792171001434326171875" lon="-3.5836758278310298919677734375">
        <ele>1051.5999755859375</ele>
        <time>2019-07-08T08:59:46.000Z</time>
      </trkpt>
      <trkpt lat="42.13901395909488201141357421875" lon="-3.58421805314719676971435546875">
        <ele>1050.800048828125</ele>
        <time>2019-07-08T08:59:48.000Z</time>
      </trkpt>
      <trkpt lat="42.13916198350489139556884765625" lon="-3.5844893753528594970703125">
        <ele>1050.4000244140625</ele>
        <time>2019-07-08T08:59:49.000Z</time>
      </trkpt>
      <trkpt lat="42.139461301267147064208984375" lon="-3.58503319323062896728515625">
        <ele>1050.800048828125</ele>
        <time>2019-07-08T08:59:51.000Z</time>
      </trkpt>
      <trkpt lat="42.13977470062673091888427734375" lon="-3.58556569553911685943603515625">
        <ele>1051.5999755859375</ele>
        <time>2019-07-08T08:59:53.000Z</time>
      </trkpt>
      <trkpt lat="42.140124142169952392578125" lon="-3.58607984147965908050537109375">
        <ele>1051.800048828125</ele>
        <time>2019-07-08T08:59:55.000Z</time>
      </trkpt>
      <trkpt lat="42.14052303694188594818115234375" lon="-3.5865652374923229217529296875">
        <ele>1052</ele>
        <time>2019-07-08T08:59:57.000Z</time>
      </trkpt>
      <trkpt lat="42.1409623324871063232421875" lon="-3.58701576478779315948486328125">
        <ele>1052.4000244140625</ele>
        <time>2019-07-08T08:59:59.000Z</time>
      </trkpt>
      <trkpt lat="42.14142660610377788543701171875" lon="-3.587412647902965545654296875">
        <ele>1053.4000244140625</ele>
        <time>2019-07-08T09:00:01.000Z</time>
      </trkpt>
      <trkpt lat="42.14189213700592517852783203125" lon="-3.58777482993900775909423828125">
        <ele>1053.5999755859375</ele>
        <time>2019-07-08T09:00:03.000Z</time>
      </trkpt>
      <trkpt lat="42.1423562429845333099365234375" lon="-3.58813575468957424163818359375">
        <ele>1054.199951171875</ele>
        <time>2019-07-08T09:00:05.000Z</time>
      </trkpt>
      <trkpt lat="42.14258783496916294097900390625" lon="-3.588316552340984344482421875">
        <ele>1052</ele>
        <time>2019-07-08T09:00:06.000Z</time>
      </trkpt>
      <trkpt lat="42.14281909167766571044921875" lon="-3.5884967632591724395751953125">
        <ele>1049</ele>
        <time>2019-07-08T09:00:07.000Z</time>
      </trkpt>
      <trkpt lat="42.143050096929073333740234375" lon="-3.5886751301586627960205078125">
        <ele>1044.5999755859375</ele>
        <time>2019-07-08T09:00:08.000Z</time>
      </trkpt>
      <trkpt lat="42.14327950961887836456298828125" lon="-3.5888533294200897216796875">
        <ele>1043.4000244140625</ele>
        <time>2019-07-08T09:00:09.000Z</time>
      </trkpt>
      <trkpt lat="42.14350783266127109527587890625" lon="-3.58903236687183380126953125">
        <ele>1041.800048828125</ele>
        <time>2019-07-08T09:00:10.000Z</time>
      </trkpt>
      <trkpt lat="42.14396297000348567962646484375" lon="-3.58938700519502162933349609375">
        <ele>1042</ele>
        <time>2019-07-08T09:00:12.000Z</time>
      </trkpt>
      <trkpt lat="42.14442011900246143341064453125" lon="-3.58973669819533824920654296875">
        <ele>1043.199951171875</ele>
        <time>2019-07-08T09:00:14.000Z</time>
      </trkpt>
      <trkpt lat="42.1448802016675472259521484375" lon="-3.5900873132050037384033203125">
        <ele>1043.5999755859375</ele>
        <time>2019-07-08T09:00:16.000Z</time>
      </trkpt>
      <trkpt lat="42.145343720912933349609375" lon="-3.5904463939368724822998046875">
        <ele>1043</ele>
        <time>2019-07-08T09:00:18.000Z</time>
      </trkpt>
      <trkpt lat="42.1458115987479686737060546875" lon="-3.590813688933849334716796875">
        <ele>1041.800048828125</ele>
        <time>2019-07-08T09:00:20.000Z</time>
      </trkpt>
      <trkpt lat="42.14604771696031093597412109375" lon="-3.5909969173371791839599609375">
        <ele>1040.800048828125</ele>
        <time>2019-07-08T09:00:21.000Z</time>
      </trkpt>
      <trkpt lat="42.14628576301038265228271484375" lon="-3.591181151568889617919921875">
        <ele>1039.5999755859375</ele>
        <time>2019-07-08T09:00:22.000Z</time>
      </trkpt>
      <trkpt lat="42.1465252339839935302734375" lon="-3.59136722981929779052734375">
        <ele>1038</ele>
        <time>2019-07-08T09:00:23.000Z</time>
      </trkpt>
      <trkpt lat="42.1470058523118495941162109375" lon="-3.59174282290041446685791015625">
        <ele>1037.800048828125</ele>
        <time>2019-07-08T09:00:25.000Z</time>
      </trkpt>
      <trkpt lat="42.14748688973486423492431640625" lon="-3.5921160690486431121826171875">
        <ele>1037.4000244140625</ele>
        <time>2019-07-08T09:00:27.000Z</time>
      </trkpt>
      <trkpt lat="42.1477243490517139434814453125" lon="-3.5923001356422901153564453125">
        <ele>1036.5999755859375</ele>
        <time>2019-07-08T09:00:28.000Z</time>
      </trkpt>
      <trkpt lat="42.1481900475919246673583984375" lon="-3.59266541898250579833984375">
        <ele>1036.4000244140625</ele>
        <time>2019-07-08T09:00:30.000Z</time>
      </trkpt>
      <trkpt lat="42.14864484965801239013671875" lon="-3.59302081167697906494140625">
        <ele>1036.5999755859375</ele>
        <time>2019-07-08T09:00:32.000Z</time>
      </trkpt>
      <trkpt lat="42.1490905992686748504638671875" lon="-3.59336941502988338470458984375">
        <ele>1036.5999755859375</ele>
        <time>2019-07-08T09:00:34.000Z</time>
      </trkpt>
      <trkpt lat="42.1495257876813411712646484375" lon="-3.5937327705323696136474609375">
        <ele>1036.199951171875</ele>
        <time>2019-07-08T09:00:36.000Z</time>
      </trkpt>
      <trkpt lat="42.14974187314510345458984375" lon="-3.593918345868587493896484375">
        <ele>1035</ele>
        <time>2019-07-08T09:00:37.000Z</time>
      </trkpt>
      <trkpt lat="42.150173373520374298095703125" lon="-3.594296872615814208984375">
        <ele>1033</ele>
        <time>2019-07-08T09:00:39.000Z</time>
      </trkpt>
      <trkpt lat="42.1503877826035022735595703125" lon="-3.5944931767880916595458984375">
        <ele>1031</ele>
        <time>2019-07-08T09:00:40.000Z</time>
      </trkpt>
      <trkpt lat="42.15059883892536163330078125" lon="-3.5946951806545257568359375">
        <ele>1030</ele>
        <time>2019-07-08T09:00:41.000Z</time>
      </trkpt>
      <trkpt lat="42.15101617388427257537841796875" lon="-3.59511201269924640655517578125">
        <ele>1028.199951171875</ele>
        <time>2019-07-08T09:00:43.000Z</time>
      </trkpt>
      <trkpt lat="42.15143929235637187957763671875" lon="-3.5955305211246013641357421875">
        <ele>1027.199951171875</ele>
        <time>2019-07-08T09:00:45.000Z</time>
      </trkpt>
      <trkpt lat="42.151652611792087554931640625" lon="-3.5957439243793487548828125">
        <ele>1026.5999755859375</ele>
        <time>2019-07-08T09:00:46.000Z</time>
      </trkpt>
      <trkpt lat="42.15186760760843753814697265625" lon="-3.59596059657633304595947265625">
        <ele>1025.4000244140625</ele>
        <time>2019-07-08T09:00:47.000Z</time>
      </trkpt>
      <trkpt lat="42.152083776891231536865234375" lon="-3.5961776040494441986083984375">
        <ele>1024.4000244140625</ele>
        <time>2019-07-08T09:00:48.000Z</time>
      </trkpt>
      <trkpt lat="42.1525201387703418731689453125" lon="-3.596610613167285919189453125">
        <ele>1023.4000244140625</ele>
        <time>2019-07-08T09:00:50.000Z</time>
      </trkpt>
      <trkpt lat="42.1529576741158962249755859375" lon="-3.5970466397702693939208984375">
        <ele>1023.20001220703125</ele>
        <time>2019-07-08T09:00:52.000Z</time>
      </trkpt>
      <trkpt lat="42.1531759388744831085205078125" lon="-3.5972659103572368621826171875">
        <ele>1022.4000244140625</ele>
        <time>2019-07-08T09:00:53.000Z</time>
      </trkpt>
      <trkpt lat="42.15361624024808406829833984375" lon="-3.59770663082599639892578125">
        <ele>1022</ele>
        <time>2019-07-08T09:00:55.000Z</time>
      </trkpt>
      <trkpt lat="42.15405997820198535919189453125" lon="-3.59814525581896305084228515625">
        <ele>1021.5999755859375</ele>
        <time>2019-07-08T09:00:57.000Z</time>
      </trkpt>
      <trkpt lat="42.1542813442647457122802734375" lon="-3.5983636043965816497802734375">
        <ele>1021.20001220703125</ele>
        <time>2019-07-08T09:00:58.000Z</time>
      </trkpt>
      <trkpt lat="42.15472298674285411834716796875" lon="-3.59880038537085056304931640625">
        <ele>1021.20001220703125</ele>
        <time>2019-07-08T09:01:00.000Z</time>
      </trkpt>
      <trkpt lat="42.15494242496788501739501953125" lon="-3.59901865012943744659423828125">
        <ele>1020</ele>
        <time>2019-07-08T09:01:01.000Z</time>
      </trkpt>
      <trkpt lat="42.15537811629474163055419921875" lon="-3.59944947995245456695556640625">
        <ele>1017.79998779296875</ele>
        <time>2019-07-08T09:01:03.000Z</time>
      </trkpt>
      <trkpt lat="42.15559487231075763702392578125" lon="-3.59966422431170940399169921875">
        <ele>1016</ele>
        <time>2019-07-08T09:01:04.000Z</time>
      </trkpt>
      <trkpt lat="42.1560234390199184417724609375" lon="-3.60010008327662944793701171875">
        <ele>1015.5999755859375</ele>
        <time>2019-07-08T09:01:06.000Z</time>
      </trkpt>
      <trkpt lat="42.15644345618784427642822265625" lon="-3.6005442403256893157958984375">
        <ele>1016</ele>
        <time>2019-07-08T09:01:08.000Z</time>
      </trkpt>
      <trkpt lat="42.15685249306261539459228515625" lon="-3.60099409706890583038330078125">
        <ele>1016</ele>
        <time>2019-07-08T09:01:10.000Z</time>
      </trkpt>
      <trkpt lat="42.1572612784802913665771484375" lon="-3.6014417745172977447509765625">
        <ele>1015.5999755859375</ele>
        <time>2019-07-08T09:01:12.000Z</time>
      </trkpt>
      <trkpt lat="42.15746621601283550262451171875" lon="-3.60167152248322963714599609375">
        <ele>1014.79998779296875</ele>
        <time>2019-07-08T09:01:13.000Z</time>
      </trkpt>
      <trkpt lat="42.157876677811145782470703125" lon="-3.60213822685182094573974609375">
        <ele>1014.79998779296875</ele>
        <time>2019-07-08T09:01:15.000Z</time>
      </trkpt>
      <trkpt lat="42.158295102417469024658203125" lon="-3.6026128940284252166748046875">
        <ele>1015.20001220703125</ele>
        <time>2019-07-08T09:01:17.000Z</time>
      </trkpt>
      <trkpt lat="42.15850791893899440765380859375" lon="-3.60285504721105098724365234375">
        <ele>1016</ele>
        <time>2019-07-08T09:01:18.000Z</time>
      </trkpt>
      <trkpt lat="42.1587237529456615447998046875" lon="-3.603098206222057342529296875">
        <ele>1017.79998779296875</ele>
        <time>2019-07-08T09:01:19.000Z</time>
      </trkpt>
      <trkpt lat="42.15894143097102642059326171875" lon="-3.60334354452788829803466796875">
        <ele>1019.5999755859375</ele>
        <time>2019-07-08T09:01:20.000Z</time>
      </trkpt>
      <trkpt lat="42.15937930159270763397216796875" lon="-3.6038406752049922943115234375">
        <ele>1020.79998779296875</ele>
        <time>2019-07-08T09:01:22.000Z</time>
      </trkpt>
      <trkpt lat="42.159815244376659393310546875" lon="-3.60433478839695453643798828125">
        <ele>1021.4000244140625</ele>
        <time>2019-07-08T09:01:24.000Z</time>
      </trkpt>
      <trkpt lat="42.16024682857096195220947265625" lon="-3.6048247106373310089111328125">
        <ele>1020.79998779296875</ele>
        <time>2019-07-08T09:01:26.000Z</time>
      </trkpt>
      <trkpt lat="42.16067455708980560302734375" lon="-3.6053101904690265655517578125">
        <ele>1019.4000244140625</ele>
        <time>2019-07-08T09:01:28.000Z</time>
      </trkpt>
      <trkpt lat="42.161096669733524322509765625" lon="-3.60579089261591434478759765625">
        <ele>1018.4000244140625</ele>
        <time>2019-07-08T09:01:30.000Z</time>
      </trkpt>
      <trkpt lat="42.16151542961597442626953125" lon="-3.6062697507441043853759765625">
        <ele>1017.20001220703125</ele>
        <time>2019-07-08T09:01:32.000Z</time>
      </trkpt>
      <trkpt lat="42.161935865879058837890625" lon="-3.60674441792070865631103515625">
        <ele>1016.79998779296875</ele>
        <time>2019-07-08T09:01:34.000Z</time>
      </trkpt>
      <trkpt lat="42.162352614104747772216796875" lon="-3.60721363686025142669677734375">
        <ele>1016.20001220703125</ele>
        <time>2019-07-08T09:01:36.000Z</time>
      </trkpt>
      <trkpt lat="42.16255721636116504669189453125" lon="-3.60744045116007328033447265625">
        <ele>1015</ele>
        <time>2019-07-08T09:01:37.000Z</time>
      </trkpt>
      <trkpt lat="42.1627601422369480133056640625" lon="-3.607660643756389617919921875">
        <ele>1013.5999755859375</ele>
        <time>2019-07-08T09:01:38.000Z</time>
      </trkpt>
      <trkpt lat="42.1629609726369380950927734375" lon="-3.60787547193467617034912109375">
        <ele>1012.4000244140625</ele>
        <time>2019-07-08T09:01:39.000Z</time>
      </trkpt>
      <trkpt lat="42.16336104087531566619873046875" lon="-3.60829339362680912017822265625">
        <ele>1011.4000244140625</ele>
        <time>2019-07-08T09:01:41.000Z</time>
      </trkpt>
      <trkpt lat="42.163762785494327545166015625" lon="-3.60871550627052783966064453125">
        <ele>1009.20001220703125</ele>
        <time>2019-07-08T09:01:43.000Z</time>
      </trkpt>
      <trkpt lat="42.164175845682621002197265625" lon="-3.6091360263526439666748046875">
        <ele>1008.20001220703125</ele>
        <time>2019-07-08T09:01:45.000Z</time>
      </trkpt>
      <trkpt lat="42.164578177034854888916015625" lon="-3.60953022725880146026611328125">
        <ele>1009.5999755859375</ele>
        <time>2019-07-08T09:01:47.000Z</time>
      </trkpt>
      <trkpt lat="42.1647674404084682464599609375" lon="-3.6097120307385921478271484375">
        <ele>1010.20001220703125</ele>
        <time>2019-07-08T09:01:48.000Z</time>
      </trkpt>
      <trkpt lat="42.16530061326920986175537109375" lon="-3.610226847231388092041015625">
        <ele>1009.79998779296875</ele>
        <time>2019-07-08T09:01:51.000Z</time>
      </trkpt>
      <trkpt lat="42.165474034845829010009765625" lon="-3.61039356328547000885009765625">
        <ele>1008.20001220703125</ele>
        <time>2019-07-08T09:01:52.000Z</time>
      </trkpt>
      <trkpt lat="42.16564795933663845062255859375" lon="-3.61055910587310791015625">
        <ele>1006.5999755859375</ele>
        <time>2019-07-08T09:01:53.000Z</time>
      </trkpt>
      <trkpt lat="42.1658235602080821990966796875" lon="-3.61072615720331668853759765625">
        <ele>1005.20001220703125</ele>
        <time>2019-07-08T09:01:54.000Z</time>
      </trkpt>
      <trkpt lat="42.16636360622942447662353515625" lon="-3.6112497746944427490234375">
        <ele>1003.4000244140625</ele>
        <time>2019-07-08T09:01:57.000Z</time>
      </trkpt>
      <trkpt lat="42.16689971275627613067626953125" lon="-3.61177456565201282501220703125">
        <ele>1003</ele>
        <time>2019-07-08T09:02:00.000Z</time>
      </trkpt>
      <trkpt lat="42.1670701168477535247802734375" lon="-3.61194019205868244171142578125">
        <ele>1001.79998779296875</ele>
        <time>2019-07-08T09:02:01.000Z</time>
      </trkpt>
      <trkpt lat="42.16723792254924774169921875" lon="-3.612105734646320343017578125">
        <ele>1000.20001220703125</ele>
        <time>2019-07-08T09:02:02.000Z</time>
      </trkpt>
      <trkpt lat="42.1675737015902996063232421875" lon="-3.6124304495751857757568359375">
        <ele>999</ele>
        <time>2019-07-08T09:02:04.000Z</time>
      </trkpt>
      <trkpt lat="42.1677430160343647003173828125" lon="-3.61259213648736476898193359375">
        <ele>997.79998779296875</ele>
        <time>2019-07-08T09:02:05.000Z</time>
      </trkpt>
      <trkpt lat="42.1679116599261760711669921875" lon="-3.6127543263137340545654296875">
        <ele>995.79998779296875</ele>
        <time>2019-07-08T09:02:06.000Z</time>
      </trkpt>
      <trkpt lat="42.16842002235352993011474609375" lon="-3.61324743367731571197509765625">
        <ele>995.5999755859375</ele>
        <time>2019-07-08T09:02:09.000Z</time>
      </trkpt>
      <trkpt lat="42.16894841752946376800537109375" lon="-3.6137578077614307403564453125">
        <ele>996.4000244140625</ele>
        <time>2019-07-08T09:02:12.000Z</time>
      </trkpt>
      <trkpt lat="42.16913147829473018646240234375" lon="-3.6139334924519062042236328125">
        <ele>997</ele>
        <time>2019-07-08T09:02:13.000Z</time>
      </trkpt>
      <trkpt lat="42.16950564645230770111083984375" lon="-3.61430103890597820281982421875">
        <ele>997.4000244140625</ele>
        <time>2019-07-08T09:02:15.000Z</time>
      </trkpt>
      <trkpt lat="42.16989808715879917144775390625" lon="-3.61467168666422367095947265625">
        <ele>997</ele>
        <time>2019-07-08T09:02:17.000Z</time>
      </trkpt>
      <trkpt lat="42.1703051961958408355712890625" lon="-3.61505918204784393310546875">
        <ele>995.5999755859375</ele>
        <time>2019-07-08T09:02:19.000Z</time>
      </trkpt>
      <trkpt lat="42.17051298357546329498291015625" lon="-3.61525976099073886871337890625">
        <ele>994</ele>
        <time>2019-07-08T09:02:20.000Z</time>
      </trkpt>
      <trkpt lat="42.17093911953270435333251953125" lon="-3.61567072570323944091796875">
        <ele>993.4000244140625</ele>
        <time>2019-07-08T09:02:22.000Z</time>
      </trkpt>
      <trkpt lat="42.171156965196132659912109375" lon="-3.61588262021541595458984375">
        <ele>992.79998779296875</ele>
        <time>2019-07-08T09:02:23.000Z</time>
      </trkpt>
      <trkpt lat="42.17137866653501987457275390625" lon="-3.6160960234701633453369140625">
        <ele>991.4000244140625</ele>
        <time>2019-07-08T09:02:24.000Z</time>
      </trkpt>
      <trkpt lat="42.17182223685085773468017578125" lon="-3.6165228299796581268310546875">
        <ele>992.4000244140625</ele>
        <time>2019-07-08T09:02:26.000Z</time>
      </trkpt>
      <trkpt lat="42.1722605265676975250244140625" lon="-3.6169486306607723236083984375">
        <ele>992.4000244140625</ele>
        <time>2019-07-08T09:02:28.000Z</time>
      </trkpt>
      <trkpt lat="42.1726967208087444305419921875" lon="-3.61737267114222049713134765625">
        <ele>990.4000244140625</ele>
        <time>2019-07-08T09:02:30.000Z</time>
      </trkpt>
      <trkpt lat="42.173135764896869659423828125" lon="-3.617798052728176116943359375">
        <ele>989</ele>
        <time>2019-07-08T09:02:32.000Z</time>
      </trkpt>
      <trkpt lat="42.173576317727565765380859375" lon="-3.618222177028656005859375">
        <ele>987.4000244140625</ele>
        <time>2019-07-08T09:02:34.000Z</time>
      </trkpt>
      <trkpt lat="42.17401578091084957122802734375" lon="-3.6186441220343112945556640625">
        <ele>987</ele>
        <time>2019-07-08T09:02:36.000Z</time>
      </trkpt>
      <trkpt lat="42.17444501817226409912109375" lon="-3.6190603673458099365234375">
        <ele>987.79998779296875</ele>
        <time>2019-07-08T09:02:38.000Z</time>
      </trkpt>
      <trkpt lat="42.17486537061631679534912109375" lon="-3.6194678954780101776123046875">
        <ele>988</ele>
        <time>2019-07-08T09:02:40.000Z</time>
      </trkpt>
      <trkpt lat="42.17527784407138824462890625" lon="-3.6198782734572887420654296875">
        <ele>987.4000244140625</ele>
        <time>2019-07-08T09:02:42.000Z</time>
      </trkpt>
      <trkpt lat="42.175672464072704315185546875" lon="-3.62031354568898677825927734375">
        <ele>986</ele>
        <time>2019-07-08T09:02:44.000Z</time>
      </trkpt>
      <trkpt lat="42.17602618038654327392578125" lon="-3.62080581486225128173828125">
        <ele>985.4000244140625</ele>
        <time>2019-07-08T09:02:46.000Z</time>
      </trkpt>
      <trkpt lat="42.1761792339384555816650390625" lon="-3.62108166329562664031982421875">
        <ele>985.79998779296875</ele>
        <time>2019-07-08T09:02:47.000Z</time>
      </trkpt>
      <trkpt lat="42.1764202974736690521240234375" lon="-3.62168784253299236297607421875">
        <ele>989.20001220703125</ele>
        <time>2019-07-08T09:02:49.000Z</time>
      </trkpt>
      <trkpt lat="42.17650772072374820709228515625" lon="-3.6220106296241283416748046875">
        <ele>990.5999755859375</ele>
        <time>2019-07-08T09:02:50.000Z</time>
      </trkpt>
      <trkpt lat="42.17657175846397876739501953125" lon="-3.6223398707807064056396484375">
        <ele>992.4000244140625</ele>
        <time>2019-07-08T09:02:51.000Z</time>
      </trkpt>
      <trkpt lat="42.17664166353642940521240234375" lon="-3.62300614826381206512451171875">
        <ele>993.79998779296875</ele>
        <time>2019-07-08T09:02:53.000Z</time>
      </trkpt>
      <trkpt lat="42.17665876261889934539794921875" lon="-3.6236910335719585418701171875">
        <ele>993.5999755859375</ele>
        <time>2019-07-08T09:02:55.000Z</time>
      </trkpt>
      <trkpt lat="42.17665725387632846832275390625" lon="-3.62439603544771671295166015625">
        <ele>993.4000244140625</ele>
        <time>2019-07-08T09:02:57.000Z</time>
      </trkpt>
      <trkpt lat="42.17666178010404109954833984375" lon="-3.62511034123599529266357421875">
        <ele>993.20001220703125</ele>
        <time>2019-07-08T09:02:59.000Z</time>
      </trkpt>
      <trkpt lat="42.17666815035045146942138671875" lon="-3.62582749687135219573974609375">
        <ele>992.5999755859375</ele>
        <time>2019-07-08T09:03:01.000Z</time>
      </trkpt>
      <trkpt lat="42.17667183838784694671630859375" lon="-3.62618632614612579345703125">
        <ele>991.4000244140625</ele>
        <time>2019-07-08T09:03:02.000Z</time>
      </trkpt>
      <trkpt lat="42.17667619697749614715576171875" lon="-3.6265395395457744598388671875">
        <ele>987.5999755859375</ele>
        <time>2019-07-08T09:03:03.000Z</time>
      </trkpt>
      <trkpt lat="42.17668072320520877838134765625" lon="-3.62688101828098297119140625">
        <ele>983</ele>
        <time>2019-07-08T09:03:04.000Z</time>
      </trkpt>
      <trkpt lat="42.17668541707098484039306640625" lon="-3.6272094212472438812255859375">
        <ele>976.4000244140625</ele>
        <time>2019-07-08T09:03:05.000Z</time>
      </trkpt>
      <trkpt lat="42.1766901947557926177978515625" lon="-3.62752449698746204376220703125">
        <ele>972</ele>
        <time>2019-07-08T09:03:06.000Z</time>
      </trkpt>
      <trkpt lat="42.1766942180693149566650390625" lon="-3.62783010117709636688232421875">
        <ele>969.4000244140625</ele>
        <time>2019-07-08T09:03:07.000Z</time>
      </trkpt>
      <trkpt lat="42.17670234851539134979248046875" lon="-3.6281240545213222503662109375">
        <ele>967.79998779296875</ele>
        <time>2019-07-08T09:03:08.000Z</time>
      </trkpt>
      <trkpt lat="42.176774181425571441650390625" lon="-3.62894556485116481781005859375">
        <ele>967.5999755859375</ele>
        <time>2019-07-08T09:03:11.000Z</time>
      </trkpt>
      <trkpt lat="42.17688825912773609161376953125" lon="-3.62947546876966953277587890625">
        <ele>969</ele>
        <time>2019-07-08T09:03:13.000Z</time>
      </trkpt>
      <trkpt lat="42.1772041730582714080810546875" lon="-3.63026286475360393524169921875">
        <ele>966.79998779296875</ele>
        <time>2019-07-08T09:03:16.000Z</time>
      </trkpt>
      <trkpt lat="42.177337445318698883056640625" lon="-3.63049772568047046661376953125">
        <ele>964.4000244140625</ele>
        <time>2019-07-08T09:03:17.000Z</time>
      </trkpt>
      <trkpt lat="42.1774827875196933746337890625" lon="-3.630708865821361541748046875">
        <ele>962.79998779296875</ele>
        <time>2019-07-08T09:03:18.000Z</time>
      </trkpt>
      <trkpt lat="42.17763626016676425933837890625" lon="-3.63089821301400661468505859375">
        <ele>960.79998779296875</ele>
        <time>2019-07-08T09:03:19.000Z</time>
      </trkpt>
      <trkpt lat="42.1781136095523834228515625" lon="-3.6313621513545513153076171875">
        <ele>960.79998779296875</ele>
        <time>2019-07-08T09:03:22.000Z</time>
      </trkpt>
      <trkpt lat="42.1786036156117916107177734375" lon="-3.6317554302513599395751953125">
        <ele>961.5999755859375</ele>
        <time>2019-07-08T09:03:25.000Z</time>
      </trkpt>
      <trkpt lat="42.1791229583323001861572265625" lon="-3.632175028324127197265625">
        <ele>961</ele>
        <time>2019-07-08T09:03:28.000Z</time>
      </trkpt>
      <trkpt lat="42.17948530800640583038330078125" lon="-3.6324735917150974273681640625">
        <ele>959.79998779296875</ele>
        <time>2019-07-08T09:03:30.000Z</time>
      </trkpt>
      <trkpt lat="42.18003717251121997833251953125" lon="-3.63292193971574306488037109375">
        <ele>959.4000244140625</ele>
        <time>2019-07-08T09:03:33.000Z</time>
      </trkpt>
      <trkpt lat="42.18041519634425640106201171875" lon="-3.6332259513437747955322265625">
        <ele>958.79998779296875</ele>
        <time>2019-07-08T09:03:35.000Z</time>
      </trkpt>
      <trkpt lat="42.18098751269280910491943359375" lon="-3.6336923204362392425537109375">
        <ele>957</ele>
        <time>2019-07-08T09:03:38.000Z</time>
      </trkpt>
      <trkpt lat="42.18155630864202976226806640625" lon="-3.63416899926960468292236328125">
        <ele>955.4000244140625</ele>
        <time>2019-07-08T09:03:41.000Z</time>
      </trkpt>
      <trkpt lat="42.18174288980662822723388671875" lon="-3.63433881662786006927490234375">
        <ele>953.5999755859375</ele>
        <time>2019-07-08T09:03:42.000Z</time>
      </trkpt>
      <trkpt lat="42.1819262020289897918701171875" lon="-3.63451902754604816436767578125">
        <ele>951.4000244140625</ele>
        <time>2019-07-08T09:03:43.000Z</time>
      </trkpt>
      <trkpt lat="42.18210783787071704864501953125" lon="-3.63471013493835926055908203125">
        <ele>949</ele>
        <time>2019-07-08T09:03:44.000Z</time>
      </trkpt>
      <trkpt lat="42.18228737823665142059326171875" lon="-3.6349083669483661651611328125">
        <ele>948</ele>
        <time>2019-07-08T09:03:45.000Z</time>
      </trkpt>
      <trkpt lat="42.1826292760670185089111328125" lon="-3.63531497307121753692626953125">
        <ele>947</ele>
        <time>2019-07-08T09:03:47.000Z</time>
      </trkpt>
      <trkpt lat="42.18312053941190242767333984375" lon="-3.63593221642076969146728515625">
        <ele>948.5999755859375</ele>
        <time>2019-07-08T09:03:50.000Z</time>
      </trkpt>
      <trkpt lat="42.1834540553390979766845703125" lon="-3.63634678535163402557373046875">
        <ele>948</ele>
        <time>2019-07-08T09:03:52.000Z</time>
      </trkpt>
      <trkpt lat="42.18391799367964267730712890625" lon="-3.63692446611821651458740234375">
        <ele>945.79998779296875</ele>
        <time>2019-07-08T09:03:55.000Z</time>
      </trkpt>
      <trkpt lat="42.184060402214527130126953125" lon="-3.63710165955126285552978515625">
        <ele>944.20001220703125</ele>
        <time>2019-07-08T09:03:56.000Z</time>
      </trkpt>
      <trkpt lat="42.184198200702667236328125" lon="-3.63727197982370853424072265625">
        <ele>942.5999755859375</ele>
        <time>2019-07-08T09:03:57.000Z</time>
      </trkpt>
      <trkpt lat="42.1843314729630947113037109375" lon="-3.63743953406810760498046875">
        <ele>941.20001220703125</ele>
        <time>2019-07-08T09:03:58.000Z</time>
      </trkpt>
      <trkpt lat="42.184463404119014739990234375" lon="-3.637606166303157806396484375">
        <ele>939.5999755859375</ele>
        <time>2019-07-08T09:03:59.000Z</time>
      </trkpt>
      <trkpt lat="42.184596844017505645751953125" lon="-3.6377756483852863311767578125">
        <ele>938.20001220703125</ele>
        <time>2019-07-08T09:04:00.000Z</time>
      </trkpt>
      <trkpt lat="42.184874117374420166015625" lon="-3.6381256766617298126220703125">
        <ele>937</ele>
        <time>2019-07-08T09:04:02.000Z</time>
      </trkpt>
      <trkpt lat="42.18516823835670948028564453125" lon="-3.638485260307788848876953125">
        <ele>935.4000244140625</ele>
        <time>2019-07-08T09:04:04.000Z</time>
      </trkpt>
      <trkpt lat="42.1853260695934295654296875" lon="-3.6386604420840740203857421875">
        <ele>934.20001220703125</ele>
        <time>2019-07-08T09:04:05.000Z</time>
      </trkpt>
      <trkpt lat="42.18548767268657684326171875" lon="-3.6388274095952510833740234375">
        <ele>932.79998779296875</ele>
        <time>2019-07-08T09:04:06.000Z</time>
      </trkpt>
      <trkpt lat="42.1859977953135967254638671875" lon="-3.63924792967736721038818359375">
        <ele>932.79998779296875</ele>
        <time>2019-07-08T09:04:09.000Z</time>
      </trkpt>
      <trkpt lat="42.18655292876064777374267578125" lon="-3.63957817666232585906982421875">
        <ele>931.79998779296875</ele>
        <time>2019-07-08T09:04:12.000Z</time>
      </trkpt>
      <trkpt lat="42.1869499795138835906982421875" lon="-3.6397712118923664093017578125">
        <ele>932.20001220703125</ele>
        <time>2019-07-08T09:04:14.000Z</time>
      </trkpt>
      <trkpt lat="42.1871508099138736724853515625" lon="-3.63986332900822162628173828125">
        <ele>931.5999755859375</ele>
        <time>2019-07-08T09:04:15.000Z</time>
      </trkpt>
      <trkpt lat="42.18734870664775371551513671875" lon="-3.6399546079337596893310546875">
        <ele>929.79998779296875</ele>
        <time>2019-07-08T09:04:16.000Z</time>
      </trkpt>
      <trkpt lat="42.18791264109313488006591796875" lon="-3.640205226838588714599609375">
        <ele>930</ele>
        <time>2019-07-08T09:04:19.000Z</time>
      </trkpt>
      <trkpt lat="42.18846601434051990509033203125" lon="-3.64044821821153163909912109375">
        <ele>929.79998779296875</ele>
        <time>2019-07-08T09:04:22.000Z</time>
      </trkpt>
      <trkpt lat="42.18901821412146091461181640625" lon="-3.64070353098213672637939453125">
        <ele>931</ele>
        <time>2019-07-08T09:04:25.000Z</time>
      </trkpt>
      <trkpt lat="42.1895604394376277923583984375" lon="-3.64095917902886867523193359375">
        <ele>929.4000244140625</ele>
        <time>2019-07-08T09:04:28.000Z</time>
      </trkpt>
      <trkpt lat="42.1900868229568004608154296875" lon="-3.641215078532695770263671875">
        <ele>930</ele>
        <time>2019-07-08T09:04:31.000Z</time>
      </trkpt>
      <trkpt lat="42.19044347293674945831298828125" lon="-3.6413862369954586029052734375">
        <ele>931</ele>
        <time>2019-07-08T09:04:33.000Z</time>
      </trkpt>
      <trkpt lat="42.1906236000359058380126953125" lon="-3.641477264463901519775390625">
        <ele>932.4000244140625</ele>
        <time>2019-07-08T09:04:34.000Z</time>
      </trkpt>
      <trkpt lat="42.1908046491444110870361328125" lon="-3.64157172851264476776123046875">
        <ele>933.4000244140625</ele>
        <time>2019-07-08T09:04:35.000Z</time>
      </trkpt>
      <trkpt lat="42.19135760329663753509521484375" lon="-3.64186920225620269775390625">
        <ele>933.20001220703125</ele>
        <time>2019-07-08T09:04:38.000Z</time>
      </trkpt>
      <trkpt lat="42.191911228001117706298828125" lon="-3.642155863344669342041015625">
        <ele>932.4000244140625</ele>
        <time>2019-07-08T09:04:41.000Z</time>
      </trkpt>
      <trkpt lat="42.192094288766384124755859375" lon="-3.6422435380518436431884765625">
        <ele>931.20001220703125</ele>
        <time>2019-07-08T09:04:42.000Z</time>
      </trkpt>
      <trkpt lat="42.19246921129524707794189453125" lon="-3.6424208991229534149169921875">
        <ele>933</ele>
        <time>2019-07-08T09:04:44.000Z</time>
      </trkpt>
      <trkpt lat="42.19286508858203887939453125" lon="-3.64261594600975513458251953125">
        <ele>931.20001220703125</ele>
        <time>2019-07-08T09:04:46.000Z</time>
      </trkpt>
      <trkpt lat="42.19328393228352069854736328125" lon="-3.64284695126116275787353515625">
        <ele>929.79998779296875</ele>
        <time>2019-07-08T09:04:48.000Z</time>
      </trkpt>
      <trkpt lat="42.193714343011379241943359375" lon="-3.6431236378848552703857421875">
        <ele>927</ele>
        <time>2019-07-08T09:04:50.000Z</time>
      </trkpt>
      <trkpt lat="42.19393051229417324066162109375" lon="-3.64327736198902130126953125">
        <ele>924.4000244140625</ele>
        <time>2019-07-08T09:04:51.000Z</time>
      </trkpt>
      <trkpt lat="42.19414743594825267791748046875" lon="-3.643436618149280548095703125">
        <ele>923.20001220703125</ele>
        <time>2019-07-08T09:04:52.000Z</time>
      </trkpt>
      <trkpt lat="42.19458111561834812164306640625" lon="-3.64376393146812915802001953125">
        <ele>920.20001220703125</ele>
        <time>2019-07-08T09:04:54.000Z</time>
      </trkpt>
      <trkpt lat="42.19501647166907787322998046875" lon="-3.6440892331302165985107421875">
        <ele>920.79998779296875</ele>
        <time>2019-07-08T09:04:56.000Z</time>
      </trkpt>
      <trkpt lat="42.19523347914218902587890625" lon="-3.64425092004239559173583984375">
        <ele>923</ele>
        <time>2019-07-08T09:04:57.000Z</time>
      </trkpt>
      <trkpt lat="42.1954500675201416015625" lon="-3.644412942230701446533203125">
        <ele>924</ele>
        <time>2019-07-08T09:04:58.000Z</time>
      </trkpt>
      <trkpt lat="42.1958767063915729522705078125" lon="-3.64473170600831508636474609375">
        <ele>923.5999755859375</ele>
        <time>2019-07-08T09:05:00.000Z</time>
      </trkpt>
      <trkpt lat="42.1962931193411350250244140625" lon="-3.64504032768309116363525390625">
        <ele>925</ele>
        <time>2019-07-08T09:05:02.000Z</time>
      </trkpt>
      <trkpt lat="42.19669251702725887298583984375" lon="-3.64533235318958759307861328125">
        <ele>924.4000244140625</ele>
        <time>2019-07-08T09:05:04.000Z</time>
      </trkpt>
      <trkpt lat="42.1972724609076976776123046875" lon="-3.64576485939323902130126953125">
        <ele>924.20001220703125</ele>
        <time>2019-07-08T09:05:07.000Z</time>
      </trkpt>
      <trkpt lat="42.19784863293170928955078125" lon="-3.64620004780590534210205078125">
        <ele>924</ele>
        <time>2019-07-08T09:05:10.000Z</time>
      </trkpt>
      <trkpt lat="42.19843695871531963348388671875" lon="-3.64664127118885517120361328125">
        <ele>924.5999755859375</ele>
        <time>2019-07-08T09:05:13.000Z</time>
      </trkpt>
      <trkpt lat="42.19863628037273883819580078125" lon="-3.64679113961756229400634765625">
        <ele>925.20001220703125</ele>
        <time>2019-07-08T09:05:14.000Z</time>
      </trkpt>
      <trkpt lat="42.19904548488557338714599609375" lon="-3.6470798961818218231201171875">
        <ele>925.4000244140625</ele>
        <time>2019-07-08T09:05:16.000Z</time>
      </trkpt>
      <trkpt lat="42.19946742989122867584228515625" lon="-3.6473333649337291717529296875">
        <ele>925.4000244140625</ele>
        <time>2019-07-08T09:05:18.000Z</time>
      </trkpt>
      <trkpt lat="42.19989306293427944183349609375" lon="-3.64755774848163127899169921875">
        <ele>922.79998779296875</ele>
        <time>2019-07-08T09:05:20.000Z</time>
      </trkpt>
      <trkpt lat="42.20010562799870967864990234375" lon="-3.64765900187194347381591796875">
        <ele>920.79998779296875</ele>
        <time>2019-07-08T09:05:21.000Z</time>
      </trkpt>
      <trkpt lat="42.2003181092441082000732421875" lon="-3.64775530993938446044921875">
        <ele>919.20001220703125</ele>
        <time>2019-07-08T09:05:22.000Z</time>
      </trkpt>
      <trkpt lat="42.20053427852690219879150390625" lon="-3.64784943871200084686279296875">
        <ele>918.20001220703125</ele>
        <time>2019-07-08T09:05:23.000Z</time>
      </trkpt>
      <trkpt lat="42.20075455494225025177001953125" lon="-3.64794281311333179473876953125">
        <ele>916.4000244140625</ele>
        <time>2019-07-08T09:05:24.000Z</time>
      </trkpt>
      <trkpt lat="42.20120139420032501220703125" lon="-3.64812520332634449005126953125">
        <ele>916.5999755859375</ele>
        <time>2019-07-08T09:05:26.000Z</time>
      </trkpt>
      <trkpt lat="42.20164789818227291107177734375" lon="-3.648277334868907928466796875">
        <ele>918.5999755859375</ele>
        <time>2019-07-08T09:05:28.000Z</time>
      </trkpt>
      <trkpt lat="42.201866917312145233154296875" lon="-3.64833709783852100372314453125">
        <ele>919.5999755859375</ele>
        <time>2019-07-08T09:05:29.000Z</time>
      </trkpt>
      <trkpt lat="42.20207856036722660064697265625" lon="-3.6483874730765819549560546875">
        <ele>921.4000244140625</ele>
        <time>2019-07-08T09:05:30.000Z</time>
      </trkpt>
      <trkpt lat="42.20228441990911960601806640625" lon="-3.64842812530696392059326171875">
        <ele>923.4000244140625</ele>
        <time>2019-07-08T09:05:31.000Z</time>
      </trkpt>
      <trkpt lat="42.2026745975017547607421875" lon="-3.64849501289427280426025390625">
        <ele>924.5999755859375</ele>
        <time>2019-07-08T09:05:33.000Z</time>
      </trkpt>
      <trkpt lat="42.20305236987769603729248046875" lon="-3.64854865707457065582275390625">
        <ele>923.5999755859375</ele>
        <time>2019-07-08T09:05:35.000Z</time>
      </trkpt>
      <trkpt lat="42.203240878880023956298828125" lon="-3.6485789157450199127197265625">
        <ele>922</ele>
        <time>2019-07-08T09:05:36.000Z</time>
      </trkpt>
      <trkpt lat="42.20342000015079975128173828125" lon="-3.64860691130161285400390625">
        <ele>920.79998779296875</ele>
        <time>2019-07-08T09:05:37.000Z</time>
      </trkpt>
      <trkpt lat="42.20358244143426418304443359375" lon="-3.64862836897373199462890625">
        <ele>919.20001220703125</ele>
        <time>2019-07-08T09:05:38.000Z</time>
      </trkpt>
      <trkpt lat="42.20373314805328845977783203125" lon="-3.64864605478942394256591796875">
        <ele>917.4000244140625</ele>
        <time>2019-07-08T09:05:39.000Z</time>
      </trkpt>
      <trkpt lat="42.20387756824493408203125" lon="-3.64866516552865505218505859375">
        <ele>915.79998779296875</ele>
        <time>2019-07-08T09:05:40.000Z</time>
      </trkpt>
      <trkpt lat="42.20402081497013568878173828125" lon="-3.64868628792464733123779296875">
        <ele>914.20001220703125</ele>
        <time>2019-07-08T09:05:41.000Z</time>
      </trkpt>
      <trkpt lat="42.20416657626628875732421875" lon="-3.648709170520305633544921875">
        <ele>912.20001220703125</ele>
        <time>2019-07-08T09:05:42.000Z</time>
      </trkpt>
      <trkpt lat="42.20431367866694927215576171875" lon="-3.6487338133156299591064453125">
        <ele>910.5999755859375</ele>
        <time>2019-07-08T09:05:43.000Z</time>
      </trkpt>
      <trkpt lat="42.2047722525894641876220703125" lon="-3.64881101064383983612060546875">
        <ele>911.4000244140625</ele>
        <time>2019-07-08T09:05:46.000Z</time>
      </trkpt>
      <trkpt lat="42.20509068109095096588134765625" lon="-3.64885895512998104095458984375">
        <ele>912.20001220703125</ele>
        <time>2019-07-08T09:05:48.000Z</time>
      </trkpt>
      <trkpt lat="42.20538941211998462677001953125" lon="-3.64890589378774166107177734375">
        <ele>913.79998779296875</ele>
        <time>2019-07-08T09:05:50.000Z</time>
      </trkpt>
      <trkpt lat="42.205946557223796844482421875" lon="-3.6489943228662014007568359375">
        <ele>914.4000244140625</ele>
        <time>2019-07-08T09:05:54.000Z</time>
      </trkpt>
      <trkpt lat="42.20650303177535533905029296875" lon="-3.649093396961688995361328125">
        <ele>913.79998779296875</ele>
        <time>2019-07-08T09:05:58.000Z</time>
      </trkpt>
      <trkpt lat="42.2070745937526226043701171875" lon="-3.6492591910064220428466796875">
        <ele>912</ele>
        <time>2019-07-08T09:06:02.000Z</time>
      </trkpt>
      <trkpt lat="42.207649089395999908447265625" lon="-3.6494792997837066650390625">
        <ele>911.79998779296875</ele>
        <time>2019-07-08T09:06:05.000Z</time>
      </trkpt>
      <trkpt lat="42.20806919038295745849609375" lon="-3.649668060243129730224609375">
        <ele>910.20001220703125</ele>
        <time>2019-07-08T09:06:07.000Z</time>
      </trkpt>
      <trkpt lat="42.20828217454254627227783203125" lon="-3.6497731693089008331298828125">
        <ele>909</ele>
        <time>2019-07-08T09:06:08.000Z</time>
      </trkpt>
      <trkpt lat="42.208713591098785400390625" lon="-3.6499880813062191009521484375">
        <ele>907.5999755859375</ele>
        <time>2019-07-08T09:06:10.000Z</time>
      </trkpt>
      <trkpt lat="42.20933980308473110198974609375" lon="-3.65029259584844112396240234375">
        <ele>906.79998779296875</ele>
        <time>2019-07-08T09:06:13.000Z</time>
      </trkpt>
      <trkpt lat="42.20994195900857448577880859375" lon="-3.65058328025043010711669921875">
        <ele>906.79998779296875</ele>
        <time>2019-07-08T09:06:16.000Z</time>
      </trkpt>
      <trkpt lat="42.2105329670011997222900390625" lon="-3.6508745513856410980224609375">
        <ele>906.79998779296875</ele>
        <time>2019-07-08T09:06:19.000Z</time>
      </trkpt>
      <trkpt lat="42.2109661437571048736572265625" lon="-3.651088289916515350341796875">
        <ele>908.4000244140625</ele>
        <time>2019-07-08T09:06:21.000Z</time>
      </trkpt>
      <trkpt lat="42.211198322474956512451171875" lon="-3.6512007750570774078369140625">
        <ele>909.4000244140625</ele>
        <time>2019-07-08T09:06:22.000Z</time>
      </trkpt>
      <trkpt lat="42.2114325128495693206787109375" lon="-3.65131569094955921173095703125">
        <ele>911.20001220703125</ele>
        <time>2019-07-08T09:06:23.000Z</time>
      </trkpt>
      <trkpt lat="42.2116668708622455596923828125" lon="-3.6514327861368656158447265625">
        <ele>912.79998779296875</ele>
        <time>2019-07-08T09:06:24.000Z</time>
      </trkpt>
      <trkpt lat="42.21190215088427066802978515625" lon="-3.651551306247711181640625">
        <ele>914.20001220703125</ele>
        <time>2019-07-08T09:06:25.000Z</time>
      </trkpt>
      <trkpt lat="42.2121389396488666534423828125" lon="-3.65166890434920787811279296875">
        <ele>915.20001220703125</ele>
        <time>2019-07-08T09:06:26.000Z</time>
      </trkpt>
      <trkpt lat="42.21261947415769100189208984375" lon="-3.65190745331346988677978515625">
        <ele>916</ele>
        <time>2019-07-08T09:06:28.000Z</time>
      </trkpt>
      <trkpt lat="42.21311015076935291290283203125" lon="-3.6521482653915882110595703125">
        <ele>912.20001220703125</ele>
        <time>2019-07-08T09:06:30.000Z</time>
      </trkpt>
      <trkpt lat="42.21335607580840587615966796875" lon="-3.6522666178643703460693359375">
        <ele>908.79998779296875</ele>
        <time>2019-07-08T09:06:31.000Z</time>
      </trkpt>
      <trkpt lat="42.21360015682876110076904296875" lon="-3.652383796870708465576171875">
        <ele>907</ele>
        <time>2019-07-08T09:06:32.000Z</time>
      </trkpt>
      <trkpt lat="42.21384256146848201751708984375" lon="-3.65249536000192165374755859375">
        <ele>905.4000244140625</ele>
        <time>2019-07-08T09:06:33.000Z</time>
      </trkpt>
      <trkpt lat="42.214323095977306365966796875" lon="-3.65269015543162822723388671875">
        <ele>904</ele>
        <time>2019-07-08T09:06:35.000Z</time>
      </trkpt>
      <trkpt lat="42.2147862799465656280517578125" lon="-3.6528352461755275726318359375">
        <ele>903.79998779296875</ele>
        <time>2019-07-08T09:06:37.000Z</time>
      </trkpt>
      <trkpt lat="42.215442918241024017333984375" lon="-3.65294144488871097564697265625">
        <ele>903.20001220703125</ele>
        <time>2019-07-08T09:06:40.000Z</time>
      </trkpt>
      <trkpt lat="42.216057144105434417724609375" lon="-3.65295200608670711517333984375">
        <ele>903.4000244140625</ele>
        <time>2019-07-08T09:06:43.000Z</time>
      </trkpt>
      <trkpt lat="42.216635830700397491455078125" lon="-3.6529039777815341949462890625">
        <ele>904</ele>
        <time>2019-07-08T09:06:46.000Z</time>
      </trkpt>
      <trkpt lat="42.2171744517982006072998046875" lon="-3.6528483219444751739501953125">
        <ele>905.20001220703125</ele>
        <time>2019-07-08T09:06:49.000Z</time>
      </trkpt>
      <trkpt lat="42.21773226745426654815673828125" lon="-3.652778081595897674560546875">
        <ele>906</ele>
        <time>2019-07-08T09:06:53.000Z</time>
      </trkpt>
      <trkpt lat="42.21801892854273319244384765625" lon="-3.6527339927852153778076171875">
        <ele>906.4000244140625</ele>
        <time>2019-07-08T09:06:57.000Z</time>
      </trkpt>
      <trkpt lat="42.218053378164768218994140625" lon="-3.6527065001428127288818359375">
        <ele>906.5999755859375</ele>
        <time>2019-07-08T09:06:59.000Z</time>
      </trkpt>
      <trkpt lat="42.218065448105335235595703125" lon="-3.65262896753847599029541015625">
        <ele>907.20001220703125</ele>
        <time>2019-07-08T09:07:02.000Z</time>
      </trkpt>
      <trkpt lat="42.2180444933474063873291015625" lon="-3.65256057120859622955322265625">
        <ele>907.5999755859375</ele>
        <time>2019-07-08T09:07:30.000Z</time>
      </trkpt>
      <trkpt lat="42.2180582396686077117919921875" lon="-3.6525546200573444366455078125">
        <ele>906.4000244140625</ele>
        <time>2019-07-08T09:08:11.000Z</time>
      </trkpt>
      <trkpt lat="42.2180582396686077117919921875" lon="-3.6525546200573444366455078125">
        <ele>906.20001220703125</ele>
        <time>2019-07-08T09:08:15.000Z</time>
      </trkpt>
      <trkpt lat="42.2180582396686077117919921875" lon="-3.6525546200573444366455078125">
        <ele>905.4000244140625</ele>
        <time>2019-07-08T09:08:32.000Z</time>
      </trkpt>
      <trkpt lat="42.2180498577654361724853515625" lon="-3.6525603197515010833740234375">
        <ele>906.20001220703125</ele>
        <time>2019-07-08T09:08:59.000Z</time>
      </trkpt>
      <trkpt lat="42.2180498577654361724853515625" lon="-3.6525603197515010833740234375">
        <ele>906.4000244140625</ele>
        <time>2019-07-08T09:09:06.000Z</time>
      </trkpt>
      <trkpt lat="42.21804030239582061767578125" lon="-3.65258462727069854736328125">
        <ele>907.4000244140625</ele>
        <time>2019-07-08T09:10:38.000Z</time>
      </trkpt>
      <trkpt lat="42.2179968841373920440673828125" lon="-3.65259133279323577880859375">
        <ele>906.4000244140625</ele>
        <time>2019-07-08T09:12:06.000Z</time>
      </trkpt>
      <trkpt lat="42.2179926931858062744140625" lon="-3.652580268681049346923828125">
        <ele>907.5999755859375</ele>
        <time>2019-07-08T09:12:41.000Z</time>
      </trkpt>
      <trkpt lat="42.217988669872283935546875" lon="-3.65257079713046550750732421875">
        <ele>908</ele>
        <time>2019-07-08T09:13:36.000Z</time>
      </trkpt>
      <trkpt lat="42.218056730926036834716796875" lon="-3.6525036580860614776611328125">
        <ele>907.4000244140625</ele>
        <time>2019-07-08T09:14:39.000Z</time>
      </trkpt>
      <trkpt lat="42.21800945699214935302734375" lon="-3.65259468555450439453125">
        <ele>907.5999755859375</ele>
        <time>2019-07-08T09:14:55.000Z</time>
      </trkpt>
      <trkpt lat="42.217970229685306549072265625" lon="-3.6527328193187713623046875">
        <ele>908.5999755859375</ele>
        <time>2019-07-08T09:15:04.000Z</time>
      </trkpt>
      <trkpt lat="42.21804591827094554901123046875" lon="-3.65278772078454494476318359375">
        <ele>908.5999755859375</ele>
        <time>2019-07-08T09:15:34.000Z</time>
      </trkpt>
      <trkpt lat="42.21831698901951313018798828125" lon="-3.6527504213154315948486328125">
        <ele>907.4000244140625</ele>
        <time>2019-07-08T09:15:37.000Z</time>
      </trkpt>
      <trkpt lat="42.21844154410064220428466796875" lon="-3.65273885428905487060546875">
        <ele>906.4000244140625</ele>
        <time>2019-07-08T09:15:38.000Z</time>
      </trkpt>
      <trkpt lat="42.2187086753547191619873046875" lon="-3.6527296341955661773681640625">
        <ele>904.5999755859375</ele>
        <time>2019-07-08T09:15:40.000Z</time>
      </trkpt>
      <trkpt lat="42.2188508324325084686279296875" lon="-3.65273416042327880859375">
        <ele>903.4000244140625</ele>
        <time>2019-07-08T09:15:41.000Z</time>
      </trkpt>
      <trkpt lat="42.21914629451930522918701171875" lon="-3.652770034968852996826171875">
        <ele>901.79998779296875</ele>
        <time>2019-07-08T09:15:43.000Z</time>
      </trkpt>
      <trkpt lat="42.21960377879440784454345703125" lon="-3.65289517678320407867431640625">
        <ele>901.5999755859375</ele>
        <time>2019-07-08T09:15:46.000Z</time>
      </trkpt>
      <trkpt lat="42.2199200280010700225830078125" lon="-3.65300497971475124359130859375">
        <ele>900</ele>
        <time>2019-07-08T09:15:48.000Z</time>
      </trkpt>
      <trkpt lat="42.22008439712226390838623046875" lon="-3.65306801162660121917724609375">
        <ele>898.79998779296875</ele>
        <time>2019-07-08T09:15:49.000Z</time>
      </trkpt>
      <trkpt lat="42.22062150947749614715576171875" lon="-3.65328158251941204071044921875">
        <ele>897</ele>
        <time>2019-07-08T09:15:52.000Z</time>
      </trkpt>
      <trkpt lat="42.22082150168716907501220703125" lon="-3.6533629707992076873779296875">
        <ele>895.79998779296875</ele>
        <time>2019-07-08T09:15:53.000Z</time>
      </trkpt>
      <trkpt lat="42.22102719359099864959716796875" lon="-3.65344637073576450347900390625">
        <ele>894.5999755859375</ele>
        <time>2019-07-08T09:15:54.000Z</time>
      </trkpt>
      <trkpt lat="42.22123590297996997833251953125" lon="-3.653528429567813873291015625">
        <ele>893.5999755859375</ele>
        <time>2019-07-08T09:15:55.000Z</time>
      </trkpt>
      <trkpt lat="42.22144310362637042999267578125" lon="-3.65361149422824382781982421875">
        <ele>892.4000244140625</ele>
        <time>2019-07-08T09:15:56.000Z</time>
      </trkpt>
      <trkpt lat="42.221648879349231719970703125" lon="-3.6536957323551177978515625">
        <ele>891</ele>
        <time>2019-07-08T09:15:57.000Z</time>
      </trkpt>
      <trkpt lat="42.22225497476756572723388671875" lon="-3.65394224412739276885986328125">
        <ele>891.20001220703125</ele>
        <time>2019-07-08T09:16:00.000Z</time>
      </trkpt>
      <trkpt lat="42.22265730611979961395263671875" lon="-3.654101081192493438720703125">
        <ele>892.20001220703125</ele>
        <time>2019-07-08T09:16:02.000Z</time>
      </trkpt>
      <trkpt lat="42.22307573072612285614013671875" lon="-3.65426796488463878631591796875">
        <ele>893.20001220703125</ele>
        <time>2019-07-08T09:16:04.000Z</time>
      </trkpt>
      <trkpt lat="42.223288714885711669921875" lon="-3.65435396321117877960205078125">
        <ele>892.20001220703125</ele>
        <time>2019-07-08T09:16:05.000Z</time>
      </trkpt>
      <trkpt lat="42.22350354306399822235107421875" lon="-3.65444046445190906524658203125">
        <ele>890.79998779296875</ele>
        <time>2019-07-08T09:16:06.000Z</time>
      </trkpt>
      <trkpt lat="42.22372390329837799072265625" lon="-3.65452780388295650482177734375">
        <ele>888.79998779296875</ele>
        <time>2019-07-08T09:16:07.000Z</time>
      </trkpt>
      <trkpt lat="42.22417895682156085968017578125" lon="-3.6547037400305271148681640625">
        <ele>886.5999755859375</ele>
        <time>2019-07-08T09:16:09.000Z</time>
      </trkpt>
      <trkpt lat="42.22441180609166622161865234375" lon="-3.65479703061282634735107421875">
        <ele>885.20001220703125</ele>
        <time>2019-07-08T09:16:10.000Z</time>
      </trkpt>
      <trkpt lat="42.22464314661920070648193359375" lon="-3.6548945121467113494873046875">
        <ele>884.5999755859375</ele>
        <time>2019-07-08T09:16:11.000Z</time>
      </trkpt>
      <trkpt lat="42.2248703800141811370849609375" lon="-3.655000627040863037109375">
        <ele>883.20001220703125</ele>
        <time>2019-07-08T09:16:12.000Z</time>
      </trkpt>
      <trkpt lat="42.225094176828861236572265625" lon="-3.65512258373200893402099609375">
        <ele>881.4000244140625</ele>
        <time>2019-07-08T09:16:13.000Z</time>
      </trkpt>
      <trkpt lat="42.22531252540647983551025390625" lon="-3.65526407025754451751708984375">
        <ele>878.5999755859375</ele>
        <time>2019-07-08T09:16:14.000Z</time>
      </trkpt>
      <trkpt lat="42.2255234979093074798583984375" lon="-3.65542684681713581085205078125">
        <ele>876</ele>
        <time>2019-07-08T09:16:15.000Z</time>
      </trkpt>
      <trkpt lat="42.22572692669928073883056640625" lon="-3.6556099914014339447021484375">
        <ele>874.5999755859375</ele>
        <time>2019-07-08T09:16:16.000Z</time>
      </trkpt>
      <trkpt lat="42.2259218059480190277099609375" lon="-3.655809648334980010986328125">
        <ele>873.5999755859375</ele>
        <time>2019-07-08T09:16:17.000Z</time>
      </trkpt>
      <trkpt lat="42.226291112601757049560546875" lon="-3.65624626167118549346923828125">
        <ele>872.79998779296875</ele>
        <time>2019-07-08T09:16:19.000Z</time>
      </trkpt>
      <trkpt lat="42.22664826549589633941650390625" lon="-3.65671346895396709442138671875">
        <ele>872.5999755859375</ele>
        <time>2019-07-08T09:16:21.000Z</time>
      </trkpt>
      <trkpt lat="42.226827554404735565185546875" lon="-3.65695126354694366455078125">
        <ele>872</ele>
        <time>2019-07-08T09:16:22.000Z</time>
      </trkpt>
      <trkpt lat="42.22700566984713077545166015625" lon="-3.65718855522572994232177734375">
        <ele>871</ele>
        <time>2019-07-08T09:16:23.000Z</time>
      </trkpt>
      <trkpt lat="42.22735636867582798004150390625" lon="-3.6576501466333866119384765625">
        <ele>870</ele>
        <time>2019-07-08T09:16:25.000Z</time>
      </trkpt>
      <trkpt lat="42.22752450965344905853271484375" lon="-3.6578724347054958343505859375">
        <ele>869.4000244140625</ele>
        <time>2019-07-08T09:16:26.000Z</time>
      </trkpt>
      <trkpt lat="42.22784754820168018341064453125" lon="-3.65829932503402233123779296875">
        <ele>868.5999755859375</ele>
        <time>2019-07-08T09:16:28.000Z</time>
      </trkpt>
      <trkpt lat="42.22800713963806629180908203125" lon="-3.6585074476897716522216796875">
        <ele>867.5999755859375</ele>
        <time>2019-07-08T09:16:29.000Z</time>
      </trkpt>
      <trkpt lat="42.22848624922335147857666015625" lon="-3.65913684479892253875732421875">
        <ele>867.79998779296875</ele>
        <time>2019-07-08T09:16:32.000Z</time>
      </trkpt>
      <trkpt lat="42.22881129942834377288818359375" lon="-3.659568093717098236083984375">
        <ele>867.79998779296875</ele>
        <time>2019-07-08T09:16:34.000Z</time>
      </trkpt>
      <trkpt lat="42.22914791665971279144287109375" lon="-3.6600101552903652191162109375">
        <ele>868</ele>
        <time>2019-07-08T09:16:36.000Z</time>
      </trkpt>
      <trkpt lat="42.229484617710113525390625" lon="-3.6604550667107105255126953125">
        <ele>866.79998779296875</ele>
        <time>2019-07-08T09:16:38.000Z</time>
      </trkpt>
      <trkpt lat="42.2298180498182773590087890625" lon="-3.66089679300785064697265625">
        <ele>866.5999755859375</ele>
        <time>2019-07-08T09:16:40.000Z</time>
      </trkpt>
      <trkpt lat="42.2301476262509822845458984375" lon="-3.66134069859981536865234375">
        <ele>866</ele>
        <time>2019-07-08T09:16:42.000Z</time>
      </trkpt>
      <trkpt lat="42.23031065426766872406005859375" lon="-3.6615608073770999908447265625">
        <ele>865.4000244140625</ele>
        <time>2019-07-08T09:16:43.000Z</time>
      </trkpt>
      <trkpt lat="42.23063888959586620330810546875" lon="-3.66199691779911518096923828125">
        <ele>866.20001220703125</ele>
        <time>2019-07-08T09:16:45.000Z</time>
      </trkpt>
      <trkpt lat="42.230803258717060089111328125" lon="-3.66221434436738491058349609375">
        <ele>866.79998779296875</ele>
        <time>2019-07-08T09:16:46.000Z</time>
      </trkpt>
      <trkpt lat="42.23126702941954135894775390625" lon="-3.662819601595401763916015625">
        <ele>867.79998779296875</ele>
        <time>2019-07-08T09:16:49.000Z</time>
      </trkpt>
      <trkpt lat="42.2317227534949779510498046875" lon="-3.663412369787693023681640625">
        <ele>866.5999755859375</ele>
        <time>2019-07-08T09:16:52.000Z</time>
      </trkpt>
      <trkpt lat="42.23217956721782684326171875" lon="-3.6640203930437564849853515625">
        <ele>865.5999755859375</ele>
        <time>2019-07-08T09:16:55.000Z</time>
      </trkpt>
      <trkpt lat="42.2326471097767353057861328125" lon="-3.66463302634656429290771484375">
        <ele>865.79998779296875</ele>
        <time>2019-07-08T09:16:58.000Z</time>
      </trkpt>
      <trkpt lat="42.2331258840858936309814453125" lon="-3.665263764560222625732421875">
        <ele>865.5999755859375</ele>
        <time>2019-07-08T09:17:01.000Z</time>
      </trkpt>
      <trkpt lat="42.2334521077573299407958984375" lon="-3.6656877212226390838623046875">
        <ele>865.20001220703125</ele>
        <time>2019-07-08T09:17:03.000Z</time>
      </trkpt>
      <trkpt lat="42.23361765034496784210205078125" lon="-3.6659012921154499053955078125">
        <ele>864</ele>
        <time>2019-07-08T09:17:04.000Z</time>
      </trkpt>
      <trkpt lat="42.23378394730389118194580078125" lon="-3.66611561737954616546630859375">
        <ele>863</ele>
        <time>2019-07-08T09:17:05.000Z</time>
      </trkpt>
      <trkpt lat="42.2339553572237491607666015625" lon="-3.66632667370140552520751953125">
        <ele>861.79998779296875</ele>
        <time>2019-07-08T09:17:06.000Z</time>
      </trkpt>
      <trkpt lat="42.23433899693191051483154296875" lon="-3.6667083017528057098388671875">
        <ele>861</ele>
        <time>2019-07-08T09:17:08.000Z</time>
      </trkpt>
      <trkpt lat="42.23455541767179965972900390625" lon="-3.6668715812265872955322265625">
        <ele>860.20001220703125</ele>
        <time>2019-07-08T09:17:09.000Z</time>
      </trkpt>
      <trkpt lat="42.235017679631710052490234375" lon="-3.6671672947704792022705078125">
        <ele>859.4000244140625</ele>
        <time>2019-07-08T09:17:11.000Z</time>
      </trkpt>
      <trkpt lat="42.2352525405585765838623046875" lon="-3.6673111282289028167724609375">
        <ele>858.5999755859375</ele>
        <time>2019-07-08T09:17:12.000Z</time>
      </trkpt>
      <trkpt lat="42.23548538982868194580078125" lon="-3.66745739243924617767333984375">
        <ele>857.4000244140625</ele>
        <time>2019-07-08T09:17:13.000Z</time>
      </trkpt>
      <trkpt lat="42.23571228794753551483154296875" lon="-3.6676137149333953857421875">
        <ele>855.4000244140625</ele>
        <time>2019-07-08T09:17:14.000Z</time>
      </trkpt>
      <trkpt lat="42.23593038506805896759033203125" lon="-3.66778763942420482635498046875">
        <ele>853.5999755859375</ele>
        <time>2019-07-08T09:17:15.000Z</time>
      </trkpt>
      <trkpt lat="42.23633171059191226959228515625" lon="-3.6681882105767726898193359375">
        <ele>852.4000244140625</ele>
        <time>2019-07-08T09:17:17.000Z</time>
      </trkpt>
      <trkpt lat="42.2367093153297901153564453125" lon="-3.6686200462281703948974609375">
        <ele>853.79998779296875</ele>
        <time>2019-07-08T09:17:19.000Z</time>
      </trkpt>
      <trkpt lat="42.2370797954499721527099609375" lon="-3.6690580844879150390625">
        <ele>855</ele>
        <time>2019-07-08T09:17:21.000Z</time>
      </trkpt>
      <trkpt lat="42.2374532930552959442138671875" lon="-3.66949218325316905975341796875">
        <ele>855.4000244140625</ele>
        <time>2019-07-08T09:17:23.000Z</time>
      </trkpt>
      <trkpt lat="42.237826287746429443359375" lon="-3.6699400283396244049072265625">
        <ele>855.79998779296875</ele>
        <time>2019-07-08T09:17:25.000Z</time>
      </trkpt>
      <trkpt lat="42.238194085657596588134765625" lon="-3.670399188995361328125">
        <ele>855.20001220703125</ele>
        <time>2019-07-08T09:17:27.000Z</time>
      </trkpt>
      <trkpt lat="42.2385597042739391326904296875" lon="-3.6708482913672924041748046875">
        <ele>856</ele>
        <time>2019-07-08T09:17:29.000Z</time>
      </trkpt>
      <trkpt lat="42.2389261610805988311767578125" lon="-3.6712776124477386474609375">
        <ele>855</ele>
        <time>2019-07-08T09:17:31.000Z</time>
      </trkpt>
      <trkpt lat="42.2392875887453556060791015625" lon="-3.67169746197760105133056640625">
        <ele>855</ele>
        <time>2019-07-08T09:17:33.000Z</time>
      </trkpt>
      <trkpt lat="42.239643819630146026611328125" lon="-3.67210951633751392364501953125">
        <ele>854.4000244140625</ele>
        <time>2019-07-08T09:17:35.000Z</time>
      </trkpt>
      <trkpt lat="42.2398205101490020751953125" lon="-3.672314621508121490478515625">
        <ele>853.20001220703125</ele>
        <time>2019-07-08T09:17:36.000Z</time>
      </trkpt>
      <trkpt lat="42.24016944877803325653076171875" lon="-3.6727218143641948699951171875">
        <ele>853</ele>
        <time>2019-07-08T09:17:38.000Z</time>
      </trkpt>
      <trkpt lat="42.24051545374095439910888671875" lon="-3.6731244809925556182861328125">
        <ele>851.5999755859375</ele>
        <time>2019-07-08T09:17:40.000Z</time>
      </trkpt>
      <trkpt lat="42.2408596985042095184326171875" lon="-3.6735258065164089202880859375">
        <ele>851.20001220703125</ele>
        <time>2019-07-08T09:17:42.000Z</time>
      </trkpt>
      <trkpt lat="42.241208218038082122802734375" lon="-3.6739284731447696685791015625">
        <ele>852</ele>
        <time>2019-07-08T09:17:44.000Z</time>
      </trkpt>
      <trkpt lat="42.24156352691352367401123046875" lon="-3.67433792911469936370849609375">
        <ele>852</ele>
        <time>2019-07-08T09:17:46.000Z</time>
      </trkpt>
      <trkpt lat="42.24192713387310504913330078125" lon="-3.67474369704723358154296875">
        <ele>852.4000244140625</ele>
        <time>2019-07-08T09:17:48.000Z</time>
      </trkpt>
      <trkpt lat="42.24229292012751102447509765625" lon="-3.6751428432762622833251953125">
        <ele>852</ele>
        <time>2019-07-08T09:17:50.000Z</time>
      </trkpt>
      <trkpt lat="42.24265183322131633758544921875" lon="-3.6755450069904327392578125">
        <ele>850.79998779296875</ele>
        <time>2019-07-08T09:17:52.000Z</time>
      </trkpt>
      <trkpt lat="42.2428286075592041015625" lon="-3.6757456697523593902587890625">
        <ele>850</ele>
        <time>2019-07-08T09:17:53.000Z</time>
      </trkpt>
      <trkpt lat="42.24317528307437896728515625" lon="-3.6761459894478321075439453125">
        <ele>849.79998779296875</ele>
        <time>2019-07-08T09:17:55.000Z</time>
      </trkpt>
      <trkpt lat="42.2435160912573337554931640625" lon="-3.67654555477201938629150390625">
        <ele>850</ele>
        <time>2019-07-08T09:17:57.000Z</time>
      </trkpt>
      <trkpt lat="42.24385648034512996673583984375" lon="-3.67694302462041378021240234375">
        <ele>850</ele>
        <time>2019-07-08T09:17:59.000Z</time>
      </trkpt>
      <trkpt lat="42.24419577978551387786865234375" lon="-3.67734543979167938232421875">
        <ele>850</ele>
        <time>2019-07-08T09:18:01.000Z</time>
      </trkpt>
      <trkpt lat="42.24454111419618129730224609375" lon="-3.67775841616094112396240234375">
        <ele>850.4000244140625</ele>
        <time>2019-07-08T09:18:03.000Z</time>
      </trkpt>
      <trkpt lat="42.24487706087529659271240234375" lon="-3.67816351354122161865234375">
        <ele>851.4000244140625</ele>
        <time>2019-07-08T09:18:05.000Z</time>
      </trkpt>
      <trkpt lat="42.245037741959095001220703125" lon="-3.67835956625640392303466796875">
        <ele>854.79998779296875</ele>
        <time>2019-07-08T09:18:06.000Z</time>
      </trkpt>
      <trkpt lat="42.24519942887127399444580078125" lon="-3.678550757467746734619140625">
        <ele>859.4000244140625</ele>
        <time>2019-07-08T09:18:07.000Z</time>
      </trkpt>
      <trkpt lat="42.24535994231700897216796875" lon="-3.678739182651042938232421875">
        <ele>862.79998779296875</ele>
        <time>2019-07-08T09:18:08.000Z</time>
      </trkpt>
      <trkpt lat="42.24552154541015625" lon="-3.67892752401530742645263671875">
        <ele>864.4000244140625</ele>
        <time>2019-07-08T09:18:09.000Z</time>
      </trkpt>
      <trkpt lat="42.24568256177008152008056640625" lon="-3.67911712266504764556884765625">
        <ele>865.5999755859375</ele>
        <time>2019-07-08T09:18:10.000Z</time>
      </trkpt>
      <trkpt lat="42.245843075215816497802734375" lon="-3.6793056316673755645751953125">
        <ele>866.5999755859375</ele>
        <time>2019-07-08T09:18:11.000Z</time>
      </trkpt>
      <trkpt lat="42.24633316509425640106201171875" lon="-3.67987333796918392181396484375">
        <ele>865</ele>
        <time>2019-07-08T09:18:14.000Z</time>
      </trkpt>
      <trkpt lat="42.24649979732930660247802734375" lon="-3.680068887770175933837890625">
        <ele>861.20001220703125</ele>
        <time>2019-07-08T09:18:15.000Z</time>
      </trkpt>
      <trkpt lat="42.24666911177337169647216796875" lon="-3.6802675388753414154052734375">
        <ele>856.20001220703125</ele>
        <time>2019-07-08T09:18:16.000Z</time>
      </trkpt>
      <trkpt lat="42.24684144370257854461669921875" lon="-3.68046660907566547393798828125">
        <ele>852.5999755859375</ele>
        <time>2019-07-08T09:18:17.000Z</time>
      </trkpt>
      <trkpt lat="42.24701545201241970062255859375" lon="-3.6806668527424335479736328125">
        <ele>850.4000244140625</ele>
        <time>2019-07-08T09:18:18.000Z</time>
      </trkpt>
      <trkpt lat="42.24719163961708545684814453125" lon="-3.680870868265628814697265625">
        <ele>848.5999755859375</ele>
        <time>2019-07-08T09:18:19.000Z</time>
      </trkpt>
      <trkpt lat="42.24754787050187587738037109375" lon="-3.68129272945225238800048828125">
        <ele>847.4000244140625</ele>
        <time>2019-07-08T09:18:21.000Z</time>
      </trkpt>
      <trkpt lat="42.247912399470806121826171875" lon="-3.68171752430498600006103515625">
        <ele>845.4000244140625</ele>
        <time>2019-07-08T09:18:23.000Z</time>
      </trkpt>
      <trkpt lat="42.24828178994357585906982421875" lon="-3.6821434088051319122314453125">
        <ele>844.79998779296875</ele>
        <time>2019-07-08T09:18:25.000Z</time>
      </trkpt>
      <trkpt lat="42.248464934527873992919921875" lon="-3.68235572241246700286865234375">
        <ele>844.4000244140625</ele>
        <time>2019-07-08T09:18:26.000Z</time>
      </trkpt>
      <trkpt lat="42.24881320260465145111083984375" lon="-3.68276190944015979766845703125">
        <ele>844.20001220703125</ele>
        <time>2019-07-08T09:18:28.000Z</time>
      </trkpt>
      <trkpt lat="42.249145209789276123046875" lon="-3.68314378894865512847900390625">
        <ele>845.5999755859375</ele>
        <time>2019-07-08T09:18:30.000Z</time>
      </trkpt>
      <trkpt lat="42.24961836822330951690673828125" lon="-3.68371107615530490875244140625">
        <ele>847</ele>
        <time>2019-07-08T09:18:33.000Z</time>
      </trkpt>
      <trkpt lat="42.24991642870008945465087890625" lon="-3.6840789578855037689208984375">
        <ele>848.20001220703125</ele>
        <time>2019-07-08T09:18:35.000Z</time>
      </trkpt>
      <trkpt lat="42.25006445311009883880615234375" lon="-3.68426361121237277984619140625">
        <ele>849.4000244140625</ele>
        <time>2019-07-08T09:18:36.000Z</time>
      </trkpt>
      <trkpt lat="42.25036519579589366912841796875" lon="-3.68463761173188686370849609375">
        <ele>851.20001220703125</ele>
        <time>2019-07-08T09:18:38.000Z</time>
      </trkpt>
      <trkpt lat="42.25082737393677234649658203125" lon="-3.685224093496799468994140625">
        <ele>852</ele>
        <time>2019-07-08T09:18:41.000Z</time>
      </trkpt>
      <trkpt lat="42.2512867860496044158935546875" lon="-3.68582281284034252166748046875">
        <ele>850.79998779296875</ele>
        <time>2019-07-08T09:18:44.000Z</time>
      </trkpt>
      <trkpt lat="42.25157730281352996826171875" lon="-3.6862139962613582611083984375">
        <ele>849.5999755859375</ele>
        <time>2019-07-08T09:18:46.000Z</time>
      </trkpt>
      <trkpt lat="42.251720465719699859619140625" lon="-3.68640636093914508819580078125">
        <ele>848.20001220703125</ele>
        <time>2019-07-08T09:18:47.000Z</time>
      </trkpt>
      <trkpt lat="42.25212849676609039306640625" lon="-3.68696778081357479095458984375">
        <ele>848.5999755859375</ele>
        <time>2019-07-08T09:18:50.000Z</time>
      </trkpt>
      <trkpt lat="42.2524867393076419830322265625" lon="-3.6874528415501117706298828125">
        <ele>849.79998779296875</ele>
        <time>2019-07-08T09:18:53.000Z</time>
      </trkpt>
      <trkpt lat="42.252724282443523406982421875" lon="-3.6877690069377422332763671875">
        <ele>851.5999755859375</ele>
        <time>2019-07-08T09:18:55.000Z</time>
      </trkpt>
      <trkpt lat="42.25296492688357830047607421875" lon="-3.6880935542285442352294921875">
        <ele>853.20001220703125</ele>
        <time>2019-07-08T09:18:57.000Z</time>
      </trkpt>
      <trkpt lat="42.2533215768635272979736328125" lon="-3.68860543705523014068603515625">
        <ele>854.20001220703125</ele>
        <time>2019-07-08T09:19:00.000Z</time>
      </trkpt>
      <trkpt lat="42.25368845276534557342529296875" lon="-3.6891369335353374481201171875">
        <ele>853.5999755859375</ele>
        <time>2019-07-08T09:19:03.000Z</time>
      </trkpt>
      <trkpt lat="42.25381636060774326324462890625" lon="-3.68931923992931842803955078125">
        <ele>853</ele>
        <time>2019-07-08T09:19:04.000Z</time>
      </trkpt>
      <trkpt lat="42.25423562340438365936279296875" lon="-3.689897842705249786376953125">
        <ele>851.79998779296875</ele>
        <time>2019-07-08T09:19:07.000Z</time>
      </trkpt>
      <trkpt lat="42.25456184707581996917724609375" lon="-3.69028684683144092559814453125">
        <ele>850.79998779296875</ele>
        <time>2019-07-08T09:19:09.000Z</time>
      </trkpt>
      <trkpt lat="42.2547344304621219635009765625" lon="-3.69048197753727436065673828125">
        <ele>849.4000244140625</ele>
        <time>2019-07-08T09:19:10.000Z</time>
      </trkpt>
      <trkpt lat="42.254910953342914581298828125" lon="-3.69067861698567867279052734375">
        <ele>847.5999755859375</ele>
        <time>2019-07-08T09:19:11.000Z</time>
      </trkpt>
      <trkpt lat="42.255090661346912384033203125" lon="-3.69087458588182926177978515625">
        <ele>845.5999755859375</ele>
        <time>2019-07-08T09:19:12.000Z</time>
      </trkpt>
      <trkpt lat="42.25545854307711124420166015625" lon="-3.691257052123546600341796875">
        <ele>844</ele>
        <time>2019-07-08T09:19:14.000Z</time>
      </trkpt>
      <trkpt lat="42.25583153776824474334716796875" lon="-3.69162074290215969085693359375">
        <ele>843.79998779296875</ele>
        <time>2019-07-08T09:19:16.000Z</time>
      </trkpt>
      <trkpt lat="42.2563712485134601593017578125" lon="-3.69211058132350444793701171875">
        <ele>844.4000244140625</ele>
        <time>2019-07-08T09:19:19.000Z</time>
      </trkpt>
      <trkpt lat="42.25688883103430271148681640625" lon="-3.69253705255687236785888671875">
        <ele>845</ele>
        <time>2019-07-08T09:19:22.000Z</time>
      </trkpt>
      <trkpt lat="42.25705177523195743560791015625" lon="-3.692670576274394989013671875">
        <ele>845.5999755859375</ele>
        <time>2019-07-08T09:19:23.000Z</time>
      </trkpt>
      <trkpt lat="42.257364504039287567138671875" lon="-3.69293502531945705413818359375">
        <ele>847</ele>
        <time>2019-07-08T09:19:25.000Z</time>
      </trkpt>
      <trkpt lat="42.257663905620574951171875" lon="-3.69318949989974498748779296875">
        <ele>848.4000244140625</ele>
        <time>2019-07-08T09:19:27.000Z</time>
      </trkpt>
      <trkpt lat="42.25795668549835681915283203125" lon="-3.69343508966267108917236328125">
        <ele>849.79998779296875</ele>
        <time>2019-07-08T09:19:29.000Z</time>
      </trkpt>
      <trkpt lat="42.2584033571183681488037109375" lon="-3.69380104355514049530029296875">
        <ele>850.79998779296875</ele>
        <time>2019-07-08T09:19:32.000Z</time>
      </trkpt>
      <trkpt lat="42.25885053165256977081298828125" lon="-3.69417755864560604095458984375">
        <ele>850.20001220703125</ele>
        <time>2019-07-08T09:19:35.000Z</time>
      </trkpt>
      <trkpt lat="42.25912864319980144500732421875" lon="-3.694408647716045379638671875">
        <ele>849.5999755859375</ele>
        <time>2019-07-08T09:19:37.000Z</time>
      </trkpt>
      <trkpt lat="42.25962954573333263397216796875" lon="-3.694820702075958251953125">
        <ele>849</ele>
        <time>2019-07-08T09:19:41.000Z</time>
      </trkpt>
      <trkpt lat="42.26007797755300998687744140625" lon="-3.69520450942218303680419921875">
        <ele>850.5999755859375</ele>
        <time>2019-07-08T09:19:45.000Z</time>
      </trkpt>
      <trkpt lat="42.2601813264191150665283203125" lon="-3.69529352523386478424072265625">
        <ele>852</ele>
        <time>2019-07-08T09:19:46.000Z</time>
      </trkpt>
      <trkpt lat="42.26061441935598850250244140625" lon="-3.695679008960723876953125">
        <ele>851.4000244140625</ele>
        <time>2019-07-08T09:19:51.000Z</time>
      </trkpt>
      <trkpt lat="42.2609132342040538787841796875" lon="-3.6960027180612087249755859375">
        <ele>852.5999755859375</ele>
        <time>2019-07-08T09:19:56.000Z</time>
      </trkpt>
      <trkpt lat="42.260970734059810638427734375" lon="-3.6960436217486858367919921875">
        <ele>853</ele>
        <time>2019-07-08T09:19:57.000Z</time>
      </trkpt>
      <trkpt lat="42.261097133159637451171875" lon="-3.69611361064016819000244140625">
        <ele>853.5999755859375</ele>
        <time>2019-07-08T09:19:59.000Z</time>
      </trkpt>
      <trkpt lat="42.261217497289180755615234375" lon="-3.6962424404919147491455078125">
        <ele>853.5999755859375</ele>
        <time>2019-07-08T09:20:01.000Z</time>
      </trkpt>
      <trkpt lat="42.26134724915027618408203125" lon="-3.69642005302011966705322265625">
        <ele>853.5999755859375</ele>
        <time>2019-07-08T09:20:03.000Z</time>
      </trkpt>
      <trkpt lat="42.26153274066746234893798828125" lon="-3.6965706758201122283935546875">
        <ele>853.20001220703125</ele>
        <time>2019-07-08T09:20:05.000Z</time>
      </trkpt>
      <trkpt lat="42.26185552775859832763671875" lon="-3.69678365997970104217529296875">
        <ele>851.5999755859375</ele>
        <time>2019-07-08T09:20:08.000Z</time>
      </trkpt>
      <trkpt lat="42.26205996237695217132568359375" lon="-3.6969570815563201904296875">
        <ele>850.4000244140625</ele>
        <time>2019-07-08T09:20:10.000Z</time>
      </trkpt>
      <trkpt lat="42.26245206780731678009033203125" lon="-3.69739922694861888885498046875">
        <ele>849.4000244140625</ele>
        <time>2019-07-08T09:20:14.000Z</time>
      </trkpt>
      <trkpt lat="42.26254929788410663604736328125" lon="-3.697532750666141510009765625">
        <ele>849.20001220703125</ele>
        <time>2019-07-08T09:20:15.000Z</time>
      </trkpt>
      <trkpt lat="42.26286462508141994476318359375" lon="-3.69796450249850749969482421875">
        <ele>848.20001220703125</ele>
        <time>2019-07-08T09:20:18.000Z</time>
      </trkpt>
      <trkpt lat="42.26311122067272663116455078125" lon="-3.69823624379932880401611328125">
        <ele>846.20001220703125</ele>
        <time>2019-07-08T09:20:20.000Z</time>
      </trkpt>
      <trkpt lat="42.26324818097054958343505859375" lon="-3.6983553506433963775634765625">
        <ele>845.20001220703125</ele>
        <time>2019-07-08T09:20:21.000Z</time>
      </trkpt>
      <trkpt lat="42.26355135440826416015625" lon="-3.6985528282821178436279296875">
        <ele>844.20001220703125</ele>
        <time>2019-07-08T09:20:23.000Z</time>
      </trkpt>
      <trkpt lat="42.2640584595501422882080078125" lon="-3.6987419240176677703857421875">
        <ele>842.4000244140625</ele>
        <time>2019-07-08T09:20:26.000Z</time>
      </trkpt>
      <trkpt lat="42.26460454054176807403564453125" lon="-3.69877469725906848907470703125">
        <ele>843</ele>
        <time>2019-07-08T09:20:29.000Z</time>
      </trkpt>
      <trkpt lat="42.26479330100119113922119140625" lon="-3.69876245968043804168701171875">
        <ele>844.5999755859375</ele>
        <time>2019-07-08T09:20:30.000Z</time>
      </trkpt>
      <trkpt lat="42.26498457603156566619873046875" lon="-3.6987516470253467559814453125">
        <ele>845.79998779296875</ele>
        <time>2019-07-08T09:20:31.000Z</time>
      </trkpt>
      <trkpt lat="42.26518020965158939361572265625" lon="-3.69873915798962116241455078125">
        <ele>847.20001220703125</ele>
        <time>2019-07-08T09:20:32.000Z</time>
      </trkpt>
      <trkpt lat="42.2653792798519134521484375" lon="-3.6987265013158321380615234375">
        <ele>849</ele>
        <time>2019-07-08T09:20:33.000Z</time>
      </trkpt>
      <trkpt lat="42.2659839503467082977294921875" lon="-3.69872172363102436065673828125">
        <ele>849.5999755859375</ele>
        <time>2019-07-08T09:20:36.000Z</time>
      </trkpt>
      <trkpt lat="42.266179583966732025146484375" lon="-3.6987254954874515533447265625">
        <ele>850.20001220703125</ele>
        <time>2019-07-08T09:20:37.000Z</time>
      </trkpt>
      <trkpt lat="42.26637194864451885223388671875" lon="-3.69873211719095706939697265625">
        <ele>851.4000244140625</ele>
        <time>2019-07-08T09:20:38.000Z</time>
      </trkpt>
      <trkpt lat="42.26675298996269702911376953125" lon="-3.6987493000924587249755859375">
        <ele>852.5999755859375</ele>
        <time>2019-07-08T09:20:40.000Z</time>
      </trkpt>
      <trkpt lat="42.26714090444147586822509765625" lon="-3.69877587072551250457763671875">
        <ele>854.5999755859375</ele>
        <time>2019-07-08T09:20:42.000Z</time>
      </trkpt>
      <trkpt lat="42.267555557191371917724609375" lon="-3.6988294310867786407470703125">
        <ele>855.79998779296875</ele>
        <time>2019-07-08T09:20:44.000Z</time>
      </trkpt>
      <trkpt lat="42.267778851091861724853515625" lon="-3.69886874221265316009521484375">
        <ele>856.79998779296875</ele>
        <time>2019-07-08T09:20:45.000Z</time>
      </trkpt>
      <trkpt lat="42.26823382079601287841796875" lon="-3.69897401891648769378662109375">
        <ele>857.4000244140625</ele>
        <time>2019-07-08T09:20:47.000Z</time>
      </trkpt>
      <trkpt lat="42.268681414425373077392578125" lon="-3.69911617599427700042724609375">
        <ele>857.79998779296875</ele>
        <time>2019-07-08T09:20:49.000Z</time>
      </trkpt>
      <trkpt lat="42.26890244521200656890869140625" lon="-3.6992015875875949859619140625">
        <ele>858.20001220703125</ele>
        <time>2019-07-08T09:20:50.000Z</time>
      </trkpt>
      <trkpt lat="42.26934492588043212890625" lon="-3.69940350763499736785888671875">
        <ele>859.20001220703125</ele>
        <time>2019-07-08T09:20:52.000Z</time>
      </trkpt>
      <trkpt lat="42.269569225609302520751953125" lon="-3.69951599277555942535400390625">
        <ele>859.4000244140625</ele>
        <time>2019-07-08T09:20:53.000Z</time>
      </trkpt>
      <trkpt lat="42.2700236923992633819580078125" lon="-3.69976242072880268096923828125">
        <ele>859.5999755859375</ele>
        <time>2019-07-08T09:20:55.000Z</time>
      </trkpt>
      <trkpt lat="42.270483858883380889892578125" lon="-3.700034581124782562255859375">
        <ele>860.79998779296875</ele>
        <time>2019-07-08T09:20:57.000Z</time>
      </trkpt>
      <trkpt lat="42.27071913890540599822998046875" lon="-3.70017413981258869171142578125">
        <ele>862.4000244140625</ele>
        <time>2019-07-08T09:20:58.000Z</time>
      </trkpt>
      <trkpt lat="42.2709591127932071685791015625" lon="-3.70031495578587055206298828125">
        <ele>864</ele>
        <time>2019-07-08T09:20:59.000Z</time>
      </trkpt>
      <trkpt lat="42.2712025232613086700439453125" lon="-3.70045577175915241241455078125">
        <ele>865.4000244140625</ele>
        <time>2019-07-08T09:21:00.000Z</time>
      </trkpt>
      <trkpt lat="42.27144719101488590240478515625" lon="-3.7005941569805145263671875">
        <ele>866.79998779296875</ele>
        <time>2019-07-08T09:21:01.000Z</time>
      </trkpt>
      <trkpt lat="42.27193401195108890533447265625" lon="-3.70086749084293842315673828125">
        <ele>867.5999755859375</ele>
        <time>2019-07-08T09:21:03.000Z</time>
      </trkpt>
      <trkpt lat="42.272415049374103546142578125" lon="-3.70111651718616485595703125">
        <ele>866.79998779296875</ele>
        <time>2019-07-08T09:21:05.000Z</time>
      </trkpt>
      <trkpt lat="42.27288820780813694000244140625" lon="-3.7013654597103595733642578125">
        <ele>865</ele>
        <time>2019-07-08T09:21:07.000Z</time>
      </trkpt>
      <trkpt lat="42.27335155941545963287353515625" lon="-3.701619096100330352783203125">
        <ele>863.79998779296875</ele>
        <time>2019-07-08T09:21:09.000Z</time>
      </trkpt>
      <trkpt lat="42.27380904369056224822998046875" lon="-3.70187130756676197052001953125">
        <ele>865.79998779296875</ele>
        <time>2019-07-08T09:21:11.000Z</time>
      </trkpt>
      <trkpt lat="42.27403602562844753265380859375" lon="-3.70199938304722309112548828125">
        <ele>867.5999755859375</ele>
        <time>2019-07-08T09:21:12.000Z</time>
      </trkpt>
      <trkpt lat="42.27426066063344478607177734375" lon="-3.7021283805370330810546875">
        <ele>870</ele>
        <time>2019-07-08T09:21:13.000Z</time>
      </trkpt>
      <trkpt lat="42.27448496036231517791748046875" lon="-3.70225603692233562469482421875">
        <ele>871.79998779296875</ele>
        <time>2019-07-08T09:21:14.000Z</time>
      </trkpt>
      <trkpt lat="42.2747091762721538543701171875" lon="-3.70238444767892360687255859375">
        <ele>873.5999755859375</ele>
        <time>2019-07-08T09:21:15.000Z</time>
      </trkpt>
      <trkpt lat="42.2751621343195438385009765625" lon="-3.702639676630496978759765625">
        <ele>874.79998779296875</ele>
        <time>2019-07-08T09:21:17.000Z</time>
      </trkpt>
      <trkpt lat="42.2756204567849636077880859375" lon="-3.702894486486911773681640625">
        <ele>875.20001220703125</ele>
        <time>2019-07-08T09:21:19.000Z</time>
      </trkpt>
      <trkpt lat="42.27608070708811283111572265625" lon="-3.70315290056169033050537109375">
        <ele>876</ele>
        <time>2019-07-08T09:21:21.000Z</time>
      </trkpt>
      <trkpt lat="42.2765481658279895782470703125" lon="-3.70341491885483264923095703125">
        <ele>876.79998779296875</ele>
        <time>2019-07-08T09:21:23.000Z</time>
      </trkpt>
      <trkpt lat="42.276785038411617279052734375" lon="-3.7035477720201015472412109375">
        <ele>877</ele>
        <time>2019-07-08T09:21:24.000Z</time>
      </trkpt>
      <trkpt lat="42.27726154960691928863525390625" lon="-3.7038149870932102203369140625">
        <ele>878.5999755859375</ele>
        <time>2019-07-08T09:21:26.000Z</time>
      </trkpt>
      <trkpt lat="42.27773127146065235137939453125" lon="-3.70408027432858943939208984375">
        <ele>881.20001220703125</ele>
        <time>2019-07-08T09:21:28.000Z</time>
      </trkpt>
      <trkpt lat="42.277963198721408843994140625" lon="-3.7042096070945262908935546875">
        <ele>883</ele>
        <time>2019-07-08T09:21:29.000Z</time>
      </trkpt>
      <trkpt lat="42.2781947068870067596435546875" lon="-3.704338185489177703857421875">
        <ele>885.79998779296875</ele>
        <time>2019-07-08T09:21:30.000Z</time>
      </trkpt>
      <trkpt lat="42.27842529304325580596923828125" lon="-3.7044670991599559783935546875">
        <ele>888.5999755859375</ele>
        <time>2019-07-08T09:21:31.000Z</time>
      </trkpt>
      <trkpt lat="42.27865478955209255218505859375" lon="-3.70459592901170253753662109375">
        <ele>891.20001220703125</ele>
        <time>2019-07-08T09:21:32.000Z</time>
      </trkpt>
      <trkpt lat="42.2788840346038341522216796875" lon="-3.70472551323473453521728515625">
        <ele>892.79998779296875</ele>
        <time>2019-07-08T09:21:33.000Z</time>
      </trkpt>
      <trkpt lat="42.27911395020782947540283203125" lon="-3.70485551655292510986328125">
        <ele>894.20001220703125</ele>
        <time>2019-07-08T09:21:34.000Z</time>
      </trkpt>
      <trkpt lat="42.2793447040021419525146484375" lon="-3.70498551987111568450927734375">
        <ele>896.4000244140625</ele>
        <time>2019-07-08T09:21:35.000Z</time>
      </trkpt>
      <trkpt lat="42.27957562543451786041259765625" lon="-3.70511476881802082061767578125">
        <ele>898</ele>
        <time>2019-07-08T09:21:36.000Z</time>
      </trkpt>
      <trkpt lat="42.27980554103851318359375" lon="-3.70524309575557708740234375">
        <ele>899.79998779296875</ele>
        <time>2019-07-08T09:21:37.000Z</time>
      </trkpt>
      <trkpt lat="42.2800340317189693450927734375" lon="-3.705368824303150177001953125">
        <ele>901.5999755859375</ele>
        <time>2019-07-08T09:21:38.000Z</time>
      </trkpt>
      <trkpt lat="42.2802620194852352142333984375" lon="-3.70549078099429607391357421875">
        <ele>903</ele>
        <time>2019-07-08T09:21:39.000Z</time>
      </trkpt>
      <trkpt lat="42.28048992343246936798095703125" lon="-3.705606870353221893310546875">
        <ele>904</ele>
        <time>2019-07-08T09:21:40.000Z</time>
      </trkpt>
      <trkpt lat="42.28071891702711582183837890625" lon="-3.70571474544703960418701171875">
        <ele>905.5999755859375</ele>
        <time>2019-07-08T09:21:41.000Z</time>
      </trkpt>
      <trkpt lat="42.28095226921141147613525390625" lon="-3.7058078683912754058837890625">
        <ele>906.79998779296875</ele>
        <time>2019-07-08T09:21:42.000Z</time>
      </trkpt>
      <trkpt lat="42.28119157254695892333984375" lon="-3.70588489808142185211181640625">
        <ele>908.5999755859375</ele>
        <time>2019-07-08T09:21:43.000Z</time>
      </trkpt>
      <trkpt lat="42.28143632411956787109375" lon="-3.7059476785361766815185546875">
        <ele>910</ele>
        <time>2019-07-08T09:21:44.000Z</time>
      </trkpt>
      <trkpt lat="42.28193680755794048309326171875" lon="-3.706032335758209228515625">
        <ele>911.4000244140625</ele>
        <time>2019-07-08T09:21:46.000Z</time>
      </trkpt>
      <trkpt lat="42.28244072757661342620849609375" lon="-3.7060482613742351531982421875">
        <ele>911.4000244140625</ele>
        <time>2019-07-08T09:21:48.000Z</time>
      </trkpt>
      <trkpt lat="42.28293542750179767608642578125" lon="-3.70600190944969654083251953125">
        <ele>910.5999755859375</ele>
        <time>2019-07-08T09:21:50.000Z</time>
      </trkpt>
      <trkpt lat="42.2831765748560428619384765625" lon="-3.70595413260161876678466796875">
        <ele>910</ele>
        <time>2019-07-08T09:21:51.000Z</time>
      </trkpt>
      <trkpt lat="42.283648811280727386474609375" lon="-3.7058175913989543914794921875">
        <ele>910.79998779296875</ele>
        <time>2019-07-08T09:21:53.000Z</time>
      </trkpt>
      <trkpt lat="42.28388224728405475616455078125" lon="-3.70573787949979305267333984375">
        <ele>912.20001220703125</ele>
        <time>2019-07-08T09:21:54.000Z</time>
      </trkpt>
      <trkpt lat="42.28411342017352581024169921875" lon="-3.7056569941341876983642578125">
        <ele>915</ele>
        <time>2019-07-08T09:21:55.000Z</time>
      </trkpt>
      <trkpt lat="42.28434316813945770263671875" lon="-3.7055777013301849365234375">
        <ele>917.20001220703125</ele>
        <time>2019-07-08T09:21:56.000Z</time>
      </trkpt>
      <trkpt lat="42.28457517921924591064453125" lon="-3.7055007554590702056884765625">
        <ele>919.20001220703125</ele>
        <time>2019-07-08T09:21:57.000Z</time>
      </trkpt>
      <trkpt lat="42.28481121361255645751953125" lon="-3.70542540214955806732177734375">
        <ele>920.79998779296875</ele>
        <time>2019-07-08T09:21:58.000Z</time>
      </trkpt>
      <trkpt lat="42.285051606595516204833984375" lon="-3.70534761808812618255615234375">
        <ele>923</ele>
        <time>2019-07-08T09:21:59.000Z</time>
      </trkpt>
      <trkpt lat="42.2852988727390766143798828125" lon="-3.70526664890348911285400390625">
        <ele>926.20001220703125</ele>
        <time>2019-07-08T09:22:00.000Z</time>
      </trkpt>
      <trkpt lat="42.28555284440517425537109375" lon="-3.70518132112920284271240234375">
        <ele>928.5999755859375</ele>
        <time>2019-07-08T09:22:01.000Z</time>
      </trkpt>
      <trkpt lat="42.28581494651734828948974609375" lon="-3.7050910480320453643798828125">
        <ele>931</ele>
        <time>2019-07-08T09:22:02.000Z</time>
      </trkpt>
      <trkpt lat="42.2860830835998058319091796875" lon="-3.70499608106911182403564453125">
        <ele>932.4000244140625</ele>
        <time>2019-07-08T09:22:03.000Z</time>
      </trkpt>
      <trkpt lat="42.2866292484104633331298828125" lon="-3.70481134392321109771728515625">
        <ele>932.5999755859375</ele>
        <time>2019-07-08T09:22:05.000Z</time>
      </trkpt>
      <trkpt lat="42.28715672157704830169677734375" lon="-3.70463834144175052642822265625">
        <ele>932.4000244140625</ele>
        <time>2019-07-08T09:22:07.000Z</time>
      </trkpt>
      <trkpt lat="42.28765678592026233673095703125" lon="-3.70447338558733463287353515625">
        <ele>934.5999755859375</ele>
        <time>2019-07-08T09:22:09.000Z</time>
      </trkpt>
      <trkpt lat="42.2879019565880298614501953125" lon="-3.70439526624977588653564453125">
        <ele>937.20001220703125</ele>
        <time>2019-07-08T09:22:10.000Z</time>
      </trkpt>
      <trkpt lat="42.2881450317800045013427734375" lon="-3.70431798510253429412841796875">
        <ele>938.5999755859375</ele>
        <time>2019-07-08T09:22:11.000Z</time>
      </trkpt>
      <trkpt lat="42.288626991212368011474609375" lon="-3.7041505984961986541748046875">
        <ele>939.4000244140625</ele>
        <time>2019-07-08T09:22:13.000Z</time>
      </trkpt>
      <trkpt lat="42.2891035862267017364501953125" lon="-3.70396309532225131988525390625">
        <ele>937.4000244140625</ele>
        <time>2019-07-08T09:22:15.000Z</time>
      </trkpt>
      <trkpt lat="42.28934188373386859893798828125" lon="-3.70387114584445953369140625">
        <ele>935.20001220703125</ele>
        <time>2019-07-08T09:22:16.000Z</time>
      </trkpt>
      <trkpt lat="42.28957842104136943817138671875" lon="-3.70378305204212665557861328125">
        <ele>932.20001220703125</ele>
        <time>2019-07-08T09:22:17.000Z</time>
      </trkpt>
      <trkpt lat="42.28981361724436283111572265625" lon="-3.70369805954396724700927734375">
        <ele>930.79998779296875</ele>
        <time>2019-07-08T09:22:18.000Z</time>
      </trkpt>
      <trkpt lat="42.29004948399960994720458984375" lon="-3.7036144919693470001220703125">
        <ele>929.4000244140625</ele>
        <time>2019-07-08T09:22:19.000Z</time>
      </trkpt>
      <trkpt lat="42.29052725248038768768310546875" lon="-3.7034549005329608917236328125">
        <ele>928.20001220703125</ele>
        <time>2019-07-08T09:22:21.000Z</time>
      </trkpt>
      <trkpt lat="42.2910113073885440826416015625" lon="-3.70329983532428741455078125">
        <ele>928.4000244140625</ele>
        <time>2019-07-08T09:22:23.000Z</time>
      </trkpt>
      <trkpt lat="42.29150843806564807891845703125" lon="-3.7031679041683673858642578125">
        <ele>928</ele>
        <time>2019-07-08T09:22:25.000Z</time>
      </trkpt>
      <trkpt lat="42.29176609776914119720458984375" lon="-3.70312356390058994293212890625">
        <ele>927</ele>
        <time>2019-07-08T09:22:26.000Z</time>
      </trkpt>
      <trkpt lat="42.29229935444891452789306640625" lon="-3.70308400131762027740478515625">
        <ele>926</ele>
        <time>2019-07-08T09:22:28.000Z</time>
      </trkpt>
      <trkpt lat="42.292571179568767547607421875" lon="-3.7030924670398235321044921875">
        <ele>924.79998779296875</ele>
        <time>2019-07-08T09:22:29.000Z</time>
      </trkpt>
      <trkpt lat="42.29284308850765228271484375" lon="-3.70311618782579898834228515625">
        <ele>923.20001220703125</ele>
        <time>2019-07-08T09:22:30.000Z</time>
      </trkpt>
      <trkpt lat="42.2931144945323467254638671875" lon="-3.70314284227788448333740234375">
        <ele>920.4000244140625</ele>
        <time>2019-07-08T09:22:31.000Z</time>
      </trkpt>
      <trkpt lat="42.29338414035737514495849609375" lon="-3.703168071806430816650390625">
        <ele>916.5999755859375</ele>
        <time>2019-07-08T09:22:32.000Z</time>
      </trkpt>
      <trkpt lat="42.29365001432597637176513671875" lon="-3.7031917087733745574951171875">
        <ele>912.5999755859375</ele>
        <time>2019-07-08T09:22:33.000Z</time>
      </trkpt>
      <trkpt lat="42.2939104400575160980224609375" lon="-3.7032146751880645751953125">
        <ele>910.79998779296875</ele>
        <time>2019-07-08T09:22:34.000Z</time>
      </trkpt>
      <trkpt lat="42.29442064650356769561767578125" lon="-3.70326605625450611114501953125">
        <ele>910.4000244140625</ele>
        <time>2019-07-08T09:22:36.000Z</time>
      </trkpt>
      <trkpt lat="42.2949276678264141082763671875" lon="-3.7033137492835521697998046875">
        <ele>912.4000244140625</ele>
        <time>2019-07-08T09:22:38.000Z</time>
      </trkpt>
      <trkpt lat="42.29518222622573375701904296875" lon="-3.70333763770759105682373046875">
        <ele>914.20001220703125</ele>
        <time>2019-07-08T09:22:39.000Z</time>
      </trkpt>
      <trkpt lat="42.29543971829116344451904296875" lon="-3.7033606879413127899169921875">
        <ele>916.20001220703125</ele>
        <time>2019-07-08T09:22:40.000Z</time>
      </trkpt>
      <trkpt lat="42.29569695889949798583984375" lon="-3.70338206179440021514892578125">
        <ele>917.4000244140625</ele>
        <time>2019-07-08T09:22:41.000Z</time>
      </trkpt>
      <trkpt lat="42.295953445136547088623046875" lon="-3.7034029327332973480224609375">
        <ele>919.20001220703125</ele>
        <time>2019-07-08T09:22:42.000Z</time>
      </trkpt>
      <trkpt lat="42.2962104342877864837646484375" lon="-3.70342330075800418853759765625">
        <ele>920.4000244140625</ele>
        <time>2019-07-08T09:22:43.000Z</time>
      </trkpt>
      <trkpt lat="42.296722233295440673828125" lon="-3.70345381088554859161376953125">
        <ele>921.4000244140625</ele>
        <time>2019-07-08T09:22:45.000Z</time>
      </trkpt>
      <trkpt lat="42.296976707875728607177734375" lon="-3.70345942676067352294921875">
        <ele>922.5999755859375</ele>
        <time>2019-07-08T09:22:46.000Z</time>
      </trkpt>
      <trkpt lat="42.2974828071892261505126953125" lon="-3.7034411542117595672607421875">
        <ele>923.5999755859375</ele>
        <time>2019-07-08T09:22:48.000Z</time>
      </trkpt>
      <trkpt lat="42.2979803569614887237548828125" lon="-3.70339731685817241668701171875">
        <ele>924</ele>
        <time>2019-07-08T09:22:50.000Z</time>
      </trkpt>
      <trkpt lat="42.29847438633441925048828125" lon="-3.703337721526622772216796875">
        <ele>924.4000244140625</ele>
        <time>2019-07-08T09:22:52.000Z</time>
      </trkpt>
      <trkpt lat="42.29872257448732852935791015625" lon="-3.70330511592328548431396484375">
        <ele>924.79998779296875</ele>
        <time>2019-07-08T09:22:53.000Z</time>
      </trkpt>
      <trkpt lat="42.2992238961160182952880859375" lon="-3.70323479175567626953125">
        <ele>925.4000244140625</ele>
        <time>2019-07-08T09:22:55.000Z</time>
      </trkpt>
      <trkpt lat="42.29972572065889835357666015625" lon="-3.70317083783447742462158203125">
        <ele>923.79998779296875</ele>
        <time>2019-07-08T09:22:57.000Z</time>
      </trkpt>
      <trkpt lat="42.299978099763393402099609375" lon="-3.70313915424048900604248046875">
        <ele>922.4000244140625</ele>
        <time>2019-07-08T09:22:58.000Z</time>
      </trkpt>
      <trkpt lat="42.30048445053398609161376953125" lon="-3.7030752003192901611328125">
        <ele>921.5999755859375</ele>
        <time>2019-07-08T09:23:00.000Z</time>
      </trkpt>
      <trkpt lat="42.30073389597237110137939453125" lon="-3.70304636657238006591796875">
        <ele>921.20001220703125</ele>
        <time>2019-07-08T09:23:01.000Z</time>
      </trkpt>
      <trkpt lat="42.3012251593172550201416015625" lon="-3.70298660360276699066162109375">
        <ele>920.79998779296875</ele>
        <time>2019-07-08T09:23:03.000Z</time>
      </trkpt>
      <trkpt lat="42.30171315371990203857421875" lon="-3.70292055420577526092529296875">
        <ele>920</ele>
        <time>2019-07-08T09:23:05.000Z</time>
      </trkpt>
      <trkpt lat="42.30220743454992771148681640625" lon="-3.70285500772297382354736328125">
        <ele>919</ele>
        <time>2019-07-08T09:23:07.000Z</time>
      </trkpt>
      <trkpt lat="42.30270883999764919281005859375" lon="-3.70278862304985523223876953125">
        <ele>919.5999755859375</ele>
        <time>2019-07-08T09:23:09.000Z</time>
      </trkpt>
      <trkpt lat="42.30321611277759075164794921875" lon="-3.70272374711930751800537109375">
        <ele>920.79998779296875</ele>
        <time>2019-07-08T09:23:11.000Z</time>
      </trkpt>
      <trkpt lat="42.3034637980163097381591796875" lon="-3.70268921367824077606201171875">
        <ele>921.20001220703125</ele>
        <time>2019-07-08T09:23:12.000Z</time>
      </trkpt>
      <trkpt lat="42.303932346403598785400390625" lon="-3.70262333191931247711181640625">
        <ele>920.4000244140625</ele>
        <time>2019-07-08T09:23:14.000Z</time>
      </trkpt>
      <trkpt lat="42.304155640304088592529296875" lon="-3.70259382762014865875244140625">
        <ele>920</ele>
        <time>2019-07-08T09:23:15.000Z</time>
      </trkpt>
      <trkpt lat="42.30437499471008777618408203125" lon="-3.70256625115871429443359375">
        <ele>918.79998779296875</ele>
        <time>2019-07-08T09:23:16.000Z</time>
      </trkpt>
      <trkpt lat="42.30459275655448436737060546875" lon="-3.70254102163016796112060546875">
        <ele>917.5999755859375</ele>
        <time>2019-07-08T09:23:17.000Z</time>
      </trkpt>
      <trkpt lat="42.30525341816246509552001953125" lon="-3.70245452038943767547607421875">
        <ele>918.4000244140625</ele>
        <time>2019-07-08T09:23:20.000Z</time>
      </trkpt>
      <trkpt lat="42.30547436513006687164306640625" lon="-3.70242820121347904205322265625">
        <ele>919.5999755859375</ele>
        <time>2019-07-08T09:23:21.000Z</time>
      </trkpt>
      <trkpt lat="42.30592430569231510162353515625" lon="-3.7023751437664031982421875">
        <ele>919.4000244140625</ele>
        <time>2019-07-08T09:23:23.000Z</time>
      </trkpt>
      <trkpt lat="42.30638497509062290191650390625" lon="-3.70231504552066326141357421875">
        <ele>919.5999755859375</ele>
        <time>2019-07-08T09:23:25.000Z</time>
      </trkpt>
      <trkpt lat="42.3068551160395145416259765625" lon="-3.70225511491298675537109375">
        <ele>920</ele>
        <time>2019-07-08T09:23:27.000Z</time>
      </trkpt>
      <trkpt lat="42.3073322139680385589599609375" lon="-3.70220356620848178863525390625">
        <ele>920.20001220703125</ele>
        <time>2019-07-08T09:23:29.000Z</time>
      </trkpt>
      <trkpt lat="42.307824902236461639404296875" lon="-3.70217791758477687835693359375">
        <ele>919.79998779296875</ele>
        <time>2019-07-08T09:23:31.000Z</time>
      </trkpt>
      <trkpt lat="42.30833142064511775970458984375" lon="-3.7021939270198345184326171875">
        <ele>919.79998779296875</ele>
        <time>2019-07-08T09:23:33.000Z</time>
      </trkpt>
      <trkpt lat="42.30883919633924961090087890625" lon="-3.7022338248789310455322265625">
        <ele>919.4000244140625</ele>
        <time>2019-07-08T09:23:35.000Z</time>
      </trkpt>
      <trkpt lat="42.30932132340967655181884765625" lon="-3.70227498002350330352783203125">
        <ele>918</ele>
        <time>2019-07-08T09:23:37.000Z</time>
      </trkpt>
      <trkpt lat="42.30977361090481281280517578125" lon="-3.70230515487492084503173828125">
        <ele>917.5999755859375</ele>
        <time>2019-07-08T09:23:39.000Z</time>
      </trkpt>
      <trkpt lat="42.3103654570877552032470703125" lon="-3.70233382098376750946044921875">
        <ele>917.5999755859375</ele>
        <time>2019-07-08T09:23:42.000Z</time>
      </trkpt>
      <trkpt lat="42.310896702110767364501953125" lon="-3.702331222593784332275390625">
        <ele>918.4000244140625</ele>
        <time>2019-07-08T09:23:45.000Z</time>
      </trkpt>
      <trkpt lat="42.311061657965183258056640625" lon="-3.702319823205471038818359375">
        <ele>919</ele>
        <time>2019-07-08T09:23:46.000Z</time>
      </trkpt>
      <trkpt lat="42.3115508258342742919921875" lon="-3.7022489123046398162841796875">
        <ele>919</ele>
        <time>2019-07-08T09:23:49.000Z</time>
      </trkpt>
      <trkpt lat="42.31207796372473239898681640625" lon="-3.70211957953870296478271484375">
        <ele>917.79998779296875</ele>
        <time>2019-07-08T09:23:52.000Z</time>
      </trkpt>
      <trkpt lat="42.3124508745968341827392578125" lon="-3.7020162306725978851318359375">
        <ele>916.4000244140625</ele>
        <time>2019-07-08T09:23:54.000Z</time>
      </trkpt>
      <trkpt lat="42.31263510882854461669921875" lon="-3.7019647657871246337890625">
        <ele>914.79998779296875</ele>
        <time>2019-07-08T09:23:55.000Z</time>
      </trkpt>
      <trkpt lat="42.31281842105090618133544921875" lon="-3.701916821300983428955078125">
        <ele>913.5999755859375</ele>
        <time>2019-07-08T09:23:56.000Z</time>
      </trkpt>
      <trkpt lat="42.313002236187458038330078125" lon="-3.7018680386245250701904296875">
        <ele>912</ele>
        <time>2019-07-08T09:23:57.000Z</time>
      </trkpt>
      <trkpt lat="42.31318823061883449554443359375" lon="-3.70181783102452754974365234375">
        <ele>911</ele>
        <time>2019-07-08T09:23:58.000Z</time>
      </trkpt>
      <trkpt lat="42.31356474570930004119873046875" lon="-3.7017302401363849639892578125">
        <ele>909.79998779296875</ele>
        <time>2019-07-08T09:24:00.000Z</time>
      </trkpt>
      <trkpt lat="42.31395668350160121917724609375" lon="-3.70167885906994342803955078125">
        <ele>908.79998779296875</ele>
        <time>2019-07-08T09:24:02.000Z</time>
      </trkpt>
      <trkpt lat="42.31434074230492115020751953125" lon="-3.701680786907672882080078125">
        <ele>907.5999755859375</ele>
        <time>2019-07-08T09:24:04.000Z</time>
      </trkpt>
      <trkpt lat="42.31490702368319034576416015625" lon="-3.701721690595149993896484375">
        <ele>906.5999755859375</ele>
        <time>2019-07-08T09:24:07.000Z</time>
      </trkpt>
      <trkpt lat="42.31546995230019092559814453125" lon="-3.70176033116877079010009765625">
        <ele>905.79998779296875</ele>
        <time>2019-07-08T09:24:10.000Z</time>
      </trkpt>
      <trkpt lat="42.31565871275961399078369140625" lon="-3.7017731554806232452392578125">
        <ele>904.79998779296875</ele>
        <time>2019-07-08T09:24:11.000Z</time>
      </trkpt>
      <trkpt lat="42.31584864668548107147216796875" lon="-3.70179335586726665496826171875">
        <ele>903.79998779296875</ele>
        <time>2019-07-08T09:24:12.000Z</time>
      </trkpt>
      <trkpt lat="42.316039837896823883056640625" lon="-3.70183057151734828948974609375">
        <ele>902.5999755859375</ele>
        <time>2019-07-08T09:24:13.000Z</time>
      </trkpt>
      <trkpt lat="42.31642716564238071441650390625" lon="-3.70193861424922943115234375">
        <ele>901.20001220703125</ele>
        <time>2019-07-08T09:24:15.000Z</time>
      </trkpt>
      <trkpt lat="42.3166183568537235260009765625" lon="-3.70199435390532016754150390625">
        <ele>900.20001220703125</ele>
        <time>2019-07-08T09:24:16.000Z</time>
      </trkpt>
      <trkpt lat="42.31700585223734378814697265625" lon="-3.70210583321750164031982421875">
        <ele>898.5999755859375</ele>
        <time>2019-07-08T09:24:18.000Z</time>
      </trkpt>
      <trkpt lat="42.31738991104066371917724609375" lon="-3.70217976160347461700439453125">
        <ele>897.20001220703125</ele>
        <time>2019-07-08T09:24:20.000Z</time>
      </trkpt>
      <trkpt lat="42.3175832815468311309814453125" lon="-3.70218797586858272552490234375">
        <ele>896</ele>
        <time>2019-07-08T09:24:21.000Z</time>
      </trkpt>
      <trkpt lat="42.31778050772845745086669921875" lon="-3.70217087678611278533935546875">
        <ele>895</ele>
        <time>2019-07-08T09:24:22.000Z</time>
      </trkpt>
      <trkpt lat="42.3179799132049083709716796875" lon="-3.70213131420314311981201171875">
        <ele>893.79998779296875</ele>
        <time>2019-07-08T09:24:23.000Z</time>
      </trkpt>
      <trkpt lat="42.318181581795215606689453125" lon="-3.70207783766090869903564453125">
        <ele>892.5999755859375</ele>
        <time>2019-07-08T09:24:24.000Z</time>
      </trkpt>
      <trkpt lat="42.31838786043226718902587890625" lon="-3.70201732032001018524169921875">
        <ele>891.5999755859375</ele>
        <time>2019-07-08T09:24:25.000Z</time>
      </trkpt>
      <trkpt lat="42.31859321705996990203857421875" lon="-3.70195244438946247100830078125">
        <ele>890.20001220703125</ele>
        <time>2019-07-08T09:24:26.000Z</time>
      </trkpt>
      <trkpt lat="42.318790443241596221923828125" lon="-3.7018842995166778564453125">
        <ele>888.79998779296875</ele>
        <time>2019-07-08T09:24:27.000Z</time>
      </trkpt>
      <trkpt lat="42.3191607557237148284912109375" lon="-3.70174239389598369598388671875">
        <ele>887.79998779296875</ele>
        <time>2019-07-08T09:24:29.000Z</time>
      </trkpt>
      <trkpt lat="42.31968822889029979705810546875" lon="-3.7015341036021709442138671875">
        <ele>887</ele>
        <time>2019-07-08T09:24:32.000Z</time>
      </trkpt>
      <trkpt lat="42.32020027935504913330078125" lon="-3.701323382556438446044921875">
        <ele>886.79998779296875</ele>
        <time>2019-07-08T09:24:35.000Z</time>
      </trkpt>
      <trkpt lat="42.32036917470395565032958984375" lon="-3.70125004090368747711181640625">
        <ele>885.5999755859375</ele>
        <time>2019-07-08T09:24:36.000Z</time>
      </trkpt>
      <trkpt lat="42.320539914071559906005859375" lon="-3.70117359794676303863525390625">
        <ele>884.20001220703125</ele>
        <time>2019-07-08T09:24:37.000Z</time>
      </trkpt>
      <trkpt lat="42.3207107372581958770751953125" lon="-3.7010969035327434539794921875">
        <ele>883.20001220703125</ele>
        <time>2019-07-08T09:24:38.000Z</time>
      </trkpt>
      <trkpt lat="42.321039475500583648681640625" lon="-3.70093756355345249176025390625">
        <ele>881.4000244140625</ele>
        <time>2019-07-08T09:24:40.000Z</time>
      </trkpt>
      <trkpt lat="42.3213534615933895111083984375" lon="-3.7007663212716579437255859375">
        <ele>879.79998779296875</ele>
        <time>2019-07-08T09:24:42.000Z</time>
      </trkpt>
      <trkpt lat="42.32182963751256465911865234375" lon="-3.700508661568164825439453125">
        <ele>878.79998779296875</ele>
        <time>2019-07-08T09:24:45.000Z</time>
      </trkpt>
      <trkpt lat="42.321997024118900299072265625" lon="-3.7004444561898708343505859375">
        <ele>879</ele>
        <time>2019-07-08T09:24:46.000Z</time>
      </trkpt>
      <trkpt lat="42.32234294526278972625732421875" lon="-3.7003951705992221832275390625">
        <ele>879.20001220703125</ele>
        <time>2019-07-08T09:24:48.000Z</time>
      </trkpt>
      <trkpt lat="42.3228263296186923980712890625" lon="-3.70050908066332340240478515625">
        <ele>879.5999755859375</ele>
        <time>2019-07-08T09:24:51.000Z</time>
      </trkpt>
      <trkpt lat="42.3230965621769428253173828125" lon="-3.7006469629704952239990234375">
        <ele>880</ele>
        <time>2019-07-08T09:24:53.000Z</time>
      </trkpt>
      <trkpt lat="42.32335698790848255157470703125" lon="-3.70082122273743152618408203125">
        <ele>882</ele>
        <time>2019-07-08T09:24:55.000Z</time>
      </trkpt>
      <trkpt lat="42.32378077693283557891845703125" lon="-3.7011049501597881317138671875">
        <ele>882.79998779296875</ele>
        <time>2019-07-08T09:24:58.000Z</time>
      </trkpt>
      <trkpt lat="42.3242673464119434356689453125" lon="-3.70131240226328372955322265625">
        <ele>880.79998779296875</ele>
        <time>2019-07-08T09:25:01.000Z</time>
      </trkpt>
      <trkpt lat="42.32444043271243572235107421875" lon="-3.70135246776044368743896484375">
        <ele>879.5999755859375</ele>
        <time>2019-07-08T09:25:02.000Z</time>
      </trkpt>
      <trkpt lat="42.32461829669773578643798828125" lon="-3.7013668008148670196533203125">
        <ele>878.20001220703125</ele>
        <time>2019-07-08T09:25:03.000Z</time>
      </trkpt>
      <trkpt lat="42.32480001635849475860595703125" lon="-3.7013554014265537261962890625">
        <ele>877</ele>
        <time>2019-07-08T09:25:04.000Z</time>
      </trkpt>
      <trkpt lat="42.324981987476348876953125" lon="-3.7013342790305614471435546875">
        <ele>875.4000244140625</ele>
        <time>2019-07-08T09:25:05.000Z</time>
      </trkpt>
      <trkpt lat="42.32516496442258358001708984375" lon="-3.70130921714007854461669921875">
        <ele>874</ele>
        <time>2019-07-08T09:25:06.000Z</time>
      </trkpt>
      <trkpt lat="42.32534349896013736724853515625" lon="-3.70127585716545581817626953125">
        <ele>872.4000244140625</ele>
        <time>2019-07-08T09:25:07.000Z</time>
      </trkpt>
      <trkpt lat="42.32551415450870990753173828125" lon="-3.70123294182121753692626953125">
        <ele>871</ele>
        <time>2019-07-08T09:25:08.000Z</time>
      </trkpt>
      <trkpt lat="42.32567927800118923187255859375" lon="-3.701184578239917755126953125">
        <ele>869.4000244140625</ele>
        <time>2019-07-08T09:25:09.000Z</time>
      </trkpt>
      <trkpt lat="42.32584104873239994049072265625" lon="-3.7011391483247280120849609375">
        <ele>867.5999755859375</ele>
        <time>2019-07-08T09:25:10.000Z</time>
      </trkpt>
      <trkpt lat="42.325997538864612579345703125" lon="-3.70109598152339458465576171875">
        <ele>866</ele>
        <time>2019-07-08T09:25:11.000Z</time>
      </trkpt>
      <trkpt lat="42.32614941895008087158203125" lon="-3.70105206035077571868896484375">
        <ele>864.4000244140625</ele>
        <time>2019-07-08T09:25:12.000Z</time>
      </trkpt>
      <trkpt lat="42.32629735954105854034423828125" lon="-3.701009564101696014404296875">
        <ele>863.20001220703125</ele>
        <time>2019-07-08T09:25:13.000Z</time>
      </trkpt>
      <trkpt lat="42.32657077722251415252685546875" lon="-3.70093722827732563018798828125">
        <ele>861.79998779296875</ele>
        <time>2019-07-08T09:25:15.000Z</time>
      </trkpt>
      <trkpt lat="42.32709280215203762054443359375" lon="-3.7008072249591350555419921875">
        <ele>861.20001220703125</ele>
        <time>2019-07-08T09:25:20.000Z</time>
      </trkpt>
      <trkpt lat="42.327482812106609344482421875" lon="-3.7007002718746662139892578125">
        <ele>860</ele>
        <time>2019-07-08T09:25:24.000Z</time>
      </trkpt>
      <trkpt lat="42.327939458191394805908203125" lon="-3.70061083696782588958740234375">
        <ele>859.4000244140625</ele>
        <time>2019-07-08T09:25:28.000Z</time>
      </trkpt>
      <trkpt lat="42.32840356417000293731689453125" lon="-3.70048745535314083099365234375">
        <ele>860.79998779296875</ele>
        <time>2019-07-08T09:25:32.000Z</time>
      </trkpt>
      <trkpt lat="42.328866161406040191650390625" lon="-3.70046817697584629058837890625">
        <ele>860.4000244140625</ele>
        <time>2019-07-08T09:25:37.000Z</time>
      </trkpt>
      <trkpt lat="42.32913069427013397216796875" lon="-3.700388632714748382568359375">
        <ele>858.5999755859375</ele>
        <time>2019-07-08T09:25:40.000Z</time>
      </trkpt>
      <trkpt lat="42.32922817580401897430419921875" lon="-3.70036390610039234161376953125">
        <ele>857.5999755859375</ele>
        <time>2019-07-08T09:25:41.000Z</time>
      </trkpt>
      <trkpt lat="42.329332195222377777099609375" lon="-3.7003527581691741943359375">
        <ele>856.5999755859375</ele>
        <time>2019-07-08T09:25:42.000Z</time>
      </trkpt>
      <trkpt lat="42.32953947968780994415283203125" lon="-3.70032249949872493743896484375">
        <ele>855</ele>
        <time>2019-07-08T09:25:44.000Z</time>
      </trkpt>
      <trkpt lat="42.32974802143871784210205078125" lon="-3.70031009428203105926513671875">
        <ele>853.79998779296875</ele>
        <time>2019-07-08T09:25:46.000Z</time>
      </trkpt>
      <trkpt lat="42.33004976995289325714111328125" lon="-3.70029718615114688873291015625">
        <ele>852.5999755859375</ele>
        <time>2019-07-08T09:25:49.000Z</time>
      </trkpt>
      <trkpt lat="42.33023853041231632232666015625" lon="-3.70026583783328533172607421875">
        <ele>851.5999755859375</ele>
        <time>2019-07-08T09:25:51.000Z</time>
      </trkpt>
      <trkpt lat="42.330732308328151702880859375" lon="-3.70019593276083469390869140625">
        <ele>850.79998779296875</ele>
        <time>2019-07-08T09:25:56.000Z</time>
      </trkpt>
      <trkpt lat="42.33083331026136875152587890625" lon="-3.7002117745578289031982421875">
        <ele>851.4000244140625</ele>
        <time>2019-07-08T09:25:57.000Z</time>
      </trkpt>
      <trkpt lat="42.33127604238688945770263671875" lon="-3.70009853504598140716552734375">
        <ele>850.4000244140625</ele>
        <time>2019-07-08T09:26:03.000Z</time>
      </trkpt>
      <trkpt lat="42.33162540011107921600341796875" lon="-3.70005570352077484130859375">
        <ele>851.4000244140625</ele>
        <time>2019-07-08T09:26:07.000Z</time>
      </trkpt>
      <trkpt lat="42.33215027488768100738525390625" lon="-3.69999535381793975830078125">
        <ele>852.20001220703125</ele>
        <time>2019-07-08T09:26:13.000Z</time>
      </trkpt>
      <trkpt lat="42.3326710425317287445068359375" lon="-3.699943386018276214599609375">
        <ele>852</ele>
        <time>2019-07-08T09:26:19.000Z</time>
      </trkpt>
      <trkpt lat="42.3327538557350635528564453125" lon="-3.69993642903864383697509765625">
        <ele>852.5999755859375</ele>
        <time>2019-07-08T09:26:20.000Z</time>
      </trkpt>
      <trkpt lat="42.33295376412570476531982421875" lon="-3.699882365763187408447265625">
        <ele>853.79998779296875</ele>
        <time>2019-07-08T09:26:23.000Z</time>
      </trkpt>
      <trkpt lat="42.3330364935100078582763671875" lon="-3.6998493410646915435791015625">
        <ele>853.5999755859375</ele>
        <time>2019-07-08T09:26:26.000Z</time>
      </trkpt>
      <trkpt lat="42.3331404291093349456787109375" lon="-3.69972185231745243072509765625">
        <ele>853.4000244140625</ele>
        <time>2019-07-08T09:26:30.000Z</time>
      </trkpt>
      <trkpt lat="42.33323070220649242401123046875" lon="-3.6995358578860759735107421875">
        <ele>853.20001220703125</ele>
        <time>2019-07-08T09:26:33.000Z</time>
      </trkpt>
      <trkpt lat="42.33334134332835674285888671875" lon="-3.6994255520403385162353515625">
        <ele>853.20001220703125</ele>
        <time>2019-07-08T09:26:35.000Z</time>
      </trkpt>
      <trkpt lat="42.33346137218177318572998046875" lon="-3.69944751262664794921875">
        <ele>852.79998779296875</ele>
        <time>2019-07-08T09:26:37.000Z</time>
      </trkpt>
      <trkpt lat="42.33352960087358951568603515625" lon="-3.6994761787354946136474609375">
        <ele>852.5999755859375</ele>
        <time>2019-07-08T09:26:38.000Z</time>
      </trkpt>
      <trkpt lat="42.3336067982017993927001953125" lon="-3.69949369691312313079833984375">
        <ele>852.4000244140625</ele>
        <time>2019-07-08T09:26:39.000Z</time>
      </trkpt>
      <trkpt lat="42.33373872935771942138671875" lon="-3.6995355226099491119384765625">
        <ele>851.79998779296875</ele>
        <time>2019-07-08T09:26:41.000Z</time>
      </trkpt>
      <trkpt lat="42.3338964767754077911376953125" lon="-3.69949118234217166900634765625">
        <ele>851.5999755859375</ele>
        <time>2019-07-08T09:26:43.000Z</time>
      </trkpt>
      <trkpt lat="42.3340520448982715606689453125" lon="-3.69947844184935092926025390625">
        <ele>852.5999755859375</ele>
        <time>2019-07-08T09:26:51.000Z</time>
      </trkpt>
      <trkpt lat="42.33409705571830272674560546875" lon="-3.69949101470410823822021484375">
        <ele>852.5999755859375</ele>
        <time>2019-07-08T09:27:13.000Z</time>
      </trkpt>
      <trkpt lat="42.3342139832675457000732421875" lon="-3.69954750873148441314697265625">
        <ele>852.5999755859375</ele>
        <time>2019-07-08T09:27:15.000Z</time>
      </trkpt>
      <trkpt lat="42.334534339606761932373046875" lon="-3.69969368912279605865478515625">
        <ele>851</ele>
        <time>2019-07-08T09:27:19.000Z</time>
      </trkpt>
      <trkpt lat="42.3347544483840465545654296875" lon="-3.69979108683764934539794921875">
        <ele>850</ele>
        <time>2019-07-08T09:27:22.000Z</time>
      </trkpt>
      <trkpt lat="42.33489450998604297637939453125" lon="-3.69985881261527538299560546875">
        <ele>849</ele>
        <time>2019-07-08T09:27:24.000Z</time>
      </trkpt>
      <trkpt lat="42.33502862043678760528564453125" lon="-3.699970878660678863525390625">
        <ele>850.4000244140625</ele>
        <time>2019-07-08T09:27:30.000Z</time>
      </trkpt>
      <trkpt lat="42.33549959957599639892578125" lon="-3.7001645006239414215087890625">
        <ele>851</ele>
        <time>2019-07-08T09:27:41.000Z</time>
      </trkpt>
      <trkpt lat="42.33590058982372283935546875" lon="-3.70033892802894115447998046875">
        <ele>850.4000244140625</ele>
        <time>2019-07-08T09:27:48.000Z</time>
      </trkpt>
      <trkpt lat="42.3361589200794696807861328125" lon="-3.700468428432941436767578125">
        <ele>850.4000244140625</ele>
        <time>2019-07-08T09:27:55.000Z</time>
      </trkpt>
      <trkpt lat="42.33659000135958194732666015625" lon="-3.70068912394344806671142578125">
        <ele>850.20001220703125</ele>
        <time>2019-07-08T09:28:02.000Z</time>
      </trkpt>
      <trkpt lat="42.336751520633697509765625" lon="-3.70079867541790008544921875">
        <ele>850</ele>
        <time>2019-07-08T09:28:42.000Z</time>
      </trkpt>
      <trkpt lat="42.33692024834454059600830078125" lon="-3.70097410865128040313720703125">
        <ele>849.4000244140625</ele>
        <time>2019-07-08T09:28:46.000Z</time>
      </trkpt>
      <trkpt lat="42.33713599853217601776123046875" lon="-3.70116479694843292236328125">
        <ele>849.20001220703125</ele>
        <time>2019-07-08T09:28:50.000Z</time>
      </trkpt>
      <trkpt lat="42.33726843260228633880615234375" lon="-3.70126043446362018585205078125">
        <ele>848.79998779296875</ele>
        <time>2019-07-08T09:28:52.000Z</time>
      </trkpt>
      <trkpt lat="42.337543107569217681884765625" lon="-3.7014750950038433074951171875">
        <ele>848.4000244140625</ele>
        <time>2019-07-08T09:28:56.000Z</time>
      </trkpt>
      <trkpt lat="42.33784611336886882781982421875" lon="-3.701749853789806365966796875">
        <ele>848.4000244140625</ele>
        <time>2019-07-08T09:29:01.000Z</time>
      </trkpt>
      <trkpt lat="42.338009141385555267333984375" lon="-3.7019706331193447113037109375">
        <ele>849.20001220703125</ele>
        <time>2019-07-08T09:29:13.000Z</time>
      </trkpt>
      <trkpt lat="42.3380364663898944854736328125" lon="-3.70200759731233119964599609375">
        <ele>849.4000244140625</ele>
        <time>2019-07-08T09:29:16.000Z</time>
      </trkpt>
      <trkpt lat="42.33810310252010822296142578125" lon="-3.7020289711654186248779296875">
        <ele>849.5999755859375</ele>
        <time>2019-07-08T09:29:18.000Z</time>
      </trkpt>
      <trkpt lat="42.33824039809405803680419921875" lon="-3.70208906941115856170654296875">
        <ele>849.79998779296875</ele>
        <time>2019-07-08T09:29:20.000Z</time>
      </trkpt>
      <trkpt lat="42.3386111296713352203369140625" lon="-3.70229962281882762908935546875">
        <ele>848.20001220703125</ele>
        <time>2019-07-08T09:29:25.000Z</time>
      </trkpt>
      <trkpt lat="42.33885026536881923675537109375" lon="-3.70243071578443050384521484375">
        <ele>847.5999755859375</ele>
        <time>2019-07-08T09:29:29.000Z</time>
      </trkpt>
      <trkpt lat="42.33904891647398471832275390625" lon="-3.70247094891965389251708984375">
        <ele>849.20001220703125</ele>
        <time>2019-07-08T09:29:36.000Z</time>
      </trkpt>
      <trkpt lat="42.33908378519117832183837890625" lon="-3.702520988881587982177734375">
        <ele>849.4000244140625</ele>
        <time>2019-07-08T09:29:37.000Z</time>
      </trkpt>
      <trkpt lat="42.33910893090069293975830078125" lon="-3.702580668032169342041015625">
        <ele>849.4000244140625</ele>
        <time>2019-07-08T09:29:38.000Z</time>
      </trkpt>
      <trkpt lat="42.339063584804534912109375" lon="-3.70297621004283428192138671875">
        <ele>850.4000244140625</ele>
        <time>2019-07-08T09:29:47.000Z</time>
      </trkpt>
      <trkpt lat="42.33901404775679111480712890625" lon="-3.70314099825918674468994140625">
        <ele>850.79998779296875</ele>
        <time>2019-07-08T09:30:05.000Z</time>
      </trkpt>
      <trkpt lat="42.33882822096347808837890625" lon="-3.70360552333295345306396484375">
        <ele>849.4000244140625</ele>
        <time>2019-07-08T09:30:11.000Z</time>
      </trkpt>
      <trkpt lat="42.33874239027500152587890625" lon="-3.7037586607038974761962890625">
        <ele>849.20001220703125</ele>
        <time>2019-07-08T09:30:13.000Z</time>
      </trkpt>
      <trkpt lat="42.33838909305632114410400390625" lon="-3.7042220123112201690673828125">
        <ele>848.20001220703125</ele>
        <time>2019-07-08T09:30:19.000Z</time>
      </trkpt>
      <trkpt lat="42.33807879500091075897216796875" lon="-3.70461487211287021636962890625">
        <ele>847.4000244140625</ele>
        <time>2019-07-08T09:30:25.000Z</time>
      </trkpt>
      <trkpt lat="42.33788014389574527740478515625" lon="-3.7049207277595996856689453125">
        <ele>847.20001220703125</ele>
        <time>2019-07-08T09:30:29.000Z</time>
      </trkpt>
      <trkpt lat="42.3375580273568630218505859375" lon="-3.70537678711116313934326171875">
        <ele>847</ele>
        <time>2019-07-08T09:30:35.000Z</time>
      </trkpt>
      <trkpt lat="42.33748686499893665313720703125" lon="-3.70551341213285923004150390625">
        <ele>847.20001220703125</ele>
        <time>2019-07-08T09:30:37.000Z</time>
      </trkpt>
      <trkpt lat="42.33725803904235363006591796875" lon="-3.7061168253421783447265625">
        <ele>847.4000244140625</ele>
        <time>2019-07-08T09:30:43.000Z</time>
      </trkpt>
      <trkpt lat="42.337001301348209381103515625" lon="-3.7067751400172710418701171875">
        <ele>846.79998779296875</ele>
        <time>2019-07-08T09:30:48.000Z</time>
      </trkpt>
      <trkpt lat="42.33686794526875019073486328125" lon="-3.70739380829036235809326171875">
        <ele>847</ele>
        <time>2019-07-08T09:30:54.000Z</time>
      </trkpt>
      <trkpt lat="42.3367791809141635894775390625" lon="-3.7078366242349147796630859375">
        <ele>848.4000244140625</ele>
        <time>2019-07-08T09:31:00.000Z</time>
      </trkpt>
      <trkpt lat="42.336706258356571197509765625" lon="-3.70823652483522891998291015625">
        <ele>848.5999755859375</ele>
        <time>2019-07-08T09:31:06.000Z</time>
      </trkpt>
      <trkpt lat="42.3367298953235149383544921875" lon="-3.7083717249333858489990234375">
        <ele>848.5999755859375</ele>
        <time>2019-07-08T09:31:08.000Z</time>
      </trkpt>
      <trkpt lat="42.33683458529412746429443359375" lon="-3.708488233387470245361328125">
        <ele>849.20001220703125</ele>
        <time>2019-07-08T09:31:19.000Z</time>
      </trkpt>
      <trkpt lat="42.33695008791983127593994140625" lon="-3.70853626169264316558837890625">
        <ele>848.79998779296875</ele>
        <time>2019-07-08T09:31:21.000Z</time>
      </trkpt>
      <trkpt lat="42.3373186402022838592529296875" lon="-3.708645142614841461181640625">
        <ele>847.5999755859375</ele>
        <time>2019-07-08T09:31:27.000Z</time>
      </trkpt>
      <trkpt lat="42.337397597730159759521484375" lon="-3.70861706323921680450439453125">
        <ele>848</ele>
        <time>2019-07-08T09:31:29.000Z</time>
      </trkpt>
      <trkpt lat="42.33755341731011867523193359375" lon="-3.708504997193813323974609375">
        <ele>848.20001220703125</ele>
        <time>2019-07-08T09:31:32.000Z</time>
      </trkpt>
      <trkpt lat="42.33766146004199981689453125" lon="-3.70847641490399837493896484375">
        <ele>847.5999755859375</ele>
        <time>2019-07-08T09:31:34.000Z</time>
      </trkpt>
      <trkpt lat="42.33771183528006076812744140625" lon="-3.708472810685634613037109375">
        <ele>847.20001220703125</ele>
        <time>2019-07-08T09:31:35.000Z</time>
      </trkpt>
      <trkpt lat="42.33775961212813854217529296875" lon="-3.708472810685634613037109375">
        <ele>847</ele>
        <time>2019-07-08T09:31:36.000Z</time>
      </trkpt>
      <trkpt lat="42.33785332180559635162353515625" lon="-3.70842109434306621551513671875">
        <ele>846.5999755859375</ele>
        <time>2019-07-08T09:31:38.000Z</time>
      </trkpt>
      <trkpt lat="42.337960191071033477783203125" lon="-3.70830056257545948028564453125">
        <ele>846.20001220703125</ele>
        <time>2019-07-08T09:31:40.000Z</time>
      </trkpt>
      <trkpt lat="42.33813486993312835693359375" lon="-3.708043992519378662109375">
        <ele>845</ele>
        <time>2019-07-08T09:31:43.000Z</time>
      </trkpt>
      <trkpt lat="42.33843167312443256378173828125" lon="-3.7075134180486202239990234375">
        <ele>845.4000244140625</ele>
        <time>2019-07-08T09:31:49.000Z</time>
      </trkpt>
      <trkpt lat="42.33857416547834873199462890625" lon="-3.7072378210723400115966796875">
        <ele>845.79998779296875</ele>
        <time>2019-07-08T09:31:52.000Z</time>
      </trkpt>
      <trkpt lat="42.33861842192709445953369140625" lon="-3.7071312032639980316162109375">
        <ele>846</ele>
        <time>2019-07-08T09:31:53.000Z</time>
      </trkpt>
      <trkpt lat="42.33889183960855007171630859375" lon="-3.70658311061561107635498046875">
        <ele>845.4000244140625</ele>
        <time>2019-07-08T09:31:59.000Z</time>
      </trkpt>
      <trkpt lat="42.3390798456966876983642578125" lon="-3.7062856368720531463623046875">
        <ele>846.79998779296875</ele>
        <time>2019-07-08T09:32:04.000Z</time>
      </trkpt>
      <trkpt lat="42.33910406939685344696044921875" lon="-3.70622620917856693267822265625">
        <ele>847.5999755859375</ele>
        <time>2019-07-08T09:32:05.000Z</time>
      </trkpt>
      <trkpt lat="42.3391184024512767791748046875" lon="-3.7061599083244800567626953125">
        <ele>848</ele>
        <time>2019-07-08T09:32:06.000Z</time>
      </trkpt>
      <trkpt lat="42.3391137085855007171630859375" lon="-3.70598749257624149322509765625">
        <ele>848.4000244140625</ele>
        <time>2019-07-08T09:32:08.000Z</time>
      </trkpt>
      <trkpt lat="42.33908814378082752227783203125" lon="-3.70532247237861156463623046875">
        <ele>848.20001220703125</ele>
        <time>2019-07-08T09:32:17.000Z</time>
      </trkpt>
      <trkpt lat="42.33909619040787220001220703125" lon="-3.7049794010818004608154296875">
        <ele>848.5999755859375</ele>
        <time>2019-07-08T09:32:22.000Z</time>
      </trkpt>
      <trkpt lat="42.339078672230243682861328125" lon="-3.70493338443338871002197265625">
        <ele>848.5999755859375</ele>
        <time>2019-07-08T09:32:23.000Z</time>
      </trkpt>
      <trkpt lat="42.33905042521655559539794921875" lon="-3.7048949114978313446044921875">
        <ele>848.79998779296875</ele>
        <time>2019-07-08T09:32:24.000Z</time>
      </trkpt>
      <trkpt lat="42.3389584757387638092041015625" lon="-3.70486331172287464141845703125">
        <ele>848.79998779296875</ele>
        <time>2019-07-08T09:32:26.000Z</time>
      </trkpt>
      <trkpt lat="42.3388193361461162567138671875" lon="-3.70497713796794414520263671875">
        <ele>849</ele>
        <time>2019-07-08T09:32:29.000Z</time>
      </trkpt>
      <trkpt lat="42.3387375287711620330810546875" lon="-3.70508895255625247955322265625">
        <ele>849</ele>
        <time>2019-07-08T09:32:31.000Z</time>
      </trkpt>
      <trkpt lat="42.338445670902729034423828125" lon="-3.70556906796991825103759765625">
        <ele>848.4000244140625</ele>
        <time>2019-07-08T09:32:37.000Z</time>
      </trkpt>
      <trkpt lat="42.33811249025166034698486328125" lon="-3.706125877797603607177734375">
        <ele>847.5999755859375</ele>
        <time>2019-07-08T09:32:43.000Z</time>
      </trkpt>
      <trkpt lat="42.33793579973280429840087890625" lon="-3.706436343491077423095703125">
        <ele>846.4000244140625</ele>
        <time>2019-07-08T09:32:47.000Z</time>
      </trkpt>
      <trkpt lat="42.33792473562061786651611328125" lon="-3.70647288858890533447265625">
        <ele>846.5999755859375</ele>
        <time>2019-07-08T09:32:48.000Z</time>
      </trkpt>
      <trkpt lat="42.33792490325868129730224609375" lon="-3.70651957578957080841064453125">
        <ele>847.79998779296875</ele>
        <time>2019-07-08T09:32:50.000Z</time>
      </trkpt>
      <trkpt lat="42.3379429243505001068115234375" lon="-3.70657824911177158355712890625">
        <ele>848.5999755859375</ele>
        <time>2019-07-08T09:32:54.000Z</time>
      </trkpt>
      <trkpt lat="42.33816303312778472900390625" lon="-3.70678846724331378936767578125">
        <ele>847.79998779296875</ele>
        <time>2019-07-08T09:32:59.000Z</time>
      </trkpt>
      <trkpt lat="42.33825263567268848419189453125" lon="-3.70688972063362598419189453125">
        <ele>847.4000244140625</ele>
        <time>2019-07-08T09:33:01.000Z</time>
      </trkpt>
      <trkpt lat="42.3383110575377941131591796875" lon="-3.70700438506901264190673828125">
        <ele>848.79998779296875</ele>
        <time>2019-07-08T09:33:45.000Z</time>
      </trkpt>
      <trkpt lat="42.3384019173681735992431640625" lon="-3.70705635286867618560791015625">
        <ele>848.5999755859375</ele>
        <time>2019-07-08T09:35:44.000Z</time>
      </trkpt>
      <trkpt lat="42.3383097164332866668701171875" lon="-3.70707144029438495635986328125">
        <ele>847.79998779296875</ele>
        <time>2019-07-08T09:36:24.000Z</time>
      </trkpt>
      <trkpt lat="42.338359169661998748779296875" lon="-3.7070369906723499298095703125">
        <ele>848.4000244140625</ele>
        <time>2019-07-08T09:39:20.000Z</time>
      </trkpt>
      <trkpt lat="42.3385692201554775238037109375" lon="-3.7070985138416290283203125">
        <ele>848.4000244140625</ele>
        <time>2019-07-08T09:39:47.000Z</time>
      </trkpt>
      <trkpt lat="42.33859344385564327239990234375" lon="-3.7070690095424652099609375">
        <ele>848.79998779296875</ele>
        <time>2019-07-08T09:39:50.000Z</time>
      </trkpt>
      <trkpt lat="42.33861557208001613616943359375" lon="-3.70685267262160778045654296875">
        <ele>849.4000244140625</ele>
        <time>2019-07-08T09:40:13.000Z</time>
      </trkpt>
      <trkpt lat="42.3386755026876926422119140625" lon="-3.706751167774200439453125">
        <ele>849.79998779296875</ele>
        <time>2019-07-08T09:40:25.000Z</time>
      </trkpt>
      <trkpt lat="42.338686399161815643310546875" lon="-3.70672141201794147491455078125">
        <ele>850</ele>
        <time>2019-07-08T09:40:27.000Z</time>
      </trkpt>
      <trkpt lat="42.339106835424900054931640625" lon="-3.7064412049949169158935546875">
        <ele>850</ele>
        <time>2019-07-08T09:41:03.000Z</time>
      </trkpt>
      <trkpt lat="42.3391696996986865997314453125" lon="-3.7062427215278148651123046875">
        <ele>850.79998779296875</ele>
        <time>2019-07-08T09:41:23.000Z</time>
      </trkpt>
      <trkpt lat="42.339241616427898406982421875" lon="-3.7060873210430145263671875">
        <ele>850.79998779296875</ele>
        <time>2019-07-08T09:41:44.000Z</time>
      </trkpt>
      <trkpt lat="42.3393279500305652618408203125" lon="-3.7059624306857585906982421875">
        <ele>850.79998779296875</ele>
        <time>2019-07-08T09:41:55.000Z</time>
      </trkpt>
      <trkpt lat="42.339223511517047882080078125" lon="-3.70570150204002857208251953125">
        <ele>850.20001220703125</ele>
        <time>2019-07-08T09:42:17.000Z</time>
      </trkpt>
      <trkpt lat="42.33938804827630519866943359375" lon="-3.70551341213285923004150390625">
        <ele>851</ele>
        <time>2019-07-08T09:43:15.000Z</time>
      </trkpt>
      <trkpt lat="42.33977043069899082183837890625" lon="-3.70520688593387603759765625">
        <ele>850.79998779296875</ele>
        <time>2019-07-08T09:43:51.000Z</time>
      </trkpt>
      <trkpt lat="42.34002104960381984710693359375" lon="-3.70466851629316806793212890625">
        <ele>851</ele>
        <time>2019-07-08T09:44:37.000Z</time>
      </trkpt>
      <trkpt lat="42.34028876759111881256103515625" lon="-3.70457899756729602813720703125">
        <ele>851.5999755859375</ele>
        <time>2019-07-08T09:44:56.000Z</time>
      </trkpt>
      <trkpt lat="42.340337969362735748291015625" lon="-3.70456449687480926513671875">
        <ele>852</ele>
        <time>2019-07-08T09:45:01.000Z</time>
      </trkpt>
      <trkpt lat="42.3403525538742542266845703125" lon="-3.704531304538249969482421875">
        <ele>852.20001220703125</ele>
        <time>2019-07-08T09:45:09.000Z</time>
      </trkpt>
      <trkpt lat="42.3402901925146579742431640625" lon="-3.70441772975027561187744140625">
        <ele>853</ele>
        <time>2019-07-08T09:45:43.000Z</time>
      </trkpt>
      <trkpt lat="42.34027317725121974945068359375" lon="-3.70439442805945873260498046875">
        <ele>853</ele>
        <time>2019-07-08T09:45:44.000Z</time>
      </trkpt>
      <trkpt lat="42.34023327939212322235107421875" lon="-3.7043527700006961822509765625">
        <ele>852</ele>
        <time>2019-07-08T09:45:49.000Z</time>
      </trkpt>
      <trkpt lat="42.3402278311550617218017578125" lon="-3.7043373472988605499267578125">
        <ele>852</ele>
        <time>2019-07-08T09:45:50.000Z</time>
      </trkpt>
      <trkpt lat="42.34039370901882648468017578125" lon="-3.70420952327549457550048828125">
        <ele>853</ele>
        <time>2019-07-08T09:46:46.000Z</time>
      </trkpt>
      <trkpt lat="42.3400581814348697662353515625" lon="-3.7041990458965301513671875">
        <ele>852.5999755859375</ele>
        <time>2019-07-08T09:48:12.000Z</time>
      </trkpt>
      <trkpt lat="42.34015700407326221466064453125" lon="-3.70403903536498546600341796875">
        <ele>852.20001220703125</ele>
        <time>2019-07-08T09:49:06.000Z</time>
      </trkpt>
      <trkpt lat="42.34019639901816844940185546875" lon="-3.70398455299437046051025390625">
        <ele>852.20001220703125</ele>
        <time>2019-07-08T09:49:12.000Z</time>
      </trkpt>
      <trkpt lat="42.34024568460881710052490234375" lon="-3.7039053440093994140625">
        <ele>852.5999755859375</ele>
        <time>2019-07-08T09:49:20.000Z</time>
      </trkpt>
      <trkpt lat="42.34025121666491031646728515625" lon="-3.7038910947740077972412109375">
        <ele>852.5999755859375</ele>
        <time>2019-07-08T09:49:22.000Z</time>
      </trkpt>
      <trkpt lat="42.3402663879096508026123046875" lon="-3.70388631708920001983642578125">
        <ele>852.79998779296875</ele>
        <time>2019-07-08T09:49:24.000Z</time>
      </trkpt>
      <trkpt lat="42.3401458561420440673828125" lon="-3.7038897536695003509521484375">
        <ele>852.4000244140625</ele>
        <time>2019-07-08T09:50:46.000Z</time>
      </trkpt>
      <trkpt lat="42.3400655575096607208251953125" lon="-3.7038691341876983642578125">
        <ele>852.79998779296875</ele>
        <time>2019-07-08T09:51:58.000Z</time>
      </trkpt>
      <trkpt lat="42.34010218642652034759521484375" lon="-3.70392085053026676177978515625">
        <ele>852.5999755859375</ele>
        <time>2019-07-08T09:52:03.000Z</time>
      </trkpt>
      <trkpt lat="42.339958436787128448486328125" lon="-3.70419091545045375823974609375">
        <ele>852.4000244140625</ele>
        <time>2019-07-08T09:52:56.000Z</time>
      </trkpt>
      <trkpt lat="42.33990135602653026580810546875" lon="-3.704739846289157867431640625">
        <ele>852.4000244140625</ele>
        <time>2019-07-08T09:54:22.000Z</time>
      </trkpt>
      <trkpt lat="42.33991560526192188262939453125" lon="-3.7049317918717861175537109375">
        <ele>852.4000244140625</ele>
        <time>2019-07-08T09:55:10.000Z</time>
      </trkpt>
      <trkpt lat="42.33971762470901012420654296875" lon="-3.704882003366947174072265625">
        <ele>852.4000244140625</ele>
        <time>2019-07-08T09:58:44.000Z</time>
      </trkpt>
      <trkpt lat="42.3397944867610931396484375" lon="-3.70494411326944828033447265625">
        <ele>852</ele>
        <time>2019-07-08T09:59:09.000Z</time>
      </trkpt>
      <trkpt lat="42.33983212150633335113525390625" lon="-3.70501318015158176422119140625">
        <ele>852.20001220703125</ele>
        <time>2019-07-08T09:59:20.000Z</time>
      </trkpt>
      <trkpt lat="42.33982742764055728912353515625" lon="-3.7050357274711132049560546875">
        <ele>852.20001220703125</ele>
        <time>2019-07-08T09:59:21.000Z</time>
      </trkpt>
      <trkpt lat="42.3396736197173595428466796875" lon="-3.7052281759679317474365234375">
        <ele>852.20001220703125</ele>
        <time>2019-07-08T09:59:43.000Z</time>
      </trkpt>
      <trkpt lat="42.33964537270367145538330078125" lon="-3.70529766194522380828857421875">
        <ele>852</ele>
        <time>2019-07-08T10:00:13.000Z</time>
      </trkpt>
      <trkpt lat="42.3391891457140445709228515625" lon="-3.70550595223903656005859375">
        <ele>851.79998779296875</ele>
        <time>2019-07-08T10:01:02.000Z</time>
      </trkpt>
      <trkpt lat="42.339293248951435089111328125" lon="-3.70602454058825969696044921875">
        <ele>851.5999755859375</ele>
        <time>2019-07-08T10:01:58.000Z</time>
      </trkpt>
      <trkpt lat="42.33901790343225002288818359375" lon="-3.7062625028192996978759765625">
        <ele>851.79998779296875</ele>
        <time>2019-07-08T10:02:19.000Z</time>
      </trkpt>
      <trkpt lat="42.33895604498684406280517578125" lon="-3.70657623745501041412353515625">
        <ele>851.4000244140625</ele>
        <time>2019-07-08T10:02:39.000Z</time>
      </trkpt>
      <trkpt lat="42.33889955095946788787841796875" lon="-3.7066189013421535491943359375">
        <ele>851.5999755859375</ele>
        <time>2019-07-08T10:02:45.000Z</time>
      </trkpt>
      <trkpt lat="42.3386342637240886688232421875" lon="-3.70691478252410888671875">
        <ele>851.4000244140625</ele>
        <time>2019-07-08T10:03:21.000Z</time>
      </trkpt>
      <trkpt lat="42.3385794460773468017578125" lon="-3.7070078216493129730224609375">
        <ele>851.4000244140625</ele>
        <time>2019-07-08T10:03:28.000Z</time>
      </trkpt>
      <trkpt lat="42.3382664658129215240478515625" lon="-3.70707906782627105712890625">
        <ele>851</ele>
        <time>2019-07-08T10:04:35.000Z</time>
      </trkpt>
      <trkpt lat="42.33833511359989643096923828125" lon="-3.706998266279697418212890625">
        <ele>851.4000244140625</ele>
        <time>2019-07-08T10:07:24.000Z</time>
      </trkpt>
      <trkpt lat="42.338412813842296600341796875" lon="-3.70714008808135986328125">
        <ele>851.4000244140625</ele>
        <time>2019-07-08T10:11:03.000Z</time>
      </trkpt>
      <trkpt lat="42.33843754045665264129638671875" lon="-3.7071597017347812652587890625">
        <ele>851.79998779296875</ele>
        <time>2019-07-08T10:11:04.000Z</time>
      </trkpt>
      <trkpt lat="42.338483892381191253662109375" lon="-3.70719733648002147674560546875">
        <ele>852.20001220703125</ele>
        <time>2019-07-08T10:11:07.000Z</time>
      </trkpt>
      <trkpt lat="42.3384802043437957763671875" lon="-3.7072089873254299163818359375">
        <ele>853.20001220703125</ele>
        <time>2019-07-08T10:12:15.000Z</time>
      </trkpt>
      <trkpt lat="42.338546924293041229248046875" lon="-3.707230277359485626220703125">
        <ele>853.20001220703125</ele>
        <time>2019-07-08T10:12:29.000Z</time>
      </trkpt>
      <trkpt lat="42.3386547155678272247314453125" lon="-3.70708669535815715789794921875">
        <ele>853</ele>
        <time>2019-07-08T10:12:32.000Z</time>
      </trkpt>
      <trkpt lat="42.3388270474970340728759765625" lon="-3.706726022064685821533203125">
        <ele>852.5999755859375</ele>
        <time>2019-07-08T10:12:37.000Z</time>
      </trkpt>
      <trkpt lat="42.3389283008873462677001953125" lon="-3.706544302403926849365234375">
        <ele>852.4000244140625</ele>
        <time>2019-07-08T10:12:40.000Z</time>
      </trkpt>
      <trkpt lat="42.33899124898016452789306640625" lon="-3.7064143829047679901123046875">
        <ele>852.20001220703125</ele>
        <time>2019-07-08T10:12:42.000Z</time>
      </trkpt>
      <trkpt lat="42.33901656232774257659912109375" lon="-3.70635797269642353057861328125">
        <ele>852</ele>
        <time>2019-07-08T10:12:43.000Z</time>
      </trkpt>
      <trkpt lat="42.3390461504459381103515625" lon="-3.7063268758356571197509765625">
        <ele>851.79998779296875</ele>
        <time>2019-07-08T10:12:44.000Z</time>
      </trkpt>
      <trkpt lat="42.33914379961788654327392578125" lon="-3.70634322054684162139892578125">
        <ele>852.79998779296875</ele>
        <time>2019-07-08T10:12:48.000Z</time>
      </trkpt>
      <trkpt lat="42.33928411267697811126708984375" lon="-3.7066581286489963531494140625">
        <ele>852.5999755859375</ele>
        <time>2019-07-08T10:12:53.000Z</time>
      </trkpt>
      <trkpt lat="42.3392903991043567657470703125" lon="-3.70687128044664859771728515625">
        <ele>852.20001220703125</ele>
        <time>2019-07-08T10:12:55.000Z</time>
      </trkpt>
      <trkpt lat="42.33932635746896266937255859375" lon="-3.7072513997554779052734375">
        <ele>850.79998779296875</ele>
        <time>2019-07-08T10:12:59.000Z</time>
      </trkpt>
      <trkpt lat="42.3394224978983402252197265625" lon="-3.70791214518249034881591796875">
        <ele>851.20001220703125</ele>
        <time>2019-07-08T10:13:06.000Z</time>
      </trkpt>
      <trkpt lat="42.33945317566394805908203125" lon="-3.7082183361053466796875">
        <ele>851.5999755859375</ele>
        <time>2019-07-08T10:13:09.000Z</time>
      </trkpt>
      <trkpt lat="42.33947773464024066925048828125" lon="-3.70831095613539218902587890625">
        <ele>851.79998779296875</ele>
        <time>2019-07-08T10:13:10.000Z</time>
      </trkpt>
      <trkpt lat="42.33952064998447895050048828125" lon="-3.70837700553238391876220703125">
        <ele>852.20001220703125</ele>
        <time>2019-07-08T10:13:11.000Z</time>
      </trkpt>
      <trkpt lat="42.3395948298275470733642578125" lon="-3.7085480801761150360107421875">
        <ele>852.20001220703125</ele>
        <time>2019-07-08T10:13:13.000Z</time>
      </trkpt>
      <trkpt lat="42.33980655670166015625" lon="-3.70879073627293109893798828125">
        <ele>851.5999755859375</ele>
        <time>2019-07-08T10:13:17.000Z</time>
      </trkpt>
      <trkpt lat="42.339936308562755584716796875" lon="-3.70898989029228687286376953125">
        <ele>851.20001220703125</ele>
        <time>2019-07-08T10:13:20.000Z</time>
      </trkpt>
      <trkpt lat="42.3399388231337070465087890625" lon="-3.70919709093868732452392578125">
        <ele>850.5999755859375</ele>
        <time>2019-07-08T10:13:22.000Z</time>
      </trkpt>
      <trkpt lat="42.33991996385157108306884765625" lon="-3.709425665438175201416015625">
        <ele>849.79998779296875</ele>
        <time>2019-07-08T10:13:24.000Z</time>
      </trkpt>
      <trkpt lat="42.339911498129367828369140625" lon="-3.7095384858548641204833984375">
        <ele>849.20001220703125</ele>
        <time>2019-07-08T10:13:25.000Z</time>
      </trkpt>
      <trkpt lat="42.339910827577114105224609375" lon="-3.70986185967922210693359375">
        <ele>849</ele>
        <time>2019-07-08T10:13:28.000Z</time>
      </trkpt>
      <trkpt lat="42.34000931493937969207763671875" lon="-3.71055764146149158477783203125">
        <ele>849</ele>
        <time>2019-07-08T10:13:34.000Z</time>
      </trkpt>
      <trkpt lat="42.34018541872501373291015625" lon="-3.71117102913558483123779296875">
        <ele>850.4000244140625</ele>
        <time>2019-07-08T10:13:43.000Z</time>
      </trkpt>
      <trkpt lat="42.3402077145874500274658203125" lon="-3.71123758144676685333251953125">
        <ele>850.4000244140625</ele>
        <time>2019-07-08T10:13:44.000Z</time>
      </trkpt>
      <trkpt lat="42.34023713506758213043212890625" lon="-3.71130480431020259857177734375">
        <ele>850.5999755859375</ele>
        <time>2019-07-08T10:13:45.000Z</time>
      </trkpt>
      <trkpt lat="42.340479455888271331787109375" lon="-3.7118404917418956756591796875">
        <ele>850.4000244140625</ele>
        <time>2019-07-08T10:13:54.000Z</time>
      </trkpt>
      <trkpt lat="42.3405272327363491058349609375" lon="-3.71194384060800075531005859375">
        <ele>850.5999755859375</ele>
        <time>2019-07-08T10:13:56.000Z</time>
      </trkpt>
      <trkpt lat="42.3408091999590396881103515625" lon="-3.71186077594757080078125">
        <ele>851.4000244140625</ele>
        <time>2019-07-08T10:14:02.000Z</time>
      </trkpt>
      <trkpt lat="42.34102486632764339447021484375" lon="-3.7117838300764560699462890625">
        <ele>853</ele>
        <time>2019-07-08T10:14:05.000Z</time>
      </trkpt>
      <trkpt lat="42.34116903506219387054443359375" lon="-3.71174586005508899688720703125">
        <ele>854.5999755859375</ele>
        <time>2019-07-08T10:14:07.000Z</time>
      </trkpt>
      <trkpt lat="42.3413164727389812469482421875" lon="-3.711657933890819549560546875">
        <ele>855.79998779296875</ele>
        <time>2019-07-08T10:14:09.000Z</time>
      </trkpt>
      <trkpt lat="42.3414552770555019378662109375" lon="-3.71160931885242462158203125">
        <ele>857.20001220703125</ele>
        <time>2019-07-08T10:14:11.000Z</time>
      </trkpt>
      <trkpt lat="42.34159500338137149810791015625" lon="-3.71158291585743427276611328125">
        <ele>858.20001220703125</ele>
        <time>2019-07-08T10:14:13.000Z</time>
      </trkpt>
      <trkpt lat="42.34173079021275043487548828125" lon="-3.71158995665609836578369140625">
        <ele>859.5999755859375</ele>
        <time>2019-07-08T10:14:15.000Z</time>
      </trkpt>
      <trkpt lat="42.34179876744747161865234375" lon="-3.71160252951085567474365234375">
        <ele>860.5999755859375</ele>
        <time>2019-07-08T10:14:16.000Z</time>
      </trkpt>
      <trkpt lat="42.34186523593962192535400390625" lon="-3.71161895804107189178466796875">
        <ele>861.5999755859375</ele>
        <time>2019-07-08T10:14:17.000Z</time>
      </trkpt>
      <trkpt lat="42.34199549071490764617919921875" lon="-3.71165500022470951080322265625">
        <ele>862.79998779296875</ele>
        <time>2019-07-08T10:14:19.000Z</time>
      </trkpt>
      <trkpt lat="42.34213463030755519866943359375" lon="-3.711698837578296661376953125">
        <ele>863.79998779296875</ele>
        <time>2019-07-08T10:14:21.000Z</time>
      </trkpt>
      <trkpt lat="42.342204786837100982666015625" lon="-3.71174066327512264251708984375">
        <ele>864.4000244140625</ele>
        <time>2019-07-08T10:14:22.000Z</time>
      </trkpt>
      <trkpt lat="42.3423394002020359039306640625" lon="-3.71185339987277984619140625">
        <ele>865.5999755859375</ele>
        <time>2019-07-08T10:14:24.000Z</time>
      </trkpt>
      <trkpt lat="42.34249002300202846527099609375" lon="-3.71198306791484355926513671875">
        <ele>866.79998779296875</ele>
        <time>2019-07-08T10:14:27.000Z</time>
      </trkpt>
      <trkpt lat="42.3427118919789791107177734375" lon="-3.7121737562119960784912109375">
        <ele>867.4000244140625</ele>
        <time>2019-07-08T10:14:32.000Z</time>
      </trkpt>
      <trkpt lat="42.34298975206911563873291015625" lon="-3.71236561797559261322021484375">
        <ele>867.5999755859375</ele>
        <time>2019-07-08T10:14:36.000Z</time>
      </trkpt>
      <trkpt lat="42.3432104475796222686767578125" lon="-3.71244876645505428314208984375">
        <ele>867.4000244140625</ele>
        <time>2019-07-08T10:14:39.000Z</time>
      </trkpt>
      <trkpt lat="42.343350090086460113525390625" lon="-3.7125194258987903594970703125">
        <ele>867</ele>
        <time>2019-07-08T10:14:41.000Z</time>
      </trkpt>
      <trkpt lat="42.34380279667675495147705078125" lon="-3.7125968746840953826904296875">
        <ele>866.4000244140625</ele>
        <time>2019-07-08T10:14:48.000Z</time>
      </trkpt>
      <trkpt lat="42.3438578657805919647216796875" lon="-3.7126069329679012298583984375">
        <ele>865.79998779296875</ele>
        <time>2019-07-08T10:14:49.000Z</time>
      </trkpt>
      <trkpt lat="42.3439051397144794464111328125" lon="-3.712608106434345245361328125">
        <ele>864.5999755859375</ele>
        <time>2019-07-08T10:14:50.000Z</time>
      </trkpt>
      <trkpt lat="42.343966998159885406494140625" lon="-3.7125824578106403350830078125">
        <ele>862.79998779296875</ele>
        <time>2019-07-08T10:14:52.000Z</time>
      </trkpt>
      <trkpt lat="42.34410856850445270538330078125" lon="-3.71269502677023410797119140625">
        <ele>862.5999755859375</ele>
        <time>2019-07-08T10:15:29.000Z</time>
      </trkpt>
      <trkpt lat="42.3445817269384860992431640625" lon="-3.712695948779582977294921875">
        <ele>861.79998779296875</ele>
        <time>2019-07-08T10:15:35.000Z</time>
      </trkpt>
      <trkpt lat="42.3448154143989086151123046875" lon="-3.7126461602747440338134765625">
        <ele>860.79998779296875</ele>
        <time>2019-07-08T10:15:38.000Z</time>
      </trkpt>
      <trkpt lat="42.34529058448970317840576171875" lon="-3.71254675090312957763671875">
        <ele>861.20001220703125</ele>
        <time>2019-07-08T10:15:43.000Z</time>
      </trkpt>
      <trkpt lat="42.3457397706806659698486328125" lon="-3.71245061047375202178955078125">
        <ele>860.79998779296875</ele>
        <time>2019-07-08T10:15:47.000Z</time>
      </trkpt>
      <trkpt lat="42.34620940871536731719970703125" lon="-3.71240065433084964752197265625">
        <ele>860.4000244140625</ele>
        <time>2019-07-08T10:15:51.000Z</time>
      </trkpt>
      <trkpt lat="42.34654351137578487396240234375" lon="-3.7123869918286800384521484375">
        <ele>862</ele>
        <time>2019-07-08T10:15:54.000Z</time>
      </trkpt>
      <trkpt lat="42.34676680527627468109130859375" lon="-3.71239042840898036956787109375">
        <ele>863.20001220703125</ele>
        <time>2019-07-08T10:15:56.000Z</time>
      </trkpt>
      <trkpt lat="42.34722043387591838836669921875" lon="-3.71242546476423740386962890625">
        <ele>862.79998779296875</ele>
        <time>2019-07-08T10:16:00.000Z</time>
      </trkpt>
      <trkpt lat="42.3473316617310047149658203125" lon="-3.71242898516356945037841796875">
        <ele>862.5999755859375</ele>
        <time>2019-07-08T10:16:01.000Z</time>
      </trkpt>
      <trkpt lat="42.34765880741178989410400390625" lon="-3.71246603317558765411376953125">
        <ele>862.20001220703125</ele>
        <time>2019-07-08T10:16:04.000Z</time>
      </trkpt>
      <trkpt lat="42.34793658368289470672607421875" lon="-3.7125264666974544525146484375">
        <ele>861.20001220703125</ele>
        <time>2019-07-08T10:16:07.000Z</time>
      </trkpt>
      <trkpt lat="42.348027192056179046630859375" lon="-3.71253292076289653778076171875">
        <ele>860.20001220703125</ele>
        <time>2019-07-08T10:16:08.000Z</time>
      </trkpt>
      <trkpt lat="42.3481242544949054718017578125" lon="-3.71252856217324733734130859375">
        <ele>859.5999755859375</ele>
        <time>2019-07-08T10:16:09.000Z</time>
      </trkpt>
      <trkpt lat="42.34834226779639720916748046875" lon="-3.71254130266606807708740234375">
        <ele>858.4000244140625</ele>
        <time>2019-07-08T10:16:11.000Z</time>
      </trkpt>
      <trkpt lat="42.34860311262309551239013671875" lon="-3.71255639009177684783935546875">
        <ele>857</ele>
        <time>2019-07-08T10:16:13.000Z</time>
      </trkpt>
      <trkpt lat="42.34874225221574306488037109375" lon="-3.71253744699060916900634765625">
        <ele>855.5999755859375</ele>
        <time>2019-07-08T10:16:14.000Z</time>
      </trkpt>
      <trkpt lat="42.34888424165546894073486328125" lon="-3.71249419637024402618408203125">
        <ele>854.20001220703125</ele>
        <time>2019-07-08T10:16:15.000Z</time>
      </trkpt>
      <trkpt lat="42.349021621048450469970703125" lon="-3.7124473415315151214599609375">
        <ele>852.79998779296875</ele>
        <time>2019-07-08T10:16:16.000Z</time>
      </trkpt>
      <trkpt lat="42.349276430904865264892578125" lon="-3.71235187165439128875732421875">
        <ele>851.4000244140625</ele>
        <time>2019-07-08T10:16:18.000Z</time>
      </trkpt>
      <trkpt lat="42.3495216853916645050048828125" lon="-3.71227023191750049591064453125">
        <ele>850.20001220703125</ele>
        <time>2019-07-08T10:16:20.000Z</time>
      </trkpt>
      <trkpt lat="42.35005787573754787445068359375" lon="-3.71209655888378620147705078125">
        <ele>850.5999755859375</ele>
        <time>2019-07-08T10:16:24.000Z</time>
      </trkpt>
      <trkpt lat="42.35049809329211711883544921875" lon="-3.7119585089385509490966796875">
        <ele>850.20001220703125</ele>
        <time>2019-07-08T10:16:27.000Z</time>
      </trkpt>
      <trkpt lat="42.35093428753316402435302734375" lon="-3.71181853115558624267578125">
        <ele>849</ele>
        <time>2019-07-08T10:16:30.000Z</time>
      </trkpt>
      <trkpt lat="42.35149704851210117340087890625" lon="-3.71160822920501232147216796875">
        <ele>848.20001220703125</ele>
        <time>2019-07-08T10:16:34.000Z</time>
      </trkpt>
      <trkpt lat="42.3519561253488063812255859375" lon="-3.71142382733523845672607421875">
        <ele>849.20001220703125</ele>
        <time>2019-07-08T10:16:38.000Z</time>
      </trkpt>
      <trkpt lat="42.35205830074846744537353515625" lon="-3.711380660533905029296875">
        <ele>850.4000244140625</ele>
        <time>2019-07-08T10:16:39.000Z</time>
      </trkpt>
      <trkpt lat="42.35215469263494014739990234375" lon="-3.7113399244844913482666015625">
        <ele>851.5999755859375</ele>
        <time>2019-07-08T10:16:40.000Z</time>
      </trkpt>
      <trkpt lat="42.352328784763813018798828125" lon="-3.71126675046980381011962890625">
        <ele>853</ele>
        <time>2019-07-08T10:16:42.000Z</time>
      </trkpt>
      <trkpt lat="42.35240112058818340301513671875" lon="-3.71122668497264385223388671875">
        <ele>853.79998779296875</ele>
        <time>2019-07-08T10:16:43.000Z</time>
      </trkpt>
      <trkpt lat="42.35246147029101848602294921875" lon="-3.71117387898266315460205078125">
        <ele>854.20001220703125</ele>
        <time>2019-07-08T10:16:44.000Z</time>
      </trkpt>
      <trkpt lat="42.35251394100487232208251953125" lon="-3.71110640466213226318359375">
        <ele>854.5999755859375</ele>
        <time>2019-07-08T10:16:45.000Z</time>
      </trkpt>
      <trkpt lat="42.35261200927197933197021484375" lon="-3.7109372578561305999755859375">
        <ele>855.5999755859375</ele>
        <time>2019-07-08T10:16:47.000Z</time>
      </trkpt>
      <trkpt lat="42.3526722751557826995849609375" lon="-3.71085586957633495330810546875">
        <ele>856.5999755859375</ele>
        <time>2019-07-08T10:16:48.000Z</time>
      </trkpt>
      <trkpt lat="42.352743856608867645263671875" lon="-3.71079660952091217041015625">
        <ele>857.4000244140625</ele>
        <time>2019-07-08T10:16:49.000Z</time>
      </trkpt>
      <trkpt lat="42.3528234846889972686767578125" lon="-3.710768781602382659912109375">
        <ele>858</ele>
        <time>2019-07-08T10:16:50.000Z</time>
      </trkpt>
      <trkpt lat="42.353003025054931640625" lon="-3.71080624870955944061279296875">
        <ele>858.4000244140625</ele>
        <time>2019-07-08T10:16:52.000Z</time>
      </trkpt>
      <trkpt lat="42.3532127402722835540771484375" lon="-3.71082921512424945831298828125">
        <ele>858.4000244140625</ele>
        <time>2019-07-08T10:16:54.000Z</time>
      </trkpt>
      <trkpt lat="42.35370182432234287261962890625" lon="-3.7106368504464626312255859375">
        <ele>857.4000244140625</ele>
        <time>2019-07-08T10:16:58.000Z</time>
      </trkpt>
      <trkpt lat="42.353834174573421478271484375" lon="-3.71057800948619842529296875">
        <ele>857</ele>
        <time>2019-07-08T10:16:59.000Z</time>
      </trkpt>
      <trkpt lat="42.35422284342348575592041015625" lon="-3.7103937752544879913330078125">
        <ele>855.79998779296875</ele>
        <time>2019-07-08T10:17:02.000Z</time>
      </trkpt>
      <trkpt lat="42.3547580279409885406494140625" lon="-3.710129074752330780029296875">
        <ele>854.5999755859375</ele>
        <time>2019-07-08T10:17:06.000Z</time>
      </trkpt>
      <trkpt lat="42.355183996260166168212890625" lon="-3.70991508476436138153076171875">
        <ele>855.20001220703125</ele>
        <time>2019-07-08T10:17:09.000Z</time>
      </trkpt>
      <trkpt lat="42.35547602176666259765625" lon="-3.70976555161178112030029296875">
        <ele>852.79998779296875</ele>
        <time>2019-07-08T10:17:11.000Z</time>
      </trkpt>
      <trkpt lat="42.35562161542475223541259765625" lon="-3.7096880190074443817138671875">
        <ele>851.79998779296875</ele>
        <time>2019-07-08T10:17:12.000Z</time>
      </trkpt>
      <trkpt lat="42.35576905310153961181640625" lon="-3.70960948057472705841064453125">
        <ele>850.79998779296875</ele>
        <time>2019-07-08T10:17:13.000Z</time>
      </trkpt>
      <trkpt lat="42.356216646730899810791015625" lon="-3.7093742005527019500732421875">
        <ele>850.20001220703125</ele>
        <time>2019-07-08T10:17:16.000Z</time>
      </trkpt>
      <trkpt lat="42.35650020651519298553466796875" lon="-3.70922408066689968109130859375">
        <ele>851.79998779296875</ele>
        <time>2019-07-08T10:17:18.000Z</time>
      </trkpt>
      <trkpt lat="42.35691594891250133514404296875" lon="-3.7090084142982959747314453125">
        <ele>852.79998779296875</ele>
        <time>2019-07-08T10:17:21.000Z</time>
      </trkpt>
      <trkpt lat="42.3573544062674045562744140625" lon="-3.70879995636641979217529296875">
        <ele>853.4000244140625</ele>
        <time>2019-07-08T10:17:24.000Z</time>
      </trkpt>
      <trkpt lat="42.35780359245836734771728515625" lon="-3.70858781039714813232421875">
        <ele>853.79998779296875</ele>
        <time>2019-07-08T10:17:27.000Z</time>
      </trkpt>
      <trkpt lat="42.35795103013515472412109375" lon="-3.70852502994239330291748046875">
        <ele>854.20001220703125</ele>
        <time>2019-07-08T10:17:28.000Z</time>
      </trkpt>
      <trkpt lat="42.35824766568839550018310546875" lon="-3.70841757394373416900634765625">
        <ele>855.20001220703125</ele>
        <time>2019-07-08T10:17:30.000Z</time>
      </trkpt>
      <trkpt lat="42.358391918241977691650390625" lon="-3.70837180875241756439208984375">
        <ele>855.5999755859375</ele>
        <time>2019-07-08T10:17:31.000Z</time>
      </trkpt>
      <trkpt lat="42.35867447219789028167724609375" lon="-3.70829947292804718017578125">
        <ele>857.4000244140625</ele>
        <time>2019-07-08T10:17:33.000Z</time>
      </trkpt>
      <trkpt lat="42.3588178865611553192138671875" lon="-3.7082706391811370849609375">
        <ele>858.5999755859375</ele>
        <time>2019-07-08T10:17:34.000Z</time>
      </trkpt>
      <trkpt lat="42.35911066643893718719482421875" lon="-3.70823350735008716583251953125">
        <ele>860</ele>
        <time>2019-07-08T10:17:36.000Z</time>
      </trkpt>
      <trkpt lat="42.35941291786730289459228515625" lon="-3.70822705328464508056640625">
        <ele>861.79998779296875</ele>
        <time>2019-07-08T10:17:38.000Z</time>
      </trkpt>
      <trkpt lat="42.35987392254173755645751953125" lon="-3.70826452039182186126708984375">
        <ele>863</ele>
        <time>2019-07-08T10:17:41.000Z</time>
      </trkpt>
      <trkpt lat="42.36016494221985340118408203125" lon="-3.70832487009465694427490234375">
        <ele>864.20001220703125</ele>
        <time>2019-07-08T10:17:43.000Z</time>
      </trkpt>
      <trkpt lat="42.3604555428028106689453125" lon="-3.7084122933447360992431640625">
        <ele>865.4000244140625</ele>
        <time>2019-07-08T10:17:45.000Z</time>
      </trkpt>
      <trkpt lat="42.3607494123280048370361328125" lon="-3.708526454865932464599609375">
        <ele>866.5999755859375</ele>
        <time>2019-07-08T10:17:47.000Z</time>
      </trkpt>
      <trkpt lat="42.36118334345519542694091796875" lon="-3.70874471962451934814453125">
        <ele>868</ele>
        <time>2019-07-08T10:17:50.000Z</time>
      </trkpt>
      <trkpt lat="42.36168089322745800018310546875" lon="-3.70909566991031169891357421875">
        <ele>868.4000244140625</ele>
        <time>2019-07-08T10:17:54.000Z</time>
      </trkpt>
      <trkpt lat="42.3619161732494831085205078125" lon="-3.7092947401106357574462890625">
        <ele>869.20001220703125</ele>
        <time>2019-07-08T10:17:56.000Z</time>
      </trkpt>
      <trkpt lat="42.36237323842942714691162109375" lon="-3.70975993573665618896484375">
        <ele>868.79998779296875</ele>
        <time>2019-07-08T10:18:00.000Z</time>
      </trkpt>
      <trkpt lat="42.36274690367281436920166015625" lon="-3.71025673113763332366943359375">
        <ele>870.4000244140625</ele>
        <time>2019-07-08T10:18:04.000Z</time>
      </trkpt>
      <trkpt lat="42.3628743924200534820556640625" lon="-3.71047466062009334564208984375">
        <ele>872</ele>
        <time>2019-07-08T10:18:06.000Z</time>
      </trkpt>
      <trkpt lat="42.36300305463373661041259765625" lon="-3.71069929562509059906005859375">
        <ele>872.79998779296875</ele>
        <time>2019-07-08T10:18:09.000Z</time>
      </trkpt>
      <trkpt lat="42.36304798163473606109619140625" lon="-3.7107374332845211029052734375">
        <ele>873</ele>
        <time>2019-07-08T10:18:10.000Z</time>
      </trkpt>
      <trkpt lat="42.36310087144374847412109375" lon="-3.71075528673827648162841796875">
        <ele>873</ele>
        <time>2019-07-08T10:18:11.000Z</time>
      </trkpt>
      <trkpt lat="42.36321746371686458587646484375" lon="-3.71068932116031646728515625">
        <ele>872.5999755859375</ele>
        <time>2019-07-08T10:18:13.000Z</time>
      </trkpt>
      <trkpt lat="42.36328938044607639312744140625" lon="-3.71048270724713802337646484375">
        <ele>871.79998779296875</ele>
        <time>2019-07-08T10:18:15.000Z</time>
      </trkpt>
      <trkpt lat="42.36331276595592498779296875" lon="-3.7102063558995723724365234375">
        <ele>870</ele>
        <time>2019-07-08T10:18:17.000Z</time>
      </trkpt>
      <trkpt lat="42.3633233271539211273193359375" lon="-3.71006193570792675018310546875">
        <ele>869</ele>
        <time>2019-07-08T10:18:18.000Z</time>
      </trkpt>
      <trkpt lat="42.36333481036126613616943359375" lon="-3.70990821160376071929931640625">
        <ele>867.79998779296875</ele>
        <time>2019-07-08T10:18:19.000Z</time>
      </trkpt>
      <trkpt lat="42.3633469641208648681640625" lon="-3.70974811725318431854248046875">
        <ele>866.79998779296875</ele>
        <time>2019-07-08T10:18:20.000Z</time>
      </trkpt>
      <trkpt lat="42.36338661052286624908447265625" lon="-3.70940580032765865325927734375">
        <ele>865.5999755859375</ele>
        <time>2019-07-08T10:18:22.000Z</time>
      </trkpt>
      <trkpt lat="42.36351602710783481597900390625" lon="-3.708714880049228668212890625">
        <ele>865.4000244140625</ele>
        <time>2019-07-08T10:18:26.000Z</time>
      </trkpt>
      <trkpt lat="42.363628260791301727294921875" lon="-3.7082379497587680816650390625">
        <ele>866.79998779296875</ele>
        <time>2019-07-08T10:18:29.000Z</time>
      </trkpt>
      <trkpt lat="42.36368332989513874053955078125" lon="-3.70796763338148593902587890625">
        <ele>868.4000244140625</ele>
        <time>2019-07-08T10:18:31.000Z</time>
      </trkpt>
      <trkpt lat="42.3637095652520656585693359375" lon="-3.70773059315979480743408203125">
        <ele>869.79998779296875</ele>
        <time>2019-07-08T10:18:33.000Z</time>
      </trkpt>
      <trkpt lat="42.36371333710849285125732421875" lon="-3.707507550716400146484375">
        <ele>871</ele>
        <time>2019-07-08T10:18:35.000Z</time>
      </trkpt>
      <trkpt lat="42.36377008259296417236328125" lon="-3.70729540474712848663330078125">
        <ele>872.20001220703125</ele>
        <time>2019-07-08T10:18:37.000Z</time>
      </trkpt>
      <trkpt lat="42.36386672593653202056884765625" lon="-3.70707529596984386444091796875">
        <ele>872.79998779296875</ele>
        <time>2019-07-08T10:18:39.000Z</time>
      </trkpt>
      <trkpt lat="42.3640139959752559661865234375" lon="-3.70646123774349689483642578125">
        <ele>870.79998779296875</ele>
        <time>2019-07-08T10:18:43.000Z</time>
      </trkpt>
      <trkpt lat="42.364056073129177093505859375" lon="-3.70627842843532562255859375">
        <ele>869.5999755859375</ele>
        <time>2019-07-08T10:18:44.000Z</time>
      </trkpt>
      <trkpt lat="42.36409940756857395172119140625" lon="-3.7060832977294921875">
        <ele>868</ele>
        <time>2019-07-08T10:18:45.000Z</time>
      </trkpt>
      <trkpt lat="42.36414290964603424072265625" lon="-3.70588238351047039031982421875">
        <ele>866.5999755859375</ele>
        <time>2019-07-08T10:18:46.000Z</time>
      </trkpt>
      <trkpt lat="42.36427425406873226165771484375" lon="-3.70527687482535839080810546875">
        <ele>864.5999755859375</ele>
        <time>2019-07-08T10:18:49.000Z</time>
      </trkpt>
      <trkpt lat="42.36436461098492145538330078125" lon="-3.70485509745776653289794921875">
        <ele>862.79998779296875</ele>
        <time>2019-07-08T10:18:51.000Z</time>
      </trkpt>
      <trkpt lat="42.3644542135298252105712890625" lon="-3.704434074461460113525390625">
        <ele>861</ele>
        <time>2019-07-08T10:18:53.000Z</time>
      </trkpt>
      <trkpt lat="42.36458907835185527801513671875" lon="-3.7038294039666652679443359375">
        <ele>860.79998779296875</ele>
        <time>2019-07-08T10:18:56.000Z</time>
      </trkpt>
      <trkpt lat="42.36467574723064899444580078125" lon="-3.703426234424114227294921875">
        <ele>859.20001220703125</ele>
        <time>2019-07-08T10:18:58.000Z</time>
      </trkpt>
      <trkpt lat="42.36476191319525241851806640625" lon="-3.70303538627922534942626953125">
        <ele>860.5999755859375</ele>
        <time>2019-07-08T10:19:00.000Z</time>
      </trkpt>
      <trkpt lat="42.36491614021360874176025390625" lon="-3.70236667804419994354248046875">
        <ele>861.5999755859375</ele>
        <time>2019-07-08T10:19:04.000Z</time>
      </trkpt>
      <trkpt lat="42.36496173776686191558837890625" lon="-3.70208881795406341552734375">
        <ele>863</ele>
        <time>2019-07-08T10:19:06.000Z</time>
      </trkpt>
      <trkpt lat="42.364964000880718231201171875" lon="-3.7019620835781097412109375">
        <ele>864.4000244140625</ele>
        <time>2019-07-08T10:19:07.000Z</time>
      </trkpt>
      <trkpt lat="42.36496525816619396209716796875" lon="-3.7018398754298686981201171875">
        <ele>866.20001220703125</ele>
        <time>2019-07-08T10:19:08.000Z</time>
      </trkpt>
      <trkpt lat="42.364980764687061309814453125" lon="-3.701719678938388824462890625">
        <ele>867.4000244140625</ele>
        <time>2019-07-08T10:19:09.000Z</time>
      </trkpt>
      <trkpt lat="42.36501588486135005950927734375" lon="-3.7016011588275432586669921875">
        <ele>868.4000244140625</ele>
        <time>2019-07-08T10:19:10.000Z</time>
      </trkpt>
      <trkpt lat="42.365119569003582000732421875" lon="-3.70134140364825725555419921875">
        <ele>869</ele>
        <time>2019-07-08T10:19:12.000Z</time>
      </trkpt>
      <trkpt lat="42.36524739302694797515869140625" lon="-3.70083278976380825042724609375">
        <ele>867.4000244140625</ele>
        <time>2019-07-08T10:19:15.000Z</time>
      </trkpt>
      <trkpt lat="42.36532651819288730621337890625" lon="-3.70049080811440944671630859375">
        <ele>866.20001220703125</ele>
        <time>2019-07-08T10:19:17.000Z</time>
      </trkpt>
      <trkpt lat="42.3654023744165897369384765625" lon="-3.70013742707669734954833984375">
        <ele>864.4000244140625</ele>
        <time>2019-07-08T10:19:19.000Z</time>
      </trkpt>
      <trkpt lat="42.3654788173735141754150390625" lon="-3.6997718922793865203857421875">
        <ele>863.20001220703125</ele>
        <time>2019-07-08T10:19:21.000Z</time>
      </trkpt>
      <trkpt lat="42.3655187152326107025146484375" lon="-3.69958589784801006317138671875">
        <ele>862</ele>
        <time>2019-07-08T10:19:22.000Z</time>
      </trkpt>
      <trkpt lat="42.3656005226075649261474609375" lon="-3.6992069520056247711181640625">
        <ele>861</ele>
        <time>2019-07-08T10:19:24.000Z</time>
      </trkpt>
      <trkpt lat="42.36564335413277149200439453125" lon="-3.69901366531848907470703125">
        <ele>859.5999755859375</ele>
        <time>2019-07-08T10:19:25.000Z</time>
      </trkpt>
      <trkpt lat="42.3657716810703277587890625" lon="-3.6984264291822910308837890625">
        <ele>859.79998779296875</ele>
        <time>2019-07-08T10:19:28.000Z</time>
      </trkpt>
      <trkpt lat="42.36590109765529632568359375" lon="-3.697837181389331817626953125">
        <ele>858.4000244140625</ele>
        <time>2019-07-08T10:19:31.000Z</time>
      </trkpt>
      <trkpt lat="42.36594443209469318389892578125" lon="-3.69764431379735469818115234375">
        <ele>858.4000244140625</ele>
        <time>2019-07-08T10:19:32.000Z</time>
      </trkpt>
      <trkpt lat="42.36609983257949352264404296875" lon="-3.6969478614628314971923828125">
        <ele>858.79998779296875</ele>
        <time>2019-07-08T10:19:36.000Z</time>
      </trkpt>
      <trkpt lat="42.36617191694676876068115234375" lon="-3.69661652483046054840087890625">
        <ele>860.4000244140625</ele>
        <time>2019-07-08T10:19:38.000Z</time>
      </trkpt>
      <trkpt lat="42.36620779149234294891357421875" lon="-3.69645542465150356292724609375">
        <ele>861.79998779296875</ele>
        <time>2019-07-08T10:19:39.000Z</time>
      </trkpt>
      <trkpt lat="42.36624366603791713714599609375" lon="-3.69630052708089351654052734375">
        <ele>863.20001220703125</ele>
        <time>2019-07-08T10:19:40.000Z</time>
      </trkpt>
      <trkpt lat="42.3662759363651275634765625" lon="-3.69616021402180194854736328125">
        <ele>864.5999755859375</ele>
        <time>2019-07-08T10:19:41.000Z</time>
      </trkpt>
      <trkpt lat="42.3663029260933399200439453125" lon="-3.69603767059743404388427734375">
        <ele>866</ele>
        <time>2019-07-08T10:19:42.000Z</time>
      </trkpt>
      <trkpt lat="42.3663227073848247528076171875" lon="-3.6959323100745677947998046875">
        <ele>867.4000244140625</ele>
        <time>2019-07-08T10:19:43.000Z</time>
      </trkpt>
      <trkpt lat="42.36633184365928173065185546875" lon="-3.69584153406322002410888671875">
        <ele>868.4000244140625</ele>
        <time>2019-07-08T10:19:44.000Z</time>
      </trkpt>
      <trkpt lat="42.36630904488265514373779296875" lon="-3.695679344236850738525390625">
        <ele>870.5999755859375</ele>
        <time>2019-07-08T10:19:46.000Z</time>
      </trkpt>
      <trkpt lat="42.3662804625928401947021484375" lon="-3.69559208862483501434326171875">
        <ele>872.20001220703125</ele>
        <time>2019-07-08T10:19:47.000Z</time>
      </trkpt>
      <trkpt lat="42.3662526346743106842041015625" lon="-3.695491589605808258056640625">
        <ele>873.4000244140625</ele>
        <time>2019-07-08T10:19:48.000Z</time>
      </trkpt>
      <trkpt lat="42.36624349839985370635986328125" lon="-3.695263601839542388916015625">
        <ele>874.4000244140625</ele>
        <time>2019-07-08T10:19:50.000Z</time>
      </trkpt>
      <trkpt lat="42.3663156665861606597900390625" lon="-3.69507375173270702362060546875">
        <ele>874.20001220703125</ele>
        <time>2019-07-08T10:19:52.000Z</time>
      </trkpt>
      <trkpt lat="42.366442568600177764892578125" lon="-3.69497735984623432159423828125">
        <ele>873.79998779296875</ele>
        <time>2019-07-08T10:19:54.000Z</time>
      </trkpt>
      <trkpt lat="42.36660408787429332733154296875" lon="-3.6950109712779521942138671875">
        <ele>873.5999755859375</ele>
        <time>2019-07-08T10:19:56.000Z</time>
      </trkpt>
      <trkpt lat="42.36674725078046321868896484375" lon="-3.695171065628528594970703125">
        <ele>873.79998779296875</ele>
        <time>2019-07-08T10:19:58.000Z</time>
      </trkpt>
      <trkpt lat="42.3668792657554149627685546875" lon="-3.69541573338210582733154296875">
        <ele>873.79998779296875</ele>
        <time>2019-07-08T10:20:00.000Z</time>
      </trkpt>
      <trkpt lat="42.3670898191630840301513671875" lon="-3.69561790488660335540771484375">
        <ele>873.5999755859375</ele>
        <time>2019-07-08T10:20:02.000Z</time>
      </trkpt>
      <trkpt lat="42.3673748038709163665771484375" lon="-3.69577758014202117919921875">
        <ele>872.4000244140625</ele>
        <time>2019-07-08T10:20:04.000Z</time>
      </trkpt>
      <trkpt lat="42.36751771531999111175537109375" lon="-3.69585259817540645599365234375">
        <ele>871.20001220703125</ele>
        <time>2019-07-08T10:20:05.000Z</time>
      </trkpt>
      <trkpt lat="42.367656268179416656494140625" lon="-3.6959252692759037017822265625">
        <ele>870</ele>
        <time>2019-07-08T10:20:06.000Z</time>
      </trkpt>
      <trkpt lat="42.36779599450528621673583984375" lon="-3.6960040591657161712646484375">
        <ele>868.5999755859375</ele>
        <time>2019-07-08T10:20:07.000Z</time>
      </trkpt>
      <trkpt lat="42.36807276494801044464111328125" lon="-3.69615786708891391754150390625">
        <ele>867.20001220703125</ele>
        <time>2019-07-08T10:20:09.000Z</time>
      </trkpt>
      <trkpt lat="42.36834635026752948760986328125" lon="-3.69632265530526638031005859375">
        <ele>866.20001220703125</ele>
        <time>2019-07-08T10:20:11.000Z</time>
      </trkpt>
      <trkpt lat="42.3684798739850521087646484375" lon="-3.69640379212796688079833984375">
        <ele>865</ele>
        <time>2019-07-08T10:20:12.000Z</time>
      </trkpt>
      <trkpt lat="42.36901757307350635528564453125" lon="-3.696724735200405120849609375">
        <ele>864.20001220703125</ele>
        <time>2019-07-08T10:20:16.000Z</time>
      </trkpt>
      <trkpt lat="42.36928713507950305938720703125" lon="-3.6968841589987277984619140625">
        <ele>864</ele>
        <time>2019-07-08T10:20:18.000Z</time>
      </trkpt>
      <trkpt lat="42.3697532527148723602294921875" lon="-3.69717559777200222015380859375">
        <ele>863.20001220703125</ele>
        <time>2019-07-08T10:20:22.000Z</time>
      </trkpt>
      <trkpt lat="42.370236553251743316650390625" lon="-3.69746091775596141815185546875">
        <ele>863.20001220703125</ele>
        <time>2019-07-08T10:20:27.000Z</time>
      </trkpt>
      <trkpt lat="42.37040930427610874176025390625" lon="-3.69755043648183345794677734375">
        <ele>863.5999755859375</ele>
        <time>2019-07-08T10:20:29.000Z</time>
      </trkpt>
      <trkpt lat="42.37055632285773754119873046875" lon="-3.6975600756704807281494140625">
        <ele>863.4000244140625</ele>
        <time>2019-07-08T10:20:31.000Z</time>
      </trkpt>
      <trkpt lat="42.37078531645238399505615234375" lon="-3.697484470903873443603515625">
        <ele>863.20001220703125</ele>
        <time>2019-07-08T10:20:34.000Z</time>
      </trkpt>
      <trkpt lat="42.37094365060329437255859375" lon="-3.6975181661546230316162109375">
        <ele>864.20001220703125</ele>
        <time>2019-07-08T10:20:36.000Z</time>
      </trkpt>
      <trkpt lat="42.3710625059902667999267578125" lon="-3.69766644202172756195068359375">
        <ele>865</ele>
        <time>2019-07-08T10:20:38.000Z</time>
      </trkpt>
      <trkpt lat="42.37115613184869289398193359375" lon="-3.697899878025054931640625">
        <ele>865.5999755859375</ele>
        <time>2019-07-08T10:20:40.000Z</time>
      </trkpt>
      <trkpt lat="42.3713240213692188262939453125" lon="-3.69811001233756542205810546875">
        <ele>865.20001220703125</ele>
        <time>2019-07-08T10:20:42.000Z</time>
      </trkpt>
      <trkpt lat="42.3717243410646915435791015625" lon="-3.69833816774189472198486328125">
        <ele>863</ele>
        <time>2019-07-08T10:20:45.000Z</time>
      </trkpt>
      <trkpt lat="42.37186205573379993438720703125" lon="-3.698414862155914306640625">
        <ele>861.79998779296875</ele>
        <time>2019-07-08T10:20:46.000Z</time>
      </trkpt>
      <trkpt lat="42.3721367307007312774658203125" lon="-3.69857219047844409942626953125">
        <ele>859.79998779296875</ele>
        <time>2019-07-08T10:20:48.000Z</time>
      </trkpt>
      <trkpt lat="42.3724237270653247833251953125" lon="-3.6987325362861156463623046875">
        <ele>858.5999755859375</ele>
        <time>2019-07-08T10:20:50.000Z</time>
      </trkpt>
      <trkpt lat="42.372704856097698211669921875" lon="-3.6988770402967929840087890625">
        <ele>857.20001220703125</ele>
        <time>2019-07-08T10:20:52.000Z</time>
      </trkpt>
      <trkpt lat="42.37284944392740726470947265625" lon="-3.69894719682633876800537109375">
        <ele>855.5999755859375</ele>
        <time>2019-07-08T10:20:53.000Z</time>
      </trkpt>
      <trkpt lat="42.37299646250903606414794921875" lon="-3.6990185268223285675048828125">
        <ele>854.4000244140625</ele>
        <time>2019-07-08T10:20:54.000Z</time>
      </trkpt>
      <trkpt lat="42.3734520189464092254638671875" lon="-3.69922882877290248870849609375">
        <ele>853.4000244140625</ele>
        <time>2019-07-08T10:20:57.000Z</time>
      </trkpt>
      <trkpt lat="42.37360482104122638702392578125" lon="-3.69929051958024501800537109375">
        <ele>853</ele>
        <time>2019-07-08T10:20:58.000Z</time>
      </trkpt>
      <trkpt lat="42.37416339106857776641845703125" lon="-3.69948347099125385284423828125">
        <ele>852.4000244140625</ele>
        <time>2019-07-08T10:21:02.000Z</time>
      </trkpt>
      <trkpt lat="42.37429314292967319488525390625" lon="-3.6995154060423374176025390625">
        <ele>851.79998779296875</ele>
        <time>2019-07-08T10:21:03.000Z</time>
      </trkpt>
      <trkpt lat="42.37479974515736103057861328125" lon="-3.69958992116153240203857421875">
        <ele>851.79998779296875</ele>
        <time>2019-07-08T10:21:07.000Z</time>
      </trkpt>
      <trkpt lat="42.3752618394792079925537109375" lon="-3.699593357741832733154296875">
        <ele>852.4000244140625</ele>
        <time>2019-07-08T10:21:11.000Z</time>
      </trkpt>
      <trkpt lat="42.37566995434463024139404296875" lon="-3.699538372457027435302734375">
        <ele>852.79998779296875</ele>
        <time>2019-07-08T10:21:15.000Z</time>
      </trkpt>
      <trkpt lat="42.3757523484528064727783203125" lon="-3.69950861670076847076416015625">
        <ele>853.20001220703125</ele>
        <time>2019-07-08T10:21:16.000Z</time>
      </trkpt>
      <trkpt lat="42.37587464042007923126220703125" lon="-3.69938573800027370452880859375">
        <ele>853.79998779296875</ele>
        <time>2019-07-08T10:21:18.000Z</time>
      </trkpt>
      <trkpt lat="42.37592526711523532867431640625" lon="-3.699302338063716888427734375">
        <ele>854.5999755859375</ele>
        <time>2019-07-08T10:21:19.000Z</time>
      </trkpt>
      <trkpt lat="42.3759826831519603729248046875" lon="-3.69921843521296977996826171875">
        <ele>855.4000244140625</ele>
        <time>2019-07-08T10:21:20.000Z</time>
      </trkpt>
      <trkpt lat="42.37604965455830097198486328125" lon="-3.69915020652115345001220703125">
        <ele>855.79998779296875</ele>
        <time>2019-07-08T10:21:21.000Z</time>
      </trkpt>
      <trkpt lat="42.3761236667633056640625" lon="-3.69910762645304203033447265625">
        <ele>856.20001220703125</ele>
        <time>2019-07-08T10:21:22.000Z</time>
      </trkpt>
      <trkpt lat="42.3762886226177215576171875" lon="-3.69911986403167247772216796875">
        <ele>857</ele>
        <time>2019-07-08T10:21:24.000Z</time>
      </trkpt>
      <trkpt lat="42.376545779407024383544921875" lon="-3.699256069958209991455078125">
        <ele>856.5999755859375</ele>
        <time>2019-07-08T10:21:27.000Z</time>
      </trkpt>
      <trkpt lat="42.3767729289829730987548828125" lon="-3.69922815822064876556396484375">
        <ele>856.4000244140625</ele>
        <time>2019-07-08T10:21:29.000Z</time>
      </trkpt>
      <trkpt lat="42.3770337738096714019775390625" lon="-3.69912455789744853973388671875">
        <ele>855.79998779296875</ele>
        <time>2019-07-08T10:21:31.000Z</time>
      </trkpt>
      <trkpt lat="42.37730761058628559112548828125" lon="-3.6989875137805938720703125">
        <ele>854.4000244140625</ele>
        <time>2019-07-08T10:21:33.000Z</time>
      </trkpt>
      <trkpt lat="42.3775983788073062896728515625" lon="-3.69881811551749706268310546875">
        <ele>852.4000244140625</ele>
        <time>2019-07-08T10:21:35.000Z</time>
      </trkpt>
      <trkpt lat="42.37774900160729885101318359375" lon="-3.6987187899649143218994140625">
        <ele>851</ele>
        <time>2019-07-08T10:21:36.000Z</time>
      </trkpt>
      <trkpt lat="42.377896942198276519775390625" lon="-3.69861359708011150360107421875">
        <ele>849.4000244140625</ele>
        <time>2019-07-08T10:21:37.000Z</time>
      </trkpt>
      <trkpt lat="42.37803985364735126495361328125" lon="-3.69850195012986660003662109375">
        <ele>847.79998779296875</ele>
        <time>2019-07-08T10:21:38.000Z</time>
      </trkpt>
      <trkpt lat="42.3781760595738887786865234375" lon="-3.69838343001902103424072265625">
        <ele>846.79998779296875</ele>
        <time>2019-07-08T10:21:39.000Z</time>
      </trkpt>
      <trkpt lat="42.3783064819872379302978515625" lon="-3.69825921021401882171630859375">
        <ele>845.5999755859375</ele>
        <time>2019-07-08T10:21:40.000Z</time>
      </trkpt>
      <trkpt lat="42.3786635510623455047607421875" lon="-3.69787867181003093719482421875">
        <ele>845.20001220703125</ele>
        <time>2019-07-08T10:21:43.000Z</time>
      </trkpt>
      <trkpt lat="42.37908977083861827850341796875" lon="-3.6973250471055507659912109375">
        <ele>847.79998779296875</ele>
        <time>2019-07-08T10:21:47.000Z</time>
      </trkpt>
      <trkpt lat="42.37929202616214752197265625" lon="-3.69703151285648345947265625">
        <ele>849.20001220703125</ele>
        <time>2019-07-08T10:21:49.000Z</time>
      </trkpt>
      <trkpt lat="42.37949545495212078094482421875" lon="-3.69673521257936954498291015625">
        <ele>850.4000244140625</ele>
        <time>2019-07-08T10:21:51.000Z</time>
      </trkpt>
      <trkpt lat="42.37976551987230777740478515625" lon="-3.6962866969406604766845703125">
        <ele>851.4000244140625</ele>
        <time>2019-07-08T10:21:54.000Z</time>
      </trkpt>
      <trkpt lat="42.37984179519116878509521484375" lon="-3.6961478926241397857666015625">
        <ele>852.4000244140625</ele>
        <time>2019-07-08T10:21:55.000Z</time>
      </trkpt>
      <trkpt lat="42.3799141310155391693115234375" lon="-3.6960188113152980804443359375">
        <ele>853.5999755859375</ele>
        <time>2019-07-08T10:21:56.000Z</time>
      </trkpt>
      <trkpt lat="42.379980348050594329833984375" lon="-3.69589970447123050689697265625">
        <ele>854.79998779296875</ele>
        <time>2019-07-08T10:21:57.000Z</time>
      </trkpt>
      <trkpt lat="42.3800341598689556121826171875" lon="-3.69579006917774677276611328125">
        <ele>856.4000244140625</ele>
        <time>2019-07-08T10:21:58.000Z</time>
      </trkpt>
      <trkpt lat="42.38007347099483013153076171875" lon="-3.69568780995905399322509765625">
        <ele>858</ele>
        <time>2019-07-08T10:21:59.000Z</time>
      </trkpt>
      <trkpt lat="42.38009576685726642608642578125" lon="-3.69559041224420070648193359375">
        <ele>859.5999755859375</ele>
        <time>2019-07-08T10:22:00.000Z</time>
      </trkpt>
      <trkpt lat="42.38009928725659847259521484375" lon="-3.69549016468226909637451171875">
        <ele>861</ele>
        <time>2019-07-08T10:22:01.000Z</time>
      </trkpt>
      <trkpt lat="42.38008889369666576385498046875" lon="-3.695379607379436492919921875">
        <ele>862.4000244140625</ele>
        <time>2019-07-08T10:22:02.000Z</time>
      </trkpt>
      <trkpt lat="42.38007313571870326995849609375" lon="-3.69525295682251453399658203125">
        <ele>863.79998779296875</ele>
        <time>2019-07-08T10:22:03.000Z</time>
      </trkpt>
      <trkpt lat="42.3800666816532611846923828125" lon="-3.6951132304966449737548828125">
        <ele>864.79998779296875</ele>
        <time>2019-07-08T10:22:04.000Z</time>
      </trkpt>
      <trkpt lat="42.38012460060417652130126953125" lon="-3.6948436684906482696533203125">
        <ele>865.5999755859375</ele>
        <time>2019-07-08T10:22:06.000Z</time>
      </trkpt>
      <trkpt lat="42.38018645904958248138427734375" lon="-3.69473512284457683563232421875">
        <ele>866</ele>
        <time>2019-07-08T10:22:07.000Z</time>
      </trkpt>
      <trkpt lat="42.3802649974822998046875" lon="-3.69465465657413005828857421875">
        <ele>866</ele>
        <time>2019-07-08T10:22:08.000Z</time>
      </trkpt>
      <trkpt lat="42.38045384176075458526611328125" lon="-3.69459179230034351348876953125">
        <ele>866</ele>
        <time>2019-07-08T10:22:10.000Z</time>
      </trkpt>
      <trkpt lat="42.38063639961183071136474609375" lon="-3.69466245174407958984375">
        <ele>866.5999755859375</ele>
        <time>2019-07-08T10:22:12.000Z</time>
      </trkpt>
      <trkpt lat="42.38071896135807037353515625" lon="-3.69474752806127071380615234375">
        <ele>867</ele>
        <time>2019-07-08T10:22:13.000Z</time>
      </trkpt>
      <trkpt lat="42.38088618032634258270263671875" lon="-3.6949191056191921234130859375">
        <ele>868</ele>
        <time>2019-07-08T10:22:15.000Z</time>
      </trkpt>
      <trkpt lat="42.3809813149273395538330078125" lon="-3.69496780447661876678466796875">
        <ele>868</ele>
        <time>2019-07-08T10:22:16.000Z</time>
      </trkpt>
      <trkpt lat="42.38108935765922069549560546875" lon="-3.69499010033905506134033203125">
        <ele>867.79998779296875</ele>
        <time>2019-07-08T10:22:17.000Z</time>
      </trkpt>
      <trkpt lat="42.381209470331668853759765625" lon="-3.69499043561518192291259765625">
        <ele>867</ele>
        <time>2019-07-08T10:22:18.000Z</time>
      </trkpt>
      <trkpt lat="42.38133947364985942840576171875" lon="-3.69497886858880519866943359375">
        <ele>865.5999755859375</ele>
        <time>2019-07-08T10:22:19.000Z</time>
      </trkpt>
      <trkpt lat="42.38162881694734096527099609375" lon="-3.69495791383087635040283203125">
        <ele>863.79998779296875</ele>
        <time>2019-07-08T10:22:21.000Z</time>
      </trkpt>
      <trkpt lat="42.3817898333072662353515625" lon="-3.6949516274034976959228515625">
        <ele>862.79998779296875</ele>
        <time>2019-07-08T10:22:22.000Z</time>
      </trkpt>
      <trkpt lat="42.3823200725018978118896484375" lon="-3.6949496157467365264892578125">
        <ele>862</ele>
        <time>2019-07-08T10:22:25.000Z</time>
      </trkpt>
      <trkpt lat="42.38272818736732006072998046875" lon="-3.69496763683855533599853515625">
        <ele>860.4000244140625</ele>
        <time>2019-07-08T10:22:27.000Z</time>
      </trkpt>
      <trkpt lat="42.38336789421737194061279296875" lon="-3.69503687135875225067138671875">
        <ele>857.79998779296875</ele>
        <time>2019-07-08T10:22:30.000Z</time>
      </trkpt>
      <trkpt lat="42.3835786990821361541748046875" lon="-3.695062100887298583984375">
        <ele>855.5999755859375</ele>
        <time>2019-07-08T10:22:31.000Z</time>
      </trkpt>
      <trkpt lat="42.3837832175195217132568359375" lon="-3.69508464820683002471923828125">
        <ele>853.5999755859375</ele>
        <time>2019-07-08T10:22:32.000Z</time>
      </trkpt>
      <trkpt lat="42.3841587267816066741943359375" lon="-3.69512907229363918304443359375">
        <ele>851</ele>
        <time>2019-07-08T10:22:34.000Z</time>
      </trkpt>
      <trkpt lat="42.3843290470540523529052734375" lon="-3.695153631269931793212890625">
        <ele>850</ele>
        <time>2019-07-08T10:22:35.000Z</time>
      </trkpt>
      <trkpt lat="42.38483858294785022735595703125" lon="-3.69521456770598888397216796875">
        <ele>852.79998779296875</ele>
        <time>2019-07-08T10:22:39.000Z</time>
      </trkpt>
      <trkpt lat="42.3849201388657093048095703125" lon="-3.69519378058612346649169921875">
        <ele>854.5999755859375</ele>
        <time>2019-07-08T10:22:40.000Z</time>
      </trkpt>
      <trkpt lat="42.3849923908710479736328125" lon="-3.695147596299648284912109375">
        <ele>857</ele>
        <time>2019-07-08T10:22:41.000Z</time>
      </trkpt>
      <trkpt lat="42.3850602842867374420166015625" lon="-3.695075511932373046875">
        <ele>858.5999755859375</ele>
        <time>2019-07-08T10:22:42.000Z</time>
      </trkpt>
      <trkpt lat="42.3852069675922393798828125" lon="-3.69487694464623928070068359375">
        <ele>860.4000244140625</ele>
        <time>2019-07-08T10:22:44.000Z</time>
      </trkpt>
      <trkpt lat="42.38529606722295284271240234375" lon="-3.69478424079716205596923828125">
        <ele>861</ele>
        <time>2019-07-08T10:22:45.000Z</time>
      </trkpt>
      <trkpt lat="42.38551366142928600311279296875" lon="-3.69467359967529773712158203125">
        <ele>861.5999755859375</ele>
        <time>2019-07-08T10:22:47.000Z</time>
      </trkpt>
      <trkpt lat="42.38574206829071044921875" lon="-3.694695644080638885498046875">
        <ele>861.5999755859375</ele>
        <time>2019-07-08T10:22:49.000Z</time>
      </trkpt>
      <trkpt lat="42.385933510959148406982421875" lon="-3.6948527209460735321044921875">
        <ele>862.5999755859375</ele>
        <time>2019-07-08T10:22:51.000Z</time>
      </trkpt>
      <trkpt lat="42.38605320453643798828125" lon="-3.6951434053480625152587890625">
        <ele>863.79998779296875</ele>
        <time>2019-07-08T10:22:53.000Z</time>
      </trkpt>
      <trkpt lat="42.38607323728501796722412109375" lon="-3.69548521935939788818359375">
        <ele>864.5999755859375</ele>
        <time>2019-07-08T10:22:55.000Z</time>
      </trkpt>
      <trkpt lat="42.38605362363159656524658203125" lon="-3.695652186870574951171875">
        <ele>864.79998779296875</ele>
        <time>2019-07-08T10:22:56.000Z</time>
      </trkpt>
      <trkpt lat="42.386004589498043060302734375" lon="-3.6958102695643901824951171875">
        <ele>865</ele>
        <time>2019-07-08T10:22:57.000Z</time>
      </trkpt>
      <trkpt lat="42.38576042465865612030029296875" lon="-3.69630723260343074798583984375">
        <ele>864.4000244140625</ele>
        <time>2019-07-08T10:23:00.000Z</time>
      </trkpt>
      <trkpt lat="42.38564617931842803955078125" lon="-3.69674711488187313079833984375">
        <ele>864.20001220703125</ele>
        <time>2019-07-08T10:23:02.000Z</time>
      </trkpt>
      <trkpt lat="42.38561122678220272064208984375" lon="-3.69699672795832157135009765625">
        <ele>863.79998779296875</ele>
        <time>2019-07-08T10:23:03.000Z</time>
      </trkpt>
      <trkpt lat="42.3855046927928924560546875" lon="-3.69776233099400997161865234375">
        <ele>864.5999755859375</ele>
        <time>2019-07-08T10:23:06.000Z</time>
      </trkpt>
      <trkpt lat="42.38546705804765224456787109375" lon="-3.69801051914691925048828125">
        <ele>865</ele>
        <time>2019-07-08T10:23:07.000Z</time>
      </trkpt>
      <trkpt lat="42.385351471602916717529296875" lon="-3.69876983575522899627685546875">
        <ele>866.5999755859375</ele>
        <time>2019-07-08T10:23:10.000Z</time>
      </trkpt>
      <trkpt lat="42.3852312751114368438720703125" lon="-3.69959863834083080291748046875">
        <ele>867.20001220703125</ele>
        <time>2019-07-08T10:23:13.000Z</time>
      </trkpt>
      <trkpt lat="42.385091967880725860595703125" lon="-3.700469098985195159912109375">
        <ele>867</ele>
        <time>2019-07-08T10:23:16.000Z</time>
      </trkpt>
      <trkpt lat="42.38498157821595668792724609375" lon="-3.7010844983160495758056640625">
        <ele>866.4000244140625</ele>
        <time>2019-07-08T10:23:18.000Z</time>
      </trkpt>
      <trkpt lat="42.3848527483642101287841796875" lon="-3.70171758346259593963623046875">
        <ele>865.79998779296875</ele>
        <time>2019-07-08T10:23:20.000Z</time>
      </trkpt>
      <trkpt lat="42.38478192128241062164306640625" lon="-3.70202888734638690948486328125">
        <ele>865</ele>
        <time>2019-07-08T10:23:21.000Z</time>
      </trkpt>
      <trkpt lat="42.3846237547695636749267578125" lon="-3.70264780707657337188720703125">
        <ele>863.20001220703125</ele>
        <time>2019-07-08T10:23:23.000Z</time>
      </trkpt>
      <trkpt lat="42.38444630987942218780517578125" lon="-3.70326756499707698822021484375">
        <ele>862.4000244140625</ele>
        <time>2019-07-08T10:23:25.000Z</time>
      </trkpt>
      <trkpt lat="42.38426106981933116912841796875" lon="-3.70389520190656185150146484375">
        <ele>863</ele>
        <time>2019-07-08T10:23:27.000Z</time>
      </trkpt>
      <trkpt lat="42.38405236043035984039306640625" lon="-3.70452350936830043792724609375">
        <ele>864</ele>
        <time>2019-07-08T10:23:29.000Z</time>
      </trkpt>
      <trkpt lat="42.3838268034160137176513671875" lon="-3.70513706468045711517333984375">
        <ele>862.20001220703125</ele>
        <time>2019-07-08T10:23:31.000Z</time>
      </trkpt>
      <trkpt lat="42.38371138460934162139892578125" lon="-3.70543747209012508392333984375">
        <ele>859.5999755859375</ele>
        <time>2019-07-08T10:23:32.000Z</time>
      </trkpt>
      <trkpt lat="42.38359437324106693267822265625" lon="-3.70573486201465129852294921875">
        <ele>856.5999755859375</ele>
        <time>2019-07-08T10:23:33.000Z</time>
      </trkpt>
      <trkpt lat="42.3834757693111896514892578125" lon="-3.70602923445403575897216796875">
        <ele>854.4000244140625</ele>
        <time>2019-07-08T10:23:34.000Z</time>
      </trkpt>
      <trkpt lat="42.38335850648581981658935546875" lon="-3.70631941594183444976806640625">
        <ele>852.79998779296875</ele>
        <time>2019-07-08T10:23:35.000Z</time>
      </trkpt>
      <trkpt lat="42.3832447640597820281982421875" lon="-3.7066023051738739013671875">
        <ele>851.5999755859375</ele>
        <time>2019-07-08T10:23:36.000Z</time>
      </trkpt>
      <trkpt lat="42.3830201290547847747802734375" lon="-3.707172609865665435791015625">
        <ele>851.20001220703125</ele>
        <time>2019-07-08T10:23:38.000Z</time>
      </trkpt>
      <trkpt lat="42.3828063905239105224609375" lon="-3.70777250267565250396728515625">
        <ele>850.5999755859375</ele>
        <time>2019-07-08T10:23:40.000Z</time>
      </trkpt>
      <trkpt lat="42.3825966753065586090087890625" lon="-3.70839058421552181243896484375">
        <ele>851.4000244140625</ele>
        <time>2019-07-08T10:23:42.000Z</time>
      </trkpt>
      <trkpt lat="42.3824991099536418914794921875" lon="-3.70869685895740985870361328125">
        <ele>851.5999755859375</ele>
        <time>2019-07-08T10:23:43.000Z</time>
      </trkpt>
      <trkpt lat="42.3823207430541515350341796875" lon="-3.709308989346027374267578125">
        <ele>852.20001220703125</ele>
        <time>2019-07-08T10:23:45.000Z</time>
      </trkpt>
      <trkpt lat="42.38215788267552852630615234375" lon="-3.70993134565651416778564453125">
        <ele>853</ele>
        <time>2019-07-08T10:23:47.000Z</time>
      </trkpt>
      <trkpt lat="42.3820075951516628265380859375" lon="-3.7105714716017246246337890625">
        <ele>854.20001220703125</ele>
        <time>2019-07-08T10:23:49.000Z</time>
      </trkpt>
      <trkpt lat="42.3819412104785442352294921875" lon="-3.71089912019670009613037109375">
        <ele>856.20001220703125</ele>
        <time>2019-07-08T10:23:50.000Z</time>
      </trkpt>
      <trkpt lat="42.381879352033138275146484375" lon="-3.7112333066761493682861328125">
        <ele>859.20001220703125</ele>
        <time>2019-07-08T10:23:51.000Z</time>
      </trkpt>
      <trkpt lat="42.3818215169012546539306640625" lon="-3.7115742824971675872802734375">
        <ele>862.20001220703125</ele>
        <time>2019-07-08T10:23:52.000Z</time>
      </trkpt>
      <trkpt lat="42.381765358150005340576171875" lon="-3.71192087419331073760986328125">
        <ele>865</ele>
        <time>2019-07-08T10:23:53.000Z</time>
      </trkpt>
      <trkpt lat="42.381710708141326904296875" lon="-3.7122738361358642578125">
        <ele>866.5999755859375</ele>
        <time>2019-07-08T10:23:54.000Z</time>
      </trkpt>
      <trkpt lat="42.3816102929413318634033203125" lon="-3.71299979276955127716064453125">
        <ele>866.5999755859375</ele>
        <time>2019-07-08T10:23:56.000Z</time>
      </trkpt>
      <trkpt lat="42.3815288208425045013427734375" lon="-3.7137519009411334991455078125">
        <ele>867.4000244140625</ele>
        <time>2019-07-08T10:23:58.000Z</time>
      </trkpt>
      <trkpt lat="42.38145983777940273284912109375" lon="-3.71451071463525295257568359375">
        <ele>867.20001220703125</ele>
        <time>2019-07-08T10:24:00.000Z</time>
      </trkpt>
      <trkpt lat="42.38139010034501552581787109375" lon="-3.715252093970775604248046875">
        <ele>866.4000244140625</ele>
        <time>2019-07-08T10:24:02.000Z</time>
      </trkpt>
      <trkpt lat="42.3813226260244846343994140625" lon="-3.71597637422382831573486328125">
        <ele>866.20001220703125</ele>
        <time>2019-07-08T10:24:04.000Z</time>
      </trkpt>
      <trkpt lat="42.38125381059944629669189453125" lon="-3.716698475182056427001953125">
        <ele>865</ele>
        <time>2019-07-08T10:24:06.000Z</time>
      </trkpt>
      <trkpt lat="42.3812146671116352081298828125" lon="-3.71705680154263973236083984375">
        <ele>863.79998779296875</ele>
        <time>2019-07-08T10:24:07.000Z</time>
      </trkpt>
      <trkpt lat="42.38117300905287265777587890625" lon="-3.71741051785647869110107421875">
        <ele>862.5999755859375</ele>
        <time>2019-07-08T10:24:08.000Z</time>
      </trkpt>
      <trkpt lat="42.381074018776416778564453125" lon="-3.7181118316948413848876953125">
        <ele>861</ele>
        <time>2019-07-08T10:24:10.000Z</time>
      </trkpt>
      <trkpt lat="42.38102070987224578857421875" lon="-3.71846102178096771240234375">
        <ele>859.5999755859375</ele>
        <time>2019-07-08T10:24:11.000Z</time>
      </trkpt>
      <trkpt lat="42.38096714951097965240478515625" lon="-3.71881146915256977081298828125">
        <ele>857.4000244140625</ele>
        <time>2019-07-08T10:24:12.000Z</time>
      </trkpt>
      <trkpt lat="42.3809073865413665771484375" lon="-3.71916510164737701416015625">
        <ele>855</ele>
        <time>2019-07-08T10:24:13.000Z</time>
      </trkpt>
      <trkpt lat="42.38084427081048488616943359375" lon="-3.7195199914276599884033203125">
        <ele>850</ele>
        <time>2019-07-08T10:24:14.000Z</time>
      </trkpt>
      <trkpt lat="42.380777299404144287109375" lon="-3.71987722814083099365234375">
        <ele>844</ele>
        <time>2019-07-08T10:24:15.000Z</time>
      </trkpt>
      <trkpt lat="42.38070731051266193389892578125" lon="-3.720237314701080322265625">
        <ele>837.79998779296875</ele>
        <time>2019-07-08T10:24:16.000Z</time>
      </trkpt>
      <trkpt lat="42.38063581287860870361328125" lon="-3.72060083784162998199462890625">
        <ele>834.5999755859375</ele>
        <time>2019-07-08T10:24:17.000Z</time>
      </trkpt>
      <trkpt lat="42.3805638961493968963623046875" lon="-3.72096729464828968048095703125">
        <ele>832.5999755859375</ele>
        <time>2019-07-08T10:24:18.000Z</time>
      </trkpt>
      <trkpt lat="42.380490638315677642822265625" lon="-3.72133542783558368682861328125">
        <ele>831.4000244140625</ele>
        <time>2019-07-08T10:24:19.000Z</time>
      </trkpt>
      <trkpt lat="42.3803446255624294281005859375" lon="-3.72206867672502994537353515625">
        <ele>830</ele>
        <time>2019-07-08T10:24:21.000Z</time>
      </trkpt>
      <trkpt lat="42.38019861280918121337890625" lon="-3.72279471717774868011474609375">
        <ele>828.4000244140625</ele>
        <time>2019-07-08T10:24:23.000Z</time>
      </trkpt>
      <trkpt lat="42.3800504207611083984375" lon="-3.72351254336535930633544921875">
        <ele>828</ele>
        <time>2019-07-08T10:24:25.000Z</time>
      </trkpt>
      <trkpt lat="42.3799015581607818603515625" lon="-3.7242282740771770477294921875">
        <ele>827.79998779296875</ele>
        <time>2019-07-08T10:24:27.000Z</time>
      </trkpt>
      <trkpt lat="42.3797562159597873687744140625" lon="-3.7249360419809818267822265625">
        <ele>828.20001220703125</ele>
        <time>2019-07-08T10:24:29.000Z</time>
      </trkpt>
      <trkpt lat="42.37961414270102977752685546875" lon="-3.7256444804370403289794921875">
        <ele>828.4000244140625</ele>
        <time>2019-07-08T10:24:31.000Z</time>
      </trkpt>
      <trkpt lat="42.3794712312519550323486328125" lon="-3.7263515777885913848876953125">
        <ele>826.79998779296875</ele>
        <time>2019-07-08T10:24:33.000Z</time>
      </trkpt>
      <trkpt lat="42.37932429648935794830322265625" lon="-3.72706747613847255706787109375">
        <ele>825</ele>
        <time>2019-07-08T10:24:35.000Z</time>
      </trkpt>
      <trkpt lat="42.37917543388903141021728515625" lon="-3.72779066674411296844482421875">
        <ele>823.5999755859375</ele>
        <time>2019-07-08T10:24:37.000Z</time>
      </trkpt>
      <trkpt lat="42.37902422435581684112548828125" lon="-3.728520311415195465087890625">
        <ele>822.4000244140625</ele>
        <time>2019-07-08T10:24:39.000Z</time>
      </trkpt>
      <trkpt lat="42.37887251190841197967529296875" lon="-3.7292631156742572784423828125">
        <ele>822.79998779296875</ele>
        <time>2019-07-08T10:24:41.000Z</time>
      </trkpt>
      <trkpt lat="42.37872599624097347259521484375" lon="-3.7300154753029346466064453125">
        <ele>821.5999755859375</ele>
        <time>2019-07-08T10:24:43.000Z</time>
      </trkpt>
      <trkpt lat="42.378658689558506011962890625" lon="-3.73039240948855876922607421875">
        <ele>820.4000244140625</ele>
        <time>2019-07-08T10:24:44.000Z</time>
      </trkpt>
      <trkpt lat="42.37854109145700931549072265625" lon="-3.7311426736414432525634765625">
        <ele>820.20001220703125</ele>
        <time>2019-07-08T10:24:46.000Z</time>
      </trkpt>
      <trkpt lat="42.37844553776085376739501953125" lon="-3.73189025558531284332275390625">
        <ele>821.4000244140625</ele>
        <time>2019-07-08T10:24:48.000Z</time>
      </trkpt>
      <trkpt lat="42.37837093882262706756591796875" lon="-3.73263875953853130340576171875">
        <ele>823.4000244140625</ele>
        <time>2019-07-08T10:24:50.000Z</time>
      </trkpt>
      <trkpt lat="42.3783190548419952392578125" lon="-3.73339354991912841796875">
        <ele>824.20001220703125</ele>
        <time>2019-07-08T10:24:52.000Z</time>
      </trkpt>
      <trkpt lat="42.378290556371212005615234375" lon="-3.73416133224964141845703125">
        <ele>824.20001220703125</ele>
        <time>2019-07-08T10:24:54.000Z</time>
      </trkpt>
      <trkpt lat="42.37828410230576992034912109375" lon="-3.73492978513240814208984375">
        <ele>824</ele>
        <time>2019-07-08T10:24:56.000Z</time>
      </trkpt>
      <trkpt lat="42.3783037997782230377197265625" lon="-3.73568541370332241058349609375">
        <ele>824</ele>
        <time>2019-07-08T10:24:58.000Z</time>
      </trkpt>
      <trkpt lat="42.378342188894748687744140625" lon="-3.73642670921981334686279296875">
        <ele>822.4000244140625</ele>
        <time>2019-07-08T10:25:00.000Z</time>
      </trkpt>
      <trkpt lat="42.3783678375184535980224609375" lon="-3.7367954291403293609619140625">
        <ele>822.20001220703125</ele>
        <time>2019-07-08T10:25:01.000Z</time>
      </trkpt>
      <trkpt lat="42.3784275166690349578857421875" lon="-3.73753127641975879669189453125">
        <ele>822</ele>
        <time>2019-07-08T10:25:03.000Z</time>
      </trkpt>
      <trkpt lat="42.37848409451544284820556640625" lon="-3.73827273957431316375732421875">
        <ele>821.4000244140625</ele>
        <time>2019-07-08T10:25:05.000Z</time>
      </trkpt>
      <trkpt lat="42.37853807397186756134033203125" lon="-3.7390159629285335540771484375">
        <ele>821</ele>
        <time>2019-07-08T10:25:07.000Z</time>
      </trkpt>
      <trkpt lat="42.3785814084112644195556640625" lon="-3.7397597730159759521484375">
        <ele>820.20001220703125</ele>
        <time>2019-07-08T10:25:09.000Z</time>
      </trkpt>
      <trkpt lat="42.378607057034969329833984375" lon="-3.74049670994281768798828125">
        <ele>821.20001220703125</ele>
        <time>2019-07-08T10:25:11.000Z</time>
      </trkpt>
      <trkpt lat="42.37861166708171367645263671875" lon="-3.740861825644969940185546875">
        <ele>822</ele>
        <time>2019-07-08T10:25:12.000Z</time>
      </trkpt>
      <trkpt lat="42.37861133180558681488037109375" lon="-3.74122551642358303070068359375">
        <ele>823</ele>
        <time>2019-07-08T10:25:13.000Z</time>
      </trkpt>
      <trkpt lat="42.37860512919723987579345703125" lon="-3.74158929102122783660888671875">
        <ele>824</ele>
        <time>2019-07-08T10:25:14.000Z</time>
      </trkpt>
      <trkpt lat="42.37857562489807605743408203125" lon="-3.742321617901325225830078125">
        <ele>824.20001220703125</ele>
        <time>2019-07-08T10:25:16.000Z</time>
      </trkpt>
      <trkpt lat="42.378526590764522552490234375" lon="-3.7430634163320064544677734375">
        <ele>824.79998779296875</ele>
        <time>2019-07-08T10:25:18.000Z</time>
      </trkpt>
      <trkpt lat="42.37849482335150241851806640625" lon="-3.74343884177505970001220703125">
        <ele>825</ele>
        <time>2019-07-08T10:25:19.000Z</time>
      </trkpt>
      <trkpt lat="42.37841226160526275634765625" lon="-3.74419555999338626861572265625">
        <ele>824.4000244140625</ele>
        <time>2019-07-08T10:25:21.000Z</time>
      </trkpt>
      <trkpt lat="42.37830405123531818389892578125" lon="-3.74495730735361576080322265625">
        <ele>824</ele>
        <time>2019-07-08T10:25:23.000Z</time>
      </trkpt>
      <trkpt lat="42.37824085168540477752685546875" lon="-3.7453386001288890838623046875">
        <ele>822.5999755859375</ele>
        <time>2019-07-08T10:25:24.000Z</time>
      </trkpt>
      <trkpt lat="42.37817262299358844757080078125" lon="-3.74572031199932098388671875">
        <ele>821.20001220703125</ele>
        <time>2019-07-08T10:25:25.000Z</time>
      </trkpt>
      <trkpt lat="42.37809953279793262481689453125" lon="-3.74610395170748233795166015625">
        <ele>819.5999755859375</ele>
        <time>2019-07-08T10:25:26.000Z</time>
      </trkpt>
      <trkpt lat="42.3780194856226444244384765625" lon="-3.74648650176823139190673828125">
        <ele>818.5999755859375</ele>
        <time>2019-07-08T10:25:27.000Z</time>
      </trkpt>
      <trkpt lat="42.37784002907574176788330078125" lon="-3.74724288471043109893798828125">
        <ele>817.4000244140625</ele>
        <time>2019-07-08T10:25:29.000Z</time>
      </trkpt>
      <trkpt lat="42.37763752229511737823486328125" lon="-3.74798954464495182037353515625">
        <ele>816.20001220703125</ele>
        <time>2019-07-08T10:25:31.000Z</time>
      </trkpt>
      <trkpt lat="42.37740836106240749359130859375" lon="-3.74871944077312946319580078125">
        <ele>815</ele>
        <time>2019-07-08T10:25:33.000Z</time>
      </trkpt>
      <trkpt lat="42.37715941853821277618408203125" lon="-3.74943776987493038177490234375">
        <ele>813.79998779296875</ele>
        <time>2019-07-08T10:25:35.000Z</time>
      </trkpt>
      <trkpt lat="42.37689144909381866455078125" lon="-3.75014503486454486846923828125">
        <ele>813.79998779296875</ele>
        <time>2019-07-08T10:25:37.000Z</time>
      </trkpt>
      <trkpt lat="42.376750297844409942626953125" lon="-3.7504907883703708648681640625">
        <ele>812.5999755859375</ele>
        <time>2019-07-08T10:25:38.000Z</time>
      </trkpt>
      <trkpt lat="42.3764490522444248199462890625" lon="-3.7511698901653289794921875">
        <ele>813.5999755859375</ele>
        <time>2019-07-08T10:25:40.000Z</time>
      </trkpt>
      <trkpt lat="42.37629105336964130401611328125" lon="-3.75150424428284168243408203125">
        <ele>814</ele>
        <time>2019-07-08T10:25:41.000Z</time>
      </trkpt>
      <trkpt lat="42.3759632371366024017333984375" lon="-3.75216423533856868743896484375">
        <ele>814.5999755859375</ele>
        <time>2019-07-08T10:25:43.000Z</time>
      </trkpt>
      <trkpt lat="42.37579300068318843841552734375" lon="-3.75249020755290985107421875">
        <ele>816</ele>
        <time>2019-07-08T10:25:44.000Z</time>
      </trkpt>
      <trkpt lat="42.3756155557930469512939453125" lon="-3.75281349755823612213134765625">
        <ele>817.5999755859375</ele>
        <time>2019-07-08T10:25:45.000Z</time>
      </trkpt>
      <trkpt lat="42.37524767406284809112548828125" lon="-3.75345488078892230987548828125">
        <ele>817.79998779296875</ele>
        <time>2019-07-08T10:25:47.000Z</time>
      </trkpt>
      <trkpt lat="42.3748829774558544158935546875" lon="-3.75409341417253017425537109375">
        <ele>816.5999755859375</ele>
        <time>2019-07-08T10:25:49.000Z</time>
      </trkpt>
      <trkpt lat="42.37452842295169830322265625" lon="-3.7547159381210803985595703125">
        <ele>816.20001220703125</ele>
        <time>2019-07-08T10:25:51.000Z</time>
      </trkpt>
      <trkpt lat="42.37419473938643932342529296875" lon="-3.755330331623554229736328125">
        <ele>816.4000244140625</ele>
        <time>2019-07-08T10:25:53.000Z</time>
      </trkpt>
      <trkpt lat="42.37387890927493572235107421875" lon="-3.75595587305724620819091796875">
        <ele>819.79998779296875</ele>
        <time>2019-07-08T10:25:55.000Z</time>
      </trkpt>
      <trkpt lat="42.37372669391334056854248046875" lon="-3.75627321191132068634033203125">
        <ele>821.79998779296875</ele>
        <time>2019-07-08T10:25:56.000Z</time>
      </trkpt>
      <trkpt lat="42.37357950769364833831787109375" lon="-3.7565954960882663726806640625">
        <ele>824.79998779296875</ele>
        <time>2019-07-08T10:25:57.000Z</time>
      </trkpt>
      <trkpt lat="42.373437099158763885498046875" lon="-3.75692314468324184417724609375">
        <ele>826.79998779296875</ele>
        <time>2019-07-08T10:25:58.000Z</time>
      </trkpt>
      <trkpt lat="42.37316560931503772735595703125" lon="-3.75759671442210674285888671875">
        <ele>826.79998779296875</ele>
        <time>2019-07-08T10:26:00.000Z</time>
      </trkpt>
      <trkpt lat="42.37303401343524456024169921875" lon="-3.757943809032440185546875">
        <ele>825.4000244140625</ele>
        <time>2019-07-08T10:26:01.000Z</time>
      </trkpt>
      <trkpt lat="42.37277467735111713409423828125" lon="-3.75865048728883266448974609375">
        <ele>824.20001220703125</ele>
        <time>2019-07-08T10:26:03.000Z</time>
      </trkpt>
      <trkpt lat="42.37251232378184795379638671875" lon="-3.759368397295475006103515625">
        <ele>823.5999755859375</ele>
        <time>2019-07-08T10:26:05.000Z</time>
      </trkpt>
      <trkpt lat="42.37224007956683635711669921875" lon="-3.76009234227240085601806640625">
        <ele>823.20001220703125</ele>
        <time>2019-07-08T10:26:07.000Z</time>
      </trkpt>
      <trkpt lat="42.3719432763755321502685546875" lon="-3.76081486232578754425048828125">
        <ele>822.5999755859375</ele>
        <time>2019-07-08T10:26:09.000Z</time>
      </trkpt>
      <trkpt lat="42.37162115983664989471435546875" lon="-3.76152925193309783935546875">
        <ele>822</ele>
        <time>2019-07-08T10:26:11.000Z</time>
      </trkpt>
      <trkpt lat="42.371273897588253021240234375" lon="-3.76223266124725341796875">
        <ele>821.5999755859375</ele>
        <time>2019-07-08T10:26:13.000Z</time>
      </trkpt>
      <trkpt lat="42.37090433947741985321044921875" lon="-3.7629107572138309478759765625">
        <ele>822.79998779296875</ele>
        <time>2019-07-08T10:26:15.000Z</time>
      </trkpt>
      <trkpt lat="42.370712645351886749267578125" lon="-3.76323874108493328094482421875">
        <ele>824</ele>
        <time>2019-07-08T10:26:16.000Z</time>
      </trkpt>
      <trkpt lat="42.37031425349414348602294921875" lon="-3.763869144022464752197265625">
        <ele>825.4000244140625</ele>
        <time>2019-07-08T10:26:18.000Z</time>
      </trkpt>
      <trkpt lat="42.369903624057769775390625" lon="-3.76448865048587322235107421875">
        <ele>826.20001220703125</ele>
        <time>2019-07-08T10:26:20.000Z</time>
      </trkpt>
      <trkpt lat="42.3694924078881740570068359375" lon="-3.7651108391582965850830078125">
        <ele>825.5999755859375</ele>
        <time>2019-07-08T10:26:22.000Z</time>
      </trkpt>
      <trkpt lat="42.369082532823085784912109375" lon="-3.76572783105075359344482421875">
        <ele>826.20001220703125</ele>
        <time>2019-07-08T10:26:24.000Z</time>
      </trkpt>
      <trkpt lat="42.368879355490207672119140625" lon="-3.7660385482013225555419921875">
        <ele>826.5999755859375</ele>
        <time>2019-07-08T10:26:25.000Z</time>
      </trkpt>
      <trkpt lat="42.36848314292728900909423828125" lon="-3.76667247153818607330322265625">
        <ele>826.79998779296875</ele>
        <time>2019-07-08T10:26:27.000Z</time>
      </trkpt>
      <trkpt lat="42.36829203553497791290283203125" lon="-3.7669987790286540985107421875">
        <ele>827.5999755859375</ele>
        <time>2019-07-08T10:26:28.000Z</time>
      </trkpt>
      <trkpt lat="42.36810587346553802490234375" lon="-3.76732952892780303955078125">
        <ele>829</ele>
        <time>2019-07-08T10:26:29.000Z</time>
      </trkpt>
      <trkpt lat="42.3679239861667156219482421875" lon="-3.76766622997820377349853515625">
        <ele>830.20001220703125</ele>
        <time>2019-07-08T10:26:30.000Z</time>
      </trkpt>
      <trkpt lat="42.367577143013477325439453125" lon="-3.768356144428253173828125">
        <ele>831.5999755859375</ele>
        <time>2019-07-08T10:26:32.000Z</time>
      </trkpt>
      <trkpt lat="42.3672477342188358306884765625" lon="-3.76906315796077251434326171875">
        <ele>831.5999755859375</ele>
        <time>2019-07-08T10:26:34.000Z</time>
      </trkpt>
      <trkpt lat="42.3669352568686008453369140625" lon="-3.76978014595806598663330078125">
        <ele>830.20001220703125</ele>
        <time>2019-07-08T10:26:36.000Z</time>
      </trkpt>
      <trkpt lat="42.36664474010467529296875" lon="-3.7705071084201335906982421875">
        <ele>830.4000244140625</ele>
        <time>2019-07-08T10:26:38.000Z</time>
      </trkpt>
      <trkpt lat="42.36638431437313556671142578125" lon="-3.7712551094591617584228515625">
        <ele>830.4000244140625</ele>
        <time>2019-07-08T10:26:40.000Z</time>
      </trkpt>
      <trkpt lat="42.366137802600860595703125" lon="-3.77202465198934078216552734375">
        <ele>831.20001220703125</ele>
        <time>2019-07-08T10:26:42.000Z</time>
      </trkpt>
      <trkpt lat="42.36602171324193477630615234375" lon="-3.772416003048419952392578125">
        <ele>832.79998779296875</ele>
        <time>2019-07-08T10:26:43.000Z</time>
      </trkpt>
      <trkpt lat="42.36579607240855693817138671875" lon="-3.7732087634503841400146484375">
        <ele>831.5999755859375</ele>
        <time>2019-07-08T10:26:45.000Z</time>
      </trkpt>
      <trkpt lat="42.365687191486358642578125" lon="-3.7736013717949390411376953125">
        <ele>829.5999755859375</ele>
        <time>2019-07-08T10:26:46.000Z</time>
      </trkpt>
      <trkpt lat="42.3654724471271038055419921875" lon="-3.7743624486029148101806640625">
        <ele>829.4000244140625</ele>
        <time>2019-07-08T10:26:48.000Z</time>
      </trkpt>
      <trkpt lat="42.36526315100491046905517578125" lon="-3.77510198391973972320556640625">
        <ele>829</ele>
        <time>2019-07-08T10:26:50.000Z</time>
      </trkpt>
      <trkpt lat="42.3650375939905643463134765625" lon="-3.77582869492471218109130859375">
        <ele>829.5999755859375</ele>
        <time>2019-07-08T10:26:52.000Z</time>
      </trkpt>
      <trkpt lat="42.3647871427237987518310546875" lon="-3.7765544839203357696533203125">
        <ele>829.5999755859375</ele>
        <time>2019-07-08T10:26:54.000Z</time>
      </trkpt>
      <trkpt lat="42.3645091988146305084228515625" lon="-3.77727960236370563507080078125">
        <ele>829.20001220703125</ele>
        <time>2019-07-08T10:26:56.000Z</time>
      </trkpt>
      <trkpt lat="42.3643608391284942626953125" lon="-3.77764052711427211761474609375">
        <ele>828.20001220703125</ele>
        <time>2019-07-08T10:26:57.000Z</time>
      </trkpt>
      <trkpt lat="42.36404190771281719207763671875" lon="-3.77835734747350215911865234375">
        <ele>826.4000244140625</ele>
        <time>2019-07-08T10:26:59.000Z</time>
      </trkpt>
      <trkpt lat="42.363696657121181488037109375" lon="-3.77906008623540401458740234375">
        <ele>825.4000244140625</ele>
        <time>2019-07-08T10:27:01.000Z</time>
      </trkpt>
      <trkpt lat="42.36332760192453861236572265625" lon="-3.77973876893520355224609375">
        <ele>823.79998779296875</ele>
        <time>2019-07-08T10:27:03.000Z</time>
      </trkpt>
      <trkpt lat="42.36294169910252094268798828125" lon="-3.78038920462131500244140625">
        <ele>823</ele>
        <time>2019-07-08T10:27:05.000Z</time>
      </trkpt>
      <trkpt lat="42.36254774965345859527587890625" lon="-3.78101407550275325775146484375">
        <ele>823</ele>
        <time>2019-07-08T10:27:07.000Z</time>
      </trkpt>
      <trkpt lat="42.36216050572693347930908203125" lon="-3.7816228531301021575927734375">
        <ele>825.20001220703125</ele>
        <time>2019-07-08T10:27:09.000Z</time>
      </trkpt>
      <trkpt lat="42.36197174526751041412353515625" lon="-3.7819249369204044342041015625">
        <ele>827</ele>
        <time>2019-07-08T10:27:10.000Z</time>
      </trkpt>
      <trkpt lat="42.3616008460521697998046875" lon="-3.78252851776778697967529296875">
        <ele>829.5999755859375</ele>
        <time>2019-07-08T10:27:12.000Z</time>
      </trkpt>
      <trkpt lat="42.3614184558391571044921875" lon="-3.78283060155808925628662109375">
        <ele>830.79998779296875</ele>
        <time>2019-07-08T10:27:13.000Z</time>
      </trkpt>
      <trkpt lat="42.361239753663539886474609375" lon="-3.7831319309771060943603515625">
        <ele>831.79998779296875</ele>
        <time>2019-07-08T10:27:14.000Z</time>
      </trkpt>
      <trkpt lat="42.36089232377707958221435546875" lon="-3.78373048268258571624755859375">
        <ele>832.79998779296875</ele>
        <time>2019-07-08T10:27:16.000Z</time>
      </trkpt>
      <trkpt lat="42.36072242259979248046875" lon="-3.78402820788323879241943359375">
        <ele>833</ele>
        <time>2019-07-08T10:27:17.000Z</time>
      </trkpt>
      <trkpt lat="42.360386140644550323486328125" lon="-3.784624077379703521728515625">
        <ele>833.79998779296875</ele>
        <time>2019-07-08T10:27:19.000Z</time>
      </trkpt>
      <trkpt lat="42.3602193407714366912841796875" lon="-3.78492289222776889801025390625">
        <ele>834.5999755859375</ele>
        <time>2019-07-08T10:27:20.000Z</time>
      </trkpt>
      <trkpt lat="42.36005312763154506683349609375" lon="-3.78522547893226146697998046875">
        <ele>835.79998779296875</ele>
        <time>2019-07-08T10:27:21.000Z</time>
      </trkpt>
      <trkpt lat="42.3597110621631145477294921875" lon="-3.78583274781703948974609375">
        <ele>835</ele>
        <time>2019-07-08T10:27:23.000Z</time>
      </trkpt>
      <trkpt lat="42.35953244380652904510498046875" lon="-3.786134161055088043212890625">
        <ele>834.79998779296875</ele>
        <time>2019-07-08T10:27:24.000Z</time>
      </trkpt>
      <trkpt lat="42.3591511510312557220458984375" lon="-3.78672449849545955657958984375">
        <ele>835.4000244140625</ele>
        <time>2019-07-08T10:27:26.000Z</time>
      </trkpt>
      <trkpt lat="42.3587434552609920501708984375" lon="-3.78730016760528087615966796875">
        <ele>833.79998779296875</ele>
        <time>2019-07-08T10:27:28.000Z</time>
      </trkpt>
      <trkpt lat="42.3585282079875469207763671875" lon="-3.78757894970476627349853515625">
        <ele>833</ele>
        <time>2019-07-08T10:27:29.000Z</time>
      </trkpt>
      <trkpt lat="42.35830466262996196746826171875" lon="-3.78785111010074615478515625">
        <ele>831.79998779296875</ele>
        <time>2019-07-08T10:27:30.000Z</time>
      </trkpt>
      <trkpt lat="42.35783712007105350494384765625" lon="-3.788379170000553131103515625">
        <ele>830</ele>
        <time>2019-07-08T10:27:32.000Z</time>
      </trkpt>
      <trkpt lat="42.35759303905069828033447265625" lon="-3.78863439895212650299072265625">
        <ele>828.5999755859375</ele>
        <time>2019-07-08T10:27:33.000Z</time>
      </trkpt>
      <trkpt lat="42.357343174517154693603515625" lon="-3.78888149745762348175048828125">
        <ele>827.5999755859375</ele>
        <time>2019-07-08T10:27:34.000Z</time>
      </trkpt>
      <trkpt lat="42.357089035212993621826171875" lon="-3.7891179509460926055908203125">
        <ele>826.4000244140625</ele>
        <time>2019-07-08T10:27:35.000Z</time>
      </trkpt>
      <trkpt lat="42.35657966695725917816162109375" lon="-3.7895605154335498809814453125">
        <ele>824.4000244140625</ele>
        <time>2019-07-08T10:27:37.000Z</time>
      </trkpt>
      <trkpt lat="42.3563284613192081451416015625" lon="-3.78976084291934967041015625">
        <ele>823</ele>
        <time>2019-07-08T10:27:38.000Z</time>
      </trkpt>
      <trkpt lat="42.355827391147613525390625" lon="-3.7901217676699161529541015625">
        <ele>821.79998779296875</ele>
        <time>2019-07-08T10:27:40.000Z</time>
      </trkpt>
      <trkpt lat="42.35532036982476711273193359375" lon="-3.7904463149607181549072265625">
        <ele>823.20001220703125</ele>
        <time>2019-07-08T10:27:42.000Z</time>
      </trkpt>
      <trkpt lat="42.354807145893573760986328125" lon="-3.79073926247656345367431640625">
        <ele>822.79998779296875</ele>
        <time>2019-07-08T10:27:44.000Z</time>
      </trkpt>
      <trkpt lat="42.354288809001445770263671875" lon="-3.79100538790225982666015625">
        <ele>821.79998779296875</ele>
        <time>2019-07-08T10:27:46.000Z</time>
      </trkpt>
      <trkpt lat="42.3540294729173183441162109375" lon="-3.79112784750759601593017578125">
        <ele>820.5999755859375</ele>
        <time>2019-07-08T10:27:47.000Z</time>
      </trkpt>
      <trkpt lat="42.35351373441517353057861328125" lon="-3.79134661518037319183349609375">
        <ele>819.4000244140625</ele>
        <time>2019-07-08T10:27:49.000Z</time>
      </trkpt>
      <trkpt lat="42.3532620258629322052001953125" lon="-3.791438229382038116455078125">
        <ele>818.4000244140625</ele>
        <time>2019-07-08T10:27:50.000Z</time>
      </trkpt>
      <trkpt lat="42.35302247107028961181640625" lon="-3.79151710309088230133056640625">
        <ele>816</ele>
        <time>2019-07-08T10:27:51.000Z</time>
      </trkpt>
      <trkpt lat="42.35279791988432407379150390625" lon="-3.791581727564334869384765625">
        <ele>815</ele>
        <time>2019-07-08T10:27:52.000Z</time>
      </trkpt>
      <trkpt lat="42.35217615030705928802490234375" lon="-3.791745007038116455078125">
        <ele>816.5999755859375</ele>
        <time>2019-07-08T10:27:55.000Z</time>
      </trkpt>
      <trkpt lat="42.35198487527668476104736328125" lon="-3.79179605282843112945556640625">
        <ele>818.5999755859375</ele>
        <time>2019-07-08T10:27:56.000Z</time>
      </trkpt>
      <trkpt lat="42.3518065921962261199951171875" lon="-3.7918417342007160186767578125">
        <ele>820.5999755859375</ele>
        <time>2019-07-08T10:27:57.000Z</time>
      </trkpt>
      <trkpt lat="42.35163903795182704925537109375" lon="-3.79188406281173229217529296875">
        <ele>823</ele>
        <time>2019-07-08T10:27:58.000Z</time>
      </trkpt>
      <trkpt lat="42.3514796979725360870361328125" lon="-3.791927397251129150390625">
        <ele>824.79998779296875</ele>
        <time>2019-07-08T10:27:59.000Z</time>
      </trkpt>
      <trkpt lat="42.35132924281060695648193359375" lon="-3.79197089932858943939208984375">
        <ele>826.20001220703125</ele>
        <time>2019-07-08T10:28:00.000Z</time>
      </trkpt>
      <trkpt lat="42.350748293101787567138671875" lon="-3.792142979800701141357421875">
        <ele>826.5999755859375</ele>
        <time>2019-07-08T10:28:04.000Z</time>
      </trkpt>
      <trkpt lat="42.350476048886775970458984375" lon="-3.79226610995829105377197265625">
        <ele>825.4000244140625</ele>
        <time>2019-07-08T10:28:06.000Z</time>
      </trkpt>
      <trkpt lat="42.35035677440464496612548828125" lon="-3.79235127009451389312744140625">
        <ele>824.5999755859375</ele>
        <time>2019-07-08T10:28:07.000Z</time>
      </trkpt>
      <trkpt lat="42.35025133006274700164794921875" lon="-3.79244732670485973358154296875">
        <ele>824</ele>
        <time>2019-07-08T10:28:08.000Z</time>
      </trkpt>
      <trkpt lat="42.3501563630998134613037109375" lon="-3.79255444742739200592041015625">
        <ele>823.5999755859375</ele>
        <time>2019-07-08T10:28:09.000Z</time>
      </trkpt>
      <trkpt lat="42.34984078444540500640869140625" lon="-3.79302249290049076080322265625">
        <ele>824.4000244140625</ele>
        <time>2019-07-08T10:28:13.000Z</time>
      </trkpt>
      <trkpt lat="42.349771298468112945556640625" lon="-3.79313430748879909515380859375">
        <ele>824.79998779296875</ele>
        <time>2019-07-08T10:28:14.000Z</time>
      </trkpt>
      <trkpt lat="42.3497107811272144317626953125" lon="-3.79324830137193202972412109375">
        <ele>825</ele>
        <time>2019-07-08T10:28:15.000Z</time>
      </trkpt>
      <trkpt lat="42.34964213334023952484130859375" lon="-3.79348316229879856109619140625">
        <ele>825.4000244140625</ele>
        <time>2019-07-08T10:28:17.000Z</time>
      </trkpt>
      <trkpt lat="42.349634505808353424072265625" lon="-3.79359363578259944915771484375">
        <ele>825.79998779296875</ele>
        <time>2019-07-08T10:28:18.000Z</time>
      </trkpt>
      <trkpt lat="42.349639870226383209228515625" lon="-3.7937072105705738067626953125">
        <ele>826</ele>
        <time>2019-07-08T10:28:19.000Z</time>
      </trkpt>
      <trkpt lat="42.34969250857830047607421875" lon="-3.793941400945186614990234375">
        <ele>826.79998779296875</ele>
        <time>2019-07-08T10:28:21.000Z</time>
      </trkpt>
      <trkpt lat="42.34974749386310577392578125" lon="-3.79405438899993896484375">
        <ele>827</ele>
        <time>2019-07-08T10:28:22.000Z</time>
      </trkpt>
      <trkpt lat="42.34982586465775966644287109375" lon="-3.7941584922373294830322265625">
        <ele>827.20001220703125</ele>
        <time>2019-07-08T10:28:23.000Z</time>
      </trkpt>
      <trkpt lat="42.35026356764137744903564453125" lon="-3.7945621646940708160400390625">
        <ele>827</ele>
        <time>2019-07-08T10:28:27.000Z</time>
      </trkpt>
      <trkpt lat="42.3506629653275012969970703125" lon="-3.79495888017117977142333984375">
        <ele>826.20001220703125</ele>
        <time>2019-07-08T10:28:30.000Z</time>
      </trkpt>
      <trkpt lat="42.35108801163733005523681640625" lon="-3.7953607924282550811767578125">
        <ele>828.4000244140625</ele>
        <time>2019-07-08T10:28:33.000Z</time>
      </trkpt>
      <trkpt lat="42.35123804770410060882568359375" lon="-3.7954835034906864166259765625">
        <ele>830</ele>
        <time>2019-07-08T10:28:34.000Z</time>
      </trkpt>
      <trkpt lat="42.3515648581087589263916015625" lon="-3.79572381265461444854736328125">
        <ele>831.4000244140625</ele>
        <time>2019-07-08T10:28:36.000Z</time>
      </trkpt>
      <trkpt lat="42.35210716724395751953125" lon="-3.796093873679637908935546875">
        <ele>831.79998779296875</ele>
        <time>2019-07-08T10:28:39.000Z</time>
      </trkpt>
      <trkpt lat="42.35266305506229400634765625" lon="-3.7964591570198535919189453125">
        <ele>832.4000244140625</ele>
        <time>2019-07-08T10:28:42.000Z</time>
      </trkpt>
      <trkpt lat="42.352847121655941009521484375" lon="-3.79658329300582408905029296875">
        <ele>833.4000244140625</ele>
        <time>2019-07-08T10:28:43.000Z</time>
      </trkpt>
      <trkpt lat="42.35303345136344432830810546875" lon="-3.79670885391533374786376953125">
        <ele>835.4000244140625</ele>
        <time>2019-07-08T10:28:44.000Z</time>
      </trkpt>
      <trkpt lat="42.35322388820350170135498046875" lon="-3.7968360073864459991455078125">
        <ele>837.20001220703125</ele>
        <time>2019-07-08T10:28:45.000Z</time>
      </trkpt>
      <trkpt lat="42.3538108728826045989990234375" lon="-3.79724076949059963226318359375">
        <ele>838</ele>
        <time>2019-07-08T10:28:48.000Z</time>
      </trkpt>
      <trkpt lat="42.35422468744218349456787109375" lon="-3.79753866232931613922119140625">
        <ele>837.79998779296875</ele>
        <time>2019-07-08T10:28:50.000Z</time>
      </trkpt>
      <trkpt lat="42.35465048812329769134521484375" lon="-3.79786103032529354095458984375">
        <ele>836</ele>
        <time>2019-07-08T10:28:52.000Z</time>
      </trkpt>
      <trkpt lat="42.3550631292164325714111328125" lon="-3.7981916964054107666015625">
        <ele>836</ele>
        <time>2019-07-08T10:28:54.000Z</time>
      </trkpt>
      <trkpt lat="42.35546504147350788116455078125" lon="-3.7985388748347759246826171875">
        <ele>837.4000244140625</ele>
        <time>2019-07-08T10:28:56.000Z</time>
      </trkpt>
      <trkpt lat="42.35566536895930767059326171875" lon="-3.798713050782680511474609375">
        <ele>839.20001220703125</ele>
        <time>2019-07-08T10:28:57.000Z</time>
      </trkpt>
      <trkpt lat="42.35606820322573184967041015625" lon="-3.799060396850109100341796875">
        <ele>841</ele>
        <time>2019-07-08T10:28:59.000Z</time>
      </trkpt>
      <trkpt lat="42.356267273426055908203125" lon="-3.7992404401302337646484375">
        <ele>842.5999755859375</ele>
        <time>2019-07-08T10:29:00.000Z</time>
      </trkpt>
      <trkpt lat="42.35646449960768222808837890625" lon="-3.79941771738231182098388671875">
        <ele>844</ele>
        <time>2019-07-08T10:29:01.000Z</time>
      </trkpt>
      <trkpt lat="42.35666147433221340179443359375" lon="-3.79959759302437305450439453125">
        <ele>845.4000244140625</ele>
        <time>2019-07-08T10:29:02.000Z</time>
      </trkpt>
      <trkpt lat="42.35685124062001705169677734375" lon="-3.79987101070582866668701171875">
        <ele>846.20001220703125</ele>
        <time>2019-07-08T10:29:03.000Z</time>
      </trkpt>
      <trkpt lat="42.3570303618907928466796875" lon="-3.8001148402690887451171875">
        <ele>846.5999755859375</ele>
        <time>2019-07-08T10:29:04.000Z</time>
      </trkpt>
      <trkpt lat="42.357398159801959991455078125" lon="-3.8005683012306690216064453125">
        <ele>846.79998779296875</ele>
        <time>2019-07-08T10:29:06.000Z</time>
      </trkpt>
      <trkpt lat="42.3577545583248138427734375" lon="-3.80105939693748950958251953125">
        <ele>847</ele>
        <time>2019-07-08T10:29:08.000Z</time>
      </trkpt>
      <trkpt lat="42.35810198821127414703369140625" lon="-3.8015821762382984161376953125">
        <ele>846.20001220703125</ele>
        <time>2019-07-08T10:29:10.000Z</time>
      </trkpt>
      <trkpt lat="42.358426786959171295166015625" lon="-3.80211484618484973907470703125">
        <ele>845.4000244140625</ele>
        <time>2019-07-08T10:29:12.000Z</time>
      </trkpt>
      <trkpt lat="42.35872208140790462493896484375" lon="-3.80267123691737651824951171875">
        <ele>844.20001220703125</ele>
        <time>2019-07-08T10:29:14.000Z</time>
      </trkpt>
      <trkpt lat="42.3588641546666622161865234375" lon="-3.80295538343489170074462890625">
        <ele>842.4000244140625</ele>
        <time>2019-07-08T10:29:15.000Z</time>
      </trkpt>
      <trkpt lat="42.35900220461189746856689453125" lon="-3.80324958823621273040771484375">
        <ele>840.20001220703125</ele>
        <time>2019-07-08T10:29:16.000Z</time>
      </trkpt>
      <trkpt lat="42.3591394163668155670166015625" lon="-3.80355276167392730712890625">
        <ele>838</ele>
        <time>2019-07-08T10:29:17.000Z</time>
      </trkpt>
      <trkpt lat="42.35927562229335308074951171875" lon="-3.803863227367401123046875">
        <ele>837</ele>
        <time>2019-07-08T10:29:18.000Z</time>
      </trkpt>
      <trkpt lat="42.3595390655100345611572265625" lon="-3.80451709963381290435791015625">
        <ele>836.20001220703125</ele>
        <time>2019-07-08T10:29:20.000Z</time>
      </trkpt>
      <trkpt lat="42.35978641547262668609619140625" lon="-3.805190585553646087646484375">
        <ele>839</ele>
        <time>2019-07-08T10:29:22.000Z</time>
      </trkpt>
      <trkpt lat="42.35990007407963275909423828125" lon="-3.80553533323109149932861328125">
        <ele>840.5999755859375</ele>
        <time>2019-07-08T10:29:23.000Z</time>
      </trkpt>
      <trkpt lat="42.36001088283956050872802734375" lon="-3.8058827631175518035888671875">
        <ele>841.79998779296875</ele>
        <time>2019-07-08T10:29:24.000Z</time>
      </trkpt>
      <trkpt lat="42.3601177521049976348876953125" lon="-3.80623538978397846221923828125">
        <ele>843</ele>
        <time>2019-07-08T10:29:25.000Z</time>
      </trkpt>
      <trkpt lat="42.3603098653256893157958984375" lon="-3.806965537369251251220703125">
        <ele>844</ele>
        <time>2019-07-08T10:29:27.000Z</time>
      </trkpt>
      <trkpt lat="42.360472641885280609130859375" lon="-3.80772803910076618194580078125">
        <ele>843.5999755859375</ele>
        <time>2019-07-08T10:29:29.000Z</time>
      </trkpt>
      <trkpt lat="42.36061354167759418487548828125" lon="-3.80851342342793941497802734375">
        <ele>842.5999755859375</ele>
        <time>2019-07-08T10:29:31.000Z</time>
      </trkpt>
      <trkpt lat="42.36073072068393230438232421875" lon="-3.80930685438215732574462890625">
        <ele>840</ele>
        <time>2019-07-08T10:29:33.000Z</time>
      </trkpt>
      <trkpt lat="42.360779084265232086181640625" lon="-3.809705413877964019775390625">
        <ele>835.5999755859375</ele>
        <time>2019-07-08T10:29:34.000Z</time>
      </trkpt>
      <trkpt lat="42.36081940121948719024658203125" lon="-3.81010447628796100616455078125">
        <ele>831.5999755859375</ele>
        <time>2019-07-08T10:29:35.000Z</time>
      </trkpt>
      <trkpt lat="42.36085242591798305511474609375" lon="-3.81050529889762401580810546875">
        <ele>826.5999755859375</ele>
        <time>2019-07-08T10:29:36.000Z</time>
      </trkpt>
      <trkpt lat="42.3608784936368465423583984375" lon="-3.81090561859309673309326171875">
        <ele>822</ele>
        <time>2019-07-08T10:29:37.000Z</time>
      </trkpt>
      <trkpt lat="42.36090607009828090667724609375" lon="-3.8117031566798686981201171875">
        <ele>820.79998779296875</ele>
        <time>2019-07-08T10:29:39.000Z</time>
      </trkpt>
      <trkpt lat="42.3609046451747417449951171875" lon="-3.812490887939929962158203125">
        <ele>820.4000244140625</ele>
        <time>2019-07-08T10:29:41.000Z</time>
      </trkpt>
      <trkpt lat="42.3608885519206523895263671875" lon="-3.81327417679131031036376953125">
        <ele>821.4000244140625</ele>
        <time>2019-07-08T10:29:43.000Z</time>
      </trkpt>
      <trkpt lat="42.36087723635137081146240234375" lon="-3.81366762332618236541748046875">
        <ele>822.20001220703125</ele>
        <time>2019-07-08T10:29:44.000Z</time>
      </trkpt>
      <trkpt lat="42.3608406074345111846923828125" lon="-3.814470358192920684814453125">
        <ele>822.4000244140625</ele>
        <time>2019-07-08T10:29:46.000Z</time>
      </trkpt>
      <trkpt lat="42.360791824758052825927734375" lon="-3.81528717465698719024658203125">
        <ele>822.4000244140625</ele>
        <time>2019-07-08T10:29:48.000Z</time>
      </trkpt>
      <trkpt lat="42.360736168920993804931640625" lon="-3.816120922565460205078125">
        <ele>821.4000244140625</ele>
        <time>2019-07-08T10:29:50.000Z</time>
      </trkpt>
      <trkpt lat="42.36070699989795684814453125" lon="-3.81654462777078151702880859375">
        <ele>820.79998779296875</ele>
        <time>2019-07-08T10:29:51.000Z</time>
      </trkpt>
      <trkpt lat="42.3606481589376926422119140625" lon="-3.81739555858075618743896484375">
        <ele>821.4000244140625</ele>
        <time>2019-07-08T10:29:53.000Z</time>
      </trkpt>
      <trkpt lat="42.3605918325483798980712890625" lon="-3.81824833340942859649658203125">
        <ele>820.79998779296875</ele>
        <time>2019-07-08T10:29:55.000Z</time>
      </trkpt>
      <trkpt lat="42.36053894273936748504638671875" lon="-3.81910420954227447509765625">
        <ele>819.5999755859375</ele>
        <time>2019-07-08T10:29:57.000Z</time>
      </trkpt>
      <trkpt lat="42.3604872263967990875244140625" lon="-3.81995522417128086090087890625">
        <ele>819</ele>
        <time>2019-07-08T10:29:59.000Z</time>
      </trkpt>
      <trkpt lat="42.36046400852501392364501953125" lon="-3.82037582807242870330810546875">
        <ele>818.20001220703125</ele>
        <time>2019-07-08T10:30:00.000Z</time>
      </trkpt>
      <trkpt lat="42.36042880453169345855712890625" lon="-3.821212090551853179931640625">
        <ele>818.5999755859375</ele>
        <time>2019-07-08T10:30:02.000Z</time>
      </trkpt>
      <trkpt lat="42.3604054190218448638916015625" lon="-3.82204416207969188690185546875">
        <ele>819.5999755859375</ele>
        <time>2019-07-08T10:30:04.000Z</time>
      </trkpt>
      <trkpt lat="42.36039494164288043975830078125" lon="-3.822458647191524505615234375">
        <ele>821</ele>
        <time>2019-07-08T10:30:05.000Z</time>
      </trkpt>
      <trkpt lat="42.36038513481616973876953125" lon="-3.8228715397417545318603515625">
        <ele>822.5999755859375</ele>
        <time>2019-07-08T10:30:06.000Z</time>
      </trkpt>
      <trkpt lat="42.36038018949329853057861328125" lon="-3.8232837617397308349609375">
        <ele>823.79998779296875</ele>
        <time>2019-07-08T10:30:07.000Z</time>
      </trkpt>
      <trkpt lat="42.36038387753069400787353515625" lon="-3.8241112232208251953125">
        <ele>823.5999755859375</ele>
        <time>2019-07-08T10:30:09.000Z</time>
      </trkpt>
      <trkpt lat="42.3603967018425464630126953125" lon="-3.82494178600609302520751953125">
        <ele>823.20001220703125</ele>
        <time>2019-07-08T10:30:11.000Z</time>
      </trkpt>
      <trkpt lat="42.3604074306786060333251953125" lon="-3.825358115136623382568359375">
        <ele>822.5999755859375</ele>
        <time>2019-07-08T10:30:12.000Z</time>
      </trkpt>
      <trkpt lat="42.36042209900915622711181640625" lon="-3.825774528086185455322265625">
        <ele>821.4000244140625</ele>
        <time>2019-07-08T10:30:13.000Z</time>
      </trkpt>
      <trkpt lat="42.360440455377101898193359375" lon="-3.82619194686412811279296875">
        <ele>819.5999755859375</ele>
        <time>2019-07-08T10:30:14.000Z</time>
      </trkpt>
      <trkpt lat="42.36049066297709941864013671875" lon="-3.82702670060098171234130859375">
        <ele>818.4000244140625</ele>
        <time>2019-07-08T10:30:16.000Z</time>
      </trkpt>
      <trkpt lat="42.36052419058978557586669921875" lon="-3.82744579575955867767333984375">
        <ele>817</ele>
        <time>2019-07-08T10:30:17.000Z</time>
      </trkpt>
      <trkpt lat="42.360606752336025238037109375" lon="-3.82829354144632816314697265625">
        <ele>817.5999755859375</ele>
        <time>2019-07-08T10:30:19.000Z</time>
      </trkpt>
      <trkpt lat="42.3607111908495426177978515625" lon="-3.82915168069303035736083984375">
        <ele>818.5999755859375</ele>
        <time>2019-07-08T10:30:21.000Z</time>
      </trkpt>
      <trkpt lat="42.36083348281681537628173828125" lon="-3.83001049049198627471923828125">
        <ele>818</ele>
        <time>2019-07-08T10:30:23.000Z</time>
      </trkpt>
      <trkpt lat="42.36096843145787715911865234375" lon="-3.83084884844720363616943359375">
        <ele>818.20001220703125</ele>
        <time>2019-07-08T10:30:25.000Z</time>
      </trkpt>
      <trkpt lat="42.36111813224852085113525390625" lon="-3.83167329244315624237060546875">
        <ele>818.5999755859375</ele>
        <time>2019-07-08T10:30:27.000Z</time>
      </trkpt>
      <trkpt lat="42.361282669007778167724609375" lon="-3.832494802772998809814453125">
        <ele>819.5999755859375</ele>
        <time>2019-07-08T10:30:29.000Z</time>
      </trkpt>
      <trkpt lat="42.36137394793331623077392578125" lon="-3.8329053483903408050537109375">
        <ele>820.20001220703125</ele>
        <time>2019-07-08T10:30:30.000Z</time>
      </trkpt>
      <trkpt lat="42.361571677029132843017578125" lon="-3.8337247632443904876708984375">
        <ele>820.79998779296875</ele>
        <time>2019-07-08T10:30:32.000Z</time>
      </trkpt>
      <trkpt lat="42.3617870919406414031982421875" lon="-3.834540657699108123779296875">
        <ele>820.79998779296875</ele>
        <time>2019-07-08T10:30:34.000Z</time>
      </trkpt>
      <trkpt lat="42.36201533116400241851806640625" lon="-3.83534842170774936676025390625">
        <ele>819.5999755859375</ele>
        <time>2019-07-08T10:30:36.000Z</time>
      </trkpt>
      <trkpt lat="42.3621324263513088226318359375" lon="-3.83574840612709522247314453125">
        <ele>819</ele>
        <time>2019-07-08T10:30:37.000Z</time>
      </trkpt>
      <trkpt lat="42.36225253902375698089599609375" lon="-3.836143948137760162353515625">
        <ele>817.79998779296875</ele>
        <time>2019-07-08T10:30:38.000Z</time>
      </trkpt>
      <trkpt lat="42.36250399611890316009521484375" lon="-3.8369147479534149169921875">
        <ele>817.79998779296875</ele>
        <time>2019-07-08T10:30:40.000Z</time>
      </trkpt>
      <trkpt lat="42.36276450566947460174560546875" lon="-3.83764171041548252105712890625">
        <ele>818.20001220703125</ele>
        <time>2019-07-08T10:30:42.000Z</time>
      </trkpt>
      <trkpt lat="42.36302568577229976654052734375" lon="-3.8383012823760509490966796875">
        <ele>818.5999755859375</ele>
        <time>2019-07-08T10:30:44.000Z</time>
      </trkpt>
      <trkpt lat="42.363154850900173187255859375" lon="-3.83860227651894092559814453125">
        <ele>819</ele>
        <time>2019-07-08T10:30:45.000Z</time>
      </trkpt>
      <trkpt lat="42.36340488307178020477294921875" lon="-3.839157409965991973876953125">
        <ele>819.20001220703125</ele>
        <time>2019-07-08T10:30:47.000Z</time>
      </trkpt>
      <trkpt lat="42.3637538217008113861083984375" lon="-3.8399169780313968658447265625">
        <ele>820.20001220703125</ele>
        <time>2019-07-08T10:30:50.000Z</time>
      </trkpt>
      <trkpt lat="42.36385859549045562744140625" lon="-3.84014605544507503509521484375">
        <ele>821.4000244140625</ele>
        <time>2019-07-08T10:30:51.000Z</time>
      </trkpt>
      <trkpt lat="42.3639573343098163604736328125" lon="-3.84035778231918811798095703125">
        <ele>822.5999755859375</ele>
        <time>2019-07-08T10:30:52.000Z</time>
      </trkpt>
      <trkpt lat="42.36404995433986186981201171875" lon="-3.8405506499111652374267578125">
        <ele>824</ele>
        <time>2019-07-08T10:30:53.000Z</time>
      </trkpt>
      <trkpt lat="42.364139221608638763427734375" lon="-3.84072490967810153961181640625">
        <ele>825.4000244140625</ele>
        <time>2019-07-08T10:30:54.000Z</time>
      </trkpt>
      <trkpt lat="42.3642279021441936492919921875" lon="-3.8408839143812656402587890625">
        <ele>826.79998779296875</ele>
        <time>2019-07-08T10:30:55.000Z</time>
      </trkpt>
      <trkpt lat="42.3643207736313343048095703125" lon="-3.841023556888103485107421875">
        <ele>828.4000244140625</ele>
        <time>2019-07-08T10:30:56.000Z</time>
      </trkpt>
      <trkpt lat="42.36442211084067821502685546875" lon="-3.84114601649343967437744140625">
        <ele>830.20001220703125</ele>
        <time>2019-07-08T10:30:57.000Z</time>
      </trkpt>
      <trkpt lat="42.3645363561809062957763671875" lon="-3.84124986827373504638671875">
        <ele>831.5999755859375</ele>
        <time>2019-07-08T10:30:58.000Z</time>
      </trkpt>
      <trkpt lat="42.36479829065501689910888671875" lon="-3.84138842113316059112548828125">
        <ele>832.79998779296875</ele>
        <time>2019-07-08T10:31:00.000Z</time>
      </trkpt>
      <trkpt lat="42.36537630669772624969482421875" lon="-3.84140904061496257781982421875">
        <ele>833.79998779296875</ele>
        <time>2019-07-08T10:31:04.000Z</time>
      </trkpt>
      <trkpt lat="42.3655019514262676239013671875" lon="-3.8414398021996021270751953125">
        <ele>834.20001220703125</ele>
        <time>2019-07-08T10:31:05.000Z</time>
      </trkpt>
      <trkpt lat="42.36561971716582775115966796875" lon="-3.84150140918791294097900390625">
        <ele>835</ele>
        <time>2019-07-08T10:31:06.000Z</time>
      </trkpt>
      <trkpt lat="42.36572247929871082305908203125" lon="-3.84159293957054615020751953125">
        <ele>835.79998779296875</ele>
        <time>2019-07-08T10:31:07.000Z</time>
      </trkpt>
      <trkpt lat="42.36579908989369869232177734375" lon="-3.84172805584967136383056640625">
        <ele>837</ele>
        <time>2019-07-08T10:31:08.000Z</time>
      </trkpt>
      <trkpt lat="42.36587502993643283843994140625" lon="-3.84205662645399570465087890625">
        <ele>838.5999755859375</ele>
        <time>2019-07-08T10:31:10.000Z</time>
      </trkpt>
      <trkpt lat="42.3658878542482852935791015625" lon="-3.8422183133661746978759765625">
        <ele>840</ele>
        <time>2019-07-08T10:31:11.000Z</time>
      </trkpt>
      <trkpt lat="42.3659002594649791717529296875" lon="-3.84235418401658535003662109375">
        <ele>841.20001220703125</ele>
        <time>2019-07-08T10:31:12.000Z</time>
      </trkpt>
      <trkpt lat="42.36591928638517856597900390625" lon="-3.842465244233608245849609375">
        <ele>842</ele>
        <time>2019-07-08T10:31:13.000Z</time>
      </trkpt>
      <trkpt lat="42.36594527028501033782958984375" lon="-3.84255551733076572418212890625">
        <ele>843</ele>
        <time>2019-07-08T10:31:14.000Z</time>
      </trkpt>
      <trkpt lat="42.36598298884928226470947265625" lon="-3.842627517879009246826171875">
        <ele>843.79998779296875</ele>
        <time>2019-07-08T10:31:15.000Z</time>
      </trkpt>
      <trkpt lat="42.366032861173152923583984375" lon="-3.8426806591451168060302734375">
        <ele>844.5999755859375</ele>
        <time>2019-07-08T10:31:16.000Z</time>
      </trkpt>
      <trkpt lat="42.366092205047607421875" lon="-3.842706978321075439453125">
        <ele>845.20001220703125</ele>
        <time>2019-07-08T10:31:17.000Z</time>
      </trkpt>
      <trkpt lat="42.366227321326732635498046875" lon="-3.842683173716068267822265625">
        <ele>845.79998779296875</ele>
        <time>2019-07-08T10:31:19.000Z</time>
      </trkpt>
      <trkpt lat="42.366674244403839111328125" lon="-3.84227556176483631134033203125">
        <ele>844.5999755859375</ele>
        <time>2019-07-08T10:31:24.000Z</time>
      </trkpt>
      <trkpt lat="42.3671102710068225860595703125" lon="-3.84195931255817413330078125">
        <ele>843.4000244140625</ele>
        <time>2019-07-08T10:31:28.000Z</time>
      </trkpt>
      <trkpt lat="42.36735762096941471099853515625" lon="-3.84183014743030071258544921875">
        <ele>842.4000244140625</ele>
        <time>2019-07-08T10:31:30.000Z</time>
      </trkpt>
      <trkpt lat="42.36762952990829944610595703125" lon="-3.84173375554382801055908203125">
        <ele>841</ele>
        <time>2019-07-08T10:31:32.000Z</time>
      </trkpt>
      <trkpt lat="42.3679015226662158966064453125" lon="-3.8416808657348155975341796875">
        <ele>839.20001220703125</ele>
        <time>2019-07-08T10:31:34.000Z</time>
      </trkpt>
      <trkpt lat="42.368018366396427154541015625" lon="-3.84167089127004146575927734375">
        <ele>838</ele>
        <time>2019-07-08T10:31:35.000Z</time>
      </trkpt>
      <trkpt lat="42.36811928451061248779296875" lon="-3.841669298708438873291015625">
        <ele>836.5999755859375</ele>
        <time>2019-07-08T10:31:36.000Z</time>
      </trkpt>
      <trkpt lat="42.3682766966521739959716796875" lon="-3.841673322021961212158203125">
        <ele>835.5999755859375</ele>
        <time>2019-07-08T10:31:38.000Z</time>
      </trkpt>
      <trkpt lat="42.368328832089900970458984375" lon="-3.84166653268039226531982421875">
        <ele>836</ele>
        <time>2019-07-08T10:31:39.000Z</time>
      </trkpt>
      <trkpt lat="42.36838641576468944549560546875" lon="-3.8416258804500102996826171875">
        <ele>837.20001220703125</ele>
        <time>2019-07-08T10:31:41.000Z</time>
      </trkpt>
      <trkpt lat="42.36840452067553997039794921875" lon="-3.8415786065161228179931640625">
        <ele>838.20001220703125</ele>
        <time>2019-07-08T10:31:48.000Z</time>
      </trkpt>
      <trkpt lat="42.3684614337980747222900390625" lon="-3.84166334755718708038330078125">
        <ele>839</ele>
        <time>2019-07-08T10:31:54.000Z</time>
      </trkpt>
      <trkpt lat="42.36844676546752452850341796875" lon="-3.84167457930743694305419921875">
        <ele>839.4000244140625</ele>
        <time>2019-07-08T10:32:05.000Z</time>
      </trkpt>
      <trkpt lat="42.368443496525287628173828125" lon="-3.841675333678722381591796875">
        <ele>839.4000244140625</ele>
        <time>2019-07-08T10:34:46.000Z</time>
      </trkpt>
      <trkpt lat="42.3683407343924045562744140625" lon="-3.84174951352179050445556640625">
        <ele>839</ele>
        <time>2019-07-08T10:36:26.000Z</time>
      </trkpt>
      <trkpt lat="42.36795072443783283233642578125" lon="-3.8417254574596881866455078125">
        <ele>840.4000244140625</ele>
        <time>2019-07-08T10:36:30.000Z</time>
      </trkpt>
      <trkpt lat="42.3674418590962886810302734375" lon="-3.8418454863131046295166015625">
        <ele>841.5999755859375</ele>
        <time>2019-07-08T10:36:34.000Z</time>
      </trkpt>
      <trkpt lat="42.3671847023069858551025390625" lon="-3.84196492843329906463623046875">
        <ele>843</ele>
        <time>2019-07-08T10:36:36.000Z</time>
      </trkpt>
      <trkpt lat="42.36692058853805065155029296875" lon="-3.84212586097419261932373046875">
        <ele>844.4000244140625</ele>
        <time>2019-07-08T10:36:38.000Z</time>
      </trkpt>
      <trkpt lat="42.36667566932737827301025390625" lon="-3.8423256017267704010009765625">
        <ele>845.5999755859375</ele>
        <time>2019-07-08T10:36:40.000Z</time>
      </trkpt>
      <trkpt lat="42.36657341010868549346923828125" lon="-3.84241855703294277191162109375">
        <ele>846.20001220703125</ele>
        <time>2019-07-08T10:36:41.000Z</time>
      </trkpt>
      <trkpt lat="42.36648221500217914581298828125" lon="-3.84250053204596042633056640625">
        <ele>846.5999755859375</ele>
        <time>2019-07-08T10:36:42.000Z</time>
      </trkpt>
      <trkpt lat="42.36617007292807102203369140625" lon="-3.84278467856347560882568359375">
        <ele>847.20001220703125</ele>
        <time>2019-07-08T10:36:48.000Z</time>
      </trkpt>
      <trkpt lat="42.3660715855658054351806640625" lon="-3.84280378930270671844482421875">
        <ele>847</ele>
        <time>2019-07-08T10:36:50.000Z</time>
      </trkpt>
      <trkpt lat="42.365962453186511993408203125" lon="-3.84270421229302883148193359375">
        <ele>847</ele>
        <time>2019-07-08T10:36:52.000Z</time>
      </trkpt>
      <trkpt lat="42.365892715752124786376953125" lon="-3.84249332360923290252685546875">
        <ele>847</ele>
        <time>2019-07-08T10:36:54.000Z</time>
      </trkpt>
      <trkpt lat="42.3657654784619808197021484375" lon="-3.84180701337754726409912109375">
        <ele>846.79998779296875</ele>
        <time>2019-07-08T10:36:59.000Z</time>
      </trkpt>
      <trkpt lat="42.365649640560150146484375" lon="-3.841562680900096893310546875">
        <ele>846.4000244140625</ele>
        <time>2019-07-08T10:37:01.000Z</time>
      </trkpt>
      <trkpt lat="42.36545224674046039581298828125" lon="-3.84140686132013797760009765625">
        <ele>844.5999755859375</ele>
        <time>2019-07-08T10:37:03.000Z</time>
      </trkpt>
      <trkpt lat="42.3653309606015682220458984375" lon="-3.8413846492767333984375">
        <ele>843.4000244140625</ele>
        <time>2019-07-08T10:37:04.000Z</time>
      </trkpt>
      <trkpt lat="42.36520615406334400177001953125" lon="-3.841411136090755462646484375">
        <ele>842.5999755859375</ele>
        <time>2019-07-08T10:37:05.000Z</time>
      </trkpt>
      <trkpt lat="42.36509065143764019012451171875" lon="-3.8414860703051090240478515625">
        <ele>841.5999755859375</ele>
        <time>2019-07-08T10:37:06.000Z</time>
      </trkpt>
      <trkpt lat="42.36499459482729434967041015625" lon="-3.841601908206939697265625">
        <ele>841</ele>
        <time>2019-07-08T10:37:07.000Z</time>
      </trkpt>
      <trkpt lat="42.36492955125868320465087890625" lon="-3.8417516089975833892822265625">
        <ele>840</ele>
        <time>2019-07-08T10:37:08.000Z</time>
      </trkpt>
      <trkpt lat="42.364904992282390594482421875" lon="-3.841931484639644622802734375">
        <ele>839.20001220703125</ele>
        <time>2019-07-08T10:37:09.000Z</time>
      </trkpt>
      <trkpt lat="42.36492653377354145050048828125" lon="-3.8421182334423065185546875">
        <ele>838.4000244140625</ele>
        <time>2019-07-08T10:37:10.000Z</time>
      </trkpt>
      <trkpt lat="42.3649876378476619720458984375" lon="-3.842304982244968414306640625">
        <ele>837.5999755859375</ele>
        <time>2019-07-08T10:37:11.000Z</time>
      </trkpt>
      <trkpt lat="42.3650764860212802886962890625" lon="-3.84248980320990085601806640625">
        <ele>837.20001220703125</ele>
        <time>2019-07-08T10:37:12.000Z</time>
      </trkpt>
      <trkpt lat="42.36540279351174831390380859375" lon="-3.843081481754779815673828125">
        <ele>836.20001220703125</ele>
        <time>2019-07-08T10:37:15.000Z</time>
      </trkpt>
      <trkpt lat="42.36574276350438594818115234375" lon="-3.84372822940349578857421875">
        <ele>836.20001220703125</ele>
        <time>2019-07-08T10:37:18.000Z</time>
      </trkpt>
      <trkpt lat="42.3659782111644744873046875" lon="-3.84413416497409343719482421875">
        <ele>837.4000244140625</ele>
        <time>2019-07-08T10:37:20.000Z</time>
      </trkpt>
      <trkpt lat="42.366103269159793853759765625" lon="-3.84433901868760585784912109375">
        <ele>838.5999755859375</ele>
        <time>2019-07-08T10:37:21.000Z</time>
      </trkpt>
      <trkpt lat="42.3665057681500911712646484375" lon="-3.84502314962446689605712890625">
        <ele>839.4000244140625</ele>
        <time>2019-07-08T10:37:24.000Z</time>
      </trkpt>
      <trkpt lat="42.36679418943822383880615234375" lon="-3.8455365411937236785888671875">
        <ele>839</ele>
        <time>2019-07-08T10:37:26.000Z</time>
      </trkpt>
      <trkpt lat="42.36711320467293262481689453125" lon="-3.84607859887182712554931640625">
        <ele>838.5999755859375</ele>
        <time>2019-07-08T10:37:28.000Z</time>
      </trkpt>
      <trkpt lat="42.36745233647525310516357421875" lon="-3.84664806537330150604248046875">
        <ele>838</ele>
        <time>2019-07-08T10:37:30.000Z</time>
      </trkpt>
      <trkpt lat="42.36762265674769878387451171875" lon="-3.84693958796560764312744140625">
        <ele>836.79998779296875</ele>
        <time>2019-07-08T10:37:31.000Z</time>
      </trkpt>
      <trkpt lat="42.36779381521046161651611328125" lon="-3.84723396040499210357666015625">
        <ele>834.79998779296875</ele>
        <time>2019-07-08T10:37:32.000Z</time>
      </trkpt>
      <trkpt lat="42.36796011216938495635986328125" lon="-3.84753017686307430267333984375">
        <ele>833.79998779296875</ele>
        <time>2019-07-08T10:37:33.000Z</time>
      </trkpt>
      <trkpt lat="42.3681197874248027801513671875" lon="-3.84782270528376102447509765625">
        <ele>832.79998779296875</ele>
        <time>2019-07-08T10:37:34.000Z</time>
      </trkpt>
      <trkpt lat="42.36842748709022998809814453125" lon="-3.848393596708774566650390625">
        <ele>832.79998779296875</ele>
        <time>2019-07-08T10:37:36.000Z</time>
      </trkpt>
      <trkpt lat="42.36872554756700992584228515625" lon="-3.84895493276417255401611328125">
        <ele>834.5999755859375</ele>
        <time>2019-07-08T10:37:38.000Z</time>
      </trkpt>
      <trkpt lat="42.36887340433895587921142578125" lon="-3.84923438541591167449951171875">
        <ele>836.20001220703125</ele>
        <time>2019-07-08T10:37:39.000Z</time>
      </trkpt>
      <trkpt lat="42.36916140653192996978759765625" lon="-3.8498032651841640472412109375">
        <ele>836.5999755859375</ele>
        <time>2019-07-08T10:37:41.000Z</time>
      </trkpt>
      <trkpt lat="42.3693026416003704071044921875" lon="-3.8500966317951679229736328125">
        <ele>837.79998779296875</ele>
        <time>2019-07-08T10:37:42.000Z</time>
      </trkpt>
      <trkpt lat="42.36944387666881084442138671875" lon="-3.85039511136710643768310546875">
        <ele>839</ele>
        <time>2019-07-08T10:37:43.000Z</time>
      </trkpt>
      <trkpt lat="42.36972056329250335693359375" lon="-3.8510173000395298004150390625">
        <ele>838.5999755859375</ele>
        <time>2019-07-08T10:37:45.000Z</time>
      </trkpt>
      <trkpt lat="42.369989119470119476318359375" lon="-3.85166580788791179656982421875">
        <ele>838.5999755859375</ele>
        <time>2019-07-08T10:37:47.000Z</time>
      </trkpt>
      <trkpt lat="42.3702461086213588714599609375" lon="-3.85233887471258640289306640625">
        <ele>839.20001220703125</ele>
        <time>2019-07-08T10:37:49.000Z</time>
      </trkpt>
      <trkpt lat="42.37048591487109661102294921875" lon="-3.85303222574293613433837890625">
        <ele>839.4000244140625</ele>
        <time>2019-07-08T10:37:51.000Z</time>
      </trkpt>
      <trkpt lat="42.37070024013519287109375" lon="-3.85375030338764190673828125">
        <ele>839.79998779296875</ele>
        <time>2019-07-08T10:37:53.000Z</time>
      </trkpt>
      <trkpt lat="42.3708988912403583526611328125" lon="-3.854488246142864227294921875">
        <ele>839.20001220703125</ele>
        <time>2019-07-08T10:37:55.000Z</time>
      </trkpt>
      <trkpt lat="42.37107776105403900146484375" lon="-3.85524337179958820343017578125">
        <ele>840.4000244140625</ele>
        <time>2019-07-08T10:37:57.000Z</time>
      </trkpt>
      <trkpt lat="42.371228970587253570556640625" lon="-3.8560088910162448883056640625">
        <ele>842</ele>
        <time>2019-07-08T10:37:59.000Z</time>
      </trkpt>
      <trkpt lat="42.3712935112416744232177734375" lon="-3.85639471001923084259033203125">
        <ele>843.20001220703125</ele>
        <time>2019-07-08T10:38:00.000Z</time>
      </trkpt>
      <trkpt lat="42.37135193310678005218505859375" lon="-3.85678178630769252777099609375">
        <ele>844.5999755859375</ele>
        <time>2019-07-08T10:38:01.000Z</time>
      </trkpt>
      <trkpt lat="42.37140457145869731903076171875" lon="-3.85717070661485195159912109375">
        <ele>846</ele>
        <time>2019-07-08T10:38:02.000Z</time>
      </trkpt>
      <trkpt lat="42.37145100720226764678955078125" lon="-3.857561387121677398681640625">
        <ele>848.20001220703125</ele>
        <time>2019-07-08T10:38:03.000Z</time>
      </trkpt>
      <trkpt lat="42.3714913241565227508544921875" lon="-3.85795391164720058441162109375">
        <ele>849.4000244140625</ele>
        <time>2019-07-08T10:38:04.000Z</time>
      </trkpt>
      <trkpt lat="42.3715250194072723388671875" lon="-3.858346603810787200927734375">
        <ele>851.20001220703125</ele>
        <time>2019-07-08T10:38:05.000Z</time>
      </trkpt>
      <trkpt lat="42.3715526796877384185791015625" lon="-3.85874046944081783294677734375">
        <ele>852.79998779296875</ele>
        <time>2019-07-08T10:38:06.000Z</time>
      </trkpt>
      <trkpt lat="42.3715748079121112823486328125" lon="-3.85913693346083164215087890625">
        <ele>854.20001220703125</ele>
        <time>2019-07-08T10:38:07.000Z</time>
      </trkpt>
      <trkpt lat="42.37159064970910549163818359375" lon="-3.85953582823276519775390625">
        <ele>856</ele>
        <time>2019-07-08T10:38:08.000Z</time>
      </trkpt>
      <trkpt lat="42.37160054035484790802001953125" lon="-3.85993774048984050750732421875">
        <ele>858.20001220703125</ele>
        <time>2019-07-08T10:38:09.000Z</time>
      </trkpt>
      <trkpt lat="42.37160322256386280059814453125" lon="-3.86034191586077213287353515625">
        <ele>859.79998779296875</ele>
        <time>2019-07-08T10:38:10.000Z</time>
      </trkpt>
      <trkpt lat="42.3715982772409915924072265625" lon="-3.86074894107878208160400390625">
        <ele>860.79998779296875</ele>
        <time>2019-07-08T10:38:11.000Z</time>
      </trkpt>
      <trkpt lat="42.37158763222396373748779296875" lon="-3.86115512810647487640380859375">
        <ele>861.79998779296875</ele>
        <time>2019-07-08T10:38:12.000Z</time>
      </trkpt>
      <trkpt lat="42.37156818620860576629638671875" lon="-3.86156450025737285614013671875">
        <ele>863.20001220703125</ele>
        <time>2019-07-08T10:38:13.000Z</time>
      </trkpt>
      <trkpt lat="42.3715080879628658294677734375" lon="-3.86238408274948596954345703125">
        <ele>865.20001220703125</ele>
        <time>2019-07-08T10:38:15.000Z</time>
      </trkpt>
      <trkpt lat="42.37146961502730846405029296875" lon="-3.86279077269136905670166015625">
        <ele>867</ele>
        <time>2019-07-08T10:38:16.000Z</time>
      </trkpt>
      <trkpt lat="42.37142586149275302886962890625" lon="-3.86319645680487155914306640625">
        <ele>868.5999755859375</ele>
        <time>2019-07-08T10:38:17.000Z</time>
      </trkpt>
      <trkpt lat="42.37132829613983631134033203125" lon="-3.86400640010833740234375">
        <ele>868.5999755859375</ele>
        <time>2019-07-08T10:38:19.000Z</time>
      </trkpt>
      <trkpt lat="42.3712140507996082305908203125" lon="-3.864812739193439483642578125">
        <ele>869.20001220703125</ele>
        <time>2019-07-08T10:38:21.000Z</time>
      </trkpt>
      <trkpt lat="42.37108773551881313323974609375" lon="-3.86561161838471889495849609375">
        <ele>869.5999755859375</ele>
        <time>2019-07-08T10:38:23.000Z</time>
      </trkpt>
      <trkpt lat="42.37095303833484649658203125" lon="-3.866407983005046844482421875">
        <ele>870.4000244140625</ele>
        <time>2019-07-08T10:38:25.000Z</time>
      </trkpt>
      <trkpt lat="42.37088288180530071258544921875" lon="-3.8668044470250606536865234375">
        <ele>871.5999755859375</ele>
        <time>2019-07-08T10:38:26.000Z</time>
      </trkpt>
      <trkpt lat="42.37081197090446949005126953125" lon="-3.8672022521495819091796875">
        <ele>872.79998779296875</ele>
        <time>2019-07-08T10:38:27.000Z</time>
      </trkpt>
      <trkpt lat="42.3707396350800991058349609375" lon="-3.86760064400732517242431640625">
        <ele>873.79998779296875</ele>
        <time>2019-07-08T10:38:28.000Z</time>
      </trkpt>
      <trkpt lat="42.37059672363102436065673828125" lon="-3.8683996908366680145263671875">
        <ele>875.4000244140625</ele>
        <time>2019-07-08T10:38:30.000Z</time>
      </trkpt>
      <trkpt lat="42.3705253936350345611572265625" lon="-3.868800513446331024169921875">
        <ele>877</ele>
        <time>2019-07-08T10:38:31.000Z</time>
      </trkpt>
      <trkpt lat="42.370453141629695892333984375" lon="-3.86920259334146976470947265625">
        <ele>879</ele>
        <time>2019-07-08T10:38:32.000Z</time>
      </trkpt>
      <trkpt lat="42.370380721986293792724609375" lon="-3.8696053437888622283935546875">
        <ele>881</ele>
        <time>2019-07-08T10:38:33.000Z</time>
      </trkpt>
      <trkpt lat="42.3703094758093357086181640625" lon="-3.8700103573501110076904296875">
        <ele>882.79998779296875</ele>
        <time>2019-07-08T10:38:34.000Z</time>
      </trkpt>
      <trkpt lat="42.3701663129031658172607421875" lon="-3.87082658708095550537109375">
        <ele>884.79998779296875</ele>
        <time>2019-07-08T10:38:36.000Z</time>
      </trkpt>
      <trkpt lat="42.3700191266834735870361328125" lon="-3.871651701629161834716796875">
        <ele>886</ele>
        <time>2019-07-08T10:38:38.000Z</time>
      </trkpt>
      <trkpt lat="42.369869090616703033447265625" lon="-3.87248494662344455718994140625">
        <ele>886.79998779296875</ele>
        <time>2019-07-08T10:38:40.000Z</time>
      </trkpt>
      <trkpt lat="42.3697954975068569183349609375" lon="-3.8729014433920383453369140625">
        <ele>887.5999755859375</ele>
        <time>2019-07-08T10:38:41.000Z</time>
      </trkpt>
      <trkpt lat="42.36965124495327472686767578125" lon="-3.87372781522572040557861328125">
        <ele>888.20001220703125</ele>
        <time>2019-07-08T10:38:43.000Z</time>
      </trkpt>
      <trkpt lat="42.369578741490840911865234375" lon="-3.8741376064717769622802734375">
        <ele>889.20001220703125</ele>
        <time>2019-07-08T10:38:44.000Z</time>
      </trkpt>
      <trkpt lat="42.36943423748016357421875" lon="-3.8749506510794162750244140625">
        <ele>890.20001220703125</ele>
        <time>2019-07-08T10:38:46.000Z</time>
      </trkpt>
      <trkpt lat="42.36929484643042087554931640625" lon="-3.87575757689774036407470703125">
        <ele>891</ele>
        <time>2019-07-08T10:38:48.000Z</time>
      </trkpt>
      <trkpt lat="42.3692275397479534149169921875" lon="-3.87615756131708621978759765625">
        <ele>892</ele>
        <time>2019-07-08T10:38:49.000Z</time>
      </trkpt>
      <trkpt lat="42.369095943868160247802734375" lon="-3.876950405538082122802734375">
        <ele>894.79998779296875</ele>
        <time>2019-07-08T10:38:51.000Z</time>
      </trkpt>
      <trkpt lat="42.36903257668018341064453125" lon="-3.8773435167968273162841796875">
        <ele>897.20001220703125</ele>
        <time>2019-07-08T10:38:52.000Z</time>
      </trkpt>
      <trkpt lat="42.3689152300357818603515625" lon="-3.87812747620046138763427734375">
        <ele>899.20001220703125</ele>
        <time>2019-07-08T10:38:54.000Z</time>
      </trkpt>
      <trkpt lat="42.368859909474849700927734375" lon="-3.87851907871663570404052734375">
        <ele>900.20001220703125</ele>
        <time>2019-07-08T10:38:55.000Z</time>
      </trkpt>
      <trkpt lat="42.36875890754163265228271484375" lon="-3.879305385053157806396484375">
        <ele>901</ele>
        <time>2019-07-08T10:38:57.000Z</time>
      </trkpt>
      <trkpt lat="42.368711046874523162841796875" lon="-3.87969941832125186920166015625">
        <ele>901.79998779296875</ele>
        <time>2019-07-08T10:38:58.000Z</time>
      </trkpt>
      <trkpt lat="42.36862479709088802337646484375" lon="-3.8804912567138671875">
        <ele>901.4000244140625</ele>
        <time>2019-07-08T10:39:00.000Z</time>
      </trkpt>
      <trkpt lat="42.36855422146618366241455078125" lon="-3.8812959194183349609375">
        <ele>903.4000244140625</ele>
        <time>2019-07-08T10:39:02.000Z</time>
      </trkpt>
      <trkpt lat="42.368497811257839202880859375" lon="-3.8821225427091121673583984375">
        <ele>904.5999755859375</ele>
        <time>2019-07-08T10:39:04.000Z</time>
      </trkpt>
      <trkpt lat="42.3684553988277912139892578125" lon="-3.88297590427100658416748046875">
        <ele>905.20001220703125</ele>
        <time>2019-07-08T10:39:06.000Z</time>
      </trkpt>
      <trkpt lat="42.3684262298047542572021484375" lon="-3.88386941514909267425537109375">
        <ele>905.79998779296875</ele>
        <time>2019-07-08T10:39:08.000Z</time>
      </trkpt>
      <trkpt lat="42.36841876991093158721923828125" lon="-3.8847963698208332061767578125">
        <ele>905.79998779296875</ele>
        <time>2019-07-08T10:39:10.000Z</time>
      </trkpt>
      <trkpt lat="42.368438132107257843017578125" lon="-3.88572852127254009246826171875">
        <ele>905.20001220703125</ele>
        <time>2019-07-08T10:39:12.000Z</time>
      </trkpt>
      <trkpt lat="42.3684594221413135528564453125" lon="-3.88618818484246730804443359375">
        <ele>904.4000244140625</ele>
        <time>2019-07-08T10:39:13.000Z</time>
      </trkpt>
      <trkpt lat="42.36852421425282955169677734375" lon="-3.8870936818420886993408203125">
        <ele>904.79998779296875</ele>
        <time>2019-07-08T10:39:15.000Z</time>
      </trkpt>
      <trkpt lat="42.36861607991158962249755859375" lon="-3.88798979111015796661376953125">
        <ele>906.4000244140625</ele>
        <time>2019-07-08T10:39:17.000Z</time>
      </trkpt>
      <trkpt lat="42.368673495948314666748046875" lon="-3.888434953987598419189453125">
        <ele>907.4000244140625</ele>
        <time>2019-07-08T10:39:18.000Z</time>
      </trkpt>
      <trkpt lat="42.368734180927276611328125" lon="-3.888878524303436279296875">
        <ele>908.79998779296875</ele>
        <time>2019-07-08T10:39:19.000Z</time>
      </trkpt>
      <trkpt lat="42.36886896193027496337890625" lon="-3.8897634856402873992919921875">
        <ele>909</ele>
        <time>2019-07-08T10:39:21.000Z</time>
      </trkpt>
      <trkpt lat="42.36903014592826366424560546875" lon="-3.89063067734241485595703125">
        <ele>907</ele>
        <time>2019-07-08T10:39:23.000Z</time>
      </trkpt>
      <trkpt lat="42.36920448951423168182373046875" lon="-3.8914775848388671875">
        <ele>905.20001220703125</ele>
        <time>2019-07-08T10:39:25.000Z</time>
      </trkpt>
      <trkpt lat="42.3693881370127201080322265625" lon="-3.8923104107379913330078125">
        <ele>904.4000244140625</ele>
        <time>2019-07-08T10:39:27.000Z</time>
      </trkpt>
      <trkpt lat="42.36948813311755657196044921875" lon="-3.89272254891693592071533203125">
        <ele>904.20001220703125</ele>
        <time>2019-07-08T10:39:28.000Z</time>
      </trkpt>
      <trkpt lat="42.36970673315227031707763671875" lon="-3.8935363478958606719970703125">
        <ele>904</ele>
        <time>2019-07-08T10:39:30.000Z</time>
      </trkpt>
      <trkpt lat="42.36994318664073944091796875" lon="-3.8943423517048358917236328125">
        <ele>904.20001220703125</ele>
        <time>2019-07-08T10:39:32.000Z</time>
      </trkpt>
      <trkpt lat="42.370201684534549713134765625" lon="-3.8951401412487030029296875">
        <ele>903.79998779296875</ele>
        <time>2019-07-08T10:39:34.000Z</time>
      </trkpt>
      <trkpt lat="42.370338477194309234619140625" lon="-3.8955355994403362274169921875">
        <ele>902.5999755859375</ele>
        <time>2019-07-08T10:39:35.000Z</time>
      </trkpt>
      <trkpt lat="42.370480634272098541259765625" lon="-3.8959272019565105438232421875">
        <ele>901.5999755859375</ele>
        <time>2019-07-08T10:39:36.000Z</time>
      </trkpt>
      <trkpt lat="42.37078062258660793304443359375" lon="-3.89669892378151416778564453125">
        <ele>900.79998779296875</ele>
        <time>2019-07-08T10:39:38.000Z</time>
      </trkpt>
      <trkpt lat="42.37093367613852024078369140625" lon="-3.89708273112773895263671875">
        <ele>900</ele>
        <time>2019-07-08T10:39:39.000Z</time>
      </trkpt>
      <trkpt lat="42.37125101499259471893310546875" lon="-3.89784171245992183685302734375">
        <ele>898.79998779296875</ele>
        <time>2019-07-08T10:39:41.000Z</time>
      </trkpt>
      <trkpt lat="42.3714158870279788970947265625" lon="-3.8982161320745944976806640625">
        <ele>897.4000244140625</ele>
        <time>2019-07-08T10:39:42.000Z</time>
      </trkpt>
      <trkpt lat="42.3717541806399822235107421875" lon="-3.89895851723849773406982421875">
        <ele>896.20001220703125</ele>
        <time>2019-07-08T10:39:44.000Z</time>
      </trkpt>
      <trkpt lat="42.3719265125691890716552734375" lon="-3.89932681806385517120361328125">
        <ele>894.79998779296875</ele>
        <time>2019-07-08T10:39:45.000Z</time>
      </trkpt>
      <trkpt lat="42.3722738586366176605224609375" lon="-3.90005654655396938323974609375">
        <ele>893.20001220703125</ele>
        <time>2019-07-08T10:39:47.000Z</time>
      </trkpt>
      <trkpt lat="42.3726215399801731109619140625" lon="-3.9007736183702945709228515625">
        <ele>892.5999755859375</ele>
        <time>2019-07-08T10:39:49.000Z</time>
      </trkpt>
      <trkpt lat="42.37296913750469684600830078125" lon="-3.9014813862740993499755859375">
        <ele>892.20001220703125</ele>
        <time>2019-07-08T10:39:51.000Z</time>
      </trkpt>
      <trkpt lat="42.37332134507596492767333984375" lon="-3.90218186192214488983154296875">
        <ele>891.20001220703125</ele>
        <time>2019-07-08T10:39:53.000Z</time>
      </trkpt>
      <trkpt lat="42.3734972812235355377197265625" lon="-3.902530968189239501953125">
        <ele>890.20001220703125</ele>
        <time>2019-07-08T10:39:54.000Z</time>
      </trkpt>
      <trkpt lat="42.37367187626659870147705078125" lon="-3.90287898480892181396484375">
        <ele>889</ele>
        <time>2019-07-08T10:39:55.000Z</time>
      </trkpt>
      <trkpt lat="42.37401880323886871337890625" lon="-3.90357761643826961517333984375">
        <ele>888.20001220703125</ele>
        <time>2019-07-08T10:39:57.000Z</time>
      </trkpt>
      <trkpt lat="42.374190129339694976806640625" lon="-3.9039289020001888275146484375">
        <ele>888</ele>
        <time>2019-07-08T10:39:58.000Z</time>
      </trkpt>
      <trkpt lat="42.374520711600780487060546875" lon="-3.90464060939848423004150390625">
        <ele>887.4000244140625</ele>
        <time>2019-07-08T10:40:00.000Z</time>
      </trkpt>
      <trkpt lat="42.37483360804617404937744140625" lon="-3.90536983497440814971923828125">
        <ele>887</ele>
        <time>2019-07-08T10:40:02.000Z</time>
      </trkpt>
      <trkpt lat="42.3751267232000827789306640625" lon="-3.9061219431459903717041015625">
        <ele>886.4000244140625</ele>
        <time>2019-07-08T10:40:04.000Z</time>
      </trkpt>
      <trkpt lat="42.37539603374898433685302734375" lon="-3.9068984426558017730712890625">
        <ele>885.5999755859375</ele>
        <time>2019-07-08T10:40:06.000Z</time>
      </trkpt>
      <trkpt lat="42.37562955357134342193603515625" lon="-3.90770235098898410797119140625">
        <ele>885.20001220703125</ele>
        <time>2019-07-08T10:40:08.000Z</time>
      </trkpt>
      <trkpt lat="42.37573231570422649383544921875" lon="-3.90811122022569179534912109375">
        <ele>884.4000244140625</ele>
        <time>2019-07-08T10:40:09.000Z</time>
      </trkpt>
      <trkpt lat="42.37591235898435115814208984375" lon="-3.9089406095445156097412109375">
        <ele>882.79998779296875</ele>
        <time>2019-07-08T10:40:11.000Z</time>
      </trkpt>
      <trkpt lat="42.37606189213693141937255859375" lon="-3.9097885228693485260009765625">
        <ele>881.79998779296875</ele>
        <time>2019-07-08T10:40:13.000Z</time>
      </trkpt>
      <trkpt lat="42.376124672591686248779296875" lon="-3.91022060997784137725830078125">
        <ele>881.5999755859375</ele>
        <time>2019-07-08T10:40:14.000Z</time>
      </trkpt>
      <trkpt lat="42.37622098065912723541259765625" lon="-3.91109584830701351165771484375">
        <ele>881.5999755859375</ele>
        <time>2019-07-08T10:40:16.000Z</time>
      </trkpt>
      <trkpt lat="42.3762716911733150482177734375" lon="-3.911988101899623870849609375">
        <ele>881.5999755859375</ele>
        <time>2019-07-08T10:40:18.000Z</time>
      </trkpt>
      <trkpt lat="42.37628602422773838043212890625" lon="-3.91288622282445430755615234375">
        <ele>879.79998779296875</ele>
        <time>2019-07-08T10:40:20.000Z</time>
      </trkpt>
      <trkpt lat="42.37628065980970859527587890625" lon="-3.91333666630089282989501953125">
        <ele>878.5999755859375</ele>
        <time>2019-07-08T10:40:21.000Z</time>
      </trkpt>
      <trkpt lat="42.376266159117221832275390625" lon="-3.91378593631088733673095703125">
        <ele>877.4000244140625</ele>
        <time>2019-07-08T10:40:22.000Z</time>
      </trkpt>
      <trkpt lat="42.3762408457696437835693359375" lon="-3.914233110845088958740234375">
        <ele>875.79998779296875</ele>
        <time>2019-07-08T10:40:23.000Z</time>
      </trkpt>
      <trkpt lat="42.37620471976697444915771484375" lon="-3.914677686989307403564453125">
        <ele>874.20001220703125</ele>
        <time>2019-07-08T10:40:24.000Z</time>
      </trkpt>
      <trkpt lat="42.376158870756626129150390625" lon="-3.91512134112417697906494140625">
        <ele>872.5999755859375</ele>
        <time>2019-07-08T10:40:25.000Z</time>
      </trkpt>
      <trkpt lat="42.3761053942143917083740234375" lon="-3.915564827620983123779296875">
        <ele>870.79998779296875</ele>
        <time>2019-07-08T10:40:26.000Z</time>
      </trkpt>
      <trkpt lat="42.37604579888284206390380859375" lon="-3.9160058833658695220947265625">
        <ele>869</ele>
        <time>2019-07-08T10:40:27.000Z</time>
      </trkpt>
      <trkpt lat="42.37598008476197719573974609375" lon="-3.91644601710140705108642578125">
        <ele>867.5999755859375</ele>
        <time>2019-07-08T10:40:28.000Z</time>
      </trkpt>
      <trkpt lat="42.3758331499993801116943359375" lon="-3.917326368391513824462890625">
        <ele>866.79998779296875</ele>
        <time>2019-07-08T10:40:30.000Z</time>
      </trkpt>
      <trkpt lat="42.375753857195377349853515625" lon="-3.91776658594608306884765625">
        <ele>866.20001220703125</ele>
        <time>2019-07-08T10:40:31.000Z</time>
      </trkpt>
      <trkpt lat="42.3755885660648345947265625" lon="-3.91865079291164875030517578125">
        <ele>864.79998779296875</ele>
        <time>2019-07-08T10:40:33.000Z</time>
      </trkpt>
      <trkpt lat="42.37542252056300640106201171875" lon="-3.919539861381053924560546875">
        <ele>866.20001220703125</ele>
        <time>2019-07-08T10:40:35.000Z</time>
      </trkpt>
      <trkpt lat="42.375342808663845062255859375" lon="-3.9199879579246044158935546875">
        <ele>865</ele>
        <time>2019-07-08T10:40:36.000Z</time>
      </trkpt>
      <trkpt lat="42.3752651922404766082763671875" lon="-3.92043546773493289947509765625">
        <ele>862.4000244140625</ele>
        <time>2019-07-08T10:40:37.000Z</time>
      </trkpt>
      <trkpt lat="42.375190258026123046875" lon="-3.92088004387915134429931640625">
        <ele>861.20001220703125</ele>
        <time>2019-07-08T10:40:38.000Z</time>
      </trkpt>
      <trkpt lat="42.3750556446611881256103515625" lon="-3.92175771296024322509765625">
        <ele>861.20001220703125</ele>
        <time>2019-07-08T10:40:40.000Z</time>
      </trkpt>
      <trkpt lat="42.3749530501663684844970703125" lon="-3.9226282574236392974853515625">
        <ele>858.4000244140625</ele>
        <time>2019-07-08T10:40:42.000Z</time>
      </trkpt>
      <trkpt lat="42.3748859949409961700439453125" lon="-3.9235009811818599700927734375">
        <ele>859</ele>
        <time>2019-07-08T10:40:44.000Z</time>
      </trkpt>
      <trkpt lat="42.37486780621111392974853515625" lon="-3.92393776215612888336181640625">
        <ele>859.5999755859375</ele>
        <time>2019-07-08T10:40:45.000Z</time>
      </trkpt>
      <trkpt lat="42.37486160360276699066162109375" lon="-3.924813084304332733154296875">
        <ele>858.4000244140625</ele>
        <time>2019-07-08T10:40:47.000Z</time>
      </trkpt>
      <trkpt lat="42.37487300299108028411865234375" lon="-3.925250954926013946533203125">
        <ele>857.20001220703125</ele>
        <time>2019-07-08T10:40:48.000Z</time>
      </trkpt>
      <trkpt lat="42.37492430023849010467529296875" lon="-3.92614086158573627471923828125">
        <ele>855.79998779296875</ele>
        <time>2019-07-08T10:40:50.000Z</time>
      </trkpt>
      <trkpt lat="42.37496294081211090087890625" lon="-3.92659449018537998199462890625">
        <ele>853.79998779296875</ele>
        <time>2019-07-08T10:40:51.000Z</time>
      </trkpt>
      <trkpt lat="42.37507215701043605804443359375" lon="-3.9275075308978557586669921875">
        <ele>854.5999755859375</ele>
        <time>2019-07-08T10:40:53.000Z</time>
      </trkpt>
      <trkpt lat="42.3752273060381412506103515625" lon="-3.92841227352619171142578125">
        <ele>854.20001220703125</ele>
        <time>2019-07-08T10:40:55.000Z</time>
      </trkpt>
      <trkpt lat="42.375427298247814178466796875" lon="-3.92930209636688232421875">
        <ele>855.20001220703125</ele>
        <time>2019-07-08T10:40:57.000Z</time>
      </trkpt>
      <trkpt lat="42.3756681941449642181396484375" lon="-3.930169455707073211669921875">
        <ele>854.5999755859375</ele>
        <time>2019-07-08T10:40:59.000Z</time>
      </trkpt>
      <trkpt lat="42.3758043162524700164794921875" lon="-3.930593244731426239013671875">
        <ele>853.79998779296875</ele>
        <time>2019-07-08T10:41:00.000Z</time>
      </trkpt>
      <trkpt lat="42.37609642557799816131591796875" lon="-3.931421376764774322509765625">
        <ele>852.20001220703125</ele>
        <time>2019-07-08T10:41:02.000Z</time>
      </trkpt>
      <trkpt lat="42.37641460262238979339599609375" lon="-3.9322168193757534027099609375">
        <ele>851.5999755859375</ele>
        <time>2019-07-08T10:41:04.000Z</time>
      </trkpt>
      <trkpt lat="42.37675038166344165802001953125" lon="-3.932986445724964141845703125">
        <ele>851.5999755859375</ele>
        <time>2019-07-08T10:41:06.000Z</time>
      </trkpt>
      <trkpt lat="42.37709370441734790802001953125" lon="-3.933740146458148956298828125">
        <ele>851.79998779296875</ele>
        <time>2019-07-08T10:41:08.000Z</time>
      </trkpt>
      <trkpt lat="42.37744591198861598968505859375" lon="-3.93447674810886383056640625">
        <ele>851.5999755859375</ele>
        <time>2019-07-08T10:41:10.000Z</time>
      </trkpt>
      <trkpt lat="42.37762176431715488433837890625" lon="-3.934839181602001190185546875">
        <ele>851.20001220703125</ele>
        <time>2019-07-08T10:41:11.000Z</time>
      </trkpt>
      <trkpt lat="42.377969361841678619384765625" lon="-3.93555876798927783966064453125">
        <ele>850.79998779296875</ele>
        <time>2019-07-08T10:41:13.000Z</time>
      </trkpt>
      <trkpt lat="42.37831243313848972320556640625" lon="-3.93627156503498554229736328125">
        <ele>852.4000244140625</ele>
        <time>2019-07-08T10:41:15.000Z</time>
      </trkpt>
      <trkpt lat="42.37847789190709590911865234375" lon="-3.9366303943097591400146484375">
        <ele>854.20001220703125</ele>
        <time>2019-07-08T10:41:16.000Z</time>
      </trkpt>
      <trkpt lat="42.37879221327602863311767578125" lon="-3.937352411448955535888671875">
        <ele>856.5999755859375</ele>
        <time>2019-07-08T10:41:18.000Z</time>
      </trkpt>
      <trkpt lat="42.378942668437957763671875" lon="-3.93771358765661716461181640625">
        <ele>858</ele>
        <time>2019-07-08T10:41:19.000Z</time>
      </trkpt>
      <trkpt lat="42.3792256414890289306640625" lon="-3.938439376652240753173828125">
        <ele>858.4000244140625</ele>
        <time>2019-07-08T10:41:21.000Z</time>
      </trkpt>
      <trkpt lat="42.3793512023985385894775390625" lon="-3.9388130418956279754638671875">
        <ele>859.20001220703125</ele>
        <time>2019-07-08T10:41:22.000Z</time>
      </trkpt>
      <trkpt lat="42.3795758374035358428955078125" lon="-3.939581327140331268310546875">
        <ele>860.5999755859375</ele>
        <time>2019-07-08T10:41:24.000Z</time>
      </trkpt>
      <trkpt lat="42.37976887263357639312744140625" lon="-3.9403784461319446563720703125">
        <ele>859.79998779296875</ele>
        <time>2019-07-08T10:41:26.000Z</time>
      </trkpt>
      <trkpt lat="42.37992905080318450927734375" lon="-3.9412038959562778472900390625">
        <ele>860.20001220703125</ele>
        <time>2019-07-08T10:41:28.000Z</time>
      </trkpt>
      <trkpt lat="42.380060143768787384033203125" lon="-3.94205264747142791748046875">
        <ele>860.5999755859375</ele>
        <time>2019-07-08T10:41:30.000Z</time>
      </trkpt>
      <trkpt lat="42.38015812821686267852783203125" lon="-3.94292310811579227447509765625">
        <ele>860.20001220703125</ele>
        <time>2019-07-08T10:41:32.000Z</time>
      </trkpt>
      <trkpt lat="42.38019282929599285125732421875" lon="-3.9433660916984081268310546875">
        <ele>860.4000244140625</ele>
        <time>2019-07-08T10:41:33.000Z</time>
      </trkpt>
      <trkpt lat="42.38023574464023113250732421875" lon="-3.94426278769969940185546875">
        <ele>860.20001220703125</ele>
        <time>2019-07-08T10:41:35.000Z</time>
      </trkpt>
      <trkpt lat="42.38024781458079814910888671875" lon="-3.9447155781090259552001953125">
        <ele>859.4000244140625</ele>
        <time>2019-07-08T10:41:36.000Z</time>
      </trkpt>
      <trkpt lat="42.38025452010333538055419921875" lon="-3.94517079927027225494384765625">
        <ele>858.20001220703125</ele>
        <time>2019-07-08T10:41:37.000Z</time>
      </trkpt>
      <trkpt lat="42.38025452010333538055419921875" lon="-3.946087360382080078125">
        <ele>855.5999755859375</ele>
        <time>2019-07-08T10:41:39.000Z</time>
      </trkpt>
      <trkpt lat="42.3802420310676097869873046875" lon="-3.94700802862644195556640625">
        <ele>852.79998779296875</ele>
        <time>2019-07-08T10:41:41.000Z</time>
      </trkpt>
      <trkpt lat="42.38023406825959682464599609375" lon="-3.947467021644115447998046875">
        <ele>850.4000244140625</ele>
        <time>2019-07-08T10:41:42.000Z</time>
      </trkpt>
      <trkpt lat="42.3802282847464084625244140625" lon="-3.947925679385662078857421875">
        <ele>849.20001220703125</ele>
        <time>2019-07-08T10:41:43.000Z</time>
      </trkpt>
      <trkpt lat="42.38022116012871265411376953125" lon="-3.9488341100513935089111328125">
        <ele>848.5999755859375</ele>
        <time>2019-07-08T10:41:45.000Z</time>
      </trkpt>
      <trkpt lat="42.38021831028163433074951171875" lon="-3.949731476604938507080078125">
        <ele>848.20001220703125</ele>
        <time>2019-07-08T10:41:47.000Z</time>
      </trkpt>
      <trkpt lat="42.3802252672612667083740234375" lon="-3.95060562528669834136962890625">
        <ele>849.5999755859375</ele>
        <time>2019-07-08T10:41:49.000Z</time>
      </trkpt>
      <trkpt lat="42.38024228252470493316650390625" lon="-3.95146787166595458984375">
        <ele>849.5999755859375</ele>
        <time>2019-07-08T10:41:51.000Z</time>
      </trkpt>
      <trkpt lat="42.38025602884590625762939453125" lon="-3.951898701488971710205078125">
        <ele>850.79998779296875</ele>
        <time>2019-07-08T10:41:52.000Z</time>
      </trkpt>
      <trkpt lat="42.380272038280963897705078125" lon="-3.9523302018642425537109375">
        <ele>852</ele>
        <time>2019-07-08T10:41:53.000Z</time>
      </trkpt>
      <trkpt lat="42.3802916519343852996826171875" lon="-3.9527642168104648590087890625">
        <ele>853</ele>
        <time>2019-07-08T10:41:54.000Z</time>
      </trkpt>
      <trkpt lat="42.38034672103822231292724609375" lon="-3.95364758558571338653564453125">
        <ele>853.20001220703125</ele>
        <time>2019-07-08T10:41:56.000Z</time>
      </trkpt>
      <trkpt lat="42.380423247814178466796875" lon="-3.9545430243015289306640625">
        <ele>852.5999755859375</ele>
        <time>2019-07-08T10:41:58.000Z</time>
      </trkpt>
      <trkpt lat="42.3804713599383831024169921875" lon="-3.95499053411185741424560546875">
        <ele>852</ele>
        <time>2019-07-08T10:41:59.000Z</time>
      </trkpt>
      <trkpt lat="42.3805850185453891754150390625" lon="-3.95588287152349948883056640625">
        <ele>850.79998779296875</ele>
        <time>2019-07-08T10:42:01.000Z</time>
      </trkpt>
      <trkpt lat="42.38070965744554996490478515625" lon="-3.9567778073251247406005859375">
        <ele>850.79998779296875</ele>
        <time>2019-07-08T10:42:03.000Z</time>
      </trkpt>
      <trkpt lat="42.38084678538143634796142578125" lon="-3.95766369067132472991943359375">
        <ele>851.79998779296875</ele>
        <time>2019-07-08T10:42:05.000Z</time>
      </trkpt>
      <trkpt lat="42.3809216357767581939697265625" lon="-3.95810223184525966644287109375">
        <ele>853</ele>
        <time>2019-07-08T10:42:06.000Z</time>
      </trkpt>
      <trkpt lat="42.380999587476253509521484375" lon="-3.95853842608630657196044921875">
        <ele>854.4000244140625</ele>
        <time>2019-07-08T10:42:07.000Z</time>
      </trkpt>
      <trkpt lat="42.3811640404164791107177734375" lon="-3.9594073779881000518798828125">
        <ele>855.79998779296875</ele>
        <time>2019-07-08T10:42:09.000Z</time>
      </trkpt>
      <trkpt lat="42.3813460953533649444580078125" lon="-3.9602697081863880157470703125">
        <ele>856.79998779296875</ele>
        <time>2019-07-08T10:42:11.000Z</time>
      </trkpt>
      <trkpt lat="42.38154910504817962646484375" lon="-3.9611270092427730560302734375">
        <ele>855.5999755859375</ele>
        <time>2019-07-08T10:42:13.000Z</time>
      </trkpt>
      <trkpt lat="42.38165781833231449127197265625" lon="-3.96155255846679210662841796875">
        <ele>854.79998779296875</ele>
        <time>2019-07-08T10:42:14.000Z</time>
      </trkpt>
      <trkpt lat="42.38189569674432277679443359375" lon="-3.96239317953586578369140625">
        <ele>853.79998779296875</ele>
        <time>2019-07-08T10:42:16.000Z</time>
      </trkpt>
      <trkpt lat="42.38202343694865703582763671875" lon="-3.96280883811414241790771484375">
        <ele>851.79998779296875</ele>
        <time>2019-07-08T10:42:17.000Z</time>
      </trkpt>
      <trkpt lat="42.38215369172394275665283203125" lon="-3.96322474814951419830322265625">
        <ele>850.5999755859375</ele>
        <time>2019-07-08T10:42:18.000Z</time>
      </trkpt>
      <trkpt lat="42.3824193142354488372802734375" lon="-3.9640543051064014434814453125">
        <ele>850.5999755859375</ele>
        <time>2019-07-08T10:42:20.000Z</time>
      </trkpt>
      <trkpt lat="42.38255493342876434326171875" lon="-3.9644677005708217620849609375">
        <ele>853.4000244140625</ele>
        <time>2019-07-08T10:42:21.000Z</time>
      </trkpt>
      <trkpt lat="42.38269281573593616485595703125" lon="-3.9648770727217197418212890625">
        <ele>855.20001220703125</ele>
        <time>2019-07-08T10:42:22.000Z</time>
      </trkpt>
      <trkpt lat="42.382834218442440032958984375" lon="-3.9652790687978267669677734375">
        <ele>856.79998779296875</ele>
        <time>2019-07-08T10:42:23.000Z</time>
      </trkpt>
      <trkpt lat="42.3829785548150539398193359375" lon="-3.96567343734204769134521484375">
        <ele>858.4000244140625</ele>
        <time>2019-07-08T10:42:24.000Z</time>
      </trkpt>
      <trkpt lat="42.3832742683589458465576171875" lon="-3.96644465625286102294921875">
        <ele>860.5999755859375</ele>
        <time>2019-07-08T10:42:26.000Z</time>
      </trkpt>
      <trkpt lat="42.38342405296862125396728515625" lon="-3.96682108752429485321044921875">
        <ele>861.5999755859375</ele>
        <time>2019-07-08T10:42:27.000Z</time>
      </trkpt>
      <trkpt lat="42.38357425667345523834228515625" lon="-3.96719374693930149078369140625">
        <ele>862.79998779296875</ele>
        <time>2019-07-08T10:42:28.000Z</time>
      </trkpt>
      <trkpt lat="42.38372395746409893035888671875" lon="-3.96756271831691265106201171875">
        <ele>864</ele>
        <time>2019-07-08T10:42:29.000Z</time>
      </trkpt>
      <trkpt lat="42.38387466408312320709228515625" lon="-3.967928923666477203369140625">
        <ele>865.79998779296875</ele>
        <time>2019-07-08T10:42:30.000Z</time>
      </trkpt>
      <trkpt lat="42.384025119245052337646484375" lon="-3.9682935364544391632080078125">
        <ele>867.4000244140625</ele>
        <time>2019-07-08T10:42:31.000Z</time>
      </trkpt>
      <trkpt lat="42.3841741494834423065185546875" lon="-3.96865613758563995361328125">
        <ele>869.4000244140625</ele>
        <time>2019-07-08T10:42:32.000Z</time>
      </trkpt>
      <trkpt lat="42.384323514997959136962890625" lon="-3.96901664324104785919189453125">
        <ele>871.4000244140625</ele>
        <time>2019-07-08T10:42:33.000Z</time>
      </trkpt>
      <trkpt lat="42.38447296433150768280029296875" lon="-3.96937320940196514129638671875">
        <ele>873</ele>
        <time>2019-07-08T10:42:34.000Z</time>
      </trkpt>
      <trkpt lat="42.38476775586605072021484375" lon="-3.97008097730576992034912109375">
        <ele>874.5999755859375</ele>
        <time>2019-07-08T10:42:36.000Z</time>
      </trkpt>
      <trkpt lat="42.3850592784583568572998046875" lon="-3.9707863144576549530029296875">
        <ele>875.5999755859375</ele>
        <time>2019-07-08T10:42:38.000Z</time>
      </trkpt>
      <trkpt lat="42.38534434698522090911865234375" lon="-3.9714900590479373931884765625">
        <ele>876.5999755859375</ele>
        <time>2019-07-08T10:42:40.000Z</time>
      </trkpt>
      <trkpt lat="42.3856173455715179443359375" lon="-3.9721978269517421722412109375">
        <ele>878</ele>
        <time>2019-07-08T10:42:42.000Z</time>
      </trkpt>
      <trkpt lat="42.3858828842639923095703125" lon="-3.97290970198810100555419921875">
        <ele>879.20001220703125</ele>
        <time>2019-07-08T10:42:44.000Z</time>
      </trkpt>
      <trkpt lat="42.38614280708134174346923828125" lon="-3.9736323058605194091796875">
        <ele>881.20001220703125</ele>
        <time>2019-07-08T10:42:46.000Z</time>
      </trkpt>
      <trkpt lat="42.38638705573976039886474609375" lon="-3.9743741042912006378173828125">
        <ele>882.4000244140625</ele>
        <time>2019-07-08T10:42:48.000Z</time>
      </trkpt>
      <trkpt lat="42.38661990500986576080322265625" lon="-3.9751288108527660369873046875">
        <ele>883.79998779296875</ele>
        <time>2019-07-08T10:42:50.000Z</time>
      </trkpt>
      <trkpt lat="42.386846803128719329833984375" lon="-3.97589768283069133758544921875">
        <ele>885.4000244140625</ele>
        <time>2019-07-08T10:42:52.000Z</time>
      </trkpt>
      <trkpt lat="42.387059032917022705078125" lon="-3.97668273188173770904541015625">
        <ele>886.4000244140625</ele>
        <time>2019-07-08T10:42:54.000Z</time>
      </trkpt>
      <trkpt lat="42.38715969957411289215087890625" lon="-3.9770787768065929412841796875">
        <ele>887</ele>
        <time>2019-07-08T10:42:55.000Z</time>
      </trkpt>
      <trkpt lat="42.38735415972769260406494140625" lon="-3.97787497378885746002197265625">
        <ele>889.4000244140625</ele>
        <time>2019-07-08T10:42:57.000Z</time>
      </trkpt>
      <trkpt lat="42.38744795322418212890625" lon="-3.978274874389171600341796875">
        <ele>890.79998779296875</ele>
        <time>2019-07-08T10:42:58.000Z</time>
      </trkpt>
      <trkpt lat="42.38753822632133960723876953125" lon="-3.97867695428431034088134765625">
        <ele>891.79998779296875</ele>
        <time>2019-07-08T10:42:59.000Z</time>
      </trkpt>
      <trkpt lat="42.38770921714603900909423828125" lon="-3.9794884063303470611572265625">
        <ele>893.4000244140625</ele>
        <time>2019-07-08T10:43:01.000Z</time>
      </trkpt>
      <trkpt lat="42.387790940701961517333984375" lon="-3.979900293052196502685546875">
        <ele>894.5999755859375</ele>
        <time>2019-07-08T10:43:02.000Z</time>
      </trkpt>
      <trkpt lat="42.387868054211139678955078125" lon="-3.98031570017337799072265625">
        <ele>895.79998779296875</ele>
        <time>2019-07-08T10:43:03.000Z</time>
      </trkpt>
      <trkpt lat="42.38801733590662479400634765625" lon="-3.98115632124245166778564453125">
        <ele>896.5999755859375</ele>
        <time>2019-07-08T10:43:05.000Z</time>
      </trkpt>
      <trkpt lat="42.38816720433533191680908203125" lon="-3.98200549185276031494140625">
        <ele>897</ele>
        <time>2019-07-08T10:43:07.000Z</time>
      </trkpt>
      <trkpt lat="42.3883156478404998779296875" lon="-3.9828666485846042633056640625">
        <ele>897.4000244140625</ele>
        <time>2019-07-08T10:43:09.000Z</time>
      </trkpt>
      <trkpt lat="42.38846023567020893096923828125" lon="-3.983742892742156982421875">
        <ele>898.4000244140625</ele>
        <time>2019-07-08T10:43:11.000Z</time>
      </trkpt>
      <trkpt lat="42.38861110992729663848876953125" lon="-3.9846251718699932098388671875">
        <ele>900</ele>
        <time>2019-07-08T10:43:13.000Z</time>
      </trkpt>
      <trkpt lat="42.38877522759139537811279296875" lon="-3.98550418205559253692626953125">
        <ele>902</ele>
        <time>2019-07-08T10:43:15.000Z</time>
      </trkpt>
      <trkpt lat="42.38895342685282230377197265625" lon="-3.9863719604909420013427734375">
        <ele>902</ele>
        <time>2019-07-08T10:43:17.000Z</time>
      </trkpt>
      <trkpt lat="42.38914336077868938446044921875" lon="-3.98723202757537364959716796875">
        <ele>902.79998779296875</ele>
        <time>2019-07-08T10:43:19.000Z</time>
      </trkpt>
      <trkpt lat="42.3892436921596527099609375" lon="-3.987659923732280731201171875">
        <ele>903.5999755859375</ele>
        <time>2019-07-08T10:43:20.000Z</time>
      </trkpt>
      <trkpt lat="42.3893484659492969512939453125" lon="-3.98808564059436321258544921875">
        <ele>905.20001220703125</ele>
        <time>2019-07-08T10:43:21.000Z</time>
      </trkpt>
      <trkpt lat="42.38956882618367671966552734375" lon="-3.9889334701001644134521484375">
        <ele>905.20001220703125</ele>
        <time>2019-07-08T10:43:23.000Z</time>
      </trkpt>
      <trkpt lat="42.3898071236908435821533203125" lon="-3.989775180816650390625">
        <ele>904.20001220703125</ele>
        <time>2019-07-08T10:43:25.000Z</time>
      </trkpt>
      <trkpt lat="42.38993360660970211029052734375" lon="-3.9901907555758953094482421875">
        <ele>903.79998779296875</ele>
        <time>2019-07-08T10:43:26.000Z</time>
      </trkpt>
      <trkpt lat="42.3901967145502567291259765625" lon="-3.99101679213345050811767578125">
        <ele>903.4000244140625</ele>
        <time>2019-07-08T10:43:28.000Z</time>
      </trkpt>
      <trkpt lat="42.3904723115265369415283203125" lon="-3.99183939211070537567138671875">
        <ele>904.4000244140625</ele>
        <time>2019-07-08T10:43:30.000Z</time>
      </trkpt>
      <trkpt lat="42.3906161449849605560302734375" lon="-3.99224943481385707855224609375">
        <ele>904.79998779296875</ele>
        <time>2019-07-08T10:43:31.000Z</time>
      </trkpt>
      <trkpt lat="42.39091898314654827117919921875" lon="-3.9930610544979572296142578125">
        <ele>904</ele>
        <time>2019-07-08T10:43:33.000Z</time>
      </trkpt>
      <trkpt lat="42.39107471890747547149658203125" lon="-3.99346363730728626251220703125">
        <ele>902.20001220703125</ele>
        <time>2019-07-08T10:43:34.000Z</time>
      </trkpt>
      <trkpt lat="42.3912323825061321258544921875" lon="-3.993863202631473541259765625">
        <ele>900.79998779296875</ele>
        <time>2019-07-08T10:43:35.000Z</time>
      </trkpt>
      <trkpt lat="42.3915477097034454345703125" lon="-3.9946519397199153900146484375">
        <ele>899.79998779296875</ele>
        <time>2019-07-08T10:43:37.000Z</time>
      </trkpt>
      <trkpt lat="42.391859181225299835205078125" lon="-3.99543799459934234619140625">
        <ele>904</ele>
        <time>2019-07-08T10:43:39.000Z</time>
      </trkpt>
      <trkpt lat="42.39201365970075130462646484375" lon="-3.9958321116864681243896484375">
        <ele>906.20001220703125</ele>
        <time>2019-07-08T10:43:40.000Z</time>
      </trkpt>
      <trkpt lat="42.39216637797653675079345703125" lon="-3.9962272346019744873046875">
        <ele>907.20001220703125</ele>
        <time>2019-07-08T10:43:41.000Z</time>
      </trkpt>
      <trkpt lat="42.39246728830039501190185546875" lon="-3.99701572023332118988037109375">
        <ele>908.20001220703125</ele>
        <time>2019-07-08T10:43:43.000Z</time>
      </trkpt>
      <trkpt lat="42.39275746978819370269775390625" lon="-3.99781300686299800872802734375">
        <ele>905.5999755859375</ele>
        <time>2019-07-08T10:43:45.000Z</time>
      </trkpt>
      <trkpt lat="42.39289711229503154754638671875" lon="-3.9982165955007076263427734375">
        <ele>903.5999755859375</ele>
        <time>2019-07-08T10:43:46.000Z</time>
      </trkpt>
      <trkpt lat="42.39303390495479106903076171875" lon="-3.99862504564225673675537109375">
        <ele>900.79998779296875</ele>
        <time>2019-07-08T10:43:47.000Z</time>
      </trkpt>
      <trkpt lat="42.3931659199297428131103515625" lon="-3.99903441779315471649169921875">
        <ele>898</ele>
        <time>2019-07-08T10:43:48.000Z</time>
      </trkpt>
      <trkpt lat="42.39329273812472820281982421875" lon="-3.99944655597209930419921875">
        <ele>895.5999755859375</ele>
        <time>2019-07-08T10:43:49.000Z</time>
      </trkpt>
      <trkpt lat="42.39341528154909610748291015625" lon="-3.9998614601790904998779296875">
        <ele>893.79998779296875</ele>
        <time>2019-07-08T10:43:50.000Z</time>
      </trkpt>
      <trkpt lat="42.393644861876964569091796875" lon="-4.00069403462111949920654296875">
        <ele>892</ele>
        <time>2019-07-08T10:43:52.000Z</time>
      </trkpt>
      <trkpt lat="42.393750809133052825927734375" lon="-4.00111413560807704925537109375">
        <ele>890.79998779296875</ele>
        <time>2019-07-08T10:43:53.000Z</time>
      </trkpt>
      <trkpt lat="42.39384979940950870513916015625" lon="-4.00153641588985919952392578125">
        <ele>889.4000244140625</ele>
        <time>2019-07-08T10:43:54.000Z</time>
      </trkpt>
      <trkpt lat="42.39402665756642818450927734375" lon="-4.0023870952427387237548828125">
        <ele>888.4000244140625</ele>
        <time>2019-07-08T10:43:56.000Z</time>
      </trkpt>
      <trkpt lat="42.3941831476986408233642578125" lon="-4.0032376907765865325927734375">
        <ele>890.79998779296875</ele>
        <time>2019-07-08T10:43:58.000Z</time>
      </trkpt>
      <trkpt lat="42.39424936473369598388671875" lon="-4.00366491638123989105224609375">
        <ele>892.79998779296875</ele>
        <time>2019-07-08T10:43:59.000Z</time>
      </trkpt>
      <trkpt lat="42.3943675495684146881103515625" lon="-4.00451987050473690032958984375">
        <ele>894.20001220703125</ele>
        <time>2019-07-08T10:44:01.000Z</time>
      </trkpt>
      <trkpt lat="42.39441775716841220855712890625" lon="-4.0049469284713268280029296875">
        <ele>892.4000244140625</ele>
        <time>2019-07-08T10:44:02.000Z</time>
      </trkpt>
      <trkpt lat="42.3944634385406970977783203125" lon="-4.0053730644285678863525390625">
        <ele>885.79998779296875</ele>
        <time>2019-07-08T10:44:03.000Z</time>
      </trkpt>
      <trkpt lat="42.3945040069520473480224609375" lon="-4.00580012239515781402587890625">
        <ele>875.79998779296875</ele>
        <time>2019-07-08T10:44:04.000Z</time>
      </trkpt>
      <trkpt lat="42.39454097114503383636474609375" lon="-4.00622843764722347259521484375">
        <ele>865</ele>
        <time>2019-07-08T10:44:05.000Z</time>
      </trkpt>
      <trkpt lat="42.39457248710095882415771484375" lon="-4.00665960274636745452880859375">
        <ele>858.20001220703125</ele>
        <time>2019-07-08T10:44:06.000Z</time>
      </trkpt>
      <trkpt lat="42.39459830336272716522216796875" lon="-4.00709495879709720611572265625">
        <ele>854.4000244140625</ele>
        <time>2019-07-08T10:44:07.000Z</time>
      </trkpt>
      <trkpt lat="42.39461657591164112091064453125" lon="-4.00753567926585674285888671875">
        <ele>852</ele>
        <time>2019-07-08T10:44:08.000Z</time>
      </trkpt>
      <trkpt lat="42.39462730474770069122314453125" lon="-4.00798042304813861846923828125">
        <ele>850.79998779296875</ele>
        <time>2019-07-08T10:44:09.000Z</time>
      </trkpt>
      <trkpt lat="42.39463157951831817626953125" lon="-4.00842935778200626373291015625">
        <ele>849.79998779296875</ele>
        <time>2019-07-08T10:44:10.000Z</time>
      </trkpt>
      <trkpt lat="42.39462445490062236785888671875" lon="-4.0093447454273700714111328125">
        <ele>847.79998779296875</ele>
        <time>2019-07-08T10:44:12.000Z</time>
      </trkpt>
      <trkpt lat="42.394615150988101959228515625" lon="-4.0098080970346927642822265625">
        <ele>846.5999755859375</ele>
        <time>2019-07-08T10:44:13.000Z</time>
      </trkpt>
      <trkpt lat="42.39459696225821971893310546875" lon="-4.0102741308510303497314453125">
        <ele>845.4000244140625</ele>
        <time>2019-07-08T10:44:14.000Z</time>
      </trkpt>
      <trkpt lat="42.3945730738341808319091796875" lon="-4.0107428468763828277587890625">
        <ele>844.4000244140625</ele>
        <time>2019-07-08T10:44:15.000Z</time>
      </trkpt>
      <trkpt lat="42.39454382099211215972900390625" lon="-4.01121550239622592926025390625">
        <ele>843.20001220703125</ele>
        <time>2019-07-08T10:44:16.000Z</time>
      </trkpt>
      <trkpt lat="42.39451347850263118743896484375" lon="-4.01168991811573505401611328125">
        <ele>841.4000244140625</ele>
        <time>2019-07-08T10:44:17.000Z</time>
      </trkpt>
      <trkpt lat="42.3944812081754207611083984375" lon="-4.01216919533908367156982421875">
        <ele>839.5999755859375</ele>
        <time>2019-07-08T10:44:18.000Z</time>
      </trkpt>
      <trkpt lat="42.39441658370196819305419921875" lon="-4.01313210837543010711669921875">
        <ele>838.20001220703125</ele>
        <time>2019-07-08T10:44:20.000Z</time>
      </trkpt>
      <trkpt lat="42.39436729811131954193115234375" lon="-4.01409837417304515838623046875">
        <ele>840.4000244140625</ele>
        <time>2019-07-08T10:44:22.000Z</time>
      </trkpt>
      <trkpt lat="42.394354976713657379150390625" lon="-4.014580249786376953125">
        <ele>844.4000244140625</ele>
        <time>2019-07-08T10:44:23.000Z</time>
      </trkpt>
      <trkpt lat="42.3943531326949596405029296875" lon="-4.01506103575229644775390625">
        <ele>847.4000244140625</ele>
        <time>2019-07-08T10:44:24.000Z</time>
      </trkpt>
      <trkpt lat="42.394361682236194610595703125" lon="-4.01553838513791561126708984375">
        <ele>850.4000244140625</ele>
        <time>2019-07-08T10:44:25.000Z</time>
      </trkpt>
      <trkpt lat="42.39437970332801342010498046875" lon="-4.016012884676456451416015625">
        <ele>851.79998779296875</ele>
        <time>2019-07-08T10:44:26.000Z</time>
      </trkpt>
      <trkpt lat="42.3944456689059734344482421875" lon="-4.01695157401263713836669921875">
        <ele>851.4000244140625</ele>
        <time>2019-07-08T10:44:28.000Z</time>
      </trkpt>
      <trkpt lat="42.3944929428398609161376953125" lon="-4.0174138359725475311279296875">
        <ele>848.79998779296875</ele>
        <time>2019-07-08T10:44:29.000Z</time>
      </trkpt>
      <trkpt lat="42.39454843103885650634765625" lon="-4.0178724937140941619873046875">
        <ele>847.4000244140625</ele>
        <time>2019-07-08T10:44:30.000Z</time>
      </trkpt>
      <trkpt lat="42.39468463696539402008056640625" lon="-4.01878100819885730743408203125">
        <ele>846.20001220703125</ele>
        <time>2019-07-08T10:44:32.000Z</time>
      </trkpt>
      <trkpt lat="42.39476677961647510528564453125" lon="-4.01923052966594696044921875">
        <ele>847.79998779296875</ele>
        <time>2019-07-08T10:44:33.000Z</time>
      </trkpt>
      <trkpt lat="42.39485914818942546844482421875" lon="-4.0196739323437213897705078125">
        <ele>849.5999755859375</ele>
        <time>2019-07-08T10:44:34.000Z</time>
      </trkpt>
      <trkpt lat="42.39507221616804599761962890625" lon="-4.02054992504417896270751953125">
        <ele>851.20001220703125</ele>
        <time>2019-07-08T10:44:36.000Z</time>
      </trkpt>
      <trkpt lat="42.39531411789357662200927734375" lon="-4.0214093215763568878173828125">
        <ele>849.79998779296875</ele>
        <time>2019-07-08T10:44:38.000Z</time>
      </trkpt>
      <trkpt lat="42.39559809677302837371826171875" lon="-4.0222488529980182647705078125">
        <ele>848.4000244140625</ele>
        <time>2019-07-08T10:44:40.000Z</time>
      </trkpt>
      <trkpt lat="42.39592038094997406005859375" lon="-4.0230672620236873626708984375">
        <ele>847.5999755859375</ele>
        <time>2019-07-08T10:44:42.000Z</time>
      </trkpt>
      <trkpt lat="42.39608843810856342315673828125" lon="-4.02347319759428501129150390625">
        <ele>846.79998779296875</ele>
        <time>2019-07-08T10:44:43.000Z</time>
      </trkpt>
      <trkpt lat="42.39626294933259487152099609375" lon="-4.023874439299106597900390625">
        <ele>844.4000244140625</ele>
        <time>2019-07-08T10:44:44.000Z</time>
      </trkpt>
      <trkpt lat="42.3964432440698146820068359375" lon="-4.024270735681056976318359375">
        <ele>840</ele>
        <time>2019-07-08T10:44:45.000Z</time>
      </trkpt>
      <trkpt lat="42.39662840031087398529052734375" lon="-4.024662338197231292724609375">
        <ele>835.4000244140625</ele>
        <time>2019-07-08T10:44:46.000Z</time>
      </trkpt>
      <trkpt lat="42.3968174122273921966552734375" lon="-4.02505092322826385498046875">
        <ele>831.20001220703125</ele>
        <time>2019-07-08T10:44:47.000Z</time>
      </trkpt>
      <trkpt lat="42.39701245911419391632080078125" lon="-4.02543037198483943939208984375">
        <ele>828</ele>
        <time>2019-07-08T10:44:48.000Z</time>
      </trkpt>
      <trkpt lat="42.3972106911242008209228515625" lon="-4.02580018155276775360107421875">
        <ele>825.5999755859375</ele>
        <time>2019-07-08T10:44:49.000Z</time>
      </trkpt>
      <trkpt lat="42.3974064923822879791259765625" lon="-4.02616948820650577545166015625">
        <ele>823.4000244140625</ele>
        <time>2019-07-08T10:44:50.000Z</time>
      </trkpt>
      <trkpt lat="42.397772110998630523681640625" lon="-4.0269085206091403961181640625">
        <ele>822.5999755859375</ele>
        <time>2019-07-08T10:44:52.000Z</time>
      </trkpt>
      <trkpt lat="42.39794352091848850250244140625" lon="-4.027266763150691986083984375">
        <ele>822.4000244140625</ele>
        <time>2019-07-08T10:44:53.000Z</time>
      </trkpt>
      <trkpt lat="42.39826597273349761962890625" lon="-4.02794192545115947723388671875">
        <ele>822.79998779296875</ele>
        <time>2019-07-08T10:44:55.000Z</time>
      </trkpt>
      <trkpt lat="42.398417182266712188720703125" lon="-4.0282576717436313629150390625">
        <ele>824.5999755859375</ele>
        <time>2019-07-08T10:44:56.000Z</time>
      </trkpt>
      <trkpt lat="42.3985631950199604034423828125" lon="-4.02855967171490192413330078125">
        <ele>826</ele>
        <time>2019-07-08T10:44:57.000Z</time>
      </trkpt>
      <trkpt lat="42.39870526827871799468994140625" lon="-4.02885538525879383087158203125">
        <ele>828</ele>
        <time>2019-07-08T10:44:58.000Z</time>
      </trkpt>
      <trkpt lat="42.3988488502800464630126953125" lon="-4.02915311045944690704345703125">
        <ele>829.79998779296875</ele>
        <time>2019-07-08T10:44:59.000Z</time>
      </trkpt>
      <trkpt lat="42.39914028905332088470458984375" lon="-4.02975090779364109039306640625">
        <ele>830.4000244140625</ele>
        <time>2019-07-08T10:45:01.000Z</time>
      </trkpt>
      <trkpt lat="42.39943541586399078369140625" lon="-4.03034836985170841217041015625">
        <ele>829.5999755859375</ele>
        <time>2019-07-08T10:45:03.000Z</time>
      </trkpt>
      <trkpt lat="42.39972685463726520538330078125" lon="-4.030955135822296142578125">
        <ele>829.4000244140625</ele>
        <time>2019-07-08T10:45:05.000Z</time>
      </trkpt>
      <trkpt lat="42.40001619793474674224853515625" lon="-4.03158352710306644439697265625">
        <ele>828.79998779296875</ele>
        <time>2019-07-08T10:45:07.000Z</time>
      </trkpt>
      <trkpt lat="42.40015500225126743316650390625" lon="-4.03191142715513706207275390625">
        <ele>827.5999755859375</ele>
        <time>2019-07-08T10:45:08.000Z</time>
      </trkpt>
      <trkpt lat="42.4004152603447437286376953125" lon="-4.03259463608264923095703125">
        <ele>827.20001220703125</ele>
        <time>2019-07-08T10:45:10.000Z</time>
      </trkpt>
      <trkpt lat="42.40065255202353000640869140625" lon="-4.0333069302141666412353515625">
        <ele>827.79998779296875</ele>
        <time>2019-07-08T10:45:12.000Z</time>
      </trkpt>
      <trkpt lat="42.400871403515338897705078125" lon="-4.03406490571796894073486328125">
        <ele>828.4000244140625</ele>
        <time>2019-07-08T10:45:14.000Z</time>
      </trkpt>
      <trkpt lat="42.401065863668918609619140625" lon="-4.03487694449722766876220703125">
        <ele>828.5999755859375</ele>
        <time>2019-07-08T10:45:16.000Z</time>
      </trkpt>
      <trkpt lat="42.40122822113335132598876953125" lon="-4.03572536073625087738037109375">
        <ele>828</ele>
        <time>2019-07-08T10:45:18.000Z</time>
      </trkpt>
      <trkpt lat="42.40135294385254383087158203125" lon="-4.03657193295657634735107421875">
        <ele>826</ele>
        <time>2019-07-08T10:45:20.000Z</time>
      </trkpt>
      <trkpt lat="42.40140088833868503570556640625" lon="-4.0369919501245021820068359375">
        <ele>824.5999755859375</ele>
        <time>2019-07-08T10:45:21.000Z</time>
      </trkpt>
      <trkpt lat="42.40146853029727935791015625" lon="-4.037826620042324066162109375">
        <ele>824.79998779296875</ele>
        <time>2019-07-08T10:45:23.000Z</time>
      </trkpt>
      <trkpt lat="42.4014998786151409149169921875" lon="-4.03865240514278411865234375">
        <ele>823.5999755859375</ele>
        <time>2019-07-08T10:45:25.000Z</time>
      </trkpt>
      <trkpt lat="42.40150180645287036895751953125" lon="-4.0390609391033649444580078125">
        <ele>825.79998779296875</ele>
        <time>2019-07-08T10:45:26.000Z</time>
      </trkpt>
      <trkpt lat="42.401493676006793975830078125" lon="-4.039470143616199493408203125">
        <ele>829</ele>
        <time>2019-07-08T10:45:27.000Z</time>
      </trkpt>
      <trkpt lat="42.4014770798385143280029296875" lon="-4.039881192147731781005859375">
        <ele>832</ele>
        <time>2019-07-08T10:45:28.000Z</time>
      </trkpt>
      <trkpt lat="42.40145243704319000244140625" lon="-4.04029483906924724578857421875">
        <ele>833.4000244140625</ele>
        <time>2019-07-08T10:45:29.000Z</time>
      </trkpt>
      <trkpt lat="42.4013801850378513336181640625" lon="-4.041127748787403106689453125">
        <ele>834</ele>
        <time>2019-07-08T10:45:31.000Z</time>
      </trkpt>
      <trkpt lat="42.40127130411565303802490234375" lon="-4.04196149669587612152099609375">
        <ele>834.4000244140625</ele>
        <time>2019-07-08T10:45:33.000Z</time>
      </trkpt>
      <trkpt lat="42.40112881176173686981201171875" lon="-4.0427955798804759979248046875">
        <ele>833.20001220703125</ele>
        <time>2019-07-08T10:45:35.000Z</time>
      </trkpt>
      <trkpt lat="42.401043735444545745849609375" lon="-4.0432114899158477783203125">
        <ele>831.4000244140625</ele>
        <time>2019-07-08T10:45:36.000Z</time>
      </trkpt>
      <trkpt lat="42.40094642154872417449951171875" lon="-4.04362631030380725860595703125">
        <ele>828.79998779296875</ele>
        <time>2019-07-08T10:45:37.000Z</time>
      </trkpt>
      <trkpt lat="42.400837205350399017333984375" lon="-4.04403903521597385406494140625">
        <ele>826.5999755859375</ele>
        <time>2019-07-08T10:45:38.000Z</time>
      </trkpt>
      <trkpt lat="42.400717176496982574462890625" lon="-4.0444474853575229644775390625">
        <ele>825.4000244140625</ele>
        <time>2019-07-08T10:45:39.000Z</time>
      </trkpt>
      <trkpt lat="42.4005869217216968536376953125" lon="-4.0448555164039134979248046875">
        <ele>823.20001220703125</ele>
        <time>2019-07-08T10:45:40.000Z</time>
      </trkpt>
      <trkpt lat="42.40044920705258846282958984375" lon="-4.04526136815547943115234375">
        <ele>819.4000244140625</ele>
        <time>2019-07-08T10:45:41.000Z</time>
      </trkpt>
      <trkpt lat="42.40030772052705287933349609375" lon="-4.04566378332674503326416015625">
        <ele>814.20001220703125</ele>
        <time>2019-07-08T10:45:42.000Z</time>
      </trkpt>
      <trkpt lat="42.40016623400151729583740234375" lon="-4.0460665337741374969482421875">
        <ele>809.5999755859375</ele>
        <time>2019-07-08T10:45:43.000Z</time>
      </trkpt>
      <trkpt lat="42.4000276811420917510986328125" lon="-4.04647263698279857635498046875">
        <ele>806.5999755859375</ele>
        <time>2019-07-08T10:45:44.000Z</time>
      </trkpt>
      <trkpt lat="42.39989432506263256072998046875" lon="-4.0468802489340305328369140625">
        <ele>805.20001220703125</ele>
        <time>2019-07-08T10:45:45.000Z</time>
      </trkpt>
      <trkpt lat="42.39964135922491550445556640625" lon="-4.0477013401687145233154296875">
        <ele>804.79998779296875</ele>
        <time>2019-07-08T10:45:47.000Z</time>
      </trkpt>
      <trkpt lat="42.39939928986132144927978515625" lon="-4.048526622354984283447265625">
        <ele>805.20001220703125</ele>
        <time>2019-07-08T10:45:49.000Z</time>
      </trkpt>
      <trkpt lat="42.39916107617318630218505859375" lon="-4.0493495576083660125732421875">
        <ele>806.20001220703125</ele>
        <time>2019-07-08T10:45:51.000Z</time>
      </trkpt>
      <trkpt lat="42.39904523827135562896728515625" lon="-4.0497602708637714385986328125">
        <ele>806.5999755859375</ele>
        <time>2019-07-08T10:45:52.000Z</time>
      </trkpt>
      <trkpt lat="42.39882244728505611419677734375" lon="-4.0505887381732463836669921875">
        <ele>807.4000244140625</ele>
        <time>2019-07-08T10:45:54.000Z</time>
      </trkpt>
      <trkpt lat="42.39860502071678638458251953125" lon="-4.05142106115818023681640625">
        <ele>807.20001220703125</ele>
        <time>2019-07-08T10:45:56.000Z</time>
      </trkpt>
      <trkpt lat="42.39839698188006877899169921875" lon="-4.0522584132850170135498046875">
        <ele>804.79998779296875</ele>
        <time>2019-07-08T10:45:58.000Z</time>
      </trkpt>
      <trkpt lat="42.39820352755486965179443359375" lon="-4.0530992858111858367919921875">
        <ele>803.5999755859375</ele>
        <time>2019-07-08T10:46:00.000Z</time>
      </trkpt>
      <trkpt lat="42.39801711402833461761474609375" lon="-4.05393638648092746734619140625">
        <ele>803.4000244140625</ele>
        <time>2019-07-08T10:46:02.000Z</time>
      </trkpt>
      <trkpt lat="42.39784629084169864654541015625" lon="-4.054767787456512451171875">
        <ele>806.5999755859375</ele>
        <time>2019-07-08T10:46:04.000Z</time>
      </trkpt>
      <trkpt lat="42.3977650701999664306640625" lon="-4.055187888443470001220703125">
        <ele>809.4000244140625</ele>
        <time>2019-07-08T10:46:05.000Z</time>
      </trkpt>
      <trkpt lat="42.3976029641926288604736328125" lon="-4.05603303574025630950927734375">
        <ele>807.20001220703125</ele>
        <time>2019-07-08T10:46:07.000Z</time>
      </trkpt>
      <trkpt lat="42.3975236713886260986328125" lon="-4.056452549993991851806640625">
        <ele>804.4000244140625</ele>
        <time>2019-07-08T10:46:08.000Z</time>
      </trkpt>
      <trkpt lat="42.3974480666220188140869140625" lon="-4.056873656809329986572265625">
        <ele>803.4000244140625</ele>
        <time>2019-07-08T10:46:09.000Z</time>
      </trkpt>
      <trkpt lat="42.39737556315958499908447265625" lon="-4.05729535035789012908935546875">
        <ele>800.20001220703125</ele>
        <time>2019-07-08T10:46:10.000Z</time>
      </trkpt>
      <trkpt lat="42.397307418286800384521484375" lon="-4.0577214024960994720458984375">
        <ele>798.5999755859375</ele>
        <time>2019-07-08T10:46:11.000Z</time>
      </trkpt>
      <trkpt lat="42.39717707969248294830322265625" lon="-4.05858968384563922882080078125">
        <ele>797.4000244140625</ele>
        <time>2019-07-08T10:46:13.000Z</time>
      </trkpt>
      <trkpt lat="42.39704850129783153533935546875" lon="-4.05946626327931880950927734375">
        <ele>797.20001220703125</ele>
        <time>2019-07-08T10:46:15.000Z</time>
      </trkpt>
      <trkpt lat="42.39692746661603450775146484375" lon="-4.0603387355804443359375">
        <ele>797.4000244140625</ele>
        <time>2019-07-08T10:46:17.000Z</time>
      </trkpt>
      <trkpt lat="42.39681481383740901947021484375" lon="-4.0612035803496837615966796875">
        <ele>797.5999755859375</ele>
        <time>2019-07-08T10:46:19.000Z</time>
      </trkpt>
      <trkpt lat="42.39670836366713047027587890625" lon="-4.06206163577735424041748046875">
        <ele>797.5999755859375</ele>
        <time>2019-07-08T10:46:21.000Z</time>
      </trkpt>
      <trkpt lat="42.39660308696329593658447265625" lon="-4.06291357241570949554443359375">
        <ele>796.5999755859375</ele>
        <time>2019-07-08T10:46:23.000Z</time>
      </trkpt>
      <trkpt lat="42.39654944278299808502197265625" lon="-4.0633409656584262847900390625">
        <ele>795.5999755859375</ele>
        <time>2019-07-08T10:46:24.000Z</time>
      </trkpt>
      <trkpt lat="42.3964937031269073486328125" lon="-4.0637691132724285125732421875">
        <ele>793.4000244140625</ele>
        <time>2019-07-08T10:46:25.000Z</time>
      </trkpt>
      <trkpt lat="42.39643595181405544281005859375" lon="-4.06420044600963592529296875">
        <ele>790.79998779296875</ele>
        <time>2019-07-08T10:46:26.000Z</time>
      </trkpt>
      <trkpt lat="42.3963782005012035369873046875" lon="-4.06463320367038249969482421875">
        <ele>788.20001220703125</ele>
        <time>2019-07-08T10:46:27.000Z</time>
      </trkpt>
      <trkpt lat="42.3963220417499542236328125" lon="-4.06506705097854137420654296875">
        <ele>786.5999755859375</ele>
        <time>2019-07-08T10:46:28.000Z</time>
      </trkpt>
      <trkpt lat="42.3962665535509586334228515625" lon="-4.065501987934112548828125">
        <ele>784.5999755859375</ele>
        <time>2019-07-08T10:46:29.000Z</time>
      </trkpt>
      <trkpt lat="42.3961569182574748992919921875" lon="-4.06637303531169891357421875">
        <ele>785</ele>
        <time>2019-07-08T10:46:31.000Z</time>
      </trkpt>
      <trkpt lat="42.39605189301073551177978515625" lon="-4.06724550761282444000244140625">
        <ele>784.79998779296875</ele>
        <time>2019-07-08T10:46:33.000Z</time>
      </trkpt>
      <trkpt lat="42.39599891938269138336181640625" lon="-4.067678265273571014404296875">
        <ele>786</ele>
        <time>2019-07-08T10:46:34.000Z</time>
      </trkpt>
      <trkpt lat="42.39589221775531768798828125" lon="-4.06854202039539813995361328125">
        <ele>787.5999755859375</ele>
        <time>2019-07-08T10:46:36.000Z</time>
      </trkpt>
      <trkpt lat="42.39579976536333560943603515625" lon="-4.069408290088176727294921875">
        <ele>785.20001220703125</ele>
        <time>2019-07-08T10:46:38.000Z</time>
      </trkpt>
      <trkpt lat="42.39570521749556064605712890625" lon="-4.07028160057961940765380859375">
        <ele>784.20001220703125</ele>
        <time>2019-07-08T10:46:40.000Z</time>
      </trkpt>
      <trkpt lat="42.395596839487552642822265625" lon="-4.07115683890879154205322265625">
        <ele>782.4000244140625</ele>
        <time>2019-07-08T10:46:42.000Z</time>
      </trkpt>
      <trkpt lat="42.39548745565116405487060546875" lon="-4.07203878276050090789794921875">
        <ele>781.5999755859375</ele>
        <time>2019-07-08T10:46:44.000Z</time>
      </trkpt>
      <trkpt lat="42.3954327218234539031982421875" lon="-4.07248302362859249114990234375">
        <ele>781.4000244140625</ele>
        <time>2019-07-08T10:46:45.000Z</time>
      </trkpt>
      <trkpt lat="42.39532182924449443817138671875" lon="-4.0733784623444080352783203125">
        <ele>780.4000244140625</ele>
        <time>2019-07-08T10:46:47.000Z</time>
      </trkpt>
      <trkpt lat="42.395209930837154388427734375" lon="-4.07426367513835430145263671875">
        <ele>780.5999755859375</ele>
        <time>2019-07-08T10:46:49.000Z</time>
      </trkpt>
      <trkpt lat="42.395100295543670654296875" lon="-4.07512952573597431182861328125">
        <ele>780.5999755859375</ele>
        <time>2019-07-08T10:46:51.000Z</time>
      </trkpt>
      <trkpt lat="42.39499527029693126678466796875" lon="-4.07597676850855350494384765625">
        <ele>779.5999755859375</ele>
        <time>2019-07-08T10:46:53.000Z</time>
      </trkpt>
      <trkpt lat="42.39489485509693622589111328125" lon="-4.07682023942470550537109375">
        <ele>778.79998779296875</ele>
        <time>2019-07-08T10:46:55.000Z</time>
      </trkpt>
      <trkpt lat="42.3947950266301631927490234375" lon="-4.0776673145592212677001953125">
        <ele>777.79998779296875</ele>
        <time>2019-07-08T10:46:57.000Z</time>
      </trkpt>
      <trkpt lat="42.39474398083984851837158203125" lon="-4.078091271221637725830078125">
        <ele>777.20001220703125</ele>
        <time>2019-07-08T10:46:58.000Z</time>
      </trkpt>
      <trkpt lat="42.3946387879550457000732421875" lon="-4.0789411962032318115234375">
        <ele>778</ele>
        <time>2019-07-08T10:47:00.000Z</time>
      </trkpt>
      <trkpt lat="42.3945838026702404022216796875" lon="-4.07936674542725086212158203125">
        <ele>778.20001220703125</ele>
        <time>2019-07-08T10:47:01.000Z</time>
      </trkpt>
      <trkpt lat="42.39452957175672054290771484375" lon="-4.0797922946512699127197265625">
        <ele>785.20001220703125</ele>
        <time>2019-07-08T10:47:02.000Z</time>
      </trkpt>
      <trkpt lat="42.3944755084812641143798828125" lon="-4.0802179276943206787109375">
        <ele>795.5999755859375</ele>
        <time>2019-07-08T10:47:03.000Z</time>
      </trkpt>
      <trkpt lat="42.3944218643009662628173828125" lon="-4.08064297400414943695068359375">
        <ele>806.4000244140625</ele>
        <time>2019-07-08T10:47:04.000Z</time>
      </trkpt>
      <trkpt lat="42.394370399415493011474609375" lon="-4.0810693614184856414794921875">
        <ele>812</ele>
        <time>2019-07-08T10:47:05.000Z</time>
      </trkpt>
      <trkpt lat="42.394319437444210052490234375" lon="-4.08149507828056812286376953125">
        <ele>814.5999755859375</ele>
        <time>2019-07-08T10:47:06.000Z</time>
      </trkpt>
      <trkpt lat="42.39421625621616840362548828125" lon="-4.0823502838611602783203125">
        <ele>814.20001220703125</ele>
        <time>2019-07-08T10:47:08.000Z</time>
      </trkpt>
      <trkpt lat="42.39416445605456829071044921875" lon="-4.0827792696654796600341796875">
        <ele>812.5999755859375</ele>
        <time>2019-07-08T10:47:09.000Z</time>
      </trkpt>
      <trkpt lat="42.3941110633313655853271484375" lon="-4.0832097642123699188232421875">
        <ele>805.5999755859375</ele>
        <time>2019-07-08T10:47:10.000Z</time>
      </trkpt>
      <trkpt lat="42.39405666477978229522705078125" lon="-4.08364168368279933929443359375">
        <ele>796</ele>
        <time>2019-07-08T10:47:11.000Z</time>
      </trkpt>
      <trkpt lat="42.39400318823754787445068359375" lon="-4.08407201059162616729736328125">
        <ele>786.4000244140625</ele>
        <time>2019-07-08T10:47:12.000Z</time>
      </trkpt>
      <trkpt lat="42.39395088516175746917724609375" lon="-4.0845009125769138336181640625">
        <ele>781.5999755859375</ele>
        <time>2019-07-08T10:47:13.000Z</time>
      </trkpt>
      <trkpt lat="42.39389958791434764862060546875" lon="-4.0849293954670429229736328125">
        <ele>778</ele>
        <time>2019-07-08T10:47:14.000Z</time>
      </trkpt>
      <trkpt lat="42.39380143582820892333984375" lon="-4.0857877023518085479736328125">
        <ele>778</ele>
        <time>2019-07-08T10:47:16.000Z</time>
      </trkpt>
      <trkpt lat="42.39371099509298801422119140625" lon="-4.0866525471210479736328125">
        <ele>778</ele>
        <time>2019-07-08T10:47:18.000Z</time>
      </trkpt>
      <trkpt lat="42.39363036118447780609130859375" lon="-4.08752351067960262298583984375">
        <ele>775.5999755859375</ele>
        <time>2019-07-08T10:47:20.000Z</time>
      </trkpt>
      <trkpt lat="42.3935571871697902679443359375" lon="-4.0883934684097766876220703125">
        <ele>775.4000244140625</ele>
        <time>2019-07-08T10:47:22.000Z</time>
      </trkpt>
      <trkpt lat="42.3934921436011791229248046875" lon="-4.08926275558769702911376953125">
        <ele>775.79998779296875</ele>
        <time>2019-07-08T10:47:24.000Z</time>
      </trkpt>
      <trkpt lat="42.39346490241587162017822265625" lon="-4.08970012329518795013427734375">
        <ele>777.4000244140625</ele>
        <time>2019-07-08T10:47:25.000Z</time>
      </trkpt>
      <trkpt lat="42.39344109781086444854736328125" lon="-4.090139083564281463623046875">
        <ele>779.79998779296875</ele>
        <time>2019-07-08T10:47:26.000Z</time>
      </trkpt>
      <trkpt lat="42.39342098124325275421142578125" lon="-4.0905784629285335540771484375">
        <ele>781.4000244140625</ele>
        <time>2019-07-08T10:47:27.000Z</time>
      </trkpt>
      <trkpt lat="42.39339181222021579742431640625" lon="-4.09145965240895748138427734375">
        <ele>781.5999755859375</ele>
        <time>2019-07-08T10:47:29.000Z</time>
      </trkpt>
      <trkpt lat="42.3933697678148746490478515625" lon="-4.09234679304063320159912109375">
        <ele>781.20001220703125</ele>
        <time>2019-07-08T10:47:31.000Z</time>
      </trkpt>
      <trkpt lat="42.39335996098816394805908203125" lon="-4.0932375378906726837158203125">
        <ele>780.4000244140625</ele>
        <time>2019-07-08T10:47:33.000Z</time>
      </trkpt>
      <trkpt lat="42.39336012862622737884521484375" lon="-4.0936839580535888671875">
        <ele>779.79998779296875</ele>
        <time>2019-07-08T10:47:34.000Z</time>
      </trkpt>
      <trkpt lat="42.393371276557445526123046875" lon="-4.09457604400813579559326171875">
        <ele>779</ele>
        <time>2019-07-08T10:47:36.000Z</time>
      </trkpt>
      <trkpt lat="42.39338074810802936553955078125" lon="-4.0950210392475128173828125">
        <ele>778.79998779296875</ele>
        <time>2019-07-08T10:47:37.000Z</time>
      </trkpt>
      <trkpt lat="42.39340849220752716064453125" lon="-4.09590541385114192962646484375">
        <ele>778.5999755859375</ele>
        <time>2019-07-08T10:47:39.000Z</time>
      </trkpt>
      <trkpt lat="42.3934264294803142547607421875" lon="-4.0963432006537914276123046875">
        <ele>780.79998779296875</ele>
        <time>2019-07-08T10:47:40.000Z</time>
      </trkpt>
      <trkpt lat="42.39344696514308452606201171875" lon="-4.0967767126858234405517578125">
        <ele>784</ele>
        <time>2019-07-08T10:47:41.000Z</time>
      </trkpt>
      <trkpt lat="42.39347060211002826690673828125" lon="-4.09720611758530139923095703125">
        <ele>787.5999755859375</ele>
        <time>2019-07-08T10:47:42.000Z</time>
      </trkpt>
      <trkpt lat="42.39349809475243091583251953125" lon="-4.09763392992317676544189453125">
        <ele>790.4000244140625</ele>
        <time>2019-07-08T10:47:43.000Z</time>
      </trkpt>
      <trkpt lat="42.39352826960384845733642578125" lon="-4.09805989824235439300537109375">
        <ele>792.4000244140625</ele>
        <time>2019-07-08T10:47:44.000Z</time>
      </trkpt>
      <trkpt lat="42.39356146194040775299072265625" lon="-4.09848636947572231292724609375">
        <ele>794.20001220703125</ele>
        <time>2019-07-08T10:47:45.000Z</time>
      </trkpt>
      <trkpt lat="42.39363455213606357574462890625" lon="-4.09933931194245815277099609375">
        <ele>795.5999755859375</ele>
        <time>2019-07-08T10:47:47.000Z</time>
      </trkpt>
      <trkpt lat="42.39367361180484294891357421875" lon="-4.09976561553776264190673828125">
        <ele>796.79998779296875</ele>
        <time>2019-07-08T10:47:48.000Z</time>
      </trkpt>
      <trkpt lat="42.3937596939504146575927734375" lon="-4.100619144737720489501953125">
        <ele>796</ele>
        <time>2019-07-08T10:47:50.000Z</time>
      </trkpt>
      <trkpt lat="42.393809817731380462646484375" lon="-4.10104595124721527099609375">
        <ele>795.4000244140625</ele>
        <time>2019-07-08T10:47:51.000Z</time>
      </trkpt>
      <trkpt lat="42.39392087794840335845947265625" lon="-4.10189696587622165679931640625">
        <ele>793.5999755859375</ele>
        <time>2019-07-08T10:47:53.000Z</time>
      </trkpt>
      <trkpt lat="42.3940406553447246551513671875" lon="-4.1027506627142429351806640625">
        <ele>792.20001220703125</ele>
        <time>2019-07-08T10:47:55.000Z</time>
      </trkpt>
      <trkpt lat="42.3941704072058200836181640625" lon="-4.10360536538064479827880859375">
        <ele>791</ele>
        <time>2019-07-08T10:47:57.000Z</time>
      </trkpt>
      <trkpt lat="42.3943135701119899749755859375" lon="-4.1044656001031398773193359375">
        <ele>789.79998779296875</ele>
        <time>2019-07-08T10:47:59.000Z</time>
      </trkpt>
      <trkpt lat="42.39439059980213642120361328125" lon="-4.104897938668727874755859375">
        <ele>791</ele>
        <time>2019-07-08T10:48:00.000Z</time>
      </trkpt>
      <trkpt lat="42.39455513656139373779296875" lon="-4.105761945247650146484375">
        <ele>791.5999755859375</ele>
        <time>2019-07-08T10:48:02.000Z</time>
      </trkpt>
      <trkpt lat="42.394644655287265777587890625" lon="-4.10619704984128475189208984375">
        <ele>793.5999755859375</ele>
        <time>2019-07-08T10:48:03.000Z</time>
      </trkpt>
      <trkpt lat="42.3947360180318355560302734375" lon="-4.1066323220729827880859375">
        <ele>794.5999755859375</ele>
        <time>2019-07-08T10:48:04.000Z</time>
      </trkpt>
      <trkpt lat="42.39491815678775310516357421875" lon="-4.10749540664255619049072265625">
        <ele>793.20001220703125</ele>
        <time>2019-07-08T10:48:06.000Z</time>
      </trkpt>
      <trkpt lat="42.39501119591295719146728515625" lon="-4.10792313516139984130859375">
        <ele>790.4000244140625</ele>
        <time>2019-07-08T10:48:07.000Z</time>
      </trkpt>
      <trkpt lat="42.39510633051395416259765625" lon="-4.10834851674735546112060546875">
        <ele>789</ele>
        <time>2019-07-08T10:48:08.000Z</time>
      </trkpt>
      <trkpt lat="42.395203225314617156982421875" lon="-4.10877029411494731903076171875">
        <ele>792</ele>
        <time>2019-07-08T10:48:09.000Z</time>
      </trkpt>
      <trkpt lat="42.39530154503881931304931640625" lon="-4.10919123329222202301025390625">
        <ele>795.20001220703125</ele>
        <time>2019-07-08T10:48:10.000Z</time>
      </trkpt>
      <trkpt lat="42.3953993618488311767578125" lon="-4.1096104122698307037353515625">
        <ele>801.79998779296875</ele>
        <time>2019-07-08T10:48:11.000Z</time>
      </trkpt>
      <trkpt lat="42.3954981006681919097900390625" lon="-4.1100271604955196380615234375">
        <ele>808.79998779296875</ele>
        <time>2019-07-08T10:48:12.000Z</time>
      </trkpt>
      <trkpt lat="42.39559809677302837371826171875" lon="-4.1104423999786376953125">
        <ele>813</ele>
        <time>2019-07-08T10:48:13.000Z</time>
      </trkpt>
      <trkpt lat="42.3956952430307865142822265625" lon="-4.11085537634789943695068359375">
        <ele>815.5999755859375</ele>
        <time>2019-07-08T10:48:14.000Z</time>
      </trkpt>
      <trkpt lat="42.39578953944146633148193359375" lon="-4.11126407794654369354248046875">
        <ele>817</ele>
        <time>2019-07-08T10:48:15.000Z</time>
      </trkpt>
      <trkpt lat="42.395974360406398773193359375" lon="-4.11207787692546844482421875">
        <ele>817.4000244140625</ele>
        <time>2019-07-08T10:48:17.000Z</time>
      </trkpt>
      <trkpt lat="42.396162115037441253662109375" lon="-4.112886898219585418701171875">
        <ele>811.20001220703125</ele>
        <time>2019-07-08T10:48:19.000Z</time>
      </trkpt>
      <trkpt lat="42.396255992352962493896484375" lon="-4.11328813992440700531005859375">
        <ele>803.4000244140625</ele>
        <time>2019-07-08T10:48:20.000Z</time>
      </trkpt>
      <trkpt lat="42.39634928293526172637939453125" lon="-4.11368720233440399169921875">
        <ele>795.20001220703125</ele>
        <time>2019-07-08T10:48:21.000Z</time>
      </trkpt>
      <trkpt lat="42.396442405879497528076171875" lon="-4.114085175096988677978515625">
        <ele>791.20001220703125</ele>
        <time>2019-07-08T10:48:22.000Z</time>
      </trkpt>
      <trkpt lat="42.39653334952890872955322265625" lon="-4.11448306404054164886474609375">
        <ele>788.4000244140625</ele>
        <time>2019-07-08T10:48:23.000Z</time>
      </trkpt>
      <trkpt lat="42.3967141471803188323974609375" lon="-4.11527230404317378997802734375">
        <ele>787.20001220703125</ele>
        <time>2019-07-08T10:48:25.000Z</time>
      </trkpt>
      <trkpt lat="42.3968931846320629119873046875" lon="-4.11604109220206737518310546875">
        <ele>785.79998779296875</ele>
        <time>2019-07-08T10:48:27.000Z</time>
      </trkpt>
      <trkpt lat="42.3970655165612697601318359375" lon="-4.11678850650787353515625">
        <ele>786</ele>
        <time>2019-07-08T10:48:29.000Z</time>
      </trkpt>
      <trkpt lat="42.39714941941201686859130859375" lon="-4.1171554662287235260009765625">
        <ele>787.20001220703125</ele>
        <time>2019-07-08T10:48:30.000Z</time>
      </trkpt>
      <trkpt lat="42.39723466336727142333984375" lon="-4.1175194084644317626953125">
        <ele>788.5999755859375</ele>
        <time>2019-07-08T10:48:31.000Z</time>
      </trkpt>
      <trkpt lat="42.39732091315090656280517578125" lon="-4.11788485944271087646484375">
        <ele>790.20001220703125</ele>
        <time>2019-07-08T10:48:32.000Z</time>
      </trkpt>
      <trkpt lat="42.39749274216592311859130859375" lon="-4.11863026209175586700439453125">
        <ele>791.4000244140625</ele>
        <time>2019-07-08T10:48:34.000Z</time>
      </trkpt>
      <trkpt lat="42.39766054786741733551025390625" lon="-4.11940298974514007568359375">
        <ele>792.79998779296875</ele>
        <time>2019-07-08T10:48:36.000Z</time>
      </trkpt>
      <trkpt lat="42.39774537272751331329345703125" lon="-4.11979685537517070770263671875">
        <ele>793.79998779296875</ele>
        <time>2019-07-08T10:48:37.000Z</time>
      </trkpt>
      <trkpt lat="42.397915609180927276611328125" lon="-4.12059447728097438812255859375">
        <ele>794.4000244140625</ele>
        <time>2019-07-08T10:48:39.000Z</time>
      </trkpt>
      <trkpt lat="42.39800051786005496978759765625" lon="-4.1209987364709377288818359375">
        <ele>794.79998779296875</ele>
        <time>2019-07-08T10:48:40.000Z</time>
      </trkpt>
      <trkpt lat="42.398164384067058563232421875" lon="-4.12181957624852657318115234375">
        <ele>795</ele>
        <time>2019-07-08T10:48:42.000Z</time>
      </trkpt>
      <trkpt lat="42.39832456223666667938232421875" lon="-4.12265676073729991912841796875">
        <ele>794.5999755859375</ele>
        <time>2019-07-08T10:48:44.000Z</time>
      </trkpt>
      <trkpt lat="42.39847979508340358734130859375" lon="-4.1235002316534519195556640625">
        <ele>794</ele>
        <time>2019-07-08T10:48:46.000Z</time>
      </trkpt>
      <trkpt lat="42.39855389110743999481201171875" lon="-4.12392293103039264678955078125">
        <ele>793.5999755859375</ele>
        <time>2019-07-08T10:48:47.000Z</time>
      </trkpt>
      <trkpt lat="42.39869780838489532470703125" lon="-4.124771095812320709228515625">
        <ele>794</ele>
        <time>2019-07-08T10:48:49.000Z</time>
      </trkpt>
      <trkpt lat="42.398840971291065216064453125" lon="-4.1256211884319782257080078125">
        <ele>794.5999755859375</ele>
        <time>2019-07-08T10:48:51.000Z</time>
      </trkpt>
      <trkpt lat="42.39897399209439754486083984375" lon="-4.12646901793777942657470703125">
        <ele>795</ele>
        <time>2019-07-08T10:48:53.000Z</time>
      </trkpt>
      <trkpt lat="42.39909611642360687255859375" lon="-4.12731709890067577362060546875">
        <ele>795.4000244140625</ele>
        <time>2019-07-08T10:48:55.000Z</time>
      </trkpt>
      <trkpt lat="42.39915487356483936309814453125" lon="-4.12774206139147281646728515625">
        <ele>796.20001220703125</ele>
        <time>2019-07-08T10:48:56.000Z</time>
      </trkpt>
      <trkpt lat="42.3992716334760189056396484375" lon="-4.12858896888792514801025390625">
        <ele>796.4000244140625</ele>
        <time>2019-07-08T10:48:58.000Z</time>
      </trkpt>
      <trkpt lat="42.3993272893130779266357421875" lon="-4.12901091389358043670654296875">
        <ele>797.4000244140625</ele>
        <time>2019-07-08T10:48:59.000Z</time>
      </trkpt>
      <trkpt lat="42.39943097345530986785888671875" lon="-4.129851199686527252197265625">
        <ele>797</ele>
        <time>2019-07-08T10:49:01.000Z</time>
      </trkpt>
      <trkpt lat="42.3994795046746730804443359375" lon="-4.13026752881705760955810546875">
        <ele>797</ele>
        <time>2019-07-08T10:49:02.000Z</time>
      </trkpt>
      <trkpt lat="42.3995720408856868743896484375" lon="-4.13109742105007171630859375">
        <ele>797.79998779296875</ele>
        <time>2019-07-08T10:49:04.000Z</time>
      </trkpt>
      <trkpt lat="42.39961638115346431732177734375" lon="-4.13151710294187068939208984375">
        <ele>798.79998779296875</ele>
        <time>2019-07-08T10:49:05.000Z</time>
      </trkpt>
      <trkpt lat="42.39970154128968715667724609375" lon="-4.13235998712480068206787109375">
        <ele>799.5999755859375</ele>
        <time>2019-07-08T10:49:07.000Z</time>
      </trkpt>
      <trkpt lat="42.3997413553297519683837890625" lon="-4.1327857039868831634521484375">
        <ele>800</ele>
        <time>2019-07-08T10:49:08.000Z</time>
      </trkpt>
      <trkpt lat="42.39981771446764469146728515625" lon="-4.13364417850971221923828125">
        <ele>799.79998779296875</ele>
        <time>2019-07-08T10:49:10.000Z</time>
      </trkpt>
      <trkpt lat="42.39988795481622219085693359375" lon="-4.13450726307928562164306640625">
        <ele>801</ele>
        <time>2019-07-08T10:49:12.000Z</time>
      </trkpt>
      <trkpt lat="42.399952746927738189697265625" lon="-4.13537152111530303955078125">
        <ele>801.79998779296875</ele>
        <time>2019-07-08T10:49:14.000Z</time>
      </trkpt>
      <trkpt lat="42.39998334087431430816650390625" lon="-4.13580360822379589080810546875">
        <ele>802.20001220703125</ele>
        <time>2019-07-08T10:49:15.000Z</time>
      </trkpt>
      <trkpt lat="42.4000377394258975982666015625" lon="-4.1366668604314327239990234375">
        <ele>802.5999755859375</ele>
        <time>2019-07-08T10:49:17.000Z</time>
      </trkpt>
      <trkpt lat="42.40008585155010223388671875" lon="-4.1375286877155303955078125">
        <ele>802.4000244140625</ele>
        <time>2019-07-08T10:49:19.000Z</time>
      </trkpt>
      <trkpt lat="42.40012801252305507659912109375" lon="-4.1383896768093109130859375">
        <ele>802.5999755859375</ele>
        <time>2019-07-08T10:49:21.000Z</time>
      </trkpt>
      <trkpt lat="42.4001621268689632415771484375" lon="-4.1392471455037593841552734375">
        <ele>802.79998779296875</ele>
        <time>2019-07-08T10:49:23.000Z</time>
      </trkpt>
      <trkpt lat="42.4001763761043548583984375" lon="-4.1396762989461421966552734375">
        <ele>803.4000244140625</ele>
        <time>2019-07-08T10:49:24.000Z</time>
      </trkpt>
      <trkpt lat="42.40020177327096462249755859375" lon="-4.14053452201187610626220703125">
        <ele>803.20001220703125</ele>
        <time>2019-07-08T10:49:26.000Z</time>
      </trkpt>
      <trkpt lat="42.40021937526762485504150390625" lon="-4.141390733420848846435546875">
        <ele>804</ele>
        <time>2019-07-08T10:49:28.000Z</time>
      </trkpt>
      <trkpt lat="42.4002321995794773101806640625" lon="-4.14225147105753421783447265625">
        <ele>804.20001220703125</ele>
        <time>2019-07-08T10:49:30.000Z</time>
      </trkpt>
      <trkpt lat="42.400237731635570526123046875" lon="-4.14311237633228302001953125">
        <ele>803.20001220703125</ele>
        <time>2019-07-08T10:49:32.000Z</time>
      </trkpt>
      <trkpt lat="42.40023680962622165679931640625" lon="-4.143976382911205291748046875">
        <ele>802.4000244140625</ele>
        <time>2019-07-08T10:49:34.000Z</time>
      </trkpt>
      <trkpt lat="42.40023312158882617950439453125" lon="-4.1444085538387298583984375">
        <ele>802.20001220703125</ele>
        <time>2019-07-08T10:49:35.000Z</time>
      </trkpt>
      <trkpt lat="42.40022172220051288604736328125" lon="-4.145265519618988037109375">
        <ele>800.79998779296875</ele>
        <time>2019-07-08T10:49:37.000Z</time>
      </trkpt>
      <trkpt lat="42.40020562894642353057861328125" lon="-4.146110080182552337646484375">
        <ele>800.20001220703125</ele>
        <time>2019-07-08T10:49:39.000Z</time>
      </trkpt>
      <trkpt lat="42.400186099112033843994140625" lon="-4.14694919250905513763427734375">
        <ele>799.4000244140625</ele>
        <time>2019-07-08T10:49:41.000Z</time>
      </trkpt>
      <trkpt lat="42.40017562173306941986083984375" lon="-4.1473705507814884185791015625">
        <ele>798.4000244140625</ele>
        <time>2019-07-08T10:49:42.000Z</time>
      </trkpt>
      <trkpt lat="42.40015818737447261810302734375" lon="-4.14822156541049480438232421875">
        <ele>798</ele>
        <time>2019-07-08T10:49:44.000Z</time>
      </trkpt>
      <trkpt lat="42.40014863200485706329345703125" lon="-4.149080626666545867919921875">
        <ele>798.20001220703125</ele>
        <time>2019-07-08T10:49:46.000Z</time>
      </trkpt>
      <trkpt lat="42.4001460336148738861083984375" lon="-4.149942286312580108642578125">
        <ele>797.20001220703125</ele>
        <time>2019-07-08T10:49:48.000Z</time>
      </trkpt>
      <trkpt lat="42.40015047602355480194091796875" lon="-4.150799922645092010498046875">
        <ele>796.5999755859375</ele>
        <time>2019-07-08T10:49:50.000Z</time>
      </trkpt>
      <trkpt lat="42.40015684626996517181396484375" lon="-4.151225388050079345703125">
        <ele>796.20001220703125</ele>
        <time>2019-07-08T10:49:51.000Z</time>
      </trkpt>
      <trkpt lat="42.40017327480018138885498046875" lon="-4.1520743072032928466796875">
        <ele>795.5999755859375</ele>
        <time>2019-07-08T10:49:53.000Z</time>
      </trkpt>
      <trkpt lat="42.4001916311681270599365234375" lon="-4.15292196907103061676025390625">
        <ele>795.5999755859375</ele>
        <time>2019-07-08T10:49:55.000Z</time>
      </trkpt>
      <trkpt lat="42.4002013541758060455322265625" lon="-4.1533471830189228057861328125">
        <ele>794.79998779296875</ele>
        <time>2019-07-08T10:49:56.000Z</time>
      </trkpt>
      <trkpt lat="42.40022532641887664794921875" lon="-4.1542028076946735382080078125">
        <ele>795.20001220703125</ele>
        <time>2019-07-08T10:49:58.000Z</time>
      </trkpt>
      <trkpt lat="42.40025910548865795135498046875" lon="-4.1550649702548980712890625">
        <ele>795.79998779296875</ele>
        <time>2019-07-08T10:50:00.000Z</time>
      </trkpt>
      <trkpt lat="42.40029699169099330902099609375" lon="-4.15592956356704235076904296875">
        <ele>796</ele>
        <time>2019-07-08T10:50:02.000Z</time>
      </trkpt>
      <trkpt lat="42.400342337787151336669921875" lon="-4.15679574944078922271728515625">
        <ele>796.20001220703125</ele>
        <time>2019-07-08T10:50:04.000Z</time>
      </trkpt>
      <trkpt lat="42.40039505995810031890869140625" lon="-4.1576615162193775177001953125">
        <ele>802.20001220703125</ele>
        <time>2019-07-08T10:50:06.000Z</time>
      </trkpt>
      <trkpt lat="42.400422804057598114013671875" lon="-4.1580958664417266845703125">
        <ele>809.5999755859375</ele>
        <time>2019-07-08T10:50:07.000Z</time>
      </trkpt>
      <trkpt lat="42.40045205689966678619384765625" lon="-4.158530049026012420654296875">
        <ele>818.4000244140625</ele>
        <time>2019-07-08T10:50:08.000Z</time>
      </trkpt>
      <trkpt lat="42.40048415958881378173828125" lon="-4.15896146558225154876708984375">
        <ele>822.79998779296875</ele>
        <time>2019-07-08T10:50:09.000Z</time>
      </trkpt>
      <trkpt lat="42.40051743574440479278564453125" lon="-4.15939296595752239227294921875">
        <ele>825.4000244140625</ele>
        <time>2019-07-08T10:50:10.000Z</time>
      </trkpt>
      <trkpt lat="42.400551550090312957763671875" lon="-4.1598217003047466278076171875">
        <ele>826.79998779296875</ele>
        <time>2019-07-08T10:50:11.000Z</time>
      </trkpt>
      <trkpt lat="42.40062422119081020355224609375" lon="-4.16067321784794330596923828125">
        <ele>826.79998779296875</ele>
        <time>2019-07-08T10:50:13.000Z</time>
      </trkpt>
      <trkpt lat="42.40070267580449581146240234375" lon="-4.16152213700115680694580078125">
        <ele>817.5999755859375</ele>
        <time>2019-07-08T10:50:15.000Z</time>
      </trkpt>
      <trkpt lat="42.400743998587131500244140625" lon="-4.16194550693035125732421875">
        <ele>808</ele>
        <time>2019-07-08T10:50:16.000Z</time>
      </trkpt>
      <trkpt lat="42.4007877521216869354248046875" lon="-4.162369631230831146240234375">
        <ele>797.20001220703125</ele>
        <time>2019-07-08T10:50:17.000Z</time>
      </trkpt>
      <trkpt lat="42.40083343349397182464599609375" lon="-4.1627929173409938812255859375">
        <ele>789.79998779296875</ele>
        <time>2019-07-08T10:50:18.000Z</time>
      </trkpt>
      <trkpt lat="42.40088003687560558319091796875" lon="-4.16321511380374431610107421875">
        <ele>786.20001220703125</ele>
        <time>2019-07-08T10:50:19.000Z</time>
      </trkpt>
      <trkpt lat="42.400928400456905364990234375" lon="-4.1636364720761775970458984375">
        <ele>784.79998779296875</ele>
        <time>2019-07-08T10:50:20.000Z</time>
      </trkpt>
      <trkpt lat="42.4010291509330272674560546875" lon="-4.164480529725551605224609375">
        <ele>785.5999755859375</ele>
        <time>2019-07-08T10:50:22.000Z</time>
      </trkpt>
      <trkpt lat="42.40113602019846439361572265625" lon="-4.16532752104103565216064453125">
        <ele>785.5999755859375</ele>
        <time>2019-07-08T10:50:24.000Z</time>
      </trkpt>
      <trkpt lat="42.401191927492618560791015625" lon="-4.16575265116989612579345703125">
        <ele>786</ele>
        <time>2019-07-08T10:50:25.000Z</time>
      </trkpt>
      <trkpt lat="42.40130902267992496490478515625" lon="-4.16660257615149021148681640625">
        <ele>785.79998779296875</ele>
        <time>2019-07-08T10:50:27.000Z</time>
      </trkpt>
      <trkpt lat="42.40136736072599887847900390625" lon="-4.167029298841953277587890625">
        <ele>785</ele>
        <time>2019-07-08T10:50:28.000Z</time>
      </trkpt>
      <trkpt lat="42.40142703987658023834228515625" lon="-4.1674545966088771820068359375">
        <ele>783.20001220703125</ele>
        <time>2019-07-08T10:50:29.000Z</time>
      </trkpt>
      <trkpt lat="42.40155494771897792816162109375" lon="-4.1683041863143444061279296875">
        <ele>781.79998779296875</ele>
        <time>2019-07-08T10:50:31.000Z</time>
      </trkpt>
      <trkpt lat="42.40162133239209651947021484375" lon="-4.16873007081449031829833984375">
        <ele>780.4000244140625</ele>
        <time>2019-07-08T10:50:32.000Z</time>
      </trkpt>
      <trkpt lat="42.40175175480544567108154296875" lon="-4.16958971880376338958740234375">
        <ele>780.20001220703125</ele>
        <time>2019-07-08T10:50:34.000Z</time>
      </trkpt>
      <trkpt lat="42.4018178880214691162109375" lon="-4.17002390138804912567138671875">
        <ele>781.5999755859375</ele>
        <time>2019-07-08T10:50:35.000Z</time>
      </trkpt>
      <trkpt lat="42.40188703872263431549072265625" lon="-4.1704590059816837310791015625">
        <ele>783.79998779296875</ele>
        <time>2019-07-08T10:50:36.000Z</time>
      </trkpt>
      <trkpt lat="42.40203087218105792999267578125" lon="-4.171324186027050018310546875">
        <ele>784</ele>
        <time>2019-07-08T10:50:38.000Z</time>
      </trkpt>
      <trkpt lat="42.4021053873002529144287109375" lon="-4.1717528365552425384521484375">
        <ele>785.4000244140625</ele>
        <time>2019-07-08T10:50:39.000Z</time>
      </trkpt>
      <trkpt lat="42.40226606838405132293701171875" lon="-4.1725943796336650848388671875">
        <ele>786.4000244140625</ele>
        <time>2019-07-08T10:50:41.000Z</time>
      </trkpt>
      <trkpt lat="42.40244359709322452545166015625" lon="-4.1734194941818714141845703125">
        <ele>783.20001220703125</ele>
        <time>2019-07-08T10:50:43.000Z</time>
      </trkpt>
      <trkpt lat="42.40253026597201824188232421875" lon="-4.17383263818919658660888671875">
        <ele>781.79998779296875</ele>
        <time>2019-07-08T10:50:44.000Z</time>
      </trkpt>
      <trkpt lat="42.4026958085596561431884765625" lon="-4.17466764338314533233642578125">
        <ele>779.20001220703125</ele>
        <time>2019-07-08T10:50:46.000Z</time>
      </trkpt>
      <trkpt lat="42.40277619101107120513916015625" lon="-4.17508724145591259002685546875">
        <ele>777.4000244140625</ele>
        <time>2019-07-08T10:50:47.000Z</time>
      </trkpt>
      <trkpt lat="42.4028547294437885284423828125" lon="-4.17550809681415557861328125">
        <ele>776.20001220703125</ele>
        <time>2019-07-08T10:50:48.000Z</time>
      </trkpt>
      <trkpt lat="42.40300971083343029022216796875" lon="-4.176353998482227325439453125">
        <ele>775.5999755859375</ele>
        <time>2019-07-08T10:50:50.000Z</time>
      </trkpt>
      <trkpt lat="42.4031591601669788360595703125" lon="-4.1772012412548065185546875">
        <ele>780.79998779296875</ele>
        <time>2019-07-08T10:50:52.000Z</time>
      </trkpt>
      <trkpt lat="42.4032295681536197662353515625" lon="-4.1776295565068721771240234375">
        <ele>788.5999755859375</ele>
        <time>2019-07-08T10:50:53.000Z</time>
      </trkpt>
      <trkpt lat="42.40329637192189693450927734375" lon="-4.17805929668247699737548828125">
        <ele>792.5999755859375</ele>
        <time>2019-07-08T10:50:54.000Z</time>
      </trkpt>
      <trkpt lat="42.4033616669476032257080078125" lon="-4.17848928831517696380615234375">
        <ele>794.5999755859375</ele>
        <time>2019-07-08T10:50:55.000Z</time>
      </trkpt>
      <trkpt lat="42.40342427976429462432861328125" lon="-4.17891944758594036102294921875">
        <ele>795.5999755859375</ele>
        <time>2019-07-08T10:50:56.000Z</time>
      </trkpt>
      <trkpt lat="42.40348421037197113037109375" lon="-4.17934860102832317352294921875">
        <ele>791.4000244140625</ele>
        <time>2019-07-08T10:50:57.000Z</time>
      </trkpt>
      <trkpt lat="42.40354179404675960540771484375" lon="-4.17977658100426197052001953125">
        <ele>784.4000244140625</ele>
        <time>2019-07-08T10:50:58.000Z</time>
      </trkpt>
      <trkpt lat="42.40359426476061344146728515625" lon="-4.1802034713327884674072265625">
        <ele>780.79998779296875</ele>
        <time>2019-07-08T10:50:59.000Z</time>
      </trkpt>
      <trkpt lat="42.40364355035126209259033203125" lon="-4.18062784709036350250244140625">
        <ele>778.4000244140625</ele>
        <time>2019-07-08T10:51:00.000Z</time>
      </trkpt>
      <trkpt lat="42.40369015373289585113525390625" lon="-4.1810497082769870758056640625">
        <ele>777.4000244140625</ele>
        <time>2019-07-08T10:51:01.000Z</time>
      </trkpt>
      <trkpt lat="42.4037737213075160980224609375" lon="-4.1818932630121707916259765625">
        <ele>778.20001220703125</ele>
        <time>2019-07-08T10:51:03.000Z</time>
      </trkpt>
      <trkpt lat="42.4038069136440753936767578125" lon="-4.18231747113168239593505859375">
        <ele>779</ele>
        <time>2019-07-08T10:51:04.000Z</time>
      </trkpt>
      <trkpt lat="42.40383683703839778900146484375" lon="-4.18274327181279659271240234375">
        <ele>780.5999755859375</ele>
        <time>2019-07-08T10:51:05.000Z</time>
      </trkpt>
      <trkpt lat="42.4038655869662761688232421875" lon="-4.18317208997905254364013671875">
        <ele>782.20001220703125</ele>
        <time>2019-07-08T10:51:06.000Z</time>
      </trkpt>
      <trkpt lat="42.40389198996126651763916015625" lon="-4.1836025007069110870361328125">
        <ele>783.4000244140625</ele>
        <time>2019-07-08T10:51:07.000Z</time>
      </trkpt>
      <trkpt lat="42.40393507294356822967529296875" lon="-4.1844675131142139434814453125">
        <ele>784.5999755859375</ele>
        <time>2019-07-08T10:51:09.000Z</time>
      </trkpt>
      <trkpt lat="42.40396055392920970916748046875" lon="-4.18533914722502231597900390625">
        <ele>783</ele>
        <time>2019-07-08T10:51:11.000Z</time>
      </trkpt>
      <trkpt lat="42.4039745517075061798095703125" lon="-4.18621371500194072723388671875">
        <ele>782</ele>
        <time>2019-07-08T10:51:13.000Z</time>
      </trkpt>
      <trkpt lat="42.40397865884006023406982421875" lon="-4.187091551721096038818359375">
        <ele>781.4000244140625</ele>
        <time>2019-07-08T10:51:15.000Z</time>
      </trkpt>
      <trkpt lat="42.4039661698043346405029296875" lon="-4.187993109226226806640625">
        <ele>782.4000244140625</ele>
        <time>2019-07-08T10:51:17.000Z</time>
      </trkpt>
      <trkpt lat="42.403944544494152069091796875" lon="-4.1889251768589019775390625">
        <ele>783</ele>
        <time>2019-07-08T10:51:19.000Z</time>
      </trkpt>
      <trkpt lat="42.40390623919665813446044921875" lon="-4.18987534940242767333984375">
        <ele>782.20001220703125</ele>
        <time>2019-07-08T10:51:21.000Z</time>
      </trkpt>
      <trkpt lat="42.40385024808347225189208984375" lon="-4.1908268630504608154296875">
        <ele>781.20001220703125</ele>
        <time>2019-07-08T10:51:23.000Z</time>
      </trkpt>
      <trkpt lat="42.40381705574691295623779296875" lon="-4.19130052439868450164794921875">
        <ele>780.79998779296875</ele>
        <time>2019-07-08T10:51:24.000Z</time>
      </trkpt>
      <trkpt lat="42.4037401936948299407958984375" lon="-4.19224130921065807342529296875">
        <ele>779.79998779296875</ele>
        <time>2019-07-08T10:51:26.000Z</time>
      </trkpt>
      <trkpt lat="42.4036959372460842132568359375" lon="-4.19270910322666168212890625">
        <ele>779.79998779296875</ele>
        <time>2019-07-08T10:51:27.000Z</time>
      </trkpt>
      <trkpt lat="42.40359677933156490325927734375" lon="-4.19363689608871936798095703125">
        <ele>779.20001220703125</ele>
        <time>2019-07-08T10:51:29.000Z</time>
      </trkpt>
      <trkpt lat="42.40354112349450588226318359375" lon="-4.19409488327801227569580078125">
        <ele>778.20001220703125</ele>
        <time>2019-07-08T10:51:30.000Z</time>
      </trkpt>
      <trkpt lat="42.40342193283140659332275390625" lon="-4.19499811716377735137939453125">
        <ele>777.5999755859375</ele>
        <time>2019-07-08T10:51:32.000Z</time>
      </trkpt>
      <trkpt lat="42.4032952822744846343994140625" lon="-4.19588215649127960205078125">
        <ele>777.79998779296875</ele>
        <time>2019-07-08T10:51:34.000Z</time>
      </trkpt>
      <trkpt lat="42.403164692223072052001953125" lon="-4.19675379060208797454833984375">
        <ele>780.20001220703125</ele>
        <time>2019-07-08T10:51:36.000Z</time>
      </trkpt>
      <trkpt lat="42.40309797227382659912109375" lon="-4.19718612916767597198486328125">
        <ele>782.20001220703125</ele>
        <time>2019-07-08T10:51:37.000Z</time>
      </trkpt>
      <trkpt lat="42.4030300788581371307373046875" lon="-4.19761628843843936920166015625">
        <ele>784</ele>
        <time>2019-07-08T10:51:38.000Z</time>
      </trkpt>
      <trkpt lat="42.4028909392654895782470703125" lon="-4.1984743438661098480224609375">
        <ele>785.79998779296875</ele>
        <time>2019-07-08T10:51:40.000Z</time>
      </trkpt>
      <trkpt lat="42.402747608721256256103515625" lon="-4.1993292979896068572998046875">
        <ele>786.20001220703125</ele>
        <time>2019-07-08T10:51:42.000Z</time>
      </trkpt>
      <trkpt lat="42.4026052840054035186767578125" lon="-4.20018886215984821319580078125">
        <ele>785.79998779296875</ele>
        <time>2019-07-08T10:51:44.000Z</time>
      </trkpt>
      <trkpt lat="42.40246539004147052764892578125" lon="-4.20105353929102420806884765625">
        <ele>785.20001220703125</ele>
        <time>2019-07-08T10:51:46.000Z</time>
      </trkpt>
      <trkpt lat="42.4023972451686859130859375" lon="-4.2014837823808193206787109375">
        <ele>784</ele>
        <time>2019-07-08T10:51:47.000Z</time>
      </trkpt>
      <trkpt lat="42.40232993848621845245361328125" lon="-4.20191176235675811767578125">
        <ele>782.20001220703125</ele>
        <time>2019-07-08T10:51:48.000Z</time>
      </trkpt>
      <trkpt lat="42.4022646434605121612548828125" lon="-4.2023367248475551605224609375">
        <ele>779.5999755859375</ele>
        <time>2019-07-08T10:51:49.000Z</time>
      </trkpt>
      <trkpt lat="42.4022009409964084625244140625" lon="-4.20275992713868618011474609375">
        <ele>778.20001220703125</ele>
        <time>2019-07-08T10:51:50.000Z</time>
      </trkpt>
      <trkpt lat="42.40207328461110591888427734375" lon="-4.20360281132161617279052734375">
        <ele>777.20001220703125</ele>
        <time>2019-07-08T10:51:52.000Z</time>
      </trkpt>
      <trkpt lat="42.40195526741445064544677734375" lon="-4.2044456116855144500732421875">
        <ele>778.5999755859375</ele>
        <time>2019-07-08T10:51:54.000Z</time>
      </trkpt>
      <trkpt lat="42.40185887552797794342041015625" lon="-4.20529067516326904296875">
        <ele>780</ele>
        <time>2019-07-08T10:51:56.000Z</time>
      </trkpt>
      <trkpt lat="42.4017811752855777740478515625" lon="-4.20613582246005535125732421875">
        <ele>780.79998779296875</ele>
        <time>2019-07-08T10:51:58.000Z</time>
      </trkpt>
      <trkpt lat="42.4017226696014404296875" lon="-4.20698356814682483673095703125">
        <ele>779.4000244140625</ele>
        <time>2019-07-08T10:52:00.000Z</time>
      </trkpt>
      <trkpt lat="42.40168972872197628021240234375" lon="-4.20783600769937038421630859375">
        <ele>781.20001220703125</ele>
        <time>2019-07-08T10:52:02.000Z</time>
      </trkpt>
      <trkpt lat="42.401663325726985931396484375" lon="-4.2086989246308803558349609375">
        <ele>781</ele>
        <time>2019-07-08T10:52:04.000Z</time>
      </trkpt>
      <trkpt lat="42.401650249958038330078125" lon="-4.209135957062244415283203125">
        <ele>779.79998779296875</ele>
        <time>2019-07-08T10:52:05.000Z</time>
      </trkpt>
      <trkpt lat="42.4016363359987735748291015625" lon="-4.210019409656524658203125">
        <ele>780.20001220703125</ele>
        <time>2019-07-08T10:52:07.000Z</time>
      </trkpt>
      <trkpt lat="42.401644885540008544921875" lon="-4.21091719530522823333740234375">
        <ele>780.20001220703125</ele>
        <time>2019-07-08T10:52:09.000Z</time>
      </trkpt>
      <trkpt lat="42.40165502764284610748291015625" lon="-4.21137015335261821746826171875">
        <ele>781.4000244140625</ele>
        <time>2019-07-08T10:52:10.000Z</time>
      </trkpt>
      <trkpt lat="42.40166877396404743194580078125" lon="-4.21182453632354736328125">
        <ele>783.5999755859375</ele>
        <time>2019-07-08T10:52:11.000Z</time>
      </trkpt>
      <trkpt lat="42.40168687887489795684814453125" lon="-4.2122796736657619476318359375">
        <ele>785.5999755859375</ele>
        <time>2019-07-08T10:52:12.000Z</time>
      </trkpt>
      <trkpt lat="42.40173465572297573089599609375" lon="-4.21319472603499889373779296875">
        <ele>787.20001220703125</ele>
        <time>2019-07-08T10:52:14.000Z</time>
      </trkpt>
      <trkpt lat="42.4018006213009357452392578125" lon="-4.21411204151809215545654296875">
        <ele>787.79998779296875</ele>
        <time>2019-07-08T10:52:16.000Z</time>
      </trkpt>
      <trkpt lat="42.4018398486077785491943359375" lon="-4.2145719565451145172119140625">
        <ele>788.5999755859375</ele>
        <time>2019-07-08T10:52:17.000Z</time>
      </trkpt>
      <trkpt lat="42.401880919933319091796875" lon="-4.21503405086696147918701171875">
        <ele>793.79998779296875</ele>
        <time>2019-07-08T10:52:18.000Z</time>
      </trkpt>
      <trkpt lat="42.40192911587655544281005859375" lon="-4.21549580991268157958984375">
        <ele>800</ele>
        <time>2019-07-08T10:52:19.000Z</time>
      </trkpt>
      <trkpt lat="42.40198477171361446380615234375" lon="-4.2159546352922916412353515625">
        <ele>808.5999755859375</ele>
        <time>2019-07-08T10:52:20.000Z</time>
      </trkpt>
      <trkpt lat="42.4020440317690372467041015625" lon="-4.21641253866255283355712890625">
        <ele>813.20001220703125</ele>
        <time>2019-07-08T10:52:21.000Z</time>
      </trkpt>
      <trkpt lat="42.4021097458899021148681640625" lon="-4.21686952002346515655517578125">
        <ele>816</ele>
        <time>2019-07-08T10:52:22.000Z</time>
      </trkpt>
      <trkpt lat="42.40217973478138446807861328125" lon="-4.21732666902244091033935546875">
        <ele>817.20001220703125</ele>
        <time>2019-07-08T10:52:23.000Z</time>
      </trkpt>
      <trkpt lat="42.402326501905918121337890625" lon="-4.21823727898299694061279296875">
        <ele>818.5999755859375</ele>
        <time>2019-07-08T10:52:25.000Z</time>
      </trkpt>
      <trkpt lat="42.40249020047485828399658203125" lon="-4.219141937792301177978515625">
        <ele>818.79998779296875</ele>
        <time>2019-07-08T10:52:27.000Z</time>
      </trkpt>
      <trkpt lat="42.40257904864847660064697265625" lon="-4.21959045343101024627685546875">
        <ele>815.5999755859375</ele>
        <time>2019-07-08T10:52:28.000Z</time>
      </trkpt>
      <trkpt lat="42.4026723392307758331298828125" lon="-4.2200369574129581451416015625">
        <ele>807.79998779296875</ele>
        <time>2019-07-08T10:52:29.000Z</time>
      </trkpt>
      <trkpt lat="42.40277233533561229705810546875" lon="-4.22048144973814487457275390625">
        <ele>797.79998779296875</ele>
        <time>2019-07-08T10:52:30.000Z</time>
      </trkpt>
      <trkpt lat="42.402873672544956207275390625" lon="-4.22092250548303127288818359375">
        <ele>789.4000244140625</ele>
        <time>2019-07-08T10:52:31.000Z</time>
      </trkpt>
      <trkpt lat="42.4029767699539661407470703125" lon="-4.22136188484728336334228515625">
        <ele>784.4000244140625</ele>
        <time>2019-07-08T10:52:32.000Z</time>
      </trkpt>
      <trkpt lat="42.40308397449553012847900390625" lon="-4.221798665821552276611328125">
        <ele>781.79998779296875</ele>
        <time>2019-07-08T10:52:33.000Z</time>
      </trkpt>
      <trkpt lat="42.40331263281404972076416015625" lon="-4.22266527079045772552490234375">
        <ele>781.20001220703125</ele>
        <time>2019-07-08T10:52:35.000Z</time>
      </trkpt>
      <trkpt lat="42.40355386398732662200927734375" lon="-4.22352374531328678131103515625">
        <ele>782.79998779296875</ele>
        <time>2019-07-08T10:52:37.000Z</time>
      </trkpt>
      <trkpt lat="42.40368135273456573486328125" lon="-4.2239482887089252471923828125">
        <ele>784.20001220703125</ele>
        <time>2019-07-08T10:52:38.000Z</time>
      </trkpt>
      <trkpt lat="42.40381009876728057861328125" lon="-4.224369563162326812744140625">
        <ele>786</ele>
        <time>2019-07-08T10:52:39.000Z</time>
      </trkpt>
      <trkpt lat="42.4040771462023258209228515625" lon="-4.22519861720502376556396484375">
        <ele>788</ele>
        <time>2019-07-08T10:52:41.000Z</time>
      </trkpt>
      <trkpt lat="42.40435332991182804107666015625" lon="-4.225994646549224853515625">
        <ele>790.20001220703125</ele>
        <time>2019-07-08T10:52:43.000Z</time>
      </trkpt>
      <trkpt lat="42.40463781170547008514404296875" lon="-4.22676251269876956939697265625">
        <ele>791.20001220703125</ele>
        <time>2019-07-08T10:52:45.000Z</time>
      </trkpt>
      <trkpt lat="42.40493084304034709930419921875" lon="-4.22750598751008510589599609375">
        <ele>793</ele>
        <time>2019-07-08T10:52:47.000Z</time>
      </trkpt>
      <trkpt lat="42.4050816334784030914306640625" lon="-4.227873869240283966064453125">
        <ele>794.4000244140625</ele>
        <time>2019-07-08T10:52:48.000Z</time>
      </trkpt>
      <trkpt lat="42.40539335645735263824462890625" lon="-4.2286019213497638702392578125">
        <ele>793.20001220703125</ele>
        <time>2019-07-08T10:52:50.000Z</time>
      </trkpt>
      <trkpt lat="42.40571958012878894805908203125" lon="-4.229321591556072235107421875">
        <ele>793</ele>
        <time>2019-07-08T10:52:52.000Z</time>
      </trkpt>
      <trkpt lat="42.4060566164553165435791015625" lon="-4.23003950156271457672119140625">
        <ele>792.4000244140625</ele>
        <time>2019-07-08T10:52:54.000Z</time>
      </trkpt>
      <trkpt lat="42.40623020566999912261962890625" lon="-4.23039958812296390533447265625">
        <ele>792</ele>
        <time>2019-07-08T10:52:55.000Z</time>
      </trkpt>
      <trkpt lat="42.40658610127866268157958984375" lon="-4.23112395219504833221435546875">
        <ele>791.5999755859375</ele>
        <time>2019-07-08T10:52:57.000Z</time>
      </trkpt>
      <trkpt lat="42.40695498883724212646484375" lon="-4.23185150139033794403076171875">
        <ele>791.4000244140625</ele>
        <time>2019-07-08T10:52:59.000Z</time>
      </trkpt>
      <trkpt lat="42.4073343537747859954833984375" lon="-4.2325799725949764251708984375">
        <ele>792</ele>
        <time>2019-07-08T10:53:01.000Z</time>
      </trkpt>
      <trkpt lat="42.4077192507684230804443359375" lon="-4.2333118803799152374267578125">
        <ele>790.5999755859375</ele>
        <time>2019-07-08T10:53:03.000Z</time>
      </trkpt>
      <trkpt lat="42.40810221992433071136474609375" lon="-4.2340407706797122955322265625">
        <ele>791</ele>
        <time>2019-07-08T10:53:05.000Z</time>
      </trkpt>
      <trkpt lat="42.40848292596638202667236328125" lon="-4.23476790077984333038330078125">
        <ele>790.20001220703125</ele>
        <time>2019-07-08T10:53:07.000Z</time>
      </trkpt>
      <trkpt lat="42.408856339752674102783203125" lon="-4.2354962043464183807373046875">
        <ele>789.4000244140625</ele>
        <time>2019-07-08T10:53:09.000Z</time>
      </trkpt>
      <trkpt lat="42.40921718068420886993408203125" lon="-4.23622886650264263153076171875">
        <ele>789.79998779296875</ele>
        <time>2019-07-08T10:53:11.000Z</time>
      </trkpt>
      <trkpt lat="42.4095636047422885894775390625" lon="-4.2369769513607025146484375">
        <ele>789.4000244140625</ele>
        <time>2019-07-08T10:53:13.000Z</time>
      </trkpt>
      <trkpt lat="42.40988940931856632232666015625" lon="-4.237737692892551422119140625">
        <ele>788.5999755859375</ele>
        <time>2019-07-08T10:53:15.000Z</time>
      </trkpt>
      <trkpt lat="42.41018461994826793670654296875" lon="-4.23851746134459972381591796875">
        <ele>789.20001220703125</ele>
        <time>2019-07-08T10:53:17.000Z</time>
      </trkpt>
      <trkpt lat="42.41046373732388019561767578125" lon="-4.23930737189948558807373046875">
        <ele>788.79998779296875</ele>
        <time>2019-07-08T10:53:19.000Z</time>
      </trkpt>
      <trkpt lat="42.4107273481786251068115234375" lon="-4.24011739902198314666748046875">
        <ele>789</ele>
        <time>2019-07-08T10:53:21.000Z</time>
      </trkpt>
      <trkpt lat="42.41098274476826190948486328125" lon="-4.240943603217601776123046875">
        <ele>790.4000244140625</ele>
        <time>2019-07-08T10:53:23.000Z</time>
      </trkpt>
      <trkpt lat="42.411218024790287017822265625" lon="-4.24179210327565670013427734375">
        <ele>791.4000244140625</ele>
        <time>2019-07-08T10:53:25.000Z</time>
      </trkpt>
      <trkpt lat="42.4114314280450344085693359375" lon="-4.24264772795140743255615234375">
        <ele>792</ele>
        <time>2019-07-08T10:53:27.000Z</time>
      </trkpt>
      <trkpt lat="42.41163142025470733642578125" lon="-4.2435119859874248504638671875">
        <ele>792</ele>
        <time>2019-07-08T10:53:29.000Z</time>
      </trkpt>
      <trkpt lat="42.4117234535515308380126953125" lon="-4.24394943751394748687744140625">
        <ele>794.79998779296875</ele>
        <time>2019-07-08T10:53:30.000Z</time>
      </trkpt>
      <trkpt lat="42.41180576384067535400390625" lon="-4.24439334310591220855712890625">
        <ele>800</ele>
        <time>2019-07-08T10:53:31.000Z</time>
      </trkpt>
      <trkpt lat="42.41188824176788330078125" lon="-4.24483406357467174530029296875">
        <ele>801.5999755859375</ele>
        <time>2019-07-08T10:53:32.000Z</time>
      </trkpt>
      <trkpt lat="42.41196309216320514678955078125" lon="-4.24527444876730442047119140625">
        <ele>803</ele>
        <time>2019-07-08T10:53:33.000Z</time>
      </trkpt>
      <trkpt lat="42.41209100000560283660888671875" lon="-4.24615924246609210968017578125">
        <ele>799.5999755859375</ele>
        <time>2019-07-08T10:53:35.000Z</time>
      </trkpt>
      <trkpt lat="42.4121415428817272186279296875" lon="-4.24660197459161281585693359375">
        <ele>793.20001220703125</ele>
        <time>2019-07-08T10:53:36.000Z</time>
      </trkpt>
      <trkpt lat="42.41218571551144123077392578125" lon="-4.2470468021929264068603515625">
        <ele>788.79998779296875</ele>
        <time>2019-07-08T10:53:37.000Z</time>
      </trkpt>
      <trkpt lat="42.41222511045634746551513671875" lon="-4.24749397672712802886962890625">
        <ele>786.20001220703125</ele>
        <time>2019-07-08T10:53:38.000Z</time>
      </trkpt>
      <trkpt lat="42.41226014681160449981689453125" lon="-4.247941486537456512451171875">
        <ele>784.4000244140625</ele>
        <time>2019-07-08T10:53:39.000Z</time>
      </trkpt>
      <trkpt lat="42.41228931583464145660400390625" lon="-4.248388744890689849853515625">
        <ele>782.5999755859375</ele>
        <time>2019-07-08T10:53:40.000Z</time>
      </trkpt>
      <trkpt lat="42.41232368163764476776123046875" lon="-4.24928552471101284027099609375">
        <ele>782.4000244140625</ele>
        <time>2019-07-08T10:53:42.000Z</time>
      </trkpt>
      <trkpt lat="42.41233726032078266143798828125" lon="-4.25019823014736175537109375">
        <ele>782.20001220703125</ele>
        <time>2019-07-08T10:53:44.000Z</time>
      </trkpt>
      <trkpt lat="42.4123356677591800689697265625" lon="-4.251115880906581878662109375">
        <ele>783</ele>
        <time>2019-07-08T10:53:46.000Z</time>
      </trkpt>
      <trkpt lat="42.412314377725124359130859375" lon="-4.25203956663608551025390625">
        <ele>782.20001220703125</ele>
        <time>2019-07-08T10:53:48.000Z</time>
      </trkpt>
      <trkpt lat="42.41229568608105182647705078125" lon="-4.25250367261469364166259765625">
        <ele>781.4000244140625</ele>
        <time>2019-07-08T10:53:49.000Z</time>
      </trkpt>
      <trkpt lat="42.41224723868072032928466796875" lon="-4.25343456678092479705810546875">
        <ele>779.79998779296875</ele>
        <time>2019-07-08T10:53:51.000Z</time>
      </trkpt>
      <trkpt lat="42.41222008131444454193115234375" lon="-4.2538990080356597900390625">
        <ele>778.79998779296875</ele>
        <time>2019-07-08T10:53:52.000Z</time>
      </trkpt>
      <trkpt lat="42.4121854640543460845947265625" lon="-4.25436026416718959808349609375">
        <ele>776.5999755859375</ele>
        <time>2019-07-08T10:53:53.000Z</time>
      </trkpt>
      <trkpt lat="42.41214095614850521087646484375" lon="-4.2548195086419582366943359375">
        <ele>774.20001220703125</ele>
        <time>2019-07-08T10:53:54.000Z</time>
      </trkpt>
      <trkpt lat="42.4120875634253025054931640625" lon="-4.2552749812602996826171875">
        <ele>772.79998779296875</ele>
        <time>2019-07-08T10:53:55.000Z</time>
      </trkpt>
      <trkpt lat="42.41202771663665771484375" lon="-4.25572567619383335113525390625">
        <ele>771.20001220703125</ele>
        <time>2019-07-08T10:53:56.000Z</time>
      </trkpt>
      <trkpt lat="42.411892600357532501220703125" lon="-4.2565999925136566162109375">
        <ele>771.4000244140625</ele>
        <time>2019-07-08T10:53:58.000Z</time>
      </trkpt>
      <trkpt lat="42.4118176661431789398193359375" lon="-4.2570239491760730743408203125">
        <ele>773.4000244140625</ele>
        <time>2019-07-08T10:53:59.000Z</time>
      </trkpt>
      <trkpt lat="42.41173812188208103179931640625" lon="-4.2574393562972545623779296875">
        <ele>775.79998779296875</ele>
        <time>2019-07-08T10:54:00.000Z</time>
      </trkpt>
      <trkpt lat="42.411655224859714508056640625" lon="-4.2578472197055816650390625">
        <ele>777.4000244140625</ele>
        <time>2019-07-08T10:54:01.000Z</time>
      </trkpt>
      <trkpt lat="42.41148280911147594451904296875" lon="-4.25864710472524166107177734375">
        <ele>779</ele>
        <time>2019-07-08T10:54:03.000Z</time>
      </trkpt>
      <trkpt lat="42.41129304282367229461669921875" lon="-4.259446822106838226318359375">
        <ele>779.79998779296875</ele>
        <time>2019-07-08T10:54:05.000Z</time>
      </trkpt>
      <trkpt lat="42.41119262762367725372314453125" lon="-4.2598479799926280975341796875">
        <ele>780</ele>
        <time>2019-07-08T10:54:06.000Z</time>
      </trkpt>
      <trkpt lat="42.410981990396976470947265625" lon="-4.260656833648681640625">
        <ele>780.4000244140625</ele>
        <time>2019-07-08T10:54:08.000Z</time>
      </trkpt>
      <trkpt lat="42.41076179780066013336181640625" lon="-4.261472560465335845947265625">
        <ele>780.20001220703125</ele>
        <time>2019-07-08T10:54:10.000Z</time>
      </trkpt>
      <trkpt lat="42.410532049834728240966796875" lon="-4.262300021946430206298828125">
        <ele>785.4000244140625</ele>
        <time>2019-07-08T10:54:12.000Z</time>
      </trkpt>
      <trkpt lat="42.410415373742580413818359375" lon="-4.2627196200191974639892578125">
        <ele>788.5999755859375</ele>
        <time>2019-07-08T10:54:13.000Z</time>
      </trkpt>
      <trkpt lat="42.41030012257397174835205078125" lon="-4.263141565024852752685546875">
        <ele>791</ele>
        <time>2019-07-08T10:54:14.000Z</time>
      </trkpt>
      <trkpt lat="42.41018596105277538299560546875" lon="-4.26356443203985691070556640625">
        <ele>794</ele>
        <time>2019-07-08T10:54:15.000Z</time>
      </trkpt>
      <trkpt lat="42.41007263772189617156982421875" lon="-4.2639889754354953765869140625">
        <ele>796.20001220703125</ele>
        <time>2019-07-08T10:54:16.000Z</time>
      </trkpt>
      <trkpt lat="42.40984900854527950286865234375" lon="-4.2648389004170894622802734375">
        <ele>795</ele>
        <time>2019-07-08T10:54:18.000Z</time>
      </trkpt>
      <trkpt lat="42.40963744930922985076904296875" lon="-4.2656980454921722412109375">
        <ele>794.4000244140625</ele>
        <time>2019-07-08T10:54:20.000Z</time>
      </trkpt>
      <trkpt lat="42.40944382734596729278564453125" lon="-4.2665712721645832061767578125">
        <ele>793.5999755859375</ele>
        <time>2019-07-08T10:54:22.000Z</time>
      </trkpt>
      <trkpt lat="42.40926646627485752105712890625" lon="-4.267456568777561187744140625">
        <ele>793</ele>
        <time>2019-07-08T10:54:24.000Z</time>
      </trkpt>
      <trkpt lat="42.40910905413329601287841796875" lon="-4.26835251040756702423095703125">
        <ele>791.79998779296875</ele>
        <time>2019-07-08T10:54:26.000Z</time>
      </trkpt>
      <trkpt lat="42.40897008217871189117431640625" lon="-4.26925641484558582305908203125">
        <ele>791.4000244140625</ele>
        <time>2019-07-08T10:54:28.000Z</time>
      </trkpt>
      <trkpt lat="42.40885357372462749481201171875" lon="-4.27016451023519039154052734375">
        <ele>791</ele>
        <time>2019-07-08T10:54:30.000Z</time>
      </trkpt>
      <trkpt lat="42.4088052101433277130126953125" lon="-4.27062048576772212982177734375">
        <ele>790.5999755859375</ele>
        <time>2019-07-08T10:54:31.000Z</time>
      </trkpt>
      <trkpt lat="42.4087220616638660430908203125" lon="-4.27153386175632476806640625">
        <ele>790.4000244140625</ele>
        <time>2019-07-08T10:54:33.000Z</time>
      </trkpt>
      <trkpt lat="42.40865794010460376739501953125" lon="-4.27244673483073711395263671875">
        <ele>790.20001220703125</ele>
        <time>2019-07-08T10:54:35.000Z</time>
      </trkpt>
      <trkpt lat="42.408616282045841217041015625" lon="-4.273357428610324859619140625">
        <ele>791.20001220703125</ele>
        <time>2019-07-08T10:54:37.000Z</time>
      </trkpt>
      <trkpt lat="42.40860312245786190032958984375" lon="-4.27381038665771484375">
        <ele>791.5999755859375</ele>
        <time>2019-07-08T10:54:38.000Z</time>
      </trkpt>
      <trkpt lat="42.408584766089916229248046875" lon="-4.2747102677822113037109375">
        <ele>792.20001220703125</ele>
        <time>2019-07-08T10:54:40.000Z</time>
      </trkpt>
      <trkpt lat="42.40857076831161975860595703125" lon="-4.27560235373675823211669921875">
        <ele>791.20001220703125</ele>
        <time>2019-07-08T10:54:42.000Z</time>
      </trkpt>
      <trkpt lat="42.408565320074558258056640625" lon="-4.27604475058615207672119140625">
        <ele>789</ele>
        <time>2019-07-08T10:54:43.000Z</time>
      </trkpt>
      <trkpt lat="42.40856297314167022705078125" lon="-4.2764847166836261749267578125">
        <ele>787.5999755859375</ele>
        <time>2019-07-08T10:54:44.000Z</time>
      </trkpt>
      <trkpt lat="42.4085628055036067962646484375" lon="-4.2769219167530536651611328125">
        <ele>786.20001220703125</ele>
        <time>2019-07-08T10:54:45.000Z</time>
      </trkpt>
      <trkpt lat="42.40856431424617767333984375" lon="-4.27779153920710086822509765625">
        <ele>786.4000244140625</ele>
        <time>2019-07-08T10:54:47.000Z</time>
      </trkpt>
      <trkpt lat="42.40856490097939968109130859375" lon="-4.2782239615917205810546875">
        <ele>787.4000244140625</ele>
        <time>2019-07-08T10:54:48.000Z</time>
      </trkpt>
      <trkpt lat="42.40856138058006763458251953125" lon="-4.27908360958099365234375">
        <ele>789.20001220703125</ele>
        <time>2019-07-08T10:54:50.000Z</time>
      </trkpt>
      <trkpt lat="42.40855618380010128021240234375" lon="-4.2799357138574123382568359375">
        <ele>789.79998779296875</ele>
        <time>2019-07-08T10:54:52.000Z</time>
      </trkpt>
      <trkpt lat="42.40855752490460872650146484375" lon="-4.28078438155353069305419921875">
        <ele>789.5999755859375</ele>
        <time>2019-07-08T10:54:54.000Z</time>
      </trkpt>
      <trkpt lat="42.408564649522304534912109375" lon="-4.2816241644322872161865234375">
        <ele>790.20001220703125</ele>
        <time>2019-07-08T10:54:56.000Z</time>
      </trkpt>
      <trkpt lat="42.40856389515101909637451171875" lon="-4.28204552270472049713134765625">
        <ele>790.20001220703125</ele>
        <time>2019-07-08T10:54:57.000Z</time>
      </trkpt>
      <trkpt lat="42.40854461677372455596923828125" lon="-4.28288605995476245880126953125">
        <ele>792.5999755859375</ele>
        <time>2019-07-08T10:54:59.000Z</time>
      </trkpt>
      <trkpt lat="42.40852919407188892364501953125" lon="-4.28330649621784687042236328125">
        <ele>794</ele>
        <time>2019-07-08T10:55:00.000Z</time>
      </trkpt>
      <trkpt lat="42.40848795510828495025634765625" lon="-4.284151308238506317138671875">
        <ele>796.20001220703125</ele>
        <time>2019-07-08T10:55:02.000Z</time>
      </trkpt>
      <trkpt lat="42.40846096538007259368896484375" lon="-4.28457601927220821380615234375">
        <ele>798.20001220703125</ele>
        <time>2019-07-08T10:55:03.000Z</time>
      </trkpt>
      <trkpt lat="42.408394329249858856201171875" lon="-4.28543231450021266937255859375">
        <ele>799.4000244140625</ele>
        <time>2019-07-08T10:55:05.000Z</time>
      </trkpt>
      <trkpt lat="42.40835552103817462921142578125" lon="-4.28586415015161037445068359375">
        <ele>798.20001220703125</ele>
        <time>2019-07-08T10:55:06.000Z</time>
      </trkpt>
      <trkpt lat="42.4082677625119686126708984375" lon="-4.2867294140160083770751953125">
        <ele>797.79998779296875</ele>
        <time>2019-07-08T10:55:08.000Z</time>
      </trkpt>
      <trkpt lat="42.40821990184485912322998046875" lon="-4.2871635966002941131591796875">
        <ele>796.4000244140625</ele>
        <time>2019-07-08T10:55:09.000Z</time>
      </trkpt>
      <trkpt lat="42.40811110474169254302978515625" lon="-4.28803472779691219329833984375">
        <ele>796.20001220703125</ele>
        <time>2019-07-08T10:55:11.000Z</time>
      </trkpt>
      <trkpt lat="42.40799375809729099273681640625" lon="-4.28891616873443126678466796875">
        <ele>796.4000244140625</ele>
        <time>2019-07-08T10:55:13.000Z</time>
      </trkpt>
      <trkpt lat="42.40786367096006870269775390625" lon="-4.28979744203388690948486328125">
        <ele>797.20001220703125</ele>
        <time>2019-07-08T10:55:15.000Z</time>
      </trkpt>
      <trkpt lat="42.40779326297342777252197265625" lon="-4.29023849777877330780029296875">
        <ele>797.4000244140625</ele>
        <time>2019-07-08T10:55:16.000Z</time>
      </trkpt>
      <trkpt lat="42.40763937123119831085205078125" lon="-4.29111926816403865814208984375">
        <ele>798.5999755859375</ele>
        <time>2019-07-08T10:55:18.000Z</time>
      </trkpt>
      <trkpt lat="42.407556474208831787109375" lon="-4.29156049154698848724365234375">
        <ele>799.79998779296875</ele>
        <time>2019-07-08T10:55:19.000Z</time>
      </trkpt>
      <trkpt lat="42.4073809571564197540283203125" lon="-4.2924381606280803680419921875">
        <ele>800.20001220703125</ele>
        <time>2019-07-08T10:55:21.000Z</time>
      </trkpt>
      <trkpt lat="42.407192699611186981201171875" lon="-4.29330862127244472503662109375">
        <ele>802</ele>
        <time>2019-07-08T10:55:23.000Z</time>
      </trkpt>
      <trkpt lat="42.40698943845927715301513671875" lon="-4.29417296312749385833740234375">
        <ele>801.5999755859375</ele>
        <time>2019-07-08T10:55:25.000Z</time>
      </trkpt>
      <trkpt lat="42.40688298828899860382080078125" lon="-4.29460354149341583251953125">
        <ele>800.20001220703125</ele>
        <time>2019-07-08T10:55:26.000Z</time>
      </trkpt>
      <trkpt lat="42.406774275004863739013671875" lon="-4.2950315214693546295166015625">
        <ele>797.4000244140625</ele>
        <time>2019-07-08T10:55:27.000Z</time>
      </trkpt>
      <trkpt lat="42.406664304435253143310546875" lon="-4.29545841179788112640380859375">
        <ele>792.4000244140625</ele>
        <time>2019-07-08T10:55:28.000Z</time>
      </trkpt>
      <trkpt lat="42.4065524898469448089599609375" lon="-4.29588370956480503082275390625">
        <ele>787.79998779296875</ele>
        <time>2019-07-08T10:55:29.000Z</time>
      </trkpt>
      <trkpt lat="42.40643891505897045135498046875" lon="-4.2963085882365703582763671875">
        <ele>785.4000244140625</ele>
        <time>2019-07-08T10:55:30.000Z</time>
      </trkpt>
      <trkpt lat="42.40632341243326663970947265625" lon="-4.29673212580382823944091796875">
        <ele>784.20001220703125</ele>
        <time>2019-07-08T10:55:31.000Z</time>
      </trkpt>
      <trkpt lat="42.4060901440680027008056640625" lon="-4.2975755967199802398681640625">
        <ele>786.4000244140625</ele>
        <time>2019-07-08T10:55:33.000Z</time>
      </trkpt>
      <trkpt lat="42.40597338415682315826416015625" lon="-4.297996871173381805419921875">
        <ele>788</ele>
        <time>2019-07-08T10:55:34.000Z</time>
      </trkpt>
      <trkpt lat="42.40585503168404102325439453125" lon="-4.29841898381710052490234375">
        <ele>789.79998779296875</ele>
        <time>2019-07-08T10:55:35.000Z</time>
      </trkpt>
      <trkpt lat="42.40573517046868801116943359375" lon="-4.2988402582705020904541015625">
        <ele>790.79998779296875</ele>
        <time>2019-07-08T10:55:36.000Z</time>
      </trkpt>
      <trkpt lat="42.4054967053234577178955078125" lon="-4.2996818013489246368408203125">
        <ele>789.20001220703125</ele>
        <time>2019-07-08T10:55:38.000Z</time>
      </trkpt>
      <trkpt lat="42.4052663706243038177490234375" lon="-4.3005253560841083526611328125">
        <ele>788.5999755859375</ele>
        <time>2019-07-08T10:55:40.000Z</time>
      </trkpt>
      <trkpt lat="42.40504282526671886444091796875" lon="-4.30137720890343189239501953125">
        <ele>789.20001220703125</ele>
        <time>2019-07-08T10:55:42.000Z</time>
      </trkpt>
      <trkpt lat="42.4048251472413539886474609375" lon="-4.302237443625926971435546875">
        <ele>789</ele>
        <time>2019-07-08T10:55:44.000Z</time>
      </trkpt>
      <trkpt lat="42.4046186171472072601318359375" lon="-4.3031066469848155975341796875">
        <ele>789</ele>
        <time>2019-07-08T10:55:46.000Z</time>
      </trkpt>
      <trkpt lat="42.4045183695852756500244140625" lon="-4.30354309268295764923095703125">
        <ele>787.5999755859375</ele>
        <time>2019-07-08T10:55:47.000Z</time>
      </trkpt>
      <trkpt lat="42.40441954694688320159912109375" lon="-4.3039810471236705780029296875">
        <ele>785.79998779296875</ele>
        <time>2019-07-08T10:55:48.000Z</time>
      </trkpt>
      <trkpt lat="42.4043215624988079071044921875" lon="-4.3044205941259860992431640625">
        <ele>783.4000244140625</ele>
        <time>2019-07-08T10:55:49.000Z</time>
      </trkpt>
      <trkpt lat="42.40422450006008148193359375" lon="-4.30486022494733333587646484375">
        <ele>781.5999755859375</ele>
        <time>2019-07-08T10:55:50.000Z</time>
      </trkpt>
      <trkpt lat="42.40413020364940166473388671875" lon="-4.30529910139739513397216796875">
        <ele>780</ele>
        <time>2019-07-08T10:55:51.000Z</time>
      </trkpt>
      <trkpt lat="42.40395619533956050872802734375" lon="-4.30618037469685077667236328125">
        <ele>779</ele>
        <time>2019-07-08T10:55:53.000Z</time>
      </trkpt>
      <trkpt lat="42.4037981964647769927978515625" lon="-4.30706349201500415802001953125">
        <ele>779.4000244140625</ele>
        <time>2019-07-08T10:55:55.000Z</time>
      </trkpt>
      <trkpt lat="42.40364774130284786224365234375" lon="-4.30794459767639636993408203125">
        <ele>781.20001220703125</ele>
        <time>2019-07-08T10:55:57.000Z</time>
      </trkpt>
      <trkpt lat="42.403573058545589447021484375" lon="-4.3083827197551727294921875">
        <ele>782.4000244140625</ele>
        <time>2019-07-08T10:55:58.000Z</time>
      </trkpt>
      <trkpt lat="42.40349753759801387786865234375" lon="-4.30882100947201251983642578125">
        <ele>784</ele>
        <time>2019-07-08T10:55:59.000Z</time>
      </trkpt>
      <trkpt lat="42.40342117846012115478515625" lon="-4.30925779044628143310546875">
        <ele>785.5999755859375</ele>
        <time>2019-07-08T10:56:00.000Z</time>
      </trkpt>
      <trkpt lat="42.40327298641204833984375" lon="-4.31012975983321666717529296875">
        <ele>787</ele>
        <time>2019-07-08T10:56:02.000Z</time>
      </trkpt>
      <trkpt lat="42.40314415656030178070068359375" lon="-4.31098571978509426116943359375">
        <ele>787.4000244140625</ele>
        <time>2019-07-08T10:56:04.000Z</time>
      </trkpt>
      <trkpt lat="42.4030042625963687896728515625" lon="-4.3118439428508281707763671875">
        <ele>787.4000244140625</ele>
        <time>2019-07-08T10:56:06.000Z</time>
      </trkpt>
      <trkpt lat="42.40285732783377170562744140625" lon="-4.31268959306180477142333984375">
        <ele>788</ele>
        <time>2019-07-08T10:56:08.000Z</time>
      </trkpt>
      <trkpt lat="42.40271148271858692169189453125" lon="-4.31353230960667133331298828125">
        <ele>789.4000244140625</ele>
        <time>2019-07-08T10:56:10.000Z</time>
      </trkpt>
      <trkpt lat="42.40256488323211669921875" lon="-4.31438256986439228057861328125">
        <ele>790</ele>
        <time>2019-07-08T10:56:12.000Z</time>
      </trkpt>
      <trkpt lat="42.40249288268387317657470703125" lon="-4.31481172330677509307861328125">
        <ele>790.5999755859375</ele>
        <time>2019-07-08T10:56:13.000Z</time>
      </trkpt>
      <trkpt lat="42.4023508094251155853271484375" lon="-4.31567363440990447998046875">
        <ele>790.4000244140625</ele>
        <time>2019-07-08T10:56:15.000Z</time>
      </trkpt>
      <trkpt lat="42.40221510641276836395263671875" lon="-4.3165419995784759521484375">
        <ele>789.4000244140625</ele>
        <time>2019-07-08T10:56:17.000Z</time>
      </trkpt>
      <trkpt lat="42.402090467512607574462890625" lon="-4.31741648353636264801025390625">
        <ele>789.79998779296875</ele>
        <time>2019-07-08T10:56:19.000Z</time>
      </trkpt>
      <trkpt lat="42.401966415345668792724609375" lon="-4.31828618980944156646728515625">
        <ele>790.79998779296875</ele>
        <time>2019-07-08T10:56:21.000Z</time>
      </trkpt>
      <trkpt lat="42.4019072391092777252197265625" lon="-4.31871802546083927154541015625">
        <ele>791.79998779296875</ele>
        <time>2019-07-08T10:56:22.000Z</time>
      </trkpt>
      <trkpt lat="42.40184806287288665771484375" lon="-4.3191482685506343841552734375">
        <ele>793</ele>
        <time>2019-07-08T10:56:23.000Z</time>
      </trkpt>
      <trkpt lat="42.40179215557873249053955078125" lon="-4.31957884691655635833740234375">
        <ele>794.4000244140625</ele>
        <time>2019-07-08T10:56:24.000Z</time>
      </trkpt>
      <trkpt lat="42.40168620832264423370361328125" lon="-4.32044436223804950714111328125">
        <ele>795.79998779296875</ele>
        <time>2019-07-08T10:56:26.000Z</time>
      </trkpt>
      <trkpt lat="42.4016360007226467132568359375" lon="-4.3208786286413669586181640625">
        <ele>797</ele>
        <time>2019-07-08T10:56:27.000Z</time>
      </trkpt>
      <trkpt lat="42.4015883915126323699951171875" lon="-4.32131457142531871795654296875">
        <ele>798.4000244140625</ele>
        <time>2019-07-08T10:56:28.000Z</time>
      </trkpt>
      <trkpt lat="42.40154271014034748077392578125" lon="-4.3217523582279682159423828125">
        <ele>800.20001220703125</ele>
        <time>2019-07-08T10:56:29.000Z</time>
      </trkpt>
      <trkpt lat="42.40145369432866573333740234375" lon="-4.3226341344416141510009765625">
        <ele>798.79998779296875</ele>
        <time>2019-07-08T10:56:31.000Z</time>
      </trkpt>
      <trkpt lat="42.40136886946856975555419921875" lon="-4.32352320291101932525634765625">
        <ele>798.4000244140625</ele>
        <time>2019-07-08T10:56:33.000Z</time>
      </trkpt>
      <trkpt lat="42.401290833950042724609375" lon="-4.3244164623320102691650390625">
        <ele>799</ele>
        <time>2019-07-08T10:56:35.000Z</time>
      </trkpt>
      <trkpt lat="42.4012212641537189483642578125" lon="-4.3253150023519992828369140625">
        <ele>798.5999755859375</ele>
        <time>2019-07-08T10:56:37.000Z</time>
      </trkpt>
      <trkpt lat="42.40115865133702754974365234375" lon="-4.3262152187526226043701171875">
        <ele>800.4000244140625</ele>
        <time>2019-07-08T10:56:39.000Z</time>
      </trkpt>
      <trkpt lat="42.40110198967158794403076171875" lon="-4.32711753062903881072998046875">
        <ele>800.5999755859375</ele>
        <time>2019-07-08T10:56:41.000Z</time>
      </trkpt>
      <trkpt lat="42.40105203352868556976318359375" lon="-4.32802252471446990966796875">
        <ele>801.5999755859375</ele>
        <time>2019-07-08T10:56:43.000Z</time>
      </trkpt>
      <trkpt lat="42.40100719034671783447265625" lon="-4.32893103919923305511474609375">
        <ele>799.79998779296875</ele>
        <time>2019-07-08T10:56:45.000Z</time>
      </trkpt>
      <trkpt lat="42.40096385590732097625732421875" lon="-4.32984500192105770111083984375">
        <ele>798.5999755859375</ele>
        <time>2019-07-08T10:56:47.000Z</time>
      </trkpt>
      <trkpt lat="42.4009446613490581512451171875" lon="-4.330305419862270355224609375">
        <ele>797</ele>
        <time>2019-07-08T10:56:48.000Z</time>
      </trkpt>
      <trkpt lat="42.40091490559279918670654296875" lon="-4.33123354800045490264892578125">
        <ele>796.20001220703125</ele>
        <time>2019-07-08T10:56:50.000Z</time>
      </trkpt>
      <trkpt lat="42.400903590023517608642578125" lon="-4.33169958181679248809814453125">
        <ele>795.79998779296875</ele>
        <time>2019-07-08T10:56:51.000Z</time>
      </trkpt>
      <trkpt lat="42.40088791586458683013916015625" lon="-4.33263533748686313629150390625">
        <ele>794.4000244140625</ele>
        <time>2019-07-08T10:56:53.000Z</time>
      </trkpt>
      <trkpt lat="42.40088406018912792205810546875" lon="-4.3335748650133609771728515625">
        <ele>792.4000244140625</ele>
        <time>2019-07-08T10:56:55.000Z</time>
      </trkpt>
      <trkpt lat="42.40088724531233310699462890625" lon="-4.3340432457625865936279296875">
        <ele>791.20001220703125</ele>
        <time>2019-07-08T10:56:56.000Z</time>
      </trkpt>
      <trkpt lat="42.4009074456989765167236328125" lon="-4.3349746428430080413818359375">
        <ele>791</ele>
        <time>2019-07-08T10:56:58.000Z</time>
      </trkpt>
      <trkpt lat="42.40093099884688854217529296875" lon="-4.33589371852576732635498046875">
        <ele>792</ele>
        <time>2019-07-08T10:57:00.000Z</time>
      </trkpt>
      <trkpt lat="42.400942146778106689453125" lon="-4.33634516783058643341064453125">
        <ele>792.79998779296875</ele>
        <time>2019-07-08T10:57:01.000Z</time>
      </trkpt>
      <trkpt lat="42.400966621935367584228515625" lon="-4.33723247610032558441162109375">
        <ele>795.5999755859375</ele>
        <time>2019-07-08T10:57:03.000Z</time>
      </trkpt>
      <trkpt lat="42.4009802006185054779052734375" lon="-4.3376682512462139129638671875">
        <ele>797.4000244140625</ele>
        <time>2019-07-08T10:57:04.000Z</time>
      </trkpt>
      <trkpt lat="42.40101280622184276580810546875" lon="-4.33853100053966045379638671875">
        <ele>797.79998779296875</ele>
        <time>2019-07-08T10:57:06.000Z</time>
      </trkpt>
      <trkpt lat="42.4010311625897884368896484375" lon="-4.338956885039806365966796875">
        <ele>798.4000244140625</ele>
        <time>2019-07-08T10:57:07.000Z</time>
      </trkpt>
      <trkpt lat="42.40107416175305843353271484375" lon="-4.3398029543459415435791015625">
        <ele>799.5999755859375</ele>
        <time>2019-07-08T10:57:09.000Z</time>
      </trkpt>
      <trkpt lat="42.40112093277275562286376953125" lon="-4.34064743109047412872314453125">
        <ele>800.5999755859375</ele>
        <time>2019-07-08T10:57:11.000Z</time>
      </trkpt>
      <trkpt lat="42.40117658860981464385986328125" lon="-4.3414945900440216064453125">
        <ele>801.79998779296875</ele>
        <time>2019-07-08T10:57:13.000Z</time>
      </trkpt>
      <trkpt lat="42.40120760165154933929443359375" lon="-4.34192013926804065704345703125">
        <ele>803</ele>
        <time>2019-07-08T10:57:14.000Z</time>
      </trkpt>
      <trkpt lat="42.40126996301114559173583984375" lon="-4.34277609921991825103759765625">
        <ele>803</ele>
        <time>2019-07-08T10:57:16.000Z</time>
      </trkpt>
      <trkpt lat="42.4013382755219936370849609375" lon="-4.34363842941820621490478515625">
        <ele>803.4000244140625</ele>
        <time>2019-07-08T10:57:18.000Z</time>
      </trkpt>
      <trkpt lat="42.40137599408626556396484375" lon="-4.34407261200249195098876953125">
        <ele>804.20001220703125</ele>
        <time>2019-07-08T10:57:19.000Z</time>
      </trkpt>
      <trkpt lat="42.40145788528025150299072265625" lon="-4.34494785033166408538818359375">
        <ele>804.5999755859375</ele>
        <time>2019-07-08T10:57:21.000Z</time>
      </trkpt>
      <trkpt lat="42.40155008621513843536376953125" lon="-4.3458268605172634124755859375">
        <ele>805.4000244140625</ele>
        <time>2019-07-08T10:57:23.000Z</time>
      </trkpt>
      <trkpt lat="42.4016484059393405914306640625" lon="-4.34670813381671905517578125">
        <ele>805.79998779296875</ele>
        <time>2019-07-08T10:57:25.000Z</time>
      </trkpt>
      <trkpt lat="42.40174949169158935546875" lon="-4.3475877307355403900146484375">
        <ele>804.79998779296875</ele>
        <time>2019-07-08T10:57:27.000Z</time>
      </trkpt>
      <trkpt lat="42.40180120803415775299072265625" lon="-4.34802367351949214935302734375">
        <ele>803</ele>
        <time>2019-07-08T10:57:28.000Z</time>
      </trkpt>
      <trkpt lat="42.4018535949289798736572265625" lon="-4.34845115058124065399169921875">
        <ele>802</ele>
        <time>2019-07-08T10:57:29.000Z</time>
      </trkpt>
      <trkpt lat="42.40195476450026035308837890625" lon="-4.34927224181592464447021484375">
        <ele>802</ele>
        <time>2019-07-08T10:57:31.000Z</time>
      </trkpt>
      <trkpt lat="42.40205191075801849365234375" lon="-4.350068271160125732421875">
        <ele>804</ele>
        <time>2019-07-08T10:57:33.000Z</time>
      </trkpt>
      <trkpt lat="42.40210060961544513702392578125" lon="-4.3504620529711246490478515625">
        <ele>806.20001220703125</ele>
        <time>2019-07-08T10:57:34.000Z</time>
      </trkpt>
      <trkpt lat="42.402149140834808349609375" lon="-4.35085642151534557342529296875">
        <ele>807.5999755859375</ele>
        <time>2019-07-08T10:57:35.000Z</time>
      </trkpt>
      <trkpt lat="42.40224410779774188995361328125" lon="-4.3516509421169757843017578125">
        <ele>808.20001220703125</ele>
        <time>2019-07-08T10:57:37.000Z</time>
      </trkpt>
      <trkpt lat="42.402290962636470794677734375" lon="-4.35204975306987762451171875">
        <ele>808.79998779296875</ele>
        <time>2019-07-08T10:57:38.000Z</time>
      </trkpt>
      <trkpt lat="42.4023853428661823272705078125" lon="-4.35285550542175769805908203125">
        <ele>809</ele>
        <time>2019-07-08T10:57:40.000Z</time>
      </trkpt>
      <trkpt lat="42.40247561596333980560302734375" lon="-4.353666119277477264404296875">
        <ele>808.79998779296875</ele>
        <time>2019-07-08T10:57:42.000Z</time>
      </trkpt>
      <trkpt lat="42.40255977027118206024169921875" lon="-4.35447388328611850738525390625">
        <ele>809.20001220703125</ele>
        <time>2019-07-08T10:57:44.000Z</time>
      </trkpt>
      <trkpt lat="42.40263788960874080657958984375" lon="-4.3552779592573642730712890625">
        <ele>809.5999755859375</ele>
        <time>2019-07-08T10:57:46.000Z</time>
      </trkpt>
      <trkpt lat="42.40270745940506458282470703125" lon="-4.356080107390880584716796875">
        <ele>810</ele>
        <time>2019-07-08T10:57:48.000Z</time>
      </trkpt>
      <trkpt lat="42.4027404002845287322998046875" lon="-4.35648143291473388671875">
        <ele>811.20001220703125</ele>
        <time>2019-07-08T10:57:49.000Z</time>
      </trkpt>
      <trkpt lat="42.402775101363658905029296875" lon="-4.356882087886333465576171875">
        <ele>812.20001220703125</ele>
        <time>2019-07-08T10:57:50.000Z</time>
      </trkpt>
      <trkpt lat="42.40284894593060016632080078125" lon="-4.35768113471567630767822265625">
        <ele>813.5999755859375</ele>
        <time>2019-07-08T10:57:52.000Z</time>
      </trkpt>
      <trkpt lat="42.40292639471590518951416015625" lon="-4.358491413295269012451171875">
        <ele>815.5999755859375</ele>
        <time>2019-07-08T10:57:54.000Z</time>
      </trkpt>
      <trkpt lat="42.40300476551055908203125" lon="-4.359304793179035186767578125">
        <ele>816.4000244140625</ele>
        <time>2019-07-08T10:57:56.000Z</time>
      </trkpt>
      <trkpt lat="42.40304189734160900115966796875" lon="-4.359711147844791412353515625">
        <ele>816.5999755859375</ele>
        <time>2019-07-08T10:57:57.000Z</time>
      </trkpt>
      <trkpt lat="42.40311398170888423919677734375" lon="-4.36052226461470127105712890625">
        <ele>815.4000244140625</ele>
        <time>2019-07-08T10:57:59.000Z</time>
      </trkpt>
      <trkpt lat="42.40315052680671215057373046875" lon="-4.3609270267188549041748046875">
        <ele>814.20001220703125</ele>
        <time>2019-07-08T10:58:00.000Z</time>
      </trkpt>
      <trkpt lat="42.403186149895191192626953125" lon="-4.36133380047976970672607421875">
        <ele>812.79998779296875</ele>
        <time>2019-07-08T10:58:01.000Z</time>
      </trkpt>
      <trkpt lat="42.40325882099568843841552734375" lon="-4.362156651914119720458984375">
        <ele>812</ele>
        <time>2019-07-08T10:58:03.000Z</time>
      </trkpt>
      <trkpt lat="42.40329721011221408843994140625" lon="-4.36257231049239635467529296875">
        <ele>811.79998779296875</ele>
        <time>2019-07-08T10:58:04.000Z</time>
      </trkpt>
      <trkpt lat="42.403377257287502288818359375" lon="-4.363409914076328277587890625">
        <ele>812.79998779296875</ele>
        <time>2019-07-08T10:58:06.000Z</time>
      </trkpt>
      <trkpt lat="42.40345462225377559661865234375" lon="-4.36425472609698772430419921875">
        <ele>813.20001220703125</ele>
        <time>2019-07-08T10:58:08.000Z</time>
      </trkpt>
      <trkpt lat="42.40352871827781200408935546875" lon="-4.3651102669537067413330078125">
        <ele>811.5999755859375</ele>
        <time>2019-07-08T10:58:10.000Z</time>
      </trkpt>
      <trkpt lat="42.403569705784320831298828125" lon="-4.36553992331027984619140625">
        <ele>810.5999755859375</ele>
        <time>2019-07-08T10:58:11.000Z</time>
      </trkpt>
      <trkpt lat="42.40364790894091129302978515625" lon="-4.36640066094696521759033203125">
        <ele>809.20001220703125</ele>
        <time>2019-07-08T10:58:13.000Z</time>
      </trkpt>
      <trkpt lat="42.40372636355459690093994140625" lon="-4.36726391315460205078125">
        <ele>809</ele>
        <time>2019-07-08T10:58:15.000Z</time>
      </trkpt>
      <trkpt lat="42.40380741655826568603515625" lon="-4.3681290931999683380126953125">
        <ele>809</ele>
        <time>2019-07-08T10:58:17.000Z</time>
      </trkpt>
      <trkpt lat="42.403884865343570709228515625" lon="-4.368999637663364410400390625">
        <ele>809.5999755859375</ele>
        <time>2019-07-08T10:58:19.000Z</time>
      </trkpt>
      <trkpt lat="42.40396340377628803253173828125" lon="-4.36987177468836307525634765625">
        <ele>808.79998779296875</ele>
        <time>2019-07-08T10:58:21.000Z</time>
      </trkpt>
      <trkpt lat="42.4040436185896396636962890625" lon="-4.37074298970401287078857421875">
        <ele>808.20001220703125</ele>
        <time>2019-07-08T10:58:23.000Z</time>
      </trkpt>
      <trkpt lat="42.40412123501300811767578125" lon="-4.37160615809261798858642578125">
        <ele>807.79998779296875</ele>
        <time>2019-07-08T10:58:25.000Z</time>
      </trkpt>
      <trkpt lat="42.4041941575706005096435546875" lon="-4.37244166620075702667236328125">
        <ele>807.4000244140625</ele>
        <time>2019-07-08T10:58:27.000Z</time>
      </trkpt>
      <trkpt lat="42.40426381118595600128173828125" lon="-4.37326527200639247894287109375">
        <ele>807.79998779296875</ele>
        <time>2019-07-08T10:58:29.000Z</time>
      </trkpt>
      <trkpt lat="42.40434293635189533233642578125" lon="-4.37409306876361370086669921875">
        <ele>808.5999755859375</ele>
        <time>2019-07-08T10:58:31.000Z</time>
      </trkpt>
      <trkpt lat="42.40438367240130901336669921875" lon="-4.37450730241835117340087890625">
        <ele>809.4000244140625</ele>
        <time>2019-07-08T10:58:32.000Z</time>
      </trkpt>
      <trkpt lat="42.4044640548527240753173828125" lon="-4.37534113414585590362548828125">
        <ele>810.4000244140625</ele>
        <time>2019-07-08T10:58:34.000Z</time>
      </trkpt>
      <trkpt lat="42.40454343147575855255126953125" lon="-4.37618988566100597381591796875">
        <ele>810.5999755859375</ele>
        <time>2019-07-08T10:58:36.000Z</time>
      </trkpt>
      <trkpt lat="42.40461601875722408294677734375" lon="-4.377044253051280975341796875">
        <ele>809</ele>
        <time>2019-07-08T10:58:38.000Z</time>
      </trkpt>
      <trkpt lat="42.40469112060964107513427734375" lon="-4.3779050745069980621337890625">
        <ele>808.20001220703125</ele>
        <time>2019-07-08T10:58:40.000Z</time>
      </trkpt>
      <trkpt lat="42.4047647975385189056396484375" lon="-4.3787596933543682098388671875">
        <ele>809</ele>
        <time>2019-07-08T10:58:42.000Z</time>
      </trkpt>
      <trkpt lat="42.4048288352787494659423828125" lon="-4.37960785813629627227783203125">
        <ele>810</ele>
        <time>2019-07-08T10:58:44.000Z</time>
      </trkpt>
      <trkpt lat="42.40487225353717803955078125" lon="-4.38045644201338291168212890625">
        <ele>811</ele>
        <time>2019-07-08T10:58:46.000Z</time>
      </trkpt>
      <trkpt lat="42.4048916995525360107421875" lon="-4.3813067860901355743408203125">
        <ele>810.20001220703125</ele>
        <time>2019-07-08T10:58:48.000Z</time>
      </trkpt>
      <trkpt lat="42.40489295683801174163818359375" lon="-4.38173283822834491729736328125">
        <ele>810</ele>
        <time>2019-07-08T10:58:49.000Z</time>
      </trkpt>
      <trkpt lat="42.40488574840128421783447265625" lon="-4.3821600638329982757568359375">
        <ele>808.4000244140625</ele>
        <time>2019-07-08T10:58:50.000Z</time>
      </trkpt>
      <trkpt lat="42.40487300790846347808837890625" lon="-4.38258670270442962646484375">
        <ele>807.4000244140625</ele>
        <time>2019-07-08T10:58:51.000Z</time>
      </trkpt>
      <trkpt lat="42.40484031848609447479248046875" lon="-4.3834388069808483123779296875">
        <ele>806.20001220703125</ele>
        <time>2019-07-08T10:58:53.000Z</time>
      </trkpt>
      <trkpt lat="42.4047969840466976165771484375" lon="-4.384250007569789886474609375">
        <ele>808.20001220703125</ele>
        <time>2019-07-08T10:58:55.000Z</time>
      </trkpt>
      <trkpt lat="42.404768653213977813720703125" lon="-4.38463834114372730255126953125">
        <ele>809.5999755859375</ele>
        <time>2019-07-08T10:58:56.000Z</time>
      </trkpt>
      <trkpt lat="42.40473671816289424896240234375" lon="-4.38502005301415920257568359375">
        <ele>812</ele>
        <time>2019-07-08T10:58:57.000Z</time>
      </trkpt>
      <trkpt lat="42.4047021009027957916259765625" lon="-4.38539028167724609375">
        <ele>814</ele>
        <time>2019-07-08T10:58:58.000Z</time>
      </trkpt>
      <trkpt lat="42.40466513670980930328369140625" lon="-4.38574894331395626068115234375">
        <ele>815.20001220703125</ele>
        <time>2019-07-08T10:58:59.000Z</time>
      </trkpt>
      <trkpt lat="42.40462373010814189910888671875" lon="-4.38610039651393890380859375">
        <ele>816.20001220703125</ele>
        <time>2019-07-08T10:59:00.000Z</time>
      </trkpt>
      <trkpt lat="42.4045787192881107330322265625" lon="-4.3864465691149234771728515625">
        <ele>817.20001220703125</ele>
        <time>2019-07-08T10:59:01.000Z</time>
      </trkpt>
      <trkpt lat="42.4045307748019695281982421875" lon="-4.3867929093539714813232421875">
        <ele>818.4000244140625</ele>
        <time>2019-07-08T10:59:02.000Z</time>
      </trkpt>
      <trkpt lat="42.40448023192584514617919921875" lon="-4.38714268617331981658935546875">
        <ele>819.79998779296875</ele>
        <time>2019-07-08T10:59:03.000Z</time>
      </trkpt>
      <trkpt lat="42.40442658774554729461669921875" lon="-4.38749925233423709869384765625">
        <ele>821.20001220703125</ele>
        <time>2019-07-08T10:59:04.000Z</time>
      </trkpt>
      <trkpt lat="42.40430052392184734344482421875" lon="-4.38824306242167949676513671875">
        <ele>821.79998779296875</ele>
        <time>2019-07-08T10:59:06.000Z</time>
      </trkpt>
      <trkpt lat="42.4042266793549060821533203125" lon="-4.38862980343401432037353515625">
        <ele>822.4000244140625</ele>
        <time>2019-07-08T10:59:07.000Z</time>
      </trkpt>
      <trkpt lat="42.4041475541889667510986328125" lon="-4.3890248425304889678955078125">
        <ele>823.20001220703125</ele>
        <time>2019-07-08T10:59:08.000Z</time>
      </trkpt>
      <trkpt lat="42.4039757251739501953125" lon="-4.38983378000557422637939453125">
        <ele>822.4000244140625</ele>
        <time>2019-07-08T10:59:10.000Z</time>
      </trkpt>
      <trkpt lat="42.4038826860487461090087890625" lon="-4.39024248160421848297119140625">
        <ele>821</ele>
        <time>2019-07-08T10:59:11.000Z</time>
      </trkpt>
      <trkpt lat="42.40378319285809993743896484375" lon="-4.39065101556479930877685546875">
        <ele>819.4000244140625</ele>
        <time>2019-07-08T10:59:12.000Z</time>
      </trkpt>
      <trkpt lat="42.4036774970591068267822265625" lon="-4.39105854369699954986572265625">
        <ele>818.20001220703125</ele>
        <time>2019-07-08T10:59:13.000Z</time>
      </trkpt>
      <trkpt lat="42.40356660448014736175537109375" lon="-4.39146372489631175994873046875">
        <ele>817.20001220703125</ele>
        <time>2019-07-08T10:59:14.000Z</time>
      </trkpt>
      <trkpt lat="42.4033284746110439300537109375" lon="-4.3922642804682254791259765625">
        <ele>816.4000244140625</ele>
        <time>2019-07-08T10:59:16.000Z</time>
      </trkpt>
      <trkpt lat="42.403080202639102935791015625" lon="-4.3930535204708576202392578125">
        <ele>816.79998779296875</ele>
        <time>2019-07-08T10:59:18.000Z</time>
      </trkpt>
      <trkpt lat="42.40283452905714511871337890625" lon="-4.39383446238934993743896484375">
        <ele>817.5999755859375</ele>
        <time>2019-07-08T10:59:20.000Z</time>
      </trkpt>
      <trkpt lat="42.40259212441742420196533203125" lon="-4.39461112953722476959228515625">
        <ele>817.79998779296875</ele>
        <time>2019-07-08T10:59:22.000Z</time>
      </trkpt>
      <trkpt lat="42.4023551680147647857666015625" lon="-4.39538276754319667816162109375">
        <ele>818.5999755859375</ele>
        <time>2019-07-08T10:59:24.000Z</time>
      </trkpt>
      <trkpt lat="42.40211821161210536956787109375" lon="-4.39615490846335887908935546875">
        <ele>819.20001220703125</ele>
        <time>2019-07-08T10:59:26.000Z</time>
      </trkpt>
      <trkpt lat="42.4018867872655391693115234375" lon="-4.3969350121915340423583984375">
        <ele>818.4000244140625</ele>
        <time>2019-07-08T10:59:28.000Z</time>
      </trkpt>
      <trkpt lat="42.40166508592665195465087890625" lon="-4.39772777259349822998046875">
        <ele>819.5999755859375</ele>
        <time>2019-07-08T10:59:30.000Z</time>
      </trkpt>
      <trkpt lat="42.40145017392933368682861328125" lon="-4.39853109419345855712890625">
        <ele>818.79998779296875</ele>
        <time>2019-07-08T10:59:32.000Z</time>
      </trkpt>
      <trkpt lat="42.40124716423451900482177734375" lon="-4.3993402831256389617919921875">
        <ele>817.5999755859375</ele>
        <time>2019-07-08T10:59:34.000Z</time>
      </trkpt>
      <trkpt lat="42.40105739794671535491943359375" lon="-4.40014402382075786590576171875">
        <ele>816.79998779296875</ele>
        <time>2019-07-08T10:59:36.000Z</time>
      </trkpt>
      <trkpt lat="42.40096720866858959197998046875" lon="-4.4005435891449451446533203125">
        <ele>816.20001220703125</ele>
        <time>2019-07-08T10:59:37.000Z</time>
      </trkpt>
      <trkpt lat="42.4008014984428882598876953125" lon="-4.40134330652654170989990234375">
        <ele>815.20001220703125</ele>
        <time>2019-07-08T10:59:39.000Z</time>
      </trkpt>
      <trkpt lat="42.40072530694305896759033203125" lon="-4.40174697898328304290771484375">
        <ele>815.20001220703125</ele>
        <time>2019-07-08T10:59:40.000Z</time>
      </trkpt>
      <trkpt lat="42.4005768634378910064697265625" lon="-4.402563460171222686767578125">
        <ele>814.20001220703125</ele>
        <time>2019-07-08T10:59:42.000Z</time>
      </trkpt>
      <trkpt lat="42.4005051143467426300048828125" lon="-4.40297559835016727447509765625">
        <ele>813.79998779296875</ele>
        <time>2019-07-08T10:59:43.000Z</time>
      </trkpt>
      <trkpt lat="42.40036840550601482391357421875" lon="-4.40380188636481761932373046875">
        <ele>813</ele>
        <time>2019-07-08T10:59:45.000Z</time>
      </trkpt>
      <trkpt lat="42.40030470304191112518310546875" lon="-4.40421603620052337646484375">
        <ele>812.79998779296875</ele>
        <time>2019-07-08T10:59:46.000Z</time>
      </trkpt>
      <trkpt lat="42.40018702112138271331787109375" lon="-4.40504609607160091400146484375">
        <ele>812.5999755859375</ele>
        <time>2019-07-08T10:59:48.000Z</time>
      </trkpt>
      <trkpt lat="42.40008207969367504119873046875" lon="-4.4058785028755664825439453125">
        <ele>811.4000244140625</ele>
        <time>2019-07-08T10:59:50.000Z</time>
      </trkpt>
      <trkpt lat="42.40003379993140697479248046875" lon="-4.40629768185317516326904296875">
        <ele>810.20001220703125</ele>
        <time>2019-07-08T10:59:51.000Z</time>
      </trkpt>
      <trkpt lat="42.39994344301521778106689453125" lon="-4.4071441702544689178466796875">
        <ele>807.4000244140625</ele>
        <time>2019-07-08T10:59:53.000Z</time>
      </trkpt>
      <trkpt lat="42.39989968948066234588623046875" lon="-4.407569132745265960693359375">
        <ele>805.4000244140625</ele>
        <time>2019-07-08T10:59:54.000Z</time>
      </trkpt>
      <trkpt lat="42.3998571932315826416015625" lon="-4.407993592321872711181640625">
        <ele>803.20001220703125</ele>
        <time>2019-07-08T10:59:55.000Z</time>
      </trkpt>
      <trkpt lat="42.39981620572507381439208984375" lon="-4.40841645933687686920166015625">
        <ele>802</ele>
        <time>2019-07-08T10:59:56.000Z</time>
      </trkpt>
      <trkpt lat="42.3997391760349273681640625" lon="-4.40925733186304569244384765625">
        <ele>802</ele>
        <time>2019-07-08T10:59:58.000Z</time>
      </trkpt>
      <trkpt lat="42.3996642418205738067626953125" lon="-4.4100919179618358612060546875">
        <ele>804</ele>
        <time>2019-07-08T11:00:00.000Z</time>
      </trkpt>
      <trkpt lat="42.3995874635875225067138671875" lon="-4.4109277613461017608642578125">
        <ele>805</ele>
        <time>2019-07-08T11:00:02.000Z</time>
      </trkpt>
      <trkpt lat="42.3995096795260906219482421875" lon="-4.41176704131066799163818359375">
        <ele>803.79998779296875</ele>
        <time>2019-07-08T11:00:04.000Z</time>
      </trkpt>
      <trkpt lat="42.3994285427033901214599609375" lon="-4.4126078300178050994873046875">
        <ele>802.79998779296875</ele>
        <time>2019-07-08T11:00:06.000Z</time>
      </trkpt>
      <trkpt lat="42.39933961071074008941650390625" lon="-4.41344576887786388397216796875">
        <ele>802.79998779296875</ele>
        <time>2019-07-08T11:00:08.000Z</time>
      </trkpt>
      <trkpt lat="42.3992411233484745025634765625" lon="-4.41427909769117832183837890625">
        <ele>804</ele>
        <time>2019-07-08T11:00:10.000Z</time>
      </trkpt>
      <trkpt lat="42.39913023076951503753662109375" lon="-4.41511058248579502105712890625">
        <ele>804.5999755859375</ele>
        <time>2019-07-08T11:00:12.000Z</time>
      </trkpt>
      <trkpt lat="42.399069964885711669921875" lon="-4.4155277498066425323486328125">
        <ele>805</ele>
        <time>2019-07-08T11:00:13.000Z</time>
      </trkpt>
      <trkpt lat="42.3990074358880519866943359375" lon="-4.4159475155174732208251953125">
        <ele>805.20001220703125</ele>
        <time>2019-07-08T11:00:14.000Z</time>
      </trkpt>
      <trkpt lat="42.3988703079521656036376953125" lon="-4.41678897477686405181884765625">
        <ele>805.20001220703125</ele>
        <time>2019-07-08T11:00:16.000Z</time>
      </trkpt>
      <trkpt lat="42.398718930780887603759765625" lon="-4.41763110458850860595703125">
        <ele>804.20001220703125</ele>
        <time>2019-07-08T11:00:18.000Z</time>
      </trkpt>
      <trkpt lat="42.3985531367361545562744140625" lon="-4.41847323440015316009521484375">
        <ele>809</ele>
        <time>2019-07-08T11:00:20.000Z</time>
      </trkpt>
      <trkpt lat="42.398466803133487701416015625" lon="-4.41889216192066669464111328125">
        <ele>815.79998779296875</ele>
        <time>2019-07-08T11:00:21.000Z</time>
      </trkpt>
      <trkpt lat="42.3983784578740596771240234375" lon="-4.41931108944118022918701171875">
        <ele>824.4000244140625</ele>
        <time>2019-07-08T11:00:22.000Z</time>
      </trkpt>
      <trkpt lat="42.398289106786251068115234375" lon="-4.41972783766686916351318359375">
        <ele>829.20001220703125</ele>
        <time>2019-07-08T11:00:23.000Z</time>
      </trkpt>
      <trkpt lat="42.39819799549877643585205078125" lon="-4.420141316950321197509765625">
        <ele>831.5999755859375</ele>
        <time>2019-07-08T11:00:24.000Z</time>
      </trkpt>
      <trkpt lat="42.39801024086773395538330078125" lon="-4.42096131853759288787841796875">
        <ele>827.4000244140625</ele>
        <time>2019-07-08T11:00:26.000Z</time>
      </trkpt>
      <trkpt lat="42.39791435189545154571533203125" lon="-4.421370439231395721435546875">
        <ele>819.20001220703125</ele>
        <time>2019-07-08T11:00:27.000Z</time>
      </trkpt>
      <trkpt lat="42.39781846292316913604736328125" lon="-4.4217806495726108551025390625">
        <ele>809.5999755859375</ele>
        <time>2019-07-08T11:00:28.000Z</time>
      </trkpt>
      <trkpt lat="42.3977226577699184417724609375" lon="-4.422193206846714019775390625">
        <ele>804.20001220703125</ele>
        <time>2019-07-08T11:00:29.000Z</time>
      </trkpt>
      <trkpt lat="42.39762785844504833221435546875" lon="-4.42260802723467350006103515625">
        <ele>800.20001220703125</ele>
        <time>2019-07-08T11:00:30.000Z</time>
      </trkpt>
      <trkpt lat="42.39753264002501964569091796875" lon="-4.42302427254617214202880859375">
        <ele>798.4000244140625</ele>
        <time>2019-07-08T11:00:31.000Z</time>
      </trkpt>
      <trkpt lat="42.39733851514756679534912109375" lon="-4.423859529197216033935546875">
        <ele>797</ele>
        <time>2019-07-08T11:00:33.000Z</time>
      </trkpt>
      <trkpt lat="42.39713676273822784423828125" lon="-4.424703083932399749755859375">
        <ele>795</ele>
        <time>2019-07-08T11:00:35.000Z</time>
      </trkpt>
      <trkpt lat="42.3970336653292179107666015625" lon="-4.425128884613513946533203125">
        <ele>793.79998779296875</ele>
        <time>2019-07-08T11:00:36.000Z</time>
      </trkpt>
      <trkpt lat="42.39682495594024658203125" lon="-4.4259943999350070953369140625">
        <ele>794.20001220703125</ele>
        <time>2019-07-08T11:00:38.000Z</time>
      </trkpt>
      <trkpt lat="42.396618090569972991943359375" lon="-4.4268791936337947845458984375">
        <ele>793.5999755859375</ele>
        <time>2019-07-08T11:00:40.000Z</time>
      </trkpt>
      <trkpt lat="42.39651449024677276611328125" lon="-4.427324272692203521728515625">
        <ele>792.20001220703125</ele>
        <time>2019-07-08T11:00:41.000Z</time>
      </trkpt>
      <trkpt lat="42.39641047082841396331787109375" lon="-4.42776842974126338958740234375">
        <ele>791</ele>
        <time>2019-07-08T11:00:42.000Z</time>
      </trkpt>
      <trkpt lat="42.39630603231489658355712890625" lon="-4.42821107804775238037109375">
        <ele>790</ele>
        <time>2019-07-08T11:00:43.000Z</time>
      </trkpt>
      <trkpt lat="42.39620201289653778076171875" lon="-4.42865230143070220947265625">
        <ele>788.5999755859375</ele>
        <time>2019-07-08T11:00:44.000Z</time>
      </trkpt>
      <trkpt lat="42.3959993384778499603271484375" lon="-4.42953072488307952880859375">
        <ele>787.5999755859375</ele>
        <time>2019-07-08T11:00:46.000Z</time>
      </trkpt>
      <trkpt lat="42.39580999128520488739013671875" lon="-4.430412165820598602294921875">
        <ele>790.20001220703125</ele>
        <time>2019-07-08T11:00:48.000Z</time>
      </trkpt>
      <trkpt lat="42.39571980200707912445068359375" lon="-4.43085414357483386993408203125">
        <ele>791.4000244140625</ele>
        <time>2019-07-08T11:00:49.000Z</time>
      </trkpt>
      <trkpt lat="42.39553255029022693634033203125" lon="-4.43173290230333805084228515625">
        <ele>792.5999755859375</ele>
        <time>2019-07-08T11:00:51.000Z</time>
      </trkpt>
      <trkpt lat="42.3953304626047611236572265625" lon="-4.43260294385254383087158203125">
        <ele>792.79998779296875</ele>
        <time>2019-07-08T11:00:53.000Z</time>
      </trkpt>
      <trkpt lat="42.39512636326253414154052734375" lon="-4.43346410058438777923583984375">
        <ele>791.79998779296875</ele>
        <time>2019-07-08T11:00:55.000Z</time>
      </trkpt>
      <trkpt lat="42.394928634166717529296875" lon="-4.43431503139436244964599609375">
        <ele>792.20001220703125</ele>
        <time>2019-07-08T11:00:57.000Z</time>
      </trkpt>
      <trkpt lat="42.39473350346088409423828125" lon="-4.43515322171151638031005859375">
        <ele>791.20001220703125</ele>
        <time>2019-07-08T11:00:59.000Z</time>
      </trkpt>
      <trkpt lat="42.3945442400872707366943359375" lon="-4.43598068319261074066162109375">
        <ele>793</ele>
        <time>2019-07-08T11:01:01.000Z</time>
      </trkpt>
      <trkpt lat="42.3943558149039745330810546875" lon="-4.4367961585521697998046875">
        <ele>794.4000244140625</ele>
        <time>2019-07-08T11:01:03.000Z</time>
      </trkpt>
      <trkpt lat="42.39426151849329471588134765625" lon="-4.43719991482794284820556640625">
        <ele>795.79998779296875</ele>
        <time>2019-07-08T11:01:04.000Z</time>
      </trkpt>
      <trkpt lat="42.3940775357186794281005859375" lon="-4.43800541572272777557373046875">
        <ele>797.4000244140625</ele>
        <time>2019-07-08T11:01:06.000Z</time>
      </trkpt>
      <trkpt lat="42.39389657042920589447021484375" lon="-4.43880957551300525665283203125">
        <ele>798</ele>
        <time>2019-07-08T11:01:08.000Z</time>
      </trkpt>
      <trkpt lat="42.39371962845325469970703125" lon="-4.4396133162081241607666015625">
        <ele>797.20001220703125</ele>
        <time>2019-07-08T11:01:10.000Z</time>
      </trkpt>
      <trkpt lat="42.39355609752237796783447265625" lon="-4.4404206611216068267822265625">
        <ele>797.20001220703125</ele>
        <time>2019-07-08T11:01:12.000Z</time>
      </trkpt>
      <trkpt lat="42.39340371452271938323974609375" lon="-4.44122976623475551605224609375">
        <ele>799.20001220703125</ele>
        <time>2019-07-08T11:01:14.000Z</time>
      </trkpt>
      <trkpt lat="42.39325937815010547637939453125" lon="-4.44204390048980712890625">
        <ele>800.4000244140625</ele>
        <time>2019-07-08T11:01:16.000Z</time>
      </trkpt>
      <trkpt lat="42.3931910656392574310302734375" lon="-4.44245285354554653167724609375">
        <ele>802.4000244140625</ele>
        <time>2019-07-08T11:01:17.000Z</time>
      </trkpt>
      <trkpt lat="42.3931260220706462860107421875" lon="-4.4428641535341739654541015625">
        <ele>803.5999755859375</ele>
        <time>2019-07-08T11:01:18.000Z</time>
      </trkpt>
      <trkpt lat="42.3930653370916843414306640625" lon="-4.443278051912784576416015625">
        <ele>805.79998779296875</ele>
        <time>2019-07-08T11:01:19.000Z</time>
      </trkpt>
      <trkpt lat="42.3930083401501178741455078125" lon="-4.44369656033813953399658203125">
        <ele>807.5999755859375</ele>
        <time>2019-07-08T11:01:20.000Z</time>
      </trkpt>
      <trkpt lat="42.3929540254175662994384765625" lon="-4.44412152282893657684326171875">
        <ele>809.20001220703125</ele>
        <time>2019-07-08T11:01:21.000Z</time>
      </trkpt>
      <trkpt lat="42.392856292426586151123046875" lon="-4.44498569704592227935791015625">
        <ele>810.5999755859375</ele>
        <time>2019-07-08T11:01:23.000Z</time>
      </trkpt>
      <trkpt lat="42.39277155138552188873291015625" lon="-4.44585909135639667510986328125">
        <ele>810.5999755859375</ele>
        <time>2019-07-08T11:01:25.000Z</time>
      </trkpt>
      <trkpt lat="42.39269879646599292755126953125" lon="-4.44673818536102771759033203125">
        <ele>811.4000244140625</ele>
        <time>2019-07-08T11:01:27.000Z</time>
      </trkpt>
      <trkpt lat="42.39264515228569507598876953125" lon="-4.44761694408953189849853515625">
        <ele>811.20001220703125</ele>
        <time>2019-07-08T11:01:29.000Z</time>
      </trkpt>
      <trkpt lat="42.392606846988201141357421875" lon="-4.44849084131419658660888671875">
        <ele>810</ele>
        <time>2019-07-08T11:01:31.000Z</time>
      </trkpt>
      <trkpt lat="42.39258061163127422332763671875" lon="-4.449360631406307220458984375">
        <ele>810</ele>
        <time>2019-07-08T11:01:33.000Z</time>
      </trkpt>
      <trkpt lat="42.3925731517374515533447265625" lon="-4.4497926346957683563232421875">
        <ele>809.4000244140625</ele>
        <time>2019-07-08T11:01:34.000Z</time>
      </trkpt>
      <trkpt lat="42.3925701342523097991943359375" lon="-4.4506502710282802581787109375">
        <ele>809.20001220703125</ele>
        <time>2019-07-08T11:01:36.000Z</time>
      </trkpt>
      <trkpt lat="42.3925751633942127227783203125" lon="-4.45150296203792095184326171875">
        <ele>810.4000244140625</ele>
        <time>2019-07-08T11:01:38.000Z</time>
      </trkpt>
      <trkpt lat="42.39259419031441211700439453125" lon="-4.45235154591500759124755859375">
        <ele>811.20001220703125</ele>
        <time>2019-07-08T11:01:40.000Z</time>
      </trkpt>
      <trkpt lat="42.3926060087978839874267578125" lon="-4.45277340710163116455078125">
        <ele>811.79998779296875</ele>
        <time>2019-07-08T11:01:41.000Z</time>
      </trkpt>
      <trkpt lat="42.3926345072686672210693359375" lon="-4.45361427962779998779296875">
        <ele>812.5999755859375</ele>
        <time>2019-07-08T11:01:43.000Z</time>
      </trkpt>
      <trkpt lat="42.3926680348813533782958984375" lon="-4.45445070974528789520263671875">
        <ele>813.4000244140625</ele>
        <time>2019-07-08T11:01:45.000Z</time>
      </trkpt>
      <trkpt lat="42.39268505014479160308837890625" lon="-4.4548670388758182525634765625">
        <ele>815.79998779296875</ele>
        <time>2019-07-08T11:01:46.000Z</time>
      </trkpt>
      <trkpt lat="42.39270064048469066619873046875" lon="-4.45528403855860233306884765625">
        <ele>820</ele>
        <time>2019-07-08T11:01:47.000Z</time>
      </trkpt>
      <trkpt lat="42.39271706901490688323974609375" lon="-4.45570061914622783660888671875">
        <ele>824.4000244140625</ele>
        <time>2019-07-08T11:01:48.000Z</time>
      </trkpt>
      <trkpt lat="42.3927344195544719696044921875" lon="-4.45611434988677501678466796875">
        <ele>827.5999755859375</ele>
        <time>2019-07-08T11:01:49.000Z</time>
      </trkpt>
      <trkpt lat="42.39275210537016391754150390625" lon="-4.45652824826538562774658203125">
        <ele>830</ele>
        <time>2019-07-08T11:01:50.000Z</time>
      </trkpt>
      <trkpt lat="42.39276744425296783447265625" lon="-4.45694047026336193084716796875">
        <ele>831.79998779296875</ele>
        <time>2019-07-08T11:01:51.000Z</time>
      </trkpt>
      <trkpt lat="42.39278362132608890533447265625" lon="-4.45775133557617664337158203125">
        <ele>833</ele>
        <time>2019-07-08T11:01:53.000Z</time>
      </trkpt>
      <trkpt lat="42.3927937634289264678955078125" lon="-4.45857125334441661834716796875">
        <ele>830</ele>
        <time>2019-07-08T11:01:55.000Z</time>
      </trkpt>
      <trkpt lat="42.39279820583760738372802734375" lon="-4.4589900970458984375">
        <ele>826.20001220703125</ele>
        <time>2019-07-08T11:01:56.000Z</time>
      </trkpt>
      <trkpt lat="42.3927981220185756683349609375" lon="-4.45941212587058544158935546875">
        <ele>822.20001220703125</ele>
        <time>2019-07-08T11:01:57.000Z</time>
      </trkpt>
      <trkpt lat="42.392792589962482452392578125" lon="-4.459835998713970184326171875">
        <ele>819.4000244140625</ele>
        <time>2019-07-08T11:01:58.000Z</time>
      </trkpt>
      <trkpt lat="42.392782866954803466796875" lon="-4.46026070974767208099365234375">
        <ele>817.4000244140625</ele>
        <time>2019-07-08T11:01:59.000Z</time>
      </trkpt>
      <trkpt lat="42.39275579340755939483642578125" lon="-4.46111281402409076690673828125">
        <ele>816.79998779296875</ele>
        <time>2019-07-08T11:02:01.000Z</time>
      </trkpt>
      <trkpt lat="42.39271271042525768280029296875" lon="-4.46197078563272953033447265625">
        <ele>816.79998779296875</ele>
        <time>2019-07-08T11:02:03.000Z</time>
      </trkpt>
      <trkpt lat="42.39265479147434234619140625" lon="-4.46283009834587574005126953125">
        <ele>816.79998779296875</ele>
        <time>2019-07-08T11:02:05.000Z</time>
      </trkpt>
      <trkpt lat="42.39257591776549816131591796875" lon="-4.46367734111845493316650390625">
        <ele>817.5999755859375</ele>
        <time>2019-07-08T11:02:07.000Z</time>
      </trkpt>
      <trkpt lat="42.39253283478319644927978515625" lon="-4.464097358286380767822265625">
        <ele>818.5999755859375</ele>
        <time>2019-07-08T11:02:08.000Z</time>
      </trkpt>
      <trkpt lat="42.39244482479989528656005859375" lon="-4.4649303518235683441162109375">
        <ele>820.4000244140625</ele>
        <time>2019-07-08T11:02:10.000Z</time>
      </trkpt>
      <trkpt lat="42.39239503629505634307861328125" lon="-4.465345256030559539794921875">
        <ele>821.5999755859375</ele>
        <time>2019-07-08T11:02:11.000Z</time>
      </trkpt>
      <trkpt lat="42.39228196442127227783203125" lon="-4.46617246605455875396728515625">
        <ele>822.5999755859375</ele>
        <time>2019-07-08T11:02:13.000Z</time>
      </trkpt>
      <trkpt lat="42.39215447567403316497802734375" lon="-4.46700328029692173004150390625">
        <ele>822.4000244140625</ele>
        <time>2019-07-08T11:02:15.000Z</time>
      </trkpt>
      <trkpt lat="42.392012737691402435302734375" lon="-4.46782688610255718231201171875">
        <ele>821.20001220703125</ele>
        <time>2019-07-08T11:02:17.000Z</time>
      </trkpt>
      <trkpt lat="42.3918583430349826812744140625" lon="-4.46864546276628971099853515625">
        <ele>819.5999755859375</ele>
        <time>2019-07-08T11:02:19.000Z</time>
      </trkpt>
      <trkpt lat="42.39169246517121791839599609375" lon="-4.46946554817259311676025390625">
        <ele>818.4000244140625</ele>
        <time>2019-07-08T11:02:21.000Z</time>
      </trkpt>
      <trkpt lat="42.39150906912982463836669921875" lon="-4.47030005045235157012939453125">
        <ele>817</ele>
        <time>2019-07-08T11:02:23.000Z</time>
      </trkpt>
      <trkpt lat="42.39130295813083648681640625" lon="-4.47114787995815277099609375">
        <ele>816</ele>
        <time>2019-07-08T11:02:25.000Z</time>
      </trkpt>
      <trkpt lat="42.391193322837352752685546875" lon="-4.47157560847699642181396484375">
        <ele>815.79998779296875</ele>
        <time>2019-07-08T11:02:26.000Z</time>
      </trkpt>
      <trkpt lat="42.39096206612884998321533203125" lon="-4.47243265807628631591796875">
        <ele>814.5999755859375</ele>
        <time>2019-07-08T11:02:28.000Z</time>
      </trkpt>
      <trkpt lat="42.3907150514423847198486328125" lon="-4.473273195326328277587890625">
        <ele>813.79998779296875</ele>
        <time>2019-07-08T11:02:30.000Z</time>
      </trkpt>
      <trkpt lat="42.39046015776693820953369140625" lon="-4.47409093379974365234375">
        <ele>813.79998779296875</ele>
        <time>2019-07-08T11:02:32.000Z</time>
      </trkpt>
      <trkpt lat="42.39018875174224376678466796875" lon="-4.47489065118134021759033203125">
        <ele>815.20001220703125</ele>
        <time>2019-07-08T11:02:34.000Z</time>
      </trkpt>
      <trkpt lat="42.39004768431186676025390625" lon="-4.47528711520135402679443359375">
        <ele>816</ele>
        <time>2019-07-08T11:02:35.000Z</time>
      </trkpt>
      <trkpt lat="42.38976093940436840057373046875" lon="-4.47607819922268390655517578125">
        <ele>817.20001220703125</ele>
        <time>2019-07-08T11:02:37.000Z</time>
      </trkpt>
      <trkpt lat="42.3894728533923625946044921875" lon="-4.47686475701630115509033203125">
        <ele>817.79998779296875</ele>
        <time>2019-07-08T11:02:39.000Z</time>
      </trkpt>
      <trkpt lat="42.3891841806471347808837890625" lon="-4.47764561511576175689697265625">
        <ele>818.5999755859375</ele>
        <time>2019-07-08T11:02:41.000Z</time>
      </trkpt>
      <trkpt lat="42.388892658054828643798828125" lon="-4.47841398417949676513671875">
        <ele>819.79998779296875</ele>
        <time>2019-07-08T11:02:43.000Z</time>
      </trkpt>
      <trkpt lat="42.38860624842345714569091796875" lon="-4.47918134741485118865966796875">
        <ele>820.4000244140625</ele>
        <time>2019-07-08T11:02:45.000Z</time>
      </trkpt>
      <trkpt lat="42.388462834060192108154296875" lon="-4.47956523858010768890380859375">
        <ele>821.5999755859375</ele>
        <time>2019-07-08T11:02:46.000Z</time>
      </trkpt>
      <trkpt lat="42.3883183300495147705078125" lon="-4.4799473695456981658935546875">
        <ele>822.79998779296875</ele>
        <time>2019-07-08T11:02:47.000Z</time>
      </trkpt>
      <trkpt lat="42.38817407749593257904052734375" lon="-4.48033167980611324310302734375">
        <ele>824.5999755859375</ele>
        <time>2019-07-08T11:02:48.000Z</time>
      </trkpt>
      <trkpt lat="42.388029992580413818359375" lon="-4.48071892373263835906982421875">
        <ele>826.20001220703125</ele>
        <time>2019-07-08T11:02:49.000Z</time>
      </trkpt>
      <trkpt lat="42.3878880031406879425048828125" lon="-4.48110650293529033660888671875">
        <ele>827.4000244140625</ele>
        <time>2019-07-08T11:02:50.000Z</time>
      </trkpt>
      <trkpt lat="42.38774844445288181304931640625" lon="-4.48149316012859344482421875">
        <ele>828.5999755859375</ele>
        <time>2019-07-08T11:02:51.000Z</time>
      </trkpt>
      <trkpt lat="42.38761031068861484527587890625" lon="-4.48187948204576969146728515625">
        <ele>829.5999755859375</ele>
        <time>2019-07-08T11:02:52.000Z</time>
      </trkpt>
      <trkpt lat="42.38733555190265178680419921875" lon="-4.48264860548079013824462890625">
        <ele>830.79998779296875</ele>
        <time>2019-07-08T11:02:54.000Z</time>
      </trkpt>
      <trkpt lat="42.3870672471821308135986328125" lon="-4.48341496288776397705078125">
        <ele>831.79998779296875</ele>
        <time>2019-07-08T11:02:56.000Z</time>
      </trkpt>
      <trkpt lat="42.386809252202510833740234375" lon="-4.48418073356151580810546875">
        <ele>833.4000244140625</ele>
        <time>2019-07-08T11:02:58.000Z</time>
      </trkpt>
      <trkpt lat="42.38655754365026950836181640625" lon="-4.48495052754878997802734375">
        <ele>834.4000244140625</ele>
        <time>2019-07-08T11:03:00.000Z</time>
      </trkpt>
      <trkpt lat="42.38643382675945758819580078125" lon="-4.48533617891371250152587890625">
        <ele>835.5999755859375</ele>
        <time>2019-07-08T11:03:01.000Z</time>
      </trkpt>
      <trkpt lat="42.3861945234239101409912109375" lon="-4.4861087389290332794189453125">
        <ele>835.4000244140625</ele>
        <time>2019-07-08T11:03:03.000Z</time>
      </trkpt>
      <trkpt lat="42.38596511073410511016845703125" lon="-4.48688247241079807281494140625">
        <ele>836.4000244140625</ele>
        <time>2019-07-08T11:03:05.000Z</time>
      </trkpt>
      <trkpt lat="42.38585379905998706817626953125" lon="-4.487270973622798919677734375">
        <ele>837</ele>
        <time>2019-07-08T11:03:06.000Z</time>
      </trkpt>
      <trkpt lat="42.3856332711875438690185546875" lon="-4.4880509935319423675537109375">
        <ele>837.5999755859375</ele>
        <time>2019-07-08T11:03:08.000Z</time>
      </trkpt>
      <trkpt lat="42.3854193650186061859130859375" lon="-4.4888390600681304931640625">
        <ele>838</ele>
        <time>2019-07-08T11:03:10.000Z</time>
      </trkpt>
      <trkpt lat="42.38531551323831081390380859375" lon="-4.489236362278461456298828125">
        <ele>839.20001220703125</ele>
        <time>2019-07-08T11:03:11.000Z</time>
      </trkpt>
      <trkpt lat="42.38511166535317897796630859375" lon="-4.4900314696133136749267578125">
        <ele>838</ele>
        <time>2019-07-08T11:03:13.000Z</time>
      </trkpt>
      <trkpt lat="42.38501183688640594482421875" lon="-4.49043002910912036895751953125">
        <ele>836.5999755859375</ele>
        <time>2019-07-08T11:03:14.000Z</time>
      </trkpt>
      <trkpt lat="42.38481427542865276336669921875" lon="-4.49122664518654346466064453125">
        <ele>837.20001220703125</ele>
        <time>2019-07-08T11:03:16.000Z</time>
      </trkpt>
      <trkpt lat="42.38461780361831188201904296875" lon="-4.49202594347298145294189453125">
        <ele>836.79998779296875</ele>
        <time>2019-07-08T11:03:18.000Z</time>
      </trkpt>
      <trkpt lat="42.38441898487508296966552734375" lon="-4.492831863462924957275390625">
        <ele>838.4000244140625</ele>
        <time>2019-07-08T11:03:20.000Z</time>
      </trkpt>
      <trkpt lat="42.38422452472150325775146484375" lon="-4.49363778345286846160888671875">
        <ele>839.5999755859375</ele>
        <time>2019-07-08T11:03:22.000Z</time>
      </trkpt>
      <trkpt lat="42.38412662409245967864990234375" lon="-4.49403810314834117889404296875">
        <ele>840.79998779296875</ele>
        <time>2019-07-08T11:03:23.000Z</time>
      </trkpt>
      <trkpt lat="42.38392663188278675079345703125" lon="-4.494831450283527374267578125">
        <ele>842</ele>
        <time>2019-07-08T11:03:25.000Z</time>
      </trkpt>
      <trkpt lat="42.38372328691184520721435546875" lon="-4.49561859481036663055419921875">
        <ele>842</ele>
        <time>2019-07-08T11:03:27.000Z</time>
      </trkpt>
      <trkpt lat="42.38351826556026935577392578125" lon="-4.49640347622334957122802734375">
        <ele>842</ele>
        <time>2019-07-08T11:03:29.000Z</time>
      </trkpt>
      <trkpt lat="42.383313663303852081298828125" lon="-4.4971887767314910888671875">
        <ele>841.4000244140625</ele>
        <time>2019-07-08T11:03:31.000Z</time>
      </trkpt>
      <trkpt lat="42.38321232609450817108154296875" lon="-4.4975808821618556976318359375">
        <ele>840</ele>
        <time>2019-07-08T11:03:32.000Z</time>
      </trkpt>
      <trkpt lat="42.383000850677490234375" lon="-4.49835998006165027618408203125">
        <ele>839</ele>
        <time>2019-07-08T11:03:34.000Z</time>
      </trkpt>
      <trkpt lat="42.38288660533726215362548828125" lon="-4.4987479783594608306884765625">
        <ele>838.79998779296875</ele>
        <time>2019-07-08T11:03:35.000Z</time>
      </trkpt>
      <trkpt lat="42.38263984210789203643798828125" lon="-4.499524645507335662841796875">
        <ele>839.79998779296875</ele>
        <time>2019-07-08T11:03:37.000Z</time>
      </trkpt>
      <trkpt lat="42.3825081624090671539306640625" lon="-4.49991323053836822509765625">
        <ele>840.5999755859375</ele>
        <time>2019-07-08T11:03:38.000Z</time>
      </trkpt>
      <trkpt lat="42.38223549909889698028564453125" lon="-4.500690735876560211181640625">
        <ele>841.20001220703125</ele>
        <time>2019-07-08T11:03:40.000Z</time>
      </trkpt>
      <trkpt lat="42.38195353187620639801025390625" lon="-4.50145944021642208099365234375">
        <ele>839.4000244140625</ele>
        <time>2019-07-08T11:03:42.000Z</time>
      </trkpt>
      <trkpt lat="42.381661422550678253173828125" lon="-4.5022190921008586883544921875">
        <ele>838.20001220703125</ele>
        <time>2019-07-08T11:03:44.000Z</time>
      </trkpt>
      <trkpt lat="42.38135908730328083038330078125" lon="-4.50296684168279170989990234375">
        <ele>837.4000244140625</ele>
        <time>2019-07-08T11:03:46.000Z</time>
      </trkpt>
      <trkpt lat="42.38105365075170993804931640625" lon="-4.50370830483734607696533203125">
        <ele>839.4000244140625</ele>
        <time>2019-07-08T11:03:48.000Z</time>
      </trkpt>
      <trkpt lat="42.38074712455272674560546875" lon="-4.50444557704031467437744140625">
        <ele>840</ele>
        <time>2019-07-08T11:03:50.000Z</time>
      </trkpt>
      <trkpt lat="42.3804385028779506683349609375" lon="-4.50518368743360042572021484375">
        <ele>839.79998779296875</ele>
        <time>2019-07-08T11:03:52.000Z</time>
      </trkpt>
      <trkpt lat="42.3801327310502529144287109375" lon="-4.50592582114040851593017578125">
        <ele>839.5999755859375</ele>
        <time>2019-07-08T11:03:54.000Z</time>
      </trkpt>
      <trkpt lat="42.3798358440399169921875" lon="-4.50667751021683216094970703125">
        <ele>839.4000244140625</ele>
        <time>2019-07-08T11:03:56.000Z</time>
      </trkpt>
      <trkpt lat="42.3795319162309169769287109375" lon="-4.50742500834167003631591796875">
        <ele>840</ele>
        <time>2019-07-08T11:03:58.000Z</time>
      </trkpt>
      <trkpt lat="42.37937475554645061492919921875" lon="-4.50779699720442295074462890625">
        <ele>841.20001220703125</ele>
        <time>2019-07-08T11:03:59.000Z</time>
      </trkpt>
      <trkpt lat="42.37921650521457195281982421875" lon="-4.5081697404384613037109375">
        <ele>842.20001220703125</ele>
        <time>2019-07-08T11:04:00.000Z</time>
      </trkpt>
      <trkpt lat="42.3788982443511486053466796875" lon="-4.5089179091155529022216796875">
        <ele>842.5999755859375</ele>
        <time>2019-07-08T11:04:02.000Z</time>
      </trkpt>
      <trkpt lat="42.378582246601581573486328125" lon="-4.5096662454307079315185546875">
        <ele>843.20001220703125</ele>
        <time>2019-07-08T11:04:04.000Z</time>
      </trkpt>
      <trkpt lat="42.37827521748840808868408203125" lon="-4.51041097752749919891357421875">
        <ele>842.79998779296875</ele>
        <time>2019-07-08T11:04:06.000Z</time>
      </trkpt>
      <trkpt lat="42.3779681883752346038818359375" lon="-4.51114355586469173431396484375">
        <ele>841.5999755859375</ele>
        <time>2019-07-08T11:04:08.000Z</time>
      </trkpt>
      <trkpt lat="42.3776607401669025421142578125" lon="-4.51187278144061565399169921875">
        <ele>841.20001220703125</ele>
        <time>2019-07-08T11:04:10.000Z</time>
      </trkpt>
      <trkpt lat="42.3773556388914585113525390625" lon="-4.51260812580585479736328125">
        <ele>840.5999755859375</ele>
        <time>2019-07-08T11:04:12.000Z</time>
      </trkpt>
      <trkpt lat="42.3772047646343708038330078125" lon="-4.51297801919281482696533203125">
        <ele>838.5999755859375</ele>
        <time>2019-07-08T11:04:13.000Z</time>
      </trkpt>
      <trkpt lat="42.37705498002469539642333984375" lon="-4.51334841549396514892578125">
        <ele>836.4000244140625</ele>
        <time>2019-07-08T11:04:14.000Z</time>
      </trkpt>
      <trkpt lat="42.3769063688814640045166015625" lon="-4.51371931470930576324462890625">
        <ele>833.79998779296875</ele>
        <time>2019-07-08T11:04:15.000Z</time>
      </trkpt>
      <trkpt lat="42.37675909884274005889892578125" lon="-4.5140902139246463775634765625">
        <ele>832.4000244140625</ele>
        <time>2019-07-08T11:04:16.000Z</time>
      </trkpt>
      <trkpt lat="42.376470677554607391357421875" lon="-4.51482891105115413665771484375">
        <ele>831.20001220703125</ele>
        <time>2019-07-08T11:04:18.000Z</time>
      </trkpt>
      <trkpt lat="42.37618862651288509368896484375" lon="-4.51556869782507419586181640625">
        <ele>831.4000244140625</ele>
        <time>2019-07-08T11:04:20.000Z</time>
      </trkpt>
      <trkpt lat="42.376048564910888671875" lon="-4.5159399323165416717529296875">
        <ele>832.79998779296875</ele>
        <time>2019-07-08T11:04:21.000Z</time>
      </trkpt>
      <trkpt lat="42.37590867094695568084716796875" lon="-4.51631225645542144775390625">
        <ele>835</ele>
        <time>2019-07-08T11:04:22.000Z</time>
      </trkpt>
      <trkpt lat="42.37576936371624469757080078125" lon="-4.51668567024171352386474609375">
        <ele>836.5999755859375</ele>
        <time>2019-07-08T11:04:23.000Z</time>
      </trkpt>
      <trkpt lat="42.37563215196132659912109375" lon="-4.51706050895154476165771484375">
        <ele>838.5999755859375</ele>
        <time>2019-07-08T11:04:24.000Z</time>
      </trkpt>
      <trkpt lat="42.3754965327680110931396484375" lon="-4.51743685640394687652587890625">
        <ele>840.4000244140625</ele>
        <time>2019-07-08T11:04:25.000Z</time>
      </trkpt>
      <trkpt lat="42.3752266354858875274658203125" lon="-4.518192149698734283447265625">
        <ele>841.4000244140625</ele>
        <time>2019-07-08T11:04:27.000Z</time>
      </trkpt>
      <trkpt lat="42.374961264431476593017578125" lon="-4.5189543999731540679931640625">
        <ele>840.20001220703125</ele>
        <time>2019-07-08T11:04:29.000Z</time>
      </trkpt>
      <trkpt lat="42.3747007548809051513671875" lon="-4.51971857808530330657958984375">
        <ele>837.5999755859375</ele>
        <time>2019-07-08T11:04:31.000Z</time>
      </trkpt>
      <trkpt lat="42.3745711706578731536865234375" lon="-4.520101211965084075927734375">
        <ele>835.79998779296875</ele>
        <time>2019-07-08T11:04:32.000Z</time>
      </trkpt>
      <trkpt lat="42.37444150261580944061279296875" lon="-4.5204837620258331298828125">
        <ele>834.5999755859375</ele>
        <time>2019-07-08T11:04:33.000Z</time>
      </trkpt>
      <trkpt lat="42.374185435473918914794921875" lon="-4.52125489711761474609375">
        <ele>835.4000244140625</ele>
        <time>2019-07-08T11:04:35.000Z</time>
      </trkpt>
      <trkpt lat="42.37393506802618503570556640625" lon="-4.5220329053699970245361328125">
        <ele>835.20001220703125</ele>
        <time>2019-07-08T11:04:37.000Z</time>
      </trkpt>
      <trkpt lat="42.3736850358545780181884765625" lon="-4.52281720004975795745849609375">
        <ele>835</ele>
        <time>2019-07-08T11:04:39.000Z</time>
      </trkpt>
      <trkpt lat="42.37343609333038330078125" lon="-4.52360409311950206756591796875">
        <ele>833.5999755859375</ele>
        <time>2019-07-08T11:04:41.000Z</time>
      </trkpt>
      <trkpt lat="42.373313717544078826904296875" lon="-4.52399938367307186126708984375">
        <ele>832.4000244140625</ele>
        <time>2019-07-08T11:04:42.000Z</time>
      </trkpt>
      <trkpt lat="42.37319394014775753021240234375" lon="-4.5243959315121173858642578125">
        <ele>831.20001220703125</ele>
        <time>2019-07-08T11:04:43.000Z</time>
      </trkpt>
      <trkpt lat="42.372961007058620452880859375" lon="-4.52519095502793788909912109375">
        <ele>830.20001220703125</ele>
        <time>2019-07-08T11:04:45.000Z</time>
      </trkpt>
      <trkpt lat="42.372846342623233795166015625" lon="-4.5255898497998714447021484375">
        <ele>829</ele>
        <time>2019-07-08T11:04:46.000Z</time>
      </trkpt>
      <trkpt lat="42.37262061797082424163818359375" lon="-4.526385962963104248046875">
        <ele>829.4000244140625</ele>
        <time>2019-07-08T11:04:48.000Z</time>
      </trkpt>
      <trkpt lat="42.37239648588001728057861328125" lon="-4.52718081884086132049560546875">
        <ele>828.4000244140625</ele>
        <time>2019-07-08T11:04:50.000Z</time>
      </trkpt>
      <trkpt lat="42.37228651531040668487548828125" lon="-4.5275773666799068450927734375">
        <ele>826.79998779296875</ele>
        <time>2019-07-08T11:04:51.000Z</time>
      </trkpt>
      <trkpt lat="42.3720720224082469940185546875" lon="-4.52837088145315647125244140625">
        <ele>827.4000244140625</ele>
        <time>2019-07-08T11:04:53.000Z</time>
      </trkpt>
      <trkpt lat="42.3718631453812122344970703125" lon="-4.529167748987674713134765625">
        <ele>826.20001220703125</ele>
        <time>2019-07-08T11:04:55.000Z</time>
      </trkpt>
      <trkpt lat="42.37176029942929744720458984375" lon="-4.5295675657689571380615234375">
        <ele>825.5999755859375</ele>
        <time>2019-07-08T11:04:56.000Z</time>
      </trkpt>
      <trkpt lat="42.3715546913444995880126953125" lon="-4.53036828897893428802490234375">
        <ele>825.20001220703125</ele>
        <time>2019-07-08T11:04:58.000Z</time>
      </trkpt>
      <trkpt lat="42.37135428003966808319091796875" lon="-4.53117278404533863067626953125">
        <ele>824.5999755859375</ele>
        <time>2019-07-08T11:05:00.000Z</time>
      </trkpt>
      <trkpt lat="42.3711597360670566558837890625" lon="-4.53197744674980640411376953125">
        <ele>824.4000244140625</ele>
        <time>2019-07-08T11:05:02.000Z</time>
      </trkpt>
      <trkpt lat="42.37096418626606464385986328125" lon="-4.53278428874909877777099609375">
        <ele>824</ele>
        <time>2019-07-08T11:05:04.000Z</time>
      </trkpt>
      <trkpt lat="42.37076754681766033172607421875" lon="-4.5335871912539005279541015625">
        <ele>824</ele>
        <time>2019-07-08T11:05:06.000Z</time>
      </trkpt>
      <trkpt lat="42.37057350575923919677734375" lon="-4.53439579345285892486572265625">
        <ele>824</ele>
        <time>2019-07-08T11:05:08.000Z</time>
      </trkpt>
      <trkpt lat="42.3703797161579132080078125" lon="-4.53521168790757656097412109375">
        <ele>824.20001220703125</ele>
        <time>2019-07-08T11:05:10.000Z</time>
      </trkpt>
      <trkpt lat="42.37018131650984287261962890625" lon="-4.53602724708616733551025390625">
        <ele>823.79998779296875</ele>
        <time>2019-07-08T11:05:12.000Z</time>
      </trkpt>
      <trkpt lat="42.37008224241435527801513671875" lon="-4.5364360325038433074951171875">
        <ele>823.20001220703125</ele>
        <time>2019-07-08T11:05:13.000Z</time>
      </trkpt>
      <trkpt lat="42.36988459713757038116455078125" lon="-4.53725628554821014404296875">
        <ele>821.79998779296875</ele>
        <time>2019-07-08T11:05:15.000Z</time>
      </trkpt>
      <trkpt lat="42.36968544311821460723876953125" lon="-4.5380808971822261810302734375">
        <ele>821.4000244140625</ele>
        <time>2019-07-08T11:05:17.000Z</time>
      </trkpt>
      <trkpt lat="42.36948377452790737152099609375" lon="-4.53890559263527393341064453125">
        <ele>821.4000244140625</ele>
        <time>2019-07-08T11:05:19.000Z</time>
      </trkpt>
      <trkpt lat="42.36928160302340984344482421875" lon="-4.53973271884024143218994140625">
        <ele>822.5999755859375</ele>
        <time>2019-07-08T11:05:21.000Z</time>
      </trkpt>
      <trkpt lat="42.36917800270020961761474609375" lon="-4.54015231691300868988037109375">
        <ele>826.20001220703125</ele>
        <time>2019-07-08T11:05:22.000Z</time>
      </trkpt>
      <trkpt lat="42.36907373182475566864013671875" lon="-4.54057090915739536285400390625">
        <ele>827.4000244140625</ele>
        <time>2019-07-08T11:05:23.000Z</time>
      </trkpt>
      <trkpt lat="42.368858568370342254638671875" lon="-4.541399292647838592529296875">
        <ele>826</ele>
        <time>2019-07-08T11:05:25.000Z</time>
      </trkpt>
      <trkpt lat="42.3686349391937255859375" lon="-4.54222985543310642242431640625">
        <ele>823.5999755859375</ele>
        <time>2019-07-08T11:05:27.000Z</time>
      </trkpt>
      <trkpt lat="42.3685191012918949127197265625" lon="-4.5426443405449390411376953125">
        <ele>822.20001220703125</ele>
        <time>2019-07-08T11:05:28.000Z</time>
      </trkpt>
      <trkpt lat="42.36840183846652507781982421875" lon="-4.54305899329483509063720703125">
        <ele>818.79998779296875</ele>
        <time>2019-07-08T11:05:29.000Z</time>
      </trkpt>
      <trkpt lat="42.36828155815601348876953125" lon="-4.54347473569214344024658203125">
        <ele>816.79998779296875</ele>
        <time>2019-07-08T11:05:30.000Z</time>
      </trkpt>
      <trkpt lat="42.368037812411785125732421875" lon="-4.54431091435253620147705078125">
        <ele>816.5999755859375</ele>
        <time>2019-07-08T11:05:32.000Z</time>
      </trkpt>
      <trkpt lat="42.36778627149760723114013671875" lon="-4.54515195451676845550537109375">
        <ele>816.20001220703125</ele>
        <time>2019-07-08T11:05:34.000Z</time>
      </trkpt>
      <trkpt lat="42.36765668727457523345947265625" lon="-4.54557104967534542083740234375">
        <ele>815</ele>
        <time>2019-07-08T11:05:35.000Z</time>
      </trkpt>
      <trkpt lat="42.3673902265727519989013671875" lon="-4.5464074797928333282470703125">
        <ele>813</ele>
        <time>2019-07-08T11:05:37.000Z</time>
      </trkpt>
      <trkpt lat="42.36711337231099605560302734375" lon="-4.54724357463419437408447265625">
        <ele>811.4000244140625</ele>
        <time>2019-07-08T11:05:39.000Z</time>
      </trkpt>
      <trkpt lat="42.3668289743363857269287109375" lon="-4.54807472415268421173095703125">
        <ele>811.20001220703125</ele>
        <time>2019-07-08T11:05:41.000Z</time>
      </trkpt>
      <trkpt lat="42.36653669737279415130615234375" lon="-4.54889749176800251007080078125">
        <ele>811.5999755859375</ele>
        <time>2019-07-08T11:05:43.000Z</time>
      </trkpt>
      <trkpt lat="42.366243414580821990966796875" lon="-4.54970902763307094573974609375">
        <ele>811.79998779296875</ele>
        <time>2019-07-08T11:05:45.000Z</time>
      </trkpt>
      <trkpt lat="42.36594610847532749176025390625" lon="-4.55050430260598659515380859375">
        <ele>811.4000244140625</ele>
        <time>2019-07-08T11:05:47.000Z</time>
      </trkpt>
      <trkpt lat="42.3656471259891986846923828125" lon="-4.5512867532670497894287109375">
        <ele>810.79998779296875</ele>
        <time>2019-07-08T11:05:49.000Z</time>
      </trkpt>
      <trkpt lat="42.36534412018954753875732421875" lon="-4.55206098966300487518310546875">
        <ele>811</ele>
        <time>2019-07-08T11:05:51.000Z</time>
      </trkpt>
      <trkpt lat="42.36503382213413715362548828125" lon="-4.5528333820402622222900390625">
        <ele>812.4000244140625</ele>
        <time>2019-07-08T11:05:53.000Z</time>
      </trkpt>
      <trkpt lat="42.36487473361194133758544921875" lon="-4.5532212965190410614013671875">
        <ele>813.4000244140625</ele>
        <time>2019-07-08T11:05:54.000Z</time>
      </trkpt>
      <trkpt lat="42.36471212469041347503662109375" lon="-4.5536118932068347930908203125">
        <ele>814.4000244140625</ele>
        <time>2019-07-08T11:05:55.000Z</time>
      </trkpt>
      <trkpt lat="42.36438154242932796478271484375" lon="-4.554396606981754302978515625">
        <ele>815</ele>
        <time>2019-07-08T11:05:57.000Z</time>
      </trkpt>
      <trkpt lat="42.3640398122370243072509765625" lon="-4.5551829971373081207275390625">
        <ele>814.4000244140625</ele>
        <time>2019-07-08T11:05:59.000Z</time>
      </trkpt>
      <trkpt lat="42.36369070596992969512939453125" lon="-4.55597466789186000823974609375">
        <ele>813.20001220703125</ele>
        <time>2019-07-08T11:06:01.000Z</time>
      </trkpt>
      <trkpt lat="42.36351351253688335418701171875" lon="-4.55636995844542980194091796875">
        <ele>812</ele>
        <time>2019-07-08T11:06:02.000Z</time>
      </trkpt>
      <trkpt lat="42.36315988004207611083984375" lon="-4.5571369864046573638916015625">
        <ele>810.4000244140625</ele>
        <time>2019-07-08T11:06:04.000Z</time>
      </trkpt>
      <trkpt lat="42.3628056608140468597412109375" lon="-4.55787970684468746185302734375">
        <ele>810.79998779296875</ele>
        <time>2019-07-08T11:06:06.000Z</time>
      </trkpt>
      <trkpt lat="42.362451441586017608642578125" lon="-4.558617062866687774658203125">
        <ele>811</ele>
        <time>2019-07-08T11:06:08.000Z</time>
      </trkpt>
      <trkpt lat="42.3620982281863689422607421875" lon="-4.55935475416481494903564453125">
        <ele>811.5999755859375</ele>
        <time>2019-07-08T11:06:10.000Z</time>
      </trkpt>
      <trkpt lat="42.36174576915800571441650390625" lon="-4.560096971690654754638671875">
        <ele>811</ele>
        <time>2019-07-08T11:06:12.000Z</time>
      </trkpt>
      <trkpt lat="42.36156907863914966583251953125" lon="-4.5604686252772808074951171875">
        <ele>810</ele>
        <time>2019-07-08T11:06:13.000Z</time>
      </trkpt>
      <trkpt lat="42.36121117137372493743896484375" lon="-4.561214111745357513427734375">
        <ele>809.5999755859375</ele>
        <time>2019-07-08T11:06:15.000Z</time>
      </trkpt>
      <trkpt lat="42.3608499951660633087158203125" lon="-4.56196789629757404327392578125">
        <ele>809.20001220703125</ele>
        <time>2019-07-08T11:06:17.000Z</time>
      </trkpt>
      <trkpt lat="42.3606712929904460906982421875" lon="-4.56234642304480075836181640625">
        <ele>808.79998779296875</ele>
        <time>2019-07-08T11:06:18.000Z</time>
      </trkpt>
      <trkpt lat="42.36031196080148220062255859375" lon="-4.56310381181538105010986328125">
        <ele>809.5999755859375</ele>
        <time>2019-07-08T11:06:20.000Z</time>
      </trkpt>
      <trkpt lat="42.3599517904222011566162109375" lon="-4.56386270932853221893310546875">
        <ele>809.4000244140625</ele>
        <time>2019-07-08T11:06:22.000Z</time>
      </trkpt>
      <trkpt lat="42.35958910547196865081787109375" lon="-4.56462328322231769561767578125">
        <ele>808.79998779296875</ele>
        <time>2019-07-08T11:06:24.000Z</time>
      </trkpt>
      <trkpt lat="42.3592270910739898681640625" lon="-4.5653800852596759796142578125">
        <ele>808.4000244140625</ele>
        <time>2019-07-08T11:06:26.000Z</time>
      </trkpt>
      <trkpt lat="42.35886960290372371673583984375" lon="-4.56612599082291126251220703125">
        <ele>808.20001220703125</ele>
        <time>2019-07-08T11:06:28.000Z</time>
      </trkpt>
      <trkpt lat="42.35852108336985111236572265625" lon="-4.5668564736843109130859375">
        <ele>810</ele>
        <time>2019-07-08T11:06:30.000Z</time>
      </trkpt>
      <trkpt lat="42.3583505116403102874755859375" lon="-4.5672177337110042572021484375">
        <ele>811.5999755859375</ele>
        <time>2019-07-08T11:06:31.000Z</time>
      </trkpt>
      <trkpt lat="42.35818170011043548583984375" lon="-4.56757673062384128570556640625">
        <ele>812.5999755859375</ele>
        <time>2019-07-08T11:06:32.000Z</time>
      </trkpt>
      <trkpt lat="42.358013726770877838134765625" lon="-4.5679369010031223297119140625">
        <ele>813.5999755859375</ele>
        <time>2019-07-08T11:06:33.000Z</time>
      </trkpt>
      <trkpt lat="42.3578449152410030364990234375" lon="-4.5682995021343231201171875">
        <ele>814.79998779296875</ele>
        <time>2019-07-08T11:06:34.000Z</time>
      </trkpt>
      <trkpt lat="42.357506118714809417724609375" lon="-4.56903551705181598663330078125">
        <ele>816</ele>
        <time>2019-07-08T11:06:36.000Z</time>
      </trkpt>
      <trkpt lat="42.35717344097793102264404296875" lon="-4.56978452391922473907470703125">
        <ele>816</ele>
        <time>2019-07-08T11:06:38.000Z</time>
      </trkpt>
      <trkpt lat="42.356848306953907012939453125" lon="-4.5705418288707733154296875">
        <ele>817.4000244140625</ele>
        <time>2019-07-08T11:06:40.000Z</time>
      </trkpt>
      <trkpt lat="42.3565396852791309356689453125" lon="-4.57131070084869861602783203125">
        <ele>818.4000244140625</ele>
        <time>2019-07-08T11:06:42.000Z</time>
      </trkpt>
      <trkpt lat="42.35624489374458789825439453125" lon="-4.5720906369388103485107421875">
        <ele>819.20001220703125</ele>
        <time>2019-07-08T11:06:44.000Z</time>
      </trkpt>
      <trkpt lat="42.3561038263142108917236328125" lon="-4.57248500548303127288818359375">
        <ele>820</ele>
        <time>2019-07-08T11:06:45.000Z</time>
      </trkpt>
      <trkpt lat="42.35583334229886531829833984375" lon="-4.57327902317047119140625">
        <ele>821.20001220703125</ele>
        <time>2019-07-08T11:06:47.000Z</time>
      </trkpt>
      <trkpt lat="42.35557702369987964630126953125" lon="-4.5740754716098308563232421875">
        <ele>821.79998779296875</ele>
        <time>2019-07-08T11:06:49.000Z</time>
      </trkpt>
      <trkpt lat="42.35533721745014190673828125" lon="-4.5748791284859180450439453125">
        <ele>821.79998779296875</ele>
        <time>2019-07-08T11:06:51.000Z</time>
      </trkpt>
      <trkpt lat="42.355108559131622314453125" lon="-4.575691334903240203857421875">
        <ele>821.79998779296875</ele>
        <time>2019-07-08T11:06:53.000Z</time>
      </trkpt>
      <trkpt lat="42.3548911325633525848388671875" lon="-4.57651552744209766387939453125">
        <ele>822.4000244140625</ele>
        <time>2019-07-08T11:06:55.000Z</time>
      </trkpt>
      <trkpt lat="42.35468518920242786407470703125" lon="-4.57735371775925159454345703125">
        <ele>822.79998779296875</ele>
        <time>2019-07-08T11:06:57.000Z</time>
      </trkpt>
      <trkpt lat="42.35449793748557567596435546875" lon="-4.578207246959209442138671875">
        <ele>822.20001220703125</ele>
        <time>2019-07-08T11:06:59.000Z</time>
      </trkpt>
      <trkpt lat="42.3544093407690525054931640625" lon="-4.57863782532513141632080078125">
        <ele>821.4000244140625</ele>
        <time>2019-07-08T11:07:00.000Z</time>
      </trkpt>
      <trkpt lat="42.35424446873366832733154296875" lon="-4.57950174808502197265625">
        <ele>820.5999755859375</ele>
        <time>2019-07-08T11:07:02.000Z</time>
      </trkpt>
      <trkpt lat="42.3540955223143100738525390625" lon="-4.58036147989332675933837890625">
        <ele>820.79998779296875</ele>
        <time>2019-07-08T11:07:04.000Z</time>
      </trkpt>
      <trkpt lat="42.35396862030029296875" lon="-4.58121903240680694580078125">
        <ele>822.20001220703125</ele>
        <time>2019-07-08T11:07:06.000Z</time>
      </trkpt>
      <trkpt lat="42.35385705716907978057861328125" lon="-4.582083038985729217529296875">
        <ele>822.4000244140625</ele>
        <time>2019-07-08T11:07:08.000Z</time>
      </trkpt>
      <trkpt lat="42.35375446267426013946533203125" lon="-4.58294897340238094329833984375">
        <ele>822.5999755859375</ele>
        <time>2019-07-08T11:07:10.000Z</time>
      </trkpt>
      <trkpt lat="42.3537079431116580963134765625" lon="-4.58338198252022266387939453125">
        <ele>823.4000244140625</ele>
        <time>2019-07-08T11:07:11.000Z</time>
      </trkpt>
      <trkpt lat="42.3536318354308605194091796875" lon="-4.5842477492988109588623046875">
        <ele>825.20001220703125</ele>
        <time>2019-07-08T11:07:13.000Z</time>
      </trkpt>
      <trkpt lat="42.35356788150966167449951171875" lon="-4.585111252963542938232421875">
        <ele>826</ele>
        <time>2019-07-08T11:07:15.000Z</time>
      </trkpt>
      <trkpt lat="42.35353787429630756378173828125" lon="-4.58554283715784549713134765625">
        <ele>826.4000244140625</ele>
        <time>2019-07-08T11:07:16.000Z</time>
      </trkpt>
      <trkpt lat="42.3535087890923023223876953125" lon="-4.58597484044730663299560546875">
        <ele>827.4000244140625</ele>
        <time>2019-07-08T11:07:17.000Z</time>
      </trkpt>
      <trkpt lat="42.3534549772739410400390625" lon="-4.5868421159684658050537109375">
        <ele>828.5999755859375</ele>
        <time>2019-07-08T11:07:19.000Z</time>
      </trkpt>
      <trkpt lat="42.353402674198150634765625" lon="-4.58771090023219585418701171875">
        <ele>828.20001220703125</ele>
        <time>2019-07-08T11:07:21.000Z</time>
      </trkpt>
      <trkpt lat="42.35335095785558223724365234375" lon="-4.58858127705752849578857421875">
        <ele>827.4000244140625</ele>
        <time>2019-07-08T11:07:23.000Z</time>
      </trkpt>
      <trkpt lat="42.35329882241785526275634765625" lon="-4.5894519053399562835693359375">
        <ele>826.4000244140625</ele>
        <time>2019-07-08T11:07:25.000Z</time>
      </trkpt>
      <trkpt lat="42.35324014909565448760986328125" lon="-4.59032186307013034820556640625">
        <ele>826.20001220703125</ele>
        <time>2019-07-08T11:07:27.000Z</time>
      </trkpt>
      <trkpt lat="42.3531735129654407501220703125" lon="-4.59118955768644809722900390625">
        <ele>826.20001220703125</ele>
        <time>2019-07-08T11:07:29.000Z</time>
      </trkpt>
      <trkpt lat="42.35309832729399204254150390625" lon="-4.5920549891889095306396484375">
        <ele>826.79998779296875</ele>
        <time>2019-07-08T11:07:31.000Z</time>
      </trkpt>
      <trkpt lat="42.35305625014007091522216796875" lon="-4.59248657338321208953857421875">
        <ele>827.4000244140625</ele>
        <time>2019-07-08T11:07:32.000Z</time>
      </trkpt>
      <trkpt lat="42.35296119935810565948486328125" lon="-4.593344964087009429931640625">
        <ele>827.5999755859375</ele>
        <time>2019-07-08T11:07:34.000Z</time>
      </trkpt>
      <trkpt lat="42.3528519831597805023193359375" lon="-4.59419983439147472381591796875">
        <ele>828</ele>
        <time>2019-07-08T11:07:36.000Z</time>
      </trkpt>
      <trkpt lat="42.35279314219951629638671875" lon="-4.59462630562484264373779296875">
        <ele>829</ele>
        <time>2019-07-08T11:07:37.000Z</time>
      </trkpt>
      <trkpt lat="42.35266783274710178375244140625" lon="-4.5954794995486736297607421875">
        <ele>829.79998779296875</ele>
        <time>2019-07-08T11:07:39.000Z</time>
      </trkpt>
      <trkpt lat="42.35259993933141231536865234375" lon="-4.59590488113462924957275390625">
        <ele>831.4000244140625</ele>
        <time>2019-07-08T11:07:40.000Z</time>
      </trkpt>
      <trkpt lat="42.35252819024026393890380859375" lon="-4.59633034653961658477783203125">
        <ele>832.5999755859375</ele>
        <time>2019-07-08T11:07:41.000Z</time>
      </trkpt>
      <trkpt lat="42.3523785732686519622802734375" lon="-4.59718580357730388641357421875">
        <ele>833.79998779296875</ele>
        <time>2019-07-08T11:07:43.000Z</time>
      </trkpt>
      <trkpt lat="42.35222493298351764678955078125" lon="-4.59804855287075042724609375">
        <ele>836</ele>
        <time>2019-07-08T11:07:45.000Z</time>
      </trkpt>
      <trkpt lat="42.35214748419821262359619140625" lon="-4.598482735455036163330078125">
        <ele>837.4000244140625</ele>
        <time>2019-07-08T11:07:46.000Z</time>
      </trkpt>
      <trkpt lat="42.352069281041622161865234375" lon="-4.5989187620580196380615234375">
        <ele>838.4000244140625</ele>
        <time>2019-07-08T11:07:47.000Z</time>
      </trkpt>
      <trkpt lat="42.35191195271909236907958984375" lon="-4.59979534149169921875">
        <ele>839.20001220703125</ele>
        <time>2019-07-08T11:07:49.000Z</time>
      </trkpt>
      <trkpt lat="42.351752109825611114501953125" lon="-4.60067066363990306854248046875">
        <ele>836.5999755859375</ele>
        <time>2019-07-08T11:07:51.000Z</time>
      </trkpt>
      <trkpt lat="42.35167440958321094512939453125" lon="-4.6011077798902988433837890625">
        <ele>834</ele>
        <time>2019-07-08T11:07:52.000Z</time>
      </trkpt>
      <trkpt lat="42.35159746371209621429443359375" lon="-4.6015441417694091796875">
        <ele>831.20001220703125</ele>
        <time>2019-07-08T11:07:53.000Z</time>
      </trkpt>
      <trkpt lat="42.35152118839323520660400390625" lon="-4.6019778214395046234130859375">
        <ele>829.20001220703125</ele>
        <time>2019-07-08T11:07:54.000Z</time>
      </trkpt>
      <trkpt lat="42.3513707332313060760498046875" lon="-4.6028300933539867401123046875">
        <ele>827.79998779296875</ele>
        <time>2019-07-08T11:07:56.000Z</time>
      </trkpt>
      <trkpt lat="42.3512222059071063995361328125" lon="-4.6036763302981853485107421875">
        <ele>828.5999755859375</ele>
        <time>2019-07-08T11:07:58.000Z</time>
      </trkpt>
      <trkpt lat="42.35114534385502338409423828125" lon="-4.6040997840464115142822265625">
        <ele>829.5999755859375</ele>
        <time>2019-07-08T11:07:59.000Z</time>
      </trkpt>
      <trkpt lat="42.35099296085536479949951171875" lon="-4.60494979284703731536865234375">
        <ele>830.20001220703125</ele>
        <time>2019-07-08T11:08:01.000Z</time>
      </trkpt>
      <trkpt lat="42.3509202897548675537109375" lon="-4.60537676699459552764892578125">
        <ele>830.79998779296875</ele>
        <time>2019-07-08T11:08:02.000Z</time>
      </trkpt>
      <trkpt lat="42.3507846705615520477294921875" lon="-4.6062220819294452667236328125">
        <ele>831</ele>
        <time>2019-07-08T11:08:04.000Z</time>
      </trkpt>
      <trkpt lat="42.35065818764269351959228515625" lon="-4.6070626191794872283935546875">
        <ele>829.5999755859375</ele>
        <time>2019-07-08T11:08:06.000Z</time>
      </trkpt>
      <trkpt lat="42.35053849406540393829345703125" lon="-4.607909359037876129150390625">
        <ele>829</ele>
        <time>2019-07-08T11:08:08.000Z</time>
      </trkpt>
      <trkpt lat="42.35047965310513973236083984375" lon="-4.6083368360996246337890625">
        <ele>828</ele>
        <time>2019-07-08T11:08:09.000Z</time>
      </trkpt>
      <trkpt lat="42.35042215324938297271728515625" lon="-4.6087674982845783233642578125">
        <ele>826.79998779296875</ele>
        <time>2019-07-08T11:08:10.000Z</time>
      </trkpt>
      <trkpt lat="42.35036733560264110565185546875" lon="-4.60920193232595920562744140625">
        <ele>825.5999755859375</ele>
        <time>2019-07-08T11:08:11.000Z</time>
      </trkpt>
      <trkpt lat="42.3503152839839458465576171875" lon="-4.60963980294764041900634765625">
        <ele>824.4000244140625</ele>
        <time>2019-07-08T11:08:12.000Z</time>
      </trkpt>
      <trkpt lat="42.350266836583614349365234375" lon="-4.61007951758801937103271484375">
        <ele>823</ele>
        <time>2019-07-08T11:08:13.000Z</time>
      </trkpt>
      <trkpt lat="42.35017388127744197845458984375" lon="-4.6109595336019992828369140625">
        <ele>821.4000244140625</ele>
        <time>2019-07-08T11:08:15.000Z</time>
      </trkpt>
      <trkpt lat="42.35013515688478946685791015625" lon="-4.61139882914721965789794921875">
        <ele>820.20001220703125</ele>
        <time>2019-07-08T11:08:16.000Z</time>
      </trkpt>
      <trkpt lat="42.35010447911918163299560546875" lon="-4.61183452047407627105712890625">
        <ele>819</ele>
        <time>2019-07-08T11:08:17.000Z</time>
      </trkpt>
      <trkpt lat="42.35007547773420810699462890625" lon="-4.61226887069642543792724609375">
        <ele>818</ele>
        <time>2019-07-08T11:08:18.000Z</time>
      </trkpt>
      <trkpt lat="42.35004396177828311920166015625" lon="-4.6126999519765377044677734375">
        <ele>816.79998779296875</ele>
        <time>2019-07-08T11:08:19.000Z</time>
      </trkpt>
      <trkpt lat="42.3500125296413898468017578125" lon="-4.613127596676349639892578125">
        <ele>815.5999755859375</ele>
        <time>2019-07-08T11:08:20.000Z</time>
      </trkpt>
      <trkpt lat="42.3499528504908084869384765625" lon="-4.613979198038578033447265625">
        <ele>814.4000244140625</ele>
        <time>2019-07-08T11:08:22.000Z</time>
      </trkpt>
      <trkpt lat="42.3499002121388912200927734375" lon="-4.61480674333870410919189453125">
        <ele>813.79998779296875</ele>
        <time>2019-07-08T11:08:24.000Z</time>
      </trkpt>
      <trkpt lat="42.3498539440333843231201171875" lon="-4.61557452566921710968017578125">
        <ele>814.5999755859375</ele>
        <time>2019-07-08T11:08:26.000Z</time>
      </trkpt>
      <trkpt lat="42.3498348332941532135009765625" lon="-4.61595003493130207061767578125">
        <ele>815.5999755859375</ele>
        <time>2019-07-08T11:08:27.000Z</time>
      </trkpt>
      <trkpt lat="42.3498167283833026885986328125" lon="-4.6163244545459747314453125">
        <ele>817</ele>
        <time>2019-07-08T11:08:28.000Z</time>
      </trkpt>
      <trkpt lat="42.34979988075792789459228515625" lon="-4.616699628531932830810546875">
        <ele>818.4000244140625</ele>
        <time>2019-07-08T11:08:29.000Z</time>
      </trkpt>
      <trkpt lat="42.349784374237060546875" lon="-4.61707857437431812286376953125">
        <ele>819.79998779296875</ele>
        <time>2019-07-08T11:08:30.000Z</time>
      </trkpt>
      <trkpt lat="42.3497570492327213287353515625" lon="-4.617848284542560577392578125">
        <ele>821.4000244140625</ele>
        <time>2019-07-08T11:08:32.000Z</time>
      </trkpt>
      <trkpt lat="42.3497392795979976654052734375" lon="-4.61863962002098560333251953125">
        <ele>821.79998779296875</ele>
        <time>2019-07-08T11:08:34.000Z</time>
      </trkpt>
      <trkpt lat="42.34972377307713031768798828125" lon="-4.61944344453513622283935546875">
        <ele>822</ele>
        <time>2019-07-08T11:08:36.000Z</time>
      </trkpt>
      <trkpt lat="42.349714301526546478271484375" lon="-4.62025548331439495086669921875">
        <ele>822.20001220703125</ele>
        <time>2019-07-08T11:08:38.000Z</time>
      </trkpt>
      <trkpt lat="42.3497121222317218780517578125" lon="-4.621060229837894439697265625">
        <ele>822</ele>
        <time>2019-07-08T11:08:40.000Z</time>
      </trkpt>
      <trkpt lat="42.3497134633362293243408203125" lon="-4.621457867324352264404296875">
        <ele>822.79998779296875</ele>
        <time>2019-07-08T11:08:41.000Z</time>
      </trkpt>
      <trkpt lat="42.3497194983065128326416015625" lon="-4.622251801192760467529296875">
        <ele>824.5999755859375</ele>
        <time>2019-07-08T11:08:43.000Z</time>
      </trkpt>
      <trkpt lat="42.34972536563873291015625" lon="-4.6230509318411350250244140625">
        <ele>825.20001220703125</ele>
        <time>2019-07-08T11:08:45.000Z</time>
      </trkpt>
      <trkpt lat="42.3497362621128559112548828125" lon="-4.62384930811822414398193359375">
        <ele>826</ele>
        <time>2019-07-08T11:08:47.000Z</time>
      </trkpt>
      <trkpt lat="42.34975285828113555908203125" lon="-4.6246498636901378631591796875">
        <ele>825.79998779296875</ele>
        <time>2019-07-08T11:08:49.000Z</time>
      </trkpt>
      <trkpt lat="42.34976358711719512939453125" lon="-4.62505261413753032684326171875">
        <ele>825</ele>
        <time>2019-07-08T11:08:50.000Z</time>
      </trkpt>
      <trkpt lat="42.34978479333221912384033203125" lon="-4.6258638985455036163330078125">
        <ele>824.20001220703125</ele>
        <time>2019-07-08T11:08:52.000Z</time>
      </trkpt>
      <trkpt lat="42.3497949354350566864013671875" lon="-4.626273103058338165283203125">
        <ele>823.4000244140625</ele>
        <time>2019-07-08T11:08:53.000Z</time>
      </trkpt>
      <trkpt lat="42.34981857240200042724609375" lon="-4.62709687650203704833984375">
        <ele>822.4000244140625</ele>
        <time>2019-07-08T11:08:55.000Z</time>
      </trkpt>
      <trkpt lat="42.34983206726610660552978515625" lon="-4.6275111101567745208740234375">
        <ele>822.20001220703125</ele>
        <time>2019-07-08T11:08:56.000Z</time>
      </trkpt>
      <trkpt lat="42.34986090101301670074462890625" lon="-4.6283442713320255279541015625">
        <ele>825.20001220703125</ele>
        <time>2019-07-08T11:08:58.000Z</time>
      </trkpt>
      <trkpt lat="42.34987682662904262542724609375" lon="-4.62876613251864910125732421875">
        <ele>829.20001220703125</ele>
        <time>2019-07-08T11:08:59.000Z</time>
      </trkpt>
      <trkpt lat="42.34989359043538570404052734375" lon="-4.62919034063816070556640625">
        <ele>834.4000244140625</ele>
        <time>2019-07-08T11:09:00.000Z</time>
      </trkpt>
      <trkpt lat="42.34990968368947505950927734375" lon="-4.62961572222411632537841796875">
        <ele>839</ele>
        <time>2019-07-08T11:09:01.000Z</time>
      </trkpt>
      <trkpt lat="42.3499226756393909454345703125" lon="-4.63004588149487972259521484375">
        <ele>841.20001220703125</ele>
        <time>2019-07-08T11:09:02.000Z</time>
      </trkpt>
      <trkpt lat="42.34993265010416507720947265625" lon="-4.630480147898197174072265625">
        <ele>842.4000244140625</ele>
        <time>2019-07-08T11:09:03.000Z</time>
      </trkpt>
      <trkpt lat="42.34994388185441493988037109375" lon="-4.63091173209249973297119140625">
        <ele>839.20001220703125</ele>
        <time>2019-07-08T11:09:04.000Z</time>
      </trkpt>
      <trkpt lat="42.34995209611952304840087890625" lon="-4.63134675286710262298583984375">
        <ele>832.79998779296875</ele>
        <time>2019-07-08T11:09:05.000Z</time>
      </trkpt>
      <trkpt lat="42.349963746964931488037109375" lon="-4.63177976198494434356689453125">
        <ele>826.20001220703125</ele>
        <time>2019-07-08T11:09:06.000Z</time>
      </trkpt>
      <trkpt lat="42.34997724182903766632080078125" lon="-4.6322123520076274871826171875">
        <ele>822</ele>
        <time>2019-07-08T11:09:07.000Z</time>
      </trkpt>
      <trkpt lat="42.349992580711841583251953125" lon="-4.63264343328773975372314453125">
        <ele>819.4000244140625</ele>
        <time>2019-07-08T11:09:08.000Z</time>
      </trkpt>
      <trkpt lat="42.35000741668045520782470703125" lon="-4.6330736763775348663330078125">
        <ele>818.20001220703125</ele>
        <time>2019-07-08T11:09:09.000Z</time>
      </trkpt>
      <trkpt lat="42.350032813847064971923828125" lon="-4.63393575511872768402099609375">
        <ele>817.20001220703125</ele>
        <time>2019-07-08T11:09:11.000Z</time>
      </trkpt>
      <trkpt lat="42.35005058348178863525390625" lon="-4.63479540310800075531005859375">
        <ele>817.20001220703125</ele>
        <time>2019-07-08T11:09:13.000Z</time>
      </trkpt>
      <trkpt lat="42.3500651679933071136474609375" lon="-4.63564549572765827178955078125">
        <ele>817.5999755859375</ele>
        <time>2019-07-08T11:09:15.000Z</time>
      </trkpt>
      <trkpt lat="42.35007204115390777587890625" lon="-4.63606677018105983734130859375">
        <ele>818.20001220703125</ele>
        <time>2019-07-08T11:09:16.000Z</time>
      </trkpt>
      <trkpt lat="42.3500859551131725311279296875" lon="-4.63690764270722866058349609375">
        <ele>818.5999755859375</ele>
        <time>2019-07-08T11:09:18.000Z</time>
      </trkpt>
      <trkpt lat="42.35009609721601009368896484375" lon="-4.6377477608621120452880859375">
        <ele>819.20001220703125</ele>
        <time>2019-07-08T11:09:20.000Z</time>
      </trkpt>
      <trkpt lat="42.350097186863422393798828125" lon="-4.638165347278118133544921875">
        <ele>819.4000244140625</ele>
        <time>2019-07-08T11:09:21.000Z</time>
      </trkpt>
      <trkpt lat="42.3500986956059932708740234375" lon="-4.638982079923152923583984375">
        <ele>820.4000244140625</ele>
        <time>2019-07-08T11:09:23.000Z</time>
      </trkpt>
      <trkpt lat="42.35010196454823017120361328125" lon="-4.639789760112762451171875">
        <ele>821.4000244140625</ele>
        <time>2019-07-08T11:09:25.000Z</time>
      </trkpt>
      <trkpt lat="42.3500995337963104248046875" lon="-4.6405935846269130706787109375">
        <ele>820.5999755859375</ele>
        <time>2019-07-08T11:09:27.000Z</time>
      </trkpt>
      <trkpt lat="42.35008620657026767730712890625" lon="-4.64139615185558795928955078125">
        <ele>820.20001220703125</ele>
        <time>2019-07-08T11:09:29.000Z</time>
      </trkpt>
      <trkpt lat="42.35006860457360744476318359375" lon="-4.64220617897808551788330078125">
        <ele>819.4000244140625</ele>
        <time>2019-07-08T11:09:31.000Z</time>
      </trkpt>
      <trkpt lat="42.3500591330230236053466796875" lon="-4.64261421002447605133056640625">
        <ele>818.79998779296875</ele>
        <time>2019-07-08T11:09:32.000Z</time>
      </trkpt>
      <trkpt lat="42.35003910027444362640380859375" lon="-4.643437899649143218994140625">
        <ele>819.4000244140625</ele>
        <time>2019-07-08T11:09:34.000Z</time>
      </trkpt>
      <trkpt lat="42.3500138707458972930908203125" lon="-4.64426477439701557159423828125">
        <ele>819.5999755859375</ele>
        <time>2019-07-08T11:09:36.000Z</time>
      </trkpt>
      <trkpt lat="42.34997891820967197418212890625" lon="-4.6450946666300296783447265625">
        <ele>818.79998779296875</ele>
        <time>2019-07-08T11:09:38.000Z</time>
      </trkpt>
      <trkpt lat="42.34993834979832172393798828125" lon="-4.64592330157756805419921875">
        <ele>818.20001220703125</ele>
        <time>2019-07-08T11:09:40.000Z</time>
      </trkpt>
      <trkpt lat="42.34991588629782199859619140625" lon="-4.64633745141327381134033203125">
        <ele>817.4000244140625</ele>
        <time>2019-07-08T11:09:41.000Z</time>
      </trkpt>
      <trkpt lat="42.3498660139739513397216796875" lon="-4.647165499627590179443359375">
        <ele>817.4000244140625</ele>
        <time>2019-07-08T11:09:43.000Z</time>
      </trkpt>
      <trkpt lat="42.3498381860554218292236328125" lon="-4.64757948182523250579833984375">
        <ele>818.79998779296875</ele>
        <time>2019-07-08T11:09:44.000Z</time>
      </trkpt>
      <trkpt lat="42.34980843029916286468505859375" lon="-4.64799187146127223968505859375">
        <ele>821</ele>
        <time>2019-07-08T11:09:45.000Z</time>
      </trkpt>
      <trkpt lat="42.3497788421809673309326171875" lon="-4.648405015468597412109375">
        <ele>823.5999755859375</ele>
        <time>2019-07-08T11:09:46.000Z</time>
      </trkpt>
      <trkpt lat="42.349749170243740081787109375" lon="-4.64881874620914459228515625">
        <ele>825.79998779296875</ele>
        <time>2019-07-08T11:09:47.000Z</time>
      </trkpt>
      <trkpt lat="42.349718995392322540283203125" lon="-4.64923155494034290313720703125">
        <ele>830.20001220703125</ele>
        <time>2019-07-08T11:09:48.000Z</time>
      </trkpt>
      <trkpt lat="42.34968689270317554473876953125" lon="-4.649644196033477783203125">
        <ele>835</ele>
        <time>2019-07-08T11:09:49.000Z</time>
      </trkpt>
      <trkpt lat="42.34965185634791851043701171875" lon="-4.65005700476467609405517578125">
        <ele>837.4000244140625</ele>
        <time>2019-07-08T11:09:50.000Z</time>
      </trkpt>
      <trkpt lat="42.3495738208293914794921875" lon="-4.6508832089602947235107421875">
        <ele>837.79998779296875</ele>
        <time>2019-07-08T11:09:52.000Z</time>
      </trkpt>
      <trkpt lat="42.34949192963540554046630859375" lon="-4.65171226300299167633056640625">
        <ele>833</ele>
        <time>2019-07-08T11:09:54.000Z</time>
      </trkpt>
      <trkpt lat="42.34945152886211872100830078125" lon="-4.6521274186670780181884765625">
        <ele>826.20001220703125</ele>
        <time>2019-07-08T11:09:55.000Z</time>
      </trkpt>
      <trkpt lat="42.34940911643207073211669921875" lon="-4.6525434963405132293701171875">
        <ele>822.4000244140625</ele>
        <time>2019-07-08T11:09:56.000Z</time>
      </trkpt>
      <trkpt lat="42.34936368651688098907470703125" lon="-4.65295982547104358673095703125">
        <ele>820.4000244140625</ele>
        <time>2019-07-08T11:09:57.000Z</time>
      </trkpt>
      <trkpt lat="42.349315993487834930419921875" lon="-4.6533759869635105133056640625">
        <ele>819</ele>
        <time>2019-07-08T11:09:58.000Z</time>
      </trkpt>
      <trkpt lat="42.3492675460875034332275390625" lon="-4.65379281900823116302490234375">
        <ele>816.79998779296875</ele>
        <time>2019-07-08T11:09:59.000Z</time>
      </trkpt>
      <trkpt lat="42.34921867959201335906982421875" lon="-4.65421124361455440521240234375">
        <ele>814.79998779296875</ele>
        <time>2019-07-08T11:10:00.000Z</time>
      </trkpt>
      <trkpt lat="42.349169142544269561767578125" lon="-4.654628746211528778076171875">
        <ele>813.4000244140625</ele>
        <time>2019-07-08T11:10:01.000Z</time>
      </trkpt>
      <trkpt lat="42.349066548049449920654296875" lon="-4.65545654296875">
        <ele>812.20001220703125</ele>
        <time>2019-07-08T11:10:03.000Z</time>
      </trkpt>
      <trkpt lat="42.348962612450122833251953125" lon="-4.65626548044383525848388671875">
        <ele>814.4000244140625</ele>
        <time>2019-07-08T11:10:05.000Z</time>
      </trkpt>
      <trkpt lat="42.34885968267917633056640625" lon="-4.65705354698002338409423828125">
        <ele>815.79998779296875</ele>
        <time>2019-07-08T11:10:07.000Z</time>
      </trkpt>
      <trkpt lat="42.3488078825175762176513671875" lon="-4.6574412100017070770263671875">
        <ele>817</ele>
        <time>2019-07-08T11:10:08.000Z</time>
      </trkpt>
      <trkpt lat="42.3486975766718387603759765625" lon="-4.65820756740868091583251953125">
        <ele>819.5999755859375</ele>
        <time>2019-07-08T11:10:10.000Z</time>
      </trkpt>
      <trkpt lat="42.34858836047351360321044921875" lon="-4.65896747075021266937255859375">
        <ele>821.5999755859375</ele>
        <time>2019-07-08T11:10:12.000Z</time>
      </trkpt>
      <trkpt lat="42.3485359735786914825439453125" lon="-4.65934641659259796142578125">
        <ele>822.79998779296875</ele>
        <time>2019-07-08T11:10:13.000Z</time>
      </trkpt>
      <trkpt lat="42.34842826612293720245361328125" lon="-4.6600952558219432830810546875">
        <ele>824</ele>
        <time>2019-07-08T11:10:15.000Z</time>
      </trkpt>
      <trkpt lat="42.34837529249489307403564453125" lon="-4.66046699322760105133056640625">
        <ele>826.5999755859375</ele>
        <time>2019-07-08T11:10:16.000Z</time>
      </trkpt>
      <trkpt lat="42.348269931972026824951171875" lon="-4.661209546029567718505859375">
        <ele>825.4000244140625</ele>
        <time>2019-07-08T11:10:18.000Z</time>
      </trkpt>
      <trkpt lat="42.348153926432132720947265625" lon="-4.6619580499827861785888671875">
        <ele>824.20001220703125</ele>
        <time>2019-07-08T11:10:20.000Z</time>
      </trkpt>
      <trkpt lat="42.34803716652095317840576171875" lon="-4.66272742487490177154541015625">
        <ele>826.5999755859375</ele>
        <time>2019-07-08T11:10:22.000Z</time>
      </trkpt>
      <trkpt lat="42.3479200713336467742919921875" lon="-4.66352119110524654388427734375">
        <ele>828</ele>
        <time>2019-07-08T11:10:24.000Z</time>
      </trkpt>
      <trkpt lat="42.34786047600209712982177734375" lon="-4.663925953209400177001953125">
        <ele>830.4000244140625</ele>
        <time>2019-07-08T11:10:25.000Z</time>
      </trkpt>
      <trkpt lat="42.3477370105683803558349609375" lon="-4.664747714996337890625">
        <ele>829.20001220703125</ele>
        <time>2019-07-08T11:10:27.000Z</time>
      </trkpt>
      <trkpt lat="42.3476116172969341278076171875" lon="-4.6655857376754283905029296875">
        <ele>827.79998779296875</ele>
        <time>2019-07-08T11:10:29.000Z</time>
      </trkpt>
      <trkpt lat="42.34749033115804195404052734375" lon="-4.6664353273808956146240234375">
        <ele>828</ele>
        <time>2019-07-08T11:10:31.000Z</time>
      </trkpt>
      <trkpt lat="42.3473645187914371490478515625" lon="-4.66728131286799907684326171875">
        <ele>830.5999755859375</ele>
        <time>2019-07-08T11:10:33.000Z</time>
      </trkpt>
      <trkpt lat="42.347300983965396881103515625" lon="-4.66770325787365436553955078125">
        <ele>831.79998779296875</ele>
        <time>2019-07-08T11:10:34.000Z</time>
      </trkpt>
      <trkpt lat="42.34717902727425098419189453125" lon="-4.6685485728085041046142578125">
        <ele>834.20001220703125</ele>
        <time>2019-07-08T11:10:36.000Z</time>
      </trkpt>
      <trkpt lat="42.3471222817897796630859375" lon="-4.66897018253803253173828125">
        <ele>835.79998779296875</ele>
        <time>2019-07-08T11:10:37.000Z</time>
      </trkpt>
      <trkpt lat="42.34700837172567844390869140625" lon="-4.6698199398815631866455078125">
        <ele>836</ele>
        <time>2019-07-08T11:10:39.000Z</time>
      </trkpt>
      <trkpt lat="42.346893288195133209228515625" lon="-4.67066357843577861785888671875">
        <ele>837</ele>
        <time>2019-07-08T11:10:41.000Z</time>
      </trkpt>
      <trkpt lat="42.346835620701313018798828125" lon="-4.67108150012791156768798828125">
        <ele>838.79998779296875</ele>
        <time>2019-07-08T11:10:42.000Z</time>
      </trkpt>
      <trkpt lat="42.34672221355140209197998046875" lon="-4.6719159185886383056640625">
        <ele>838</ele>
        <time>2019-07-08T11:10:44.000Z</time>
      </trkpt>
      <trkpt lat="42.3466636240482330322265625" lon="-4.672330655157566070556640625">
        <ele>837.5999755859375</ele>
        <time>2019-07-08T11:10:45.000Z</time>
      </trkpt>
      <trkpt lat="42.346547953784465789794921875" lon="-4.673160798847675323486328125">
        <ele>836</ele>
        <time>2019-07-08T11:10:47.000Z</time>
      </trkpt>
      <trkpt lat="42.346492297947406768798828125" lon="-4.67357796616852283477783203125">
        <ele>834.20001220703125</ele>
        <time>2019-07-08T11:10:48.000Z</time>
      </trkpt>
      <trkpt lat="42.3463873565196990966796875" lon="-4.67441640794277191162109375">
        <ele>834.4000244140625</ele>
        <time>2019-07-08T11:10:50.000Z</time>
      </trkpt>
      <trkpt lat="42.3462881147861480712890625" lon="-4.6752554364502429962158203125">
        <ele>836</ele>
        <time>2019-07-08T11:10:52.000Z</time>
      </trkpt>
      <trkpt lat="42.34623857773840427398681640625" lon="-4.675675369799137115478515625">
        <ele>837.5999755859375</ele>
        <time>2019-07-08T11:10:53.000Z</time>
      </trkpt>
      <trkpt lat="42.34614260494709014892578125" lon="-4.6765159070491790771484375">
        <ele>839.5999755859375</ele>
        <time>2019-07-08T11:10:55.000Z</time>
      </trkpt>
      <trkpt lat="42.34605166129767894744873046875" lon="-4.6773569472134113311767578125">
        <ele>838.5999755859375</ele>
        <time>2019-07-08T11:10:57.000Z</time>
      </trkpt>
      <trkpt lat="42.34596918337047100067138671875" lon="-4.678197987377643585205078125">
        <ele>839</ele>
        <time>2019-07-08T11:10:59.000Z</time>
      </trkpt>
      <trkpt lat="42.34590053558349609375" lon="-4.67903944663703441619873046875">
        <ele>836.79998779296875</ele>
        <time>2019-07-08T11:11:01.000Z</time>
      </trkpt>
      <trkpt lat="42.34587228856980800628662109375" lon="-4.67945971526205539703369140625">
        <ele>835.79998779296875</ele>
        <time>2019-07-08T11:11:02.000Z</time>
      </trkpt>
      <trkpt lat="42.3458428680896759033203125" lon="-4.67988082207739353179931640625">
        <ele>834.5999755859375</ele>
        <time>2019-07-08T11:11:03.000Z</time>
      </trkpt>
      <trkpt lat="42.34578587114810943603515625" lon="-4.680721946060657501220703125">
        <ele>833.4000244140625</ele>
        <time>2019-07-08T11:11:05.000Z</time>
      </trkpt>
      <trkpt lat="42.3457565344870090484619140625" lon="-4.68114338815212249755859375">
        <ele>831</ele>
        <time>2019-07-08T11:11:06.000Z</time>
      </trkpt>
      <trkpt lat="42.34572459943592548370361328125" lon="-4.68156608752906322479248046875">
        <ele>829.79998779296875</ele>
        <time>2019-07-08T11:11:07.000Z</time>
      </trkpt>
      <trkpt lat="42.34569333493709564208984375" lon="-4.6819891221821308135986328125">
        <ele>828.20001220703125</ele>
        <time>2019-07-08T11:11:08.000Z</time>
      </trkpt>
      <trkpt lat="42.34566240571439266204833984375" lon="-4.68241198919713497161865234375">
        <ele>826.79998779296875</ele>
        <time>2019-07-08T11:11:09.000Z</time>
      </trkpt>
      <trkpt lat="42.34560540877282619476318359375" lon="-4.68325286172330379486083984375">
        <ele>825.4000244140625</ele>
        <time>2019-07-08T11:11:11.000Z</time>
      </trkpt>
      <trkpt lat="42.3455577157437801361083984375" lon="-4.68408267013728618621826171875">
        <ele>824.4000244140625</ele>
        <time>2019-07-08T11:11:13.000Z</time>
      </trkpt>
      <trkpt lat="42.34551840461790561676025390625" lon="-4.68490024097263813018798828125">
        <ele>823.5999755859375</ele>
        <time>2019-07-08T11:11:15.000Z</time>
      </trkpt>
      <trkpt lat="42.34548747539520263671875" lon="-4.6857069991528987884521484375">
        <ele>824.5999755859375</ele>
        <time>2019-07-08T11:11:17.000Z</time>
      </trkpt>
      <trkpt lat="42.3454745672643184661865234375" lon="-4.68610522337257862091064453125">
        <ele>827.20001220703125</ele>
        <time>2019-07-08T11:11:18.000Z</time>
      </trkpt>
      <trkpt lat="42.34546266496181488037109375" lon="-4.68649984337389469146728515625">
        <ele>831</ele>
        <time>2019-07-08T11:11:19.000Z</time>
      </trkpt>
      <trkpt lat="42.34545436687767505645751953125" lon="-4.6868928708136081695556640625">
        <ele>834.5999755859375</ele>
        <time>2019-07-08T11:11:20.000Z</time>
      </trkpt>
      <trkpt lat="42.34544564969837665557861328125" lon="-4.68728430569171905517578125">
        <ele>836.4000244140625</ele>
        <time>2019-07-08T11:11:21.000Z</time>
      </trkpt>
      <trkpt lat="42.3454373516142368316650390625" lon="-4.6876760758459568023681640625">
        <ele>838.4000244140625</ele>
        <time>2019-07-08T11:11:22.000Z</time>
      </trkpt>
      <trkpt lat="42.3454199172556400299072265625" lon="-4.68846757896244525909423828125">
        <ele>838.5999755859375</ele>
        <time>2019-07-08T11:11:24.000Z</time>
      </trkpt>
      <trkpt lat="42.34540591947734355926513671875" lon="-4.689275510609149932861328125">
        <ele>837.5999755859375</ele>
        <time>2019-07-08T11:11:26.000Z</time>
      </trkpt>
      <trkpt lat="42.34540365636348724365234375" lon="-4.689696617424488067626953125">
        <ele>837.20001220703125</ele>
        <time>2019-07-08T11:11:27.000Z</time>
      </trkpt>
      <trkpt lat="42.34540273435413837432861328125" lon="-4.69056741334497928619384765625">
        <ele>836.5999755859375</ele>
        <time>2019-07-08T11:11:29.000Z</time>
      </trkpt>
      <trkpt lat="42.34540541656315326690673828125" lon="-4.69100863672792911529541015625">
        <ele>835.5999755859375</ele>
        <time>2019-07-08T11:11:30.000Z</time>
      </trkpt>
      <trkpt lat="42.34541547484695911407470703125" lon="-4.69189393334090709686279296875">
        <ele>833.5999755859375</ele>
        <time>2019-07-08T11:11:32.000Z</time>
      </trkpt>
      <trkpt lat="42.34543005935847759246826171875" lon="-4.692764393985271453857421875">
        <ele>832.20001220703125</ele>
        <time>2019-07-08T11:11:34.000Z</time>
      </trkpt>
      <trkpt lat="42.3454504273831844329833984375" lon="-4.69362664036452770233154296875">
        <ele>831.79998779296875</ele>
        <time>2019-07-08T11:11:36.000Z</time>
      </trkpt>
      <trkpt lat="42.3454775847494602203369140625" lon="-4.69448662362992763519287109375">
        <ele>832.79998779296875</ele>
        <time>2019-07-08T11:11:38.000Z</time>
      </trkpt>
      <trkpt lat="42.34549325890839099884033203125" lon="-4.69491477124392986297607421875">
        <ele>834.20001220703125</ele>
        <time>2019-07-08T11:11:39.000Z</time>
      </trkpt>
      <trkpt lat="42.34550960361957550048828125" lon="-4.69534308649599552154541015625">
        <ele>835.4000244140625</ele>
        <time>2019-07-08T11:11:40.000Z</time>
      </trkpt>
      <trkpt lat="42.34555008821189403533935546875" lon="-4.6962018124759197235107421875">
        <ele>836.4000244140625</ele>
        <time>2019-07-08T11:11:42.000Z</time>
      </trkpt>
      <trkpt lat="42.34559350647032260894775390625" lon="-4.69705383293330669403076171875">
        <ele>836.5999755859375</ele>
        <time>2019-07-08T11:11:44.000Z</time>
      </trkpt>
      <trkpt lat="42.34564103186130523681640625" lon="-4.6978952921926975250244140625">
        <ele>837</ele>
        <time>2019-07-08T11:11:46.000Z</time>
      </trkpt>
      <trkpt lat="42.34569861553609371185302734375" lon="-4.6987264417111873626708984375">
        <ele>837.4000244140625</ele>
        <time>2019-07-08T11:11:48.000Z</time>
      </trkpt>
      <trkpt lat="42.3457602225244045257568359375" lon="-4.699539653956890106201171875">
        <ele>837.4000244140625</ele>
        <time>2019-07-08T11:11:50.000Z</time>
      </trkpt>
      <trkpt lat="42.34582434408366680145263671875" lon="-4.7003394551575183868408203125">
        <ele>837.5999755859375</ele>
        <time>2019-07-08T11:11:52.000Z</time>
      </trkpt>
      <trkpt lat="42.3458872921764850616455078125" lon="-4.7011330537497997283935546875">
        <ele>837.79998779296875</ele>
        <time>2019-07-08T11:11:54.000Z</time>
      </trkpt>
      <trkpt lat="42.3459543474018573760986328125" lon="-4.70192355103790760040283203125">
        <ele>837.5999755859375</ele>
        <time>2019-07-08T11:11:56.000Z</time>
      </trkpt>
      <trkpt lat="42.34602768905460834503173828125" lon="-4.70271513797342777252197265625">
        <ele>837.4000244140625</ele>
        <time>2019-07-08T11:11:58.000Z</time>
      </trkpt>
      <trkpt lat="42.34610932879149913787841796875" lon="-4.70350940711796283721923828125">
        <ele>837.20001220703125</ele>
        <time>2019-07-08T11:12:00.000Z</time>
      </trkpt>
      <trkpt lat="42.34619515947997570037841796875" lon="-4.70431054942309856414794921875">
        <ele>836.79998779296875</ele>
        <time>2019-07-08T11:12:02.000Z</time>
      </trkpt>
      <trkpt lat="42.3462389968335628509521484375" lon="-4.7047134675085544586181640625">
        <ele>836.20001220703125</ele>
        <time>2019-07-08T11:12:03.000Z</time>
      </trkpt>
      <trkpt lat="42.3463278450071811676025390625" lon="-4.705516956746578216552734375">
        <ele>834.4000244140625</ele>
        <time>2019-07-08T11:12:05.000Z</time>
      </trkpt>
      <trkpt lat="42.34642180614173412322998046875" lon="-4.7063187696039676666259765625">
        <ele>834.20001220703125</ele>
        <time>2019-07-08T11:12:07.000Z</time>
      </trkpt>
      <trkpt lat="42.34651853330433368682861328125" lon="-4.707120247185230255126953125">
        <ele>835.20001220703125</ele>
        <time>2019-07-08T11:12:09.000Z</time>
      </trkpt>
      <trkpt lat="42.34656647779047489166259765625" lon="-4.7075214050710201263427734375">
        <ele>835.4000244140625</ele>
        <time>2019-07-08T11:12:10.000Z</time>
      </trkpt>
      <trkpt lat="42.34666136093437671661376953125" lon="-4.70832288265228271484375">
        <ele>836.79998779296875</ele>
        <time>2019-07-08T11:12:12.000Z</time>
      </trkpt>
      <trkpt lat="42.346763871610164642333984375" lon="-4.70912662334740161895751953125">
        <ele>837.4000244140625</ele>
        <time>2019-07-08T11:12:14.000Z</time>
      </trkpt>
      <trkpt lat="42.34686587937176227569580078125" lon="-4.70993916504085063934326171875">
        <ele>837.20001220703125</ele>
        <time>2019-07-08T11:12:16.000Z</time>
      </trkpt>
      <trkpt lat="42.3469668813049793243408203125" lon="-4.7107658721506595611572265625">
        <ele>838.79998779296875</ele>
        <time>2019-07-08T11:12:18.000Z</time>
      </trkpt>
      <trkpt lat="42.3470805399119853973388671875" lon="-4.7116050682961940765380859375">
        <ele>838.79998779296875</ele>
        <time>2019-07-08T11:12:20.000Z</time>
      </trkpt>
      <trkpt lat="42.347206771373748779296875" lon="-4.7124476172029972076416015625">
        <ele>838.4000244140625</ele>
        <time>2019-07-08T11:12:22.000Z</time>
      </trkpt>
      <trkpt lat="42.347273491322994232177734375" lon="-4.71286830492317676544189453125">
        <ele>837.20001220703125</ele>
        <time>2019-07-08T11:12:23.000Z</time>
      </trkpt>
      <trkpt lat="42.34734029509127140045166015625" lon="-4.713288657367229461669921875">
        <ele>836</ele>
        <time>2019-07-08T11:12:24.000Z</time>
      </trkpt>
      <trkpt lat="42.34746770001947879791259765625" lon="-4.7141270153224468231201171875">
        <ele>834.79998779296875</ele>
        <time>2019-07-08T11:12:26.000Z</time>
      </trkpt>
      <trkpt lat="42.34758957289159297943115234375" lon="-4.71495741046965122222900390625">
        <ele>833.79998779296875</ele>
        <time>2019-07-08T11:12:28.000Z</time>
      </trkpt>
      <trkpt lat="42.34764975495636463165283203125" lon="-4.71536862663924694061279296875">
        <ele>833.79998779296875</ele>
        <time>2019-07-08T11:12:29.000Z</time>
      </trkpt>
      <trkpt lat="42.3477671854197978973388671875" lon="-4.71618317998945713043212890625">
        <ele>832.5999755859375</ele>
        <time>2019-07-08T11:12:31.000Z</time>
      </trkpt>
      <trkpt lat="42.34788092784583568572998046875" lon="-4.71698977053165435791015625">
        <ele>833.4000244140625</ele>
        <time>2019-07-08T11:12:33.000Z</time>
      </trkpt>
      <trkpt lat="42.34793700277805328369140625" lon="-4.71739134751260280609130859375">
        <ele>834.79998779296875</ele>
        <time>2019-07-08T11:12:34.000Z</time>
      </trkpt>
      <trkpt lat="42.34799240715801715850830078125" lon="-4.71779099665582180023193359375">
        <ele>836</ele>
        <time>2019-07-08T11:12:35.000Z</time>
      </trkpt>
      <trkpt lat="42.34804856590926647186279296875" lon="-4.71818947233259677886962890625">
        <ele>837.4000244140625</ele>
        <time>2019-07-08T11:12:36.000Z</time>
      </trkpt>
      <trkpt lat="42.34816373325884342193603515625" lon="-4.7189831547439098358154296875">
        <ele>838.5999755859375</ele>
        <time>2019-07-08T11:12:38.000Z</time>
      </trkpt>
      <trkpt lat="42.34827839769423007965087890625" lon="-4.71977792680263519287109375">
        <ele>839.5999755859375</ele>
        <time>2019-07-08T11:12:40.000Z</time>
      </trkpt>
      <trkpt lat="42.34839272685348987579345703125" lon="-4.72057747654616832733154296875">
        <ele>841</ele>
        <time>2019-07-08T11:12:42.000Z</time>
      </trkpt>
      <trkpt lat="42.3485011048614978790283203125" lon="-4.72138448618352413177490234375">
        <ele>841.4000244140625</ele>
        <time>2019-07-08T11:12:44.000Z</time>
      </trkpt>
      <trkpt lat="42.348607890307903289794921875" lon="-4.72219727933406829833984375">
        <ele>840</ele>
        <time>2019-07-08T11:12:46.000Z</time>
      </trkpt>
      <trkpt lat="42.34865809790790081024169921875" lon="-4.72260137088596820831298828125">
        <ele>837</ele>
        <time>2019-07-08T11:12:47.000Z</time>
      </trkpt>
      <trkpt lat="42.3487059585750102996826171875" lon="-4.723002277314662933349609375">
        <ele>835</ele>
        <time>2019-07-08T11:12:48.000Z</time>
      </trkpt>
      <trkpt lat="42.34875214286148548126220703125" lon="-4.72339832223951816558837890625">
        <ele>834</ele>
        <time>2019-07-08T11:12:49.000Z</time>
      </trkpt>
      <trkpt lat="42.34883998520672321319580078125" lon="-4.7241752408444881439208984375">
        <ele>833.4000244140625</ele>
        <time>2019-07-08T11:12:51.000Z</time>
      </trkpt>
      <trkpt lat="42.34888114035129547119140625" lon="-4.7245581261813640594482421875">
        <ele>835.79998779296875</ele>
        <time>2019-07-08T11:12:52.000Z</time>
      </trkpt>
      <trkpt lat="42.348920367658138275146484375" lon="-4.724939167499542236328125">
        <ele>837.5999755859375</ele>
        <time>2019-07-08T11:12:53.000Z</time>
      </trkpt>
      <trkpt lat="42.34895758330821990966796875" lon="-4.7253198735415935516357421875">
        <ele>839</ele>
        <time>2019-07-08T11:12:54.000Z</time>
      </trkpt>
      <trkpt lat="42.3490284942090511322021484375" lon="-4.7260806150734424591064453125">
        <ele>840.4000244140625</ele>
        <time>2019-07-08T11:12:56.000Z</time>
      </trkpt>
      <trkpt lat="42.34909714199602603912353515625" lon="-4.72684328444302082061767578125">
        <ele>841.4000244140625</ele>
        <time>2019-07-08T11:12:58.000Z</time>
      </trkpt>
      <trkpt lat="42.34912865795195102691650390625" lon="-4.72722801379859447479248046875">
        <ele>841.79998779296875</ele>
        <time>2019-07-08T11:12:59.000Z</time>
      </trkpt>
      <trkpt lat="42.34918716363608837127685546875" lon="-4.728007279336452484130859375">
        <ele>842.4000244140625</ele>
        <time>2019-07-08T11:13:01.000Z</time>
      </trkpt>
      <trkpt lat="42.34921549446880817413330078125" lon="-4.72840148024260997772216796875">
        <ele>843</ele>
        <time>2019-07-08T11:13:02.000Z</time>
      </trkpt>
      <trkpt lat="42.34927232377231121063232421875" lon="-4.7292010299861431121826171875">
        <ele>844.20001220703125</ele>
        <time>2019-07-08T11:13:04.000Z</time>
      </trkpt>
      <trkpt lat="42.34932546503841876983642578125" lon="-4.73000946454703807830810546875">
        <ele>844.5999755859375</ele>
        <time>2019-07-08T11:13:06.000Z</time>
      </trkpt>
      <trkpt lat="42.34937709756195545196533203125" lon="-4.73081882111728191375732421875">
        <ele>844.5999755859375</ele>
        <time>2019-07-08T11:13:08.000Z</time>
      </trkpt>
      <trkpt lat="42.34942923299968242645263671875" lon="-4.7316351346671581268310546875">
        <ele>844</ele>
        <time>2019-07-08T11:13:10.000Z</time>
      </trkpt>
      <trkpt lat="42.349454462528228759765625" lon="-4.7320465184748172760009765625">
        <ele>843</ele>
        <time>2019-07-08T11:13:11.000Z</time>
      </trkpt>
      <trkpt lat="42.34950332902371883392333984375" lon="-4.73287439905107021331787109375">
        <ele>842.20001220703125</ele>
        <time>2019-07-08T11:13:13.000Z</time>
      </trkpt>
      <trkpt lat="42.34955093823373317718505859375" lon="-4.7337108291685581207275390625">
        <ele>842.79998779296875</ele>
        <time>2019-07-08T11:13:15.000Z</time>
      </trkpt>
      <trkpt lat="42.349600307643413543701171875" lon="-4.73455497063696384429931640625">
        <ele>842.79998779296875</ele>
        <time>2019-07-08T11:13:17.000Z</time>
      </trkpt>
      <trkpt lat="42.3496514372527599334716796875" lon="-4.73540690727531909942626953125">
        <ele>843</ele>
        <time>2019-07-08T11:13:19.000Z</time>
      </trkpt>
      <trkpt lat="42.34970281831920146942138671875" lon="-4.7362642921507358551025390625">
        <ele>843.20001220703125</ele>
        <time>2019-07-08T11:13:21.000Z</time>
      </trkpt>
      <trkpt lat="42.3497587256133556365966796875" lon="-4.73712318576872348785400390625">
        <ele>843.20001220703125</ele>
        <time>2019-07-08T11:13:23.000Z</time>
      </trkpt>
      <trkpt lat="42.34982184134423732757568359375" lon="-4.7379778884351253509521484375">
        <ele>844.20001220703125</ele>
        <time>2019-07-08T11:13:25.000Z</time>
      </trkpt>
      <trkpt lat="42.3498868010938167572021484375" lon="-4.73882940597832202911376953125">
        <ele>846.4000244140625</ele>
        <time>2019-07-08T11:13:27.000Z</time>
      </trkpt>
      <trkpt lat="42.3499488271772861480712890625" lon="-4.7396777383983135223388671875">
        <ele>849.5999755859375</ele>
        <time>2019-07-08T11:13:29.000Z</time>
      </trkpt>
      <trkpt lat="42.349980510771274566650390625" lon="-4.74010161124169826507568359375">
        <ele>851.5999755859375</ele>
        <time>2019-07-08T11:13:30.000Z</time>
      </trkpt>
      <trkpt lat="42.35001437366008758544921875" lon="-4.740524478256702423095703125">
        <ele>852.79998779296875</ele>
        <time>2019-07-08T11:13:31.000Z</time>
      </trkpt>
      <trkpt lat="42.35004966147243976593017578125" lon="-4.74094751290977001190185546875">
        <ele>854</ele>
        <time>2019-07-08T11:13:32.000Z</time>
      </trkpt>
      <trkpt lat="42.3500862903892993927001953125" lon="-4.74137105047702789306640625">
        <ele>856</ele>
        <time>2019-07-08T11:13:33.000Z</time>
      </trkpt>
      <trkpt lat="42.350124679505825042724609375" lon="-4.7417950071394443511962890625">
        <ele>858.20001220703125</ele>
        <time>2019-07-08T11:13:34.000Z</time>
      </trkpt>
      <trkpt lat="42.35016449354588985443115234375" lon="-4.7422192990779876708984375">
        <ele>860</ele>
        <time>2019-07-08T11:13:35.000Z</time>
      </trkpt>
      <trkpt lat="42.3502482287585735321044921875" lon="-4.74306561984121799468994140625">
        <ele>861.4000244140625</ele>
        <time>2019-07-08T11:13:37.000Z</time>
      </trkpt>
      <trkpt lat="42.3502926528453826904296875" lon="-4.7434847988188266754150390625">
        <ele>859.5999755859375</ele>
        <time>2019-07-08T11:13:38.000Z</time>
      </trkpt>
      <trkpt lat="42.35033850185573101043701171875" lon="-4.7438998706638813018798828125">
        <ele>857.79998779296875</ele>
        <time>2019-07-08T11:13:39.000Z</time>
      </trkpt>
      <trkpt lat="42.3503860272467136383056640625" lon="-4.74430999718606472015380859375">
        <ele>856.20001220703125</ele>
        <time>2019-07-08T11:13:40.000Z</time>
      </trkpt>
      <trkpt lat="42.35043472610414028167724609375" lon="-4.7447152622044086456298828125">
        <ele>854.4000244140625</ele>
        <time>2019-07-08T11:13:41.000Z</time>
      </trkpt>
      <trkpt lat="42.3505286872386932373046875" lon="-4.74552847445011138916015625">
        <ele>854</ele>
        <time>2019-07-08T11:13:43.000Z</time>
      </trkpt>
      <trkpt lat="42.35057755373418331146240234375" lon="-4.74593340419232845306396484375">
        <ele>855.79998779296875</ele>
        <time>2019-07-08T11:13:44.000Z</time>
      </trkpt>
      <trkpt lat="42.3506284318864345550537109375" lon="-4.74634059704840183258056640625">
        <ele>858</ele>
        <time>2019-07-08T11:13:45.000Z</time>
      </trkpt>
      <trkpt lat="42.3506827466189861297607421875" lon="-4.74675022065639495849609375">
        <ele>859.20001220703125</ele>
        <time>2019-07-08T11:13:46.000Z</time>
      </trkpt>
      <trkpt lat="42.35073815099895000457763671875" lon="-4.7471621073782444000244140625">
        <ele>861</ele>
        <time>2019-07-08T11:13:47.000Z</time>
      </trkpt>
      <trkpt lat="42.35085499472916126251220703125" lon="-4.747989736497402191162109375">
        <ele>862.20001220703125</ele>
        <time>2019-07-08T11:13:49.000Z</time>
      </trkpt>
      <trkpt lat="42.3509811423718929290771484375" lon="-4.74881627596914768218994140625">
        <ele>862.5999755859375</ele>
        <time>2019-07-08T11:13:51.000Z</time>
      </trkpt>
      <trkpt lat="42.35104702413082122802734375" lon="-4.7492297552525997161865234375">
        <ele>860.5999755859375</ele>
        <time>2019-07-08T11:13:52.000Z</time>
      </trkpt>
      <trkpt lat="42.35111097805202007293701171875" lon="-4.7496424801647663116455078125">
        <ele>861.79998779296875</ele>
        <time>2019-07-08T11:13:53.000Z</time>
      </trkpt>
      <trkpt lat="42.35124190337955951690673828125" lon="-4.7504603862762451171875">
        <ele>866.20001220703125</ele>
        <time>2019-07-08T11:13:55.000Z</time>
      </trkpt>
      <trkpt lat="42.35137936659157276153564453125" lon="-4.7512712515890598297119140625">
        <ele>867.5999755859375</ele>
        <time>2019-07-08T11:13:57.000Z</time>
      </trkpt>
      <trkpt lat="42.3514486849308013916015625" lon="-4.75166947580873966217041015625">
        <ele>865</ele>
        <time>2019-07-08T11:13:58.000Z</time>
      </trkpt>
      <trkpt lat="42.35151817090809345245361328125" lon="-4.75205956958234310150146484375">
        <ele>866.79998779296875</ele>
        <time>2019-07-08T11:13:59.000Z</time>
      </trkpt>
      <trkpt lat="42.35158790834248065948486328125" lon="-4.7524423711001873016357421875">
        <ele>868.20001220703125</ele>
        <time>2019-07-08T11:14:00.000Z</time>
      </trkpt>
      <trkpt lat="42.3517298139631748199462890625" lon="-4.753195904195308685302734375">
        <ele>868</ele>
        <time>2019-07-08T11:14:02.000Z</time>
      </trkpt>
      <trkpt lat="42.3518756590783596038818359375" lon="-4.7539325058460235595703125">
        <ele>870</ele>
        <time>2019-07-08T11:14:04.000Z</time>
      </trkpt>
      <trkpt lat="42.35194916836917400360107421875" lon="-4.75429904647171497344970703125">
        <ele>871</ele>
        <time>2019-07-08T11:14:05.000Z</time>
      </trkpt>
      <trkpt lat="42.35202225856482982635498046875" lon="-4.75466382689774036407470703125">
        <ele>866.5999755859375</ele>
        <time>2019-07-08T11:14:06.000Z</time>
      </trkpt>
      <trkpt lat="42.3520959354937076568603515625" lon="-4.755028523504734039306640625">
        <ele>859.79998779296875</ele>
        <time>2019-07-08T11:14:07.000Z</time>
      </trkpt>
      <trkpt lat="42.35217086970806121826171875" lon="-4.75539238192141056060791015625">
        <ele>852</ele>
        <time>2019-07-08T11:14:08.000Z</time>
      </trkpt>
      <trkpt lat="42.35224689356982707977294921875" lon="-4.7557548992335796356201171875">
        <ele>847.79998779296875</ele>
        <time>2019-07-08T11:14:09.000Z</time>
      </trkpt>
      <trkpt lat="42.3523252643644809722900390625" lon="-4.7561176680028438568115234375">
        <ele>845.79998779296875</ele>
        <time>2019-07-08T11:14:10.000Z</time>
      </trkpt>
      <trkpt lat="42.3524838499724864959716796875" lon="-4.7568475641310214996337890625">
        <ele>845.20001220703125</ele>
        <time>2019-07-08T11:14:12.000Z</time>
      </trkpt>
      <trkpt lat="42.3526476323604583740234375" lon="-4.75758709944784641265869140625">
        <ele>848.79998779296875</ele>
        <time>2019-07-08T11:14:14.000Z</time>
      </trkpt>
      <trkpt lat="42.35273321159183979034423828125" lon="-4.75795917212963104248046875">
        <ele>852.4000244140625</ele>
        <time>2019-07-08T11:14:15.000Z</time>
      </trkpt>
      <trkpt lat="42.3528191260993480682373046875" lon="-4.7583353519439697265625">
        <ele>856.5999755859375</ele>
        <time>2019-07-08T11:14:16.000Z</time>
      </trkpt>
      <trkpt lat="42.35290738753974437713623046875" lon="-4.75871555507183074951171875">
        <ele>859.5999755859375</ele>
        <time>2019-07-08T11:14:17.000Z</time>
      </trkpt>
      <trkpt lat="42.3529963195323944091796875" lon="-4.759095422923564910888671875">
        <ele>864.20001220703125</ele>
        <time>2019-07-08T11:14:18.000Z</time>
      </trkpt>
      <trkpt lat="42.35308374278247356414794921875" lon="-4.75947923026978969573974609375">
        <ele>866.4000244140625</ele>
        <time>2019-07-08T11:14:19.000Z</time>
      </trkpt>
      <trkpt lat="42.35317359678447246551513671875" lon="-4.75986815057694911956787109375">
        <ele>867.5999755859375</ele>
        <time>2019-07-08T11:14:20.000Z</time>
      </trkpt>
      <trkpt lat="42.3533570766448974609375" lon="-4.760649092495441436767578125">
        <ele>863.79998779296875</ele>
        <time>2019-07-08T11:14:22.000Z</time>
      </trkpt>
      <trkpt lat="42.35345028340816497802734375" lon="-4.76104262284934520721435546875">
        <ele>857.5999755859375</ele>
        <time>2019-07-08T11:14:23.000Z</time>
      </trkpt>
      <trkpt lat="42.35354508273303508758544921875" lon="-4.7614358179271221160888671875">
        <ele>852</ele>
        <time>2019-07-08T11:14:24.000Z</time>
      </trkpt>
      <trkpt lat="42.35363828949630260467529296875" lon="-4.761827252805233001708984375">
        <ele>848.20001220703125</ele>
        <time>2019-07-08T11:14:25.000Z</time>
      </trkpt>
      <trkpt lat="42.353730909526348114013671875" lon="-4.76221960969269275665283203125">
        <ele>845.4000244140625</ele>
        <time>2019-07-08T11:14:26.000Z</time>
      </trkpt>
      <trkpt lat="42.35382269136607646942138671875" lon="-4.762613140046596527099609375">
        <ele>844.20001220703125</ele>
        <time>2019-07-08T11:14:27.000Z</time>
      </trkpt>
      <trkpt lat="42.3539154790341854095458984375" lon="-4.763006754219532012939453125">
        <ele>842.20001220703125</ele>
        <time>2019-07-08T11:14:28.000Z</time>
      </trkpt>
      <trkpt lat="42.35410063527524471282958984375" lon="-4.76379658095538616180419921875">
        <ele>841</ele>
        <time>2019-07-08T11:14:30.000Z</time>
      </trkpt>
      <trkpt lat="42.3542891442775726318359375" lon="-4.76459068246185779571533203125">
        <ele>841.79998779296875</ele>
        <time>2019-07-08T11:14:32.000Z</time>
      </trkpt>
      <trkpt lat="42.3543828539550304412841796875" lon="-4.76498790085315704345703125">
        <ele>842.79998779296875</ele>
        <time>2019-07-08T11:14:33.000Z</time>
      </trkpt>
      <trkpt lat="42.35457169823348522186279296875" lon="-4.7657789848744869232177734375">
        <ele>842.4000244140625</ele>
        <time>2019-07-08T11:14:35.000Z</time>
      </trkpt>
      <trkpt lat="42.3547583632171154022216796875" lon="-4.76656311191618442535400390625">
        <ele>842.79998779296875</ele>
        <time>2019-07-08T11:14:37.000Z</time>
      </trkpt>
      <trkpt lat="42.3548502288758754730224609375" lon="-4.7669554688036441802978515625">
        <ele>849.4000244140625</ele>
        <time>2019-07-08T11:14:38.000Z</time>
      </trkpt>
      <trkpt lat="42.35494117252528667449951171875" lon="-4.76734799332916736602783203125">
        <ele>858.4000244140625</ele>
        <time>2019-07-08T11:14:39.000Z</time>
      </trkpt>
      <trkpt lat="42.35503236763179302215576171875" lon="-4.76774110458791255950927734375">
        <ele>868.79998779296875</ele>
        <time>2019-07-08T11:14:40.000Z</time>
      </trkpt>
      <trkpt lat="42.35512205399572849273681640625" lon="-4.7681349702179431915283203125">
        <ele>875</ele>
        <time>2019-07-08T11:14:41.000Z</time>
      </trkpt>
      <trkpt lat="42.35521056689321994781494140625" lon="-4.768528752028942108154296875">
        <ele>878.4000244140625</ele>
        <time>2019-07-08T11:14:42.000Z</time>
      </trkpt>
      <trkpt lat="42.35529790632426738739013671875" lon="-4.76892529986798763275146484375">
        <ele>880.20001220703125</ele>
        <time>2019-07-08T11:14:43.000Z</time>
      </trkpt>
      <trkpt lat="42.355470992624759674072265625" lon="-4.76971822790801525115966796875">
        <ele>878.79998779296875</ele>
        <time>2019-07-08T11:14:45.000Z</time>
      </trkpt>
      <trkpt lat="42.3555578291416168212890625" lon="-4.77011469192802906036376953125">
        <ele>871.79998779296875</ele>
        <time>2019-07-08T11:14:46.000Z</time>
      </trkpt>
      <trkpt lat="42.35564441420137882232666015625" lon="-4.7705114074051380157470703125">
        <ele>861.79998779296875</ele>
        <time>2019-07-08T11:14:47.000Z</time>
      </trkpt>
      <trkpt lat="42.35573024488985538482666015625" lon="-4.77090963162481784820556640625">
        <ele>852.79998779296875</ele>
        <time>2019-07-08T11:14:48.000Z</time>
      </trkpt>
      <trkpt lat="42.35581423155963420867919921875" lon="-4.77130877785384654998779296875">
        <ele>847.79998779296875</ele>
        <time>2019-07-08T11:14:49.000Z</time>
      </trkpt>
      <trkpt lat="42.35589687712490558624267578125" lon="-4.7717090137302875518798828125">
        <ele>844.79998779296875</ele>
        <time>2019-07-08T11:14:50.000Z</time>
      </trkpt>
      <trkpt lat="42.35597868449985980987548828125" lon="-4.77210941724479198455810546875">
        <ele>843.4000244140625</ele>
        <time>2019-07-08T11:14:51.000Z</time>
      </trkpt>
      <trkpt lat="42.35613911412656307220458984375" lon="-4.7729113139212131500244140625">
        <ele>841.5999755859375</ele>
        <time>2019-07-08T11:14:53.000Z</time>
      </trkpt>
      <trkpt lat="42.35629476606845855712890625" lon="-4.7737164795398712158203125">
        <ele>841</ele>
        <time>2019-07-08T11:14:55.000Z</time>
      </trkpt>
      <trkpt lat="42.35644899308681488037109375" lon="-4.77452491410076618194580078125">
        <ele>840</ele>
        <time>2019-07-08T11:14:57.000Z</time>
      </trkpt>
      <trkpt lat="42.35659492202103137969970703125" lon="-4.77533494122326374053955078125">
        <ele>841.20001220703125</ele>
        <time>2019-07-08T11:14:59.000Z</time>
      </trkpt>
      <trkpt lat="42.35666566528379917144775390625" lon="-4.7757433913648128509521484375">
        <ele>842.4000244140625</ele>
        <time>2019-07-08T11:15:00.000Z</time>
      </trkpt>
      <trkpt lat="42.356809079647064208984375" lon="-4.77656741626560688018798828125">
        <ele>842.79998779296875</ele>
        <time>2019-07-08T11:15:02.000Z</time>
      </trkpt>
      <trkpt lat="42.35695048235356807708740234375" lon="-4.777400158345699310302734375">
        <ele>842.4000244140625</ele>
        <time>2019-07-08T11:15:04.000Z</time>
      </trkpt>
      <trkpt lat="42.35708459280431270599365234375" lon="-4.778243713080883026123046875">
        <ele>841.79998779296875</ele>
        <time>2019-07-08T11:15:06.000Z</time>
      </trkpt>
      <trkpt lat="42.35720939934253692626953125" lon="-4.77909657172858715057373046875">
        <ele>841.79998779296875</ele>
        <time>2019-07-08T11:15:08.000Z</time>
      </trkpt>
      <trkpt lat="42.357328422367572784423828125" lon="-4.7799527831375598907470703125">
        <ele>843.20001220703125</ele>
        <time>2019-07-08T11:15:10.000Z</time>
      </trkpt>
      <trkpt lat="42.3574449308216571807861328125" lon="-4.78081435896456241607666015625">
        <ele>844.20001220703125</ele>
        <time>2019-07-08T11:15:12.000Z</time>
      </trkpt>
      <trkpt lat="42.357557080686092376708984375" lon="-4.78167467750608921051025390625">
        <ele>845.5999755859375</ele>
        <time>2019-07-08T11:15:14.000Z</time>
      </trkpt>
      <trkpt lat="42.357658334076404571533203125" lon="-4.78253549896180629730224609375">
        <ele>847.20001220703125</ele>
        <time>2019-07-08T11:15:16.000Z</time>
      </trkpt>
      <trkpt lat="42.35770619474351406097412109375" lon="-4.78296666406095027923583984375">
        <ele>849</ele>
        <time>2019-07-08T11:15:17.000Z</time>
      </trkpt>
      <trkpt lat="42.3577540554106235504150390625" lon="-4.783397577702999114990234375">
        <ele>850.79998779296875</ele>
        <time>2019-07-08T11:15:18.000Z</time>
      </trkpt>
      <trkpt lat="42.357801161706447601318359375" lon="-4.7838282398879528045654296875">
        <ele>852.4000244140625</ele>
        <time>2019-07-08T11:15:19.000Z</time>
      </trkpt>
      <trkpt lat="42.35784684307873249053955078125" lon="-4.78425915353000164031982421875">
        <ele>854</ele>
        <time>2019-07-08T11:15:20.000Z</time>
      </trkpt>
      <trkpt lat="42.35793292522430419921875" lon="-4.78512056171894073486328125">
        <ele>856</ele>
        <time>2019-07-08T11:15:22.000Z</time>
      </trkpt>
      <trkpt lat="42.35801029019057750701904296875" lon="-4.78598423302173614501953125">
        <ele>855.4000244140625</ele>
        <time>2019-07-08T11:15:24.000Z</time>
      </trkpt>
      <trkpt lat="42.35804800875484943389892578125" lon="-4.786415733397006988525390625">
        <ele>853.79998779296875</ele>
        <time>2019-07-08T11:15:25.000Z</time>
      </trkpt>
      <trkpt lat="42.35811674036085605621337890625" lon="-4.78728267364203929901123046875">
        <ele>852.5999755859375</ele>
        <time>2019-07-08T11:15:27.000Z</time>
      </trkpt>
      <trkpt lat="42.3581771738827228546142578125" lon="-4.78815522976219654083251953125">
        <ele>852.5999755859375</ele>
        <time>2019-07-08T11:15:29.000Z</time>
      </trkpt>
      <trkpt lat="42.35820592381060123443603515625" lon="-4.7885906696319580078125">
        <ele>853.79998779296875</ele>
        <time>2019-07-08T11:15:30.000Z</time>
      </trkpt>
      <trkpt lat="42.358261160552501678466796875" lon="-4.78944788686931133270263671875">
        <ele>855.79998779296875</ele>
        <time>2019-07-08T11:15:32.000Z</time>
      </trkpt>
      <trkpt lat="42.35830751247704029083251953125" lon="-4.79029144160449504852294921875">
        <ele>858.5999755859375</ele>
        <time>2019-07-08T11:15:34.000Z</time>
      </trkpt>
      <trkpt lat="42.35832779668271541595458984375" lon="-4.790711291134357452392578125">
        <ele>861.79998779296875</ele>
        <time>2019-07-08T11:15:35.000Z</time>
      </trkpt>
      <trkpt lat="42.358346320688724517822265625" lon="-4.79113147594034671783447265625">
        <ele>864.79998779296875</ele>
        <time>2019-07-08T11:15:36.000Z</time>
      </trkpt>
      <trkpt lat="42.35836409032344818115234375" lon="-4.7915536724030971527099609375">
        <ele>867.79998779296875</ele>
        <time>2019-07-08T11:15:37.000Z</time>
      </trkpt>
      <trkpt lat="42.358380518853664398193359375" lon="-4.7919774614274501800537109375">
        <ele>870.20001220703125</ele>
        <time>2019-07-08T11:15:38.000Z</time>
      </trkpt>
      <trkpt lat="42.35839493572711944580078125" lon="-4.79240435175597667694091796875">
        <ele>872.4000244140625</ele>
        <time>2019-07-08T11:15:39.000Z</time>
      </trkpt>
      <trkpt lat="42.35840759240090847015380859375" lon="-4.79283417575061321258544921875">
        <ele>873.4000244140625</ele>
        <time>2019-07-08T11:15:40.000Z</time>
      </trkpt>
      <trkpt lat="42.35843240283429622650146484375" lon="-4.79370103217661380767822265625">
        <ele>874.4000244140625</ele>
        <time>2019-07-08T11:15:42.000Z</time>
      </trkpt>
      <trkpt lat="42.35844229348003864288330078125" lon="-4.79413772933185100555419921875">
        <ele>874.4000244140625</ele>
        <time>2019-07-08T11:15:43.000Z</time>
      </trkpt>
      <trkpt lat="42.3584546148777008056640625" lon="-4.79501212947070598602294921875">
        <ele>873</ele>
        <time>2019-07-08T11:15:45.000Z</time>
      </trkpt>
      <trkpt lat="42.358463667333126068115234375" lon="-4.7958914749324321746826171875">
        <ele>872.79998779296875</ele>
        <time>2019-07-08T11:15:47.000Z</time>
      </trkpt>
      <trkpt lat="42.3584688641130924224853515625" lon="-4.796773754060268402099609375">
        <ele>872.5999755859375</ele>
        <time>2019-07-08T11:15:49.000Z</time>
      </trkpt>
      <trkpt lat="42.358471713960170745849609375" lon="-4.79765578173100948333740234375">
        <ele>873.20001220703125</ele>
        <time>2019-07-08T11:15:51.000Z</time>
      </trkpt>
      <trkpt lat="42.35847137868404388427734375" lon="-4.798097424209117889404296875">
        <ele>874.20001220703125</ele>
        <time>2019-07-08T11:15:52.000Z</time>
      </trkpt>
      <trkpt lat="42.35846609808504581451416015625" lon="-4.79898280464112758636474609375">
        <ele>874</ele>
        <time>2019-07-08T11:15:54.000Z</time>
      </trkpt>
      <trkpt lat="42.3584594763815402984619140625" lon="-4.7998624853789806365966796875">
        <ele>873.79998779296875</ele>
        <time>2019-07-08T11:15:56.000Z</time>
      </trkpt>
      <trkpt lat="42.35845486633479595184326171875" lon="-4.80030027218163013458251953125">
        <ele>875.20001220703125</ele>
        <time>2019-07-08T11:15:57.000Z</time>
      </trkpt>
      <trkpt lat="42.35844950191676616668701171875" lon="-4.80073747225105762481689453125">
        <ele>876.79998779296875</ele>
        <time>2019-07-08T11:15:58.000Z</time>
      </trkpt>
      <trkpt lat="42.35844363458454608917236328125" lon="-4.80117517523467540740966796875">
        <ele>878.4000244140625</ele>
        <time>2019-07-08T11:15:59.000Z</time>
      </trkpt>
      <trkpt lat="42.3584319837391376495361328125" lon="-4.8020481504499912261962890625">
        <ele>879.5999755859375</ele>
        <time>2019-07-08T11:16:01.000Z</time>
      </trkpt>
      <trkpt lat="42.35841966234147548675537109375" lon="-4.802915342152118682861328125">
        <ele>880.4000244140625</ele>
        <time>2019-07-08T11:16:03.000Z</time>
      </trkpt>
      <trkpt lat="42.3584061674773693084716796875" lon="-4.8037758283317089080810546875">
        <ele>880.4000244140625</ele>
        <time>2019-07-08T11:16:05.000Z</time>
      </trkpt>
      <trkpt lat="42.358386553823947906494140625" lon="-4.80463857762515544891357421875">
        <ele>880.5999755859375</ele>
        <time>2019-07-08T11:16:07.000Z</time>
      </trkpt>
      <trkpt lat="42.358367778360843658447265625" lon="-4.805510044097900390625">
        <ele>879.5999755859375</ele>
        <time>2019-07-08T11:16:09.000Z</time>
      </trkpt>
      <trkpt lat="42.35835478641092777252197265625" lon="-4.8063909821212291717529296875">
        <ele>876.79998779296875</ele>
        <time>2019-07-08T11:16:11.000Z</time>
      </trkpt>
      <trkpt lat="42.35834875144064426422119140625" lon="-4.8068342171609401702880859375">
        <ele>874.79998779296875</ele>
        <time>2019-07-08T11:16:12.000Z</time>
      </trkpt>
      <trkpt lat="42.35833634622395038604736328125" lon="-4.807725213468074798583984375">
        <ele>873.4000244140625</ele>
        <time>2019-07-08T11:16:14.000Z</time>
      </trkpt>
      <trkpt lat="42.35832159407436847686767578125" lon="-4.80861813761293888092041015625">
        <ele>872.5999755859375</ele>
        <time>2019-07-08T11:16:16.000Z</time>
      </trkpt>
      <trkpt lat="42.358314804732799530029296875" lon="-4.80906321667134761810302734375">
        <ele>872.4000244140625</ele>
        <time>2019-07-08T11:16:17.000Z</time>
      </trkpt>
      <trkpt lat="42.35830315388739109039306640625" lon="-4.80994767509400844573974609375">
        <ele>872.5999755859375</ele>
        <time>2019-07-08T11:16:19.000Z</time>
      </trkpt>
      <trkpt lat="42.35828873701393604278564453125" lon="-4.8108226619660854339599609375">
        <ele>871</ele>
        <time>2019-07-08T11:16:21.000Z</time>
      </trkpt>
      <trkpt lat="42.35827867873013019561767578125" lon="-4.81168306432664394378662109375">
        <ele>870.4000244140625</ele>
        <time>2019-07-08T11:16:23.000Z</time>
      </trkpt>
      <trkpt lat="42.3582710511982440948486328125" lon="-4.8125349171459674835205078125">
        <ele>873.4000244140625</ele>
        <time>2019-07-08T11:16:25.000Z</time>
      </trkpt>
      <trkpt lat="42.358270548284053802490234375" lon="-4.81295895762741565704345703125">
        <ele>874.5999755859375</ele>
        <time>2019-07-08T11:16:26.000Z</time>
      </trkpt>
      <trkpt lat="42.35827197320759296417236328125" lon="-4.81338140554726123809814453125">
        <ele>875.79998779296875</ele>
        <time>2019-07-08T11:16:27.000Z</time>
      </trkpt>
      <trkpt lat="42.358273230493068695068359375" lon="-4.813804440200328826904296875">
        <ele>877.5999755859375</ele>
        <time>2019-07-08T11:16:28.000Z</time>
      </trkpt>
      <trkpt lat="42.35827549360692501068115234375" lon="-4.81422982178628444671630859375">
        <ele>879.4000244140625</ele>
        <time>2019-07-08T11:16:29.000Z</time>
      </trkpt>
      <trkpt lat="42.3582802712917327880859375" lon="-4.8150944150984287261962890625">
        <ele>877</ele>
        <time>2019-07-08T11:16:31.000Z</time>
      </trkpt>
      <trkpt lat="42.3582804389297962188720703125" lon="-4.81553069315850734710693359375">
        <ele>875.4000244140625</ele>
        <time>2019-07-08T11:16:32.000Z</time>
      </trkpt>
      <trkpt lat="42.35828605480492115020751953125" lon="-4.81640660203993320465087890625">
        <ele>874.20001220703125</ele>
        <time>2019-07-08T11:16:34.000Z</time>
      </trkpt>
      <trkpt lat="42.358300052583217620849609375" lon="-4.81728033162653446197509765625">
        <ele>873.20001220703125</ele>
        <time>2019-07-08T11:16:36.000Z</time>
      </trkpt>
      <trkpt lat="42.35830851830542087554931640625" lon="-4.81771300546824932098388671875">
        <ele>872.4000244140625</ele>
        <time>2019-07-08T11:16:37.000Z</time>
      </trkpt>
      <trkpt lat="42.3583136312663555145263671875" lon="-4.8181484453380107879638671875">
        <ele>871.20001220703125</ele>
        <time>2019-07-08T11:16:38.000Z</time>
      </trkpt>
      <trkpt lat="42.35832746140658855438232421875" lon="-4.819017983973026275634765625">
        <ele>871</ele>
        <time>2019-07-08T11:16:40.000Z</time>
      </trkpt>
      <trkpt lat="42.35834975726902484893798828125" lon="-4.81988475657999515533447265625">
        <ele>870.79998779296875</ele>
        <time>2019-07-08T11:16:42.000Z</time>
      </trkpt>
      <trkpt lat="42.3583709634840488433837890625" lon="-4.8207572288811206817626953125">
        <ele>870.79998779296875</ele>
        <time>2019-07-08T11:16:44.000Z</time>
      </trkpt>
      <trkpt lat="42.3583947680890560150146484375" lon="-4.82162701897323131561279296875">
        <ele>871.5999755859375</ele>
        <time>2019-07-08T11:16:46.000Z</time>
      </trkpt>
      <trkpt lat="42.358427457511425018310546875" lon="-4.82249538414180278778076171875">
        <ele>871.5999755859375</ele>
        <time>2019-07-08T11:16:48.000Z</time>
      </trkpt>
      <trkpt lat="42.3584738932549953460693359375" lon="-4.82335570268332958221435546875">
        <ele>871.5999755859375</ele>
        <time>2019-07-08T11:16:50.000Z</time>
      </trkpt>
      <trkpt lat="42.35852502286434173583984375" lon="-4.824206046760082244873046875">
        <ele>872.4000244140625</ele>
        <time>2019-07-08T11:16:52.000Z</time>
      </trkpt>
      <trkpt lat="42.3585538566112518310546875" lon="-4.824629835784435272216796875">
        <ele>873.79998779296875</ele>
        <time>2019-07-08T11:16:53.000Z</time>
      </trkpt>
      <trkpt lat="42.3585878871381282806396484375" lon="-4.82505387626588344573974609375">
        <ele>875</ele>
        <time>2019-07-08T11:16:54.000Z</time>
      </trkpt>
      <trkpt lat="42.3586257733404636383056640625" lon="-4.8254785872995853424072265625">
        <ele>876.4000244140625</ele>
        <time>2019-07-08T11:16:55.000Z</time>
      </trkpt>
      <trkpt lat="42.35866474919021129608154296875" lon="-4.8259027116000652313232421875">
        <ele>877.79998779296875</ele>
        <time>2019-07-08T11:16:56.000Z</time>
      </trkpt>
      <trkpt lat="42.35873817466199398040771484375" lon="-4.82675389386713504791259765625">
        <ele>879</ele>
        <time>2019-07-08T11:16:58.000Z</time>
      </trkpt>
      <trkpt lat="42.35877312719821929931640625" lon="-4.82717751525342464447021484375">
        <ele>877.5999755859375</ele>
        <time>2019-07-08T11:16:59.000Z</time>
      </trkpt>
      <trkpt lat="42.358809672296047210693359375" lon="-4.8275995440781116485595703125">
        <ele>874.20001220703125</ele>
        <time>2019-07-08T11:17:00.000Z</time>
      </trkpt>
      <trkpt lat="42.358849905431270599365234375" lon="-4.828020818531513214111328125">
        <ele>871.20001220703125</ele>
        <time>2019-07-08T11:17:01.000Z</time>
      </trkpt>
      <trkpt lat="42.35889240168035030364990234375" lon="-4.82844133861362934112548828125">
        <ele>869.79998779296875</ele>
        <time>2019-07-08T11:17:02.000Z</time>
      </trkpt>
      <trkpt lat="42.35898175276815891265869140625" lon="-4.82927885837852954864501953125">
        <ele>869</ele>
        <time>2019-07-08T11:17:04.000Z</time>
      </trkpt>
      <trkpt lat="42.3590743727982044219970703125" lon="-4.83011352829635143280029296875">
        <ele>870</ele>
        <time>2019-07-08T11:17:06.000Z</time>
      </trkpt>
      <trkpt lat="42.35917101614177227020263671875" lon="-4.8309481143951416015625">
        <ele>870.5999755859375</ele>
        <time>2019-07-08T11:17:08.000Z</time>
      </trkpt>
      <trkpt lat="42.35927394591271877288818359375" lon="-4.8317831195890903472900390625">
        <ele>871</ele>
        <time>2019-07-08T11:17:10.000Z</time>
      </trkpt>
      <trkpt lat="42.35938467085361480712890625" lon="-4.83261804096400737762451171875">
        <ele>871.5999755859375</ele>
        <time>2019-07-08T11:17:12.000Z</time>
      </trkpt>
      <trkpt lat="42.3594428412616252899169921875" lon="-4.83303545974195003509521484375">
        <ele>872.20001220703125</ele>
        <time>2019-07-08T11:17:13.000Z</time>
      </trkpt>
      <trkpt lat="42.3595011793076992034912109375" lon="-4.8334548063576221466064453125">
        <ele>873.4000244140625</ele>
        <time>2019-07-08T11:17:14.000Z</time>
      </trkpt>
      <trkpt lat="42.35956110991537570953369140625" lon="-4.83387415297329425811767578125">
        <ele>874.5999755859375</ele>
        <time>2019-07-08T11:17:15.000Z</time>
      </trkpt>
      <trkpt lat="42.35962280072271823883056640625" lon="-4.83429442159831523895263671875">
        <ele>876.20001220703125</ele>
        <time>2019-07-08T11:17:16.000Z</time>
      </trkpt>
      <trkpt lat="42.35968482680618762969970703125" lon="-4.83471401967108249664306640625">
        <ele>877.5999755859375</ele>
        <time>2019-07-08T11:17:17.000Z</time>
      </trkpt>
      <trkpt lat="42.35974718816578388214111328125" lon="-4.8351337015628814697265625">
        <ele>880</ele>
        <time>2019-07-08T11:17:18.000Z</time>
      </trkpt>
      <trkpt lat="42.3598116450011730194091796875" lon="-4.8355519585311412811279296875">
        <ele>881.4000244140625</ele>
        <time>2019-07-08T11:17:19.000Z</time>
      </trkpt>
      <trkpt lat="42.359877862036228179931640625" lon="-4.83596912585198879241943359375">
        <ele>882.5999755859375</ele>
        <time>2019-07-08T11:17:20.000Z</time>
      </trkpt>
      <trkpt lat="42.35994650982320308685302734375" lon="-4.836384616792201995849609375">
        <ele>883.79998779296875</ele>
        <time>2019-07-08T11:17:21.000Z</time>
      </trkpt>
      <trkpt lat="42.360089756548404693603515625" lon="-4.83721040189266204833984375">
        <ele>883.79998779296875</ele>
        <time>2019-07-08T11:17:23.000Z</time>
      </trkpt>
      <trkpt lat="42.36023669131100177764892578125" lon="-4.83803425915539264678955078125">
        <ele>884.20001220703125</ele>
        <time>2019-07-08T11:17:25.000Z</time>
      </trkpt>
      <trkpt lat="42.360386140644550323486328125" lon="-4.83886105008423328399658203125">
        <ele>885</ele>
        <time>2019-07-08T11:17:27.000Z</time>
      </trkpt>
      <trkpt lat="42.360545061528682708740234375" lon="-4.8396880924701690673828125">
        <ele>886</ele>
        <time>2019-07-08T11:17:29.000Z</time>
      </trkpt>
      <trkpt lat="42.36070792190730571746826171875" lon="-4.84050943516194820404052734375">
        <ele>885.79998779296875</ele>
        <time>2019-07-08T11:17:31.000Z</time>
      </trkpt>
      <trkpt lat="42.36087606288492679595947265625" lon="-4.8413207195699214935302734375">
        <ele>886.79998779296875</ele>
        <time>2019-07-08T11:17:33.000Z</time>
      </trkpt>
      <trkpt lat="42.361045964062213897705078125" lon="-4.84212462790310382843017578125">
        <ele>886.4000244140625</ele>
        <time>2019-07-08T11:17:35.000Z</time>
      </trkpt>
      <trkpt lat="42.36121804453432559967041015625" lon="-4.84292082488536834716796875">
        <ele>887</ele>
        <time>2019-07-08T11:17:37.000Z</time>
      </trkpt>
      <trkpt lat="42.36139121465384960174560546875" lon="-4.843705706298351287841796875">
        <ele>887.5999755859375</ele>
        <time>2019-07-08T11:17:39.000Z</time>
      </trkpt>
      <trkpt lat="42.361565642058849334716796875" lon="-4.8444879055023193359375">
        <ele>887.4000244140625</ele>
        <time>2019-07-08T11:17:41.000Z</time>
      </trkpt>
      <trkpt lat="42.36174358986318111419677734375" lon="-4.845271445810794830322265625">
        <ele>887.4000244140625</ele>
        <time>2019-07-08T11:17:43.000Z</time>
      </trkpt>
      <trkpt lat="42.36192581243813037872314453125" lon="-4.8460615240037441253662109375">
        <ele>887.5999755859375</ele>
        <time>2019-07-08T11:17:45.000Z</time>
      </trkpt>
      <trkpt lat="42.3621096275746822357177734375" lon="-4.84686275012791156768798828125">
        <ele>887.20001220703125</ele>
        <time>2019-07-08T11:17:47.000Z</time>
      </trkpt>
      <trkpt lat="42.3623003996908664703369140625" lon="-4.8476721905171871185302734375">
        <ele>886.20001220703125</ele>
        <time>2019-07-08T11:17:49.000Z</time>
      </trkpt>
      <trkpt lat="42.362398803234100341796875" lon="-4.8480795510113239288330078125">
        <ele>885</ele>
        <time>2019-07-08T11:17:50.000Z</time>
      </trkpt>
      <trkpt lat="42.3624982126057147979736328125" lon="-4.8484882526099681854248046875">
        <ele>883.5999755859375</ele>
        <time>2019-07-08T11:17:51.000Z</time>
      </trkpt>
      <trkpt lat="42.36270030029118061065673828125" lon="-4.84930641017854213714599609375">
        <ele>882</ele>
        <time>2019-07-08T11:17:53.000Z</time>
      </trkpt>
      <trkpt lat="42.3629022203385829925537109375" lon="-4.85012062825262546539306640625">
        <ele>880.79998779296875</ele>
        <time>2019-07-08T11:17:55.000Z</time>
      </trkpt>
      <trkpt lat="42.3631055653095245361328125" lon="-4.8509206809103488922119140625">
        <ele>880.4000244140625</ele>
        <time>2019-07-08T11:17:57.000Z</time>
      </trkpt>
      <trkpt lat="42.36330480314791202545166015625" lon="-4.8517069034278392791748046875">
        <ele>879</ele>
        <time>2019-07-08T11:17:59.000Z</time>
      </trkpt>
      <trkpt lat="42.3634024523198604583740234375" lon="-4.852096326649188995361328125">
        <ele>877.20001220703125</ele>
        <time>2019-07-08T11:18:00.000Z</time>
      </trkpt>
      <trkpt lat="42.3635992594063282012939453125" lon="-4.85287274233996868133544921875">
        <ele>875.79998779296875</ele>
        <time>2019-07-08T11:18:02.000Z</time>
      </trkpt>
      <trkpt lat="42.3638029396533966064453125" lon="-4.85365343280136585235595703125">
        <ele>873.5999755859375</ele>
        <time>2019-07-08T11:18:04.000Z</time>
      </trkpt>
      <trkpt lat="42.36400871537625789642333984375" lon="-4.85444468446075916290283203125">
        <ele>873.5999755859375</ele>
        <time>2019-07-08T11:18:06.000Z</time>
      </trkpt>
      <trkpt lat="42.3641112260520458221435546875" lon="-4.85484324395656585693359375">
        <ele>874.79998779296875</ele>
        <time>2019-07-08T11:18:07.000Z</time>
      </trkpt>
      <trkpt lat="42.36431230790913105010986328125" lon="-4.85564254224300384521484375">
        <ele>874.79998779296875</ele>
        <time>2019-07-08T11:18:09.000Z</time>
      </trkpt>
      <trkpt lat="42.364515401422977447509765625" lon="-4.8564411699771881103515625">
        <ele>875.5999755859375</ele>
        <time>2019-07-08T11:18:11.000Z</time>
      </trkpt>
      <trkpt lat="42.3646183311939239501953125" lon="-4.85684148967266082763671875">
        <ele>876.5999755859375</ele>
        <time>2019-07-08T11:18:12.000Z</time>
      </trkpt>
      <trkpt lat="42.3647204227745532989501953125" lon="-4.85724356956779956817626953125">
        <ele>877.79998779296875</ele>
        <time>2019-07-08T11:18:13.000Z</time>
      </trkpt>
      <trkpt lat="42.3649229295551776885986328125" lon="-4.85805091448128223419189453125">
        <ele>879</ele>
        <time>2019-07-08T11:18:15.000Z</time>
      </trkpt>
      <trkpt lat="42.3651197366416454315185546875" lon="-4.858862869441509246826171875">
        <ele>880.4000244140625</ele>
        <time>2019-07-08T11:18:17.000Z</time>
      </trkpt>
      <trkpt lat="42.3653121851384639739990234375" lon="-4.85966987907886505126953125">
        <ele>881</ele>
        <time>2019-07-08T11:18:19.000Z</time>
      </trkpt>
      <trkpt lat="42.3655016161501407623291015625" lon="-4.8604770563542842864990234375">
        <ele>881.5999755859375</ele>
        <time>2019-07-08T11:18:21.000Z</time>
      </trkpt>
      <trkpt lat="42.365684844553470611572265625" lon="-4.86129689030349254608154296875">
        <ele>882.20001220703125</ele>
        <time>2019-07-08T11:18:23.000Z</time>
      </trkpt>
      <trkpt lat="42.365863211452960968017578125" lon="-4.862127788364887237548828125">
        <ele>881.79998779296875</ele>
        <time>2019-07-08T11:18:25.000Z</time>
      </trkpt>
      <trkpt lat="42.3660377226769924163818359375" lon="-4.8629648052155971527099609375">
        <ele>881.5999755859375</ele>
        <time>2019-07-08T11:18:27.000Z</time>
      </trkpt>
      <trkpt lat="42.366203181445598602294921875" lon="-4.8638133890926837921142578125">
        <ele>880.4000244140625</ele>
        <time>2019-07-08T11:18:29.000Z</time>
      </trkpt>
      <trkpt lat="42.3663592524826526641845703125" lon="-4.86466892994940280914306640625">
        <ele>879.5999755859375</ele>
        <time>2019-07-08T11:18:31.000Z</time>
      </trkpt>
      <trkpt lat="42.366433851420879364013671875" lon="-4.86509288661181926727294921875">
        <ele>878.5999755859375</ele>
        <time>2019-07-08T11:18:32.000Z</time>
      </trkpt>
      <trkpt lat="42.3665711469948291778564453125" lon="-4.8659259639680385589599609375">
        <ele>878</ele>
        <time>2019-07-08T11:18:34.000Z</time>
      </trkpt>
      <trkpt lat="42.36669176258146762847900390625" lon="-4.86674361862242221832275390625">
        <ele>878</ele>
        <time>2019-07-08T11:18:36.000Z</time>
      </trkpt>
      <trkpt lat="42.366803996264934539794921875" lon="-4.86755833961069583892822265625">
        <ele>878.4000244140625</ele>
        <time>2019-07-08T11:18:38.000Z</time>
      </trkpt>
      <trkpt lat="42.36690650694072246551513671875" lon="-4.8683738149702548980712890625">
        <ele>878.5999755859375</ele>
        <time>2019-07-08T11:18:40.000Z</time>
      </trkpt>
      <trkpt lat="42.36699854023754596710205078125" lon="-4.86920102499425411224365234375">
        <ele>878</ele>
        <time>2019-07-08T11:18:42.000Z</time>
      </trkpt>
      <trkpt lat="42.36704078502953052520751953125" lon="-4.86961794085800647735595703125">
        <ele>877</ele>
        <time>2019-07-08T11:18:43.000Z</time>
      </trkpt>
      <trkpt lat="42.3671149648725986480712890625" lon="-4.870461411774158477783203125">
        <ele>876.5999755859375</ele>
        <time>2019-07-08T11:18:45.000Z</time>
      </trkpt>
      <trkpt lat="42.36717992462217807769775390625" lon="-4.87130672670900821685791015625">
        <ele>875.4000244140625</ele>
        <time>2019-07-08T11:18:47.000Z</time>
      </trkpt>
      <trkpt lat="42.3672363348305225372314453125" lon="-4.87215262837707996368408203125">
        <ele>875.4000244140625</ele>
        <time>2019-07-08T11:18:49.000Z</time>
      </trkpt>
      <trkpt lat="42.36728050746023654937744140625" lon="-4.87300422973930835723876953125">
        <ele>877</ele>
        <time>2019-07-08T11:18:51.000Z</time>
      </trkpt>
      <trkpt lat="42.36731269396841526031494140625" lon="-4.87385851331055164337158203125">
        <ele>877.79998779296875</ele>
        <time>2019-07-08T11:18:53.000Z</time>
      </trkpt>
      <trkpt lat="42.36732342280447483062744140625" lon="-4.8742854036390781402587890625">
        <ele>878.5999755859375</ele>
        <time>2019-07-08T11:18:54.000Z</time>
      </trkpt>
      <trkpt lat="42.36733482219278812408447265625" lon="-4.87513591535389423370361328125">
        <ele>880</ele>
        <time>2019-07-08T11:18:56.000Z</time>
      </trkpt>
      <trkpt lat="42.36733733676373958587646484375" lon="-4.87598718143999576568603515625">
        <ele>881.79998779296875</ele>
        <time>2019-07-08T11:18:58.000Z</time>
      </trkpt>
      <trkpt lat="42.367328368127346038818359375" lon="-4.87684431485831737518310546875">
        <ele>883</ele>
        <time>2019-07-08T11:19:00.000Z</time>
      </trkpt>
      <trkpt lat="42.36730950884521007537841796875" lon="-4.87770480103790760040283203125">
        <ele>883.79998779296875</ele>
        <time>2019-07-08T11:19:02.000Z</time>
      </trkpt>
      <trkpt lat="42.367280758917331695556640625" lon="-4.87857115454971790313720703125">
        <ele>884.20001220703125</ele>
        <time>2019-07-08T11:19:04.000Z</time>
      </trkpt>
      <trkpt lat="42.3672624863684177398681640625" lon="-4.87900651060044765472412109375">
        <ele>887.4000244140625</ele>
        <time>2019-07-08T11:19:05.000Z</time>
      </trkpt>
      <trkpt lat="42.3672410286962985992431640625" lon="-4.879444129765033721923828125">
        <ele>893.20001220703125</ele>
        <time>2019-07-08T11:19:06.000Z</time>
      </trkpt>
      <trkpt lat="42.36721462570130825042724609375" lon="-4.879882670938968658447265625">
        <ele>900.5999755859375</ele>
        <time>2019-07-08T11:19:07.000Z</time>
      </trkpt>
      <trkpt lat="42.367183528840541839599609375" lon="-4.88032330758869647979736328125">
        <ele>904.79998779296875</ele>
        <time>2019-07-08T11:19:08.000Z</time>
      </trkpt>
      <trkpt lat="42.36715092323720455169677734375" lon="-4.880765117704868316650390625">
        <ele>907</ele>
        <time>2019-07-08T11:19:09.000Z</time>
      </trkpt>
      <trkpt lat="42.367081940174102783203125" lon="-4.881654269993305206298828125">
        <ele>908.5999755859375</ele>
        <time>2019-07-08T11:19:11.000Z</time>
      </trkpt>
      <trkpt lat="42.36699837259948253631591796875" lon="-4.8825439251959323883056640625">
        <ele>909</ele>
        <time>2019-07-08T11:19:13.000Z</time>
      </trkpt>
      <trkpt lat="42.36690281890332698822021484375" lon="-4.88342209719121456146240234375">
        <ele>908</ele>
        <time>2019-07-08T11:19:15.000Z</time>
      </trkpt>
      <trkpt lat="42.3668526113033294677734375" lon="-4.8838578723371028900146484375">
        <ele>907.4000244140625</ele>
        <time>2019-07-08T11:19:16.000Z</time>
      </trkpt>
      <trkpt lat="42.3667466640472412109375" lon="-4.884723387658596038818359375">
        <ele>907</ele>
        <time>2019-07-08T11:19:18.000Z</time>
      </trkpt>
      <trkpt lat="42.366624288260936737060546875" lon="-4.88559342920780181884765625">
        <ele>906.20001220703125</ele>
        <time>2019-07-08T11:19:20.000Z</time>
      </trkpt>
      <trkpt lat="42.3664936982095241546630859375" lon="-4.886462800204753875732421875">
        <ele>903.20001220703125</ele>
        <time>2019-07-08T11:19:22.000Z</time>
      </trkpt>
      <trkpt lat="42.36642806790769100189208984375" lon="-4.8868949711322784423828125">
        <ele>900.4000244140625</ele>
        <time>2019-07-08T11:19:23.000Z</time>
      </trkpt>
      <trkpt lat="42.36636235378682613372802734375" lon="-4.88732747733592987060546875">
        <ele>899</ele>
        <time>2019-07-08T11:19:24.000Z</time>
      </trkpt>
      <trkpt lat="42.36629982478916645050048828125" lon="-4.8877544514834880828857421875">
        <ele>897.20001220703125</ele>
        <time>2019-07-08T11:19:25.000Z</time>
      </trkpt>
      <trkpt lat="42.36616973765194416046142578125" lon="-4.88860613666474819183349609375">
        <ele>892</ele>
        <time>2019-07-08T11:19:27.000Z</time>
      </trkpt>
      <trkpt lat="42.36610352061688899993896484375" lon="-4.88903311081230640411376953125">
        <ele>885.79998779296875</ele>
        <time>2019-07-08T11:19:28.000Z</time>
      </trkpt>
      <trkpt lat="42.36603386700153350830078125" lon="-4.8894623480737209320068359375">
        <ele>878.5999755859375</ele>
        <time>2019-07-08T11:19:29.000Z</time>
      </trkpt>
      <trkpt lat="42.3659649677574634552001953125" lon="-4.889887981116771697998046875">
        <ele>874.4000244140625</ele>
        <time>2019-07-08T11:19:30.000Z</time>
      </trkpt>
      <trkpt lat="42.3658959008753299713134765625" lon="-4.8903139494359493255615234375">
        <ele>871.5999755859375</ele>
        <time>2019-07-08T11:19:31.000Z</time>
      </trkpt>
      <trkpt lat="42.36582758836448192596435546875" lon="-4.89074167795479297637939453125">
        <ele>869.4000244140625</ele>
        <time>2019-07-08T11:19:32.000Z</time>
      </trkpt>
      <trkpt lat="42.36575734801590442657470703125" lon="-4.89117200486361980438232421875">
        <ele>866.79998779296875</ele>
        <time>2019-07-08T11:19:33.000Z</time>
      </trkpt>
      <trkpt lat="42.3656866885721683502197265625" lon="-4.89160358905792236328125">
        <ele>864.20001220703125</ele>
        <time>2019-07-08T11:19:34.000Z</time>
      </trkpt>
      <trkpt lat="42.36561552621424198150634765625" lon="-4.8920367658138275146484375">
        <ele>862</ele>
        <time>2019-07-08T11:19:35.000Z</time>
      </trkpt>
      <trkpt lat="42.36554092727601528167724609375" lon="-4.8924731276929378509521484375">
        <ele>860.79998779296875</ele>
        <time>2019-07-08T11:19:36.000Z</time>
      </trkpt>
      <trkpt lat="42.36546465195715427398681640625" lon="-4.8929099924862384796142578125">
        <ele>859.5999755859375</ele>
        <time>2019-07-08T11:19:37.000Z</time>
      </trkpt>
      <trkpt lat="42.3653155378997325897216796875" lon="-4.89378397352993488311767578125">
        <ele>858.5999755859375</ele>
        <time>2019-07-08T11:19:39.000Z</time>
      </trkpt>
      <trkpt lat="42.36524253152310848236083984375" lon="-4.89422335289418697357177734375">
        <ele>857.5999755859375</ele>
        <time>2019-07-08T11:19:40.000Z</time>
      </trkpt>
      <trkpt lat="42.36510506831109523773193359375" lon="-4.89510462619364261627197265625">
        <ele>856</ele>
        <time>2019-07-08T11:19:42.000Z</time>
      </trkpt>
      <trkpt lat="42.36503801308572292327880859375" lon="-4.8955496214330196380615234375">
        <ele>855</ele>
        <time>2019-07-08T11:19:43.000Z</time>
      </trkpt>
      <trkpt lat="42.36490599811077117919921875" lon="-4.89644640125334262847900390625">
        <ele>853.20001220703125</ele>
        <time>2019-07-08T11:19:45.000Z</time>
      </trkpt>
      <trkpt lat="42.3648436367511749267578125" lon="-4.8968974314630031585693359375">
        <ele>851.20001220703125</ele>
        <time>2019-07-08T11:19:46.000Z</time>
      </trkpt>
      <trkpt lat="42.3647283017635345458984375" lon="-4.8977979831397533416748046875">
        <ele>849.20001220703125</ele>
        <time>2019-07-08T11:19:48.000Z</time>
      </trkpt>
      <trkpt lat="42.3646778427064418792724609375" lon="-4.8982465825974941253662109375">
        <ele>847.5999755859375</ele>
        <time>2019-07-08T11:19:49.000Z</time>
      </trkpt>
      <trkpt lat="42.36459762789309024810791015625" lon="-4.8991417698562145233154296875">
        <ele>845.4000244140625</ele>
        <time>2019-07-08T11:19:51.000Z</time>
      </trkpt>
      <trkpt lat="42.36451883800327777862548828125" lon="-4.90001675672829151153564453125">
        <ele>843.5999755859375</ele>
        <time>2019-07-08T11:19:53.000Z</time>
      </trkpt>
      <trkpt lat="42.3644401319324970245361328125" lon="-4.9008365906774997711181640625">
        <ele>842.4000244140625</ele>
        <time>2019-07-08T11:19:55.000Z</time>
      </trkpt>
      <trkpt lat="42.36437634564936161041259765625" lon="-4.90162826143205165863037109375">
        <ele>842.4000244140625</ele>
        <time>2019-07-08T11:19:57.000Z</time>
      </trkpt>
      <trkpt lat="42.36432337202131748199462890625" lon="-4.902409873902797698974609375">
        <ele>844.4000244140625</ele>
        <time>2019-07-08T11:19:59.000Z</time>
      </trkpt>
      <trkpt lat="42.364298813045024871826171875" lon="-4.90279770456254482269287109375">
        <ele>847</ele>
        <time>2019-07-08T11:20:00.000Z</time>
      </trkpt>
      <trkpt lat="42.36427408643066883087158203125" lon="-4.903186373412609100341796875">
        <ele>848.4000244140625</ele>
        <time>2019-07-08T11:20:01.000Z</time>
      </trkpt>
      <trkpt lat="42.36422605812549591064453125" lon="-4.903971590101718902587890625">
        <ele>849.4000244140625</ele>
        <time>2019-07-08T11:20:03.000Z</time>
      </trkpt>
      <trkpt lat="42.3641759343445301055908203125" lon="-4.9047697149217128753662109375">
        <ele>847</ele>
        <time>2019-07-08T11:20:05.000Z</time>
      </trkpt>
      <trkpt lat="42.3641534708440303802490234375" lon="-4.90517665632069110870361328125">
        <ele>845.79998779296875</ele>
        <time>2019-07-08T11:20:06.000Z</time>
      </trkpt>
      <trkpt lat="42.3641306720674037933349609375" lon="-4.90559005178511142730712890625">
        <ele>844.4000244140625</ele>
        <time>2019-07-08T11:20:07.000Z</time>
      </trkpt>
      <trkpt lat="42.36408054828643798828125" lon="-4.9064346961677074432373046875">
        <ele>844</ele>
        <time>2019-07-08T11:20:09.000Z</time>
      </trkpt>
      <trkpt lat="42.36402950249612331390380859375" lon="-4.907297529280185699462890625">
        <ele>844.20001220703125</ele>
        <time>2019-07-08T11:20:11.000Z</time>
      </trkpt>
      <trkpt lat="42.36398063600063323974609375" lon="-4.90817318670451641082763671875">
        <ele>843.79998779296875</ele>
        <time>2019-07-08T11:20:13.000Z</time>
      </trkpt>
      <trkpt lat="42.36395657993853092193603515625" lon="-4.9086154997348785400390625">
        <ele>842.79998779296875</ele>
        <time>2019-07-08T11:20:14.000Z</time>
      </trkpt>
      <trkpt lat="42.3639033548533916473388671875" lon="-4.90950590930879116058349609375">
        <ele>842.20001220703125</ele>
        <time>2019-07-08T11:20:16.000Z</time>
      </trkpt>
      <trkpt lat="42.363850213587284088134765625" lon="-4.91038785316050052642822265625">
        <ele>842.79998779296875</ele>
        <time>2019-07-08T11:20:18.000Z</time>
      </trkpt>
      <trkpt lat="42.363824732601642608642578125" lon="-4.910824298858642578125">
        <ele>845</ele>
        <time>2019-07-08T11:20:19.000Z</time>
      </trkpt>
      <trkpt lat="42.3637756146490573883056640625" lon="-4.91169392131268978118896484375">
        <ele>846.20001220703125</ele>
        <time>2019-07-08T11:20:21.000Z</time>
      </trkpt>
      <trkpt lat="42.3637504689395427703857421875" lon="-4.912126176059246063232421875">
        <ele>844.4000244140625</ele>
        <time>2019-07-08T11:20:22.000Z</time>
      </trkpt>
      <trkpt lat="42.36370059661567211151123046875" lon="-4.91298775188624858856201171875">
        <ele>845</ele>
        <time>2019-07-08T11:20:24.000Z</time>
      </trkpt>
      <trkpt lat="42.36367679201066493988037109375" lon="-4.913415648043155670166015625">
        <ele>846.5999755859375</ele>
        <time>2019-07-08T11:20:25.000Z</time>
      </trkpt>
      <trkpt lat="42.36362918280065059661865234375" lon="-4.914267919957637786865234375">
        <ele>846.5999755859375</ele>
        <time>2019-07-08T11:20:27.000Z</time>
      </trkpt>
      <trkpt lat="42.36358358524739742279052734375" lon="-4.91512061096727848052978515625">
        <ele>848.4000244140625</ele>
        <time>2019-07-08T11:20:29.000Z</time>
      </trkpt>
      <trkpt lat="42.3635399155318737030029296875" lon="-4.91597204469144344329833984375">
        <ele>848.79998779296875</ele>
        <time>2019-07-08T11:20:31.000Z</time>
      </trkpt>
      <trkpt lat="42.3635020293295383453369140625" lon="-4.91681710816919803619384765625">
        <ele>849</ele>
        <time>2019-07-08T11:20:33.000Z</time>
      </trkpt>
      <trkpt lat="42.36348442733287811279296875" lon="-4.917237125337123870849609375">
        <ele>849.5999755859375</ele>
        <time>2019-07-08T11:20:34.000Z</time>
      </trkpt>
      <trkpt lat="42.36345383338630199432373046875" lon="-4.9180721305310726165771484375">
        <ele>851.5999755859375</ele>
        <time>2019-07-08T11:20:36.000Z</time>
      </trkpt>
      <trkpt lat="42.3634406737983226776123046875" lon="-4.918487370014190673828125">
        <ele>853.4000244140625</ele>
        <time>2019-07-08T11:20:37.000Z</time>
      </trkpt>
      <trkpt lat="42.363427765667438507080078125" lon="-4.91890319623053073883056640625">
        <ele>855.20001220703125</ele>
        <time>2019-07-08T11:20:38.000Z</time>
      </trkpt>
      <trkpt lat="42.36341427080333232879638671875" lon="-4.919318854808807373046875">
        <ele>856.4000244140625</ele>
        <time>2019-07-08T11:20:39.000Z</time>
      </trkpt>
      <trkpt lat="42.36339231021702289581298828125" lon="-4.92015344090759754180908203125">
        <ele>857.5999755859375</ele>
        <time>2019-07-08T11:20:41.000Z</time>
      </trkpt>
      <trkpt lat="42.36338208429515361785888671875" lon="-4.92099766619503498077392578125">
        <ele>858.5999755859375</ele>
        <time>2019-07-08T11:20:43.000Z</time>
      </trkpt>
      <trkpt lat="42.36338007263839244842529296875" lon="-4.9214252270758152008056640625">
        <ele>859.20001220703125</ele>
        <time>2019-07-08T11:20:44.000Z</time>
      </trkpt>
      <trkpt lat="42.363376133143901824951171875" lon="-4.92229233495891094207763671875">
        <ele>859.5999755859375</ele>
        <time>2019-07-08T11:20:46.000Z</time>
      </trkpt>
      <trkpt lat="42.36337537877261638641357421875" lon="-4.92316438816487789154052734375">
        <ele>861</ele>
        <time>2019-07-08T11:20:48.000Z</time>
      </trkpt>
      <trkpt lat="42.3633776418864727020263671875" lon="-4.924033842980861663818359375">
        <ele>862</ele>
        <time>2019-07-08T11:20:50.000Z</time>
      </trkpt>
      <trkpt lat="42.36338091082870960235595703125" lon="-4.9244705401360988616943359375">
        <ele>863.4000244140625</ele>
        <time>2019-07-08T11:20:51.000Z</time>
      </trkpt>
      <trkpt lat="42.3633863590657711029052734375" lon="-4.92490799166262149810791015625">
        <ele>867.5999755859375</ele>
        <time>2019-07-08T11:20:52.000Z</time>
      </trkpt>
      <trkpt lat="42.3633927293121814727783203125" lon="-4.925343431532382965087890625">
        <ele>872.5999755859375</ele>
        <time>2019-07-08T11:20:53.000Z</time>
      </trkpt>
      <trkpt lat="42.363396249711513519287109375" lon="-4.92577903904020786285400390625">
        <ele>877.4000244140625</ele>
        <time>2019-07-08T11:20:54.000Z</time>
      </trkpt>
      <trkpt lat="42.3634006083011627197265625" lon="-4.92620986886322498321533203125">
        <ele>880.5999755859375</ele>
        <time>2019-07-08T11:20:55.000Z</time>
      </trkpt>
      <trkpt lat="42.36341091804206371307373046875" lon="-4.9266350828111171722412109375">
        <ele>882.4000244140625</ele>
        <time>2019-07-08T11:20:56.000Z</time>
      </trkpt>
      <trkpt lat="42.36342483200132846832275390625" lon="-4.927059374749660491943359375">
        <ele>883.79998779296875</ele>
        <time>2019-07-08T11:20:57.000Z</time>
      </trkpt>
      <trkpt lat="42.363461293280124664306640625" lon="-4.9279144965112209320068359375">
        <ele>885.4000244140625</ele>
        <time>2019-07-08T11:20:59.000Z</time>
      </trkpt>
      <trkpt lat="42.36350647173821926116943359375" lon="-4.92877037264406681060791015625">
        <ele>886</ele>
        <time>2019-07-08T11:21:01.000Z</time>
      </trkpt>
      <trkpt lat="42.36355558969080448150634765625" lon="-4.92962189018726348876953125">
        <ele>886</ele>
        <time>2019-07-08T11:21:03.000Z</time>
      </trkpt>
      <trkpt lat="42.36360101960599422454833984375" lon="-4.9304666183888912200927734375">
        <ele>886</ele>
        <time>2019-07-08T11:21:05.000Z</time>
      </trkpt>
      <trkpt lat="42.363649047911167144775390625" lon="-4.9313115142285823822021484375">
        <ele>885.5999755859375</ele>
        <time>2019-07-08T11:21:07.000Z</time>
      </trkpt>
      <trkpt lat="42.36370302736759185791015625" lon="-4.932152219116687774658203125">
        <ele>885.20001220703125</ele>
        <time>2019-07-08T11:21:09.000Z</time>
      </trkpt>
      <trkpt lat="42.363773770630359649658203125" lon="-4.9329838715493679046630859375">
        <ele>883.5999755859375</ele>
        <time>2019-07-08T11:21:11.000Z</time>
      </trkpt>
      <trkpt lat="42.363811321556568145751953125" lon="-4.93339902721345424652099609375">
        <ele>881.5999755859375</ele>
        <time>2019-07-08T11:21:12.000Z</time>
      </trkpt>
      <trkpt lat="42.36388600431382656097412109375" lon="-4.93422992527484893798828125">
        <ele>880.20001220703125</ele>
        <time>2019-07-08T11:21:14.000Z</time>
      </trkpt>
      <trkpt lat="42.3639571666717529296875" lon="-4.93506635539233684539794921875">
        <ele>879.79998779296875</ele>
        <time>2019-07-08T11:21:16.000Z</time>
      </trkpt>
      <trkpt lat="42.364040650427341461181640625" lon="-4.93590689264237880706787109375">
        <ele>881.4000244140625</ele>
        <time>2019-07-08T11:21:18.000Z</time>
      </trkpt>
      <trkpt lat="42.364139221608638763427734375" lon="-4.93674994446337223052978515625">
        <ele>881.79998779296875</ele>
        <time>2019-07-08T11:21:20.000Z</time>
      </trkpt>
      <trkpt lat="42.36424139700829982757568359375" lon="-4.937600456178188323974609375">
        <ele>883</ele>
        <time>2019-07-08T11:21:22.000Z</time>
      </trkpt>
      <trkpt lat="42.36434407532215118408203125" lon="-4.93844996206462383270263671875">
        <ele>882.79998779296875</ele>
        <time>2019-07-08T11:21:24.000Z</time>
      </trkpt>
      <trkpt lat="42.36444910056889057159423828125" lon="-4.9392991326749324798583984375">
        <ele>882.5999755859375</ele>
        <time>2019-07-08T11:21:26.000Z</time>
      </trkpt>
      <trkpt lat="42.36450232565402984619140625" lon="-4.939725100994110107421875">
        <ele>881.5999755859375</ele>
        <time>2019-07-08T11:21:27.000Z</time>
      </trkpt>
      <trkpt lat="42.36461439169943332672119140625" lon="-4.940575696527957916259765625">
        <ele>880.79998779296875</ele>
        <time>2019-07-08T11:21:29.000Z</time>
      </trkpt>
      <trkpt lat="42.36471899785101413726806640625" lon="-4.94142235256731510162353515625">
        <ele>880.4000244140625</ele>
        <time>2019-07-08T11:21:31.000Z</time>
      </trkpt>
      <trkpt lat="42.3648223467171192169189453125" lon="-4.94224947877228260040283203125">
        <ele>881.5999755859375</ele>
        <time>2019-07-08T11:21:33.000Z</time>
      </trkpt>
      <trkpt lat="42.364926449954509735107421875" lon="-4.9430662952363491058349609375">
        <ele>880.79998779296875</ele>
        <time>2019-07-08T11:21:35.000Z</time>
      </trkpt>
      <trkpt lat="42.36498252488672733306884765625" lon="-4.9434719793498516082763671875">
        <ele>879.5999755859375</ele>
        <time>2019-07-08T11:21:36.000Z</time>
      </trkpt>
      <trkpt lat="42.3651006259024143218994140625" lon="-4.9442843534052371978759765625">
        <ele>878.20001220703125</ele>
        <time>2019-07-08T11:21:38.000Z</time>
      </trkpt>
      <trkpt lat="42.36521151848137378692626953125" lon="-4.94510569609701633453369140625">
        <ele>876.5999755859375</ele>
        <time>2019-07-08T11:21:40.000Z</time>
      </trkpt>
      <trkpt lat="42.36532148905098438262939453125" lon="-4.9459372647106647491455078125">
        <ele>876.4000244140625</ele>
        <time>2019-07-08T11:21:42.000Z</time>
      </trkpt>
      <trkpt lat="42.365430705249309539794921875" lon="-4.94678199291229248046875">
        <ele>875.79998779296875</ele>
        <time>2019-07-08T11:21:44.000Z</time>
      </trkpt>
      <trkpt lat="42.36548745073378086090087890625" lon="-4.94720485992729663848876953125">
        <ele>875.4000244140625</ele>
        <time>2019-07-08T11:21:45.000Z</time>
      </trkpt>
      <trkpt lat="42.3656025342643260955810546875" lon="-4.9480495043098926544189453125">
        <ele>874.4000244140625</ele>
        <time>2019-07-08T11:21:47.000Z</time>
      </trkpt>
      <trkpt lat="42.36572214402258396148681640625" lon="-4.948903620243072509765625">
        <ele>872.5999755859375</ele>
        <time>2019-07-08T11:21:49.000Z</time>
      </trkpt>
      <trkpt lat="42.3657829128205776214599609375" lon="-4.94933051057159900665283203125">
        <ele>871</ele>
        <time>2019-07-08T11:21:50.000Z</time>
      </trkpt>
      <trkpt lat="42.36583865247666835784912109375" lon="-4.9497614242136478424072265625">
        <ele>869.20001220703125</ele>
        <time>2019-07-08T11:21:51.000Z</time>
      </trkpt>
      <trkpt lat="42.36588944680988788604736328125" lon="-4.9501935951411724090576171875">
        <ele>864.5999755859375</ele>
        <time>2019-07-08T11:21:52.000Z</time>
      </trkpt>
      <trkpt lat="42.36593730747699737548828125" lon="-4.95063037611544132232666015625">
        <ele>858</ele>
        <time>2019-07-08T11:21:53.000Z</time>
      </trkpt>
      <trkpt lat="42.36598550342023372650146484375" lon="-4.95106975547969341278076171875">
        <ele>850.5999755859375</ele>
        <time>2019-07-08T11:21:54.000Z</time>
      </trkpt>
      <trkpt lat="42.366032861173152923583984375" lon="-4.9515108950436115264892578125">
        <ele>845.4000244140625</ele>
        <time>2019-07-08T11:21:55.000Z</time>
      </trkpt>
      <trkpt lat="42.36608005128800868988037109375" lon="-4.95195354335010051727294921875">
        <ele>841.4000244140625</ele>
        <time>2019-07-08T11:21:56.000Z</time>
      </trkpt>
      <trkpt lat="42.366124056279659271240234375" lon="-4.95239577256143093109130859375">
        <ele>838.20001220703125</ele>
        <time>2019-07-08T11:21:57.000Z</time>
      </trkpt>
      <trkpt lat="42.3662070371210575103759765625" lon="-4.953271932899951934814453125">
        <ele>836.20001220703125</ele>
        <time>2019-07-08T11:21:59.000Z</time>
      </trkpt>
      <trkpt lat="42.366247437894344329833984375" lon="-4.9537052772939205169677734375">
        <ele>835</ele>
        <time>2019-07-08T11:22:00.000Z</time>
      </trkpt>
      <trkpt lat="42.3662834800779819488525390625" lon="-4.954138286411762237548828125">
        <ele>832.79998779296875</ele>
        <time>2019-07-08T11:22:01.000Z</time>
      </trkpt>
      <trkpt lat="42.36631675623357295989990234375" lon="-4.95456785894930362701416015625">
        <ele>831.5999755859375</ele>
        <time>2019-07-08T11:22:02.000Z</time>
      </trkpt>
      <trkpt lat="42.36637475900352001190185546875" lon="-4.95542817749083042144775390625">
        <ele>833.5999755859375</ele>
        <time>2019-07-08T11:22:04.000Z</time>
      </trkpt>
      <trkpt lat="42.366401664912700653076171875" lon="-4.9558600969612598419189453125">
        <ele>835.5999755859375</ele>
        <time>2019-07-08T11:22:05.000Z</time>
      </trkpt>
      <trkpt lat="42.366425804793834686279296875" lon="-4.95629067532718181610107421875">
        <ele>837.5999755859375</ele>
        <time>2019-07-08T11:22:06.000Z</time>
      </trkpt>
      <trkpt lat="42.3664497770369052886962890625" lon="-4.95671832002699375152587890625">
        <ele>838.5999755859375</ele>
        <time>2019-07-08T11:22:07.000Z</time>
      </trkpt>
      <trkpt lat="42.36647081561386585235595703125" lon="-4.95714797638356685638427734375">
        <ele>840.4000244140625</ele>
        <time>2019-07-08T11:22:08.000Z</time>
      </trkpt>
      <trkpt lat="42.36650685779750347137451171875" lon="-4.95800745673477649688720703125">
        <ele>841.5999755859375</ele>
        <time>2019-07-08T11:22:10.000Z</time>
      </trkpt>
      <trkpt lat="42.3665312491357326507568359375" lon="-4.95887246914207935333251953125">
        <ele>841.5999755859375</ele>
        <time>2019-07-08T11:22:12.000Z</time>
      </trkpt>
      <trkpt lat="42.366549856960773468017578125" lon="-4.95974116958677768707275390625">
        <ele>841.5999755859375</ele>
        <time>2019-07-08T11:22:14.000Z</time>
      </trkpt>
      <trkpt lat="42.366563268005847930908203125" lon="-4.960610456764698028564453125">
        <ele>841.4000244140625</ele>
        <time>2019-07-08T11:22:16.000Z</time>
      </trkpt>
      <trkpt lat="42.3665709793567657470703125" lon="-4.96148410253226757049560546875">
        <ele>843.20001220703125</ele>
        <time>2019-07-08T11:22:18.000Z</time>
      </trkpt>
      <trkpt lat="42.3665731586515903472900390625" lon="-4.96192180551588535308837890625">
        <ele>844.20001220703125</ele>
        <time>2019-07-08T11:22:19.000Z</time>
      </trkpt>
      <trkpt lat="42.3665734939277172088623046875" lon="-4.96279142796993255615234375">
        <ele>845</ele>
        <time>2019-07-08T11:22:21.000Z</time>
      </trkpt>
      <trkpt lat="42.366570644080638885498046875" lon="-4.9632225930690765380859375">
        <ele>846</ele>
        <time>2019-07-08T11:22:22.000Z</time>
      </trkpt>
      <trkpt lat="42.36655983142554759979248046875" lon="-4.96407628990709781646728515625">
        <ele>847.5999755859375</ele>
        <time>2019-07-08T11:22:24.000Z</time>
      </trkpt>
      <trkpt lat="42.366552539169788360595703125" lon="-4.9645006656646728515625">
        <ele>849</ele>
        <time>2019-07-08T11:22:25.000Z</time>
      </trkpt>
      <trkpt lat="42.36653552390635013580322265625" lon="-4.9653430469334125518798828125">
        <ele>850.4000244140625</ele>
        <time>2019-07-08T11:22:27.000Z</time>
      </trkpt>
      <trkpt lat="42.36651607789099216461181640625" lon="-4.96618048287928104400634765625">
        <ele>852.20001220703125</ele>
        <time>2019-07-08T11:22:29.000Z</time>
      </trkpt>
      <trkpt lat="42.36649763770401477813720703125" lon="-4.96701515279710292816162109375">
        <ele>853</ele>
        <time>2019-07-08T11:22:31.000Z</time>
      </trkpt>
      <trkpt lat="42.36648850142955780029296875" lon="-4.96743164956569671630859375">
        <ele>854.20001220703125</ele>
        <time>2019-07-08T11:22:32.000Z</time>
      </trkpt>
      <trkpt lat="42.3664786107838153839111328125" lon="-4.96784873306751251220703125">
        <ele>856</ele>
        <time>2019-07-08T11:22:33.000Z</time>
      </trkpt>
      <trkpt lat="42.36645857803523540496826171875" lon="-4.968686588108539581298828125">
        <ele>857</ele>
        <time>2019-07-08T11:22:35.000Z</time>
      </trkpt>
      <trkpt lat="42.366434521973133087158203125" lon="-4.969525448977947235107421875">
        <ele>857.20001220703125</ele>
        <time>2019-07-08T11:22:37.000Z</time>
      </trkpt>
      <trkpt lat="42.366411052644252777099609375" lon="-4.9703695066273212432861328125">
        <ele>857.20001220703125</ele>
        <time>2019-07-08T11:22:39.000Z</time>
      </trkpt>
      <trkpt lat="42.366389594972133636474609375" lon="-4.9712187610566616058349609375">
        <ele>856.5999755859375</ele>
        <time>2019-07-08T11:22:41.000Z</time>
      </trkpt>
      <trkpt lat="42.36636503599584102630615234375" lon="-4.9720577895641326904296875">
        <ele>855.5999755859375</ele>
        <time>2019-07-08T11:22:43.000Z</time>
      </trkpt>
      <trkpt lat="42.36635196022689342498779296875" lon="-4.9724760465323925018310546875">
        <ele>854.4000244140625</ele>
        <time>2019-07-08T11:22:44.000Z</time>
      </trkpt>
      <trkpt lat="42.36634022556245326995849609375" lon="-4.97289489023387432098388671875">
        <ele>853</ele>
        <time>2019-07-08T11:22:45.000Z</time>
      </trkpt>
      <trkpt lat="42.36631826497614383697509765625" lon="-4.97374146245419979095458984375">
        <ele>852</ele>
        <time>2019-07-08T11:22:47.000Z</time>
      </trkpt>
      <trkpt lat="42.36629680730402469635009765625" lon="-4.97459356673061847686767578125">
        <ele>852</ele>
        <time>2019-07-08T11:22:49.000Z</time>
      </trkpt>
      <trkpt lat="42.36626696772873401641845703125" lon="-4.97544600628316402435302734375">
        <ele>851.5999755859375</ele>
        <time>2019-07-08T11:22:51.000Z</time>
      </trkpt>
      <trkpt lat="42.3662445880472660064697265625" lon="-4.97629961930215358734130859375">
        <ele>853</ele>
        <time>2019-07-08T11:22:53.000Z</time>
      </trkpt>
      <trkpt lat="42.36624173820018768310546875" lon="-4.9767266772687435150146484375">
        <ele>854.4000244140625</ele>
        <time>2019-07-08T11:22:54.000Z</time>
      </trkpt>
      <trkpt lat="42.3662464320659637451171875" lon="-4.97715323232114315032958984375">
        <ele>857.4000244140625</ele>
        <time>2019-07-08T11:22:55.000Z</time>
      </trkpt>
      <trkpt lat="42.36625975929200649261474609375" lon="-4.97757920064032077789306640625">
        <ele>859.20001220703125</ele>
        <time>2019-07-08T11:22:56.000Z</time>
      </trkpt>
      <trkpt lat="42.366326563060283660888671875" lon="-4.97843817807734012603759765625">
        <ele>861.20001220703125</ele>
        <time>2019-07-08T11:22:58.000Z</time>
      </trkpt>
      <trkpt lat="42.36638381145894527435302734375" lon="-4.97886599041521549224853515625">
        <ele>860</ele>
        <time>2019-07-08T11:22:59.000Z</time>
      </trkpt>
      <trkpt lat="42.366453967988491058349609375" lon="-4.97929103672504425048828125">
        <ele>858.4000244140625</ele>
        <time>2019-07-08T11:23:00.000Z</time>
      </trkpt>
      <trkpt lat="42.36663543619215488433837890625" lon="-4.98012721538543701171875">
        <ele>856.4000244140625</ele>
        <time>2019-07-08T11:23:02.000Z</time>
      </trkpt>
      <trkpt lat="42.36674674786627292633056640625" lon="-4.9805335700511932373046875">
        <ele>855.4000244140625</ele>
        <time>2019-07-08T11:23:03.000Z</time>
      </trkpt>
      <trkpt lat="42.3670066706836223602294921875" lon="-4.98132172040641307830810546875">
        <ele>857.20001220703125</ele>
        <time>2019-07-08T11:23:05.000Z</time>
      </trkpt>
      <trkpt lat="42.36715637147426605224609375" lon="-4.98170544393360614776611328125">
        <ele>859.4000244140625</ele>
        <time>2019-07-08T11:23:06.000Z</time>
      </trkpt>
      <trkpt lat="42.367317974567413330078125" lon="-4.98208212666213512420654296875">
        <ele>862</ele>
        <time>2019-07-08T11:23:07.000Z</time>
      </trkpt>
      <trkpt lat="42.36768283881247043609619140625" lon="-4.982814453542232513427734375">
        <ele>863.20001220703125</ele>
        <time>2019-07-08T11:23:09.000Z</time>
      </trkpt>
      <trkpt lat="42.36808667890727519989013671875" lon="-4.98351442627608776092529296875">
        <ele>863.4000244140625</ele>
        <time>2019-07-08T11:23:11.000Z</time>
      </trkpt>
      <trkpt lat="42.36828868277370929718017578125" lon="-4.98386294580996036529541015625">
        <ele>862.4000244140625</ele>
        <time>2019-07-08T11:23:12.000Z</time>
      </trkpt>
      <trkpt lat="42.36848901025950908660888671875" lon="-4.984210543334484100341796875">
        <ele>856.4000244140625</ele>
        <time>2019-07-08T11:23:13.000Z</time>
      </trkpt>
      <trkpt lat="42.36869000829756259918212890625" lon="-4.98455755412578582763671875">
        <ele>847.4000244140625</ele>
        <time>2019-07-08T11:23:14.000Z</time>
      </trkpt>
      <trkpt lat="42.3688925988972187042236328125" lon="-4.98490196652710437774658203125">
        <ele>837.79998779296875</ele>
        <time>2019-07-08T11:23:15.000Z</time>
      </trkpt>
      <trkpt lat="42.36909636296331882476806640625" lon="-4.9852463789284229278564453125">
        <ele>831.5999755859375</ele>
        <time>2019-07-08T11:23:16.000Z</time>
      </trkpt>
      <trkpt lat="42.3693016357719898223876953125" lon="-4.985589198768138885498046875">
        <ele>827.20001220703125</ele>
        <time>2019-07-08T11:23:17.000Z</time>
      </trkpt>
      <trkpt lat="42.36950741149485111236572265625" lon="-4.98593009077012538909912109375">
        <ele>822.79998779296875</ele>
        <time>2019-07-08T11:23:18.000Z</time>
      </trkpt>
      <trkpt lat="42.369708828628063201904296875" lon="-4.9862753413617610931396484375">
        <ele>820</ele>
        <time>2019-07-08T11:23:19.000Z</time>
      </trkpt>
      <trkpt lat="42.3699074797332286834716796875" lon="-4.98662277124822139739990234375">
        <ele>818.4000244140625</ele>
        <time>2019-07-08T11:23:20.000Z</time>
      </trkpt>
      <trkpt lat="42.37030838616192340850830078125" lon="-4.9873217381536960601806640625">
        <ele>817.20001220703125</ele>
        <time>2019-07-08T11:23:22.000Z</time>
      </trkpt>
      <trkpt lat="42.37051072530448436737060546875" lon="-4.98767252080142498016357421875">
        <ele>816</ele>
        <time>2019-07-08T11:23:23.000Z</time>
      </trkpt>
      <trkpt lat="42.37091557122766971588134765625" lon="-4.988378696143627166748046875">
        <ele>815.4000244140625</ele>
        <time>2019-07-08T11:23:25.000Z</time>
      </trkpt>
      <trkpt lat="42.37132360227406024932861328125" lon="-4.9890812672674655914306640625">
        <ele>815.20001220703125</ele>
        <time>2019-07-08T11:23:27.000Z</time>
      </trkpt>
      <trkpt lat="42.37152644433081150054931640625" lon="-4.98943054117262363433837890625">
        <ele>814.20001220703125</ele>
        <time>2019-07-08T11:23:28.000Z</time>
      </trkpt>
      <trkpt lat="42.3719281889498233795166015625" lon="-4.99012288637459278106689453125">
        <ele>812.5999755859375</ele>
        <time>2019-07-08T11:23:30.000Z</time>
      </trkpt>
      <trkpt lat="42.3721243254840373992919921875" lon="-4.99046637676656246185302734375">
        <ele>811.4000244140625</ele>
        <time>2019-07-08T11:23:31.000Z</time>
      </trkpt>
      <trkpt lat="42.3725045286118984222412109375" lon="-4.991152770817279815673828125">
        <ele>810.20001220703125</ele>
        <time>2019-07-08T11:23:33.000Z</time>
      </trkpt>
      <trkpt lat="42.37286143004894256591796875" lon="-4.9918462894856929779052734375">
        <ele>810.79998779296875</ele>
        <time>2019-07-08T11:23:35.000Z</time>
      </trkpt>
      <trkpt lat="42.37303133122622966766357421875" lon="-4.9921946413815021514892578125">
        <ele>812.79998779296875</ele>
        <time>2019-07-08T11:23:36.000Z</time>
      </trkpt>
      <trkpt lat="42.37319561652839183807373046875" lon="-4.99254785478115081787109375">
        <ele>815</ele>
        <time>2019-07-08T11:23:37.000Z</time>
      </trkpt>
      <trkpt lat="42.373352609574794769287109375" lon="-4.99290752224624156951904296875">
        <ele>816.5999755859375</ele>
        <time>2019-07-08T11:23:38.000Z</time>
      </trkpt>
      <trkpt lat="42.37350440584123134613037109375" lon="-4.99327397905290126800537109375">
        <ele>818.20001220703125</ele>
        <time>2019-07-08T11:23:39.000Z</time>
      </trkpt>
      <trkpt lat="42.37378821708261966705322265625" lon="-4.99403019435703754425048828125">
        <ele>819.5999755859375</ele>
        <time>2019-07-08T11:23:41.000Z</time>
      </trkpt>
      <trkpt lat="42.3740504868328571319580078125" lon="-4.9948094598948955535888671875">
        <ele>819</ele>
        <time>2019-07-08T11:23:43.000Z</time>
      </trkpt>
      <trkpt lat="42.37417437136173248291015625" lon="-4.9952091090381145477294921875">
        <ele>818.20001220703125</ele>
        <time>2019-07-08T11:23:44.000Z</time>
      </trkpt>
      <trkpt lat="42.3744065500795841217041015625" lon="-4.9960258416831493377685546875">
        <ele>818.20001220703125</ele>
        <time>2019-07-08T11:23:46.000Z</time>
      </trkpt>
      <trkpt lat="42.3746154271066188812255859375" lon="-4.9968657083809375762939453125">
        <ele>819.20001220703125</ele>
        <time>2019-07-08T11:23:48.000Z</time>
      </trkpt>
      <trkpt lat="42.37471290864050388336181640625" lon="-4.99729125760495662689208984375">
        <ele>819.4000244140625</ele>
        <time>2019-07-08T11:23:49.000Z</time>
      </trkpt>
      <trkpt lat="42.37490527331829071044921875" lon="-4.99814973212778568267822265625">
        <ele>818.79998779296875</ele>
        <time>2019-07-08T11:23:51.000Z</time>
      </trkpt>
      <trkpt lat="42.3750030063092708587646484375" lon="-4.99858140014111995697021484375">
        <ele>817.79998779296875</ele>
        <time>2019-07-08T11:23:52.000Z</time>
      </trkpt>
      <trkpt lat="42.37520207650959491729736328125" lon="-4.99944339506328105926513671875">
        <ele>817.20001220703125</ele>
        <time>2019-07-08T11:23:54.000Z</time>
      </trkpt>
      <trkpt lat="42.37539947032928466796875" lon="-5.0003059767186641693115234375">
        <ele>823.4000244140625</ele>
        <time>2019-07-08T11:23:56.000Z</time>
      </trkpt>
      <trkpt lat="42.37549443729221820831298828125" lon="-5.00073705799877643585205078125">
        <ele>830</ele>
        <time>2019-07-08T11:23:57.000Z</time>
      </trkpt>
      <trkpt lat="42.37558848224580287933349609375" lon="-5.00116604380309581756591796875">
        <ele>833.4000244140625</ele>
        <time>2019-07-08T11:23:58.000Z</time>
      </trkpt>
      <trkpt lat="42.37568378448486328125" lon="-5.001590587198734283447265625">
        <ele>835</ele>
        <time>2019-07-08T11:23:59.000Z</time>
      </trkpt>
      <trkpt lat="42.3757791705429553985595703125" lon="-5.00201060436666011810302734375">
        <ele>833.20001220703125</ele>
        <time>2019-07-08T11:24:00.000Z</time>
      </trkpt>
      <trkpt lat="42.37587329931557178497314453125" lon="-5.00242768786847591400146484375">
        <ele>826.5999755859375</ele>
        <time>2019-07-08T11:24:01.000Z</time>
      </trkpt>
      <trkpt lat="42.37596667371690273284912109375" lon="-5.0028413347899913787841796875">
        <ele>817.4000244140625</ele>
        <time>2019-07-08T11:24:02.000Z</time>
      </trkpt>
      <trkpt lat="42.3760591261088848114013671875" lon="-5.00325129367411136627197265625">
        <ele>812</ele>
        <time>2019-07-08T11:24:03.000Z</time>
      </trkpt>
      <trkpt lat="42.37615191377699375152587890625" lon="-5.00366033054888248443603515625">
        <ele>808.4000244140625</ele>
        <time>2019-07-08T11:24:04.000Z</time>
      </trkpt>
      <trkpt lat="42.37624713219702243804931640625" lon="-5.00406651757657527923583984375">
        <ele>806.5999755859375</ele>
        <time>2019-07-08T11:24:05.000Z</time>
      </trkpt>
      <trkpt lat="42.37634369172155857086181640625" lon="-5.00447203405201435089111328125">
        <ele>804.79998779296875</ele>
        <time>2019-07-08T11:24:06.000Z</time>
      </trkpt>
      <trkpt lat="42.37653471529483795166015625" lon="-5.00528172589838504791259765625">
        <ele>805.79998779296875</ele>
        <time>2019-07-08T11:24:08.000Z</time>
      </trkpt>
      <trkpt lat="42.3767283372581005096435546875" lon="-5.00608555041253566741943359375">
        <ele>805</ele>
        <time>2019-07-08T11:24:10.000Z</time>
      </trkpt>
      <trkpt lat="42.376925982534885406494140625" lon="-5.0068837590515613555908203125">
        <ele>804.79998779296875</ele>
        <time>2019-07-08T11:24:12.000Z</time>
      </trkpt>
      <trkpt lat="42.377133183181285858154296875" lon="-5.007677190005779266357421875">
        <ele>804</ele>
        <time>2019-07-08T11:24:14.000Z</time>
      </trkpt>
      <trkpt lat="42.3772419802844524383544921875" lon="-5.00807373784482479095458984375">
        <ele>803.79998779296875</ele>
        <time>2019-07-08T11:24:15.000Z</time>
      </trkpt>
      <trkpt lat="42.377351112663745880126953125" lon="-5.00847221352159976959228515625">
        <ele>805.4000244140625</ele>
        <time>2019-07-08T11:24:16.000Z</time>
      </trkpt>
      <trkpt lat="42.3774649389088153839111328125" lon="-5.00886767171323299407958984375">
        <ele>807.20001220703125</ele>
        <time>2019-07-08T11:24:17.000Z</time>
      </trkpt>
      <trkpt lat="42.37757968716323375701904296875" lon="-5.0092625431716442108154296875">
        <ele>809.4000244140625</ele>
        <time>2019-07-08T11:24:18.000Z</time>
      </trkpt>
      <trkpt lat="42.37769745290279388427734375" lon="-5.0096541456878185272216796875">
        <ele>811.4000244140625</ele>
        <time>2019-07-08T11:24:19.000Z</time>
      </trkpt>
      <trkpt lat="42.3778186552226543426513671875" lon="-5.0100437365472316741943359375">
        <ele>813.20001220703125</ele>
        <time>2019-07-08T11:24:20.000Z</time>
      </trkpt>
      <trkpt lat="42.37794463522732257843017578125" lon="-5.010431818664073944091796875">
        <ele>814.5999755859375</ele>
        <time>2019-07-08T11:24:21.000Z</time>
      </trkpt>
      <trkpt lat="42.37820036709308624267578125" lon="-5.011198930442333221435546875">
        <ele>814.20001220703125</ele>
        <time>2019-07-08T11:24:23.000Z</time>
      </trkpt>
      <trkpt lat="42.37845475785434246063232421875" lon="-5.01193779520690441131591796875">
        <ele>815.79998779296875</ele>
        <time>2019-07-08T11:24:25.000Z</time>
      </trkpt>
      <trkpt lat="42.37870940007269382476806640625" lon="-5.01264430582523345947265625">
        <ele>814.79998779296875</ele>
        <time>2019-07-08T11:24:27.000Z</time>
      </trkpt>
      <trkpt lat="42.37897292710840702056884765625" lon="-5.01332969404757022857666015625">
        <ele>814.79998779296875</ele>
        <time>2019-07-08T11:24:29.000Z</time>
      </trkpt>
      <trkpt lat="42.3791049420833587646484375" lon="-5.01367318443953990936279296875">
        <ele>816</ele>
        <time>2019-07-08T11:24:30.000Z</time>
      </trkpt>
      <trkpt lat="42.379240728914737701416015625" lon="-5.01401483081281185150146484375">
        <ele>817.4000244140625</ele>
        <time>2019-07-08T11:24:31.000Z</time>
      </trkpt>
      <trkpt lat="42.3793800361454486846923828125" lon="-5.01435630954802036285400390625">
        <ele>818.5999755859375</ele>
        <time>2019-07-08T11:24:32.000Z</time>
      </trkpt>
      <trkpt lat="42.37966661341488361358642578125" lon="-5.01503842882812023162841796875">
        <ele>818.20001220703125</ele>
        <time>2019-07-08T11:24:34.000Z</time>
      </trkpt>
      <trkpt lat="42.37996232695877552032470703125" lon="-5.0157229788601398468017578125">
        <ele>818.79998779296875</ele>
        <time>2019-07-08T11:24:36.000Z</time>
      </trkpt>
      <trkpt lat="42.38026290200650691986083984375" lon="-5.01641708426177501678466796875">
        <ele>819</ele>
        <time>2019-07-08T11:24:38.000Z</time>
      </trkpt>
      <trkpt lat="42.3805667459964752197265625" lon="-5.01711462624371051788330078125">
        <ele>819.20001220703125</ele>
        <time>2019-07-08T11:24:40.000Z</time>
      </trkpt>
      <trkpt lat="42.3807181231677532196044921875" lon="-5.01746700145304203033447265625">
        <ele>820.4000244140625</ele>
        <time>2019-07-08T11:24:41.000Z</time>
      </trkpt>
      <trkpt lat="42.380869500339031219482421875" lon="-5.0178204663097858428955078125">
        <ele>822.20001220703125</ele>
        <time>2019-07-08T11:24:42.000Z</time>
      </trkpt>
      <trkpt lat="42.38116814754903316497802734375" lon="-5.01852345652878284454345703125">
        <ele>822.79998779296875</ele>
        <time>2019-07-08T11:24:44.000Z</time>
      </trkpt>
      <trkpt lat="42.381462939083576202392578125" lon="-5.01921798102557659149169921875">
        <ele>823.20001220703125</ele>
        <time>2019-07-08T11:24:46.000Z</time>
      </trkpt>
      <trkpt lat="42.38175622187554836273193359375" lon="-5.0199112482368946075439453125">
        <ele>823.79998779296875</ele>
        <time>2019-07-08T11:24:48.000Z</time>
      </trkpt>
      <trkpt lat="42.3820468224585056304931640625" lon="-5.02060518600046634674072265625">
        <ele>823.79998779296875</ele>
        <time>2019-07-08T11:24:50.000Z</time>
      </trkpt>
      <trkpt lat="42.38233624957501888275146484375" lon="-5.02130557782948017120361328125">
        <ele>824</ele>
        <time>2019-07-08T11:24:52.000Z</time>
      </trkpt>
      <trkpt lat="42.3826221562922000885009765625" lon="-5.02201669849455356597900390625">
        <ele>823.20001220703125</ele>
        <time>2019-07-08T11:24:54.000Z</time>
      </trkpt>
      <trkpt lat="42.38275878131389617919921875" lon="-5.0223795510828495025634765625">
        <ele>822.5999755859375</ele>
        <time>2019-07-08T11:24:55.000Z</time>
      </trkpt>
      <trkpt lat="42.3830197937786579132080078125" lon="-5.0231190025806427001953125">
        <ele>822</ele>
        <time>2019-07-08T11:24:57.000Z</time>
      </trkpt>
      <trkpt lat="42.38326345570385456085205078125" lon="-5.0238852761685848236083984375">
        <ele>821</ele>
        <time>2019-07-08T11:24:59.000Z</time>
      </trkpt>
      <trkpt lat="42.38337568938732147216796875" lon="-5.02427075989544391632080078125">
        <ele>819.4000244140625</ele>
        <time>2019-07-08T11:25:00.000Z</time>
      </trkpt>
      <trkpt lat="42.38357425667345523834228515625" lon="-5.0250201858580112457275390625">
        <ele>818.79998779296875</ele>
        <time>2019-07-08T11:25:02.000Z</time>
      </trkpt>
      <trkpt lat="42.3837563954293727874755859375" lon="-5.02575938589870929718017578125">
        <ele>819.5999755859375</ele>
        <time>2019-07-08T11:25:04.000Z</time>
      </trkpt>
      <trkpt lat="42.38384365104138851165771484375" lon="-5.02613489516079425811767578125">
        <ele>821.5999755859375</ele>
        <time>2019-07-08T11:25:05.000Z</time>
      </trkpt>
      <trkpt lat="42.38392554223537445068359375" lon="-5.0265181995928287506103515625">
        <ele>823.5999755859375</ele>
        <time>2019-07-08T11:25:06.000Z</time>
      </trkpt>
      <trkpt lat="42.384068705141544342041015625" lon="-5.02730752341449260711669921875">
        <ele>825</ele>
        <time>2019-07-08T11:25:08.000Z</time>
      </trkpt>
      <trkpt lat="42.38418429158627986907958984375" lon="-5.0281439535319805145263671875">
        <ele>824.20001220703125</ele>
        <time>2019-07-08T11:25:10.000Z</time>
      </trkpt>
      <trkpt lat="42.38423827104270458221435546875" lon="-5.0285848416388034820556640625">
        <ele>823</ele>
        <time>2019-07-08T11:25:11.000Z</time>
      </trkpt>
      <trkpt lat="42.3842904902994632720947265625" lon="-5.029029585421085357666015625">
        <ele>820.20001220703125</ele>
        <time>2019-07-08T11:25:12.000Z</time>
      </trkpt>
      <trkpt lat="42.3843352496623992919921875" lon="-5.0294758379459381103515625">
        <ele>816.5999755859375</ele>
        <time>2019-07-08T11:25:13.000Z</time>
      </trkpt>
      <trkpt lat="42.384363748133182525634765625" lon="-5.029926784336566925048828125">
        <ele>812.20001220703125</ele>
        <time>2019-07-08T11:25:14.000Z</time>
      </trkpt>
      <trkpt lat="42.38438596017658710479736328125" lon="-5.03036339767277240753173828125">
        <ele>808.4000244140625</ele>
        <time>2019-07-08T11:25:15.000Z</time>
      </trkpt>
      <trkpt lat="42.38440255634486675262451171875" lon="-5.03078249283134937286376953125">
        <ele>804</ele>
        <time>2019-07-08T11:25:16.000Z</time>
      </trkpt>
      <trkpt lat="42.3844152130186557769775390625" lon="-5.0311896018683910369873046875">
        <ele>800.20001220703125</ele>
        <time>2019-07-08T11:25:17.000Z</time>
      </trkpt>
      <trkpt lat="42.38442216999828815460205078125" lon="-5.03158749081194400787353515625">
        <ele>798.20001220703125</ele>
        <time>2019-07-08T11:25:18.000Z</time>
      </trkpt>
      <trkpt lat="42.38442451693117618560791015625" lon="-5.03197096288204193115234375">
        <ele>796.79998779296875</ele>
        <time>2019-07-08T11:25:19.000Z</time>
      </trkpt>
      <trkpt lat="42.38439450971782207489013671875" lon="-5.0326980091631412506103515625">
        <ele>798.20001220703125</ele>
        <time>2019-07-08T11:25:21.000Z</time>
      </trkpt>
      <trkpt lat="42.38437623716890811920166015625" lon="-5.0330453552305698394775390625">
        <ele>799.5999755859375</ele>
        <time>2019-07-08T11:25:22.000Z</time>
      </trkpt>
      <trkpt lat="42.38434673286974430084228515625" lon="-5.03339228220283985137939453125">
        <ele>801.4000244140625</ele>
        <time>2019-07-08T11:25:23.000Z</time>
      </trkpt>
      <trkpt lat="42.3843126185238361358642578125" lon="-5.03373895771801471710205078125">
        <ele>803.20001220703125</ele>
        <time>2019-07-08T11:25:24.000Z</time>
      </trkpt>
      <trkpt lat="42.3842780850827693939208984375" lon="-5.034077502787113189697265625">
        <ele>804.4000244140625</ele>
        <time>2019-07-08T11:25:25.000Z</time>
      </trkpt>
      <trkpt lat="42.384240366518497467041015625" lon="-5.03440515138208866119384765625">
        <ele>805.79998779296875</ele>
        <time>2019-07-08T11:25:26.000Z</time>
      </trkpt>
      <trkpt lat="42.3841593973338603973388671875" lon="-5.03503940999507904052734375">
        <ele>808.4000244140625</ele>
        <time>2019-07-08T11:25:28.000Z</time>
      </trkpt>
      <trkpt lat="42.38411463797092437744140625" lon="-5.03534828312695026397705078125">
        <ele>810.5999755859375</ele>
        <time>2019-07-08T11:25:29.000Z</time>
      </trkpt>
      <trkpt lat="42.38406744785606861114501953125" lon="-5.03564936108887195587158203125">
        <ele>813.5999755859375</ele>
        <time>2019-07-08T11:25:30.000Z</time>
      </trkpt>
      <trkpt lat="42.38396577537059783935546875" lon="-5.0362324900925159454345703125">
        <ele>814.79998779296875</ele>
        <time>2019-07-08T11:25:32.000Z</time>
      </trkpt>
      <trkpt lat="42.38380081951618194580078125" lon="-5.03708065487444400787353515625">
        <ele>815</ele>
        <time>2019-07-08T11:25:35.000Z</time>
      </trkpt>
      <trkpt lat="42.38362245261669158935546875" lon="-5.0379113852977752685546875">
        <ele>814.5999755859375</ele>
        <time>2019-07-08T11:25:38.000Z</time>
      </trkpt>
      <trkpt lat="42.38341466523706912994384765625" lon="-5.03876189701259136199951171875">
        <ele>817</ele>
        <time>2019-07-08T11:25:41.000Z</time>
      </trkpt>
      <trkpt lat="42.38333838991820812225341796875" lon="-5.03905375488102436065673828125">
        <ele>819</ele>
        <time>2019-07-08T11:25:42.000Z</time>
      </trkpt>
      <trkpt lat="42.38317720592021942138671875" lon="-5.039642751216888427734375">
        <ele>819.4000244140625</ele>
        <time>2019-07-08T11:25:44.000Z</time>
      </trkpt>
      <trkpt lat="42.383096404373645782470703125" lon="-5.0399315916001796722412109375">
        <ele>820.5999755859375</ele>
        <time>2019-07-08T11:25:45.000Z</time>
      </trkpt>
      <trkpt lat="42.38301401026546955108642578125" lon="-5.04021397791802883148193359375">
        <ele>822.20001220703125</ele>
        <time>2019-07-08T11:25:46.000Z</time>
      </trkpt>
      <trkpt lat="42.38277512602508068084716796875" lon="-5.041039846837520599365234375">
        <ele>822.5999755859375</ele>
        <time>2019-07-08T11:25:49.000Z</time>
      </trkpt>
      <trkpt lat="42.38254286348819732666015625" lon="-5.0418891012668609619140625">
        <ele>822.20001220703125</ele>
        <time>2019-07-08T11:25:52.000Z</time>
      </trkpt>
      <trkpt lat="42.38230640999972820281982421875" lon="-5.0427106954157352447509765625">
        <ele>821.4000244140625</ele>
        <time>2019-07-08T11:25:55.000Z</time>
      </trkpt>
      <trkpt lat="42.382089905440807342529296875" lon="-5.0435126759111881256103515625">
        <ele>822.5999755859375</ele>
        <time>2019-07-08T11:25:58.000Z</time>
      </trkpt>
      <trkpt lat="42.38190223462879657745361328125" lon="-5.0442965514957904815673828125">
        <ele>820.20001220703125</ele>
        <time>2019-07-08T11:26:01.000Z</time>
      </trkpt>
      <trkpt lat="42.38183517940342426300048828125" lon="-5.0445498526096343994140625">
        <ele>819</ele>
        <time>2019-07-08T11:26:02.000Z</time>
      </trkpt>
      <trkpt lat="42.381770052015781402587890625" lon="-5.04479988478124141693115234375">
        <ele>817.20001220703125</ele>
        <time>2019-07-08T11:26:03.000Z</time>
      </trkpt>
      <trkpt lat="42.381705008447170257568359375" lon="-5.04504329524934291839599609375">
        <ele>815.5999755859375</ele>
        <time>2019-07-08T11:26:04.000Z</time>
      </trkpt>
      <trkpt lat="42.38163669593632221221923828125" lon="-5.045278072357177734375">
        <ele>814.4000244140625</ele>
        <time>2019-07-08T11:26:05.000Z</time>
      </trkpt>
      <trkpt lat="42.38146235235035419464111328125" lon="-5.04589070565998554229736328125">
        <ele>814.4000244140625</ele>
        <time>2019-07-08T11:26:08.000Z</time>
      </trkpt>
      <trkpt lat="42.3813687264919281005859375" lon="-5.04622950218617916107177734375">
        <ele>816.20001220703125</ele>
        <time>2019-07-08T11:26:10.000Z</time>
      </trkpt>
      <trkpt lat="42.38133964128792285919189453125" lon="-5.0463916920125484466552734375">
        <ele>817.79998779296875</ele>
        <time>2019-07-08T11:26:11.000Z</time>
      </trkpt>
      <trkpt lat="42.38133377395570278167724609375" lon="-5.04654969088733196258544921875">
        <ele>819</ele>
        <time>2019-07-08T11:26:12.000Z</time>
      </trkpt>
      <trkpt lat="42.38134148530662059783935546875" lon="-5.04669855348765850067138671875">
        <ele>819.5999755859375</ele>
        <time>2019-07-08T11:26:13.000Z</time>
      </trkpt>
      <trkpt lat="42.381351627409458160400390625" lon="-5.04683802835643291473388671875">
        <ele>820</ele>
        <time>2019-07-08T11:26:14.000Z</time>
      </trkpt>
      <trkpt lat="42.381416670978069305419921875" lon="-5.04739701747894287109375">
        <ele>821</ele>
        <time>2019-07-08T11:26:19.000Z</time>
      </trkpt>
      <trkpt lat="42.38149680197238922119140625" lon="-5.04774696193635463714599609375">
        <ele>821.5999755859375</ele>
        <time>2019-07-08T11:26:23.000Z</time>
      </trkpt>
      <trkpt lat="42.38151046447455883026123046875" lon="-5.04789414815604686737060546875">
        <ele>821.5999755859375</ele>
        <time>2019-07-08T11:26:25.000Z</time>
      </trkpt>
      <trkpt lat="42.38157316111028194427490234375" lon="-5.0480315275490283966064453125">
        <ele>821.5999755859375</ele>
        <time>2019-07-08T11:26:28.000Z</time>
      </trkpt>
      <trkpt lat="42.3817611671984195709228515625" lon="-5.04832732491195201873779296875">
        <ele>821.79998779296875</ele>
        <time>2019-07-08T11:26:41.000Z</time>
      </trkpt>
      <trkpt lat="42.38173493184149265289306640625" lon="-5.04842639900743961334228515625">
        <ele>821.5999755859375</ele>
        <time>2019-07-08T11:26:43.000Z</time>
      </trkpt>
      <trkpt lat="42.3815975524485111236572265625" lon="-5.048723034560680389404296875">
        <ele>821.4000244140625</ele>
        <time>2019-07-08T11:26:48.000Z</time>
      </trkpt>
      <trkpt lat="42.3815177567303180694580078125" lon="-5.04881615750491619110107421875">
        <ele>821.4000244140625</ele>
        <time>2019-07-08T11:26:50.000Z</time>
      </trkpt>
      <trkpt lat="42.38143502734601497650146484375" lon="-5.04884465597569942474365234375">
        <ele>821.20001220703125</ele>
        <time>2019-07-08T11:26:52.000Z</time>
      </trkpt>
      <trkpt lat="42.38135657273232936859130859375" lon="-5.04876159131526947021484375">
        <ele>821.5999755859375</ele>
        <time>2019-07-08T11:27:09.000Z</time>
      </trkpt>
      <trkpt lat="42.38128767348825931549072265625" lon="-5.04874876700341701507568359375">
        <ele>822</ele>
        <time>2019-07-08T11:27:29.000Z</time>
      </trkpt>
      <trkpt lat="42.38126336596906185150146484375" lon="-5.04880928434431552886962890625">
        <ele>821.79998779296875</ele>
        <time>2019-07-08T11:27:31.000Z</time>
      </trkpt>
      <trkpt lat="42.38130502402782440185546875" lon="-5.048874914646148681640625">
        <ele>821.5999755859375</ele>
        <time>2019-07-08T11:27:33.000Z</time>
      </trkpt>
      <trkpt lat="42.3814004100859165191650390625" lon="-5.04887818358838558197021484375">
        <ele>821.5999755859375</ele>
        <time>2019-07-08T11:27:35.000Z</time>
      </trkpt>
      <trkpt lat="42.38150258548557758331298828125" lon="-5.0488113798201084136962890625">
        <ele>821.4000244140625</ele>
        <time>2019-07-08T11:27:37.000Z</time>
      </trkpt>
      <trkpt lat="42.3815881647169589996337890625" lon="-5.0487201847136020660400390625">
        <ele>821</ele>
        <time>2019-07-08T11:27:39.000Z</time>
      </trkpt>
      <trkpt lat="42.3816317506134510040283203125" lon="-5.0486122258007526397705078125">
        <ele>820.4000244140625</ele>
        <time>2019-07-08T11:27:41.000Z</time>
      </trkpt>
      <trkpt lat="42.381631918251514434814453125" lon="-5.04855573177337646484375">
        <ele>820</ele>
        <time>2019-07-08T11:27:42.000Z</time>
      </trkpt>
      <trkpt lat="42.38165505230426788330078125" lon="-5.04842204041779041290283203125">
        <ele>821</ele>
        <time>2019-07-08T11:27:53.000Z</time>
      </trkpt>
      <trkpt lat="42.38181573338806629180908203125" lon="-5.0483326055109500885009765625">
        <ele>821.4000244140625</ele>
        <time>2019-07-08T11:28:17.000Z</time>
      </trkpt>
      <trkpt lat="42.38183249719440937042236328125" lon="-5.048189945518970489501953125">
        <ele>820.79998779296875</ele>
        <time>2019-07-08T11:28:19.000Z</time>
      </trkpt>
      <trkpt lat="42.381742894649505615234375" lon="-5.048084668815135955810546875">
        <ele>820</ele>
        <time>2019-07-08T11:28:21.000Z</time>
      </trkpt>
      <trkpt lat="42.3816813714802265167236328125" lon="-5.04806614480912685394287109375">
        <ele>819.79998779296875</ele>
        <time>2019-07-08T11:28:22.000Z</time>
      </trkpt>
      <trkpt lat="42.3816156573593616485595703125" lon="-5.04806220531463623046875">
        <ele>819.79998779296875</ele>
        <time>2019-07-08T11:28:23.000Z</time>
      </trkpt>
      <trkpt lat="42.38149789161980152130126953125" lon="-5.048082657158374786376953125">
        <ele>820</ele>
        <time>2019-07-08T11:28:25.000Z</time>
      </trkpt>
      <trkpt lat="42.38139026798307895660400390625" lon="-5.048128254711627960205078125">
        <ele>820.5999755859375</ele>
        <time>2019-07-08T11:28:28.000Z</time>
      </trkpt>
      <trkpt lat="42.38136579282581806182861328125" lon="-5.04813127219676971435546875">
        <ele>821</ele>
        <time>2019-07-08T11:28:29.000Z</time>
      </trkpt>
      <trkpt lat="42.38133830018341541290283203125" lon="-5.04813663661479949951171875">
        <ele>821.79998779296875</ele>
        <time>2019-07-08T11:30:13.000Z</time>
      </trkpt>
      <trkpt lat="42.38133830018341541290283203125" lon="-5.04813663661479949951171875">
        <ele>822</ele>
        <time>2019-07-08T11:30:32.000Z</time>
      </trkpt>
      <trkpt lat="42.38133830018341541290283203125" lon="-5.04813663661479949951171875">
        <ele>822</ele>
        <time>2019-07-08T11:31:38.000Z</time>
      </trkpt>
      <trkpt lat="42.381355650722980499267578125" lon="-5.0481435097754001617431640625">
        <ele>822</ele>
        <time>2019-07-08T11:34:51.000Z</time>
      </trkpt>
      <trkpt lat="42.38136411644518375396728515625" lon="-5.04813973791897296905517578125">
        <ele>822</ele>
        <time>2019-07-08T11:38:27.000Z</time>
      </trkpt>
      <trkpt lat="42.38137744367122650146484375" lon="-5.0480984151363372802734375">
        <ele>823.20001220703125</ele>
        <time>2019-07-08T11:42:01.000Z</time>
      </trkpt>
      <trkpt lat="42.3813863284885883331298828125" lon="-5.048139989376068115234375">
        <ele>823</ele>
        <time>2019-07-08T11:42:50.000Z</time>
      </trkpt>
      <trkpt lat="42.38137543201446533203125" lon="-5.04825691692531108856201171875">
        <ele>822.5999755859375</ele>
        <time>2019-07-08T11:51:45.000Z</time>
      </trkpt>
      <trkpt lat="42.3812760226428508758544921875" lon="-5.048754215240478515625">
        <ele>823</ele>
        <time>2019-07-08T11:51:52.000Z</time>
      </trkpt>
      <trkpt lat="42.38122380338609218597412109375" lon="-5.04886041395366191864013671875">
        <ele>823</ele>
        <time>2019-07-08T11:51:54.000Z</time>
      </trkpt>
      <trkpt lat="42.3808860965073108673095703125" lon="-5.049239695072174072265625">
        <ele>822</ele>
        <time>2019-07-08T11:52:00.000Z</time>
      </trkpt>
      <trkpt lat="42.38074050284922122955322265625" lon="-5.04940154962241649627685546875">
        <ele>821.4000244140625</ele>
        <time>2019-07-08T11:52:02.000Z</time>
      </trkpt>
      <trkpt lat="42.38063019700348377227783203125" lon="-5.04963691346347332000732421875">
        <ele>821</ele>
        <time>2019-07-08T11:52:04.000Z</time>
      </trkpt>
      <trkpt lat="42.38050295971333980560302734375" lon="-5.05033546127378940582275390625">
        <ele>820.5999755859375</ele>
        <time>2019-07-08T11:52:08.000Z</time>
      </trkpt>
      <trkpt lat="42.3804482258856296539306640625" lon="-5.05075086839497089385986328125">
        <ele>819.79998779296875</ele>
        <time>2019-07-08T11:52:10.000Z</time>
      </trkpt>
      <trkpt lat="42.38038309849798679351806640625" lon="-5.05143449641764163970947265625">
        <ele>819</ele>
        <time>2019-07-08T11:52:13.000Z</time>
      </trkpt>
      <trkpt lat="42.38036130554974079132080078125" lon="-5.05167924799025058746337890625">
        <ele>818.5999755859375</ele>
        <time>2019-07-08T11:52:14.000Z</time>
      </trkpt>
      <trkpt lat="42.3803074099123477935791015625" lon="-5.05245055072009563446044921875">
        <ele>817.79998779296875</ele>
        <time>2019-07-08T11:52:17.000Z</time>
      </trkpt>
      <trkpt lat="42.3802916519343852996826171875" lon="-5.05271089263260364532470703125">
        <ele>817.20001220703125</ele>
        <time>2019-07-08T11:52:18.000Z</time>
      </trkpt>
      <trkpt lat="42.3802524246275424957275390625" lon="-5.053520165383815765380859375">
        <ele>816.20001220703125</ele>
        <time>2019-07-08T11:52:21.000Z</time>
      </trkpt>
      <trkpt lat="42.38025091588497161865234375" lon="-5.05380414426326751708984375">
        <ele>815.79998779296875</ele>
        <time>2019-07-08T11:52:22.000Z</time>
      </trkpt>
      <trkpt lat="42.38027178682386875152587890625" lon="-5.05469908006489276885986328125">
        <ele>814.79998779296875</ele>
        <time>2019-07-08T11:52:25.000Z</time>
      </trkpt>
      <trkpt lat="42.38028536550700664520263671875" lon="-5.0550035946071147918701171875">
        <ele>813.79998779296875</ele>
        <time>2019-07-08T11:52:26.000Z</time>
      </trkpt>
      <trkpt lat="42.38032006658613681793212890625" lon="-5.05562561564147472381591796875">
        <ele>813.20001220703125</ele>
        <time>2019-07-08T11:52:28.000Z</time>
      </trkpt>
      <trkpt lat="42.3803754709661006927490234375" lon="-5.056262724101543426513671875">
        <ele>814.79998779296875</ele>
        <time>2019-07-08T11:52:30.000Z</time>
      </trkpt>
      <trkpt lat="42.38040874712169170379638671875" lon="-5.05659003742039203643798828125">
        <ele>815.4000244140625</ele>
        <time>2019-07-08T11:52:31.000Z</time>
      </trkpt>
      <trkpt lat="42.38049156032502651214599609375" lon="-5.05726377479732036590576171875">
        <ele>815.79998779296875</ele>
        <time>2019-07-08T11:52:33.000Z</time>
      </trkpt>
      <trkpt lat="42.38059063442051410675048828125" lon="-5.057956874370574951171875">
        <ele>815.79998779296875</ele>
        <time>2019-07-08T11:52:35.000Z</time>
      </trkpt>
      <trkpt lat="42.38069674931466579437255859375" lon="-5.05867159925401210784912109375">
        <ele>815</ele>
        <time>2019-07-08T11:52:37.000Z</time>
      </trkpt>
      <trkpt lat="42.38075508736073970794677734375" lon="-5.05904157646000385284423828125">
        <ele>814.20001220703125</ele>
        <time>2019-07-08T11:52:38.000Z</time>
      </trkpt>
      <trkpt lat="42.3808716796338558197021484375" lon="-5.05979075096547603607177734375">
        <ele>813</ele>
        <time>2019-07-08T11:52:40.000Z</time>
      </trkpt>
      <trkpt lat="42.3809900321066379547119140625" lon="-5.0605363212525844573974609375">
        <ele>812.20001220703125</ele>
        <time>2019-07-08T11:52:42.000Z</time>
      </trkpt>
      <trkpt lat="42.3811087198555469512939453125" lon="-5.06128876470029354095458984375">
        <ele>812.20001220703125</ele>
        <time>2019-07-08T11:52:44.000Z</time>
      </trkpt>
      <trkpt lat="42.38122581504285335540771484375" lon="-5.06205034442245960235595703125">
        <ele>812.5999755859375</ele>
        <time>2019-07-08T11:52:46.000Z</time>
      </trkpt>
      <trkpt lat="42.381341569125652313232421875" lon="-5.06281712092459201812744140625">
        <ele>813</ele>
        <time>2019-07-08T11:52:48.000Z</time>
      </trkpt>
      <trkpt lat="42.38145967014133930206298828125" lon="-5.06358205340802669525146484375">
        <ele>811.79998779296875</ele>
        <time>2019-07-08T11:52:50.000Z</time>
      </trkpt>
      <trkpt lat="42.3815797828137874603271484375" lon="-5.0643418729305267333984375">
        <ele>811.5999755859375</ele>
        <time>2019-07-08T11:52:52.000Z</time>
      </trkpt>
      <trkpt lat="42.38169788382947444915771484375" lon="-5.06509901024401187896728515625">
        <ele>811.5999755859375</ele>
        <time>2019-07-08T11:52:54.000Z</time>
      </trkpt>
      <trkpt lat="42.38181489519774913787841796875" lon="-5.06585338152945041656494140625">
        <ele>812</ele>
        <time>2019-07-08T11:52:56.000Z</time>
      </trkpt>
      <trkpt lat="42.381930649280548095703125" lon="-5.06660356186330318450927734375">
        <ele>812.5999755859375</ele>
        <time>2019-07-08T11:52:58.000Z</time>
      </trkpt>
      <trkpt lat="42.3819868080317974090576171875" lon="-5.06697689183056354522705078125">
        <ele>813.20001220703125</ele>
        <time>2019-07-08T11:52:59.000Z</time>
      </trkpt>
      <trkpt lat="42.3820434696972370147705078125" lon="-5.06734854541718959808349609375">
        <ele>814.20001220703125</ele>
        <time>2019-07-08T11:53:00.000Z</time>
      </trkpt>
      <trkpt lat="42.38215972669422626495361328125" lon="-5.06808648817241191864013671875">
        <ele>816.4000244140625</ele>
        <time>2019-07-08T11:53:02.000Z</time>
      </trkpt>
      <trkpt lat="42.38221965730190277099609375" lon="-5.0684515200555324554443359375">
        <ele>818.5999755859375</ele>
        <time>2019-07-08T11:53:03.000Z</time>
      </trkpt>
      <trkpt lat="42.3822808451950550079345703125" lon="-5.06881521083414554595947265625">
        <ele>820.5999755859375</ele>
        <time>2019-07-08T11:53:04.000Z</time>
      </trkpt>
      <trkpt lat="42.3823422007262706756591796875" lon="-5.06917663849890232086181640625">
        <ele>822.79998779296875</ele>
        <time>2019-07-08T11:53:05.000Z</time>
      </trkpt>
      <trkpt lat="42.38246549852192401885986328125" lon="-5.0698908604681491851806640625">
        <ele>824.20001220703125</ele>
        <time>2019-07-08T11:53:07.000Z</time>
      </trkpt>
      <trkpt lat="42.3825282789766788482666015625" lon="-5.07024248130619525909423828125">
        <ele>824.4000244140625</ele>
        <time>2019-07-08T11:53:08.000Z</time>
      </trkpt>
      <trkpt lat="42.3826509900391101837158203125" lon="-5.07094069384038448333740234375">
        <ele>827</ele>
        <time>2019-07-08T11:53:10.000Z</time>
      </trkpt>
      <trkpt lat="42.38271184265613555908203125" lon="-5.07129013538360595703125">
        <ele>829.4000244140625</ele>
        <time>2019-07-08T11:53:11.000Z</time>
      </trkpt>
      <trkpt lat="42.38277311436831951141357421875" lon="-5.07164510898292064666748046875">
        <ele>830.5999755859375</ele>
        <time>2019-07-08T11:53:12.000Z</time>
      </trkpt>
      <trkpt lat="42.38290186040103435516357421875" lon="-5.07237567566335201263427734375">
        <ele>830.20001220703125</ele>
        <time>2019-07-08T11:53:14.000Z</time>
      </trkpt>
      <trkpt lat="42.38303094170987606048583984375" lon="-5.07313616573810577392578125">
        <ele>828</ele>
        <time>2019-07-08T11:53:16.000Z</time>
      </trkpt>
      <trkpt lat="42.3830938898026943206787109375" lon="-5.07352734915912151336669921875">
        <ele>825.20001220703125</ele>
        <time>2019-07-08T11:53:17.000Z</time>
      </trkpt>
      <trkpt lat="42.38315683789551258087158203125" lon="-5.07392414845526218414306640625">
        <ele>822.79998779296875</ele>
        <time>2019-07-08T11:53:18.000Z</time>
      </trkpt>
      <trkpt lat="42.38321819342672824859619140625" lon="-5.07432614453136920928955078125">
        <ele>820.79998779296875</ele>
        <time>2019-07-08T11:53:19.000Z</time>
      </trkpt>
      <trkpt lat="42.38327854312956333160400390625" lon="-5.07473333738744258880615234375">
        <ele>819.20001220703125</ele>
        <time>2019-07-08T11:53:20.000Z</time>
      </trkpt>
      <trkpt lat="42.38340376876294612884521484375" lon="-5.0755536742508411407470703125">
        <ele>818.4000244140625</ele>
        <time>2019-07-08T11:53:22.000Z</time>
      </trkpt>
      <trkpt lat="42.38352782092988491058349609375" lon="-5.07638356648385524749755859375">
        <ele>817.79998779296875</ele>
        <time>2019-07-08T11:53:24.000Z</time>
      </trkpt>
      <trkpt lat="42.3836444132030010223388671875" lon="-5.07721555419266223907470703125">
        <ele>816.79998779296875</ele>
        <time>2019-07-08T11:53:26.000Z</time>
      </trkpt>
      <trkpt lat="42.38375295884907245635986328125" lon="-5.07804326713085174560546875">
        <ele>815.4000244140625</ele>
        <time>2019-07-08T11:53:28.000Z</time>
      </trkpt>
      <trkpt lat="42.38380392082035541534423828125" lon="-5.07845507003366947174072265625">
        <ele>814.20001220703125</ele>
        <time>2019-07-08T11:53:29.000Z</time>
      </trkpt>
      <trkpt lat="42.3838563077151775360107421875" lon="-5.078862346708774566650390625">
        <ele>813.20001220703125</ele>
        <time>2019-07-08T11:53:30.000Z</time>
      </trkpt>
      <trkpt lat="42.38396401517093181610107421875" lon="-5.07966960780322551727294921875">
        <ele>812.4000244140625</ele>
        <time>2019-07-08T11:53:32.000Z</time>
      </trkpt>
      <trkpt lat="42.38407633267343044281005859375" lon="-5.0804708339273929595947265625">
        <ele>815</ele>
        <time>2019-07-08T11:53:34.000Z</time>
      </trkpt>
      <trkpt lat="42.38413416780531406402587890625" lon="-5.08086771704256534576416015625">
        <ele>817.79998779296875</ele>
        <time>2019-07-08T11:53:35.000Z</time>
      </trkpt>
      <trkpt lat="42.38419334404170513153076171875" lon="-5.0812639296054840087890625">
        <ele>820</ele>
        <time>2019-07-08T11:53:36.000Z</time>
      </trkpt>
      <trkpt lat="42.38425411283969879150390625" lon="-5.08165863342583179473876953125">
        <ele>822.4000244140625</ele>
        <time>2019-07-08T11:53:37.000Z</time>
      </trkpt>
      <trkpt lat="42.38431521691381931304931640625" lon="-5.0820509903132915496826171875">
        <ele>823.5999755859375</ele>
        <time>2019-07-08T11:53:38.000Z</time>
      </trkpt>
      <trkpt lat="42.384442202746868133544921875" lon="-5.08283545263111591339111328125">
        <ele>825</ele>
        <time>2019-07-08T11:53:40.000Z</time>
      </trkpt>
      <trkpt lat="42.3845680989325046539306640625" lon="-5.08362452499568462371826171875">
        <ele>824.20001220703125</ele>
        <time>2019-07-08T11:53:42.000Z</time>
      </trkpt>
      <trkpt lat="42.38469039089977741241455078125" lon="-5.08441225625574588775634765625">
        <ele>824.4000244140625</ele>
        <time>2019-07-08T11:53:44.000Z</time>
      </trkpt>
      <trkpt lat="42.38481226377189159393310546875" lon="-5.0852025859057903289794921875">
        <ele>823.79998779296875</ele>
        <time>2019-07-08T11:53:46.000Z</time>
      </trkpt>
      <trkpt lat="42.38493531011044979095458984375" lon="-5.085992999374866485595703125">
        <ele>823.4000244140625</ele>
        <time>2019-07-08T11:53:48.000Z</time>
      </trkpt>
      <trkpt lat="42.385052405297756195068359375" lon="-5.08678399957716464996337890625">
        <ele>823.4000244140625</ele>
        <time>2019-07-08T11:53:50.000Z</time>
      </trkpt>
      <trkpt lat="42.3851109109818935394287109375" lon="-5.08717845194041728973388671875">
        <ele>822.79998779296875</ele>
        <time>2019-07-08T11:53:51.000Z</time>
      </trkpt>
      <trkpt lat="42.38523135893046855926513671875" lon="-5.08796249516308307647705078125">
        <ele>824.5999755859375</ele>
        <time>2019-07-08T11:53:53.000Z</time>
      </trkpt>
      <trkpt lat="42.38535675220191478729248046875" lon="-5.0887420959770679473876953125">
        <ele>824.5999755859375</ele>
        <time>2019-07-08T11:53:55.000Z</time>
      </trkpt>
      <trkpt lat="42.3854756914079189300537109375" lon="-5.0895185954868793487548828125">
        <ele>823.79998779296875</ele>
        <time>2019-07-08T11:53:57.000Z</time>
      </trkpt>
      <trkpt lat="42.3855341970920562744140625" lon="-5.08990625850856304168701171875">
        <ele>823.4000244140625</ele>
        <time>2019-07-08T11:53:58.000Z</time>
      </trkpt>
      <trkpt lat="42.38565263338387012481689453125" lon="-5.0906752981245517730712890625">
        <ele>822.4000244140625</ele>
        <time>2019-07-08T11:54:00.000Z</time>
      </trkpt>
      <trkpt lat="42.385771237313747406005859375" lon="-5.09143277071416378021240234375">
        <ele>822.5999755859375</ele>
        <time>2019-07-08T11:54:02.000Z</time>
      </trkpt>
      <trkpt lat="42.385885901749134063720703125" lon="-5.0921890698373317718505859375">
        <ele>824.5999755859375</ele>
        <time>2019-07-08T11:54:04.000Z</time>
      </trkpt>
      <trkpt lat="42.38594298250973224639892578125" lon="-5.09256650693714618682861328125">
        <ele>826.20001220703125</ele>
        <time>2019-07-08T11:54:05.000Z</time>
      </trkpt>
      <trkpt lat="42.3859997279942035675048828125" lon="-5.092943944036960601806640625">
        <ele>828.4000244140625</ele>
        <time>2019-07-08T11:54:06.000Z</time>
      </trkpt>
      <trkpt lat="42.3860577307641506195068359375" lon="-5.09332154877483844757080078125">
        <ele>829.79998779296875</ele>
        <time>2019-07-08T11:54:07.000Z</time>
      </trkpt>
      <trkpt lat="42.38617549650371074676513671875" lon="-5.0940813682973384857177734375">
        <ele>830.4000244140625</ele>
        <time>2019-07-08T11:54:09.000Z</time>
      </trkpt>
      <trkpt lat="42.38629736937582492828369140625" lon="-5.09485342539846897125244140625">
        <ele>830.79998779296875</ele>
        <time>2019-07-08T11:54:11.000Z</time>
      </trkpt>
      <trkpt lat="42.38635771907866001129150390625" lon="-5.0952441059052944183349609375">
        <ele>830.79998779296875</ele>
        <time>2019-07-08T11:54:12.000Z</time>
      </trkpt>
      <trkpt lat="42.3864761553704738616943359375" lon="-5.09603510610759258270263671875">
        <ele>830.79998779296875</ele>
        <time>2019-07-08T11:54:14.000Z</time>
      </trkpt>
      <trkpt lat="42.3865988664329051971435546875" lon="-5.0968395173549652099609375">
        <ele>831.79998779296875</ele>
        <time>2019-07-08T11:54:16.000Z</time>
      </trkpt>
      <trkpt lat="42.38671428523957729339599609375" lon="-5.0976517237722873687744140625">
        <ele>831.5999755859375</ele>
        <time>2019-07-08T11:54:18.000Z</time>
      </trkpt>
      <trkpt lat="42.3868231661617755889892578125" lon="-5.098459906876087188720703125">
        <ele>832</ele>
        <time>2019-07-08T11:54:20.000Z</time>
      </trkpt>
      <trkpt lat="42.3869193904101848602294921875" lon="-5.09925727732479572296142578125">
        <ele>832.4000244140625</ele>
        <time>2019-07-08T11:54:22.000Z</time>
      </trkpt>
      <trkpt lat="42.387005724012851715087890625" lon="-5.1000412367284297943115234375">
        <ele>834.5999755859375</ele>
        <time>2019-07-08T11:54:24.000Z</time>
      </trkpt>
      <trkpt lat="42.38704704679548740386962890625" lon="-5.10042873211205005645751953125">
        <ele>837</ele>
        <time>2019-07-08T11:54:25.000Z</time>
      </trkpt>
      <trkpt lat="42.38708384335041046142578125" lon="-5.100819580256938934326171875">
        <ele>838.79998779296875</ele>
        <time>2019-07-08T11:54:26.000Z</time>
      </trkpt>
      <trkpt lat="42.387151233851909637451171875" lon="-5.1015959121286869049072265625">
        <ele>840.4000244140625</ele>
        <time>2019-07-08T11:54:28.000Z</time>
      </trkpt>
      <trkpt lat="42.38718132488429546356201171875" lon="-5.101983658969402313232421875">
        <ele>838.79998779296875</ele>
        <time>2019-07-08T11:54:29.000Z</time>
      </trkpt>
      <trkpt lat="42.3872090689837932586669921875" lon="-5.10237517766654491424560546875">
        <ele>836.5999755859375</ele>
        <time>2019-07-08T11:54:30.000Z</time>
      </trkpt>
      <trkpt lat="42.3872368969023227691650390625" lon="-5.102767534554004669189453125">
        <ele>835</ele>
        <time>2019-07-08T11:54:31.000Z</time>
      </trkpt>
      <trkpt lat="42.38726179115474224090576171875" lon="-5.10316257365047931671142578125">
        <ele>833.5999755859375</ele>
        <time>2019-07-08T11:54:32.000Z</time>
      </trkpt>
      <trkpt lat="42.3872804827988147735595703125" lon="-5.1035623066127300262451171875">
        <ele>832</ele>
        <time>2019-07-08T11:54:33.000Z</time>
      </trkpt>
      <trkpt lat="42.38731359131634235382080078125" lon="-5.104364790022373199462890625">
        <ele>831.20001220703125</ele>
        <time>2019-07-08T11:54:35.000Z</time>
      </trkpt>
      <trkpt lat="42.38732649944722652435302734375" lon="-5.10477013885974884033203125">
        <ele>830.20001220703125</ele>
        <time>2019-07-08T11:54:36.000Z</time>
      </trkpt>
      <trkpt lat="42.38733907230198383331298828125" lon="-5.10517691262066364288330078125">
        <ele>828.4000244140625</ele>
        <time>2019-07-08T11:54:37.000Z</time>
      </trkpt>
      <trkpt lat="42.387353070080280303955078125" lon="-5.105579830706119537353515625">
        <ele>826.20001220703125</ele>
        <time>2019-07-08T11:54:38.000Z</time>
      </trkpt>
      <trkpt lat="42.38736941479146480560302734375" lon="-5.10597721673548221588134765625">
        <ele>825.20001220703125</ele>
        <time>2019-07-08T11:54:39.000Z</time>
      </trkpt>
      <trkpt lat="42.38739690743386745452880859375" lon="-5.1067685522139072418212890625">
        <ele>825</ele>
        <time>2019-07-08T11:54:41.000Z</time>
      </trkpt>
      <trkpt lat="42.38742305897176265716552734375" lon="-5.10755955241620540618896484375">
        <ele>825.20001220703125</ele>
        <time>2019-07-08T11:54:43.000Z</time>
      </trkpt>
      <trkpt lat="42.38747200928628444671630859375" lon="-5.10834694840013980865478515625">
        <ele>824.5999755859375</ele>
        <time>2019-07-08T11:54:45.000Z</time>
      </trkpt>
      <trkpt lat="42.387508638203144073486328125" lon="-5.1087393052875995635986328125">
        <ele>824</ele>
        <time>2019-07-08T11:54:46.000Z</time>
      </trkpt>
      <trkpt lat="42.387552559375762939453125" lon="-5.10913216508924961090087890625">
        <ele>822.79998779296875</ele>
        <time>2019-07-08T11:54:47.000Z</time>
      </trkpt>
      <trkpt lat="42.3875996656715869903564453125" lon="-5.109527371823787689208984375">
        <ele>821.79998779296875</ele>
        <time>2019-07-08T11:54:48.000Z</time>
      </trkpt>
      <trkpt lat="42.38770066760480403900146484375" lon="-5.110324658453464508056640625">
        <ele>820.79998779296875</ele>
        <time>2019-07-08T11:54:50.000Z</time>
      </trkpt>
      <trkpt lat="42.38775246776640415191650390625" lon="-5.11072673834860324859619140625">
        <ele>820.20001220703125</ele>
        <time>2019-07-08T11:54:51.000Z</time>
      </trkpt>
      <trkpt lat="42.387870065867900848388671875" lon="-5.11152796447277069091796875">
        <ele>818.5999755859375</ele>
        <time>2019-07-08T11:54:53.000Z</time>
      </trkpt>
      <trkpt lat="42.38799990154802799224853515625" lon="-5.11231913231313228607177734375">
        <ele>818.20001220703125</ele>
        <time>2019-07-08T11:54:55.000Z</time>
      </trkpt>
      <trkpt lat="42.38813803531229496002197265625" lon="-5.113102756440639495849609375">
        <ele>818</ele>
        <time>2019-07-08T11:54:57.000Z</time>
      </trkpt>
      <trkpt lat="42.38829192705452442169189453125" lon="-5.11386978439986705780029296875">
        <ele>818</ele>
        <time>2019-07-08T11:54:59.000Z</time>
      </trkpt>
      <trkpt lat="42.38846207968890666961669921875" lon="-5.11461476795375347137451171875">
        <ele>818.5999755859375</ele>
        <time>2019-07-08T11:55:01.000Z</time>
      </trkpt>
      <trkpt lat="42.38863944076001644134521484375" lon="-5.11534474790096282958984375">
        <ele>821.20001220703125</ele>
        <time>2019-07-08T11:55:03.000Z</time>
      </trkpt>
      <trkpt lat="42.38872745074331760406494140625" lon="-5.11570910923182964324951171875">
        <ele>823.20001220703125</ele>
        <time>2019-07-08T11:55:04.000Z</time>
      </trkpt>
      <trkpt lat="42.38881579600274562835693359375" lon="-5.1160724647343158721923828125">
        <ele>824.79998779296875</ele>
        <time>2019-07-08T11:55:05.000Z</time>
      </trkpt>
      <trkpt lat="42.3889038898050785064697265625" lon="-5.116436742246150970458984375">
        <ele>826.79998779296875</ele>
        <time>2019-07-08T11:55:06.000Z</time>
      </trkpt>
      <trkpt lat="42.38899164833128452301025390625" lon="-5.11680194176733493804931640625">
        <ele>829</ele>
        <time>2019-07-08T11:55:07.000Z</time>
      </trkpt>
      <trkpt lat="42.38907848484814167022705078125" lon="-5.117168314754962921142578125">
        <ele>831.4000244140625</ele>
        <time>2019-07-08T11:55:08.000Z</time>
      </trkpt>
      <trkpt lat="42.389164902269840240478515625" lon="-5.11753535829484462738037109375">
        <ele>833.20001220703125</ele>
        <time>2019-07-08T11:55:09.000Z</time>
      </trkpt>
      <trkpt lat="42.38925266079604625701904296875" lon="-5.11790248565375804901123046875">
        <ele>834.4000244140625</ele>
        <time>2019-07-08T11:55:10.000Z</time>
      </trkpt>
      <trkpt lat="42.3894275911152362823486328125" lon="-5.11864378117024898529052734375">
        <ele>836.4000244140625</ele>
        <time>2019-07-08T11:55:12.000Z</time>
      </trkpt>
      <trkpt lat="42.38960377871990203857421875" lon="-5.11939530260860919952392578125">
        <ele>837.79998779296875</ele>
        <time>2019-07-08T11:55:14.000Z</time>
      </trkpt>
      <trkpt lat="42.3897839896380901336669921875" lon="-5.12015704996883869171142578125">
        <ele>838.79998779296875</ele>
        <time>2019-07-08T11:55:16.000Z</time>
      </trkpt>
      <trkpt lat="42.3899660445749759674072265625" lon="-5.12092533521354198455810546875">
        <ele>838</ele>
        <time>2019-07-08T11:55:18.000Z</time>
      </trkpt>
      <trkpt lat="42.390057407319545745849609375" lon="-5.121310316026210784912109375">
        <ele>836.5999755859375</ele>
        <time>2019-07-08T11:55:19.000Z</time>
      </trkpt>
      <trkpt lat="42.390148937702178955078125" lon="-5.12169496156275272369384765625">
        <ele>835</ele>
        <time>2019-07-08T11:55:20.000Z</time>
      </trkpt>
      <trkpt lat="42.39024021662771701812744140625" lon="-5.122078098356723785400390625">
        <ele>834</ele>
        <time>2019-07-08T11:55:21.000Z</time>
      </trkpt>
      <trkpt lat="42.39033057354390621185302734375" lon="-5.122458301484584808349609375">
        <ele>832.5999755859375</ele>
        <time>2019-07-08T11:55:22.000Z</time>
      </trkpt>
      <trkpt lat="42.390420176088809967041015625" lon="-5.12283506803214550018310546875">
        <ele>830.79998779296875</ele>
        <time>2019-07-08T11:55:23.000Z</time>
      </trkpt>
      <trkpt lat="42.39059627987444400787353515625" lon="-5.12357971630990505218505859375">
        <ele>830.79998779296875</ele>
        <time>2019-07-08T11:55:25.000Z</time>
      </trkpt>
      <trkpt lat="42.3907730542123317718505859375" lon="-5.12431967072188854217529296875">
        <ele>832.4000244140625</ele>
        <time>2019-07-08T11:55:27.000Z</time>
      </trkpt>
      <trkpt lat="42.3909514211118221282958984375" lon="-5.12506239116191864013671875">
        <ele>834.4000244140625</ele>
        <time>2019-07-08T11:55:29.000Z</time>
      </trkpt>
      <trkpt lat="42.3910399340093135833740234375" lon="-5.1254353858530521392822265625">
        <ele>835.79998779296875</ele>
        <time>2019-07-08T11:55:30.000Z</time>
      </trkpt>
      <trkpt lat="42.3911284469068050384521484375" lon="-5.1258095540106296539306640625">
        <ele>837.4000244140625</ele>
        <time>2019-07-08T11:55:31.000Z</time>
      </trkpt>
      <trkpt lat="42.3913001082837581634521484375" lon="-5.12655948288738727569580078125">
        <ele>839.5999755859375</ele>
        <time>2019-07-08T11:55:33.000Z</time>
      </trkpt>
      <trkpt lat="42.39138476550579071044921875" lon="-5.12693314813077449798583984375">
        <ele>841.20001220703125</ele>
        <time>2019-07-08T11:55:34.000Z</time>
      </trkpt>
      <trkpt lat="42.39155751653015613555908203125" lon="-5.1276740245521068572998046875">
        <ele>841.4000244140625</ele>
        <time>2019-07-08T11:55:36.000Z</time>
      </trkpt>
      <trkpt lat="42.39173186011612415313720703125" lon="-5.1284091174602508544921875">
        <ele>839.5999755859375</ele>
        <time>2019-07-08T11:55:38.000Z</time>
      </trkpt>
      <trkpt lat="42.3919059522449970245361328125" lon="-5.1291425339877605438232421875">
        <ele>838</ele>
        <time>2019-07-08T11:55:40.000Z</time>
      </trkpt>
      <trkpt lat="42.39207803271710872650146484375" lon="-5.1298791356384754180908203125">
        <ele>837.4000244140625</ele>
        <time>2019-07-08T11:55:42.000Z</time>
      </trkpt>
      <trkpt lat="42.39224986173212528228759765625" lon="-5.1306187547743320465087890625">
        <ele>837.4000244140625</ele>
        <time>2019-07-08T11:55:44.000Z</time>
      </trkpt>
      <trkpt lat="42.39242387004196643829345703125" lon="-5.13136751018464565277099609375">
        <ele>839.5999755859375</ele>
        <time>2019-07-08T11:55:46.000Z</time>
      </trkpt>
      <trkpt lat="42.39258765242993831634521484375" lon="-5.132131017744541168212890625">
        <ele>840</ele>
        <time>2019-07-08T11:55:48.000Z</time>
      </trkpt>
      <trkpt lat="42.39273031242191791534423828125" lon="-5.13291179202497005462646484375">
        <ele>840.5999755859375</ele>
        <time>2019-07-08T11:55:50.000Z</time>
      </trkpt>
      <trkpt lat="42.3928541131317615509033203125" lon="-5.13370312750339508056640625">
        <ele>840</ele>
        <time>2019-07-08T11:55:52.000Z</time>
      </trkpt>
      <trkpt lat="42.392909266054630279541015625" lon="-5.13409984298050403594970703125">
        <ele>839.4000244140625</ele>
        <time>2019-07-08T11:55:53.000Z</time>
      </trkpt>
      <trkpt lat="42.39300020970404148101806640625" lon="-5.1348905079066753387451171875">
        <ele>838.79998779296875</ele>
        <time>2019-07-08T11:55:55.000Z</time>
      </trkpt>
      <trkpt lat="42.39306575618684291839599609375" lon="-5.135670192539691925048828125">
        <ele>838.20001220703125</ele>
        <time>2019-07-08T11:55:57.000Z</time>
      </trkpt>
      <trkpt lat="42.39310816861689090728759765625" lon="-5.1364431716501712799072265625">
        <ele>837.5999755859375</ele>
        <time>2019-07-08T11:55:59.000Z</time>
      </trkpt>
      <trkpt lat="42.39312292076647281646728515625" lon="-5.13721145689487457275390625">
        <ele>837</ele>
        <time>2019-07-08T11:56:01.000Z</time>
      </trkpt>
      <trkpt lat="42.393128871917724609375" lon="-5.13798820786178112030029296875">
        <ele>837.5999755859375</ele>
        <time>2019-07-08T11:56:03.000Z</time>
      </trkpt>
      <trkpt lat="42.39312350749969482421875" lon="-5.13838249258697032928466796875">
        <ele>838.20001220703125</ele>
        <time>2019-07-08T11:56:04.000Z</time>
      </trkpt>
      <trkpt lat="42.39310632459819316864013671875" lon="-5.13916804455220699310302734375">
        <ele>839</ele>
        <time>2019-07-08T11:56:06.000Z</time>
      </trkpt>
      <trkpt lat="42.39309274591505527496337890625" lon="-5.139561407268047332763671875">
        <ele>839.79998779296875</ele>
        <time>2019-07-08T11:56:07.000Z</time>
      </trkpt>
      <trkpt lat="42.39308034069836139678955078125" lon="-5.1399572007358074188232421875">
        <ele>841.4000244140625</ele>
        <time>2019-07-08T11:56:08.000Z</time>
      </trkpt>
      <trkpt lat="42.393068857491016387939453125" lon="-5.14035643078386783599853515625">
        <ele>843</ele>
        <time>2019-07-08T11:56:09.000Z</time>
      </trkpt>
      <trkpt lat="42.393054105341434478759765625" lon="-5.141158998012542724609375">
        <ele>844.4000244140625</ele>
        <time>2019-07-08T11:56:11.000Z</time>
      </trkpt>
      <trkpt lat="42.39305402152240276336669921875" lon="-5.14196525327861309051513671875">
        <ele>844.79998779296875</ele>
        <time>2019-07-08T11:56:13.000Z</time>
      </trkpt>
      <trkpt lat="42.39305921830236911773681640625" lon="-5.14237328432500362396240234375">
        <ele>845.4000244140625</ele>
        <time>2019-07-08T11:56:14.000Z</time>
      </trkpt>
      <trkpt lat="42.3930827714502811431884765625" lon="-5.14319404028356075286865234375">
        <ele>846.79998779296875</ele>
        <time>2019-07-08T11:56:16.000Z</time>
      </trkpt>
      <trkpt lat="42.39312191493809223175048828125" lon="-5.14401462860405445098876953125">
        <ele>847.79998779296875</ele>
        <time>2019-07-08T11:56:18.000Z</time>
      </trkpt>
      <trkpt lat="42.3931945860385894775390625" lon="-5.14482214115560054779052734375">
        <ele>849</ele>
        <time>2019-07-08T11:56:20.000Z</time>
      </trkpt>
      <trkpt lat="42.393289469182491302490234375" lon="-5.14563065953552722930908203125">
        <ele>850.4000244140625</ele>
        <time>2019-07-08T11:56:22.000Z</time>
      </trkpt>
      <trkpt lat="42.39340421743690967559814453125" lon="-5.1464266888797283172607421875">
        <ele>850.4000244140625</ele>
        <time>2019-07-08T11:56:24.000Z</time>
      </trkpt>
      <trkpt lat="42.39353681914508342742919921875" lon="-5.14720494858920574188232421875">
        <ele>850.5999755859375</ele>
        <time>2019-07-08T11:56:26.000Z</time>
      </trkpt>
      <trkpt lat="42.3936936445534229278564453125" lon="-5.14796870760619640350341796875">
        <ele>851.4000244140625</ele>
        <time>2019-07-08T11:56:28.000Z</time>
      </trkpt>
      <trkpt lat="42.39378173835575580596923828125" lon="-5.14835041947662830352783203125">
        <ele>853.20001220703125</ele>
        <time>2019-07-08T11:56:29.000Z</time>
      </trkpt>
      <trkpt lat="42.39397586323320865631103515625" lon="-5.14911551959812641143798828125">
        <ele>855.20001220703125</ele>
        <time>2019-07-08T11:56:31.000Z</time>
      </trkpt>
      <trkpt lat="42.3941925354301929473876953125" lon="-5.14988162554800510406494140625">
        <ele>856</ele>
        <time>2019-07-08T11:56:33.000Z</time>
      </trkpt>
      <trkpt lat="42.3944258876144886016845703125" lon="-5.15063817612826824188232421875">
        <ele>854.5999755859375</ele>
        <time>2019-07-08T11:56:35.000Z</time>
      </trkpt>
      <trkpt lat="42.3946790210902690887451171875" lon="-5.15137913636863231658935546875">
        <ele>855.4000244140625</ele>
        <time>2019-07-08T11:56:37.000Z</time>
      </trkpt>
      <trkpt lat="42.394950091838836669921875" lon="-5.1520978845655918121337890625">
        <ele>858.4000244140625</ele>
        <time>2019-07-08T11:56:39.000Z</time>
      </trkpt>
      <trkpt lat="42.395089901983737945556640625" lon="-5.1524502597749233245849609375">
        <ele>859.79998779296875</ele>
        <time>2019-07-08T11:56:40.000Z</time>
      </trkpt>
      <trkpt lat="42.39537295885384082794189453125" lon="-5.15315492637455463409423828125">
        <ele>860.79998779296875</ele>
        <time>2019-07-08T11:56:42.000Z</time>
      </trkpt>
      <trkpt lat="42.395658195018768310546875" lon="-5.15386261045932769775390625">
        <ele>860.79998779296875</ele>
        <time>2019-07-08T11:56:44.000Z</time>
      </trkpt>
      <trkpt lat="42.39594376645982265472412109375" lon="-5.154570043087005615234375">
        <ele>861.4000244140625</ele>
        <time>2019-07-08T11:56:46.000Z</time>
      </trkpt>
      <trkpt lat="42.3960868455469608306884765625" lon="-5.1549235917627811431884765625">
        <ele>861.79998779296875</ele>
        <time>2019-07-08T11:56:47.000Z</time>
      </trkpt>
      <trkpt lat="42.3963728360831737518310546875" lon="-5.15562674961984157562255859375">
        <ele>863</ele>
        <time>2019-07-08T11:56:49.000Z</time>
      </trkpt>
      <trkpt lat="42.3966573178768157958984375" lon="-5.15633150003850460052490234375">
        <ele>863.20001220703125</ele>
        <time>2019-07-08T11:56:51.000Z</time>
      </trkpt>
      <trkpt lat="42.3969421349465847015380859375" lon="-5.1570351608097553253173828125">
        <ele>863.4000244140625</ele>
        <time>2019-07-08T11:56:53.000Z</time>
      </trkpt>
      <trkpt lat="42.39708588458597660064697265625" lon="-5.15738761983811855316162109375">
        <ele>864</ele>
        <time>2019-07-08T11:56:54.000Z</time>
      </trkpt>
      <trkpt lat="42.39737388677895069122314453125" lon="-5.15809421427547931671142578125">
        <ele>864.79998779296875</ele>
        <time>2019-07-08T11:56:56.000Z</time>
      </trkpt>
      <trkpt lat="42.3975157923996448516845703125" lon="-5.1584503613412380218505859375">
        <ele>865</ele>
        <time>2019-07-08T11:56:57.000Z</time>
      </trkpt>
      <trkpt lat="42.397802956402301788330078125" lon="-5.15916240401566028594970703125">
        <ele>864.20001220703125</ele>
        <time>2019-07-08T11:56:59.000Z</time>
      </trkpt>
      <trkpt lat="42.3979482986032962799072265625" lon="-5.15951779671013355255126953125">
        <ele>862.79998779296875</ele>
        <time>2019-07-08T11:57:00.000Z</time>
      </trkpt>
      <trkpt lat="42.398093640804290771484375" lon="-5.15987344086170196533203125">
        <ele>861</ele>
        <time>2019-07-08T11:57:01.000Z</time>
      </trkpt>
      <trkpt lat="42.3982398211956024169921875" lon="-5.16022824682295322418212890625">
        <ele>858.5999755859375</ele>
        <time>2019-07-08T11:57:02.000Z</time>
      </trkpt>
      <trkpt lat="42.398386336863040924072265625" lon="-5.16058363951742649078369140625">
        <ele>856.4000244140625</ele>
        <time>2019-07-08T11:57:03.000Z</time>
      </trkpt>
      <trkpt lat="42.39853193052113056182861328125" lon="-5.16094020567834377288818359375">
        <ele>855.4000244140625</ele>
        <time>2019-07-08T11:57:04.000Z</time>
      </trkpt>
      <trkpt lat="42.39882110618054866790771484375" lon="-5.16165585257112979888916015625">
        <ele>855.79998779296875</ele>
        <time>2019-07-08T11:57:06.000Z</time>
      </trkpt>
      <trkpt lat="42.399109192192554473876953125" lon="-5.16237233765423297882080078125">
        <ele>856.4000244140625</ele>
        <time>2019-07-08T11:57:08.000Z</time>
      </trkpt>
      <trkpt lat="42.3993997089564800262451171875" lon="-5.16309284605085849761962890625">
        <ele>857.5999755859375</ele>
        <time>2019-07-08T11:57:10.000Z</time>
      </trkpt>
      <trkpt lat="42.3996935784816741943359375" lon="-5.16382592730224132537841796875">
        <ele>858.20001220703125</ele>
        <time>2019-07-08T11:57:12.000Z</time>
      </trkpt>
      <trkpt lat="42.39984202198684215545654296875" lon="-5.1641976647078990936279296875">
        <ele>859.20001220703125</ele>
        <time>2019-07-08T11:57:13.000Z</time>
      </trkpt>
      <trkpt lat="42.4001366458833217620849609375" lon="-5.16495279036462306976318359375">
        <ele>862</ele>
        <time>2019-07-08T11:57:15.000Z</time>
      </trkpt>
      <trkpt lat="42.40028559230268001556396484375" lon="-5.16533550806343555450439453125">
        <ele>864.20001220703125</ele>
        <time>2019-07-08T11:57:16.000Z</time>
      </trkpt>
      <trkpt lat="42.4004373885691165924072265625" lon="-5.16572174616158008575439453125">
        <ele>865.20001220703125</ele>
        <time>2019-07-08T11:57:17.000Z</time>
      </trkpt>
      <trkpt lat="42.4007441662251949310302734375" lon="-5.1665026880800724029541015625">
        <ele>866.4000244140625</ele>
        <time>2019-07-08T11:57:19.000Z</time>
      </trkpt>
      <trkpt lat="42.40105438046157360076904296875" lon="-5.16727843321859836578369140625">
        <ele>868</ele>
        <time>2019-07-08T11:57:21.000Z</time>
      </trkpt>
      <trkpt lat="42.4013714678585529327392578125" lon="-5.1680360734462738037109375">
        <ele>868</ele>
        <time>2019-07-08T11:57:23.000Z</time>
      </trkpt>
      <trkpt lat="42.40169660188257694244384765625" lon="-5.16876638866961002349853515625">
        <ele>867.20001220703125</ele>
        <time>2019-07-08T11:57:25.000Z</time>
      </trkpt>
      <trkpt lat="42.401859797537326812744140625" lon="-5.1691262237727642059326171875">
        <ele>866.79998779296875</ele>
        <time>2019-07-08T11:57:26.000Z</time>
      </trkpt>
      <trkpt lat="42.402178309857845306396484375" lon="-5.16984446905553340911865234375">
        <ele>867</ele>
        <time>2019-07-08T11:57:28.000Z</time>
      </trkpt>
      <trkpt lat="42.4024899490177631378173828125" lon="-5.17056246288120746612548828125">
        <ele>868</ele>
        <time>2019-07-08T11:57:30.000Z</time>
      </trkpt>
      <trkpt lat="42.40279496647417545318603515625" lon="-5.17127408646047115325927734375">
        <ele>869.20001220703125</ele>
        <time>2019-07-08T11:57:32.000Z</time>
      </trkpt>
      <trkpt lat="42.4030917696654796600341796875" lon="-5.1719871349632740020751953125">
        <ele>870.4000244140625</ele>
        <time>2019-07-08T11:57:34.000Z</time>
      </trkpt>
      <trkpt lat="42.40338052622973918914794921875" lon="-5.1727059669792652130126953125">
        <ele>870.4000244140625</ele>
        <time>2019-07-08T11:57:36.000Z</time>
      </trkpt>
      <trkpt lat="42.40366819314658641815185546875" lon="-5.1734244637191295623779296875">
        <ele>870.5999755859375</ele>
        <time>2019-07-08T11:57:38.000Z</time>
      </trkpt>
      <trkpt lat="42.4039529263973236083984375" lon="-5.174146480858325958251953125">
        <ele>870.4000244140625</ele>
        <time>2019-07-08T11:57:40.000Z</time>
      </trkpt>
      <trkpt lat="42.40423464216291904449462890625" lon="-5.17487310804426670074462890625">
        <ele>870.4000244140625</ele>
        <time>2019-07-08T11:57:42.000Z</time>
      </trkpt>
      <trkpt lat="42.404511161148548126220703125" lon="-5.1756071113049983978271484375">
        <ele>870.5999755859375</ele>
        <time>2019-07-08T11:57:44.000Z</time>
      </trkpt>
      <trkpt lat="42.40478952415287494659423828125" lon="-5.1763500832021236419677734375">
        <ele>871.4000244140625</ele>
        <time>2019-07-08T11:57:46.000Z</time>
      </trkpt>
      <trkpt lat="42.40507149137556552886962890625" lon="-5.17709230072796344757080078125">
        <ele>872.20001220703125</ele>
        <time>2019-07-08T11:57:48.000Z</time>
      </trkpt>
      <trkpt lat="42.405213899910449981689453125" lon="-5.17746177501976490020751953125">
        <ele>872.79998779296875</ele>
        <time>2019-07-08T11:57:49.000Z</time>
      </trkpt>
      <trkpt lat="42.4055037461221218109130859375" lon="-5.178197287023067474365234375">
        <ele>873.20001220703125</ele>
        <time>2019-07-08T11:57:51.000Z</time>
      </trkpt>
      <trkpt lat="42.4057957716286182403564453125" lon="-5.1789270155131816864013671875">
        <ele>873.4000244140625</ele>
        <time>2019-07-08T11:57:53.000Z</time>
      </trkpt>
      <trkpt lat="42.406086958944797515869140625" lon="-5.1796512119472026824951171875">
        <ele>873.5999755859375</ele>
        <time>2019-07-08T11:57:55.000Z</time>
      </trkpt>
      <trkpt lat="42.40637655369937419891357421875" lon="-5.1803715527057647705078125">
        <ele>873.79998779296875</ele>
        <time>2019-07-08T11:57:57.000Z</time>
      </trkpt>
      <trkpt lat="42.4065203033387660980224609375" lon="-5.1807308010756969451904296875">
        <ele>872.4000244140625</ele>
        <time>2019-07-08T11:57:58.000Z</time>
      </trkpt>
      <trkpt lat="42.406807132065296173095703125" lon="-5.18144267611205577850341796875">
        <ele>871.20001220703125</ele>
        <time>2019-07-08T11:58:00.000Z</time>
      </trkpt>
      <trkpt lat="42.407094798982143402099609375" lon="-5.18214809708297252655029296875">
        <ele>871.4000244140625</ele>
        <time>2019-07-08T11:58:02.000Z</time>
      </trkpt>
      <trkpt lat="42.40723771043121814727783203125" lon="-5.1825003884732723236083984375">
        <ele>872.20001220703125</ele>
        <time>2019-07-08T11:58:03.000Z</time>
      </trkpt>
      <trkpt lat="42.4075211025774478912353515625" lon="-5.183206982910633087158203125">
        <ele>874.79998779296875</ele>
        <time>2019-07-08T11:58:05.000Z</time>
      </trkpt>
      <trkpt lat="42.40766217000782489776611328125" lon="-5.18356296233832836151123046875">
        <ele>876.5999755859375</ele>
        <time>2019-07-08T11:58:06.000Z</time>
      </trkpt>
      <trkpt lat="42.4078044109046459197998046875" lon="-5.1839209534227848052978515625">
        <ele>878</ele>
        <time>2019-07-08T11:58:07.000Z</time>
      </trkpt>
      <trkpt lat="42.40794832818210124969482421875" lon="-5.184280872344970703125">
        <ele>879.20001220703125</ele>
        <time>2019-07-08T11:58:08.000Z</time>
      </trkpt>
      <trkpt lat="42.4082399345934391021728515625" lon="-5.18500682897865772247314453125">
        <ele>879.5999755859375</ele>
        <time>2019-07-08T11:58:10.000Z</time>
      </trkpt>
      <trkpt lat="42.408535480499267578125" lon="-5.18574091605842113494873046875">
        <ele>879.4000244140625</ele>
        <time>2019-07-08T11:58:12.000Z</time>
      </trkpt>
      <trkpt lat="42.4088337086141109466552734375" lon="-5.1864838041365146636962890625">
        <ele>878.79998779296875</ele>
        <time>2019-07-08T11:58:14.000Z</time>
      </trkpt>
      <trkpt lat="42.4091374687850475311279296875" lon="-5.1872334815561771392822265625">
        <ele>878.5999755859375</ele>
        <time>2019-07-08T11:58:16.000Z</time>
      </trkpt>
      <trkpt lat="42.40929161198437213897705078125" lon="-5.18761041574180126190185546875">
        <ele>878.20001220703125</ele>
        <time>2019-07-08T11:58:17.000Z</time>
      </trkpt>
      <trkpt lat="42.4096014909446239471435546875" lon="-5.18836998380720615386962890625">
        <ele>878</ele>
        <time>2019-07-08T11:58:19.000Z</time>
      </trkpt>
      <trkpt lat="42.40991002880036830902099609375" lon="-5.18913608975708484649658203125">
        <ele>879.4000244140625</ele>
        <time>2019-07-08T11:58:21.000Z</time>
      </trkpt>
      <trkpt lat="42.4100641719996929168701171875" lon="-5.1895200647413730621337890625">
        <ele>880.4000244140625</ele>
        <time>2019-07-08T11:58:22.000Z</time>
      </trkpt>
      <trkpt lat="42.41037220694124698638916015625" lon="-5.1902903616428375244140625">
        <ele>881</ele>
        <time>2019-07-08T11:58:24.000Z</time>
      </trkpt>
      <trkpt lat="42.41052794270217418670654296875" lon="-5.1906740851700305938720703125">
        <ele>882</ele>
        <time>2019-07-08T11:58:25.000Z</time>
      </trkpt>
      <trkpt lat="42.41083874367177486419677734375" lon="-5.19143675453960895538330078125">
        <ele>882</ele>
        <time>2019-07-08T11:58:27.000Z</time>
      </trkpt>
      <trkpt lat="42.41114250384271144866943359375" lon="-5.192197747528553009033203125">
        <ele>880.5999755859375</ele>
        <time>2019-07-08T11:58:29.000Z</time>
      </trkpt>
      <trkpt lat="42.41143335588276386260986328125" lon="-5.1929484307765960693359375">
        <ele>878</ele>
        <time>2019-07-08T11:58:31.000Z</time>
      </trkpt>
      <trkpt lat="42.4117167480289936065673828125" lon="-5.19368813373148441314697265625">
        <ele>876.20001220703125</ele>
        <time>2019-07-08T11:58:33.000Z</time>
      </trkpt>
      <trkpt lat="42.411987483501434326171875" lon="-5.1944325305521488189697265625">
        <ele>876</ele>
        <time>2019-07-08T11:58:35.000Z</time>
      </trkpt>
      <trkpt lat="42.41224438883364200592041015625" lon="-5.19519419409334659576416015625">
        <ele>876.79998779296875</ele>
        <time>2019-07-08T11:58:37.000Z</time>
      </trkpt>
      <trkpt lat="42.41236994974315166473388671875" lon="-5.1955828629434108734130859375">
        <ele>878.4000244140625</ele>
        <time>2019-07-08T11:58:38.000Z</time>
      </trkpt>
      <trkpt lat="42.4126112647354602813720703125" lon="-5.19637872464954853057861328125">
        <ele>880</ele>
        <time>2019-07-08T11:58:40.000Z</time>
      </trkpt>
      <trkpt lat="42.41283749230206012725830078125" lon="-5.19719679839909076690673828125">
        <ele>878.5999755859375</ele>
        <time>2019-07-08T11:58:42.000Z</time>
      </trkpt>
      <trkpt lat="42.4130536615848541259765625" lon="-5.19802694208920001983642578125">
        <ele>877.5999755859375</ele>
        <time>2019-07-08T11:58:44.000Z</time>
      </trkpt>
      <trkpt lat="42.41325373761355876922607421875" lon="-5.19886739552021026611328125">
        <ele>876.4000244140625</ele>
        <time>2019-07-08T11:58:46.000Z</time>
      </trkpt>
      <trkpt lat="42.4134249798953533172607421875" lon="-5.1997156441211700439453125">
        <ele>877.20001220703125</ele>
        <time>2019-07-08T11:58:48.000Z</time>
      </trkpt>
      <trkpt lat="42.41350318305194377899169921875" lon="-5.20014169625937938690185546875">
        <ele>878.20001220703125</ele>
        <time>2019-07-08T11:58:49.000Z</time>
      </trkpt>
      <trkpt lat="42.41364902816712856292724609375" lon="-5.200996063649654388427734375">
        <ele>879</ele>
        <time>2019-07-08T11:58:51.000Z</time>
      </trkpt>
      <trkpt lat="42.41371641866862773895263671875" lon="-5.20142513327300548553466796875">
        <ele>879.5999755859375</ele>
        <time>2019-07-08T11:58:52.000Z</time>
      </trkpt>
      <trkpt lat="42.41384080611169338226318359375" lon="-5.20229014568030834197998046875">
        <ele>879.20001220703125</ele>
        <time>2019-07-08T11:58:54.000Z</time>
      </trkpt>
      <trkpt lat="42.41394482553005218505859375" lon="-5.20316622219979763031005859375">
        <ele>877.79998779296875</ele>
        <time>2019-07-08T11:58:56.000Z</time>
      </trkpt>
      <trkpt lat="42.413988746702671051025390625" lon="-5.2036080323159694671630859375">
        <ele>876.79998779296875</ele>
        <time>2019-07-08T11:58:57.000Z</time>
      </trkpt>
      <trkpt lat="42.41406686604022979736328125" lon="-5.20448972471058368682861328125">
        <ele>874.79998779296875</ele>
        <time>2019-07-08T11:58:59.000Z</time>
      </trkpt>
      <trkpt lat="42.4141012318432331085205078125" lon="-5.20492742769420146942138671875">
        <ele>870.5999755859375</ele>
        <time>2019-07-08T11:59:00.000Z</time>
      </trkpt>
      <trkpt lat="42.4141324125230312347412109375" lon="-5.2053625322878360748291015625">
        <ele>866</ele>
        <time>2019-07-08T11:59:01.000Z</time>
      </trkpt>
      <trkpt lat="42.41416082717478275299072265625" lon="-5.205794535577297210693359375">
        <ele>862.5999755859375</ele>
        <time>2019-07-08T11:59:02.000Z</time>
      </trkpt>
      <trkpt lat="42.414187900722026824951171875" lon="-5.206223689019680023193359375">
        <ele>861</ele>
        <time>2019-07-08T11:59:03.000Z</time>
      </trkpt>
      <trkpt lat="42.414240203797817230224609375" lon="-5.207071937620639801025390625">
        <ele>860</ele>
        <time>2019-07-08T11:59:05.000Z</time>
      </trkpt>
      <trkpt lat="42.41429476998746395111083984375" lon="-5.20791272632777690887451171875">
        <ele>860.4000244140625</ele>
        <time>2019-07-08T11:59:07.000Z</time>
      </trkpt>
      <trkpt lat="42.4143483303487300872802734375" lon="-5.2087531797587871551513671875">
        <ele>861.79998779296875</ele>
        <time>2019-07-08T11:59:09.000Z</time>
      </trkpt>
      <trkpt lat="42.41437523625791072845458984375" lon="-5.20917470566928386688232421875">
        <ele>862.4000244140625</ele>
        <time>2019-07-08T11:59:10.000Z</time>
      </trkpt>
      <trkpt lat="42.41443307138979434967041015625" lon="-5.21002312190830707550048828125">
        <ele>863.79998779296875</ele>
        <time>2019-07-08T11:59:12.000Z</time>
      </trkpt>
      <trkpt lat="42.4144940078258514404296875" lon="-5.21087857894599437713623046875">
        <ele>864.4000244140625</ele>
        <time>2019-07-08T11:59:14.000Z</time>
      </trkpt>
      <trkpt lat="42.4145240150392055511474609375" lon="-5.21130605600774288177490234375">
        <ele>864.79998779296875</ele>
        <time>2019-07-08T11:59:15.000Z</time>
      </trkpt>
      <trkpt lat="42.41458729840815067291259765625" lon="-5.2121555618941783905029296875">
        <ele>864.79998779296875</ele>
        <time>2019-07-08T11:59:17.000Z</time>
      </trkpt>
      <trkpt lat="42.414623759686946868896484375" lon="-5.2125790156424045562744140625">
        <ele>865.79998779296875</ele>
        <time>2019-07-08T11:59:18.000Z</time>
      </trkpt>
      <trkpt lat="42.4147033877670764923095703125" lon="-5.21343070082366466522216796875">
        <ele>868.79998779296875</ele>
        <time>2019-07-08T11:59:20.000Z</time>
      </trkpt>
      <trkpt lat="42.41474588401615619659423828125" lon="-5.21386002190411090850830078125">
        <ele>871.4000244140625</ele>
        <time>2019-07-08T11:59:21.000Z</time>
      </trkpt>
      <trkpt lat="42.414830960333347320556640625" lon="-5.21472654305398464202880859375">
        <ele>872</ele>
        <time>2019-07-08T11:59:23.000Z</time>
      </trkpt>
      <trkpt lat="42.414918802678585052490234375" lon="-5.21559541113674640655517578125">
        <ele>870</ele>
        <time>2019-07-08T11:59:25.000Z</time>
      </trkpt>
      <trkpt lat="42.41501913405954837799072265625" lon="-5.2164635248482227325439453125">
        <ele>869.79998779296875</ele>
        <time>2019-07-08T11:59:27.000Z</time>
      </trkpt>
      <trkpt lat="42.41512474603950977325439453125" lon="-5.21732367575168609619140625">
        <ele>869.4000244140625</ele>
        <time>2019-07-08T11:59:29.000Z</time>
      </trkpt>
      <trkpt lat="42.4152384884655475616455078125" lon="-5.21817485801875591278076171875">
        <ele>870.5999755859375</ele>
        <time>2019-07-08T11:59:31.000Z</time>
      </trkpt>
      <trkpt lat="42.415356002748012542724609375" lon="-5.21900944411754608154296875">
        <ele>870.5999755859375</ele>
        <time>2019-07-08T11:59:33.000Z</time>
      </trkpt>
      <trkpt lat="42.4154798872768878936767578125" lon="-5.21982609294354915618896484375">
        <ele>871.20001220703125</ele>
        <time>2019-07-08T11:59:35.000Z</time>
      </trkpt>
      <trkpt lat="42.4156113155186176300048828125" lon="-5.2206273190677165985107421875">
        <ele>872.79998779296875</ele>
        <time>2019-07-08T11:59:37.000Z</time>
      </trkpt>
      <trkpt lat="42.41567845456302165985107421875" lon="-5.2210257947444915771484375">
        <ele>874</ele>
        <time>2019-07-08T11:59:38.000Z</time>
      </trkpt>
      <trkpt lat="42.41574651561677455902099609375" lon="-5.22142536006867885589599609375">
        <ele>875.5999755859375</ele>
        <time>2019-07-08T11:59:39.000Z</time>
      </trkpt>
      <trkpt lat="42.41588649339973926544189453125" lon="-5.22222834639251232147216796875">
        <ele>877.4000244140625</ele>
        <time>2019-07-08T11:59:41.000Z</time>
      </trkpt>
      <trkpt lat="42.4160294048488140106201171875" lon="-5.22302730940282344818115234375">
        <ele>878.20001220703125</ele>
        <time>2019-07-08T11:59:43.000Z</time>
      </trkpt>
      <trkpt lat="42.41610257886350154876708984375" lon="-5.223422683775424957275390625">
        <ele>878.4000244140625</ele>
        <time>2019-07-08T11:59:44.000Z</time>
      </trkpt>
      <trkpt lat="42.416178770363330841064453125" lon="-5.22381638176739215850830078125">
        <ele>879.79998779296875</ele>
        <time>2019-07-08T11:59:45.000Z</time>
      </trkpt>
      <trkpt lat="42.41634045727550983428955078125" lon="-5.2246053703129291534423828125">
        <ele>879.79998779296875</ele>
        <time>2019-07-08T11:59:47.000Z</time>
      </trkpt>
      <trkpt lat="42.41651144810020923614501953125" lon="-5.22539972327649593353271484375">
        <ele>880</ele>
        <time>2019-07-08T11:59:49.000Z</time>
      </trkpt>
      <trkpt lat="42.41669182665646076202392578125" lon="-5.2261986024677753448486328125">
        <ele>879.20001220703125</ele>
        <time>2019-07-08T11:59:51.000Z</time>
      </trkpt>
      <trkpt lat="42.41678469814360141754150390625" lon="-5.22659732960164546966552734375">
        <ele>877.4000244140625</ele>
        <time>2019-07-08T11:59:52.000Z</time>
      </trkpt>
      <trkpt lat="42.416877485811710357666015625" lon="-5.226996056735515594482421875">
        <ele>874.79998779296875</ele>
        <time>2019-07-08T11:59:53.000Z</time>
      </trkpt>
      <trkpt lat="42.4169701896607875823974609375" lon="-5.227393023669719696044921875">
        <ele>873.4000244140625</ele>
        <time>2019-07-08T11:59:54.000Z</time>
      </trkpt>
      <trkpt lat="42.41706381551921367645263671875" lon="-5.2277878113090991973876953125">
        <ele>871.4000244140625</ele>
        <time>2019-07-08T11:59:55.000Z</time>
      </trkpt>
      <trkpt lat="42.41715886630117893218994140625" lon="-5.22817916236817836761474609375">
        <ele>870.20001220703125</ele>
        <time>2019-07-08T11:59:56.000Z</time>
      </trkpt>
      <trkpt lat="42.41735525429248809814453125" lon="-5.2289525605738162994384765625">
        <ele>869</ele>
        <time>2019-07-08T11:59:58.000Z</time>
      </trkpt>
      <trkpt lat="42.4175572581589221954345703125" lon="-5.229723192751407623291015625">
        <ele>869</ele>
        <time>2019-07-08T12:00:00.000Z</time>
      </trkpt>
      <trkpt lat="42.417767308652400970458984375" lon="-5.230490304529666900634765625">
        <ele>869.79998779296875</ele>
        <time>2019-07-08T12:00:02.000Z</time>
      </trkpt>
      <trkpt lat="42.417980544269084930419921875" lon="-5.23126085288822650909423828125">
        <ele>870.20001220703125</ele>
        <time>2019-07-08T12:00:04.000Z</time>
      </trkpt>
      <trkpt lat="42.41819973103702068328857421875" lon="-5.2320344187319278717041015625">
        <ele>870.20001220703125</ele>
        <time>2019-07-08T12:00:06.000Z</time>
      </trkpt>
      <trkpt lat="42.41830919869244098663330078125" lon="-5.23242945782840251922607421875">
        <ele>871.79998779296875</ele>
        <time>2019-07-08T12:00:07.000Z</time>
      </trkpt>
      <trkpt lat="42.4185345880687236785888671875" lon="-5.23322339169681072235107421875">
        <ele>871.4000244140625</ele>
        <time>2019-07-08T12:00:09.000Z</time>
      </trkpt>
      <trkpt lat="42.4186505936086177825927734375" lon="-5.23362077772617340087890625">
        <ele>870.79998779296875</ele>
        <time>2019-07-08T12:00:10.000Z</time>
      </trkpt>
      <trkpt lat="42.41876743733882904052734375" lon="-5.2340195886790752410888671875">
        <ele>867.20001220703125</ele>
        <time>2019-07-08T12:00:11.000Z</time>
      </trkpt>
      <trkpt lat="42.418885119259357452392578125" lon="-5.234419740736484527587890625">
        <ele>863.5999755859375</ele>
        <time>2019-07-08T12:00:12.000Z</time>
      </trkpt>
      <trkpt lat="42.41900187917053699493408203125" lon="-5.23482316173613071441650390625">
        <ele>859.5999755859375</ele>
        <time>2019-07-08T12:00:13.000Z</time>
      </trkpt>
      <trkpt lat="42.41912174038589000701904296875" lon="-5.23522331379354000091552734375">
        <ele>857.5999755859375</ele>
        <time>2019-07-08T12:00:14.000Z</time>
      </trkpt>
      <trkpt lat="42.41935492493212223052978515625" lon="-5.23603132925927639007568359375">
        <ele>856.4000244140625</ele>
        <time>2019-07-08T12:00:16.000Z</time>
      </trkpt>
      <trkpt lat="42.4195856787264347076416015625" lon="-5.23683540523052215576171875">
        <ele>857.5999755859375</ele>
        <time>2019-07-08T12:00:18.000Z</time>
      </trkpt>
      <trkpt lat="42.41981660015881061553955078125" lon="-5.23762690834701061248779296875">
        <ele>858</ele>
        <time>2019-07-08T12:00:20.000Z</time>
      </trkpt>
      <trkpt lat="42.42003955878317356109619140625" lon="-5.2384083531796932220458984375">
        <ele>858.4000244140625</ele>
        <time>2019-07-08T12:00:22.000Z</time>
      </trkpt>
      <trkpt lat="42.42024541832506656646728515625" lon="-5.2391902171075344085693359375">
        <ele>858.5999755859375</ele>
        <time>2019-07-08T12:00:24.000Z</time>
      </trkpt>
      <trkpt lat="42.42034499533474445343017578125" lon="-5.2395808137953281402587890625">
        <ele>859.79998779296875</ele>
        <time>2019-07-08T12:00:25.000Z</time>
      </trkpt>
      <trkpt lat="42.420440800487995147705078125" lon="-5.239973925054073333740234375">
        <ele>861.5999755859375</ele>
        <time>2019-07-08T12:00:26.000Z</time>
      </trkpt>
      <trkpt lat="42.42061321623623371124267578125" lon="-5.2407780848443508148193359375">
        <ele>863.5999755859375</ele>
        <time>2019-07-08T12:00:28.000Z</time>
      </trkpt>
      <trkpt lat="42.42068882100284099578857421875" lon="-5.2411906421184539794921875">
        <ele>865</ele>
        <time>2019-07-08T12:00:29.000Z</time>
      </trkpt>
      <trkpt lat="42.4208325706422328948974609375" lon="-5.2420306764543056488037109375">
        <ele>866.5999755859375</ele>
        <time>2019-07-08T12:00:31.000Z</time>
      </trkpt>
      <trkpt lat="42.42097489535808563232421875" lon="-5.242875404655933380126953125">
        <ele>866</ele>
        <time>2019-07-08T12:00:33.000Z</time>
      </trkpt>
      <trkpt lat="42.421099282801151275634765625" lon="-5.243722312152385711669921875">
        <ele>864.20001220703125</ele>
        <time>2019-07-08T12:00:35.000Z</time>
      </trkpt>
      <trkpt lat="42.4211530946195125579833984375" lon="-5.24414584971964359283447265625">
        <ele>862</ele>
        <time>2019-07-08T12:00:36.000Z</time>
      </trkpt>
      <trkpt lat="42.421203553676605224609375" lon="-5.244569219648838043212890625">
        <ele>860.79998779296875</ele>
        <time>2019-07-08T12:00:37.000Z</time>
      </trkpt>
      <trkpt lat="42.42130086757242679595947265625" lon="-5.2454203180968761444091796875">
        <ele>860</ele>
        <time>2019-07-08T12:00:39.000Z</time>
      </trkpt>
      <trkpt lat="42.4213445372879505157470703125" lon="-5.24584838189184665679931640625">
        <ele>859.20001220703125</ele>
        <time>2019-07-08T12:00:40.000Z</time>
      </trkpt>
      <trkpt lat="42.42140916176140308380126953125" lon="-5.2467101253569126129150390625">
        <ele>858</ele>
        <time>2019-07-08T12:00:42.000Z</time>
      </trkpt>
      <trkpt lat="42.421452999114990234375" lon="-5.24758209474384784698486328125">
        <ele>857.4000244140625</ele>
        <time>2019-07-08T12:00:44.000Z</time>
      </trkpt>
      <trkpt lat="42.42146842181682586669921875" lon="-5.2480203844606876373291015625">
        <ele>856</ele>
        <time>2019-07-08T12:00:45.000Z</time>
      </trkpt>
      <trkpt lat="42.42147889919579029083251953125" lon="-5.2484579198062419891357421875">
        <ele>854.79998779296875</ele>
        <time>2019-07-08T12:00:46.000Z</time>
      </trkpt>
      <trkpt lat="42.42148124612867832183837890625" lon="-5.24932620115578174591064453125">
        <ele>854.5999755859375</ele>
        <time>2019-07-08T12:00:48.000Z</time>
      </trkpt>
      <trkpt lat="42.42146431468427181243896484375" lon="-5.250185765326023101806640625">
        <ele>853.20001220703125</ele>
        <time>2019-07-08T12:00:50.000Z</time>
      </trkpt>
      <trkpt lat="42.42142927832901477813720703125" lon="-5.25103443302214145660400390625">
        <ele>854.20001220703125</ele>
        <time>2019-07-08T12:00:52.000Z</time>
      </trkpt>
      <trkpt lat="42.42138795554637908935546875" lon="-5.251881591975688934326171875">
        <ele>853.5999755859375</ele>
        <time>2019-07-08T12:00:54.000Z</time>
      </trkpt>
      <trkpt lat="42.421339340507984161376953125" lon="-5.2527295053005218505859375">
        <ele>854.20001220703125</ele>
        <time>2019-07-08T12:00:56.000Z</time>
      </trkpt>
      <trkpt lat="42.421285696327686309814453125" lon="-5.25357297621667385101318359375">
        <ele>854.20001220703125</ele>
        <time>2019-07-08T12:00:58.000Z</time>
      </trkpt>
      <trkpt lat="42.42123397998511791229248046875" lon="-5.2544020302593708038330078125">
        <ele>853.79998779296875</ele>
        <time>2019-07-08T12:01:00.000Z</time>
      </trkpt>
      <trkpt lat="42.421187460422515869140625" lon="-5.25521717034280300140380859375">
        <ele>854.20001220703125</ele>
        <time>2019-07-08T12:01:02.000Z</time>
      </trkpt>
      <trkpt lat="42.42116508074104785919189453125" lon="-5.2556231059134006500244140625">
        <ele>856</ele>
        <time>2019-07-08T12:01:03.000Z</time>
      </trkpt>
      <trkpt lat="42.4211418628692626953125" lon="-5.25603004731237888336181640625">
        <ele>858.5999755859375</ele>
        <time>2019-07-08T12:01:04.000Z</time>
      </trkpt>
      <trkpt lat="42.42111763916909694671630859375" lon="-5.25643774308264255523681640625">
        <ele>861.4000244140625</ele>
        <time>2019-07-08T12:01:05.000Z</time>
      </trkpt>
      <trkpt lat="42.42109299637377262115478515625" lon="-5.2568445168435573577880859375">
        <ele>862.5999755859375</ele>
        <time>2019-07-08T12:01:06.000Z</time>
      </trkpt>
      <trkpt lat="42.42104169912636280059814453125" lon="-5.25765546597540378570556640625">
        <ele>865</ele>
        <time>2019-07-08T12:01:08.000Z</time>
      </trkpt>
      <trkpt lat="42.4209935031831264495849609375" lon="-5.2584622241556644439697265625">
        <ele>865</ele>
        <time>2019-07-08T12:01:10.000Z</time>
      </trkpt>
      <trkpt lat="42.42094539105892181396484375" lon="-5.25926831178367137908935546875">
        <ele>862.79998779296875</ele>
        <time>2019-07-08T12:01:12.000Z</time>
      </trkpt>
      <trkpt lat="42.42089350707828998565673828125" lon="-5.26008571498095989227294921875">
        <ele>861.79998779296875</ele>
        <time>2019-07-08T12:01:14.000Z</time>
      </trkpt>
      <trkpt lat="42.4208660982549190521240234375" lon="-5.26049944572150707244873046875">
        <ele>861.5999755859375</ele>
        <time>2019-07-08T12:01:15.000Z</time>
      </trkpt>
      <trkpt lat="42.42081337608397006988525390625" lon="-5.26133378036320209503173828125">
        <ele>861.5999755859375</ele>
        <time>2019-07-08T12:01:17.000Z</time>
      </trkpt>
      <trkpt lat="42.42076509632170200347900390625" lon="-5.26217901147902011871337890625">
        <ele>861.4000244140625</ele>
        <time>2019-07-08T12:01:19.000Z</time>
      </trkpt>
      <trkpt lat="42.42071530781686305999755859375" lon="-5.263033546507358551025390625">
        <ele>861</ele>
        <time>2019-07-08T12:01:21.000Z</time>
      </trkpt>
      <trkpt lat="42.42068924009799957275390625" lon="-5.2634635381400585174560546875">
        <ele>859.79998779296875</ele>
        <time>2019-07-08T12:01:22.000Z</time>
      </trkpt>
      <trkpt lat="42.4206374399363994598388671875" lon="-5.26432729326188564300537109375">
        <ele>858.20001220703125</ele>
        <time>2019-07-08T12:01:24.000Z</time>
      </trkpt>
      <trkpt lat="42.42061036638915538787841796875" lon="-5.26476013474166393280029296875">
        <ele>856.79998779296875</ele>
        <time>2019-07-08T12:01:25.000Z</time>
      </trkpt>
      <trkpt lat="42.4205824546515941619873046875" lon="-5.26519465260207653045654296875">
        <ele>855</ele>
        <time>2019-07-08T12:01:26.000Z</time>
      </trkpt>
      <trkpt lat="42.42055521346628665924072265625" lon="-5.26562967337667942047119140625">
        <ele>853.20001220703125</ele>
        <time>2019-07-08T12:01:27.000Z</time>
      </trkpt>
      <trkpt lat="42.42052964866161346435546875" lon="-5.26606368832290172576904296875">
        <ele>851.4000244140625</ele>
        <time>2019-07-08T12:01:28.000Z</time>
      </trkpt>
      <trkpt lat="42.42047809995710849761962890625" lon="-5.26692601852118968963623046875">
        <ele>849.79998779296875</ele>
        <time>2019-07-08T12:01:30.000Z</time>
      </trkpt>
      <trkpt lat="42.42042831145226955413818359375" lon="-5.2677758596837520599365234375">
        <ele>850</ele>
        <time>2019-07-08T12:01:32.000Z</time>
      </trkpt>
      <trkpt lat="42.42040500976145267486572265625" lon="-5.26819621212780475616455078125">
        <ele>851</ele>
        <time>2019-07-08T12:01:33.000Z</time>
      </trkpt>
      <trkpt lat="42.42038137279450893402099609375" lon="-5.2686143852770328521728515625">
        <ele>852.4000244140625</ele>
        <time>2019-07-08T12:01:34.000Z</time>
      </trkpt>
      <trkpt lat="42.420333512127399444580078125" lon="-5.26944444514811038970947265625">
        <ele>852</ele>
        <time>2019-07-08T12:01:36.000Z</time>
      </trkpt>
      <trkpt lat="42.420285902917385101318359375" lon="-5.2702719904482364654541015625">
        <ele>851.4000244140625</ele>
        <time>2019-07-08T12:01:38.000Z</time>
      </trkpt>
      <trkpt lat="42.4202632717788219451904296875" lon="-5.2706867270171642303466796875">
        <ele>850</ele>
        <time>2019-07-08T12:01:39.000Z</time>
      </trkpt>
      <trkpt lat="42.4202190153300762176513671875" lon="-5.2715192176401615142822265625">
        <ele>849</ele>
        <time>2019-07-08T12:01:41.000Z</time>
      </trkpt>
      <trkpt lat="42.4201851524412631988525390625" lon="-5.27236067689955234527587890625">
        <ele>849.5999755859375</ele>
        <time>2019-07-08T12:01:43.000Z</time>
      </trkpt>
      <trkpt lat="42.420173250138759613037109375" lon="-5.2727835439145565032958984375">
        <ele>848.5999755859375</ele>
        <time>2019-07-08T12:01:44.000Z</time>
      </trkpt>
      <trkpt lat="42.4201590009033679962158203125" lon="-5.27363271452486515045166015625">
        <ele>848.20001220703125</ele>
        <time>2019-07-08T12:01:46.000Z</time>
      </trkpt>
      <trkpt lat="42.42016361095011234283447265625" lon="-5.27448817156255245208740234375">
        <ele>847</ele>
        <time>2019-07-08T12:01:48.000Z</time>
      </trkpt>
      <trkpt lat="42.4201744236052036285400390625" lon="-5.27491900138556957244873046875">
        <ele>844.79998779296875</ele>
        <time>2019-07-08T12:01:49.000Z</time>
      </trkpt>
      <trkpt lat="42.42018976248800754547119140625" lon="-5.27534999884665012359619140625">
        <ele>843.5999755859375</ele>
        <time>2019-07-08T12:01:50.000Z</time>
      </trkpt>
      <trkpt lat="42.420212142169475555419921875" lon="-5.2757802419364452362060546875">
        <ele>845</ele>
        <time>2019-07-08T12:01:51.000Z</time>
      </trkpt>
      <trkpt lat="42.4202406406402587890625" lon="-5.27621098794043064117431640625">
        <ele>848.20001220703125</ele>
        <time>2019-07-08T12:01:52.000Z</time>
      </trkpt>
      <trkpt lat="42.42027576081454753875732421875" lon="-5.27664206922054290771484375">
        <ele>850.5999755859375</ele>
        <time>2019-07-08T12:01:53.000Z</time>
      </trkpt>
      <trkpt lat="42.42031699977815151214599609375" lon="-5.27707281522452831268310546875">
        <ele>852.79998779296875</ele>
        <time>2019-07-08T12:01:54.000Z</time>
      </trkpt>
      <trkpt lat="42.420362345874309539794921875" lon="-5.27750330977141857147216796875">
        <ele>854.20001220703125</ele>
        <time>2019-07-08T12:01:55.000Z</time>
      </trkpt>
      <trkpt lat="42.42046971805393695831298828125" lon="-5.2783633768558502197265625">
        <ele>855.20001220703125</ele>
        <time>2019-07-08T12:01:57.000Z</time>
      </trkpt>
      <trkpt lat="42.42053241468966007232666015625" lon="-5.2787916921079158782958984375">
        <ele>855.5999755859375</ele>
        <time>2019-07-08T12:01:58.000Z</time>
      </trkpt>
      <trkpt lat="42.42067155428230762481689453125" lon="-5.2796442992985248565673828125">
        <ele>854</ele>
        <time>2019-07-08T12:02:00.000Z</time>
      </trkpt>
      <trkpt lat="42.420747913420200347900390625" lon="-5.2800694294273853302001953125">
        <ele>852.5999755859375</ele>
        <time>2019-07-08T12:02:01.000Z</time>
      </trkpt>
      <trkpt lat="42.42082913406193256378173828125" lon="-5.28049162589013576507568359375">
        <ele>851.5999755859375</ele>
        <time>2019-07-08T12:02:02.000Z</time>
      </trkpt>
      <trkpt lat="42.4210072495043277740478515625" lon="-5.28131975792348384857177734375">
        <ele>850.5999755859375</ele>
        <time>2019-07-08T12:02:04.000Z</time>
      </trkpt>
      <trkpt lat="42.421213947236537933349609375" lon="-5.28212861157953739166259765625">
        <ele>851</ele>
        <time>2019-07-08T12:02:06.000Z</time>
      </trkpt>
      <trkpt lat="42.421451993286609649658203125" lon="-5.28292958624660968780517578125">
        <ele>851.79998779296875</ele>
        <time>2019-07-08T12:02:08.000Z</time>
      </trkpt>
      <trkpt lat="42.4217143468558788299560546875" lon="-5.2837179042398929595947265625">
        <ele>851.4000244140625</ele>
        <time>2019-07-08T12:02:10.000Z</time>
      </trkpt>
      <trkpt lat="42.4219912849366664886474609375" lon="-5.28448996134102344512939453125">
        <ele>849.4000244140625</ele>
        <time>2019-07-08T12:02:12.000Z</time>
      </trkpt>
      <trkpt lat="42.4221344478428363800048828125" lon="-5.28486899100244045257568359375">
        <ele>847.79998779296875</ele>
        <time>2019-07-08T12:02:13.000Z</time>
      </trkpt>
      <trkpt lat="42.4222816340625286102294921875" lon="-5.285242907702922821044921875">
        <ele>846.20001220703125</ele>
        <time>2019-07-08T12:02:14.000Z</time>
      </trkpt>
      <trkpt lat="42.4224321730434894561767578125" lon="-5.2856107056140899658203125">
        <ele>845</ele>
        <time>2019-07-08T12:02:15.000Z</time>
      </trkpt>
      <trkpt lat="42.4227463267743587493896484375" lon="-5.286329872906208038330078125">
        <ele>844.79998779296875</ele>
        <time>2019-07-08T12:02:17.000Z</time>
      </trkpt>
      <trkpt lat="42.42307296954095363616943359375" lon="-5.28703940100967884063720703125">
        <ele>845.5999755859375</ele>
        <time>2019-07-08T12:02:19.000Z</time>
      </trkpt>
      <trkpt lat="42.42323976941406726837158203125" lon="-5.287393368780612945556640625">
        <ele>846.20001220703125</ele>
        <time>2019-07-08T12:02:20.000Z</time>
      </trkpt>
      <trkpt lat="42.4234105087816715240478515625" lon="-5.28774767182767391204833984375">
        <ele>847.4000244140625</ele>
        <time>2019-07-08T12:02:21.000Z</time>
      </trkpt>
      <trkpt lat="42.42376062087714672088623046875" lon="-5.2884627319872379302978515625">
        <ele>848.20001220703125</ele>
        <time>2019-07-08T12:02:23.000Z</time>
      </trkpt>
      <trkpt lat="42.42411819286644458770751953125" lon="-5.28918935917317867279052734375">
        <ele>847.5999755859375</ele>
        <time>2019-07-08T12:02:25.000Z</time>
      </trkpt>
      <trkpt lat="42.42429681122303009033203125" lon="-5.28955380432307720184326171875">
        <ele>846.20001220703125</ele>
        <time>2019-07-08T12:02:26.000Z</time>
      </trkpt>
      <trkpt lat="42.4246530421078205108642578125" lon="-5.2902802638709545135498046875">
        <ele>844.4000244140625</ele>
        <time>2019-07-08T12:02:28.000Z</time>
      </trkpt>
      <trkpt lat="42.42500801570713520050048828125" lon="-5.29100286774337291717529296875">
        <ele>843</ele>
        <time>2019-07-08T12:02:30.000Z</time>
      </trkpt>
      <trkpt lat="42.42518420331180095672607421875" lon="-5.2913621999323368072509765625">
        <ele>842</ele>
        <time>2019-07-08T12:02:31.000Z</time>
      </trkpt>
      <trkpt lat="42.4255304597318172454833984375" lon="-5.2920756675302982330322265625">
        <ele>842.20001220703125</ele>
        <time>2019-07-08T12:02:33.000Z</time>
      </trkpt>
      <trkpt lat="42.4258737824857234954833984375" lon="-5.29277714900672435760498046875">
        <ele>841.5999755859375</ele>
        <time>2019-07-08T12:02:35.000Z</time>
      </trkpt>
      <trkpt lat="42.426216267049312591552734375" lon="-5.29346899129450321197509765625">
        <ele>842.79998779296875</ele>
        <time>2019-07-08T12:02:37.000Z</time>
      </trkpt>
      <trkpt lat="42.42638533003628253936767578125" lon="-5.29381415806710720062255859375">
        <ele>844.4000244140625</ele>
        <time>2019-07-08T12:02:38.000Z</time>
      </trkpt>
      <trkpt lat="42.42655430920422077178955078125" lon="-5.29415898956358432769775390625">
        <ele>846</ele>
        <time>2019-07-08T12:02:39.000Z</time>
      </trkpt>
      <trkpt lat="42.4268933571875095367431640625" lon="-5.29484890401363372802734375">
        <ele>847.5999755859375</ele>
        <time>2019-07-08T12:02:41.000Z</time>
      </trkpt>
      <trkpt lat="42.42723290808498859405517578125" lon="-5.29554485343396663665771484375">
        <ele>848.79998779296875</ele>
        <time>2019-07-08T12:02:43.000Z</time>
      </trkpt>
      <trkpt lat="42.42757505737245082855224609375" lon="-5.2962444908916950225830078125">
        <ele>850.20001220703125</ele>
        <time>2019-07-08T12:02:45.000Z</time>
      </trkpt>
      <trkpt lat="42.4279211461544036865234375" lon="-5.29694396071135997772216796875">
        <ele>851.4000244140625</ele>
        <time>2019-07-08T12:02:47.000Z</time>
      </trkpt>
      <trkpt lat="42.42826505564153194427490234375" lon="-5.29764971695840358734130859375">
        <ele>848.20001220703125</ele>
        <time>2019-07-08T12:02:49.000Z</time>
      </trkpt>
      <trkpt lat="42.4284366331994533538818359375" lon="-5.29800443910062313079833984375">
        <ele>845</ele>
        <time>2019-07-08T12:02:50.000Z</time>
      </trkpt>
      <trkpt lat="42.4286069534718990325927734375" lon="-5.29836268164217472076416015625">
        <ele>840.5999755859375</ele>
        <time>2019-07-08T12:02:51.000Z</time>
      </trkpt>
      <trkpt lat="42.428777106106281280517578125" lon="-5.29872444458305835723876953125">
        <ele>838.4000244140625</ele>
        <time>2019-07-08T12:02:52.000Z</time>
      </trkpt>
      <trkpt lat="42.42894683964550495147705078125" lon="-5.29908838681876659393310546875">
        <ele>836.5999755859375</ele>
        <time>2019-07-08T12:02:53.000Z</time>
      </trkpt>
      <trkpt lat="42.4292815290391445159912109375" lon="-5.29982649721205234527587890625">
        <ele>836.20001220703125</ele>
        <time>2019-07-08T12:02:55.000Z</time>
      </trkpt>
      <trkpt lat="42.429604232311248779296875" lon="-5.3005816228687763214111328125">
        <ele>836.4000244140625</ele>
        <time>2019-07-08T12:02:57.000Z</time>
      </trkpt>
      <trkpt lat="42.42990799248218536376953125" lon="-5.3013527579605579376220703125">
        <ele>837.20001220703125</ele>
        <time>2019-07-08T12:02:59.000Z</time>
      </trkpt>
      <trkpt lat="42.430051155388355255126953125" lon="-5.30174327082931995391845703125">
        <ele>837.5999755859375</ele>
        <time>2019-07-08T12:03:00.000Z</time>
      </trkpt>
      <trkpt lat="42.43032038211822509765625" lon="-5.30253150500357151031494140625">
        <ele>838</ele>
        <time>2019-07-08T12:03:02.000Z</time>
      </trkpt>
      <trkpt lat="42.4305659718811511993408203125" lon="-5.30332527123391628265380859375">
        <ele>837.20001220703125</ele>
        <time>2019-07-08T12:03:04.000Z</time>
      </trkpt>
      <trkpt lat="42.43068340234458446502685546875" lon="-5.30372299253940582275390625">
        <ele>836.20001220703125</ele>
        <time>2019-07-08T12:03:05.000Z</time>
      </trkpt>
      <trkpt lat="42.43079488165676593780517578125" lon="-5.3041233122348785400390625">
        <ele>834.5999755859375</ele>
        <time>2019-07-08T12:03:06.000Z</time>
      </trkpt>
      <trkpt lat="42.4309991486370563507080078125" lon="-5.30492722056806087493896484375">
        <ele>833.20001220703125</ele>
        <time>2019-07-08T12:03:08.000Z</time>
      </trkpt>
      <trkpt lat="42.4311812035739421844482421875" lon="-5.3057378344237804412841796875">
        <ele>833.4000244140625</ele>
        <time>2019-07-08T12:03:10.000Z</time>
      </trkpt>
      <trkpt lat="42.43133953772485256195068359375" lon="-5.3065612725913524627685546875">
        <ele>834</ele>
        <time>2019-07-08T12:03:12.000Z</time>
      </trkpt>
      <trkpt lat="42.43140860460698604583740234375" lon="-5.30697911046445369720458984375">
        <ele>834.5999755859375</ele>
        <time>2019-07-08T12:03:13.000Z</time>
      </trkpt>
      <trkpt lat="42.43152997456490993499755859375" lon="-5.307818390429019927978515625">
        <ele>835.4000244140625</ele>
        <time>2019-07-08T12:03:15.000Z</time>
      </trkpt>
      <trkpt lat="42.43162485770881175994873046875" lon="-5.3086567483842372894287109375">
        <ele>835.4000244140625</ele>
        <time>2019-07-08T12:03:17.000Z</time>
      </trkpt>
      <trkpt lat="42.43169979192316532135009765625" lon="-5.309496112167835235595703125">
        <ele>834.20001220703125</ele>
        <time>2019-07-08T12:03:19.000Z</time>
      </trkpt>
      <trkpt lat="42.43173264898359775543212890625" lon="-5.309916548430919647216796875">
        <ele>833.5999755859375</ele>
        <time>2019-07-08T12:03:20.000Z</time>
      </trkpt>
      <trkpt lat="42.43176148273050785064697265625" lon="-5.31033773906528949737548828125">
        <ele>832.5999755859375</ele>
        <time>2019-07-08T12:03:21.000Z</time>
      </trkpt>
      <trkpt lat="42.4317847006022930145263671875" lon="-5.3107582591474056243896484375">
        <ele>831</ele>
        <time>2019-07-08T12:03:22.000Z</time>
      </trkpt>
      <trkpt lat="42.43180221877992153167724609375" lon="-5.311179868876934051513671875">
        <ele>829</ele>
        <time>2019-07-08T12:03:23.000Z</time>
      </trkpt>
      <trkpt lat="42.4318138696253299713134765625" lon="-5.31160223297774791717529296875">
        <ele>827.79998779296875</ele>
        <time>2019-07-08T12:03:24.000Z</time>
      </trkpt>
      <trkpt lat="42.43182443082332611083984375" lon="-5.312453247606754302978515625">
        <ele>827</ele>
        <time>2019-07-08T12:03:26.000Z</time>
      </trkpt>
      <trkpt lat="42.4318182282149791717529296875" lon="-5.3133056871592998504638671875">
        <ele>827.4000244140625</ele>
        <time>2019-07-08T12:03:28.000Z</time>
      </trkpt>
      <trkpt lat="42.43180825375020503997802734375" lon="-5.31415410339832305908203125">
        <ele>827.79998779296875</ele>
        <time>2019-07-08T12:03:30.000Z</time>
      </trkpt>
      <trkpt lat="42.43179718963801860809326171875" lon="-5.31499003060162067413330078125">
        <ele>827.79998779296875</ele>
        <time>2019-07-08T12:03:32.000Z</time>
      </trkpt>
      <trkpt lat="42.431787885725498199462890625" lon="-5.31540610827505588531494140625">
        <ele>829</ele>
        <time>2019-07-08T12:03:33.000Z</time>
      </trkpt>
      <trkpt lat="42.43177740834653377532958984375" lon="-5.315819419920444488525390625">
        <ele>830.79998779296875</ele>
        <time>2019-07-08T12:03:34.000Z</time>
      </trkpt>
      <trkpt lat="42.43176651187241077423095703125" lon="-5.31623122282326221466064453125">
        <ele>834.20001220703125</ele>
        <time>2019-07-08T12:03:35.000Z</time>
      </trkpt>
      <trkpt lat="42.4317558668553829193115234375" lon="-5.31664059497416019439697265625">
        <ele>836</ele>
        <time>2019-07-08T12:03:36.000Z</time>
      </trkpt>
      <trkpt lat="42.43173197843134403228759765625" lon="-5.31745632179081439971923828125">
        <ele>837.20001220703125</ele>
        <time>2019-07-08T12:03:38.000Z</time>
      </trkpt>
      <trkpt lat="42.43171940557658672332763671875" lon="-5.317862592637538909912109375">
        <ele>835.5999755859375</ele>
        <time>2019-07-08T12:03:39.000Z</time>
      </trkpt>
      <trkpt lat="42.4317057430744171142578125" lon="-5.31826819293200969696044921875">
        <ele>833.79998779296875</ele>
        <time>2019-07-08T12:03:40.000Z</time>
      </trkpt>
      <trkpt lat="42.43167900480329990386962890625" lon="-5.319089032709598541259765625">
        <ele>832.5999755859375</ele>
        <time>2019-07-08T12:03:42.000Z</time>
      </trkpt>
      <trkpt lat="42.431653104722499847412109375" lon="-5.3199314139783382415771484375">
        <ele>836</ele>
        <time>2019-07-08T12:03:44.000Z</time>
      </trkpt>
      <trkpt lat="42.4316413700580596923828125" lon="-5.32036048360168933868408203125">
        <ele>837.79998779296875</ele>
        <time>2019-07-08T12:03:45.000Z</time>
      </trkpt>
      <trkpt lat="42.43162871338427066802978515625" lon="-5.32079399563372135162353515625">
        <ele>839.79998779296875</ele>
        <time>2019-07-08T12:03:46.000Z</time>
      </trkpt>
      <trkpt lat="42.43160247802734375" lon="-5.32166638411581516265869140625">
        <ele>840.4000244140625</ele>
        <time>2019-07-08T12:03:48.000Z</time>
      </trkpt>
      <trkpt lat="42.43157775141298770904541015625" lon="-5.32254346646368503570556640625">
        <ele>837.4000244140625</ele>
        <time>2019-07-08T12:03:50.000Z</time>
      </trkpt>
      <trkpt lat="42.431567944586277008056640625" lon="-5.322982259094715118408203125">
        <ele>835.5999755859375</ele>
        <time>2019-07-08T12:03:51.000Z</time>
      </trkpt>
      <trkpt lat="42.431551180779933929443359375" lon="-5.32386428676545619964599609375">
        <ele>833.5999755859375</ele>
        <time>2019-07-08T12:03:53.000Z</time>
      </trkpt>
      <trkpt lat="42.43154237978160381317138671875" lon="-5.32473902218043804168701171875">
        <ele>832.79998779296875</ele>
        <time>2019-07-08T12:03:55.000Z</time>
      </trkpt>
      <trkpt lat="42.4315474927425384521484375" lon="-5.32560956664383411407470703125">
        <ele>833.4000244140625</ele>
        <time>2019-07-08T12:03:57.000Z</time>
      </trkpt>
      <trkpt lat="42.4315768294036388397216796875" lon="-5.3264763392508029937744140625">
        <ele>833.79998779296875</ele>
        <time>2019-07-08T12:03:59.000Z</time>
      </trkpt>
      <trkpt lat="42.431628964841365814208984375" lon="-5.32734361477196216583251953125">
        <ele>834.79998779296875</ele>
        <time>2019-07-08T12:04:01.000Z</time>
      </trkpt>
      <trkpt lat="42.4316640011966228485107421875" lon="-5.32777813263237476348876953125">
        <ele>837.79998779296875</ele>
        <time>2019-07-08T12:04:02.000Z</time>
      </trkpt>
      <trkpt lat="42.43170247413218021392822265625" lon="-5.32821415923535823822021484375">
        <ele>840</ele>
        <time>2019-07-08T12:04:03.000Z</time>
      </trkpt>
      <trkpt lat="42.43174857459962368011474609375" lon="-5.32865018583834171295166015625">
        <ele>844.79998779296875</ele>
        <time>2019-07-08T12:04:04.000Z</time>
      </trkpt>
      <trkpt lat="42.431861646473407745361328125" lon="-5.329523496329784393310546875">
        <ele>845.20001220703125</ele>
        <time>2019-07-08T12:04:06.000Z</time>
      </trkpt>
      <trkpt lat="42.43200011551380157470703125" lon="-5.3303982317447662353515625">
        <ele>841</ele>
        <time>2019-07-08T12:04:08.000Z</time>
      </trkpt>
      <trkpt lat="42.432079575955867767333984375" lon="-5.3308339230716228485107421875">
        <ele>837.79998779296875</ele>
        <time>2019-07-08T12:04:09.000Z</time>
      </trkpt>
      <trkpt lat="42.43216532282531261444091796875" lon="-5.3312672674655914306640625">
        <ele>835.5999755859375</ele>
        <time>2019-07-08T12:04:10.000Z</time>
      </trkpt>
      <trkpt lat="42.43225584737956523895263671875" lon="-5.3316972590982913970947265625">
        <ele>833.4000244140625</ele>
        <time>2019-07-08T12:04:11.000Z</time>
      </trkpt>
      <trkpt lat="42.43235014379024505615234375" lon="-5.3321217186748981475830078125">
        <ele>832.4000244140625</ele>
        <time>2019-07-08T12:04:12.000Z</time>
      </trkpt>
      <trkpt lat="42.43255265057086944580078125" lon="-5.3329548798501491546630859375">
        <ele>834</ele>
        <time>2019-07-08T12:04:14.000Z</time>
      </trkpt>
      <trkpt lat="42.43266186676919460296630859375" lon="-5.33336550928652286529541015625">
        <ele>835.4000244140625</ele>
        <time>2019-07-08T12:04:15.000Z</time>
      </trkpt>
      <trkpt lat="42.43277569301426410675048828125" lon="-5.33377312123775482177734375">
        <ele>837.5999755859375</ele>
        <time>2019-07-08T12:04:16.000Z</time>
      </trkpt>
      <trkpt lat="42.43289530277252197265625" lon="-5.33417813479900360107421875">
        <ele>842</ele>
        <time>2019-07-08T12:04:17.000Z</time>
      </trkpt>
      <trkpt lat="42.43301977403461933135986328125" lon="-5.33457853831350803375244140625">
        <ele>847.20001220703125</ele>
        <time>2019-07-08T12:04:18.000Z</time>
      </trkpt>
      <trkpt lat="42.43315019644796848297119140625" lon="-5.33497475087642669677734375">
        <ele>850</ele>
        <time>2019-07-08T12:04:19.000Z</time>
      </trkpt>
      <trkpt lat="42.433285899460315704345703125" lon="-5.33536543138325214385986328125">
        <ele>851.20001220703125</ele>
        <time>2019-07-08T12:04:20.000Z</time>
      </trkpt>
      <trkpt lat="42.4334258772432804107666015625" lon="-5.33575049601495265960693359375">
        <ele>849.4000244140625</ele>
        <time>2019-07-08T12:04:21.000Z</time>
      </trkpt>
      <trkpt lat="42.4335697107017040252685546875" lon="-5.33612986095249652862548828125">
        <ele>847.4000244140625</ele>
        <time>2019-07-08T12:04:22.000Z</time>
      </trkpt>
      <trkpt lat="42.4338654242455959320068359375" lon="-5.33687434159219264984130859375">
        <ele>846.79998779296875</ele>
        <time>2019-07-08T12:04:24.000Z</time>
      </trkpt>
      <trkpt lat="42.43401654995977878570556640625" lon="-5.3372420556843280792236328125">
        <ele>845.5999755859375</ele>
        <time>2019-07-08T12:04:25.000Z</time>
      </trkpt>
      <trkpt lat="42.43416742421686649322509765625" lon="-5.33761211670935153961181640625">
        <ele>846.79998779296875</ele>
        <time>2019-07-08T12:04:26.000Z</time>
      </trkpt>
      <trkpt lat="42.4343210645020008087158203125" lon="-5.3379803337156772613525390625">
        <ele>848.20001220703125</ele>
        <time>2019-07-08T12:04:27.000Z</time>
      </trkpt>
      <trkpt lat="42.43462759070098400115966796875" lon="-5.3387246467173099517822265625">
        <ele>849.4000244140625</ele>
        <time>2019-07-08T12:04:29.000Z</time>
      </trkpt>
      <trkpt lat="42.43478382937610149383544921875" lon="-5.33909873105585575103759765625">
        <ele>847.4000244140625</ele>
        <time>2019-07-08T12:04:30.000Z</time>
      </trkpt>
      <trkpt lat="42.43494241498410701751708984375" lon="-5.3394749946892261505126953125">
        <ele>844</ele>
        <time>2019-07-08T12:04:31.000Z</time>
      </trkpt>
      <trkpt lat="42.43510234169661998748779296875" lon="-5.339852683246135711669921875">
        <ele>840.5999755859375</ele>
        <time>2019-07-08T12:04:32.000Z</time>
      </trkpt>
      <trkpt lat="42.43526511825621128082275390625" lon="-5.34022978506982326507568359375">
        <ele>837.5999755859375</ele>
        <time>2019-07-08T12:04:33.000Z</time>
      </trkpt>
      <trkpt lat="42.4354301579296588897705078125" lon="-5.34060604870319366455078125">
        <ele>835</ele>
        <time>2019-07-08T12:04:34.000Z</time>
      </trkpt>
      <trkpt lat="42.435595281422138214111328125" lon="-5.3409803844988346099853515625">
        <ele>832.4000244140625</ele>
        <time>2019-07-08T12:04:35.000Z</time>
      </trkpt>
      <trkpt lat="42.43576266802847385406494140625" lon="-5.34134943969547748565673828125">
        <ele>830.79998779296875</ele>
        <time>2019-07-08T12:04:36.000Z</time>
      </trkpt>
      <trkpt lat="42.43593013845384120941162109375" lon="-5.34171489067375659942626953125">
        <ele>829.79998779296875</ele>
        <time>2019-07-08T12:04:37.000Z</time>
      </trkpt>
      <trkpt lat="42.436254434287548065185546875" lon="-5.34244394861161708831787109375">
        <ele>828.20001220703125</ele>
        <time>2019-07-08T12:04:39.000Z</time>
      </trkpt>
      <trkpt lat="42.436412014067173004150390625" lon="-5.34280738793313503265380859375">
        <ele>827.20001220703125</ele>
        <time>2019-07-08T12:04:40.000Z</time>
      </trkpt>
      <trkpt lat="42.4365677498281002044677734375" lon="-5.343169905245304107666015625">
        <ele>825.79998779296875</ele>
        <time>2019-07-08T12:04:41.000Z</time>
      </trkpt>
      <trkpt lat="42.43687930516898632049560546875" lon="-5.34388840198516845703125">
        <ele>825.79998779296875</ele>
        <time>2019-07-08T12:04:43.000Z</time>
      </trkpt>
      <trkpt lat="42.437187843024730682373046875" lon="-5.3445970080792903900146484375">
        <ele>826</ele>
        <time>2019-07-08T12:04:45.000Z</time>
      </trkpt>
      <trkpt lat="42.43748900480568408966064453125" lon="-5.34530016593635082244873046875">
        <ele>826.4000244140625</ele>
        <time>2019-07-08T12:04:47.000Z</time>
      </trkpt>
      <trkpt lat="42.43763501755893230438232421875" lon="-5.34563921391963958740234375">
        <ele>827.20001220703125</ele>
        <time>2019-07-08T12:04:48.000Z</time>
      </trkpt>
      <trkpt lat="42.43791681714355945587158203125" lon="-5.346291996538639068603515625">
        <ele>828.5999755859375</ele>
        <time>2019-07-08T12:04:50.000Z</time>
      </trkpt>
      <trkpt lat="42.438054196536540985107421875" lon="-5.34661025740206241607666015625">
        <ele>829.79998779296875</ele>
        <time>2019-07-08T12:04:51.000Z</time>
      </trkpt>
      <trkpt lat="42.43831411935389041900634765625" lon="-5.3472165204584598541259765625">
        <ele>831.4000244140625</ele>
        <time>2019-07-08T12:04:53.000Z</time>
      </trkpt>
      <trkpt lat="42.438440434634685516357421875" lon="-5.34750946797430515289306640625">
        <ele>832.4000244140625</ele>
        <time>2019-07-08T12:04:54.000Z</time>
      </trkpt>
      <trkpt lat="42.43856557644903659820556640625" lon="-5.347800068557262420654296875">
        <ele>834.4000244140625</ele>
        <time>2019-07-08T12:04:55.000Z</time>
      </trkpt>
      <trkpt lat="42.43868879042565822601318359375" lon="-5.34808530472218990325927734375">
        <ele>836.79998779296875</ele>
        <time>2019-07-08T12:04:56.000Z</time>
      </trkpt>
      <trkpt lat="42.43881200440227985382080078125" lon="-5.3483691997826099395751953125">
        <ele>839.4000244140625</ele>
        <time>2019-07-08T12:04:57.000Z</time>
      </trkpt>
      <trkpt lat="42.4389368109405040740966796875" lon="-5.348646976053714752197265625">
        <ele>841</ele>
        <time>2019-07-08T12:04:58.000Z</time>
      </trkpt>
      <trkpt lat="42.4390625394880771636962890625" lon="-5.34892022609710693359375">
        <ele>842.20001220703125</ele>
        <time>2019-07-08T12:04:59.000Z</time>
      </trkpt>
      <trkpt lat="42.439317516982555389404296875" lon="-5.34947083331644535064697265625">
        <ele>843.4000244140625</ele>
        <time>2019-07-08T12:05:01.000Z</time>
      </trkpt>
      <trkpt lat="42.43957224301993846893310546875" lon="-5.350023619830608367919921875">
        <ele>843.5999755859375</ele>
        <time>2019-07-08T12:05:03.000Z</time>
      </trkpt>
      <trkpt lat="42.4398145638406276702880859375" lon="-5.35053131170570850372314453125">
        <ele>844.5999755859375</ele>
        <time>2019-07-08T12:05:05.000Z</time>
      </trkpt>
      <trkpt lat="42.43993182666599750518798828125" lon="-5.35077220760285854339599609375">
        <ele>845.79998779296875</ele>
        <time>2019-07-08T12:05:06.000Z</time>
      </trkpt>
      <trkpt lat="42.44004665873944759368896484375" lon="-5.3510098345577716827392578125">
        <ele>846.79998779296875</ele>
        <time>2019-07-08T12:05:07.000Z</time>
      </trkpt>
      <trkpt lat="42.44038629345595836639404296875" lon="-5.3517229668796062469482421875">
        <ele>847.79998779296875</ele>
        <time>2019-07-08T12:05:10.000Z</time>
      </trkpt>
      <trkpt lat="42.4404958449304103851318359375" lon="-5.35196386277675628662109375">
        <ele>848</ele>
        <time>2019-07-08T12:05:11.000Z</time>
      </trkpt>
      <trkpt lat="42.440797425806522369384765625" lon="-5.35264723934233188629150390625">
        <ele>848.5999755859375</ele>
        <time>2019-07-08T12:05:14.000Z</time>
      </trkpt>
      <trkpt lat="42.4408938176929950714111328125" lon="-5.3528575412929058074951171875">
        <ele>849.20001220703125</ele>
        <time>2019-07-08T12:05:15.000Z</time>
      </trkpt>
      <trkpt lat="42.44107712991535663604736328125" lon="-5.35326029174029827117919921875">
        <ele>850.20001220703125</ele>
        <time>2019-07-08T12:05:17.000Z</time>
      </trkpt>
      <trkpt lat="42.4412562511861324310302734375" lon="-5.35367234610021114349365234375">
        <ele>851.79998779296875</ele>
        <time>2019-07-08T12:05:19.000Z</time>
      </trkpt>
      <trkpt lat="42.4413608573377132415771484375" lon="-5.353883318603038787841796875">
        <ele>853.20001220703125</ele>
        <time>2019-07-08T12:05:20.000Z</time>
      </trkpt>
      <trkpt lat="42.44148197583854198455810546875" lon="-5.3540906868875026702880859375">
        <ele>854</ele>
        <time>2019-07-08T12:05:21.000Z</time>
      </trkpt>
      <trkpt lat="42.44162245653569698333740234375" lon="-5.35428824834525585174560546875">
        <ele>855</ele>
        <time>2019-07-08T12:05:22.000Z</time>
      </trkpt>
      <trkpt lat="42.44215353392064571380615234375" lon="-5.3548108600080013275146484375">
        <ele>856</ele>
        <time>2019-07-08T12:05:25.000Z</time>
      </trkpt>
      <trkpt lat="42.44259090162813663482666015625" lon="-5.35511185415089130401611328125">
        <ele>855.5999755859375</ele>
        <time>2019-07-08T12:05:27.000Z</time>
      </trkpt>
      <trkpt lat="42.44305349886417388916015625" lon="-5.35539700649678707122802734375">
        <ele>854.79998779296875</ele>
        <time>2019-07-08T12:05:29.000Z</time>
      </trkpt>
      <trkpt lat="42.44328190572559833526611328125" lon="-5.3555360622704029083251953125">
        <ele>853.79998779296875</ele>
        <time>2019-07-08T12:05:30.000Z</time>
      </trkpt>
      <trkpt lat="42.4435069598257541656494140625" lon="-5.355670340359210968017578125">
        <ele>852.79998779296875</ele>
        <time>2019-07-08T12:05:31.000Z</time>
      </trkpt>
      <trkpt lat="42.4437232129275798797607421875" lon="-5.355801098048686981201171875">
        <ele>851.5999755859375</ele>
        <time>2019-07-08T12:05:32.000Z</time>
      </trkpt>
      <trkpt lat="42.44432042352855205535888671875" lon="-5.35617501474916934967041015625">
        <ele>851.20001220703125</ele>
        <time>2019-07-08T12:05:35.000Z</time>
      </trkpt>
      <trkpt lat="42.44487262330949306488037109375" lon="-5.35652588121592998504638671875">
        <ele>854.20001220703125</ele>
        <time>2019-07-08T12:05:38.000Z</time>
      </trkpt>
      <trkpt lat="42.4450428597629070281982421875" lon="-5.356629900634288787841796875">
        <ele>855.79998779296875</ele>
        <time>2019-07-08T12:05:39.000Z</time>
      </trkpt>
      <trkpt lat="42.44520991109311580657958984375" lon="-5.3567229397594928741455078125">
        <ele>857.5999755859375</ele>
        <time>2019-07-08T12:05:40.000Z</time>
      </trkpt>
      <trkpt lat="42.44555692188441753387451171875" lon="-5.3568614087998867034912109375">
        <ele>859.79998779296875</ele>
        <time>2019-07-08T12:05:42.000Z</time>
      </trkpt>
      <trkpt lat="42.44574283249676227569580078125" lon="-5.356899797916412353515625">
        <ele>861.5999755859375</ele>
        <time>2019-07-08T12:05:43.000Z</time>
      </trkpt>
      <trkpt lat="42.44593997485935688018798828125" lon="-5.35691714845597743988037109375">
        <ele>863</ele>
        <time>2019-07-08T12:05:44.000Z</time>
      </trkpt>
      <trkpt lat="42.4463747441768646240234375" lon="-5.3568949364125728607177734375">
        <ele>864.20001220703125</ele>
        <time>2019-07-08T12:05:46.000Z</time>
      </trkpt>
      <trkpt lat="42.44661086238920688629150390625" lon="-5.3568684495985507965087890625">
        <ele>863</ele>
        <time>2019-07-08T12:05:47.000Z</time>
      </trkpt>
      <trkpt lat="42.446855865418910980224609375" lon="-5.3568402864038944244384765625">
        <ele>861.4000244140625</ele>
        <time>2019-07-08T12:05:48.000Z</time>
      </trkpt>
      <trkpt lat="42.447107993066310882568359375" lon="-5.356812290847301483154296875">
        <ele>858.4000244140625</ele>
        <time>2019-07-08T12:05:49.000Z</time>
      </trkpt>
      <trkpt lat="42.4473656527698040008544921875" lon="-5.35678572021424770355224609375">
        <ele>856.20001220703125</ele>
        <time>2019-07-08T12:05:50.000Z</time>
      </trkpt>
      <trkpt lat="42.447628676891326904296875" lon="-5.356760323047637939453125">
        <ele>854.4000244140625</ele>
        <time>2019-07-08T12:05:51.000Z</time>
      </trkpt>
      <trkpt lat="42.44789429940283298492431640625" lon="-5.35673392005264759063720703125">
        <ele>852.79998779296875</ele>
        <time>2019-07-08T12:05:52.000Z</time>
      </trkpt>
      <trkpt lat="42.44816017337143421173095703125" lon="-5.35670709796249866485595703125">
        <ele>851.4000244140625</ele>
        <time>2019-07-08T12:05:53.000Z</time>
      </trkpt>
      <trkpt lat="42.4486886523663997650146484375" lon="-5.35665571689605712890625">
        <ele>849.4000244140625</ele>
        <time>2019-07-08T12:05:55.000Z</time>
      </trkpt>
      <trkpt lat="42.44895008392632007598876953125" lon="-5.3566347621381282806396484375">
        <ele>848.4000244140625</ele>
        <time>2019-07-08T12:05:56.000Z</time>
      </trkpt>
      <trkpt lat="42.449466325342655181884765625" lon="-5.35660735331475734710693359375">
        <ele>847</ele>
        <time>2019-07-08T12:05:58.000Z</time>
      </trkpt>
      <trkpt lat="42.44997535832226276397705078125" lon="-5.35660408437252044677734375">
        <ele>847.5999755859375</ele>
        <time>2019-07-08T12:06:00.000Z</time>
      </trkpt>
      <trkpt lat="42.45022782124578952789306640625" lon="-5.356608442962169647216796875">
        <ele>849.4000244140625</ele>
        <time>2019-07-08T12:06:01.000Z</time>
      </trkpt>
      <trkpt lat="42.45048045180737972259521484375" lon="-5.35661322064697742462158203125">
        <ele>850.79998779296875</ele>
        <time>2019-07-08T12:06:02.000Z</time>
      </trkpt>
      <trkpt lat="42.45099191553890705108642578125" lon="-5.35662177018821239471435546875">
        <ele>851.4000244140625</ele>
        <time>2019-07-08T12:06:04.000Z</time>
      </trkpt>
      <trkpt lat="42.45152114890515804290771484375" lon="-5.35663434304296970367431640625">
        <ele>850.79998779296875</ele>
        <time>2019-07-08T12:06:06.000Z</time>
      </trkpt>
      <trkpt lat="42.45179926045238971710205078125" lon="-5.35664306022226810455322265625">
        <ele>849.5999755859375</ele>
        <time>2019-07-08T12:06:07.000Z</time>
      </trkpt>
      <trkpt lat="42.45208374224603176116943359375" lon="-5.3566518612205982208251953125">
        <ele>848</ele>
        <time>2019-07-08T12:06:08.000Z</time>
      </trkpt>
      <trkpt lat="42.452371157705783843994140625" lon="-5.35666284151375293731689453125">
        <ele>845.79998779296875</ele>
        <time>2019-07-08T12:06:09.000Z</time>
      </trkpt>
      <trkpt lat="42.452950179576873779296875" lon="-5.356693603098392486572265625">
        <ele>844.20001220703125</ele>
        <time>2019-07-08T12:06:11.000Z</time>
      </trkpt>
      <trkpt lat="42.45352727361023426055908203125" lon="-5.356734506785869598388671875">
        <ele>843.4000244140625</ele>
        <time>2019-07-08T12:06:13.000Z</time>
      </trkpt>
      <trkpt lat="42.454095818102359771728515625" lon="-5.35677985288202762603759765625">
        <ele>845</ele>
        <time>2019-07-08T12:06:15.000Z</time>
      </trkpt>
      <trkpt lat="42.45437669567763805389404296875" lon="-5.35680114291608333587646484375">
        <ele>846.20001220703125</ele>
        <time>2019-07-08T12:06:16.000Z</time>
      </trkpt>
      <trkpt lat="42.4549368582665920257568359375" lon="-5.356849841773509979248046875">
        <ele>846.20001220703125</ele>
        <time>2019-07-08T12:06:18.000Z</time>
      </trkpt>
      <trkpt lat="42.45521404780447483062744140625" lon="-5.3568795137107372283935546875">
        <ele>844.5999755859375</ele>
        <time>2019-07-08T12:06:19.000Z</time>
      </trkpt>
      <trkpt lat="42.4557576142251491546630859375" lon="-5.3569472394883632659912109375">
        <ele>842.79998779296875</ele>
        <time>2019-07-08T12:06:21.000Z</time>
      </trkpt>
      <trkpt lat="42.45629162527620792388916015625" lon="-5.35701890476047992706298828125">
        <ele>844</ele>
        <time>2019-07-08T12:06:23.000Z</time>
      </trkpt>
      <trkpt lat="42.45655582286417484283447265625" lon="-5.357057712972164154052734375">
        <ele>845.20001220703125</ele>
        <time>2019-07-08T12:06:24.000Z</time>
      </trkpt>
      <trkpt lat="42.456817589700222015380859375" lon="-5.35710104741156101226806640625">
        <ele>844</ele>
        <time>2019-07-08T12:06:25.000Z</time>
      </trkpt>
      <trkpt lat="42.45734841562807559967041015625" lon="-5.3571988642215728759765625">
        <ele>842.4000244140625</ele>
        <time>2019-07-08T12:06:27.000Z</time>
      </trkpt>
      <trkpt lat="42.45761789381504058837890625" lon="-5.35724856890738010406494140625">
        <ele>840</ele>
        <time>2019-07-08T12:06:28.000Z</time>
      </trkpt>
      <trkpt lat="42.457885779440402984619140625" lon="-5.35730171017348766326904296875">
        <ele>837.20001220703125</ele>
        <time>2019-07-08T12:06:29.000Z</time>
      </trkpt>
      <trkpt lat="42.4581534974277019500732421875" lon="-5.35735786892473697662353515625">
        <ele>835.20001220703125</ele>
        <time>2019-07-08T12:06:30.000Z</time>
      </trkpt>
      <trkpt lat="42.45842079631984233856201171875" lon="-5.35741813480854034423828125">
        <ele>833.79998779296875</ele>
        <time>2019-07-08T12:06:31.000Z</time>
      </trkpt>
      <trkpt lat="42.4589548073709011077880859375" lon="-5.35754964686930179595947265625">
        <ele>833</ele>
        <time>2019-07-08T12:06:33.000Z</time>
      </trkpt>
      <trkpt lat="42.45949217118322849273681640625" lon="-5.3576897084712982177734375">
        <ele>832.79998779296875</ele>
        <time>2019-07-08T12:06:35.000Z</time>
      </trkpt>
      <trkpt lat="42.46002878062427043914794921875" lon="-5.357832871377468109130859375">
        <ele>832.79998779296875</ele>
        <time>2019-07-08T12:06:37.000Z</time>
      </trkpt>
      <trkpt lat="42.4605671502649784088134765625" lon="-5.3579855896532535552978515625">
        <ele>831.20001220703125</ele>
        <time>2019-07-08T12:06:39.000Z</time>
      </trkpt>
      <trkpt lat="42.460836209356784820556640625" lon="-5.35806513391435146331787109375">
        <ele>830.20001220703125</ele>
        <time>2019-07-08T12:06:40.000Z</time>
      </trkpt>
      <trkpt lat="42.46137642301619052886962890625" lon="-5.3582300059497356414794921875">
        <ele>829.5999755859375</ele>
        <time>2019-07-08T12:06:42.000Z</time>
      </trkpt>
      <trkpt lat="42.4616477452218532562255859375" lon="-5.35831592045724391937255859375">
        <ele>829</ele>
        <time>2019-07-08T12:06:43.000Z</time>
      </trkpt>
      <trkpt lat="42.46219533495604991912841796875" lon="-5.3584952093660831451416015625">
        <ele>829</ele>
        <time>2019-07-08T12:06:45.000Z</time>
      </trkpt>
      <trkpt lat="42.462767064571380615234375" lon="-5.35869528539478778839111328125">
        <ele>828.20001220703125</ele>
        <time>2019-07-08T12:06:47.000Z</time>
      </trkpt>
      <trkpt lat="42.4630579166114330291748046875" lon="-5.358801148831844329833984375">
        <ele>826.5999755859375</ele>
        <time>2019-07-08T12:06:48.000Z</time>
      </trkpt>
      <trkpt lat="42.4633506126701831817626953125" lon="-5.35891137085855007171630859375">
        <ele>824.5999755859375</ele>
        <time>2019-07-08T12:06:49.000Z</time>
      </trkpt>
      <trkpt lat="42.46364456601440906524658203125" lon="-5.3590281307697296142578125">
        <ele>822.4000244140625</ele>
        <time>2019-07-08T12:06:50.000Z</time>
      </trkpt>
      <trkpt lat="42.4639378488063812255859375" lon="-5.35914891399443149566650390625">
        <ele>820.5999755859375</ele>
        <time>2019-07-08T12:06:51.000Z</time>
      </trkpt>
      <trkpt lat="42.4642313830554485321044921875" lon="-5.35927179269492626190185546875">
        <ele>819.20001220703125</ele>
        <time>2019-07-08T12:06:52.000Z</time>
      </trkpt>
      <trkpt lat="42.4645252525806427001953125" lon="-5.3593967668712139129638671875">
        <ele>818.20001220703125</ele>
        <time>2019-07-08T12:06:53.000Z</time>
      </trkpt>
      <trkpt lat="42.46511466801166534423828125" lon="-5.359651409089565277099609375">
        <ele>816.79998779296875</ele>
        <time>2019-07-08T12:06:55.000Z</time>
      </trkpt>
      <trkpt lat="42.46569863520562648773193359375" lon="-5.35991795361042022705078125">
        <ele>816.79998779296875</ele>
        <time>2019-07-08T12:06:57.000Z</time>
      </trkpt>
      <trkpt lat="42.4662675149738788604736328125" lon="-5.36019380204379558563232421875">
        <ele>815.20001220703125</ele>
        <time>2019-07-08T12:06:59.000Z</time>
      </trkpt>
      <trkpt lat="42.4668187089264392852783203125" lon="-5.3604696504771709442138671875">
        <ele>813.5999755859375</ele>
        <time>2019-07-08T12:07:01.000Z</time>
      </trkpt>
      <trkpt lat="42.46708768419921398162841796875" lon="-5.3606097958981990814208984375">
        <ele>812.5999755859375</ele>
        <time>2019-07-08T12:07:02.000Z</time>
      </trkpt>
      <trkpt lat="42.46761624701321125030517578125" lon="-5.36089151166379451751708984375">
        <ele>811.5999755859375</ele>
        <time>2019-07-08T12:07:04.000Z</time>
      </trkpt>
      <trkpt lat="42.46813349425792694091796875" lon="-5.36117180250585079193115234375">
        <ele>812.79998779296875</ele>
        <time>2019-07-08T12:07:06.000Z</time>
      </trkpt>
      <trkpt lat="42.46864177286624908447265625" lon="-5.36145376972854137420654296875">
        <ele>814.4000244140625</ele>
        <time>2019-07-08T12:07:08.000Z</time>
      </trkpt>
      <trkpt lat="42.46889390051364898681640625" lon="-5.36159995011985301971435546875">
        <ele>816.20001220703125</ele>
        <time>2019-07-08T12:07:09.000Z</time>
      </trkpt>
      <trkpt lat="42.46914560906589031219482421875" lon="-5.361750237643718719482421875">
        <ele>818.20001220703125</ele>
        <time>2019-07-08T12:07:10.000Z</time>
      </trkpt>
      <trkpt lat="42.46939891017973423004150390625" lon="-5.3619046323001384735107421875">
        <ele>820</ele>
        <time>2019-07-08T12:07:11.000Z</time>
      </trkpt>
      <trkpt lat="42.46965489350259304046630859375" lon="-5.36206162534654140472412109375">
        <ele>821.4000244140625</ele>
        <time>2019-07-08T12:07:12.000Z</time>
      </trkpt>
      <trkpt lat="42.47017507441341876983642578125" lon="-5.36238147877156734466552734375">
        <ele>822.5999755859375</ele>
        <time>2019-07-08T12:07:14.000Z</time>
      </trkpt>
      <trkpt lat="42.4706961773335933685302734375" lon="-5.36272144876420497894287109375">
        <ele>822.5999755859375</ele>
        <time>2019-07-08T12:07:16.000Z</time>
      </trkpt>
      <trkpt lat="42.47121225111186504364013671875" lon="-5.36307818256318569183349609375">
        <ele>821</ele>
        <time>2019-07-08T12:07:18.000Z</time>
      </trkpt>
      <trkpt lat="42.4714710004627704620361328125" lon="-5.36325856111943721771240234375">
        <ele>819.79998779296875</ele>
        <time>2019-07-08T12:07:19.000Z</time>
      </trkpt>
      <trkpt lat="42.4719866551458835601806640625" lon="-5.36363541148602962493896484375">
        <ele>819</ele>
        <time>2019-07-08T12:07:21.000Z</time>
      </trkpt>
      <trkpt lat="42.472243644297122955322265625" lon="-5.36382953636348247528076171875">
        <ele>817.79998779296875</ele>
        <time>2019-07-08T12:07:22.000Z</time>
      </trkpt>
      <trkpt lat="42.47250004671514034271240234375" lon="-5.364026762545108795166015625">
        <ele>816.5999755859375</ele>
        <time>2019-07-08T12:07:23.000Z</time>
      </trkpt>
      <trkpt lat="42.47301620431244373321533203125" lon="-5.3644249029457569122314453125">
        <ele>817.20001220703125</ele>
        <time>2019-07-08T12:07:25.000Z</time>
      </trkpt>
      <trkpt lat="42.4735386483371257781982421875" lon="-5.36483620293438434600830078125">
        <ele>816.20001220703125</ele>
        <time>2019-07-08T12:07:27.000Z</time>
      </trkpt>
      <trkpt lat="42.4738011695444583892822265625" lon="-5.36504658870398998260498046875">
        <ele>815</ele>
        <time>2019-07-08T12:07:28.000Z</time>
      </trkpt>
      <trkpt lat="42.474329061806201934814453125" lon="-5.36547490395605564117431640625">
        <ele>813.79998779296875</ele>
        <time>2019-07-08T12:07:30.000Z</time>
      </trkpt>
      <trkpt lat="42.47486114501953125" lon="-5.365905649960041046142578125">
        <ele>813</ele>
        <time>2019-07-08T12:07:32.000Z</time>
      </trkpt>
      <trkpt lat="42.47539163567125797271728515625" lon="-5.3663272596895694732666015625">
        <ele>812.79998779296875</ele>
        <time>2019-07-08T12:07:34.000Z</time>
      </trkpt>
      <trkpt lat="42.47590460814535617828369140625" lon="-5.36675867624580860137939453125">
        <ele>813.79998779296875</ele>
        <time>2019-07-08T12:07:36.000Z</time>
      </trkpt>
      <trkpt lat="42.47615640051662921905517578125" lon="-5.36697543226182460784912109375">
        <ele>814.4000244140625</ele>
        <time>2019-07-08T12:07:37.000Z</time>
      </trkpt>
      <trkpt lat="42.47665579430758953094482421875" lon="-5.3674055077135562896728515625">
        <ele>815</ele>
        <time>2019-07-08T12:07:39.000Z</time>
      </trkpt>
      <trkpt lat="42.47714982368052005767822265625" lon="-5.3678363375365734100341796875">
        <ele>815.4000244140625</ele>
        <time>2019-07-08T12:07:41.000Z</time>
      </trkpt>
      <trkpt lat="42.47739516198635101318359375" lon="-5.36805150099098682403564453125">
        <ele>816</ele>
        <time>2019-07-08T12:07:42.000Z</time>
      </trkpt>
      <trkpt lat="42.47763781808316707611083984375" lon="-5.368268676102161407470703125">
        <ele>817.20001220703125</ele>
        <time>2019-07-08T12:07:43.000Z</time>
      </trkpt>
      <trkpt lat="42.478123717010021209716796875" lon="-5.3687013499438762664794921875">
        <ele>818.4000244140625</ele>
        <time>2019-07-08T12:07:45.000Z</time>
      </trkpt>
      <trkpt lat="42.478615902364253997802734375" lon="-5.36912840791046619415283203125">
        <ele>817.4000244140625</ele>
        <time>2019-07-08T12:07:47.000Z</time>
      </trkpt>
      <trkpt lat="42.47886409051716327667236328125" lon="-5.369342900812625885009765625">
        <ele>816.79998779296875</ele>
        <time>2019-07-08T12:07:48.000Z</time>
      </trkpt>
      <trkpt lat="42.4793632328510284423828125" lon="-5.36978001706302165985107421875">
        <ele>816.79998779296875</ele>
        <time>2019-07-08T12:07:50.000Z</time>
      </trkpt>
      <trkpt lat="42.47987042181193828582763671875" lon="-5.37022325210273265838623046875">
        <ele>817</ele>
        <time>2019-07-08T12:07:52.000Z</time>
      </trkpt>
      <trkpt lat="42.48038155026733875274658203125" lon="-5.37067763507366180419921875">
        <ele>817.4000244140625</ele>
        <time>2019-07-08T12:07:54.000Z</time>
      </trkpt>
      <trkpt lat="42.48089586384594440460205078125" lon="-5.3711314313113689422607421875">
        <ele>816.5999755859375</ele>
        <time>2019-07-08T12:07:56.000Z</time>
      </trkpt>
      <trkpt lat="42.48140640556812286376953125" lon="-5.3715951181948184967041015625">
        <ele>814.5999755859375</ele>
        <time>2019-07-08T12:07:58.000Z</time>
      </trkpt>
      <trkpt lat="42.4819175340235233306884765625" lon="-5.37206307984888553619384765625">
        <ele>813.5999755859375</ele>
        <time>2019-07-08T12:08:00.000Z</time>
      </trkpt>
      <trkpt lat="42.48243075795471668243408203125" lon="-5.37252391688525676727294921875">
        <ele>813</ele>
        <time>2019-07-08T12:08:02.000Z</time>
      </trkpt>
      <trkpt lat="42.482687495648860931396484375" lon="-5.37274897098541259765625">
        <ele>812.4000244140625</ele>
        <time>2019-07-08T12:08:03.000Z</time>
      </trkpt>
      <trkpt lat="42.4831946007907390594482421875" lon="-5.3731853328645229339599609375">
        <ele>812.20001220703125</ele>
        <time>2019-07-08T12:08:05.000Z</time>
      </trkpt>
      <trkpt lat="42.48344748280942440032958984375" lon="-5.3733925335109233856201171875">
        <ele>811.20001220703125</ele>
        <time>2019-07-08T12:08:06.000Z</time>
      </trkpt>
      <trkpt lat="42.48394302092492580413818359375" lon="-5.37379997782409191131591796875">
        <ele>810.20001220703125</ele>
        <time>2019-07-08T12:08:08.000Z</time>
      </trkpt>
      <trkpt lat="42.48442162759602069854736328125" lon="-5.3742220066487789154052734375">
        <ele>810.20001220703125</ele>
        <time>2019-07-08T12:08:10.000Z</time>
      </trkpt>
      <trkpt lat="42.48465900309383869171142578125" lon="-5.37443281151354312896728515625">
        <ele>810</ele>
        <time>2019-07-08T12:08:11.000Z</time>
      </trkpt>
      <trkpt lat="42.48513526283204555511474609375" lon="-5.3748477995395660400390625">
        <ele>810.4000244140625</ele>
        <time>2019-07-08T12:08:13.000Z</time>
      </trkpt>
      <trkpt lat="42.4856136180460453033447265625" lon="-5.37525993771851062774658203125">
        <ele>810.79998779296875</ele>
        <time>2019-07-08T12:08:15.000Z</time>
      </trkpt>
      <trkpt lat="42.4860907159745693206787109375" lon="-5.37567333318293094635009765625">
        <ele>811.5999755859375</ele>
        <time>2019-07-08T12:08:17.000Z</time>
      </trkpt>
      <trkpt lat="42.486329935491085052490234375" lon="-5.37588086910545825958251953125">
        <ele>813.5999755859375</ele>
        <time>2019-07-08T12:08:18.000Z</time>
      </trkpt>
      <trkpt lat="42.48680611141026020050048828125" lon="-5.3762970305979251861572265625">
        <ele>813.79998779296875</ele>
        <time>2019-07-08T12:08:20.000Z</time>
      </trkpt>
      <trkpt lat="42.48704365454614162445068359375" lon="-5.37650741636753082275390625">
        <ele>815</ele>
        <time>2019-07-08T12:08:21.000Z</time>
      </trkpt>
      <trkpt lat="42.487520165741443634033203125" lon="-5.37692676298320293426513671875">
        <ele>815.20001220703125</ele>
        <time>2019-07-08T12:08:23.000Z</time>
      </trkpt>
      <trkpt lat="42.48799969442188739776611328125" lon="-5.37734367884695529937744140625">
        <ele>815.4000244140625</ele>
        <time>2019-07-08T12:08:25.000Z</time>
      </trkpt>
      <trkpt lat="42.48847763054072856903076171875" lon="-5.37776361219584941864013671875">
        <ele>816.79998779296875</ele>
        <time>2019-07-08T12:08:27.000Z</time>
      </trkpt>
      <trkpt lat="42.488956488668918609619140625" lon="-5.3781832940876483917236328125">
        <ele>817.5999755859375</ele>
        <time>2019-07-08T12:08:29.000Z</time>
      </trkpt>
      <trkpt lat="42.4894340895116329193115234375" lon="-5.3785975277423858642578125">
        <ele>816.5999755859375</ele>
        <time>2019-07-08T12:08:31.000Z</time>
      </trkpt>
      <trkpt lat="42.48967020772397518157958984375" lon="-5.3788045607507228851318359375">
        <ele>814.5999755859375</ele>
        <time>2019-07-08T12:08:32.000Z</time>
      </trkpt>
      <trkpt lat="42.48990473337471485137939453125" lon="-5.37900723516941070556640625">
        <ele>813.4000244140625</ele>
        <time>2019-07-08T12:08:33.000Z</time>
      </trkpt>
      <trkpt lat="42.49013674445450305938720703125" lon="-5.37920513190329074859619140625">
        <ele>811.5999755859375</ele>
        <time>2019-07-08T12:08:34.000Z</time>
      </trkpt>
      <trkpt lat="42.49059565365314483642578125" lon="-5.379587598145008087158203125">
        <ele>810.20001220703125</ele>
        <time>2019-07-08T12:08:36.000Z</time>
      </trkpt>
      <trkpt lat="42.491053640842437744140625" lon="-5.3799676336348056793212890625">
        <ele>810.20001220703125</ele>
        <time>2019-07-08T12:08:38.000Z</time>
      </trkpt>
      <trkpt lat="42.4915185011923313140869140625" lon="-5.38034741766750812530517578125">
        <ele>812.79998779296875</ele>
        <time>2019-07-08T12:08:40.000Z</time>
      </trkpt>
      <trkpt lat="42.49175445176661014556884765625" lon="-5.3805362619459629058837890625">
        <ele>814.20001220703125</ele>
        <time>2019-07-08T12:08:41.000Z</time>
      </trkpt>
      <trkpt lat="42.49223825521767139434814453125" lon="-5.3809203207492828369140625">
        <ele>815.20001220703125</ele>
        <time>2019-07-08T12:08:43.000Z</time>
      </trkpt>
      <trkpt lat="42.49273748137056827545166015625" lon="-5.38130848668515682220458984375">
        <ele>815.4000244140625</ele>
        <time>2019-07-08T12:08:45.000Z</time>
      </trkpt>
      <trkpt lat="42.49324827454984188079833984375" lon="-5.38169757463037967681884765625">
        <ele>813.5999755859375</ele>
        <time>2019-07-08T12:08:47.000Z</time>
      </trkpt>
      <trkpt lat="42.49350492842495441436767578125" lon="-5.38188918493688106536865234375">
        <ele>812</ele>
        <time>2019-07-08T12:08:48.000Z</time>
      </trkpt>
      <trkpt lat="42.49376275576651096343994140625" lon="-5.3820798732340335845947265625">
        <ele>810.5999755859375</ele>
        <time>2019-07-08T12:08:49.000Z</time>
      </trkpt>
      <trkpt lat="42.49427857808768749237060546875" lon="-5.3824583999812602996826171875">
        <ele>810</ele>
        <time>2019-07-08T12:08:51.000Z</time>
      </trkpt>
      <trkpt lat="42.4947978369891643524169921875" lon="-5.38282871246337890625">
        <ele>810.4000244140625</ele>
        <time>2019-07-08T12:08:53.000Z</time>
      </trkpt>
      <trkpt lat="42.495321370661258697509765625" lon="-5.3831886313855648040771484375">
        <ele>811.79998779296875</ele>
        <time>2019-07-08T12:08:55.000Z</time>
      </trkpt>
      <trkpt lat="42.49584414996206760406494140625" lon="-5.38354880176484584808349609375">
        <ele>812.79998779296875</ele>
        <time>2019-07-08T12:08:57.000Z</time>
      </trkpt>
      <trkpt lat="42.49610516242682933807373046875" lon="-5.383728928864002227783203125">
        <ele>813.5999755859375</ele>
        <time>2019-07-08T12:08:58.000Z</time>
      </trkpt>
      <trkpt lat="42.4966317974030971527099609375" lon="-5.384081304073333740234375">
        <ele>814</ele>
        <time>2019-07-08T12:09:00.000Z</time>
      </trkpt>
      <trkpt lat="42.49715725891292095184326171875" lon="-5.38442588411271572113037109375">
        <ele>812.4000244140625</ele>
        <time>2019-07-08T12:09:02.000Z</time>
      </trkpt>
      <trkpt lat="42.497417517006397247314453125" lon="-5.38459503091871738433837890625">
        <ele>810.5999755859375</ele>
        <time>2019-07-08T12:09:03.000Z</time>
      </trkpt>
      <trkpt lat="42.49767760746181011199951171875" lon="-5.38475931622087955474853515625">
        <ele>808.79998779296875</ele>
        <time>2019-07-08T12:09:04.000Z</time>
      </trkpt>
      <trkpt lat="42.497937195003032684326171875" lon="-5.384921170771121978759765625">
        <ele>806.79998779296875</ele>
        <time>2019-07-08T12:09:05.000Z</time>
      </trkpt>
      <trkpt lat="42.4981965310871601104736328125" lon="-5.38508109748363494873046875">
        <ele>805.5999755859375</ele>
        <time>2019-07-08T12:09:06.000Z</time>
      </trkpt>
      <trkpt lat="42.4987192265689373016357421875" lon="-5.38539818488061428070068359375">
        <ele>806.79998779296875</ele>
        <time>2019-07-08T12:09:08.000Z</time>
      </trkpt>
      <trkpt lat="42.49898384325206279754638671875" lon="-5.385556519031524658203125">
        <ele>808.5999755859375</ele>
        <time>2019-07-08T12:09:09.000Z</time>
      </trkpt>
      <trkpt lat="42.4992499686777591705322265625" lon="-5.3857146017253398895263671875">
        <ele>809.5999755859375</ele>
        <time>2019-07-08T12:09:10.000Z</time>
      </trkpt>
      <trkpt lat="42.4997864104807376861572265625" lon="-5.3860267437994480133056640625">
        <ele>810.4000244140625</ele>
        <time>2019-07-08T12:09:12.000Z</time>
      </trkpt>
      <trkpt lat="42.50032058916985988616943359375" lon="-5.386332012712955474853515625">
        <ele>809.5999755859375</ele>
        <time>2019-07-08T12:09:14.000Z</time>
      </trkpt>
      <trkpt lat="42.50085376203060150146484375" lon="-5.386624038219451904296875">
        <ele>808.5999755859375</ele>
        <time>2019-07-08T12:09:16.000Z</time>
      </trkpt>
      <trkpt lat="42.50111988745629787445068359375" lon="-5.38676896132528781890869140625">
        <ele>808.20001220703125</ele>
        <time>2019-07-08T12:09:17.000Z</time>
      </trkpt>
      <trkpt lat="42.501646019518375396728515625" lon="-5.3870674408972263336181640625">
        <ele>810</ele>
        <time>2019-07-08T12:09:19.000Z</time>
      </trkpt>
      <trkpt lat="42.50190828926861286163330078125" lon="-5.38722024299204349517822265625">
        <ele>811</ele>
        <time>2019-07-08T12:09:20.000Z</time>
      </trkpt>
      <trkpt lat="42.50243132002651691436767578125" lon="-5.38754604756832122802734375">
        <ele>812</ele>
        <time>2019-07-08T12:09:22.000Z</time>
      </trkpt>
      <trkpt lat="42.50295183621346950531005859375" lon="-5.38790085352957248687744140625">
        <ele>813</ele>
        <time>2019-07-08T12:09:24.000Z</time>
      </trkpt>
      <trkpt lat="42.503469251096248626708984375" lon="-5.38828625343739986419677734375">
        <ele>813.79998779296875</ele>
        <time>2019-07-08T12:09:26.000Z</time>
      </trkpt>
      <trkpt lat="42.50398121774196624755859375" lon="-5.38870417512953281402587890625">
        <ele>813.79998779296875</ele>
        <time>2019-07-08T12:09:28.000Z</time>
      </trkpt>
      <trkpt lat="42.504480443894863128662109375" lon="-5.38915512152016162872314453125">
        <ele>814.79998779296875</ele>
        <time>2019-07-08T12:09:30.000Z</time>
      </trkpt>
      <trkpt lat="42.50472561456263065338134765625" lon="-5.389392077922821044921875">
        <ele>815</ele>
        <time>2019-07-08T12:09:31.000Z</time>
      </trkpt>
      <trkpt lat="42.50520673580467700958251953125" lon="-5.3898861072957515716552734375">
        <ele>815.20001220703125</ele>
        <time>2019-07-08T12:09:33.000Z</time>
      </trkpt>
      <trkpt lat="42.50567461363971233367919921875" lon="-5.39041324518620967864990234375">
        <ele>815.20001220703125</ele>
        <time>2019-07-08T12:09:35.000Z</time>
      </trkpt>
      <trkpt lat="42.50613343901932239532470703125" lon="-5.39096695370972156524658203125">
        <ele>815.20001220703125</ele>
        <time>2019-07-08T12:09:37.000Z</time>
      </trkpt>
      <trkpt lat="42.50635773874819278717041015625" lon="-5.39125311188399791717529296875">
        <ele>816.5999755859375</ele>
        <time>2019-07-08T12:09:38.000Z</time>
      </trkpt>
      <trkpt lat="42.50679410062730312347412109375" lon="-5.391843952238559722900390625">
        <ele>817</ele>
        <time>2019-07-08T12:09:40.000Z</time>
      </trkpt>
      <trkpt lat="42.5072134472429752349853515625" lon="-5.39246253669261932373046875">
        <ele>815.4000244140625</ele>
        <time>2019-07-08T12:09:42.000Z</time>
      </trkpt>
      <trkpt lat="42.507617287337779998779296875" lon="-5.3931081108748912811279296875">
        <ele>815</ele>
        <time>2019-07-08T12:09:44.000Z</time>
      </trkpt>
      <trkpt lat="42.50800327397882938385009765625" lon="-5.39378444664180278778076171875">
        <ele>815</ele>
        <time>2019-07-08T12:09:46.000Z</time>
      </trkpt>
      <trkpt lat="42.50837207771837711334228515625" lon="-5.3944938071072101593017578125">
        <ele>815.4000244140625</ele>
        <time>2019-07-08T12:09:48.000Z</time>
      </trkpt>
      <trkpt lat="42.50872093252837657928466796875" lon="-5.3952299058437347412109375">
        <ele>815.5999755859375</ele>
        <time>2019-07-08T12:09:50.000Z</time>
      </trkpt>
      <trkpt lat="42.5090460665524005889892578125" lon="-5.39597715251147747039794921875">
        <ele>815.20001220703125</ele>
        <time>2019-07-08T12:09:52.000Z</time>
      </trkpt>
      <trkpt lat="42.50934689305722713470458984375" lon="-5.39672791957855224609375">
        <ele>815.5999755859375</ele>
        <time>2019-07-08T12:09:54.000Z</time>
      </trkpt>
      <trkpt lat="42.5096177123486995697021484375" lon="-5.39748924784362316131591796875">
        <ele>814.4000244140625</ele>
        <time>2019-07-08T12:09:56.000Z</time>
      </trkpt>
      <trkpt lat="42.5098557583987712860107421875" lon="-5.39825954474508762359619140625">
        <ele>814.79998779296875</ele>
        <time>2019-07-08T12:09:58.000Z</time>
      </trkpt>
      <trkpt lat="42.50996463932096958160400390625" lon="-5.39864410646259784698486328125">
        <ele>814.20001220703125</ele>
        <time>2019-07-08T12:09:59.000Z</time>
      </trkpt>
      <trkpt lat="42.5101679004728794097900390625" lon="-5.39940920658409595489501953125">
        <ele>813.79998779296875</ele>
        <time>2019-07-08T12:10:01.000Z</time>
      </trkpt>
      <trkpt lat="42.51034685410559177398681640625" lon="-5.40018470026552677154541015625">
        <ele>813.5999755859375</ele>
        <time>2019-07-08T12:10:03.000Z</time>
      </trkpt>
      <trkpt lat="42.51050745137035846710205078125" lon="-5.4009778797626495361328125">
        <ele>813.4000244140625</ele>
        <time>2019-07-08T12:10:05.000Z</time>
      </trkpt>
      <trkpt lat="42.51064114272594451904296875" lon="-5.4017907567322254180908203125">
        <ele>813.4000244140625</ele>
        <time>2019-07-08T12:10:07.000Z</time>
      </trkpt>
      <trkpt lat="42.51075111329555511474609375" lon="-5.402617044746875762939453125">
        <ele>814</ele>
        <time>2019-07-08T12:10:09.000Z</time>
      </trkpt>
      <trkpt lat="42.51079679466784000396728515625" lon="-5.40303236804902553558349609375">
        <ele>812.79998779296875</ele>
        <time>2019-07-08T12:10:10.000Z</time>
      </trkpt>
      <trkpt lat="42.51083736307919025421142578125" lon="-5.40344693697988986968994140625">
        <ele>811</ele>
        <time>2019-07-08T12:10:11.000Z</time>
      </trkpt>
      <trkpt lat="42.510872818529605865478515625" lon="-5.4038594104349613189697265625">
        <ele>809.4000244140625</ele>
        <time>2019-07-08T12:10:12.000Z</time>
      </trkpt>
      <trkpt lat="42.51092369668185710906982421875" lon="-5.40468460880219936370849609375">
        <ele>808.5999755859375</ele>
        <time>2019-07-08T12:10:14.000Z</time>
      </trkpt>
      <trkpt lat="42.51093677245080471038818359375" lon="-5.4051002673804759979248046875">
        <ele>808</ele>
        <time>2019-07-08T12:10:15.000Z</time>
      </trkpt>
      <trkpt lat="42.51095487736165523529052734375" lon="-5.4059278964996337890625">
        <ele>808.4000244140625</ele>
        <time>2019-07-08T12:10:17.000Z</time>
      </trkpt>
      <trkpt lat="42.51096946187317371368408203125" lon="-5.40675544179975986480712890625">
        <ele>808</ele>
        <time>2019-07-08T12:10:19.000Z</time>
      </trkpt>
      <trkpt lat="42.51097415573894977569580078125" lon="-5.40716900490224361419677734375">
        <ele>805</ele>
        <time>2019-07-08T12:10:20.000Z</time>
      </trkpt>
      <trkpt lat="42.51098169945180416107177734375" lon="-5.40758080780506134033203125">
        <ele>800</ele>
        <time>2019-07-08T12:10:21.000Z</time>
      </trkpt>
      <trkpt lat="42.51099385321140289306640625" lon="-5.407990850508213043212890625">
        <ele>795.5999755859375</ele>
        <time>2019-07-08T12:10:22.000Z</time>
      </trkpt>
      <trkpt lat="42.5110077671706676483154296875" lon="-5.40840064175426959991455078125">
        <ele>793.4000244140625</ele>
        <time>2019-07-08T12:10:23.000Z</time>
      </trkpt>
      <trkpt lat="42.51102427951991558074951171875" lon="-5.4088117741048336029052734375">
        <ele>791.5999755859375</ele>
        <time>2019-07-08T12:10:24.000Z</time>
      </trkpt>
      <trkpt lat="42.5110687874257564544677734375" lon="-5.4096378944814205169677734375">
        <ele>790.4000244140625</ele>
        <time>2019-07-08T12:10:26.000Z</time>
      </trkpt>
      <trkpt lat="42.5111281313002109527587890625" lon="-5.41047281585633754730224609375">
        <ele>790.4000244140625</ele>
        <time>2019-07-08T12:10:28.000Z</time>
      </trkpt>
      <trkpt lat="42.51120281405746936798095703125" lon="-5.4113146103918552398681640625">
        <ele>788</ele>
        <time>2019-07-08T12:10:30.000Z</time>
      </trkpt>
      <trkpt lat="42.5112464837729930877685546875" lon="-5.41173697449266910552978515625">
        <ele>786.20001220703125</ele>
        <time>2019-07-08T12:10:31.000Z</time>
      </trkpt>
      <trkpt lat="42.5113460607826709747314453125" lon="-5.41258254088461399078369140625">
        <ele>785</ele>
        <time>2019-07-08T12:10:33.000Z</time>
      </trkpt>
      <trkpt lat="42.5114634074270725250244140625" lon="-5.41342726908624172210693359375">
        <ele>784.5999755859375</ele>
        <time>2019-07-08T12:10:35.000Z</time>
      </trkpt>
      <trkpt lat="42.51160162501037120819091796875" lon="-5.41426998563110828399658203125">
        <ele>784.5999755859375</ele>
        <time>2019-07-08T12:10:37.000Z</time>
      </trkpt>
      <trkpt lat="42.511755935847759246826171875" lon="-5.41510515846312046051025390625">
        <ele>785</ele>
        <time>2019-07-08T12:10:39.000Z</time>
      </trkpt>
      <trkpt lat="42.51191929914057254791259765625" lon="-5.4159045405685901641845703125">
        <ele>784.5999755859375</ele>
        <time>2019-07-08T12:10:41.000Z</time>
      </trkpt>
      <trkpt lat="42.51209749840199947357177734375" lon="-5.41666352190077304840087890625">
        <ele>784.4000244140625</ele>
        <time>2019-07-08T12:10:43.000Z</time>
      </trkpt>
      <trkpt lat="42.51228860579431056976318359375" lon="-5.41740833781659603118896484375">
        <ele>783.79998779296875</ele>
        <time>2019-07-08T12:10:45.000Z</time>
      </trkpt>
      <trkpt lat="42.51249195076525211334228515625" lon="-5.41814946569502353668212890625">
        <ele>783.79998779296875</ele>
        <time>2019-07-08T12:10:47.000Z</time>
      </trkpt>
      <trkpt lat="42.512712143361568450927734375" lon="-5.41889143176376819610595703125">
        <ele>784.79998779296875</ele>
        <time>2019-07-08T12:10:49.000Z</time>
      </trkpt>
      <trkpt lat="42.51282957382500171661376953125" lon="-5.41926358826458454132080078125">
        <ele>787</ele>
        <time>2019-07-08T12:10:50.000Z</time>
      </trkpt>
      <trkpt lat="42.5129503570497035980224609375" lon="-5.41963708586990833282470703125">
        <ele>790</ele>
        <time>2019-07-08T12:10:51.000Z</time>
      </trkpt>
      <trkpt lat="42.51307415775954723358154296875" lon="-5.42001225985586643218994140625">
        <ele>791.4000244140625</ele>
        <time>2019-07-08T12:10:52.000Z</time>
      </trkpt>
      <trkpt lat="42.5132019817829132080078125" lon="-5.4203881882131099700927734375">
        <ele>793.5999755859375</ele>
        <time>2019-07-08T12:10:53.000Z</time>
      </trkpt>
      <trkpt lat="42.513471208512783050537109375" lon="-5.4211314953863620758056640625">
        <ele>792.79998779296875</ele>
        <time>2019-07-08T12:10:55.000Z</time>
      </trkpt>
      <trkpt lat="42.51361143775284290313720703125" lon="-5.42150080204010009765625">
        <ele>792</ele>
        <time>2019-07-08T12:10:56.000Z</time>
      </trkpt>
      <trkpt lat="42.5137571990489959716796875" lon="-5.42186717502772808074951171875">
        <ele>790.5999755859375</ele>
        <time>2019-07-08T12:10:57.000Z</time>
      </trkpt>
      <trkpt lat="42.51391016878187656402587890625" lon="-5.4222301952540874481201171875">
        <ele>789</ele>
        <time>2019-07-08T12:10:58.000Z</time>
      </trkpt>
      <trkpt lat="42.51422717235982418060302734375" lon="-5.422954224050045013427734375">
        <ele>788</ele>
        <time>2019-07-08T12:11:00.000Z</time>
      </trkpt>
      <trkpt lat="42.51455423422157764434814453125" lon="-5.42367297224700450897216796875">
        <ele>787.4000244140625</ele>
        <time>2019-07-08T12:11:02.000Z</time>
      </trkpt>
      <trkpt lat="42.5148952938616275787353515625" lon="-5.42437772266566753387451171875">
        <ele>787.79998779296875</ele>
        <time>2019-07-08T12:11:04.000Z</time>
      </trkpt>
      <trkpt lat="42.515252865850925445556640625" lon="-5.42505808174610137939453125">
        <ele>789.5999755859375</ele>
        <time>2019-07-08T12:11:06.000Z</time>
      </trkpt>
      <trkpt lat="42.51562980003654956817626953125" lon="-5.42572687380015850067138671875">
        <ele>796</ele>
        <time>2019-07-08T12:11:08.000Z</time>
      </trkpt>
      <trkpt lat="42.5158196501433849334716796875" lon="-5.42606164701282978057861328125">
        <ele>803.79998779296875</ele>
        <time>2019-07-08T12:11:09.000Z</time>
      </trkpt>
      <trkpt lat="42.51601251773536205291748046875" lon="-5.42639357037842273712158203125">
        <ele>812.79998779296875</ele>
        <time>2019-07-08T12:11:10.000Z</time>
      </trkpt>
      <trkpt lat="42.51620915718376636505126953125" lon="-5.4267252422869205474853515625">
        <ele>818</ele>
        <time>2019-07-08T12:11:11.000Z</time>
      </trkpt>
      <trkpt lat="42.51640764065086841583251953125" lon="-5.4270543158054351806640625">
        <ele>821.4000244140625</ele>
        <time>2019-07-08T12:11:12.000Z</time>
      </trkpt>
      <trkpt lat="42.516610734164714813232421875" lon="-5.4273761808872222900390625">
        <ele>823.20001220703125</ele>
        <time>2019-07-08T12:11:13.000Z</time>
      </trkpt>
      <trkpt lat="42.51702840439975261688232421875" lon="-5.42799853719770908355712890625">
        <ele>824.5999755859375</ele>
        <time>2019-07-08T12:11:15.000Z</time>
      </trkpt>
      <trkpt lat="42.517454624176025390625" lon="-5.428597927093505859375">
        <ele>825.4000244140625</ele>
        <time>2019-07-08T12:11:17.000Z</time>
      </trkpt>
      <trkpt lat="42.51767045818269252777099609375" lon="-5.4288901202380657196044921875">
        <ele>825.79998779296875</ele>
        <time>2019-07-08T12:11:18.000Z</time>
      </trkpt>
      <trkpt lat="42.5181075744330883026123046875" lon="-5.42946000583469867706298828125">
        <ele>825.5999755859375</ele>
        <time>2019-07-08T12:11:20.000Z</time>
      </trkpt>
      <trkpt lat="42.51855290494859218597412109375" lon="-5.43001790530979633331298828125">
        <ele>825.79998779296875</ele>
        <time>2019-07-08T12:11:22.000Z</time>
      </trkpt>
      <trkpt lat="42.519014663994312286376953125" lon="-5.43056507594883441925048828125">
        <ele>823</ele>
        <time>2019-07-08T12:11:24.000Z</time>
      </trkpt>
      <trkpt lat="42.5192503631114959716796875" lon="-5.4308367334306240081787109375">
        <ele>819</ele>
        <time>2019-07-08T12:11:25.000Z</time>
      </trkpt>
      <trkpt lat="42.51948840916156768798828125" lon="-5.43110587634146213531494140625">
        <ele>813.20001220703125</ele>
        <time>2019-07-08T12:11:26.000Z</time>
      </trkpt>
      <trkpt lat="42.51973114907741546630859375" lon="-5.43136806227266788482666015625">
        <ele>808</ele>
        <time>2019-07-08T12:11:27.000Z</time>
      </trkpt>
      <trkpt lat="42.51997900195419788360595703125" lon="-5.43162488378584384918212890625">
        <ele>803.5999755859375</ele>
        <time>2019-07-08T12:11:28.000Z</time>
      </trkpt>
      <trkpt lat="42.52022978849709033966064453125" lon="-5.43187684379518032073974609375">
        <ele>801.4000244140625</ele>
        <time>2019-07-08T12:11:29.000Z</time>
      </trkpt>
      <trkpt lat="42.5204813294112682342529296875" lon="-5.43212343938648700714111328125">
        <ele>799</ele>
        <time>2019-07-08T12:11:30.000Z</time>
      </trkpt>
      <trkpt lat="42.5207314454019069671630859375" lon="-5.4323639161884784698486328125">
        <ele>796.20001220703125</ele>
        <time>2019-07-08T12:11:31.000Z</time>
      </trkpt>
      <trkpt lat="42.520980052649974822998046875" lon="-5.4325959272682666778564453125">
        <ele>794.5999755859375</ele>
        <time>2019-07-08T12:11:32.000Z</time>
      </trkpt>
      <trkpt lat="42.52147718332707881927490234375" lon="-5.43304243125021457672119140625">
        <ele>794</ele>
        <time>2019-07-08T12:11:34.000Z</time>
      </trkpt>
      <trkpt lat="42.5217262096703052520751953125" lon="-5.4332544095814228057861328125">
        <ele>792</ele>
        <time>2019-07-08T12:11:35.000Z</time>
      </trkpt>
      <trkpt lat="42.5222271122038364410400390625" lon="-5.43366839177906513214111328125">
        <ele>795</ele>
        <time>2019-07-08T12:11:37.000Z</time>
      </trkpt>
      <trkpt lat="42.5224782340228557586669921875" lon="-5.43386855162680149078369140625">
        <ele>797.5999755859375</ele>
        <time>2019-07-08T12:11:38.000Z</time>
      </trkpt>
      <trkpt lat="42.52273119986057281494140625" lon="-5.43406301178038120269775390625">
        <ele>800.20001220703125</ele>
        <time>2019-07-08T12:11:39.000Z</time>
      </trkpt>
      <trkpt lat="42.52324643544852733612060546875" lon="-5.4344406165182590484619140625">
        <ele>801.5999755859375</ele>
        <time>2019-07-08T12:11:41.000Z</time>
      </trkpt>
      <trkpt lat="42.52350660972297191619873046875" lon="-5.43462929315865039825439453125">
        <ele>802.79998779296875</ele>
        <time>2019-07-08T12:11:42.000Z</time>
      </trkpt>
      <trkpt lat="42.5240352563560009002685546875" lon="-5.434997342526912689208984375">
        <ele>804.20001220703125</ele>
        <time>2019-07-08T12:11:44.000Z</time>
      </trkpt>
      <trkpt lat="42.5245817564427852630615234375" lon="-5.4353342950344085693359375">
        <ele>803.4000244140625</ele>
        <time>2019-07-08T12:11:46.000Z</time>
      </trkpt>
      <trkpt lat="42.52486087381839752197265625" lon="-5.43548994697630405426025390625">
        <ele>802.4000244140625</ele>
        <time>2019-07-08T12:11:47.000Z</time>
      </trkpt>
      <trkpt lat="42.5254286639392375946044921875" lon="-5.435781218111515045166015625">
        <ele>800.4000244140625</ele>
        <time>2019-07-08T12:11:49.000Z</time>
      </trkpt>
      <trkpt lat="42.5257146544754505157470703125" lon="-5.43591792695224285125732421875">
        <ele>798.20001220703125</ele>
        <time>2019-07-08T12:11:50.000Z</time>
      </trkpt>
      <trkpt lat="42.52600190229713916778564453125" lon="-5.436048097908496856689453125">
        <ele>797.20001220703125</ele>
        <time>2019-07-08T12:11:51.000Z</time>
      </trkpt>
      <trkpt lat="42.52658419311046600341796875" lon="-5.43627784587442874908447265625">
        <ele>798.4000244140625</ele>
        <time>2019-07-08T12:11:53.000Z</time>
      </trkpt>
      <trkpt lat="42.52687881700694561004638671875" lon="-5.43637792579829692840576171875">
        <ele>800</ele>
        <time>2019-07-08T12:11:54.000Z</time>
      </trkpt>
      <trkpt lat="42.52747309394180774688720703125" lon="-5.43655746616423130035400390625">
        <ele>799.4000244140625</ele>
        <time>2019-07-08T12:11:56.000Z</time>
      </trkpt>
      <trkpt lat="42.52807424403727054595947265625" lon="-5.43671588413417339324951171875">
        <ele>798</ele>
        <time>2019-07-08T12:11:58.000Z</time>
      </trkpt>
      <trkpt lat="42.5286811776459217071533203125" lon="-5.43685284443199634552001953125">
        <ele>795.79998779296875</ele>
        <time>2019-07-08T12:12:00.000Z</time>
      </trkpt>
      <trkpt lat="42.528987787663936614990234375" lon="-5.43690883554518222808837890625">
        <ele>794.5999755859375</ele>
        <time>2019-07-08T12:12:01.000Z</time>
      </trkpt>
      <trkpt lat="42.5296075455844402313232421875" lon="-5.4370034672319889068603515625">
        <ele>793.4000244140625</ele>
        <time>2019-07-08T12:12:03.000Z</time>
      </trkpt>
      <trkpt lat="42.53023744560778141021728515625" lon="-5.4370678402483463287353515625">
        <ele>792.5999755859375</ele>
        <time>2019-07-08T12:12:05.000Z</time>
      </trkpt>
      <trkpt lat="42.53055478446185588836669921875" lon="-5.43708837591111660003662109375">
        <ele>792.20001220703125</ele>
        <time>2019-07-08T12:12:06.000Z</time>
      </trkpt>
      <trkpt lat="42.5311907194554805755615234375" lon="-5.437120981514453887939453125">
        <ele>792</ele>
        <time>2019-07-08T12:12:08.000Z</time>
      </trkpt>
      <trkpt lat="42.5315109081566333770751953125" lon="-5.4371369071304798126220703125">
        <ele>791.20001220703125</ele>
        <time>2019-07-08T12:12:09.000Z</time>
      </trkpt>
      <trkpt lat="42.53183151595294475555419921875" lon="-5.43715082108974456787109375">
        <ele>789.20001220703125</ele>
        <time>2019-07-08T12:12:10.000Z</time>
      </trkpt>
      <trkpt lat="42.5324667803943157196044921875" lon="-5.43717957101762294769287109375">
        <ele>790.5999755859375</ele>
        <time>2019-07-08T12:12:12.000Z</time>
      </trkpt>
      <trkpt lat="42.53278504125773906707763671875" lon="-5.43718962930142879486083984375">
        <ele>789.5999755859375</ele>
        <time>2019-07-08T12:12:13.000Z</time>
      </trkpt>
      <trkpt lat="42.53342223353683948516845703125" lon="-5.43721259571611881256103515625">
        <ele>787.5999755859375</ele>
        <time>2019-07-08T12:12:15.000Z</time>
      </trkpt>
      <trkpt lat="42.53404953517019748687744140625" lon="-5.437234975397586822509765625">
        <ele>790.20001220703125</ele>
        <time>2019-07-08T12:12:17.000Z</time>
      </trkpt>
      <trkpt lat="42.53436067141592502593994140625" lon="-5.4372458718717098236083984375">
        <ele>792.5999755859375</ele>
        <time>2019-07-08T12:12:18.000Z</time>
      </trkpt>
      <trkpt lat="42.5346705503761768341064453125" lon="-5.4372539184987545013427734375">
        <ele>794.79998779296875</ele>
        <time>2019-07-08T12:12:19.000Z</time>
      </trkpt>
      <trkpt lat="42.53497992642223834991455078125" lon="-5.4372623004019260406494140625">
        <ele>798.4000244140625</ele>
        <time>2019-07-08T12:12:20.000Z</time>
      </trkpt>
      <trkpt lat="42.53528854809701442718505859375" lon="-5.43727143667638301849365234375">
        <ele>803.5999755859375</ele>
        <time>2019-07-08T12:12:21.000Z</time>
      </trkpt>
      <trkpt lat="42.5355985946953296661376953125" lon="-5.437283255159854888916015625">
        <ele>806.4000244140625</ele>
        <time>2019-07-08T12:12:22.000Z</time>
      </trkpt>
      <trkpt lat="42.53621466457843780517578125" lon="-5.43730580247938632965087890625">
        <ele>810.4000244140625</ele>
        <time>2019-07-08T12:12:24.000Z</time>
      </trkpt>
      <trkpt lat="42.5365246273577213287353515625" lon="-5.43731954880058765411376953125">
        <ele>813.4000244140625</ele>
        <time>2019-07-08T12:12:25.000Z</time>
      </trkpt>
      <trkpt lat="42.536833584308624267578125" lon="-5.43733723461627960205078125">
        <ele>819.20001220703125</ele>
        <time>2019-07-08T12:12:26.000Z</time>
      </trkpt>
      <trkpt lat="42.53714296035468578338623046875" lon="-5.43735156767070293426513671875">
        <ele>822.20001220703125</ele>
        <time>2019-07-08T12:12:27.000Z</time>
      </trkpt>
      <trkpt lat="42.53745242021977901458740234375" lon="-5.43736766092479228973388671875">
        <ele>819</ele>
        <time>2019-07-08T12:12:28.000Z</time>
      </trkpt>
      <trkpt lat="42.53776020370423793792724609375" lon="-5.4373853467404842376708984375">
        <ele>817.4000244140625</ele>
        <time>2019-07-08T12:12:29.000Z</time>
      </trkpt>
      <trkpt lat="42.538367472589015960693359375" lon="-5.43741543777287006378173828125">
        <ele>813.5999755859375</ele>
        <time>2019-07-08T12:12:31.000Z</time>
      </trkpt>
      <trkpt lat="42.5386660359799861907958984375" lon="-5.43743823654949665069580078125">
        <ele>805.79998779296875</ele>
        <time>2019-07-08T12:12:32.000Z</time>
      </trkpt>
      <trkpt lat="42.53896015696227550506591796875" lon="-5.43747411109507083892822265625">
        <ele>800.5999755859375</ele>
        <time>2019-07-08T12:12:33.000Z</time>
      </trkpt>
      <trkpt lat="42.5392524339258670806884765625" lon="-5.43751560151576995849609375">
        <ele>797</ele>
        <time>2019-07-08T12:12:34.000Z</time>
      </trkpt>
      <trkpt lat="42.53983623348176479339599609375" lon="-5.4376249015331268310546875">
        <ele>796.20001220703125</ele>
        <time>2019-07-08T12:12:36.000Z</time>
      </trkpt>
      <trkpt lat="42.5404101423919200897216796875" lon="-5.43778826482594013214111328125">
        <ele>796.20001220703125</ele>
        <time>2019-07-08T12:12:38.000Z</time>
      </trkpt>
      <trkpt lat="42.54069403745234012603759765625" lon="-5.43788365088403224945068359375">
        <ele>796</ele>
        <time>2019-07-08T12:12:39.000Z</time>
      </trkpt>
      <trkpt lat="42.5412617437541484832763671875" lon="-5.4380929470062255859375">
        <ele>796.5999755859375</ele>
        <time>2019-07-08T12:12:41.000Z</time>
      </trkpt>
      <trkpt lat="42.5418291985988616943359375" lon="-5.4383177496492862701416015625">
        <ele>796.79998779296875</ele>
        <time>2019-07-08T12:12:43.000Z</time>
      </trkpt>
      <trkpt lat="42.54238508641719818115234375" lon="-5.4385712184011936187744140625">
        <ele>796.79998779296875</ele>
        <time>2019-07-08T12:12:45.000Z</time>
      </trkpt>
      <trkpt lat="42.5426601804792881011962890625" lon="-5.4387076757848262786865234375">
        <ele>797</ele>
        <time>2019-07-08T12:12:46.000Z</time>
      </trkpt>
      <trkpt lat="42.54320726729929447174072265625" lon="-5.43900825083255767822265625">
        <ele>798.5999755859375</ele>
        <time>2019-07-08T12:12:48.000Z</time>
      </trkpt>
      <trkpt lat="42.54347884096205234527587890625" lon="-5.439168512821197509765625">
        <ele>800.4000244140625</ele>
        <time>2019-07-08T12:12:49.000Z</time>
      </trkpt>
      <trkpt lat="42.5440193898975849151611328125" lon="-5.43951057828962802886962890625">
        <ele>801</ele>
        <time>2019-07-08T12:12:51.000Z</time>
      </trkpt>
      <trkpt lat="42.54428920336067676544189453125" lon="-5.43969112448394298553466796875">
        <ele>801.5999755859375</ele>
        <time>2019-07-08T12:12:52.000Z</time>
      </trkpt>
      <trkpt lat="42.5445595197379589080810546875" lon="-5.439874269068241119384765625">
        <ele>803</ele>
        <time>2019-07-08T12:12:53.000Z</time>
      </trkpt>
      <trkpt lat="42.5448290817439556121826171875" lon="-5.44006344862282276153564453125">
        <ele>804.4000244140625</ele>
        <time>2019-07-08T12:12:54.000Z</time>
      </trkpt>
      <trkpt lat="42.54509772174060344696044921875" lon="-5.44025774113833904266357421875">
        <ele>805.5999755859375</ele>
        <time>2019-07-08T12:12:55.000Z</time>
      </trkpt>
      <trkpt lat="42.5456230156123638153076171875" lon="-5.44067515991628170013427734375">
        <ele>806.4000244140625</ele>
        <time>2019-07-08T12:12:57.000Z</time>
      </trkpt>
      <trkpt lat="42.54587824456393718719482421875" lon="-5.44089711271226406097412109375">
        <ele>807.20001220703125</ele>
        <time>2019-07-08T12:12:58.000Z</time>
      </trkpt>
      <trkpt lat="42.5463701784610748291015625" lon="-5.44136113487184047698974609375">
        <ele>808.4000244140625</ele>
        <time>2019-07-08T12:13:00.000Z</time>
      </trkpt>
      <trkpt lat="42.5466077215969562530517578125" lon="-5.4416037909686565399169921875">
        <ele>809.79998779296875</ele>
        <time>2019-07-08T12:13:01.000Z</time>
      </trkpt>
      <trkpt lat="42.54706730134785175323486328125" lon="-5.442105196416378021240234375">
        <ele>811</ele>
        <time>2019-07-08T12:13:03.000Z</time>
      </trkpt>
      <trkpt lat="42.5475052557885646820068359375" lon="-5.4426191747188568115234375">
        <ele>809.79998779296875</ele>
        <time>2019-07-08T12:13:05.000Z</time>
      </trkpt>
      <trkpt lat="42.54771354608237743377685546875" lon="-5.44288027100265026092529296875">
        <ele>808.5999755859375</ele>
        <time>2019-07-08T12:13:06.000Z</time>
      </trkpt>
      <trkpt lat="42.54791588522493839263916015625" lon="-5.44314480386674404144287109375">
        <ele>807.20001220703125</ele>
        <time>2019-07-08T12:13:07.000Z</time>
      </trkpt>
      <trkpt lat="42.54811269231140613555908203125" lon="-5.4434139467775821685791015625">
        <ele>805.5999755859375</ele>
        <time>2019-07-08T12:13:08.000Z</time>
      </trkpt>
      <trkpt lat="42.54849457181990146636962890625" lon="-5.44395701028406620025634765625">
        <ele>804.20001220703125</ele>
        <time>2019-07-08T12:13:10.000Z</time>
      </trkpt>
      <trkpt lat="42.548863627016544342041015625" lon="-5.4445223696529865264892578125">
        <ele>803.79998779296875</ele>
        <time>2019-07-08T12:13:12.000Z</time>
      </trkpt>
      <trkpt lat="42.54922279156744480133056640625" lon="-5.44511723332107067108154296875">
        <ele>803.20001220703125</ele>
        <time>2019-07-08T12:13:14.000Z</time>
      </trkpt>
      <trkpt lat="42.5495775975286960601806640625" lon="-5.44573548249900341033935546875">
        <ele>802.5999755859375</ele>
        <time>2019-07-08T12:13:16.000Z</time>
      </trkpt>
      <trkpt lat="42.5499179027974605560302734375" lon="-5.44638290069997310638427734375">
        <ele>803</ele>
        <time>2019-07-08T12:13:18.000Z</time>
      </trkpt>
      <trkpt lat="42.5502390973269939422607421875" lon="-5.44706166721880435943603515625">
        <ele>801.20001220703125</ele>
        <time>2019-07-08T12:13:20.000Z</time>
      </trkpt>
      <trkpt lat="42.55054696463048458099365234375" lon="-5.44776289723813533782958984375">
        <ele>800.79998779296875</ele>
        <time>2019-07-08T12:13:22.000Z</time>
      </trkpt>
      <trkpt lat="42.550694905221462249755859375" lon="-5.4481215588748455047607421875">
        <ele>799.79998779296875</ele>
        <time>2019-07-08T12:13:23.000Z</time>
      </trkpt>
      <trkpt lat="42.55097812972962856292724609375" lon="-5.448854304850101470947265625">
        <ele>799.5999755859375</ele>
        <time>2019-07-08T12:13:25.000Z</time>
      </trkpt>
      <trkpt lat="42.5511088036000728607177734375" lon="-5.44923224486410617828369140625">
        <ele>803.79998779296875</ele>
        <time>2019-07-08T12:13:26.000Z</time>
      </trkpt>
      <trkpt lat="42.55123461596667766571044921875" lon="-5.449615381658077239990234375">
        <ele>805.79998779296875</ele>
        <time>2019-07-08T12:13:27.000Z</time>
      </trkpt>
      <trkpt lat="42.55146059207618236541748046875" lon="-5.45039716176688671112060546875">
        <ele>802.79998779296875</ele>
        <time>2019-07-08T12:13:29.000Z</time>
      </trkpt>
      <trkpt lat="42.55156452767550945281982421875" lon="-5.4507923685014247894287109375">
        <ele>801</ele>
        <time>2019-07-08T12:13:30.000Z</time>
      </trkpt>
      <trkpt lat="42.551663182675838470458984375" lon="-5.451189167797565460205078125">
        <ele>795.5999755859375</ele>
        <time>2019-07-08T12:13:31.000Z</time>
      </trkpt>
      <trkpt lat="42.55175513215363025665283203125" lon="-5.451588816940784454345703125">
        <ele>792.79998779296875</ele>
        <time>2019-07-08T12:13:32.000Z</time>
      </trkpt>
      <trkpt lat="42.5518447346985340118408203125" lon="-5.45198880136013031005859375">
        <ele>790.4000244140625</ele>
        <time>2019-07-08T12:13:33.000Z</time>
      </trkpt>
      <trkpt lat="42.55200491286814212799072265625" lon="-5.4527906142175197601318359375">
        <ele>789.79998779296875</ele>
        <time>2019-07-08T12:13:35.000Z</time>
      </trkpt>
      <trkpt lat="42.552133910357952117919921875" lon="-5.4536026529967784881591796875">
        <ele>791.5999755859375</ele>
        <time>2019-07-08T12:13:37.000Z</time>
      </trkpt>
      <trkpt lat="42.55223910324275493621826171875" lon="-5.4544210620224475860595703125">
        <ele>792</ele>
        <time>2019-07-08T12:13:39.000Z</time>
      </trkpt>
      <trkpt lat="42.55234270356595516204833984375" lon="-5.45523737557232379913330078125">
        <ele>792.5999755859375</ele>
        <time>2019-07-08T12:13:41.000Z</time>
      </trkpt>
      <trkpt lat="42.55244781263172626495361328125" lon="-5.45605578459799289703369140625">
        <ele>793.5999755859375</ele>
        <time>2019-07-08T12:13:43.000Z</time>
      </trkpt>
      <trkpt lat="42.55256147123873233795166015625" lon="-5.45687419362366199493408203125">
        <ele>793.79998779296875</ele>
        <time>2019-07-08T12:13:45.000Z</time>
      </trkpt>
      <trkpt lat="42.55261578597128391265869140625" lon="-5.4572849906980991363525390625">
        <ele>795</ele>
        <time>2019-07-08T12:13:46.000Z</time>
      </trkpt>
      <trkpt lat="42.55266959778964519500732421875" lon="-5.457699559628963470458984375">
        <ele>798.4000244140625</ele>
        <time>2019-07-08T12:13:47.000Z</time>
      </trkpt>
      <trkpt lat="42.55272977985441684722900390625" lon="-5.4581116139888763427734375">
        <ele>804.4000244140625</ele>
        <time>2019-07-08T12:13:48.000Z</time>
      </trkpt>
      <trkpt lat="42.5527945719659328460693359375" lon="-5.4585248418152332305908203125">
        <ele>809.20001220703125</ele>
        <time>2019-07-08T12:13:49.000Z</time>
      </trkpt>
      <trkpt lat="42.55286489613354206085205078125" lon="-5.45893429778516292572021484375">
        <ele>811.79998779296875</ele>
        <time>2019-07-08T12:13:50.000Z</time>
      </trkpt>
      <trkpt lat="42.55293915979564189910888671875" lon="-5.45933964662253856658935546875">
        <ele>813</ele>
        <time>2019-07-08T12:13:51.000Z</time>
      </trkpt>
      <trkpt lat="42.55301476456224918365478515625" lon="-5.45974315144121646881103515625">
        <ele>810.5999755859375</ele>
        <time>2019-07-08T12:13:52.000Z</time>
      </trkpt>
      <trkpt lat="42.55309338681399822235107421875" lon="-5.4601442255079746246337890625">
        <ele>805.79998779296875</ele>
        <time>2019-07-08T12:13:53.000Z</time>
      </trkpt>
      <trkpt lat="42.55317703820765018463134765625" lon="-5.4605435393750667572021484375">
        <ele>801.79998779296875</ele>
        <time>2019-07-08T12:13:54.000Z</time>
      </trkpt>
      <trkpt lat="42.5532663054764270782470703125" lon="-5.46094042249023914337158203125">
        <ele>800</ele>
        <time>2019-07-08T12:13:55.000Z</time>
      </trkpt>
      <trkpt lat="42.553361691534519195556640625" lon="-5.46133361756801605224609375">
        <ele>798.79998779296875</ele>
        <time>2019-07-08T12:13:56.000Z</time>
      </trkpt>
      <trkpt lat="42.553463280200958251953125" lon="-5.46172329224646091461181640625">
        <ele>797.79998779296875</ele>
        <time>2019-07-08T12:13:57.000Z</time>
      </trkpt>
      <trkpt lat="42.5536756776273250579833984375" lon="-5.46249140985310077667236328125">
        <ele>796.4000244140625</ele>
        <time>2019-07-08T12:13:59.000Z</time>
      </trkpt>
      <trkpt lat="42.55389670841395854949951171875" lon="-5.4632405005395412445068359375">
        <ele>796</ele>
        <time>2019-07-08T12:14:01.000Z</time>
      </trkpt>
      <trkpt lat="42.55413190461695194244384765625" lon="-5.46396754682064056396484375">
        <ele>796.79998779296875</ele>
        <time>2019-07-08T12:14:03.000Z</time>
      </trkpt>
      <trkpt lat="42.55425411276519298553466796875" lon="-5.4643251188099384307861328125">
        <ele>798.20001220703125</ele>
        <time>2019-07-08T12:14:04.000Z</time>
      </trkpt>
      <trkpt lat="42.5543800927698612213134765625" lon="-5.46467925421893596649169921875">
        <ele>799.79998779296875</ele>
        <time>2019-07-08T12:14:05.000Z</time>
      </trkpt>
      <trkpt lat="42.55450992844998836517333984375" lon="-5.4650312103331089019775390625">
        <ele>801.20001220703125</ele>
        <time>2019-07-08T12:14:06.000Z</time>
      </trkpt>
      <trkpt lat="42.55464353598654270172119140625" lon="-5.46538174152374267578125">
        <ele>802.4000244140625</ele>
        <time>2019-07-08T12:14:07.000Z</time>
      </trkpt>
      <trkpt lat="42.5549215637147426605224609375" lon="-5.46607718802988529205322265625">
        <ele>804.4000244140625</ele>
        <time>2019-07-08T12:14:09.000Z</time>
      </trkpt>
      <trkpt lat="42.55521409213542938232421875" lon="-5.46676685102283954620361328125">
        <ele>806</ele>
        <time>2019-07-08T12:14:11.000Z</time>
      </trkpt>
      <trkpt lat="42.55552589893341064453125" lon="-5.467450730502605438232421875">
        <ele>806.79998779296875</ele>
        <time>2019-07-08T12:14:13.000Z</time>
      </trkpt>
      <trkpt lat="42.55585740320384502410888671875" lon="-5.46813092194497585296630859375">
        <ele>807.5999755859375</ele>
        <time>2019-07-08T12:14:15.000Z</time>
      </trkpt>
      <trkpt lat="42.5562117062509059906005859375" lon="-5.46880465932190418243408203125">
        <ele>807.5999755859375</ele>
        <time>2019-07-08T12:14:17.000Z</time>
      </trkpt>
      <trkpt lat="42.55658512003719806671142578125" lon="-5.4694712720811367034912109375">
        <ele>806.79998779296875</ele>
        <time>2019-07-08T12:14:19.000Z</time>
      </trkpt>
      <trkpt lat="42.5567779876291751861572265625" lon="-5.46980260871350765228271484375">
        <ele>805.79998779296875</ele>
        <time>2019-07-08T12:14:20.000Z</time>
      </trkpt>
      <trkpt lat="42.5571727752685546875" lon="-5.47045690007507801055908203125">
        <ele>807.20001220703125</ele>
        <time>2019-07-08T12:14:22.000Z</time>
      </trkpt>
      <trkpt lat="42.557376958429813385009765625" lon="-5.47077893279492855072021484375">
        <ele>808.5999755859375</ele>
        <time>2019-07-08T12:14:23.000Z</time>
      </trkpt>
      <trkpt lat="42.55758491344749927520751953125" lon="-5.471097528934478759765625">
        <ele>810.5999755859375</ele>
        <time>2019-07-08T12:14:24.000Z</time>
      </trkpt>
      <trkpt lat="42.55779462866485118865966796875" lon="-5.471411012113094329833984375">
        <ele>813</ele>
        <time>2019-07-08T12:14:25.000Z</time>
      </trkpt>
      <trkpt lat="42.55800467915832996368408203125" lon="-5.47171753831207752227783203125">
        <ele>815</ele>
        <time>2019-07-08T12:14:26.000Z</time>
      </trkpt>
      <trkpt lat="42.55821456201374530792236328125" lon="-5.47201610170304775238037109375">
        <ele>816.79998779296875</ele>
        <time>2019-07-08T12:14:27.000Z</time>
      </trkpt>
      <trkpt lat="42.55842545069754123687744140625" lon="-5.47230653464794158935546875">
        <ele>818.20001220703125</ele>
        <time>2019-07-08T12:14:28.000Z</time>
      </trkpt>
      <trkpt lat="42.55885276012122631072998046875" lon="-5.4728582315146923065185546875">
        <ele>819</ele>
        <time>2019-07-08T12:14:30.000Z</time>
      </trkpt>
      <trkpt lat="42.55906817503273487091064453125" lon="-5.4731241054832935333251953125">
        <ele>820</ele>
        <time>2019-07-08T12:14:31.000Z</time>
      </trkpt>
      <trkpt lat="42.55928459577262401580810546875" lon="-5.4733867943286895751953125">
        <ele>821.4000244140625</ele>
        <time>2019-07-08T12:14:32.000Z</time>
      </trkpt>
      <trkpt lat="42.55950252525508403778076171875" lon="-5.47364872880280017852783203125">
        <ele>823</ele>
        <time>2019-07-08T12:14:33.000Z</time>
      </trkpt>
      <trkpt lat="42.559723220765590667724609375" lon="-5.4739106632769107818603515625">
        <ele>824.4000244140625</ele>
        <time>2019-07-08T12:14:34.000Z</time>
      </trkpt>
      <trkpt lat="42.55994659848511219024658203125" lon="-5.47417226247489452362060546875">
        <ele>826.5999755859375</ele>
        <time>2019-07-08T12:14:35.000Z</time>
      </trkpt>
      <trkpt lat="42.5601726584136486053466796875" lon="-5.47443444840610027313232421875">
        <ele>829.4000244140625</ele>
        <time>2019-07-08T12:14:36.000Z</time>
      </trkpt>
      <trkpt lat="42.560399137437343597412109375" lon="-5.47469948418438434600830078125">
        <ele>833.4000244140625</ele>
        <time>2019-07-08T12:14:37.000Z</time>
      </trkpt>
      <trkpt lat="42.56062419153749942779541015625" lon="-5.474962927401065826416015625">
        <ele>838.79998779296875</ele>
        <time>2019-07-08T12:14:38.000Z</time>
      </trkpt>
      <trkpt lat="42.5608452223241329193115234375" lon="-5.47522955574095249176025390625">
        <ele>844.20001220703125</ele>
        <time>2019-07-08T12:14:39.000Z</time>
      </trkpt>
      <trkpt lat="42.5610597990453243255615234375" lon="-5.47550565563142299652099609375">
        <ele>847</ele>
        <time>2019-07-08T12:14:40.000Z</time>
      </trkpt>
      <trkpt lat="42.56126959808170795440673828125" lon="-5.47578929923474788665771484375">
        <ele>848.4000244140625</ele>
        <time>2019-07-08T12:14:41.000Z</time>
      </trkpt>
      <trkpt lat="42.5616721808910369873046875" lon="-5.47639464028179645538330078125">
        <ele>845.4000244140625</ele>
        <time>2019-07-08T12:14:43.000Z</time>
      </trkpt>
      <trkpt lat="42.56186672486364841461181640625" lon="-5.47672170214354991912841796875">
        <ele>841</ele>
        <time>2019-07-08T12:14:44.000Z</time>
      </trkpt>
      <trkpt lat="42.5620592571794986724853515625" lon="-5.4770629294216632843017578125">
        <ele>838.4000244140625</ele>
        <time>2019-07-08T12:14:45.000Z</time>
      </trkpt>
      <trkpt lat="42.56224818527698516845703125" lon="-5.47741102986037731170654296875">
        <ele>835.4000244140625</ele>
        <time>2019-07-08T12:14:46.000Z</time>
      </trkpt>
      <trkpt lat="42.5624310784041881561279296875" lon="-5.47776809893548488616943359375">
        <ele>832.79998779296875</ele>
        <time>2019-07-08T12:14:47.000Z</time>
      </trkpt>
      <trkpt lat="42.5627707131206989288330078125" lon="-5.47851123847067356109619140625">
        <ele>830</ele>
        <time>2019-07-08T12:14:49.000Z</time>
      </trkpt>
      <trkpt lat="42.5630738027393817901611328125" lon="-5.47928773798048496246337890625">
        <ele>828.20001220703125</ele>
        <time>2019-07-08T12:14:51.000Z</time>
      </trkpt>
      <trkpt lat="42.5633440352976322174072265625" lon="-5.48009525053203105926513671875">
        <ele>829.20001220703125</ele>
        <time>2019-07-08T12:14:53.000Z</time>
      </trkpt>
      <trkpt lat="42.5634714402258396148681640625" lon="-5.48050479032099246978759765625">
        <ele>829.5999755859375</ele>
        <time>2019-07-08T12:14:54.000Z</time>
      </trkpt>
      <trkpt lat="42.56369750015437602996826171875" lon="-5.48133216798305511474609375">
        <ele>828.79998779296875</ele>
        <time>2019-07-08T12:14:56.000Z</time>
      </trkpt>
      <trkpt lat="42.5637889467179775238037109375" lon="-5.48174950294196605682373046875">
        <ele>827</ele>
        <time>2019-07-08T12:14:57.000Z</time>
      </trkpt>
      <trkpt lat="42.5638684071600437164306640625" lon="-5.4821656644344329833984375">
        <ele>826</ele>
        <time>2019-07-08T12:14:58.000Z</time>
      </trkpt>
      <trkpt lat="42.56399656645953655242919921875" lon="-5.482994131743907928466796875">
        <ele>825.20001220703125</ele>
        <time>2019-07-08T12:15:00.000Z</time>
      </trkpt>
      <trkpt lat="42.56404459476470947265625" lon="-5.483404509723186492919921875">
        <ele>823.79998779296875</ele>
        <time>2019-07-08T12:15:01.000Z</time>
      </trkpt>
      <trkpt lat="42.56410938687622547149658203125" lon="-5.4842121899127960205078125">
        <ele>827.20001220703125</ele>
        <time>2019-07-08T12:15:03.000Z</time>
      </trkpt>
      <trkpt lat="42.5641369633376598358154296875" lon="-5.48501324839890003204345703125">
        <ele>829.5999755859375</ele>
        <time>2019-07-08T12:15:05.000Z</time>
      </trkpt>
      <trkpt lat="42.5641346164047718048095703125" lon="-5.48541675321757793426513671875">
        <ele>830.5999755859375</ele>
        <time>2019-07-08T12:15:06.000Z</time>
      </trkpt>
      <trkpt lat="42.56412128917872905731201171875" lon="-5.48582377843558788299560546875">
        <ele>832.5999755859375</ele>
        <time>2019-07-08T12:15:07.000Z</time>
      </trkpt>
      <trkpt lat="42.5641004182398319244384765625" lon="-5.48623365350067615509033203125">
        <ele>835</ele>
        <time>2019-07-08T12:15:08.000Z</time>
      </trkpt>
      <trkpt lat="42.564073093235492706298828125" lon="-5.4866464622318744659423828125">
        <ele>837.20001220703125</ele>
        <time>2019-07-08T12:15:09.000Z</time>
      </trkpt>
      <trkpt lat="42.56403730250895023345947265625" lon="-5.48706161789596080780029296875">
        <ele>838.5999755859375</ele>
        <time>2019-07-08T12:15:10.000Z</time>
      </trkpt>
      <trkpt lat="42.56399053148925304412841796875" lon="-5.487477444112300872802734375">
        <ele>839.5999755859375</ele>
        <time>2019-07-08T12:15:11.000Z</time>
      </trkpt>
      <trkpt lat="42.56386547349393367767333984375" lon="-5.4883097670972347259521484375">
        <ele>841</ele>
        <time>2019-07-08T12:15:13.000Z</time>
      </trkpt>
      <trkpt lat="42.5637031160295009613037109375" lon="-5.4891372285783290863037109375">
        <ele>840.5999755859375</ele>
        <time>2019-07-08T12:15:15.000Z</time>
      </trkpt>
      <trkpt lat="42.56349985487759113311767578125" lon="-5.4899536259472370147705078125">
        <ele>839</ele>
        <time>2019-07-08T12:15:17.000Z</time>
      </trkpt>
      <trkpt lat="42.5632739625871181488037109375" lon="-5.49074680544435977935791015625">
        <ele>838.79998779296875</ele>
        <time>2019-07-08T12:15:19.000Z</time>
      </trkpt>
      <trkpt lat="42.56304153241217136383056640625" lon="-5.49153068102896213531494140625">
        <ele>839.79998779296875</ele>
        <time>2019-07-08T12:15:21.000Z</time>
      </trkpt>
      <trkpt lat="42.5629301369190216064453125" lon="-5.49192060716450214385986328125">
        <ele>841.4000244140625</ele>
        <time>2019-07-08T12:15:22.000Z</time>
      </trkpt>
      <trkpt lat="42.56282310001552104949951171875" lon="-5.49230952747166156768798828125">
        <ele>842.5999755859375</ele>
        <time>2019-07-08T12:15:23.000Z</time>
      </trkpt>
      <trkpt lat="42.562616653740406036376953125" lon="-5.49308669753372669219970703125">
        <ele>844.20001220703125</ele>
        <time>2019-07-08T12:15:25.000Z</time>
      </trkpt>
      <trkpt lat="42.56251783110201358795166015625" lon="-5.49347930587828159332275390625">
        <ele>845.4000244140625</ele>
        <time>2019-07-08T12:15:26.000Z</time>
      </trkpt>
      <trkpt lat="42.56233510561287403106689453125" lon="-5.49427676014602184295654296875">
        <ele>848.20001220703125</ele>
        <time>2019-07-08T12:15:28.000Z</time>
      </trkpt>
      <trkpt lat="42.56225564517080783843994140625" lon="-5.4946826957166194915771484375">
        <ele>849.5999755859375</ele>
        <time>2019-07-08T12:15:29.000Z</time>
      </trkpt>
      <trkpt lat="42.5621843151748180389404296875" lon="-5.4950937442481517791748046875">
        <ele>851.4000244140625</ele>
        <time>2019-07-08T12:15:30.000Z</time>
      </trkpt>
      <trkpt lat="42.56206755526363849639892578125" lon="-5.4959280788898468017578125">
        <ele>852.5999755859375</ele>
        <time>2019-07-08T12:15:32.000Z</time>
      </trkpt>
      <trkpt lat="42.5619806349277496337890625" lon="-5.4967805184423923492431640625">
        <ele>851.5999755859375</ele>
        <time>2019-07-08T12:15:34.000Z</time>
      </trkpt>
      <trkpt lat="42.561945430934429168701171875" lon="-5.49721092917025089263916015625">
        <ele>850.20001220703125</ele>
        <time>2019-07-08T12:15:35.000Z</time>
      </trkpt>
      <trkpt lat="42.56189011037349700927734375" lon="-5.4980756901204586029052734375">
        <ele>848.5999755859375</ele>
        <time>2019-07-08T12:15:37.000Z</time>
      </trkpt>
      <trkpt lat="42.56186387501657009124755859375" lon="-5.4989333264529705047607421875">
        <ele>848</ele>
        <time>2019-07-08T12:15:39.000Z</time>
      </trkpt>
      <trkpt lat="42.5618604384362697601318359375" lon="-5.4997738637030124664306640625">
        <ele>847.79998779296875</ele>
        <time>2019-07-08T12:15:41.000Z</time>
      </trkpt>
      <trkpt lat="42.56188231520354747772216796875" lon="-5.50059889443218708038330078125">
        <ele>848.20001220703125</ele>
        <time>2019-07-08T12:15:43.000Z</time>
      </trkpt>
      <trkpt lat="42.56192573346197605133056640625" lon="-5.50141914747655391693115234375">
        <ele>849.5999755859375</ele>
        <time>2019-07-08T12:15:45.000Z</time>
      </trkpt>
      <trkpt lat="42.5619539804756641387939453125" lon="-5.5018334649503231048583984375">
        <ele>850.5999755859375</ele>
        <time>2019-07-08T12:15:46.000Z</time>
      </trkpt>
      <trkpt lat="42.5619898550212383270263671875" lon="-5.5022508837282657623291015625">
        <ele>852</ele>
        <time>2019-07-08T12:15:47.000Z</time>
      </trkpt>
      <trkpt lat="42.56208532489836215972900390625" lon="-5.50308748148381710052490234375">
        <ele>853.20001220703125</ele>
        <time>2019-07-08T12:15:49.000Z</time>
      </trkpt>
      <trkpt lat="42.56219923496246337890625" lon="-5.5039185471832752227783203125">
        <ele>853.79998779296875</ele>
        <time>2019-07-08T12:15:51.000Z</time>
      </trkpt>
      <trkpt lat="42.56233292631804943084716796875" lon="-5.50473972223699092864990234375">
        <ele>854.20001220703125</ele>
        <time>2019-07-08T12:15:53.000Z</time>
      </trkpt>
      <trkpt lat="42.56247508339583873748779296875" lon="-5.5055572092533111572265625">
        <ele>856</ele>
        <time>2019-07-08T12:15:55.000Z</time>
      </trkpt>
      <trkpt lat="42.5625467486679553985595703125" lon="-5.50596532411873340606689453125">
        <ele>858.79998779296875</ele>
        <time>2019-07-08T12:15:56.000Z</time>
      </trkpt>
      <trkpt lat="42.5626163184642791748046875" lon="-5.5063751153647899627685546875">
        <ele>861</ele>
        <time>2019-07-08T12:15:57.000Z</time>
      </trkpt>
      <trkpt lat="42.5626842118799686431884765625" lon="-5.50678658299148082733154296875">
        <ele>863.4000244140625</ele>
        <time>2019-07-08T12:15:58.000Z</time>
      </trkpt>
      <trkpt lat="42.56275285966694355010986328125" lon="-5.5072014033794403076171875">
        <ele>864.5999755859375</ele>
        <time>2019-07-08T12:15:59.000Z</time>
      </trkpt>
      <trkpt lat="42.56290004588663578033447265625" lon="-5.50803079269826412200927734375">
        <ele>863.4000244140625</ele>
        <time>2019-07-08T12:16:01.000Z</time>
      </trkpt>
      <trkpt lat="42.56303600035607814788818359375" lon="-5.5088709108531475067138671875">
        <ele>861.20001220703125</ele>
        <time>2019-07-08T12:16:03.000Z</time>
      </trkpt>
      <trkpt lat="42.563094086945056915283203125" lon="-5.50929897464811801910400390625">
        <ele>858.79998779296875</ele>
        <time>2019-07-08T12:16:04.000Z</time>
      </trkpt>
      <trkpt lat="42.5631495751440525054931640625" lon="-5.509727708995342254638671875">
        <ele>855.79998779296875</ele>
        <time>2019-07-08T12:16:05.000Z</time>
      </trkpt>
      <trkpt lat="42.56320246495306491851806640625" lon="-5.51015778444707393646240234375">
        <ele>853.20001220703125</ele>
        <time>2019-07-08T12:16:06.000Z</time>
      </trkpt>
      <trkpt lat="42.5632521696388721466064453125" lon="-5.51059112884104251861572265625">
        <ele>851.20001220703125</ele>
        <time>2019-07-08T12:16:07.000Z</time>
      </trkpt>
      <trkpt lat="42.5632967613637447357177734375" lon="-5.511028580367565155029296875">
        <ele>850</ele>
        <time>2019-07-08T12:16:08.000Z</time>
      </trkpt>
      <trkpt lat="42.5633701868355274200439453125" lon="-5.51191429607570171356201171875">
        <ele>848.79998779296875</ele>
        <time>2019-07-08T12:16:10.000Z</time>
      </trkpt>
      <trkpt lat="42.5634265132248401641845703125" lon="-5.512816943228244781494140625">
        <ele>848.5999755859375</ele>
        <time>2019-07-08T12:16:12.000Z</time>
      </trkpt>
      <trkpt lat="42.5634700991213321685791015625" lon="-5.51373149268329143524169921875">
        <ele>847.79998779296875</ele>
        <time>2019-07-08T12:16:14.000Z</time>
      </trkpt>
      <trkpt lat="42.56349666975438594818115234375" lon="-5.51463874988257884979248046875">
        <ele>847.5999755859375</ele>
        <time>2019-07-08T12:16:16.000Z</time>
      </trkpt>
      <trkpt lat="42.56349633447825908660888671875" lon="-5.5155237950384616851806640625">
        <ele>847.79998779296875</ele>
        <time>2019-07-08T12:16:18.000Z</time>
      </trkpt>
      <trkpt lat="42.56348594091832637786865234375" lon="-5.5164045654237270355224609375">
        <ele>849</ele>
        <time>2019-07-08T12:16:20.000Z</time>
      </trkpt>
      <trkpt lat="42.56347931921482086181640625" lon="-5.516845285892486572265625">
        <ele>850.4000244140625</ele>
        <time>2019-07-08T12:16:21.000Z</time>
      </trkpt>
      <trkpt lat="42.563471607863903045654296875" lon="-5.51728743128478527069091796875">
        <ele>851.4000244140625</ele>
        <time>2019-07-08T12:16:22.000Z</time>
      </trkpt>
      <trkpt lat="42.5634620524942874908447265625" lon="-5.51773083396255970001220703125">
        <ele>852.5999755859375</ele>
        <time>2019-07-08T12:16:23.000Z</time>
      </trkpt>
      <trkpt lat="42.5634405948221683502197265625" lon="-5.51861931569874286651611328125">
        <ele>853.5999755859375</ele>
        <time>2019-07-08T12:16:25.000Z</time>
      </trkpt>
      <trkpt lat="42.56341737695038318634033203125" lon="-5.5195045284926891326904296875">
        <ele>853.4000244140625</ele>
        <time>2019-07-08T12:16:27.000Z</time>
      </trkpt>
      <trkpt lat="42.5633946619927883148193359375" lon="-5.5203856341540813446044921875">
        <ele>851.5999755859375</ele>
        <time>2019-07-08T12:16:29.000Z</time>
      </trkpt>
      <trkpt lat="42.563385777175426483154296875" lon="-5.5208198167383670806884765625">
        <ele>850.79998779296875</ele>
        <time>2019-07-08T12:16:30.000Z</time>
      </trkpt>
      <trkpt lat="42.563373707234859466552734375" lon="-5.52167401649057865142822265625">
        <ele>851</ele>
        <time>2019-07-08T12:16:32.000Z</time>
      </trkpt>
      <trkpt lat="42.563370354473590850830078125" lon="-5.52252285182476043701171875">
        <ele>852.5999755859375</ele>
        <time>2019-07-08T12:16:34.000Z</time>
      </trkpt>
      <trkpt lat="42.563375048339366912841796875" lon="-5.52338141016662120819091796875">
        <ele>853.20001220703125</ele>
        <time>2019-07-08T12:16:36.000Z</time>
      </trkpt>
      <trkpt lat="42.56337764672935009002685546875" lon="-5.523813664913177490234375">
        <ele>854.4000244140625</ele>
        <time>2019-07-08T12:16:37.000Z</time>
      </trkpt>
      <trkpt lat="42.56338133476674556732177734375" lon="-5.5242455005645751953125">
        <ele>856</ele>
        <time>2019-07-08T12:16:38.000Z</time>
      </trkpt>
      <trkpt lat="42.56338736973702907562255859375" lon="-5.5246778391301631927490234375">
        <ele>857.4000244140625</ele>
        <time>2019-07-08T12:16:39.000Z</time>
      </trkpt>
      <trkpt lat="42.56339541636407375335693359375" lon="-5.52511026151478290557861328125">
        <ele>861.5999755859375</ele>
        <time>2019-07-08T12:16:40.000Z</time>
      </trkpt>
      <trkpt lat="42.5634067319333553314208984375" lon="-5.5255425162613391876220703125">
        <ele>869.5999755859375</ele>
        <time>2019-07-08T12:16:41.000Z</time>
      </trkpt>
      <trkpt lat="42.56342056207358837127685546875" lon="-5.52597544156014919281005859375">
        <ele>880.4000244140625</ele>
        <time>2019-07-08T12:16:42.000Z</time>
      </trkpt>
      <trkpt lat="42.56343564949929714202880859375" lon="-5.52641012705862522125244140625">
        <ele>889</ele>
        <time>2019-07-08T12:16:43.000Z</time>
      </trkpt>
      <trkpt lat="42.563451491296291351318359375" lon="-5.526844896376132965087890625">
        <ele>895.79998779296875</ele>
        <time>2019-07-08T12:16:44.000Z</time>
      </trkpt>
      <trkpt lat="42.56346699781715869903564453125" lon="-5.52728100679814815521240234375">
        <ele>899.20001220703125</ele>
        <time>2019-07-08T12:16:45.000Z</time>
      </trkpt>
      <trkpt lat="42.56348325870931148529052734375" lon="-5.52771770395338535308837890625">
        <ele>901</ele>
        <time>2019-07-08T12:16:46.000Z</time>
      </trkpt>
      <trkpt lat="42.56352399475872516632080078125" lon="-5.5285911820828914642333984375">
        <ele>901.4000244140625</ele>
        <time>2019-07-08T12:16:48.000Z</time>
      </trkpt>
      <trkpt lat="42.563573531806468963623046875" lon="-5.52945963107049465179443359375">
        <ele>900.20001220703125</ele>
        <time>2019-07-08T12:16:50.000Z</time>
      </trkpt>
      <trkpt lat="42.5635998509824275970458984375" lon="-5.52989096380770206451416015625">
        <ele>899.4000244140625</ele>
        <time>2019-07-08T12:16:51.000Z</time>
      </trkpt>
      <trkpt lat="42.5636534951627254486083984375" lon="-5.53075111471116542816162109375">
        <ele>898</ele>
        <time>2019-07-08T12:16:53.000Z</time>
      </trkpt>
      <trkpt lat="42.56371325813233852386474609375" lon="-5.53160707466304302215576171875">
        <ele>895.4000244140625</ele>
        <time>2019-07-08T12:16:55.000Z</time>
      </trkpt>
      <trkpt lat="42.56374477408826351165771484375" lon="-5.53202784620225429534912109375">
        <ele>891.79998779296875</ele>
        <time>2019-07-08T12:16:56.000Z</time>
      </trkpt>
      <trkpt lat="42.5637782178819179534912109375" lon="-5.53243788890540599822998046875">
        <ele>883</ele>
        <time>2019-07-08T12:16:57.000Z</time>
      </trkpt>
      <trkpt lat="42.563812918961048126220703125" lon="-5.53283753804862499237060546875">
        <ele>871.79998779296875</ele>
        <time>2019-07-08T12:16:58.000Z</time>
      </trkpt>
      <trkpt lat="42.56384736858308315277099609375" lon="-5.533227883279323577880859375">
        <ele>861.5999755859375</ele>
        <time>2019-07-08T12:16:59.000Z</time>
      </trkpt>
      <trkpt lat="42.56388156674802303314208984375" lon="-5.5336089245975017547607421875">
        <ele>856.5999755859375</ele>
        <time>2019-07-08T12:17:00.000Z</time>
      </trkpt>
      <trkpt lat="42.56394845433533191680908203125" lon="-5.53435818292200565338134765625">
        <ele>860.20001220703125</ele>
        <time>2019-07-08T12:17:02.000Z</time>
      </trkpt>
      <trkpt lat="42.563984580338001251220703125" lon="-5.5347274057567119598388671875">
        <ele>861.4000244140625</ele>
        <time>2019-07-08T12:17:03.000Z</time>
      </trkpt>
      <trkpt lat="42.56402288563549518585205078125" lon="-5.5350965447723865509033203125">
        <ele>864.79998779296875</ele>
        <time>2019-07-08T12:17:04.000Z</time>
      </trkpt>
      <trkpt lat="42.5640621967613697052001953125" lon="-5.53546392358839511871337890625">
        <ele>866.5999755859375</ele>
        <time>2019-07-08T12:17:05.000Z</time>
      </trkpt>
      <trkpt lat="42.56414291448891162872314453125" lon="-5.53619809448719024658203125">
        <ele>868</ele>
        <time>2019-07-08T12:17:07.000Z</time>
      </trkpt>
      <trkpt lat="42.5642338581383228302001953125" lon="-5.53692757152020931243896484375">
        <ele>868.4000244140625</ele>
        <time>2019-07-08T12:17:09.000Z</time>
      </trkpt>
      <trkpt lat="42.56432346068322658538818359375" lon="-5.53766216151416301727294921875">
        <ele>867</ele>
        <time>2019-07-08T12:17:11.000Z</time>
      </trkpt>
      <trkpt lat="42.56436889059841632843017578125" lon="-5.53802811540663242340087890625">
        <ele>864.79998779296875</ele>
        <time>2019-07-08T12:17:12.000Z</time>
      </trkpt>
      <trkpt lat="42.5644155777990818023681640625" lon="-5.53839071653783321380615234375">
        <ele>863.20001220703125</ele>
        <time>2019-07-08T12:17:13.000Z</time>
      </trkpt>
      <trkpt lat="42.56446545012295246124267578125" lon="-5.53874795325100421905517578125">
        <ele>859</ele>
        <time>2019-07-08T12:17:14.000Z</time>
      </trkpt>
      <trkpt lat="42.5645158253610134124755859375" lon="-5.53910032846033573150634765625">
        <ele>853.79998779296875</ele>
        <time>2019-07-08T12:17:15.000Z</time>
      </trkpt>
      <trkpt lat="42.5645671226084232330322265625" lon="-5.5394444055855274200439453125">
        <ele>847.5999755859375</ele>
        <time>2019-07-08T12:17:16.000Z</time>
      </trkpt>
      <trkpt lat="42.5646227784454822540283203125" lon="-5.5397763289511203765869140625">
        <ele>844.79998779296875</ele>
        <time>2019-07-08T12:17:17.000Z</time>
      </trkpt>
      <trkpt lat="42.5646851398050785064697265625" lon="-5.54009626619517803192138671875">
        <ele>843.4000244140625</ele>
        <time>2019-07-08T12:17:18.000Z</time>
      </trkpt>
      <trkpt lat="42.56475646980106830596923828125" lon="-5.54040606133639812469482421875">
        <ele>840.79998779296875</ele>
        <time>2019-07-08T12:17:19.000Z</time>
      </trkpt>
      <trkpt lat="42.5648390315473079681396484375" lon="-5.54070713929831981658935546875">
        <ele>839</ele>
        <time>2019-07-08T12:17:20.000Z</time>
      </trkpt>
      <trkpt lat="42.56492930464446544647216796875" lon="-5.54099413566291332244873046875">
        <ele>837.79998779296875</ele>
        <time>2019-07-08T12:17:21.000Z</time>
      </trkpt>
      <trkpt lat="42.5652245990931987762451171875" lon="-5.54179309867322444915771484375">
        <ele>837.5999755859375</ele>
        <time>2019-07-08T12:17:24.000Z</time>
      </trkpt>
      <trkpt lat="42.56545342504978179931640625" lon="-5.5422701127827167510986328125">
        <ele>839.4000244140625</ele>
        <time>2019-07-08T12:17:26.000Z</time>
      </trkpt>
      <trkpt lat="42.56584770977497100830078125" lon="-5.542933456599712371826171875">
        <ele>840</ele>
        <time>2019-07-08T12:17:29.000Z</time>
      </trkpt>
      <trkpt lat="42.56630368530750274658203125" lon="-5.54350736550986766815185546875">
        <ele>839</ele>
        <time>2019-07-08T12:17:32.000Z</time>
      </trkpt>
      <trkpt lat="42.5664748437702655792236328125" lon="-5.5436719022691249847412109375">
        <ele>838.4000244140625</ele>
        <time>2019-07-08T12:17:33.000Z</time>
      </trkpt>
      <trkpt lat="42.56704355590045452117919921875" lon="-5.54408689029514789581298828125">
        <ele>839.4000244140625</ele>
        <time>2019-07-08T12:17:36.000Z</time>
      </trkpt>
      <trkpt lat="42.56766549311578273773193359375" lon="-5.54437606595456600189208984375">
        <ele>837.5999755859375</ele>
        <time>2019-07-08T12:17:39.000Z</time>
      </trkpt>
      <trkpt lat="42.5678793154656887054443359375" lon="-5.544434823095798492431640625">
        <ele>836.20001220703125</ele>
        <time>2019-07-08T12:17:40.000Z</time>
      </trkpt>
      <trkpt lat="42.56831928156316280364990234375" lon="-5.54449240677058696746826171875">
        <ele>834.4000244140625</ele>
        <time>2019-07-08T12:17:42.000Z</time>
      </trkpt>
      <trkpt lat="42.56854307837784290313720703125" lon="-5.544501207768917083740234375">
        <ele>833.20001220703125</ele>
        <time>2019-07-08T12:17:43.000Z</time>
      </trkpt>
      <trkpt lat="42.5687666237354278564453125" lon="-5.544506572186946868896484375">
        <ele>832</ele>
        <time>2019-07-08T12:17:44.000Z</time>
      </trkpt>
      <trkpt lat="42.568988241255283355712890625" lon="-5.54451185278594493865966796875">
        <ele>830.79998779296875</ele>
        <time>2019-07-08T12:17:45.000Z</time>
      </trkpt>
      <trkpt lat="42.5692086853086948394775390625" lon="-5.54452274926006793975830078125">
        <ele>829.5999755859375</ele>
        <time>2019-07-08T12:17:46.000Z</time>
      </trkpt>
      <trkpt lat="42.56942569278180599212646484375" lon="-5.54454638622701168060302734375">
        <ele>828.5999755859375</ele>
        <time>2019-07-08T12:17:47.000Z</time>
      </trkpt>
      <trkpt lat="42.57006322033703327178955078125" lon="-5.54474755190312862396240234375">
        <ele>828.79998779296875</ele>
        <time>2019-07-08T12:17:50.000Z</time>
      </trkpt>
      <trkpt lat="42.57026572711765766143798828125" lon="-5.54486095905303955078125">
        <ele>830</ele>
        <time>2019-07-08T12:17:51.000Z</time>
      </trkpt>
      <trkpt lat="42.570456750690937042236328125" lon="-5.54498878307640552520751953125">
        <ele>831</ele>
        <time>2019-07-08T12:17:52.000Z</time>
      </trkpt>
      <trkpt lat="42.5706386379897594451904296875" lon="-5.54513412527740001678466796875">
        <ele>832.5999755859375</ele>
        <time>2019-07-08T12:17:53.000Z</time>
      </trkpt>
      <trkpt lat="42.57080954499542713165283203125" lon="-5.54529614746570587158203125">
        <ele>834.5999755859375</ele>
        <time>2019-07-08T12:17:54.000Z</time>
      </trkpt>
      <trkpt lat="42.57096938788890838623046875" lon="-5.5454770289361476898193359375">
        <ele>836</ele>
        <time>2019-07-08T12:17:55.000Z</time>
      </trkpt>
      <trkpt lat="42.57111498154699802398681640625" lon="-5.54567970335483551025390625">
        <ele>837.20001220703125</ele>
        <time>2019-07-08T12:17:56.000Z</time>
      </trkpt>
      <trkpt lat="42.571378089487552642822265625" lon="-5.54613173939287662506103515625">
        <ele>839.20001220703125</ele>
        <time>2019-07-08T12:17:58.000Z</time>
      </trkpt>
      <trkpt lat="42.571606747806072235107421875" lon="-5.54663322865962982177734375">
        <ele>840.5999755859375</ele>
        <time>2019-07-08T12:18:00.000Z</time>
      </trkpt>
      <trkpt lat="42.5718060694634914398193359375" lon="-5.5471805669367313385009765625">
        <ele>840.79998779296875</ele>
        <time>2019-07-08T12:18:02.000Z</time>
      </trkpt>
      <trkpt lat="42.572014443576335906982421875" lon="-5.547750033438205718994140625">
        <ele>840.4000244140625</ele>
        <time>2019-07-08T12:18:04.000Z</time>
      </trkpt>
      <trkpt lat="42.57228978909552097320556640625" lon="-5.5482933484017848968505859375">
        <ele>839.5999755859375</ele>
        <time>2019-07-08T12:18:06.000Z</time>
      </trkpt>
      <trkpt lat="42.57262892089784145355224609375" lon="-5.54879383184015750885009765625">
        <ele>839.20001220703125</ele>
        <time>2019-07-08T12:18:08.000Z</time>
      </trkpt>
      <trkpt lat="42.57281265221536159515380859375" lon="-5.5490329675376415252685546875">
        <ele>838.5999755859375</ele>
        <time>2019-07-08T12:18:09.000Z</time>
      </trkpt>
      <trkpt lat="42.57300593890249729156494140625" lon="-5.5492569319903850555419921875">
        <ele>837.20001220703125</ele>
        <time>2019-07-08T12:18:10.000Z</time>
      </trkpt>
      <trkpt lat="42.573394440114498138427734375" lon="-5.54966940544545650482177734375">
        <ele>837</ele>
        <time>2019-07-08T12:18:12.000Z</time>
      </trkpt>
      <trkpt lat="42.5737743079662322998046875" lon="-5.5500872433185577392578125">
        <ele>834.79998779296875</ele>
        <time>2019-07-08T12:18:14.000Z</time>
      </trkpt>
      <trkpt lat="42.57395728491246700286865234375" lon="-5.55030760355293750762939453125">
        <ele>833</ele>
        <time>2019-07-08T12:18:15.000Z</time>
      </trkpt>
      <trkpt lat="42.57429624907672405242919921875" lon="-5.5507753975689411163330078125">
        <ele>834.20001220703125</ele>
        <time>2019-07-08T12:18:17.000Z</time>
      </trkpt>
      <trkpt lat="42.57460604421794414520263671875" lon="-5.55128074251115322113037109375">
        <ele>834.20001220703125</ele>
        <time>2019-07-08T12:18:19.000Z</time>
      </trkpt>
      <trkpt lat="42.57487392984330654144287109375" lon="-5.55181601084768772125244140625">
        <ele>835</ele>
        <time>2019-07-08T12:18:21.000Z</time>
      </trkpt>
      <trkpt lat="42.57499161176383495330810546875" lon="-5.55209646932780742645263671875">
        <ele>835.20001220703125</ele>
        <time>2019-07-08T12:18:22.000Z</time>
      </trkpt>
      <trkpt lat="42.57520266808569431304931640625" lon="-5.55268068797886371612548828125">
        <ele>834.79998779296875</ele>
        <time>2019-07-08T12:18:24.000Z</time>
      </trkpt>
      <trkpt lat="42.575376927852630615234375" lon="-5.5532924830913543701171875">
        <ele>836</ele>
        <time>2019-07-08T12:18:26.000Z</time>
      </trkpt>
      <trkpt lat="42.57551212795078754425048828125" lon="-5.55393462069332599639892578125">
        <ele>834.79998779296875</ele>
        <time>2019-07-08T12:18:28.000Z</time>
      </trkpt>
      <trkpt lat="42.57560667581856250762939453125" lon="-5.554599724709987640380859375">
        <ele>833.5999755859375</ele>
        <time>2019-07-08T12:18:30.000Z</time>
      </trkpt>
      <trkpt lat="42.57563618011772632598876953125" lon="-5.5549388565123081207275390625">
        <ele>832.20001220703125</ele>
        <time>2019-07-08T12:18:31.000Z</time>
      </trkpt>
      <trkpt lat="42.575653530657291412353515625" lon="-5.55527907796204090118408203125">
        <ele>830.79998779296875</ele>
        <time>2019-07-08T12:18:32.000Z</time>
      </trkpt>
      <trkpt lat="42.575655877590179443359375" lon="-5.55596287362277507781982421875">
        <ele>829</ele>
        <time>2019-07-08T12:18:34.000Z</time>
      </trkpt>
      <trkpt lat="42.5756389461457729339599609375" lon="-5.5563077889382839202880859375">
        <ele>828</ele>
        <time>2019-07-08T12:18:35.000Z</time>
      </trkpt>
      <trkpt lat="42.575570046901702880859375" lon="-5.5570004694163799285888671875">
        <ele>825.5999755859375</ele>
        <time>2019-07-08T12:18:37.000Z</time>
      </trkpt>
      <trkpt lat="42.57551707327365875244140625" lon="-5.55734404362738132476806640625">
        <ele>824.4000244140625</ele>
        <time>2019-07-08T12:18:38.000Z</time>
      </trkpt>
      <trkpt lat="42.575449012219905853271484375" lon="-5.55768200196325778961181640625">
        <ele>822.79998779296875</ele>
        <time>2019-07-08T12:18:39.000Z</time>
      </trkpt>
      <trkpt lat="42.57536728866398334503173828125" lon="-5.55801384150981903076171875">
        <ele>821.5999755859375</ele>
        <time>2019-07-08T12:18:40.000Z</time>
      </trkpt>
      <trkpt lat="42.5752771832048892974853515625" lon="-5.55833461694419384002685546875">
        <ele>820.4000244140625</ele>
        <time>2019-07-08T12:18:41.000Z</time>
      </trkpt>
      <trkpt lat="42.5751802884042263031005859375" lon="-5.5586433224380016326904296875">
        <ele>819</ele>
        <time>2019-07-08T12:18:42.000Z</time>
      </trkpt>
      <trkpt lat="42.57496361620724201202392578125" lon="-5.55924070067703723907470703125">
        <ele>818</ele>
        <time>2019-07-08T12:18:44.000Z</time>
      </trkpt>
      <trkpt lat="42.57470394484698772430419921875" lon="-5.55981016717851161956787109375">
        <ele>816.79998779296875</ele>
        <time>2019-07-08T12:18:46.000Z</time>
      </trkpt>
      <trkpt lat="42.57455726154148578643798828125" lon="-5.56008459068834781646728515625">
        <ele>815.79998779296875</ele>
        <time>2019-07-08T12:18:47.000Z</time>
      </trkpt>
      <trkpt lat="42.5742405094206333160400390625" lon="-5.5606164224445819854736328125">
        <ele>813.5999755859375</ele>
        <time>2019-07-08T12:18:49.000Z</time>
      </trkpt>
      <trkpt lat="42.574082426726818084716796875" lon="-5.5608688853681087493896484375">
        <ele>812.5999755859375</ele>
        <time>2019-07-08T12:18:50.000Z</time>
      </trkpt>
      <trkpt lat="42.57377875037491321563720703125" lon="-5.56134539656341075897216796875">
        <ele>811.79998779296875</ele>
        <time>2019-07-08T12:18:52.000Z</time>
      </trkpt>
      <trkpt lat="42.57350063882768154144287109375" lon="-5.56179466657340526580810546875">
        <ele>814.5999755859375</ele>
        <time>2019-07-08T12:18:54.000Z</time>
      </trkpt>
      <trkpt lat="42.57336703129112720489501953125" lon="-5.56202433072030544281005859375">
        <ele>816.4000244140625</ele>
        <time>2019-07-08T12:18:55.000Z</time>
      </trkpt>
      <trkpt lat="42.57323141209781169891357421875" lon="-5.56226170621812343597412109375">
        <ele>818</ele>
        <time>2019-07-08T12:18:56.000Z</time>
      </trkpt>
      <trkpt lat="42.5730958767235279083251953125" lon="-5.56251064874231815338134765625">
        <ele>819</ele>
        <time>2019-07-08T12:18:57.000Z</time>
      </trkpt>
      <trkpt lat="42.5728316791355609893798828125" lon="-5.56304574944078922271728515625">
        <ele>821.4000244140625</ele>
        <time>2019-07-08T12:18:59.000Z</time>
      </trkpt>
      <trkpt lat="42.57270209491252899169921875" lon="-5.56333400309085845947265625">
        <ele>823.79998779296875</ele>
        <time>2019-07-08T12:19:00.000Z</time>
      </trkpt>
      <trkpt lat="42.5725785456597805023193359375" lon="-5.56363097392022609710693359375">
        <ele>827</ele>
        <time>2019-07-08T12:19:01.000Z</time>
      </trkpt>
      <trkpt lat="42.57246010936796665191650390625" lon="-5.5639380030333995819091796875">
        <ele>829.20001220703125</ele>
        <time>2019-07-08T12:19:02.000Z</time>
      </trkpt>
      <trkpt lat="42.5723473727703094482421875" lon="-5.56425173766911029815673828125">
        <ele>830.79998779296875</ele>
        <time>2019-07-08T12:19:03.000Z</time>
      </trkpt>
      <trkpt lat="42.57224301807582378387451171875" lon="-5.5645653046667575836181640625">
        <ele>832</ele>
        <time>2019-07-08T12:19:04.000Z</time>
      </trkpt>
      <trkpt lat="42.57206347770988941192626953125" lon="-5.565168969333171844482421875">
        <ele>833</ele>
        <time>2019-07-08T12:19:06.000Z</time>
      </trkpt>
      <trkpt lat="42.57198753766715526580810546875" lon="-5.56545621715486049652099609375">
        <ele>833.5999755859375</ele>
        <time>2019-07-08T12:19:07.000Z</time>
      </trkpt>
      <trkpt lat="42.5717893056571483612060546875" lon="-5.56631636805832386016845703125">
        <ele>834.20001220703125</ele>
        <time>2019-07-08T12:19:10.000Z</time>
      </trkpt>
      <trkpt lat="42.5716494955122470855712890625" lon="-5.56718490086495876312255859375">
        <ele>831.5999755859375</ele>
        <time>2019-07-08T12:19:13.000Z</time>
      </trkpt>
      <trkpt lat="42.57161135785281658172607421875" lon="-5.567481033504009246826171875">
        <ele>829.79998779296875</ele>
        <time>2019-07-08T12:19:14.000Z</time>
      </trkpt>
      <trkpt lat="42.57155285216867923736572265625" lon="-5.56808964349329471588134765625">
        <ele>828.20001220703125</ele>
        <time>2019-07-08T12:19:16.000Z</time>
      </trkpt>
      <trkpt lat="42.571517564356327056884765625" lon="-5.56872717104852199554443359375">
        <ele>826.20001220703125</ele>
        <time>2019-07-08T12:19:18.000Z</time>
      </trkpt>
      <trkpt lat="42.5715080089867115020751953125" lon="-5.569056831300258636474609375">
        <ele>825.20001220703125</ele>
        <time>2019-07-08T12:19:19.000Z</time>
      </trkpt>
      <trkpt lat="42.57150524295866489410400390625" lon="-5.56939302943646907806396484375">
        <ele>824</ele>
        <time>2019-07-08T12:19:20.000Z</time>
      </trkpt>
      <trkpt lat="42.57151496596634387969970703125" lon="-5.57008109986782073974609375">
        <ele>822</ele>
        <time>2019-07-08T12:19:22.000Z</time>
      </trkpt>
      <trkpt lat="42.5715227611362934112548828125" lon="-5.57043054141104221343994140625">
        <ele>820.79998779296875</ele>
        <time>2019-07-08T12:19:23.000Z</time>
      </trkpt>
      <trkpt lat="42.571531645953655242919921875" lon="-5.57113520801067352294921875">
        <ele>820.20001220703125</ele>
        <time>2019-07-08T12:19:25.000Z</time>
      </trkpt>
      <trkpt lat="42.5715291313827037811279296875" lon="-5.5714927799999713897705078125">
        <ele>819.5999755859375</ele>
        <time>2019-07-08T12:19:26.000Z</time>
      </trkpt>
      <trkpt lat="42.57150306366384029388427734375" lon="-5.572225190699100494384765625">
        <ele>819.79998779296875</ele>
        <time>2019-07-08T12:19:28.000Z</time>
      </trkpt>
      <trkpt lat="42.571442462503910064697265625" lon="-5.57296983897686004638671875">
        <ele>820.20001220703125</ele>
        <time>2019-07-08T12:19:30.000Z</time>
      </trkpt>
      <trkpt lat="42.57136275060474872589111328125" lon="-5.57368121109902858734130859375">
        <ele>820.4000244140625</ele>
        <time>2019-07-08T12:19:32.000Z</time>
      </trkpt>
      <trkpt lat="42.5713138841092586517333984375" lon="-5.5740234442055225372314453125">
        <ele>821</ele>
        <time>2019-07-08T12:19:33.000Z</time>
      </trkpt>
      <trkpt lat="42.57120005786418914794921875" lon="-5.5746990256011486053466796875">
        <ele>821.79998779296875</ele>
        <time>2019-07-08T12:19:35.000Z</time>
      </trkpt>
      <trkpt lat="42.5711348466575145721435546875" lon="-5.57503589428961277008056640625">
        <ele>822</ele>
        <time>2019-07-08T12:19:36.000Z</time>
      </trkpt>
      <trkpt lat="42.570989839732646942138671875" lon="-5.57570309378206729888916015625">
        <ele>822.20001220703125</ele>
        <time>2019-07-08T12:19:38.000Z</time>
      </trkpt>
      <trkpt lat="42.5708180107176303863525390625" lon="-5.57633374817669391632080078125">
        <ele>821.5999755859375</ele>
        <time>2019-07-08T12:19:40.000Z</time>
      </trkpt>
      <trkpt lat="42.5706305913627147674560546875" lon="-5.57691964320838451385498046875">
        <ele>822</ele>
        <time>2019-07-08T12:19:42.000Z</time>
      </trkpt>
      <trkpt lat="42.57044099271297454833984375" lon="-5.57749195955693721771240234375">
        <ele>823</ele>
        <time>2019-07-08T12:19:44.000Z</time>
      </trkpt>
      <trkpt lat="42.57025131024420261383056640625" lon="-5.578069388866424560546875">
        <ele>823.20001220703125</ele>
        <time>2019-07-08T12:19:46.000Z</time>
      </trkpt>
      <trkpt lat="42.57007311098277568817138671875" lon="-5.5786633305251598358154296875">
        <ele>823.79998779296875</ele>
        <time>2019-07-08T12:19:48.000Z</time>
      </trkpt>
      <trkpt lat="42.56991217844188213348388671875" lon="-5.5792584456503391265869140625">
        <ele>823.4000244140625</ele>
        <time>2019-07-08T12:19:50.000Z</time>
      </trkpt>
      <trkpt lat="42.56983841769397258758544921875" lon="-5.57955256663262844085693359375">
        <ele>824.20001220703125</ele>
        <time>2019-07-08T12:19:51.000Z</time>
      </trkpt>
      <trkpt lat="42.56970128975808620452880859375" lon="-5.58014282025396823883056640625">
        <ele>826.20001220703125</ele>
        <time>2019-07-08T12:19:53.000Z</time>
      </trkpt>
      <trkpt lat="42.5695771537721157073974609375" lon="-5.5807259492576122283935546875">
        <ele>827.79998779296875</ele>
        <time>2019-07-08T12:19:55.000Z</time>
      </trkpt>
      <trkpt lat="42.56947514601051807403564453125" lon="-5.581303797662258148193359375">
        <ele>829</ele>
        <time>2019-07-08T12:19:57.000Z</time>
      </trkpt>
      <trkpt lat="42.56932544521987438201904296875" lon="-5.58218599297106266021728515625">
        <ele>829.4000244140625</ele>
        <time>2019-07-08T12:20:00.000Z</time>
      </trkpt>
      <trkpt lat="42.56922268308699131011962890625" lon="-5.5827996321022510528564453125">
        <ele>829.20001220703125</ele>
        <time>2019-07-08T12:20:02.000Z</time>
      </trkpt>
      <trkpt lat="42.5691174902021884918212890625" lon="-5.5834353156387805938720703125">
        <ele>827.4000244140625</ele>
        <time>2019-07-08T12:20:04.000Z</time>
      </trkpt>
      <trkpt lat="42.5689957849681377410888671875" lon="-5.58408767916262149810791015625">
        <ele>826</ele>
        <time>2019-07-08T12:20:06.000Z</time>
      </trkpt>
      <trkpt lat="42.56885186769068241119384765625" lon="-5.58475420810282230377197265625">
        <ele>824.4000244140625</ele>
        <time>2019-07-08T12:20:08.000Z</time>
      </trkpt>
      <trkpt lat="42.56877425126731395721435546875" lon="-5.585094429552555084228515625">
        <ele>823</ele>
        <time>2019-07-08T12:20:09.000Z</time>
      </trkpt>
      <trkpt lat="42.56869294680655002593994140625" lon="-5.58543540537357330322265625">
        <ele>821.79998779296875</ele>
        <time>2019-07-08T12:20:10.000Z</time>
      </trkpt>
      <trkpt lat="42.56860460154712200164794921875" lon="-5.5857755430042743682861328125">
        <ele>820.5999755859375</ele>
        <time>2019-07-08T12:20:11.000Z</time>
      </trkpt>
      <trkpt lat="42.5685091316699981689453125" lon="-5.58611400425434112548828125">
        <ele>819.4000244140625</ele>
        <time>2019-07-08T12:20:12.000Z</time>
      </trkpt>
      <trkpt lat="42.5683020986616611480712890625" lon="-5.58677575550973415374755859375">
        <ele>818.5999755859375</ele>
        <time>2019-07-08T12:20:14.000Z</time>
      </trkpt>
      <trkpt lat="42.568102441728115081787109375" lon="-5.58739702217280864715576171875">
        <ele>819.4000244140625</ele>
        <time>2019-07-08T12:20:16.000Z</time>
      </trkpt>
      <trkpt lat="42.567912675440311431884765625" lon="-5.58799012564122676849365234375">
        <ele>820.20001220703125</ele>
        <time>2019-07-08T12:20:18.000Z</time>
      </trkpt>
      <trkpt lat="42.567818798124790191650390625" lon="-5.5882850848138332366943359375">
        <ele>821</ele>
        <time>2019-07-08T12:20:19.000Z</time>
      </trkpt>
      <trkpt lat="42.5677301175892353057861328125" lon="-5.58858255855739116668701171875">
        <ele>822</ele>
        <time>2019-07-08T12:20:20.000Z</time>
      </trkpt>
      <trkpt lat="42.567644454538822174072265625" lon="-5.58888078667223453521728515625">
        <ele>824.20001220703125</ele>
        <time>2019-07-08T12:20:21.000Z</time>
      </trkpt>
      <trkpt lat="42.56756298243999481201171875" lon="-5.58918722905218601226806640625">
        <ele>826</ele>
        <time>2019-07-08T12:20:22.000Z</time>
      </trkpt>
      <trkpt lat="42.56742342375218868255615234375" lon="-5.5898303724825382232666015625">
        <ele>827.79998779296875</ele>
        <time>2019-07-08T12:20:24.000Z</time>
      </trkpt>
      <trkpt lat="42.5673059932887554168701171875" lon="-5.59050603769719600677490234375">
        <ele>828.5999755859375</ele>
        <time>2019-07-08T12:20:26.000Z</time>
      </trkpt>
      <trkpt lat="42.56725394167006015777587890625" lon="-5.59085355140268802642822265625">
        <ele>829.5999755859375</ele>
        <time>2019-07-08T12:20:27.000Z</time>
      </trkpt>
      <trkpt lat="42.56716509349644184112548828125" lon="-5.59156685136258602142333984375">
        <ele>831.79998779296875</ele>
        <time>2019-07-08T12:20:29.000Z</time>
      </trkpt>
      <trkpt lat="42.5671319849789142608642578125" lon="-5.5919285304844379425048828125">
        <ele>833.79998779296875</ele>
        <time>2019-07-08T12:20:30.000Z</time>
      </trkpt>
      <trkpt lat="42.56710725836455821990966796875" lon="-5.59229490347206592559814453125">
        <ele>835.79998779296875</ele>
        <time>2019-07-08T12:20:31.000Z</time>
      </trkpt>
      <trkpt lat="42.56709351204335689544677734375" lon="-5.59266588650643825531005859375">
        <ele>838</ele>
        <time>2019-07-08T12:20:32.000Z</time>
      </trkpt>
      <trkpt lat="42.56708814762532711029052734375" lon="-5.59303938411176204681396484375">
        <ele>839.20001220703125</ele>
        <time>2019-07-08T12:20:33.000Z</time>
      </trkpt>
      <trkpt lat="42.56709082983434200286865234375" lon="-5.593411289155483245849609375">
        <ele>841</ele>
        <time>2019-07-08T12:20:34.000Z</time>
      </trkpt>
      <trkpt lat="42.56710231304168701171875" lon="-5.59377866797149181365966796875">
        <ele>843</ele>
        <time>2019-07-08T12:20:35.000Z</time>
      </trkpt>
      <trkpt lat="42.56715201772749423980712890625" lon="-5.5945004336535930633544921875">
        <ele>844.20001220703125</ele>
        <time>2019-07-08T12:20:37.000Z</time>
      </trkpt>
      <trkpt lat="42.56722963415086269378662109375" lon="-5.59521214105188846588134765625">
        <ele>844.20001220703125</ele>
        <time>2019-07-08T12:20:39.000Z</time>
      </trkpt>
      <trkpt lat="42.56733625195920467376708984375" lon="-5.595921166241168975830078125">
        <ele>843.5999755859375</ele>
        <time>2019-07-08T12:20:41.000Z</time>
      </trkpt>
      <trkpt lat="42.56740607321262359619140625" lon="-5.5962722003459930419921875">
        <ele>843.20001220703125</ele>
        <time>2019-07-08T12:20:42.000Z</time>
      </trkpt>
      <trkpt lat="42.5675618089735507965087890625" lon="-5.59697016142308712005615234375">
        <ele>843.4000244140625</ele>
        <time>2019-07-08T12:20:44.000Z</time>
      </trkpt>
      <trkpt lat="42.5677606277167797088623046875" lon="-5.59766217134892940521240234375">
        <ele>842.5999755859375</ele>
        <time>2019-07-08T12:20:46.000Z</time>
      </trkpt>
      <trkpt lat="42.56799305789172649383544921875" lon="-5.59834345243871212005615234375">
        <ele>841.79998779296875</ele>
        <time>2019-07-08T12:20:48.000Z</time>
      </trkpt>
      <trkpt lat="42.56824753247201442718505859375" lon="-5.59899657033383846282958984375">
        <ele>841.5999755859375</ele>
        <time>2019-07-08T12:20:50.000Z</time>
      </trkpt>
      <trkpt lat="42.56838164292275905609130859375" lon="-5.59932011179625988006591796875">
        <ele>843.20001220703125</ele>
        <time>2019-07-08T12:20:51.000Z</time>
      </trkpt>
      <trkpt lat="42.56852078251540660858154296875" lon="-5.59964532963931560516357421875">
        <ele>845.20001220703125</ele>
        <time>2019-07-08T12:20:52.000Z</time>
      </trkpt>
      <trkpt lat="42.5687973015010356903076171875" lon="-5.6003100983798503875732421875">
        <ele>848.20001220703125</ele>
        <time>2019-07-08T12:20:54.000Z</time>
      </trkpt>
      <trkpt lat="42.56893535144627094268798828125" lon="-5.60065166093409061431884765625">
        <ele>849.4000244140625</ele>
        <time>2019-07-08T12:20:55.000Z</time>
      </trkpt>
      <trkpt lat="42.56921145133674144744873046875" lon="-5.60134626924991607666015625">
        <ele>849</ele>
        <time>2019-07-08T12:20:57.000Z</time>
      </trkpt>
      <trkpt lat="42.56935411132872104644775390625" lon="-5.6016934476792812347412109375">
        <ele>847</ele>
        <time>2019-07-08T12:20:58.000Z</time>
      </trkpt>
      <trkpt lat="42.56950096227228641510009765625" lon="-5.60204087756574153900146484375">
        <ele>843.79998779296875</ele>
        <time>2019-07-08T12:20:59.000Z</time>
      </trkpt>
      <trkpt lat="42.5696509145200252532958984375" lon="-5.6023881398141384124755859375">
        <ele>841.4000244140625</ele>
        <time>2019-07-08T12:21:00.000Z</time>
      </trkpt>
      <trkpt lat="42.5698054768145084381103515625" lon="-5.60273406095802783966064453125">
        <ele>837.79998779296875</ele>
        <time>2019-07-08T12:21:01.000Z</time>
      </trkpt>
      <trkpt lat="42.569960542023181915283203125" lon="-5.60308023355901241302490234375">
        <ele>835.5999755859375</ele>
        <time>2019-07-08T12:21:02.000Z</time>
      </trkpt>
      <trkpt lat="42.57011485286056995391845703125" lon="-5.60342900454998016357421875">
        <ele>834.5999755859375</ele>
        <time>2019-07-08T12:21:03.000Z</time>
      </trkpt>
      <trkpt lat="42.5704163499176502227783203125" lon="-5.60414372943341732025146484375">
        <ele>833.79998779296875</ele>
        <time>2019-07-08T12:21:05.000Z</time>
      </trkpt>
      <trkpt lat="42.57071860134601593017578125" lon="-5.60486130416393280029296875">
        <ele>835.20001220703125</ele>
        <time>2019-07-08T12:21:07.000Z</time>
      </trkpt>
      <trkpt lat="42.57086939178407192230224609375" lon="-5.60522046871483325958251953125">
        <ele>837.5999755859375</ele>
        <time>2019-07-08T12:21:08.000Z</time>
      </trkpt>
      <trkpt lat="42.571018002927303314208984375" lon="-5.60558189637959003448486328125">
        <ele>839.79998779296875</ele>
        <time>2019-07-08T12:21:09.000Z</time>
      </trkpt>
      <trkpt lat="42.57116644643247127532958984375" lon="-5.6059430725872516632080078125">
        <ele>840.79998779296875</ele>
        <time>2019-07-08T12:21:10.000Z</time>
      </trkpt>
      <trkpt lat="42.5713147222995758056640625" lon="-5.60630341060459613800048828125">
        <ele>842</ele>
        <time>2019-07-08T12:21:11.000Z</time>
      </trkpt>
      <trkpt lat="42.57146299816668033599853515625" lon="-5.60666249133646488189697265625">
        <ele>843.4000244140625</ele>
        <time>2019-07-08T12:21:12.000Z</time>
      </trkpt>
      <trkpt lat="42.57161152549088001251220703125" lon="-5.60701989568769931793212890625">
        <ele>845.4000244140625</ele>
        <time>2019-07-08T12:21:13.000Z</time>
      </trkpt>
      <trkpt lat="42.57190623320639133453369140625" lon="-5.60772699303925037384033203125">
        <ele>846.20001220703125</ele>
        <time>2019-07-08T12:21:15.000Z</time>
      </trkpt>
      <trkpt lat="42.57205308414995670318603515625" lon="-5.60807727277278900146484375">
        <ele>847.5999755859375</ele>
        <time>2019-07-08T12:21:16.000Z</time>
      </trkpt>
      <trkpt lat="42.5723468698561191558837890625" lon="-5.60876886360347270965576171875">
        <ele>847.79998779296875</ele>
        <time>2019-07-08T12:21:18.000Z</time>
      </trkpt>
      <trkpt lat="42.57262875325977802276611328125" lon="-5.6094487197697162628173828125">
        <ele>848.20001220703125</ele>
        <time>2019-07-08T12:21:20.000Z</time>
      </trkpt>
      <trkpt lat="42.5727683119475841522216796875" lon="-5.60978642664849758148193359375">
        <ele>850</ele>
        <time>2019-07-08T12:21:21.000Z</time>
      </trkpt>
      <trkpt lat="42.5729074515402317047119140625" lon="-5.61012111604213714599609375">
        <ele>852.4000244140625</ele>
        <time>2019-07-08T12:21:22.000Z</time>
      </trkpt>
      <trkpt lat="42.57304583676159381866455078125" lon="-5.61045262031257152557373046875">
        <ele>854.79998779296875</ele>
        <time>2019-07-08T12:21:23.000Z</time>
      </trkpt>
      <trkpt lat="42.5731833837926387786865234375" lon="-5.6107804365456104278564453125">
        <ele>856</ele>
        <time>2019-07-08T12:21:24.000Z</time>
      </trkpt>
      <trkpt lat="42.57331992499530315399169921875" lon="-5.611106492578983306884765625">
        <ele>857.5999755859375</ele>
        <time>2019-07-08T12:21:25.000Z</time>
      </trkpt>
      <trkpt lat="42.5735930912196636199951171875" lon="-5.61175868846476078033447265625">
        <ele>859.4000244140625</ele>
        <time>2019-07-08T12:21:27.000Z</time>
      </trkpt>
      <trkpt lat="42.5737287104129791259765625" lon="-5.61208575032651424407958984375">
        <ele>861.20001220703125</ele>
        <time>2019-07-08T12:21:28.000Z</time>
      </trkpt>
      <trkpt lat="42.5738655030727386474609375" lon="-5.61241214163601398468017578125">
        <ele>862.4000244140625</ele>
        <time>2019-07-08T12:21:29.000Z</time>
      </trkpt>
      <trkpt lat="42.574001289904117584228515625" lon="-5.61273937113583087921142578125">
        <ele>864</ele>
        <time>2019-07-08T12:21:30.000Z</time>
      </trkpt>
      <trkpt lat="42.5741365738213062286376953125" lon="-5.61306777410209178924560546875">
        <ele>865.5999755859375</ele>
        <time>2019-07-08T12:21:31.000Z</time>
      </trkpt>
      <trkpt lat="42.5744126737117767333984375" lon="-5.61372407712042331695556640625">
        <ele>867.20001220703125</ele>
        <time>2019-07-08T12:21:33.000Z</time>
      </trkpt>
      <trkpt lat="42.57455105893313884735107421875" lon="-5.61405281536281108856201171875">
        <ele>868.20001220703125</ele>
        <time>2019-07-08T12:21:34.000Z</time>
      </trkpt>
      <trkpt lat="42.57468936033546924591064453125" lon="-5.61438239179551601409912109375">
        <ele>869.5999755859375</ele>
        <time>2019-07-08T12:21:35.000Z</time>
      </trkpt>
      <trkpt lat="42.57482849992811679840087890625" lon="-5.61471247114241123199462890625">
        <ele>871.5999755859375</ele>
        <time>2019-07-08T12:21:36.000Z</time>
      </trkpt>
      <trkpt lat="42.57496613077819347381591796875" lon="-5.61504431068897247314453125">
        <ele>872.5999755859375</ele>
        <time>2019-07-08T12:21:37.000Z</time>
      </trkpt>
      <trkpt lat="42.57523720152676105499267578125" lon="-5.61570405028760433197021484375">
        <ele>871.5999755859375</ele>
        <time>2019-07-08T12:21:39.000Z</time>
      </trkpt>
      <trkpt lat="42.57550726644694805145263671875" lon="-5.61635934747755527496337890625">
        <ele>870.4000244140625</ele>
        <time>2019-07-08T12:21:41.000Z</time>
      </trkpt>
      <trkpt lat="42.57577054202556610107421875" lon="-5.61701816506683826446533203125">
        <ele>869.79998779296875</ele>
        <time>2019-07-08T12:21:43.000Z</time>
      </trkpt>
      <trkpt lat="42.5760070793330669403076171875" lon="-5.61769701540470123291015625">
        <ele>872</ele>
        <time>2019-07-08T12:21:45.000Z</time>
      </trkpt>
      <trkpt lat="42.57621469907462596893310546875" lon="-5.61840637587010860443115234375">
        <ele>873.4000244140625</ele>
        <time>2019-07-08T12:21:47.000Z</time>
      </trkpt>
      <trkpt lat="42.5763089954853057861328125" lon="-5.61877333559095859527587890625">
        <ele>874.4000244140625</ele>
        <time>2019-07-08T12:21:48.000Z</time>
      </trkpt>
      <trkpt lat="42.57647386752068996429443359375" lon="-5.61952988617122173309326171875">
        <ele>876</ele>
        <time>2019-07-08T12:21:50.000Z</time>
      </trkpt>
      <trkpt lat="42.57660294882953166961669921875" lon="-5.62031057663261890411376953125">
        <ele>877</ele>
        <time>2019-07-08T12:21:52.000Z</time>
      </trkpt>
      <trkpt lat="42.57665391080081462860107421875" lon="-5.62070754356682300567626953125">
        <ele>877.5999755859375</ele>
        <time>2019-07-08T12:21:53.000Z</time>
      </trkpt>
      <trkpt lat="42.576728761196136474609375" lon="-5.62150633893907070159912109375">
        <ele>877.4000244140625</ele>
        <time>2019-07-08T12:21:55.000Z</time>
      </trkpt>
      <trkpt lat="42.57676564157009124755859375" lon="-5.6222981773316860198974609375">
        <ele>879.5999755859375</ele>
        <time>2019-07-08T12:21:57.000Z</time>
      </trkpt>
      <trkpt lat="42.576766647398471832275390625" lon="-5.62268684618175029754638671875">
        <ele>881</ele>
        <time>2019-07-08T12:21:58.000Z</time>
      </trkpt>
      <trkpt lat="42.57675751112401485443115234375" lon="-5.62307207845151424407958984375">
        <ele>882.20001220703125</ele>
        <time>2019-07-08T12:21:59.000Z</time>
      </trkpt>
      <trkpt lat="42.57671224884688854217529296875" lon="-5.6238370947539806365966796875">
        <ele>884.20001220703125</ele>
        <time>2019-07-08T12:22:01.000Z</time>
      </trkpt>
      <trkpt lat="42.57667654193937778472900390625" lon="-5.624219812452793121337890625">
        <ele>886</ele>
        <time>2019-07-08T12:22:02.000Z</time>
      </trkpt>
      <trkpt lat="42.576578892767429351806640625" lon="-5.6249854154884815216064453125">
        <ele>887.4000244140625</ele>
        <time>2019-07-08T12:22:04.000Z</time>
      </trkpt>
      <trkpt lat="42.5764466263353824615478515625" lon="-5.62574422918260097503662109375">
        <ele>889</ele>
        <time>2019-07-08T12:22:06.000Z</time>
      </trkpt>
      <trkpt lat="42.57627546787261962890625" lon="-5.6264965049922466278076171875">
        <ele>889.79998779296875</ele>
        <time>2019-07-08T12:22:08.000Z</time>
      </trkpt>
      <trkpt lat="42.576176561415195465087890625" lon="-5.62686975114047527313232421875">
        <ele>890.20001220703125</ele>
        <time>2019-07-08T12:22:09.000Z</time>
      </trkpt>
      <trkpt lat="42.575950920581817626953125" lon="-5.6276029162108898162841796875">
        <ele>891.5999755859375</ele>
        <time>2019-07-08T12:22:11.000Z</time>
      </trkpt>
      <trkpt lat="42.5756952725350856781005859375" lon="-5.62829266302287578582763671875">
        <ele>892.5999755859375</ele>
        <time>2019-07-08T12:22:13.000Z</time>
      </trkpt>
      <trkpt lat="42.57541825063526630401611328125" lon="-5.62895290553569793701171875">
        <ele>893.20001220703125</ele>
        <time>2019-07-08T12:22:15.000Z</time>
      </trkpt>
      <trkpt lat="42.5751162506639957427978515625" lon="-5.62958515249192714691162109375">
        <ele>891.4000244140625</ele>
        <time>2019-07-08T12:22:17.000Z</time>
      </trkpt>
      <trkpt lat="42.5748017616569995880126953125" lon="-5.63021077774465084075927734375">
        <ele>890.20001220703125</ele>
        <time>2019-07-08T12:22:19.000Z</time>
      </trkpt>
      <trkpt lat="42.5744869373738765716552734375" lon="-5.6308423541486263275146484375">
        <ele>889.20001220703125</ele>
        <time>2019-07-08T12:22:21.000Z</time>
      </trkpt>
      <trkpt lat="42.574324496090412139892578125" lon="-5.63115759752690792083740234375">
        <ele>889.20001220703125</ele>
        <time>2019-07-08T12:22:22.000Z</time>
      </trkpt>
      <trkpt lat="42.5740038044750690460205078125" lon="-5.63179512508213520050048828125">
        <ele>890.20001220703125</ele>
        <time>2019-07-08T12:22:24.000Z</time>
      </trkpt>
      <trkpt lat="42.57384513504803180694580078125" lon="-5.6321164034307003021240234375">
        <ele>893.20001220703125</ele>
        <time>2019-07-08T12:22:25.000Z</time>
      </trkpt>
      <trkpt lat="42.57368571124970912933349609375" lon="-5.63243868760764598846435546875">
        <ele>895.20001220703125</ele>
        <time>2019-07-08T12:22:26.000Z</time>
      </trkpt>
      <trkpt lat="42.57353316061198711395263671875" lon="-5.63275837339460849761962890625">
        <ele>896.20001220703125</ele>
        <time>2019-07-08T12:22:27.000Z</time>
      </trkpt>
      <trkpt lat="42.5732512772083282470703125" lon="-5.63337796367704868316650390625">
        <ele>896.20001220703125</ele>
        <time>2019-07-08T12:22:29.000Z</time>
      </trkpt>
      <trkpt lat="42.57311808876693248748779296875" lon="-5.63368725590407848358154296875">
        <ele>895</ele>
        <time>2019-07-08T12:22:30.000Z</time>
      </trkpt>
      <trkpt lat="42.57285741157829761505126953125" lon="-5.63432042486965656280517578125">
        <ele>893.79998779296875</ele>
        <time>2019-07-08T12:22:32.000Z</time>
      </trkpt>
      <trkpt lat="42.57259924896061420440673828125" lon="-5.63497035764157772064208984375">
        <ele>892.4000244140625</ele>
        <time>2019-07-08T12:22:34.000Z</time>
      </trkpt>
      <trkpt lat="42.57234762422740459442138671875" lon="-5.6356354616582393646240234375">
        <ele>893.20001220703125</ele>
        <time>2019-07-08T12:22:36.000Z</time>
      </trkpt>
      <trkpt lat="42.5721180438995361328125" lon="-5.6363050080835819244384765625">
        <ele>893.20001220703125</ele>
        <time>2019-07-08T12:22:38.000Z</time>
      </trkpt>
      <trkpt lat="42.5719034671783447265625" lon="-5.63697564415633678436279296875">
        <ele>893.20001220703125</ele>
        <time>2019-07-08T12:22:40.000Z</time>
      </trkpt>
      <trkpt lat="42.57170355878770351409912109375" lon="-5.63765801489353179931640625">
        <ele>893.5999755859375</ele>
        <time>2019-07-08T12:22:42.000Z</time>
      </trkpt>
      <trkpt lat="42.57151613943278789520263671875" lon="-5.63834759406745433807373046875">
        <ele>893.4000244140625</ele>
        <time>2019-07-08T12:22:44.000Z</time>
      </trkpt>
      <trkpt lat="42.5714262016117572784423828125" lon="-5.63869443722069263458251953125">
        <ele>894.79998779296875</ele>
        <time>2019-07-08T12:22:45.000Z</time>
      </trkpt>
      <trkpt lat="42.57125562988221645355224609375" lon="-5.63938728533685207366943359375">
        <ele>896.5999755859375</ele>
        <time>2019-07-08T12:22:47.000Z</time>
      </trkpt>
      <trkpt lat="42.57109486497938632965087890625" lon="-5.6400726735591888427734375">
        <ele>895.4000244140625</ele>
        <time>2019-07-08T12:22:49.000Z</time>
      </trkpt>
      <trkpt lat="42.571019344031810760498046875" lon="-5.6404148228466510772705078125">
        <ele>894.4000244140625</ele>
        <time>2019-07-08T12:22:50.000Z</time>
      </trkpt>
      <trkpt lat="42.57094918750226497650146484375" lon="-5.6407574750483036041259765625">
        <ele>891.4000244140625</ele>
        <time>2019-07-08T12:22:51.000Z</time>
      </trkpt>
      <trkpt lat="42.5708850659430027008056640625" lon="-5.641101300716400146484375">
        <ele>889.5999755859375</ele>
        <time>2019-07-08T12:22:52.000Z</time>
      </trkpt>
      <trkpt lat="42.5707720778882503509521484375" lon="-5.6417850963771343231201171875">
        <ele>888</ele>
        <time>2019-07-08T12:22:54.000Z</time>
      </trkpt>
      <trkpt lat="42.57066135294735431671142578125" lon="-5.6424670480191707611083984375">
        <ele>889</ele>
        <time>2019-07-08T12:22:56.000Z</time>
      </trkpt>
      <trkpt lat="42.5706067867577075958251953125" lon="-5.64280475489795207977294921875">
        <ele>889.79998779296875</ele>
        <time>2019-07-08T12:22:57.000Z</time>
      </trkpt>
      <trkpt lat="42.570501677691936492919921875" lon="-5.64347262494266033172607421875">
        <ele>890.4000244140625</ele>
        <time>2019-07-08T12:22:59.000Z</time>
      </trkpt>
      <trkpt lat="42.57044878788292407989501953125" lon="-5.6438037939369678497314453125">
        <ele>891.79998779296875</ele>
        <time>2019-07-08T12:23:00.000Z</time>
      </trkpt>
      <trkpt lat="42.5703975744545459747314453125" lon="-5.6441283412277698516845703125">
        <ele>893.79998779296875</ele>
        <time>2019-07-08T12:23:01.000Z</time>
      </trkpt>
      <trkpt lat="42.57034770213067531585693359375" lon="-5.64444526098668575286865234375">
        <ele>896.20001220703125</ele>
        <time>2019-07-08T12:23:02.000Z</time>
      </trkpt>
      <trkpt lat="42.57029858417809009552001953125" lon="-5.64475723542273044586181640625">
        <ele>897.5999755859375</ele>
        <time>2019-07-08T12:23:03.000Z</time>
      </trkpt>
      <trkpt lat="42.57020068354904651641845703125" lon="-5.6453752331435680389404296875">
        <ele>898</ele>
        <time>2019-07-08T12:23:05.000Z</time>
      </trkpt>
      <trkpt lat="42.570104040205478668212890625" lon="-5.64598971046507358551025390625">
        <ele>897.4000244140625</ele>
        <time>2019-07-08T12:23:07.000Z</time>
      </trkpt>
      <trkpt lat="42.5700036250054836273193359375" lon="-5.6466036848723888397216796875">
        <ele>896.5999755859375</ele>
        <time>2019-07-08T12:23:09.000Z</time>
      </trkpt>
      <trkpt lat="42.56995308212935924530029296875" lon="-5.646903924643993377685546875">
        <ele>896.4000244140625</ele>
        <time>2019-07-08T12:23:10.000Z</time>
      </trkpt>
      <trkpt lat="42.56980665028095245361328125" lon="-5.64774446189403533935546875">
        <ele>897.79998779296875</ele>
        <time>2019-07-08T12:23:13.000Z</time>
      </trkpt>
      <trkpt lat="42.56971369497478008270263671875" lon="-5.64825835637748241424560546875">
        <ele>898.79998779296875</ele>
        <time>2019-07-08T12:23:15.000Z</time>
      </trkpt>
      <trkpt lat="42.56957329809665679931640625" lon="-5.6490004062652587890625">
        <ele>900</ele>
        <time>2019-07-08T12:23:18.000Z</time>
      </trkpt>
      <trkpt lat="42.56942502222955226898193359375" lon="-5.649718903005123138427734375">
        <ele>901.20001220703125</ele>
        <time>2019-07-08T12:23:21.000Z</time>
      </trkpt>
      <trkpt lat="42.5693427957594394683837890625" lon="-5.650119222700595855712890625">
        <ele>902.79998779296875</ele>
        <time>2019-07-08T12:23:23.000Z</time>
      </trkpt>
      <trkpt lat="42.5692841224372386932373046875" lon="-5.65047620795667171478271484375">
        <ele>904.5999755859375</ele>
        <time>2019-07-08T12:23:25.000Z</time>
      </trkpt>
      <trkpt lat="42.56925939582288265228271484375" lon="-5.65081751905381679534912109375">
        <ele>906.4000244140625</ele>
        <time>2019-07-08T12:23:27.000Z</time>
      </trkpt>
      <trkpt lat="42.56926962174475193023681640625" lon="-5.65116855315864086151123046875">
        <ele>907.4000244140625</ele>
        <time>2019-07-08T12:23:29.000Z</time>
      </trkpt>
      <trkpt lat="42.56929292343556880950927734375" lon="-5.6513525359332561492919921875">
        <ele>907.79998779296875</ele>
        <time>2019-07-08T12:23:30.000Z</time>
      </trkpt>
      <trkpt lat="42.56944530643522739410400390625" lon="-5.651957876980304718017578125">
        <ele>908.5999755859375</ele>
        <time>2019-07-08T12:23:33.000Z</time>
      </trkpt>
      <trkpt lat="42.56964161060750484466552734375" lon="-5.65259800292551517486572265625">
        <ele>906.79998779296875</ele>
        <time>2019-07-08T12:23:36.000Z</time>
      </trkpt>
      <trkpt lat="42.5696908123791217803955078125" lon="-5.65281308256089687347412109375">
        <ele>905.4000244140625</ele>
        <time>2019-07-08T12:23:37.000Z</time>
      </trkpt>
      <trkpt lat="42.569727189838886260986328125" lon="-5.6530302576720714569091796875">
        <ele>904</ele>
        <time>2019-07-08T12:23:38.000Z</time>
      </trkpt>
      <trkpt lat="42.5697498209774494171142578125" lon="-5.65324491821229457855224609375">
        <ele>902.79998779296875</ele>
        <time>2019-07-08T12:23:39.000Z</time>
      </trkpt>
      <trkpt lat="42.56975434720516204833984375" lon="-5.65366518683731555938720703125">
        <ele>900.79998779296875</ele>
        <time>2019-07-08T12:23:41.000Z</time>
      </trkpt>
      <trkpt lat="42.56971654482185840606689453125" lon="-5.6540783308446407318115234375">
        <ele>899.4000244140625</ele>
        <time>2019-07-08T12:23:43.000Z</time>
      </trkpt>
      <trkpt lat="42.56965954788029193878173828125" lon="-5.654495246708393096923828125">
        <ele>898.4000244140625</ele>
        <time>2019-07-08T12:23:45.000Z</time>
      </trkpt>
      <trkpt lat="42.56961042992770671844482421875" lon="-5.654934458434581756591796875">
        <ele>897</ele>
        <time>2019-07-08T12:23:47.000Z</time>
      </trkpt>
      <trkpt lat="42.5696036405861377716064453125" lon="-5.65515540540218353271484375">
        <ele>896.20001220703125</ele>
        <time>2019-07-08T12:23:48.000Z</time>
      </trkpt>
      <trkpt lat="42.56963758729398250579833984375" lon="-5.65560995601117610931396484375">
        <ele>895.79998779296875</ele>
        <time>2019-07-08T12:23:50.000Z</time>
      </trkpt>
      <trkpt lat="42.56973967887461185455322265625" lon="-5.65606475807726383209228515625">
        <ele>895.79998779296875</ele>
        <time>2019-07-08T12:23:52.000Z</time>
      </trkpt>
      <trkpt lat="42.57000220008194446563720703125" lon="-5.65675542689859867095947265625">
        <ele>896.5999755859375</ele>
        <time>2019-07-08T12:23:55.000Z</time>
      </trkpt>
      <trkpt lat="42.5703053735196590423583984375" lon="-5.65741114318370819091796875">
        <ele>895.79998779296875</ele>
        <time>2019-07-08T12:23:58.000Z</time>
      </trkpt>
      <trkpt lat="42.57062044925987720489501953125" lon="-5.6580084376037120819091796875">
        <ele>895</ele>
        <time>2019-07-08T12:24:01.000Z</time>
      </trkpt>
      <trkpt lat="42.57096595130860805511474609375" lon="-5.65858435817062854766845703125">
        <ele>895.4000244140625</ele>
        <time>2019-07-08T12:24:04.000Z</time>
      </trkpt>
      <trkpt lat="42.5712941028177738189697265625" lon="-5.6590632162988185882568359375">
        <ele>896.20001220703125</ele>
        <time>2019-07-08T12:24:07.000Z</time>
      </trkpt>
      <trkpt lat="42.571399547159671783447265625" lon="-5.65919942222535610198974609375">
        <ele>897</ele>
        <time>2019-07-08T12:24:08.000Z</time>
      </trkpt>
      <trkpt lat="42.571508176624774932861328125" lon="-5.65932665951550006866455078125">
        <ele>898.4000244140625</ele>
        <time>2019-07-08T12:24:09.000Z</time>
      </trkpt>
      <trkpt lat="42.57162359543144702911376953125" lon="-5.65944048576056957244873046875">
        <ele>899.79998779296875</ele>
        <time>2019-07-08T12:24:10.000Z</time>
      </trkpt>
      <trkpt lat="42.57174856960773468017578125" lon="-5.65953453071415424346923828125">
        <ele>901.20001220703125</ele>
        <time>2019-07-08T12:24:11.000Z</time>
      </trkpt>
      <trkpt lat="42.571883015334606170654296875" lon="-5.6596093811094760894775390625">
        <ele>902.20001220703125</ele>
        <time>2019-07-08T12:24:12.000Z</time>
      </trkpt>
      <trkpt lat="42.5721725262701511383056640625" lon="-5.65969236195087432861328125">
        <ele>903.4000244140625</ele>
        <time>2019-07-08T12:24:14.000Z</time>
      </trkpt>
      <trkpt lat="42.5724675692617893218994140625" lon="-5.6596650369465351104736328125">
        <ele>903.79998779296875</ele>
        <time>2019-07-08T12:24:16.000Z</time>
      </trkpt>
      <trkpt lat="42.57272061891853809356689453125" lon="-5.65954961813986301422119140625">
        <ele>904.20001220703125</ele>
        <time>2019-07-08T12:24:18.000Z</time>
      </trkpt>
      <trkpt lat="42.57282371632754802703857421875" lon="-5.65947988070547580718994140625">
        <ele>904.4000244140625</ele>
        <time>2019-07-08T12:24:19.000Z</time>
      </trkpt>
      <trkpt lat="42.5729133188724517822265625" lon="-5.65940259955823421478271484375">
        <ele>905</ele>
        <time>2019-07-08T12:24:20.000Z</time>
      </trkpt>
      <trkpt lat="42.57299437187612056732177734375" lon="-5.65931693650782108306884765625">
        <ele>905.79998779296875</ele>
        <time>2019-07-08T12:24:21.000Z</time>
      </trkpt>
      <trkpt lat="42.5731451623141765594482421875" lon="-5.6591222248971462249755859375">
        <ele>907.5999755859375</ele>
        <time>2019-07-08T12:24:23.000Z</time>
      </trkpt>
      <trkpt lat="42.573290504515171051025390625" lon="-5.6588865257799625396728515625">
        <ele>908.79998779296875</ele>
        <time>2019-07-08T12:24:25.000Z</time>
      </trkpt>
      <trkpt lat="42.57356752641499042510986328125" lon="-5.65826408565044403076171875">
        <ele>908</ele>
        <time>2019-07-08T12:24:29.000Z</time>
      </trkpt>
      <trkpt lat="42.57362988777458667755126953125" lon="-5.65808982588350772857666015625">
        <ele>906.4000244140625</ele>
        <time>2019-07-08T12:24:30.000Z</time>
      </trkpt>
      <trkpt lat="42.57368646562099456787109375" lon="-5.657902322709560394287109375">
        <ele>905.20001220703125</ele>
        <time>2019-07-08T12:24:31.000Z</time>
      </trkpt>
      <trkpt lat="42.57377908565104007720947265625" lon="-5.6574904359877109527587890625">
        <ele>903.79998779296875</ele>
        <time>2019-07-08T12:24:33.000Z</time>
      </trkpt>
      <trkpt lat="42.57386558689177036285400390625" lon="-5.657054074108600616455078125">
        <ele>902.5999755859375</ele>
        <time>2019-07-08T12:24:35.000Z</time>
      </trkpt>
      <trkpt lat="42.574001960456371307373046875" lon="-5.6564101763069629669189453125">
        <ele>903</ele>
        <time>2019-07-08T12:24:38.000Z</time>
      </trkpt>
      <trkpt lat="42.5741057284176349639892578125" lon="-5.6559790112078189849853515625">
        <ele>904.79998779296875</ele>
        <time>2019-07-08T12:24:40.000Z</time>
      </trkpt>
      <trkpt lat="42.57416850887238979339599609375" lon="-5.65575881861150264739990234375">
        <ele>906</ele>
        <time>2019-07-08T12:24:41.000Z</time>
      </trkpt>
      <trkpt lat="42.57424193434417247772216796875" lon="-5.65553669817745685577392578125">
        <ele>907.20001220703125</ele>
        <time>2019-07-08T12:24:42.000Z</time>
      </trkpt>
      <trkpt lat="42.574414350092411041259765625" lon="-5.65509061329066753387451171875">
        <ele>908.20001220703125</ele>
        <time>2019-07-08T12:24:44.000Z</time>
      </trkpt>
      <trkpt lat="42.57469539530575275421142578125" lon="-5.654481165111064910888671875">
        <ele>909</ele>
        <time>2019-07-08T12:24:47.000Z</time>
      </trkpt>
      <trkpt lat="42.57478709332644939422607421875" lon="-5.65429382957518100738525390625">
        <ele>909.20001220703125</ele>
        <time>2019-07-08T12:24:48.000Z</time>
      </trkpt>
      <trkpt lat="42.5749858282506465911865234375" lon="-5.6539023108780384063720703125">
        <ele>910.79998779296875</ele>
        <time>2019-07-08T12:24:50.000Z</time>
      </trkpt>
      <trkpt lat="42.575336359441280364990234375" lon="-5.65325313247740268707275390625">
        <ele>911.79998779296875</ele>
        <time>2019-07-08T12:24:53.000Z</time>
      </trkpt>
      <trkpt lat="42.5756832025945186614990234375" lon="-5.652560703456401824951171875">
        <ele>912.20001220703125</ele>
        <time>2019-07-08T12:24:56.000Z</time>
      </trkpt>
      <trkpt lat="42.57588998414576053619384765625" lon="-5.6520998664200305938720703125">
        <ele>910.4000244140625</ele>
        <time>2019-07-08T12:24:58.000Z</time>
      </trkpt>
      <trkpt lat="42.57609844207763671875" lon="-5.6516383588314056396484375">
        <ele>908.79998779296875</ele>
        <time>2019-07-08T12:25:00.000Z</time>
      </trkpt>
      <trkpt lat="42.57621000520884990692138671875" lon="-5.651406683027744293212890625">
        <ele>907.79998779296875</ele>
        <time>2019-07-08T12:25:01.000Z</time>
      </trkpt>
      <trkpt lat="42.57644067518413066864013671875" lon="-5.650934614241123199462890625">
        <ele>906.5999755859375</ele>
        <time>2019-07-08T12:25:03.000Z</time>
      </trkpt>
      <trkpt lat="42.5767956487834453582763671875" lon="-5.65021385438740253448486328125">
        <ele>906</ele>
        <time>2019-07-08T12:25:06.000Z</time>
      </trkpt>
      <trkpt lat="42.5769116543233394622802734375" lon="-5.64997597597539424896240234375">
        <ele>909.4000244140625</ele>
        <time>2019-07-08T12:25:07.000Z</time>
      </trkpt>
      <trkpt lat="42.57702045142650604248046875" lon="-5.6497428752481937408447265625">
        <ele>914.4000244140625</ele>
        <time>2019-07-08T12:25:08.000Z</time>
      </trkpt>
      <trkpt lat="42.57711893878877162933349609375" lon="-5.6495158933103084564208984375">
        <ele>919.4000244140625</ele>
        <time>2019-07-08T12:25:09.000Z</time>
      </trkpt>
      <trkpt lat="42.57720686495304107666015625" lon="-5.64928949810564517974853515625">
        <ele>922.4000244140625</ele>
        <time>2019-07-08T12:25:10.000Z</time>
      </trkpt>
      <trkpt lat="42.577285654842853546142578125" lon="-5.6490609236061573028564453125">
        <ele>924.20001220703125</ele>
        <time>2019-07-08T12:25:11.000Z</time>
      </trkpt>
      <trkpt lat="42.57748045027256011962890625" lon="-5.64836136996746063232421875">
        <ele>924.79998779296875</ele>
        <time>2019-07-08T12:25:14.000Z</time>
      </trkpt>
      <trkpt lat="42.57762260735034942626953125" lon="-5.6476339884102344512939453125">
        <ele>924</ele>
        <time>2019-07-08T12:25:17.000Z</time>
      </trkpt>
      <trkpt lat="42.5777012296020984649658203125" lon="-5.6471287272870540618896484375">
        <ele>922.20001220703125</ele>
        <time>2019-07-08T12:25:19.000Z</time>
      </trkpt>
      <trkpt lat="42.577736936509609222412109375" lon="-5.64687433652579784393310546875">
        <ele>917.79998779296875</ele>
        <time>2019-07-08T12:25:20.000Z</time>
      </trkpt>
      <trkpt lat="42.57777415215969085693359375" lon="-5.6466271542012691497802734375">
        <ele>912.20001220703125</ele>
        <time>2019-07-08T12:25:21.000Z</time>
      </trkpt>
      <trkpt lat="42.57781212218105792999267578125" lon="-5.64638768322765827178955078125">
        <ele>906.5999755859375</ele>
        <time>2019-07-08T12:25:22.000Z</time>
      </trkpt>
      <trkpt lat="42.57784883491694927215576171875" lon="-5.646150223910808563232421875">
        <ele>903.79998779296875</ele>
        <time>2019-07-08T12:25:23.000Z</time>
      </trkpt>
      <trkpt lat="42.57788370363414287567138671875" lon="-5.64591008238494396209716796875">
        <ele>902.4000244140625</ele>
        <time>2019-07-08T12:25:24.000Z</time>
      </trkpt>
      <trkpt lat="42.5779558718204498291015625" lon="-5.6454248540103435516357421875">
        <ele>901.4000244140625</ele>
        <time>2019-07-08T12:25:26.000Z</time>
      </trkpt>
      <trkpt lat="42.5780712068080902099609375" lon="-5.64470509998500347137451171875">
        <ele>902.20001220703125</ele>
        <time>2019-07-08T12:25:29.000Z</time>
      </trkpt>
      <trkpt lat="42.57820623926818370819091796875" lon="-5.64409322105348110198974609375">
        <ele>901.20001220703125</ele>
        <time>2019-07-08T12:25:32.000Z</time>
      </trkpt>
      <trkpt lat="42.57842400111258029937744140625" lon="-5.64347572624683380126953125">
        <ele>903.20001220703125</ele>
        <time>2019-07-08T12:25:36.000Z</time>
      </trkpt>
      <trkpt lat="42.57848217152059078216552734375" lon="-5.6433484889566898345947265625">
        <ele>904.5999755859375</ele>
        <time>2019-07-08T12:25:37.000Z</time>
      </trkpt>
      <trkpt lat="42.57854034192860126495361328125" lon="-5.6432264484465122222900390625">
        <ele>905.79998779296875</ele>
        <time>2019-07-08T12:25:38.000Z</time>
      </trkpt>
      <trkpt lat="42.57870881818234920501708984375" lon="-5.642894022166728973388671875">
        <ele>906.79998779296875</ele>
        <time>2019-07-08T12:25:41.000Z</time>
      </trkpt>
      <trkpt lat="42.57887109182775020599365234375" lon="-5.64260266721248626708984375">
        <ele>908.20001220703125</ele>
        <time>2019-07-08T12:25:44.000Z</time>
      </trkpt>
      <trkpt lat="42.578969411551952362060546875" lon="-5.6424412317574024200439453125">
        <ele>910.20001220703125</ele>
        <time>2019-07-08T12:25:46.000Z</time>
      </trkpt>
      <trkpt lat="42.57901391945779323577880859375" lon="-5.6423728354275226593017578125">
        <ele>912.20001220703125</ele>
        <time>2019-07-08T12:25:47.000Z</time>
      </trkpt>
      <trkpt lat="42.57905649952590465545654296875" lon="-5.6423123180866241455078125">
        <ele>914</ele>
        <time>2019-07-08T12:25:48.000Z</time>
      </trkpt>
      <trkpt lat="42.57909572683274745941162109375" lon="-5.6422568298876285552978515625">
        <ele>915.20001220703125</ele>
        <time>2019-07-08T12:25:49.000Z</time>
      </trkpt>
      <trkpt lat="42.57925045676529407501220703125" lon="-5.642015933990478515625">
        <ele>916.20001220703125</ele>
        <time>2019-07-08T12:25:57.000Z</time>
      </trkpt>
      <trkpt lat="42.57929454557597637176513671875" lon="-5.6419607810676097869873046875">
        <ele>917</ele>
        <time>2019-07-08T12:26:21.000Z</time>
      </trkpt>
      <trkpt lat="42.57965832017362117767333984375" lon="-5.641404725611209869384765625">
        <ele>915.20001220703125</ele>
        <time>2019-07-08T12:26:27.000Z</time>
      </trkpt>
      <trkpt lat="42.57972956635057926177978515625" lon="-5.64129651524126529693603515625">
        <ele>915</ele>
        <time>2019-07-08T12:26:28.000Z</time>
      </trkpt>
      <trkpt lat="42.5801088474690914154052734375" lon="-5.64073626883327960968017578125">
        <ele>915.4000244140625</ele>
        <time>2019-07-08T12:26:33.000Z</time>
      </trkpt>
      <trkpt lat="42.58026458323001861572265625" lon="-5.64050610177218914031982421875">
        <ele>916.20001220703125</ele>
        <time>2019-07-08T12:26:35.000Z</time>
      </trkpt>
      <trkpt lat="42.58049282245337963104248046875" lon="-5.64017350785434246063232421875">
        <ele>917.5999755859375</ele>
        <time>2019-07-08T12:26:38.000Z</time>
      </trkpt>
      <trkpt lat="42.58063531480729579925537109375" lon="-5.63995021395385265350341796875">
        <ele>919</ele>
        <time>2019-07-08T12:26:40.000Z</time>
      </trkpt>
      <trkpt lat="42.580973021686077117919921875" lon="-5.639434643089771270751953125">
        <ele>919</ele>
        <time>2019-07-08T12:26:46.000Z</time>
      </trkpt>
      <trkpt lat="42.5810860097408294677734375" lon="-5.63920036889612674713134765625">
        <ele>920.4000244140625</ele>
        <time>2019-07-08T12:26:53.000Z</time>
      </trkpt>
      <trkpt lat="42.58107620291411876678466796875" lon="-5.63921897672116756439208984375">
        <ele>921.4000244140625</ele>
        <time>2019-07-08T12:27:19.000Z</time>
      </trkpt>
      <trkpt lat="42.58114107884466648101806640625" lon="-5.6391390971839427947998046875">
        <ele>920.20001220703125</ele>
        <time>2019-07-08T12:27:39.000Z</time>
      </trkpt>
      <trkpt lat="42.5813151709735393524169921875" lon="-5.638824440538883209228515625">
        <ele>919</ele>
        <time>2019-07-08T12:27:43.000Z</time>
      </trkpt>
      <trkpt lat="42.58151046931743621826171875" lon="-5.63848690129816532135009765625">
        <ele>920.20001220703125</ele>
        <time>2019-07-08T12:27:52.000Z</time>
      </trkpt>
      <trkpt lat="42.5815974734723567962646484375" lon="-5.63835673034191131591796875">
        <ele>920.4000244140625</ele>
        <time>2019-07-08T12:28:19.000Z</time>
      </trkpt>
      <trkpt lat="42.58169688284397125244140625" lon="-5.63817945308983325958251953125">
        <ele>919</ele>
        <time>2019-07-08T12:28:21.000Z</time>
      </trkpt>
      <trkpt lat="42.58182621560990810394287109375" lon="-5.637972168624401092529296875">
        <ele>917.79998779296875</ele>
        <time>2019-07-08T12:28:23.000Z</time>
      </trkpt>
      <trkpt lat="42.58217155002057552337646484375" lon="-5.63741921447217464447021484375">
        <ele>916.79998779296875</ele>
        <time>2019-07-08T12:28:28.000Z</time>
      </trkpt>
      <trkpt lat="42.582518644630908966064453125" lon="-5.6368712894618511199951171875">
        <ele>916.79998779296875</ele>
        <time>2019-07-08T12:28:34.000Z</time>
      </trkpt>
      <trkpt lat="42.5828453712165355682373046875" lon="-5.6363382004201412200927734375">
        <ele>918</ele>
        <time>2019-07-08T12:28:39.000Z</time>
      </trkpt>
      <trkpt lat="42.58314318023622035980224609375" lon="-5.6358562409877777099609375">
        <ele>916.5999755859375</ele>
        <time>2019-07-08T12:28:43.000Z</time>
      </trkpt>
      <trkpt lat="42.58328634314239025115966796875" lon="-5.6355918757617473602294921875">
        <ele>915</ele>
        <time>2019-07-08T12:28:45.000Z</time>
      </trkpt>
      <trkpt lat="42.5834270752966403961181640625" lon="-5.63531686551868915557861328125">
        <ele>913.5999755859375</ele>
        <time>2019-07-08T12:28:47.000Z</time>
      </trkpt>
      <trkpt lat="42.58355556987226009368896484375" lon="-5.63503020443022251129150390625">
        <ele>912</ele>
        <time>2019-07-08T12:28:49.000Z</time>
      </trkpt>
      <trkpt lat="42.5836724974215030670166015625" lon="-5.634736083447933197021484375">
        <ele>910.5999755859375</ele>
        <time>2019-07-08T12:28:51.000Z</time>
      </trkpt>
      <trkpt lat="42.58383820764720439910888671875" lon="-5.63429393805563449859619140625">
        <ele>909.5999755859375</ele>
        <time>2019-07-08T12:28:54.000Z</time>
      </trkpt>
      <trkpt lat="42.58399561978876590728759765625" lon="-5.63386092893779277801513671875">
        <ele>908.20001220703125</ele>
        <time>2019-07-08T12:28:57.000Z</time>
      </trkpt>
      <trkpt lat="42.58421103470027446746826171875" lon="-5.6332598626613616943359375">
        <ele>907.20001220703125</ele>
        <time>2019-07-08T12:29:01.000Z</time>
      </trkpt>
      <trkpt lat="42.5843899883329868316650390625" lon="-5.63275736756622791290283203125">
        <ele>906</ele>
        <time>2019-07-08T12:29:04.000Z</time>
      </trkpt>
      <trkpt lat="42.5844503380358219146728515625" lon="-5.6325837783515453338623046875">
        <ele>905</ele>
        <time>2019-07-08T12:29:05.000Z</time>
      </trkpt>
      <trkpt lat="42.58451060391962528228759765625" lon="-5.63240767456591129302978515625">
        <ele>903.79998779296875</ele>
        <time>2019-07-08T12:29:06.000Z</time>
      </trkpt>
      <trkpt lat="42.58469425141811370849609375" lon="-5.6318758428096771240234375">
        <ele>902.4000244140625</ele>
        <time>2019-07-08T12:29:09.000Z</time>
      </trkpt>
      <trkpt lat="42.584826014935970306396484375" lon="-5.6315041892230510711669921875">
        <ele>904.5999755859375</ele>
        <time>2019-07-08T12:29:11.000Z</time>
      </trkpt>
      <trkpt lat="42.58489675819873809814453125" lon="-5.63130629248917102813720703125">
        <ele>906.4000244140625</ele>
        <time>2019-07-08T12:29:12.000Z</time>
      </trkpt>
      <trkpt lat="42.5849703513085842132568359375" lon="-5.63109858892858028411865234375">
        <ele>907.79998779296875</ele>
        <time>2019-07-08T12:29:13.000Z</time>
      </trkpt>
      <trkpt lat="42.58520714007318019866943359375" lon="-5.63042409718036651611328125">
        <ele>908.79998779296875</ele>
        <time>2019-07-08T12:29:16.000Z</time>
      </trkpt>
      <trkpt lat="42.5852918811142444610595703125" lon="-5.6301887333393096923828125">
        <ele>906.20001220703125</ele>
        <time>2019-07-08T12:29:17.000Z</time>
      </trkpt>
      <trkpt lat="42.58537628687918186187744140625" lon="-5.6299545429646968841552734375">
        <ele>902.5999755859375</ele>
        <time>2019-07-08T12:29:18.000Z</time>
      </trkpt>
      <trkpt lat="42.585461027920246124267578125" lon="-5.62972311861813068389892578125">
        <ele>898.20001220703125</ele>
        <time>2019-07-08T12:29:19.000Z</time>
      </trkpt>
      <trkpt lat="42.5855460204184055328369140625" lon="-5.62949001789093017578125">
        <ele>896</ele>
        <time>2019-07-08T12:29:20.000Z</time>
      </trkpt>
      <trkpt lat="42.585630677640438079833984375" lon="-5.62925775535404682159423828125">
        <ele>894.4000244140625</ele>
        <time>2019-07-08T12:29:21.000Z</time>
      </trkpt>
      <trkpt lat="42.585713155567646026611328125" lon="-5.62903027050197124481201171875">
        <ele>893.20001220703125</ele>
        <time>2019-07-08T12:29:22.000Z</time>
      </trkpt>
      <trkpt lat="42.58579571731388568878173828125" lon="-5.6288058869540691375732421875">
        <ele>892.20001220703125</ele>
        <time>2019-07-08T12:29:23.000Z</time>
      </trkpt>
      <trkpt lat="42.58604465983808040618896484375" lon="-5.62812536023557186126708984375">
        <ele>891.5999755859375</ele>
        <time>2019-07-08T12:29:26.000Z</time>
      </trkpt>
      <trkpt lat="42.586293183267116546630859375" lon="-5.627439133822917938232421875">
        <ele>893.4000244140625</ele>
        <time>2019-07-08T12:29:29.000Z</time>
      </trkpt>
      <trkpt lat="42.5863775052130222320556640625" lon="-5.6272072903811931610107421875">
        <ele>894.5999755859375</ele>
        <time>2019-07-08T12:29:30.000Z</time>
      </trkpt>
      <trkpt lat="42.5865474902093410491943359375" lon="-5.62673874199390411376953125">
        <ele>893</ele>
        <time>2019-07-08T12:29:32.000Z</time>
      </trkpt>
      <trkpt lat="42.586808502674102783203125" lon="-5.6260173954069614410400390625">
        <ele>891.4000244140625</ele>
        <time>2019-07-08T12:29:35.000Z</time>
      </trkpt>
      <trkpt lat="42.5868971832096576690673828125" lon="-5.62577557750046253204345703125">
        <ele>890.4000244140625</ele>
        <time>2019-07-08T12:29:36.000Z</time>
      </trkpt>
      <trkpt lat="42.58716699667274951934814453125" lon="-5.6250400654971599578857421875">
        <ele>889.79998779296875</ele>
        <time>2019-07-08T12:29:39.000Z</time>
      </trkpt>
      <trkpt lat="42.5872586108744144439697265625" lon="-5.62479170970618724822998046875">
        <ele>889.4000244140625</ele>
        <time>2019-07-08T12:29:40.000Z</time>
      </trkpt>
      <trkpt lat="42.58744083344936370849609375" lon="-5.62429935671389102935791015625">
        <ele>888</ele>
        <time>2019-07-08T12:29:42.000Z</time>
      </trkpt>
      <trkpt lat="42.587532363831996917724609375" lon="-5.62405661679804325103759765625">
        <ele>887</ele>
        <time>2019-07-08T12:29:43.000Z</time>
      </trkpt>
      <trkpt lat="42.5876220501959323883056640625" lon="-5.6238136254251003265380859375">
        <ele>885.5999755859375</ele>
        <time>2019-07-08T12:29:44.000Z</time>
      </trkpt>
      <trkpt lat="42.58779094554483890533447265625" lon="-5.6233402155339717864990234375">
        <ele>884.5999755859375</ele>
        <time>2019-07-08T12:29:46.000Z</time>
      </trkpt>
      <trkpt lat="42.5879543088376522064208984375" lon="-5.622890107333660125732421875">
        <ele>885.5999755859375</ele>
        <time>2019-07-08T12:29:48.000Z</time>
      </trkpt>
      <trkpt lat="42.5880347751080989837646484375" lon="-5.62266974709928035736083984375">
        <ele>887.20001220703125</ele>
        <time>2019-07-08T12:29:49.000Z</time>
      </trkpt>
      <trkpt lat="42.58811381645500659942626953125" lon="-5.62245382927358150482177734375">
        <ele>889.79998779296875</ele>
        <time>2019-07-08T12:29:50.000Z</time>
      </trkpt>
      <trkpt lat="42.58819310925900936126708984375" lon="-5.62223958782851696014404296875">
        <ele>892.4000244140625</ele>
        <time>2019-07-08T12:29:51.000Z</time>
      </trkpt>
      <trkpt lat="42.5882756710052490234375" lon="-5.62202333472669124603271484375">
        <ele>893.79998779296875</ele>
        <time>2019-07-08T12:29:52.000Z</time>
      </trkpt>
      <trkpt lat="42.58843987248837947845458984375" lon="-5.62158999033272266387939453125">
        <ele>892.4000244140625</ele>
        <time>2019-07-08T12:29:54.000Z</time>
      </trkpt>
      <trkpt lat="42.588520087301731109619140625" lon="-5.62137675471603870391845703125">
        <ele>888.5999755859375</ele>
        <time>2019-07-08T12:29:55.000Z</time>
      </trkpt>
      <trkpt lat="42.5885997153818607330322265625" lon="-5.62116251327097415924072265625">
        <ele>884</ele>
        <time>2019-07-08T12:29:56.000Z</time>
      </trkpt>
      <trkpt lat="42.5886785052716732025146484375" lon="-5.62094860710203647613525390625">
        <ele>881</ele>
        <time>2019-07-08T12:29:57.000Z</time>
      </trkpt>
      <trkpt lat="42.58875779807567596435546875" lon="-5.6207331083714962005615234375">
        <ele>879.5999755859375</ele>
        <time>2019-07-08T12:29:58.000Z</time>
      </trkpt>
      <trkpt lat="42.588921077549457550048828125" lon="-5.6202938966453075408935546875">
        <ele>878.4000244140625</ele>
        <time>2019-07-08T12:30:00.000Z</time>
      </trkpt>
      <trkpt lat="42.58908276446163654327392578125" lon="-5.6198701076209545135498046875">
        <ele>877.4000244140625</ele>
        <time>2019-07-08T12:30:02.000Z</time>
      </trkpt>
      <trkpt lat="42.5893177092075347900390625" lon="-5.61924624256789684295654296875">
        <ele>876.79998779296875</ele>
        <time>2019-07-08T12:30:05.000Z</time>
      </trkpt>
      <trkpt lat="42.5893963314592838287353515625" lon="-5.61904272995889186859130859375">
        <ele>876.20001220703125</ele>
        <time>2019-07-08T12:30:06.000Z</time>
      </trkpt>
      <trkpt lat="42.58962624706327915191650390625" lon="-5.61842833645641803741455078125">
        <ele>875.4000244140625</ele>
        <time>2019-07-08T12:30:09.000Z</time>
      </trkpt>
      <trkpt lat="42.58985482156276702880859375" lon="-5.61779089272022247314453125">
        <ele>876.20001220703125</ele>
        <time>2019-07-08T12:30:12.000Z</time>
      </trkpt>
      <trkpt lat="42.590091861784458160400390625" lon="-5.61714272014796733856201171875">
        <ele>876.79998779296875</ele>
        <time>2019-07-08T12:30:15.000Z</time>
      </trkpt>
      <trkpt lat="42.59032948873937129974365234375" lon="-5.61649848707020282745361328125">
        <ele>875.4000244140625</ele>
        <time>2019-07-08T12:30:18.000Z</time>
      </trkpt>
      <trkpt lat="42.59054909460246562957763671875" lon="-5.61589322984218597412109375">
        <ele>875</ele>
        <time>2019-07-08T12:30:21.000Z</time>
      </trkpt>
      <trkpt lat="42.59069125168025493621826171875" lon="-5.6155024655163288116455078125">
        <ele>876.4000244140625</ele>
        <time>2019-07-08T12:30:23.000Z</time>
      </trkpt>
      <trkpt lat="42.59076006710529327392578125" lon="-5.61531194485723972320556640625">
        <ele>877.4000244140625</ele>
        <time>2019-07-08T12:30:24.000Z</time>
      </trkpt>
      <trkpt lat="42.5908277928829193115234375" lon="-5.61512469314038753509521484375">
        <ele>878.79998779296875</ele>
        <time>2019-07-08T12:30:25.000Z</time>
      </trkpt>
      <trkpt lat="42.590891830623149871826171875" lon="-5.61494247056543827056884765625">
        <ele>880.4000244140625</ele>
        <time>2019-07-08T12:30:26.000Z</time>
      </trkpt>
      <trkpt lat="42.59095008485019207000732421875" lon="-5.61476594768464565277099609375">
        <ele>882.20001220703125</ele>
        <time>2019-07-08T12:30:27.000Z</time>
      </trkpt>
      <trkpt lat="42.591001130640506744384765625" lon="-5.6145881675183773040771484375">
        <ele>884.20001220703125</ele>
        <time>2019-07-08T12:30:28.000Z</time>
      </trkpt>
      <trkpt lat="42.5910720415413379669189453125" lon="-5.61421961523592472076416015625">
        <ele>886</ele>
        <time>2019-07-08T12:30:30.000Z</time>
      </trkpt>
      <trkpt lat="42.5910854525864124298095703125" lon="-5.61342316679656505584716796875">
        <ele>883.5999755859375</ele>
        <time>2019-07-08T12:30:34.000Z</time>
      </trkpt>
      <trkpt lat="42.5910676829516887664794921875" lon="-5.61322703026235103607177734375">
        <ele>881</ele>
        <time>2019-07-08T12:30:35.000Z</time>
      </trkpt>
      <trkpt lat="42.59104211814701557159423828125" lon="-5.61303776688873767852783203125">
        <ele>879</ele>
        <time>2019-07-08T12:30:36.000Z</time>
      </trkpt>
      <trkpt lat="42.59100775234401226043701171875" lon="-5.61285168863832950592041015625">
        <ele>877.5999755859375</ele>
        <time>2019-07-08T12:30:37.000Z</time>
      </trkpt>
      <trkpt lat="42.5908353365957736968994140625" lon="-5.61229772865772247314453125">
        <ele>876.4000244140625</ele>
        <time>2019-07-08T12:30:40.000Z</time>
      </trkpt>
      <trkpt lat="42.590563260018825531005859375" lon="-5.61178618110716342926025390625">
        <ele>876.20001220703125</ele>
        <time>2019-07-08T12:30:43.000Z</time>
      </trkpt>
      <trkpt lat="42.59020862169563770294189453125" lon="-5.61131612397730350494384765625">
        <ele>876.5999755859375</ele>
        <time>2019-07-08T12:30:46.000Z</time>
      </trkpt>
      <trkpt lat="42.5898206233978271484375" lon="-5.61084740795195102691650390625">
        <ele>877</ele>
        <time>2019-07-08T12:30:49.000Z</time>
      </trkpt>
      <trkpt lat="42.58941787295043468475341796875" lon="-5.61035824008285999298095703125">
        <ele>876.79998779296875</ele>
        <time>2019-07-08T12:30:52.000Z</time>
      </trkpt>
      <trkpt lat="42.58901101537048816680908203125" lon="-5.609859265387058258056640625">
        <ele>876.4000244140625</ele>
        <time>2019-07-08T12:30:55.000Z</time>
      </trkpt>
      <trkpt lat="42.5888890586793422698974609375" lon="-5.609716437757015228271484375">
        <ele>874.79998779296875</ele>
        <time>2019-07-08T12:30:56.000Z</time>
      </trkpt>
      <trkpt lat="42.58877732791006565093994140625" lon="-5.60958123765885829925537109375">
        <ele>873.20001220703125</ele>
        <time>2019-07-08T12:30:57.000Z</time>
      </trkpt>
      <trkpt lat="42.58867305703461170196533203125" lon="-5.6094524078071117401123046875">
        <ele>871.4000244140625</ele>
        <time>2019-07-08T12:30:58.000Z</time>
      </trkpt>
      <trkpt lat="42.5884766690433025360107421875" lon="-5.6092046387493610382080078125">
        <ele>869.5999755859375</ele>
        <time>2019-07-08T12:31:00.000Z</time>
      </trkpt>
      <trkpt lat="42.58810023777186870574951171875" lon="-5.60874505899846553802490234375">
        <ele>870.4000244140625</ele>
        <time>2019-07-08T12:31:04.000Z</time>
      </trkpt>
      <trkpt lat="42.588007450103759765625" lon="-5.60863785445690155029296875">
        <ele>871</ele>
        <time>2019-07-08T12:31:05.000Z</time>
      </trkpt>
      <trkpt lat="42.5876294262707233428955078125" lon="-5.60819260776042938232421875">
        <ele>872</ele>
        <time>2019-07-08T12:31:09.000Z</time>
      </trkpt>
      <trkpt lat="42.58729339577257633209228515625" lon="-5.60780502855777740478515625">
        <ele>870.4000244140625</ele>
        <time>2019-07-08T12:31:12.000Z</time>
      </trkpt>
      <trkpt lat="42.58717931807041168212890625" lon="-5.60766555368900299072265625">
        <ele>868.20001220703125</ele>
        <time>2019-07-08T12:31:13.000Z</time>
      </trkpt>
      <trkpt lat="42.58706775493919849395751953125" lon="-5.60752918012440204620361328125">
        <ele>865.79998779296875</ele>
        <time>2019-07-08T12:31:14.000Z</time>
      </trkpt>
      <trkpt lat="42.5869585387408733367919921875" lon="-5.607396662235260009765625">
        <ele>864.79998779296875</ele>
        <time>2019-07-08T12:31:15.000Z</time>
      </trkpt>
      <trkpt lat="42.5867499969899654388427734375" lon="-5.60714679770171642303466796875">
        <ele>863.4000244140625</ele>
        <time>2019-07-08T12:31:17.000Z</time>
      </trkpt>
      <trkpt lat="42.5863848812878131866455078125" lon="-5.606712363660335540771484375">
        <ele>862.5999755859375</ele>
        <time>2019-07-08T12:31:21.000Z</time>
      </trkpt>
      <trkpt lat="42.5863181613385677337646484375" lon="-5.6066360883414745330810546875">
        <ele>862.4000244140625</ele>
        <time>2019-07-08T12:31:22.000Z</time>
      </trkpt>
      <trkpt lat="42.586226128041744232177734375" lon="-5.606524609029293060302734375">
        <ele>863.5999755859375</ele>
        <time>2019-07-08T12:31:24.000Z</time>
      </trkpt>
      <trkpt lat="42.586200647056102752685546875" lon="-5.606493093073368072509765625">
        <ele>864.5999755859375</ele>
        <time>2019-07-08T12:31:25.000Z</time>
      </trkpt>
      <trkpt lat="42.58618195541203022003173828125" lon="-5.60647054575383663177490234375">
        <ele>866.20001220703125</ele>
        <time>2019-07-08T12:31:27.000Z</time>
      </trkpt>
      <trkpt lat="42.58619218133389949798583984375" lon="-5.60648563317954540252685546875">
        <ele>867.4000244140625</ele>
        <time>2019-07-08T12:31:49.000Z</time>
      </trkpt>
      <trkpt lat="42.5860988907516002655029296875" lon="-5.60637063346803188323974609375">
        <ele>867</ele>
        <time>2019-07-08T12:32:00.000Z</time>
      </trkpt>
      <trkpt lat="42.58601012639701366424560546875" lon="-5.60628530569374561309814453125">
        <ele>866.20001220703125</ele>
        <time>2019-07-08T12:32:02.000Z</time>
      </trkpt>
      <trkpt lat="42.5859295763075351715087890625" lon="-5.60622252523899078369140625">
        <ele>865.20001220703125</ele>
        <time>2019-07-08T12:32:04.000Z</time>
      </trkpt>
      <trkpt lat="42.58579303510487079620361328125" lon="-5.6059869937598705291748046875">
        <ele>865.5999755859375</ele>
        <time>2019-07-08T12:33:02.000Z</time>
      </trkpt>
      <trkpt lat="42.58582823909819126129150390625" lon="-5.605860091745853424072265625">
        <ele>865.20001220703125</ele>
        <time>2019-07-08T12:33:04.000Z</time>
      </trkpt>
      <trkpt lat="42.58591406978666782379150390625" lon="-5.60578959994018077850341796875">
        <ele>864.5999755859375</ele>
        <time>2019-07-08T12:33:06.000Z</time>
      </trkpt>
      <trkpt lat="42.58602169342339038848876953125" lon="-5.6058324314653873443603515625">
        <ele>864.20001220703125</ele>
        <time>2019-07-08T12:33:08.000Z</time>
      </trkpt>
      <trkpt lat="42.58610752411186695098876953125" lon="-5.60600417666137218475341796875">
        <ele>864.4000244140625</ele>
        <time>2019-07-08T12:33:10.000Z</time>
      </trkpt>
      <trkpt lat="42.58623006753623485565185546875" lon="-5.606252364814281463623046875">
        <ele>865</ele>
        <time>2019-07-08T12:33:12.000Z</time>
      </trkpt>
      <trkpt lat="42.5866033136844635009765625" lon="-5.60674153268337249755859375">
        <ele>865.5999755859375</ele>
        <time>2019-07-08T12:33:16.000Z</time>
      </trkpt>
      <trkpt lat="42.5870125181972980499267578125" lon="-5.60725408606231212615966796875">
        <ele>865.79998779296875</ele>
        <time>2019-07-08T12:33:20.000Z</time>
      </trkpt>
      <trkpt lat="42.5871231593191623687744140625" lon="-5.6073939800262451171875">
        <ele>866.5999755859375</ele>
        <time>2019-07-08T12:33:21.000Z</time>
      </trkpt>
      <trkpt lat="42.58746824227273464202880859375" lon="-5.60782673768699169158935546875">
        <ele>867</ele>
        <time>2019-07-08T12:33:24.000Z</time>
      </trkpt>
      <trkpt lat="42.5878237187862396240234375" lon="-5.60827550478279590606689453125">
        <ele>868</ele>
        <time>2019-07-08T12:33:27.000Z</time>
      </trkpt>
      <trkpt lat="42.58807190693914890289306640625" lon="-5.60857876203954219818115234375">
        <ele>869.20001220703125</ele>
        <time>2019-07-08T12:33:29.000Z</time>
      </trkpt>
      <trkpt lat="42.5884518586099147796630859375" lon="-5.60903616249561309814453125">
        <ele>869.79998779296875</ele>
        <time>2019-07-08T12:33:32.000Z</time>
      </trkpt>
      <trkpt lat="42.58883415721356868743896484375" lon="-5.60951552353799343109130859375">
        <ele>869.79998779296875</ele>
        <time>2019-07-08T12:33:35.000Z</time>
      </trkpt>
      <trkpt lat="42.5892417691648006439208984375" lon="-5.6100136600434780120849609375">
        <ele>868.79998779296875</ele>
        <time>2019-07-08T12:33:38.000Z</time>
      </trkpt>
      <trkpt lat="42.589517198503017425537109375" lon="-5.6103506125509738922119140625">
        <ele>867.79998779296875</ele>
        <time>2019-07-08T12:33:40.000Z</time>
      </trkpt>
      <trkpt lat="42.5899158418178558349609375" lon="-5.610846318304538726806640625">
        <ele>868</ele>
        <time>2019-07-08T12:33:43.000Z</time>
      </trkpt>
      <trkpt lat="42.59027383290231227874755859375" lon="-5.61128997243940830230712890625">
        <ele>869</ele>
        <time>2019-07-08T12:33:46.000Z</time>
      </trkpt>
      <trkpt lat="42.59037693031132221221923828125" lon="-5.61142332851886749267578125">
        <ele>870.20001220703125</ele>
        <time>2019-07-08T12:33:47.000Z</time>
      </trkpt>
      <trkpt lat="42.59047315455973148345947265625" lon="-5.61155048198997974395751953125">
        <ele>871.20001220703125</ele>
        <time>2019-07-08T12:33:48.000Z</time>
      </trkpt>
      <trkpt lat="42.5905622541904449462890625" lon="-5.61167302541434764862060546875">
        <ele>872.5999755859375</ele>
        <time>2019-07-08T12:33:49.000Z</time>
      </trkpt>
      <trkpt lat="42.5906428880989551544189453125" lon="-5.611791796982288360595703125">
        <ele>873.5999755859375</ele>
        <time>2019-07-08T12:33:50.000Z</time>
      </trkpt>
      <trkpt lat="42.59077842347323894500732421875" lon="-5.612019114196300506591796875">
        <ele>875.20001220703125</ele>
        <time>2019-07-08T12:33:52.000Z</time>
      </trkpt>
      <trkpt lat="42.590890489518642425537109375" lon="-5.61224014498293399810791015625">
        <ele>877</ele>
        <time>2019-07-08T12:33:54.000Z</time>
      </trkpt>
      <trkpt lat="42.59098193608224391937255859375" lon="-5.61247332952916622161865234375">
        <ele>878.4000244140625</ele>
        <time>2019-07-08T12:33:56.000Z</time>
      </trkpt>
      <trkpt lat="42.59112191386520862579345703125" lon="-5.612986721098423004150390625">
        <ele>879.4000244140625</ele>
        <time>2019-07-08T12:34:00.000Z</time>
      </trkpt>
      <trkpt lat="42.59117891080677509307861328125" lon="-5.61339148320257663726806640625">
        <ele>880.4000244140625</ele>
        <time>2019-07-08T12:34:03.000Z</time>
      </trkpt>
      <trkpt lat="42.5911860354244709014892578125" lon="-5.613541938364505767822265625">
        <ele>880.5999755859375</ele>
        <time>2019-07-08T12:34:04.000Z</time>
      </trkpt>
      <trkpt lat="42.5911585427820682525634765625" lon="-5.6142036058008670806884765625">
        <ele>879.79998779296875</ele>
        <time>2019-07-08T12:34:08.000Z</time>
      </trkpt>
      <trkpt lat="42.591135241091251373291015625" lon="-5.61437166295945644378662109375">
        <ele>879.4000244140625</ele>
        <time>2019-07-08T12:34:09.000Z</time>
      </trkpt>
      <trkpt lat="42.59096198715269565582275390625" lon="-5.61504657380282878875732421875">
        <ele>879</ele>
        <time>2019-07-08T12:34:13.000Z</time>
      </trkpt>
      <trkpt lat="42.59080625139176845550537109375" lon="-5.61551813967525959014892578125">
        <ele>878.4000244140625</ele>
        <time>2019-07-08T12:34:16.000Z</time>
      </trkpt>
      <trkpt lat="42.59059645235538482666015625" lon="-5.61607427895069122314453125">
        <ele>878.20001220703125</ele>
        <time>2019-07-08T12:34:21.000Z</time>
      </trkpt>
      <trkpt lat="42.59057440795004367828369140625" lon="-5.6161411665380001068115234375">
        <ele>878.79998779296875</ele>
        <time>2019-07-08T12:34:22.000Z</time>
      </trkpt>
      <trkpt lat="42.5905676186084747314453125" lon="-5.6161927990615367889404296875">
        <ele>879.4000244140625</ele>
        <time>2019-07-08T12:34:23.000Z</time>
      </trkpt>
      <trkpt lat="42.5905751623213291168212890625" lon="-5.6162316910922527313232421875">
        <ele>880</ele>
        <time>2019-07-08T12:34:24.000Z</time>
      </trkpt>
      <trkpt lat="42.59059804491698741912841796875" lon="-5.6162836588919162750244140625">
        <ele>880.5999755859375</ele>
        <time>2019-07-08T12:34:26.000Z</time>
      </trkpt>
      <trkpt lat="42.59060827083885669708251953125" lon="-5.61630268581211566925048828125">
        <ele>881.5999755859375</ele>
        <time>2019-07-08T12:35:11.000Z</time>
      </trkpt>
      <trkpt lat="42.590551190078258514404296875" lon="-5.61640175990760326385498046875">
        <ele>882.20001220703125</ele>
        <time>2019-07-08T12:36:35.000Z</time>
      </trkpt>
      <trkpt lat="42.59045404382050037384033203125" lon="-5.61649245209991931915283203125">
        <ele>881.79998779296875</ele>
        <time>2019-07-08T12:36:37.000Z</time>
      </trkpt>
      <trkpt lat="42.59035463444888591766357421875" lon="-5.61667115427553653717041015625">
        <ele>880.79998779296875</ele>
        <time>2019-07-08T12:36:39.000Z</time>
      </trkpt>
      <trkpt lat="42.59030199609696865081787109375" lon="-5.616803504526615142822265625">
        <ele>880</ele>
        <time>2019-07-08T12:36:40.000Z</time>
      </trkpt>
      <trkpt lat="42.5900551490485668182373046875" lon="-5.61749760992825031280517578125">
        <ele>879.20001220703125</ele>
        <time>2019-07-08T12:36:44.000Z</time>
      </trkpt>
      <trkpt lat="42.5899850763380527496337890625" lon="-5.6176965124905109405517578125">
        <ele>878.79998779296875</ele>
        <time>2019-07-08T12:36:45.000Z</time>
      </trkpt>
      <trkpt lat="42.5898395664989948272705078125" lon="-5.61810127459466457366943359375">
        <ele>877.4000244140625</ele>
        <time>2019-07-08T12:36:47.000Z</time>
      </trkpt>
      <trkpt lat="42.58968961425125598907470703125" lon="-5.61850192956626415252685546875">
        <ele>876</ele>
        <time>2019-07-08T12:36:49.000Z</time>
      </trkpt>
      <trkpt lat="42.58946062065660953521728515625" lon="-5.6191214360296726226806640625">
        <ele>874.79998779296875</ele>
        <time>2019-07-08T12:36:52.000Z</time>
      </trkpt>
      <trkpt lat="42.5892146117985248565673828125" lon="-5.61979961581528186798095703125">
        <ele>877.5999755859375</ele>
        <time>2019-07-08T12:36:55.000Z</time>
      </trkpt>
      <trkpt lat="42.58913255296647548675537109375" lon="-5.6200246699154376983642578125">
        <ele>879.20001220703125</ele>
        <time>2019-07-08T12:36:56.000Z</time>
      </trkpt>
      <trkpt lat="42.58905342780053615570068359375" lon="-5.62024067156016826629638671875">
        <ele>881.5999755859375</ele>
        <time>2019-07-08T12:36:57.000Z</time>
      </trkpt>
      <trkpt lat="42.58897547610104084014892578125" lon="-5.62045239843428134918212890625">
        <ele>883</ele>
        <time>2019-07-08T12:36:58.000Z</time>
      </trkpt>
      <trkpt lat="42.58889861404895782470703125" lon="-5.62066563405096530914306640625">
        <ele>884.20001220703125</ele>
        <time>2019-07-08T12:36:59.000Z</time>
      </trkpt>
      <trkpt lat="42.5887435488402843475341796875" lon="-5.62109109945595264434814453125">
        <ele>885.5999755859375</ele>
        <time>2019-07-08T12:37:01.000Z</time>
      </trkpt>
      <trkpt lat="42.58851698599755764007568359375" lon="-5.6217101030051708221435546875">
        <ele>886.20001220703125</ele>
        <time>2019-07-08T12:37:04.000Z</time>
      </trkpt>
      <trkpt lat="42.58829369209706783294677734375" lon="-5.62231586314737796783447265625">
        <ele>886.5999755859375</ele>
        <time>2019-07-08T12:37:07.000Z</time>
      </trkpt>
      <trkpt lat="42.58806444704532623291015625" lon="-5.62293478287756443023681640625">
        <ele>885.79998779296875</ele>
        <time>2019-07-08T12:37:10.000Z</time>
      </trkpt>
      <trkpt lat="42.587984316051006317138671875" lon="-5.623152293264865875244140625">
        <ele>885.5999755859375</ele>
        <time>2019-07-08T12:37:11.000Z</time>
      </trkpt>
      <trkpt lat="42.58775875903666019439697265625" lon="-5.62378085218369960784912109375">
        <ele>885</ele>
        <time>2019-07-08T12:37:14.000Z</time>
      </trkpt>
      <trkpt lat="42.5875259935855865478515625" lon="-5.62441150657832622528076171875">
        <ele>886.4000244140625</ele>
        <time>2019-07-08T12:37:17.000Z</time>
      </trkpt>
      <trkpt lat="42.58744494058191776275634765625" lon="-5.6246311962604522705078125">
        <ele>886.79998779296875</ele>
        <time>2019-07-08T12:37:18.000Z</time>
      </trkpt>
      <trkpt lat="42.58719750680029392242431640625" lon="-5.625312142074108123779296875">
        <ele>887.20001220703125</ele>
        <time>2019-07-08T12:37:21.000Z</time>
      </trkpt>
      <trkpt lat="42.58692995645105838775634765625" lon="-5.6260355003178119659423828125">
        <ele>887.20001220703125</ele>
        <time>2019-07-08T12:37:24.000Z</time>
      </trkpt>
      <trkpt lat="42.58676667697727680206298828125" lon="-5.62649734318256378173828125">
        <ele>887.79998779296875</ele>
        <time>2019-07-08T12:37:26.000Z</time>
      </trkpt>
      <trkpt lat="42.58662334643304347991943359375" lon="-5.62689028680324554443359375">
        <ele>889.4000244140625</ele>
        <time>2019-07-08T12:37:28.000Z</time>
      </trkpt>
      <trkpt lat="42.5864928402006626129150390625" lon="-5.62725045718252658843994140625">
        <ele>891.4000244140625</ele>
        <time>2019-07-08T12:37:30.000Z</time>
      </trkpt>
      <trkpt lat="42.58642804808914661407470703125" lon="-5.6274258904159069061279296875">
        <ele>892.79998779296875</ele>
        <time>2019-07-08T12:37:31.000Z</time>
      </trkpt>
      <trkpt lat="42.5862967036664485931396484375" lon="-5.62778019346296787261962890625">
        <ele>894.4000244140625</ele>
        <time>2019-07-08T12:37:33.000Z</time>
      </trkpt>
      <trkpt lat="42.586090005934238433837890625" lon="-5.62833876349031925201416015625">
        <ele>895.20001220703125</ele>
        <time>2019-07-08T12:37:36.000Z</time>
      </trkpt>
      <trkpt lat="42.58602236397564411163330078125" lon="-5.62852970324456691741943359375">
        <ele>895.4000244140625</ele>
        <time>2019-07-08T12:37:37.000Z</time>
      </trkpt>
      <trkpt lat="42.58581717498600482940673828125" lon="-5.62909615226089954376220703125">
        <ele>896.5999755859375</ele>
        <time>2019-07-08T12:37:40.000Z</time>
      </trkpt>
      <trkpt lat="42.5856174342334270477294921875" lon="-5.6296481005847454071044921875">
        <ele>898</ele>
        <time>2019-07-08T12:37:43.000Z</time>
      </trkpt>
      <trkpt lat="42.585429511964321136474609375" lon="-5.63016367144882678985595703125">
        <ele>899.4000244140625</ele>
        <time>2019-07-08T12:37:46.000Z</time>
      </trkpt>
      <trkpt lat="42.585305459797382354736328125" lon="-5.63051001168787479400634765625">
        <ele>901</ele>
        <time>2019-07-08T12:37:48.000Z</time>
      </trkpt>
      <trkpt lat="42.5851798988878726959228515625" lon="-5.63085802830755710601806640625">
        <ele>902.20001220703125</ele>
        <time>2019-07-08T12:37:50.000Z</time>
      </trkpt>
      <trkpt lat="42.584983594715595245361328125" lon="-5.63139371573925018310546875">
        <ele>903.4000244140625</ele>
        <time>2019-07-08T12:37:53.000Z</time>
      </trkpt>
      <trkpt lat="42.5847286172211170196533203125" lon="-5.63209050334990024566650390625">
        <ele>904.20001220703125</ele>
        <time>2019-07-08T12:37:57.000Z</time>
      </trkpt>
      <trkpt lat="42.5845487415790557861328125" lon="-5.6325861252844333648681640625">
        <ele>904.4000244140625</ele>
        <time>2019-07-08T12:38:00.000Z</time>
      </trkpt>
      <trkpt lat="42.58443734608590602874755859375" lon="-5.632884688675403594970703125">
        <ele>905.4000244140625</ele>
        <time>2019-07-08T12:38:02.000Z</time>
      </trkpt>
      <trkpt lat="42.584386132657527923583984375" lon="-5.63302475027740001678466796875">
        <ele>906.5999755859375</ele>
        <time>2019-07-08T12:38:03.000Z</time>
      </trkpt>
      <trkpt lat="42.58433693088591098785400390625" lon="-5.6331606209278106689453125">
        <ele>907.79998779296875</ele>
        <time>2019-07-08T12:38:04.000Z</time>
      </trkpt>
      <trkpt lat="42.584286220371723175048828125" lon="-5.63329783268272876739501953125">
        <ele>909</ele>
        <time>2019-07-08T12:38:05.000Z</time>
      </trkpt>
      <trkpt lat="42.58412302471697330474853515625" lon="-5.6337320990860462188720703125">
        <ele>910.4000244140625</ele>
        <time>2019-07-08T12:38:08.000Z</time>
      </trkpt>
      <trkpt lat="42.58400433696806430816650390625" lon="-5.634041391313076019287109375">
        <ele>911.5999755859375</ele>
        <time>2019-07-08T12:38:10.000Z</time>
      </trkpt>
      <trkpt lat="42.5838843919336795806884765625" lon="-5.63443643040955066680908203125">
        <ele>912.79998779296875</ele>
        <time>2019-07-08T12:38:13.000Z</time>
      </trkpt>
      <trkpt lat="42.5838138163089752197265625" lon="-5.634642541408538818359375">
        <ele>914</ele>
        <time>2019-07-08T12:38:18.000Z</time>
      </trkpt>
      <trkpt lat="42.58381390012800693511962890625" lon="-5.634624771773815155029296875">
        <ele>915</ele>
        <time>2019-07-08T12:38:30.000Z</time>
      </trkpt>
      <trkpt lat="42.58381390012800693511962890625" lon="-5.634624771773815155029296875">
        <ele>916.20001220703125</ele>
        <time>2019-07-08T12:39:42.000Z</time>
      </trkpt>
      <trkpt lat="42.5837432406842708587646484375" lon="-5.6347630731761455535888671875">
        <ele>916.79998779296875</ele>
        <time>2019-07-08T12:40:17.000Z</time>
      </trkpt>
      <trkpt lat="42.58351013995707035064697265625" lon="-5.63530295155942440032958984375">
        <ele>917</ele>
        <time>2019-07-08T12:40:23.000Z</time>
      </trkpt>
      <trkpt lat="42.58345666341483592987060546875" lon="-5.6354078091681003570556640625">
        <ele>917.4000244140625</ele>
        <time>2019-07-08T12:40:24.000Z</time>
      </trkpt>
      <trkpt lat="42.58316136896610260009765625" lon="-5.635976605117321014404296875">
        <ele>918</ele>
        <time>2019-07-08T12:40:29.000Z</time>
      </trkpt>
      <trkpt lat="42.58282743394374847412109375" lon="-5.63652821816504001617431640625">
        <ele>918</ele>
        <time>2019-07-08T12:40:34.000Z</time>
      </trkpt>
      <trkpt lat="42.58268569596111774444580078125" lon="-5.63676458783447742462158203125">
        <ele>918.4000244140625</ele>
        <time>2019-07-08T12:40:36.000Z</time>
      </trkpt>
      <trkpt lat="42.58236366324126720428466796875" lon="-5.637269429862499237060546875">
        <ele>918.20001220703125</ele>
        <time>2019-07-08T12:40:40.000Z</time>
      </trkpt>
      <trkpt lat="42.5820614956319332122802734375" lon="-5.63775264658033847808837890625">
        <ele>917.4000244140625</ele>
        <time>2019-07-08T12:40:44.000Z</time>
      </trkpt>
      <trkpt lat="42.58174139074981212615966796875" lon="-5.6382814608514308929443359375">
        <ele>918.79998779296875</ele>
        <time>2019-07-08T12:40:49.000Z</time>
      </trkpt>
      <trkpt lat="42.58158984594047069549560546875" lon="-5.63852663151919841766357421875">
        <ele>919.4000244140625</ele>
        <time>2019-07-08T12:40:52.000Z</time>
      </trkpt>
      <trkpt lat="42.58147065527737140655517578125" lon="-5.638706423342227935791015625">
        <ele>920.79998779296875</ele>
        <time>2019-07-08T12:40:56.000Z</time>
      </trkpt>
      <trkpt lat="42.58146780543029308319091796875" lon="-5.63870198093354701995849609375">
        <ele>921.79998779296875</ele>
        <time>2019-07-08T12:41:03.000Z</time>
      </trkpt>
      <trkpt lat="42.58134023286402225494384765625" lon="-5.63889853656291961669921875">
        <ele>921.79998779296875</ele>
        <time>2019-07-08T12:41:11.000Z</time>
      </trkpt>
      <trkpt lat="42.581044100224971771240234375" lon="-5.63937605358660221099853515625">
        <ele>921.79998779296875</ele>
        <time>2019-07-08T12:41:16.000Z</time>
      </trkpt>
      <trkpt lat="42.5807529129087924957275390625" lon="-5.63983865082263946533203125">
        <ele>923</ele>
        <time>2019-07-08T12:41:20.000Z</time>
      </trkpt>
      <trkpt lat="42.58045057766139507293701171875" lon="-5.64034198410809040069580078125">
        <ele>923.4000244140625</ele>
        <time>2019-07-08T12:41:24.000Z</time>
      </trkpt>
      <trkpt lat="42.58012804202735424041748046875" lon="-5.64085914753377437591552734375">
        <ele>922.4000244140625</ele>
        <time>2019-07-08T12:41:28.000Z</time>
      </trkpt>
      <trkpt lat="42.579838447272777557373046875" lon="-5.64138050191104412078857421875">
        <ele>921.79998779296875</ele>
        <time>2019-07-08T12:41:33.000Z</time>
      </trkpt>
      <trkpt lat="42.57975672371685504913330078125" lon="-5.6415312923491001129150390625">
        <ele>920.79998779296875</ele>
        <time>2019-07-08T12:41:36.000Z</time>
      </trkpt>
      <trkpt lat="42.5796746648848056793212890625" lon="-5.6416189670562744140625">
        <ele>920.5999755859375</ele>
        <time>2019-07-08T12:42:16.000Z</time>
      </trkpt>
      <trkpt lat="42.57961414754390716552734375" lon="-5.64171058125793933868408203125">
        <ele>920.5999755859375</ele>
        <time>2019-07-08T12:42:28.000Z</time>
      </trkpt>
      <trkpt lat="42.57944424636662006378173828125" lon="-5.641963295638561248779296875">
        <ele>919.20001220703125</ele>
        <time>2019-07-08T12:42:31.000Z</time>
      </trkpt>
      <trkpt lat="42.579295299947261810302734375" lon="-5.6421864219009876251220703125">
        <ele>917.79998779296875</ele>
        <time>2019-07-08T12:42:33.000Z</time>
      </trkpt>
      <trkpt lat="42.57913378067314624786376953125" lon="-5.64243762753903865814208984375">
        <ele>916.20001220703125</ele>
        <time>2019-07-08T12:42:35.000Z</time>
      </trkpt>
      <trkpt lat="42.57895759306848049163818359375" lon="-5.64271573908627033233642578125">
        <ele>914.4000244140625</ele>
        <time>2019-07-08T12:42:37.000Z</time>
      </trkpt>
      <trkpt lat="42.5787778012454509735107421875" lon="-5.64302687533199787139892578125">
        <ele>912.4000244140625</ele>
        <time>2019-07-08T12:42:39.000Z</time>
      </trkpt>
      <trkpt lat="42.57861158810555934906005859375" lon="-5.643370114266872406005859375">
        <ele>910.4000244140625</ele>
        <time>2019-07-08T12:42:41.000Z</time>
      </trkpt>
      <trkpt lat="42.57853765971958637237548828125" lon="-5.643545128405094146728515625">
        <ele>909.20001220703125</ele>
        <time>2019-07-08T12:42:42.000Z</time>
      </trkpt>
      <trkpt lat="42.5784656591713428497314453125" lon="-5.64372927881777286529541015625">
        <ele>907.5999755859375</ele>
        <time>2019-07-08T12:42:43.000Z</time>
      </trkpt>
      <trkpt lat="42.57827077992260456085205078125" lon="-5.6443395651876926422119140625">
        <ele>906.5999755859375</ele>
        <time>2019-07-08T12:42:46.000Z</time>
      </trkpt>
      <trkpt lat="42.57816667668521404266357421875" lon="-5.64479528926312923431396484375">
        <ele>905.4000244140625</ele>
        <time>2019-07-08T12:42:48.000Z</time>
      </trkpt>
      <trkpt lat="42.57804329507052898406982421875" lon="-5.64551420509815216064453125">
        <ele>905.4000244140625</ele>
        <time>2019-07-08T12:42:51.000Z</time>
      </trkpt>
      <trkpt lat="42.57793902419507503509521484375" lon="-5.646203868091106414794921875">
        <ele>907.20001220703125</ele>
        <time>2019-07-08T12:42:54.000Z</time>
      </trkpt>
      <trkpt lat="42.577905915677547454833984375" lon="-5.64642607234418392181396484375">
        <ele>910.20001220703125</ele>
        <time>2019-07-08T12:42:55.000Z</time>
      </trkpt>
      <trkpt lat="42.577872388064861297607421875" lon="-5.6466467678546905517578125">
        <ele>912.4000244140625</ele>
        <time>2019-07-08T12:42:56.000Z</time>
      </trkpt>
      <trkpt lat="42.5778075121343135833740234375" lon="-5.6470884941518306732177734375">
        <ele>913.5999755859375</ele>
        <time>2019-07-08T12:42:58.000Z</time>
      </trkpt>
      <trkpt lat="42.5777739845216274261474609375" lon="-5.647310279309749603271484375">
        <ele>914.79998779296875</ele>
        <time>2019-07-08T12:42:59.000Z</time>
      </trkpt>
      <trkpt lat="42.5777052529156208038330078125" lon="-5.64775896258652210235595703125">
        <ele>916</ele>
        <time>2019-07-08T12:43:01.000Z</time>
      </trkpt>
      <trkpt lat="42.57758212275803089141845703125" lon="-5.64843856729567050933837890625">
        <ele>916.20001220703125</ele>
        <time>2019-07-08T12:43:04.000Z</time>
      </trkpt>
      <trkpt lat="42.5774031691253185272216796875" lon="-5.6491343490779399871826171875">
        <ele>914.5999755859375</ele>
        <time>2019-07-08T12:43:07.000Z</time>
      </trkpt>
      <trkpt lat="42.5772482715547084808349609375" lon="-5.64958420582115650177001953125">
        <ele>912.20001220703125</ele>
        <time>2019-07-08T12:43:09.000Z</time>
      </trkpt>
      <trkpt lat="42.5771605968475341796875" lon="-5.64980431459844112396240234375">
        <ele>910.5999755859375</ele>
        <time>2019-07-08T12:43:10.000Z</time>
      </trkpt>
      <trkpt lat="42.57696387358009815216064453125" lon="-5.6502421014010906219482421875">
        <ele>909.5999755859375</ele>
        <time>2019-07-08T12:43:12.000Z</time>
      </trkpt>
      <trkpt lat="42.57663731463253498077392578125" lon="-5.65091349184513092041015625">
        <ele>908.5999755859375</ele>
        <time>2019-07-08T12:43:15.000Z</time>
      </trkpt>
      <trkpt lat="42.576524578034877777099609375" lon="-5.65114223398268222808837890625">
        <ele>908.4000244140625</ele>
        <time>2019-07-08T12:43:16.000Z</time>
      </trkpt>
      <trkpt lat="42.57629851810634136199951171875" lon="-5.65159552730619907379150390625">
        <ele>907.20001220703125</ele>
        <time>2019-07-08T12:43:18.000Z</time>
      </trkpt>
      <trkpt lat="42.57596609182655811309814453125" lon="-5.65225820057094097137451171875">
        <ele>906.5999755859375</ele>
        <time>2019-07-08T12:43:21.000Z</time>
      </trkpt>
      <trkpt lat="42.57564305327832698822021484375" lon="-5.65290763042867183685302734375">
        <ele>908</ele>
        <time>2019-07-08T12:43:24.000Z</time>
      </trkpt>
      <trkpt lat="42.57553853094577789306640625" lon="-5.6531204469501972198486328125">
        <ele>908.79998779296875</ele>
        <time>2019-07-08T12:43:25.000Z</time>
      </trkpt>
      <trkpt lat="42.575223706662654876708984375" lon="-5.6537611596286296844482421875">
        <ele>910.5999755859375</ele>
        <time>2019-07-08T12:43:28.000Z</time>
      </trkpt>
      <trkpt lat="42.5751162506639957427978515625" lon="-5.65397523343563079833984375">
        <ele>913.4000244140625</ele>
        <time>2019-07-08T12:43:29.000Z</time>
      </trkpt>
      <trkpt lat="42.5750086270272731781005859375" lon="-5.6541903130710124969482421875">
        <ele>916.79998779296875</ele>
        <time>2019-07-08T12:43:30.000Z</time>
      </trkpt>
      <trkpt lat="42.57490108720958232879638671875" lon="-5.65440597943961620330810546875">
        <ele>920.4000244140625</ele>
        <time>2019-07-08T12:43:31.000Z</time>
      </trkpt>
      <trkpt lat="42.574795894324779510498046875" lon="-5.65462273545563220977783203125">
        <ele>922.20001220703125</ele>
        <time>2019-07-08T12:43:32.000Z</time>
      </trkpt>
      <trkpt lat="42.57458793930709362030029296875" lon="-5.6550757773220539093017578125">
        <ele>923.4000244140625</ele>
        <time>2019-07-08T12:43:34.000Z</time>
      </trkpt>
      <trkpt lat="42.5743000209331512451171875" lon="-5.65583358518779277801513671875">
        <ele>922.4000244140625</ele>
        <time>2019-07-08T12:43:37.000Z</time>
      </trkpt>
      <trkpt lat="42.57415853440761566162109375" lon="-5.656360052525997161865234375">
        <ele>920.5999755859375</ele>
        <time>2019-07-08T12:43:39.000Z</time>
      </trkpt>
      <trkpt lat="42.574102878570556640625" lon="-5.65662936307489871978759765625">
        <ele>919.20001220703125</ele>
        <time>2019-07-08T12:43:40.000Z</time>
      </trkpt>
      <trkpt lat="42.57405200041830539703369140625" lon="-5.6569100730121135711669921875">
        <ele>917.5999755859375</ele>
        <time>2019-07-08T12:43:41.000Z</time>
      </trkpt>
      <trkpt lat="42.5740121863782405853271484375" lon="-5.65719463862478733062744140625">
        <ele>916.5999755859375</ele>
        <time>2019-07-08T12:43:42.000Z</time>
      </trkpt>
      <trkpt lat="42.57398176006972789764404296875" lon="-5.65748347900807857513427734375">
        <ele>915</ele>
        <time>2019-07-08T12:43:43.000Z</time>
      </trkpt>
      <trkpt lat="42.57396097294986248016357421875" lon="-5.6577765941619873046875">
        <ele>913.5999755859375</ele>
        <time>2019-07-08T12:43:44.000Z</time>
      </trkpt>
      <trkpt lat="42.57394974119961261749267578125" lon="-5.65807222388684749603271484375">
        <ele>912</ele>
        <time>2019-07-08T12:43:45.000Z</time>
      </trkpt>
      <trkpt lat="42.5739515013992786407470703125" lon="-5.65836877562105655670166015625">
        <ele>911</ele>
        <time>2019-07-08T12:43:46.000Z</time>
      </trkpt>
      <trkpt lat="42.573981843888759613037109375" lon="-5.6589690037071704864501953125">
        <ele>909.79998779296875</ele>
        <time>2019-07-08T12:43:48.000Z</time>
      </trkpt>
      <trkpt lat="42.57400564849376678466796875" lon="-5.6592720933258533477783203125">
        <ele>908.5999755859375</ele>
        <time>2019-07-08T12:43:49.000Z</time>
      </trkpt>
      <trkpt lat="42.57403322495520114898681640625" lon="-5.65957434475421905517578125">
        <ele>904.79998779296875</ele>
        <time>2019-07-08T12:43:50.000Z</time>
      </trkpt>
      <trkpt lat="42.57406038232147693634033203125" lon="-5.65987701527774333953857421875">
        <ele>899</ele>
        <time>2019-07-08T12:43:51.000Z</time>
      </trkpt>
      <trkpt lat="42.574084103107452392578125" lon="-5.6601763330399990081787109375">
        <ele>893</ele>
        <time>2019-07-08T12:43:52.000Z</time>
      </trkpt>
      <trkpt lat="42.57410346530377864837646484375" lon="-5.66046877764165401458740234375">
        <ele>890</ele>
        <time>2019-07-08T12:43:53.000Z</time>
      </trkpt>
      <trkpt lat="42.5741188041865825653076171875" lon="-5.6607566960155963897705078125">
        <ele>888.5999755859375</ele>
        <time>2019-07-08T12:43:54.000Z</time>
      </trkpt>
      <trkpt lat="42.5741390883922576904296875" lon="-5.66160201095044612884521484375">
        <ele>889.4000244140625</ele>
        <time>2019-07-08T12:43:57.000Z</time>
      </trkpt>
      <trkpt lat="42.57413665764033794403076171875" lon="-5.6618736684322357177734375">
        <ele>890</ele>
        <time>2019-07-08T12:43:58.000Z</time>
      </trkpt>
      <trkpt lat="42.57413171231746673583984375" lon="-5.66214331425726413726806640625">
        <ele>891.20001220703125</ele>
        <time>2019-07-08T12:43:59.000Z</time>
      </trkpt>
      <trkpt lat="42.5741283595561981201171875" lon="-5.66240273416042327880859375">
        <ele>892.20001220703125</ele>
        <time>2019-07-08T12:44:00.000Z</time>
      </trkpt>
      <trkpt lat="42.5741074047982692718505859375" lon="-5.66266827285289764404296875">
        <ele>893.5999755859375</ele>
        <time>2019-07-08T12:44:01.000Z</time>
      </trkpt>
      <trkpt lat="42.57408217526972293853759765625" lon="-5.6629346497356891632080078125">
        <ele>895</ele>
        <time>2019-07-08T12:44:02.000Z</time>
      </trkpt>
      <trkpt lat="42.57403071038424968719482421875" lon="-5.66347234882414340972900390625">
        <ele>896.5999755859375</ele>
        <time>2019-07-08T12:44:04.000Z</time>
      </trkpt>
      <trkpt lat="42.57397304289042949676513671875" lon="-5.66400996409356594085693359375">
        <ele>897.79998779296875</ele>
        <time>2019-07-08T12:44:06.000Z</time>
      </trkpt>
      <trkpt lat="42.573908753693103790283203125" lon="-5.66453902982175350189208984375">
        <ele>899.20001220703125</ele>
        <time>2019-07-08T12:44:08.000Z</time>
      </trkpt>
      <trkpt lat="42.5738207437098026275634765625" lon="-5.665331371128559112548828125">
        <ele>900.5999755859375</ele>
        <time>2019-07-08T12:44:11.000Z</time>
      </trkpt>
      <trkpt lat="42.573792077600955963134765625" lon="-5.6655923835933208465576171875">
        <ele>901.79998779296875</ele>
        <time>2019-07-08T12:44:12.000Z</time>
      </trkpt>
      <trkpt lat="42.5737608969211578369140625" lon="-5.66585247404873371124267578125">
        <ele>903</ele>
        <time>2019-07-08T12:44:13.000Z</time>
      </trkpt>
      <trkpt lat="42.57365620695054531097412109375" lon="-5.66667373292148113250732421875">
        <ele>903.79998779296875</ele>
        <time>2019-07-08T12:44:16.000Z</time>
      </trkpt>
      <trkpt lat="42.5735605694353580474853515625" lon="-5.6672667525708675384521484375">
        <ele>905.20001220703125</ele>
        <time>2019-07-08T12:44:18.000Z</time>
      </trkpt>
      <trkpt lat="42.573427297174930572509765625" lon="-5.66786907613277435302734375">
        <ele>904.79998779296875</ele>
        <time>2019-07-08T12:44:20.000Z</time>
      </trkpt>
      <trkpt lat="42.57327315397560596466064453125" lon="-5.66845974884927272796630859375">
        <ele>903.20001220703125</ele>
        <time>2019-07-08T12:44:22.000Z</time>
      </trkpt>
      <trkpt lat="42.57319419644773006439208984375" lon="-5.668747834861278533935546875">
        <ele>905.20001220703125</ele>
        <time>2019-07-08T12:44:23.000Z</time>
      </trkpt>
      <trkpt lat="42.57311557419598102569580078125" lon="-5.66902913153171539306640625">
        <ele>902.4000244140625</ele>
        <time>2019-07-08T12:44:24.000Z</time>
      </trkpt>
      <trkpt lat="42.57303611375391483306884765625" lon="-5.66930833272635936737060546875">
        <ele>899.5999755859375</ele>
        <time>2019-07-08T12:44:25.000Z</time>
      </trkpt>
      <trkpt lat="42.57295698858797550201416015625" lon="-5.66958644427359104156494140625">
        <ele>898.20001220703125</ele>
        <time>2019-07-08T12:44:26.000Z</time>
      </trkpt>
      <trkpt lat="42.5727228820323944091796875" lon="-5.6704325973987579345703125">
        <ele>899.20001220703125</ele>
        <time>2019-07-08T12:44:29.000Z</time>
      </trkpt>
      <trkpt lat="42.57256127893924713134765625" lon="-5.67101664841175079345703125">
        <ele>898.79998779296875</ele>
        <time>2019-07-08T12:44:31.000Z</time>
      </trkpt>
      <trkpt lat="42.57239573635160923004150390625" lon="-5.6716172955930233001708984375">
        <ele>898.20001220703125</ele>
        <time>2019-07-08T12:44:33.000Z</time>
      </trkpt>
      <trkpt lat="42.57223002612590789794921875" lon="-5.67223168909549713134765625">
        <ele>896.5999755859375</ele>
        <time>2019-07-08T12:44:35.000Z</time>
      </trkpt>
      <trkpt lat="42.57206414826214313507080078125" lon="-5.67285530269145965576171875">
        <ele>895.79998779296875</ele>
        <time>2019-07-08T12:44:37.000Z</time>
      </trkpt>
      <trkpt lat="42.571978233754634857177734375" lon="-5.6731692887842655181884765625">
        <ele>895.4000244140625</ele>
        <time>2019-07-08T12:44:38.000Z</time>
      </trkpt>
      <trkpt lat="42.57180581800639629364013671875" lon="-5.67379667423665523529052734375">
        <ele>894.4000244140625</ele>
        <time>2019-07-08T12:44:40.000Z</time>
      </trkpt>
      <trkpt lat="42.5716397725045680999755859375" lon="-5.67440520040690898895263671875">
        <ele>894.79998779296875</ele>
        <time>2019-07-08T12:44:42.000Z</time>
      </trkpt>
      <trkpt lat="42.57141530513763427734375" lon="-5.67522511817514896392822265625">
        <ele>896.20001220703125</ele>
        <time>2019-07-08T12:44:45.000Z</time>
      </trkpt>
      <trkpt lat="42.571345902979373931884765625" lon="-5.67547691054642200469970703125">
        <ele>898</ele>
        <time>2019-07-08T12:44:46.000Z</time>
      </trkpt>
      <trkpt lat="42.57127826102077960968017578125" lon="-5.6757220812141895294189453125">
        <ele>899.79998779296875</ele>
        <time>2019-07-08T12:44:47.000Z</time>
      </trkpt>
      <trkpt lat="42.5712109543383121490478515625" lon="-5.6759644858539104461669921875">
        <ele>902</ele>
        <time>2019-07-08T12:44:48.000Z</time>
      </trkpt>
      <trkpt lat="42.57114331237971782684326171875" lon="-5.676207058131694793701171875">
        <ele>903.79998779296875</ele>
        <time>2019-07-08T12:44:49.000Z</time>
      </trkpt>
      <trkpt lat="42.5710758380591869354248046875" lon="-5.67645072005689144134521484375">
        <ele>905.4000244140625</ele>
        <time>2019-07-08T12:44:50.000Z</time>
      </trkpt>
      <trkpt lat="42.5710077770054340362548828125" lon="-5.6766953878104686737060546875">
        <ele>906.5999755859375</ele>
        <time>2019-07-08T12:44:51.000Z</time>
      </trkpt>
      <trkpt lat="42.5708022527396678924560546875" lon="-5.67743810825049877166748046875">
        <ele>908</ele>
        <time>2019-07-08T12:44:54.000Z</time>
      </trkpt>
      <trkpt lat="42.5706151686608791351318359375" lon="-5.6781139411032199859619140625">
        <ele>908.5999755859375</ele>
        <time>2019-07-08T12:44:57.000Z</time>
      </trkpt>
      <trkpt lat="42.57045549340546131134033203125" lon="-5.6786949746310710906982421875">
        <ele>908.79998779296875</ele>
        <time>2019-07-08T12:45:00.000Z</time>
      </trkpt>
      <trkpt lat="42.57025550119578838348388671875" lon="-5.67942629568278789520263671875">
        <ele>907.79998779296875</ele>
        <time>2019-07-08T12:45:04.000Z</time>
      </trkpt>
      <trkpt lat="42.57015894167125225067138671875" lon="-5.67978336475789546966552734375">
        <ele>906.79998779296875</ele>
        <time>2019-07-08T12:45:06.000Z</time>
      </trkpt>
      <trkpt lat="42.5700622983276844024658203125" lon="-5.68013791926205158233642578125">
        <ele>905.5999755859375</ele>
        <time>2019-07-08T12:45:08.000Z</time>
      </trkpt>
      <trkpt lat="42.56996112875640392303466796875" lon="-5.68049423396587371826171875">
        <ele>904.4000244140625</ele>
        <time>2019-07-08T12:45:10.000Z</time>
      </trkpt>
      <trkpt lat="42.56976130418479442596435546875" lon="-5.68119085393846035003662109375">
        <ele>904.4000244140625</ele>
        <time>2019-07-08T12:45:14.000Z</time>
      </trkpt>
      <trkpt lat="42.56950431503355503082275390625" lon="-5.68190499208867549896240234375">
        <ele>904.20001220703125</ele>
        <time>2019-07-08T12:45:18.000Z</time>
      </trkpt>
      <trkpt lat="42.56934707053005695343017578125" lon="-5.6822713650763034820556640625">
        <ele>902</ele>
        <time>2019-07-08T12:45:20.000Z</time>
      </trkpt>
      <trkpt lat="42.56926953792572021484375" lon="-5.68244646303355693817138671875">
        <ele>900.4000244140625</ele>
        <time>2019-07-08T12:45:21.000Z</time>
      </trkpt>
      <trkpt lat="42.56919217295944690704345703125" lon="-5.68262063898146152496337890625">
        <ele>899.4000244140625</ele>
        <time>2019-07-08T12:45:22.000Z</time>
      </trkpt>
      <trkpt lat="42.56889176554977893829345703125" lon="-5.6833144091069698333740234375">
        <ele>898.5999755859375</ele>
        <time>2019-07-08T12:45:26.000Z</time>
      </trkpt>
      <trkpt lat="42.56859697401523590087890625" lon="-5.68398437462747097015380859375">
        <ele>899.79998779296875</ele>
        <time>2019-07-08T12:45:30.000Z</time>
      </trkpt>
      <trkpt lat="42.56852279417216777801513671875" lon="-5.68415000103414058685302734375">
        <ele>900.4000244140625</ele>
        <time>2019-07-08T12:45:31.000Z</time>
      </trkpt>
      <trkpt lat="42.56837544031441211700439453125" lon="-5.6844855286180973052978515625">
        <ele>901.5999755859375</ele>
        <time>2019-07-08T12:45:33.000Z</time>
      </trkpt>
      <trkpt lat="42.56815373897552490234375" lon="-5.68500428460538387298583984375">
        <ele>903</ele>
        <time>2019-07-08T12:45:36.000Z</time>
      </trkpt>
      <trkpt lat="42.56808324716985225677490234375" lon="-5.68517376668751239776611328125">
        <ele>903.5999755859375</ele>
        <time>2019-07-08T12:45:37.000Z</time>
      </trkpt>
      <trkpt lat="42.568011581897735595703125" lon="-5.685337297618389129638671875">
        <ele>904.20001220703125</ele>
        <time>2019-07-08T12:45:38.000Z</time>
      </trkpt>
      <trkpt lat="42.56787068210542201995849609375" lon="-5.68566880188882350921630859375">
        <ele>905.79998779296875</ele>
        <time>2019-07-08T12:45:40.000Z</time>
      </trkpt>
      <trkpt lat="42.5677267648279666900634765625" lon="-5.68600340746343135833740234375">
        <ele>907.20001220703125</ele>
        <time>2019-07-08T12:45:42.000Z</time>
      </trkpt>
      <trkpt lat="42.56758117116987705230712890625" lon="-5.6863459758460521697998046875">
        <ele>909</ele>
        <time>2019-07-08T12:45:44.000Z</time>
      </trkpt>
      <trkpt lat="42.56742711178958415985107421875" lon="-5.68669642321765422821044921875">
        <ele>910.5999755859375</ele>
        <time>2019-07-08T12:45:46.000Z</time>
      </trkpt>
      <trkpt lat="42.56717867217957973480224609375" lon="-5.68723655305802822113037109375">
        <ele>912</ele>
        <time>2019-07-08T12:45:49.000Z</time>
      </trkpt>
      <trkpt lat="42.56690718233585357666015625" lon="-5.68779495544731616973876953125">
        <ele>913.4000244140625</ele>
        <time>2019-07-08T12:45:52.000Z</time>
      </trkpt>
      <trkpt lat="42.5667093694210052490234375" lon="-5.68817784078419208526611328125">
        <ele>914.79998779296875</ele>
        <time>2019-07-08T12:45:54.000Z</time>
      </trkpt>
      <trkpt lat="42.56650082767009735107421875" lon="-5.6885742209851741790771484375">
        <ele>915.79998779296875</ele>
        <time>2019-07-08T12:45:56.000Z</time>
      </trkpt>
      <trkpt lat="42.56617519073188304901123046875" lon="-5.6891971640288829803466796875">
        <ele>915.20001220703125</ele>
        <time>2019-07-08T12:45:59.000Z</time>
      </trkpt>
      <trkpt lat="42.5660627894103527069091796875" lon="-5.689412914216518402099609375">
        <ele>914.4000244140625</ele>
        <time>2019-07-08T12:46:00.000Z</time>
      </trkpt>
      <trkpt lat="42.56594787351787090301513671875" lon="-5.68963243626058101654052734375">
        <ele>913.4000244140625</ele>
        <time>2019-07-08T12:46:01.000Z</time>
      </trkpt>
      <trkpt lat="42.565829940140247344970703125" lon="-5.689857490360736846923828125">
        <ele>912.4000244140625</ele>
        <time>2019-07-08T12:46:02.000Z</time>
      </trkpt>
      <trkpt lat="42.56558728404343128204345703125" lon="-5.69031648337841033935546875">
        <ele>911.20001220703125</ele>
        <time>2019-07-08T12:46:04.000Z</time>
      </trkpt>
      <trkpt lat="42.5652323104441165924072265625" lon="-5.69098460488021373748779296875">
        <ele>910.4000244140625</ele>
        <time>2019-07-08T12:46:07.000Z</time>
      </trkpt>
      <trkpt lat="42.5649070926010608673095703125" lon="-5.691601932048797607421875">
        <ele>911.4000244140625</ele>
        <time>2019-07-08T12:46:10.000Z</time>
      </trkpt>
      <trkpt lat="42.56479972042143344879150390625" lon="-5.6918032653629779815673828125">
        <ele>912.4000244140625</ele>
        <time>2019-07-08T12:46:11.000Z</time>
      </trkpt>
      <trkpt lat="42.56447332911193370819091796875" lon="-5.69240667857229709625244140625">
        <ele>913</ele>
        <time>2019-07-08T12:46:14.000Z</time>
      </trkpt>
      <trkpt lat="42.5642633624374866485595703125" lon="-5.6928003765642642974853515625">
        <ele>910.4000244140625</ele>
        <time>2019-07-08T12:46:16.000Z</time>
      </trkpt>
      <trkpt lat="42.56407208740711212158203125" lon="-5.6931554339826107025146484375">
        <ele>909.4000244140625</ele>
        <time>2019-07-08T12:46:18.000Z</time>
      </trkpt>
      <trkpt lat="42.5637379847466945648193359375" lon="-5.69378248415887355804443359375">
        <ele>910</ele>
        <time>2019-07-08T12:46:22.000Z</time>
      </trkpt>
      <trkpt lat="42.56351477466523647308349609375" lon="-5.69419856183230876922607421875">
        <ele>910.4000244140625</ele>
        <time>2019-07-08T12:46:25.000Z</time>
      </trkpt>
      <trkpt lat="42.56321554072201251983642578125" lon="-5.694751180708408355712890625">
        <ele>911.79998779296875</ele>
        <time>2019-07-08T12:46:29.000Z</time>
      </trkpt>
      <trkpt lat="42.5630615651607513427734375" lon="-5.69504211656749248504638671875">
        <ele>914</ele>
        <time>2019-07-08T12:46:31.000Z</time>
      </trkpt>
      <trkpt lat="42.562984786927700042724609375" lon="-5.69518695585429668426513671875">
        <ele>915.20001220703125</ele>
        <time>2019-07-08T12:46:32.000Z</time>
      </trkpt>
      <trkpt lat="42.5628310628235340118408203125" lon="-5.69547495804727077484130859375">
        <ele>916.4000244140625</ele>
        <time>2019-07-08T12:46:34.000Z</time>
      </trkpt>
      <trkpt lat="42.56252855993807315826416015625" lon="-5.69604174233973026275634765625">
        <ele>916.4000244140625</ele>
        <time>2019-07-08T12:46:38.000Z</time>
      </trkpt>
      <trkpt lat="42.56221256218850612640380859375" lon="-5.69661833345890045166015625">
        <ele>914.4000244140625</ele>
        <time>2019-07-08T12:46:42.000Z</time>
      </trkpt>
      <trkpt lat="42.5621370412409305572509765625" lon="-5.6967569701373577117919921875">
        <ele>912.4000244140625</ele>
        <time>2019-07-08T12:46:43.000Z</time>
      </trkpt>
      <trkpt lat="42.562064789235591888427734375" lon="-5.69689217023551464080810546875">
        <ele>909.79998779296875</ele>
        <time>2019-07-08T12:46:44.000Z</time>
      </trkpt>
      <trkpt lat="42.56199463270604610443115234375" lon="-5.6970241852104663848876953125">
        <ele>908.5999755859375</ele>
        <time>2019-07-08T12:46:45.000Z</time>
      </trkpt>
      <trkpt lat="42.56172724999487400054931640625" lon="-5.69751980714499950408935546875">
        <ele>908</ele>
        <time>2019-07-08T12:46:49.000Z</time>
      </trkpt>
      <trkpt lat="42.56144762970507144927978515625" lon="-5.6980474479496479034423828125">
        <ele>908</ele>
        <time>2019-07-08T12:46:53.000Z</time>
      </trkpt>
      <trkpt lat="42.56112023256719112396240234375" lon="-5.698655135929584503173828125">
        <ele>907.79998779296875</ele>
        <time>2019-07-08T12:46:57.000Z</time>
      </trkpt>
      <trkpt lat="42.56103423424065113067626953125" lon="-5.698816739022731781005859375">
        <ele>907.4000244140625</ele>
        <time>2019-07-08T12:46:58.000Z</time>
      </trkpt>
      <trkpt lat="42.56068856455385684967041015625" lon="-5.69947781972587108612060546875">
        <ele>906.5999755859375</ele>
        <time>2019-07-08T12:47:02.000Z</time>
      </trkpt>
      <trkpt lat="42.56042470224201679229736328125" lon="-5.699970088899135589599609375">
        <ele>910.4000244140625</ele>
        <time>2019-07-08T12:47:05.000Z</time>
      </trkpt>
      <trkpt lat="42.5603356026113033294677734375" lon="-5.7001352123916149139404296875">
        <ele>912</ele>
        <time>2019-07-08T12:47:06.000Z</time>
      </trkpt>
      <trkpt lat="42.560246251523494720458984375" lon="-5.70030226372182369232177734375">
        <ele>913.20001220703125</ele>
        <time>2019-07-08T12:47:07.000Z</time>
      </trkpt>
      <trkpt lat="42.56015882827341556549072265625" lon="-5.7004714943468570709228515625">
        <ele>914.4000244140625</ele>
        <time>2019-07-08T12:47:08.000Z</time>
      </trkpt>
      <trkpt lat="42.5599047727882862091064453125" lon="-5.70096560753881931304931640625">
        <ele>915.4000244140625</ele>
        <time>2019-07-08T12:47:11.000Z</time>
      </trkpt>
      <trkpt lat="42.559551559388637542724609375" lon="-5.70161889307200908660888671875">
        <ele>915.79998779296875</ele>
        <time>2019-07-08T12:47:15.000Z</time>
      </trkpt>
      <trkpt lat="42.5592573545873165130615234375" lon="-5.7021646387875080108642578125">
        <ele>914.79998779296875</ele>
        <time>2019-07-08T12:47:18.000Z</time>
      </trkpt>
      <trkpt lat="42.5591576099395751953125" lon="-5.7023589313030242919921875">
        <ele>914.20001220703125</ele>
        <time>2019-07-08T12:47:19.000Z</time>
      </trkpt>
      <trkpt lat="42.55894328467547893524169921875" lon="-5.70276034064590930938720703125">
        <ele>913</ele>
        <time>2019-07-08T12:47:21.000Z</time>
      </trkpt>
      <trkpt lat="42.55860976874828338623046875" lon="-5.7033894024789333343505859375">
        <ele>913.20001220703125</ele>
        <time>2019-07-08T12:47:24.000Z</time>
      </trkpt>
      <trkpt lat="42.5582672841846942901611328125" lon="-5.70402852259576320648193359375">
        <ele>913.5999755859375</ele>
        <time>2019-07-08T12:47:27.000Z</time>
      </trkpt>
      <trkpt lat="42.5580366142094135284423828125" lon="-5.70446052588522434234619140625">
        <ele>914.5999755859375</ele>
        <time>2019-07-08T12:47:29.000Z</time>
      </trkpt>
      <trkpt lat="42.55780267529189586639404296875" lon="-5.7049018330872058868408203125">
        <ele>916.5999755859375</ele>
        <time>2019-07-08T12:47:31.000Z</time>
      </trkpt>
      <trkpt lat="42.557683400809764862060546875" lon="-5.70512554608285427093505859375">
        <ele>918.4000244140625</ele>
        <time>2019-07-08T12:47:32.000Z</time>
      </trkpt>
      <trkpt lat="42.557561695575714111328125" lon="-5.70535152219235897064208984375">
        <ele>920.20001220703125</ele>
        <time>2019-07-08T12:47:33.000Z</time>
      </trkpt>
      <trkpt lat="42.55731300450861454010009765625" lon="-5.70581101812422275543212890625">
        <ele>922.20001220703125</ele>
        <time>2019-07-08T12:47:35.000Z</time>
      </trkpt>
      <trkpt lat="42.557186521589756011962890625" lon="-5.70604604668915271759033203125">
        <ele>923.20001220703125</ele>
        <time>2019-07-08T12:47:36.000Z</time>
      </trkpt>
      <trkpt lat="42.5568101741373538970947265625" lon="-5.7067830674350261688232421875">
        <ele>925</ele>
        <time>2019-07-08T12:47:39.000Z</time>
      </trkpt>
      <trkpt lat="42.55669064819812774658203125" lon="-5.707037709653377532958984375">
        <ele>927</ele>
        <time>2019-07-08T12:47:40.000Z</time>
      </trkpt>
      <trkpt lat="42.55657263100147247314453125" lon="-5.70729059167206287384033203125">
        <ele>930</ele>
        <time>2019-07-08T12:47:41.000Z</time>
      </trkpt>
      <trkpt lat="42.5564574636518955230712890625" lon="-5.707539618015289306640625">
        <ele>932.4000244140625</ele>
        <time>2019-07-08T12:47:42.000Z</time>
      </trkpt>
      <trkpt lat="42.55613283254206180572509765625" lon="-5.70824730210006237030029296875">
        <ele>933.4000244140625</ele>
        <time>2019-07-08T12:47:45.000Z</time>
      </trkpt>
      <trkpt lat="42.55583141930401325225830078125" lon="-5.70890813134610652923583984375">
        <ele>933.20001220703125</ele>
        <time>2019-07-08T12:47:48.000Z</time>
      </trkpt>
      <trkpt lat="42.555558420717716217041015625" lon="-5.70952604524791240692138671875">
        <ele>932.79998779296875</ele>
        <time>2019-07-08T12:47:51.000Z</time>
      </trkpt>
      <trkpt lat="42.55547166801989078521728515625" lon="-5.709724612534046173095703125">
        <ele>932.20001220703125</ele>
        <time>2019-07-08T12:47:52.000Z</time>
      </trkpt>
      <trkpt lat="42.55530059337615966796875" lon="-5.7101110182702541351318359375">
        <ele>930.5999755859375</ele>
        <time>2019-07-08T12:47:54.000Z</time>
      </trkpt>
      <trkpt lat="42.555131278932094573974609375" lon="-5.7104965858161449432373046875">
        <ele>928.79998779296875</ele>
        <time>2019-07-08T12:47:56.000Z</time>
      </trkpt>
      <trkpt lat="42.554858028888702392578125" lon="-5.71110787801444530487060546875">
        <ele>927.5999755859375</ele>
        <time>2019-07-08T12:47:59.000Z</time>
      </trkpt>
      <trkpt lat="42.55476373247802257537841796875" lon="-5.71132346056401729583740234375">
        <ele>926.5999755859375</ele>
        <time>2019-07-08T12:48:00.000Z</time>
      </trkpt>
      <trkpt lat="42.55456767976284027099609375" lon="-5.71177122183144092559814453125">
        <ele>925.20001220703125</ele>
        <time>2019-07-08T12:48:02.000Z</time>
      </trkpt>
      <trkpt lat="42.55436039529740810394287109375" lon="-5.7122349925339221954345703125">
        <ele>923.5999755859375</ele>
        <time>2019-07-08T12:48:04.000Z</time>
      </trkpt>
      <trkpt lat="42.5540354289114475250244140625" lon="-5.71296597830951213836669921875">
        <ele>922.4000244140625</ele>
        <time>2019-07-08T12:48:07.000Z</time>
      </trkpt>
      <trkpt lat="42.55371951498091220855712890625" lon="-5.71366871707141399383544921875">
        <ele>922.5999755859375</ele>
        <time>2019-07-08T12:48:10.000Z</time>
      </trkpt>
      <trkpt lat="42.5535127334296703338623046875" lon="-5.714127123355865478515625">
        <ele>923.4000244140625</ele>
        <time>2019-07-08T12:48:12.000Z</time>
      </trkpt>
      <trkpt lat="42.55320587195456027984619140625" lon="-5.7148048840463161468505859375">
        <ele>922.5999755859375</ele>
        <time>2019-07-08T12:48:15.000Z</time>
      </trkpt>
      <trkpt lat="42.5531052052974700927734375" lon="-5.71503169834613800048828125">
        <ele>922.4000244140625</ele>
        <time>2019-07-08T12:48:16.000Z</time>
      </trkpt>
      <trkpt lat="42.5527999363839626312255859375" lon="-5.71572211571037769317626953125">
        <ele>921.4000244140625</ele>
        <time>2019-07-08T12:48:19.000Z</time>
      </trkpt>
      <trkpt lat="42.552481926977634429931640625" lon="-5.71643223054707050323486328125">
        <ele>922.4000244140625</ele>
        <time>2019-07-08T12:48:22.000Z</time>
      </trkpt>
      <trkpt lat="42.5521538592875003814697265625" lon="-5.717166401445865631103515625">
        <ele>923</ele>
        <time>2019-07-08T12:48:25.000Z</time>
      </trkpt>
      <trkpt lat="42.55193081684410572052001953125" lon="-5.71766872890293598175048828125">
        <ele>923.5999755859375</ele>
        <time>2019-07-08T12:48:27.000Z</time>
      </trkpt>
      <trkpt lat="42.55159252323210239410400390625" lon="-5.7184312306344509124755859375">
        <ele>925</ele>
        <time>2019-07-08T12:48:30.000Z</time>
      </trkpt>
      <trkpt lat="42.5512517988681793212890625" lon="-5.71920027025043964385986328125">
        <ele>923.79998779296875</ele>
        <time>2019-07-08T12:48:33.000Z</time>
      </trkpt>
      <trkpt lat="42.55088768899440765380859375" lon="-5.71994575671851634979248046875">
        <ele>923.4000244140625</ele>
        <time>2019-07-08T12:48:36.000Z</time>
      </trkpt>
      <trkpt lat="42.55048401653766632080078125" lon="-5.72061873972415924072265625">
        <ele>924</ele>
        <time>2019-07-08T12:48:39.000Z</time>
      </trkpt>
      <trkpt lat="42.5500523485243320465087890625" lon="-5.72124076075851917266845703125">
        <ele>923.79998779296875</ele>
        <time>2019-07-08T12:48:42.000Z</time>
      </trkpt>
      <trkpt lat="42.54990658722817897796630859375" lon="-5.7214453630149364471435546875">
        <ele>922.4000244140625</ele>
        <time>2019-07-08T12:48:43.000Z</time>
      </trkpt>
      <trkpt lat="42.5496144779026508331298828125" lon="-5.7218560762703418731689453125">
        <ele>924</ele>
        <time>2019-07-08T12:48:45.000Z</time>
      </trkpt>
      <trkpt lat="42.54916948266327381134033203125" lon="-5.7224806956946849822998046875">
        <ele>923.4000244140625</ele>
        <time>2019-07-08T12:48:48.000Z</time>
      </trkpt>
      <trkpt lat="42.54901860840618610382080078125" lon="-5.72269150055944919586181640625">
        <ele>922.20001220703125</ele>
        <time>2019-07-08T12:48:49.000Z</time>
      </trkpt>
      <trkpt lat="42.548557855188846588134765625" lon="-5.723337493836879730224609375">
        <ele>921</ele>
        <time>2019-07-08T12:48:52.000Z</time>
      </trkpt>
      <trkpt lat="42.54824311472475528717041015625" lon="-5.72378240525722503662109375">
        <ele>921.20001220703125</ele>
        <time>2019-07-08T12:48:54.000Z</time>
      </trkpt>
      <trkpt lat="42.54808335565030574798583984375" lon="-5.724008716642856597900390625">
        <ele>922.20001220703125</ele>
        <time>2019-07-08T12:48:55.000Z</time>
      </trkpt>
      <trkpt lat="42.54775897599756717681884765625" lon="-5.7244665361940860748291015625">
        <ele>923.79998779296875</ele>
        <time>2019-07-08T12:48:57.000Z</time>
      </trkpt>
      <trkpt lat="42.54759418778121471405029296875" lon="-5.72470064274966716766357421875">
        <ele>925</ele>
        <time>2019-07-08T12:48:58.000Z</time>
      </trkpt>
      <trkpt lat="42.54742722027003765106201171875" lon="-5.72493416257202625274658203125">
        <ele>927</ele>
        <time>2019-07-08T12:48:59.000Z</time>
      </trkpt>
      <trkpt lat="42.54725891165435314178466796875" lon="-5.72516885586082935333251953125">
        <ele>929.79998779296875</ele>
        <time>2019-07-08T12:49:00.000Z</time>
      </trkpt>
      <trkpt lat="42.5470890104770660400390625" lon="-5.7254083268344402313232421875">
        <ele>931.4000244140625</ele>
        <time>2019-07-08T12:49:01.000Z</time>
      </trkpt>
      <trkpt lat="42.54675096832215785980224609375" lon="-5.7258894480764865875244140625">
        <ele>931.4000244140625</ele>
        <time>2019-07-08T12:49:03.000Z</time>
      </trkpt>
      <trkpt lat="42.546583078801631927490234375" lon="-5.726127326488494873046875">
        <ele>928.4000244140625</ele>
        <time>2019-07-08T12:49:04.000Z</time>
      </trkpt>
      <trkpt lat="42.546416781842708587646484375" lon="-5.72636361233890056610107421875">
        <ele>924</ele>
        <time>2019-07-08T12:49:05.000Z</time>
      </trkpt>
      <trkpt lat="42.54625157453119754791259765625" lon="-5.726598389446735382080078125">
        <ele>919.79998779296875</ele>
        <time>2019-07-08T12:49:06.000Z</time>
      </trkpt>
      <trkpt lat="42.54608712159097194671630859375" lon="-5.72683216072618961334228515625">
        <ele>916.79998779296875</ele>
        <time>2019-07-08T12:49:07.000Z</time>
      </trkpt>
      <trkpt lat="42.545924596488475799560546875" lon="-5.7270632497966289520263671875">
        <ele>915.20001220703125</ele>
        <time>2019-07-08T12:49:08.000Z</time>
      </trkpt>
      <trkpt lat="42.54560214467346668243408203125" lon="-5.72751914151012897491455078125">
        <ele>914.4000244140625</ele>
        <time>2019-07-08T12:49:10.000Z</time>
      </trkpt>
      <trkpt lat="42.5452838838100433349609375" lon="-5.72797176428139209747314453125">
        <ele>915.5999755859375</ele>
        <time>2019-07-08T12:49:12.000Z</time>
      </trkpt>
      <trkpt lat="42.54512554965913295745849609375" lon="-5.72819472290575504302978515625">
        <ele>916.4000244140625</ele>
        <time>2019-07-08T12:49:13.000Z</time>
      </trkpt>
      <trkpt lat="42.544811479747295379638671875" lon="-5.7286383770406246185302734375">
        <ele>917.5999755859375</ele>
        <time>2019-07-08T12:49:15.000Z</time>
      </trkpt>
      <trkpt lat="42.54449858330190181732177734375" lon="-5.72908110916614532470703125">
        <ele>918.4000244140625</ele>
        <time>2019-07-08T12:49:17.000Z</time>
      </trkpt>
      <trkpt lat="42.5441863574087619781494140625" lon="-5.7295231707394123077392578125">
        <ele>918.5999755859375</ele>
        <time>2019-07-08T12:49:19.000Z</time>
      </trkpt>
      <trkpt lat="42.54372057504951953887939453125" lon="-5.73018207214772701263427734375">
        <ele>916.5999755859375</ele>
        <time>2019-07-08T12:49:22.000Z</time>
      </trkpt>
      <trkpt lat="42.54356618039309978485107421875" lon="-5.7304032705724239349365234375">
        <ele>914.79998779296875</ele>
        <time>2019-07-08T12:49:23.000Z</time>
      </trkpt>
      <trkpt lat="42.543251775205135345458984375" lon="-5.73084692470729351043701171875">
        <ele>913.4000244140625</ele>
        <time>2019-07-08T12:49:25.000Z</time>
      </trkpt>
      <trkpt lat="42.5429216958582401275634765625" lon="-5.7313098572194576263427734375">
        <ele>912.4000244140625</ele>
        <time>2019-07-08T12:49:27.000Z</time>
      </trkpt>
      <trkpt lat="42.5427460111677646636962890625" lon="-5.73155620135366916656494140625">
        <ele>912.20001220703125</ele>
        <time>2019-07-08T12:49:28.000Z</time>
      </trkpt>
      <trkpt lat="42.54240117967128753662109375" lon="-5.7320484705269336700439453125">
        <ele>912.4000244140625</ele>
        <time>2019-07-08T12:49:30.000Z</time>
      </trkpt>
      <trkpt lat="42.54208694212138652801513671875" lon="-5.73249958455562591552734375">
        <ele>910.79998779296875</ele>
        <time>2019-07-08T12:49:32.000Z</time>
      </trkpt>
      <trkpt lat="42.54193942062556743621826171875" lon="-5.73270988650619983673095703125">
        <ele>909.20001220703125</ele>
        <time>2019-07-08T12:49:33.000Z</time>
      </trkpt>
      <trkpt lat="42.54153625108301639556884765625" lon="-5.73328572325408458709716796875">
        <ele>908.5999755859375</ele>
        <time>2019-07-08T12:49:36.000Z</time>
      </trkpt>
      <trkpt lat="42.54116258583962917327880859375" lon="-5.73381747119128704071044921875">
        <ele>911.4000244140625</ele>
        <time>2019-07-08T12:49:39.000Z</time>
      </trkpt>
      <trkpt lat="42.54103719256818294525146484375" lon="-5.73399332351982593536376953125">
        <ele>912.5999755859375</ele>
        <time>2019-07-08T12:49:40.000Z</time>
      </trkpt>
      <trkpt lat="42.5407836399972438812255859375" lon="-5.7343508116900920867919921875">
        <ele>914.20001220703125</ele>
        <time>2019-07-08T12:49:42.000Z</time>
      </trkpt>
      <trkpt lat="42.5403937138617038726806640625" lon="-5.73490192182362079620361328125">
        <ele>913.20001220703125</ele>
        <time>2019-07-08T12:49:45.000Z</time>
      </trkpt>
      <trkpt lat="42.54026203416287899017333984375" lon="-5.735088922083377838134765625">
        <ele>912.4000244140625</ele>
        <time>2019-07-08T12:49:46.000Z</time>
      </trkpt>
      <trkpt lat="42.5398619659245014190673828125" lon="-5.73566232807934284210205078125">
        <ele>911.5999755859375</ele>
        <time>2019-07-08T12:49:49.000Z</time>
      </trkpt>
      <trkpt lat="42.53944966010749340057373046875" lon="-5.73625333607196807861328125">
        <ele>913.20001220703125</ele>
        <time>2019-07-08T12:49:52.000Z</time>
      </trkpt>
      <trkpt lat="42.53902737982571125030517578125" lon="-5.73685926385223865509033203125">
        <ele>913.4000244140625</ele>
        <time>2019-07-08T12:49:55.000Z</time>
      </trkpt>
      <trkpt lat="42.53859152086079120635986328125" lon="-5.73747416026890277862548828125">
        <ele>913.20001220703125</ele>
        <time>2019-07-08T12:49:58.000Z</time>
      </trkpt>
      <trkpt lat="42.53814853727817535400390625" lon="-5.7381048984825611114501953125">
        <ele>913.20001220703125</ele>
        <time>2019-07-08T12:50:01.000Z</time>
      </trkpt>
      <trkpt lat="42.537698931992053985595703125" lon="-5.73874904774129390716552734375">
        <ele>912.4000244140625</ele>
        <time>2019-07-08T12:50:04.000Z</time>
      </trkpt>
      <trkpt lat="42.537240274250507354736328125" lon="-5.73939747177064418792724609375">
        <ele>912.20001220703125</ele>
        <time>2019-07-08T12:50:07.000Z</time>
      </trkpt>
      <trkpt lat="42.53693626262247562408447265625" lon="-5.73983249254524707794189453125">
        <ele>911.20001220703125</ele>
        <time>2019-07-08T12:50:09.000Z</time>
      </trkpt>
      <trkpt lat="42.53647995181381702423095703125" lon="-5.74048309586942195892333984375">
        <ele>911.4000244140625</ele>
        <time>2019-07-08T12:50:12.000Z</time>
      </trkpt>
      <trkpt lat="42.5361729227006435394287109375" lon="-5.74091367423534393310546875">
        <ele>912.5999755859375</ele>
        <time>2019-07-08T12:50:14.000Z</time>
      </trkpt>
      <trkpt lat="42.53571485169231891632080078125" lon="-5.74156955815851688385009765625">
        <ele>911.5999755859375</ele>
        <time>2019-07-08T12:50:17.000Z</time>
      </trkpt>
      <trkpt lat="42.53556280396878719329833984375" lon="-5.7417882420122623443603515625">
        <ele>911</ele>
        <time>2019-07-08T12:50:18.000Z</time>
      </trkpt>
      <trkpt lat="42.5352576188743114471435546875" lon="-5.74221949093043804168701171875">
        <ele>909.79998779296875</ele>
        <time>2019-07-08T12:50:20.000Z</time>
      </trkpt>
      <trkpt lat="42.5347991287708282470703125" lon="-5.7428664900362491607666015625">
        <ele>910.20001220703125</ele>
        <time>2019-07-08T12:50:23.000Z</time>
      </trkpt>
      <trkpt lat="42.5343329273164272308349609375" lon="-5.74352891184389591217041015625">
        <ele>909.5999755859375</ele>
        <time>2019-07-08T12:50:26.000Z</time>
      </trkpt>
      <trkpt lat="42.5340147502720355987548828125" lon="-5.743983127176761627197265625">
        <ele>908.4000244140625</ele>
        <time>2019-07-08T12:50:28.000Z</time>
      </trkpt>
      <trkpt lat="42.53385390155017375946044921875" lon="-5.74421237222850322723388671875">
        <ele>907</ele>
        <time>2019-07-08T12:50:29.000Z</time>
      </trkpt>
      <trkpt lat="42.533532120287418365478515625" lon="-5.74467413127422332763671875">
        <ele>906.20001220703125</ele>
        <time>2019-07-08T12:50:31.000Z</time>
      </trkpt>
      <trkpt lat="42.53337085247039794921875" lon="-5.74490346014499664306640625">
        <ele>905.4000244140625</ele>
        <time>2019-07-08T12:50:32.000Z</time>
      </trkpt>
      <trkpt lat="42.53304739482700824737548828125" lon="-5.7453574240207672119140625">
        <ele>904.79998779296875</ele>
        <time>2019-07-08T12:50:34.000Z</time>
      </trkpt>
      <trkpt lat="42.53272636793553829193115234375" lon="-5.7458098791539669036865234375">
        <ele>907.5999755859375</ele>
        <time>2019-07-08T12:50:36.000Z</time>
      </trkpt>
      <trkpt lat="42.53240785561501979827880859375" lon="-5.74626090936362743377685546875">
        <ele>906.4000244140625</ele>
        <time>2019-07-08T12:50:38.000Z</time>
      </trkpt>
      <trkpt lat="42.53208951093256473541259765625" lon="-5.746710598468780517578125">
        <ele>905.5999755859375</ele>
        <time>2019-07-08T12:50:40.000Z</time>
      </trkpt>
      <trkpt lat="42.53193059004843235015869140625" lon="-5.746934227645397186279296875">
        <ele>905.20001220703125</ele>
        <time>2019-07-08T12:50:41.000Z</time>
      </trkpt>
      <trkpt lat="42.5314750336110591888427734375" lon="-5.74757753871381282806396484375">
        <ele>905.5999755859375</ele>
        <time>2019-07-08T12:50:44.000Z</time>
      </trkpt>
      <trkpt lat="42.53105820156633853912353515625" lon="-5.7481615059077739715576171875">
        <ele>904.79998779296875</ele>
        <time>2019-07-08T12:50:47.000Z</time>
      </trkpt>
      <trkpt lat="42.53092928789556026458740234375" lon="-5.74834397993981838226318359375">
        <ele>904.20001220703125</ele>
        <time>2019-07-08T12:50:48.000Z</time>
      </trkpt>
      <trkpt lat="42.53067883662879467010498046875" lon="-5.74869434349238872528076171875">
        <ele>903.20001220703125</ele>
        <time>2019-07-08T12:50:50.000Z</time>
      </trkpt>
      <trkpt lat="42.530314810574054718017578125" lon="-5.74920563958585262298583984375">
        <ele>903.79998779296875</ele>
        <time>2019-07-08T12:50:53.000Z</time>
      </trkpt>
      <trkpt lat="42.5301976315677165985107421875" lon="-5.74937067925930023193359375">
        <ele>905.4000244140625</ele>
        <time>2019-07-08T12:50:54.000Z</time>
      </trkpt>
      <trkpt lat="42.53007911145687103271484375" lon="-5.74953337199985980987548828125">
        <ele>907.20001220703125</ele>
        <time>2019-07-08T12:50:55.000Z</time>
      </trkpt>
      <trkpt lat="42.5298519618809223175048828125" lon="-5.74984819628298282623291015625">
        <ele>908.20001220703125</ele>
        <time>2019-07-08T12:50:57.000Z</time>
      </trkpt>
      <trkpt lat="42.52945021726191043853759765625" lon="-5.75041715987026691436767578125">
        <ele>909.20001220703125</ele>
        <time>2019-07-08T12:51:01.000Z</time>
      </trkpt>
      <trkpt lat="42.52928073517978191375732421875" lon="-5.7506579719483852386474609375">
        <ele>909.5999755859375</ele>
        <time>2019-07-08T12:51:03.000Z</time>
      </trkpt>
      <trkpt lat="42.52914310432970523834228515625" lon="-5.75087003409862518310546875">
        <ele>911.20001220703125</ele>
        <time>2019-07-08T12:51:05.000Z</time>
      </trkpt>
      <trkpt lat="42.529092393815517425537109375" lon="-5.75096852146089076995849609375">
        <ele>912</ele>
        <time>2019-07-08T12:51:06.000Z</time>
      </trkpt>
      <trkpt lat="42.5290570221841335296630859375" lon="-5.75106776319444179534912109375">
        <ele>912.5999755859375</ele>
        <time>2019-07-08T12:51:07.000Z</time>
      </trkpt>
      <trkpt lat="42.52903581596910953521728515625" lon="-5.75116666965186595916748046875">
        <ele>913.4000244140625</ele>
        <time>2019-07-08T12:51:08.000Z</time>
      </trkpt>
      <trkpt lat="42.52902173437178134918212890625" lon="-5.75135576538741588592529296875">
        <ele>914.20001220703125</ele>
        <time>2019-07-08T12:51:10.000Z</time>
      </trkpt>
      <trkpt lat="42.5290144421160221099853515625" lon="-5.7514542527496814727783203125">
        <ele>914.4000244140625</ele>
        <time>2019-07-08T12:51:11.000Z</time>
      </trkpt>
      <trkpt lat="42.5289653241634368896484375" lon="-5.75165751390159130096435546875">
        <ele>914.4000244140625</ele>
        <time>2019-07-08T12:51:13.000Z</time>
      </trkpt>
      <trkpt lat="42.5288608856499195098876953125" lon="-5.7518116571009159088134765625">
        <ele>914.4000244140625</ele>
        <time>2019-07-08T12:51:15.000Z</time>
      </trkpt>
      <trkpt lat="42.52872526645660400390625" lon="-5.751849710941314697265625">
        <ele>913.79998779296875</ele>
        <time>2019-07-08T12:51:17.000Z</time>
      </trkpt>
      <trkpt lat="42.52859509550034999847412109375" lon="-5.751785002648830413818359375">
        <ele>913.4000244140625</ele>
        <time>2019-07-08T12:51:19.000Z</time>
      </trkpt>
      <trkpt lat="42.528504319489002227783203125" lon="-5.75163555331528186798095703125">
        <ele>913.20001220703125</ele>
        <time>2019-07-08T12:51:21.000Z</time>
      </trkpt>
      <trkpt lat="42.5284179858863353729248046875" lon="-5.7513843476772308349609375">
        <ele>912.4000244140625</ele>
        <time>2019-07-08T12:51:24.000Z</time>
      </trkpt>
      <trkpt lat="42.52834581770002841949462890625" lon="-5.7512822560966014862060546875">
        <ele>912.4000244140625</ele>
        <time>2019-07-08T12:51:26.000Z</time>
      </trkpt>
      <trkpt lat="42.52826686017215251922607421875" lon="-5.75126306153833866119384765625">
        <ele>913.20001220703125</ele>
        <time>2019-07-08T12:51:28.000Z</time>
      </trkpt>
      <trkpt lat="42.52822210080921649932861328125" lon="-5.751314274966716766357421875">
        <ele>914.20001220703125</ele>
        <time>2019-07-08T12:51:30.000Z</time>
      </trkpt>
      <trkpt lat="42.52818957902491092681884765625" lon="-5.7513915561139583587646484375">
        <ele>915.20001220703125</ele>
        <time>2019-07-08T12:51:33.000Z</time>
      </trkpt>
      <trkpt lat="42.52806787379086017608642578125" lon="-5.7515243254601955413818359375">
        <ele>916.4000244140625</ele>
        <time>2019-07-08T12:52:06.000Z</time>
      </trkpt>
      <trkpt lat="42.5280391238629817962646484375" lon="-5.7514361478388309478759765625">
        <ele>917</ele>
        <time>2019-07-08T12:53:01.000Z</time>
      </trkpt>
      <trkpt lat="42.528033591806888580322265625" lon="-5.75141577981412410736083984375">
        <ele>916.79998779296875</ele>
        <time>2019-07-08T12:53:03.000Z</time>
      </trkpt>
      <trkpt lat="42.528038285672664642333984375" lon="-5.7514435239136219024658203125">
        <ele>917.4000244140625</ele>
        <time>2019-07-08T12:53:24.000Z</time>
      </trkpt>
      <trkpt lat="42.528018169105052947998046875" lon="-5.7514827512204647064208984375">
        <ele>917.79998779296875</ele>
        <time>2019-07-08T12:54:07.000Z</time>
      </trkpt>
      <trkpt lat="42.52784139476716518402099609375" lon="-5.75146037153899669647216796875">
        <ele>909</ele>
        <time>2019-07-08T14:18:01.000Z</time>
      </trkpt>
      <trkpt lat="42.52793946303427219390869140625" lon="-5.7515035383403301239013671875">
        <ele>908.5999755859375</ele>
        <time>2019-07-08T14:18:03.000Z</time>
      </trkpt>
      <trkpt lat="42.52808212302625179290771484375" lon="-5.75155374594032764434814453125">
        <ele>909.79998779296875</ele>
        <time>2019-07-08T14:18:19.000Z</time>
      </trkpt>
      <trkpt lat="42.52808145247399806976318359375" lon="-5.75155441649258136749267578125">
        <ele>910</ele>
        <time>2019-07-08T14:18:22.000Z</time>
      </trkpt>
      <trkpt lat="42.5280874036252498626708984375" lon="-5.75155357830226421356201171875">
        <ele>911.20001220703125</ele>
        <time>2019-07-08T14:18:31.000Z</time>
      </trkpt>
      <trkpt lat="42.5280884094536304473876953125" lon="-5.75146523304283618927001953125">
        <ele>912.20001220703125</ele>
        <time>2019-07-08T14:19:19.000Z</time>
      </trkpt>
      <trkpt lat="42.52810475416481494903564453125" lon="-5.75153865851461887359619140625">
        <ele>912.4000244140625</ele>
        <time>2019-07-08T14:19:26.000Z</time>
      </trkpt>
      <trkpt lat="42.52813853323459625244140625" lon="-5.75153765268623828887939453125">
        <ele>912.4000244140625</ele>
        <time>2019-07-08T14:19:28.000Z</time>
      </trkpt>
      <trkpt lat="42.52821438945829868316650390625" lon="-5.75135090388357639312744140625">
        <ele>910.79998779296875</ele>
        <time>2019-07-08T14:19:35.000Z</time>
      </trkpt>
      <trkpt lat="42.52827675081789493560791015625" lon="-5.75124017894268035888671875">
        <ele>910.20001220703125</ele>
        <time>2019-07-08T14:19:38.000Z</time>
      </trkpt>
      <trkpt lat="42.52836115658283233642578125" lon="-5.75117446482181549072265625">
        <ele>909.79998779296875</ele>
        <time>2019-07-08T14:19:40.000Z</time>
      </trkpt>
      <trkpt lat="42.528820820152759552001953125" lon="-5.751130543649196624755859375">
        <ele>909.5999755859375</ele>
        <time>2019-07-08T14:19:48.000Z</time>
      </trkpt>
      <trkpt lat="42.5289500690996646881103515625" lon="-5.75123506598174571990966796875">
        <ele>909.5999755859375</ele>
        <time>2019-07-08T14:19:50.000Z</time>
      </trkpt>
      <trkpt lat="42.529006898403167724609375" lon="-5.75142650865018367767333984375">
        <ele>910</ele>
        <time>2019-07-08T14:19:52.000Z</time>
      </trkpt>
      <trkpt lat="42.5289654918015003204345703125" lon="-5.7516391575336456298828125">
        <ele>910.4000244140625</ele>
        <time>2019-07-08T14:19:54.000Z</time>
      </trkpt>
      <trkpt lat="42.52882895059883594512939453125" lon="-5.7517759501934051513671875">
        <ele>910.5999755859375</ele>
        <time>2019-07-08T14:19:56.000Z</time>
      </trkpt>
      <trkpt lat="42.52854061312973499298095703125" lon="-5.75188457965850830078125">
        <ele>909.5999755859375</ele>
        <time>2019-07-08T14:19:59.000Z</time>
      </trkpt>
      <trkpt lat="42.5283484160900115966796875" lon="-5.75204710476100444793701171875">
        <ele>909.20001220703125</ele>
        <time>2019-07-08T14:20:01.000Z</time>
      </trkpt>
      <trkpt lat="42.52796712331473827362060546875" lon="-5.7525170780718326568603515625">
        <ele>910</ele>
        <time>2019-07-08T14:20:05.000Z</time>
      </trkpt>
      <trkpt lat="42.52776931039988994598388671875" lon="-5.75277783907949924468994140625">
        <ele>911</ele>
        <time>2019-07-08T14:20:07.000Z</time>
      </trkpt>
      <trkpt lat="42.5273538194596767425537109375" lon="-5.7533438690006732940673828125">
        <ele>912.4000244140625</ele>
        <time>2019-07-08T14:20:11.000Z</time>
      </trkpt>
      <trkpt lat="42.52702675759792327880859375" lon="-5.7538001798093318939208984375">
        <ele>911.5999755859375</ele>
        <time>2019-07-08T14:20:14.000Z</time>
      </trkpt>
      <trkpt lat="42.526803128421306610107421875" lon="-5.75411626137793064117431640625">
        <ele>913.79998779296875</ele>
        <time>2019-07-08T14:20:16.000Z</time>
      </trkpt>
      <trkpt lat="42.52657103352248668670654296875" lon="-5.7544465921819210052490234375">
        <ele>914.79998779296875</ele>
        <time>2019-07-08T14:20:18.000Z</time>
      </trkpt>
      <trkpt lat="42.526211030781269073486328125" lon="-5.75494573451578617095947265625">
        <ele>915.79998779296875</ele>
        <time>2019-07-08T14:20:21.000Z</time>
      </trkpt>
      <trkpt lat="42.52589327283203601837158203125" lon="-5.7553977705538272857666015625">
        <ele>914.4000244140625</ele>
        <time>2019-07-08T14:20:24.000Z</time>
      </trkpt>
      <trkpt lat="42.52579830586910247802734375" lon="-5.75553917326033115386962890625">
        <ele>913.20001220703125</ele>
        <time>2019-07-08T14:20:25.000Z</time>
      </trkpt>
      <trkpt lat="42.525708116590976715087890625" lon="-5.75567931868135929107666015625">
        <ele>911.79998779296875</ele>
        <time>2019-07-08T14:20:26.000Z</time>
      </trkpt>
      <trkpt lat="42.52554441802203655242919921875" lon="-5.75595550239086151123046875">
        <ele>910.79998779296875</ele>
        <time>2019-07-08T14:20:28.000Z</time>
      </trkpt>
      <trkpt lat="42.5253542326390743255615234375" lon="-5.756332688033580780029296875">
        <ele>909.79998779296875</ele>
        <time>2019-07-08T14:20:31.000Z</time>
      </trkpt>
      <trkpt lat="42.52526848576962947845458984375" lon="-5.75652019120752811431884765625">
        <ele>910</ele>
        <time>2019-07-08T14:20:33.000Z</time>
      </trkpt>
      <trkpt lat="42.52520713023841381072998046875" lon="-5.75664323754608631134033203125">
        <ele>911.20001220703125</ele>
        <time>2019-07-08T14:20:35.000Z</time>
      </trkpt>
      <trkpt lat="42.5251466967165470123291015625" lon="-5.75672370381653308868408203125">
        <ele>912.20001220703125</ele>
        <time>2019-07-08T14:20:38.000Z</time>
      </trkpt>
      <trkpt lat="42.525053657591342926025390625" lon="-5.756802745163440704345703125">
        <ele>913.20001220703125</ele>
        <time>2019-07-08T14:20:46.000Z</time>
      </trkpt>
      <trkpt lat="42.52504938282072544097900390625" lon="-5.75678187422454357147216796875">
        <ele>914.20001220703125</ele>
        <time>2019-07-08T14:20:58.000Z</time>
      </trkpt>
      <trkpt lat="42.52504938282072544097900390625" lon="-5.75678187422454357147216796875">
        <ele>915.20001220703125</ele>
        <time>2019-07-08T14:21:35.000Z</time>
      </trkpt>
      <trkpt lat="42.52504938282072544097900390625" lon="-5.75678187422454357147216796875">
        <ele>916.4000244140625</ele>
        <time>2019-07-08T14:22:06.000Z</time>
      </trkpt>
      <trkpt lat="42.52517108805477619171142578125" lon="-5.7567777670919895172119140625">
        <ele>916.5999755859375</ele>
        <time>2019-07-08T14:25:30.000Z</time>
      </trkpt>
      <trkpt lat="42.52497042529284954071044921875" lon="-5.75683124363422393798828125">
        <ele>916.20001220703125</ele>
        <time>2019-07-08T14:26:40.000Z</time>
      </trkpt>
      <trkpt lat="42.52473749220371246337890625" lon="-5.7570759952068328857421875">
        <ele>915.79998779296875</ele>
        <time>2019-07-08T14:26:47.000Z</time>
      </trkpt>
      <trkpt lat="42.5243413634598255157470703125" lon="-5.7575770653784275054931640625">
        <ele>915.79998779296875</ele>
        <time>2019-07-08T14:26:54.000Z</time>
      </trkpt>
      <trkpt lat="42.52399192191660404205322265625" lon="-5.75806866399943828582763671875">
        <ele>915.5999755859375</ele>
        <time>2019-07-08T14:26:58.000Z</time>
      </trkpt>
      <trkpt lat="42.52389318309724330902099609375" lon="-5.758208893239498138427734375">
        <ele>915.20001220703125</ele>
        <time>2019-07-08T14:26:59.000Z</time>
      </trkpt>
      <trkpt lat="42.5235687196254730224609375" lon="-5.7586667127907276153564453125">
        <ele>914.5999755859375</ele>
        <time>2019-07-08T14:27:02.000Z</time>
      </trkpt>
      <trkpt lat="42.52332958392798900604248046875" lon="-5.7590086944401264190673828125">
        <ele>914</ele>
        <time>2019-07-08T14:27:04.000Z</time>
      </trkpt>
      <trkpt lat="42.52295206300914287567138671875" lon="-5.75955041684210300445556640625">
        <ele>913.79998779296875</ele>
        <time>2019-07-08T14:27:07.000Z</time>
      </trkpt>
      <trkpt lat="42.52282985486090183258056640625" lon="-5.75972693972289562225341796875">
        <ele>912.79998779296875</ele>
        <time>2019-07-08T14:27:08.000Z</time>
      </trkpt>
      <trkpt lat="42.5227062217891216278076171875" lon="-5.75990371406078338623046875">
        <ele>911.79998779296875</ele>
        <time>2019-07-08T14:27:09.000Z</time>
      </trkpt>
      <trkpt lat="42.522321827709674835205078125" lon="-5.76043990440666675567626953125">
        <ele>910.79998779296875</ele>
        <time>2019-07-08T14:27:12.000Z</time>
      </trkpt>
      <trkpt lat="42.52192159183323383331298828125" lon="-5.761002413928508758544921875">
        <ele>911.79998779296875</ele>
        <time>2019-07-08T14:27:15.000Z</time>
      </trkpt>
      <trkpt lat="42.5215216912329196929931640625" lon="-5.7615829445421695709228515625">
        <ele>910.79998779296875</ele>
        <time>2019-07-08T14:27:18.000Z</time>
      </trkpt>
      <trkpt lat="42.5212983973324298858642578125" lon="-5.7619557715952396392822265625">
        <ele>909.79998779296875</ele>
        <time>2019-07-08T14:27:20.000Z</time>
      </trkpt>
      <trkpt lat="42.52100444398820400238037109375" lon="-5.76262473128736019134521484375">
        <ele>909.20001220703125</ele>
        <time>2019-07-08T14:27:24.000Z</time>
      </trkpt>
      <trkpt lat="42.52077695913612842559814453125" lon="-5.76320174150168895721435546875">
        <ele>909</ele>
        <time>2019-07-08T14:27:28.000Z</time>
      </trkpt>
      <trkpt lat="42.520593143999576568603515625" lon="-5.76362720690667629241943359375">
        <ele>908.79998779296875</ele>
        <time>2019-07-08T14:27:31.000Z</time>
      </trkpt>
      <trkpt lat="42.5203106738626956939697265625" lon="-5.76415023766458034515380859375">
        <ele>908.4000244140625</ele>
        <time>2019-07-08T14:27:35.000Z</time>
      </trkpt>
      <trkpt lat="42.52005712129175662994384765625" lon="-5.76449699699878692626953125">
        <ele>907.5999755859375</ele>
        <time>2019-07-08T14:27:38.000Z</time>
      </trkpt>
      <trkpt lat="42.5196666084229946136474609375" lon="-5.764864124357700347900390625">
        <ele>906.79998779296875</ele>
        <time>2019-07-08T14:27:42.000Z</time>
      </trkpt>
      <trkpt lat="42.51923720352351665496826171875" lon="-5.7651204429566860198974609375">
        <ele>907.79998779296875</ele>
        <time>2019-07-08T14:27:46.000Z</time>
      </trkpt>
      <trkpt lat="42.51880067400634288787841796875" lon="-5.76532177627086639404296875">
        <ele>908</ele>
        <time>2019-07-08T14:27:50.000Z</time>
      </trkpt>
      <trkpt lat="42.518368922173976898193359375" lon="-5.76550408266484737396240234375">
        <ele>908</ele>
        <time>2019-07-08T14:27:54.000Z</time>
      </trkpt>
      <trkpt lat="42.51793901436030864715576171875" lon="-5.76569234021008014678955078125">
        <ele>908.20001220703125</ele>
        <time>2019-07-08T14:27:58.000Z</time>
      </trkpt>
      <trkpt lat="42.5178346596658229827880859375" lon="-5.7657477445900440216064453125">
        <ele>908.5999755859375</ele>
        <time>2019-07-08T14:27:59.000Z</time>
      </trkpt>
      <trkpt lat="42.51762972213327884674072265625" lon="-5.7658778317272663116455078125">
        <ele>910</ele>
        <time>2019-07-08T14:28:01.000Z</time>
      </trkpt>
      <trkpt lat="42.5172737427055835723876953125" lon="-5.76624319888651371002197265625">
        <ele>911</ele>
        <time>2019-07-08T14:28:05.000Z</time>
      </trkpt>
      <trkpt lat="42.51694240607321262359619140625" lon="-5.7666791416704654693603515625">
        <ele>911.4000244140625</ele>
        <time>2019-07-08T14:28:09.000Z</time>
      </trkpt>
      <trkpt lat="42.51657343469560146331787109375" lon="-5.767185576260089874267578125">
        <ele>911</ele>
        <time>2019-07-08T14:28:14.000Z</time>
      </trkpt>
      <trkpt lat="42.5161891244351863861083984375" lon="-5.76772193424403667449951171875">
        <ele>910</ele>
        <time>2019-07-08T14:28:19.000Z</time>
      </trkpt>
      <trkpt lat="42.51610337756574153900146484375" lon="-5.7678338326513767242431640625">
        <ele>908.79998779296875</ele>
        <time>2019-07-08T14:28:20.000Z</time>
      </trkpt>
      <trkpt lat="42.5160144455730915069580078125" lon="-5.7679491676390171051025390625">
        <ele>907.4000244140625</ele>
        <time>2019-07-08T14:28:21.000Z</time>
      </trkpt>
      <trkpt lat="42.5159242562949657440185546875" lon="-5.7680703699588775634765625">
        <ele>906.20001220703125</ele>
        <time>2019-07-08T14:28:22.000Z</time>
      </trkpt>
      <trkpt lat="42.51573926769196987152099609375" lon="-5.76832375489175319671630859375">
        <ele>904.79998779296875</ele>
        <time>2019-07-08T14:28:24.000Z</time>
      </trkpt>
      <trkpt lat="42.51553952693939208984375" lon="-5.7685757987201213836669921875">
        <ele>903.79998779296875</ele>
        <time>2019-07-08T14:28:26.000Z</time>
      </trkpt>
      <trkpt lat="42.51532704569399356842041015625" lon="-5.7688265852630138397216796875">
        <ele>902.20001220703125</ele>
        <time>2019-07-08T14:28:28.000Z</time>
      </trkpt>
      <trkpt lat="42.51512889750301837921142578125" lon="-5.769108720123767852783203125">
        <ele>900.20001220703125</ele>
        <time>2019-07-08T14:28:30.000Z</time>
      </trkpt>
      <trkpt lat="42.5149687193334102630615234375" lon="-5.76943988911807537078857421875">
        <ele>898.20001220703125</ele>
        <time>2019-07-08T14:28:32.000Z</time>
      </trkpt>
      <trkpt lat="42.51484173350036144256591796875" lon="-5.76979980804026126861572265625">
        <ele>897</ele>
        <time>2019-07-08T14:28:34.000Z</time>
      </trkpt>
      <trkpt lat="42.5146652944386005401611328125" lon="-5.7703416980803012847900390625">
        <ele>895.79998779296875</ele>
        <time>2019-07-08T14:28:37.000Z</time>
      </trkpt>
      <trkpt lat="42.5145519711077213287353515625" lon="-5.770685859024524688720703125">
        <ele>894.4000244140625</ele>
        <time>2019-07-08T14:28:39.000Z</time>
      </trkpt>
      <trkpt lat="42.5143333710730075836181640625" lon="-5.7713525556027889251708984375">
        <ele>895.20001220703125</ele>
        <time>2019-07-08T14:28:43.000Z</time>
      </trkpt>
      <trkpt lat="42.51421811990439891815185546875" lon="-5.77170602045953273773193359375">
        <ele>895.5999755859375</ele>
        <time>2019-07-08T14:28:45.000Z</time>
      </trkpt>
      <trkpt lat="42.513982169330120086669921875" lon="-5.77241462655365467071533203125">
        <ele>895.4000244140625</ele>
        <time>2019-07-08T14:28:49.000Z</time>
      </trkpt>
      <trkpt lat="42.51379768364131450653076171875" lon="-5.7729709334671497344970703125">
        <ele>895</ele>
        <time>2019-07-08T14:28:52.000Z</time>
      </trkpt>
      <trkpt lat="42.51359668560326099395751953125" lon="-5.77354903332889080047607421875">
        <ele>894</ele>
        <time>2019-07-08T14:28:55.000Z</time>
      </trkpt>
      <trkpt lat="42.51345016993582248687744140625" lon="-5.7739737443625926971435546875">
        <ele>892.79998779296875</ele>
        <time>2019-07-08T14:28:57.000Z</time>
      </trkpt>
      <trkpt lat="42.513375990092754364013671875" lon="-5.77419460751116275787353515625">
        <ele>891.5999755859375</ele>
        <time>2019-07-08T14:28:58.000Z</time>
      </trkpt>
      <trkpt lat="42.51330197788774967193603515625" lon="-5.77441622503101825714111328125">
        <ele>889.79998779296875</ele>
        <time>2019-07-08T14:28:59.000Z</time>
      </trkpt>
      <trkpt lat="42.51322813332080841064453125" lon="-5.7746350765228271484375">
        <ele>887.5999755859375</ele>
        <time>2019-07-08T14:29:00.000Z</time>
      </trkpt>
      <trkpt lat="42.5131552107632160186767578125" lon="-5.77484873123466968536376953125">
        <ele>886.5999755859375</ele>
        <time>2019-07-08T14:29:01.000Z</time>
      </trkpt>
      <trkpt lat="42.5130137242376804351806640625" lon="-5.77527486719191074371337890625">
        <ele>887.5999755859375</ele>
        <time>2019-07-08T14:29:03.000Z</time>
      </trkpt>
      <trkpt lat="42.51294272951781749725341796875" lon="-5.7754898630082607269287109375">
        <ele>888.79998779296875</ele>
        <time>2019-07-08T14:29:04.000Z</time>
      </trkpt>
      <trkpt lat="42.51287047751247882843017578125" lon="-5.77570670284330844879150390625">
        <ele>891</ele>
        <time>2019-07-08T14:29:05.000Z</time>
      </trkpt>
      <trkpt lat="42.51279654912650585174560546875" lon="-5.77592697925865650177001953125">
        <ele>892</ele>
        <time>2019-07-08T14:29:06.000Z</time>
      </trkpt>
      <trkpt lat="42.51257057301700115203857421875" lon="-5.77659920789301395416259765625">
        <ele>892.20001220703125</ele>
        <time>2019-07-08T14:29:09.000Z</time>
      </trkpt>
      <trkpt lat="42.512319199740886688232421875" lon="-5.77728233300149440765380859375">
        <ele>891.4000244140625</ele>
        <time>2019-07-08T14:29:12.000Z</time>
      </trkpt>
      <trkpt lat="42.51199557445943355560302734375" lon="-5.77793561853468418121337890625">
        <ele>892.20001220703125</ele>
        <time>2019-07-08T14:29:15.000Z</time>
      </trkpt>
      <trkpt lat="42.51164428889751434326171875" lon="-5.77857616357505321502685546875">
        <ele>892</ele>
        <time>2019-07-08T14:29:18.000Z</time>
      </trkpt>
      <trkpt lat="42.5112900696694850921630859375" lon="-5.77923481352627277374267578125">
        <ele>891.20001220703125</ele>
        <time>2019-07-08T14:29:21.000Z</time>
      </trkpt>
      <trkpt lat="42.51091799698770046234130859375" lon="-5.77991475351154804229736328125">
        <ele>893.20001220703125</ele>
        <time>2019-07-08T14:29:24.000Z</time>
      </trkpt>
      <trkpt lat="42.510671317577362060546875" lon="-5.78037005849182605743408203125">
        <ele>891.79998779296875</ele>
        <time>2019-07-08T14:29:26.000Z</time>
      </trkpt>
      <trkpt lat="42.51030226238071918487548828125" lon="-5.78104815445840358734130859375">
        <ele>889.79998779296875</ele>
        <time>2019-07-08T14:29:29.000Z</time>
      </trkpt>
      <trkpt lat="42.51018156297504901885986328125" lon="-5.7812733761966228485107421875">
        <ele>888.4000244140625</ele>
        <time>2019-07-08T14:29:30.000Z</time>
      </trkpt>
      <trkpt lat="42.509818375110626220703125" lon="-5.7819462753832340240478515625">
        <ele>888.79998779296875</ele>
        <time>2019-07-08T14:29:33.000Z</time>
      </trkpt>
      <trkpt lat="42.50957521609961986541748046875" lon="-5.7823925279080867767333984375">
        <ele>891.79998779296875</ele>
        <time>2019-07-08T14:29:35.000Z</time>
      </trkpt>
      <trkpt lat="42.5094584561884403228759765625" lon="-5.7826094515621662139892578125">
        <ele>893.20001220703125</ele>
        <time>2019-07-08T14:29:36.000Z</time>
      </trkpt>
      <trkpt lat="42.5093461386859416961669921875" lon="-5.78281992115080356597900390625">
        <ele>894.5999755859375</ele>
        <time>2019-07-08T14:29:37.000Z</time>
      </trkpt>
      <trkpt lat="42.50912033021450042724609375" lon="-5.783233903348445892333984375">
        <ele>896</ele>
        <time>2019-07-08T14:29:39.000Z</time>
      </trkpt>
      <trkpt lat="42.50889175571501255035400390625" lon="-5.7836486399173736572265625">
        <ele>894.5999755859375</ele>
        <time>2019-07-08T14:29:41.000Z</time>
      </trkpt>
      <trkpt lat="42.50866527669131755828857421875" lon="-5.78406698070466518402099609375">
        <ele>891</ele>
        <time>2019-07-08T14:29:43.000Z</time>
      </trkpt>
      <trkpt lat="42.50855094753205776214599609375" lon="-5.784278623759746551513671875">
        <ele>888.79998779296875</ele>
        <time>2019-07-08T14:29:44.000Z</time>
      </trkpt>
      <trkpt lat="42.5084341876208782196044921875" lon="-5.78449261374771595001220703125">
        <ele>887.79998779296875</ele>
        <time>2019-07-08T14:29:45.000Z</time>
      </trkpt>
      <trkpt lat="42.50819957815110683441162109375" lon="-5.7849235273897647857666015625">
        <ele>885</ele>
        <time>2019-07-08T14:29:47.000Z</time>
      </trkpt>
      <trkpt lat="42.50808357261121273040771484375" lon="-5.78513835556805133819580078125">
        <ele>884</ele>
        <time>2019-07-08T14:29:48.000Z</time>
      </trkpt>
      <trkpt lat="42.50796966254711151123046875" lon="-5.7853506691753864288330078125">
        <ele>885.4000244140625</ele>
        <time>2019-07-08T14:29:49.000Z</time>
      </trkpt>
      <trkpt lat="42.50785575248301029205322265625" lon="-5.78556130640208721160888671875">
        <ele>888.20001220703125</ele>
        <time>2019-07-08T14:29:50.000Z</time>
      </trkpt>
      <trkpt lat="42.50750362873077392578125" lon="-5.78620922751724720001220703125">
        <ele>889</ele>
        <time>2019-07-08T14:29:53.000Z</time>
      </trkpt>
      <trkpt lat="42.5073780678212642669677734375" lon="-5.78643478453159332275390625">
        <ele>890.4000244140625</ele>
        <time>2019-07-08T14:29:54.000Z</time>
      </trkpt>
      <trkpt lat="42.507249824702739715576171875" lon="-5.78666620887815952301025390625">
        <ele>891.5999755859375</ele>
        <time>2019-07-08T14:29:55.000Z</time>
      </trkpt>
      <trkpt lat="42.506859563291072845458984375" lon="-5.78738001175224781036376953125">
        <ele>890.20001220703125</ele>
        <time>2019-07-08T14:29:58.000Z</time>
      </trkpt>
      <trkpt lat="42.50648497603833675384521484375" lon="-5.7880764640867710113525390625">
        <ele>888</ele>
        <time>2019-07-08T14:30:01.000Z</time>
      </trkpt>
      <trkpt lat="42.50624340958893299102783203125" lon="-5.78852430917322635650634765625">
        <ele>886.4000244140625</ele>
        <time>2019-07-08T14:30:03.000Z</time>
      </trkpt>
      <trkpt lat="42.5060027651488780975341796875" lon="-5.7889699749648571014404296875">
        <ele>885.20001220703125</ele>
        <time>2019-07-08T14:30:05.000Z</time>
      </trkpt>
      <trkpt lat="42.5056426785886287689208984375" lon="-5.78964161686599254608154296875">
        <ele>884.79998779296875</ele>
        <time>2019-07-08T14:30:08.000Z</time>
      </trkpt>
      <trkpt lat="42.50540052540600299835205078125" lon="-5.7900941558182239532470703125">
        <ele>884</ele>
        <time>2019-07-08T14:30:10.000Z</time>
      </trkpt>
      <trkpt lat="42.50503038056194782257080078125" lon="-5.79077216796576976776123046875">
        <ele>883</ele>
        <time>2019-07-08T14:30:13.000Z</time>
      </trkpt>
      <trkpt lat="42.504784874618053436279296875" lon="-5.791229568421840667724609375">
        <ele>885</ele>
        <time>2019-07-08T14:30:15.000Z</time>
      </trkpt>
      <trkpt lat="42.504538781940937042236328125" lon="-5.79168789088726043701171875">
        <ele>883.79998779296875</ele>
        <time>2019-07-08T14:30:17.000Z</time>
      </trkpt>
      <trkpt lat="42.50428028404712677001953125" lon="-5.7921540923416614532470703125">
        <ele>881.4000244140625</ele>
        <time>2019-07-08T14:30:19.000Z</time>
      </trkpt>
      <trkpt lat="42.50414206646382808685302734375" lon="-5.79239406622946262359619140625">
        <ele>879.5999755859375</ele>
        <time>2019-07-08T14:30:20.000Z</time>
      </trkpt>
      <trkpt lat="42.50399856828153133392333984375" lon="-5.792639069259166717529296875">
        <ele>878.5999755859375</ele>
        <time>2019-07-08T14:30:21.000Z</time>
      </trkpt>
      <trkpt lat="42.5038544833660125732421875" lon="-5.792892538011074066162109375">
        <ele>877.5999755859375</ele>
        <time>2019-07-08T14:30:22.000Z</time>
      </trkpt>
      <trkpt lat="42.5037114880979061126708984375" lon="-5.7931555621325969696044921875">
        <ele>876</ele>
        <time>2019-07-08T14:30:23.000Z</time>
      </trkpt>
      <trkpt lat="42.50357092358171939849853515625" lon="-5.79342621378600597381591796875">
        <ele>874.5999755859375</ele>
        <time>2019-07-08T14:30:24.000Z</time>
      </trkpt>
      <trkpt lat="42.50328945927321910858154296875" lon="-5.79398008994758129119873046875">
        <ele>874.5999755859375</ele>
        <time>2019-07-08T14:30:26.000Z</time>
      </trkpt>
      <trkpt lat="42.50314344651997089385986328125" lon="-5.79425686039030551910400390625">
        <ele>873</ele>
        <time>2019-07-08T14:30:27.000Z</time>
      </trkpt>
      <trkpt lat="42.50284924171864986419677734375" lon="-5.794801600277423858642578125">
        <ele>874.20001220703125</ele>
        <time>2019-07-08T14:30:29.000Z</time>
      </trkpt>
      <trkpt lat="42.50270239077508449554443359375" lon="-5.79507225193083286285400390625">
        <ele>877.79998779296875</ele>
        <time>2019-07-08T14:30:30.000Z</time>
      </trkpt>
      <trkpt lat="42.502555958926677703857421875" lon="-5.79534349031746387481689453125">
        <ele>880.79998779296875</ele>
        <time>2019-07-08T14:30:31.000Z</time>
      </trkpt>
      <trkpt lat="42.50240935944020748138427734375" lon="-5.79561640508472919464111328125">
        <ele>885</ele>
        <time>2019-07-08T14:30:32.000Z</time>
      </trkpt>
      <trkpt lat="42.5022627599537372589111328125" lon="-5.79589082859456539154052734375">
        <ele>889.5999755859375</ele>
        <time>2019-07-08T14:30:33.000Z</time>
      </trkpt>
      <trkpt lat="42.50211616046726703643798828125" lon="-5.79616692848503589630126953125">
        <ele>892.5999755859375</ele>
        <time>2019-07-08T14:30:34.000Z</time>
      </trkpt>
      <trkpt lat="42.50181927345693111419677734375" lon="-5.7967229001224040985107421875">
        <ele>892.4000244140625</ele>
        <time>2019-07-08T14:30:36.000Z</time>
      </trkpt>
      <trkpt lat="42.501523979008197784423828125" lon="-5.797271244227886199951171875">
        <ele>894.79998779296875</ele>
        <time>2019-07-08T14:30:38.000Z</time>
      </trkpt>
      <trkpt lat="42.5012321211397647857666015625" lon="-5.79781112261116504669189453125">
        <ele>895.20001220703125</ele>
        <time>2019-07-08T14:30:40.000Z</time>
      </trkpt>
      <trkpt lat="42.50094185583293437957763671875" lon="-5.79834940843284130096435546875">
        <ele>895.4000244140625</ele>
        <time>2019-07-08T14:30:42.000Z</time>
      </trkpt>
      <trkpt lat="42.50065167434513568878173828125" lon="-5.79888802953064441680908203125">
        <ele>894.5999755859375</ele>
        <time>2019-07-08T14:30:44.000Z</time>
      </trkpt>
      <trkpt lat="42.50050775706768035888671875" lon="-5.7991559989750385284423828125">
        <ele>893.20001220703125</ele>
        <time>2019-07-08T14:30:45.000Z</time>
      </trkpt>
      <trkpt lat="42.50022486783564090728759765625" lon="-5.7996870763599872589111328125">
        <ele>891.20001220703125</ele>
        <time>2019-07-08T14:30:47.000Z</time>
      </trkpt>
      <trkpt lat="42.50008271075785160064697265625" lon="-5.7999502681195735931396484375">
        <ele>888.20001220703125</ele>
        <time>2019-07-08T14:30:48.000Z</time>
      </trkpt>
      <trkpt lat="42.49994189478456974029541015625" lon="-5.80021195113658905029296875">
        <ele>883</ele>
        <time>2019-07-08T14:30:49.000Z</time>
      </trkpt>
      <trkpt lat="42.49980476684868335723876953125" lon="-5.80046801827847957611083984375">
        <ele>880.5999755859375</ele>
        <time>2019-07-08T14:30:50.000Z</time>
      </trkpt>
      <trkpt lat="42.49967216514050960540771484375" lon="-5.80071327276527881622314453125">
        <ele>877.20001220703125</ele>
        <time>2019-07-08T14:30:51.000Z</time>
      </trkpt>
      <trkpt lat="42.49954392202198505401611328125" lon="-5.8009488880634307861328125">
        <ele>875.5999755859375</ele>
        <time>2019-07-08T14:30:52.000Z</time>
      </trkpt>
      <trkpt lat="42.4991735257208347320556640625" lon="-5.80163486301898956298828125">
        <ele>876.20001220703125</ele>
        <time>2019-07-08T14:30:55.000Z</time>
      </trkpt>
      <trkpt lat="42.4990524910390377044677734375" lon="-5.8018589951097965240478515625">
        <ele>877.79998779296875</ele>
        <time>2019-07-08T14:30:56.000Z</time>
      </trkpt>
      <trkpt lat="42.498932294547557830810546875" lon="-5.80208086408674716949462890625">
        <ele>880.20001220703125</ele>
        <time>2019-07-08T14:30:57.000Z</time>
      </trkpt>
      <trkpt lat="42.4988137744367122650146484375" lon="-5.80229912884533405303955078125">
        <ele>881.4000244140625</ele>
        <time>2019-07-08T14:30:58.000Z</time>
      </trkpt>
      <trkpt lat="42.4984825216233730316162109375" lon="-5.80291561782360076904296875">
        <ele>878.5999755859375</ele>
        <time>2019-07-08T14:31:01.000Z</time>
      </trkpt>
      <trkpt lat="42.49828755855560302734375" lon="-5.80328115262091159820556640625">
        <ele>877.4000244140625</ele>
        <time>2019-07-08T14:31:03.000Z</time>
      </trkpt>
      <trkpt lat="42.4981921724975109100341796875" lon="-5.8034567534923553466796875">
        <ele>877.20001220703125</ele>
        <time>2019-07-08T14:31:04.000Z</time>
      </trkpt>
      <trkpt lat="42.49800098128616809844970703125" lon="-5.80380569212138652801513671875">
        <ele>879.20001220703125</ele>
        <time>2019-07-08T14:31:06.000Z</time>
      </trkpt>
      <trkpt lat="42.4979058466851711273193359375" lon="-5.80397601239383220672607421875">
        <ele>881</ele>
        <time>2019-07-08T14:31:07.000Z</time>
      </trkpt>
      <trkpt lat="42.4977204389870166778564453125" lon="-5.8043071813881397247314453125">
        <ele>882.4000244140625</ele>
        <time>2019-07-08T14:31:09.000Z</time>
      </trkpt>
      <trkpt lat="42.4975333549082279205322265625" lon="-5.80463030375540256500244140625">
        <ele>883.4000244140625</ele>
        <time>2019-07-08T14:31:11.000Z</time>
      </trkpt>
      <trkpt lat="42.4972426705062389373779296875" lon="-5.8051054738461971282958984375">
        <ele>884.79998779296875</ele>
        <time>2019-07-08T14:31:14.000Z</time>
      </trkpt>
      <trkpt lat="42.49704846180975437164306640625" lon="-5.805420465767383575439453125">
        <ele>886.20001220703125</ele>
        <time>2019-07-08T14:31:16.000Z</time>
      </trkpt>
      <trkpt lat="42.49667932279407978057861328125" lon="-5.8060144074261188507080078125">
        <ele>886.4000244140625</ele>
        <time>2019-07-08T14:31:20.000Z</time>
      </trkpt>
      <trkpt lat="42.496342957019805908203125" lon="-5.806558392941951751708984375">
        <ele>887</ele>
        <time>2019-07-08T14:31:24.000Z</time>
      </trkpt>
      <trkpt lat="42.496262826025485992431640625" lon="-5.80669024027884006500244140625">
        <ele>888.20001220703125</ele>
        <time>2019-07-08T14:31:25.000Z</time>
      </trkpt>
      <trkpt lat="42.49594992958009243011474609375" lon="-5.8072066493332386016845703125">
        <ele>888.79998779296875</ele>
        <time>2019-07-08T14:31:29.000Z</time>
      </trkpt>
      <trkpt lat="42.49563527293503284454345703125" lon="-5.80769657157361507415771484375">
        <ele>887.5999755859375</ele>
        <time>2019-07-08T14:31:33.000Z</time>
      </trkpt>
      <trkpt lat="42.49527686275541782379150390625" lon="-5.80826184712350368499755859375">
        <ele>888.5999755859375</ele>
        <time>2019-07-08T14:31:38.000Z</time>
      </trkpt>
      <trkpt lat="42.4949577637016773223876953125" lon="-5.80877699889242649078369140625">
        <ele>887.4000244140625</ele>
        <time>2019-07-08T14:31:43.000Z</time>
      </trkpt>
      <trkpt lat="42.49489112757146358489990234375" lon="-5.80888378433883190155029296875">
        <ele>887.20001220703125</ele>
        <time>2019-07-08T14:31:44.000Z</time>
      </trkpt>
      <trkpt lat="42.49453640542924404144287109375" lon="-5.8094493113458156585693359375">
        <ele>886.20001220703125</ele>
        <time>2019-07-08T14:31:49.000Z</time>
      </trkpt>
      <trkpt lat="42.494461052119731903076171875" lon="-5.80957042984664440155029296875">
        <ele>886</ele>
        <time>2019-07-08T14:31:50.000Z</time>
      </trkpt>
      <trkpt lat="42.4941601417958736419677734375" lon="-5.81006999127566814422607421875">
        <ele>886.5999755859375</ele>
        <time>2019-07-08T14:31:54.000Z</time>
      </trkpt>
      <trkpt lat="42.49389384873211383819580078125" lon="-5.810574330389499664306640625">
        <ele>886.4000244140625</ele>
        <time>2019-07-08T14:31:58.000Z</time>
      </trkpt>
      <trkpt lat="42.4937688745558261871337890625" lon="-5.8108283020555973052978515625">
        <ele>885</ele>
        <time>2019-07-08T14:32:00.000Z</time>
      </trkpt>
      <trkpt lat="42.4936421401798725128173828125" lon="-5.81108856014907360076904296875">
        <ele>883.5999755859375</ele>
        <time>2019-07-08T14:32:02.000Z</time>
      </trkpt>
      <trkpt lat="42.49351532198488712310791015625" lon="-5.8113540150225162506103515625">
        <ele>881.5999755859375</ele>
        <time>2019-07-08T14:32:04.000Z</time>
      </trkpt>
      <trkpt lat="42.4934530444443225860595703125" lon="-5.81148636527359485626220703125">
        <ele>879.5999755859375</ele>
        <time>2019-07-08T14:32:05.000Z</time>
      </trkpt>
      <trkpt lat="42.49339344911277294158935546875" lon="-5.81161293201148509979248046875">
        <ele>877.79998779296875</ele>
        <time>2019-07-08T14:32:06.000Z</time>
      </trkpt>
      <trkpt lat="42.49329856596887111663818359375" lon="-5.811832956969738006591796875">
        <ele>876.4000244140625</ele>
        <time>2019-07-08T14:32:08.000Z</time>
      </trkpt>
      <trkpt lat="42.49326646327972412109375" lon="-5.8119249902665615081787109375">
        <ele>875.79998779296875</ele>
        <time>2019-07-08T14:32:09.000Z</time>
      </trkpt>
      <trkpt lat="42.49324223957955837249755859375" lon="-5.81199917010962963104248046875">
        <ele>875.20001220703125</ele>
        <time>2019-07-08T14:32:10.000Z</time>
      </trkpt>
      <trkpt lat="42.49319429509341716766357421875" lon="-5.8121204562485218048095703125">
        <ele>876.4000244140625</ele>
        <time>2019-07-08T14:32:15.000Z</time>
      </trkpt>
      <trkpt lat="42.49319932423532009124755859375" lon="-5.8121087215840816497802734375">
        <ele>877.4000244140625</ele>
        <time>2019-07-08T14:32:18.000Z</time>
      </trkpt>
      <trkpt lat="42.49320200644433498382568359375" lon="-5.812097825109958648681640625">
        <ele>876.4000244140625</ele>
        <time>2019-07-08T14:33:18.000Z</time>
      </trkpt>
      <trkpt lat="42.49320200644433498382568359375" lon="-5.812097825109958648681640625">
        <ele>878</ele>
        <time>2019-07-08T14:33:20.000Z</time>
      </trkpt>
      <trkpt lat="42.49320200644433498382568359375" lon="-5.8120896108448505401611328125">
        <ele>878</ele>
        <time>2019-07-08T14:33:37.000Z</time>
      </trkpt>
      <trkpt lat="42.4932056106626987457275390625" lon="-5.81209874711930751800537109375">
        <ele>878</ele>
        <time>2019-07-08T14:34:08.000Z</time>
      </trkpt>
      <trkpt lat="42.49320183880627155303955078125" lon="-5.81209681928157806396484375">
        <ele>878</ele>
        <time>2019-07-08T14:35:59.000Z</time>
      </trkpt>
      <trkpt lat="42.49314433895051479339599609375" lon="-5.811845697462558746337890625">
        <ele>878</ele>
        <time>2019-07-08T14:38:48.000Z</time>
      </trkpt>
      <trkpt lat="42.49317727982997894287109375" lon="-5.8119504712522029876708984375">
        <ele>878</ele>
        <time>2019-07-08T14:39:03.000Z</time>
      </trkpt>
      <trkpt lat="42.49318926595151424407958984375" lon="-5.81197922118008136749267578125">
        <ele>874</ele>
        <time>2019-07-08T14:39:26.000Z</time>
      </trkpt>
      <trkpt lat="42.4931953847408294677734375" lon="-5.811991207301616668701171875">
        <ele>875.4000244140625</ele>
        <time>2019-07-08T14:39:29.000Z</time>
      </trkpt>
      <trkpt lat="42.49318800866603851318359375" lon="-5.81202683039009571075439453125">
        <ele>874.4000244140625</ele>
        <time>2019-07-08T14:40:38.000Z</time>
      </trkpt>
      <trkpt lat="42.4932002462446689605712890625" lon="-5.8120426721870899200439453125">
        <ele>873.20001220703125</ele>
        <time>2019-07-08T14:41:14.000Z</time>
      </trkpt>
      <trkpt lat="42.4931908585131168365478515625" lon="-5.81200830638408660888671875">
        <ele>873</ele>
        <time>2019-07-08T14:41:27.000Z</time>
      </trkpt>
      <trkpt lat="42.4931593425571918487548828125" lon="-5.81213043071329593658447265625">
        <ele>872.20001220703125</ele>
        <time>2019-07-08T14:42:04.000Z</time>
      </trkpt>
      <trkpt lat="42.4930986575782299041748046875" lon="-5.81224299967288970947265625">
        <ele>871.79998779296875</ele>
        <time>2019-07-08T14:42:15.000Z</time>
      </trkpt>
      <trkpt lat="42.492850385606288909912109375" lon="-5.81275127828121185302734375">
        <ele>871.5999755859375</ele>
        <time>2019-07-08T14:42:21.000Z</time>
      </trkpt>
      <trkpt lat="42.49273982830345630645751953125" lon="-5.8129839599132537841796875">
        <ele>870.79998779296875</ele>
        <time>2019-07-08T14:42:23.000Z</time>
      </trkpt>
      <trkpt lat="42.49262767843902111053466796875" lon="-5.81322460435330867767333984375">
        <ele>869.20001220703125</ele>
        <time>2019-07-08T14:42:25.000Z</time>
      </trkpt>
      <trkpt lat="42.4925695918500423431396484375" lon="-5.8133482374250888824462890625">
        <ele>867.79998779296875</ele>
        <time>2019-07-08T14:42:26.000Z</time>
      </trkpt>
      <trkpt lat="42.49251033179461956024169921875" lon="-5.8134753070771694183349609375">
        <ele>866.5999755859375</ele>
        <time>2019-07-08T14:42:27.000Z</time>
      </trkpt>
      <trkpt lat="42.49244746752083301544189453125" lon="-5.81360966898500919342041015625">
        <ele>865.20001220703125</ele>
        <time>2019-07-08T14:42:28.000Z</time>
      </trkpt>
      <trkpt lat="42.4923070706427097320556640625" lon="-5.81391644664108753204345703125">
        <ele>864.20001220703125</ele>
        <time>2019-07-08T14:42:30.000Z</time>
      </trkpt>
      <trkpt lat="42.492045722901821136474609375" lon="-5.81447518430650234222412109375">
        <ele>862.5999755859375</ele>
        <time>2019-07-08T14:42:33.000Z</time>
      </trkpt>
      <trkpt lat="42.49175143428146839141845703125" lon="-5.8151054196059703826904296875">
        <ele>861.79998779296875</ele>
        <time>2019-07-08T14:42:36.000Z</time>
      </trkpt>
      <trkpt lat="42.491436190903186798095703125" lon="-5.81576549448072910308837890625">
        <ele>862.79998779296875</ele>
        <time>2019-07-08T14:42:39.000Z</time>
      </trkpt>
      <trkpt lat="42.4913283996284008026123046875" lon="-5.81598736345767974853515625">
        <ele>864</ele>
        <time>2019-07-08T14:42:40.000Z</time>
      </trkpt>
      <trkpt lat="42.49121935106813907623291015625" lon="-5.81620705313980579376220703125">
        <ele>865.5999755859375</ele>
        <time>2019-07-08T14:42:41.000Z</time>
      </trkpt>
      <trkpt lat="42.491107620298862457275390625" lon="-5.8164287544786930084228515625">
        <ele>866.79998779296875</ele>
        <time>2019-07-08T14:42:42.000Z</time>
      </trkpt>
      <trkpt lat="42.490867562592029571533203125" lon="-5.8168907649815082550048828125">
        <ele>868</ele>
        <time>2019-07-08T14:42:44.000Z</time>
      </trkpt>
      <trkpt lat="42.49061903916299343109130859375" lon="-5.81735973246395587921142578125">
        <ele>866.79998779296875</ele>
        <time>2019-07-08T14:42:46.000Z</time>
      </trkpt>
      <trkpt lat="42.4904930591583251953125" lon="-5.81759409047663211822509765625">
        <ele>865</ele>
        <time>2019-07-08T14:42:47.000Z</time>
      </trkpt>
      <trkpt lat="42.4903656542301177978515625" lon="-5.81783129833638668060302734375">
        <ele>862.5999755859375</ele>
        <time>2019-07-08T14:42:48.000Z</time>
      </trkpt>
      <trkpt lat="42.4902390874922275543212890625" lon="-5.81807102076709270477294921875">
        <ele>861</ele>
        <time>2019-07-08T14:42:49.000Z</time>
      </trkpt>
      <trkpt lat="42.49011092819273471832275390625" lon="-5.8183113299310207366943359375">
        <ele>859.4000244140625</ele>
        <time>2019-07-08T14:42:50.000Z</time>
      </trkpt>
      <trkpt lat="42.48998050577938556671142578125" lon="-5.818550884723663330078125">
        <ele>858.4000244140625</ele>
        <time>2019-07-08T14:42:51.000Z</time>
      </trkpt>
      <trkpt lat="42.489588148891925811767578125" lon="-5.81927332095801830291748046875">
        <ele>857.4000244140625</ele>
        <time>2019-07-08T14:42:54.000Z</time>
      </trkpt>
      <trkpt lat="42.489199899137020111083984375" lon="-5.81999986432492733001708984375">
        <ele>857.5999755859375</ele>
        <time>2019-07-08T14:42:57.000Z</time>
      </trkpt>
      <trkpt lat="42.4888155050575733184814453125" lon="-5.82072556950151920318603515625">
        <ele>858.4000244140625</ele>
        <time>2019-07-08T14:43:00.000Z</time>
      </trkpt>
      <trkpt lat="42.4886877648532390594482421875" lon="-5.8209683932363986968994140625">
        <ele>858.4000244140625</ele>
        <time>2019-07-08T14:43:01.000Z</time>
      </trkpt>
      <trkpt lat="42.48830295167863368988037109375" lon="-5.821692086756229400634765625">
        <ele>857.4000244140625</ele>
        <time>2019-07-08T14:43:04.000Z</time>
      </trkpt>
      <trkpt lat="42.4881737865507602691650390625" lon="-5.82193122245371341705322265625">
        <ele>857.20001220703125</ele>
        <time>2019-07-08T14:43:05.000Z</time>
      </trkpt>
      <trkpt lat="42.4877902306616306304931640625" lon="-5.82264821045100688934326171875">
        <ele>858.20001220703125</ele>
        <time>2019-07-08T14:43:08.000Z</time>
      </trkpt>
      <trkpt lat="42.487536258995532989501953125" lon="-5.82312765531241893768310546875">
        <ele>860.20001220703125</ele>
        <time>2019-07-08T14:43:10.000Z</time>
      </trkpt>
      <trkpt lat="42.48715127818286418914794921875" lon="-5.8238477446138858795166015625">
        <ele>860.79998779296875</ele>
        <time>2019-07-08T14:43:13.000Z</time>
      </trkpt>
      <trkpt lat="42.4868930317461490631103515625" lon="-5.8243275247514247894287109375">
        <ele>861.4000244140625</ele>
        <time>2019-07-08T14:43:15.000Z</time>
      </trkpt>
      <trkpt lat="42.48650670982897281646728515625" lon="-5.82504912279546260833740234375">
        <ele>862.4000244140625</ele>
        <time>2019-07-08T14:43:18.000Z</time>
      </trkpt>
      <trkpt lat="42.48611862771213054656982421875" lon="-5.82577742636203765869140625">
        <ele>862.5999755859375</ele>
        <time>2019-07-08T14:43:21.000Z</time>
      </trkpt>
      <trkpt lat="42.48573289252817630767822265625" lon="-5.826500616967678070068359375">
        <ele>862</ele>
        <time>2019-07-08T14:43:24.000Z</time>
      </trkpt>
      <trkpt lat="42.48536459170281887054443359375" lon="-5.8271862566471099853515625">
        <ele>862.20001220703125</ele>
        <time>2019-07-08T14:43:27.000Z</time>
      </trkpt>
      <trkpt lat="42.48499914072453975677490234375" lon="-5.8278643526136875152587890625">
        <ele>864</ele>
        <time>2019-07-08T14:43:30.000Z</time>
      </trkpt>
      <trkpt lat="42.48463167808949947357177734375" lon="-5.828544460237026214599609375">
        <ele>865.79998779296875</ele>
        <time>2019-07-08T14:43:33.000Z</time>
      </trkpt>
      <trkpt lat="42.4845092184841632843017578125" lon="-5.82877135835587978363037109375">
        <ele>867</ele>
        <time>2019-07-08T14:43:34.000Z</time>
      </trkpt>
      <trkpt lat="42.48425918631255626678466796875" lon="-5.82923353649675846099853515625">
        <ele>868</ele>
        <time>2019-07-08T14:43:36.000Z</time>
      </trkpt>
      <trkpt lat="42.48387269675731658935546875" lon="-5.82994834519922733306884765625">
        <ele>868.5999755859375</ele>
        <time>2019-07-08T14:43:39.000Z</time>
      </trkpt>
      <trkpt lat="42.4834884703159332275390625" lon="-5.830687545239925384521484375">
        <ele>867.20001220703125</ele>
        <time>2019-07-08T14:43:42.000Z</time>
      </trkpt>
      <trkpt lat="42.48335880227386951446533203125" lon="-5.830935649573802947998046875">
        <ele>866.20001220703125</ele>
        <time>2019-07-08T14:43:43.000Z</time>
      </trkpt>
      <trkpt lat="42.4831034056842327117919921875" lon="-5.83142490126192569732666015625">
        <ele>864.20001220703125</ele>
        <time>2019-07-08T14:43:45.000Z</time>
      </trkpt>
      <trkpt lat="42.48272429220378398895263671875" lon="-5.83213484846055507659912109375">
        <ele>865.20001220703125</ele>
        <time>2019-07-08T14:43:48.000Z</time>
      </trkpt>
      <trkpt lat="42.4825971387326717376708984375" lon="-5.83237054757773876190185546875">
        <ele>867.4000244140625</ele>
        <time>2019-07-08T14:43:49.000Z</time>
      </trkpt>
      <trkpt lat="42.4824697338044643402099609375" lon="-5.8326071687042713165283203125">
        <ele>869</ele>
        <time>2019-07-08T14:43:50.000Z</time>
      </trkpt>
      <trkpt lat="42.48221509158611297607421875" lon="-5.833085440099239349365234375">
        <ele>870.20001220703125</ele>
        <time>2019-07-08T14:43:52.000Z</time>
      </trkpt>
      <trkpt lat="42.48196086846292018890380859375" lon="-5.8335633762180805206298828125">
        <ele>868.79998779296875</ele>
        <time>2019-07-08T14:43:54.000Z</time>
      </trkpt>
      <trkpt lat="42.4815738759934902191162109375" lon="-5.83429201506078243255615234375">
        <ele>867.5999755859375</ele>
        <time>2019-07-08T14:43:57.000Z</time>
      </trkpt>
      <trkpt lat="42.4811839498579502105712890625" lon="-5.83503062836825847625732421875">
        <ele>866.20001220703125</ele>
        <time>2019-07-08T14:44:00.000Z</time>
      </trkpt>
      <trkpt lat="42.481055371463298797607421875" lon="-5.8352749608457088470458984375">
        <ele>863.20001220703125</ele>
        <time>2019-07-08T14:44:01.000Z</time>
      </trkpt>
      <trkpt lat="42.4809271283447742462158203125" lon="-5.83551694639027118682861328125">
        <ele>858.20001220703125</ele>
        <time>2019-07-08T14:44:02.000Z</time>
      </trkpt>
      <trkpt lat="42.48079779557883739471435546875" lon="-5.83575935102999210357666015625">
        <ele>853.5999755859375</ele>
        <time>2019-07-08T14:44:03.000Z</time>
      </trkpt>
      <trkpt lat="42.4806686304509639739990234375" lon="-5.83600041456520557403564453125">
        <ele>851.79998779296875</ele>
        <time>2019-07-08T14:44:04.000Z</time>
      </trkpt>
      <trkpt lat="42.48054047115147113800048828125" lon="-5.83623879589140415191650390625">
        <ele>850.20001220703125</ele>
        <time>2019-07-08T14:44:05.000Z</time>
      </trkpt>
      <trkpt lat="42.48015942983329296112060546875" lon="-5.836950838565826416015625">
        <ele>850.20001220703125</ele>
        <time>2019-07-08T14:44:08.000Z</time>
      </trkpt>
      <trkpt lat="42.48003118671476840972900390625" lon="-5.8371880464255809783935546875">
        <ele>851.4000244140625</ele>
        <time>2019-07-08T14:44:09.000Z</time>
      </trkpt>
      <trkpt lat="42.47976799495518207550048828125" lon="-5.83767377771437168121337890625">
        <ele>852.4000244140625</ele>
        <time>2019-07-08T14:44:11.000Z</time>
      </trkpt>
      <trkpt lat="42.4794991873204708099365234375" lon="-5.838174261152744293212890625">
        <ele>853.79998779296875</ele>
        <time>2019-07-08T14:44:13.000Z</time>
      </trkpt>
      <trkpt lat="42.4792292900383472442626953125" lon="-5.8386823721230030059814453125">
        <ele>853.4000244140625</ele>
        <time>2019-07-08T14:44:15.000Z</time>
      </trkpt>
      <trkpt lat="42.47895981185138225555419921875" lon="-5.83918637596070766448974609375">
        <ele>853.20001220703125</ele>
        <time>2019-07-08T14:44:17.000Z</time>
      </trkpt>
      <trkpt lat="42.4786978773772716522216796875" lon="-5.83967286162078380584716796875">
        <ele>855</ele>
        <time>2019-07-08T14:44:19.000Z</time>
      </trkpt>
      <trkpt lat="42.4783210270106792449951171875" lon="-5.840384066104888916015625">
        <ele>855.20001220703125</ele>
        <time>2019-07-08T14:44:22.000Z</time>
      </trkpt>
      <trkpt lat="42.47807417996227741241455078125" lon="-5.8408440649509429931640625">
        <ele>856</ele>
        <time>2019-07-08T14:44:24.000Z</time>
      </trkpt>
      <trkpt lat="42.477712333202362060546875" lon="-5.8415184728801250457763671875">
        <ele>856</ele>
        <time>2019-07-08T14:44:27.000Z</time>
      </trkpt>
      <trkpt lat="42.47734746895730495452880859375" lon="-5.842200256884098052978515625">
        <ele>856.5999755859375</ele>
        <time>2019-07-08T14:44:30.000Z</time>
      </trkpt>
      <trkpt lat="42.47698470018804073333740234375" lon="-5.84288120269775390625">
        <ele>854.79998779296875</ele>
        <time>2019-07-08T14:44:33.000Z</time>
      </trkpt>
      <trkpt lat="42.4766139686107635498046875" lon="-5.84357547573745250701904296875">
        <ele>855</ele>
        <time>2019-07-08T14:44:36.000Z</time>
      </trkpt>
      <trkpt lat="42.47623519040644168853759765625" lon="-5.8442794717848300933837890625">
        <ele>855.20001220703125</ele>
        <time>2019-07-08T14:44:39.000Z</time>
      </trkpt>
      <trkpt lat="42.47584911994636058807373046875" lon="-5.844997130334377288818359375">
        <ele>856</ele>
        <time>2019-07-08T14:44:42.000Z</time>
      </trkpt>
      <trkpt lat="42.47545718215405941009521484375" lon="-5.8457255177199840545654296875">
        <ele>856</ele>
        <time>2019-07-08T14:44:45.000Z</time>
      </trkpt>
      <trkpt lat="42.47519482858479022979736328125" lon="-5.84621795453131198883056640625">
        <ele>854.79998779296875</ele>
        <time>2019-07-08T14:44:47.000Z</time>
      </trkpt>
      <trkpt lat="42.47492912225425243377685546875" lon="-5.8467142470180988311767578125">
        <ele>853.79998779296875</ele>
        <time>2019-07-08T14:44:49.000Z</time>
      </trkpt>
      <trkpt lat="42.47465872205793857574462890625" lon="-5.84721439518034458160400390625">
        <ele>853.79998779296875</ele>
        <time>2019-07-08T14:44:51.000Z</time>
      </trkpt>
      <trkpt lat="42.4743862263858318328857421875" lon="-5.8477240987122058868408203125">
        <ele>854.4000244140625</ele>
        <time>2019-07-08T14:44:53.000Z</time>
      </trkpt>
      <trkpt lat="42.47411322779953479766845703125" lon="-5.84824084304273128509521484375">
        <ele>854.4000244140625</ele>
        <time>2019-07-08T14:44:55.000Z</time>
      </trkpt>
      <trkpt lat="42.4738387204706668853759765625" lon="-5.84875917993485927581787109375">
        <ele>853</ele>
        <time>2019-07-08T14:44:57.000Z</time>
      </trkpt>
      <trkpt lat="42.47355901636183261871337890625" lon="-5.84927022457122802734375">
        <ele>852.5999755859375</ele>
        <time>2019-07-08T14:44:59.000Z</time>
      </trkpt>
      <trkpt lat="42.47328065335750579833984375" lon="-5.8497847057878971099853515625">
        <ele>852</ele>
        <time>2019-07-08T14:45:01.000Z</time>
      </trkpt>
      <trkpt lat="42.47300262562930583953857421875" lon="-5.85030228830873966217041015625">
        <ele>852.4000244140625</ele>
        <time>2019-07-08T14:45:03.000Z</time>
      </trkpt>
      <trkpt lat="42.47272551991045475006103515625" lon="-5.85081987082958221435546875">
        <ele>852.20001220703125</ele>
        <time>2019-07-08T14:45:05.000Z</time>
      </trkpt>
      <trkpt lat="42.47244908474385738372802734375" lon="-5.85133351385593414306640625">
        <ele>851.79998779296875</ele>
        <time>2019-07-08T14:45:07.000Z</time>
      </trkpt>
      <trkpt lat="42.4721750803291797637939453125" lon="-5.85184137336909770965576171875">
        <ele>852</ele>
        <time>2019-07-08T14:45:09.000Z</time>
      </trkpt>
      <trkpt lat="42.47203920967876911163330078125" lon="-5.852092243731021881103515625">
        <ele>851.5999755859375</ele>
        <time>2019-07-08T14:45:10.000Z</time>
      </trkpt>
      <trkpt lat="42.47176880948245525360107421875" lon="-5.8525913022458553314208984375">
        <ele>851.79998779296875</ele>
        <time>2019-07-08T14:45:12.000Z</time>
      </trkpt>
      <trkpt lat="42.471500001847743988037109375" lon="-5.8530875109136104583740234375">
        <ele>852.4000244140625</ele>
        <time>2019-07-08T14:45:14.000Z</time>
      </trkpt>
      <trkpt lat="42.47123488225042819976806640625" lon="-5.85358346812427043914794921875">
        <ele>852</ele>
        <time>2019-07-08T14:45:16.000Z</time>
      </trkpt>
      <trkpt lat="42.470856942236423492431640625" lon="-5.85429467260837554931640625">
        <ele>850.20001220703125</ele>
        <time>2019-07-08T14:45:19.000Z</time>
      </trkpt>
      <trkpt lat="42.470609508454799652099609375" lon="-5.85475408472120761871337890625">
        <ele>849</ele>
        <time>2019-07-08T14:45:21.000Z</time>
      </trkpt>
      <trkpt lat="42.47023500502109527587890625" lon="-5.85544777102768421173095703125">
        <ele>848.5999755859375</ele>
        <time>2019-07-08T14:45:24.000Z</time>
      </trkpt>
      <trkpt lat="42.46985354460775852203369140625" lon="-5.8561522699892520904541015625">
        <ele>850</ele>
        <time>2019-07-08T14:45:27.000Z</time>
      </trkpt>
      <trkpt lat="42.46959890238940715789794921875" lon="-5.8566243387758731842041015625">
        <ele>851.20001220703125</ele>
        <time>2019-07-08T14:45:29.000Z</time>
      </trkpt>
      <trkpt lat="42.46934845112264156341552734375" lon="-5.857095234096050262451171875">
        <ele>851.5999755859375</ele>
        <time>2019-07-08T14:45:31.000Z</time>
      </trkpt>
      <trkpt lat="42.46896657161414623260498046875" lon="-5.85781297646462917327880859375">
        <ele>851</ele>
        <time>2019-07-08T14:45:34.000Z</time>
      </trkpt>
      <trkpt lat="42.4685861170291900634765625" lon="-5.85852527059614658355712890625">
        <ele>850.20001220703125</ele>
        <time>2019-07-08T14:45:37.000Z</time>
      </trkpt>
      <trkpt lat="42.4684615619480609893798828125" lon="-5.85875778459012508392333984375">
        <ele>849.79998779296875</ele>
        <time>2019-07-08T14:45:38.000Z</time>
      </trkpt>
      <trkpt lat="42.46809250675141811370849609375" lon="-5.85944744758307933807373046875">
        <ele>849.79998779296875</ele>
        <time>2019-07-08T14:45:41.000Z</time>
      </trkpt>
      <trkpt lat="42.46772336773574352264404296875" lon="-5.8601356856524944305419921875">
        <ele>848.79998779296875</ele>
        <time>2019-07-08T14:45:44.000Z</time>
      </trkpt>
      <trkpt lat="42.46759998612105846405029296875" lon="-5.8603651821613311767578125">
        <ele>848.79998779296875</ele>
        <time>2019-07-08T14:45:45.000Z</time>
      </trkpt>
      <trkpt lat="42.467243671417236328125" lon="-5.86103414185345172882080078125">
        <ele>847.79998779296875</ele>
        <time>2019-07-08T14:45:48.000Z</time>
      </trkpt>
      <trkpt lat="42.466903030872344970703125" lon="-5.8616655506193637847900390625">
        <ele>848.4000244140625</ele>
        <time>2019-07-08T14:45:51.000Z</time>
      </trkpt>
      <trkpt lat="42.466557025909423828125" lon="-5.86230098269879817962646484375">
        <ele>848.4000244140625</ele>
        <time>2019-07-08T14:45:54.000Z</time>
      </trkpt>
      <trkpt lat="42.46621345169842243194580078125" lon="-5.86295125074684619903564453125">
        <ele>848</ele>
        <time>2019-07-08T14:45:57.000Z</time>
      </trkpt>
      <trkpt lat="42.46609861962497234344482421875" lon="-5.8631680905818939208984375">
        <ele>847.79998779296875</ele>
        <time>2019-07-08T14:45:58.000Z</time>
      </trkpt>
      <trkpt lat="42.46575160883367061614990234375" lon="-5.86381223984062671661376953125">
        <ele>848</ele>
        <time>2019-07-08T14:46:01.000Z</time>
      </trkpt>
      <trkpt lat="42.4654061906039714813232421875" lon="-5.8644530363380908966064453125">
        <ele>847.5999755859375</ele>
        <time>2019-07-08T14:46:04.000Z</time>
      </trkpt>
      <trkpt lat="42.4651725031435489654541015625" lon="-5.8648892305791378021240234375">
        <ele>846.5999755859375</ele>
        <time>2019-07-08T14:46:06.000Z</time>
      </trkpt>
      <trkpt lat="42.4648218043148517608642578125" lon="-5.865542180836200714111328125">
        <ele>845.79998779296875</ele>
        <time>2019-07-08T14:46:09.000Z</time>
      </trkpt>
      <trkpt lat="42.4644871987402439117431640625" lon="-5.86617275141179561614990234375">
        <ele>846.20001220703125</ele>
        <time>2019-07-08T14:46:12.000Z</time>
      </trkpt>
      <trkpt lat="42.464167177677154541015625" lon="-5.86677365005016326904296875">
        <ele>846.79998779296875</ele>
        <time>2019-07-08T14:46:15.000Z</time>
      </trkpt>
      <trkpt lat="42.4638481624424457550048828125" lon="-5.86736641824245452880859375">
        <ele>846.5999755859375</ele>
        <time>2019-07-08T14:46:18.000Z</time>
      </trkpt>
      <trkpt lat="42.46363467536866664886474609375" lon="-5.86775424890220165252685546875">
        <ele>846.5999755859375</ele>
        <time>2019-07-08T14:46:20.000Z</time>
      </trkpt>
      <trkpt lat="42.46331800706684589385986328125" lon="-5.8683325164020061492919921875">
        <ele>846.20001220703125</ele>
        <time>2019-07-08T14:46:23.000Z</time>
      </trkpt>
      <trkpt lat="42.462998069822788238525390625" lon="-5.8689266256988048553466796875">
        <ele>845.4000244140625</ele>
        <time>2019-07-08T14:46:26.000Z</time>
      </trkpt>
      <trkpt lat="42.46268601156771183013916015625" lon="-5.86950170807540416717529296875">
        <ele>847.20001220703125</ele>
        <time>2019-07-08T14:46:29.000Z</time>
      </trkpt>
      <trkpt lat="42.46258190833032131195068359375" lon="-5.86969633586704730987548828125">
        <ele>849.20001220703125</ele>
        <time>2019-07-08T14:46:30.000Z</time>
      </trkpt>
      <trkpt lat="42.46247713454067707061767578125" lon="-5.86989364586770534515380859375">
        <ele>851.4000244140625</ele>
        <time>2019-07-08T14:46:31.000Z</time>
      </trkpt>
      <trkpt lat="42.462371774017810821533203125" lon="-5.87009279988706111907958984375">
        <ele>852.5999755859375</ele>
        <time>2019-07-08T14:46:32.000Z</time>
      </trkpt>
      <trkpt lat="42.46206290088593959808349609375" lon="-5.8706693910062313079833984375">
        <ele>853.5999755859375</ele>
        <time>2019-07-08T14:46:35.000Z</time>
      </trkpt>
      <trkpt lat="42.46176802553236484527587890625" lon="-5.87122351862490177154541015625">
        <ele>853.20001220703125</ele>
        <time>2019-07-08T14:46:38.000Z</time>
      </trkpt>
      <trkpt lat="42.46147549711167812347412109375" lon="-5.87176465429365634918212890625">
        <ele>852.79998779296875</ele>
        <time>2019-07-08T14:46:41.000Z</time>
      </trkpt>
      <trkpt lat="42.461196295917034149169921875" lon="-5.8722904510796070098876953125">
        <ele>852.4000244140625</ele>
        <time>2019-07-08T14:46:44.000Z</time>
      </trkpt>
      <trkpt lat="42.460913993418216705322265625" lon="-5.872828401625156402587890625">
        <ele>852.4000244140625</ele>
        <time>2019-07-08T14:46:47.000Z</time>
      </trkpt>
      <trkpt lat="42.4606271646916866302490234375" lon="-5.87336383759975433349609375">
        <ele>851.79998779296875</ele>
        <time>2019-07-08T14:46:50.000Z</time>
      </trkpt>
      <trkpt lat="42.4605341255664825439453125" lon="-5.8735393546521663665771484375">
        <ele>851.5999755859375</ele>
        <time>2019-07-08T14:46:51.000Z</time>
      </trkpt>
      <trkpt lat="42.46044284664094448089599609375" lon="-5.87371210567653179168701171875">
        <ele>850.5999755859375</ele>
        <time>2019-07-08T14:46:52.000Z</time>
      </trkpt>
      <trkpt lat="42.46035316027700901031494140625" lon="-5.87388041429221630096435546875">
        <ele>848.5999755859375</ele>
        <time>2019-07-08T14:46:53.000Z</time>
      </trkpt>
      <trkpt lat="42.4602583609521389007568359375" lon="-5.87403933517634868621826171875">
        <ele>847.20001220703125</ele>
        <time>2019-07-08T14:46:54.000Z</time>
      </trkpt>
      <trkpt lat="42.460091896355152130126953125" lon="-5.87434845976531505584716796875">
        <ele>846.20001220703125</ele>
        <time>2019-07-08T14:46:56.000Z</time>
      </trkpt>
      <trkpt lat="42.4598540179431438446044921875" lon="-5.87478850968182086944580078125">
        <ele>847.4000244140625</ele>
        <time>2019-07-08T14:46:59.000Z</time>
      </trkpt>
      <trkpt lat="42.45953860692679882049560546875" lon="-5.8753887377679347991943359375">
        <ele>848.20001220703125</ele>
        <time>2019-07-08T14:47:03.000Z</time>
      </trkpt>
      <trkpt lat="42.45930793695151805877685546875" lon="-5.8760807476937770843505859375">
        <ele>848</ele>
        <time>2019-07-08T14:47:07.000Z</time>
      </trkpt>
      <trkpt lat="42.459235601127147674560546875" lon="-5.876798070967197418212890625">
        <ele>847.20001220703125</ele>
        <time>2019-07-08T14:47:11.000Z</time>
      </trkpt>
      <trkpt lat="42.4592287279665470123291015625" lon="-5.8771638572216033935546875">
        <ele>845.79998779296875</ele>
        <time>2019-07-08T14:47:13.000Z</time>
      </trkpt>
      <trkpt lat="42.45921908877789974212646484375" lon="-5.87755353190004825592041015625">
        <ele>844.5999755859375</ele>
        <time>2019-07-08T14:47:15.000Z</time>
      </trkpt>
      <trkpt lat="42.459205426275730133056640625" lon="-5.87818016298115253448486328125">
        <ele>844</ele>
        <time>2019-07-08T14:47:18.000Z</time>
      </trkpt>
      <trkpt lat="42.4591995589435100555419921875" lon="-5.8788383938372135162353515625">
        <ele>844.4000244140625</ele>
        <time>2019-07-08T14:47:21.000Z</time>
      </trkpt>
      <trkpt lat="42.459190674126148223876953125" lon="-5.8796128816902637481689453125">
        <ele>844.79998779296875</ele>
        <time>2019-07-08T14:47:25.000Z</time>
      </trkpt>
      <trkpt lat="42.459172569215297698974609375" lon="-5.880299694836139678955078125">
        <ele>844</ele>
        <time>2019-07-08T14:47:29.000Z</time>
      </trkpt>
      <trkpt lat="42.4590765126049518585205078125" lon="-5.8809482865035533905029296875">
        <ele>844</ele>
        <time>2019-07-08T14:47:33.000Z</time>
      </trkpt>
      <trkpt lat="42.45901457034051418304443359375" lon="-5.88126688264310359954833984375">
        <ele>843.5999755859375</ele>
        <time>2019-07-08T14:47:35.000Z</time>
      </trkpt>
      <trkpt lat="42.45893142186105251312255859375" lon="-5.8817221038043498992919921875">
        <ele>842.4000244140625</ele>
        <time>2019-07-08T14:47:38.000Z</time>
      </trkpt>
      <trkpt lat="42.45890610851347446441650390625" lon="-5.88186216540634632110595703125">
        <ele>841.4000244140625</ele>
        <time>2019-07-08T14:47:39.000Z</time>
      </trkpt>
      <trkpt lat="42.4588818848133087158203125" lon="-5.88199594058096408843994140625">
        <ele>840.20001220703125</ele>
        <time>2019-07-08T14:47:40.000Z</time>
      </trkpt>
      <trkpt lat="42.458858750760555267333984375" lon="-5.8821234293282032012939453125">
        <ele>838.79998779296875</ele>
        <time>2019-07-08T14:47:41.000Z</time>
      </trkpt>
      <trkpt lat="42.45881281793117523193359375" lon="-5.8823490701615810394287109375">
        <ele>837.5999755859375</ele>
        <time>2019-07-08T14:47:43.000Z</time>
      </trkpt>
      <trkpt lat="42.4587046913802623748779296875" lon="-5.88290403597056865692138671875">
        <ele>838.5999755859375</ele>
        <time>2019-07-08T14:47:54.000Z</time>
      </trkpt>
      <trkpt lat="42.4585585109889507293701171875" lon="-5.88360157795250415802001953125">
        <ele>839</ele>
        <time>2019-07-08T14:48:02.000Z</time>
      </trkpt>
      <trkpt lat="42.45848466642200946807861328125" lon="-5.8840338326990604400634765625">
        <ele>839.20001220703125</ele>
        <time>2019-07-08T14:48:06.000Z</time>
      </trkpt>
      <trkpt lat="42.458499334752559661865234375" lon="-5.88423357345163822174072265625">
        <ele>839</ele>
        <time>2019-07-08T14:48:08.000Z</time>
      </trkpt>
      <trkpt lat="42.458542920649051666259765625" lon="-5.88449710048735141754150390625">
        <ele>839.20001220703125</ele>
        <time>2019-07-08T14:48:11.000Z</time>
      </trkpt>
      <trkpt lat="42.45851098559796810150146484375" lon="-5.8846504054963588714599609375">
        <ele>838.79998779296875</ele>
        <time>2019-07-08T14:48:13.000Z</time>
      </trkpt>
      <trkpt lat="42.45837050490081310272216796875" lon="-5.88492147624492645263671875">
        <ele>838.79998779296875</ele>
        <time>2019-07-08T14:48:16.000Z</time>
      </trkpt>
      <trkpt lat="42.4582919664680957794189453125" lon="-5.88517217896878719329833984375">
        <ele>838.79998779296875</ele>
        <time>2019-07-08T14:48:18.000Z</time>
      </trkpt>
      <trkpt lat="42.45816783048212528228759765625" lon="-5.88582026772201061248779296875">
        <ele>837.79998779296875</ele>
        <time>2019-07-08T14:48:22.000Z</time>
      </trkpt>
      <trkpt lat="42.45813019573688507080078125" lon="-5.8860089443624019622802734375">
        <ele>837.5999755859375</ele>
        <time>2019-07-08T14:48:23.000Z</time>
      </trkpt>
      <trkpt lat="42.457984350621700286865234375" lon="-5.88677932508289813995361328125">
        <ele>838.5999755859375</ele>
        <time>2019-07-08T14:48:27.000Z</time>
      </trkpt>
      <trkpt lat="42.4579476378858089447021484375" lon="-5.8869839273393154144287109375">
        <ele>838.79998779296875</ele>
        <time>2019-07-08T14:48:28.000Z</time>
      </trkpt>
      <trkpt lat="42.45782869867980480194091796875" lon="-5.8876380510628223419189453125">
        <ele>839.20001220703125</ele>
        <time>2019-07-08T14:48:31.000Z</time>
      </trkpt>
      <trkpt lat="42.45770397596061229705810546875" lon="-5.8883387781679630279541015625">
        <ele>837.5999755859375</ele>
        <time>2019-07-08T14:48:34.000Z</time>
      </trkpt>
      <trkpt lat="42.45756869204342365264892578125" lon="-5.889114104211330413818359375">
        <ele>836.5999755859375</ele>
        <time>2019-07-08T14:48:37.000Z</time>
      </trkpt>
      <trkpt lat="42.4574165605008602142333984375" lon="-5.8899548090994358062744140625">
        <ele>837.20001220703125</ele>
        <time>2019-07-08T14:48:40.000Z</time>
      </trkpt>
      <trkpt lat="42.45725839398801326751708984375" lon="-5.89083750732243061065673828125">
        <ele>835.79998779296875</ele>
        <time>2019-07-08T14:48:43.000Z</time>
      </trkpt>
      <trkpt lat="42.45720424689352512359619140625" lon="-5.8911373279988765716552734375">
        <ele>834.79998779296875</ele>
        <time>2019-07-08T14:48:44.000Z</time>
      </trkpt>
      <trkpt lat="42.4570946954190731048583984375" lon="-5.891732610762119293212890625">
        <ele>834.20001220703125</ele>
        <time>2019-07-08T14:48:46.000Z</time>
      </trkpt>
      <trkpt lat="42.4569867365062236785888671875" lon="-5.8923292346298694610595703125">
        <ele>833.79998779296875</ele>
        <time>2019-07-08T14:48:48.000Z</time>
      </trkpt>
      <trkpt lat="42.45687835849821567535400390625" lon="-5.89292795397341251373291015625">
        <ele>834.79998779296875</ele>
        <time>2019-07-08T14:48:50.000Z</time>
      </trkpt>
      <trkpt lat="42.45682421140372753143310546875" lon="-5.89322836138308048248291015625">
        <ele>835.5999755859375</ele>
        <time>2019-07-08T14:48:51.000Z</time>
      </trkpt>
      <trkpt lat="42.4567161686718463897705078125" lon="-5.89383403770625591278076171875">
        <ele>837.20001220703125</ele>
        <time>2019-07-08T14:48:53.000Z</time>
      </trkpt>
      <trkpt lat="42.456662021577358245849609375" lon="-5.8941395580768585205078125">
        <ele>838.4000244140625</ele>
        <time>2019-07-08T14:48:54.000Z</time>
      </trkpt>
      <trkpt lat="42.45660628192126750946044921875" lon="-5.894447006285190582275390625">
        <ele>839.79998779296875</ele>
        <time>2019-07-08T14:48:55.000Z</time>
      </trkpt>
      <trkpt lat="42.4565495364367961883544921875" lon="-5.89475554414093494415283203125">
        <ele>841.20001220703125</ele>
        <time>2019-07-08T14:48:56.000Z</time>
      </trkpt>
      <trkpt lat="42.45643772184848785400390625" lon="-5.89537848718464374542236328125">
        <ele>842.20001220703125</ele>
        <time>2019-07-08T14:48:58.000Z</time>
      </trkpt>
      <trkpt lat="42.4563820660114288330078125" lon="-5.8956927247345447540283203125">
        <ele>842.79998779296875</ele>
        <time>2019-07-08T14:48:59.000Z</time>
      </trkpt>
      <trkpt lat="42.45626899413764476776123046875" lon="-5.89633134193718433380126953125">
        <ele>843.5999755859375</ele>
        <time>2019-07-08T14:49:01.000Z</time>
      </trkpt>
      <trkpt lat="42.45615265332162380218505859375" lon="-5.8969825319945812225341796875">
        <ele>843.5999755859375</ele>
        <time>2019-07-08T14:49:03.000Z</time>
      </trkpt>
      <trkpt lat="42.4560342170298099517822265625" lon="-5.897640846669673919677734375">
        <ele>843.4000244140625</ele>
        <time>2019-07-08T14:49:05.000Z</time>
      </trkpt>
      <trkpt lat="42.455917708575725555419921875" lon="-5.89829706586897373199462890625">
        <ele>843.5999755859375</ele>
        <time>2019-07-08T14:49:07.000Z</time>
      </trkpt>
      <trkpt lat="42.45586029253900051116943359375" lon="-5.89862354099750518798828125">
        <ele>844.20001220703125</ele>
        <time>2019-07-08T14:49:08.000Z</time>
      </trkpt>
      <trkpt lat="42.455746047198772430419921875" lon="-5.8992734737694263458251953125">
        <ele>845.5999755859375</ele>
        <time>2019-07-08T14:49:10.000Z</time>
      </trkpt>
      <trkpt lat="42.4556335620582103729248046875" lon="-5.8999239094555377960205078125">
        <ele>847</ele>
        <time>2019-07-08T14:49:12.000Z</time>
      </trkpt>
      <trkpt lat="42.45551797561347484588623046875" lon="-5.90057887136936187744140625">
        <ele>847</ele>
        <time>2019-07-08T14:49:14.000Z</time>
      </trkpt>
      <trkpt lat="42.455400042235851287841796875" lon="-5.901235006749629974365234375">
        <ele>846.79998779296875</ele>
        <time>2019-07-08T14:49:16.000Z</time>
      </trkpt>
      <trkpt lat="42.4552842043340206146240234375" lon="-5.90189122594892978668212890625">
        <ele>845.5999755859375</ele>
        <time>2019-07-08T14:49:18.000Z</time>
      </trkpt>
      <trkpt lat="42.4551668576896190643310546875" lon="-5.90254769660532474517822265625">
        <ele>845.5999755859375</ele>
        <time>2019-07-08T14:49:20.000Z</time>
      </trkpt>
      <trkpt lat="42.45504993014037609100341796875" lon="-5.90320550836622714996337890625">
        <ele>846</ele>
        <time>2019-07-08T14:49:22.000Z</time>
      </trkpt>
      <trkpt lat="42.45493308641016483306884765625" lon="-5.90386667288839817047119140625">
        <ele>846.79998779296875</ele>
        <time>2019-07-08T14:49:24.000Z</time>
      </trkpt>
      <trkpt lat="42.4548141472041606903076171875" lon="-5.90452280826866626739501953125">
        <ele>847.20001220703125</ele>
        <time>2019-07-08T14:49:26.000Z</time>
      </trkpt>
      <trkpt lat="42.45469696819782257080078125" lon="-5.905177854001522064208984375">
        <ele>847.20001220703125</ele>
        <time>2019-07-08T14:49:28.000Z</time>
      </trkpt>
      <trkpt lat="42.45457953773438930511474609375" lon="-5.90584144927561283111572265625">
        <ele>846.79998779296875</ele>
        <time>2019-07-08T14:49:30.000Z</time>
      </trkpt>
      <trkpt lat="42.45445766486227512359619140625" lon="-5.90652876533567905426025390625">
        <ele>845.5999755859375</ele>
        <time>2019-07-08T14:49:32.000Z</time>
      </trkpt>
      <trkpt lat="42.45432875119149684906005859375" lon="-5.90724407695233821868896484375">
        <ele>844.20001220703125</ele>
        <time>2019-07-08T14:49:34.000Z</time>
      </trkpt>
      <trkpt lat="42.45419883169233798980712890625" lon="-5.90796492062509059906005859375">
        <ele>843.79998779296875</ele>
        <time>2019-07-08T14:49:36.000Z</time>
      </trkpt>
      <trkpt lat="42.45407058857381343841552734375" lon="-5.90868777595460414886474609375">
        <ele>845.4000244140625</ele>
        <time>2019-07-08T14:49:38.000Z</time>
      </trkpt>
      <trkpt lat="42.45400588028132915496826171875" lon="-5.9090507961809635162353515625">
        <ele>846.5999755859375</ele>
        <time>2019-07-08T14:49:39.000Z</time>
      </trkpt>
      <trkpt lat="42.4538767151534557342529296875" lon="-5.909775160253047943115234375">
        <ele>848.4000244140625</ele>
        <time>2019-07-08T14:49:41.000Z</time>
      </trkpt>
      <trkpt lat="42.4538116715848445892333984375" lon="-5.91013566590845584869384765625">
        <ele>848.79998779296875</ele>
        <time>2019-07-08T14:49:42.000Z</time>
      </trkpt>
      <trkpt lat="42.453747130930423736572265625" lon="-5.91049524955451488494873046875">
        <ele>849.4000244140625</ele>
        <time>2019-07-08T14:49:43.000Z</time>
      </trkpt>
      <trkpt lat="42.4536175467073917388916015625" lon="-5.9112093038856983184814453125">
        <ele>849.4000244140625</ele>
        <time>2019-07-08T14:49:45.000Z</time>
      </trkpt>
      <trkpt lat="42.45349022559821605682373046875" lon="-5.911913551390171051025390625">
        <ele>849.4000244140625</ele>
        <time>2019-07-08T14:49:47.000Z</time>
      </trkpt>
      <trkpt lat="42.45336466468870639801025390625" lon="-5.91261235065758228302001953125">
        <ele>849</ele>
        <time>2019-07-08T14:49:49.000Z</time>
      </trkpt>
      <trkpt lat="42.4532427079975605010986328125" lon="-5.9133098088204860687255859375">
        <ele>849.4000244140625</ele>
        <time>2019-07-08T14:49:51.000Z</time>
      </trkpt>
      <trkpt lat="42.45311991311609745025634765625" lon="-5.91400466859340667724609375">
        <ele>850</ele>
        <time>2019-07-08T14:49:53.000Z</time>
      </trkpt>
      <trkpt lat="42.45305889286100864410400390625" lon="-5.914349667727947235107421875">
        <ele>850.5999755859375</ele>
        <time>2019-07-08T14:49:54.000Z</time>
      </trkpt>
      <trkpt lat="42.45293609797954559326171875" lon="-5.91503572650253772735595703125">
        <ele>851.5999755859375</ele>
        <time>2019-07-08T14:49:56.000Z</time>
      </trkpt>
      <trkpt lat="42.45281313546001911163330078125" lon="-5.91572086326777935028076171875">
        <ele>849.4000244140625</ele>
        <time>2019-07-08T14:49:58.000Z</time>
      </trkpt>
      <trkpt lat="42.45275245048105716705322265625" lon="-5.91606326401233673095703125">
        <ele>847.20001220703125</ele>
        <time>2019-07-08T14:49:59.000Z</time>
      </trkpt>
      <trkpt lat="42.45269176550209522247314453125" lon="-5.91640432365238666534423828125">
        <ele>845.79998779296875</ele>
        <time>2019-07-08T14:50:00.000Z</time>
      </trkpt>
      <trkpt lat="42.4525724910199642181396484375" lon="-5.9170732833445072174072265625">
        <ele>844.5999755859375</ele>
        <time>2019-07-08T14:50:02.000Z</time>
      </trkpt>
      <trkpt lat="42.45245397090911865234375" lon="-5.91773268766701221466064453125">
        <ele>845.5999755859375</ele>
        <time>2019-07-08T14:50:04.000Z</time>
      </trkpt>
      <trkpt lat="42.45239269919693470001220703125" lon="-5.918061845004558563232421875">
        <ele>847.5999755859375</ele>
        <time>2019-07-08T14:50:05.000Z</time>
      </trkpt>
      <trkpt lat="42.452332265675067901611328125" lon="-5.9183920919895172119140625">
        <ele>849.20001220703125</ele>
        <time>2019-07-08T14:50:06.000Z</time>
      </trkpt>
      <trkpt lat="42.45227334089577198028564453125" lon="-5.9187228418886661529541015625">
        <ele>850.79998779296875</ele>
        <time>2019-07-08T14:50:07.000Z</time>
      </trkpt>
      <trkpt lat="42.452155239880084991455078125" lon="-5.91938593424856662750244140625">
        <ele>852</ele>
        <time>2019-07-08T14:50:09.000Z</time>
      </trkpt>
      <trkpt lat="42.45203529484570026397705078125" lon="-5.9200498647987842559814453125">
        <ele>851.79998779296875</ele>
        <time>2019-07-08T14:50:11.000Z</time>
      </trkpt>
      <trkpt lat="42.45191643945872783660888671875" lon="-5.92071429826319217681884765625">
        <ele>851.79998779296875</ele>
        <time>2019-07-08T14:50:13.000Z</time>
      </trkpt>
      <trkpt lat="42.45179557241499423980712890625" lon="-5.92138535343110561370849609375">
        <ele>851.5999755859375</ele>
        <time>2019-07-08T14:50:15.000Z</time>
      </trkpt>
      <trkpt lat="42.45167353190481662750244140625" lon="-5.922064371407032012939453125">
        <ele>851.5999755859375</ele>
        <time>2019-07-08T14:50:17.000Z</time>
      </trkpt>
      <trkpt lat="42.45154981501400470733642578125" lon="-5.92275177128612995147705078125">
        <ele>851.5999755859375</ele>
        <time>2019-07-08T14:50:19.000Z</time>
      </trkpt>
      <trkpt lat="42.45142794214189052581787109375" lon="-5.923448391258716583251953125">
        <ele>852.20001220703125</ele>
        <time>2019-07-08T14:50:21.000Z</time>
      </trkpt>
      <trkpt lat="42.45130598545074462890625" lon="-5.9241462685167789459228515625">
        <ele>853.4000244140625</ele>
        <time>2019-07-08T14:50:23.000Z</time>
      </trkpt>
      <trkpt lat="42.4511804245412349700927734375" lon="-5.9248366020619869232177734375">
        <ele>854.4000244140625</ele>
        <time>2019-07-08T14:50:25.000Z</time>
      </trkpt>
      <trkpt lat="42.45105545036494731903076171875" lon="-5.9255202300846576690673828125">
        <ele>855.20001220703125</ele>
        <time>2019-07-08T14:50:27.000Z</time>
      </trkpt>
      <trkpt lat="42.45093324221670627593994140625" lon="-5.92619958333671092987060546875">
        <ele>855.20001220703125</ele>
        <time>2019-07-08T14:50:29.000Z</time>
      </trkpt>
      <trkpt lat="42.450808770954608917236328125" lon="-5.92688187025487422943115234375">
        <ele>855.79998779296875</ele>
        <time>2019-07-08T14:50:31.000Z</time>
      </trkpt>
      <trkpt lat="42.4506835453212261199951171875" lon="-5.92756566591560840606689453125">
        <ele>856.79998779296875</ele>
        <time>2019-07-08T14:50:33.000Z</time>
      </trkpt>
      <trkpt lat="42.45062260888516902923583984375" lon="-5.9279085695743560791015625">
        <ele>857.5999755859375</ele>
        <time>2019-07-08T14:50:34.000Z</time>
      </trkpt>
      <trkpt lat="42.450500987470149993896484375" lon="-5.92859496362507343292236328125">
        <ele>859.20001220703125</ele>
        <time>2019-07-08T14:50:36.000Z</time>
      </trkpt>
      <trkpt lat="42.45044088922441005706787109375" lon="-5.92893761582672595977783203125">
        <ele>860.20001220703125</ele>
        <time>2019-07-08T14:50:37.000Z</time>
      </trkpt>
      <trkpt lat="42.45038037188351154327392578125" lon="-5.92928093858063220977783203125">
        <ele>861.5999755859375</ele>
        <time>2019-07-08T14:50:38.000Z</time>
      </trkpt>
      <trkpt lat="42.450319938361644744873046875" lon="-5.92962292023003101348876953125">
        <ele>862.5999755859375</ele>
        <time>2019-07-08T14:50:39.000Z</time>
      </trkpt>
      <trkpt lat="42.45019756257534027099609375" lon="-5.930301435291767120361328125">
        <ele>864.5999755859375</ele>
        <time>2019-07-08T14:50:41.000Z</time>
      </trkpt>
      <trkpt lat="42.45013645850121974945068359375" lon="-5.93063964508473873138427734375">
        <ele>867</ele>
        <time>2019-07-08T14:50:42.000Z</time>
      </trkpt>
      <trkpt lat="42.45007577352225780487060546875" lon="-5.93097609467804431915283203125">
        <ele>868.5999755859375</ele>
        <time>2019-07-08T14:50:43.000Z</time>
      </trkpt>
      <trkpt lat="42.4500150047242641448974609375" lon="-5.93130969442427158355712890625">
        <ele>870</ele>
        <time>2019-07-08T14:50:44.000Z</time>
      </trkpt>
      <trkpt lat="42.4499543197453022003173828125" lon="-5.93164077959954738616943359375">
        <ele>871.5999755859375</ele>
        <time>2019-07-08T14:50:45.000Z</time>
      </trkpt>
      <trkpt lat="42.44983454234898090362548828125" lon="-5.93228995800018310546875">
        <ele>872.4000244140625</ele>
        <time>2019-07-08T14:50:47.000Z</time>
      </trkpt>
      <trkpt lat="42.4497166089713573455810546875" lon="-5.93292153440415859222412109375">
        <ele>871.5999755859375</ele>
        <time>2019-07-08T14:50:49.000Z</time>
      </trkpt>
      <trkpt lat="42.44959481991827487945556640625" lon="-5.93354045413434505462646484375">
        <ele>872.5999755859375</ele>
        <time>2019-07-08T14:50:51.000Z</time>
      </trkpt>
      <trkpt lat="42.449530698359012603759765625" lon="-5.93384639360010623931884765625">
        <ele>872.79998779296875</ele>
        <time>2019-07-08T14:50:52.000Z</time>
      </trkpt>
      <trkpt lat="42.4494638107717037200927734375" lon="-5.9341509081423282623291015625">
        <ele>874</ele>
        <time>2019-07-08T14:50:53.000Z</time>
      </trkpt>
      <trkpt lat="42.4493226595222949981689453125" lon="-5.9347544051706790924072265625">
        <ele>874.79998779296875</ele>
        <time>2019-07-08T14:50:55.000Z</time>
      </trkpt>
      <trkpt lat="42.44924814440310001373291015625" lon="-5.93505489639937877655029296875">
        <ele>875.5999755859375</ele>
        <time>2019-07-08T14:50:56.000Z</time>
      </trkpt>
      <trkpt lat="42.4491701088845729827880859375" lon="-5.9353543817996978759765625">
        <ele>877.20001220703125</ele>
        <time>2019-07-08T14:50:57.000Z</time>
      </trkpt>
      <trkpt lat="42.4490118585526943206787109375" lon="-5.935957543551921844482421875">
        <ele>878.20001220703125</ele>
        <time>2019-07-08T14:50:59.000Z</time>
      </trkpt>
      <trkpt lat="42.44885302148759365081787109375" lon="-5.9365669079124927520751953125">
        <ele>878.20001220703125</ele>
        <time>2019-07-08T14:51:01.000Z</time>
      </trkpt>
      <trkpt lat="42.4486909992992877960205078125" lon="-5.93717786483466625213623046875">
        <ele>879</ele>
        <time>2019-07-08T14:51:03.000Z</time>
      </trkpt>
      <trkpt lat="42.44852981530129909515380859375" lon="-5.93776828609406948089599609375">
        <ele>879.4000244140625</ele>
        <time>2019-07-08T14:51:05.000Z</time>
      </trkpt>
      <trkpt lat="42.44837357662618160247802734375" lon="-5.9383428655564785003662109375">
        <ele>879.5999755859375</ele>
        <time>2019-07-08T14:51:07.000Z</time>
      </trkpt>
      <trkpt lat="42.448221780359745025634765625" lon="-5.938916690647602081298828125">
        <ele>879.20001220703125</ele>
        <time>2019-07-08T14:51:09.000Z</time>
      </trkpt>
      <trkpt lat="42.44814625941216945648193359375" lon="-5.9392033517360687255859375">
        <ele>877.4000244140625</ele>
        <time>2019-07-08T14:51:10.000Z</time>
      </trkpt>
      <trkpt lat="42.4480704031884670257568359375" lon="-5.93948959372937679290771484375">
        <ele>874.4000244140625</ele>
        <time>2019-07-08T14:51:11.000Z</time>
      </trkpt>
      <trkpt lat="42.447994463145732879638671875" lon="-5.9397744946181774139404296875">
        <ele>870.79998779296875</ele>
        <time>2019-07-08T14:51:12.000Z</time>
      </trkpt>
      <trkpt lat="42.4479195289313793182373046875" lon="-5.9400588087737560272216796875">
        <ele>869</ele>
        <time>2019-07-08T14:51:13.000Z</time>
      </trkpt>
      <trkpt lat="42.44784518145024776458740234375" lon="-5.94034320674836635589599609375">
        <ele>867.5999755859375</ele>
        <time>2019-07-08T14:51:14.000Z</time>
      </trkpt>
      <trkpt lat="42.44769497774541378021240234375" lon="-5.9409161098301410675048828125">
        <ele>866.5999755859375</ele>
        <time>2019-07-08T14:51:16.000Z</time>
      </trkpt>
      <trkpt lat="42.447469420731067657470703125" lon="-5.9417566470801830291748046875">
        <ele>867</ele>
        <time>2019-07-08T14:51:19.000Z</time>
      </trkpt>
      <trkpt lat="42.4473257549107074737548828125" lon="-5.94229920767247676849365234375">
        <ele>868</ele>
        <time>2019-07-08T14:51:21.000Z</time>
      </trkpt>
      <trkpt lat="42.4471131898462772369384765625" lon="-5.943132452666759490966796875">
        <ele>868.4000244140625</ele>
        <time>2019-07-08T14:51:24.000Z</time>
      </trkpt>
      <trkpt lat="42.44689182378351688385009765625" lon="-5.94398497603833675384521484375">
        <ele>866.79998779296875</ele>
        <time>2019-07-08T14:51:27.000Z</time>
      </trkpt>
      <trkpt lat="42.4466873891651630401611328125" lon="-5.94482651911675930023193359375">
        <ele>867.4000244140625</ele>
        <time>2019-07-08T14:51:30.000Z</time>
      </trkpt>
      <trkpt lat="42.44662980549037456512451171875" lon="-5.9451161138713359832763671875">
        <ele>869</ele>
        <time>2019-07-08T14:51:31.000Z</time>
      </trkpt>
      <trkpt lat="42.4465428851544857025146484375" lon="-5.9457159228622913360595703125">
        <ele>870.79998779296875</ele>
        <time>2019-07-08T14:51:33.000Z</time>
      </trkpt>
      <trkpt lat="42.44649586267769336700439453125" lon="-5.94633467495441436767578125">
        <ele>872.20001220703125</ele>
        <time>2019-07-08T14:51:35.000Z</time>
      </trkpt>
      <trkpt lat="42.44650072418153285980224609375" lon="-5.9469611383974552154541015625">
        <ele>873.20001220703125</ele>
        <time>2019-07-08T14:51:37.000Z</time>
      </trkpt>
      <trkpt lat="42.44652033783495426177978515625" lon="-5.94727604649960994720458984375">
        <ele>873.4000244140625</ele>
        <time>2019-07-08T14:51:38.000Z</time>
      </trkpt>
      <trkpt lat="42.4465693719685077667236328125" lon="-5.94790854491293430328369140625">
        <ele>876.4000244140625</ele>
        <time>2019-07-08T14:51:40.000Z</time>
      </trkpt>
      <trkpt lat="42.44659267365932464599609375" lon="-5.94822722487151622772216796875">
        <ele>879.20001220703125</ele>
        <time>2019-07-08T14:51:41.000Z</time>
      </trkpt>
      <trkpt lat="42.44661555625498294830322265625" lon="-5.9485463239252567291259765625">
        <ele>881.20001220703125</ele>
        <time>2019-07-08T14:51:42.000Z</time>
      </trkpt>
      <trkpt lat="42.4466377682983875274658203125" lon="-5.9488661773502826690673828125">
        <ele>882.4000244140625</ele>
        <time>2019-07-08T14:51:43.000Z</time>
      </trkpt>
      <trkpt lat="42.4466578848659992218017578125" lon="-5.949186868965625762939453125">
        <ele>883.5999755859375</ele>
        <time>2019-07-08T14:51:44.000Z</time>
      </trkpt>
      <trkpt lat="42.4466984532773494720458984375" lon="-5.94982515089213848114013671875">
        <ele>884.79998779296875</ele>
        <time>2019-07-08T14:51:46.000Z</time>
      </trkpt>
      <trkpt lat="42.446743883192539215087890625" lon="-5.9504423104226589202880859375">
        <ele>885.79998779296875</ele>
        <time>2019-07-08T14:51:48.000Z</time>
      </trkpt>
      <trkpt lat="42.4467658437788486480712890625" lon="-5.95074095763266086578369140625">
        <ele>887</ele>
        <time>2019-07-08T14:51:49.000Z</time>
      </trkpt>
      <trkpt lat="42.446809597313404083251953125" lon="-5.9513234160840511322021484375">
        <ele>888.4000244140625</ele>
        <time>2019-07-08T14:51:51.000Z</time>
      </trkpt>
      <trkpt lat="42.4468521773815155029296875" lon="-5.9518933854997158050537109375">
        <ele>889.79998779296875</ele>
        <time>2019-07-08T14:51:53.000Z</time>
      </trkpt>
      <trkpt lat="42.446872293949127197265625" lon="-5.95217627473175525665283203125">
        <ele>891</ele>
        <time>2019-07-08T14:51:54.000Z</time>
      </trkpt>
      <trkpt lat="42.446892075240612030029296875" lon="-5.9524579904973506927490234375">
        <ele>892.4000244140625</ele>
        <time>2019-07-08T14:51:55.000Z</time>
      </trkpt>
      <trkpt lat="42.4469106830656528472900390625" lon="-5.95273719169199466705322265625">
        <ele>893.4000244140625</ele>
        <time>2019-07-08T14:51:56.000Z</time>
      </trkpt>
      <trkpt lat="42.44694815017282962799072265625" lon="-5.95329232513904571533203125">
        <ele>894.4000244140625</ele>
        <time>2019-07-08T14:51:58.000Z</time>
      </trkpt>
      <trkpt lat="42.44698788039386272430419921875" lon="-5.95384360291063785552978515625">
        <ele>895.5999755859375</ele>
        <time>2019-07-08T14:52:00.000Z</time>
      </trkpt>
      <trkpt lat="42.44704596698284149169921875" lon="-5.95461775548756122589111328125">
        <ele>896.20001220703125</ele>
        <time>2019-07-08T14:52:03.000Z</time>
      </trkpt>
      <trkpt lat="42.44706314988434314727783203125" lon="-5.95487206242978572845458984375">
        <ele>896.5999755859375</ele>
        <time>2019-07-08T14:52:04.000Z</time>
      </trkpt>
      <trkpt lat="42.44710363447666168212890625" lon="-5.95563498325645923614501953125">
        <ele>897.4000244140625</ele>
        <time>2019-07-08T14:52:07.000Z</time>
      </trkpt>
      <trkpt lat="42.447144202888011932373046875" lon="-5.9564244747161865234375">
        <ele>897.5999755859375</ele>
        <time>2019-07-08T14:52:10.000Z</time>
      </trkpt>
      <trkpt lat="42.44718678295612335205078125" lon="-5.9572259522974491119384765625">
        <ele>894.5999755859375</ele>
        <time>2019-07-08T14:52:13.000Z</time>
      </trkpt>
      <trkpt lat="42.447201199829578399658203125" lon="-5.95748688094317913055419921875">
        <ele>893</ele>
        <time>2019-07-08T14:52:14.000Z</time>
      </trkpt>
      <trkpt lat="42.447230033576488494873046875" lon="-5.95801678486168384552001953125">
        <ele>891.5999755859375</ele>
        <time>2019-07-08T14:52:16.000Z</time>
      </trkpt>
      <trkpt lat="42.44727420620620250701904296875" lon="-5.9588315896689891815185546875">
        <ele>892</ele>
        <time>2019-07-08T14:52:19.000Z</time>
      </trkpt>
      <trkpt lat="42.44731293059885501861572265625" lon="-5.9597284533083438873291015625">
        <ele>890.20001220703125</ele>
        <time>2019-07-08T14:52:22.000Z</time>
      </trkpt>
      <trkpt lat="42.4473358131945133209228515625" lon="-5.960418283939361572265625">
        <ele>889.5999755859375</ele>
        <time>2019-07-08T14:52:24.000Z</time>
      </trkpt>
      <trkpt lat="42.447366826236248016357421875" lon="-5.9611614234745502471923828125">
        <ele>891.20001220703125</ele>
        <time>2019-07-08T14:52:26.000Z</time>
      </trkpt>
      <trkpt lat="42.44738392531871795654296875" lon="-5.96153249032795429229736328125">
        <ele>893.4000244140625</ele>
        <time>2019-07-08T14:52:27.000Z</time>
      </trkpt>
      <trkpt lat="42.447403371334075927734375" lon="-5.961899198591709136962890625">
        <ele>894.5999755859375</ele>
        <time>2019-07-08T14:52:28.000Z</time>
      </trkpt>
      <trkpt lat="42.4474476277828216552734375" lon="-5.9626245684921741485595703125">
        <ele>895.79998779296875</ele>
        <time>2019-07-08T14:52:30.000Z</time>
      </trkpt>
      <trkpt lat="42.44749884121119976043701171875" lon="-5.9633377008140087127685546875">
        <ele>894.20001220703125</ele>
        <time>2019-07-08T14:52:32.000Z</time>
      </trkpt>
      <trkpt lat="42.44752532802522182464599609375" lon="-5.96367524005472660064697265625">
        <ele>892.4000244140625</ele>
        <time>2019-07-08T14:52:33.000Z</time>
      </trkpt>
      <trkpt lat="42.4475522339344024658203125" lon="-5.963996015489101409912109375">
        <ele>889.4000244140625</ele>
        <time>2019-07-08T14:52:34.000Z</time>
      </trkpt>
      <trkpt lat="42.4475986696779727935791015625" lon="-5.9645617939531803131103515625">
        <ele>885.79998779296875</ele>
        <time>2019-07-08T14:52:36.000Z</time>
      </trkpt>
      <trkpt lat="42.4476166069507598876953125" lon="-5.964804701507091522216796875">
        <ele>883.20001220703125</ele>
        <time>2019-07-08T14:52:37.000Z</time>
      </trkpt>
      <trkpt lat="42.44763228110969066619873046875" lon="-5.965020619332790374755859375">
        <ele>881.4000244140625</ele>
        <time>2019-07-08T14:52:38.000Z</time>
      </trkpt>
      <trkpt lat="42.44767955504357814788818359375" lon="-5.9656330011785030364990234375">
        <ele>880.79998779296875</ele>
        <time>2019-07-08T14:52:42.000Z</time>
      </trkpt>
      <trkpt lat="42.44773755781352519989013671875" lon="-5.9658001363277435302734375">
        <ele>882</ele>
        <time>2019-07-08T14:52:44.000Z</time>
      </trkpt>
      <trkpt lat="42.4477803893387317657470703125" lon="-5.96585587598383426666259765625">
        <ele>883</ele>
        <time>2019-07-08T14:52:45.000Z</time>
      </trkpt>
      <trkpt lat="42.4478276632726192474365234375" lon="-5.9658993780612945556640625">
        <ele>883.4000244140625</ele>
        <time>2019-07-08T14:52:46.000Z</time>
      </trkpt>
      <trkpt lat="42.4479225464165210723876953125" lon="-5.965960063040256500244140625">
        <ele>884</ele>
        <time>2019-07-08T14:52:48.000Z</time>
      </trkpt>
      <trkpt lat="42.4479647912085056304931640625" lon="-5.9659783355891704559326171875">
        <ele>884.20001220703125</ele>
        <time>2019-07-08T14:52:49.000Z</time>
      </trkpt>
      <trkpt lat="42.4481190182268619537353515625" lon="-5.96609660424292087554931640625">
        <ele>885</ele>
        <time>2019-07-08T14:52:56.000Z</time>
      </trkpt>
      <trkpt lat="42.44810820557177066802978515625" lon="-5.9660510905086994171142578125">
        <ele>885.4000244140625</ele>
        <time>2019-07-08T14:54:20.000Z</time>
      </trkpt>
      <trkpt lat="42.44810820557177066802978515625" lon="-5.9660510905086994171142578125">
        <ele>885.4000244140625</ele>
        <time>2019-07-08T14:54:57.000Z</time>
      </trkpt>
      <trkpt lat="42.44810870848596096038818359375" lon="-5.966069363057613372802734375">
        <ele>885.4000244140625</ele>
        <time>2019-07-08T14:55:51.000Z</time>
      </trkpt>
      <trkpt lat="42.448123209178447723388671875" lon="-5.9661127813160419464111328125">
        <ele>885.4000244140625</ele>
        <time>2019-07-08T14:57:19.000Z</time>
      </trkpt>
      <trkpt lat="42.448047436773777008056640625" lon="-5.9660775773227214813232421875">
        <ele>884.20001220703125</ele>
        <time>2019-07-08T15:00:39.000Z</time>
      </trkpt>
      <trkpt lat="42.4480457603931427001953125" lon="-5.9660698659718036651611328125">
        <ele>884</ele>
        <time>2019-07-08T15:00:48.000Z</time>
      </trkpt>
      <trkpt lat="42.44802421890199184417724609375" lon="-5.96605989150702953338623046875">
        <ele>883</ele>
        <time>2019-07-08T15:02:11.000Z</time>
      </trkpt>
      <trkpt lat="42.44806042872369289398193359375" lon="-5.9661246836185455322265625">
        <ele>884</ele>
        <time>2019-07-08T15:03:36.000Z</time>
      </trkpt>
      <trkpt lat="42.44806931354105472564697265625" lon="-5.96607950516045093536376953125">
        <ele>886.4000244140625</ele>
        <time>2019-07-08T15:06:24.000Z</time>
      </trkpt>
      <trkpt lat="42.44810049422085285186767578125" lon="-5.96620447933673858642578125">
        <ele>886.79998779296875</ele>
        <time>2019-07-08T15:08:06.000Z</time>
      </trkpt>
      <trkpt lat="42.44776857085525989532470703125" lon="-5.9665962494909763336181640625">
        <ele>887.20001220703125</ele>
        <time>2019-07-08T15:08:16.000Z</time>
      </trkpt>
      <trkpt lat="42.4477482028305530548095703125" lon="-5.96675726585090160369873046875">
        <ele>887.4000244140625</ele>
        <time>2019-07-08T15:08:18.000Z</time>
      </trkpt>
      <trkpt lat="42.44777955114841461181640625" lon="-5.9674173407256603240966796875">
        <ele>888.79998779296875</ele>
        <time>2019-07-08T15:08:23.000Z</time>
      </trkpt>
      <trkpt lat="42.4478078819811344146728515625" lon="-5.96797498874366283416748046875">
        <ele>890.4000244140625</ele>
        <time>2019-07-08T15:08:26.000Z</time>
      </trkpt>
      <trkpt lat="42.44782690890133380889892578125" lon="-5.96839207224547863006591796875">
        <ele>892.20001220703125</ele>
        <time>2019-07-08T15:08:28.000Z</time>
      </trkpt>
      <trkpt lat="42.44783512316644191741943359375" lon="-5.9686072356998920440673828125">
        <ele>893.4000244140625</ele>
        <time>2019-07-08T15:08:29.000Z</time>
      </trkpt>
      <trkpt lat="42.447842247784137725830078125" lon="-5.96882826648652553558349609375">
        <ele>894.4000244140625</ele>
        <time>2019-07-08T15:08:30.000Z</time>
      </trkpt>
      <trkpt lat="42.447848282754421234130859375" lon="-5.96905441023409366607666015625">
        <ele>895.4000244140625</ele>
        <time>2019-07-08T15:08:31.000Z</time>
      </trkpt>
      <trkpt lat="42.44785859249532222747802734375" lon="-5.96952564083039760589599609375">
        <ele>896.79998779296875</ele>
        <time>2019-07-08T15:08:33.000Z</time>
      </trkpt>
      <trkpt lat="42.4478772841393947601318359375" lon="-5.97002771683037281036376953125">
        <ele>898.79998779296875</ele>
        <time>2019-07-08T15:08:35.000Z</time>
      </trkpt>
      <trkpt lat="42.4479020945727825164794921875" lon="-5.9705572016537189483642578125">
        <ele>900.5999755859375</ele>
        <time>2019-07-08T15:08:37.000Z</time>
      </trkpt>
      <trkpt lat="42.4479433335363864898681640625" lon="-5.97137016244232654571533203125">
        <ele>901.4000244140625</ele>
        <time>2019-07-08T15:08:40.000Z</time>
      </trkpt>
      <trkpt lat="42.44798415340483188629150390625" lon="-5.97220684401690959930419921875">
        <ele>901.4000244140625</ele>
        <time>2019-07-08T15:08:43.000Z</time>
      </trkpt>
      <trkpt lat="42.4479974806308746337890625" lon="-5.9724917449057102203369140625">
        <ele>901.5999755859375</ele>
        <time>2019-07-08T15:08:44.000Z</time>
      </trkpt>
      <trkpt lat="42.448029331862926483154296875" lon="-5.97307026386260986328125">
        <ele>903.5999755859375</ele>
        <time>2019-07-08T15:08:46.000Z</time>
      </trkpt>
      <trkpt lat="42.44806311093270778656005859375" lon="-5.97365565598011016845703125">
        <ele>905</ele>
        <time>2019-07-08T15:08:48.000Z</time>
      </trkpt>
      <trkpt lat="42.44811088778078556060791015625" lon="-5.974521674215793609619140625">
        <ele>904</ele>
        <time>2019-07-08T15:08:51.000Z</time>
      </trkpt>
      <trkpt lat="42.44812689721584320068359375" lon="-5.974810682237148284912109375">
        <ele>903.5999755859375</ele>
        <time>2019-07-08T15:08:52.000Z</time>
      </trkpt>
      <trkpt lat="42.44817593134939670562744140625" lon="-5.97570511512458324432373046875">
        <ele>903.5999755859375</ele>
        <time>2019-07-08T15:08:55.000Z</time>
      </trkpt>
      <trkpt lat="42.4481917731463909149169921875" lon="-5.9760121442377567291259765625">
        <ele>905</ele>
        <time>2019-07-08T15:08:56.000Z</time>
      </trkpt>
      <trkpt lat="42.448207028210163116455078125" lon="-5.97632302902638912200927734375">
        <ele>906.5999755859375</ele>
        <time>2019-07-08T15:08:57.000Z</time>
      </trkpt>
      <trkpt lat="42.448222450911998748779296875" lon="-5.9766364283859729766845703125">
        <ele>907.4000244140625</ele>
        <time>2019-07-08T15:08:58.000Z</time>
      </trkpt>
      <trkpt lat="42.44823829270899295806884765625" lon="-5.976951755583286285400390625">
        <ele>909.4000244140625</ele>
        <time>2019-07-08T15:08:59.000Z</time>
      </trkpt>
      <trkpt lat="42.448254637420177459716796875" lon="-5.97726699896156787872314453125">
        <ele>912.4000244140625</ele>
        <time>2019-07-08T15:09:00.000Z</time>
      </trkpt>
      <trkpt lat="42.44827098213136196136474609375" lon="-5.9775805659592151641845703125">
        <ele>915.79998779296875</ele>
        <time>2019-07-08T15:09:01.000Z</time>
      </trkpt>
      <trkpt lat="42.44828724302351474761962890625" lon="-5.97789228893816471099853515625">
        <ele>918.20001220703125</ele>
        <time>2019-07-08T15:09:02.000Z</time>
      </trkpt>
      <trkpt lat="42.44830367155373096466064453125" lon="-5.9782025031745433807373046875">
        <ele>920</ele>
        <time>2019-07-08T15:09:03.000Z</time>
      </trkpt>
      <trkpt lat="42.448319680988788604736328125" lon="-5.9785116277635097503662109375">
        <ele>921.4000244140625</ele>
        <time>2019-07-08T15:09:04.000Z</time>
      </trkpt>
      <trkpt lat="42.448336780071258544921875" lon="-5.97882016561925411224365234375">
        <ele>922.4000244140625</ele>
        <time>2019-07-08T15:09:05.000Z</time>
      </trkpt>
      <trkpt lat="42.44835530407726764678955078125" lon="-5.97912736237049102783203125">
        <ele>923.5999755859375</ele>
        <time>2019-07-08T15:09:06.000Z</time>
      </trkpt>
      <trkpt lat="42.448396123945713043212890625" lon="-5.97973890602588653564453125">
        <ele>924.79998779296875</ele>
        <time>2019-07-08T15:09:08.000Z</time>
      </trkpt>
      <trkpt lat="42.44846158660948276519775390625" lon="-5.980341732501983642578125">
        <ele>926.20001220703125</ele>
        <time>2019-07-08T15:09:10.000Z</time>
      </trkpt>
      <trkpt lat="42.44864615611732006072998046875" lon="-5.9811924956738948822021484375">
        <ele>927</ele>
        <time>2019-07-08T15:09:13.000Z</time>
      </trkpt>
      <trkpt lat="42.44872913695871829986572265625" lon="-5.9814489819109439849853515625">
        <ele>927.4000244140625</ele>
        <time>2019-07-08T15:09:14.000Z</time>
      </trkpt>
      <trkpt lat="42.44900439865887165069580078125" lon="-5.9820970706641674041748046875">
        <ele>928.79998779296875</ele>
        <time>2019-07-08T15:09:17.000Z</time>
      </trkpt>
      <trkpt lat="42.4491070769727230072021484375" lon="-5.98229647614061832427978515625">
        <ele>929.79998779296875</ele>
        <time>2019-07-08T15:09:18.000Z</time>
      </trkpt>
      <trkpt lat="42.4492177180945873260498046875" lon="-5.98249646835029125213623046875">
        <ele>931.20001220703125</ele>
        <time>2019-07-08T15:09:19.000Z</time>
      </trkpt>
      <trkpt lat="42.44946389459073543548583984375" lon="-5.98290299065411090850830078125">
        <ele>933.4000244140625</ele>
        <time>2019-07-08T15:09:21.000Z</time>
      </trkpt>
      <trkpt lat="42.449597083032131195068359375" lon="-5.98311220295727252960205078125">
        <ele>934.79998779296875</ele>
        <time>2019-07-08T15:09:22.000Z</time>
      </trkpt>
      <trkpt lat="42.45001492090523242950439453125" lon="-5.98376381210982799530029296875">
        <ele>936.20001220703125</ele>
        <time>2019-07-08T15:09:25.000Z</time>
      </trkpt>
      <trkpt lat="42.45029655285179615020751953125" lon="-5.98420972935855388641357421875">
        <ele>937.5999755859375</ele>
        <time>2019-07-08T15:09:27.000Z</time>
      </trkpt>
      <trkpt lat="42.45043870992958545684814453125" lon="-5.98443335853517055511474609375">
        <ele>938.79998779296875</ele>
        <time>2019-07-08T15:09:28.000Z</time>
      </trkpt>
      <trkpt lat="42.45058086700737476348876953125" lon="-5.98465614952147006988525390625">
        <ele>940.79998779296875</ele>
        <time>2019-07-08T15:09:29.000Z</time>
      </trkpt>
      <trkpt lat="42.45072327554225921630859375" lon="-5.9848791919648647308349609375">
        <ele>942</ele>
        <time>2019-07-08T15:09:30.000Z</time>
      </trkpt>
      <trkpt lat="42.4510111100971698760986328125" lon="-5.98532938398420810699462890625">
        <ele>943.20001220703125</ele>
        <time>2019-07-08T15:09:32.000Z</time>
      </trkpt>
      <trkpt lat="42.45115586556494235992431640625" lon="-5.98555795848369598388671875">
        <ele>943.5999755859375</ele>
        <time>2019-07-08T15:09:33.000Z</time>
      </trkpt>
      <trkpt lat="42.45144613087177276611328125" lon="-5.9860221482813358306884765625">
        <ele>944.4000244140625</ele>
        <time>2019-07-08T15:09:35.000Z</time>
      </trkpt>
      <trkpt lat="42.45187469758093357086181640625" lon="-5.9867258928716182708740234375">
        <ele>944.20001220703125</ele>
        <time>2019-07-08T15:09:38.000Z</time>
      </trkpt>
      <trkpt lat="42.452142499387264251708984375" lon="-5.98721690475940704345703125">
        <ele>944.20001220703125</ele>
        <time>2019-07-08T15:09:40.000Z</time>
      </trkpt>
      <trkpt lat="42.45249646715819835662841796875" lon="-5.9879942424595355987548828125">
        <ele>943.79998779296875</ele>
        <time>2019-07-08T15:09:43.000Z</time>
      </trkpt>
      <trkpt lat="42.4526978842914104461669921875" lon="-5.98855130374431610107421875">
        <ele>944.4000244140625</ele>
        <time>2019-07-08T15:09:45.000Z</time>
      </trkpt>
      <trkpt lat="42.45286577381193637847900390625" lon="-5.98913669586181640625">
        <ele>944.79998779296875</ele>
        <time>2019-07-08T15:09:47.000Z</time>
      </trkpt>
      <trkpt lat="42.45300105772912502288818359375" lon="-5.989740528166294097900390625">
        <ele>945.20001220703125</ele>
        <time>2019-07-08T15:09:49.000Z</time>
      </trkpt>
      <trkpt lat="42.45309962891042232513427734375" lon="-5.99034570157527923583984375">
        <ele>944.4000244140625</ele>
        <time>2019-07-08T15:09:51.000Z</time>
      </trkpt>
      <trkpt lat="42.4531716294586658477783203125" lon="-5.9912450797855854034423828125">
        <ele>943.4000244140625</ele>
        <time>2019-07-08T15:09:54.000Z</time>
      </trkpt>
      <trkpt lat="42.45316601358354091644287109375" lon="-5.99214185960590839385986328125">
        <ele>943.20001220703125</ele>
        <time>2019-07-08T15:09:57.000Z</time>
      </trkpt>
      <trkpt lat="42.45312795974314212799072265625" lon="-5.9927295148372650146484375">
        <ele>942.20001220703125</ele>
        <time>2019-07-08T15:09:59.000Z</time>
      </trkpt>
      <trkpt lat="42.453097365796566009521484375" lon="-5.9930153377354145050048828125">
        <ele>941</ele>
        <time>2019-07-08T15:10:00.000Z</time>
      </trkpt>
      <trkpt lat="42.45295546017587184906005859375" lon="-5.993849001824855804443359375">
        <ele>939.79998779296875</ele>
        <time>2019-07-08T15:10:03.000Z</time>
      </trkpt>
      <trkpt lat="42.4527646042406558990478515625" lon="-5.9946213103830814361572265625">
        <ele>939.5999755859375</ele>
        <time>2019-07-08T15:10:06.000Z</time>
      </trkpt>
      <trkpt lat="42.452523708343505859375" lon="-5.99531508050858974456787109375">
        <ele>938.4000244140625</ele>
        <time>2019-07-08T15:10:09.000Z</time>
      </trkpt>
      <trkpt lat="42.45233125984668731689453125" lon="-5.99575303494930267333984375">
        <ele>936.79998779296875</ele>
        <time>2019-07-08T15:10:11.000Z</time>
      </trkpt>
      <trkpt lat="42.4521279148757457733154296875" lon="-5.9961840324103832244873046875">
        <ele>935.79998779296875</ele>
        <time>2019-07-08T15:10:13.000Z</time>
      </trkpt>
      <trkpt lat="42.45180244557559490203857421875" lon="-5.99681979976594448089599609375">
        <ele>934.79998779296875</ele>
        <time>2019-07-08T15:10:16.000Z</time>
      </trkpt>
      <trkpt lat="42.451686523854732513427734375" lon="-5.99702616222202777862548828125">
        <ele>934.4000244140625</ele>
        <time>2019-07-08T15:10:17.000Z</time>
      </trkpt>
      <trkpt lat="42.4514416046440601348876953125" lon="-5.99743369035422801971435546875">
        <ele>933.20001220703125</ele>
        <time>2019-07-08T15:10:19.000Z</time>
      </trkpt>
      <trkpt lat="42.45117363519966602325439453125" lon="-5.9978329204022884368896484375">
        <ele>931.4000244140625</ele>
        <time>2019-07-08T15:10:21.000Z</time>
      </trkpt>
      <trkpt lat="42.45073526166379451751708984375" lon="-5.9984139539301395416259765625">
        <ele>930</ele>
        <time>2019-07-08T15:10:24.000Z</time>
      </trkpt>
      <trkpt lat="42.45042295195162296295166015625" lon="-5.99878183566033840179443359375">
        <ele>928</ele>
        <time>2019-07-08T15:10:26.000Z</time>
      </trkpt>
      <trkpt lat="42.45009572245180606842041015625" lon="-5.99912851117551326751708984375">
        <ele>927</ele>
        <time>2019-07-08T15:10:28.000Z</time>
      </trkpt>
      <trkpt lat="42.44957487098872661590576171875" lon="-5.9995981492102146148681640625">
        <ele>925.79998779296875</ele>
        <time>2019-07-08T15:10:31.000Z</time>
      </trkpt>
      <trkpt lat="42.44921880774199962615966796875" lon="-5.99988874979317188262939453125">
        <ele>924</ele>
        <time>2019-07-08T15:10:33.000Z</time>
      </trkpt>
      <trkpt lat="42.4490354955196380615234375" lon="-6.00002302788197994232177734375">
        <ele>922.79998779296875</ele>
        <time>2019-07-08T15:10:34.000Z</time>
      </trkpt>
      <trkpt lat="42.4488492496311664581298828125" lon="-6.00014984607696533203125">
        <ele>921.5999755859375</ele>
        <time>2019-07-08T15:10:35.000Z</time>
      </trkpt>
      <trkpt lat="42.4486618302762508392333984375" lon="-6.00027389824390411376953125">
        <ele>920.5999755859375</ele>
        <time>2019-07-08T15:10:36.000Z</time>
      </trkpt>
      <trkpt lat="42.4484727345407009124755859375" lon="-6.0003930889070034027099609375">
        <ele>919.5999755859375</ele>
        <time>2019-07-08T15:10:37.000Z</time>
      </trkpt>
      <trkpt lat="42.4482829682528972625732421875" lon="-6.000507585704326629638671875">
        <ele>918.79998779296875</ele>
        <time>2019-07-08T15:10:38.000Z</time>
      </trkpt>
      <trkpt lat="42.447896897792816162109375" lon="-6.000719480216503143310546875">
        <ele>917.20001220703125</ele>
        <time>2019-07-08T15:10:40.000Z</time>
      </trkpt>
      <trkpt lat="42.44770118035376071929931640625" lon="-6.00081595592200756072998046875">
        <ele>916.20001220703125</ele>
        <time>2019-07-08T15:10:41.000Z</time>
      </trkpt>
      <trkpt lat="42.44750252924859523773193359375" lon="-6.00090689957141876220703125">
        <ele>915</ele>
        <time>2019-07-08T15:10:42.000Z</time>
      </trkpt>
      <trkpt lat="42.44709692895412445068359375" lon="-6.00107596255838871002197265625">
        <ele>913.4000244140625</ele>
        <time>2019-07-08T15:10:44.000Z</time>
      </trkpt>
      <trkpt lat="42.4466924183070659637451171875" lon="-6.00122742354869842529296875">
        <ele>911.5999755859375</ele>
        <time>2019-07-08T15:10:46.000Z</time>
      </trkpt>
      <trkpt lat="42.44628824293613433837890625" lon="-6.00137385539710521697998046875">
        <ele>909.79998779296875</ele>
        <time>2019-07-08T15:10:48.000Z</time>
      </trkpt>
      <trkpt lat="42.4458911083638668060302734375" lon="-6.00152154453098773956298828125">
        <ele>908.4000244140625</ele>
        <time>2019-07-08T15:10:50.000Z</time>
      </trkpt>
      <trkpt lat="42.44569924660027027130126953125" lon="-6.00159446708858013153076171875">
        <ele>907.4000244140625</ele>
        <time>2019-07-08T15:10:51.000Z</time>
      </trkpt>
      <trkpt lat="42.44551233015954494476318359375" lon="-6.0016681440174579620361328125">
        <ele>906.20001220703125</ele>
        <time>2019-07-08T15:10:52.000Z</time>
      </trkpt>
      <trkpt lat="42.4453295208513736724853515625" lon="-6.00174232386052608489990234375">
        <ele>905</ele>
        <time>2019-07-08T15:10:53.000Z</time>
      </trkpt>
      <trkpt lat="42.44514620862901210784912109375" lon="-6.00181625224649906158447265625">
        <ele>904</ele>
        <time>2019-07-08T15:10:54.000Z</time>
      </trkpt>
      <trkpt lat="42.4449620582163333892822265625" lon="-6.0018890909850597381591796875">
        <ele>902.79998779296875</ele>
        <time>2019-07-08T15:10:55.000Z</time>
      </trkpt>
      <trkpt lat="42.444775812327861785888671875" lon="-6.00196192972362041473388671875">
        <ele>901.5999755859375</ele>
        <time>2019-07-08T15:10:56.000Z</time>
      </trkpt>
      <trkpt lat="42.44458772242069244384765625" lon="-6.00203585810959339141845703125">
        <ele>900.5999755859375</ele>
        <time>2019-07-08T15:10:57.000Z</time>
      </trkpt>
      <trkpt lat="42.444206513464450836181640625" lon="-6.00219377316534519195556640625">
        <ele>898.79998779296875</ele>
        <time>2019-07-08T15:10:59.000Z</time>
      </trkpt>
      <trkpt lat="42.44382555596530437469482421875" lon="-6.00237918086349964141845703125">
        <ele>897</ele>
        <time>2019-07-08T15:11:01.000Z</time>
      </trkpt>
      <trkpt lat="42.44345407001674175262451171875" lon="-6.0026095993816852569580078125">
        <ele>895.20001220703125</ele>
        <time>2019-07-08T15:11:03.000Z</time>
      </trkpt>
      <trkpt lat="42.44309130124747753143310546875" lon="-6.00287471897900104522705078125">
        <ele>893.5999755859375</ele>
        <time>2019-07-08T15:11:05.000Z</time>
      </trkpt>
      <trkpt lat="42.4429138563573360443115234375" lon="-6.00301779806613922119140625">
        <ele>892.4000244140625</ele>
        <time>2019-07-08T15:11:06.000Z</time>
      </trkpt>
      <trkpt lat="42.44273968040943145751953125" lon="-6.00317026488482952117919921875">
        <ele>891.20001220703125</ele>
        <time>2019-07-08T15:11:07.000Z</time>
      </trkpt>
      <trkpt lat="42.44256977923214435577392578125" lon="-6.0033324547111988067626953125">
        <ele>890</ele>
        <time>2019-07-08T15:11:08.000Z</time>
      </trkpt>
      <trkpt lat="42.44224204681813716888427734375" lon="-6.003677956759929656982421875">
        <ele>888.20001220703125</ele>
        <time>2019-07-08T15:11:10.000Z</time>
      </trkpt>
      <trkpt lat="42.4419276416301727294921875" lon="-6.0040512867271900177001953125">
        <ele>887</ele>
        <time>2019-07-08T15:11:12.000Z</time>
      </trkpt>
      <trkpt lat="42.441634945571422576904296875" lon="-6.0044539533555507659912109375">
        <ele>885.79998779296875</ele>
        <time>2019-07-08T15:11:14.000Z</time>
      </trkpt>
      <trkpt lat="42.44137083180248737335205078125" lon="-6.00488184951245784759521484375">
        <ele>883.79998779296875</ele>
        <time>2019-07-08T15:11:16.000Z</time>
      </trkpt>
      <trkpt lat="42.4411275051534175872802734375" lon="-6.00531837902963161468505859375">
        <ele>882.5999755859375</ele>
        <time>2019-07-08T15:11:18.000Z</time>
      </trkpt>
      <trkpt lat="42.44091183878481388092041015625" lon="-6.0057702474296092987060546875">
        <ele>880.4000244140625</ele>
        <time>2019-07-08T15:11:20.000Z</time>
      </trkpt>
      <trkpt lat="42.4408126808702945709228515625" lon="-6.0060069523751735687255859375">
        <ele>879</ele>
        <time>2019-07-08T15:11:21.000Z</time>
      </trkpt>
      <trkpt lat="42.44071863591670989990234375" lon="-6.00624826736748218536376953125">
        <ele>877.5999755859375</ele>
        <time>2019-07-08T15:11:22.000Z</time>
      </trkpt>
      <trkpt lat="42.44062987156212329864501953125" lon="-6.00649259984493255615234375">
        <ele>876.5999755859375</ele>
        <time>2019-07-08T15:11:23.000Z</time>
      </trkpt>
      <trkpt lat="42.44046944193542003631591796875" lon="-6.00699207745492458343505859375">
        <ele>875.20001220703125</ele>
        <time>2019-07-08T15:11:25.000Z</time>
      </trkpt>
      <trkpt lat="42.44027263484895229339599609375" lon="-6.00775281898677349090576171875">
        <ele>873.79998779296875</ele>
        <time>2019-07-08T15:11:28.000Z</time>
      </trkpt>
      <trkpt lat="42.4401895701885223388671875" lon="-6.0082482732832431793212890625">
        <ele>872</ele>
        <time>2019-07-08T15:11:30.000Z</time>
      </trkpt>
      <trkpt lat="42.44014606811106204986572265625" lon="-6.00872931070625782012939453125">
        <ele>870.79998779296875</ele>
        <time>2019-07-08T15:11:32.000Z</time>
      </trkpt>
      <trkpt lat="42.4401364289224147796630859375" lon="-6.0094361566007137298583984375">
        <ele>869.5999755859375</ele>
        <time>2019-07-08T15:11:35.000Z</time>
      </trkpt>
      <trkpt lat="42.440188229084014892578125" lon="-6.010089777410030364990234375">
        <ele>868.5999755859375</ele>
        <time>2019-07-08T15:11:38.000Z</time>
      </trkpt>
      <trkpt lat="42.44021580554544925689697265625" lon="-6.01028515957295894622802734375">
        <ele>868.4000244140625</ele>
        <time>2019-07-08T15:11:39.000Z</time>
      </trkpt>
      <trkpt lat="42.4403178133070468902587890625" lon="-6.01081489585340023040771484375">
        <ele>866.5999755859375</ele>
        <time>2019-07-08T15:11:42.000Z</time>
      </trkpt>
      <trkpt lat="42.44035595096647739410400390625" lon="-6.01097515784204006195068359375">
        <ele>865.4000244140625</ele>
        <time>2019-07-08T15:11:43.000Z</time>
      </trkpt>
      <trkpt lat="42.440454773604869842529296875" lon="-6.0114444606006145477294921875">
        <ele>864.20001220703125</ele>
        <time>2019-07-08T15:11:46.000Z</time>
      </trkpt>
      <trkpt lat="42.4404683522880077362060546875" lon="-6.011601202189922332763671875">
        <ele>864</ele>
        <time>2019-07-08T15:11:47.000Z</time>
      </trkpt>
      <trkpt lat="42.44045519270002841949462890625" lon="-6.01190890185534954071044921875">
        <ele>863.5999755859375</ele>
        <time>2019-07-08T15:11:49.000Z</time>
      </trkpt>
      <trkpt lat="42.4402862973511219024658203125" lon="-6.0125957988202571868896484375">
        <ele>864</ele>
        <time>2019-07-08T15:11:54.000Z</time>
      </trkpt>
      <trkpt lat="42.44014539755880832672119140625" lon="-6.0130648501217365264892578125">
        <ele>863</ele>
        <time>2019-07-08T15:11:58.000Z</time>
      </trkpt>
      <trkpt lat="42.4399453215301036834716796875" lon="-6.01355192251503467559814453125">
        <ele>862.4000244140625</ele>
        <time>2019-07-08T15:12:02.000Z</time>
      </trkpt>
      <trkpt lat="42.43988857604563236236572265625" lon="-6.01384411565959453582763671875">
        <ele>862</ele>
        <time>2019-07-08T15:12:04.000Z</time>
      </trkpt>
      <trkpt lat="42.43981473147869110107421875" lon="-6.0145895183086395263671875">
        <ele>861.20001220703125</ele>
        <time>2019-07-08T15:12:08.000Z</time>
      </trkpt>
      <trkpt lat="42.43974608369171619415283203125" lon="-6.01528479717671871185302734375">
        <ele>861.20001220703125</ele>
        <time>2019-07-08T15:12:11.000Z</time>
      </trkpt>
      <trkpt lat="42.43969738483428955078125" lon="-6.01580749265849590301513671875">
        <ele>860.79998779296875</ele>
        <time>2019-07-08T15:12:13.000Z</time>
      </trkpt>
      <trkpt lat="42.4396341852843761444091796875" lon="-6.01661819033324718475341796875">
        <ele>857.79998779296875</ele>
        <time>2019-07-08T15:12:16.000Z</time>
      </trkpt>
      <trkpt lat="42.43961649946868419647216796875" lon="-6.01688892580568790435791015625">
        <ele>855.79998779296875</ele>
        <time>2019-07-08T15:12:17.000Z</time>
      </trkpt>
      <trkpt lat="42.43960023857653141021728515625" lon="-6.01715974509716033935546875">
        <ele>854.5999755859375</ele>
        <time>2019-07-08T15:12:18.000Z</time>
      </trkpt>
      <trkpt lat="42.439558915793895721435546875" lon="-6.01796968840062618255615234375">
        <ele>855.20001220703125</ele>
        <time>2019-07-08T15:12:21.000Z</time>
      </trkpt>
      <trkpt lat="42.43954676203429698944091796875" lon="-6.01823908276855945587158203125">
        <ele>856</ele>
        <time>2019-07-08T15:12:22.000Z</time>
      </trkpt>
      <trkpt lat="42.43952262215316295623779296875" lon="-6.01877787150442600250244140625">
        <ele>857.20001220703125</ele>
        <time>2019-07-08T15:12:24.000Z</time>
      </trkpt>
      <trkpt lat="42.4394937045872211456298828125" lon="-6.0195836238563060760498046875">
        <ele>857.20001220703125</ele>
        <time>2019-07-08T15:12:27.000Z</time>
      </trkpt>
      <trkpt lat="42.439465038478374481201171875" lon="-6.02031326852738857269287109375">
        <ele>856</ele>
        <time>2019-07-08T15:12:30.000Z</time>
      </trkpt>
      <trkpt lat="42.43944014422595500946044921875" lon="-6.02079472504556179046630859375">
        <ele>855.79998779296875</ele>
        <time>2019-07-08T15:12:32.000Z</time>
      </trkpt>
      <trkpt lat="42.43941332213580608367919921875" lon="-6.0215552151203155517578125">
        <ele>857.79998779296875</ele>
        <time>2019-07-08T15:12:35.000Z</time>
      </trkpt>
      <trkpt lat="42.4393904395401477813720703125" lon="-6.022350154817104339599609375">
        <ele>858.79998779296875</ele>
        <time>2019-07-08T15:12:38.000Z</time>
      </trkpt>
      <trkpt lat="42.43937216699123382568359375" lon="-6.02290143258869647979736328125">
        <ele>860</ele>
        <time>2019-07-08T15:12:40.000Z</time>
      </trkpt>
      <trkpt lat="42.4393634498119354248046875" lon="-6.0231784544885158538818359375">
        <ele>862</ele>
        <time>2019-07-08T15:12:41.000Z</time>
      </trkpt>
      <trkpt lat="42.439354397356510162353515625" lon="-6.02345631457865238189697265625">
        <ele>864.20001220703125</ele>
        <time>2019-07-08T15:12:42.000Z</time>
      </trkpt>
      <trkpt lat="42.43934609927237033843994140625" lon="-6.02373526431620121002197265625">
        <ele>865.5999755859375</ele>
        <time>2019-07-08T15:12:43.000Z</time>
      </trkpt>
      <trkpt lat="42.439338974654674530029296875" lon="-6.0240161418914794921875">
        <ele>866.5999755859375</ele>
        <time>2019-07-08T15:12:44.000Z</time>
      </trkpt>
      <trkpt lat="42.43932279758155345916748046875" lon="-6.02458435110747814178466796875">
        <ele>867.79998779296875</ele>
        <time>2019-07-08T15:12:46.000Z</time>
      </trkpt>
      <trkpt lat="42.43930486030876636505126953125" lon="-6.0251585952937602996826171875">
        <ele>865.5999755859375</ele>
        <time>2019-07-08T15:12:48.000Z</time>
      </trkpt>
      <trkpt lat="42.4392950534820556640625" lon="-6.0254462622106075286865234375">
        <ele>864.20001220703125</ele>
        <time>2019-07-08T15:12:49.000Z</time>
      </trkpt>
      <trkpt lat="42.43927099741995334625244140625" lon="-6.02629266679286956787109375">
        <ele>862.5999755859375</ele>
        <time>2019-07-08T15:12:52.000Z</time>
      </trkpt>
      <trkpt lat="42.4392489530146121978759765625" lon="-6.0271109081804752349853515625">
        <ele>862.20001220703125</ele>
        <time>2019-07-08T15:12:55.000Z</time>
      </trkpt>
      <trkpt lat="42.43923311121761798858642578125" lon="-6.02765833027660846710205078125">
        <ele>863.79998779296875</ele>
        <time>2019-07-08T15:12:57.000Z</time>
      </trkpt>
      <trkpt lat="42.43922456167638301849365234375" lon="-6.02793292142450809478759765625">
        <ele>864.79998779296875</ele>
        <time>2019-07-08T15:12:58.000Z</time>
      </trkpt>
      <trkpt lat="42.439216263592243194580078125" lon="-6.02820650674402713775634765625">
        <ele>866.5999755859375</ele>
        <time>2019-07-08T15:12:59.000Z</time>
      </trkpt>
      <trkpt lat="42.43920796550810337066650390625" lon="-6.02847925387322902679443359375">
        <ele>868.20001220703125</ele>
        <time>2019-07-08T15:13:00.000Z</time>
      </trkpt>
      <trkpt lat="42.43919916450977325439453125" lon="-6.028751246631145477294921875">
        <ele>869.79998779296875</ele>
        <time>2019-07-08T15:13:01.000Z</time>
      </trkpt>
      <trkpt lat="42.43919086642563343048095703125" lon="-6.0290224850177764892578125">
        <ele>871.4000244140625</ele>
        <time>2019-07-08T15:13:02.000Z</time>
      </trkpt>
      <trkpt lat="42.439182735979557037353515625" lon="-6.02929397486150264739990234375">
        <ele>873</ele>
        <time>2019-07-08T15:13:03.000Z</time>
      </trkpt>
      <trkpt lat="42.4391741864383220672607421875" lon="-6.02956504561007022857666015625">
        <ele>874.20001220703125</ele>
        <time>2019-07-08T15:13:04.000Z</time>
      </trkpt>
      <trkpt lat="42.4391515552997589111328125" lon="-6.03038026951253414154052734375">
        <ele>874.20001220703125</ele>
        <time>2019-07-08T15:13:07.000Z</time>
      </trkpt>
      <trkpt lat="42.43914342485368251800537109375" lon="-6.03065687231719493865966796875">
        <ele>873</ele>
        <time>2019-07-08T15:13:08.000Z</time>
      </trkpt>
      <trkpt lat="42.43913504295051097869873046875" lon="-6.03093934245407581329345703125">
        <ele>871</ele>
        <time>2019-07-08T15:13:09.000Z</time>
      </trkpt>
      <trkpt lat="42.43912615813314914703369140625" lon="-6.03122835047543048858642578125">
        <ele>869.79998779296875</ele>
        <time>2019-07-08T15:13:10.000Z</time>
      </trkpt>
      <trkpt lat="42.4391059577465057373046875" lon="-6.03182581253349781036376953125">
        <ele>868.5999755859375</ele>
        <time>2019-07-08T15:13:12.000Z</time>
      </trkpt>
      <trkpt lat="42.43908592499792575836181640625" lon="-6.032443307340145111083984375">
        <ele>868.20001220703125</ele>
        <time>2019-07-08T15:13:14.000Z</time>
      </trkpt>
      <trkpt lat="42.4390762858092784881591796875" lon="-6.03275955654680728912353515625">
        <ele>867.5999755859375</ele>
        <time>2019-07-08T15:13:15.000Z</time>
      </trkpt>
      <trkpt lat="42.43905692361295223236083984375" lon="-6.03340412490069866180419921875">
        <ele>865.5999755859375</ele>
        <time>2019-07-08T15:13:17.000Z</time>
      </trkpt>
      <trkpt lat="42.43903563357889652252197265625" lon="-6.03405087254941463470458984375">
        <ele>864.79998779296875</ele>
        <time>2019-07-08T15:13:19.000Z</time>
      </trkpt>
      <trkpt lat="42.43901417590677738189697265625" lon="-6.03469007648527622222900390625">
        <ele>864.5999755859375</ele>
        <time>2019-07-08T15:13:21.000Z</time>
      </trkpt>
      <trkpt lat="42.43899003602564334869384765625" lon="-6.0353063978254795074462890625">
        <ele>864.20001220703125</ele>
        <time>2019-07-08T15:13:23.000Z</time>
      </trkpt>
      <trkpt lat="42.4389529041945934295654296875" lon="-6.03621306829154491424560546875">
        <ele>864.20001220703125</ele>
        <time>2019-07-08T15:13:26.000Z</time>
      </trkpt>
      <trkpt lat="42.43893002159893512725830078125" lon="-6.0370696149766445159912109375">
        <ele>864.79998779296875</ele>
        <time>2019-07-08T15:13:29.000Z</time>
      </trkpt>
      <trkpt lat="42.43892314843833446502685546875" lon="-6.03734747506678104400634765625">
        <ele>865.79998779296875</ele>
        <time>2019-07-08T15:13:30.000Z</time>
      </trkpt>
      <trkpt lat="42.43891594000160694122314453125" lon="-6.0376270115375518798828125">
        <ele>866.79998779296875</ele>
        <time>2019-07-08T15:13:31.000Z</time>
      </trkpt>
      <trkpt lat="42.4389079771935939788818359375" lon="-6.037913002073764801025390625">
        <ele>868.4000244140625</ele>
        <time>2019-07-08T15:13:32.000Z</time>
      </trkpt>
      <trkpt lat="42.43888936936855316162109375" lon="-6.0385035909712314605712890625">
        <ele>869.5999755859375</ele>
        <time>2019-07-08T15:13:34.000Z</time>
      </trkpt>
      <trkpt lat="42.43886581622064113616943359375" lon="-6.03940875269472599029541015625">
        <ele>870.20001220703125</ele>
        <time>2019-07-08T15:13:37.000Z</time>
      </trkpt>
      <trkpt lat="42.43885693140327930450439453125" lon="-6.0397139377892017364501953125">
        <ele>871.4000244140625</ele>
        <time>2019-07-08T15:13:38.000Z</time>
      </trkpt>
      <trkpt lat="42.43883899413049221038818359375" lon="-6.04032657109200954437255859375">
        <ele>872.79998779296875</ele>
        <time>2019-07-08T15:13:40.000Z</time>
      </trkpt>
      <trkpt lat="42.43881837464869022369384765625" lon="-6.04093761183321475982666015625">
        <ele>873.4000244140625</ele>
        <time>2019-07-08T15:13:42.000Z</time>
      </trkpt>
      <trkpt lat="42.4387959949672222137451171875" lon="-6.041544713079929351806640625">
        <ele>874.4000244140625</ele>
        <time>2019-07-08T15:13:44.000Z</time>
      </trkpt>
      <trkpt lat="42.43876439519226551055908203125" lon="-6.042439900338649749755859375">
        <ele>875.5999755859375</ele>
        <time>2019-07-08T15:13:47.000Z</time>
      </trkpt>
      <trkpt lat="42.438754253089427947998046875" lon="-6.042735613882541656494140625">
        <ele>877</ele>
        <time>2019-07-08T15:13:48.000Z</time>
      </trkpt>
      <trkpt lat="42.4387457035481929779052734375" lon="-6.043032668530941009521484375">
        <ele>878.5999755859375</ele>
        <time>2019-07-08T15:13:49.000Z</time>
      </trkpt>
      <trkpt lat="42.4387292750179767608642578125" lon="-6.04361814446747303009033203125">
        <ele>879.79998779296875</ele>
        <time>2019-07-08T15:13:51.000Z</time>
      </trkpt>
      <trkpt lat="42.43871946819126605987548828125" lon="-6.0438985191285610198974609375">
        <ele>880.79998779296875</ele>
        <time>2019-07-08T15:13:52.000Z</time>
      </trkpt>
      <trkpt lat="42.43868811987340450286865234375" lon="-6.04443504475057125091552734375">
        <ele>882.20001220703125</ele>
        <time>2019-07-08T15:13:54.000Z</time>
      </trkpt>
      <trkpt lat="42.43866565637290477752685546875" lon="-6.04469857178628444671630859375">
        <ele>883.20001220703125</ele>
        <time>2019-07-08T15:13:55.000Z</time>
      </trkpt>
      <trkpt lat="42.438637576997280120849609375" lon="-6.04496209882199764251708984375">
        <ele>884.4000244140625</ele>
        <time>2019-07-08T15:13:56.000Z</time>
      </trkpt>
      <trkpt lat="42.43851444683969020843505859375" lon="-6.0457381792366504669189453125">
        <ele>885.5999755859375</ele>
        <time>2019-07-08T15:13:59.000Z</time>
      </trkpt>
      <trkpt lat="42.43834060616791248321533203125" lon="-6.04647654108703136444091796875">
        <ele>885.5999755859375</ele>
        <time>2019-07-08T15:14:02.000Z</time>
      </trkpt>
      <trkpt lat="42.4381338246166706085205078125" lon="-6.04713804088532924652099609375">
        <ele>885.79998779296875</ele>
        <time>2019-07-08T15:14:05.000Z</time>
      </trkpt>
      <trkpt lat="42.4379859678447246551513671875" lon="-6.0475446470081806182861328125">
        <ele>884.4000244140625</ele>
        <time>2019-07-08T15:14:07.000Z</time>
      </trkpt>
      <trkpt lat="42.4379096925258636474609375" lon="-6.04773902334272861480712890625">
        <ele>882.5999755859375</ele>
        <time>2019-07-08T15:14:08.000Z</time>
      </trkpt>
      <trkpt lat="42.43783366866409778594970703125" lon="-6.0479231737554073333740234375">
        <ele>881</ele>
        <time>2019-07-08T15:14:09.000Z</time>
      </trkpt>
      <trkpt lat="42.43768614716827869415283203125" lon="-6.04827781207859516143798828125">
        <ele>879.4000244140625</ele>
        <time>2019-07-08T15:14:11.000Z</time>
      </trkpt>
      <trkpt lat="42.4374793656170368194580078125" lon="-6.04882732965052127838134765625">
        <ele>879.20001220703125</ele>
        <time>2019-07-08T15:14:14.000Z</time>
      </trkpt>
      <trkpt lat="42.4373110570013523101806640625" lon="-6.04942479170858860015869140625">
        <ele>879.4000244140625</ele>
        <time>2019-07-08T15:14:17.000Z</time>
      </trkpt>
      <trkpt lat="42.4372305907309055328369140625" lon="-6.04983751662075519561767578125">
        <ele>881.20001220703125</ele>
        <time>2019-07-08T15:14:19.000Z</time>
      </trkpt>
      <trkpt lat="42.4371994100511074066162109375" lon="-6.05004966259002685546875">
        <ele>882.20001220703125</ele>
        <time>2019-07-08T15:14:20.000Z</time>
      </trkpt>
      <trkpt lat="42.43716076947748661041259765625" lon="-6.050486527383327484130859375">
        <ele>883.20001220703125</ele>
        <time>2019-07-08T15:14:22.000Z</time>
      </trkpt>
      <trkpt lat="42.43716076947748661041259765625" lon="-6.05117979459464550018310546875">
        <ele>883.79998779296875</ele>
        <time>2019-07-08T15:14:25.000Z</time>
      </trkpt>
      <trkpt lat="42.43724727071821689605712890625" lon="-6.05191103182733058929443359375">
        <ele>883.4000244140625</ele>
        <time>2019-07-08T15:14:28.000Z</time>
      </trkpt>
      <trkpt lat="42.437414824962615966796875" lon="-6.05264444835484027862548828125">
        <ele>883.20001220703125</ele>
        <time>2019-07-08T15:14:31.000Z</time>
      </trkpt>
      <trkpt lat="42.43763652630150318145751953125" lon="-6.053445339202880859375">
        <ele>881.4000244140625</ele>
        <time>2019-07-08T15:14:34.000Z</time>
      </trkpt>
      <trkpt lat="42.4377921782433986663818359375" lon="-6.05405394919216632843017578125">
        <ele>879.20001220703125</ele>
        <time>2019-07-08T15:14:36.000Z</time>
      </trkpt>
      <trkpt lat="42.43795889429748058319091796875" lon="-6.05473556555807590484619140625">
        <ele>878.20001220703125</ele>
        <time>2019-07-08T15:14:38.000Z</time>
      </trkpt>
      <trkpt lat="42.43804455734789371490478515625" lon="-6.05508877895772457122802734375">
        <ele>878.20001220703125</ele>
        <time>2019-07-08T15:14:39.000Z</time>
      </trkpt>
      <trkpt lat="42.4382179789245128631591796875" lon="-6.055808700621128082275390625">
        <ele>878.5999755859375</ele>
        <time>2019-07-08T15:14:41.000Z</time>
      </trkpt>
      <trkpt lat="42.43830221705138683319091796875" lon="-6.0561759956181049346923828125">
        <ele>879.5999755859375</ele>
        <time>2019-07-08T15:14:42.000Z</time>
      </trkpt>
      <trkpt lat="42.438385449349880218505859375" lon="-6.0565481521189212799072265625">
        <ele>881.5999755859375</ele>
        <time>2019-07-08T15:14:43.000Z</time>
      </trkpt>
      <trkpt lat="42.438464574515819549560546875" lon="-6.05692173354327678680419921875">
        <ele>884</ele>
        <time>2019-07-08T15:14:44.000Z</time>
      </trkpt>
      <trkpt lat="42.4385415203869342803955078125" lon="-6.057297997176647186279296875">
        <ele>885.4000244140625</ele>
        <time>2019-07-08T15:14:45.000Z</time>
      </trkpt>
      <trkpt lat="42.438615448772907257080078125" lon="-6.05767627246677875518798828125">
        <ele>886.79998779296875</ele>
        <time>2019-07-08T15:14:46.000Z</time>
      </trkpt>
      <trkpt lat="42.438752911984920501708984375" lon="-6.0584327392280101776123046875">
        <ele>888.5999755859375</ele>
        <time>2019-07-08T15:14:48.000Z</time>
      </trkpt>
      <trkpt lat="42.438874952495098114013671875" lon="-6.05918652378022670745849609375">
        <ele>890.20001220703125</ele>
        <time>2019-07-08T15:14:50.000Z</time>
      </trkpt>
      <trkpt lat="42.438987605273723602294921875" lon="-6.0599404759705066680908203125">
        <ele>889</ele>
        <time>2019-07-08T15:14:52.000Z</time>
      </trkpt>
      <trkpt lat="42.4390979111194610595703125" lon="-6.06069325469434261322021484375">
        <ele>889.5999755859375</ele>
        <time>2019-07-08T15:14:54.000Z</time>
      </trkpt>
      <trkpt lat="42.4392107315361499786376953125" lon="-6.06144326739013195037841796875">
        <ele>890</ele>
        <time>2019-07-08T15:14:56.000Z</time>
      </trkpt>
      <trkpt lat="42.4393267370760440826416015625" lon="-6.0621938668191432952880859375">
        <ele>890.20001220703125</ele>
        <time>2019-07-08T15:14:58.000Z</time>
      </trkpt>
      <trkpt lat="42.439449615776538848876953125" lon="-6.06294128112494945526123046875">
        <ele>889.79998779296875</ele>
        <time>2019-07-08T15:15:00.000Z</time>
      </trkpt>
      <trkpt lat="42.4395845644176006317138671875" lon="-6.063685007393360137939453125">
        <ele>889.4000244140625</ele>
        <time>2019-07-08T15:15:02.000Z</time>
      </trkpt>
      <trkpt lat="42.4397397972643375396728515625" lon="-6.06442739255726337432861328125">
        <ele>891.4000244140625</ele>
        <time>2019-07-08T15:15:04.000Z</time>
      </trkpt>
      <trkpt lat="42.43991221301257610321044921875" lon="-6.06516768224537372589111328125">
        <ele>893</ele>
        <time>2019-07-08T15:15:06.000Z</time>
      </trkpt>
      <trkpt lat="42.44009745307266712188720703125" lon="-6.0658969916403293609619140625">
        <ele>892.5999755859375</ele>
        <time>2019-07-08T15:15:08.000Z</time>
      </trkpt>
      <trkpt lat="42.440197281539440155029296875" lon="-6.0662604309618473052978515625">
        <ele>891.20001220703125</ele>
        <time>2019-07-08T15:15:09.000Z</time>
      </trkpt>
      <trkpt lat="42.440305911004543304443359375" lon="-6.0666302405297756195068359375">
        <ele>889.79998779296875</ele>
        <time>2019-07-08T15:15:10.000Z</time>
      </trkpt>
      <trkpt lat="42.44054295122623443603515625" lon="-6.0673789121210575103759765625">
        <ele>889</ele>
        <time>2019-07-08T15:15:12.000Z</time>
      </trkpt>
      <trkpt lat="42.4408039636909961700439453125" lon="-6.06812397949397563934326171875">
        <ele>889.5999755859375</ele>
        <time>2019-07-08T15:15:14.000Z</time>
      </trkpt>
      <trkpt lat="42.44107964448630809783935546875" lon="-6.06883459724485874176025390625">
        <ele>891.5999755859375</ele>
        <time>2019-07-08T15:15:16.000Z</time>
      </trkpt>
      <trkpt lat="42.4413638748228549957275390625" lon="-6.06951269321143627166748046875">
        <ele>893.5999755859375</ele>
        <time>2019-07-08T15:15:18.000Z</time>
      </trkpt>
      <trkpt lat="42.44150728918612003326416015625" lon="-6.06984042562544345855712890625">
        <ele>894.5999755859375</ele>
        <time>2019-07-08T15:15:19.000Z</time>
      </trkpt>
      <trkpt lat="42.44179554283618927001953125" lon="-6.07047409750521183013916015625">
        <ele>895.20001220703125</ele>
        <time>2019-07-08T15:15:21.000Z</time>
      </trkpt>
      <trkpt lat="42.44209636934101581573486328125" lon="-6.071080528199672698974609375">
        <ele>895.79998779296875</ele>
        <time>2019-07-08T15:15:23.000Z</time>
      </trkpt>
      <trkpt lat="42.4424069188535213470458984375" lon="-6.0716727934777736663818359375">
        <ele>895.79998779296875</ele>
        <time>2019-07-08T15:15:25.000Z</time>
      </trkpt>
      <trkpt lat="42.4427328072488307952880859375" lon="-6.07224888168275356292724609375">
        <ele>894.79998779296875</ele>
        <time>2019-07-08T15:15:27.000Z</time>
      </trkpt>
      <trkpt lat="42.44290354661643505096435546875" lon="-6.0725307650864124298095703125">
        <ele>894.5999755859375</ele>
        <time>2019-07-08T15:15:28.000Z</time>
      </trkpt>
      <trkpt lat="42.4430778063833713531494140625" lon="-6.07280828990042209625244140625">
        <ele>893.4000244140625</ele>
        <time>2019-07-08T15:15:29.000Z</time>
      </trkpt>
      <trkpt lat="42.44343613274395465850830078125" lon="-6.0733585618436336517333984375">
        <ele>893.20001220703125</ele>
        <time>2019-07-08T15:15:31.000Z</time>
      </trkpt>
      <trkpt lat="42.4438040144741535186767578125" lon="-6.07390430755913257598876953125">
        <ele>894.4000244140625</ele>
        <time>2019-07-08T15:15:33.000Z</time>
      </trkpt>
      <trkpt lat="42.44399168528616428375244140625" lon="-6.07417118735611438751220703125">
        <ele>894.79998779296875</ele>
        <time>2019-07-08T15:15:34.000Z</time>
      </trkpt>
      <trkpt lat="42.44437591172754764556884765625" lon="-6.07468298636376857757568359375">
        <ele>894.4000244140625</ele>
        <time>2019-07-08T15:15:36.000Z</time>
      </trkpt>
      <trkpt lat="42.44476667605340480804443359375" lon="-6.07518405653536319732666015625">
        <ele>895</ele>
        <time>2019-07-08T15:15:38.000Z</time>
      </trkpt>
      <trkpt lat="42.44516515173017978668212890625" lon="-6.07568596489727497100830078125">
        <ele>893.5999755859375</ele>
        <time>2019-07-08T15:15:40.000Z</time>
      </trkpt>
      <trkpt lat="42.44557737372815608978271484375" lon="-6.07618510723114013671875">
        <ele>893.4000244140625</ele>
        <time>2019-07-08T15:15:42.000Z</time>
      </trkpt>
      <trkpt lat="42.44600233621895313262939453125" lon="-6.07667871750891208648681640625">
        <ele>892.4000244140625</ele>
        <time>2019-07-08T15:15:44.000Z</time>
      </trkpt>
      <trkpt lat="42.44644221849739551544189453125" lon="-6.07715212740004062652587890625">
        <ele>892</ele>
        <time>2019-07-08T15:15:46.000Z</time>
      </trkpt>
      <trkpt lat="42.4466649256646633148193359375" lon="-6.07738782651722431182861328125">
        <ele>893.79998779296875</ele>
        <time>2019-07-08T15:15:47.000Z</time>
      </trkpt>
      <trkpt lat="42.4471148662269115447998046875" lon="-6.0778559558093547821044921875">
        <ele>894.4000244140625</ele>
        <time>2019-07-08T15:15:49.000Z</time>
      </trkpt>
      <trkpt lat="42.44757461361587047576904296875" lon="-6.0783136077225208282470703125">
        <ele>893.5999755859375</ele>
        <time>2019-07-08T15:15:51.000Z</time>
      </trkpt>
      <trkpt lat="42.44780595414340496063232421875" lon="-6.07853564433753490447998046875">
        <ele>892.5999755859375</ele>
        <time>2019-07-08T15:15:52.000Z</time>
      </trkpt>
      <trkpt lat="42.44803628884255886077880859375" lon="-6.07875223271548748016357421875">
        <ele>890.79998779296875</ele>
        <time>2019-07-08T15:15:53.000Z</time>
      </trkpt>
      <trkpt lat="42.44826528243720531463623046875" lon="-6.078963540494441986083984375">
        <ele>889.5999755859375</ele>
        <time>2019-07-08T15:15:54.000Z</time>
      </trkpt>
      <trkpt lat="42.4487215094268321990966796875" lon="-6.0793727450072765350341796875">
        <ele>889</ele>
        <time>2019-07-08T15:15:56.000Z</time>
      </trkpt>
      <trkpt lat="42.44917857460677623748779296875" lon="-6.07976661063730716705322265625">
        <ele>890.5999755859375</ele>
        <time>2019-07-08T15:15:58.000Z</time>
      </trkpt>
      <trkpt lat="42.44940874166786670684814453125" lon="-6.07995553873479366302490234375">
        <ele>891</ele>
        <time>2019-07-08T15:15:59.000Z</time>
      </trkpt>
      <trkpt lat="42.4498698301613330841064453125" lon="-6.080327443778514862060546875">
        <ele>893</ele>
        <time>2019-07-08T15:16:01.000Z</time>
      </trkpt>
      <trkpt lat="42.45033301413059234619140625" lon="-6.0806853510439395904541015625">
        <ele>892.20001220703125</ele>
        <time>2019-07-08T15:16:03.000Z</time>
      </trkpt>
      <trkpt lat="42.4505668692290782928466796875" lon="-6.08085793443024158477783203125">
        <ele>891.4000244140625</ele>
        <time>2019-07-08T15:16:04.000Z</time>
      </trkpt>
      <trkpt lat="42.45103701017796993255615234375" lon="-6.0811929591000080108642578125">
        <ele>891</ele>
        <time>2019-07-08T15:16:06.000Z</time>
      </trkpt>
      <trkpt lat="42.45127379894256591796875" lon="-6.0813555680215358734130859375">
        <ele>890.20001220703125</ele>
        <time>2019-07-08T15:16:07.000Z</time>
      </trkpt>
      <trkpt lat="42.4517507292330265045166015625" lon="-6.08166729100048542022705078125">
        <ele>889</ele>
        <time>2019-07-08T15:16:09.000Z</time>
      </trkpt>
      <trkpt lat="42.45223109610378742218017578125" lon="-6.08196501620113849639892578125">
        <ele>887.20001220703125</ele>
        <time>2019-07-08T15:16:11.000Z</time>
      </trkpt>
      <trkpt lat="42.452712468802928924560546875" lon="-6.08224731869995594024658203125">
        <ele>886.4000244140625</ele>
        <time>2019-07-08T15:16:13.000Z</time>
      </trkpt>
      <trkpt lat="42.4529526941478252410888671875" lon="-6.0823841951787471771240234375">
        <ele>886.4000244140625</ele>
        <time>2019-07-08T15:16:14.000Z</time>
      </trkpt>
      <trkpt lat="42.45343272574245929718017578125" lon="-6.08264747075736522674560546875">
        <ele>889</ele>
        <time>2019-07-08T15:16:16.000Z</time>
      </trkpt>
      <trkpt lat="42.4539102427661418914794921875" lon="-6.08289423398673534393310546875">
        <ele>890.20001220703125</ele>
        <time>2019-07-08T15:16:18.000Z</time>
      </trkpt>
      <trkpt lat="42.45438608340919017791748046875" lon="-6.08312825672328472137451171875">
        <ele>890</ele>
        <time>2019-07-08T15:16:20.000Z</time>
      </trkpt>
      <trkpt lat="42.45486485771834850311279296875" lon="-6.08334803022444248199462890625">
        <ele>889.4000244140625</ele>
        <time>2019-07-08T15:16:22.000Z</time>
      </trkpt>
      <trkpt lat="42.45534849353134632110595703125" lon="-6.0835459269583225250244140625">
        <ele>889.20001220703125</ele>
        <time>2019-07-08T15:16:24.000Z</time>
      </trkpt>
      <trkpt lat="42.45582995004951953887939453125" lon="-6.08372144401073455810546875">
        <ele>890.4000244140625</ele>
        <time>2019-07-08T15:16:26.000Z</time>
      </trkpt>
      <trkpt lat="42.4563024379312992095947265625" lon="-6.08386837877333164215087890625">
        <ele>892.4000244140625</ele>
        <time>2019-07-08T15:16:28.000Z</time>
      </trkpt>
      <trkpt lat="42.45653570629656314849853515625" lon="-6.08393132686614990234375">
        <ele>894.20001220703125</ele>
        <time>2019-07-08T15:16:29.000Z</time>
      </trkpt>
      <trkpt lat="42.45676897466182708740234375" lon="-6.08398807235062122344970703125">
        <ele>895.20001220703125</ele>
        <time>2019-07-08T15:16:30.000Z</time>
      </trkpt>
      <trkpt lat="42.45723542757332324981689453125" lon="-6.08408622443675994873046875">
        <ele>896.20001220703125</ele>
        <time>2019-07-08T15:16:32.000Z</time>
      </trkpt>
      <trkpt lat="42.45770632289350032806396484375" lon="-6.084163002669811248779296875">
        <ele>896</ele>
        <time>2019-07-08T15:16:34.000Z</time>
      </trkpt>
      <trkpt lat="42.458181492984294891357421875" lon="-6.084214635193347930908203125">
        <ele>895</ele>
        <time>2019-07-08T15:16:36.000Z</time>
      </trkpt>
      <trkpt lat="42.45866018347442150115966796875" lon="-6.084240786731243133544921875">
        <ele>894.5999755859375</ele>
        <time>2019-07-08T15:16:38.000Z</time>
      </trkpt>
      <trkpt lat="42.45890074409544467926025390625" lon="-6.084245145320892333984375">
        <ele>894.20001220703125</ele>
        <time>2019-07-08T15:16:39.000Z</time>
      </trkpt>
      <trkpt lat="42.459385134279727935791015625" lon="-6.084242798388004302978515625">
        <ele>894.20001220703125</ele>
        <time>2019-07-08T15:16:41.000Z</time>
      </trkpt>
      <trkpt lat="42.45987321250140666961669921875" lon="-6.08421773649752140045166015625">
        <ele>892.4000244140625</ele>
        <time>2019-07-08T15:16:43.000Z</time>
      </trkpt>
      <trkpt lat="42.46037780307233333587646484375" lon="-6.0841568000614643096923828125">
        <ele>892</ele>
        <time>2019-07-08T15:16:45.000Z</time>
      </trkpt>
      <trkpt lat="42.4608989059925079345703125" lon="-6.0840652696788311004638671875">
        <ele>891.4000244140625</ele>
        <time>2019-07-08T15:16:47.000Z</time>
      </trkpt>
      <trkpt lat="42.4614224396646022796630859375" lon="-6.08394951559603214263916015625">
        <ele>892</ele>
        <time>2019-07-08T15:16:49.000Z</time>
      </trkpt>
      <trkpt lat="42.46195527724921703338623046875" lon="-6.0838081128895282745361328125">
        <ele>892.20001220703125</ele>
        <time>2019-07-08T15:16:51.000Z</time>
      </trkpt>
      <trkpt lat="42.46250295080244541168212890625" lon="-6.08363159000873565673828125">
        <ele>892.79998779296875</ele>
        <time>2019-07-08T15:16:53.000Z</time>
      </trkpt>
      <trkpt lat="42.4627803079783916473388671875" lon="-6.08352958224713802337646484375">
        <ele>893.4000244140625</ele>
        <time>2019-07-08T15:16:54.000Z</time>
      </trkpt>
      <trkpt lat="42.4630548991262912750244140625" lon="-6.08341969549655914306640625">
        <ele>895.5999755859375</ele>
        <time>2019-07-08T15:16:55.000Z</time>
      </trkpt>
      <trkpt lat="42.46332571841776371002197265625" lon="-6.0833035223186016082763671875">
        <ele>898.4000244140625</ele>
        <time>2019-07-08T15:16:56.000Z</time>
      </trkpt>
      <trkpt lat="42.46359259821474552154541015625" lon="-6.0831824876368045806884765625">
        <ele>899.79998779296875</ele>
        <time>2019-07-08T15:16:57.000Z</time>
      </trkpt>
      <trkpt lat="42.46385713107883930206298828125" lon="-6.0830604471266269683837890625">
        <ele>902.20001220703125</ele>
        <time>2019-07-08T15:16:58.000Z</time>
      </trkpt>
      <trkpt lat="42.46411914937198162078857421875" lon="-6.08294050209224224090576171875">
        <ele>904</ele>
        <time>2019-07-08T15:16:59.000Z</time>
      </trkpt>
      <trkpt lat="42.46464301832020282745361328125" lon="-6.0827104188501834869384765625">
        <ele>904.20001220703125</ele>
        <time>2019-07-08T15:17:01.000Z</time>
      </trkpt>
      <trkpt lat="42.4649072997272014617919921875" lon="-6.0826031304895877838134765625">
        <ele>902.20001220703125</ele>
        <time>2019-07-08T15:17:02.000Z</time>
      </trkpt>
      <trkpt lat="42.46517342515289783477783203125" lon="-6.08250464312732219696044921875">
        <ele>899.20001220703125</ele>
        <time>2019-07-08T15:17:03.000Z</time>
      </trkpt>
      <trkpt lat="42.465706765651702880859375" lon="-6.0823406092822551727294921875">
        <ele>897.4000244140625</ele>
        <time>2019-07-08T15:17:05.000Z</time>
      </trkpt>
      <trkpt lat="42.4659721367061138153076171875" lon="-6.0822755657136440277099609375">
        <ele>896.4000244140625</ele>
        <time>2019-07-08T15:17:06.000Z</time>
      </trkpt>
      <trkpt lat="42.46650145389139652252197265625" lon="-6.082178838551044464111328125">
        <ele>898.79998779296875</ele>
        <time>2019-07-08T15:17:08.000Z</time>
      </trkpt>
      <trkpt lat="42.466766573488712310791015625" lon="-6.08214690349996089935302734375">
        <ele>901.20001220703125</ele>
        <time>2019-07-08T15:17:09.000Z</time>
      </trkpt>
      <trkpt lat="42.467031441628932952880859375" lon="-6.08212594874203205108642578125">
        <ele>902.20001220703125</ele>
        <time>2019-07-08T15:17:10.000Z</time>
      </trkpt>
      <trkpt lat="42.467556484043598175048828125" lon="-6.082117818295955657958984375">
        <ele>903.4000244140625</ele>
        <time>2019-07-08T15:17:12.000Z</time>
      </trkpt>
      <trkpt lat="42.4678144790232181549072265625" lon="-6.0821334086358547210693359375">
        <ele>904.5999755859375</ele>
        <time>2019-07-08T15:17:13.000Z</time>
      </trkpt>
      <trkpt lat="42.468320243060588836669921875" lon="-6.08218898065388202667236328125">
        <ele>906.5999755859375</ele>
        <time>2019-07-08T15:17:15.000Z</time>
      </trkpt>
      <trkpt lat="42.4685700237751007080078125" lon="-6.08222611248493194580078125">
        <ele>907.79998779296875</ele>
        <time>2019-07-08T15:17:16.000Z</time>
      </trkpt>
      <trkpt lat="42.4690653942525386810302734375" lon="-6.08233097009360790252685546875">
        <ele>909</ele>
        <time>2019-07-08T15:17:18.000Z</time>
      </trkpt>
      <trkpt lat="42.4695525504648685455322265625" lon="-6.08247664757072925567626953125">
        <ele>909</ele>
        <time>2019-07-08T15:17:20.000Z</time>
      </trkpt>
      <trkpt lat="42.47003174386918544769287109375" lon="-6.08265786431729793548583984375">
        <ele>909.5999755859375</ele>
        <time>2019-07-08T15:17:22.000Z</time>
      </trkpt>
      <trkpt lat="42.47050465084612369537353515625" lon="-6.0828690044581890106201171875">
        <ele>910.4000244140625</ele>
        <time>2019-07-08T15:17:24.000Z</time>
      </trkpt>
      <trkpt lat="42.47096733190119266510009765625" lon="-6.0831145942211151123046875">
        <ele>910.4000244140625</ele>
        <time>2019-07-08T15:17:26.000Z</time>
      </trkpt>
      <trkpt lat="42.47141785919666290283203125" lon="-6.08339848928153514862060546875">
        <ele>910.20001220703125</ele>
        <time>2019-07-08T15:17:28.000Z</time>
      </trkpt>
      <trkpt lat="42.47185430489480495452880859375" lon="-6.08370794914662837982177734375">
        <ele>910.20001220703125</ele>
        <time>2019-07-08T15:17:30.000Z</time>
      </trkpt>
      <trkpt lat="42.47227859683334827423095703125" lon="-6.084044985473155975341796875">
        <ele>912.4000244140625</ele>
        <time>2019-07-08T15:17:32.000Z</time>
      </trkpt>
      <trkpt lat="42.47248780913650989532470703125" lon="-6.08422561548650264739990234375">
        <ele>914.5999755859375</ele>
        <time>2019-07-08T15:17:33.000Z</time>
      </trkpt>
      <trkpt lat="42.4726934172213077545166015625" lon="-6.08441881835460662841796875">
        <ele>916.4000244140625</ele>
        <time>2019-07-08T15:17:34.000Z</time>
      </trkpt>
      <trkpt lat="42.47289617545902729034423828125" lon="-6.0846285335719585418701171875">
        <ele>918.4000244140625</ele>
        <time>2019-07-08T15:17:35.000Z</time>
      </trkpt>
      <trkpt lat="42.473097257316112518310546875" lon="-6.08485308475792407989501953125">
        <ele>919.79998779296875</ele>
        <time>2019-07-08T15:17:36.000Z</time>
      </trkpt>
      <trkpt lat="42.47330018319189548492431640625" lon="-6.08508375473320484161376953125">
        <ele>921.20001220703125</ele>
        <time>2019-07-08T15:17:37.000Z</time>
      </trkpt>
      <trkpt lat="42.4735031090676784515380859375" lon="-6.08532272279262542724609375">
        <ele>922.20001220703125</ele>
        <time>2019-07-08T15:17:38.000Z</time>
      </trkpt>
      <trkpt lat="42.4738983996212482452392578125" lon="-6.085837371647357940673828125">
        <ele>923.79998779296875</ele>
        <time>2019-07-08T15:17:40.000Z</time>
      </trkpt>
      <trkpt lat="42.47427550144493579864501953125" lon="-6.0863823629915714263916015625">
        <ele>925.79998779296875</ele>
        <time>2019-07-08T15:17:42.000Z</time>
      </trkpt>
      <trkpt lat="42.47461798600852489471435546875" lon="-6.0869442857801914215087890625">
        <ele>927.20001220703125</ele>
        <time>2019-07-08T15:17:44.000Z</time>
      </trkpt>
      <trkpt lat="42.47492342256009578704833984375" lon="-6.08752255327999591827392578125">
        <ele>928</ele>
        <time>2019-07-08T15:17:46.000Z</time>
      </trkpt>
      <trkpt lat="42.4750649929046630859375" lon="-6.0878193564713001251220703125">
        <ele>928.79998779296875</ele>
        <time>2019-07-08T15:17:47.000Z</time>
      </trkpt>
      <trkpt lat="42.47520036064088344573974609375" lon="-6.08812135644257068634033203125">
        <ele>930</ele>
        <time>2019-07-08T15:17:48.000Z</time>
      </trkpt>
      <trkpt lat="42.47532944194972515106201171875" lon="-6.08842729590833187103271484375">
        <ele>931.5999755859375</ele>
        <time>2019-07-08T15:17:49.000Z</time>
      </trkpt>
      <trkpt lat="42.47545190155506134033203125" lon="-6.08873759396374225616455078125">
        <ele>932.5999755859375</ele>
        <time>2019-07-08T15:17:50.000Z</time>
      </trkpt>
      <trkpt lat="42.47556857764720916748046875" lon="-6.08905099332332611083984375">
        <ele>933.79998779296875</ele>
        <time>2019-07-08T15:17:51.000Z</time>
      </trkpt>
      <trkpt lat="42.475784830749034881591796875" lon="-6.08968843705952167510986328125">
        <ele>934.79998779296875</ele>
        <time>2019-07-08T15:17:53.000Z</time>
      </trkpt>
      <trkpt lat="42.47597736306488513946533203125" lon="-6.0903418064117431640625">
        <ele>935.4000244140625</ele>
        <time>2019-07-08T15:17:55.000Z</time>
      </trkpt>
      <trkpt lat="42.47614919207990169525146484375" lon="-6.0910110175609588623046875">
        <ele>936</ele>
        <time>2019-07-08T15:17:57.000Z</time>
      </trkpt>
      <trkpt lat="42.47631498612463474273681640625" lon="-6.09168517403304576873779296875">
        <ele>935.79998779296875</ele>
        <time>2019-07-08T15:17:59.000Z</time>
      </trkpt>
      <trkpt lat="42.4764863960444927215576171875" lon="-6.092353127896785736083984375">
        <ele>936.79998779296875</ele>
        <time>2019-07-08T15:18:01.000Z</time>
      </trkpt>
      <trkpt lat="42.4765739031136035919189453125" lon="-6.09268379397690296173095703125">
        <ele>937.5999755859375</ele>
        <time>2019-07-08T15:18:02.000Z</time>
      </trkpt>
      <trkpt lat="42.47676006518304347991943359375" lon="-6.09334043227136135101318359375">
        <ele>938.20001220703125</ele>
        <time>2019-07-08T15:18:04.000Z</time>
      </trkpt>
      <trkpt lat="42.476859726011753082275390625" lon="-6.09366313554346561431884765625">
        <ele>938.79998779296875</ele>
        <time>2019-07-08T15:18:05.000Z</time>
      </trkpt>
      <trkpt lat="42.4770654179155826568603515625" lon="-6.0942895151674747467041015625">
        <ele>939.20001220703125</ele>
        <time>2019-07-08T15:18:07.000Z</time>
      </trkpt>
      <trkpt lat="42.47727571986615657806396484375" lon="-6.0948926769196987152099609375">
        <ele>939.5999755859375</ele>
        <time>2019-07-08T15:18:09.000Z</time>
      </trkpt>
      <trkpt lat="42.47738183476030826568603515625" lon="-6.0951847024261951446533203125">
        <ele>939.79998779296875</ele>
        <time>2019-07-08T15:18:10.000Z</time>
      </trkpt>
      <trkpt lat="42.4776063859462738037109375" lon="-6.0957395844161510467529296875">
        <ele>939.20001220703125</ele>
        <time>2019-07-08T15:18:12.000Z</time>
      </trkpt>
      <trkpt lat="42.47772297821938991546630859375" lon="-6.096008978784084320068359375">
        <ele>938.4000244140625</ele>
        <time>2019-07-08T15:18:13.000Z</time>
      </trkpt>
      <trkpt lat="42.4779652990400791168212890625" lon="-6.09654097817838191986083984375">
        <ele>937</ele>
        <time>2019-07-08T15:18:15.000Z</time>
      </trkpt>
      <trkpt lat="42.478210888803005218505859375" lon="-6.0970572195947170257568359375">
        <ele>935.4000244140625</ele>
        <time>2019-07-08T15:18:17.000Z</time>
      </trkpt>
      <trkpt lat="42.47845756821334362030029296875" lon="-6.09755820594727993011474609375">
        <ele>934.20001220703125</ele>
        <time>2019-07-08T15:18:19.000Z</time>
      </trkpt>
      <trkpt lat="42.47880960814654827117919921875" lon="-6.09828759916126728057861328125">
        <ele>933</ele>
        <time>2019-07-08T15:18:22.000Z</time>
      </trkpt>
      <trkpt lat="42.47902921400964260101318359375" lon="-6.098740808665752410888671875">
        <ele>932</ele>
        <time>2019-07-08T15:18:24.000Z</time>
      </trkpt>
      <trkpt lat="42.47934722341597080230712890625" lon="-6.09941178001463413238525390625">
        <ele>931.20001220703125</ele>
        <time>2019-07-08T15:18:27.000Z</time>
      </trkpt>
      <trkpt lat="42.47963220812380313873291015625" lon="-6.10008417628705501556396484375">
        <ele>931.79998779296875</ele>
        <time>2019-07-08T15:18:30.000Z</time>
      </trkpt>
      <trkpt lat="42.4798904545605182647705078125" lon="-6.1007469333708286285400390625">
        <ele>931.79998779296875</ele>
        <time>2019-07-08T15:18:33.000Z</time>
      </trkpt>
      <trkpt lat="42.48011701740324497222900390625" lon="-6.101400554180145263671875">
        <ele>931.79998779296875</ele>
        <time>2019-07-08T15:18:36.000Z</time>
      </trkpt>
      <trkpt lat="42.48031675815582275390625" lon="-6.1020568571984767913818359375">
        <ele>932.20001220703125</ele>
        <time>2019-07-08T15:18:39.000Z</time>
      </trkpt>
      <trkpt lat="42.48044474981725215911865234375" lon="-6.10249045304954051971435546875">
        <ele>933</ele>
        <time>2019-07-08T15:18:41.000Z</time>
      </trkpt>
      <trkpt lat="42.48062261380255222320556640625" lon="-6.1031426489353179931640625">
        <ele>934</ele>
        <time>2019-07-08T15:18:44.000Z</time>
      </trkpt>
      <trkpt lat="42.48068095184862613677978515625" lon="-6.10336015932261943817138671875">
        <ele>934.4000244140625</ele>
        <time>2019-07-08T15:18:45.000Z</time>
      </trkpt>
      <trkpt lat="42.48086367733776569366455078125" lon="-6.10402400605380535125732421875">
        <ele>935.5999755859375</ele>
        <time>2019-07-08T15:18:48.000Z</time>
      </trkpt>
      <trkpt lat="42.481038607656955718994140625" lon="-6.10466622747480869293212890625">
        <ele>936.5999755859375</ele>
        <time>2019-07-08T15:18:51.000Z</time>
      </trkpt>
      <trkpt lat="42.48109434731304645538330078125" lon="-6.104878373444080352783203125">
        <ele>936.79998779296875</ele>
        <time>2019-07-08T15:18:52.000Z</time>
      </trkpt>
      <trkpt lat="42.48126961290836334228515625" lon="-6.10554113052785396575927734375">
        <ele>937.79998779296875</ele>
        <time>2019-07-08T15:18:55.000Z</time>
      </trkpt>
      <trkpt lat="42.4813334830105304718017578125" lon="-6.1057710461318492889404296875">
        <ele>938.79998779296875</ele>
        <time>2019-07-08T15:18:56.000Z</time>
      </trkpt>
      <trkpt lat="42.48155753128230571746826171875" lon="-6.1064684204757213592529296875">
        <ele>939.79998779296875</ele>
        <time>2019-07-08T15:18:59.000Z</time>
      </trkpt>
      <trkpt lat="42.48173221014440059661865234375" lon="-6.1069287545979022979736328125">
        <ele>938.79998779296875</ele>
        <time>2019-07-08T15:19:01.000Z</time>
      </trkpt>
      <trkpt lat="42.48191560618579387664794921875" lon="-6.10737944953143596649169921875">
        <ele>937.79998779296875</ele>
        <time>2019-07-08T15:19:03.000Z</time>
      </trkpt>
      <trkpt lat="42.4821787141263484954833984375" lon="-6.108036339282989501953125">
        <ele>937.4000244140625</ele>
        <time>2019-07-08T15:19:06.000Z</time>
      </trkpt>
      <trkpt lat="42.48245003633201122283935546875" lon="-6.1086778901517391204833984375">
        <ele>939</ele>
        <time>2019-07-08T15:19:09.000Z</time>
      </trkpt>
      <trkpt lat="42.4825424887239933013916015625" lon="-6.10888835974037647247314453125">
        <ele>940.4000244140625</ele>
        <time>2019-07-08T15:19:10.000Z</time>
      </trkpt>
      <trkpt lat="42.4826330132782459259033203125" lon="-6.1090956442058086395263671875">
        <ele>942.4000244140625</ele>
        <time>2019-07-08T15:19:11.000Z</time>
      </trkpt>
      <trkpt lat="42.48272060416638851165771484375" lon="-6.10929924063384532928466796875">
        <ele>944.4000244140625</ele>
        <time>2019-07-08T15:19:12.000Z</time>
      </trkpt>
      <trkpt lat="42.48280609957873821258544921875" lon="-6.10950023867189884185791015625">
        <ele>945.5999755859375</ele>
        <time>2019-07-08T15:19:13.000Z</time>
      </trkpt>
      <trkpt lat="42.48305906541645526885986328125" lon="-6.1100984551012516021728515625">
        <ele>945.4000244140625</ele>
        <time>2019-07-08T15:19:16.000Z</time>
      </trkpt>
      <trkpt lat="42.4831416271626949310302734375" lon="-6.110299117863178253173828125">
        <ele>944.4000244140625</ele>
        <time>2019-07-08T15:19:17.000Z</time>
      </trkpt>
      <trkpt lat="42.48322268016636371612548828125" lon="-6.110500954091548919677734375">
        <ele>943.20001220703125</ele>
        <time>2019-07-08T15:19:18.000Z</time>
      </trkpt>
      <trkpt lat="42.48338185250759124755859375" lon="-6.11090856604278087615966796875">
        <ele>941.79998779296875</ele>
        <time>2019-07-08T15:19:20.000Z</time>
      </trkpt>
      <trkpt lat="42.48360715806484222412109375" lon="-6.111535616219043731689453125">
        <ele>941.5999755859375</ele>
        <time>2019-07-08T15:19:23.000Z</time>
      </trkpt>
      <trkpt lat="42.48381779529154300689697265625" lon="-6.11218613572418689727783203125">
        <ele>941.79998779296875</ele>
        <time>2019-07-08T15:19:26.000Z</time>
      </trkpt>
      <trkpt lat="42.48394888825714588165283203125" lon="-6.11263272352516651153564453125">
        <ele>943.20001220703125</ele>
        <time>2019-07-08T15:19:28.000Z</time>
      </trkpt>
      <trkpt lat="42.4840726889669895172119140625" lon="-6.1130882799625396728515625">
        <ele>944.79998779296875</ele>
        <time>2019-07-08T15:19:30.000Z</time>
      </trkpt>
      <trkpt lat="42.48418659903109073638916015625" lon="-6.1135523021221160888671875">
        <ele>946.79998779296875</ele>
        <time>2019-07-08T15:19:32.000Z</time>
      </trkpt>
      <trkpt lat="42.48423906974494457244873046875" lon="-6.11378674395382404327392578125">
        <ele>947.79998779296875</ele>
        <time>2019-07-08T15:19:33.000Z</time>
      </trkpt>
      <trkpt lat="42.484337389469146728515625" lon="-6.1142599023878574371337890625">
        <ele>949.20001220703125</ele>
        <time>2019-07-08T15:19:35.000Z</time>
      </trkpt>
      <trkpt lat="42.48446940444409847259521484375" lon="-6.11498250626027584075927734375">
        <ele>950.79998779296875</ele>
        <time>2019-07-08T15:19:38.000Z</time>
      </trkpt>
      <trkpt lat="42.48454081825911998748779296875" lon="-6.115473099052906036376953125">
        <ele>952</ele>
        <time>2019-07-08T15:19:40.000Z</time>
      </trkpt>
      <trkpt lat="42.4846047721803188323974609375" lon="-6.1159662902355194091796875">
        <ele>953.5999755859375</ele>
        <time>2019-07-08T15:19:42.000Z</time>
      </trkpt>
      <trkpt lat="42.48463436029851436614990234375" lon="-6.1162148974835872650146484375">
        <ele>955</ele>
        <time>2019-07-08T15:19:43.000Z</time>
      </trkpt>
      <trkpt lat="42.48466185294091701507568359375" lon="-6.116465516388416290283203125">
        <ele>956.4000244140625</ele>
        <time>2019-07-08T15:19:44.000Z</time>
      </trkpt>
      <trkpt lat="42.48471130616962909698486328125" lon="-6.11696968786418437957763671875">
        <ele>957.5999755859375</ele>
        <time>2019-07-08T15:19:46.000Z</time>
      </trkpt>
      <trkpt lat="42.4847767688333988189697265625" lon="-6.1177338659763336181640625">
        <ele>958</ele>
        <time>2019-07-08T15:19:49.000Z</time>
      </trkpt>
      <trkpt lat="42.4848548881709575653076171875" lon="-6.1185157299041748046875">
        <ele>958.5999755859375</ele>
        <time>2019-07-08T15:19:52.000Z</time>
      </trkpt>
      <trkpt lat="42.48488414101302623748779296875" lon="-6.11878001131117343902587890625">
        <ele>958.79998779296875</ele>
        <time>2019-07-08T15:19:53.000Z</time>
      </trkpt>
      <trkpt lat="42.48500182293355464935302734375" lon="-6.1195738613605499267578125">
        <ele>960</ele>
        <time>2019-07-08T15:19:56.000Z</time>
      </trkpt>
      <trkpt lat="42.48511145822703838348388671875" lon="-6.12010133452713489532470703125">
        <ele>961.4000244140625</ele>
        <time>2019-07-08T15:19:58.000Z</time>
      </trkpt>
      <trkpt lat="42.485238946974277496337890625" lon="-6.1206284724175930023193359375">
        <ele>962.4000244140625</ele>
        <time>2019-07-08T15:20:00.000Z</time>
      </trkpt>
      <trkpt lat="42.48538504354655742645263671875" lon="-6.12115569412708282470703125">
        <ele>963.79998779296875</ele>
        <time>2019-07-08T15:20:02.000Z</time>
      </trkpt>
      <trkpt lat="42.48555636964738368988037109375" lon="-6.1216798983514308929443359375">
        <ele>965</ele>
        <time>2019-07-08T15:20:04.000Z</time>
      </trkpt>
      <trkpt lat="42.48575292527675628662109375" lon="-6.12219773232936859130859375">
        <ele>966.4000244140625</ele>
        <time>2019-07-08T15:20:06.000Z</time>
      </trkpt>
      <trkpt lat="42.4860933981835842132568359375" lon="-6.122967191040515899658203125">
        <ele>967</ele>
        <time>2019-07-08T15:20:09.000Z</time>
      </trkpt>
      <trkpt lat="42.4863515608012676239013671875" lon="-6.1234679259359836578369140625">
        <ele>967</ele>
        <time>2019-07-08T15:20:11.000Z</time>
      </trkpt>
      <trkpt lat="42.486640401184558868408203125" lon="-6.12395700998604297637939453125">
        <ele>967.5999755859375</ele>
        <time>2019-07-08T15:20:13.000Z</time>
      </trkpt>
      <trkpt lat="42.486957572400569915771484375" lon="-6.12443159334361553192138671875">
        <ele>970</ele>
        <time>2019-07-08T15:20:15.000Z</time>
      </trkpt>
      <trkpt lat="42.4871257133781909942626953125" lon="-6.1246625147759914398193359375">
        <ele>972.20001220703125</ele>
        <time>2019-07-08T15:20:16.000Z</time>
      </trkpt>
      <trkpt lat="42.48729846440255641937255859375" lon="-6.12488396465778350830078125">
        <ele>974.20001220703125</ele>
        <time>2019-07-08T15:20:17.000Z</time>
      </trkpt>
      <trkpt lat="42.487472556531429290771484375" lon="-6.12509527243673801422119140625">
        <ele>975.79998779296875</ele>
        <time>2019-07-08T15:20:18.000Z</time>
      </trkpt>
      <trkpt lat="42.48764614574611186981201171875" lon="-6.1252935044467449188232421875">
        <ele>977.4000244140625</ele>
        <time>2019-07-08T15:20:19.000Z</time>
      </trkpt>
      <trkpt lat="42.48781931586563587188720703125" lon="-6.1254802532494068145751953125">
        <ele>978.4000244140625</ele>
        <time>2019-07-08T15:20:20.000Z</time>
      </trkpt>
      <trkpt lat="42.48834620229899883270263671875" lon="-6.1259935609996318817138671875">
        <ele>979.4000244140625</ele>
        <time>2019-07-08T15:20:23.000Z</time>
      </trkpt>
      <trkpt lat="42.4887053668498992919921875" lon="-6.12630017101764678955078125">
        <ele>977.79998779296875</ele>
        <time>2019-07-08T15:20:25.000Z</time>
      </trkpt>
      <trkpt lat="42.48906972818076610565185546875" lon="-6.12657115794718265533447265625">
        <ele>975.79998779296875</ele>
        <time>2019-07-08T15:20:27.000Z</time>
      </trkpt>
      <trkpt lat="42.48925245366990566253662109375" lon="-6.126696132123470306396484375">
        <ele>974.5999755859375</ele>
        <time>2019-07-08T15:20:28.000Z</time>
      </trkpt>
      <trkpt lat="42.48980733565986156463623046875" lon="-6.12702461890876293182373046875">
        <ele>974.4000244140625</ele>
        <time>2019-07-08T15:20:31.000Z</time>
      </trkpt>
      <trkpt lat="42.4903587810695171356201171875" lon="-6.12728110514581203460693359375">
        <ele>975.5999755859375</ele>
        <time>2019-07-08T15:20:34.000Z</time>
      </trkpt>
      <trkpt lat="42.49092196114361286163330078125" lon="-6.12749484367668628692626953125">
        <ele>975.5999755859375</ele>
        <time>2019-07-08T15:20:37.000Z</time>
      </trkpt>
      <trkpt lat="42.4915111251175403594970703125" lon="-6.12765477038919925689697265625">
        <ele>974.5999755859375</ele>
        <time>2019-07-08T15:20:40.000Z</time>
      </trkpt>
      <trkpt lat="42.49211671762168407440185546875" lon="-6.12775552086532115936279296875">
        <ele>974</ele>
        <time>2019-07-08T15:20:43.000Z</time>
      </trkpt>
      <trkpt lat="42.4927072227001190185546875" lon="-6.1277841031551361083984375">
        <ele>973.5999755859375</ele>
        <time>2019-07-08T15:20:46.000Z</time>
      </trkpt>
      <trkpt lat="42.49333192594349384307861328125" lon="-6.12775552086532115936279296875">
        <ele>973.5999755859375</ele>
        <time>2019-07-08T15:20:49.000Z</time>
      </trkpt>
      <trkpt lat="42.49397682957351207733154296875" lon="-6.1276508308947086334228515625">
        <ele>974.4000244140625</ele>
        <time>2019-07-08T15:20:52.000Z</time>
      </trkpt>
      <trkpt lat="42.49463682062923908233642578125" lon="-6.1274676024913787841796875">
        <ele>976</ele>
        <time>2019-07-08T15:20:55.000Z</time>
      </trkpt>
      <trkpt lat="42.4950938858091831207275390625" lon="-6.1272920854389667510986328125">
        <ele>977.4000244140625</ele>
        <time>2019-07-08T15:20:57.000Z</time>
      </trkpt>
      <trkpt lat="42.49556578695774078369140625" lon="-6.1270754970610141754150390625">
        <ele>978.4000244140625</ele>
        <time>2019-07-08T15:20:59.000Z</time>
      </trkpt>
      <trkpt lat="42.49603894539177417755126953125" lon="-6.12681825645267963409423828125">
        <ele>978.4000244140625</ele>
        <time>2019-07-08T15:21:01.000Z</time>
      </trkpt>
      <trkpt lat="42.4965007044374942779541015625" lon="-6.12651583738625049591064453125">
        <ele>977.79998779296875</ele>
        <time>2019-07-08T15:21:03.000Z</time>
      </trkpt>
      <trkpt lat="42.4967263452708721160888671875" lon="-6.1263491213321685791015625">
        <ele>976.79998779296875</ele>
        <time>2019-07-08T15:21:04.000Z</time>
      </trkpt>
      <trkpt lat="42.49716438353061676025390625" lon="-6.1259895376861095428466796875">
        <ele>976.20001220703125</ele>
        <time>2019-07-08T15:21:06.000Z</time>
      </trkpt>
      <trkpt lat="42.49758859165012836456298828125" lon="-6.1255932413041591644287109375">
        <ele>976.5999755859375</ele>
        <time>2019-07-08T15:21:08.000Z</time>
      </trkpt>
      <trkpt lat="42.49780182726681232452392578125" lon="-6.125371791422367095947265625">
        <ele>978</ele>
        <time>2019-07-08T15:21:09.000Z</time>
      </trkpt>
      <trkpt lat="42.4982307292520999908447265625" lon="-6.12487885169684886932373046875">
        <ele>979.79998779296875</ele>
        <time>2019-07-08T15:21:11.000Z</time>
      </trkpt>
      <trkpt lat="42.49863901175558567047119140625" lon="-6.12435012124478816986083984375">
        <ele>979</ele>
        <time>2019-07-08T15:21:13.000Z</time>
      </trkpt>
      <trkpt lat="42.4988369084894657135009765625" lon="-6.124078966677188873291015625">
        <ele>977.5999755859375</ele>
        <time>2019-07-08T15:21:14.000Z</time>
      </trkpt>
      <trkpt lat="42.49903363175690174102783203125" lon="-6.12380647100508213043212890625">
        <ele>976</ele>
        <time>2019-07-08T15:21:15.000Z</time>
      </trkpt>
      <trkpt lat="42.49943085014820098876953125" lon="-6.12326323986053466796875">
        <ele>974.5999755859375</ele>
        <time>2019-07-08T15:21:17.000Z</time>
      </trkpt>
      <trkpt lat="42.499829828739166259765625" lon="-6.12272336147725582122802734375">
        <ele>973.79998779296875</ele>
        <time>2019-07-08T15:21:19.000Z</time>
      </trkpt>
      <trkpt lat="42.50024682842195034027099609375" lon="-6.1221943795680999755859375">
        <ele>976.79998779296875</ele>
        <time>2019-07-08T15:21:21.000Z</time>
      </trkpt>
      <trkpt lat="42.50046081840991973876953125" lon="-6.12193621695041656494140625">
        <ele>980</ele>
        <time>2019-07-08T15:21:22.000Z</time>
      </trkpt>
      <trkpt lat="42.50067832879722118377685546875" lon="-6.12168350256979465484619140625">
        <ele>983.4000244140625</ele>
        <time>2019-07-08T15:21:23.000Z</time>
      </trkpt>
      <trkpt lat="42.5009005330502986907958984375" lon="-6.12143623642623424530029296875">
        <ele>985.5999755859375</ele>
        <time>2019-07-08T15:21:24.000Z</time>
      </trkpt>
      <trkpt lat="42.501125335693359375" lon="-6.12119433470070362091064453125">
        <ele>986.79998779296875</ele>
        <time>2019-07-08T15:21:25.000Z</time>
      </trkpt>
      <trkpt lat="42.50158390961587429046630859375" lon="-6.1207263730466365814208984375">
        <ele>989</ele>
        <time>2019-07-08T15:21:27.000Z</time>
      </trkpt>
      <trkpt lat="42.502057738602161407470703125" lon="-6.1202764324843883514404296875">
        <ele>989.79998779296875</ele>
        <time>2019-07-08T15:21:29.000Z</time>
      </trkpt>
      <trkpt lat="42.50254900194704532623291015625" lon="-6.11984266899526119232177734375">
        <ele>989.4000244140625</ele>
        <time>2019-07-08T15:21:31.000Z</time>
      </trkpt>
      <trkpt lat="42.5027988664805889129638671875" lon="-6.11963756382465362548828125">
        <ele>989.79998779296875</ele>
        <time>2019-07-08T15:21:32.000Z</time>
      </trkpt>
      <trkpt lat="42.50305116176605224609375" lon="-6.11944050528109073638916015625">
        <ele>991.20001220703125</ele>
        <time>2019-07-08T15:21:33.000Z</time>
      </trkpt>
      <trkpt lat="42.50330622307956218719482421875" lon="-6.119250319898128509521484375">
        <ele>992.5999755859375</ele>
        <time>2019-07-08T15:21:34.000Z</time>
      </trkpt>
      <trkpt lat="42.503563463687896728515625" lon="-6.11906516365706920623779296875">
        <ele>995.79998779296875</ele>
        <time>2019-07-08T15:21:35.000Z</time>
      </trkpt>
      <trkpt lat="42.50382355414330959320068359375" lon="-6.11888327635824680328369140625">
        <ele>998.20001220703125</ele>
        <time>2019-07-08T15:21:36.000Z</time>
      </trkpt>
      <trkpt lat="42.5040863268077373504638671875" lon="-6.1187086813151836395263671875">
        <ele>999.5999755859375</ele>
        <time>2019-07-08T15:21:37.000Z</time>
      </trkpt>
      <trkpt lat="42.5043498538434505462646484375" lon="-6.118540875613689422607421875">
        <ele>1000.79998779296875</ele>
        <time>2019-07-08T15:21:38.000Z</time>
      </trkpt>
      <trkpt lat="42.504884786903858184814453125" lon="-6.11822479404509067535400390625">
        <ele>1002.20001220703125</ele>
        <time>2019-07-08T15:21:40.000Z</time>
      </trkpt>
      <trkpt lat="42.50543170608580112457275390625" lon="-6.11793243326246738433837890625">
        <ele>1002.79998779296875</ele>
        <time>2019-07-08T15:21:42.000Z</time>
      </trkpt>
      <trkpt lat="42.5057093985378742218017578125" lon="-6.11779622733592987060546875">
        <ele>1003.4000244140625</ele>
        <time>2019-07-08T15:21:43.000Z</time>
      </trkpt>
      <trkpt lat="42.50626780092716217041015625" lon="-6.11754477024078369140625">
        <ele>1004</ele>
        <time>2019-07-08T15:21:45.000Z</time>
      </trkpt>
      <trkpt lat="42.5068272091448307037353515625" lon="-6.11732675693929195404052734375">
        <ele>1004</ele>
        <time>2019-07-08T15:21:47.000Z</time>
      </trkpt>
      <trkpt lat="42.507389970123767852783203125" lon="-6.117136739194393157958984375">
        <ele>1004</ele>
        <time>2019-07-08T15:21:49.000Z</time>
      </trkpt>
      <trkpt lat="42.50795423984527587890625" lon="-6.11697052605450153350830078125">
        <ele>1003.5999755859375</ele>
        <time>2019-07-08T15:21:51.000Z</time>
      </trkpt>
      <trkpt lat="42.5085166655480861663818359375" lon="-6.116839013993740081787109375">
        <ele>1002.79998779296875</ele>
        <time>2019-07-08T15:21:53.000Z</time>
      </trkpt>
      <trkpt lat="42.50906375236809253692626953125" lon="-6.11673809587955474853515625">
        <ele>1002.4000244140625</ele>
        <time>2019-07-08T15:21:55.000Z</time>
      </trkpt>
      <trkpt lat="42.5096123479306697845458984375" lon="-6.116659305989742279052734375">
        <ele>1001</ele>
        <time>2019-07-08T15:21:57.000Z</time>
      </trkpt>
      <trkpt lat="42.51016563735902309417724609375" lon="-6.11660826019942760467529296875">
        <ele>998.79998779296875</ele>
        <time>2019-07-08T15:21:59.000Z</time>
      </trkpt>
      <trkpt lat="42.51044458709657192230224609375" lon="-6.116591580212116241455078125">
        <ele>997.5999755859375</ele>
        <time>2019-07-08T15:22:00.000Z</time>
      </trkpt>
      <trkpt lat="42.51072487793862819671630859375" lon="-6.1165806837379932403564453125">
        <ele>996.5999755859375</ele>
        <time>2019-07-08T15:22:01.000Z</time>
      </trkpt>
      <trkpt lat="42.51128462143242359161376953125" lon="-6.11658093519508838653564453125">
        <ele>995.20001220703125</ele>
        <time>2019-07-08T15:22:03.000Z</time>
      </trkpt>
      <trkpt lat="42.5118540041148662567138671875" lon="-6.11660976894199848175048828125">
        <ele>994</ele>
        <time>2019-07-08T15:22:05.000Z</time>
      </trkpt>
      <trkpt lat="42.51244568265974521636962890625" lon="-6.11666324548423290252685546875">
        <ele>993.4000244140625</ele>
        <time>2019-07-08T15:22:07.000Z</time>
      </trkpt>
      <trkpt lat="42.512748353183269500732421875" lon="-6.11670113168656826019287109375">
        <ele>993</ele>
        <time>2019-07-08T15:22:08.000Z</time>
      </trkpt>
      <trkpt lat="42.5133567117154598236083984375" lon="-6.11680288799107074737548828125">
        <ele>992</ele>
        <time>2019-07-08T15:22:10.000Z</time>
      </trkpt>
      <trkpt lat="42.51365988515317440032958984375" lon="-6.1168646626174449920654296875">
        <ele>991</ele>
        <time>2019-07-08T15:22:11.000Z</time>
      </trkpt>
      <trkpt lat="42.5142614543437957763671875" lon="-6.117008663713932037353515625">
        <ele>990</ele>
        <time>2019-07-08T15:22:13.000Z</time>
      </trkpt>
      <trkpt lat="42.5145576708018779754638671875" lon="-6.117090471088886260986328125">
        <ele>989.79998779296875</ele>
        <time>2019-07-08T15:22:14.000Z</time>
      </trkpt>
      <trkpt lat="42.51513929106295108795166015625" lon="-6.1172752082347869873046875">
        <ele>990</ele>
        <time>2019-07-08T15:22:16.000Z</time>
      </trkpt>
      <trkpt lat="42.5157113559544086456298828125" lon="-6.11749020405113697052001953125">
        <ele>991.4000244140625</ele>
        <time>2019-07-08T15:22:18.000Z</time>
      </trkpt>
      <trkpt lat="42.51599575392901897430419921875" lon="-6.11760822124779224395751953125">
        <ele>992.5999755859375</ele>
        <time>2019-07-08T15:22:19.000Z</time>
      </trkpt>
      <trkpt lat="42.516562454402446746826171875" lon="-6.117862947285175323486328125">
        <ele>994</ele>
        <time>2019-07-08T15:22:21.000Z</time>
      </trkpt>
      <trkpt lat="42.51684316433966159820556640625" lon="-6.11800007522106170654296875">
        <ele>995.20001220703125</ele>
        <time>2019-07-08T15:22:22.000Z</time>
      </trkpt>
      <trkpt lat="42.51712270081043243408203125" lon="-6.11814281903207302093505859375">
        <ele>996.79998779296875</ele>
        <time>2019-07-08T15:22:23.000Z</time>
      </trkpt>
      <trkpt lat="42.51739871688187122344970703125" lon="-6.118292771279811859130859375">
        <ele>998.20001220703125</ele>
        <time>2019-07-08T15:22:24.000Z</time>
      </trkpt>
      <trkpt lat="42.51767163164913654327392578125" lon="-6.1184505186975002288818359375">
        <ele>999.20001220703125</ele>
        <time>2019-07-08T15:22:25.000Z</time>
      </trkpt>
      <trkpt lat="42.51794085837900638580322265625" lon="-6.118616648018360137939453125">
        <ele>1000.5999755859375</ele>
        <time>2019-07-08T15:22:26.000Z</time>
      </trkpt>
      <trkpt lat="42.5182054750621318817138671875" lon="-6.11878789030015468597412109375">
        <ele>1001.79998779296875</ele>
        <time>2019-07-08T15:22:27.000Z</time>
      </trkpt>
      <trkpt lat="42.51846640370786190032958984375" lon="-6.1189644969999790191650390625">
        <ele>1003.20001220703125</ele>
        <time>2019-07-08T15:22:28.000Z</time>
      </trkpt>
      <trkpt lat="42.518979795277118682861328125" lon="-6.1193457059562206268310546875">
        <ele>1004.79998779296875</ele>
        <time>2019-07-08T15:22:30.000Z</time>
      </trkpt>
      <trkpt lat="42.51923200674355030059814453125" lon="-6.11954846419394016265869140625">
        <ele>1006.20001220703125</ele>
        <time>2019-07-08T15:22:31.000Z</time>
      </trkpt>
      <trkpt lat="42.5194835476577281951904296875" lon="-6.1197554133832454681396484375">
        <ele>1007.79998779296875</ele>
        <time>2019-07-08T15:22:32.000Z</time>
      </trkpt>
      <trkpt lat="42.5197343342006206512451171875" lon="-6.1199654638767242431640625">
        <ele>1009.5999755859375</ele>
        <time>2019-07-08T15:22:33.000Z</time>
      </trkpt>
      <trkpt lat="42.51998369581997394561767578125" lon="-6.12018096260726451873779296875">
        <ele>1011</ele>
        <time>2019-07-08T15:22:34.000Z</time>
      </trkpt>
      <trkpt lat="42.5202302075922489166259765625" lon="-6.12040425650775432586669921875">
        <ele>1012.4000244140625</ele>
        <time>2019-07-08T15:22:35.000Z</time>
      </trkpt>
      <trkpt lat="42.5204752944409847259521484375" lon="-6.12063526175916194915771484375">
        <ele>1013.4000244140625</ele>
        <time>2019-07-08T15:22:36.000Z</time>
      </trkpt>
      <trkpt lat="42.52096152864396572113037109375" lon="-6.12111772410571575164794921875">
        <ele>1015</ele>
        <time>2019-07-08T15:22:38.000Z</time>
      </trkpt>
      <trkpt lat="42.5214432366192340850830078125" lon="-6.1216225661337375640869140625">
        <ele>1017.20001220703125</ele>
        <time>2019-07-08T15:22:40.000Z</time>
      </trkpt>
      <trkpt lat="42.52191455103456974029541015625" lon="-6.1221580021083354949951171875">
        <ele>1019</ele>
        <time>2019-07-08T15:22:42.000Z</time>
      </trkpt>
      <trkpt lat="42.52237044274806976318359375" lon="-6.12272746860980987548828125">
        <ele>1019.79998779296875</ele>
        <time>2019-07-08T15:22:44.000Z</time>
      </trkpt>
      <trkpt lat="42.5225918926298618316650390625" lon="-6.12302226014435291290283203125">
        <ele>1020.5999755859375</ele>
        <time>2019-07-08T15:22:45.000Z</time>
      </trkpt>
      <trkpt lat="42.522807978093624114990234375" lon="-6.1233247630298137664794921875">
        <ele>1021.5999755859375</ele>
        <time>2019-07-08T15:22:46.000Z</time>
      </trkpt>
      <trkpt lat="42.5230207107961177825927734375" lon="-6.1236298643052577972412109375">
        <ele>1022.79998779296875</ele>
        <time>2019-07-08T15:22:47.000Z</time>
      </trkpt>
      <trkpt lat="42.52322916872799396514892578125" lon="-6.12393706105649471282958984375">
        <ele>1024.4000244140625</ele>
        <time>2019-07-08T15:22:48.000Z</time>
      </trkpt>
      <trkpt lat="42.5236289016902446746826171875" lon="-6.12456184811890125274658203125">
        <ele>1026</ele>
        <time>2019-07-08T15:22:50.000Z</time>
      </trkpt>
      <trkpt lat="42.5240030698478221893310546875" lon="-6.125197447836399078369140625">
        <ele>1026.199951171875</ele>
        <time>2019-07-08T15:22:52.000Z</time>
      </trkpt>
      <trkpt lat="42.5243546068668365478515625" lon="-6.12584712915122509002685546875">
        <ele>1026.5999755859375</ele>
        <time>2019-07-08T15:22:54.000Z</time>
      </trkpt>
      <trkpt lat="42.5246927328407764434814453125" lon="-6.126511730253696441650390625">
        <ele>1026.800048828125</ele>
        <time>2019-07-08T15:22:56.000Z</time>
      </trkpt>
      <trkpt lat="42.52501434646546840667724609375" lon="-6.1271901614964008331298828125">
        <ele>1026.5999755859375</ele>
        <time>2019-07-08T15:22:58.000Z</time>
      </trkpt>
      <trkpt lat="42.52531559206545352935791015625" lon="-6.12788124941289424896240234375">
        <ele>1027.199951171875</ele>
        <time>2019-07-08T15:23:00.000Z</time>
      </trkpt>
      <trkpt lat="42.52559420652687549591064453125" lon="-6.128590106964111328125">
        <ele>1027.4000244140625</ele>
        <time>2019-07-08T15:23:02.000Z</time>
      </trkpt>
      <trkpt lat="42.52585521899163722991943359375" lon="-6.12931455485522747039794921875">
        <ele>1027.800048828125</ele>
        <time>2019-07-08T15:23:04.000Z</time>
      </trkpt>
      <trkpt lat="42.5260961987078189849853515625" lon="-6.13005685620009899139404296875">
        <ele>1027.800048828125</ele>
        <time>2019-07-08T15:23:06.000Z</time>
      </trkpt>
      <trkpt lat="42.52632209099829196929931640625" lon="-6.13081407733261585235595703125">
        <ele>1027</ele>
        <time>2019-07-08T15:23:08.000Z</time>
      </trkpt>
      <trkpt lat="42.52642937935888767242431640625" lon="-6.13119897432625293731689453125">
        <ele>1026</ele>
        <time>2019-07-08T15:23:09.000Z</time>
      </trkpt>
      <trkpt lat="42.526625096797943115234375" lon="-6.13198201172053813934326171875">
        <ele>1025</ele>
        <time>2019-07-08T15:23:11.000Z</time>
      </trkpt>
      <trkpt lat="42.52680187113583087921142578125" lon="-6.132778041064739227294921875">
        <ele>1024.5999755859375</ele>
        <time>2019-07-08T15:23:13.000Z</time>
      </trkpt>
      <trkpt lat="42.5269766338169574737548828125" lon="-6.13358094356954097747802734375">
        <ele>1025</ele>
        <time>2019-07-08T15:23:15.000Z</time>
      </trkpt>
      <trkpt lat="42.527064979076385498046875" lon="-6.13398394547402858734130859375">
        <ele>1026.4000244140625</ele>
        <time>2019-07-08T15:23:16.000Z</time>
      </trkpt>
      <trkpt lat="42.5272468663752079010009765625" lon="-6.1347912065684795379638671875">
        <ele>1028.4000244140625</ele>
        <time>2019-07-08T15:23:18.000Z</time>
      </trkpt>
      <trkpt lat="42.52733915112912654876708984375" lon="-6.135196387767791748046875">
        <ele>1029.800048828125</ele>
        <time>2019-07-08T15:23:19.000Z</time>
      </trkpt>
      <trkpt lat="42.5274319387972354888916015625" lon="-6.135601736605167388916015625">
        <ele>1031</ele>
        <time>2019-07-08T15:23:20.000Z</time>
      </trkpt>
      <trkpt lat="42.52752640284597873687744140625" lon="-6.1360075883567333221435546875">
        <ele>1032.199951171875</ele>
        <time>2019-07-08T15:23:21.000Z</time>
      </trkpt>
      <trkpt lat="42.5276233814656734466552734375" lon="-6.1364132724702358245849609375">
        <ele>1033.4000244140625</ele>
        <time>2019-07-08T15:23:22.000Z</time>
      </trkpt>
      <trkpt lat="42.52772270701825618743896484375" lon="-6.1368189565837383270263671875">
        <ele>1034.5999755859375</ele>
        <time>2019-07-08T15:23:23.000Z</time>
      </trkpt>
      <trkpt lat="42.5279284827411174774169921875" lon="-6.13762537948787212371826171875">
        <ele>1036</ele>
        <time>2019-07-08T15:23:25.000Z</time>
      </trkpt>
      <trkpt lat="42.52814431674778461456298828125" lon="-6.138420403003692626953125">
        <ele>1036.4000244140625</ele>
        <time>2019-07-08T15:23:27.000Z</time>
      </trkpt>
      <trkpt lat="42.52837616018950939178466796875" lon="-6.13921366631984710693359375">
        <ele>1036.199951171875</ele>
        <time>2019-07-08T15:23:29.000Z</time>
      </trkpt>
      <trkpt lat="42.52862426452338695526123046875" lon="-6.1400027386844158172607421875">
        <ele>1035.4000244140625</ele>
        <time>2019-07-08T15:23:31.000Z</time>
      </trkpt>
      <trkpt lat="42.52888762392103672027587890625" lon="-6.14077613689005374908447265625">
        <ele>1036</ele>
        <time>2019-07-08T15:23:33.000Z</time>
      </trkpt>
      <trkpt lat="42.529162801802158355712890625" lon="-6.14152916707098484039306640625">
        <ele>1036.199951171875</ele>
        <time>2019-07-08T15:23:35.000Z</time>
      </trkpt>
      <trkpt lat="42.52930420450866222381591796875" lon="-6.14190132357180118560791015625">
        <ele>1037.4000244140625</ele>
        <time>2019-07-08T15:23:36.000Z</time>
      </trkpt>
      <trkpt lat="42.529449462890625" lon="-6.1422692053020000457763671875">
        <ele>1038.4000244140625</ele>
        <time>2019-07-08T15:23:37.000Z</time>
      </trkpt>
      <trkpt lat="42.52959765493869781494140625" lon="-6.14263356663286685943603515625">
        <ele>1039.800048828125</ele>
        <time>2019-07-08T15:23:38.000Z</time>
      </trkpt>
      <trkpt lat="42.529896385967731475830078125" lon="-6.14335826598107814788818359375">
        <ele>1039.800048828125</ele>
        <time>2019-07-08T15:23:40.000Z</time>
      </trkpt>
      <trkpt lat="42.53019469790160655975341796875" lon="-6.14403971470892429351806640625">
        <ele>1040.5999755859375</ele>
        <time>2019-07-08T15:23:42.000Z</time>
      </trkpt>
      <trkpt lat="42.530340291559696197509765625" lon="-6.1443623341619968414306640625">
        <ele>1041.199951171875</ele>
        <time>2019-07-08T15:23:43.000Z</time>
      </trkpt>
      <trkpt lat="42.530638016760349273681640625" lon="-6.1449899710714817047119140625">
        <ele>1042.800048828125</ele>
        <time>2019-07-08T15:23:45.000Z</time>
      </trkpt>
      <trkpt lat="42.530792914330959320068359375" lon="-6.1453016102313995361328125">
        <ele>1044</ele>
        <time>2019-07-08T15:23:46.000Z</time>
      </trkpt>
      <trkpt lat="42.53095057792961597442626953125" lon="-6.145615763962268829345703125">
        <ele>1045.199951171875</ele>
        <time>2019-07-08T15:23:47.000Z</time>
      </trkpt>
      <trkpt lat="42.5312752090394496917724609375" lon="-6.1462489329278469085693359375">
        <ele>1046.800048828125</ele>
        <time>2019-07-08T15:23:49.000Z</time>
      </trkpt>
      <trkpt lat="42.531624399125576019287109375" lon="-6.1468933336436748504638671875">
        <ele>1048</ele>
        <time>2019-07-08T15:23:51.000Z</time>
      </trkpt>
      <trkpt lat="42.5320044346153736114501953125" lon="-6.14754728972911834716796875">
        <ele>1049</ele>
        <time>2019-07-08T15:23:53.000Z</time>
      </trkpt>
      <trkpt lat="42.5323983840644359588623046875" lon="-6.1482052691280841827392578125">
        <ele>1048.800048828125</ele>
        <time>2019-07-08T15:23:55.000Z</time>
      </trkpt>
      <trkpt lat="42.53259879536926746368408203125" lon="-6.14853040315210819244384765625">
        <ele>1046.5999755859375</ele>
        <time>2019-07-08T15:23:56.000Z</time>
      </trkpt>
      <trkpt lat="42.53280281089246273040771484375" lon="-6.1488528549671173095703125">
        <ele>1043</ele>
        <time>2019-07-08T15:23:57.000Z</time>
      </trkpt>
      <trkpt lat="42.53301076591014862060546875" lon="-6.14917363040149211883544921875">
        <ele>1041.5999755859375</ele>
        <time>2019-07-08T15:23:58.000Z</time>
      </trkpt>
      <trkpt lat="42.53343447111546993255615234375" lon="-6.1498130857944488525390625">
        <ele>1039.800048828125</ele>
        <time>2019-07-08T15:24:00.000Z</time>
      </trkpt>
      <trkpt lat="42.53387083299458026885986328125" lon="-6.15043695084750652313232421875">
        <ele>1040.800048828125</ele>
        <time>2019-07-08T15:24:02.000Z</time>
      </trkpt>
      <trkpt lat="42.53409437835216522216796875" lon="-6.15074087865650653839111328125">
        <ele>1042</ele>
        <time>2019-07-08T15:24:03.000Z</time>
      </trkpt>
      <trkpt lat="42.534320019185543060302734375" lon="-6.15104095079004764556884765625">
        <ele>1045.199951171875</ele>
        <time>2019-07-08T15:24:04.000Z</time>
      </trkpt>
      <trkpt lat="42.53454674966633319854736328125" lon="-6.15134018473327159881591796875">
        <ele>1049.4000244140625</ele>
        <time>2019-07-08T15:24:05.000Z</time>
      </trkpt>
      <trkpt lat="42.5347758270800113677978515625" lon="-6.15163656882941722869873046875">
        <ele>1054.199951171875</ele>
        <time>2019-07-08T15:24:06.000Z</time>
      </trkpt>
      <trkpt lat="42.535006999969482421875" lon="-6.1519285105168819427490234375">
        <ele>1056.5999755859375</ele>
        <time>2019-07-08T15:24:07.000Z</time>
      </trkpt>
      <trkpt lat="42.535242028534412384033203125" lon="-6.1522148363292217254638671875">
        <ele>1058</ele>
        <time>2019-07-08T15:24:08.000Z</time>
      </trkpt>
      <trkpt lat="42.53547932021319866180419921875" lon="-6.15249621681869029998779296875">
        <ele>1059.800048828125</ele>
        <time>2019-07-08T15:24:09.000Z</time>
      </trkpt>
      <trkpt lat="42.5357192941009998321533203125" lon="-6.152774579823017120361328125">
        <ele>1062.199951171875</ele>
        <time>2019-07-08T15:24:10.000Z</time>
      </trkpt>
      <trkpt lat="42.5359620340168476104736328125" lon="-6.153049506247043609619140625">
        <ele>1064.800048828125</ele>
        <time>2019-07-08T15:24:11.000Z</time>
      </trkpt>
      <trkpt lat="42.5362071208655834197998046875" lon="-6.1533212475478649139404296875">
        <ele>1066.800048828125</ele>
        <time>2019-07-08T15:24:12.000Z</time>
      </trkpt>
      <trkpt lat="42.53645413555204868316650390625" lon="-6.15359005518257617950439453125">
        <ele>1068.199951171875</ele>
        <time>2019-07-08T15:24:13.000Z</time>
      </trkpt>
      <trkpt lat="42.53670257516205310821533203125" lon="-6.1538546718657016754150390625">
        <ele>1069.4000244140625</ele>
        <time>2019-07-08T15:24:14.000Z</time>
      </trkpt>
      <trkpt lat="42.5369527749717235565185546875" lon="-6.15411333739757537841796875">
        <ele>1070.5999755859375</ele>
        <time>2019-07-08T15:24:15.000Z</time>
      </trkpt>
      <trkpt lat="42.5372038967907428741455078125" lon="-6.1543666385114192962646484375">
        <ele>1071.5999755859375</ele>
        <time>2019-07-08T15:24:16.000Z</time>
      </trkpt>
      <trkpt lat="42.53745694644749164581298828125" lon="-6.1546150781214237213134765625">
        <ele>1072.800048828125</ele>
        <time>2019-07-08T15:24:17.000Z</time>
      </trkpt>
      <trkpt lat="42.53796958364546298980712890625" lon="-6.15510080941021442413330078125">
        <ele>1074.800048828125</ele>
        <time>2019-07-08T15:24:19.000Z</time>
      </trkpt>
      <trkpt lat="42.538229338824748992919921875" lon="-6.15533801726996898651123046875">
        <ele>1076</ele>
        <time>2019-07-08T15:24:20.000Z</time>
      </trkpt>
      <trkpt lat="42.5387595780193805694580078125" lon="-6.15580447018146514892578125">
        <ele>1077.4000244140625</ele>
        <time>2019-07-08T15:24:22.000Z</time>
      </trkpt>
      <trkpt lat="42.53930062986910343170166015625" lon="-6.1562562547624111175537109375">
        <ele>1078.800048828125</ele>
        <time>2019-07-08T15:24:24.000Z</time>
      </trkpt>
      <trkpt lat="42.53957354463636875152587890625" lon="-6.15647577680647373199462890625">
        <ele>1079.800048828125</ele>
        <time>2019-07-08T15:24:25.000Z</time>
      </trkpt>
      <trkpt lat="42.540124990046024322509765625" lon="-6.15690258331596851348876953125">
        <ele>1081.199951171875</ele>
        <time>2019-07-08T15:24:27.000Z</time>
      </trkpt>
      <trkpt lat="42.54068096168339252471923828125" lon="-6.15732084028422832489013671875">
        <ele>1081.5999755859375</ele>
        <time>2019-07-08T15:24:29.000Z</time>
      </trkpt>
      <trkpt lat="42.54124204628169536590576171875" lon="-6.15773155353963375091552734375">
        <ele>1080.4000244140625</ele>
        <time>2019-07-08T15:24:31.000Z</time>
      </trkpt>
      <trkpt lat="42.54152401350438594818115234375" lon="-6.15793691016733646392822265625">
        <ele>1079</ele>
        <time>2019-07-08T15:24:32.000Z</time>
      </trkpt>
      <trkpt lat="42.5418065674602985382080078125" lon="-6.15814268589019775390625">
        <ele>1077.199951171875</ele>
        <time>2019-07-08T15:24:33.000Z</time>
      </trkpt>
      <trkpt lat="42.5423741899430751800537109375" lon="-6.158556751906871795654296875">
        <ele>1075.800048828125</ele>
        <time>2019-07-08T15:24:35.000Z</time>
      </trkpt>
      <trkpt lat="42.54293753765523433685302734375" lon="-6.1589843966066837310791015625">
        <ele>1075.199951171875</ele>
        <time>2019-07-08T15:24:37.000Z</time>
      </trkpt>
      <trkpt lat="42.543483115732669830322265625" lon="-6.15943475626409053802490234375">
        <ele>1074</ele>
        <time>2019-07-08T15:24:39.000Z</time>
      </trkpt>
      <trkpt lat="42.5440022908151149749755859375" lon="-6.1599161289632320404052734375">
        <ele>1073.199951171875</ele>
        <time>2019-07-08T15:24:41.000Z</time>
      </trkpt>
      <trkpt lat="42.54449791274964809417724609375" lon="-6.16042415611445903778076171875">
        <ele>1072.800048828125</ele>
        <time>2019-07-08T15:24:43.000Z</time>
      </trkpt>
      <trkpt lat="42.54496931098401546478271484375" lon="-6.16096864454448223114013671875">
        <ele>1072.199951171875</ele>
        <time>2019-07-08T15:24:45.000Z</time>
      </trkpt>
      <trkpt lat="42.54519470036029815673828125" lon="-6.16124994121491909027099609375">
        <ele>1071.4000244140625</ele>
        <time>2019-07-08T15:24:46.000Z</time>
      </trkpt>
      <trkpt lat="42.545626200735569000244140625" lon="-6.16182594560086727142333984375">
        <ele>1070.199951171875</ele>
        <time>2019-07-08T15:24:48.000Z</time>
      </trkpt>
      <trkpt lat="42.546031884849071502685546875" lon="-6.16242282092571258544921875">
        <ele>1069.199951171875</ele>
        <time>2019-07-08T15:24:50.000Z</time>
      </trkpt>
      <trkpt lat="42.54641468636691570281982421875" lon="-6.16303813643753528594970703125">
        <ele>1068.800048828125</ele>
        <time>2019-07-08T15:24:52.000Z</time>
      </trkpt>
      <trkpt lat="42.5467797182500362396240234375" lon="-6.1636822856962680816650390625">
        <ele>1068.5999755859375</ele>
        <time>2019-07-08T15:24:54.000Z</time>
      </trkpt>
      <trkpt lat="42.54712681286036968231201171875" lon="-6.16436666809022426605224609375">
        <ele>1069</ele>
        <time>2019-07-08T15:24:56.000Z</time>
      </trkpt>
      <trkpt lat="42.54745320416986942291259765625" lon="-6.165084578096866607666015625">
        <ele>1072</ele>
        <time>2019-07-08T15:24:58.000Z</time>
      </trkpt>
      <trkpt lat="42.54760743118822574615478515625" lon="-6.1654528789222240447998046875">
        <ele>1073.800048828125</ele>
        <time>2019-07-08T15:24:59.000Z</time>
      </trkpt>
      <trkpt lat="42.5477560423314571380615234375" lon="-6.16582729853689670562744140625">
        <ele>1075.199951171875</ele>
        <time>2019-07-08T15:25:00.000Z</time>
      </trkpt>
      <trkpt lat="42.5480359978973865509033203125" lon="-6.16659474559128284454345703125">
        <ele>1077.5999755859375</ele>
        <time>2019-07-08T15:25:02.000Z</time>
      </trkpt>
      <trkpt lat="42.54816616885364055633544921875" lon="-6.1669864319264888763427734375">
        <ele>1079.4000244140625</ele>
        <time>2019-07-08T15:25:03.000Z</time>
      </trkpt>
      <trkpt lat="42.5482884608209133148193359375" lon="-6.16738348267972469329833984375">
        <ele>1081.199951171875</ele>
        <time>2019-07-08T15:25:04.000Z</time>
      </trkpt>
      <trkpt lat="42.54840237088501453399658203125" lon="-6.16778648458421230316162109375">
        <ele>1082.5999755859375</ele>
        <time>2019-07-08T15:25:05.000Z</time>
      </trkpt>
      <trkpt lat="42.54860655404627323150634765625" lon="-6.168606318533420562744140625">
        <ele>1084.199951171875</ele>
        <time>2019-07-08T15:25:07.000Z</time>
      </trkpt>
      <trkpt lat="42.5486985035240650177001953125" lon="-6.16902315057814121246337890625">
        <ele>1085.800048828125</ele>
        <time>2019-07-08T15:25:08.000Z</time>
      </trkpt>
      <trkpt lat="42.54878341220319271087646484375" lon="-6.16944216191768646240234375">
        <ele>1086.800048828125</ele>
        <time>2019-07-08T15:25:09.000Z</time>
      </trkpt>
      <trkpt lat="42.5489365495741367340087890625" lon="-6.17028043605387210845947265625">
        <ele>1089.5999755859375</ele>
        <time>2019-07-08T15:25:11.000Z</time>
      </trkpt>
      <trkpt lat="42.54900586791336536407470703125" lon="-6.17069383151829242706298828125">
        <ele>1090.800048828125</ele>
        <time>2019-07-08T15:25:12.000Z</time>
      </trkpt>
      <trkpt lat="42.5490725040435791015625" lon="-6.17110219784080982208251953125">
        <ele>1092.199951171875</ele>
        <time>2019-07-08T15:25:13.000Z</time>
      </trkpt>
      <trkpt lat="42.549208961427211761474609375" lon="-6.171910129487514495849609375">
        <ele>1093.4000244140625</ele>
        <time>2019-07-08T15:25:15.000Z</time>
      </trkpt>
      <trkpt lat="42.5492825545370578765869140625" lon="-6.17231086827814579010009765625">
        <ele>1094.5999755859375</ele>
        <time>2019-07-08T15:25:16.000Z</time>
      </trkpt>
      <trkpt lat="42.54936008714139461517333984375" lon="-6.17270984686911106109619140625">
        <ele>1096</ele>
        <time>2019-07-08T15:25:17.000Z</time>
      </trkpt>
      <trkpt lat="42.54953342489898204803466796875" lon="-6.17350545711815357208251953125">
        <ele>1097.5999755859375</ele>
        <time>2019-07-08T15:25:19.000Z</time>
      </trkpt>
      <trkpt lat="42.5497392006218433380126953125" lon="-6.17429922334849834442138671875">
        <ele>1099.199951171875</ele>
        <time>2019-07-08T15:25:21.000Z</time>
      </trkpt>
      <trkpt lat="42.5499752350151538848876953125" lon="-6.17508552968502044677734375">
        <ele>1101</ele>
        <time>2019-07-08T15:25:23.000Z</time>
      </trkpt>
      <trkpt lat="42.55010440014302730560302734375" lon="-6.1754764616489410400390625">
        <ele>1103</ele>
        <time>2019-07-08T15:25:24.000Z</time>
      </trkpt>
      <trkpt lat="42.55024102516472339630126953125" lon="-6.17586496286094188690185546875">
        <ele>1105.199951171875</ele>
        <time>2019-07-08T15:25:25.000Z</time>
      </trkpt>
      <trkpt lat="42.5503852777183055877685546875" lon="-6.1762504465878009796142578125">
        <ele>1107</ele>
        <time>2019-07-08T15:25:26.000Z</time>
      </trkpt>
      <trkpt lat="42.55053673870861530303955078125" lon="-6.176631487905979156494140625">
        <ele>1108.4000244140625</ele>
        <time>2019-07-08T15:25:27.000Z</time>
      </trkpt>
      <trkpt lat="42.55069599486887454986572265625" lon="-6.1770088411867618560791015625">
        <ele>1109.5999755859375</ele>
        <time>2019-07-08T15:25:28.000Z</time>
      </trkpt>
      <trkpt lat="42.5508613698184490203857421875" lon="-6.17738275788724422454833984375">
        <ele>1111</ele>
        <time>2019-07-08T15:25:29.000Z</time>
      </trkpt>
      <trkpt lat="42.55103345029056072235107421875" lon="-6.17775575257837772369384765625">
        <ele>1112.4000244140625</ele>
        <time>2019-07-08T15:25:30.000Z</time>
      </trkpt>
      <trkpt lat="42.551213912665843963623046875" lon="-6.17812254466116428375244140625">
        <ele>1114.199951171875</ele>
        <time>2019-07-08T15:25:31.000Z</time>
      </trkpt>
      <trkpt lat="42.5515976361930370330810546875" lon="-6.178836263716220855712890625">
        <ele>1115.800048828125</ele>
        <time>2019-07-08T15:25:33.000Z</time>
      </trkpt>
      <trkpt lat="42.5517991371452808380126953125" lon="-6.17918352596461772918701171875">
        <ele>1117.800048828125</ele>
        <time>2019-07-08T15:25:34.000Z</time>
      </trkpt>
      <trkpt lat="42.5520039908587932586669921875" lon="-6.17952668108046054840087890625">
        <ele>1120.800048828125</ele>
        <time>2019-07-08T15:25:35.000Z</time>
      </trkpt>
      <trkpt lat="42.55221328698098659515380859375" lon="-6.17986598052084445953369140625">
        <ele>1124</ele>
        <time>2019-07-08T15:25:36.000Z</time>
      </trkpt>
      <trkpt lat="42.55242451094090938568115234375" lon="-6.18020511232316493988037109375">
        <ele>1126.5999755859375</ele>
        <time>2019-07-08T15:25:37.000Z</time>
      </trkpt>
      <trkpt lat="42.552637159824371337890625" lon="-6.180549524724483489990234375">
        <ele>1128</ele>
        <time>2019-07-08T15:25:38.000Z</time>
      </trkpt>
      <trkpt lat="42.55285232327878475189208984375" lon="-6.18090081028640270233154296875">
        <ele>1129.4000244140625</ele>
        <time>2019-07-08T15:25:39.000Z</time>
      </trkpt>
      <trkpt lat="42.553294636309146881103515625" lon="-6.1816111765801906585693359375">
        <ele>1132.4000244140625</ele>
        <time>2019-07-08T15:25:41.000Z</time>
      </trkpt>
      <trkpt lat="42.55352002568542957305908203125" lon="-6.18196397088468074798583984375">
        <ele>1134.5999755859375</ele>
        <time>2019-07-08T15:25:42.000Z</time>
      </trkpt>
      <trkpt lat="42.553746588528156280517578125" lon="-6.18231475353240966796875">
        <ele>1137.800048828125</ele>
        <time>2019-07-08T15:25:43.000Z</time>
      </trkpt>
      <trkpt lat="42.55396979860961437225341796875" lon="-6.1826622672379016876220703125">
        <ele>1140.800048828125</ele>
        <time>2019-07-08T15:25:44.000Z</time>
      </trkpt>
      <trkpt lat="42.55418923683464527130126953125" lon="-6.18300567381083965301513671875">
        <ele>1142.800048828125</ele>
        <time>2019-07-08T15:25:45.000Z</time>
      </trkpt>
      <trkpt lat="42.55461771972477436065673828125" lon="-6.18368544615805149078369140625">
        <ele>1144.4000244140625</ele>
        <time>2019-07-08T15:25:47.000Z</time>
      </trkpt>
      <trkpt lat="42.55503111518919467926025390625" lon="-6.18436060845851898193359375">
        <ele>1146.4000244140625</ele>
        <time>2019-07-08T15:25:49.000Z</time>
      </trkpt>
      <trkpt lat="42.55523152649402618408203125" lon="-6.1846977286040782928466796875">
        <ele>1147.5999755859375</ele>
        <time>2019-07-08T15:25:50.000Z</time>
      </trkpt>
      <trkpt lat="42.5554285012185573577880859375" lon="-6.18503476493060588836669921875">
        <ele>1149</ele>
        <time>2019-07-08T15:25:51.000Z</time>
      </trkpt>
      <trkpt lat="42.55562371574342250823974609375" lon="-6.18537138216197490692138671875">
        <ele>1150.800048828125</ele>
        <time>2019-07-08T15:25:52.000Z</time>
      </trkpt>
      <trkpt lat="42.55581633187830448150634765625" lon="-6.1857082508504390716552734375">
        <ele>1152.5999755859375</ele>
        <time>2019-07-08T15:25:53.000Z</time>
      </trkpt>
      <trkpt lat="42.556007020175457000732421875" lon="-6.18604503571987152099609375">
        <ele>1154</ele>
        <time>2019-07-08T15:25:54.000Z</time>
      </trkpt>
      <trkpt lat="42.55638160742819309234619140625" lon="-6.18672053329646587371826171875">
        <ele>1155.199951171875</ele>
        <time>2019-07-08T15:25:56.000Z</time>
      </trkpt>
      <trkpt lat="42.55675024352967739105224609375" lon="-6.18739644996821880340576171875">
        <ele>1156.5999755859375</ele>
        <time>2019-07-08T15:25:58.000Z</time>
      </trkpt>
      <trkpt lat="42.5569308735430240631103515625" lon="-6.18773507885634899139404296875">
        <ele>1157.800048828125</ele>
        <time>2019-07-08T15:25:59.000Z</time>
      </trkpt>
      <trkpt lat="42.5571068935096263885498046875" lon="-6.18807546794414520263671875">
        <ele>1159.4000244140625</ele>
        <time>2019-07-08T15:26:00.000Z</time>
      </trkpt>
      <trkpt lat="42.55727997981011867523193359375" lon="-6.1884159408509731292724609375">
        <ele>1160.800048828125</ele>
        <time>2019-07-08T15:26:01.000Z</time>
      </trkpt>
      <trkpt lat="42.5574505515396595001220703125" lon="-6.18875431828200817108154296875">
        <ele>1161.800048828125</ele>
        <time>2019-07-08T15:26:02.000Z</time>
      </trkpt>
      <trkpt lat="42.55761978216469287872314453125" lon="-6.18909127078950405120849609375">
        <ele>1163.4000244140625</ele>
        <time>2019-07-08T15:26:03.000Z</time>
      </trkpt>
      <trkpt lat="42.55778725259006023406982421875" lon="-6.1894278042018413543701171875">
        <ele>1165.4000244140625</ele>
        <time>2019-07-08T15:26:04.000Z</time>
      </trkpt>
      <trkpt lat="42.55795137025415897369384765625" lon="-6.18976450525224208831787109375">
        <ele>1167.5999755859375</ele>
        <time>2019-07-08T15:26:05.000Z</time>
      </trkpt>
      <trkpt lat="42.5581137277185916900634765625" lon="-6.190100871026515960693359375">
        <ele>1169.199951171875</ele>
        <time>2019-07-08T15:26:06.000Z</time>
      </trkpt>
      <trkpt lat="42.55827524699270725250244140625" lon="-6.19043639861047267913818359375">
        <ele>1170.800048828125</ele>
        <time>2019-07-08T15:26:07.000Z</time>
      </trkpt>
      <trkpt lat="42.558436095714569091796875" lon="-6.1907722614705562591552734375">
        <ele>1172</ele>
        <time>2019-07-08T15:26:08.000Z</time>
      </trkpt>
      <trkpt lat="42.558597363531589508056640625" lon="-6.19111047126352787017822265625">
        <ele>1173.199951171875</ele>
        <time>2019-07-08T15:26:09.000Z</time>
      </trkpt>
      <trkpt lat="42.55875737406313419342041015625" lon="-6.19145278818905353546142578125">
        <ele>1174.4000244140625</ele>
        <time>2019-07-08T15:26:10.000Z</time>
      </trkpt>
      <trkpt lat="42.559074796736240386962890625" lon="-6.1921489052474498748779296875">
        <ele>1175.5999755859375</ele>
        <time>2019-07-08T15:26:12.000Z</time>
      </trkpt>
      <trkpt lat="42.559391297399997711181640625" lon="-6.19285357184708118438720703125">
        <ele>1176.4000244140625</ele>
        <time>2019-07-08T15:26:14.000Z</time>
      </trkpt>
      <trkpt lat="42.55954854190349578857421875" lon="-6.19320678524672985076904296875">
        <ele>1177.199951171875</ele>
        <time>2019-07-08T15:26:15.000Z</time>
      </trkpt>
      <trkpt lat="42.55970352329313755035400390625" lon="-6.19356234557926654815673828125">
        <ele>1178.5999755859375</ele>
        <time>2019-07-08T15:26:16.000Z</time>
      </trkpt>
      <trkpt lat="42.559855990111827850341796875" lon="-6.1939194984734058380126953125">
        <ele>1180.4000244140625</ele>
        <time>2019-07-08T15:26:17.000Z</time>
      </trkpt>
      <trkpt lat="42.56000694818794727325439453125" lon="-6.1942785792052745819091796875">
        <ele>1182.199951171875</ele>
        <time>2019-07-08T15:26:18.000Z</time>
      </trkpt>
      <trkpt lat="42.56015530787408351898193359375" lon="-6.19463883340358734130859375">
        <ele>1184</ele>
        <time>2019-07-08T15:26:19.000Z</time>
      </trkpt>
      <trkpt lat="42.56030199117958545684814453125" lon="-6.19500093162059783935546875">
        <ele>1185.4000244140625</ele>
        <time>2019-07-08T15:26:20.000Z</time>
      </trkpt>
      <trkpt lat="42.56059058010578155517578125" lon="-6.1957299895584583282470703125">
        <ele>1187.4000244140625</ele>
        <time>2019-07-08T15:26:22.000Z</time>
      </trkpt>
      <trkpt lat="42.56087615154683589935302734375" lon="-6.196461059153079986572265625">
        <ele>1187.800048828125</ele>
        <time>2019-07-08T15:26:24.000Z</time>
      </trkpt>
      <trkpt lat="42.56101705133914947509765625" lon="-6.19682692922651767730712890625">
        <ele>1188.800048828125</ele>
        <time>2019-07-08T15:26:25.000Z</time>
      </trkpt>
      <trkpt lat="42.5612921454012393951416015625" lon="-6.19755833409726619720458984375">
        <ele>1190.199951171875</ele>
        <time>2019-07-08T15:26:27.000Z</time>
      </trkpt>
      <trkpt lat="42.56155877374112606048583984375" lon="-6.19829661212861537933349609375">
        <ele>1189</ele>
        <time>2019-07-08T15:26:29.000Z</time>
      </trkpt>
      <trkpt lat="42.56169028580188751220703125" lon="-6.19866692461073398590087890625">
        <ele>1190.199951171875</ele>
        <time>2019-07-08T15:26:30.000Z</time>
      </trkpt>
      <trkpt lat="42.56195205263793468475341796875" lon="-6.19941358454525470733642578125">
        <ele>1190</ele>
        <time>2019-07-08T15:26:32.000Z</time>
      </trkpt>
      <trkpt lat="42.56207996048033237457275390625" lon="-6.19979026727378368377685546875">
        <ele>1192.199951171875</ele>
        <time>2019-07-08T15:26:33.000Z</time>
      </trkpt>
      <trkpt lat="42.56220585666596889495849609375" lon="-6.2001690454781055450439453125">
        <ele>1195.199951171875</ele>
        <time>2019-07-08T15:26:34.000Z</time>
      </trkpt>
      <trkpt lat="42.56233141757547855377197265625" lon="-6.2005505897104740142822265625">
        <ele>1198.4000244140625</ele>
        <time>2019-07-08T15:26:35.000Z</time>
      </trkpt>
      <trkpt lat="42.56245597265660762786865234375" lon="-6.2009344808757305145263671875">
        <ele>1201.4000244140625</ele>
        <time>2019-07-08T15:26:36.000Z</time>
      </trkpt>
      <trkpt lat="42.56270508281886577606201171875" lon="-6.2017126567661762237548828125">
        <ele>1203.5999755859375</ele>
        <time>2019-07-08T15:26:38.000Z</time>
      </trkpt>
      <trkpt lat="42.56295301951467990875244140625" lon="-6.202513463795185089111328125">
        <ele>1205.199951171875</ele>
        <time>2019-07-08T15:26:40.000Z</time>
      </trkpt>
      <trkpt lat="42.56319307722151279449462890625" lon="-6.20332910679280757904052734375">
        <ele>1205.800048828125</ele>
        <time>2019-07-08T15:26:42.000Z</time>
      </trkpt>
      <trkpt lat="42.5633095018565654754638671875" lon="-6.20373395271599292755126953125">
        <ele>1207.5999755859375</ele>
        <time>2019-07-08T15:26:43.000Z</time>
      </trkpt>
      <trkpt lat="42.563423998653888702392578125" lon="-6.20413661934435367584228515625">
        <ele>1210.199951171875</ele>
        <time>2019-07-08T15:26:44.000Z</time>
      </trkpt>
      <trkpt lat="42.56353690288960933685302734375" lon="-6.20453576557338237762451171875">
        <ele>1211.199951171875</ele>
        <time>2019-07-08T15:26:45.000Z</time>
      </trkpt>
      <trkpt lat="42.56375692784786224365234375" lon="-6.20532609522342681884765625">
        <ele>1213.199951171875</ele>
        <time>2019-07-08T15:26:47.000Z</time>
      </trkpt>
      <trkpt lat="42.56386430002748966217041015625" lon="-6.20571929030120372772216796875">
        <ele>1214.800048828125</ele>
        <time>2019-07-08T15:26:48.000Z</time>
      </trkpt>
      <trkpt lat="42.5639689899981021881103515625" lon="-6.20611089281737804412841796875">
        <ele>1216.4000244140625</ele>
        <time>2019-07-08T15:26:49.000Z</time>
      </trkpt>
      <trkpt lat="42.5640719197690486907958984375" lon="-6.20650199241936206817626953125">
        <ele>1217.5999755859375</ele>
        <time>2019-07-08T15:26:50.000Z</time>
      </trkpt>
      <trkpt lat="42.5641745142638683319091796875" lon="-6.206892840564250946044921875">
        <ele>1219.199951171875</ele>
        <time>2019-07-08T15:26:51.000Z</time>
      </trkpt>
      <trkpt lat="42.56427618674933910369873046875" lon="-6.207283101975917816162109375">
        <ele>1221.4000244140625</ele>
        <time>2019-07-08T15:26:52.000Z</time>
      </trkpt>
      <trkpt lat="42.5643776915967464447021484375" lon="-6.20767436921596527099609375">
        <ele>1223.199951171875</ele>
        <time>2019-07-08T15:26:53.000Z</time>
      </trkpt>
      <trkpt lat="42.56448020227253437042236328125" lon="-6.20806655846536159515380859375">
        <ele>1225</ele>
        <time>2019-07-08T15:26:54.000Z</time>
      </trkpt>
      <trkpt lat="42.56458380259573459625244140625" lon="-6.208459921181201934814453125">
        <ele>1226.800048828125</ele>
        <time>2019-07-08T15:26:55.000Z</time>
      </trkpt>
      <trkpt lat="42.56468891166150569915771484375" lon="-6.20885462500154972076416015625">
        <ele>1228.5999755859375</ele>
        <time>2019-07-08T15:26:56.000Z</time>
      </trkpt>
      <trkpt lat="42.56479670293629169464111328125" lon="-6.20924882590770721435546875">
        <ele>1230.4000244140625</ele>
        <time>2019-07-08T15:26:57.000Z</time>
      </trkpt>
      <trkpt lat="42.56491019390523433685302734375" lon="-6.209642104804515838623046875">
        <ele>1232</ele>
        <time>2019-07-08T15:26:58.000Z</time>
      </trkpt>
      <trkpt lat="42.56503173150122165679931640625" lon="-6.2100321985781192779541015625">
        <ele>1233.199951171875</ele>
        <time>2019-07-08T15:26:59.000Z</time>
      </trkpt>
      <trkpt lat="42.56516349501907825469970703125" lon="-6.2104191072285175323486328125">
        <ele>1234.5999755859375</ele>
        <time>2019-07-08T15:27:00.000Z</time>
      </trkpt>
      <trkpt lat="42.56530615501105785369873046875" lon="-6.21080107055604457855224609375">
        <ele>1236</ele>
        <time>2019-07-08T15:27:01.000Z</time>
      </trkpt>
      <trkpt lat="42.5654606334865093231201171875" lon="-6.2111775018274784088134765625">
        <ele>1237.199951171875</ele>
        <time>2019-07-08T15:27:02.000Z</time>
      </trkpt>
      <trkpt lat="42.5658019445836544036865234375" lon="-6.2119070626795291900634765625">
        <ele>1238.800048828125</ele>
        <time>2019-07-08T15:27:04.000Z</time>
      </trkpt>
      <trkpt lat="42.56618298590183258056640625" lon="-6.212603263556957244873046875">
        <ele>1239.5999755859375</ele>
        <time>2019-07-08T15:27:06.000Z</time>
      </trkpt>
      <trkpt lat="42.56659747101366519927978515625" lon="-6.2132555432617664337158203125">
        <ele>1238.800048828125</ele>
        <time>2019-07-08T15:27:08.000Z</time>
      </trkpt>
      <trkpt lat="42.56681489758193492889404296875" lon="-6.2135619856417179107666015625">
        <ele>1236.199951171875</ele>
        <time>2019-07-08T15:27:09.000Z</time>
      </trkpt>
      <trkpt lat="42.56703651510179042816162109375" lon="-6.21385551989078521728515625">
        <ele>1234</ele>
        <time>2019-07-08T15:27:10.000Z</time>
      </trkpt>
      <trkpt lat="42.567262910306453704833984375" lon="-6.2141343019902706146240234375">
        <ele>1233</ele>
        <time>2019-07-08T15:27:11.000Z</time>
      </trkpt>
      <trkpt lat="42.56773388944566249847412109375" lon="-6.21464534662663936614990234375">
        <ele>1229.4000244140625</ele>
        <time>2019-07-08T15:27:13.000Z</time>
      </trkpt>
      <trkpt lat="42.5682269968092441558837890625" lon="-6.21510450728237628936767578125">
        <ele>1232.199951171875</ele>
        <time>2019-07-08T15:27:15.000Z</time>
      </trkpt>
      <trkpt lat="42.5684821419417858123779296875" lon="-6.21531640179455280303955078125">
        <ele>1233.199951171875</ele>
        <time>2019-07-08T15:27:16.000Z</time>
      </trkpt>
      <trkpt lat="42.56900240667164325714111328125" lon="-6.21570582501590251922607421875">
        <ele>1232.199951171875</ele>
        <time>2019-07-08T15:27:18.000Z</time>
      </trkpt>
      <trkpt lat="42.56926761008799076080322265625" lon="-6.2158839404582977294921875">
        <ele>1231.199951171875</ele>
        <time>2019-07-08T15:27:19.000Z</time>
      </trkpt>
      <trkpt lat="42.56980933248996734619140625" lon="-6.2162076495587825775146484375">
        <ele>1230</ele>
        <time>2019-07-08T15:27:21.000Z</time>
      </trkpt>
      <trkpt lat="42.57036362774670124053955078125" lon="-6.21648131869733333587646484375">
        <ele>1228.4000244140625</ele>
        <time>2019-07-08T15:27:23.000Z</time>
      </trkpt>
      <trkpt lat="42.5709273107349872589111328125" lon="-6.21670377440750598907470703125">
        <ele>1228</ele>
        <time>2019-07-08T15:27:25.000Z</time>
      </trkpt>
      <trkpt lat="42.57121388800442218780517578125" lon="-6.216796897351741790771484375">
        <ele>1227.4000244140625</ele>
        <time>2019-07-08T15:27:26.000Z</time>
      </trkpt>
      <trkpt lat="42.5717948377132415771484375" lon="-6.21694835834205150604248046875">
        <ele>1226</ele>
        <time>2019-07-08T15:27:28.000Z</time>
      </trkpt>
      <trkpt lat="42.57208979688584804534912109375" lon="-6.21700451709330081939697265625">
        <ele>1224.5999755859375</ele>
        <time>2019-07-08T15:27:29.000Z</time>
      </trkpt>
      <trkpt lat="42.57238668389618396759033203125" lon="-6.21704760007560253143310546875">
        <ele>1222.800048828125</ele>
        <time>2019-07-08T15:27:30.000Z</time>
      </trkpt>
      <trkpt lat="42.57268474437296390533447265625" lon="-6.2170786969363689422607421875">
        <ele>1221</ele>
        <time>2019-07-08T15:27:31.000Z</time>
      </trkpt>
      <trkpt lat="42.5729849003255367279052734375" lon="-6.21709336526691913604736328125">
        <ele>1219.4000244140625</ele>
        <time>2019-07-08T15:27:32.000Z</time>
      </trkpt>
      <trkpt lat="42.5732861459255218505859375" lon="-6.21709336526691913604736328125">
        <ele>1218.199951171875</ele>
        <time>2019-07-08T15:27:33.000Z</time>
      </trkpt>
      <trkpt lat="42.57388897240161895751953125" lon="-6.21705145575106143951416015625">
        <ele>1216.4000244140625</ele>
        <time>2019-07-08T15:27:35.000Z</time>
      </trkpt>
      <trkpt lat="42.57449121214449405670166015625" lon="-6.2169566564261913299560546875">
        <ele>1215.199951171875</ele>
        <time>2019-07-08T15:27:37.000Z</time>
      </trkpt>
      <trkpt lat="42.5750763528048992156982421875" lon="-6.21681508608162403106689453125">
        <ele>1214.4000244140625</ele>
        <time>2019-07-08T15:27:39.000Z</time>
      </trkpt>
      <trkpt lat="42.5753594934940338134765625" lon="-6.21672674082219600677490234375">
        <ele>1214</ele>
        <time>2019-07-08T15:27:40.000Z</time>
      </trkpt>
      <trkpt lat="42.5759120285511016845703125" lon="-6.21651719324290752410888671875">
        <ele>1212</ele>
        <time>2019-07-08T15:27:42.000Z</time>
      </trkpt>
      <trkpt lat="42.5761830992996692657470703125" lon="-6.2164014391601085662841796875">
        <ele>1210.5999755859375</ele>
        <time>2019-07-08T15:27:43.000Z</time>
      </trkpt>
      <trkpt lat="42.57645140402019023895263671875" lon="-6.2162827514111995697021484375">
        <ele>1209</ele>
        <time>2019-07-08T15:27:44.000Z</time>
      </trkpt>
      <trkpt lat="42.5767181999981403350830078125" lon="-6.21616356074810028076171875">
        <ele>1207.5999755859375</ele>
        <time>2019-07-08T15:27:45.000Z</time>
      </trkpt>
      <trkpt lat="42.576984576880931854248046875" lon="-6.21604562737047672271728515625">
        <ele>1206.199951171875</ele>
        <time>2019-07-08T15:27:46.000Z</time>
      </trkpt>
      <trkpt lat="42.57725254632532596588134765625" lon="-6.21592995710670948028564453125">
        <ele>1204.4000244140625</ele>
        <time>2019-07-08T15:27:47.000Z</time>
      </trkpt>
      <trkpt lat="42.57752311415970325469970703125" lon="-6.21582023799419403076171875">
        <ele>1202.800048828125</ele>
        <time>2019-07-08T15:27:48.000Z</time>
      </trkpt>
      <trkpt lat="42.57779770530760288238525390625" lon="-6.2157178111374378204345703125">
        <ele>1201.5999755859375</ele>
        <time>2019-07-08T15:27:49.000Z</time>
      </trkpt>
      <trkpt lat="42.57835409604012966156005859375" lon="-6.2155421264469623565673828125">
        <ele>1200</ele>
        <time>2019-07-08T15:27:51.000Z</time>
      </trkpt>
      <trkpt lat="42.578918449580669403076171875" lon="-6.2154026515781879425048828125">
        <ele>1198.199951171875</ele>
        <time>2019-07-08T15:27:53.000Z</time>
      </trkpt>
      <trkpt lat="42.57920402102172374725341796875" lon="-6.2153448164463043212890625">
        <ele>1197.199951171875</ele>
        <time>2019-07-08T15:27:54.000Z</time>
      </trkpt>
      <trkpt lat="42.579491771757602691650390625" lon="-6.21529645286500453948974609375">
        <ele>1196</ele>
        <time>2019-07-08T15:27:55.000Z</time>
      </trkpt>
      <trkpt lat="42.57978186942636966705322265625" lon="-6.21526041068136692047119140625">
        <ele>1195</ele>
        <time>2019-07-08T15:27:56.000Z</time>
      </trkpt>
      <trkpt lat="42.5803991965949535369873046875" lon="-6.21522470377385616302490234375">
        <ele>1193.5999755859375</ele>
        <time>2019-07-08T15:27:58.000Z</time>
      </trkpt>
      <trkpt lat="42.5810663960874080657958984375" lon="-6.2152437306940555572509765625">
        <ele>1193.199951171875</ele>
        <time>2019-07-08T15:28:00.000Z</time>
      </trkpt>
      <trkpt lat="42.5817329250276088714599609375" lon="-6.21529041789472103118896484375">
        <ele>1192.5999755859375</ele>
        <time>2019-07-08T15:28:02.000Z</time>
      </trkpt>
      <trkpt lat="42.58238310925662517547607421875" lon="-6.2153255380690097808837890625">
        <ele>1191.199951171875</ele>
        <time>2019-07-08T15:28:04.000Z</time>
      </trkpt>
      <trkpt lat="42.58270363323390483856201171875" lon="-6.21532880701124668121337890625">
        <ele>1189.800048828125</ele>
        <time>2019-07-08T15:28:05.000Z</time>
      </trkpt>
      <trkpt lat="42.5830220617353916168212890625" lon="-6.215319335460662841796875">
        <ele>1188</ele>
        <time>2019-07-08T15:28:06.000Z</time>
      </trkpt>
      <trkpt lat="42.58334082551300525665283203125" lon="-6.2152990512549877166748046875">
        <ele>1186</ele>
        <time>2019-07-08T15:28:07.000Z</time>
      </trkpt>
      <trkpt lat="42.58366369642317295074462890625" lon="-6.21526963077485561370849609375">
        <ele>1184</ele>
        <time>2019-07-08T15:28:08.000Z</time>
      </trkpt>
      <trkpt lat="42.58399109356105327606201171875" lon="-6.21522738598287105560302734375">
        <ele>1182.199951171875</ele>
        <time>2019-07-08T15:28:09.000Z</time>
      </trkpt>
      <trkpt lat="42.584315054118633270263671875" lon="-6.21517441235482692718505859375">
        <ele>1181</ele>
        <time>2019-07-08T15:28:10.000Z</time>
      </trkpt>
      <trkpt lat="42.58463297970592975616455078125" lon="-6.21511808596551418304443359375">
        <ele>1180</ele>
        <time>2019-07-08T15:28:11.000Z</time>
      </trkpt>
      <trkpt lat="42.584941685199737548828125" lon="-6.21506662108004093170166015625">
        <ele>1178.800048828125</ele>
        <time>2019-07-08T15:28:12.000Z</time>
      </trkpt>
      <trkpt lat="42.58524150587618350982666015625" lon="-6.21502228081226348876953125">
        <ele>1177.800048828125</ele>
        <time>2019-07-08T15:28:13.000Z</time>
      </trkpt>
      <trkpt lat="42.58553520776331424713134765625" lon="-6.21498900465667247772216796875">
        <ele>1176.4000244140625</ele>
        <time>2019-07-08T15:28:14.000Z</time>
      </trkpt>
      <trkpt lat="42.58582589216530323028564453125" lon="-6.21496737934648990631103515625">
        <ele>1174.5999755859375</ele>
        <time>2019-07-08T15:28:15.000Z</time>
      </trkpt>
      <trkpt lat="42.586114816367626190185546875" lon="-6.214959919452667236328125">
        <ele>1172.5999755859375</ele>
        <time>2019-07-08T15:28:16.000Z</time>
      </trkpt>
      <trkpt lat="42.58640206418931484222412109375" lon="-6.2149651162326335906982421875">
        <ele>1170.5999755859375</ele>
        <time>2019-07-08T15:28:17.000Z</time>
      </trkpt>
      <trkpt lat="42.5866919942200183868408203125" lon="-6.21498179621994495391845703125">
        <ele>1168.800048828125</ele>
        <time>2019-07-08T15:28:18.000Z</time>
      </trkpt>
      <trkpt lat="42.58698427118360996246337890625" lon="-6.21501280926167964935302734375">
        <ele>1167.199951171875</ele>
        <time>2019-07-08T15:28:19.000Z</time>
      </trkpt>
      <trkpt lat="42.58727747015655040740966796875" lon="-6.2150596641004085540771484375">
        <ele>1165.800048828125</ele>
        <time>2019-07-08T15:28:20.000Z</time>
      </trkpt>
      <trkpt lat="42.58756966330111026763916015625" lon="-6.21512060053646564483642578125">
        <ele>1164.5999755859375</ele>
        <time>2019-07-08T15:28:21.000Z</time>
      </trkpt>
      <trkpt lat="42.58786168880760669708251953125" lon="-6.21519855223596096038818359375">
        <ele>1163.199951171875</ele>
        <time>2019-07-08T15:28:22.000Z</time>
      </trkpt>
      <trkpt lat="42.5881507806479930877685546875" lon="-6.21529025025665760040283203125">
        <ele>1162.199951171875</ele>
        <time>2019-07-08T15:28:23.000Z</time>
      </trkpt>
      <trkpt lat="42.58843685500323772430419921875" lon="-6.21539468877017498016357421875">
        <ele>1161.199951171875</ele>
        <time>2019-07-08T15:28:24.000Z</time>
      </trkpt>
      <trkpt lat="42.58899592794477939605712890625" lon="-6.2156353332102298736572265625">
        <ele>1159.800048828125</ele>
        <time>2019-07-08T15:28:26.000Z</time>
      </trkpt>
      <trkpt lat="42.589531280100345611572265625" lon="-6.2159256823360919952392578125">
        <ele>1157.4000244140625</ele>
        <time>2019-07-08T15:28:28.000Z</time>
      </trkpt>
      <trkpt lat="42.58978986181318759918212890625" lon="-6.21609256602823734283447265625">
        <ele>1155.5999755859375</ele>
        <time>2019-07-08T15:28:29.000Z</time>
      </trkpt>
      <trkpt lat="42.59004299528896808624267578125" lon="-6.21626707725226879119873046875">
        <ele>1154</ele>
        <time>2019-07-08T15:28:30.000Z</time>
      </trkpt>
      <trkpt lat="42.590289674699306488037109375" lon="-6.21645114384591579437255859375">
        <ele>1152.800048828125</ele>
        <time>2019-07-08T15:28:31.000Z</time>
      </trkpt>
      <trkpt lat="42.590532414615154266357421875" lon="-6.2166425026953220367431640625">
        <ele>1151.4000244140625</ele>
        <time>2019-07-08T15:28:32.000Z</time>
      </trkpt>
      <trkpt lat="42.5907702930271625518798828125" lon="-6.21684224344789981842041015625">
        <ele>1149.800048828125</ele>
        <time>2019-07-08T15:28:33.000Z</time>
      </trkpt>
      <trkpt lat="42.591002471745014190673828125" lon="-6.21705405414104461669921875">
        <ele>1148</ele>
        <time>2019-07-08T15:28:34.000Z</time>
      </trkpt>
      <trkpt lat="42.5912302918732166290283203125" lon="-6.2172795273363590240478515625">
        <ele>1146.199951171875</ele>
        <time>2019-07-08T15:28:35.000Z</time>
      </trkpt>
      <trkpt lat="42.591452412307262420654296875" lon="-6.21752050705254077911376953125">
        <ele>1144.5999755859375</ele>
        <time>2019-07-08T15:28:36.000Z</time>
      </trkpt>
      <trkpt lat="42.59166841395199298858642578125" lon="-6.2177774123847484588623046875">
        <ele>1143.199951171875</ele>
        <time>2019-07-08T15:28:37.000Z</time>
      </trkpt>
      <trkpt lat="42.591878883540630340576171875" lon="-6.21804781258106231689453125">
        <ele>1142</ele>
        <time>2019-07-08T15:28:38.000Z</time>
      </trkpt>
      <trkpt lat="42.59208331815898418426513671875" lon="-6.2183279357850551605224609375">
        <ele>1140.800048828125</ele>
        <time>2019-07-08T15:28:39.000Z</time>
      </trkpt>
      <trkpt lat="42.5922840647399425506591796875" lon="-6.21861618943512439727783203125">
        <ele>1139.800048828125</ele>
        <time>2019-07-08T15:28:40.000Z</time>
      </trkpt>
      <trkpt lat="42.59248112328350543975830078125" lon="-6.21891056187450885772705078125">
        <ele>1138.4000244140625</ele>
        <time>2019-07-08T15:28:41.000Z</time>
      </trkpt>
      <trkpt lat="42.592676170170307159423828125" lon="-6.21920786798000335693359375">
        <ele>1137.4000244140625</ele>
        <time>2019-07-08T15:28:42.000Z</time>
      </trkpt>
      <trkpt lat="42.5930728018283843994140625" lon="-6.2197930924594402313232421875">
        <ele>1135.800048828125</ele>
        <time>2019-07-08T15:28:44.000Z</time>
      </trkpt>
      <trkpt lat="42.5934893824160099029541015625" lon="-6.22034847736358642578125">
        <ele>1134.5999755859375</ele>
        <time>2019-07-08T15:28:46.000Z</time>
      </trkpt>
      <trkpt lat="42.5939346291124820709228515625" lon="-6.22085801325738430023193359375">
        <ele>1133</ele>
        <time>2019-07-08T15:28:48.000Z</time>
      </trkpt>
      <trkpt lat="42.59440946392714977264404296875" lon="-6.22132941149175167083740234375">
        <ele>1131.4000244140625</ele>
        <time>2019-07-08T15:28:50.000Z</time>
      </trkpt>
      <trkpt lat="42.59490433149039745330810546875" lon="-6.2217665277421474456787109375">
        <ele>1130.4000244140625</ele>
        <time>2019-07-08T15:28:52.000Z</time>
      </trkpt>
      <trkpt lat="42.59515142999589443206787109375" lon="-6.22196911834180355072021484375">
        <ele>1130</ele>
        <time>2019-07-08T15:28:53.000Z</time>
      </trkpt>
      <trkpt lat="42.5956348143517971038818359375" lon="-6.22235502116382122039794921875">
        <ele>1129.800048828125</ele>
        <time>2019-07-08T15:28:55.000Z</time>
      </trkpt>
      <trkpt lat="42.59611601941287517547607421875" lon="-6.2227280996739864349365234375">
        <ele>1129.800048828125</ele>
        <time>2019-07-08T15:28:57.000Z</time>
      </trkpt>
      <trkpt lat="42.596584148705005645751953125" lon="-6.2231166847050189971923828125">
        <ele>1129.5999755859375</ele>
        <time>2019-07-08T15:28:59.000Z</time>
      </trkpt>
      <trkpt lat="42.59703467600047588348388671875" lon="-6.22353469021618366241455078125">
        <ele>1129.5999755859375</ele>
        <time>2019-07-08T15:29:01.000Z</time>
      </trkpt>
      <trkpt lat="42.59747589938342571258544921875" lon="-6.22399033047258853912353515625">
        <ele>1129.199951171875</ele>
        <time>2019-07-08T15:29:03.000Z</time>
      </trkpt>
      <trkpt lat="42.59789667092263698577880859375" lon="-6.22448905371129512786865234375">
        <ele>1129</ele>
        <time>2019-07-08T15:29:05.000Z</time>
      </trkpt>
      <trkpt lat="42.5982925482094287872314453125" lon="-6.22502817772328853607177734375">
        <ele>1129.199951171875</ele>
        <time>2019-07-08T15:29:07.000Z</time>
      </trkpt>
      <trkpt lat="42.59865942411124706268310546875" lon="-6.22559714131057262420654296875">
        <ele>1129.199951171875</ele>
        <time>2019-07-08T15:29:09.000Z</time>
      </trkpt>
      <trkpt lat="42.59899151511490345001220703125" lon="-6.22619711793959140777587890625">
        <ele>1128.800048828125</ele>
        <time>2019-07-08T15:29:11.000Z</time>
      </trkpt>
      <trkpt lat="42.5991464965045452117919921875" lon="-6.22650909237563610076904296875">
        <ele>1128.199951171875</ele>
        <time>2019-07-08T15:29:12.000Z</time>
      </trkpt>
      <trkpt lat="42.59943776763975620269775390625" lon="-6.227171011269092559814453125">
        <ele>1127.5999755859375</ele>
        <time>2019-07-08T15:29:14.000Z</time>
      </trkpt>
      <trkpt lat="42.59970028884708881378173828125" lon="-6.2278672121465206146240234375">
        <ele>1127.5999755859375</ele>
        <time>2019-07-08T15:29:16.000Z</time>
      </trkpt>
      <trkpt lat="42.59991821832954883575439453125" lon="-6.2285873852670192718505859375">
        <ele>1128.199951171875</ele>
        <time>2019-07-08T15:29:18.000Z</time>
      </trkpt>
      <trkpt lat="42.60009591467678546905517578125" lon="-6.22933614067733287811279296875">
        <ele>1129.800048828125</ele>
        <time>2019-07-08T15:29:20.000Z</time>
      </trkpt>
      <trkpt lat="42.60023572482168674468994140625" lon="-6.2301108799874782562255859375">
        <ele>1131.199951171875</ele>
        <time>2019-07-08T15:29:22.000Z</time>
      </trkpt>
      <trkpt lat="42.60034628212451934814453125" lon="-6.230901964008808135986328125">
        <ele>1131.4000244140625</ele>
        <time>2019-07-08T15:29:24.000Z</time>
      </trkpt>
      <trkpt lat="42.60042582638561725616455078125" lon="-6.2317031063139438629150390625">
        <ele>1131.199951171875</ele>
        <time>2019-07-08T15:29:26.000Z</time>
      </trkpt>
      <trkpt lat="42.6004986651241779327392578125" lon="-6.23250299133360385894775390625">
        <ele>1130.4000244140625</ele>
        <time>2019-07-08T15:29:28.000Z</time>
      </trkpt>
      <trkpt lat="42.6005365513265132904052734375" lon="-6.2329040654003620147705078125">
        <ele>1129.800048828125</ele>
        <time>2019-07-08T15:29:29.000Z</time>
      </trkpt>
      <trkpt lat="42.6006321050226688385009765625" lon="-6.2337043695151805877685546875">
        <ele>1129</ele>
        <time>2019-07-08T15:29:31.000Z</time>
      </trkpt>
      <trkpt lat="42.60069631040096282958984375" lon="-6.2340993247926235198974609375">
        <ele>1128.4000244140625</ele>
        <time>2019-07-08T15:29:32.000Z</time>
      </trkpt>
      <trkpt lat="42.60085514746606349945068359375" lon="-6.23486769385635852813720703125">
        <ele>1127.5999755859375</ele>
        <time>2019-07-08T15:29:34.000Z</time>
      </trkpt>
      <trkpt lat="42.600945420563220977783203125" lon="-6.235238425433635711669921875">
        <ele>1126.800048828125</ele>
        <time>2019-07-08T15:29:35.000Z</time>
      </trkpt>
      <trkpt lat="42.6010418124496936798095703125" lon="-6.2355996854603290557861328125">
        <ele>1125</ele>
        <time>2019-07-08T15:29:36.000Z</time>
      </trkpt>
      <trkpt lat="42.601143904030323028564453125" lon="-6.23595423996448516845703125">
        <ele>1122.5999755859375</ele>
        <time>2019-07-08T15:29:37.000Z</time>
      </trkpt>
      <trkpt lat="42.601250521838665008544921875" lon="-6.23630116693675518035888671875">
        <ele>1120.4000244140625</ele>
        <time>2019-07-08T15:29:38.000Z</time>
      </trkpt>
      <trkpt lat="42.60136174969375133514404296875" lon="-6.23664214275777339935302734375">
        <ele>1119.199951171875</ele>
        <time>2019-07-08T15:29:39.000Z</time>
      </trkpt>
      <trkpt lat="42.60160365141928195953369140625" lon="-6.23730297200381755828857421875">
        <ele>1117.5999755859375</ele>
        <time>2019-07-08T15:29:41.000Z</time>
      </trkpt>
      <trkpt lat="42.6018712855875492095947265625" lon="-6.23793429695069789886474609375">
        <ele>1115.4000244140625</ele>
        <time>2019-07-08T15:29:43.000Z</time>
      </trkpt>
      <trkpt lat="42.60201185010373592376708984375" lon="-6.23824107460677623748779296875">
        <ele>1114</ele>
        <time>2019-07-08T15:29:44.000Z</time>
      </trkpt>
      <trkpt lat="42.60215803049504756927490234375" lon="-6.23854097910225391387939453125">
        <ele>1112.199951171875</ele>
        <time>2019-07-08T15:29:45.000Z</time>
      </trkpt>
      <trkpt lat="42.6023091562092304229736328125" lon="-6.23883451335132122039794921875">
        <ele>1110.5999755859375</ele>
        <time>2019-07-08T15:29:46.000Z</time>
      </trkpt>
      <trkpt lat="42.60246388614177703857421875" lon="-6.23912218026816844940185546875">
        <ele>1108.5999755859375</ele>
        <time>2019-07-08T15:29:47.000Z</time>
      </trkpt>
      <trkpt lat="42.6026246510446071624755859375" lon="-6.239401213824748992919921875">
        <ele>1106.4000244140625</ele>
        <time>2019-07-08T15:29:48.000Z</time>
      </trkpt>
      <trkpt lat="42.60279119946062564849853515625" lon="-6.2396726198494434356689453125">
        <ele>1104.5999755859375</ele>
        <time>2019-07-08T15:29:49.000Z</time>
      </trkpt>
      <trkpt lat="42.60296202264726161956787109375" lon="-6.2399351410567760467529296875">
        <ele>1103.4000244140625</ele>
        <time>2019-07-08T15:29:50.000Z</time>
      </trkpt>
      <trkpt lat="42.6031346060335636138916015625" lon="-6.24018802307546138763427734375">
        <ele>1102</ele>
        <time>2019-07-08T15:29:51.000Z</time>
      </trkpt>
      <trkpt lat="42.603307105600833892822265625" lon="-6.24043176881968975067138671875">
        <ele>1100.800048828125</ele>
        <time>2019-07-08T15:29:52.000Z</time>
      </trkpt>
      <trkpt lat="42.60347885079681873321533203125" lon="-6.24067090451717376708984375">
        <ele>1099.199951171875</ele>
        <time>2019-07-08T15:29:53.000Z</time>
      </trkpt>
      <trkpt lat="42.60364808142185211181640625" lon="-6.24090584926307201385498046875">
        <ele>1097.5999755859375</ele>
        <time>2019-07-08T15:29:54.000Z</time>
      </trkpt>
      <trkpt lat="42.6038142107427120208740234375" lon="-6.241138614714145660400390625">
        <ele>1095.5999755859375</ele>
        <time>2019-07-08T15:29:55.000Z</time>
      </trkpt>
      <trkpt lat="42.603976987302303314208984375" lon="-6.241372637450695037841796875">
        <ele>1093.4000244140625</ele>
        <time>2019-07-08T15:29:56.000Z</time>
      </trkpt>
      <trkpt lat="42.604135908186435699462890625" lon="-6.24160808511078357696533203125">
        <ele>1091.4000244140625</ele>
        <time>2019-07-08T15:29:57.000Z</time>
      </trkpt>
      <trkpt lat="42.6042889617383480072021484375" lon="-6.24185116030275821685791015625">
        <ele>1089.5999755859375</ele>
        <time>2019-07-08T15:29:58.000Z</time>
      </trkpt>
      <trkpt lat="42.60443706996738910675048828125" lon="-6.24210496433079242706298828125">
        <ele>1088.199951171875</ele>
        <time>2019-07-08T15:29:59.000Z</time>
      </trkpt>
      <trkpt lat="42.60471350513398647308349609375" lon="-6.2426468543708324432373046875">
        <ele>1086.4000244140625</ele>
        <time>2019-07-08T15:30:01.000Z</time>
      </trkpt>
      <trkpt lat="42.6048425026237964630126953125" lon="-6.24294013716280460357666015625">
        <ele>1085.199951171875</ele>
        <time>2019-07-08T15:30:02.000Z</time>
      </trkpt>
      <trkpt lat="42.60496630333364009857177734375" lon="-6.24324842356145381927490234375">
        <ele>1084.199951171875</ele>
        <time>2019-07-08T15:30:03.000Z</time>
      </trkpt>
      <trkpt lat="42.6051992364227771759033203125" lon="-6.24391864053905010223388671875">
        <ele>1082.4000244140625</ele>
        <time>2019-07-08T15:30:05.000Z</time>
      </trkpt>
      <trkpt lat="42.6053947024047374725341796875" lon="-6.24463831074535846710205078125">
        <ele>1080.800048828125</ele>
        <time>2019-07-08T15:30:07.000Z</time>
      </trkpt>
      <trkpt lat="42.6055365242063999176025390625" lon="-6.24537323601543903350830078125">
        <ele>1079.199951171875</ele>
        <time>2019-07-08T15:30:09.000Z</time>
      </trkpt>
      <trkpt lat="42.60558773763477802276611328125" lon="-6.24574572779238224029541015625">
        <ele>1078</ele>
        <time>2019-07-08T15:30:10.000Z</time>
      </trkpt>
      <trkpt lat="42.60562730021774768829345703125" lon="-6.24612241052091121673583984375">
        <ele>1077</ele>
        <time>2019-07-08T15:30:11.000Z</time>
      </trkpt>
      <trkpt lat="42.60565579868853092193603515625" lon="-6.24650144018232822418212890625">
        <ele>1075.800048828125</ele>
        <time>2019-07-08T15:30:12.000Z</time>
      </trkpt>
      <trkpt lat="42.60567180812358856201171875" lon="-6.24688080511987209320068359375">
        <ele>1074.199951171875</ele>
        <time>2019-07-08T15:30:13.000Z</time>
      </trkpt>
      <trkpt lat="42.60567541234195232391357421875" lon="-6.247260086238384246826171875">
        <ele>1072.5999755859375</ele>
        <time>2019-07-08T15:30:14.000Z</time>
      </trkpt>
      <trkpt lat="42.605666778981685638427734375" lon="-6.2476367689669132232666015625">
        <ele>1071.199951171875</ele>
        <time>2019-07-08T15:30:15.000Z</time>
      </trkpt>
      <trkpt lat="42.60561271570622920989990234375" lon="-6.248384602367877960205078125">
        <ele>1069.199951171875</ele>
        <time>2019-07-08T15:30:17.000Z</time>
      </trkpt>
      <trkpt lat="42.6055680401623249053955078125" lon="-6.248752735555171966552734375">
        <ele>1068</ele>
        <time>2019-07-08T15:30:18.000Z</time>
      </trkpt>
      <trkpt lat="42.6055120490491390228271484375" lon="-6.249117515981197357177734375">
        <ele>1066.5999755859375</ele>
        <time>2019-07-08T15:30:19.000Z</time>
      </trkpt>
      <trkpt lat="42.60544809512794017791748046875" lon="-6.24948087148368358612060546875">
        <ele>1065</ele>
        <time>2019-07-08T15:30:20.000Z</time>
      </trkpt>
      <trkpt lat="42.60538003407418727874755859375" lon="-6.2498435564339160919189453125">
        <ele>1063.199951171875</ele>
        <time>2019-07-08T15:30:21.000Z</time>
      </trkpt>
      <trkpt lat="42.60531465522944927215576171875" lon="-6.25020607374608516693115234375">
        <ele>1061.4000244140625</ele>
        <time>2019-07-08T15:30:22.000Z</time>
      </trkpt>
      <trkpt lat="42.60525480844080448150634765625" lon="-6.250568926334381103515625">
        <ele>1059.4000244140625</ele>
        <time>2019-07-08T15:30:23.000Z</time>
      </trkpt>
      <trkpt lat="42.60520418174564838409423828125" lon="-6.2509332038462162017822265625">
        <ele>1057.4000244140625</ele>
        <time>2019-07-08T15:30:24.000Z</time>
      </trkpt>
      <trkpt lat="42.60516378097236156463623046875" lon="-6.25130175612866878509521484375">
        <ele>1055.5999755859375</ele>
        <time>2019-07-08T15:30:25.000Z</time>
      </trkpt>
      <trkpt lat="42.6051341928541660308837890625" lon="-6.25167441554367542266845703125">
        <ele>1054</ele>
        <time>2019-07-08T15:30:26.000Z</time>
      </trkpt>
      <trkpt lat="42.6051186025142669677734375" lon="-6.25204741023480892181396484375">
        <ele>1052.4000244140625</ele>
        <time>2019-07-08T15:30:27.000Z</time>
      </trkpt>
      <trkpt lat="42.60511650703847408294677734375" lon="-6.25241504050791263580322265625">
        <ele>1050.800048828125</ele>
        <time>2019-07-08T15:30:28.000Z</time>
      </trkpt>
      <trkpt lat="42.605127654969692230224609375" lon="-6.2527705170214176177978515625">
        <ele>1049.4000244140625</ele>
        <time>2019-07-08T15:30:29.000Z</time>
      </trkpt>
      <trkpt lat="42.6051506213843822479248046875" lon="-6.25311358831822872161865234375">
        <ele>1048</ele>
        <time>2019-07-08T15:30:30.000Z</time>
      </trkpt>
      <trkpt lat="42.60518255643546581268310546875" lon="-6.253447271883487701416015625">
        <ele>1046.800048828125</ele>
        <time>2019-07-08T15:30:31.000Z</time>
      </trkpt>
      <trkpt lat="42.60522396303713321685791015625" lon="-6.25377424992620944976806640625">
        <ele>1045</ele>
        <time>2019-07-08T15:30:32.000Z</time>
      </trkpt>
      <trkpt lat="42.6052726618945598602294921875" lon="-6.25409678556025028228759765625">
        <ele>1042.800048828125</ele>
        <time>2019-07-08T15:30:33.000Z</time>
      </trkpt>
      <trkpt lat="42.6053279824554920196533203125" lon="-6.2544157169759273529052734375">
        <ele>1040</ele>
        <time>2019-07-08T15:30:34.000Z</time>
      </trkpt>
      <trkpt lat="42.60538749396800994873046875" lon="-6.2547303736209869384765625">
        <ele>1037.5999755859375</ele>
        <time>2019-07-08T15:30:35.000Z</time>
      </trkpt>
      <trkpt lat="42.60544692166149616241455078125" lon="-6.25504192896187305450439453125">
        <ele>1035.4000244140625</ele>
        <time>2019-07-08T15:30:36.000Z</time>
      </trkpt>
      <trkpt lat="42.605502493679523468017578125" lon="-6.25535004772245883941650390625">
        <ele>1033.4000244140625</ele>
        <time>2019-07-08T15:30:37.000Z</time>
      </trkpt>
      <trkpt lat="42.60555085726082324981689453125" lon="-6.2556595914065837860107421875">
        <ele>1031.800048828125</ele>
        <time>2019-07-08T15:30:38.000Z</time>
      </trkpt>
      <trkpt lat="42.6055908389389514923095703125" lon="-6.25597265549004077911376953125">
        <ele>1029.800048828125</ele>
        <time>2019-07-08T15:30:39.000Z</time>
      </trkpt>
      <trkpt lat="42.6056220196187496185302734375" lon="-6.2562887370586395263671875">
        <ele>1028</ele>
        <time>2019-07-08T15:30:40.000Z</time>
      </trkpt>
      <trkpt lat="42.60564339347183704376220703125" lon="-6.25660683028399944305419921875">
        <ele>1025.4000244140625</ele>
        <time>2019-07-08T15:30:41.000Z</time>
      </trkpt>
      <trkpt lat="42.60565663687884807586669921875" lon="-6.25692643225193023681640625">
        <ele>1023.20001220703125</ele>
        <time>2019-07-08T15:30:42.000Z</time>
      </trkpt>
      <trkpt lat="42.60566116310656070709228515625" lon="-6.257247626781463623046875">
        <ele>1021</ele>
        <time>2019-07-08T15:30:43.000Z</time>
      </trkpt>
      <trkpt lat="42.60565848089754581451416015625" lon="-6.25757225789129734039306640625">
        <ele>1019.79998779296875</ele>
        <time>2019-07-08T15:30:44.000Z</time>
      </trkpt>
      <trkpt lat="42.6056300662457942962646484375" lon="-6.2582251243293285369873046875">
        <ele>1018.79998779296875</ele>
        <time>2019-07-08T15:30:46.000Z</time>
      </trkpt>
      <trkpt lat="42.6056014001369476318359375" lon="-6.25855243764817714691162109375">
        <ele>1017.79998779296875</ele>
        <time>2019-07-08T15:30:47.000Z</time>
      </trkpt>
      <trkpt lat="42.6055623404681682586669921875" lon="-6.2588792480528354644775390625">
        <ele>1016.5999755859375</ele>
        <time>2019-07-08T15:30:48.000Z</time>
      </trkpt>
      <trkpt lat="42.60546200908720493316650390625" lon="-6.25953328795731067657470703125">
        <ele>1014</ele>
        <time>2019-07-08T15:30:50.000Z</time>
      </trkpt>
      <trkpt lat="42.6054091192781925201416015625" lon="-6.25985884107649326324462890625">
        <ele>1012.5999755859375</ele>
        <time>2019-07-08T15:30:51.000Z</time>
      </trkpt>
      <trkpt lat="42.60535690002143383026123046875" lon="-6.26018355600535869598388671875">
        <ele>1010.79998779296875</ele>
        <time>2019-07-08T15:30:52.000Z</time>
      </trkpt>
      <trkpt lat="42.605310045182704925537109375" lon="-6.2605078518390655517578125">
        <ele>1009</ele>
        <time>2019-07-08T15:30:53.000Z</time>
      </trkpt>
      <trkpt lat="42.60527090169489383697509765625" lon="-6.26083281822502613067626953125">
        <ele>1007.20001220703125</ele>
        <time>2019-07-08T15:30:54.000Z</time>
      </trkpt>
      <trkpt lat="42.60523938573896884918212890625" lon="-6.261157952249050140380859375">
        <ele>1005.4000244140625</ele>
        <time>2019-07-08T15:30:55.000Z</time>
      </trkpt>
      <trkpt lat="42.60521641932427883148193359375" lon="-6.26148006878793239593505859375">
        <ele>1003.4000244140625</ele>
        <time>2019-07-08T15:30:56.000Z</time>
      </trkpt>
      <trkpt lat="42.60520233772695064544677734375" lon="-6.26179807819426059722900390625">
        <ele>1002.20001220703125</ele>
        <time>2019-07-08T15:30:57.000Z</time>
      </trkpt>
      <trkpt lat="42.60519630275666713714599609375" lon="-6.2621126510202884674072265625">
        <ele>1001</ele>
        <time>2019-07-08T15:30:58.000Z</time>
      </trkpt>
      <trkpt lat="42.60519831441342830657958984375" lon="-6.26242697238922119140625">
        <ele>999.79998779296875</ele>
        <time>2019-07-08T15:30:59.000Z</time>
      </trkpt>
      <trkpt lat="42.605206780135631561279296875" lon="-6.2627399526536464691162109375">
        <ele>997.4000244140625</ele>
        <time>2019-07-08T15:31:00.000Z</time>
      </trkpt>
      <trkpt lat="42.6052213646471500396728515625" lon="-6.26304999925196170806884765625">
        <ele>994.79998779296875</ele>
        <time>2019-07-08T15:31:01.000Z</time>
      </trkpt>
      <trkpt lat="42.60524357669055461883544921875" lon="-6.26335862092673778533935546875">
        <ele>991.79998779296875</ele>
        <time>2019-07-08T15:31:02.000Z</time>
      </trkpt>
      <trkpt lat="42.60527542792260646820068359375" lon="-6.26366556622087955474853515625">
        <ele>989.79998779296875</ele>
        <time>2019-07-08T15:31:03.000Z</time>
      </trkpt>
      <trkpt lat="42.60531767271459102630615234375" lon="-6.26396697945892810821533203125">
        <ele>988.4000244140625</ele>
        <time>2019-07-08T15:31:04.000Z</time>
      </trkpt>
      <trkpt lat="42.60542898438870906829833984375" lon="-6.2645491026341915130615234375">
        <ele>987</ele>
        <time>2019-07-08T15:31:06.000Z</time>
      </trkpt>
      <trkpt lat="42.605564855039119720458984375" lon="-6.2651066668331623077392578125">
        <ele>984.5999755859375</ele>
        <time>2019-07-08T15:31:08.000Z</time>
      </trkpt>
      <trkpt lat="42.6056428067386150360107421875" lon="-6.265379749238491058349609375">
        <ele>982.79998779296875</ele>
        <time>2019-07-08T15:31:09.000Z</time>
      </trkpt>
      <trkpt lat="42.6057286374270915985107421875" lon="-6.2656523287296295166015625">
        <ele>981.20001220703125</ele>
        <time>2019-07-08T15:31:10.000Z</time>
      </trkpt>
      <trkpt lat="42.60582192800939083099365234375" lon="-6.26592381857335567474365234375">
        <ele>979.4000244140625</ele>
        <time>2019-07-08T15:31:11.000Z</time>
      </trkpt>
      <trkpt lat="42.6059232652187347412109375" lon="-6.266193799674510955810546875">
        <ele>977.79998779296875</ele>
        <time>2019-07-08T15:31:12.000Z</time>
      </trkpt>
      <trkpt lat="42.6060320623219013214111328125" lon="-6.2664611823856830596923828125">
        <ele>976.20001220703125</ele>
        <time>2019-07-08T15:31:13.000Z</time>
      </trkpt>
      <trkpt lat="42.60614714585244655609130859375" lon="-6.26672412268817424774169921875">
        <ele>975</ele>
        <time>2019-07-08T15:31:14.000Z</time>
      </trkpt>
      <trkpt lat="42.6062717847526073455810546875" lon="-6.2669862248003482818603515625">
        <ele>974</ele>
        <time>2019-07-08T15:31:15.000Z</time>
      </trkpt>
      <trkpt lat="42.60640648193657398223876953125" lon="-6.2672430463135242462158203125">
        <ele>972.79998779296875</ele>
        <time>2019-07-08T15:31:16.000Z</time>
      </trkpt>
      <trkpt lat="42.60669833980500698089599609375" lon="-6.26773774623870849609375">
        <ele>971</ele>
        <time>2019-07-08T15:31:18.000Z</time>
      </trkpt>
      <trkpt lat="42.60685390792787075042724609375" lon="-6.2679756246507167816162109375">
        <ele>969.4000244140625</ele>
        <time>2019-07-08T15:31:19.000Z</time>
      </trkpt>
      <trkpt lat="42.60701634921133518218994140625" lon="-6.2682099826633930206298828125">
        <ele>967.4000244140625</ele>
        <time>2019-07-08T15:31:20.000Z</time>
      </trkpt>
      <trkpt lat="42.60718666948378086090087890625" lon="-6.2684383057057857513427734375">
        <ele>965</ele>
        <time>2019-07-08T15:31:21.000Z</time>
      </trkpt>
      <trkpt lat="42.6073621027171611785888671875" lon="-6.26865950413048267364501953125">
        <ele>963.79998779296875</ele>
        <time>2019-07-08T15:31:22.000Z</time>
      </trkpt>
      <trkpt lat="42.607730068266391754150390625" lon="-6.2690726481378078460693359375">
        <ele>961.4000244140625</ele>
        <time>2019-07-08T15:31:24.000Z</time>
      </trkpt>
      <trkpt lat="42.60812628082931041717529296875" lon="-6.26945234835147857666015625">
        <ele>961.79998779296875</ele>
        <time>2019-07-08T15:31:26.000Z</time>
      </trkpt>
      <trkpt lat="42.6083320565521717071533203125" lon="-6.26963532529771327972412109375">
        <ele>963.20001220703125</ele>
        <time>2019-07-08T15:31:27.000Z</time>
      </trkpt>
      <trkpt lat="42.6085513271391391754150390625" lon="-6.2698137760162353515625">
        <ele>964.20001220703125</ele>
        <time>2019-07-08T15:31:28.000Z</time>
      </trkpt>
      <trkpt lat="42.6090373098850250244140625" lon="-6.27016858197748661041259765625">
        <ele>964.20001220703125</ele>
        <time>2019-07-08T15:31:30.000Z</time>
      </trkpt>
      <trkpt lat="42.60953745804727077484130859375" lon="-6.2705339491367340087890625">
        <ele>963.5999755859375</ele>
        <time>2019-07-08T15:31:32.000Z</time>
      </trkpt>
      <trkpt lat="42.60978589765727519989013671875" lon="-6.27073218114674091339111328125">
        <ele>962.79998779296875</ele>
        <time>2019-07-08T15:31:33.000Z</time>
      </trkpt>
      <trkpt lat="42.610032074153423309326171875" lon="-6.27094499766826629638671875">
        <ele>961.4000244140625</ele>
        <time>2019-07-08T15:31:34.000Z</time>
      </trkpt>
      <trkpt lat="42.61027514934539794921875" lon="-6.2711775116622447967529296875">
        <ele>959.5999755859375</ele>
        <time>2019-07-08T15:31:35.000Z</time>
      </trkpt>
      <trkpt lat="42.61051713488996028900146484375" lon="-6.27142402343451976776123046875">
        <ele>957.4000244140625</ele>
        <time>2019-07-08T15:31:36.000Z</time>
      </trkpt>
      <trkpt lat="42.6107524149119853973388671875" lon="-6.27168503589928150177001953125">
        <ele>955.4000244140625</ele>
        <time>2019-07-08T15:31:37.000Z</time>
      </trkpt>
      <trkpt lat="42.61098065413534641265869140625" lon="-6.27196012996137142181396484375">
        <ele>952.5999755859375</ele>
        <time>2019-07-08T15:31:38.000Z</time>
      </trkpt>
      <trkpt lat="42.61119958944618701934814453125" lon="-6.272245533764362335205078125">
        <ele>950</ele>
        <time>2019-07-08T15:31:39.000Z</time>
      </trkpt>
      <trkpt lat="42.61140762828290462493896484375" lon="-6.272539906203746795654296875">
        <ele>947.4000244140625</ele>
        <time>2019-07-08T15:31:40.000Z</time>
      </trkpt>
      <trkpt lat="42.61161013506352901458740234375" lon="-6.27283863723278045654296875">
        <ele>945.5999755859375</ele>
        <time>2019-07-08T15:31:41.000Z</time>
      </trkpt>
      <trkpt lat="42.61180928908288478851318359375" lon="-6.27313879318535327911376953125">
        <ele>943.79998779296875</ele>
        <time>2019-07-08T15:31:42.000Z</time>
      </trkpt>
      <trkpt lat="42.6120065152645111083984375" lon="-6.27343903295695781707763671875">
        <ele>942</ele>
        <time>2019-07-08T15:31:43.000Z</time>
      </trkpt>
      <trkpt lat="42.6124059967696666717529296875" lon="-6.27402895130217075347900390625">
        <ele>940.5999755859375</ele>
        <time>2019-07-08T15:31:45.000Z</time>
      </trkpt>
      <trkpt lat="42.61282257735729217529296875" lon="-6.27459548413753509521484375">
        <ele>940.5999755859375</ele>
        <time>2019-07-08T15:31:47.000Z</time>
      </trkpt>
      <trkpt lat="42.61326673440635204315185546875" lon="-6.27513050101697444915771484375">
        <ele>941.4000244140625</ele>
        <time>2019-07-08T15:31:49.000Z</time>
      </trkpt>
      <trkpt lat="42.613502852618694305419921875" lon="-6.2753768451511859893798828125">
        <ele>941.79998779296875</ele>
        <time>2019-07-08T15:31:50.000Z</time>
      </trkpt>
      <trkpt lat="42.61398456059396266937255859375" lon="-6.27583734691143035888671875">
        <ele>941.20001220703125</ele>
        <time>2019-07-08T15:31:52.000Z</time>
      </trkpt>
      <trkpt lat="42.61422897689044475555419921875" lon="-6.2760587967932224273681640625">
        <ele>940.20001220703125</ele>
        <time>2019-07-08T15:31:53.000Z</time>
      </trkpt>
      <trkpt lat="42.614727951586246490478515625" lon="-6.27648853696882724761962890625">
        <ele>937.79998779296875</ele>
        <time>2019-07-08T15:31:55.000Z</time>
      </trkpt>
      <trkpt lat="42.6149846054613590240478515625" lon="-6.27669204957783222198486328125">
        <ele>935.5999755859375</ele>
        <time>2019-07-08T15:31:56.000Z</time>
      </trkpt>
      <trkpt lat="42.61524704284965991973876953125" lon="-6.2768854200839996337890625">
        <ele>933.20001220703125</ele>
        <time>2019-07-08T15:31:57.000Z</time>
      </trkpt>
      <trkpt lat="42.6155140064656734466552734375" lon="-6.2770679779350757598876953125">
        <ele>931.20001220703125</ele>
        <time>2019-07-08T15:31:58.000Z</time>
      </trkpt>
      <trkpt lat="42.61578641831874847412109375" lon="-6.27724022604525089263916015625">
        <ele>929.79998779296875</ele>
        <time>2019-07-08T15:31:59.000Z</time>
      </trkpt>
      <trkpt lat="42.6160625182092189788818359375" lon="-6.27740585245192050933837890625">
        <ele>928.5999755859375</ele>
        <time>2019-07-08T15:32:00.000Z</time>
      </trkpt>
      <trkpt lat="42.61661999858915805816650390625" lon="-6.277721263468265533447265625">
        <ele>926.5999755859375</ele>
        <time>2019-07-08T15:32:02.000Z</time>
      </trkpt>
      <trkpt lat="42.61689626611769199371337890625" lon="-6.2778776697814464569091796875">
        <ele>925.20001220703125</ele>
        <time>2019-07-08T15:32:03.000Z</time>
      </trkpt>
      <trkpt lat="42.61717119254171848297119140625" lon="-6.2780382670462131500244140625">
        <ele>923.79998779296875</ele>
        <time>2019-07-08T15:32:04.000Z</time>
      </trkpt>
      <trkpt lat="42.61744461022317409515380859375" lon="-6.27820565365254878997802734375">
        <ele>922.5999755859375</ele>
        <time>2019-07-08T15:32:05.000Z</time>
      </trkpt>
      <trkpt lat="42.6177140884101390838623046875" lon="-6.2783839367330074310302734375">
        <ele>920.5999755859375</ele>
        <time>2019-07-08T15:32:06.000Z</time>
      </trkpt>
      <trkpt lat="42.61797937564551830291748046875" lon="-6.27857479266822338104248046875">
        <ele>917.5999755859375</ele>
        <time>2019-07-08T15:32:07.000Z</time>
      </trkpt>
      <trkpt lat="42.61823971755802631378173828125" lon="-6.27877864055335521697998046875">
        <ele>912</ele>
        <time>2019-07-08T15:32:08.000Z</time>
      </trkpt>
      <trkpt lat="42.6184949465095996856689453125" lon="-6.278993971645832061767578125">
        <ele>906.4000244140625</ele>
        <time>2019-07-08T15:32:09.000Z</time>
      </trkpt>
      <trkpt lat="42.6187457330524921417236328125" lon="-6.27921952866017818450927734375">
        <ele>902.20001220703125</ele>
        <time>2019-07-08T15:32:10.000Z</time>
      </trkpt>
      <trkpt lat="42.6189911551773548126220703125" lon="-6.27945606596767902374267578125">
        <ele>899.79998779296875</ele>
        <time>2019-07-08T15:32:11.000Z</time>
      </trkpt>
      <trkpt lat="42.61923096142709255218505859375" lon="-6.27970450557768344879150390625">
        <ele>898</ele>
        <time>2019-07-08T15:32:12.000Z</time>
      </trkpt>
      <trkpt lat="42.6196925528347492218017578125" lon="-6.2802410311996936798095703125">
        <ele>897.5999755859375</ele>
        <time>2019-07-08T15:32:14.000Z</time>
      </trkpt>
      <trkpt lat="42.6201347820460796356201171875" lon="-6.2808160297572612762451171875">
        <ele>896.5999755859375</ele>
        <time>2019-07-08T15:32:16.000Z</time>
      </trkpt>
      <trkpt lat="42.62034625746309757232666015625" lon="-6.28112205304205417633056640625">
        <ele>894.79998779296875</ele>
        <time>2019-07-08T15:32:17.000Z</time>
      </trkpt>
      <trkpt lat="42.62055136263370513916015625" lon="-6.28144006244838237762451171875">
        <ele>892.5999755859375</ele>
        <time>2019-07-08T15:32:18.000Z</time>
      </trkpt>
      <trkpt lat="42.620747499167919158935546875" lon="-6.28176745958626270294189453125">
        <ele>891.4000244140625</ele>
        <time>2019-07-08T15:32:19.000Z</time>
      </trkpt>
      <trkpt lat="42.62093433178961277008056640625" lon="-6.28210508264601230621337890625">
        <ele>890</ele>
        <time>2019-07-08T15:32:20.000Z</time>
      </trkpt>
      <trkpt lat="42.62128100730478763580322265625" lon="-6.2828065641224384307861328125">
        <ele>888.5999755859375</ele>
        <time>2019-07-08T15:32:22.000Z</time>
      </trkpt>
      <trkpt lat="42.62159474194049835205078125" lon="-6.2835384719073772430419921875">
        <ele>888.20001220703125</ele>
        <time>2019-07-08T15:32:24.000Z</time>
      </trkpt>
      <trkpt lat="42.62173731811344623565673828125" lon="-6.28391440026462078094482421875">
        <ele>887</ele>
        <time>2019-07-08T15:32:25.000Z</time>
      </trkpt>
      <trkpt lat="42.62198877520859241485595703125" lon="-6.2846750579774379730224609375">
        <ele>888</ele>
        <time>2019-07-08T15:32:27.000Z</time>
      </trkpt>
      <trkpt lat="42.6220984943211078643798828125" lon="-6.28505836240947246551513671875">
        <ele>888.20001220703125</ele>
        <time>2019-07-08T15:32:28.000Z</time>
      </trkpt>
      <trkpt lat="42.62228935025632381439208984375" lon="-6.28583502955734729766845703125">
        <ele>888.4000244140625</ele>
        <time>2019-07-08T15:32:30.000Z</time>
      </trkpt>
      <trkpt lat="42.622444666922092437744140625" lon="-6.286618821322917938232421875">
        <ele>889</ele>
        <time>2019-07-08T15:32:32.000Z</time>
      </trkpt>
      <trkpt lat="42.62250694446265697479248046875" lon="-6.28701168112456798553466796875">
        <ele>889.4000244140625</ele>
        <time>2019-07-08T15:32:33.000Z</time>
      </trkpt>
      <trkpt lat="42.62260450981557369232177734375" lon="-6.2878058664500713348388671875">
        <ele>890.20001220703125</ele>
        <time>2019-07-08T15:32:35.000Z</time>
      </trkpt>
      <trkpt lat="42.6226453296840190887451171875" lon="-6.28820501267910003662109375">
        <ele>890.5999755859375</ele>
        <time>2019-07-08T15:32:36.000Z</time>
      </trkpt>
      <trkpt lat="42.6227207668125629425048828125" lon="-6.28900573588907718658447265625">
        <ele>891</ele>
        <time>2019-07-08T15:32:38.000Z</time>
      </trkpt>
      <trkpt lat="42.6227938570082187652587890625" lon="-6.28980360925197601318359375">
        <ele>891.79998779296875</ele>
        <time>2019-07-08T15:32:40.000Z</time>
      </trkpt>
      <trkpt lat="42.6228292286396026611328125" lon="-6.29020350985229015350341796875">
        <ele>893.20001220703125</ele>
        <time>2019-07-08T15:32:41.000Z</time>
      </trkpt>
      <trkpt lat="42.622866444289684295654296875" lon="-6.2906020693480968475341796875">
        <ele>895.5999755859375</ele>
        <time>2019-07-08T15:32:42.000Z</time>
      </trkpt>
      <trkpt lat="42.6229038275778293609619140625" lon="-6.29100029356777667999267578125">
        <ele>898.4000244140625</ele>
        <time>2019-07-08T15:32:43.000Z</time>
      </trkpt>
      <trkpt lat="42.62294045649468898773193359375" lon="-6.29139960743486881256103515625">
        <ele>901.4000244140625</ele>
        <time>2019-07-08T15:32:44.000Z</time>
      </trkpt>
      <trkpt lat="42.6229772530496120452880859375" lon="-6.2917983345687389373779296875">
        <ele>904</ele>
        <time>2019-07-08T15:32:45.000Z</time>
      </trkpt>
      <trkpt lat="42.6230141334235668182373046875" lon="-6.292195804417133331298828125">
        <ele>906</ele>
        <time>2019-07-08T15:32:46.000Z</time>
      </trkpt>
      <trkpt lat="42.62305009178817272186279296875" lon="-6.29259151406586170196533203125">
        <ele>907.4000244140625</ele>
        <time>2019-07-08T15:32:47.000Z</time>
      </trkpt>
      <trkpt lat="42.62312334962189197540283203125" lon="-6.2933731265366077423095703125">
        <ele>909.20001220703125</ele>
        <time>2019-07-08T15:32:49.000Z</time>
      </trkpt>
      <trkpt lat="42.6231968589127063751220703125" lon="-6.2941523082554340362548828125">
        <ele>911.20001220703125</ele>
        <time>2019-07-08T15:32:51.000Z</time>
      </trkpt>
      <trkpt lat="42.623271457850933074951171875" lon="-6.2949385307729244232177734375">
        <ele>913</ele>
        <time>2019-07-08T15:32:53.000Z</time>
      </trkpt>
      <trkpt lat="42.62330825440585613250732421875" lon="-6.2953348271548748016357421875">
        <ele>914.20001220703125</ele>
        <time>2019-07-08T15:32:54.000Z</time>
      </trkpt>
      <trkpt lat="42.623345553874969482421875" lon="-6.2957341410219669342041015625">
        <ele>915.5999755859375</ele>
        <time>2019-07-08T15:32:55.000Z</time>
      </trkpt>
      <trkpt lat="42.6233836077153682708740234375" lon="-6.2961351312696933746337890625">
        <ele>916.79998779296875</ele>
        <time>2019-07-08T15:32:56.000Z</time>
      </trkpt>
      <trkpt lat="42.623421661555767059326171875" lon="-6.29653972573578357696533203125">
        <ele>918</ele>
        <time>2019-07-08T15:32:57.000Z</time>
      </trkpt>
      <trkpt lat="42.62346080504357814788818359375" lon="-6.29694893024861812591552734375">
        <ele>919.20001220703125</ele>
        <time>2019-07-08T15:32:58.000Z</time>
      </trkpt>
      <trkpt lat="42.6235012896358966827392578125" lon="-6.2973629124462604522705078125">
        <ele>920.5999755859375</ele>
        <time>2019-07-08T15:32:59.000Z</time>
      </trkpt>
      <trkpt lat="42.623543031513690948486328125" lon="-6.2977840192615985870361328125">
        <ele>922.4000244140625</ele>
        <time>2019-07-08T15:33:00.000Z</time>
      </trkpt>
      <trkpt lat="42.62358334846794605255126953125" lon="-6.29821090959012508392333984375">
        <ele>923.79998779296875</ele>
        <time>2019-07-08T15:33:01.000Z</time>
      </trkpt>
      <trkpt lat="42.62362291105091571807861328125" lon="-6.2986429966986179351806640625">
        <ele>924.79998779296875</ele>
        <time>2019-07-08T15:33:02.000Z</time>
      </trkpt>
      <trkpt lat="42.623704969882965087890625" lon="-6.29951479844748973846435546875">
        <ele>925.79998779296875</ele>
        <time>2019-07-08T15:33:04.000Z</time>
      </trkpt>
      <trkpt lat="42.62374444864690303802490234375" lon="-6.2999505735933780670166015625">
        <ele>925.79998779296875</ele>
        <time>2019-07-08T15:33:05.000Z</time>
      </trkpt>
      <trkpt lat="42.623815946280956268310546875" lon="-6.3008256442844867706298828125">
        <ele>926.20001220703125</ele>
        <time>2019-07-08T15:33:07.000Z</time>
      </trkpt>
      <trkpt lat="42.623876966536045074462890625" lon="-6.3017101027071475982666015625">
        <ele>926</ele>
        <time>2019-07-08T15:33:09.000Z</time>
      </trkpt>
      <trkpt lat="42.62389750219881534576416015625" lon="-6.30261811427772045135498046875">
        <ele>925.20001220703125</ele>
        <time>2019-07-08T15:33:11.000Z</time>
      </trkpt>
      <trkpt lat="42.62388342060148715972900390625" lon="-6.3030753470957279205322265625">
        <ele>924.5999755859375</ele>
        <time>2019-07-08T15:33:12.000Z</time>
      </trkpt>
      <trkpt lat="42.6238536648452281951904296875" lon="-6.303533501923084259033203125">
        <ele>923.4000244140625</ele>
        <time>2019-07-08T15:33:13.000Z</time>
      </trkpt>
      <trkpt lat="42.62374495156109333038330078125" lon="-6.3044586963951587677001953125">
        <ele>922.5999755859375</ele>
        <time>2019-07-08T15:33:15.000Z</time>
      </trkpt>
      <trkpt lat="42.6235871203243732452392578125" lon="-6.30537006072700023651123046875">
        <ele>921.79998779296875</ele>
        <time>2019-07-08T15:33:17.000Z</time>
      </trkpt>
      <trkpt lat="42.62350925244390964508056640625" lon="-6.30580960772931575775146484375">
        <ele>920.4000244140625</ele>
        <time>2019-07-08T15:33:18.000Z</time>
      </trkpt>
      <trkpt lat="42.62343800626695156097412109375" lon="-6.3062410242855548858642578125">
        <ele>918.20001220703125</ele>
        <time>2019-07-08T15:33:19.000Z</time>
      </trkpt>
      <trkpt lat="42.62337665073573589324951171875" lon="-6.3066659867763519287109375">
        <ele>917.20001220703125</ele>
        <time>2019-07-08T15:33:20.000Z</time>
      </trkpt>
      <trkpt lat="42.6232887245714664459228515625" lon="-6.30750660784542560577392578125">
        <ele>914.4000244140625</ele>
        <time>2019-07-08T15:33:22.000Z</time>
      </trkpt>
      <trkpt lat="42.62326098047196865081787109375" lon="-6.3079267926514148712158203125">
        <ele>912</ele>
        <time>2019-07-08T15:33:23.000Z</time>
      </trkpt>
      <trkpt lat="42.62324455194175243377685546875" lon="-6.30834513343870639801025390625">
        <ele>910</ele>
        <time>2019-07-08T15:33:24.000Z</time>
      </trkpt>
      <trkpt lat="42.62323834933340549468994140625" lon="-6.30876171402633190155029296875">
        <ele>906.5999755859375</ele>
        <time>2019-07-08T15:33:25.000Z</time>
      </trkpt>
      <trkpt lat="42.623243294656276702880859375" lon="-6.30917611531913280487060546875">
        <ele>902</ele>
        <time>2019-07-08T15:33:26.000Z</time>
      </trkpt>
      <trkpt lat="42.62325880117714405059814453125" lon="-6.3095895946025848388671875">
        <ele>898.5999755859375</ele>
        <time>2019-07-08T15:33:27.000Z</time>
      </trkpt>
      <trkpt lat="42.6232840307056903839111328125" lon="-6.31000340916216373443603515625">
        <ele>896.79998779296875</ele>
        <time>2019-07-08T15:33:28.000Z</time>
      </trkpt>
      <trkpt lat="42.623321749269962310791015625" lon="-6.31041638553142547607421875">
        <ele>895</ele>
        <time>2019-07-08T15:33:29.000Z</time>
      </trkpt>
      <trkpt lat="42.62337245978415012359619140625" lon="-6.31082676351070404052734375">
        <ele>894</ele>
        <time>2019-07-08T15:33:30.000Z</time>
      </trkpt>
      <trkpt lat="42.6234359107911586761474609375" lon="-6.31123445928096771240234375">
        <ele>891.79998779296875</ele>
        <time>2019-07-08T15:33:31.000Z</time>
      </trkpt>
      <trkpt lat="42.62351260520517826080322265625" lon="-6.31163888610899448394775390625">
        <ele>890.79998779296875</ele>
        <time>2019-07-08T15:33:32.000Z</time>
      </trkpt>
      <trkpt lat="42.62368175201117992401123046875" lon="-6.31244556047022342681884765625">
        <ele>889.4000244140625</ele>
        <time>2019-07-08T15:33:34.000Z</time>
      </trkpt>
      <trkpt lat="42.62376506812870502471923828125" lon="-6.3128483109176158905029296875">
        <ele>887.20001220703125</ele>
        <time>2019-07-08T15:33:35.000Z</time>
      </trkpt>
      <trkpt lat="42.62384218163788318634033203125" lon="-6.31325474940240383148193359375">
        <ele>884.5999755859375</ele>
        <time>2019-07-08T15:33:36.000Z</time>
      </trkpt>
      <trkpt lat="42.62390906922519207000732421875" lon="-6.3136640377342700958251953125">
        <ele>882</ele>
        <time>2019-07-08T15:33:37.000Z</time>
      </trkpt>
      <trkpt lat="42.62396254576742649078369140625" lon="-6.314074583351612091064453125">
        <ele>880.5999755859375</ele>
        <time>2019-07-08T15:33:38.000Z</time>
      </trkpt>
      <trkpt lat="42.62400194071233272552490234375" lon="-6.31448688916862010955810546875">
        <ele>879.20001220703125</ele>
        <time>2019-07-08T15:33:39.000Z</time>
      </trkpt>
      <trkpt lat="42.62402809225022792816162109375" lon="-6.314899362623691558837890625">
        <ele>878</ele>
        <time>2019-07-08T15:33:40.000Z</time>
      </trkpt>
      <trkpt lat="42.62404032982885837554931640625" lon="-6.31531166844069957733154296875">
        <ele>876.79998779296875</ele>
        <time>2019-07-08T15:33:41.000Z</time>
      </trkpt>
      <trkpt lat="42.6240387372672557830810546875" lon="-6.3157256506383419036865234375">
        <ele>875.20001220703125</ele>
        <time>2019-07-08T15:33:42.000Z</time>
      </trkpt>
      <trkpt lat="42.62402356602251529693603515625" lon="-6.31613896228373050689697265625">
        <ele>873.5999755859375</ele>
        <time>2019-07-08T15:33:43.000Z</time>
      </trkpt>
      <trkpt lat="42.623957097530364990234375" lon="-6.3169621489942073822021484375">
        <ele>871.79998779296875</ele>
        <time>2019-07-08T15:33:45.000Z</time>
      </trkpt>
      <trkpt lat="42.62390571646392345428466796875" lon="-6.31737227551639080047607421875">
        <ele>871.20001220703125</ele>
        <time>2019-07-08T15:33:46.000Z</time>
      </trkpt>
      <trkpt lat="42.6237641461193561553955078125" lon="-6.31818582303822040557861328125">
        <ele>871.4000244140625</ele>
        <time>2019-07-08T15:33:48.000Z</time>
      </trkpt>
      <trkpt lat="42.6235737092792987823486328125" lon="-6.31897757761180400848388671875">
        <ele>871.20001220703125</ele>
        <time>2019-07-08T15:33:50.000Z</time>
      </trkpt>
      <trkpt lat="42.62345728464424610137939453125" lon="-6.3193613849580287933349609375">
        <ele>869.5999755859375</ele>
        <time>2019-07-08T15:33:51.000Z</time>
      </trkpt>
      <trkpt lat="42.62332887388765811920166015625" lon="-6.319736056029796600341796875">
        <ele>867.4000244140625</ele>
        <time>2019-07-08T15:33:52.000Z</time>
      </trkpt>
      <trkpt lat="42.6231904886662960052490234375" lon="-6.32010326720774173736572265625">
        <ele>864.4000244140625</ele>
        <time>2019-07-08T15:33:53.000Z</time>
      </trkpt>
      <trkpt lat="42.62304321862757205963134765625" lon="-6.320461928844451904296875">
        <ele>862.20001220703125</ele>
        <time>2019-07-08T15:33:54.000Z</time>
      </trkpt>
      <trkpt lat="42.62288622558116912841796875" lon="-6.32081137038767337799072265625">
        <ele>860.4000244140625</ele>
        <time>2019-07-08T15:33:55.000Z</time>
      </trkpt>
      <trkpt lat="42.622719593346118927001953125" lon="-6.3211504183709621429443359375">
        <ele>858.79998779296875</ele>
        <time>2019-07-08T15:33:56.000Z</time>
      </trkpt>
      <trkpt lat="42.622354142367839813232421875" lon="-6.3217936456203460693359375">
        <ele>856</ele>
        <time>2019-07-08T15:33:58.000Z</time>
      </trkpt>
      <trkpt lat="42.6221568323671817779541015625" lon="-6.32209606468677520751953125">
        <ele>852.79998779296875</ele>
        <time>2019-07-08T15:33:59.000Z</time>
      </trkpt>
      <trkpt lat="42.6219506375491619110107421875" lon="-6.3223852403461933135986328125">
        <ele>850.20001220703125</ele>
        <time>2019-07-08T15:34:00.000Z</time>
      </trkpt>
      <trkpt lat="42.62173681519925594329833984375" lon="-6.322661340236663818359375">
        <ele>847.5999755859375</ele>
        <time>2019-07-08T15:34:01.000Z</time>
      </trkpt>
      <trkpt lat="42.62128570117056369781494140625" lon="-6.32317431271076202392578125">
        <ele>846.4000244140625</ele>
        <time>2019-07-08T15:34:03.000Z</time>
      </trkpt>
      <trkpt lat="42.62105218134820461273193359375" lon="-6.32341177202761173248291015625">
        <ele>844.79998779296875</ele>
        <time>2019-07-08T15:34:04.000Z</time>
      </trkpt>
      <trkpt lat="42.6205734908580780029296875" lon="-6.323848553001880645751953125">
        <ele>844.5999755859375</ele>
        <time>2019-07-08T15:34:06.000Z</time>
      </trkpt>
      <trkpt lat="42.62008038349449634552001953125" lon="-6.32424308918416500091552734375">
        <ele>844.5999755859375</ele>
        <time>2019-07-08T15:34:08.000Z</time>
      </trkpt>
      <trkpt lat="42.619584091007709503173828125" lon="-6.3246235437691211700439453125">
        <ele>844.79998779296875</ele>
        <time>2019-07-08T15:34:10.000Z</time>
      </trkpt>
      <trkpt lat="42.6190950907766819000244140625" lon="-6.32502243854105472564697265625">
        <ele>845</ele>
        <time>2019-07-08T15:34:12.000Z</time>
      </trkpt>
      <trkpt lat="42.6186216808855533599853515625" lon="-6.32545955479145050048828125">
        <ele>845.79998779296875</ele>
        <time>2019-07-08T15:34:14.000Z</time>
      </trkpt>
      <trkpt lat="42.61839084327220916748046875" lon="-6.32569282315671443939208984375">
        <ele>846.20001220703125</ele>
        <time>2019-07-08T15:34:15.000Z</time>
      </trkpt>
      <trkpt lat="42.617945931851863861083984375" lon="-6.32619171403348445892333984375">
        <ele>847.20001220703125</ele>
        <time>2019-07-08T15:34:17.000Z</time>
      </trkpt>
      <trkpt lat="42.61753027327358722686767578125" lon="-6.32674089632928371429443359375">
        <ele>847</ele>
        <time>2019-07-08T15:34:19.000Z</time>
      </trkpt>
      <trkpt lat="42.61715895496308803558349609375" lon="-6.3273466564714908599853515625">
        <ele>845.4000244140625</ele>
        <time>2019-07-08T15:34:21.000Z</time>
      </trkpt>
      <trkpt lat="42.61698896996676921844482421875" lon="-6.32767329923808574676513671875">
        <ele>844.4000244140625</ele>
        <time>2019-07-08T15:34:22.000Z</time>
      </trkpt>
      <trkpt lat="42.61682518757879734039306640625" lon="-6.32801343686878681182861328125">
        <ele>843</ele>
        <time>2019-07-08T15:34:23.000Z</time>
      </trkpt>
      <trkpt lat="42.61650860309600830078125" lon="-6.328720115125179290771484375">
        <ele>840.79998779296875</ele>
        <time>2019-07-08T15:34:25.000Z</time>
      </trkpt>
      <trkpt lat="42.6163597404956817626953125" lon="-6.329085566103458404541015625">
        <ele>838</ele>
        <time>2019-07-08T15:34:26.000Z</time>
      </trkpt>
      <trkpt lat="42.616217248141765594482421875" lon="-6.329457722604274749755859375">
        <ele>836.5999755859375</ele>
        <time>2019-07-08T15:34:27.000Z</time>
      </trkpt>
      <trkpt lat="42.61607836000621318817138671875" lon="-6.32983155548572540283203125">
        <ele>834.20001220703125</ele>
        <time>2019-07-08T15:34:28.000Z</time>
      </trkpt>
      <trkpt lat="42.615938298404216766357421875" lon="-6.33020396344363689422607421875">
        <ele>830.4000244140625</ele>
        <time>2019-07-08T15:34:29.000Z</time>
      </trkpt>
      <trkpt lat="42.61579521931707859039306640625" lon="-6.3305743597447872161865234375">
        <ele>826.79998779296875</ele>
        <time>2019-07-08T15:34:30.000Z</time>
      </trkpt>
      <trkpt lat="42.61564719490706920623779296875" lon="-6.3309421576559543609619140625">
        <ele>824</ele>
        <time>2019-07-08T15:34:31.000Z</time>
      </trkpt>
      <trkpt lat="42.615493722259998321533203125" lon="-6.33130584843456745147705078125">
        <ele>820.5999755859375</ele>
        <time>2019-07-08T15:34:32.000Z</time>
      </trkpt>
      <trkpt lat="42.6153342984616756439208984375" lon="-6.33166409097611904144287109375">
        <ele>817.79998779296875</ele>
        <time>2019-07-08T15:34:33.000Z</time>
      </trkpt>
      <trkpt lat="42.61516825295984745025634765625" lon="-6.3320163823664188385009765625">
        <ele>813.4000244140625</ele>
        <time>2019-07-08T15:34:34.000Z</time>
      </trkpt>
      <trkpt lat="42.6149953342974185943603515625" lon="-6.3323615491390228271484375">
        <ele>811.20001220703125</ele>
        <time>2019-07-08T15:34:35.000Z</time>
      </trkpt>
      <trkpt lat="42.6148156262934207916259765625" lon="-6.33269825018942356109619140625">
        <ele>813.4000244140625</ele>
        <time>2019-07-08T15:34:36.000Z</time>
      </trkpt>
      <trkpt lat="42.61463164351880550384521484375" lon="-6.33302883245050907135009765625">
        <ele>816.5999755859375</ele>
        <time>2019-07-08T15:34:37.000Z</time>
      </trkpt>
      <trkpt lat="42.61444740928709506988525390625" lon="-6.33335656486451625823974609375">
        <ele>818.79998779296875</ele>
        <time>2019-07-08T15:34:38.000Z</time>
      </trkpt>
      <trkpt lat="42.61426351033151149749755859375" lon="-6.3336827047169208526611328125">
        <ele>821.79998779296875</ele>
        <time>2019-07-08T15:34:39.000Z</time>
      </trkpt>
      <trkpt lat="42.61407961137592792510986328125" lon="-6.334006749093532562255859375">
        <ele>823.79998779296875</ele>
        <time>2019-07-08T15:34:40.000Z</time>
      </trkpt>
      <trkpt lat="42.6137202791869640350341796875" lon="-6.3346570171415805816650390625">
        <ele>824.79998779296875</ele>
        <time>2019-07-08T15:34:42.000Z</time>
      </trkpt>
      <trkpt lat="42.61338341049849987030029296875" lon="-6.33532262407243251800537109375">
        <ele>823.4000244140625</ele>
        <time>2019-07-08T15:34:44.000Z</time>
      </trkpt>
      <trkpt lat="42.61322616599500179290771484375" lon="-6.3356668688356876373291015625">
        <ele>822.79998779296875</ele>
        <time>2019-07-08T15:34:45.000Z</time>
      </trkpt>
      <trkpt lat="42.6130758784711360931396484375" lon="-6.33602150715887546539306640625">
        <ele>821.5999755859375</ele>
        <time>2019-07-08T15:34:46.000Z</time>
      </trkpt>
      <trkpt lat="42.61279718019068241119384765625" lon="-6.33676280267536640167236328125">
        <ele>820</ele>
        <time>2019-07-08T15:34:48.000Z</time>
      </trkpt>
      <trkpt lat="42.6125488243997097015380859375" lon="-6.33754231967031955718994140625">
        <ele>819.20001220703125</ele>
        <time>2019-07-08T15:34:50.000Z</time>
      </trkpt>
      <trkpt lat="42.61243977583944797515869140625" lon="-6.3379440642893314361572265625">
        <ele>819</ele>
        <time>2019-07-08T15:34:51.000Z</time>
      </trkpt>
      <trkpt lat="42.612251602113246917724609375" lon="-6.3387628085911273956298828125">
        <ele>817.20001220703125</ele>
        <time>2019-07-08T15:34:53.000Z</time>
      </trkpt>
      <trkpt lat="42.612165100872516632080078125" lon="-6.33916907943785190582275390625">
        <ele>815.4000244140625</ele>
        <time>2019-07-08T15:34:54.000Z</time>
      </trkpt>
      <trkpt lat="42.6120787672698497772216796875" lon="-6.339570991694927215576171875">
        <ele>813.4000244140625</ele>
        <time>2019-07-08T15:34:55.000Z</time>
      </trkpt>
      <trkpt lat="42.6119892485439777374267578125" lon="-6.3399656116962432861328125">
        <ele>811.79998779296875</ele>
        <time>2019-07-08T15:34:56.000Z</time>
      </trkpt>
      <trkpt lat="42.61189528740942478179931640625" lon="-6.34034757502377033233642578125">
        <ele>809.20001220703125</ele>
        <time>2019-07-08T15:34:57.000Z</time>
      </trkpt>
      <trkpt lat="42.61179571039974689483642578125" lon="-6.3407141156494617462158203125">
        <ele>806.79998779296875</ele>
        <time>2019-07-08T15:34:58.000Z</time>
      </trkpt>
      <trkpt lat="42.611689008772373199462890625" lon="-6.34106573648750782012939453125">
        <ele>803.5999755859375</ele>
        <time>2019-07-08T15:34:59.000Z</time>
      </trkpt>
      <trkpt lat="42.6115735061466693878173828125" lon="-6.34140620939433574676513671875">
        <ele>801.5999755859375</ele>
        <time>2019-07-08T15:35:00.000Z</time>
      </trkpt>
      <trkpt lat="42.61144903488457202911376953125" lon="-6.341740228235721588134765625">
        <ele>799.5999755859375</ele>
        <time>2019-07-08T15:35:01.000Z</time>
      </trkpt>
      <trkpt lat="42.61131584644317626953125" lon="-6.3420703075826168060302734375">
        <ele>796.4000244140625</ele>
        <time>2019-07-08T15:35:02.000Z</time>
      </trkpt>
      <trkpt lat="42.61117570102214813232421875" lon="-6.342396698892116546630859375">
        <ele>793.5999755859375</ele>
        <time>2019-07-08T15:35:03.000Z</time>
      </trkpt>
      <trkpt lat="42.61102952063083648681640625" lon="-6.34271965362131595611572265625">
        <ele>794.5999755859375</ele>
        <time>2019-07-08T15:35:04.000Z</time>
      </trkpt>
      <trkpt lat="42.610709331929683685302734375" lon="-6.343358270823955535888671875">
        <ele>791.4000244140625</ele>
        <time>2019-07-08T15:35:06.000Z</time>
      </trkpt>
      <trkpt lat="42.6105338148772716522216796875" lon="-6.34367217309772968292236328125">
        <ele>789.5999755859375</ele>
        <time>2019-07-08T15:35:07.000Z</time>
      </trkpt>
      <trkpt lat="42.61034899391233921051025390625" lon="-6.34398481808602809906005859375">
        <ele>788.20001220703125</ele>
        <time>2019-07-08T15:35:08.000Z</time>
      </trkpt>
      <trkpt lat="42.6101546175777912139892578125" lon="-6.34430131874978542327880859375">
        <ele>789.4000244140625</ele>
        <time>2019-07-08T15:35:09.000Z</time>
      </trkpt>
      <trkpt lat="42.60975572280585765838623046875" lon="-6.344947479665279388427734375">
        <ele>790.5999755859375</ele>
        <time>2019-07-08T15:35:11.000Z</time>
      </trkpt>
      <trkpt lat="42.60936512611806392669677734375" lon="-6.3456091471016407012939453125">
        <ele>791.4000244140625</ele>
        <time>2019-07-08T15:35:13.000Z</time>
      </trkpt>
      <trkpt lat="42.609177120029926300048828125" lon="-6.34594735689461231231689453125">
        <ele>791.79998779296875</ele>
        <time>2019-07-08T15:35:14.000Z</time>
      </trkpt>
      <trkpt lat="42.60882365517318248748779296875" lon="-6.3466404564678668975830078125">
        <ele>792.5999755859375</ele>
        <time>2019-07-08T15:35:16.000Z</time>
      </trkpt>
      <trkpt lat="42.60849961079657077789306640625" lon="-6.34735048748552799224853515625">
        <ele>792</ele>
        <time>2019-07-08T15:35:18.000Z</time>
      </trkpt>
      <trkpt lat="42.60819953866302967071533203125" lon="-6.34807032532989978790283203125">
        <ele>789.5999755859375</ele>
        <time>2019-07-08T15:35:20.000Z</time>
      </trkpt>
      <trkpt lat="42.60793014429509639739990234375" lon="-6.34880323894321918487548828125">
        <ele>788.5999755859375</ele>
        <time>2019-07-08T15:35:22.000Z</time>
      </trkpt>
      <trkpt lat="42.6076896674931049346923828125" lon="-6.3495513238012790679931640625">
        <ele>789</ele>
        <time>2019-07-08T15:35:24.000Z</time>
      </trkpt>
      <trkpt lat="42.6074771024286746978759765625" lon="-6.35031315498054027557373046875">
        <ele>790.4000244140625</ele>
        <time>2019-07-08T15:35:26.000Z</time>
      </trkpt>
      <trkpt lat="42.607380710542201995849609375" lon="-6.35070073418319225311279296875">
        <ele>791</ele>
        <time>2019-07-08T15:35:27.000Z</time>
      </trkpt>
      <trkpt lat="42.607207708060741424560546875" lon="-6.3514868728816509246826171875">
        <ele>792</ele>
        <time>2019-07-08T15:35:29.000Z</time>
      </trkpt>
      <trkpt lat="42.6070670597255229949951171875" lon="-6.3522878475487232208251953125">
        <ele>794.4000244140625</ele>
        <time>2019-07-08T15:35:31.000Z</time>
      </trkpt>
      <trkpt lat="42.60695868171751499176025390625" lon="-6.35311958380043506622314453125">
        <ele>795.4000244140625</ele>
        <time>2019-07-08T15:35:33.000Z</time>
      </trkpt>
      <trkpt lat="42.60688324458897113800048828125" lon="-6.3539707660675048828125">
        <ele>795.20001220703125</ele>
        <time>2019-07-08T15:35:35.000Z</time>
      </trkpt>
      <trkpt lat="42.6068397425115108489990234375" lon="-6.35482043959200382232666015625">
        <ele>794.20001220703125</ele>
        <time>2019-07-08T15:35:37.000Z</time>
      </trkpt>
      <trkpt lat="42.60681652463972568511962890625" lon="-6.35566701181232929229736328125">
        <ele>794</ele>
        <time>2019-07-08T15:35:39.000Z</time>
      </trkpt>
      <trkpt lat="42.6068109087646007537841796875" lon="-6.35650469921529293060302734375">
        <ele>794</ele>
        <time>2019-07-08T15:35:41.000Z</time>
      </trkpt>
      <trkpt lat="42.6068065501749515533447265625" lon="-6.3573414646089076995849609375">
        <ele>793.5999755859375</ele>
        <time>2019-07-08T15:35:43.000Z</time>
      </trkpt>
      <trkpt lat="42.60678492486476898193359375" lon="-6.35818460024893283843994140625">
        <ele>793</ele>
        <time>2019-07-08T15:35:45.000Z</time>
      </trkpt>
      <trkpt lat="42.6067418418824672698974609375" lon="-6.35901424102485179901123046875">
        <ele>791.79998779296875</ele>
        <time>2019-07-08T15:35:47.000Z</time>
      </trkpt>
      <trkpt lat="42.60666958987712860107421875" lon="-6.3598248548805713653564453125">
        <ele>790.4000244140625</ele>
        <time>2019-07-08T15:35:49.000Z</time>
      </trkpt>
      <trkpt lat="42.60656557045876979827880859375" lon="-6.3606258295476436614990234375">
        <ele>788.20001220703125</ele>
        <time>2019-07-08T15:35:51.000Z</time>
      </trkpt>
      <trkpt lat="42.60650186799466609954833984375" lon="-6.36102573014795780181884765625">
        <ele>786.20001220703125</ele>
        <time>2019-07-08T15:35:52.000Z</time>
      </trkpt>
      <trkpt lat="42.60643422603607177734375" lon="-6.361424624919891357421875">
        <ele>784.5999755859375</ele>
        <time>2019-07-08T15:35:53.000Z</time>
      </trkpt>
      <trkpt lat="42.60636356659233570098876953125" lon="-6.36182217858731746673583984375">
        <ele>783.20001220703125</ele>
        <time>2019-07-08T15:35:54.000Z</time>
      </trkpt>
      <trkpt lat="42.6062047295272350311279296875" lon="-6.3626088201999664306640625">
        <ele>781.4000244140625</ele>
        <time>2019-07-08T15:35:56.000Z</time>
      </trkpt>
      <trkpt lat="42.6061145402491092681884765625" lon="-6.36299665085971355438232421875">
        <ele>780.20001220703125</ele>
        <time>2019-07-08T15:35:57.000Z</time>
      </trkpt>
      <trkpt lat="42.60601957328617572784423828125" lon="-6.36338272131979465484619140625">
        <ele>778.79998779296875</ele>
        <time>2019-07-08T15:35:58.000Z</time>
      </trkpt>
      <trkpt lat="42.60591882281005382537841796875" lon="-6.36376728303730487823486328125">
        <ele>777.20001220703125</ele>
        <time>2019-07-08T15:35:59.000Z</time>
      </trkpt>
      <trkpt lat="42.6058127917349338531494140625" lon="-6.36415117420256137847900390625">
        <ele>775.4000244140625</ele>
        <time>2019-07-08T15:36:00.000Z</time>
      </trkpt>
      <trkpt lat="42.6057033240795135498046875" lon="-6.364534310996532440185546875">
        <ele>773.4000244140625</ele>
        <time>2019-07-08T15:36:01.000Z</time>
      </trkpt>
      <trkpt lat="42.60559142567217350006103515625" lon="-6.364917196333408355712890625">
        <ele>771.79998779296875</ele>
        <time>2019-07-08T15:36:02.000Z</time>
      </trkpt>
      <trkpt lat="42.60547642596065998077392578125" lon="-6.365298740565776824951171875">
        <ele>770.5999755859375</ele>
        <time>2019-07-08T15:36:03.000Z</time>
      </trkpt>
      <trkpt lat="42.60524055920541286468505859375" lon="-6.3660609908401966094970703125">
        <ele>768.79998779296875</ele>
        <time>2019-07-08T15:36:05.000Z</time>
      </trkpt>
      <trkpt lat="42.60512086562812328338623046875" lon="-6.36644446291029453277587890625">
        <ele>767.5999755859375</ele>
        <time>2019-07-08T15:36:06.000Z</time>
      </trkpt>
      <trkpt lat="42.60500050149857997894287109375" lon="-6.3668327964842319488525390625">
        <ele>766.4000244140625</ele>
        <time>2019-07-08T15:36:07.000Z</time>
      </trkpt>
      <trkpt lat="42.604880891740322113037109375" lon="-6.36722649447619915008544921875">
        <ele>764.79998779296875</ele>
        <time>2019-07-08T15:36:08.000Z</time>
      </trkpt>
      <trkpt lat="42.6046410016715526580810546875" lon="-6.3680263794958591461181640625">
        <ele>762.5999755859375</ele>
        <time>2019-07-08T15:36:10.000Z</time>
      </trkpt>
      <trkpt lat="42.60452088899910449981689453125" lon="-6.36842778883874416351318359375">
        <ele>761.20001220703125</ele>
        <time>2019-07-08T15:36:11.000Z</time>
      </trkpt>
      <trkpt lat="42.60440253652632236480712890625" lon="-6.36882928200066089630126953125">
        <ele>759.20001220703125</ele>
        <time>2019-07-08T15:36:12.000Z</time>
      </trkpt>
      <trkpt lat="42.60428619571030139923095703125" lon="-6.369230188429355621337890625">
        <ele>758</ele>
        <time>2019-07-08T15:36:13.000Z</time>
      </trkpt>
      <trkpt lat="42.60417253710329532623291015625" lon="-6.3696283288300037384033203125">
        <ele>756.79998779296875</ele>
        <time>2019-07-08T15:36:14.000Z</time>
      </trkpt>
      <trkpt lat="42.6039560325443744659423828125" lon="-6.37041782028973102569580078125">
        <ele>756.20001220703125</ele>
        <time>2019-07-08T15:36:16.000Z</time>
      </trkpt>
      <trkpt lat="42.60385335423052310943603515625" lon="-6.3708125241100788116455078125">
        <ele>755.5999755859375</ele>
        <time>2019-07-08T15:36:17.000Z</time>
      </trkpt>
      <trkpt lat="42.6037555374205112457275390625" lon="-6.37120840139687061309814453125">
        <ele>754.4000244140625</ele>
        <time>2019-07-08T15:36:18.000Z</time>
      </trkpt>
      <trkpt lat="42.6036623306572437286376953125" lon="-6.371607296168804168701171875">
        <ele>753.20001220703125</ele>
        <time>2019-07-08T15:36:19.000Z</time>
      </trkpt>
      <trkpt lat="42.603573314845561981201171875" lon="-6.3720097951591014862060546875">
        <ele>749</ele>
        <time>2019-07-08T15:36:20.000Z</time>
      </trkpt>
      <trkpt lat="42.60348706506192684173583984375" lon="-6.37241556309163570404052734375">
        <ele>746.4000244140625</ele>
        <time>2019-07-08T15:36:21.000Z</time>
      </trkpt>
      <trkpt lat="42.603403665125370025634765625" lon="-6.37282292358577251434326171875">
        <ele>744.79998779296875</ele>
        <time>2019-07-08T15:36:22.000Z</time>
      </trkpt>
      <trkpt lat="42.60324901901185512542724609375" lon="-6.37363814748823642730712890625">
        <ele>746.20001220703125</ele>
        <time>2019-07-08T15:36:24.000Z</time>
      </trkpt>
      <trkpt lat="42.60311834514141082763671875" lon="-6.37446611188352108001708984375">
        <ele>745.4000244140625</ele>
        <time>2019-07-08T15:36:26.000Z</time>
      </trkpt>
      <trkpt lat="42.60303653776645660400390625" lon="-6.375316791236400604248046875">
        <ele>744.20001220703125</ele>
        <time>2019-07-08T15:36:28.000Z</time>
      </trkpt>
      <trkpt lat="42.60301516391336917877197265625" lon="-6.37574938125908374786376953125">
        <ele>740.20001220703125</ele>
        <time>2019-07-08T15:36:29.000Z</time>
      </trkpt>
      <trkpt lat="42.6030041836202144622802734375" lon="-6.3761823065578937530517578125">
        <ele>737.20001220703125</ele>
        <time>2019-07-08T15:36:30.000Z</time>
      </trkpt>
      <trkpt lat="42.603006698191165924072265625" lon="-6.37661322019994258880615234375">
        <ele>732.20001220703125</ele>
        <time>2019-07-08T15:36:31.000Z</time>
      </trkpt>
      <trkpt lat="42.60302354581654071807861328125" lon="-6.37704505585134029388427734375">
        <ele>729.5999755859375</ele>
        <time>2019-07-08T15:36:32.000Z</time>
      </trkpt>
      <trkpt lat="42.60305388830602169036865234375" lon="-6.37747672386467456817626953125">
        <ele>727.5999755859375</ele>
        <time>2019-07-08T15:36:33.000Z</time>
      </trkpt>
      <trkpt lat="42.60315631516277790069580078125" lon="-6.3783300854265689849853515625">
        <ele>730.79998779296875</ele>
        <time>2019-07-08T15:36:35.000Z</time>
      </trkpt>
      <trkpt lat="42.6032294891774654388427734375" lon="-6.37874959968030452728271484375">
        <ele>732.79998779296875</ele>
        <time>2019-07-08T15:36:36.000Z</time>
      </trkpt>
      <trkpt lat="42.60341263376176357269287109375" lon="-6.3795779831707477569580078125">
        <ele>733</ele>
        <time>2019-07-08T15:36:38.000Z</time>
      </trkpt>
      <trkpt lat="42.60364380665123462677001953125" lon="-6.38038658536970615386962890625">
        <ele>733</ele>
        <time>2019-07-08T15:36:40.000Z</time>
      </trkpt>
      <trkpt lat="42.60392610915005207061767578125" lon="-6.38116308487951755523681640625">
        <ele>732</ele>
        <time>2019-07-08T15:36:42.000Z</time>
      </trkpt>
      <trkpt lat="42.60408553294837474822998046875" lon="-6.3815410248935222625732421875">
        <ele>731</ele>
        <time>2019-07-08T15:36:43.000Z</time>
      </trkpt>
      <trkpt lat="42.6044374890625476837158203125" lon="-6.38227268122136592864990234375">
        <ele>730.20001220703125</ele>
        <time>2019-07-08T15:36:45.000Z</time>
      </trkpt>
      <trkpt lat="42.6046296022832393646240234375" lon="-6.38262304477393627166748046875">
        <ele>729.4000244140625</ele>
        <time>2019-07-08T15:36:46.000Z</time>
      </trkpt>
      <trkpt lat="42.60504744015634059906005859375" lon="-6.3832918368279933929443359375">
        <ele>728</ele>
        <time>2019-07-08T15:36:48.000Z</time>
      </trkpt>
      <trkpt lat="42.60551313869655132293701171875" lon="-6.3839020393788814544677734375">
        <ele>727.4000244140625</ele>
        <time>2019-07-08T15:36:50.000Z</time>
      </trkpt>
      <trkpt lat="42.60601890273392200469970703125" lon="-6.384454071521759033203125">
        <ele>727</ele>
        <time>2019-07-08T15:36:52.000Z</time>
      </trkpt>
      <trkpt lat="42.60655752383172512054443359375" lon="-6.3849527947604656219482421875">
        <ele>726.5999755859375</ele>
        <time>2019-07-08T15:36:54.000Z</time>
      </trkpt>
      <trkpt lat="42.60712145827710628509521484375" lon="-6.3853923417627811431884765625">
        <ele>725.5999755859375</ele>
        <time>2019-07-08T15:36:56.000Z</time>
      </trkpt>
      <trkpt lat="42.60770584456622600555419921875" lon="-6.3857634924352169036865234375">
        <ele>724.5999755859375</ele>
        <time>2019-07-08T15:36:58.000Z</time>
      </trkpt>
      <trkpt lat="42.6082924939692020416259765625" lon="-6.3861034624278545379638671875">
        <ele>724.20001220703125</ele>
        <time>2019-07-08T15:37:00.000Z</time>
      </trkpt>
      <trkpt lat="42.60857890360057353973388671875" lon="-6.386281661689281463623046875">
        <ele>723.5999755859375</ele>
        <time>2019-07-08T15:37:01.000Z</time>
      </trkpt>
      <trkpt lat="42.60913378559052944183349609375" lon="-6.386679969727993011474609375">
        <ele>722.79998779296875</ele>
        <time>2019-07-08T15:37:03.000Z</time>
      </trkpt>
      <trkpt lat="42.6096570678055286407470703125" lon="-6.3871491886675357818603515625">
        <ele>723.4000244140625</ele>
        <time>2019-07-08T15:37:05.000Z</time>
      </trkpt>
      <trkpt lat="42.61014179326593875885009765625" lon="-6.38768571428954601287841796875">
        <ele>724.4000244140625</ele>
        <time>2019-07-08T15:37:07.000Z</time>
      </trkpt>
      <trkpt lat="42.61036274023354053497314453125" lon="-6.38798511587083339691162109375">
        <ele>725</ele>
        <time>2019-07-08T15:37:08.000Z</time>
      </trkpt>
      <trkpt lat="42.61077714152634143829345703125" lon="-6.3886237330734729766845703125">
        <ele>726.4000244140625</ele>
        <time>2019-07-08T15:37:10.000Z</time>
      </trkpt>
      <trkpt lat="42.6109700091183185577392578125" lon="-6.38895959593355655670166015625">
        <ele>727.4000244140625</ele>
        <time>2019-07-08T15:37:11.000Z</time>
      </trkpt>
      <trkpt lat="42.6113145053386688232421875" lon="-6.389671973884105682373046875">
        <ele>729</ele>
        <time>2019-07-08T15:37:13.000Z</time>
      </trkpt>
      <trkpt lat="42.61161013506352901458740234375" lon="-6.3904369063675403594970703125">
        <ele>730</ele>
        <time>2019-07-08T15:37:15.000Z</time>
      </trkpt>
      <trkpt lat="42.61173804290592670440673828125" lon="-6.39083915390074253082275390625">
        <ele>731.4000244140625</ele>
        <time>2019-07-08T15:37:16.000Z</time>
      </trkpt>
      <trkpt lat="42.61184968985617160797119140625" lon="-6.391251794993877410888671875">
        <ele>733.79998779296875</ele>
        <time>2019-07-08T15:37:17.000Z</time>
      </trkpt>
      <trkpt lat="42.61194541119039058685302734375" lon="-6.3916732370853424072265625">
        <ele>737.20001220703125</ele>
        <time>2019-07-08T15:37:18.000Z</time>
      </trkpt>
      <trkpt lat="42.61202587746083736419677734375" lon="-6.39210171997547149658203125">
        <ele>739.79998779296875</ele>
        <time>2019-07-08T15:37:19.000Z</time>
      </trkpt>
      <trkpt lat="42.612089999020099639892578125" lon="-6.3925315439701080322265625">
        <ele>741.5999755859375</ele>
        <time>2019-07-08T15:37:20.000Z</time>
      </trkpt>
      <trkpt lat="42.61213802732527256011962890625" lon="-6.39296262525022029876708984375">
        <ele>743</ele>
        <time>2019-07-08T15:37:21.000Z</time>
      </trkpt>
      <trkpt lat="42.6121716387569904327392578125" lon="-6.3933933712542057037353515625">
        <ele>744.4000244140625</ele>
        <time>2019-07-08T15:37:22.000Z</time>
      </trkpt>
      <trkpt lat="42.61219494044780731201171875" lon="-6.39382235705852508544921875">
        <ele>745.5999755859375</ele>
        <time>2019-07-08T15:37:23.000Z</time>
      </trkpt>
      <trkpt lat="42.6122142188251018524169921875" lon="-6.3942493312060832977294921875">
        <ele>748.20001220703125</ele>
        <time>2019-07-08T15:37:24.000Z</time>
      </trkpt>
      <trkpt lat="42.61223408393561840057373046875" lon="-6.39467454515397548675537109375">
        <ele>751</ele>
        <time>2019-07-08T15:37:25.000Z</time>
      </trkpt>
      <trkpt lat="42.61225973255932331085205078125" lon="-6.39509665779769420623779296875">
        <ele>754.5999755859375</ele>
        <time>2019-07-08T15:37:26.000Z</time>
      </trkpt>
      <trkpt lat="42.61229493655264377593994140625" lon="-6.3955173455178737640380859375">
        <ele>756.79998779296875</ele>
        <time>2019-07-08T15:37:27.000Z</time>
      </trkpt>
      <trkpt lat="42.61234003119170665740966796875" lon="-6.39593618921935558319091796875">
        <ele>758.4000244140625</ele>
        <time>2019-07-08T15:37:28.000Z</time>
      </trkpt>
      <trkpt lat="42.61239702813327312469482421875" lon="-6.39635302126407623291015625">
        <ele>759.5999755859375</ele>
        <time>2019-07-08T15:37:29.000Z</time>
      </trkpt>
      <trkpt lat="42.6125429570674896240234375" lon="-6.39718023128807544708251953125">
        <ele>761</ele>
        <time>2019-07-08T15:37:31.000Z</time>
      </trkpt>
      <trkpt lat="42.6127345673739910125732421875" lon="-6.39799411408603191375732421875">
        <ele>762.20001220703125</ele>
        <time>2019-07-08T15:37:33.000Z</time>
      </trkpt>
      <trkpt lat="42.61297018267214298248291015625" lon="-6.39877698384225368499755859375">
        <ele>763.5999755859375</ele>
        <time>2019-07-08T15:37:35.000Z</time>
      </trkpt>
      <trkpt lat="42.6132438518106937408447265625" lon="-6.39952850528061389923095703125">
        <ele>765.20001220703125</ele>
        <time>2019-07-08T15:37:37.000Z</time>
      </trkpt>
      <trkpt lat="42.61354853399097919464111328125" lon="-6.4002574793994426727294921875">
        <ele>765.4000244140625</ele>
        <time>2019-07-08T15:37:39.000Z</time>
      </trkpt>
      <trkpt lat="42.6138892583549022674560546875" lon="-6.40096642076969146728515625">
        <ele>765.4000244140625</ele>
        <time>2019-07-08T15:37:41.000Z</time>
      </trkpt>
      <trkpt lat="42.614075504243373870849609375" lon="-6.40131066553294658660888671875">
        <ele>765.4000244140625</ele>
        <time>2019-07-08T15:37:42.000Z</time>
      </trkpt>
      <trkpt lat="42.6144786737859249114990234375" lon="-6.4019740931689739227294921875">
        <ele>765.4000244140625</ele>
        <time>2019-07-08T15:37:44.000Z</time>
      </trkpt>
      <trkpt lat="42.614929117262363433837890625" lon="-6.402581445872783660888671875">
        <ele>765.5999755859375</ele>
        <time>2019-07-08T15:37:46.000Z</time>
      </trkpt>
      <trkpt lat="42.61541401036083698272705078125" lon="-6.40313557349145412445068359375">
        <ele>764.79998779296875</ele>
        <time>2019-07-08T15:37:48.000Z</time>
      </trkpt>
      <trkpt lat="42.6156677305698394775390625" lon="-6.403395496308803558349609375">
        <ele>764</ele>
        <time>2019-07-08T15:37:49.000Z</time>
      </trkpt>
      <trkpt lat="42.61619486846029758453369140625" lon="-6.40388223342597484588623046875">
        <ele>763.5999755859375</ele>
        <time>2019-07-08T15:37:51.000Z</time>
      </trkpt>
      <trkpt lat="42.6167511753737926483154296875" lon="-6.404322199523448944091796875">
        <ele>763.20001220703125</ele>
        <time>2019-07-08T15:37:53.000Z</time>
      </trkpt>
      <trkpt lat="42.61703968048095703125" lon="-6.40452378429472446441650390625">
        <ele>762.20001220703125</ele>
        <time>2019-07-08T15:37:54.000Z</time>
      </trkpt>
      <trkpt lat="42.61763119138777256011962890625" lon="-6.404894851148128509521484375">
        <ele>761.20001220703125</ele>
        <time>2019-07-08T15:37:56.000Z</time>
      </trkpt>
      <trkpt lat="42.61823519133031368255615234375" lon="-6.4052178896963596343994140625">
        <ele>759.5999755859375</ele>
        <time>2019-07-08T15:37:58.000Z</time>
      </trkpt>
      <trkpt lat="42.61884690262377262115478515625" lon="-6.4055065624415874481201171875">
        <ele>758.20001220703125</ele>
        <time>2019-07-08T15:38:00.000Z</time>
      </trkpt>
      <trkpt lat="42.61945568025112152099609375" lon="-6.4057955704629421234130859375">
        <ele>757.20001220703125</ele>
        <time>2019-07-08T15:38:02.000Z</time>
      </trkpt>
      <trkpt lat="42.619757764041423797607421875" lon="-6.40594753436744213104248046875">
        <ele>756</ele>
        <time>2019-07-08T15:38:03.000Z</time>
      </trkpt>
      <trkpt lat="42.6200569979846477508544921875" lon="-6.4061083830893039703369140625">
        <ele>754</ele>
        <time>2019-07-08T15:38:04.000Z</time>
      </trkpt>
      <trkpt lat="42.62035296298563480377197265625" lon="-6.4062787033617496490478515625">
        <ele>751.79998779296875</ele>
        <time>2019-07-08T15:38:05.000Z</time>
      </trkpt>
      <trkpt lat="42.62064465321600437164306640625" lon="-6.40645849518477916717529296875">
        <ele>749.79998779296875</ele>
        <time>2019-07-08T15:38:06.000Z</time>
      </trkpt>
      <trkpt lat="42.62093315832316875457763671875" lon="-6.406649686396121978759765625">
        <ele>748.4000244140625</ele>
        <time>2019-07-08T15:38:07.000Z</time>
      </trkpt>
      <trkpt lat="42.6212183944880962371826171875" lon="-6.4068506844341754913330078125">
        <ele>746.5999755859375</ele>
        <time>2019-07-08T15:38:08.000Z</time>
      </trkpt>
      <trkpt lat="42.62149893678724765777587890625" lon="-6.4070610702037811279296875">
        <ele>745</ele>
        <time>2019-07-08T15:38:09.000Z</time>
      </trkpt>
      <trkpt lat="42.621776796877384185791015625" lon="-6.407279670238494873046875">
        <ele>743</ele>
        <time>2019-07-08T15:38:10.000Z</time>
      </trkpt>
      <trkpt lat="42.6220512203872203826904296875" lon="-6.4075058139860630035400390625">
        <ele>741.4000244140625</ele>
        <time>2019-07-08T15:38:11.000Z</time>
      </trkpt>
      <trkpt lat="42.62232162058353424072265625" lon="-6.40774159692227840423583984375">
        <ele>739</ele>
        <time>2019-07-08T15:38:12.000Z</time>
      </trkpt>
      <trkpt lat="42.6225879974663257598876953125" lon="-6.40798785723745822906494140625">
        <ele>736.79998779296875</ele>
        <time>2019-07-08T15:38:13.000Z</time>
      </trkpt>
      <trkpt lat="42.6228501833975315093994140625" lon="-6.40824266709387302398681640625">
        <ele>734.4000244140625</ele>
        <time>2019-07-08T15:38:14.000Z</time>
      </trkpt>
      <trkpt lat="42.623107843101024627685546875" lon="-6.40850619412958621978759765625">
        <ele>732.79998779296875</ele>
        <time>2019-07-08T15:38:15.000Z</time>
      </trkpt>
      <trkpt lat="42.623611427843570709228515625" lon="-6.40905571170151233673095703125">
        <ele>732</ele>
        <time>2019-07-08T15:38:17.000Z</time>
      </trkpt>
      <trkpt lat="42.6240943931043148040771484375" lon="-6.40963741578161716461181640625">
        <ele>734.4000244140625</ele>
        <time>2019-07-08T15:38:19.000Z</time>
      </trkpt>
      <trkpt lat="42.624326907098293304443359375" lon="-6.40994000248610973358154296875">
        <ele>736</ele>
        <time>2019-07-08T15:38:20.000Z</time>
      </trkpt>
      <trkpt lat="42.6247743330895900726318359375" lon="-6.4105705730617046356201171875">
        <ele>737.79998779296875</ele>
        <time>2019-07-08T15:38:22.000Z</time>
      </trkpt>
      <trkpt lat="42.6251977868378162384033203125" lon="-6.4112350903451442718505859375">
        <ele>738.20001220703125</ele>
        <time>2019-07-08T15:38:24.000Z</time>
      </trkpt>
      <trkpt lat="42.62560053728520870208740234375" lon="-6.411926932632923126220703125">
        <ele>738.4000244140625</ele>
        <time>2019-07-08T15:38:26.000Z</time>
      </trkpt>
      <trkpt lat="42.625978477299213409423828125" lon="-6.412646770477294921875">
        <ele>738.20001220703125</ele>
        <time>2019-07-08T15:38:28.000Z</time>
      </trkpt>
      <trkpt lat="42.626333869993686676025390625" lon="-6.41339267604053020477294921875">
        <ele>738.20001220703125</ele>
        <time>2019-07-08T15:38:30.000Z</time>
      </trkpt>
      <trkpt lat="42.6266647875308990478515625" lon="-6.41416884027421474456787109375">
        <ele>738</ele>
        <time>2019-07-08T15:38:32.000Z</time>
      </trkpt>
      <trkpt lat="42.626964859664440155029296875" lon="-6.41496562398970127105712890625">
        <ele>737.5999755859375</ele>
        <time>2019-07-08T15:38:34.000Z</time>
      </trkpt>
      <trkpt lat="42.62723718769848346710205078125" lon="-6.41576056368649005889892578125">
        <ele>736.5999755859375</ele>
        <time>2019-07-08T15:38:36.000Z</time>
      </trkpt>
      <trkpt lat="42.627477161586284637451171875" lon="-6.416565142571926116943359375">
        <ele>735</ele>
        <time>2019-07-08T15:38:38.000Z</time>
      </trkpt>
      <trkpt lat="42.6276808418333530426025390625" lon="-6.41738690435886383056640625">
        <ele>733.20001220703125</ele>
        <time>2019-07-08T15:38:40.000Z</time>
      </trkpt>
      <trkpt lat="42.62777228839695453643798828125" lon="-6.41780708916485309600830078125">
        <ele>731.79998779296875</ele>
        <time>2019-07-08T15:38:41.000Z</time>
      </trkpt>
      <trkpt lat="42.6278568617999553680419921875" lon="-6.418232135474681854248046875">
        <ele>729.5999755859375</ele>
        <time>2019-07-08T15:38:42.000Z</time>
      </trkpt>
      <trkpt lat="42.6279376633465290069580078125" lon="-6.41866237856447696685791015625">
        <ele>727.4000244140625</ele>
        <time>2019-07-08T15:38:43.000Z</time>
      </trkpt>
      <trkpt lat="42.62801050208508968353271484375" lon="-6.419097483158111572265625">
        <ele>725.5999755859375</ele>
        <time>2019-07-08T15:38:44.000Z</time>
      </trkpt>
      <trkpt lat="42.628075964748859405517578125" lon="-6.419535689055919647216796875">
        <ele>724.20001220703125</ele>
        <time>2019-07-08T15:38:45.000Z</time>
      </trkpt>
      <trkpt lat="42.62813388369977474212646484375" lon="-6.41997867263853549957275390625">
        <ele>722.79998779296875</ele>
        <time>2019-07-08T15:38:46.000Z</time>
      </trkpt>
      <trkpt lat="42.6281837560236454010009765625" lon="-6.42042492516338825225830078125">
        <ele>721.5999755859375</ele>
        <time>2019-07-08T15:38:47.000Z</time>
      </trkpt>
      <trkpt lat="42.62822541408240795135498046875" lon="-6.42087201587855815887451171875">
        <ele>720.20001220703125</ele>
        <time>2019-07-08T15:38:48.000Z</time>
      </trkpt>
      <trkpt lat="42.62825827114284038543701171875" lon="-6.42132145352661609649658203125">
        <ele>718.4000244140625</ele>
        <time>2019-07-08T15:38:49.000Z</time>
      </trkpt>
      <trkpt lat="42.6282840035855770111083984375" lon="-6.4217718131840229034423828125">
        <ele>716.4000244140625</ele>
        <time>2019-07-08T15:38:50.000Z</time>
      </trkpt>
      <trkpt lat="42.6283021084964275360107421875" lon="-6.4222207479178905487060546875">
        <ele>714.5999755859375</ele>
        <time>2019-07-08T15:38:51.000Z</time>
      </trkpt>
      <trkpt lat="42.62831099331378936767578125" lon="-6.42266591079533100128173828125">
        <ele>713.4000244140625</ele>
        <time>2019-07-08T15:38:52.000Z</time>
      </trkpt>
      <trkpt lat="42.628312669694423675537109375" lon="-6.4231087267398834228515625">
        <ele>712</ele>
        <time>2019-07-08T15:38:53.000Z</time>
      </trkpt>
      <trkpt lat="42.6283071376383304595947265625" lon="-6.4235464297235012054443359375">
        <ele>710.79998779296875</ele>
        <time>2019-07-08T15:38:54.000Z</time>
      </trkpt>
      <trkpt lat="42.6282950676977634429931640625" lon="-6.42398002557456493377685546875">
        <ele>709.4000244140625</ele>
        <time>2019-07-08T15:38:55.000Z</time>
      </trkpt>
      <trkpt lat="42.62827386148273944854736328125" lon="-6.4244094304740428924560546875">
        <ele>708.4000244140625</ele>
        <time>2019-07-08T15:38:56.000Z</time>
      </trkpt>
      <trkpt lat="42.62824167497456073760986328125" lon="-6.42483699135482311248779296875">
        <ele>707.4000244140625</ele>
        <time>2019-07-08T15:38:57.000Z</time>
      </trkpt>
      <trkpt lat="42.62819892726838588714599609375" lon="-6.425264887511730194091796875">
        <ele>705.79998779296875</ele>
        <time>2019-07-08T15:38:58.000Z</time>
      </trkpt>
      <trkpt lat="42.62814913876354694366455078125" lon="-6.42569462768733501434326171875">
        <ele>703.79998779296875</ele>
        <time>2019-07-08T15:38:59.000Z</time>
      </trkpt>
      <trkpt lat="42.62809314765036106109619140625" lon="-6.42612445168197154998779296875">
        <ele>702</ele>
        <time>2019-07-08T15:39:00.000Z</time>
      </trkpt>
      <trkpt lat="42.628031037747859954833984375" lon="-6.42655326984822750091552734375">
        <ele>700.4000244140625</ele>
        <time>2019-07-08T15:39:01.000Z</time>
      </trkpt>
      <trkpt lat="42.627961635589599609375" lon="-6.4269796572625637054443359375">
        <ele>699.4000244140625</ele>
        <time>2019-07-08T15:39:02.000Z</time>
      </trkpt>
      <trkpt lat="42.6278095878660678863525390625" lon="-6.42782178707420825958251953125">
        <ele>698</ele>
        <time>2019-07-08T15:39:04.000Z</time>
      </trkpt>
      <trkpt lat="42.6276305504143238067626953125" lon="-6.4286429621279239654541015625">
        <ele>697</ele>
        <time>2019-07-08T15:39:06.000Z</time>
      </trkpt>
      <trkpt lat="42.62742376886308193206787109375" lon="-6.4294459484517574310302734375">
        <ele>695.79998779296875</ele>
        <time>2019-07-08T15:39:08.000Z</time>
      </trkpt>
      <trkpt lat="42.62720500119030475616455078125" lon="-6.43024667166173458099365234375">
        <ele>695.5999755859375</ele>
        <time>2019-07-08T15:39:10.000Z</time>
      </trkpt>
      <trkpt lat="42.62698455713689327239990234375" lon="-6.4310467243194580078125">
        <ele>694.79998779296875</ele>
        <time>2019-07-08T15:39:12.000Z</time>
      </trkpt>
      <trkpt lat="42.62687693350017070770263671875" lon="-6.43144511617720127105712890625">
        <ele>694.79998779296875</ele>
        <time>2019-07-08T15:39:13.000Z</time>
      </trkpt>
      <trkpt lat="42.62666285969316959381103515625" lon="-6.4322398044168949127197265625">
        <ele>694.4000244140625</ele>
        <time>2019-07-08T15:39:15.000Z</time>
      </trkpt>
      <trkpt lat="42.6264470256865024566650390625" lon="-6.433028876781463623046875">
        <ele>693.79998779296875</ele>
        <time>2019-07-08T15:39:17.000Z</time>
      </trkpt>
      <trkpt lat="42.6263402402400970458984375" lon="-6.43342190422117710113525390625">
        <ele>693.20001220703125</ele>
        <time>2019-07-08T15:39:18.000Z</time>
      </trkpt>
      <trkpt lat="42.6262374781072139739990234375" lon="-6.43381652422249317169189453125">
        <ele>692</ele>
        <time>2019-07-08T15:39:19.000Z</time>
      </trkpt>
      <trkpt lat="42.62603673152625560760498046875" lon="-6.4346073567867279052734375">
        <ele>689.5999755859375</ele>
        <time>2019-07-08T15:39:21.000Z</time>
      </trkpt>
      <trkpt lat="42.62582668103277683258056640625" lon="-6.4353893883526325225830078125">
        <ele>688.5999755859375</ele>
        <time>2019-07-08T15:39:23.000Z</time>
      </trkpt>
      <trkpt lat="42.62560439296066761016845703125" lon="-6.43616077490150928497314453125">
        <ele>687.20001220703125</ele>
        <time>2019-07-08T15:39:25.000Z</time>
      </trkpt>
      <trkpt lat="42.6253510080277919769287109375" lon="-6.4369115419685840606689453125">
        <ele>688.20001220703125</ele>
        <time>2019-07-08T15:39:27.000Z</time>
      </trkpt>
      <trkpt lat="42.62520742602646350860595703125" lon="-6.437279172241687774658203125">
        <ele>688.5999755859375</ele>
        <time>2019-07-08T15:39:28.000Z</time>
      </trkpt>
      <trkpt lat="42.624887488782405853271484375" lon="-6.4379918016493320465087890625">
        <ele>688.4000244140625</ele>
        <time>2019-07-08T15:39:30.000Z</time>
      </trkpt>
      <trkpt lat="42.6245339401066303253173828125" lon="-6.4386811293661594390869140625">
        <ele>688.20001220703125</ele>
        <time>2019-07-08T15:39:32.000Z</time>
      </trkpt>
      <trkpt lat="42.62416522018611431121826171875" lon="-6.439360566437244415283203125">
        <ele>687.20001220703125</ele>
        <time>2019-07-08T15:39:34.000Z</time>
      </trkpt>
      <trkpt lat="42.623805887997150421142578125" lon="-6.4400446973741054534912109375">
        <ele>686.4000244140625</ele>
        <time>2019-07-08T15:39:36.000Z</time>
      </trkpt>
      <trkpt lat="42.62363833375275135040283203125" lon="-6.44039715640246868133544921875">
        <ele>685.5999755859375</ele>
        <time>2019-07-08T15:39:37.000Z</time>
      </trkpt>
      <trkpt lat="42.62334329076111316680908203125" lon="-6.44113384187221527099609375">
        <ele>684.20001220703125</ele>
        <time>2019-07-08T15:39:39.000Z</time>
      </trkpt>
      <trkpt lat="42.62321840040385723114013671875" lon="-6.4415195770561695098876953125">
        <ele>683</ele>
        <time>2019-07-08T15:39:40.000Z</time>
      </trkpt>
      <trkpt lat="42.62310625053942203521728515625" lon="-6.4419141970574855804443359375">
        <ele>681.4000244140625</ele>
        <time>2019-07-08T15:39:41.000Z</time>
      </trkpt>
      <trkpt lat="42.62292134575545787811279296875" lon="-6.44272732548415660858154296875">
        <ele>680</ele>
        <time>2019-07-08T15:39:43.000Z</time>
      </trkpt>
      <trkpt lat="42.62279779650270938873291015625" lon="-6.44356660544872283935546875">
        <ele>680.20001220703125</ele>
        <time>2019-07-08T15:39:45.000Z</time>
      </trkpt>
      <trkpt lat="42.6227599941194057464599609375" lon="-6.4439898915588855743408203125">
        <ele>681.20001220703125</ele>
        <time>2019-07-08T15:39:46.000Z</time>
      </trkpt>
      <trkpt lat="42.6227308250963687896728515625" lon="-6.4448448456823825836181640625">
        <ele>682</ele>
        <time>2019-07-08T15:39:48.000Z</time>
      </trkpt>
      <trkpt lat="42.62272755615413188934326171875" lon="-6.44527517259120941162109375">
        <ele>681.5999755859375</ele>
        <time>2019-07-08T15:39:49.000Z</time>
      </trkpt>
      <trkpt lat="42.6227164082229137420654296875" lon="-6.446141861379146575927734375">
        <ele>680.4000244140625</ele>
        <time>2019-07-08T15:39:51.000Z</time>
      </trkpt>
      <trkpt lat="42.62270676903426647186279296875" lon="-6.44657738506793975830078125">
        <ele>679.4000244140625</ele>
        <time>2019-07-08T15:39:52.000Z</time>
      </trkpt>
      <trkpt lat="42.62268631719052791595458984375" lon="-6.44745605997741222381591796875">
        <ele>677.5999755859375</ele>
        <time>2019-07-08T15:39:54.000Z</time>
      </trkpt>
      <trkpt lat="42.62267072685062885284423828125" lon="-6.44834102131426334381103515625">
        <ele>676.20001220703125</ele>
        <time>2019-07-08T15:39:56.000Z</time>
      </trkpt>
      <trkpt lat="42.62266351841390132904052734375" lon="-6.44921667873859405517578125">
        <ele>676</ele>
        <time>2019-07-08T15:39:58.000Z</time>
      </trkpt>
      <trkpt lat="42.62267298996448516845703125" lon="-6.45008160732686519622802734375">
        <ele>676.20001220703125</ele>
        <time>2019-07-08T15:40:00.000Z</time>
      </trkpt>
      <trkpt lat="42.6226714812219142913818359375" lon="-6.45093572326004505157470703125">
        <ele>675.4000244140625</ele>
        <time>2019-07-08T15:40:02.000Z</time>
      </trkpt>
      <trkpt lat="42.62265932746231555938720703125" lon="-6.4513589255511760711669921875">
        <ele>674.79998779296875</ele>
        <time>2019-07-08T15:40:03.000Z</time>
      </trkpt>
      <trkpt lat="42.622601576149463653564453125" lon="-6.4521994628012180328369140625">
        <ele>673.20001220703125</ele>
        <time>2019-07-08T15:40:05.000Z</time>
      </trkpt>
      <trkpt lat="42.62248749844729900360107421875" lon="-6.45303404890000820159912109375">
        <ele>672.5999755859375</ele>
        <time>2019-07-08T15:40:07.000Z</time>
      </trkpt>
      <trkpt lat="42.62240988202393054962158203125" lon="-6.45344811491668224334716796875">
        <ele>672</ele>
        <time>2019-07-08T15:40:08.000Z</time>
      </trkpt>
      <trkpt lat="42.622215338051319122314453125" lon="-6.45426467992365360260009765625">
        <ele>671.5999755859375</ele>
        <time>2019-07-08T15:40:10.000Z</time>
      </trkpt>
      <trkpt lat="42.62196832336485385894775390625" lon="-6.45505844615399837493896484375">
        <ele>671.79998779296875</ele>
        <time>2019-07-08T15:40:12.000Z</time>
      </trkpt>
      <trkpt lat="42.62166238389909267425537109375" lon="-6.455815248191356658935546875">
        <ele>672</ele>
        <time>2019-07-08T15:40:14.000Z</time>
      </trkpt>
      <trkpt lat="42.62130833230912685394287109375" lon="-6.4565268717706203460693359375">
        <ele>672</ele>
        <time>2019-07-08T15:40:16.000Z</time>
      </trkpt>
      <trkpt lat="42.62112158350646495819091796875" lon="-6.45687078125774860382080078125">
        <ele>671</ele>
        <time>2019-07-08T15:40:17.000Z</time>
      </trkpt>
      <trkpt lat="42.620933912694454193115234375" lon="-6.4572111703455448150634765625">
        <ele>669.4000244140625</ele>
        <time>2019-07-08T15:40:18.000Z</time>
      </trkpt>
      <trkpt lat="42.62056703679263591766357421875" lon="-6.45788398571312427520751953125">
        <ele>668</ele>
        <time>2019-07-08T15:40:20.000Z</time>
      </trkpt>
      <trkpt lat="42.62020803987979888916015625" lon="-6.45854950882494449615478515625">
        <ele>666.79998779296875</ele>
        <time>2019-07-08T15:40:22.000Z</time>
      </trkpt>
      <trkpt lat="42.619853653013706207275390625" lon="-6.45921737886965274810791015625">
        <ele>666.5999755859375</ele>
        <time>2019-07-08T15:40:24.000Z</time>
      </trkpt>
      <trkpt lat="42.6195104978978633880615234375" lon="-6.4598890207707881927490234375">
        <ele>667</ele>
        <time>2019-07-08T15:40:26.000Z</time>
      </trkpt>
      <trkpt lat="42.6191836036741733551025390625" lon="-6.460570804774761199951171875">
        <ele>666.4000244140625</ele>
        <time>2019-07-08T15:40:28.000Z</time>
      </trkpt>
      <trkpt lat="42.6188624091446399688720703125" lon="-6.4612519182264804840087890625">
        <ele>667</ele>
        <time>2019-07-08T15:40:30.000Z</time>
      </trkpt>
      <trkpt lat="42.618541382253170013427734375" lon="-6.46193110384047031402587890625">
        <ele>666.79998779296875</ele>
        <time>2019-07-08T15:40:32.000Z</time>
      </trkpt>
      <trkpt lat="42.618223540484905242919921875" lon="-6.4626104570925235748291015625">
        <ele>666.5999755859375</ele>
        <time>2019-07-08T15:40:34.000Z</time>
      </trkpt>
      <trkpt lat="42.618065290153026580810546875" lon="-6.462949253618717193603515625">
        <ele>665.20001220703125</ele>
        <time>2019-07-08T15:40:35.000Z</time>
      </trkpt>
      <trkpt lat="42.617907710373401641845703125" lon="-6.46328696049749851226806640625">
        <ele>663.5999755859375</ele>
        <time>2019-07-08T15:40:36.000Z</time>
      </trkpt>
      <trkpt lat="42.6175943948328495025634765625" lon="-6.4639602787792682647705078125">
        <ele>662.20001220703125</ele>
        <time>2019-07-08T15:40:38.000Z</time>
      </trkpt>
      <trkpt lat="42.6172845996916294097900390625" lon="-6.46462856791913509368896484375">
        <ele>661.4000244140625</ele>
        <time>2019-07-08T15:40:40.000Z</time>
      </trkpt>
      <trkpt lat="42.61698000133037567138671875" lon="-6.4652913250029087066650390625">
        <ele>661.4000244140625</ele>
        <time>2019-07-08T15:40:42.000Z</time>
      </trkpt>
      <trkpt lat="42.61667850427329540252685546875" lon="-6.465947292745113372802734375">
        <ele>661.79998779296875</ele>
        <time>2019-07-08T15:40:44.000Z</time>
      </trkpt>
      <trkpt lat="42.61637541465461254119873046875" lon="-6.46659429185092449188232421875">
        <ele>660.5999755859375</ele>
        <time>2019-07-08T15:40:46.000Z</time>
      </trkpt>
      <trkpt lat="42.61622454039752483367919921875" lon="-6.466914899647235870361328125">
        <ele>660</ele>
        <time>2019-07-08T15:40:47.000Z</time>
      </trkpt>
      <trkpt lat="42.6160754263401031494140625" lon="-6.4672339148819446563720703125">
        <ele>659</ele>
        <time>2019-07-08T15:40:48.000Z</time>
      </trkpt>
      <trkpt lat="42.6157798804342746734619140625" lon="-6.46786314435303211212158203125">
        <ele>657.79998779296875</ele>
        <time>2019-07-08T15:40:50.000Z</time>
      </trkpt>
      <trkpt lat="42.61548559181392192840576171875" lon="-6.46849061362445354461669921875">
        <ele>657</ele>
        <time>2019-07-08T15:40:52.000Z</time>
      </trkpt>
      <trkpt lat="42.61533840559422969818115234375" lon="-6.4688056893646717071533203125">
        <ele>656.5999755859375</ele>
        <time>2019-07-08T15:40:53.000Z</time>
      </trkpt>
      <trkpt lat="42.61504202149808406829833984375" lon="-6.46943391300737857818603515625">
        <ele>656.20001220703125</ele>
        <time>2019-07-08T15:40:55.000Z</time>
      </trkpt>
      <trkpt lat="42.61472602374851703643798828125" lon="-6.470045037567615509033203125">
        <ele>656.20001220703125</ele>
        <time>2019-07-08T15:40:57.000Z</time>
      </trkpt>
      <trkpt lat="42.6143881492316722869873046875" lon="-6.47063386626541614532470703125">
        <ele>656.79998779296875</ele>
        <time>2019-07-08T15:40:59.000Z</time>
      </trkpt>
      <trkpt lat="42.614027559757232666015625" lon="-6.47119763307273387908935546875">
        <ele>656.5999755859375</ele>
        <time>2019-07-08T15:41:01.000Z</time>
      </trkpt>
      <trkpt lat="42.6136388070881366729736328125" lon="-6.47173122502863407135009765625">
        <ele>657</ele>
        <time>2019-07-08T15:41:03.000Z</time>
      </trkpt>
      <trkpt lat="42.61322700418531894683837890625" lon="-6.47224076092243194580078125">
        <ele>656.5999755859375</ele>
        <time>2019-07-08T15:41:05.000Z</time>
      </trkpt>
      <trkpt lat="42.61280019767582416534423828125" lon="-6.47273923270404338836669921875">
        <ele>658</ele>
        <time>2019-07-08T15:41:07.000Z</time>
      </trkpt>
      <trkpt lat="42.61258411221206188201904296875" lon="-6.47298783995211124420166015625">
        <ele>659.4000244140625</ele>
        <time>2019-07-08T15:41:08.000Z</time>
      </trkpt>
      <trkpt lat="42.61215202510356903076171875" lon="-6.473497711122035980224609375">
        <ele>661.79998779296875</ele>
        <time>2019-07-08T15:41:10.000Z</time>
      </trkpt>
      <trkpt lat="42.6119426451623439788818359375" lon="-6.47376467473804950714111328125">
        <ele>663.20001220703125</ele>
        <time>2019-07-08T15:41:11.000Z</time>
      </trkpt>
      <trkpt lat="42.6117404736578464508056640625" lon="-6.4740416966378688812255859375">
        <ele>664.79998779296875</ele>
        <time>2019-07-08T15:41:12.000Z</time>
      </trkpt>
      <trkpt lat="42.611547522246837615966796875" lon="-6.47433028556406497955322265625">
        <ele>666.20001220703125</ele>
        <time>2019-07-08T15:41:13.000Z</time>
      </trkpt>
      <trkpt lat="42.6111926324665546417236328125" lon="-6.47494233213365077972412109375">
        <ele>667.4000244140625</ele>
        <time>2019-07-08T15:41:15.000Z</time>
      </trkpt>
      <trkpt lat="42.61087604798376560211181640625" lon="-6.4756064303219318389892578125">
        <ele>668.5999755859375</ele>
        <time>2019-07-08T15:41:17.000Z</time>
      </trkpt>
      <trkpt lat="42.610602043569087982177734375" lon="-6.476332806050777435302734375">
        <ele>668.5999755859375</ele>
        <time>2019-07-08T15:41:19.000Z</time>
      </trkpt>
      <trkpt lat="42.6103755645453929901123046875" lon="-6.47710788063704967498779296875">
        <ele>668.79998779296875</ele>
        <time>2019-07-08T15:41:21.000Z</time>
      </trkpt>
      <trkpt lat="42.61019677855074405670166015625" lon="-6.47791204042732715606689453125">
        <ele>668.4000244140625</ele>
        <time>2019-07-08T15:41:23.000Z</time>
      </trkpt>
      <trkpt lat="42.6100339181721210479736328125" lon="-6.4787243306636810302734375">
        <ele>667.20001220703125</ele>
        <time>2019-07-08T15:41:25.000Z</time>
      </trkpt>
      <trkpt lat="42.609860412776470184326171875" lon="-6.47953058592975139617919921875">
        <ele>665.5999755859375</ele>
        <time>2019-07-08T15:41:27.000Z</time>
      </trkpt>
      <trkpt lat="42.60976527817547321319580078125" lon="-6.4799298159778118133544921875">
        <ele>664.4000244140625</ele>
        <time>2019-07-08T15:41:28.000Z</time>
      </trkpt>
      <trkpt lat="42.6095534674823284149169921875" lon="-6.4807193912565708160400390625">
        <ele>663.20001220703125</ele>
        <time>2019-07-08T15:41:30.000Z</time>
      </trkpt>
      <trkpt lat="42.609306536614894866943359375" lon="-6.481490693986415863037109375">
        <ele>662.4000244140625</ele>
        <time>2019-07-08T15:41:32.000Z</time>
      </trkpt>
      <trkpt lat="42.6091714203357696533203125" lon="-6.48186913691461086273193359375">
        <ele>662.20001220703125</ele>
        <time>2019-07-08T15:41:33.000Z</time>
      </trkpt>
      <trkpt lat="42.608872689306735992431640625" lon="-6.482608504593372344970703125">
        <ele>660.79998779296875</ele>
        <time>2019-07-08T15:41:35.000Z</time>
      </trkpt>
      <trkpt lat="42.60871049948036670684814453125" lon="-6.48297035135328769683837890625">
        <ele>658.20001220703125</ele>
        <time>2019-07-08T15:41:36.000Z</time>
      </trkpt>
      <trkpt lat="42.6085399277508258819580078125" lon="-6.48332825861871242523193359375">
        <ele>655.79998779296875</ele>
        <time>2019-07-08T15:41:37.000Z</time>
      </trkpt>
      <trkpt lat="42.60836332105100154876708984375" lon="-6.4836852438747882843017578125">
        <ele>653.5999755859375</ele>
        <time>2019-07-08T15:41:38.000Z</time>
      </trkpt>
      <trkpt lat="42.608188055455684661865234375" lon="-6.4840429835021495819091796875">
        <ele>652</ele>
        <time>2019-07-08T15:41:39.000Z</time>
      </trkpt>
      <trkpt lat="42.60783945210278034210205078125" lon="-6.4847614802420139312744140625">
        <ele>651.5999755859375</ele>
        <time>2019-07-08T15:41:41.000Z</time>
      </trkpt>
      <trkpt lat="42.60749076493084430694580078125" lon="-6.48547989316284656524658203125">
        <ele>653</ele>
        <time>2019-07-08T15:41:43.000Z</time>
      </trkpt>
      <trkpt lat="42.60731709189713001251220703125" lon="-6.4858383871614933013916015625">
        <ele>653.5999755859375</ele>
        <time>2019-07-08T15:41:44.000Z</time>
      </trkpt>
      <trkpt lat="42.6069698296487331390380859375" lon="-6.4865510165691375732421875">
        <ele>655</ele>
        <time>2019-07-08T15:41:46.000Z</time>
      </trkpt>
      <trkpt lat="42.6066248305141925811767578125" lon="-6.48725710809230804443359375">
        <ele>656.79998779296875</ele>
        <time>2019-07-08T15:41:48.000Z</time>
      </trkpt>
      <trkpt lat="42.6062862016260623931884765625" lon="-6.4879556559026241302490234375">
        <ele>656.79998779296875</ele>
        <time>2019-07-08T15:41:50.000Z</time>
      </trkpt>
      <trkpt lat="42.60595000348985195159912109375" lon="-6.488652192056179046630859375">
        <ele>656.4000244140625</ele>
        <time>2019-07-08T15:41:52.000Z</time>
      </trkpt>
      <trkpt lat="42.60578437708318233489990234375" lon="-6.489001214504241943359375">
        <ele>655.79998779296875</ele>
        <time>2019-07-08T15:41:53.000Z</time>
      </trkpt>
      <trkpt lat="42.60561942122876644134521484375" lon="-6.48935065604746341705322265625">
        <ele>654.5999755859375</ele>
        <time>2019-07-08T15:41:54.000Z</time>
      </trkpt>
      <trkpt lat="42.605285234749317169189453125" lon="-6.4900444261729717254638671875">
        <ele>651.5999755859375</ele>
        <time>2019-07-08T15:41:56.000Z</time>
      </trkpt>
      <trkpt lat="42.605117596685886383056640625" lon="-6.4903884194791316986083984375">
        <ele>649.4000244140625</ele>
        <time>2019-07-08T15:41:57.000Z</time>
      </trkpt>
      <trkpt lat="42.60494920425117015838623046875" lon="-6.49073266424238681793212890625">
        <ele>646.5999755859375</ele>
        <time>2019-07-08T15:41:58.000Z</time>
      </trkpt>
      <trkpt lat="42.6047806441783905029296875" lon="-6.4910770766437053680419921875">
        <ele>644.79998779296875</ele>
        <time>2019-07-08T15:41:59.000Z</time>
      </trkpt>
      <trkpt lat="42.6044441945850849151611328125" lon="-6.49176816456019878387451171875">
        <ele>644.20001220703125</ele>
        <time>2019-07-08T15:42:01.000Z</time>
      </trkpt>
      <trkpt lat="42.60411067865788936614990234375" lon="-6.49246335960924625396728515625">
        <ele>646.20001220703125</ele>
        <time>2019-07-08T15:42:03.000Z</time>
      </trkpt>
      <trkpt lat="42.6037748157978057861328125" lon="-6.4931578002870082855224609375">
        <ele>648.20001220703125</ele>
        <time>2019-07-08T15:42:05.000Z</time>
      </trkpt>
      <trkpt lat="42.60342621244490146636962890625" lon="-6.49385307915508747100830078125">
        <ele>649.79998779296875</ele>
        <time>2019-07-08T15:42:07.000Z</time>
      </trkpt>
      <trkpt lat="42.603242732584476470947265625" lon="-6.49420914240181446075439453125">
        <ele>651.79998779296875</ele>
        <time>2019-07-08T15:42:08.000Z</time>
      </trkpt>
      <trkpt lat="42.60305799543857574462890625" lon="-6.4945699833333492279052734375">
        <ele>653.5999755859375</ele>
        <time>2019-07-08T15:42:09.000Z</time>
      </trkpt>
      <trkpt lat="42.60287753306329250335693359375" lon="-6.494932584464550018310546875">
        <ele>655.5999755859375</ele>
        <time>2019-07-08T15:42:10.000Z</time>
      </trkpt>
      <trkpt lat="42.6025329530239105224609375" lon="-6.4956566132605075836181640625">
        <ele>656.4000244140625</ele>
        <time>2019-07-08T15:42:12.000Z</time>
      </trkpt>
      <trkpt lat="42.60220178402960300445556640625" lon="-6.4963787980377674102783203125">
        <ele>655.5999755859375</ele>
        <time>2019-07-08T15:42:14.000Z</time>
      </trkpt>
      <trkpt lat="42.60203749872744083404541015625" lon="-6.496737711131572723388671875">
        <ele>653.79998779296875</ele>
        <time>2019-07-08T15:42:15.000Z</time>
      </trkpt>
      <trkpt lat="42.6017049886286258697509765625" lon="-6.4974515140056610107421875">
        <ele>651.5999755859375</ele>
        <time>2019-07-08T15:42:17.000Z</time>
      </trkpt>
      <trkpt lat="42.60136895813047885894775390625" lon="-6.4981591142714023590087890625">
        <ele>648.5999755859375</ele>
        <time>2019-07-08T15:42:19.000Z</time>
      </trkpt>
      <trkpt lat="42.601197548210620880126953125" lon="-6.49851291440427303314208984375">
        <ele>647</ele>
        <time>2019-07-08T15:42:20.000Z</time>
      </trkpt>
      <trkpt lat="42.60102546773850917816162109375" lon="-6.49886679835617542266845703125">
        <ele>646</ele>
        <time>2019-07-08T15:42:21.000Z</time>
      </trkpt>
      <trkpt lat="42.60085347108542919158935546875" lon="-6.499217413365840911865234375">
        <ele>645</ele>
        <time>2019-07-08T15:42:22.000Z</time>
      </trkpt>
      <trkpt lat="42.6005080528557300567626953125" lon="-6.4999223314225673675537109375">
        <ele>644.5999755859375</ele>
        <time>2019-07-08T15:42:24.000Z</time>
      </trkpt>
      <trkpt lat="42.60016196407377719879150390625" lon="-6.5006274171173572540283203125">
        <ele>645.79998779296875</ele>
        <time>2019-07-08T15:42:26.000Z</time>
      </trkpt>
      <trkpt lat="42.59998820722103118896484375" lon="-6.50097685866057872772216796875">
        <ele>648</ele>
        <time>2019-07-08T15:42:27.000Z</time>
      </trkpt>
      <trkpt lat="42.599813528358936309814453125" lon="-6.5013237856328487396240234375">
        <ele>649.5999755859375</ele>
        <time>2019-07-08T15:42:28.000Z</time>
      </trkpt>
      <trkpt lat="42.59946492500603199005126953125" lon="-6.5020154602825641632080078125">
        <ele>651</ele>
        <time>2019-07-08T15:42:30.000Z</time>
      </trkpt>
      <trkpt lat="42.5991143099963665008544921875" lon="-6.50270202197134494781494140625">
        <ele>650.5999755859375</ele>
        <time>2019-07-08T15:42:32.000Z</time>
      </trkpt>
      <trkpt lat="42.59893770329654216766357421875" lon="-6.5030460990965366363525390625">
        <ele>649.79998779296875</ele>
        <time>2019-07-08T15:42:33.000Z</time>
      </trkpt>
      <trkpt lat="42.598580382764339447021484375" lon="-6.5037290565669536590576171875">
        <ele>648.20001220703125</ele>
        <time>2019-07-08T15:42:35.000Z</time>
      </trkpt>
      <trkpt lat="42.598213255405426025390625" lon="-6.504404805600643157958984375">
        <ele>647.20001220703125</ele>
        <time>2019-07-08T15:42:37.000Z</time>
      </trkpt>
      <trkpt lat="42.59783866815268993377685546875" lon="-6.5050728432834148406982421875">
        <ele>646.79998779296875</ele>
        <time>2019-07-08T15:42:39.000Z</time>
      </trkpt>
      <trkpt lat="42.5974567048251628875732421875" lon="-6.5057376958429813385009765625">
        <ele>646.4000244140625</ele>
        <time>2019-07-08T15:42:41.000Z</time>
      </trkpt>
      <trkpt lat="42.59726434014737606048583984375" lon="-6.50606953538954257965087890625">
        <ele>645.5999755859375</ele>
        <time>2019-07-08T15:42:42.000Z</time>
      </trkpt>
      <trkpt lat="42.59687692858278751373291015625" lon="-6.50673396885395050048828125">
        <ele>644.5999755859375</ele>
        <time>2019-07-08T15:42:44.000Z</time>
      </trkpt>
      <trkpt lat="42.59668448008596897125244140625" lon="-6.507068574428558349609375">
        <ele>644</ele>
        <time>2019-07-08T15:42:45.000Z</time>
      </trkpt>
      <trkpt lat="42.59629991836845874786376953125" lon="-6.507743485271930694580078125">
        <ele>643</ele>
        <time>2019-07-08T15:42:47.000Z</time>
      </trkpt>
      <trkpt lat="42.5961082242429256439208984375" lon="-6.50808337144553661346435546875">
        <ele>642.5999755859375</ele>
        <time>2019-07-08T15:42:48.000Z</time>
      </trkpt>
      <trkpt lat="42.59572684764862060546875" lon="-6.50876767002046108245849609375">
        <ele>642.20001220703125</ele>
        <time>2019-07-08T15:42:50.000Z</time>
      </trkpt>
      <trkpt lat="42.59535728953778743743896484375" lon="-6.50946370325982570648193359375">
        <ele>642.4000244140625</ele>
        <time>2019-07-08T15:42:52.000Z</time>
      </trkpt>
      <trkpt lat="42.595007009804248809814453125" lon="-6.51016644202172756195068359375">
        <ele>642.79998779296875</ele>
        <time>2019-07-08T15:42:54.000Z</time>
      </trkpt>
      <trkpt lat="42.5948408804833889007568359375" lon="-6.51051965542137622833251953125">
        <ele>644</ele>
        <time>2019-07-08T15:42:55.000Z</time>
      </trkpt>
      <trkpt lat="42.59453133679926395416259765625" lon="-6.51123530231416225433349609375">
        <ele>644.4000244140625</ele>
        <time>2019-07-08T15:42:57.000Z</time>
      </trkpt>
      <trkpt lat="42.59423864074051380157470703125" lon="-6.51195799000561237335205078125">
        <ele>644.79998779296875</ele>
        <time>2019-07-08T15:42:59.000Z</time>
      </trkpt>
      <trkpt lat="42.59395315311849117279052734375" lon="-6.512679755687713623046875">
        <ele>644.20001220703125</ele>
        <time>2019-07-08T15:43:01.000Z</time>
      </trkpt>
      <trkpt lat="42.59367872960865497589111328125" lon="-6.51341057382524013519287109375">
        <ele>642.5999755859375</ele>
        <time>2019-07-08T15:43:03.000Z</time>
      </trkpt>
      <trkpt lat="42.593546211719512939453125" lon="-6.51377937756478786468505859375">
        <ele>641.5999755859375</ele>
        <time>2019-07-08T15:43:04.000Z</time>
      </trkpt>
      <trkpt lat="42.59329014457762241363525390625" lon="-6.5145209245383739471435546875">
        <ele>640</ele>
        <time>2019-07-08T15:43:06.000Z</time>
      </trkpt>
      <trkpt lat="42.59316374547779560089111328125" lon="-6.51489685289561748504638671875">
        <ele>639</ele>
        <time>2019-07-08T15:43:07.000Z</time>
      </trkpt>
      <trkpt lat="42.5930392742156982421875" lon="-6.51527621783316135406494140625">
        <ele>637.79998779296875</ele>
        <time>2019-07-08T15:43:08.000Z</time>
      </trkpt>
      <trkpt lat="42.59279326535761356353759765625" lon="-6.51603855192661285400390625">
        <ele>636.5999755859375</ele>
        <time>2019-07-08T15:43:10.000Z</time>
      </trkpt>
      <trkpt lat="42.5925445742905139923095703125" lon="-6.51679627597332000732421875">
        <ele>637.20001220703125</ele>
        <time>2019-07-08T15:43:12.000Z</time>
      </trkpt>
      <trkpt lat="42.5922949612140655517578125" lon="-6.51754771359264850616455078125">
        <ele>638</ele>
        <time>2019-07-08T15:43:14.000Z</time>
      </trkpt>
      <trkpt lat="42.59203922934830188751220703125" lon="-6.518286578357219696044921875">
        <ele>639.20001220703125</ele>
        <time>2019-07-08T15:43:16.000Z</time>
      </trkpt>
      <trkpt lat="42.5917690806090831756591796875" lon="-6.51901303790509700775146484375">
        <ele>639.5999755859375</ele>
        <time>2019-07-08T15:43:18.000Z</time>
      </trkpt>
      <trkpt lat="42.591486275196075439453125" lon="-6.5197321213781833648681640625">
        <ele>639.79998779296875</ele>
        <time>2019-07-08T15:43:20.000Z</time>
      </trkpt>
      <trkpt lat="42.5911897234618663787841796875" lon="-6.52044416405260562896728515625">
        <ele>640</ele>
        <time>2019-07-08T15:43:22.000Z</time>
      </trkpt>
      <trkpt lat="42.5908705405890941619873046875" lon="-6.5211479924619197845458984375">
        <ele>640</ele>
        <time>2019-07-08T15:43:24.000Z</time>
      </trkpt>
      <trkpt lat="42.59052914567291736602783203125" lon="-6.52183840982615947723388671875">
        <ele>640.79998779296875</ele>
        <time>2019-07-08T15:43:26.000Z</time>
      </trkpt>
      <trkpt lat="42.590170986950397491455078125" lon="-6.52251097373664379119873046875">
        <ele>641.20001220703125</ele>
        <time>2019-07-08T15:43:28.000Z</time>
      </trkpt>
      <trkpt lat="42.58978818543255329132080078125" lon="-6.52315889485180377960205078125">
        <ele>641.79998779296875</ele>
        <time>2019-07-08T15:43:30.000Z</time>
      </trkpt>
      <trkpt lat="42.5893799029290676116943359375" lon="-6.523783765733242034912109375">
        <ele>643.5999755859375</ele>
        <time>2019-07-08T15:43:32.000Z</time>
      </trkpt>
      <trkpt lat="42.58893859572708606719970703125" lon="-6.5243686549365520477294921875">
        <ele>644.5999755859375</ele>
        <time>2019-07-08T15:43:34.000Z</time>
      </trkpt>
      <trkpt lat="42.58870457299053668975830078125" lon="-6.524641402065753936767578125">
        <ele>644.5999755859375</ele>
        <time>2019-07-08T15:43:35.000Z</time>
      </trkpt>
      <trkpt lat="42.5882107950747013092041015625" lon="-6.52513987384736537933349609375">
        <ele>645</ele>
        <time>2019-07-08T15:43:37.000Z</time>
      </trkpt>
      <trkpt lat="42.58768851868808269500732421875" lon="-6.52558478526771068572998046875">
        <ele>645.4000244140625</ele>
        <time>2019-07-08T15:43:39.000Z</time>
      </trkpt>
      <trkpt lat="42.58741937577724456787109375" lon="-6.52579500339925289154052734375">
        <ele>646</ele>
        <time>2019-07-08T15:43:40.000Z</time>
      </trkpt>
      <trkpt lat="42.5868753902614116668701171875" lon="-6.52621141634881496429443359375">
        <ele>647.79998779296875</ele>
        <time>2019-07-08T15:43:42.000Z</time>
      </trkpt>
      <trkpt lat="42.58660255931317806243896484375" lon="-6.52642079629004001617431640625">
        <ele>649.20001220703125</ele>
        <time>2019-07-08T15:43:43.000Z</time>
      </trkpt>
      <trkpt lat="42.586057148873805999755859375" lon="-6.52684709988534450531005859375">
        <ele>651</ele>
        <time>2019-07-08T15:43:45.000Z</time>
      </trkpt>
      <trkpt lat="42.58578515611588954925537109375" lon="-6.52706067077815532684326171875">
        <ele>652</ele>
        <time>2019-07-08T15:43:46.000Z</time>
      </trkpt>
      <trkpt lat="42.585235722362995147705078125" lon="-6.52748345397412776947021484375">
        <ele>654</ele>
        <time>2019-07-08T15:43:48.000Z</time>
      </trkpt>
      <trkpt lat="42.58495300076901912689208984375" lon="-6.52769300155341625213623046875">
        <ele>655</ele>
        <time>2019-07-08T15:43:49.000Z</time>
      </trkpt>
      <trkpt lat="42.5846652500331401824951171875" lon="-6.527906320989131927490234375">
        <ele>656.20001220703125</ele>
        <time>2019-07-08T15:43:50.000Z</time>
      </trkpt>
      <trkpt lat="42.58407533168792724609375" lon="-6.5283222310245037078857421875">
        <ele>657.5999755859375</ele>
        <time>2019-07-08T15:43:52.000Z</time>
      </trkpt>
      <trkpt lat="42.58348449133336544036865234375" lon="-6.52870603837072849273681640625">
        <ele>657.79998779296875</ele>
        <time>2019-07-08T15:43:54.000Z</time>
      </trkpt>
      <trkpt lat="42.5831923820078372955322265625" lon="-6.5288747660815715789794921875">
        <ele>656.5999755859375</ele>
        <time>2019-07-08T15:43:55.000Z</time>
      </trkpt>
      <trkpt lat="42.5826053135097026824951171875" lon="-6.52914005331695079803466796875">
        <ele>656.4000244140625</ele>
        <time>2019-07-08T15:43:57.000Z</time>
      </trkpt>
      <trkpt lat="42.5820172391831874847412109375" lon="-6.52932110242545604705810546875">
        <ele>658.79998779296875</ele>
        <time>2019-07-08T15:43:59.000Z</time>
      </trkpt>
      <trkpt lat="42.58172010071575641632080078125" lon="-6.52939067222177982330322265625">
        <ele>662</ele>
        <time>2019-07-08T15:44:00.000Z</time>
      </trkpt>
      <trkpt lat="42.581423632800579071044921875" lon="-6.5294517762959003448486328125">
        <ele>664</ele>
        <time>2019-07-08T15:44:01.000Z</time>
      </trkpt>
      <trkpt lat="42.58112833835184574127197265625" lon="-6.52951355092227458953857421875">
        <ele>665.20001220703125</ele>
        <time>2019-07-08T15:44:02.000Z</time>
      </trkpt>
      <trkpt lat="42.5808338820934295654296875" lon="-6.52957431972026824951171875">
        <ele>666.79998779296875</ele>
        <time>2019-07-08T15:44:03.000Z</time>
      </trkpt>
      <trkpt lat="42.580541856586933135986328125" lon="-6.52964212931692600250244140625">
        <ele>668.4000244140625</ele>
        <time>2019-07-08T15:44:04.000Z</time>
      </trkpt>
      <trkpt lat="42.5799663551151752471923828125" lon="-6.529805995523929595947265625">
        <ele>669.4000244140625</ele>
        <time>2019-07-08T15:44:06.000Z</time>
      </trkpt>
      <trkpt lat="42.57968254387378692626953125" lon="-6.5299067460000514984130859375">
        <ele>670.20001220703125</ele>
        <time>2019-07-08T15:44:07.000Z</time>
      </trkpt>
      <trkpt lat="42.57912464439868927001953125" lon="-6.5301535092294216156005859375">
        <ele>671.20001220703125</ele>
        <time>2019-07-08T15:44:09.000Z</time>
      </trkpt>
      <trkpt lat="42.57857755757868289947509765625" lon="-6.5304522402584552764892578125">
        <ele>671.20001220703125</ele>
        <time>2019-07-08T15:44:11.000Z</time>
      </trkpt>
      <trkpt lat="42.57805117405951023101806640625" lon="-6.53080620802938938140869140625">
        <ele>670.79998779296875</ele>
        <time>2019-07-08T15:44:13.000Z</time>
      </trkpt>
      <trkpt lat="42.57755060680210590362548828125" lon="-6.53122412972152233123779296875">
        <ele>671</ele>
        <time>2019-07-08T15:44:15.000Z</time>
      </trkpt>
      <trkpt lat="42.57708893157541751861572265625" lon="-6.53171497397124767303466796875">
        <ele>671</ele>
        <time>2019-07-08T15:44:17.000Z</time>
      </trkpt>
      <trkpt lat="42.57667151279747486114501953125" lon="-6.53227153234183788299560546875">
        <ele>671</ele>
        <time>2019-07-08T15:44:19.000Z</time>
      </trkpt>
      <trkpt lat="42.57627890445291996002197265625" lon="-6.5328601934015750885009765625">
        <ele>671.4000244140625</ele>
        <time>2019-07-08T15:44:21.000Z</time>
      </trkpt>
      <trkpt lat="42.5758981145918369293212890625" lon="-6.533460505306720733642578125">
        <ele>673.20001220703125</ele>
        <time>2019-07-08T15:44:23.000Z</time>
      </trkpt>
      <trkpt lat="42.57570725865662097930908203125" lon="-6.5337580628693103790283203125">
        <ele>674.20001220703125</ele>
        <time>2019-07-08T15:44:24.000Z</time>
      </trkpt>
      <trkpt lat="42.57551212795078754425048828125" lon="-6.53404816053807735443115234375">
        <ele>675.5999755859375</ele>
        <time>2019-07-08T15:44:25.000Z</time>
      </trkpt>
      <trkpt lat="42.575310878455638885498046875" lon="-6.53432761318981647491455078125">
        <ele>677.5999755859375</ele>
        <time>2019-07-08T15:44:26.000Z</time>
      </trkpt>
      <trkpt lat="42.5751021690666675567626953125" lon="-6.53459935449063777923583984375">
        <ele>680.20001220703125</ele>
        <time>2019-07-08T15:44:27.000Z</time>
      </trkpt>
      <trkpt lat="42.5748852454125881195068359375" lon="-6.5348634682595729827880859375">
        <ele>682.5999755859375</ele>
        <time>2019-07-08T15:44:28.000Z</time>
      </trkpt>
      <trkpt lat="42.57465968839824199676513671875" lon="-6.53512179851531982421875">
        <ele>684</ele>
        <time>2019-07-08T15:44:29.000Z</time>
      </trkpt>
      <trkpt lat="42.57418191991746425628662109375" lon="-6.53562144376337528228759765625">
        <ele>683.20001220703125</ele>
        <time>2019-07-08T15:44:31.000Z</time>
      </trkpt>
      <trkpt lat="42.57393180392682552337646484375" lon="-6.53585948981344699859619140625">
        <ele>679.20001220703125</ele>
        <time>2019-07-08T15:44:32.000Z</time>
      </trkpt>
      <trkpt lat="42.57367280311882495880126953125" lon="-6.536083705723285675048828125">
        <ele>672.5999755859375</ele>
        <time>2019-07-08T15:44:33.000Z</time>
      </trkpt>
      <trkpt lat="42.57340659387409687042236328125" lon="-6.536296941339969635009765625">
        <ele>666.20001220703125</ele>
        <time>2019-07-08T15:44:34.000Z</time>
      </trkpt>
      <trkpt lat="42.5731372833251953125" lon="-6.53650590218603610992431640625">
        <ele>663</ele>
        <time>2019-07-08T15:44:35.000Z</time>
      </trkpt>
      <trkpt lat="42.57286864332854747772216796875" lon="-6.536712683737277984619140625">
        <ele>661.20001220703125</ele>
        <time>2019-07-08T15:44:36.000Z</time>
      </trkpt>
      <trkpt lat="42.572345025837421417236328125" lon="-6.5371413342654705047607421875">
        <ele>666.4000244140625</ele>
        <time>2019-07-08T15:44:38.000Z</time>
      </trkpt>
      <trkpt lat="42.57209214381873607635498046875" lon="-6.53737108223140239715576171875">
        <ele>671</ele>
        <time>2019-07-08T15:44:39.000Z</time>
      </trkpt>
      <trkpt lat="42.571847476065158843994140625" lon="-6.537613905966281890869140625">
        <ele>675.5999755859375</ele>
        <time>2019-07-08T15:44:40.000Z</time>
      </trkpt>
      <trkpt lat="42.5716139562427997589111328125" lon="-6.5378724038600921630859375">
        <ele>678</ele>
        <time>2019-07-08T15:44:41.000Z</time>
      </trkpt>
      <trkpt lat="42.571391500532627105712890625" lon="-6.538145653903484344482421875">
        <ele>679.20001220703125</ele>
        <time>2019-07-08T15:44:42.000Z</time>
      </trkpt>
      <trkpt lat="42.57118136622011661529541015625" lon="-6.538434326648712158203125">
        <ele>680.5999755859375</ele>
        <time>2019-07-08T15:44:43.000Z</time>
      </trkpt>
      <trkpt lat="42.57098204456269741058349609375" lon="-6.53873532079160213470458984375">
        <ele>682.5999755859375</ele>
        <time>2019-07-08T15:44:44.000Z</time>
      </trkpt>
      <trkpt lat="42.5707952119410037994384765625" lon="-6.53904930688440799713134765625">
        <ele>685.4000244140625</ele>
        <time>2019-07-08T15:44:45.000Z</time>
      </trkpt>
      <trkpt lat="42.5706215389072895050048828125" lon="-6.53937502764165401458740234375">
        <ele>687.5999755859375</ele>
        <time>2019-07-08T15:44:46.000Z</time>
      </trkpt>
      <trkpt lat="42.570461444556713104248046875" lon="-6.5397102199494838714599609375">
        <ele>690.4000244140625</ele>
        <time>2019-07-08T15:44:47.000Z</time>
      </trkpt>
      <trkpt lat="42.57031534798443317413330078125" lon="-6.5400545485317707061767578125">
        <ele>693</ele>
        <time>2019-07-08T15:44:48.000Z</time>
      </trkpt>
      <trkpt lat="42.57018341682851314544677734375" lon="-6.5404079295694828033447265625">
        <ele>696.5999755859375</ele>
        <time>2019-07-08T15:44:49.000Z</time>
      </trkpt>
      <trkpt lat="42.57006523199379444122314453125" lon="-6.5407696925103664398193359375">
        <ele>698.5999755859375</ele>
        <time>2019-07-08T15:44:50.000Z</time>
      </trkpt>
      <trkpt lat="42.569958530366420745849609375" lon="-6.54113874770700931549072265625">
        <ele>700.79998779296875</ele>
        <time>2019-07-08T15:44:51.000Z</time>
      </trkpt>
      <trkpt lat="42.56986029446125030517578125" lon="-6.54151660390198230743408203125">
        <ele>701.79998779296875</ele>
        <time>2019-07-08T15:44:52.000Z</time>
      </trkpt>
      <trkpt lat="42.56976641714572906494140625" lon="-6.5419076196849346160888671875">
        <ele>703</ele>
        <time>2019-07-08T15:44:53.000Z</time>
      </trkpt>
      <trkpt lat="42.56958964280784130096435546875" lon="-6.5427250228822231292724609375">
        <ele>704.79998779296875</ele>
        <time>2019-07-08T15:44:55.000Z</time>
      </trkpt>
      <trkpt lat="42.56950196810066699981689453125" lon="-6.5431434474885463714599609375">
        <ele>706.5999755859375</ele>
        <time>2019-07-08T15:44:56.000Z</time>
      </trkpt>
      <trkpt lat="42.5694105215370655059814453125" lon="-6.543562710285186767578125">
        <ele>708.5999755859375</ele>
        <time>2019-07-08T15:44:57.000Z</time>
      </trkpt>
      <trkpt lat="42.56931387819349765777587890625" lon="-6.543978117406368255615234375">
        <ele>710</ele>
        <time>2019-07-08T15:44:58.000Z</time>
      </trkpt>
      <trkpt lat="42.56921044550836086273193359375" lon="-6.54438908211886882781982421875">
        <ele>711.20001220703125</ele>
        <time>2019-07-08T15:44:59.000Z</time>
      </trkpt>
      <trkpt lat="42.56909812800586223602294921875" lon="-6.54479191638529300689697265625">
        <ele>712.4000244140625</ele>
        <time>2019-07-08T15:45:00.000Z</time>
      </trkpt>
      <trkpt lat="42.56897508166730403900146484375" lon="-6.54518469236791133880615234375">
        <ele>713.5999755859375</ele>
        <time>2019-07-08T15:45:01.000Z</time>
      </trkpt>
      <trkpt lat="42.56883979775011539459228515625" lon="-6.5455641411244869232177734375">
        <ele>715.4000244140625</ele>
        <time>2019-07-08T15:45:02.000Z</time>
      </trkpt>
      <trkpt lat="42.56869344972074031829833984375" lon="-6.5459324419498443603515625">
        <ele>717.20001220703125</ele>
        <time>2019-07-08T15:45:03.000Z</time>
      </trkpt>
      <trkpt lat="42.5685357861220836639404296875" lon="-6.54629060067236423492431640625">
        <ele>718.5999755859375</ele>
        <time>2019-07-08T15:45:04.000Z</time>
      </trkpt>
      <trkpt lat="42.5681907869875431060791015625" lon="-6.5469758212566375732421875">
        <ele>720.4000244140625</ele>
        <time>2019-07-08T15:45:06.000Z</time>
      </trkpt>
      <trkpt lat="42.56780731491744518280029296875" lon="-6.547621227800846099853515625">
        <ele>720.4000244140625</ele>
        <time>2019-07-08T15:45:08.000Z</time>
      </trkpt>
      <trkpt lat="42.5673847831785678863525390625" lon="-6.54822313226759433746337890625">
        <ele>720.5999755859375</ele>
        <time>2019-07-08T15:45:10.000Z</time>
      </trkpt>
      <trkpt lat="42.5669251196086406707763671875" lon="-6.5487884916365146636962890625">
        <ele>721.79998779296875</ele>
        <time>2019-07-08T15:45:12.000Z</time>
      </trkpt>
      <trkpt lat="42.566428743302822113037109375" lon="-6.549314372241497039794921875">
        <ele>723.20001220703125</ele>
        <time>2019-07-08T15:45:14.000Z</time>
      </trkpt>
      <trkpt lat="42.565901018679141998291015625" lon="-6.549796499311923980712890625">
        <ele>724.4000244140625</ele>
        <time>2019-07-08T15:45:16.000Z</time>
      </trkpt>
      <trkpt lat="42.5656312890350818634033203125" lon="-6.5500276722013950347900390625">
        <ele>725.4000244140625</ele>
        <time>2019-07-08T15:45:17.000Z</time>
      </trkpt>
      <trkpt lat="42.56509409286081790924072265625" lon="-6.55048289336264133453369140625">
        <ele>726.4000244140625</ele>
        <time>2019-07-08T15:45:19.000Z</time>
      </trkpt>
      <trkpt lat="42.5645701400935649871826171875" lon="-6.55094020999968051910400390625">
        <ele>728.20001220703125</ele>
        <time>2019-07-08T15:45:21.000Z</time>
      </trkpt>
      <trkpt lat="42.564071081578731536865234375" lon="-6.55142468400299549102783203125">
        <ele>729.79998779296875</ele>
        <time>2019-07-08T15:45:23.000Z</time>
      </trkpt>
      <trkpt lat="42.5636025331914424896240234375" lon="-6.55195542611181735992431640625">
        <ele>731.20001220703125</ele>
        <time>2019-07-08T15:45:25.000Z</time>
      </trkpt>
      <trkpt lat="42.56315921433269977569580078125" lon="-6.5525355376303195953369140625">
        <ele>731.79998779296875</ele>
        <time>2019-07-08T15:45:27.000Z</time>
      </trkpt>
      <trkpt lat="42.56294581107795238494873046875" lon="-6.55284122563898563385009765625">
        <ele>732.4000244140625</ele>
        <time>2019-07-08T15:45:28.000Z</time>
      </trkpt>
      <trkpt lat="42.56273861043155193328857421875" lon="-6.55315571464598178863525390625">
        <ele>734.20001220703125</ele>
        <time>2019-07-08T15:45:29.000Z</time>
      </trkpt>
      <trkpt lat="42.56253945641219615936279296875" lon="-6.5534800104796886444091796875">
        <ele>736</ele>
        <time>2019-07-08T15:45:30.000Z</time>
      </trkpt>
      <trkpt lat="42.56217434071004390716552734375" lon="-6.55416422523558139801025390625">
        <ele>737.4000244140625</ele>
        <time>2019-07-08T15:45:32.000Z</time>
      </trkpt>
      <trkpt lat="42.56184912286698818206787109375" lon="-6.55488775111734867095947265625">
        <ele>738</ele>
        <time>2019-07-08T15:45:34.000Z</time>
      </trkpt>
      <trkpt lat="42.56155977956950664520263671875" lon="-6.55563407577574253082275390625">
        <ele>737.20001220703125</ele>
        <time>2019-07-08T15:45:36.000Z</time>
      </trkpt>
      <trkpt lat="42.5613109208643436431884765625" lon="-6.556406132876873016357421875">
        <ele>737.4000244140625</ele>
        <time>2019-07-08T15:45:38.000Z</time>
      </trkpt>
      <trkpt lat="42.56109927780926227569580078125" lon="-6.557202078402042388916015625">
        <ele>739.4000244140625</ele>
        <time>2019-07-08T15:45:40.000Z</time>
      </trkpt>
      <trkpt lat="42.5609280355274677276611328125" lon="-6.558015458285808563232421875">
        <ele>739.79998779296875</ele>
        <time>2019-07-08T15:45:42.000Z</time>
      </trkpt>
      <trkpt lat="42.56085972301661968231201171875" lon="-6.55842759646475315093994140625">
        <ele>740.5999755859375</ele>
        <time>2019-07-08T15:45:43.000Z</time>
      </trkpt>
      <trkpt lat="42.56075796671211719512939453125" lon="-6.55925774015486240386962890625">
        <ele>741.4000244140625</ele>
        <time>2019-07-08T15:45:45.000Z</time>
      </trkpt>
      <trkpt lat="42.56072225980460643768310546875" lon="-6.55967365019023418426513671875">
        <ele>741.79998779296875</ele>
        <time>2019-07-08T15:45:46.000Z</time>
      </trkpt>
      <trkpt lat="42.56068320013582706451416015625" lon="-6.56050530262291431427001953125">
        <ele>741.5999755859375</ele>
        <time>2019-07-08T15:45:48.000Z</time>
      </trkpt>
      <trkpt lat="42.5606806017458438873291015625" lon="-6.561337374150753021240234375">
        <ele>740</ele>
        <time>2019-07-08T15:45:50.000Z</time>
      </trkpt>
      <trkpt lat="42.56069409660995006561279296875" lon="-6.56175269745290279388427734375">
        <ele>738.4000244140625</ele>
        <time>2019-07-08T15:45:51.000Z</time>
      </trkpt>
      <trkpt lat="42.56071622483432292938232421875" lon="-6.562166176736354827880859375">
        <ele>737</ele>
        <time>2019-07-08T15:45:52.000Z</time>
      </trkpt>
      <trkpt lat="42.5607489980757236480712890625" lon="-6.5625777281820774078369140625">
        <ele>735.4000244140625</ele>
        <time>2019-07-08T15:45:53.000Z</time>
      </trkpt>
      <trkpt lat="42.560791410505771636962890625" lon="-6.56298751942813396453857421875">
        <ele>734</ele>
        <time>2019-07-08T15:45:54.000Z</time>
      </trkpt>
      <trkpt lat="42.560841031372547149658203125" lon="-6.56339563429355621337890625">
        <ele>732.79998779296875</ele>
        <time>2019-07-08T15:45:55.000Z</time>
      </trkpt>
      <trkpt lat="42.5609568692743778228759765625" lon="-6.56420993618667125701904296875">
        <ele>731.79998779296875</ele>
        <time>2019-07-08T15:45:57.000Z</time>
      </trkpt>
      <trkpt lat="42.56102836690843105316162109375" lon="-6.56461344100534915924072265625">
        <ele>731.5999755859375</ele>
        <time>2019-07-08T15:45:58.000Z</time>
      </trkpt>
      <trkpt lat="42.56119365803897380828857421875" lon="-6.56541533768177032470703125">
        <ele>730.4000244140625</ele>
        <time>2019-07-08T15:46:00.000Z</time>
      </trkpt>
      <trkpt lat="42.561393566429615020751953125" lon="-6.5662072598934173583984375">
        <ele>728</ele>
        <time>2019-07-08T15:46:02.000Z</time>
      </trkpt>
      <trkpt lat="42.56150613538920879364013671875" lon="-6.56659810803830623626708984375">
        <ele>726.20001220703125</ele>
        <time>2019-07-08T15:46:03.000Z</time>
      </trkpt>
      <trkpt lat="42.56162968464195728302001953125" lon="-6.56698308885097503662109375">
        <ele>724.4000244140625</ele>
        <time>2019-07-08T15:46:04.000Z</time>
      </trkpt>
      <trkpt lat="42.561761699616909027099609375" lon="-6.5673634596168994903564453125">
        <ele>723.4000244140625</ele>
        <time>2019-07-08T15:46:05.000Z</time>
      </trkpt>
      <trkpt lat="42.5619028508663177490234375" lon="-6.56773955561220645904541015625">
        <ele>721.5999755859375</ele>
        <time>2019-07-08T15:46:06.000Z</time>
      </trkpt>
      <trkpt lat="42.5620502047240734100341796875" lon="-6.56811095774173736572265625">
        <ele>719.79998779296875</ele>
        <time>2019-07-08T15:46:07.000Z</time>
      </trkpt>
      <trkpt lat="42.56220216862857341766357421875" lon="-6.568474732339382171630859375">
        <ele>718.4000244140625</ele>
        <time>2019-07-08T15:46:08.000Z</time>
      </trkpt>
      <trkpt lat="42.56236025132238864898681640625" lon="-6.56883113086223602294921875">
        <ele>717.4000244140625</ele>
        <time>2019-07-08T15:46:09.000Z</time>
      </trkpt>
      <trkpt lat="42.56269209086894989013671875" lon="-6.56952154822647571563720703125">
        <ele>716.20001220703125</ele>
        <time>2019-07-08T15:46:11.000Z</time>
      </trkpt>
      <trkpt lat="42.56286777555942535400390625" lon="-6.56985565088689327239990234375">
        <ele>715</ele>
        <time>2019-07-08T15:46:12.000Z</time>
      </trkpt>
      <trkpt lat="42.5630510039627552032470703125" lon="-6.57018137164413928985595703125">
        <ele>713.4000244140625</ele>
        <time>2019-07-08T15:46:13.000Z</time>
      </trkpt>
      <trkpt lat="42.5632417760789394378662109375" lon="-6.57050021924078464508056640625">
        <ele>711.79998779296875</ele>
        <time>2019-07-08T15:46:14.000Z</time>
      </trkpt>
      <trkpt lat="42.56343833170831203460693359375" lon="-6.57081437297165393829345703125">
        <ele>710</ele>
        <time>2019-07-08T15:46:15.000Z</time>
      </trkpt>
      <trkpt lat="42.56364025175571441650390625" lon="-6.57112467102706432342529296875">
        <ele>708.20001220703125</ele>
        <time>2019-07-08T15:46:16.000Z</time>
      </trkpt>
      <trkpt lat="42.5638469494879245758056640625" lon="-6.571431197226047515869140625">
        <ele>706.4000244140625</ele>
        <time>2019-07-08T15:46:17.000Z</time>
      </trkpt>
      <trkpt lat="42.56405708380043506622314453125" lon="-6.57173596322536468505859375">
        <ele>704.4000244140625</ele>
        <time>2019-07-08T15:46:18.000Z</time>
      </trkpt>
      <trkpt lat="42.56426914595067501068115234375" lon="-6.57204198651015758514404296875">
        <ele>702.4000244140625</ele>
        <time>2019-07-08T15:46:19.000Z</time>
      </trkpt>
      <trkpt lat="42.56447978317737579345703125" lon="-6.57235396094620227813720703125">
        <ele>700.4000244140625</ele>
        <time>2019-07-08T15:46:20.000Z</time>
      </trkpt>
      <trkpt lat="42.56468673236668109893798828125" lon="-6.57267473638057708740234375">
        <ele>698.4000244140625</ele>
        <time>2019-07-08T15:46:21.000Z</time>
      </trkpt>
      <trkpt lat="42.5648873113095760345458984375" lon="-6.57300389371812343597412109375">
        <ele>696.4000244140625</ele>
        <time>2019-07-08T15:46:22.000Z</time>
      </trkpt>
      <trkpt lat="42.56507749669253826141357421875" lon="-6.57334537245333194732666015625">
        <ele>695</ele>
        <time>2019-07-08T15:46:23.000Z</time>
      </trkpt>
      <trkpt lat="42.56541964598000049591064453125" lon="-6.57406772486865520477294921875">
        <ele>693.79998779296875</ele>
        <time>2019-07-08T15:46:25.000Z</time>
      </trkpt>
      <trkpt lat="42.5657114200294017791748046875" lon="-6.5748263709247112274169921875">
        <ele>692.4000244140625</ele>
        <time>2019-07-08T15:46:27.000Z</time>
      </trkpt>
      <trkpt lat="42.56597301922738552093505859375" lon="-6.5755938179790973663330078125">
        <ele>689.79998779296875</ele>
        <time>2019-07-08T15:46:29.000Z</time>
      </trkpt>
      <trkpt lat="42.56620888598263263702392578125" lon="-6.57636956311762332916259765625">
        <ele>688.79998779296875</ele>
        <time>2019-07-08T15:46:31.000Z</time>
      </trkpt>
      <trkpt lat="42.56632388569414615631103515625" lon="-6.576755046844482421875">
        <ele>688.4000244140625</ele>
        <time>2019-07-08T15:46:32.000Z</time>
      </trkpt>
      <trkpt lat="42.56643871776759624481201171875" lon="-6.57713918946683406829833984375">
        <ele>687.20001220703125</ele>
        <time>2019-07-08T15:46:33.000Z</time>
      </trkpt>
      <trkpt lat="42.5665539689362049102783203125" lon="-6.57752014696598052978515625">
        <ele>686</ele>
        <time>2019-07-08T15:46:34.000Z</time>
      </trkpt>
      <trkpt lat="42.56666871719062328338623046875" lon="-6.577899344265460968017578125">
        <ele>684.20001220703125</ele>
        <time>2019-07-08T15:46:35.000Z</time>
      </trkpt>
      <trkpt lat="42.566898800432682037353515625" lon="-6.57865078188478946685791015625">
        <ele>683.5999755859375</ele>
        <time>2019-07-08T15:46:37.000Z</time>
      </trkpt>
      <trkpt lat="42.5670146383345127105712890625" lon="-6.57902025617659091949462890625">
        <ele>682.79998779296875</ele>
        <time>2019-07-08T15:46:38.000Z</time>
      </trkpt>
      <trkpt lat="42.56724388338625431060791015625" lon="-6.57975618727505207061767578125">
        <ele>681.20001220703125</ele>
        <time>2019-07-08T15:46:40.000Z</time>
      </trkpt>
      <trkpt lat="42.56735377013683319091796875" lon="-6.58012398518621921539306640625">
        <ele>679.79998779296875</ele>
        <time>2019-07-08T15:46:41.000Z</time>
      </trkpt>
      <trkpt lat="42.56746198050677776336669921875" lon="-6.580491364002227783203125">
        <ele>678.79998779296875</ele>
        <time>2019-07-08T15:46:42.000Z</time>
      </trkpt>
      <trkpt lat="42.5676754675805568695068359375" lon="-6.581229306757450103759765625">
        <ele>677.5999755859375</ele>
        <time>2019-07-08T15:46:44.000Z</time>
      </trkpt>
      <trkpt lat="42.56786867044866085052490234375" lon="-6.58198510296642780303955078125">
        <ele>677.4000244140625</ele>
        <time>2019-07-08T15:46:46.000Z</time>
      </trkpt>
      <trkpt lat="42.56802499294281005859375" lon="-6.5827683918178081512451171875">
        <ele>677.4000244140625</ele>
        <time>2019-07-08T15:46:48.000Z</time>
      </trkpt>
      <trkpt lat="42.56815399043262004852294921875" lon="-6.58357095904648303985595703125">
        <ele>677.4000244140625</ele>
        <time>2019-07-08T15:46:50.000Z</time>
      </trkpt>
      <trkpt lat="42.568246610462665557861328125" lon="-6.58439137972891330718994140625">
        <ele>677.20001220703125</ele>
        <time>2019-07-08T15:46:52.000Z</time>
      </trkpt>
      <trkpt lat="42.5683031044900417327880859375" lon="-6.58522169105708599090576171875">
        <ele>676</ele>
        <time>2019-07-08T15:46:54.000Z</time>
      </trkpt>
      <trkpt lat="42.56831961683928966522216796875" lon="-6.58564128912985324859619140625">
        <ele>674.5999755859375</ele>
        <time>2019-07-08T15:46:55.000Z</time>
      </trkpt>
      <trkpt lat="42.56833017803728580474853515625" lon="-6.5860631503164768218994140625">
        <ele>673.4000244140625</ele>
        <time>2019-07-08T15:46:56.000Z</time>
      </trkpt>
      <trkpt lat="42.56833545863628387451171875" lon="-6.586487777531147003173828125">
        <ele>672.20001220703125</ele>
        <time>2019-07-08T15:46:57.000Z</time>
      </trkpt>
      <trkpt lat="42.56833705119788646697998046875" lon="-6.58734231255948543548583984375">
        <ele>671.4000244140625</ele>
        <time>2019-07-08T15:46:59.000Z</time>
      </trkpt>
      <trkpt lat="42.56833621300756931304931640625" lon="-6.5877683646976947784423828125">
        <ele>670.20001220703125</ele>
        <time>2019-07-08T15:47:00.000Z</time>
      </trkpt>
      <trkpt lat="42.56833906285464763641357421875" lon="-6.58819139935076236724853515625">
        <ele>668.79998779296875</ele>
        <time>2019-07-08T15:47:01.000Z</time>
      </trkpt>
      <trkpt lat="42.5683463551104068756103515625" lon="-6.5886052139103412628173828125">
        <ele>666.79998779296875</ele>
        <time>2019-07-08T15:47:02.000Z</time>
      </trkpt>
      <trkpt lat="42.56835758686065673828125" lon="-6.589004360139369964599609375">
        <ele>665</ele>
        <time>2019-07-08T15:47:03.000Z</time>
      </trkpt>
      <trkpt lat="42.5683725066483020782470703125" lon="-6.5893924422562122344970703125">
        <ele>663.5999755859375</ele>
        <time>2019-07-08T15:47:04.000Z</time>
      </trkpt>
      <trkpt lat="42.56839086301624774932861328125" lon="-6.5897811949253082275390625">
        <ele>662.20001220703125</ele>
        <time>2019-07-08T15:47:05.000Z</time>
      </trkpt>
      <trkpt lat="42.56845213472843170166015625" lon="-6.59058040939271450042724609375">
        <ele>660.5999755859375</ele>
        <time>2019-07-08T15:47:07.000Z</time>
      </trkpt>
      <trkpt lat="42.56850250996649265289306640625" lon="-6.59098726697266101837158203125">
        <ele>659.5999755859375</ele>
        <time>2019-07-08T15:47:08.000Z</time>
      </trkpt>
      <trkpt lat="42.56864299066364765167236328125" lon="-6.5918074361979961395263671875">
        <ele>658.4000244140625</ele>
        <time>2019-07-08T15:47:10.000Z</time>
      </trkpt>
      <trkpt lat="42.56872915662825107574462890625" lon="-6.59221571870148181915283203125">
        <ele>657</ele>
        <time>2019-07-08T15:47:11.000Z</time>
      </trkpt>
      <trkpt lat="42.56893493235111236572265625" lon="-6.59301887266337871551513671875">
        <ele>655.4000244140625</ele>
        <time>2019-07-08T15:47:13.000Z</time>
      </trkpt>
      <trkpt lat="42.56905185990035533905029296875" lon="-6.5934107266366481781005859375">
        <ele>654.4000244140625</ele>
        <time>2019-07-08T15:47:14.000Z</time>
      </trkpt>
      <trkpt lat="42.56917406804859638214111328125" lon="-6.59379637800157070159912109375">
        <ele>652.20001220703125</ele>
        <time>2019-07-08T15:47:15.000Z</time>
      </trkpt>
      <trkpt lat="42.56930063478648662567138671875" lon="-6.5941775031387805938720703125">
        <ele>650</ele>
        <time>2019-07-08T15:47:16.000Z</time>
      </trkpt>
      <trkpt lat="42.56943306885659694671630859375" lon="-6.5945546887814998626708984375">
        <ele>647.79998779296875</ele>
        <time>2019-07-08T15:47:17.000Z</time>
      </trkpt>
      <trkpt lat="42.5695727951824665069580078125" lon="-6.59492743201553821563720703125">
        <ele>646</ele>
        <time>2019-07-08T15:47:18.000Z</time>
      </trkpt>
      <trkpt lat="42.56987898610532283782958984375" lon="-6.5956590883433818817138671875">
        <ele>645</ele>
        <time>2019-07-08T15:47:20.000Z</time>
      </trkpt>
      <trkpt lat="42.57004478015005588531494140625" lon="-6.5960174985229969024658203125">
        <ele>644.20001220703125</ele>
        <time>2019-07-08T15:47:21.000Z</time>
      </trkpt>
      <trkpt lat="42.5704027712345123291015625" lon="-6.5967152081429958343505859375">
        <ele>642.79998779296875</ele>
        <time>2019-07-08T15:47:23.000Z</time>
      </trkpt>
      <trkpt lat="42.5705927051603794097900390625" lon="-6.597053669393062591552734375">
        <ele>640.5999755859375</ele>
        <time>2019-07-08T15:47:24.000Z</time>
      </trkpt>
      <trkpt lat="42.5707891769707202911376953125" lon="-6.597383916378021240234375">
        <ele>638.5999755859375</ele>
        <time>2019-07-08T15:47:25.000Z</time>
      </trkpt>
      <trkpt lat="42.57099218666553497314453125" lon="-6.5977076254785060882568359375">
        <ele>636.20001220703125</ele>
        <time>2019-07-08T15:47:26.000Z</time>
      </trkpt>
      <trkpt lat="42.57120265625417232513427734375" lon="-6.5980214439332485198974609375">
        <ele>634.79998779296875</ele>
        <time>2019-07-08T15:47:27.000Z</time>
      </trkpt>
      <trkpt lat="42.57141974754631519317626953125" lon="-6.59832545556128025054931640625">
        <ele>633.5999755859375</ele>
        <time>2019-07-08T15:47:28.000Z</time>
      </trkpt>
      <trkpt lat="42.57187253795564174652099609375" lon="-6.5989075787365436553955078125">
        <ele>630.79998779296875</ele>
        <time>2019-07-08T15:47:30.000Z</time>
      </trkpt>
      <trkpt lat="42.57210932672023773193359375" lon="-6.5991868637502193450927734375">
        <ele>628.4000244140625</ele>
        <time>2019-07-08T15:47:31.000Z</time>
      </trkpt>
      <trkpt lat="42.5723515637218952178955078125" lon="-6.5994586050510406494140625">
        <ele>625.20001220703125</ele>
        <time>2019-07-08T15:47:32.000Z</time>
      </trkpt>
      <trkpt lat="42.57259757257997989654541015625" lon="-6.59972389228641986846923828125">
        <ele>622.79998779296875</ele>
        <time>2019-07-08T15:47:33.000Z</time>
      </trkpt>
      <trkpt lat="42.57284651510417461395263671875" lon="-6.5999848209321498870849609375">
        <ele>620.79998779296875</ele>
        <time>2019-07-08T15:47:34.000Z</time>
      </trkpt>
      <trkpt lat="42.57309931330382823944091796875" lon="-6.60023845732212066650390625">
        <ele>619.4000244140625</ele>
        <time>2019-07-08T15:47:35.000Z</time>
      </trkpt>
      <trkpt lat="42.5736199133098125457763671875" lon="-6.6007153876125812530517578125">
        <ele>616.79998779296875</ele>
        <time>2019-07-08T15:47:37.000Z</time>
      </trkpt>
      <trkpt lat="42.573888301849365234375" lon="-6.6009380109608173370361328125">
        <ele>614.79998779296875</ele>
        <time>2019-07-08T15:47:38.000Z</time>
      </trkpt>
      <trkpt lat="42.57416213862597942352294921875" lon="-6.60114848054945468902587890625">
        <ele>612.20001220703125</ele>
        <time>2019-07-08T15:47:39.000Z</time>
      </trkpt>
      <trkpt lat="42.57444108836352825164794921875" lon="-6.6013467125594615936279296875">
        <ele>610.20001220703125</ele>
        <time>2019-07-08T15:47:40.000Z</time>
      </trkpt>
      <trkpt lat="42.5750134885311126708984375" lon="-6.6017036139965057373046875">
        <ele>608.20001220703125</ele>
        <time>2019-07-08T15:47:42.000Z</time>
      </trkpt>
      <trkpt lat="42.57530626840889453887939453125" lon="-6.60185993649065494537353515625">
        <ele>606.5999755859375</ele>
        <time>2019-07-08T15:47:43.000Z</time>
      </trkpt>
      <trkpt lat="42.57560030557215213775634765625" lon="-6.602007038891315460205078125">
        <ele>604.4000244140625</ele>
        <time>2019-07-08T15:47:44.000Z</time>
      </trkpt>
      <trkpt lat="42.5758945941925048828125" lon="-6.602151207625865936279296875">
        <ele>602.4000244140625</ele>
        <time>2019-07-08T15:47:45.000Z</time>
      </trkpt>
      <trkpt lat="42.57618888281285762786865234375" lon="-6.6022975556552410125732421875">
        <ele>600.4000244140625</ele>
        <time>2019-07-08T15:47:46.000Z</time>
      </trkpt>
      <trkpt lat="42.57648291997611522674560546875" lon="-6.6024457477033138275146484375">
        <ele>598.5999755859375</ele>
        <time>2019-07-08T15:47:47.000Z</time>
      </trkpt>
      <trkpt lat="42.57677637040615081787109375" lon="-6.602595113217830657958984375">
        <ele>596.4000244140625</ele>
        <time>2019-07-08T15:47:48.000Z</time>
      </trkpt>
      <trkpt lat="42.5773609243333339691162109375" lon="-6.6028983704745769500732421875">
        <ele>595</ele>
        <time>2019-07-08T15:47:50.000Z</time>
      </trkpt>
      <trkpt lat="42.5776502676308155059814453125" lon="-6.60305720753967761993408203125">
        <ele>593.4000244140625</ele>
        <time>2019-07-08T15:47:51.000Z</time>
      </trkpt>
      <trkpt lat="42.57793634198606014251708984375" lon="-6.60322350449860095977783203125">
        <ele>590.79998779296875</ele>
        <time>2019-07-08T15:47:52.000Z</time>
      </trkpt>
      <trkpt lat="42.57821814157068729400634765625" lon="-6.60340078175067901611328125">
        <ele>588.5999755859375</ele>
        <time>2019-07-08T15:47:53.000Z</time>
      </trkpt>
      <trkpt lat="42.57849306799471378326416015625" lon="-6.6035917215049266815185546875">
        <ele>586.5999755859375</ele>
        <time>2019-07-08T15:47:54.000Z</time>
      </trkpt>
      <trkpt lat="42.5787610374391078948974609375" lon="-6.603796072304248809814453125">
        <ele>585.20001220703125</ele>
        <time>2019-07-08T15:47:55.000Z</time>
      </trkpt>
      <trkpt lat="42.57902137935161590576171875" lon="-6.60401123575866222381591796875">
        <ele>584</ele>
        <time>2019-07-08T15:47:56.000Z</time>
      </trkpt>
      <trkpt lat="42.57952035404741764068603515625" lon="-6.604471988976001739501953125">
        <ele>583.4000244140625</ele>
        <time>2019-07-08T15:47:58.000Z</time>
      </trkpt>
      <trkpt lat="42.5797608308494091033935546875" lon="-6.60471531562507152557373046875">
        <ele>582.5999755859375</ele>
        <time>2019-07-08T15:47:59.000Z</time>
      </trkpt>
      <trkpt lat="42.58022225461900234222412109375" lon="-6.60523583181202411651611328125">
        <ele>582</ele>
        <time>2019-07-08T15:48:01.000Z</time>
      </trkpt>
      <trkpt lat="42.5806573592126369476318359375" lon="-6.605807729065418243408203125">
        <ele>585.20001220703125</ele>
        <time>2019-07-08T15:48:03.000Z</time>
      </trkpt>
      <trkpt lat="42.58086648769676685333251953125" lon="-6.6061078011989593505859375">
        <ele>587</ele>
        <time>2019-07-08T15:48:04.000Z</time>
      </trkpt>
      <trkpt lat="42.58106782101094722747802734375" lon="-6.606417261064052581787109375">
        <ele>588</ele>
        <time>2019-07-08T15:48:05.000Z</time>
      </trkpt>
      <trkpt lat="42.58144475519657135009765625" lon="-6.607058309018611907958984375">
        <ele>588.79998779296875</ele>
        <time>2019-07-08T15:48:07.000Z</time>
      </trkpt>
      <trkpt lat="42.5816209428012371063232421875" lon="-6.60739216022193431854248046875">
        <ele>585.79998779296875</ele>
        <time>2019-07-08T15:48:08.000Z</time>
      </trkpt>
      <trkpt lat="42.58179008960723876953125" lon="-6.60773380659520626068115234375">
        <ele>581.4000244140625</ele>
        <time>2019-07-08T15:48:09.000Z</time>
      </trkpt>
      <trkpt lat="42.5819498486816883087158203125" lon="-6.6080837510526180267333984375">
        <ele>572.5999755859375</ele>
        <time>2019-07-08T15:48:10.000Z</time>
      </trkpt>
      <trkpt lat="42.5821003876626491546630859375" lon="-6.60844266414642333984375">
        <ele>565.5999755859375</ele>
        <time>2019-07-08T15:48:11.000Z</time>
      </trkpt>
      <trkpt lat="42.5822422094643115997314453125" lon="-6.60881079733371734619140625">
        <ele>560.20001220703125</ele>
        <time>2019-07-08T15:48:12.000Z</time>
      </trkpt>
      <trkpt lat="42.58237623609602451324462890625" lon="-6.60918488167226314544677734375">
        <ele>555.20001220703125</ele>
        <time>2019-07-08T15:48:13.000Z</time>
      </trkpt>
      <trkpt lat="42.58250162936747074127197265625" lon="-6.60956659354269504547119140625">
        <ele>553.79998779296875</ele>
        <time>2019-07-08T15:48:14.000Z</time>
      </trkpt>
      <trkpt lat="42.58272106759250164031982421875" lon="-6.610356755554676055908203125">
        <ele>554</ele>
        <time>2019-07-08T15:48:16.000Z</time>
      </trkpt>
      <trkpt lat="42.58281544782221317291259765625" lon="-6.61076185293495655059814453125">
        <ele>555.4000244140625</ele>
        <time>2019-07-08T15:48:17.000Z</time>
      </trkpt>
      <trkpt lat="42.5829000212252140045166015625" lon="-6.6111718118190765380859375">
        <ele>557.4000244140625</ele>
        <time>2019-07-08T15:48:18.000Z</time>
      </trkpt>
      <trkpt lat="42.58303664624691009521484375" lon="-6.61200128495693206787109375">
        <ele>560</ele>
        <time>2019-07-08T15:48:20.000Z</time>
      </trkpt>
      <trkpt lat="42.58309104479849338531494140625" lon="-6.6124202124774456024169921875">
        <ele>563.79998779296875</ele>
        <time>2019-07-08T15:48:21.000Z</time>
      </trkpt>
      <trkpt lat="42.5831353850662708282470703125" lon="-6.612841822206974029541015625">
        <ele>566.79998779296875</ele>
        <time>2019-07-08T15:48:22.000Z</time>
      </trkpt>
      <trkpt lat="42.58316949941217899322509765625" lon="-6.61326502449810504913330078125">
        <ele>571</ele>
        <time>2019-07-08T15:48:23.000Z</time>
      </trkpt>
      <trkpt lat="42.58319330401718616485595703125" lon="-6.61368914879858493804931640625">
        <ele>574.20001220703125</ele>
        <time>2019-07-08T15:48:24.000Z</time>
      </trkpt>
      <trkpt lat="42.58320369757711887359619140625" lon="-6.61411243490874767303466796875">
        <ele>575.79998779296875</ele>
        <time>2019-07-08T15:48:25.000Z</time>
      </trkpt>
      <trkpt lat="42.5831915438175201416015625" lon="-6.6149590909481048583984375">
        <ele>576.79998779296875</ele>
        <time>2019-07-08T15:48:27.000Z</time>
      </trkpt>
      <trkpt lat="42.5831464491784572601318359375" lon="-6.61580465734004974365234375">
        <ele>574.4000244140625</ele>
        <time>2019-07-08T15:48:29.000Z</time>
      </trkpt>
      <trkpt lat="42.583116777241230010986328125" lon="-6.61622702144086360931396484375">
        <ele>573.20001220703125</ele>
        <time>2019-07-08T15:48:30.000Z</time>
      </trkpt>
      <trkpt lat="42.58305030874907970428466796875" lon="-6.61706822924315929412841796875">
        <ele>573</ele>
        <time>2019-07-08T15:48:32.000Z</time>
      </trkpt>
      <trkpt lat="42.58298392407596111297607421875" lon="-6.6179106943309307098388671875">
        <ele>573.79998779296875</ele>
        <time>2019-07-08T15:48:34.000Z</time>
      </trkpt>
      <trkpt lat="42.58293849416077136993408203125" lon="-6.618753410875797271728515625">
        <ele>574</ele>
        <time>2019-07-08T15:48:36.000Z</time>
      </trkpt>
      <trkpt lat="42.58292533457279205322265625" lon="-6.6195974685251712799072265625">
        <ele>572.20001220703125</ele>
        <time>2019-07-08T15:48:38.000Z</time>
      </trkpt>
      <trkpt lat="42.58293178863823413848876953125" lon="-6.62001706659793853759765625">
        <ele>570.5999755859375</ele>
        <time>2019-07-08T15:48:39.000Z</time>
      </trkpt>
      <trkpt lat="42.582944445312023162841796875" lon="-6.62043591029942035675048828125">
        <ele>569.4000244140625</ele>
        <time>2019-07-08T15:48:40.000Z</time>
      </trkpt>
      <trkpt lat="42.58296280167996883392333984375" lon="-6.62085131742060184478759765625">
        <ele>568.20001220703125</ele>
        <time>2019-07-08T15:48:41.000Z</time>
      </trkpt>
      <trkpt lat="42.58302382193505764007568359375" lon="-6.62168112583458423614501953125">
        <ele>567.4000244140625</ele>
        <time>2019-07-08T15:48:43.000Z</time>
      </trkpt>
      <trkpt lat="42.583117783069610595703125" lon="-6.6225150413811206817626953125">
        <ele>568.79998779296875</ele>
        <time>2019-07-08T15:48:45.000Z</time>
      </trkpt>
      <trkpt lat="42.583242170512676239013671875" lon="-6.6233471967279911041259765625">
        <ele>569.20001220703125</ele>
        <time>2019-07-08T15:48:47.000Z</time>
      </trkpt>
      <trkpt lat="42.58340067230165004730224609375" lon="-6.62416183389723300933837890625">
        <ele>569.20001220703125</ele>
        <time>2019-07-08T15:48:49.000Z</time>
      </trkpt>
      <trkpt lat="42.58359328843653202056884765625" lon="-6.62495593540370464324951171875">
        <ele>568.79998779296875</ele>
        <time>2019-07-08T15:48:51.000Z</time>
      </trkpt>
      <trkpt lat="42.58381188847124576568603515625" lon="-6.62573729641735553741455078125">
        <ele>568</ele>
        <time>2019-07-08T15:48:53.000Z</time>
      </trkpt>
      <trkpt lat="42.58405043743550777435302734375" lon="-6.6265088506042957305908203125">
        <ele>568.5999755859375</ele>
        <time>2019-07-08T15:48:55.000Z</time>
      </trkpt>
      <trkpt lat="42.58429971523582935333251953125" lon="-6.62726707756519317626953125">
        <ele>567.79998779296875</ele>
        <time>2019-07-08T15:48:57.000Z</time>
      </trkpt>
      <trkpt lat="42.58442401885986328125" lon="-6.62764350883662700653076171875">
        <ele>566.79998779296875</ele>
        <time>2019-07-08T15:48:58.000Z</time>
      </trkpt>
      <trkpt lat="42.58454597555100917816162109375" lon="-6.628019772469997406005859375">
        <ele>563.4000244140625</ele>
        <time>2019-07-08T15:48:59.000Z</time>
      </trkpt>
      <trkpt lat="42.58466231636703014373779296875" lon="-6.62839888595044612884521484375">
        <ele>556.79998779296875</ele>
        <time>2019-07-08T15:49:00.000Z</time>
      </trkpt>
      <trkpt lat="42.5847708620131015777587890625" lon="-6.6287826932966709136962890625">
        <ele>550.5999755859375</ele>
        <time>2019-07-08T15:49:01.000Z</time>
      </trkpt>
      <trkpt lat="42.584871612489223480224609375" lon="-6.62917052395641803741455078125">
        <ele>545.20001220703125</ele>
        <time>2019-07-08T15:49:02.000Z</time>
      </trkpt>
      <trkpt lat="42.58496607653796672821044921875" lon="-6.62956128828227519989013671875">
        <ele>541.4000244140625</ele>
        <time>2019-07-08T15:49:03.000Z</time>
      </trkpt>
      <trkpt lat="42.58513681590557098388671875" lon="-6.6303467564284801483154296875">
        <ele>543.79998779296875</ele>
        <time>2019-07-08T15:49:05.000Z</time>
      </trkpt>
      <trkpt lat="42.585211582481861114501953125" lon="-6.6307417117059230804443359375">
        <ele>544.79998779296875</ele>
        <time>2019-07-08T15:49:06.000Z</time>
      </trkpt>
      <trkpt lat="42.58527897298336029052734375" lon="-6.631137169897556304931640625">
        <ele>549.20001220703125</ele>
        <time>2019-07-08T15:49:07.000Z</time>
      </trkpt>
      <trkpt lat="42.5853408314287662506103515625" lon="-6.6315329633653163909912109375">
        <ele>555.4000244140625</ele>
        <time>2019-07-08T15:49:08.000Z</time>
      </trkpt>
      <trkpt lat="42.585397996008396148681640625" lon="-6.6319279186427593231201171875">
        <ele>563</ele>
        <time>2019-07-08T15:49:09.000Z</time>
      </trkpt>
      <trkpt lat="42.585447616875171661376953125" lon="-6.63232438266277313232421875">
        <ele>566.79998779296875</ele>
        <time>2019-07-08T15:49:10.000Z</time>
      </trkpt>
      <trkpt lat="42.58548491634428501129150390625" lon="-6.6327231936156749725341796875">
        <ele>568.79998779296875</ele>
        <time>2019-07-08T15:49:11.000Z</time>
      </trkpt>
      <trkpt lat="42.58551123552024364471435546875" lon="-6.63312502205371856689453125">
        <ele>569.79998779296875</ele>
        <time>2019-07-08T15:49:12.000Z</time>
      </trkpt>
      <trkpt lat="42.5855346210300922393798828125" lon="-6.633928678929805755615234375">
        <ele>568</ele>
        <time>2019-07-08T15:49:14.000Z</time>
      </trkpt>
      <trkpt lat="42.58552649058401584625244140625" lon="-6.6347311623394489288330078125">
        <ele>567.20001220703125</ele>
        <time>2019-07-08T15:49:16.000Z</time>
      </trkpt>
      <trkpt lat="42.58551056496798992156982421875" lon="-6.6351321525871753692626953125">
        <ele>567</ele>
        <time>2019-07-08T15:49:17.000Z</time>
      </trkpt>
      <trkpt lat="42.585456669330596923828125" lon="-6.635932959616184234619140625">
        <ele>567.20001220703125</ele>
        <time>2019-07-08T15:49:19.000Z</time>
      </trkpt>
      <trkpt lat="42.58537528105080127716064453125" lon="-6.63673435337841510772705078125">
        <ele>566</ele>
        <time>2019-07-08T15:49:21.000Z</time>
      </trkpt>
      <trkpt lat="42.58532767184078693389892578125" lon="-6.63713618181645870208740234375">
        <ele>561.4000244140625</ele>
        <time>2019-07-08T15:49:22.000Z</time>
      </trkpt>
      <trkpt lat="42.58527855388820171356201171875" lon="-6.637538932263851165771484375">
        <ele>559</ele>
        <time>2019-07-08T15:49:23.000Z</time>
      </trkpt>
      <trkpt lat="42.58522943593561649322509765625" lon="-6.6379441134631633758544921875">
        <ele>558</ele>
        <time>2019-07-08T15:49:24.000Z</time>
      </trkpt>
      <trkpt lat="42.58518132381141185760498046875" lon="-6.63835038430988788604736328125">
        <ele>557.4000244140625</ele>
        <time>2019-07-08T15:49:25.000Z</time>
      </trkpt>
      <trkpt lat="42.5851336307823657989501953125" lon="-6.6387574933469295501708984375">
        <ele>559.5999755859375</ele>
        <time>2019-07-08T15:49:26.000Z</time>
      </trkpt>
      <trkpt lat="42.585086189210414886474609375" lon="-6.63916678167879581451416015625">
        <ele>562.5999755859375</ele>
        <time>2019-07-08T15:49:27.000Z</time>
      </trkpt>
      <trkpt lat="42.5850377418100833892822265625" lon="-6.639577411115169525146484375">
        <ele>566.5999755859375</ele>
        <time>2019-07-08T15:49:28.000Z</time>
      </trkpt>
      <trkpt lat="42.58498736657202243804931640625" lon="-6.63999089039862155914306640625">
        <ele>570.20001220703125</ele>
        <time>2019-07-08T15:49:29.000Z</time>
      </trkpt>
      <trkpt lat="42.58493623696267604827880859375" lon="-6.640406884253025054931640625">
        <ele>572.5999755859375</ele>
        <time>2019-07-08T15:49:30.000Z</time>
      </trkpt>
      <trkpt lat="42.58488510735332965850830078125" lon="-6.640824638307094573974609375">
        <ele>574</ele>
        <time>2019-07-08T15:49:31.000Z</time>
      </trkpt>
      <trkpt lat="42.584783099591732025146484375" lon="-6.641666181385517120361328125">
        <ele>575.20001220703125</ele>
        <time>2019-07-08T15:49:33.000Z</time>
      </trkpt>
      <trkpt lat="42.58473180234432220458984375" lon="-6.642088629305362701416015625">
        <ele>576.4000244140625</ele>
        <time>2019-07-08T15:49:34.000Z</time>
      </trkpt>
      <trkpt lat="42.5846290402114391326904296875" lon="-6.64293461479246616363525390625">
        <ele>577.79998779296875</ele>
        <time>2019-07-08T15:49:36.000Z</time>
      </trkpt>
      <trkpt lat="42.58452502079308032989501953125" lon="-6.64377632550895214080810546875">
        <ele>577.4000244140625</ele>
        <time>2019-07-08T15:49:38.000Z</time>
      </trkpt>
      <trkpt lat="42.584410607814788818359375" lon="-6.64460529573261737823486328125">
        <ele>576.20001220703125</ele>
        <time>2019-07-08T15:49:40.000Z</time>
      </trkpt>
      <trkpt lat="42.58427373133599758148193359375" lon="-6.64541766978800296783447265625">
        <ele>574.4000244140625</ele>
        <time>2019-07-08T15:49:42.000Z</time>
      </trkpt>
      <trkpt lat="42.5841955281794071197509765625" lon="-6.645816229283809661865234375">
        <ele>570.79998779296875</ele>
        <time>2019-07-08T15:49:43.000Z</time>
      </trkpt>
      <trkpt lat="42.58410818874835968017578125" lon="-6.64621445350348949432373046875">
        <ele>566.4000244140625</ele>
        <time>2019-07-08T15:49:44.000Z</time>
      </trkpt>
      <trkpt lat="42.58401204831898212432861328125" lon="-6.64661251008510589599609375">
        <ele>560.4000244140625</ele>
        <time>2019-07-08T15:49:45.000Z</time>
      </trkpt>
      <trkpt lat="42.58390191011130809783935546875" lon="-6.64700184948742389678955078125">
        <ele>557.4000244140625</ele>
        <time>2019-07-08T15:49:46.000Z</time>
      </trkpt>
      <trkpt lat="42.5837868265807628631591796875" lon="-6.64738356135785579681396484375">
        <ele>554.4000244140625</ele>
        <time>2019-07-08T15:49:47.000Z</time>
      </trkpt>
      <trkpt lat="42.5836667977273464202880859375" lon="-6.64776041172444820404052734375">
        <ele>553</ele>
        <time>2019-07-08T15:49:48.000Z</time>
      </trkpt>
      <trkpt lat="42.5835437513887882232666015625" lon="-6.64813675917685031890869140625">
        <ele>554</ele>
        <time>2019-07-08T15:49:49.000Z</time>
      </trkpt>
      <trkpt lat="42.58342129178345203399658203125" lon="-6.6485150344669818878173828125">
        <ele>556.79998779296875</ele>
        <time>2019-07-08T15:49:50.000Z</time>
      </trkpt>
      <trkpt lat="42.5832989998161792755126953125" lon="-6.6488938964903354644775390625">
        <ele>560</ele>
        <time>2019-07-08T15:49:51.000Z</time>
      </trkpt>
      <trkpt lat="42.5831781327724456787109375" lon="-6.649271585047245025634765625">
        <ele>563</ele>
        <time>2019-07-08T15:49:52.000Z</time>
      </trkpt>
      <trkpt lat="42.5829486362636089324951171875" lon="-6.6500378586351871490478515625">
        <ele>565.5999755859375</ele>
        <time>2019-07-08T15:49:54.000Z</time>
      </trkpt>
      <trkpt lat="42.582842521369457244873046875" lon="-6.6504261083900928497314453125">
        <ele>567</ele>
        <time>2019-07-08T15:49:55.000Z</time>
      </trkpt>
      <trkpt lat="42.5826562754809856414794921875" lon="-6.65121576748788356781005859375">
        <ele>567.79998779296875</ele>
        <time>2019-07-08T15:49:57.000Z</time>
      </trkpt>
      <trkpt lat="42.58251973427832126617431640625" lon="-6.652024872601032257080078125">
        <ele>567.4000244140625</ele>
        <time>2019-07-08T15:49:59.000Z</time>
      </trkpt>
      <trkpt lat="42.5824259407818317413330078125" lon="-6.65284118615090847015380859375">
        <ele>567.79998779296875</ele>
        <time>2019-07-08T15:50:01.000Z</time>
      </trkpt>
      <trkpt lat="42.58236802183091640472412109375" lon="-6.65365925990045070648193359375">
        <ele>566.5999755859375</ele>
        <time>2019-07-08T15:50:03.000Z</time>
      </trkpt>
      <trkpt lat="42.5823458097875118255615234375" lon="-6.65447666309773921966552734375">
        <ele>565.5999755859375</ele>
        <time>2019-07-08T15:50:05.000Z</time>
      </trkpt>
      <trkpt lat="42.582367099821567535400390625" lon="-6.6552926413714885711669921875">
        <ele>565</ele>
        <time>2019-07-08T15:50:07.000Z</time>
      </trkpt>
      <trkpt lat="42.58239283226430416107177734375" lon="-6.65570042096078395843505859375">
        <ele>563.5999755859375</ele>
        <time>2019-07-08T15:50:08.000Z</time>
      </trkpt>
      <trkpt lat="42.5824286229908466339111328125" lon="-6.656106524169445037841796875">
        <ele>561.5999755859375</ele>
        <time>2019-07-08T15:50:09.000Z</time>
      </trkpt>
      <trkpt lat="42.5824752263724803924560546875" lon="-6.65650784969329833984375">
        <ele>553.20001220703125</ele>
        <time>2019-07-08T15:50:10.000Z</time>
      </trkpt>
      <trkpt lat="42.58252861909568309783935546875" lon="-6.65690573863685131072998046875">
        <ele>539.5999755859375</ele>
        <time>2019-07-08T15:50:11.000Z</time>
      </trkpt>
      <trkpt lat="42.58259114809334278106689453125" lon="-6.65729935280978679656982421875">
        <ele>528</ele>
        <time>2019-07-08T15:50:12.000Z</time>
      </trkpt>
      <trkpt lat="42.58266423828899860382080078125" lon="-6.65768760256469249725341796875">
        <ele>520</ele>
        <time>2019-07-08T15:50:13.000Z</time>
      </trkpt>
      <trkpt lat="42.58274671621620655059814453125" lon="-6.65806981734931468963623046875">
        <ele>516</ele>
        <time>2019-07-08T15:50:14.000Z</time>
      </trkpt>
      <trkpt lat="42.58294000290334224700927734375" lon="-6.65881547145545482635498046875">
        <ele>516.5999755859375</ele>
        <time>2019-07-08T15:50:16.000Z</time>
      </trkpt>
      <trkpt lat="42.58304678834974765777587890625" lon="-6.65918226353824138641357421875">
        <ele>517.4000244140625</ele>
        <time>2019-07-08T15:50:17.000Z</time>
      </trkpt>
      <trkpt lat="42.58327611722052097320556640625" lon="-6.6599043644964694976806640625">
        <ele>517.4000244140625</ele>
        <time>2019-07-08T15:50:19.000Z</time>
      </trkpt>
      <trkpt lat="42.58339597843587398529052734375" lon="-6.6602617688477039337158203125">
        <ele>518.5999755859375</ele>
        <time>2019-07-08T15:50:20.000Z</time>
      </trkpt>
      <trkpt lat="42.5835179351270198822021484375" lon="-6.66061774827539920806884765625">
        <ele>520.20001220703125</ele>
        <time>2019-07-08T15:50:21.000Z</time>
      </trkpt>
      <trkpt lat="42.58364106528460979461669921875" lon="-6.66097330860793590545654296875">
        <ele>518.79998779296875</ele>
        <time>2019-07-08T15:50:22.000Z</time>
      </trkpt>
      <trkpt lat="42.58376411162316799163818359375" lon="-6.66132886894047260284423828125">
        <ele>520.5999755859375</ele>
        <time>2019-07-08T15:50:23.000Z</time>
      </trkpt>
      <trkpt lat="42.58388799615204334259033203125" lon="-6.6616840101778507232666015625">
        <ele>517.5999755859375</ele>
        <time>2019-07-08T15:50:24.000Z</time>
      </trkpt>
      <trkpt lat="42.58401221595704555511474609375" lon="-6.662040241062641143798828125">
        <ele>520</ele>
        <time>2019-07-08T15:50:25.000Z</time>
      </trkpt>
      <trkpt lat="42.58413559757173061370849609375" lon="-6.66240007616579532623291015625">
        <ele>523.20001220703125</ele>
        <time>2019-07-08T15:50:26.000Z</time>
      </trkpt>
      <trkpt lat="42.5842592306435108184814453125" lon="-6.66276209056377410888671875">
        <ele>526</ele>
        <time>2019-07-08T15:50:27.000Z</time>
      </trkpt>
      <trkpt lat="42.5843826122581958770751953125" lon="-6.663124859333038330078125">
        <ele>527.5999755859375</ele>
        <time>2019-07-08T15:50:28.000Z</time>
      </trkpt>
      <trkpt lat="42.58450456894934177398681640625" lon="-6.66348955594003200531005859375">
        <ele>531</ele>
        <time>2019-07-08T15:50:29.000Z</time>
      </trkpt>
      <trkpt lat="42.58463012985885143280029296875" lon="-6.6638539172708988189697265625">
        <ele>533.5999755859375</ele>
        <time>2019-07-08T15:50:30.000Z</time>
      </trkpt>
      <trkpt lat="42.58475460112094879150390625" lon="-6.66422045789659023284912109375">
        <ele>536</ele>
        <time>2019-07-08T15:50:31.000Z</time>
      </trkpt>
      <trkpt lat="42.5848791562020778656005859375" lon="-6.664588339626789093017578125">
        <ele>539.4000244140625</ele>
        <time>2019-07-08T15:50:32.000Z</time>
      </trkpt>
      <trkpt lat="42.58500404655933380126953125" lon="-6.66495722718536853790283203125">
        <ele>543.4000244140625</ele>
        <time>2019-07-08T15:50:33.000Z</time>
      </trkpt>
      <trkpt lat="42.58512784726917743682861328125" lon="-6.66532628238201141357421875">
        <ele>546.5999755859375</ele>
        <time>2019-07-08T15:50:34.000Z</time>
      </trkpt>
      <trkpt lat="42.58525273762643337249755859375" lon="-6.66569508612155914306640625">
        <ele>548.5999755859375</ele>
        <time>2019-07-08T15:50:35.000Z</time>
      </trkpt>
      <trkpt lat="42.5853770412504673004150390625" lon="-6.6660650633275508880615234375">
        <ele>549.5999755859375</ele>
        <time>2019-07-08T15:50:36.000Z</time>
      </trkpt>
      <trkpt lat="42.585627995431423187255859375" lon="-6.666813232004642486572265625">
        <ele>551.20001220703125</ele>
        <time>2019-07-08T15:50:38.000Z</time>
      </trkpt>
      <trkpt lat="42.58588154800236225128173828125" lon="-6.6675754822790622711181640625">
        <ele>552.5999755859375</ele>
        <time>2019-07-08T15:50:40.000Z</time>
      </trkpt>
      <trkpt lat="42.58613836951553821563720703125" lon="-6.66835315525531768798828125">
        <ele>553.20001220703125</ele>
        <time>2019-07-08T15:50:42.000Z</time>
      </trkpt>
      <trkpt lat="42.58639619685709476470947265625" lon="-6.66913057677447795867919921875">
        <ele>553.4000244140625</ele>
        <time>2019-07-08T15:50:44.000Z</time>
      </trkpt>
      <trkpt lat="42.58652477525174617767333984375" lon="-6.66951463557779788970947265625">
        <ele>553.79998779296875</ele>
        <time>2019-07-08T15:50:45.000Z</time>
      </trkpt>
      <trkpt lat="42.58677388541400432586669921875" lon="-6.67027470655739307403564453125">
        <ele>554.5999755859375</ele>
        <time>2019-07-08T15:50:47.000Z</time>
      </trkpt>
      <trkpt lat="42.58689123205840587615966796875" lon="-6.670656502246856689453125">
        <ele>555.20001220703125</ele>
        <time>2019-07-08T15:50:48.000Z</time>
      </trkpt>
      <trkpt lat="42.58710463531315326690673828125" lon="-6.67143207974731922149658203125">
        <ele>555.4000244140625</ele>
        <time>2019-07-08T15:50:50.000Z</time>
      </trkpt>
      <trkpt lat="42.58727964945137500762939453125" lon="-6.67222349904477596282958984375">
        <ele>556.20001220703125</ele>
        <time>2019-07-08T15:50:52.000Z</time>
      </trkpt>
      <trkpt lat="42.5874052941799163818359375" lon="-6.67302422225475311279296875">
        <ele>558.20001220703125</ele>
        <time>2019-07-08T15:50:54.000Z</time>
      </trkpt>
      <trkpt lat="42.58748299442231655120849609375" lon="-6.6738327406346797943115234375">
        <ele>559.79998779296875</ele>
        <time>2019-07-08T15:50:56.000Z</time>
      </trkpt>
      <trkpt lat="42.5875179469585418701171875" lon="-6.67465190403163433074951171875">
        <ele>560.79998779296875</ele>
        <time>2019-07-08T15:50:58.000Z</time>
      </trkpt>
      <trkpt lat="42.587513588368892669677734375" lon="-6.675477437674999237060546875">
        <ele>560.79998779296875</ele>
        <time>2019-07-08T15:51:00.000Z</time>
      </trkpt>
      <trkpt lat="42.58745969273149967193603515625" lon="-6.676307581365108489990234375">
        <ele>562.5999755859375</ele>
        <time>2019-07-08T15:51:02.000Z</time>
      </trkpt>
      <trkpt lat="42.5873591937124729156494140625" lon="-6.677136383950710296630859375">
        <ele>563.20001220703125</ele>
        <time>2019-07-08T15:51:04.000Z</time>
      </trkpt>
      <trkpt lat="42.5872041285037994384765625" lon="-6.677953116595745086669921875">
        <ele>562.79998779296875</ele>
        <time>2019-07-08T15:51:06.000Z</time>
      </trkpt>
      <trkpt lat="42.58700002916157245635986328125" lon="-6.67875283397734165191650390625">
        <ele>562.79998779296875</ele>
        <time>2019-07-08T15:51:08.000Z</time>
      </trkpt>
      <trkpt lat="42.58674756623804569244384765625" lon="-6.6795247234404087066650390625">
        <ele>563.4000244140625</ele>
        <time>2019-07-08T15:51:10.000Z</time>
      </trkpt>
      <trkpt lat="42.586610019207000732421875" lon="-6.67990383692085742950439453125">
        <ele>563.79998779296875</ele>
        <time>2019-07-08T15:51:11.000Z</time>
      </trkpt>
      <trkpt lat="42.58633383549749851226806640625" lon="-6.68066122569143772125244140625">
        <ele>564.79998779296875</ele>
        <time>2019-07-08T15:51:13.000Z</time>
      </trkpt>
      <trkpt lat="42.58619628846645355224609375" lon="-6.68103975243866443634033203125">
        <ele>565.4000244140625</ele>
        <time>2019-07-08T15:51:14.000Z</time>
      </trkpt>
      <trkpt lat="42.58592312224209308624267578125" lon="-6.68179714120924472808837890625">
        <ele>565</ele>
        <time>2019-07-08T15:51:16.000Z</time>
      </trkpt>
      <trkpt lat="42.58565490134060382843017578125" lon="-6.6825566254556179046630859375">
        <ele>564.20001220703125</ele>
        <time>2019-07-08T15:51:18.000Z</time>
      </trkpt>
      <trkpt lat="42.58538550697267055511474609375" lon="-6.683315522968769073486328125">
        <ele>563.5999755859375</ele>
        <time>2019-07-08T15:51:20.000Z</time>
      </trkpt>
      <trkpt lat="42.585117705166339874267578125" lon="-6.684072576463222503662109375">
        <ele>562.20001220703125</ele>
        <time>2019-07-08T15:51:22.000Z</time>
      </trkpt>
      <trkpt lat="42.5849857740104198455810546875" lon="-6.68445051647722721099853515625">
        <ele>561.20001220703125</ele>
        <time>2019-07-08T15:51:23.000Z</time>
      </trkpt>
      <trkpt lat="42.5848553515970706939697265625" lon="-6.6848274506628513336181640625">
        <ele>560.20001220703125</ele>
        <time>2019-07-08T15:51:24.000Z</time>
      </trkpt>
      <trkpt lat="42.5845921598374843597412109375" lon="-6.68557830154895782470703125">
        <ele>559</ele>
        <time>2019-07-08T15:51:26.000Z</time>
      </trkpt>
      <trkpt lat="42.58432678878307342529296875" lon="-6.6863335110247135162353515625">
        <ele>558.5999755859375</ele>
        <time>2019-07-08T15:51:28.000Z</time>
      </trkpt>
      <trkpt lat="42.5840563885867595672607421875" lon="-6.68709198944270610809326171875">
        <ele>558.4000244140625</ele>
        <time>2019-07-08T15:51:30.000Z</time>
      </trkpt>
      <trkpt lat="42.5839209370315074920654296875" lon="-6.68747219257056713104248046875">
        <ele>557.79998779296875</ele>
        <time>2019-07-08T15:51:31.000Z</time>
      </trkpt>
      <trkpt lat="42.583654560148715972900390625" lon="-6.6882343590259552001953125">
        <ele>558.4000244140625</ele>
        <time>2019-07-08T15:51:33.000Z</time>
      </trkpt>
      <trkpt lat="42.58339815773069858551025390625" lon="-6.68900641612708568572998046875">
        <ele>557</ele>
        <time>2019-07-08T15:51:35.000Z</time>
      </trkpt>
      <trkpt lat="42.58316379971802234649658203125" lon="-6.68980009853839874267578125">
        <ele>556.79998779296875</ele>
        <time>2019-07-08T15:51:37.000Z</time>
      </trkpt>
      <trkpt lat="42.58294218219816684722900390625" lon="-6.69060987420380115509033203125">
        <ele>555.20001220703125</ele>
        <time>2019-07-08T15:51:39.000Z</time>
      </trkpt>
      <trkpt lat="42.58283623494207859039306640625" lon="-6.691019497811794281005859375">
        <ele>554.20001220703125</ele>
        <time>2019-07-08T15:51:40.000Z</time>
      </trkpt>
      <trkpt lat="42.58264370262622833251953125" lon="-6.69185140170156955718994140625">
        <ele>553.79998779296875</ele>
        <time>2019-07-08T15:51:42.000Z</time>
      </trkpt>
      <trkpt lat="42.582479417324066162109375" lon="-6.69269747100770473480224609375">
        <ele>553.4000244140625</ele>
        <time>2019-07-08T15:51:44.000Z</time>
      </trkpt>
      <trkpt lat="42.5823434628546237945556640625" lon="-6.6935369186103343963623046875">
        <ele>553.5999755859375</ele>
        <time>2019-07-08T15:51:46.000Z</time>
      </trkpt>
      <trkpt lat="42.5822385214269161224365234375" lon="-6.69435172341763973236083984375">
        <ele>552.79998779296875</ele>
        <time>2019-07-08T15:51:48.000Z</time>
      </trkpt>
      <trkpt lat="42.58219535462558269500732421875" lon="-6.69474785216152667999267578125">
        <ele>551.4000244140625</ele>
        <time>2019-07-08T15:51:49.000Z</time>
      </trkpt>
      <trkpt lat="42.58215679787099361419677734375" lon="-6.69513878412544727325439453125">
        <ele>550.4000244140625</ele>
        <time>2019-07-08T15:51:50.000Z</time>
      </trkpt>
      <trkpt lat="42.58212268352508544921875" lon="-6.69552518986165523529052734375">
        <ele>549.20001220703125</ele>
        <time>2019-07-08T15:51:51.000Z</time>
      </trkpt>
      <trkpt lat="42.58206627331674098968505859375" lon="-6.69628643430769443511962890625">
        <ele>548</ele>
        <time>2019-07-08T15:51:53.000Z</time>
      </trkpt>
      <trkpt lat="42.58201983757317066192626953125" lon="-6.697040386497974395751953125">
        <ele>547.5999755859375</ele>
        <time>2019-07-08T15:51:55.000Z</time>
      </trkpt>
      <trkpt lat="42.58197574876248836517333984375" lon="-6.69779500924050807952880859375">
        <ele>547.4000244140625</ele>
        <time>2019-07-08T15:51:57.000Z</time>
      </trkpt>
      <trkpt lat="42.58192378096282482147216796875" lon="-6.69854870997369289398193359375">
        <ele>546.5999755859375</ele>
        <time>2019-07-08T15:51:59.000Z</time>
      </trkpt>
      <trkpt lat="42.5818549655377864837646484375" lon="-6.69930023141205310821533203125">
        <ele>545.20001220703125</ele>
        <time>2019-07-08T15:52:01.000Z</time>
      </trkpt>
      <trkpt lat="42.58176184259355068206787109375" lon="-6.7000493220984935760498046875">
        <ele>544.20001220703125</ele>
        <time>2019-07-08T15:52:03.000Z</time>
      </trkpt>
      <trkpt lat="42.581644915044307708740234375" lon="-6.70079849660396575927734375">
        <ele>543.20001220703125</ele>
        <time>2019-07-08T15:52:05.000Z</time>
      </trkpt>
      <trkpt lat="42.58157995529472827911376953125" lon="-6.70117400586605072021484375">
        <ele>542.79998779296875</ele>
        <time>2019-07-08T15:52:06.000Z</time>
      </trkpt>
      <trkpt lat="42.581431008875370025634765625" lon="-6.7019409500062465667724609375">
        <ele>541.20001220703125</ele>
        <time>2019-07-08T15:52:08.000Z</time>
      </trkpt>
      <trkpt lat="42.58134107105433940887451171875" lon="-6.7023268528282642364501953125">
        <ele>539.79998779296875</ele>
        <time>2019-07-08T15:52:09.000Z</time>
      </trkpt>
      <trkpt lat="42.58124015294015407562255859375" lon="-6.70271015726029872894287109375">
        <ele>538.20001220703125</ele>
        <time>2019-07-08T15:52:10.000Z</time>
      </trkpt>
      <trkpt lat="42.581011913716793060302734375" lon="-6.70346570201218128204345703125">
        <ele>537.20001220703125</ele>
        <time>2019-07-08T15:52:12.000Z</time>
      </trkpt>
      <trkpt lat="42.5807525776326656341552734375" lon="-6.70420113019645214080810546875">
        <ele>537.4000244140625</ele>
        <time>2019-07-08T15:52:14.000Z</time>
      </trkpt>
      <trkpt lat="42.580470107495784759521484375" lon="-6.70491426251828670501708984375">
        <ele>537.79998779296875</ele>
        <time>2019-07-08T15:52:16.000Z</time>
      </trkpt>
      <trkpt lat="42.580317892134189605712890625" lon="-6.7052618600428104400634765625">
        <ele>538.20001220703125</ele>
        <time>2019-07-08T15:52:17.000Z</time>
      </trkpt>
      <trkpt lat="42.579990662634372711181640625" lon="-6.705933250486850738525390625">
        <ele>538.5999755859375</ele>
        <time>2019-07-08T15:52:19.000Z</time>
      </trkpt>
      <trkpt lat="42.57964323274791240692138671875" lon="-6.7065841890871524810791015625">
        <ele>538.5999755859375</ele>
        <time>2019-07-08T15:52:21.000Z</time>
      </trkpt>
      <trkpt lat="42.57927526719868183135986328125" lon="-6.70721056871116161346435546875">
        <ele>538</ele>
        <time>2019-07-08T15:52:23.000Z</time>
      </trkpt>
      <trkpt lat="42.579084075987339019775390625" lon="-6.70751214958727359771728515625">
        <ele>537</ele>
        <time>2019-07-08T15:52:24.000Z</time>
      </trkpt>
      <trkpt lat="42.57868886925280094146728515625" lon="-6.708096452057361602783203125">
        <ele>535.79998779296875</ele>
        <time>2019-07-08T15:52:26.000Z</time>
      </trkpt>
      <trkpt lat="42.578482925891876220703125" lon="-6.70837732963263988494873046875">
        <ele>534.5999755859375</ele>
        <time>2019-07-08T15:52:27.000Z</time>
      </trkpt>
      <trkpt lat="42.57805553264915943145751953125" lon="-6.70891821384429931640625">
        <ele>534.4000244140625</ele>
        <time>2019-07-08T15:52:29.000Z</time>
      </trkpt>
      <trkpt lat="42.57761053740978240966796875" lon="-6.70942707918584346771240234375">
        <ele>534</ele>
        <time>2019-07-08T15:52:31.000Z</time>
      </trkpt>
      <trkpt lat="42.57714978419244289398193359375" lon="-6.70990526676177978515625">
        <ele>534.20001220703125</ele>
        <time>2019-07-08T15:52:33.000Z</time>
      </trkpt>
      <trkpt lat="42.5769138336181640625" lon="-6.71013526618480682373046875">
        <ele>533.5999755859375</ele>
        <time>2019-07-08T15:52:34.000Z</time>
      </trkpt>
      <trkpt lat="42.57643430493772029876708984375" lon="-6.71058663167059421539306640625">
        <ele>534</ele>
        <time>2019-07-08T15:52:36.000Z</time>
      </trkpt>
      <trkpt lat="42.5759651698172092437744140625" lon="-6.71102182008326053619384765625">
        <ele>533.5999755859375</ele>
        <time>2019-07-08T15:52:38.000Z</time>
      </trkpt>
      <trkpt lat="42.575519084930419921875" lon="-6.71143747866153717041015625">
        <ele>532.20001220703125</ele>
        <time>2019-07-08T15:52:40.000Z</time>
      </trkpt>
      <trkpt lat="42.57507710717618465423583984375" lon="-6.71185984276235103607177734375">
        <ele>531.20001220703125</ele>
        <time>2019-07-08T15:52:42.000Z</time>
      </trkpt>
      <trkpt lat="42.57485456764698028564453125" lon="-6.712070144712924957275390625">
        <ele>530</ele>
        <time>2019-07-08T15:52:43.000Z</time>
      </trkpt>
      <trkpt lat="42.5744044594466686248779296875" lon="-6.71248831786215305328369140625">
        <ele>529</ele>
        <time>2019-07-08T15:52:45.000Z</time>
      </trkpt>
      <trkpt lat="42.5741774775087833404541015625" lon="-6.71270079910755157470703125">
        <ele>527.5999755859375</ele>
        <time>2019-07-08T15:52:46.000Z</time>
      </trkpt>
      <trkpt lat="42.57394873537123203277587890625" lon="-6.71291696839034557342529296875">
        <ele>525.4000244140625</ele>
        <time>2019-07-08T15:52:47.000Z</time>
      </trkpt>
      <trkpt lat="42.57371672429144382476806640625" lon="-6.71313791535794734954833984375">
        <ele>523.79998779296875</ele>
        <time>2019-07-08T15:52:48.000Z</time>
      </trkpt>
      <trkpt lat="42.57324532605707645416259765625" lon="-6.71358936466276645660400390625">
        <ele>522.79998779296875</ele>
        <time>2019-07-08T15:52:50.000Z</time>
      </trkpt>
      <trkpt lat="42.573006860911846160888671875" lon="-6.71381684951484203338623046875">
        <ele>522</ele>
        <time>2019-07-08T15:52:51.000Z</time>
      </trkpt>
      <trkpt lat="42.57252515293657779693603515625" lon="-6.714271567761898040771484375">
        <ele>521</ele>
        <time>2019-07-08T15:52:53.000Z</time>
      </trkpt>
      <trkpt lat="42.57203665561974048614501953125" lon="-6.71472343616187572479248046875">
        <ele>520.5999755859375</ele>
        <time>2019-07-08T15:52:55.000Z</time>
      </trkpt>
      <trkpt lat="42.57154815830290317535400390625" lon="-6.71518360264599323272705078125">
        <ele>520.79998779296875</ele>
        <time>2019-07-08T15:52:57.000Z</time>
      </trkpt>
      <trkpt lat="42.57106125354766845703125" lon="-6.71564779244363307952880859375">
        <ele>520</ele>
        <time>2019-07-08T15:52:59.000Z</time>
      </trkpt>
      <trkpt lat="42.570818848907947540283203125" lon="-6.7158800549805164337158203125">
        <ele>513.5999755859375</ele>
        <time>2019-07-08T15:53:00.000Z</time>
      </trkpt>
      <trkpt lat="42.57057686336338520050048828125" lon="-6.71611315570771694183349609375">
        <ele>505</ele>
        <time>2019-07-08T15:53:01.000Z</time>
      </trkpt>
      <trkpt lat="42.57033504545688629150390625" lon="-6.71634717844426631927490234375">
        <ele>494.79998779296875</ele>
        <time>2019-07-08T15:53:02.000Z</time>
      </trkpt>
      <trkpt lat="42.57009322755038738250732421875" lon="-6.71658606268465518951416015625">
        <ele>489.399993896484375</ele>
        <time>2019-07-08T15:53:03.000Z</time>
      </trkpt>
      <trkpt lat="42.56985182873904705047607421875" lon="-6.71683182008564472198486328125">
        <ele>486.600006103515625</ele>
        <time>2019-07-08T15:53:04.000Z</time>
      </trkpt>
      <trkpt lat="42.5693850405514240264892578125" lon="-6.7173643223941326141357421875">
        <ele>488.399993896484375</ele>
        <time>2019-07-08T15:53:06.000Z</time>
      </trkpt>
      <trkpt lat="42.56894775666296482086181640625" lon="-6.717948876321315765380859375">
        <ele>490.20001220703125</ele>
        <time>2019-07-08T15:53:08.000Z</time>
      </trkpt>
      <trkpt lat="42.56873778998851776123046875" lon="-6.71825707890093326568603515625">
        <ele>491.399993896484375</ele>
        <time>2019-07-08T15:53:09.000Z</time>
      </trkpt>
      <trkpt lat="42.56853503175079822540283203125" lon="-6.7185756750404834747314453125">
        <ele>492.600006103515625</ele>
        <time>2019-07-08T15:53:10.000Z</time>
      </trkpt>
      <trkpt lat="42.56815373897552490234375" lon="-6.7192415334284305572509765625">
        <ele>492.20001220703125</ele>
        <time>2019-07-08T15:53:12.000Z</time>
      </trkpt>
      <trkpt lat="42.56797604262828826904296875" lon="-6.7195867002010345458984375">
        <ele>493.79998779296875</ele>
        <time>2019-07-08T15:53:13.000Z</time>
      </trkpt>
      <trkpt lat="42.56780681200325489044189453125" lon="-6.71993865631520748138427734375">
        <ele>497</ele>
        <time>2019-07-08T15:53:14.000Z</time>
      </trkpt>
      <trkpt lat="42.5676456280052661895751953125" lon="-6.72029740177094936370849609375">
        <ele>498.600006103515625</ele>
        <time>2019-07-08T15:53:15.000Z</time>
      </trkpt>
      <trkpt lat="42.5674925744533538818359375" lon="-6.72066318802535533905029296875">
        <ele>503.399993896484375</ele>
        <time>2019-07-08T15:53:16.000Z</time>
      </trkpt>
      <trkpt lat="42.56734815426170825958251953125" lon="-6.72103576362133026123046875">
        <ele>508.20001220703125</ele>
        <time>2019-07-08T15:53:17.000Z</time>
      </trkpt>
      <trkpt lat="42.5672141276299953460693359375" lon="-6.721414625644683837890625">
        <ele>512.20001220703125</ele>
        <time>2019-07-08T15:53:18.000Z</time>
      </trkpt>
      <trkpt lat="42.5670920871198177337646484375" lon="-6.72180010937154293060302734375">
        <ele>514</ele>
        <time>2019-07-08T15:53:19.000Z</time>
      </trkpt>
      <trkpt lat="42.56698203273117542266845703125" lon="-6.722191460430622100830078125">
        <ele>516.20001220703125</ele>
        <time>2019-07-08T15:53:20.000Z</time>
      </trkpt>
      <trkpt lat="42.56688564084470272064208984375" lon="-6.722589433193206787109375">
        <ele>518.5999755859375</ele>
        <time>2019-07-08T15:53:21.000Z</time>
      </trkpt>
      <trkpt lat="42.56673158146440982818603515625" lon="-6.7233945988118648529052734375">
        <ele>517.4000244140625</ele>
        <time>2019-07-08T15:53:23.000Z</time>
      </trkpt>
      <trkpt lat="42.5666237063705921173095703125" lon="-6.72420747578144073486328125">
        <ele>515.5999755859375</ele>
        <time>2019-07-08T15:53:25.000Z</time>
      </trkpt>
      <trkpt lat="42.56658204831182956695556640625" lon="-6.7246153391897678375244140625">
        <ele>517.20001220703125</ele>
        <time>2019-07-08T15:53:26.000Z</time>
      </trkpt>
      <trkpt lat="42.56652496755123138427734375" lon="-6.7254317365586757659912109375">
        <ele>516.4000244140625</ele>
        <time>2019-07-08T15:53:28.000Z</time>
      </trkpt>
      <trkpt lat="42.5665066950023174285888671875" lon="-6.72624989412724971771240234375">
        <ele>518</ele>
        <time>2019-07-08T15:53:30.000Z</time>
      </trkpt>
      <trkpt lat="42.56651130504906177520751953125" lon="-6.72665859572589397430419921875">
        <ele>518.4000244140625</ele>
        <time>2019-07-08T15:53:31.000Z</time>
      </trkpt>
      <trkpt lat="42.56655422039330005645751953125" lon="-6.72747549600899219512939453125">
        <ele>519</ele>
        <time>2019-07-08T15:53:33.000Z</time>
      </trkpt>
      <trkpt lat="42.56663896143436431884765625" lon="-6.7282899655401706695556640625">
        <ele>519.4000244140625</ele>
        <time>2019-07-08T15:53:35.000Z</time>
      </trkpt>
      <trkpt lat="42.5667628459632396697998046875" lon="-6.7291056923568248748779296875">
        <ele>519</ele>
        <time>2019-07-08T15:53:37.000Z</time>
      </trkpt>
      <trkpt lat="42.566929645836353302001953125" lon="-6.72991454601287841796875">
        <ele>518.20001220703125</ele>
        <time>2019-07-08T15:53:39.000Z</time>
      </trkpt>
      <trkpt lat="42.56713324226438999176025390625" lon="-6.73071443103253841400146484375">
        <ele>517.5999755859375</ele>
        <time>2019-07-08T15:53:41.000Z</time>
      </trkpt>
      <trkpt lat="42.567244470119476318359375" lon="-6.73110938630998134613037109375">
        <ele>517.20001220703125</ele>
        <time>2019-07-08T15:53:42.000Z</time>
      </trkpt>
      <trkpt lat="42.567471452057361602783203125" lon="-6.73190273344516754150390625">
        <ele>516.20001220703125</ele>
        <time>2019-07-08T15:53:44.000Z</time>
      </trkpt>
      <trkpt lat="42.56758301518857479095458984375" lon="-6.73230162821710109710693359375">
        <ele>515.79998779296875</ele>
        <time>2019-07-08T15:53:45.000Z</time>
      </trkpt>
      <trkpt lat="42.56780329160392284393310546875" lon="-6.7330996692180633544921875">
        <ele>515.4000244140625</ele>
        <time>2019-07-08T15:53:47.000Z</time>
      </trkpt>
      <trkpt lat="42.567914687097072601318359375" lon="-6.733497641980648040771484375">
        <ele>514.79998779296875</ele>
        <time>2019-07-08T15:53:48.000Z</time>
      </trkpt>
      <trkpt lat="42.56813722662627696990966796875" lon="-6.73428998328745365142822265625">
        <ele>514.20001220703125</ele>
        <time>2019-07-08T15:53:50.000Z</time>
      </trkpt>
      <trkpt lat="42.5683562457561492919921875" lon="-6.73507754690945148468017578125">
        <ele>513</ele>
        <time>2019-07-08T15:53:52.000Z</time>
      </trkpt>
      <trkpt lat="42.56846428848803043365478515625" lon="-6.73546873033046722412109375">
        <ele>510</ele>
        <time>2019-07-08T15:53:53.000Z</time>
      </trkpt>
      <trkpt lat="42.56857291795313358306884765625" lon="-6.73585974611341953277587890625">
        <ele>507.399993896484375</ele>
        <time>2019-07-08T15:53:54.000Z</time>
      </trkpt>
      <trkpt lat="42.56868305616080760955810546875" lon="-6.73625218681991100311279296875">
        <ele>505.399993896484375</ele>
        <time>2019-07-08T15:53:55.000Z</time>
      </trkpt>
      <trkpt lat="42.56879218854010105133056640625" lon="-6.7366450466215610504150390625">
        <ele>503.600006103515625</ele>
        <time>2019-07-08T15:53:56.000Z</time>
      </trkpt>
      <trkpt lat="42.56900642998516559600830078125" lon="-6.7374316044151782989501953125">
        <ele>503.600006103515625</ele>
        <time>2019-07-08T15:53:58.000Z</time>
      </trkpt>
      <trkpt lat="42.569218575954437255859375" lon="-6.7382235266268253326416015625">
        <ele>505.600006103515625</ele>
        <time>2019-07-08T15:54:00.000Z</time>
      </trkpt>
      <trkpt lat="42.56943608634173870086669921875" lon="-6.739018298685550689697265625">
        <ele>506.20001220703125</ele>
        <time>2019-07-08T15:54:02.000Z</time>
      </trkpt>
      <trkpt lat="42.569546811282634735107421875" lon="-6.73941534943878650665283203125">
        <ele>507</ele>
        <time>2019-07-08T15:54:03.000Z</time>
      </trkpt>
      <trkpt lat="42.56965720094740390777587890625" lon="-6.73981181345880031585693359375">
        <ele>508.20001220703125</ele>
        <time>2019-07-08T15:54:04.000Z</time>
      </trkpt>
      <trkpt lat="42.5697655789554119110107421875" lon="-6.74020660109817981719970703125">
        <ele>509.600006103515625</ele>
        <time>2019-07-08T15:54:05.000Z</time>
      </trkpt>
      <trkpt lat="42.56987244822084903717041015625" lon="-6.74060088582336902618408203125">
        <ele>510.79998779296875</ele>
        <time>2019-07-08T15:54:06.000Z</time>
      </trkpt>
      <trkpt lat="42.570072524249553680419921875" lon="-6.7413868568837642669677734375">
        <ele>511.20001220703125</ele>
        <time>2019-07-08T15:54:08.000Z</time>
      </trkpt>
      <trkpt lat="42.57024519145488739013671875" lon="-6.74216863699257373809814453125">
        <ele>511.600006103515625</ele>
        <time>2019-07-08T15:54:10.000Z</time>
      </trkpt>
      <trkpt lat="42.57032222114503383636474609375" lon="-6.74255956895649433135986328125">
        <ele>512.20001220703125</ele>
        <time>2019-07-08T15:54:11.000Z</time>
      </trkpt>
      <trkpt lat="42.570462785661220550537109375" lon="-6.74334746785461902618408203125">
        <ele>512.20001220703125</ele>
        <time>2019-07-08T15:54:13.000Z</time>
      </trkpt>
      <trkpt lat="42.57058021612465381622314453125" lon="-6.74413939006626605987548828125">
        <ele>514.20001220703125</ele>
        <time>2019-07-08T15:54:15.000Z</time>
      </trkpt>
      <trkpt lat="42.5706714950501918792724609375" lon="-6.74493097700178623199462890625">
        <ele>516.5999755859375</ele>
        <time>2019-07-08T15:54:17.000Z</time>
      </trkpt>
      <trkpt lat="42.5707398913800716400146484375" lon="-6.7457114160060882568359375">
        <ele>518</ele>
        <time>2019-07-08T15:54:19.000Z</time>
      </trkpt>
      <trkpt lat="42.57078892551362514495849609375" lon="-6.74648514948785305023193359375">
        <ele>518.79998779296875</ele>
        <time>2019-07-08T15:54:21.000Z</time>
      </trkpt>
      <trkpt lat="42.5708186812698841094970703125" lon="-6.74725611694157123565673828125">
        <ele>518.79998779296875</ele>
        <time>2019-07-08T15:54:23.000Z</time>
      </trkpt>
      <trkpt lat="42.57083795964717864990234375" lon="-6.7480259947478771209716796875">
        <ele>511</ele>
        <time>2019-07-08T15:54:25.000Z</time>
      </trkpt>
      <trkpt lat="42.5708461739122867584228515625" lon="-6.748412065207958221435546875">
        <ele>500.79998779296875</ele>
        <time>2019-07-08T15:54:26.000Z</time>
      </trkpt>
      <trkpt lat="42.57085480727255344390869140625" lon="-6.7488021589815616607666015625">
        <ele>490</ele>
        <time>2019-07-08T15:54:27.000Z</time>
      </trkpt>
      <trkpt lat="42.5708652846515178680419921875" lon="-6.74919619224965572357177734375">
        <ele>482.20001220703125</ele>
        <time>2019-07-08T15:54:28.000Z</time>
      </trkpt>
      <trkpt lat="42.5708793662488460540771484375" lon="-6.74959265626966953277587890625">
        <ele>477.600006103515625</ele>
        <time>2019-07-08T15:54:29.000Z</time>
      </trkpt>
      <trkpt lat="42.57091783918440341949462890625" lon="-6.7503906972706317901611328125">
        <ele>476.399993896484375</ele>
        <time>2019-07-08T15:54:31.000Z</time>
      </trkpt>
      <trkpt lat="42.570944242179393768310546875" lon="-6.75079210661351680755615234375">
        <ele>474</ele>
        <time>2019-07-08T15:54:32.000Z</time>
      </trkpt>
      <trkpt lat="42.57101842202246189117431640625" lon="-6.75159819424152374267578125">
        <ele>474.20001220703125</ele>
        <time>2019-07-08T15:54:34.000Z</time>
      </trkpt>
      <trkpt lat="42.57106619887053966522216796875" lon="-6.7520037107169628143310546875">
        <ele>477.399993896484375</ele>
        <time>2019-07-08T15:54:35.000Z</time>
      </trkpt>
      <trkpt lat="42.5711204297840595245361328125" lon="-6.7524114064872264862060546875">
        <ele>482.20001220703125</ele>
        <time>2019-07-08T15:54:36.000Z</time>
      </trkpt>
      <trkpt lat="42.571181952953338623046875" lon="-6.75281818024814128875732421875">
        <ele>485.79998779296875</ele>
        <time>2019-07-08T15:54:37.000Z</time>
      </trkpt>
      <trkpt lat="42.57125101983547210693359375" lon="-6.7532257921993732452392578125">
        <ele>489.399993896484375</ele>
        <time>2019-07-08T15:54:38.000Z</time>
      </trkpt>
      <trkpt lat="42.5713276304304599761962890625" lon="-6.75363508053123950958251953125">
        <ele>491.79998779296875</ele>
        <time>2019-07-08T15:54:39.000Z</time>
      </trkpt>
      <trkpt lat="42.5714112818241119384765625" lon="-6.754046045243740081787109375">
        <ele>494.79998779296875</ele>
        <time>2019-07-08T15:54:40.000Z</time>
      </trkpt>
      <trkpt lat="42.5715036503970623016357421875" lon="-6.75445768050849437713623046875">
        <ele>498.20001220703125</ele>
        <time>2019-07-08T15:54:41.000Z</time>
      </trkpt>
      <trkpt lat="42.57160398177802562713623046875" lon="-6.75486856140196323394775390625">
        <ele>501.399993896484375</ele>
        <time>2019-07-08T15:54:42.000Z</time>
      </trkpt>
      <trkpt lat="42.5717105157673358917236328125" lon="-6.7552773468196392059326171875">
        <ele>503.399993896484375</ele>
        <time>2019-07-08T15:54:43.000Z</time>
      </trkpt>
      <trkpt lat="42.57182098925113677978515625" lon="-6.75568529404699802398681640625">
        <ele>506</ele>
        <time>2019-07-08T15:54:44.000Z</time>
      </trkpt>
      <trkpt lat="42.57193389348685741424560546875" lon="-6.75609248690307140350341796875">
        <ele>509.20001220703125</ele>
        <time>2019-07-08T15:54:45.000Z</time>
      </trkpt>
      <trkpt lat="42.57204755209386348724365234375" lon="-6.75649532116949558258056640625">
        <ele>512.20001220703125</ele>
        <time>2019-07-08T15:54:46.000Z</time>
      </trkpt>
      <trkpt lat="42.5721609592437744140625" lon="-6.756895892322063446044921875">
        <ele>517</ele>
        <time>2019-07-08T15:54:47.000Z</time>
      </trkpt>
      <trkpt lat="42.57227151654660701751708984375" lon="-6.7572957091033458709716796875">
        <ele>521.4000244140625</ele>
        <time>2019-07-08T15:54:48.000Z</time>
      </trkpt>
      <trkpt lat="42.57237863726913928985595703125" lon="-6.75769644789397716522216796875">
        <ele>525</ele>
        <time>2019-07-08T15:54:49.000Z</time>
      </trkpt>
      <trkpt lat="42.57248156704008579254150390625" lon="-6.7580970190465450286865234375">
        <ele>527</ele>
        <time>2019-07-08T15:54:50.000Z</time>
      </trkpt>
      <trkpt lat="42.5725807249546051025390625" lon="-6.75849624909460544586181640625">
        <ele>529</ele>
        <time>2019-07-08T15:54:51.000Z</time>
      </trkpt>
      <trkpt lat="42.57267468608915805816650390625" lon="-6.758894808590412139892578125">
        <ele>531.20001220703125</ele>
        <time>2019-07-08T15:54:52.000Z</time>
      </trkpt>
      <trkpt lat="42.5727616064250469207763671875" lon="-6.75929454155266284942626953125">
        <ele>533</ele>
        <time>2019-07-08T15:54:53.000Z</time>
      </trkpt>
      <trkpt lat="42.57284165360033512115478515625" lon="-6.759698130190372467041015625">
        <ele>534.20001220703125</ele>
        <time>2019-07-08T15:54:54.000Z</time>
      </trkpt>
      <trkpt lat="42.5729761831462383270263671875" lon="-6.760511510074138641357421875">
        <ele>535.20001220703125</ele>
        <time>2019-07-08T15:54:56.000Z</time>
      </trkpt>
      <trkpt lat="42.57308757863938808441162109375" lon="-6.761333607137203216552734375">
        <ele>535.4000244140625</ele>
        <time>2019-07-08T15:54:58.000Z</time>
      </trkpt>
      <trkpt lat="42.57317290641367435455322265625" lon="-6.76216383464634418487548828125">
        <ele>533</ele>
        <time>2019-07-08T15:55:00.000Z</time>
      </trkpt>
      <trkpt lat="42.5732041709125041961669921875" lon="-6.762582175433635711669921875">
        <ele>528.5999755859375</ele>
        <time>2019-07-08T15:55:01.000Z</time>
      </trkpt>
      <trkpt lat="42.57322839461266994476318359375" lon="-6.76300269551575183868408203125">
        <ele>522.5999755859375</ele>
        <time>2019-07-08T15:55:02.000Z</time>
      </trkpt>
      <trkpt lat="42.5732450745999813079833984375" lon="-6.7634247243404388427734375">
        <ele>516.4000244140625</ele>
        <time>2019-07-08T15:55:03.000Z</time>
      </trkpt>
      <trkpt lat="42.5732574798166751861572265625" lon="-6.76384809426963329315185546875">
        <ele>512.4000244140625</ele>
        <time>2019-07-08T15:55:04.000Z</time>
      </trkpt>
      <trkpt lat="42.5732673704624176025390625" lon="-6.76427255384624004364013671875">
        <ele>510.399993896484375</ele>
        <time>2019-07-08T15:55:05.000Z</time>
      </trkpt>
      <trkpt lat="42.5732812844216823577880859375" lon="-6.7651227302849292755126953125">
        <ele>513.20001220703125</ele>
        <time>2019-07-08T15:55:07.000Z</time>
      </trkpt>
      <trkpt lat="42.57328572683036327362060546875" lon="-6.76554844714701175689697265625">
        <ele>517.79998779296875</ele>
        <time>2019-07-08T15:55:08.000Z</time>
      </trkpt>
      <trkpt lat="42.57329259999096393585205078125" lon="-6.76597424782812595367431640625">
        <ele>522.79998779296875</ele>
        <time>2019-07-08T15:55:09.000Z</time>
      </trkpt>
      <trkpt lat="42.5733050890266895294189453125" lon="-6.76640004850924015045166015625">
        <ele>525.20001220703125</ele>
        <time>2019-07-08T15:55:10.000Z</time>
      </trkpt>
      <trkpt lat="42.57332579232752323150634765625" lon="-6.76682534627616405487060546875">
        <ele>526.4000244140625</ele>
        <time>2019-07-08T15:55:11.000Z</time>
      </trkpt>
      <trkpt lat="42.57340005598962306976318359375" lon="-6.76766999065876007080078125">
        <ele>527.4000244140625</ele>
        <time>2019-07-08T15:55:13.000Z</time>
      </trkpt>
      <trkpt lat="42.57352159358561038970947265625" lon="-6.76849954761564731597900390625">
        <ele>526.79998779296875</ele>
        <time>2019-07-08T15:55:15.000Z</time>
      </trkpt>
      <trkpt lat="42.57368453778326511383056640625" lon="-6.7693146876990795135498046875">
        <ele>525.4000244140625</ele>
        <time>2019-07-08T15:55:17.000Z</time>
      </trkpt>
      <trkpt lat="42.5737791694700717926025390625" lon="-6.76971676759421825408935546875">
        <ele>525.20001220703125</ele>
        <time>2019-07-08T15:55:18.000Z</time>
      </trkpt>
      <trkpt lat="42.57400020025670528411865234375" lon="-6.77050634287297725677490234375">
        <ele>524.4000244140625</ele>
        <time>2019-07-08T15:55:20.000Z</time>
      </trkpt>
      <trkpt lat="42.574127018451690673828125" lon="-6.77089090459048748016357421875">
        <ele>523.79998779296875</ele>
        <time>2019-07-08T15:55:21.000Z</time>
      </trkpt>
      <trkpt lat="42.574411667883396148681640625" lon="-6.7716358043253421783447265625">
        <ele>523.4000244140625</ele>
        <time>2019-07-08T15:55:23.000Z</time>
      </trkpt>
      <trkpt lat="42.574726827442646026611328125" lon="-6.77235019393265247344970703125">
        <ele>522.4000244140625</ele>
        <time>2019-07-08T15:55:25.000Z</time>
      </trkpt>
      <trkpt lat="42.57505171000957489013671875" lon="-6.773040778934955596923828125">
        <ele>522.4000244140625</ele>
        <time>2019-07-08T15:55:27.000Z</time>
      </trkpt>
      <trkpt lat="42.57537600584328174591064453125" lon="-6.7737299390137195587158203125">
        <ele>523</ele>
        <time>2019-07-08T15:55:29.000Z</time>
      </trkpt>
      <trkpt lat="42.57553526200354099273681640625" lon="-6.77407669834792613983154296875">
        <ele>523.5999755859375</ele>
        <time>2019-07-08T15:55:30.000Z</time>
      </trkpt>
      <trkpt lat="42.5758451409637928009033203125" lon="-6.7747726477682590484619140625">
        <ele>525.79998779296875</ele>
        <time>2019-07-08T15:55:32.000Z</time>
      </trkpt>
      <trkpt lat="42.5759960152208805084228515625" lon="-6.7751226760447025299072265625">
        <ele>527.20001220703125</ele>
        <time>2019-07-08T15:55:33.000Z</time>
      </trkpt>
      <trkpt lat="42.576142363250255584716796875" lon="-6.7754757218062877655029296875">
        <ele>528.79998779296875</ele>
        <time>2019-07-08T15:55:34.000Z</time>
      </trkpt>
      <trkpt lat="42.576283179223537445068359375" lon="-6.77583304233849048614501953125">
        <ele>530</ele>
        <time>2019-07-08T15:55:35.000Z</time>
      </trkpt>
      <trkpt lat="42.57655777037143707275390625" lon="-6.776556484401226043701171875">
        <ele>530.79998779296875</ele>
        <time>2019-07-08T15:55:37.000Z</time>
      </trkpt>
      <trkpt lat="42.5768254883587360382080078125" lon="-6.77729149349033832550048828125">
        <ele>531</ele>
        <time>2019-07-08T15:55:39.000Z</time>
      </trkpt>
      <trkpt lat="42.5769580900669097900390625" lon="-6.77766214124858379364013671875">
        <ele>531.20001220703125</ele>
        <time>2019-07-08T15:55:40.000Z</time>
      </trkpt>
      <trkpt lat="42.5772315077483654022216796875" lon="-6.7784020118415355682373046875">
        <ele>530.79998779296875</ele>
        <time>2019-07-08T15:55:42.000Z</time>
      </trkpt>
      <trkpt lat="42.577542476356029510498046875" lon="-6.77911958657205104827880859375">
        <ele>531.4000244140625</ele>
        <time>2019-07-08T15:55:44.000Z</time>
      </trkpt>
      <trkpt lat="42.577718161046504974365234375" lon="-6.77946366369724273681640625">
        <ele>532.4000244140625</ele>
        <time>2019-07-08T15:55:45.000Z</time>
      </trkpt>
      <trkpt lat="42.5779091008007526397705078125" lon="-6.77979248575866222381591796875">
        <ele>533.79998779296875</ele>
        <time>2019-07-08T15:55:46.000Z</time>
      </trkpt>
      <trkpt lat="42.57832576520740985870361328125" lon="-6.78041056729853153228759765625">
        <ele>535</ele>
        <time>2019-07-08T15:55:48.000Z</time>
      </trkpt>
      <trkpt lat="42.57878291420638561248779296875" lon="-6.78097533993422985076904296875">
        <ele>534.5999755859375</ele>
        <time>2019-07-08T15:55:50.000Z</time>
      </trkpt>
      <trkpt lat="42.579280547797679901123046875" lon="-6.78147775121033191680908203125">
        <ele>533.4000244140625</ele>
        <time>2019-07-08T15:55:52.000Z</time>
      </trkpt>
      <trkpt lat="42.579810284078121185302734375" lon="-6.78192459046840667724609375">
        <ele>532.20001220703125</ele>
        <time>2019-07-08T15:55:54.000Z</time>
      </trkpt>
      <trkpt lat="42.5803455524146556854248046875" lon="-6.78236925043165683746337890625">
        <ele>532.4000244140625</ele>
        <time>2019-07-08T15:55:56.000Z</time>
      </trkpt>
      <trkpt lat="42.580879814922809600830078125" lon="-6.78280913271009922027587890625">
        <ele>534.20001220703125</ele>
        <time>2019-07-08T15:55:58.000Z</time>
      </trkpt>
      <trkpt lat="42.58141147904098033905029296875" lon="-6.7832450754940509796142578125">
        <ele>534.79998779296875</ele>
        <time>2019-07-08T15:56:00.000Z</time>
      </trkpt>
      <trkpt lat="42.5816765986382961273193359375" lon="-6.7834566347301006317138671875">
        <ele>529.4000244140625</ele>
        <time>2019-07-08T15:56:01.000Z</time>
      </trkpt>
      <trkpt lat="42.58193559944629669189453125" lon="-6.78366844542324542999267578125">
        <ele>522.5999755859375</ele>
        <time>2019-07-08T15:56:02.000Z</time>
      </trkpt>
      <trkpt lat="42.5821852125227451324462890625" lon="-6.7838837765157222747802734375">
        <ele>518</ele>
        <time>2019-07-08T15:56:03.000Z</time>
      </trkpt>
      <trkpt lat="42.58242619223892688751220703125" lon="-6.7841053940355777740478515625">
        <ele>515.79998779296875</ele>
        <time>2019-07-08T15:56:04.000Z</time>
      </trkpt>
      <trkpt lat="42.58265770040452480316162109375" lon="-6.7843410931527614593505859375">
        <ele>514.5999755859375</ele>
        <time>2019-07-08T15:56:05.000Z</time>
      </trkpt>
      <trkpt lat="42.58287864737212657928466796875" lon="-6.7845959030091762542724609375">
        <ele>519.5999755859375</ele>
        <time>2019-07-08T15:56:06.000Z</time>
      </trkpt>
      <trkpt lat="42.58309238590300083160400390625" lon="-6.78486856631934642791748046875">
        <ele>527.4000244140625</ele>
        <time>2019-07-08T15:56:07.000Z</time>
      </trkpt>
      <trkpt lat="42.5833010114729404449462890625" lon="-6.785155646502971649169921875">
        <ele>533.4000244140625</ele>
        <time>2019-07-08T15:56:08.000Z</time>
      </trkpt>
      <trkpt lat="42.5835026800632476806640625" lon="-6.785457395017147064208984375">
        <ele>537.5999755859375</ele>
        <time>2019-07-08T15:56:09.000Z</time>
      </trkpt>
      <trkpt lat="42.5836963020265102386474609375" lon="-6.78577213548123836517333984375">
        <ele>540.5999755859375</ele>
        <time>2019-07-08T15:56:10.000Z</time>
      </trkpt>
      <trkpt lat="42.58388179354369640350341796875" lon="-6.78609668277204036712646484375">
        <ele>543</ele>
        <time>2019-07-08T15:56:11.000Z</time>
      </trkpt>
      <trkpt lat="42.584058232605457305908203125" lon="-6.78643145598471164703369140625">
        <ele>544.20001220703125</ele>
        <time>2019-07-08T15:56:12.000Z</time>
      </trkpt>
      <trkpt lat="42.58437850512564182281494140625" lon="-6.78713344037532806396484375">
        <ele>545.4000244140625</ele>
        <time>2019-07-08T15:56:14.000Z</time>
      </trkpt>
      <trkpt lat="42.58452032692730426788330078125" lon="-6.78749998100101947784423828125">
        <ele>546.79998779296875</ele>
        <time>2019-07-08T15:56:15.000Z</time>
      </trkpt>
      <trkpt lat="42.5847963429987430572509765625" lon="-6.7882473953068256378173828125">
        <ele>546.20001220703125</ele>
        <time>2019-07-08T15:56:17.000Z</time>
      </trkpt>
      <trkpt lat="42.5851031206548213958740234375" lon="-6.788977123796939849853515625">
        <ele>547.4000244140625</ele>
        <time>2019-07-08T15:56:19.000Z</time>
      </trkpt>
      <trkpt lat="42.58527603931725025177001953125" lon="-6.7893249727785587310791015625">
        <ele>549</ele>
        <time>2019-07-08T15:56:20.000Z</time>
      </trkpt>
      <trkpt lat="42.5856578350067138671875" lon="-6.78998001851141452789306640625">
        <ele>549.20001220703125</ele>
        <time>2019-07-08T15:56:22.000Z</time>
      </trkpt>
      <trkpt lat="42.5860757566988468170166015625" lon="-6.79058887995779514312744140625">
        <ele>548.79998779296875</ele>
        <time>2019-07-08T15:56:24.000Z</time>
      </trkpt>
      <trkpt lat="42.5865166448056697845458984375" lon="-6.79116019047796726226806640625">
        <ele>546.79998779296875</ele>
        <time>2019-07-08T15:56:26.000Z</time>
      </trkpt>
      <trkpt lat="42.58697723038494586944580078125" lon="-6.79169026203453540802001953125">
        <ele>545.4000244140625</ele>
        <time>2019-07-08T15:56:28.000Z</time>
      </trkpt>
      <trkpt lat="42.58746472187340259552001953125" lon="-6.7921597324311733245849609375">
        <ele>544</ele>
        <time>2019-07-08T15:56:30.000Z</time>
      </trkpt>
      <trkpt lat="42.58797802962362766265869140625" lon="-6.792580001056194305419921875">
        <ele>543</ele>
        <time>2019-07-08T15:56:32.000Z</time>
      </trkpt>
      <trkpt lat="42.58850407786667346954345703125" lon="-6.79297051392495632171630859375">
        <ele>543.79998779296875</ele>
        <time>2019-07-08T15:56:34.000Z</time>
      </trkpt>
      <trkpt lat="42.58903532288968563079833984375" lon="-6.7933563329279422760009765625">
        <ele>544</ele>
        <time>2019-07-08T15:56:36.000Z</time>
      </trkpt>
      <trkpt lat="42.589567489922046661376953125" lon="-6.79375288076698780059814453125">
        <ele>545.79998779296875</ele>
        <time>2019-07-08T15:56:38.000Z</time>
      </trkpt>
      <trkpt lat="42.59009982459247112274169921875" lon="-6.7941492609679698944091796875">
        <ele>545.4000244140625</ele>
        <time>2019-07-08T15:56:40.000Z</time>
      </trkpt>
      <trkpt lat="42.59036536328494548797607421875" lon="-6.7943474091589450836181640625">
        <ele>541.79998779296875</ele>
        <time>2019-07-08T15:56:41.000Z</time>
      </trkpt>
      <trkpt lat="42.5906314887106418609619140625" lon="-6.794546060264110565185546875">
        <ele>535.4000244140625</ele>
        <time>2019-07-08T15:56:42.000Z</time>
      </trkpt>
      <trkpt lat="42.59089811705052852630615234375" lon="-6.79474580101668834686279296875">
        <ele>526.4000244140625</ele>
        <time>2019-07-08T15:56:43.000Z</time>
      </trkpt>
      <trkpt lat="42.59116583503782749176025390625" lon="-6.79494579322636127471923828125">
        <ele>520.20001220703125</ele>
        <time>2019-07-08T15:56:44.000Z</time>
      </trkpt>
      <trkpt lat="42.59143489412963390350341796875" lon="-6.79514586925506591796875">
        <ele>514.4000244140625</ele>
        <time>2019-07-08T15:56:45.000Z</time>
      </trkpt>
      <trkpt lat="42.59197385050356388092041015625" lon="-6.79554753005504608154296875">
        <ele>513.4000244140625</ele>
        <time>2019-07-08T15:56:47.000Z</time>
      </trkpt>
      <trkpt lat="42.5922428257763385772705078125" lon="-6.79574894718825817108154296875">
        <ele>512</ele>
        <time>2019-07-08T15:56:48.000Z</time>
      </trkpt>
      <trkpt lat="42.5927752442657947540283203125" lon="-6.7961545474827289581298828125">
        <ele>515.5999755859375</ele>
        <time>2019-07-08T15:56:50.000Z</time>
      </trkpt>
      <trkpt lat="42.59329140186309814453125" lon="-6.79658562876284122467041015625">
        <ele>518.79998779296875</ele>
        <time>2019-07-08T15:56:52.000Z</time>
      </trkpt>
      <trkpt lat="42.59378065355122089385986328125" lon="-6.79706641472876071929931640625">
        <ele>519.4000244140625</ele>
        <time>2019-07-08T15:56:54.000Z</time>
      </trkpt>
      <trkpt lat="42.5940140895545482635498046875" lon="-6.79732558317482471466064453125">
        <ele>521.4000244140625</ele>
        <time>2019-07-08T15:56:55.000Z</time>
      </trkpt>
      <trkpt lat="42.594452798366546630859375" lon="-6.7978828959167003631591796875">
        <ele>522.20001220703125</ele>
        <time>2019-07-08T15:56:57.000Z</time>
      </trkpt>
      <trkpt lat="42.59465823881328105926513671875" lon="-6.79818003438413143157958984375">
        <ele>523.79998779296875</ele>
        <time>2019-07-08T15:56:58.000Z</time>
      </trkpt>
      <trkpt lat="42.59485387243330478668212890625" lon="-6.7984887398779392242431640625">
        <ele>527.5999755859375</ele>
        <time>2019-07-08T15:56:59.000Z</time>
      </trkpt>
      <trkpt lat="42.59503995068371295928955078125" lon="-6.79880775511264801025390625">
        <ele>533.5999755859375</ele>
        <time>2019-07-08T15:57:00.000Z</time>
      </trkpt>
      <trkpt lat="42.595216892659664154052734375" lon="-6.79913640953600406646728515625">
        <ele>538.5999755859375</ele>
        <time>2019-07-08T15:57:01.000Z</time>
      </trkpt>
      <trkpt lat="42.59538285434246063232421875" lon="-6.7994731105864048004150390625">
        <ele>542</ele>
        <time>2019-07-08T15:57:02.000Z</time>
      </trkpt>
      <trkpt lat="42.59553666226565837860107421875" lon="-6.79982003755867481231689453125">
        <ele>544</ele>
        <time>2019-07-08T15:57:03.000Z</time>
      </trkpt>
      <trkpt lat="42.59567814879119396209716796875" lon="-6.80017760954797267913818359375">
        <ele>545.79998779296875</ele>
        <time>2019-07-08T15:57:04.000Z</time>
      </trkpt>
      <trkpt lat="42.5958071462810039520263671875" lon="-6.80054356344044208526611328125">
        <ele>547.20001220703125</ele>
        <time>2019-07-08T15:57:05.000Z</time>
      </trkpt>
      <trkpt lat="42.59603588841855525970458984375" lon="-6.80129726417362689971923828125">
        <ele>548.4000244140625</ele>
        <time>2019-07-08T15:57:07.000Z</time>
      </trkpt>
      <trkpt lat="42.59622163139283657073974609375" lon="-6.80207342840731143951416015625">
        <ele>549.20001220703125</ele>
        <time>2019-07-08T15:57:09.000Z</time>
      </trkpt>
      <trkpt lat="42.59636244736611843109130859375" lon="-6.80286459624767303466796875">
        <ele>549.5999755859375</ele>
        <time>2019-07-08T15:57:11.000Z</time>
      </trkpt>
      <trkpt lat="42.59645280428230762481689453125" lon="-6.80366666056215763092041015625">
        <ele>548.79998779296875</ele>
        <time>2019-07-08T15:57:13.000Z</time>
      </trkpt>
      <trkpt lat="42.5964964739978313446044921875" lon="-6.80448171682655811309814453125">
        <ele>548.20001220703125</ele>
        <time>2019-07-08T15:57:15.000Z</time>
      </trkpt>
      <trkpt lat="42.59651969186961650848388671875" lon="-6.8053055740892887115478515625">
        <ele>547.5999755859375</ele>
        <time>2019-07-08T15:57:17.000Z</time>
      </trkpt>
      <trkpt lat="42.59654215537011623382568359375" lon="-6.80613429285585880279541015625">
        <ele>547.5999755859375</ele>
        <time>2019-07-08T15:57:19.000Z</time>
      </trkpt>
      <trkpt lat="42.5965698994696140289306640625" lon="-6.806961335241794586181640625">
        <ele>548.4000244140625</ele>
        <time>2019-07-08T15:57:21.000Z</time>
      </trkpt>
      <trkpt lat="42.59658171795308589935302734375" lon="-6.80737246759235858917236328125">
        <ele>549.5999755859375</ele>
        <time>2019-07-08T15:57:22.000Z</time>
      </trkpt>
      <trkpt lat="42.5965947099030017852783203125" lon="-6.80778385140001773834228515625">
        <ele>550.20001220703125</ele>
        <time>2019-07-08T15:57:23.000Z</time>
      </trkpt>
      <trkpt lat="42.5966403074562549591064453125" lon="-6.80860678665339946746826171875">
        <ele>549.4000244140625</ele>
        <time>2019-07-08T15:57:25.000Z</time>
      </trkpt>
      <trkpt lat="42.596737705171108245849609375" lon="-6.80942796170711517333984375">
        <ele>548</ele>
        <time>2019-07-08T15:57:27.000Z</time>
      </trkpt>
      <trkpt lat="42.59689587168395519256591796875" lon="-6.8102359771728515625">
        <ele>546.79998779296875</ele>
        <time>2019-07-08T15:57:29.000Z</time>
      </trkpt>
      <trkpt lat="42.5971076823770999908447265625" lon="-6.8110151588916778564453125">
        <ele>545.79998779296875</ele>
        <time>2019-07-08T15:57:31.000Z</time>
      </trkpt>
      <trkpt lat="42.597234249114990234375" lon="-6.811392344534397125244140625">
        <ele>545.4000244140625</ele>
        <time>2019-07-08T15:57:32.000Z</time>
      </trkpt>
      <trkpt lat="42.59752652607858180999755859375" lon="-6.81212903000414371490478515625">
        <ele>544.5999755859375</ele>
        <time>2019-07-08T15:57:34.000Z</time>
      </trkpt>
      <trkpt lat="42.597692571580410003662109375" lon="-6.81248702108860015869140625">
        <ele>544.4000244140625</ele>
        <time>2019-07-08T15:57:35.000Z</time>
      </trkpt>
      <trkpt lat="42.59806573390960693359375" lon="-6.81317173875868320465087890625">
        <ele>542.79998779296875</ele>
        <time>2019-07-08T15:57:37.000Z</time>
      </trkpt>
      <trkpt lat="42.59849111549556255340576171875" lon="-6.81380826048552989959716796875">
        <ele>541.20001220703125</ele>
        <time>2019-07-08T15:57:39.000Z</time>
      </trkpt>
      <trkpt lat="42.5989553891122341156005859375" lon="-6.814386360347270965576171875">
        <ele>540.4000244140625</ele>
        <time>2019-07-08T15:57:41.000Z</time>
      </trkpt>
      <trkpt lat="42.59944162331521511077880859375" lon="-6.8148911185562610626220703125">
        <ele>540.5999755859375</ele>
        <time>2019-07-08T15:57:43.000Z</time>
      </trkpt>
      <trkpt lat="42.59993313811719417572021484375" lon="-6.8153115548193454742431640625">
        <ele>541.5999755859375</ele>
        <time>2019-07-08T15:57:45.000Z</time>
      </trkpt>
      <trkpt lat="42.600437812507152557373046875" lon="-6.815659068524837493896484375">
        <ele>541.79998779296875</ele>
        <time>2019-07-08T15:57:47.000Z</time>
      </trkpt>
      <trkpt lat="42.60095405392348766326904296875" lon="-6.81594078429043292999267578125">
        <ele>541.79998779296875</ele>
        <time>2019-07-08T15:57:49.000Z</time>
      </trkpt>
      <trkpt lat="42.60146878659725189208984375" lon="-6.81617547757923603057861328125">
        <ele>541.4000244140625</ele>
        <time>2019-07-08T15:57:51.000Z</time>
      </trkpt>
      <trkpt lat="42.60195217095315456390380859375" lon="-6.81637622416019439697265625">
        <ele>540.20001220703125</ele>
        <time>2019-07-08T15:57:53.000Z</time>
      </trkpt>
      <trkpt lat="42.60218493640422821044921875" lon="-6.816473118960857391357421875">
        <ele>539.4000244140625</ele>
        <time>2019-07-08T15:57:54.000Z</time>
      </trkpt>
      <trkpt lat="42.60263747535645961761474609375" lon="-6.81666229851543903350830078125">
        <ele>539.4000244140625</ele>
        <time>2019-07-08T15:57:56.000Z</time>
      </trkpt>
      <trkpt lat="42.60307366959750652313232421875" lon="-6.816842593252658843994140625">
        <ele>538.4000244140625</ele>
        <time>2019-07-08T15:57:58.000Z</time>
      </trkpt>
      <trkpt lat="42.60328807868063449859619140625" lon="-6.81692750193178653717041015625">
        <ele>537.5999755859375</ele>
        <time>2019-07-08T15:57:59.000Z</time>
      </trkpt>
      <trkpt lat="42.6039265282452106475830078125" lon="-6.81717325933277606964111328125">
        <ele>537</ele>
        <time>2019-07-08T15:58:02.000Z</time>
      </trkpt>
      <trkpt lat="42.6043496467173099517822265625" lon="-6.81733989156782627105712890625">
        <ele>536.20001220703125</ele>
        <time>2019-07-08T15:58:04.000Z</time>
      </trkpt>
      <trkpt lat="42.60499580763280391693115234375" lon="-6.8175946176052093505859375">
        <ele>537</ele>
        <time>2019-07-08T15:58:07.000Z</time>
      </trkpt>
      <trkpt lat="42.6054402999579906463623046875" lon="-6.8177691288292407989501953125">
        <ele>537</ele>
        <time>2019-07-08T15:58:09.000Z</time>
      </trkpt>
      <trkpt lat="42.6056652702391147613525390625" lon="-6.8178636766970157623291015625">
        <ele>537.4000244140625</ele>
        <time>2019-07-08T15:58:10.000Z</time>
      </trkpt>
      <trkpt lat="42.60611898265779018402099609375" lon="-6.818058304488658905029296875">
        <ele>538.20001220703125</ele>
        <time>2019-07-08T15:58:12.000Z</time>
      </trkpt>
      <trkpt lat="42.60634839534759521484375" lon="-6.81815209798514842987060546875">
        <ele>539</ele>
        <time>2019-07-08T15:58:13.000Z</time>
      </trkpt>
      <trkpt lat="42.60657839477062225341796875" lon="-6.818239353597164154052734375">
        <ele>540</ele>
        <time>2019-07-08T15:58:14.000Z</time>
      </trkpt>
      <trkpt lat="42.6070310175418853759765625" lon="-6.818406991660594940185546875">
        <ele>542</ele>
        <time>2019-07-08T15:58:16.000Z</time>
      </trkpt>
      <trkpt lat="42.6074670441448688507080078125" lon="-6.8185654096305370330810546875">
        <ele>543</ele>
        <time>2019-07-08T15:58:18.000Z</time>
      </trkpt>
      <trkpt lat="42.607908435165882110595703125" lon="-6.81871904991567134857177734375">
        <ele>545</ele>
        <time>2019-07-08T15:58:20.000Z</time>
      </trkpt>
      <trkpt lat="42.6112566702067852020263671875" lon="-6.820404231548309326171875">
        <ele>551.5999755859375</ele>
        <time>2019-07-08T15:58:36.000Z</time>
      </trkpt>
      <trkpt lat="42.61146294884383678436279296875" lon="-6.82050422765314579010009765625">
        <ele>552</ele>
        <time>2019-07-08T15:58:37.000Z</time>
      </trkpt>
      <trkpt lat="42.61188740842044353485107421875" lon="-6.8207792378962039947509765625">
        <ele>552.20001220703125</ele>
        <time>2019-07-08T15:58:39.000Z</time>
      </trkpt>
      <trkpt lat="42.6121003925800323486328125" lon="-6.82094377465546131134033203125">
        <ele>553.20001220703125</ele>
        <time>2019-07-08T15:58:40.000Z</time>
      </trkpt>
      <trkpt lat="42.6125287078320980072021484375" lon="-6.8212880194187164306640625">
        <ele>556</ele>
        <time>2019-07-08T15:58:42.000Z</time>
      </trkpt>
      <trkpt lat="42.6127409376204013824462890625" lon="-6.8214784562587738037109375">
        <ele>559</ele>
        <time>2019-07-08T15:58:43.000Z</time>
      </trkpt>
      <trkpt lat="42.61295107193291187286376953125" lon="-6.8216818012297153472900390625">
        <ele>561</ele>
        <time>2019-07-08T15:58:44.000Z</time>
      </trkpt>
      <trkpt lat="42.6131600327789783477783203125" lon="-6.82189294137060642242431640625">
        <ele>562.5999755859375</ele>
        <time>2019-07-08T15:58:45.000Z</time>
      </trkpt>
      <trkpt lat="42.61357233859598636627197265625" lon="-6.82234640233218669891357421875">
        <ele>563.4000244140625</ele>
        <time>2019-07-08T15:58:47.000Z</time>
      </trkpt>
      <trkpt lat="42.61377367191016674041748046875" lon="-6.8225915729999542236328125">
        <ele>564.20001220703125</ele>
        <time>2019-07-08T15:58:48.000Z</time>
      </trkpt>
      <trkpt lat="42.61416762135922908782958984375" lon="-6.82311116717755794525146484375">
        <ele>565</ele>
        <time>2019-07-08T15:58:50.000Z</time>
      </trkpt>
      <trkpt lat="42.61435705237090587615966796875" lon="-6.823386512696743011474609375">
        <ele>565.5999755859375</ele>
        <time>2019-07-08T15:58:51.000Z</time>
      </trkpt>
      <trkpt lat="42.61472166515886783599853515625" lon="-6.82395958341658115386962890625">
        <ele>567.5999755859375</ele>
        <time>2019-07-08T15:58:53.000Z</time>
      </trkpt>
      <trkpt lat="42.61489399708807468414306640625" lon="-6.824257560074329376220703125">
        <ele>569</ele>
        <time>2019-07-08T15:58:54.000Z</time>
      </trkpt>
      <trkpt lat="42.61505761183798313140869140625" lon="-6.82455855421721935272216796875">
        <ele>570.79998779296875</ele>
        <time>2019-07-08T15:58:55.000Z</time>
      </trkpt>
      <trkpt lat="42.61521183885633945465087890625" lon="-6.8248607218265533447265625">
        <ele>572.5999755859375</ele>
        <time>2019-07-08T15:58:56.000Z</time>
      </trkpt>
      <trkpt lat="42.61535600759088993072509765625" lon="-6.82516314089298248291015625">
        <ele>575.20001220703125</ele>
        <time>2019-07-08T15:58:57.000Z</time>
      </trkpt>
      <trkpt lat="42.61549481190741062164306640625" lon="-6.8254647217690944671630859375">
        <ele>576.79998779296875</ele>
        <time>2019-07-08T15:58:58.000Z</time>
      </trkpt>
      <trkpt lat="42.61576387099921703338623046875" lon="-6.82606662623584270477294921875">
        <ele>578.5999755859375</ele>
        <time>2019-07-08T15:59:00.000Z</time>
      </trkpt>
      <trkpt lat="42.61602454818785190582275390625" lon="-6.82667188346385955810546875">
        <ele>578.4000244140625</ele>
        <time>2019-07-08T15:59:02.000Z</time>
      </trkpt>
      <trkpt lat="42.61628665030002593994140625" lon="-6.82727479375898838043212890625">
        <ele>578.4000244140625</ele>
        <time>2019-07-08T15:59:04.000Z</time>
      </trkpt>
      <trkpt lat="42.61642218567430973052978515625" lon="-6.82757101021707057952880859375">
        <ele>579.79998779296875</ele>
        <time>2019-07-08T15:59:05.000Z</time>
      </trkpt>
      <trkpt lat="42.616563253104686737060546875" lon="-6.827862448990345001220703125">
        <ele>581.4000244140625</ele>
        <time>2019-07-08T15:59:06.000Z</time>
      </trkpt>
      <trkpt lat="42.61671035550534725189208984375" lon="-6.8281502835452556610107421875">
        <ele>582.5999755859375</ele>
        <time>2019-07-08T15:59:07.000Z</time>
      </trkpt>
      <trkpt lat="42.6170287840068340301513671875" lon="-6.8287142179906368255615234375">
        <ele>583</ele>
        <time>2019-07-08T15:59:09.000Z</time>
      </trkpt>
      <trkpt lat="42.6173855178058147430419921875" lon="-6.82924789376556873321533203125">
        <ele>583.20001220703125</ele>
        <time>2019-07-08T15:59:11.000Z</time>
      </trkpt>
      <trkpt lat="42.61777854524552822113037109375" lon="-6.829744018614292144775390625">
        <ele>583.5999755859375</ele>
        <time>2019-07-08T15:59:13.000Z</time>
      </trkpt>
      <trkpt lat="42.6182062737643718719482421875" lon="-6.830198653042316436767578125">
        <ele>583.79998779296875</ele>
        <time>2019-07-08T15:59:15.000Z</time>
      </trkpt>
      <trkpt lat="42.61865193955600261688232421875" lon="-6.830607689917087554931640625">
        <ele>583.79998779296875</ele>
        <time>2019-07-08T15:59:17.000Z</time>
      </trkpt>
      <trkpt lat="42.6188754849135875701904296875" lon="-6.8308044970035552978515625">
        <ele>581.79998779296875</ele>
        <time>2019-07-08T15:59:18.000Z</time>
      </trkpt>
      <trkpt lat="42.61909634806215763092041015625" lon="-6.8310014717280864715576171875">
        <ele>580.5999755859375</ele>
        <time>2019-07-08T15:59:19.000Z</time>
      </trkpt>
      <trkpt lat="42.6195316202938556671142578125" lon="-6.83140874840319156646728515625">
        <ele>576.5999755859375</ele>
        <time>2019-07-08T15:59:21.000Z</time>
      </trkpt>
      <trkpt lat="42.61994384229183197021484375" lon="-6.83185768313705921173095703125">
        <ele>578</ele>
        <time>2019-07-08T15:59:23.000Z</time>
      </trkpt>
      <trkpt lat="42.6203356124460697174072265625" lon="-6.8323529697954654693603515625">
        <ele>580.20001220703125</ele>
        <time>2019-07-08T15:59:25.000Z</time>
      </trkpt>
      <trkpt lat="42.62052210979163646697998046875" lon="-6.83262010104954242706298828125">
        <ele>581.5999755859375</ele>
        <time>2019-07-08T15:59:26.000Z</time>
      </trkpt>
      <trkpt lat="42.62069896794855594635009765625" lon="-6.83290123008191585540771484375">
        <ele>583.20001220703125</ele>
        <time>2019-07-08T15:59:27.000Z</time>
      </trkpt>
      <trkpt lat="42.6208670251071453094482421875" lon="-6.83319367468357086181640625">
        <ele>586.79998779296875</ele>
        <time>2019-07-08T15:59:28.000Z</time>
      </trkpt>
      <trkpt lat="42.6210272870957851409912109375" lon="-6.83349517174065113067626953125">
        <ele>591.4000244140625</ele>
        <time>2019-07-08T15:59:29.000Z</time>
      </trkpt>
      <trkpt lat="42.6211811788380146026611328125" lon="-6.8338037095963954925537109375">
        <ele>595.4000244140625</ele>
        <time>2019-07-08T15:59:30.000Z</time>
      </trkpt>
      <trkpt lat="42.62132710777223110198974609375" lon="-6.83412062935531139373779296875">
        <ele>597.4000244140625</ele>
        <time>2019-07-08T15:59:31.000Z</time>
      </trkpt>
      <trkpt lat="42.6215955801308155059814453125" lon="-6.8347793631255626678466796875">
        <ele>598.5999755859375</ele>
        <time>2019-07-08T15:59:33.000Z</time>
      </trkpt>
      <trkpt lat="42.6218319498002529144287109375" lon="-6.83545368723571300506591796875">
        <ele>598.20001220703125</ele>
        <time>2019-07-08T15:59:35.000Z</time>
      </trkpt>
      <trkpt lat="42.622037641704082489013671875" lon="-6.8361432664096355438232421875">
        <ele>597</ele>
        <time>2019-07-08T15:59:37.000Z</time>
      </trkpt>
      <trkpt lat="42.6222134940326213836669921875" lon="-6.83684189803898334503173828125">
        <ele>597.5999755859375</ele>
        <time>2019-07-08T15:59:39.000Z</time>
      </trkpt>
      <trkpt lat="42.6223613508045673370361328125" lon="-6.83754111640155315399169921875">
        <ele>598.4000244140625</ele>
        <time>2019-07-08T15:59:41.000Z</time>
      </trkpt>
      <trkpt lat="42.6225180923938751220703125" lon="-6.838228516280651092529296875">
        <ele>599.5999755859375</ele>
        <time>2019-07-08T15:59:43.000Z</time>
      </trkpt>
      <trkpt lat="42.62271749787032604217529296875" lon="-6.8388935364782810211181640625">
        <ele>599.5999755859375</ele>
        <time>2019-07-08T15:59:45.000Z</time>
      </trkpt>
      <trkpt lat="42.62295168824493885040283203125" lon="-6.83953441679477691650390625">
        <ele>598.79998779296875</ele>
        <time>2019-07-08T15:59:47.000Z</time>
      </trkpt>
      <trkpt lat="42.62307926081120967864990234375" lon="-6.83984748087823390960693359375">
        <ele>597.5999755859375</ele>
        <time>2019-07-08T15:59:48.000Z</time>
      </trkpt>
      <trkpt lat="42.623211443424224853515625" lon="-6.84015937149524688720703125">
        <ele>596.4000244140625</ele>
        <time>2019-07-08T15:59:49.000Z</time>
      </trkpt>
      <trkpt lat="42.623345889151096343994140625" lon="-6.84047159738838672637939453125">
        <ele>594.5999755859375</ele>
        <time>2019-07-08T15:59:50.000Z</time>
      </trkpt>
      <trkpt lat="42.62348142452538013458251953125" lon="-6.84078474529087543487548828125">
        <ele>592.4000244140625</ele>
        <time>2019-07-08T15:59:51.000Z</time>
      </trkpt>
      <trkpt lat="42.6236177980899810791015625" lon="-6.84109889902174472808837890625">
        <ele>590.20001220703125</ele>
        <time>2019-07-08T15:59:52.000Z</time>
      </trkpt>
      <trkpt lat="42.623754255473613739013671875" lon="-6.84141355566680431365966796875">
        <ele>588.4000244140625</ele>
        <time>2019-07-08T15:59:53.000Z</time>
      </trkpt>
      <trkpt lat="42.62389004230499267578125" lon="-6.84172837994992733001708984375">
        <ele>587.4000244140625</ele>
        <time>2019-07-08T15:59:54.000Z</time>
      </trkpt>
      <trkpt lat="42.6240254938602447509765625" lon="-6.84204387478530406951904296875">
        <ele>586.4000244140625</ele>
        <time>2019-07-08T15:59:55.000Z</time>
      </trkpt>
      <trkpt lat="42.62416035868227481842041015625" lon="-6.8423569388687610626220703125">
        <ele>584.79998779296875</ele>
        <time>2019-07-08T15:59:56.000Z</time>
      </trkpt>
      <trkpt lat="42.624295391142368316650390625" lon="-6.842666566371917724609375">
        <ele>582.79998779296875</ele>
        <time>2019-07-08T15:59:57.000Z</time>
      </trkpt>
      <trkpt lat="42.62443008832633495330810546875" lon="-6.8429741822183132171630859375">
        <ele>581.20001220703125</ele>
        <time>2019-07-08T15:59:58.000Z</time>
      </trkpt>
      <trkpt lat="42.62456419877707958221435546875" lon="-6.84328104369342327117919921875">
        <ele>580</ele>
        <time>2019-07-08T15:59:59.000Z</time>
      </trkpt>
      <trkpt lat="42.6248309947550296783447265625" lon="-6.8438901565968990325927734375">
        <ele>579</ele>
        <time>2019-07-08T16:00:01.000Z</time>
      </trkpt>
      <trkpt lat="42.62509728781878948211669921875" lon="-6.844500191509723663330078125">
        <ele>578.79998779296875</ele>
        <time>2019-07-08T16:00:03.000Z</time>
      </trkpt>
      <trkpt lat="42.62536056339740753173828125" lon="-6.8451113998889923095703125">
        <ele>579</ele>
        <time>2019-07-08T16:00:05.000Z</time>
      </trkpt>
      <trkpt lat="42.62562518008053302764892578125" lon="-6.84572068043053150177001953125">
        <ele>580.4000244140625</ele>
        <time>2019-07-08T16:00:07.000Z</time>
      </trkpt>
      <trkpt lat="42.62575895525515079498291015625" lon="-6.84602444060146808624267578125">
        <ele>581.79998779296875</ele>
        <time>2019-07-08T16:00:08.000Z</time>
      </trkpt>
      <trkpt lat="42.626038491725921630859375" lon="-6.84661972336471080780029296875">
        <ele>582.20001220703125</ele>
        <time>2019-07-08T16:00:10.000Z</time>
      </trkpt>
      <trkpt lat="42.6263464428484439849853515625" lon="-6.8471953086555004119873046875">
        <ele>581.79998779296875</ele>
        <time>2019-07-08T16:00:12.000Z</time>
      </trkpt>
      <trkpt lat="42.62668549083173274993896484375" lon="-6.84773870743811130523681640625">
        <ele>581.5999755859375</ele>
        <time>2019-07-08T16:00:14.000Z</time>
      </trkpt>
      <trkpt lat="42.62705747969448566436767578125" lon="-6.8482484109699726104736328125">
        <ele>581.5999755859375</ele>
        <time>2019-07-08T16:00:16.000Z</time>
      </trkpt>
      <trkpt lat="42.62745914049446582794189453125" lon="-6.8487245030701160430908203125">
        <ele>581.5999755859375</ele>
        <time>2019-07-08T16:00:18.000Z</time>
      </trkpt>
      <trkpt lat="42.627887539565563201904296875" lon="-6.84916111640632152557373046875">
        <ele>581.4000244140625</ele>
        <time>2019-07-08T16:00:20.000Z</time>
      </trkpt>
      <trkpt lat="42.6283386535942554473876953125" lon="-6.8495516292750835418701171875">
        <ele>581.4000244140625</ele>
        <time>2019-07-08T16:00:22.000Z</time>
      </trkpt>
      <trkpt lat="42.62880988419055938720703125" lon="-6.84988833032548427581787109375">
        <ele>582.4000244140625</ele>
        <time>2019-07-08T16:00:24.000Z</time>
      </trkpt>
      <trkpt lat="42.62929561547935009002685546875" lon="-6.85018203221261501312255859375">
        <ele>582.79998779296875</ele>
        <time>2019-07-08T16:00:26.000Z</time>
      </trkpt>
      <trkpt lat="42.6295443065464496612548828125" lon="-6.8503122031688690185546875">
        <ele>583.20001220703125</ele>
        <time>2019-07-08T16:00:27.000Z</time>
      </trkpt>
      <trkpt lat="42.63005535118281841278076171875" lon="-6.85053725726902484893798828125">
        <ele>584.79998779296875</ele>
        <time>2019-07-08T16:00:29.000Z</time>
      </trkpt>
      <trkpt lat="42.63057519681751728057861328125" lon="-6.85073959641158580780029296875">
        <ele>585.79998779296875</ele>
        <time>2019-07-08T16:00:31.000Z</time>
      </trkpt>
      <trkpt lat="42.63083620928227901458740234375" lon="-6.8508400954306125640869140625">
        <ele>586.20001220703125</ele>
        <time>2019-07-08T16:00:32.000Z</time>
      </trkpt>
      <trkpt lat="42.63135655783116817474365234375" lon="-6.85104603879153728485107421875">
        <ele>587</ele>
        <time>2019-07-08T16:00:34.000Z</time>
      </trkpt>
      <trkpt lat="42.63187388889491558074951171875" lon="-6.85124753974378108978271484375">
        <ele>586.5999755859375</ele>
        <time>2019-07-08T16:00:36.000Z</time>
      </trkpt>
      <trkpt lat="42.63238535262644290924072265625" lon="-6.85144610702991485595703125">
        <ele>586.79998779296875</ele>
        <time>2019-07-08T16:00:38.000Z</time>
      </trkpt>
      <trkpt lat="42.6326380670070648193359375" lon="-6.85154476203024387359619140625">
        <ele>587</ele>
        <time>2019-07-08T16:00:39.000Z</time>
      </trkpt>
      <trkpt lat="42.63288726098835468292236328125" lon="-6.8516434170305728912353515625">
        <ele>587.4000244140625</ele>
        <time>2019-07-08T16:00:40.000Z</time>
      </trkpt>
      <trkpt lat="42.63313218019902706146240234375" lon="-6.85174022801220417022705078125">
        <ele>588.4000244140625</ele>
        <time>2019-07-08T16:00:41.000Z</time>
      </trkpt>
      <trkpt lat="42.6336117088794708251953125" lon="-6.85192798264324665069580078125">
        <ele>590</ele>
        <time>2019-07-08T16:00:43.000Z</time>
      </trkpt>
      <trkpt lat="42.63409123755991458892822265625" lon="-6.85212068259716033935546875">
        <ele>590.79998779296875</ele>
        <time>2019-07-08T16:00:45.000Z</time>
      </trkpt>
      <trkpt lat="42.63433213345706462860107421875" lon="-6.8522194214165210723876953125">
        <ele>591</ele>
        <time>2019-07-08T16:00:46.000Z</time>
      </trkpt>
      <trkpt lat="42.63481794856488704681396484375" lon="-6.85242913663387298583984375">
        <ele>591</ele>
        <time>2019-07-08T16:00:48.000Z</time>
      </trkpt>
      <trkpt lat="42.6353127323091030120849609375" lon="-6.85267028398811817169189453125">
        <ele>592.5999755859375</ele>
        <time>2019-07-08T16:00:50.000Z</time>
      </trkpt>
      <trkpt lat="42.63555555604398250579833984375" lon="-6.85280506499111652374267578125">
        <ele>593.79998779296875</ele>
        <time>2019-07-08T16:00:51.000Z</time>
      </trkpt>
      <trkpt lat="42.63579360209405422210693359375" lon="-6.852950491011142730712890625">
        <ele>596.20001220703125</ele>
        <time>2019-07-08T16:00:52.000Z</time>
      </trkpt>
      <trkpt lat="42.6360298879444599151611328125" lon="-6.8531052209436893463134765625">
        <ele>597.4000244140625</ele>
        <time>2019-07-08T16:00:53.000Z</time>
      </trkpt>
      <trkpt lat="42.636498771607875823974609375" lon="-6.85344896279275417327880859375">
        <ele>598.5999755859375</ele>
        <time>2019-07-08T16:00:55.000Z</time>
      </trkpt>
      <trkpt lat="42.63695315457880496978759765625" lon="-6.8538446724414825439453125">
        <ele>598.5999755859375</ele>
        <time>2019-07-08T16:00:57.000Z</time>
      </trkpt>
      <trkpt lat="42.6371741853654384613037109375" lon="-6.85406100936233997344970703125">
        <ele>597.4000244140625</ele>
        <time>2019-07-08T16:00:58.000Z</time>
      </trkpt>
      <trkpt lat="42.6375973038375377655029296875" lon="-6.85452519915997982025146484375">
        <ele>596.79998779296875</ele>
        <time>2019-07-08T16:01:00.000Z</time>
      </trkpt>
      <trkpt lat="42.637974657118320465087890625" lon="-6.85503750108182430267333984375">
        <ele>597.79998779296875</ele>
        <time>2019-07-08T16:01:02.000Z</time>
      </trkpt>
      <trkpt lat="42.6383027248084545135498046875" lon="-6.85558986850082874298095703125">
        <ele>598</ele>
        <time>2019-07-08T16:01:04.000Z</time>
      </trkpt>
      <trkpt lat="42.63858385384082794189453125" lon="-6.8561740033328533172607421875">
        <ele>597.4000244140625</ele>
        <time>2019-07-08T16:01:06.000Z</time>
      </trkpt>
      <trkpt lat="42.638823576271533966064453125" lon="-6.85678294859826564788818359375">
        <ele>596.79998779296875</ele>
        <time>2019-07-08T16:01:08.000Z</time>
      </trkpt>
      <trkpt lat="42.63901677913963794708251953125" lon="-6.85740153305232524871826171875">
        <ele>597.79998779296875</ele>
        <time>2019-07-08T16:01:10.000Z</time>
      </trkpt>
      <trkpt lat="42.639093138277530670166015625" lon="-6.85770831070840358734130859375">
        <ele>599</ele>
        <time>2019-07-08T16:01:11.000Z</time>
      </trkpt>
      <trkpt lat="42.63916145078837871551513671875" lon="-6.85801793821156024932861328125">
        <ele>600.4000244140625</ele>
        <time>2019-07-08T16:01:12.000Z</time>
      </trkpt>
      <trkpt lat="42.6392223872244358062744140625" lon="-6.8583315052092075347900390625">
        <ele>601.4000244140625</ele>
        <time>2019-07-08T16:01:13.000Z</time>
      </trkpt>
      <trkpt lat="42.6393233053386211395263671875" lon="-6.85896693728864192962646484375">
        <ele>602</ele>
        <time>2019-07-08T16:01:15.000Z</time>
      </trkpt>
      <trkpt lat="42.63940729200839996337890625" lon="-6.85961469076573848724365234375">
        <ele>601</ele>
        <time>2019-07-08T16:01:17.000Z</time>
      </trkpt>
      <trkpt lat="42.63944693841040134429931640625" lon="-6.85994158498942852020263671875">
        <ele>600.4000244140625</ele>
        <time>2019-07-08T16:01:18.000Z</time>
      </trkpt>
      <trkpt lat="42.6394859142601490020751953125" lon="-6.86026965267956256866455078125">
        <ele>599</ele>
        <time>2019-07-08T16:01:19.000Z</time>
      </trkpt>
      <trkpt lat="42.63952262699604034423828125" lon="-6.86060006730258464813232421875">
        <ele>597.5999755859375</ele>
        <time>2019-07-08T16:01:20.000Z</time>
      </trkpt>
      <trkpt lat="42.6395955495536327362060546875" lon="-6.8612609803676605224609375">
        <ele>596.20001220703125</ele>
        <time>2019-07-08T16:01:22.000Z</time>
      </trkpt>
      <trkpt lat="42.6396659575402736663818359375" lon="-6.86192390508949756622314453125">
        <ele>595.79998779296875</ele>
        <time>2019-07-08T16:01:24.000Z</time>
      </trkpt>
      <trkpt lat="42.6397353596985340118408203125" lon="-6.86258397996425628662109375">
        <ele>596.5999755859375</ele>
        <time>2019-07-08T16:01:26.000Z</time>
      </trkpt>
      <trkpt lat="42.6397470943629741668701171875" lon="-6.86460410244762897491455078125">
        <ele>597.4000244140625</ele>
        <time>2019-07-08T16:01:32.000Z</time>
      </trkpt>
      <trkpt lat="42.63977668248116970062255859375" lon="-6.8652801029384136199951171875">
        <ele>597.4000244140625</ele>
        <time>2019-07-08T16:01:34.000Z</time>
      </trkpt>
      <trkpt lat="42.63981658034026622772216796875" lon="-6.8659540079534053802490234375">
        <ele>597.79998779296875</ele>
        <time>2019-07-08T16:01:36.000Z</time>
      </trkpt>
      <trkpt lat="42.63989352621138095855712890625" lon="-6.866635791957378387451171875">
        <ele>598.79998779296875</ele>
        <time>2019-07-08T16:01:38.000Z</time>
      </trkpt>
      <trkpt lat="42.6399496011435985565185546875" lon="-6.86697031371295452117919921875">
        <ele>600</ele>
        <time>2019-07-08T16:01:39.000Z</time>
      </trkpt>
      <trkpt lat="42.64002109877765178680419921875" lon="-6.86729854904115200042724609375">
        <ele>602.20001220703125</ele>
        <time>2019-07-08T16:01:40.000Z</time>
      </trkpt>
      <trkpt lat="42.64010692946612834930419921875" lon="-6.86761739663779735565185546875">
        <ele>604.5999755859375</ele>
        <time>2019-07-08T16:01:41.000Z</time>
      </trkpt>
      <trkpt lat="42.6402034051716327667236328125" lon="-6.867925263941287994384765625">
        <ele>605.79998779296875</ele>
        <time>2019-07-08T16:01:42.000Z</time>
      </trkpt>
      <trkpt lat="42.64041907154023647308349609375" lon="-6.8685175292193889617919921875">
        <ele>606.4000244140625</ele>
        <time>2019-07-08T16:01:44.000Z</time>
      </trkpt>
      <trkpt lat="42.64067354612052440643310546875" lon="-6.8690911866724491119384765625">
        <ele>604.4000244140625</ele>
        <time>2019-07-08T16:01:46.000Z</time>
      </trkpt>
      <trkpt lat="42.640982083976268768310546875" lon="-6.86965486966073513031005859375">
        <ele>603.4000244140625</ele>
        <time>2019-07-08T16:01:48.000Z</time>
      </trkpt>
      <trkpt lat="42.6413404941558837890625" lon="-6.8701979331672191619873046875">
        <ele>603.79998779296875</ele>
        <time>2019-07-08T16:01:50.000Z</time>
      </trkpt>
      <trkpt lat="42.64173352159559726715087890625" lon="-6.8707345426082611083984375">
        <ele>604.4000244140625</ele>
        <time>2019-07-08T16:01:52.000Z</time>
      </trkpt>
      <trkpt lat="42.64214582741260528564453125" lon="-6.8712795339524745941162109375">
        <ele>605.4000244140625</ele>
        <time>2019-07-08T16:01:54.000Z</time>
      </trkpt>
      <trkpt lat="42.64255763031542301177978515625" lon="-6.87183936126530170440673828125">
        <ele>607.4000244140625</ele>
        <time>2019-07-08T16:01:56.000Z</time>
      </trkpt>
      <trkpt lat="42.6427607238292694091796875" lon="-6.87212602235376834869384765625">
        <ele>608.79998779296875</ele>
        <time>2019-07-08T16:01:57.000Z</time>
      </trkpt>
      <trkpt lat="42.64296054840087890625" lon="-6.872415281832218170166015625">
        <ele>610.20001220703125</ele>
        <time>2019-07-08T16:01:58.000Z</time>
      </trkpt>
      <trkpt lat="42.64334938488900661468505859375" lon="-6.87300628982484340667724609375">
        <ele>611.4000244140625</ele>
        <time>2019-07-08T16:02:00.000Z</time>
      </trkpt>
      <trkpt lat="42.64372154138982295989990234375" lon="-6.87361649237573146820068359375">
        <ele>611.79998779296875</ele>
        <time>2019-07-08T16:02:02.000Z</time>
      </trkpt>
      <trkpt lat="42.64390401542186737060546875" lon="-6.8739268742501735687255859375">
        <ele>612.4000244140625</ele>
        <time>2019-07-08T16:02:03.000Z</time>
      </trkpt>
      <trkpt lat="42.6442615874111652374267578125" lon="-6.87455392442643642425537109375">
        <ele>612.5999755859375</ele>
        <time>2019-07-08T16:02:05.000Z</time>
      </trkpt>
      <trkpt lat="42.64459895901381969451904296875" lon="-6.87519572675228118896484375">
        <ele>612.5999755859375</ele>
        <time>2019-07-08T16:02:07.000Z</time>
      </trkpt>
      <trkpt lat="42.64491596259176731109619140625" lon="-6.87585580162703990936279296875">
        <ele>612.5999755859375</ele>
        <time>2019-07-08T16:02:09.000Z</time>
      </trkpt>
      <trkpt lat="42.64521419070661067962646484375" lon="-6.87653146684169769287109375">
        <ele>612.4000244140625</ele>
        <time>2019-07-08T16:02:11.000Z</time>
      </trkpt>
      <trkpt lat="42.6455019414424896240234375" lon="-6.87720830552279949188232421875">
        <ele>611.4000244140625</ele>
        <time>2019-07-08T16:02:13.000Z</time>
      </trkpt>
      <trkpt lat="42.64576957561075687408447265625" lon="-6.87789880670607089996337890625">
        <ele>612.20001220703125</ele>
        <time>2019-07-08T16:02:15.000Z</time>
      </trkpt>
      <trkpt lat="42.6458963938057422637939453125" lon="-6.87824615277349948883056640625">
        <ele>612.4000244140625</ele>
        <time>2019-07-08T16:02:16.000Z</time>
      </trkpt>
      <trkpt lat="42.64613301493227481842041015625" lon="-6.878940425813198089599609375">
        <ele>613.20001220703125</ele>
        <time>2019-07-08T16:02:18.000Z</time>
      </trkpt>
      <trkpt lat="42.64624281786382198333740234375" lon="-6.87928835861384868621826171875">
        <ele>613.5999755859375</ele>
        <time>2019-07-08T16:02:19.000Z</time>
      </trkpt>
      <trkpt lat="42.64644130133092403411865234375" lon="-6.8799936957657337188720703125">
        <ele>614.79998779296875</ele>
        <time>2019-07-08T16:02:21.000Z</time>
      </trkpt>
      <trkpt lat="42.646623440086841583251953125" lon="-6.88071445561945438385009765625">
        <ele>613.79998779296875</ele>
        <time>2019-07-08T16:02:23.000Z</time>
      </trkpt>
      <trkpt lat="42.646711952984333038330078125" lon="-6.88107605092227458953857421875">
        <ele>612.79998779296875</ele>
        <time>2019-07-08T16:02:24.000Z</time>
      </trkpt>
      <trkpt lat="42.64687933959066867828369140625" lon="-6.8817984871566295623779296875">
        <ele>612.4000244140625</ele>
        <time>2019-07-08T16:02:26.000Z</time>
      </trkpt>
      <trkpt lat="42.6470388472080230712890625" lon="-6.88251790590584278106689453125">
        <ele>611.4000244140625</ele>
        <time>2019-07-08T16:02:28.000Z</time>
      </trkpt>
      <trkpt lat="42.64719307422637939453125" lon="-6.88323489390313625335693359375">
        <ele>611.20001220703125</ele>
        <time>2019-07-08T16:02:30.000Z</time>
      </trkpt>
      <trkpt lat="42.64734973199665546417236328125" lon="-6.88394165597856044769287109375">
        <ele>612</ele>
        <time>2019-07-08T16:02:32.000Z</time>
      </trkpt>
      <trkpt lat="42.64751586131751537322998046875" lon="-6.8846476636826992034912109375">
        <ele>611.20001220703125</ele>
        <time>2019-07-08T16:02:34.000Z</time>
      </trkpt>
      <trkpt lat="42.647698335349559783935546875" lon="-6.88535769470036029815673828125">
        <ele>611</ele>
        <time>2019-07-08T16:02:36.000Z</time>
      </trkpt>
      <trkpt lat="42.64779145829379558563232421875" lon="-6.8857145123183727264404296875">
        <ele>610</ele>
        <time>2019-07-08T16:02:37.000Z</time>
      </trkpt>
      <trkpt lat="42.64789354987442493438720703125" lon="-6.8860678933560848236083984375">
        <ele>609</ele>
        <time>2019-07-08T16:02:38.000Z</time>
      </trkpt>
      <trkpt lat="42.64801139943301677703857421875" lon="-6.88641247339546680450439453125">
        <ele>608</ele>
        <time>2019-07-08T16:02:39.000Z</time>
      </trkpt>
      <trkpt lat="42.648144923150539398193359375" lon="-6.88674506731331348419189453125">
        <ele>606.79998779296875</ele>
        <time>2019-07-08T16:02:40.000Z</time>
      </trkpt>
      <trkpt lat="42.64844910241663455963134765625" lon="-6.8873761408030986785888671875">
        <ele>606</ele>
        <time>2019-07-08T16:02:42.000Z</time>
      </trkpt>
      <trkpt lat="42.648793347179889678955078125" lon="-6.8879668973386287689208984375">
        <ele>605.5999755859375</ele>
        <time>2019-07-08T16:02:44.000Z</time>
      </trkpt>
      <trkpt lat="42.64918218366801738739013671875" lon="-6.88850074075162410736083984375">
        <ele>605.5999755859375</ele>
        <time>2019-07-08T16:02:46.000Z</time>
      </trkpt>
      <trkpt lat="42.6496132649481296539306640625" lon="-6.88897213898599147796630859375">
        <ele>606.20001220703125</ele>
        <time>2019-07-08T16:02:48.000Z</time>
      </trkpt>
      <trkpt lat="42.6500782929360866546630859375" lon="-6.8893812596797943115234375">
        <ele>607.20001220703125</ele>
        <time>2019-07-08T16:02:50.000Z</time>
      </trkpt>
      <trkpt lat="42.65032161958515644073486328125" lon="-6.8895621411502361297607421875">
        <ele>608.4000244140625</ele>
        <time>2019-07-08T16:02:51.000Z</time>
      </trkpt>
      <trkpt lat="42.65057106502354145050048828125" lon="-6.8897260911762714385986328125">
        <ele>609.5999755859375</ele>
        <time>2019-07-08T16:02:52.000Z</time>
      </trkpt>
      <trkpt lat="42.6510898210108280181884765625" lon="-6.89000445418059825897216796875">
        <ele>610.4000244140625</ele>
        <time>2019-07-08T16:02:54.000Z</time>
      </trkpt>
      <trkpt lat="42.65162433497607707977294921875" lon="-6.89024166204035282135009765625">
        <ele>610.79998779296875</ele>
        <time>2019-07-08T16:02:56.000Z</time>
      </trkpt>
      <trkpt lat="42.6521559990942478179931640625" lon="-6.89048591069877147674560546875">
        <ele>610</ele>
        <time>2019-07-08T16:02:58.000Z</time>
      </trkpt>
      <trkpt lat="42.65241458080708980560302734375" lon="-6.89062387682497501373291015625">
        <ele>609.4000244140625</ele>
        <time>2019-07-08T16:02:59.000Z</time>
      </trkpt>
      <trkpt lat="42.6529140584170818328857421875" lon="-6.89094540663063526153564453125">
        <ele>609.79998779296875</ele>
        <time>2019-07-08T16:03:01.000Z</time>
      </trkpt>
      <trkpt lat="42.65338855795562267303466796875" lon="-6.891326867043972015380859375">
        <ele>610</ele>
        <time>2019-07-08T16:03:03.000Z</time>
      </trkpt>
      <trkpt lat="42.65383221209049224853515625" lon="-6.89175643958151340484619140625">
        <ele>611.4000244140625</ele>
        <time>2019-07-08T16:03:05.000Z</time>
      </trkpt>
      <trkpt lat="42.654041759669780731201171875" lon="-6.89198501408100128173828125">
        <ele>612.4000244140625</ele>
        <time>2019-07-08T16:03:06.000Z</time>
      </trkpt>
      <trkpt lat="42.65424334444105625152587890625" lon="-6.892224065959453582763671875">
        <ele>613.79998779296875</ele>
        <time>2019-07-08T16:03:07.000Z</time>
      </trkpt>
      <trkpt lat="42.6544348709285259246826171875" lon="-6.89247661270201206207275390625">
        <ele>615</ele>
        <time>2019-07-08T16:03:08.000Z</time>
      </trkpt>
      <trkpt lat="42.65461600385606288909912109375" lon="-6.89274273812770843505859375">
        <ele>616</ele>
        <time>2019-07-08T16:03:09.000Z</time>
      </trkpt>
      <trkpt lat="42.65494801104068756103515625" lon="-6.8932947702705860137939453125">
        <ele>618.5999755859375</ele>
        <time>2019-07-08T16:03:11.000Z</time>
      </trkpt>
      <trkpt lat="42.6551013998687267303466796875" lon="-6.893578581511974334716796875">
        <ele>620.79998779296875</ele>
        <time>2019-07-08T16:03:12.000Z</time>
      </trkpt>
      <trkpt lat="42.65524573624134063720703125" lon="-6.89386951737105846405029296875">
        <ele>622.4000244140625</ele>
        <time>2019-07-08T16:03:13.000Z</time>
      </trkpt>
      <trkpt lat="42.65538026578724384307861328125" lon="-6.894167326390743255615234375">
        <ele>624.20001220703125</ele>
        <time>2019-07-08T16:03:14.000Z</time>
      </trkpt>
      <trkpt lat="42.65550448559224605560302734375" lon="-6.89447318203747272491455078125">
        <ele>625.4000244140625</ele>
        <time>2019-07-08T16:03:15.000Z</time>
      </trkpt>
      <trkpt lat="42.655724175274372100830078125" lon="-6.895099394023418426513671875">
        <ele>626.5999755859375</ele>
        <time>2019-07-08T16:03:17.000Z</time>
      </trkpt>
      <trkpt lat="42.6559030450880527496337890625" lon="-6.89572644419968128204345703125">
        <ele>627.5999755859375</ele>
        <time>2019-07-08T16:03:19.000Z</time>
      </trkpt>
      <trkpt lat="42.6560401730239391326904296875" lon="-6.89634704031050205230712890625">
        <ele>629.4000244140625</ele>
        <time>2019-07-08T16:03:21.000Z</time>
      </trkpt>
      <trkpt lat="42.65609356574714183807373046875" lon="-6.89665473997592926025390625">
        <ele>630.4000244140625</ele>
        <time>2019-07-08T16:03:22.000Z</time>
      </trkpt>
      <trkpt lat="42.65613832511007785797119140625" lon="-6.8969606794416904449462890625">
        <ele>631.5999755859375</ele>
        <time>2019-07-08T16:03:23.000Z</time>
      </trkpt>
      <trkpt lat="42.6561744511127471923828125" lon="-6.89726536162197589874267578125">
        <ele>632.79998779296875</ele>
        <time>2019-07-08T16:03:24.000Z</time>
      </trkpt>
      <trkpt lat="42.6562021113932132720947265625" lon="-6.897571384906768798828125">
        <ele>633.79998779296875</ele>
        <time>2019-07-08T16:03:25.000Z</time>
      </trkpt>
      <trkpt lat="42.6562309451401233673095703125" lon="-6.89819424413144588470458984375">
        <ele>635</ele>
        <time>2019-07-08T16:03:27.000Z</time>
      </trkpt>
      <trkpt lat="42.65623069368302822113037109375" lon="-6.89882422797381877899169921875">
        <ele>636.20001220703125</ele>
        <time>2019-07-08T16:03:29.000Z</time>
      </trkpt>
      <trkpt lat="42.65622113831341266632080078125" lon="-6.8994568102061748504638671875">
        <ele>637.79998779296875</ele>
        <time>2019-07-08T16:03:31.000Z</time>
      </trkpt>
      <trkpt lat="42.656209655106067657470703125" lon="-6.9000978581607341766357421875">
        <ele>639.4000244140625</ele>
        <time>2019-07-08T16:03:33.000Z</time>
      </trkpt>
      <trkpt lat="42.65620722435414791107177734375" lon="-6.900421567261219024658203125">
        <ele>640.4000244140625</ele>
        <time>2019-07-08T16:03:34.000Z</time>
      </trkpt>
      <trkpt lat="42.65620839782059192657470703125" lon="-6.90074871294200420379638671875">
        <ele>641.5999755859375</ele>
        <time>2019-07-08T16:03:35.000Z</time>
      </trkpt>
      <trkpt lat="42.65621091239154338836669921875" lon="-6.901409626007080078125">
        <ele>643</ele>
        <time>2019-07-08T16:03:37.000Z</time>
      </trkpt>
      <trkpt lat="42.65625349245965480804443359375" lon="-6.9021111913025379180908203125">
        <ele>644</ele>
        <time>2019-07-08T16:03:39.000Z</time>
      </trkpt>
      <trkpt lat="42.6562125049531459808349609375" lon="-6.9027703441679477691650390625">
        <ele>645.4000244140625</ele>
        <time>2019-07-08T16:03:41.000Z</time>
      </trkpt>
      <trkpt lat="42.6562661491334438323974609375" lon="-6.90311752259731292724609375">
        <ele>646.5999755859375</ele>
        <time>2019-07-08T16:03:42.000Z</time>
      </trkpt>
      <trkpt lat="42.65618978999555110931396484375" lon="-6.903440393507480621337890625">
        <ele>648</ele>
        <time>2019-07-08T16:03:43.000Z</time>
      </trkpt>
      <trkpt lat="42.656162045896053314208984375" lon="-6.9040819443762302398681640625">
        <ele>649</ele>
        <time>2019-07-08T16:03:45.000Z</time>
      </trkpt>
      <trkpt lat="42.6561420969665050506591796875" lon="-6.90473665483295917510986328125">
        <ele>650</ele>
        <time>2019-07-08T16:03:47.000Z</time>
      </trkpt>
      <trkpt lat="42.6561263389885425567626953125" lon="-6.9054036028683185577392578125">
        <ele>649.79998779296875</ele>
        <time>2019-07-08T16:03:49.000Z</time>
      </trkpt>
      <trkpt lat="42.65613220632076263427734375" lon="-6.906076334416866302490234375">
        <ele>650</ele>
        <time>2019-07-08T16:03:51.000Z</time>
      </trkpt>
      <trkpt lat="42.65614855103194713592529296875" lon="-6.90641638822853565216064453125">
        <ele>650.4000244140625</ele>
        <time>2019-07-08T16:03:52.000Z</time>
      </trkpt>
      <trkpt lat="42.6562225632369518280029296875" lon="-6.90709616057574748992919921875">
        <ele>650.4000244140625</ele>
        <time>2019-07-08T16:03:54.000Z</time>
      </trkpt>
      <trkpt lat="42.6563516445457935333251953125" lon="-6.9077615998685359954833984375">
        <ele>650.5999755859375</ele>
        <time>2019-07-08T16:03:56.000Z</time>
      </trkpt>
      <trkpt lat="42.6565149240195751190185546875" lon="-6.9084150530397891998291015625">
        <ele>650</ele>
        <time>2019-07-08T16:03:58.000Z</time>
      </trkpt>
      <trkpt lat="42.65668901614844799041748046875" lon="-6.90906071104109287261962890625">
        <ele>649.5999755859375</ele>
        <time>2019-07-08T16:04:00.000Z</time>
      </trkpt>
      <trkpt lat="42.65677216462790966033935546875" lon="-6.90938316285610198974609375">
        <ele>649.20001220703125</ele>
        <time>2019-07-08T16:04:01.000Z</time>
      </trkpt>
      <trkpt lat="42.656915076076984405517578125" lon="-6.9100284017622470855712890625">
        <ele>648.5999755859375</ele>
        <time>2019-07-08T16:04:03.000Z</time>
      </trkpt>
      <trkpt lat="42.65697148628532886505126953125" lon="-6.9103539548814296722412109375">
        <ele>648.20001220703125</ele>
        <time>2019-07-08T16:04:04.000Z</time>
      </trkpt>
      <trkpt lat="42.65705865807831287384033203125" lon="-6.91100447438657283782958984375">
        <ele>647.79998779296875</ele>
        <time>2019-07-08T16:04:06.000Z</time>
      </trkpt>
      <trkpt lat="42.6571348495781421661376953125" lon="-6.91165574826300144195556640625">
        <ele>647.5999755859375</ele>
        <time>2019-07-08T16:04:08.000Z</time>
      </trkpt>
      <trkpt lat="42.6572236977517604827880859375" lon="-6.9123102910816669464111328125">
        <ele>647</ele>
        <time>2019-07-08T16:04:10.000Z</time>
      </trkpt>
      <trkpt lat="42.6573477499186992645263671875" lon="-6.91296248696744441986083984375">
        <ele>646</ele>
        <time>2019-07-08T16:04:12.000Z</time>
      </trkpt>
      <trkpt lat="42.65742578543722629547119140625" lon="-6.9132839329540729522705078125">
        <ele>645</ele>
        <time>2019-07-08T16:04:13.000Z</time>
      </trkpt>
      <trkpt lat="42.6576069183647632598876953125" lon="-6.91391735337674617767333984375">
        <ele>644</ele>
        <time>2019-07-08T16:04:15.000Z</time>
      </trkpt>
      <trkpt lat="42.65782468020915985107421875" lon="-6.914534009993076324462890625">
        <ele>644.20001220703125</ele>
        <time>2019-07-08T16:04:17.000Z</time>
      </trkpt>
      <trkpt lat="42.65807689167559146881103515625" lon="-6.91512870602309703826904296875">
        <ele>645.79998779296875</ele>
        <time>2019-07-08T16:04:19.000Z</time>
      </trkpt>
      <trkpt lat="42.6583411730825901031494140625" lon="-6.9157183729112148284912109375">
        <ele>646.79998779296875</ele>
        <time>2019-07-08T16:04:21.000Z</time>
      </trkpt>
      <trkpt lat="42.65859120525419712066650390625" lon="-6.91632530651986598968505859375">
        <ele>648.20001220703125</ele>
        <time>2019-07-08T16:04:23.000Z</time>
      </trkpt>
      <trkpt lat="42.65880242921411991119384765625" lon="-6.91696316935122013092041015625">
        <ele>649.5999755859375</ele>
        <time>2019-07-08T16:04:25.000Z</time>
      </trkpt>
      <trkpt lat="42.658889852464199066162109375" lon="-6.91729542799293994903564453125">
        <ele>651.20001220703125</ele>
        <time>2019-07-08T16:04:26.000Z</time>
      </trkpt>
      <trkpt lat="42.65896436758339405059814453125" lon="-6.9176329672336578369140625">
        <ele>653.4000244140625</ele>
        <time>2019-07-08T16:04:27.000Z</time>
      </trkpt>
      <trkpt lat="42.65903024934232234954833984375" lon="-6.91797603853046894073486328125">
        <ele>655.79998779296875</ele>
        <time>2019-07-08T16:04:28.000Z</time>
      </trkpt>
      <trkpt lat="42.6590864919126033782958984375" lon="-6.9183241389691829681396484375">
        <ele>657.5999755859375</ele>
        <time>2019-07-08T16:04:29.000Z</time>
      </trkpt>
      <trkpt lat="42.65916444361209869384765625" lon="-6.919037438929080963134765625">
        <ele>659</ele>
        <time>2019-07-08T16:04:31.000Z</time>
      </trkpt>
      <trkpt lat="42.65918699093163013458251953125" lon="-6.91976591013371944427490234375">
        <ele>659.4000244140625</ele>
        <time>2019-07-08T16:04:33.000Z</time>
      </trkpt>
      <trkpt lat="42.659170813858509063720703125" lon="-6.92049228586256504058837890625">
        <ele>651.4000244140625</ele>
        <time>2019-07-08T16:04:35.000Z</time>
      </trkpt>
      <trkpt lat="42.65916167758405208587646484375" lon="-6.92085270769894123077392578125">
        <ele>639</ele>
        <time>2019-07-08T16:04:36.000Z</time>
      </trkpt>
      <trkpt lat="42.659157402813434600830078125" lon="-6.92121296189725399017333984375">
        <ele>628.4000244140625</ele>
        <time>2019-07-08T16:04:37.000Z</time>
      </trkpt>
      <trkpt lat="42.6591624319553375244140625" lon="-6.92157086916267871856689453125">
        <ele>623.20001220703125</ele>
        <time>2019-07-08T16:04:38.000Z</time>
      </trkpt>
      <trkpt lat="42.65918078832328319549560546875" lon="-6.921926848590373992919921875">
        <ele>617.20001220703125</ele>
        <time>2019-07-08T16:04:39.000Z</time>
      </trkpt>
      <trkpt lat="42.65926192514598369598388671875" lon="-6.92263989709317684173583984375">
        <ele>619.79998779296875</ele>
        <time>2019-07-08T16:04:41.000Z</time>
      </trkpt>
      <trkpt lat="42.6593220233917236328125" lon="-6.92299948073923587799072265625">
        <ele>623.5999755859375</ele>
        <time>2019-07-08T16:04:42.000Z</time>
      </trkpt>
      <trkpt lat="42.65939553268253803253173828125" lon="-6.92335789091885089874267578125">
        <ele>625.4000244140625</ele>
        <time>2019-07-08T16:04:43.000Z</time>
      </trkpt>
      <trkpt lat="42.6594831235706806182861328125" lon="-6.92371227778494358062744140625">
        <ele>626.5999755859375</ele>
        <time>2019-07-08T16:04:44.000Z</time>
      </trkpt>
      <trkpt lat="42.65970432199537754058837890625" lon="-6.92440747283399105072021484375">
        <ele>630</ele>
        <time>2019-07-08T16:04:46.000Z</time>
      </trkpt>
      <trkpt lat="42.6598368398845195770263671875" lon="-6.92474576644599437713623046875">
        <ele>633.20001220703125</ele>
        <time>2019-07-08T16:04:47.000Z</time>
      </trkpt>
      <trkpt lat="42.659982182085514068603515625" lon="-6.9250766001641750335693359375">
        <ele>637.4000244140625</ele>
        <time>2019-07-08T16:04:48.000Z</time>
      </trkpt>
      <trkpt lat="42.66014168970286846160888671875" lon="-6.925398297607898712158203125">
        <ele>643</ele>
        <time>2019-07-08T16:04:49.000Z</time>
      </trkpt>
      <trkpt lat="42.6603139378130435943603515625" lon="-6.92571002058684825897216796875">
        <ele>648.79998779296875</ele>
        <time>2019-07-08T16:04:50.000Z</time>
      </trkpt>
      <trkpt lat="42.660499177873134613037109375" lon="-6.92601042799651622772216796875">
        <ele>653.4000244140625</ele>
        <time>2019-07-08T16:04:51.000Z</time>
      </trkpt>
      <trkpt lat="42.6606978289783000946044921875" lon="-6.926294825971126556396484375">
        <ele>656</ele>
        <time>2019-07-08T16:04:52.000Z</time>
      </trkpt>
      <trkpt lat="42.6609098911285400390625" lon="-6.92656145431101322174072265625">
        <ele>657.79998779296875</ele>
        <time>2019-07-08T16:04:53.000Z</time>
      </trkpt>
      <trkpt lat="42.66113326884806156158447265625" lon="-6.9268129952251911163330078125">
        <ele>659.20001220703125</ele>
        <time>2019-07-08T16:04:54.000Z</time>
      </trkpt>
      <trkpt lat="42.66136561520397663116455078125" lon="-6.92705481313169002532958984375">
        <ele>660.79998779296875</ele>
        <time>2019-07-08T16:04:55.000Z</time>
      </trkpt>
      <trkpt lat="42.66160533763468265533447265625" lon="-6.92728615365922451019287109375">
        <ele>662</ele>
        <time>2019-07-08T16:04:56.000Z</time>
      </trkpt>
      <trkpt lat="42.6618491671979427337646484375" lon="-6.92751095630228519439697265625">
        <ele>663.4000244140625</ele>
        <time>2019-07-08T16:04:57.000Z</time>
      </trkpt>
      <trkpt lat="42.6623346470296382904052734375" lon="-6.9279621541500091552734375">
        <ele>664.20001220703125</ele>
        <time>2019-07-08T16:04:59.000Z</time>
      </trkpt>
      <trkpt lat="42.66279037110507488250732421875" lon="-6.92843229509890079498291015625">
        <ele>661</ele>
        <time>2019-07-08T16:05:01.000Z</time>
      </trkpt>
      <trkpt lat="42.66300109215080738067626953125" lon="-6.928684674203395843505859375">
        <ele>657.20001220703125</ele>
        <time>2019-07-08T16:05:02.000Z</time>
      </trkpt>
      <trkpt lat="42.6631999947130680084228515625" lon="-6.928950212895870208740234375">
        <ele>655.4000244140625</ele>
        <time>2019-07-08T16:05:03.000Z</time>
      </trkpt>
      <trkpt lat="42.66356267966330051422119140625" lon="-6.92952093668282032012939453125">
        <ele>655.20001220703125</ele>
        <time>2019-07-08T16:05:05.000Z</time>
      </trkpt>
      <trkpt lat="42.6637273840606212615966796875" lon="-6.92982369102537631988525390625">
        <ele>661</ele>
        <time>2019-07-08T16:05:06.000Z</time>
      </trkpt>
      <trkpt lat="42.66388102434575557708740234375" lon="-6.9301372580230236053466796875">
        <ele>669.79998779296875</ele>
        <time>2019-07-08T16:05:07.000Z</time>
      </trkpt>
      <trkpt lat="42.66402192413806915283203125" lon="-6.930460967123508453369140625">
        <ele>676.79998779296875</ele>
        <time>2019-07-08T16:05:08.000Z</time>
      </trkpt>
      <trkpt lat="42.66414974816143512725830078125" lon="-6.9307933934032917022705078125">
        <ele>681.5999755859375</ele>
        <time>2019-07-08T16:05:09.000Z</time>
      </trkpt>
      <trkpt lat="42.664263658225536346435546875" lon="-6.9311333633959293365478515625">
        <ele>684.4000244140625</ele>
        <time>2019-07-08T16:05:10.000Z</time>
      </trkpt>
      <trkpt lat="42.66436398960649967193603515625" lon="-6.931480206549167633056640625">
        <ele>686.20001220703125</ele>
        <time>2019-07-08T16:05:11.000Z</time>
      </trkpt>
      <trkpt lat="42.664450742304325103759765625" lon="-6.93183325231075286865234375">
        <ele>687.4000244140625</ele>
        <time>2019-07-08T16:05:12.000Z</time>
      </trkpt>
      <trkpt lat="42.66458225436508655548095703125" lon="-6.93255401216447353363037109375">
        <ele>688.5999755859375</ele>
        <time>2019-07-08T16:05:14.000Z</time>
      </trkpt>
      <trkpt lat="42.66462852247059345245361328125" lon="-6.93292348645627498626708984375">
        <ele>689.79998779296875</ele>
        <time>2019-07-08T16:05:15.000Z</time>
      </trkpt>
      <trkpt lat="42.66466255299746990203857421875" lon="-6.93329648114740848541259765625">
        <ele>691</ele>
        <time>2019-07-08T16:05:16.000Z</time>
      </trkpt>
      <trkpt lat="42.66468367539346218109130859375" lon="-6.9336717389523983001708984375">
        <ele>692.79998779296875</ele>
        <time>2019-07-08T16:05:17.000Z</time>
      </trkpt>
      <trkpt lat="42.6646859385073184967041015625" lon="-6.93443038500845432281494140625">
        <ele>695.20001220703125</ele>
        <time>2019-07-08T16:05:19.000Z</time>
      </trkpt>
      <trkpt lat="42.66467361710965633392333984375" lon="-6.9348133541643619537353515625">
        <ele>696.5999755859375</ele>
        <time>2019-07-08T16:05:20.000Z</time>
      </trkpt>
      <trkpt lat="42.6646591164171695709228515625" lon="-6.93519808351993560791015625">
        <ele>698.20001220703125</ele>
        <time>2019-07-08T16:05:21.000Z</time>
      </trkpt>
      <trkpt lat="42.66464763320982456207275390625" lon="-6.93558163940906524658203125">
        <ele>699.79998779296875</ele>
        <time>2019-07-08T16:05:22.000Z</time>
      </trkpt>
      <trkpt lat="42.6646426878869533538818359375" lon="-6.93596075288951396942138671875">
        <ele>701.5999755859375</ele>
        <time>2019-07-08T16:05:23.000Z</time>
      </trkpt>
      <trkpt lat="42.66466573812067508697509765625" lon="-6.9366972707211971282958984375">
        <ele>702.79998779296875</ele>
        <time>2019-07-08T16:05:25.000Z</time>
      </trkpt>
      <trkpt lat="42.66474050469696521759033203125" lon="-6.937401853501796722412109375">
        <ele>704.20001220703125</ele>
        <time>2019-07-08T16:05:27.000Z</time>
      </trkpt>
      <trkpt lat="42.66487143002450466156005859375" lon="-6.9380901753902435302734375">
        <ele>705.4000244140625</ele>
        <time>2019-07-08T16:05:29.000Z</time>
      </trkpt>
      <trkpt lat="42.6650510542094707489013671875" lon="-6.93876483477652072906494140625">
        <ele>707.79998779296875</ele>
        <time>2019-07-08T16:05:31.000Z</time>
      </trkpt>
      <trkpt lat="42.66515993513166904449462890625" lon="-6.9390960037708282470703125">
        <ele>709.20001220703125</ele>
        <time>2019-07-08T16:05:32.000Z</time>
      </trkpt>
      <trkpt lat="42.66528214327991008758544921875" lon="-6.93942281417548656463623046875">
        <ele>710.5999755859375</ele>
        <time>2019-07-08T16:05:33.000Z</time>
      </trkpt>
      <trkpt lat="42.6654165051877498626708984375" lon="-6.93974618799984455108642578125">
        <ele>711.79998779296875</ele>
        <time>2019-07-08T16:05:34.000Z</time>
      </trkpt>
      <trkpt lat="42.66556109301745891571044921875" lon="-6.9400674663484096527099609375">
        <ele>713.4000244140625</ele>
        <time>2019-07-08T16:05:35.000Z</time>
      </trkpt>
      <trkpt lat="42.66571448184549808502197265625" lon="-6.94039058871567249298095703125">
        <ele>715.5999755859375</ele>
        <time>2019-07-08T16:05:36.000Z</time>
      </trkpt>
      <trkpt lat="42.66587340272963047027587890625" lon="-6.9407192431390285491943359375">
        <ele>716.79998779296875</ele>
        <time>2019-07-08T16:05:37.000Z</time>
      </trkpt>
      <trkpt lat="42.66619317233562469482421875" lon="-6.94139507599174976348876953125">
        <ele>716.79998779296875</ele>
        <time>2019-07-08T16:05:39.000Z</time>
      </trkpt>
      <trkpt lat="42.6663494110107421875" lon="-6.9417411647737026214599609375">
        <ele>712.5999755859375</ele>
        <time>2019-07-08T16:05:40.000Z</time>
      </trkpt>
      <trkpt lat="42.66650489531457424163818359375" lon="-6.94209136068820953369140625">
        <ele>710.79998779296875</ele>
        <time>2019-07-08T16:05:41.000Z</time>
      </trkpt>
      <trkpt lat="42.66681452281773090362548828125" lon="-6.94279720075428485870361328125">
        <ele>710.5999755859375</ele>
        <time>2019-07-08T16:05:43.000Z</time>
      </trkpt>
      <trkpt lat="42.66696589998900890350341796875" lon="-6.943154521286487579345703125">
        <ele>712.20001220703125</ele>
        <time>2019-07-08T16:05:44.000Z</time>
      </trkpt>
      <trkpt lat="42.6671153493225574493408203125" lon="-6.94351050071418285369873046875">
        <ele>718.5999755859375</ele>
        <time>2019-07-08T16:05:45.000Z</time>
      </trkpt>
      <trkpt lat="42.66726178117096424102783203125" lon="-6.9438648037612438201904296875">
        <ele>725.20001220703125</ele>
        <time>2019-07-08T16:05:46.000Z</time>
      </trkpt>
      <trkpt lat="42.66740393824875354766845703125" lon="-6.94421759806573390960693359375">
        <ele>729.20001220703125</ele>
        <time>2019-07-08T16:05:47.000Z</time>
      </trkpt>
      <trkpt lat="42.66754366457462310791015625" lon="-6.94456846453249454498291015625">
        <ele>730.5999755859375</ele>
        <time>2019-07-08T16:05:48.000Z</time>
      </trkpt>
      <trkpt lat="42.66768255271017551422119140625" lon="-6.94491748698055744171142578125">
        <ele>732</ele>
        <time>2019-07-08T16:05:49.000Z</time>
      </trkpt>
      <trkpt lat="42.66795429401099681854248046875" lon="-6.9456109218299388885498046875">
        <ele>734.79998779296875</ele>
        <time>2019-07-08T16:05:51.000Z</time>
      </trkpt>
      <trkpt lat="42.66808555461466312408447265625" lon="-6.94595583714544773101806640625">
        <ele>737.4000244140625</ele>
        <time>2019-07-08T16:05:52.000Z</time>
      </trkpt>
      <trkpt lat="42.66821153461933135986328125" lon="-6.94629882462322711944580078125">
        <ele>740.20001220703125</ele>
        <time>2019-07-08T16:05:53.000Z</time>
      </trkpt>
      <trkpt lat="42.66833399422466754913330078125" lon="-6.946640051901340484619140625">
        <ele>742.20001220703125</ele>
        <time>2019-07-08T16:05:54.000Z</time>
      </trkpt>
      <trkpt lat="42.66845435835421085357666015625" lon="-6.94698295556008815765380859375">
        <ele>743.4000244140625</ele>
        <time>2019-07-08T16:05:55.000Z</time>
      </trkpt>
      <trkpt lat="42.66857371665537357330322265625" lon="-6.94733046926558017730712890625">
        <ele>744.79998779296875</ele>
        <time>2019-07-08T16:05:56.000Z</time>
      </trkpt>
      <trkpt lat="42.66869089566171169281005859375" lon="-6.94768200628459453582763671875">
        <ele>746.20001220703125</ele>
        <time>2019-07-08T16:05:57.000Z</time>
      </trkpt>
      <trkpt lat="42.66880539245903491973876953125" lon="-6.9480384886264801025390625">
        <ele>747.79998779296875</ele>
        <time>2019-07-08T16:05:58.000Z</time>
      </trkpt>
      <trkpt lat="42.66891737468540668487548828125" lon="-6.94840393960475921630859375">
        <ele>749.5999755859375</ele>
        <time>2019-07-08T16:05:59.000Z</time>
      </trkpt>
      <trkpt lat="42.669023573398590087890625" lon="-6.94877768866717815399169921875">
        <ele>751.4000244140625</ele>
        <time>2019-07-08T16:06:00.000Z</time>
      </trkpt>
      <trkpt lat="42.66921392641961574554443359375" lon="-6.94954345934092998504638671875">
        <ele>752.5999755859375</ele>
        <time>2019-07-08T16:06:02.000Z</time>
      </trkpt>
      <trkpt lat="42.66937385313212871551513671875" lon="-6.9503198750317096710205078125">
        <ele>753.4000244140625</ele>
        <time>2019-07-08T16:06:04.000Z</time>
      </trkpt>
      <trkpt lat="42.66944593749940395355224609375" lon="-6.9507091306149959564208984375">
        <ele>755.4000244140625</ele>
        <time>2019-07-08T16:06:05.000Z</time>
      </trkpt>
      <trkpt lat="42.66951508820056915283203125" lon="-6.951099894940853118896484375">
        <ele>759</ele>
        <time>2019-07-08T16:06:06.000Z</time>
      </trkpt>
      <trkpt lat="42.669585160911083221435546875" lon="-6.95149107836186885833740234375">
        <ele>763.4000244140625</ele>
        <time>2019-07-08T16:06:07.000Z</time>
      </trkpt>
      <trkpt lat="42.66965297050774097442626953125" lon="-6.95188385434448719024658203125">
        <ele>766.4000244140625</ele>
        <time>2019-07-08T16:06:08.000Z</time>
      </trkpt>
      <trkpt lat="42.6697196066379547119140625" lon="-6.95227545686066150665283203125">
        <ele>768.4000244140625</ele>
        <time>2019-07-08T16:06:09.000Z</time>
      </trkpt>
      <trkpt lat="42.66985162161290645599365234375" lon="-6.95305581204593181610107421875">
        <ele>770.20001220703125</ele>
        <time>2019-07-08T16:06:11.000Z</time>
      </trkpt>
      <trkpt lat="42.66992521472275257110595703125" lon="-6.953444145619869232177734375">
        <ele>771.20001220703125</ele>
        <time>2019-07-08T16:06:12.000Z</time>
      </trkpt>
      <trkpt lat="42.67000970430672168731689453125" lon="-6.95382979698479175567626953125">
        <ele>772.20001220703125</ele>
        <time>2019-07-08T16:06:13.000Z</time>
      </trkpt>
      <trkpt lat="42.6701060123741626739501953125" lon="-6.9542107544839382171630859375">
        <ele>773.5999755859375</ele>
        <time>2019-07-08T16:06:14.000Z</time>
      </trkpt>
      <trkpt lat="42.67021539621055126190185546875" lon="-6.95458550937473773956298828125">
        <ele>775</ele>
        <time>2019-07-08T16:06:15.000Z</time>
      </trkpt>
      <trkpt lat="42.6704664342105388641357421875" lon="-6.955316998064517974853515625">
        <ele>777</ele>
        <time>2019-07-08T16:06:17.000Z</time>
      </trkpt>
      <trkpt lat="42.6706069149076938629150390625" lon="-6.9556728936731815338134765625">
        <ele>778.4000244140625</ele>
        <time>2019-07-08T16:06:18.000Z</time>
      </trkpt>
      <trkpt lat="42.6707571186125278472900390625" lon="-6.95601998828351497650146484375">
        <ele>779.4000244140625</ele>
        <time>2019-07-08T16:06:19.000Z</time>
      </trkpt>
      <trkpt lat="42.67091746442019939422607421875" lon="-6.9563571922481060028076171875">
        <ele>781</ele>
        <time>2019-07-08T16:06:20.000Z</time>
      </trkpt>
      <trkpt lat="42.67108862288296222686767578125" lon="-6.95668232627213001251220703125">
        <ele>782.79998779296875</ele>
        <time>2019-07-08T16:06:21.000Z</time>
      </trkpt>
      <trkpt lat="42.67127034254372119903564453125" lon="-6.9569928757846355438232421875">
        <ele>785.20001220703125</ele>
        <time>2019-07-08T16:06:22.000Z</time>
      </trkpt>
      <trkpt lat="42.67146237194538116455078125" lon="-6.95728749968111515045166015625">
        <ele>787.79998779296875</ele>
        <time>2019-07-08T16:06:23.000Z</time>
      </trkpt>
      <trkpt lat="42.67166412435472011566162109375" lon="-6.95756812579929828643798828125">
        <ele>790</ele>
        <time>2019-07-08T16:06:24.000Z</time>
      </trkpt>
      <trkpt lat="42.67187417484819889068603515625" lon="-6.95783567614853382110595703125">
        <ele>791.20001220703125</ele>
        <time>2019-07-08T16:06:25.000Z</time>
      </trkpt>
      <trkpt lat="42.672092020511627197265625" lon="-6.9580885581672191619873046875">
        <ele>792</ele>
        <time>2019-07-08T16:06:26.000Z</time>
      </trkpt>
      <trkpt lat="42.672317661345005035400390625" lon="-6.95832450874149799346923828125">
        <ele>792.79998779296875</ele>
        <time>2019-07-08T16:06:27.000Z</time>
      </trkpt>
      <trkpt lat="42.67278646118938922882080078125" lon="-6.95874595083296298980712890625">
        <ele>794.79998779296875</ele>
        <time>2019-07-08T16:06:29.000Z</time>
      </trkpt>
      <trkpt lat="42.6730294525623321533203125" lon="-6.9589415006339550018310546875">
        <ele>797</ele>
        <time>2019-07-08T16:06:30.000Z</time>
      </trkpt>
      <trkpt lat="42.67327311448752880096435546875" lon="-6.9591393135488033294677734375">
        <ele>799.20001220703125</ele>
        <time>2019-07-08T16:06:31.000Z</time>
      </trkpt>
      <trkpt lat="42.67351283691823482513427734375" lon="-6.9593465141952037811279296875">
        <ele>801</ele>
        <time>2019-07-08T16:06:32.000Z</time>
      </trkpt>
      <trkpt lat="42.67374836839735507965087890625" lon="-6.95956083945930004119873046875">
        <ele>802.5999755859375</ele>
        <time>2019-07-08T16:06:33.000Z</time>
      </trkpt>
      <trkpt lat="42.67420367337763309478759765625" lon="-6.96001254022121429443359375">
        <ele>804.20001220703125</ele>
        <time>2019-07-08T16:06:35.000Z</time>
      </trkpt>
      <trkpt lat="42.67442076466977596282958984375" lon="-6.96025704033672809600830078125">
        <ele>806.5999755859375</ele>
        <time>2019-07-08T16:06:36.000Z</time>
      </trkpt>
      <trkpt lat="42.6746319048106670379638671875" lon="-6.9605132751166820526123046875">
        <ele>808.5999755859375</ele>
        <time>2019-07-08T16:06:37.000Z</time>
      </trkpt>
      <trkpt lat="42.67483600415289402008056640625" lon="-6.96078308857977390289306640625">
        <ele>810.4000244140625</ele>
        <time>2019-07-08T16:06:38.000Z</time>
      </trkpt>
      <trkpt lat="42.67503012903034687042236328125" lon="-6.961068324744701385498046875">
        <ele>811.79998779296875</ele>
        <time>2019-07-08T16:06:39.000Z</time>
      </trkpt>
      <trkpt lat="42.6752115972340106964111328125" lon="-6.96136663667857646942138671875">
        <ele>813.4000244140625</ele>
        <time>2019-07-08T16:06:40.000Z</time>
      </trkpt>
      <trkpt lat="42.67554108984768390655517578125" lon="-6.9620002247393131256103515625">
        <ele>814.20001220703125</ele>
        <time>2019-07-08T16:06:42.000Z</time>
      </trkpt>
      <trkpt lat="42.6758214645087718963623046875" lon="-6.9626821763813495635986328125">
        <ele>814.79998779296875</ele>
        <time>2019-07-08T16:06:44.000Z</time>
      </trkpt>
      <trkpt lat="42.67605540342628955841064453125" lon="-6.963404528796672821044921875">
        <ele>815.79998779296875</ele>
        <time>2019-07-08T16:06:46.000Z</time>
      </trkpt>
      <trkpt lat="42.67623460851609706878662109375" lon="-6.96415848098695278167724609375">
        <ele>816.20001220703125</ele>
        <time>2019-07-08T16:06:48.000Z</time>
      </trkpt>
      <trkpt lat="42.6763062737882137298583984375" lon="-6.9645446352660655975341796875">
        <ele>817.4000244140625</ele>
        <time>2019-07-08T16:06:49.000Z</time>
      </trkpt>
      <trkpt lat="42.676409371197223663330078125" lon="-6.965324319899082183837890625">
        <ele>819.5999755859375</ele>
        <time>2019-07-08T16:06:51.000Z</time>
      </trkpt>
      <trkpt lat="42.67643946222960948944091796875" lon="-6.96571382693946361541748046875">
        <ele>821.20001220703125</ele>
        <time>2019-07-08T16:06:52.000Z</time>
      </trkpt>
      <trkpt lat="42.67645471729338169097900390625" lon="-6.9661004841327667236328125">
        <ele>822.4000244140625</ele>
        <time>2019-07-08T16:06:53.000Z</time>
      </trkpt>
      <trkpt lat="42.67645689658820629119873046875" lon="-6.96648412384092807769775390625">
        <ele>824.4000244140625</ele>
        <time>2019-07-08T16:06:54.000Z</time>
      </trkpt>
      <trkpt lat="42.67644734121859073638916015625" lon="-6.966863907873630523681640625">
        <ele>826.79998779296875</ele>
        <time>2019-07-08T16:06:55.000Z</time>
      </trkpt>
      <trkpt lat="42.6764263026416301727294921875" lon="-6.9672379083931446075439453125">
        <ele>830.20001220703125</ele>
        <time>2019-07-08T16:06:56.000Z</time>
      </trkpt>
      <trkpt lat="42.67639386467635631561279296875" lon="-6.96760595776140689849853515625">
        <ele>832.5999755859375</ele>
        <time>2019-07-08T16:06:57.000Z</time>
      </trkpt>
      <trkpt lat="42.6763501949608325958251953125" lon="-6.96796721778810024261474609375">
        <ele>834.20001220703125</ele>
        <time>2019-07-08T16:06:58.000Z</time>
      </trkpt>
      <trkpt lat="42.67622371204197406768798828125" lon="-6.9686685316264629364013671875">
        <ele>836</ele>
        <time>2019-07-08T16:07:00.000Z</time>
      </trkpt>
      <trkpt lat="42.67614550888538360595703125" lon="-6.969012357294559478759765625">
        <ele>837.4000244140625</ele>
        <time>2019-07-08T16:07:01.000Z</time>
      </trkpt>
      <trkpt lat="42.67605976201593875885009765625" lon="-6.96935090236365795135498046875">
        <ele>838.4000244140625</ele>
        <time>2019-07-08T16:07:02.000Z</time>
      </trkpt>
      <trkpt lat="42.6759689860045909881591796875" lon="-6.969687603414058685302734375">
        <ele>839.79998779296875</ele>
        <time>2019-07-08T16:07:03.000Z</time>
      </trkpt>
      <trkpt lat="42.675771005451679229736328125" lon="-6.970358155667781829833984375">
        <ele>841</ele>
        <time>2019-07-08T16:07:05.000Z</time>
      </trkpt>
      <trkpt lat="42.67556623555719852447509765625" lon="-6.9710359163582324981689453125">
        <ele>841.79998779296875</ele>
        <time>2019-07-08T16:07:07.000Z</time>
      </trkpt>
      <trkpt lat="42.6754729449748992919921875" lon="-6.9713822565972805023193359375">
        <ele>842.20001220703125</ele>
        <time>2019-07-08T16:07:08.000Z</time>
      </trkpt>
      <trkpt lat="42.675390131771564483642578125" lon="-6.97173823602497577667236328125">
        <ele>843.4000244140625</ele>
        <time>2019-07-08T16:07:09.000Z</time>
      </trkpt>
      <trkpt lat="42.67531871795654296875" lon="-6.9721031002700328826904296875">
        <ele>844.79998779296875</ele>
        <time>2019-07-08T16:07:10.000Z</time>
      </trkpt>
      <trkpt lat="42.67525903880596160888671875" lon="-6.97247584350407123565673828125">
        <ele>846.5999755859375</ele>
        <time>2019-07-08T16:07:11.000Z</time>
      </trkpt>
      <trkpt lat="42.67518259584903717041015625" lon="-6.97324521839618682861328125">
        <ele>848.20001220703125</ele>
        <time>2019-07-08T16:07:13.000Z</time>
      </trkpt>
      <trkpt lat="42.67516876570880413055419921875" lon="-6.9740332849323749542236328125">
        <ele>850</ele>
        <time>2019-07-08T16:07:15.000Z</time>
      </trkpt>
      <trkpt lat="42.67518636770546436309814453125" lon="-6.974429748952388763427734375">
        <ele>853</ele>
        <time>2019-07-08T16:07:16.000Z</time>
      </trkpt>
      <trkpt lat="42.67522157169878482818603515625" lon="-6.97482512332499027252197265625">
        <ele>854.79998779296875</ele>
        <time>2019-07-08T16:07:17.000Z</time>
      </trkpt>
      <trkpt lat="42.67527286894619464874267578125" lon="-6.975218318402767181396484375">
        <ele>858.4000244140625</ele>
        <time>2019-07-08T16:07:18.000Z</time>
      </trkpt>
      <trkpt lat="42.675340175628662109375" lon="-6.9756070710718631744384765625">
        <ele>861.5999755859375</ele>
        <time>2019-07-08T16:07:19.000Z</time>
      </trkpt>
      <trkpt lat="42.6754231564700603485107421875" lon="-6.975988112390041351318359375">
        <ele>863.5999755859375</ele>
        <time>2019-07-08T16:07:20.000Z</time>
      </trkpt>
      <trkpt lat="42.67552013508975505828857421875" lon="-6.976360939443111419677734375">
        <ele>865</ele>
        <time>2019-07-08T16:07:21.000Z</time>
      </trkpt>
      <trkpt lat="42.6756303571164608001708984375" lon="-6.976723037660121917724609375">
        <ele>867</ele>
        <time>2019-07-08T16:07:22.000Z</time>
      </trkpt>
      <trkpt lat="42.67575390636920928955078125" lon="-6.97707348503172397613525390625">
        <ele>868.79998779296875</ele>
        <time>2019-07-08T16:07:23.000Z</time>
      </trkpt>
      <trkpt lat="42.6758908666670322418212890625" lon="-6.9774128682911396026611328125">
        <ele>871</ele>
        <time>2019-07-08T16:07:24.000Z</time>
      </trkpt>
      <trkpt lat="42.67603964544832706451416015625" lon="-6.97774252854287624359130859375">
        <ele>872.5999755859375</ele>
        <time>2019-07-08T16:07:25.000Z</time>
      </trkpt>
      <trkpt lat="42.67619856633245944976806640625" lon="-6.97806489653885364532470703125">
        <ele>873.79998779296875</ele>
        <time>2019-07-08T16:07:26.000Z</time>
      </trkpt>
      <trkpt lat="42.6765297353267669677734375" lon="-6.9787050224840641021728515625">
        <ele>875.79998779296875</ele>
        <time>2019-07-08T16:07:28.000Z</time>
      </trkpt>
      <trkpt lat="42.67669670283794403076171875" lon="-6.9790260493755340576171875">
        <ele>877.5999755859375</ele>
        <time>2019-07-08T16:07:29.000Z</time>
      </trkpt>
      <trkpt lat="42.67702125012874603271484375" lon="-6.9796816818416118621826171875">
        <ele>878.5999755859375</ele>
        <time>2019-07-08T16:07:31.000Z</time>
      </trkpt>
      <trkpt lat="42.67717891372740268707275390625" lon="-6.98001737706363201141357421875">
        <ele>879.4000244140625</ele>
        <time>2019-07-08T16:07:32.000Z</time>
      </trkpt>
      <trkpt lat="42.67747881822288036346435546875" lon="-6.980707459151744842529296875">
        <ele>881.20001220703125</ele>
        <time>2019-07-08T16:07:34.000Z</time>
      </trkpt>
      <trkpt lat="42.677617035806179046630859375" lon="-6.9810645282268524169921875">
        <ele>882.20001220703125</ele>
        <time>2019-07-08T16:07:35.000Z</time>
      </trkpt>
      <trkpt lat="42.6777493022382259368896484375" lon="-6.98142704553902149200439453125">
        <ele>883.4000244140625</ele>
        <time>2019-07-08T16:07:36.000Z</time>
      </trkpt>
      <trkpt lat="42.67787913791835308074951171875" lon="-6.98179249651730060577392578125">
        <ele>884.79998779296875</ele>
        <time>2019-07-08T16:07:37.000Z</time>
      </trkpt>
      <trkpt lat="42.6781412400305271148681640625" lon="-6.98251350782811641693115234375">
        <ele>886.4000244140625</ele>
        <time>2019-07-08T16:07:39.000Z</time>
      </trkpt>
      <trkpt lat="42.67827451229095458984375" lon="-6.98286588303744792938232421875">
        <ele>888</ele>
        <time>2019-07-08T16:07:40.000Z</time>
      </trkpt>
      <trkpt lat="42.67841507680714130401611328125" lon="-6.98321021161973476409912109375">
        <ele>890</ele>
        <time>2019-07-08T16:07:41.000Z</time>
      </trkpt>
      <trkpt lat="42.67872847616672515869140625" lon="-6.9838676042854785919189453125">
        <ele>892.79998779296875</ele>
        <time>2019-07-08T16:07:43.000Z</time>
      </trkpt>
      <trkpt lat="42.6788979582488536834716796875" lon="-6.9841807521879673004150390625">
        <ele>894.5999755859375</ele>
        <time>2019-07-08T16:07:44.000Z</time>
      </trkpt>
      <trkpt lat="42.67907573841512203216552734375" lon="-6.98448342271149158477783203125">
        <ele>896.4000244140625</ele>
        <time>2019-07-08T16:07:45.000Z</time>
      </trkpt>
      <trkpt lat="42.67926382832229137420654296875" lon="-6.984772346913814544677734375">
        <ele>897.79998779296875</ele>
        <time>2019-07-08T16:07:46.000Z</time>
      </trkpt>
      <trkpt lat="42.67966917715966701507568359375" lon="-6.98530434630811214447021484375">
        <ele>899.79998779296875</ele>
        <time>2019-07-08T16:07:48.000Z</time>
      </trkpt>
      <trkpt lat="42.67988450825214385986328125" lon="-6.98554742150008678436279296875">
        <ele>901.4000244140625</ele>
        <time>2019-07-08T16:07:49.000Z</time>
      </trkpt>
      <trkpt lat="42.680112160742282867431640625" lon="-6.9857763312757015228271484375">
        <ele>903.20001220703125</ele>
        <time>2019-07-08T16:07:50.000Z</time>
      </trkpt>
      <trkpt lat="42.68034995533525943756103515625" lon="-6.9859895668923854827880859375">
        <ele>905.4000244140625</ele>
        <time>2019-07-08T16:07:51.000Z</time>
      </trkpt>
      <trkpt lat="42.6805951260030269622802734375" lon="-6.986185200512409210205078125">
        <ele>907.20001220703125</ele>
        <time>2019-07-08T16:07:52.000Z</time>
      </trkpt>
      <trkpt lat="42.68084867857396602630615234375" lon="-6.98636264540255069732666015625">
        <ele>908.79998779296875</ele>
        <time>2019-07-08T16:07:53.000Z</time>
      </trkpt>
      <trkpt lat="42.68138344399631023406982421875" lon="-6.986659951508045196533203125">
        <ele>909.20001220703125</ele>
        <time>2019-07-08T16:07:55.000Z</time>
      </trkpt>
      <trkpt lat="42.68166407011449337005615234375" lon="-6.98678257875144481658935546875">
        <ele>910.4000244140625</ele>
        <time>2019-07-08T16:07:56.000Z</time>
      </trkpt>
      <trkpt lat="42.68195115029811859130859375" lon="-6.986884586513042449951171875">
        <ele>912</ele>
        <time>2019-07-08T16:07:57.000Z</time>
      </trkpt>
      <trkpt lat="42.68253545276820659637451171875" lon="-6.9870198704302310943603515625">
        <ele>914</ele>
        <time>2019-07-08T16:07:59.000Z</time>
      </trkpt>
      <trkpt lat="42.6828263886272907257080078125" lon="-6.987053565680980682373046875">
        <ele>915.5999755859375</ele>
        <time>2019-07-08T16:08:00.000Z</time>
      </trkpt>
      <trkpt lat="42.68311648629605770111083984375" lon="-6.98706789873540401458740234375">
        <ele>918</ele>
        <time>2019-07-08T16:08:01.000Z</time>
      </trkpt>
      <trkpt lat="42.68340599723160266876220703125" lon="-6.98706588707864284515380859375">
        <ele>920</ele>
        <time>2019-07-08T16:08:02.000Z</time>
      </trkpt>
      <trkpt lat="42.68369483761489391326904296875" lon="-6.98705725371837615966796875">
        <ele>921</ele>
        <time>2019-07-08T16:08:03.000Z</time>
      </trkpt>
      <trkpt lat="42.68398434855043888092041015625" lon="-6.9870463572442531585693359375">
        <ele>922.20001220703125</ele>
        <time>2019-07-08T16:08:04.000Z</time>
      </trkpt>
      <trkpt lat="42.68456353805959224700927734375" lon="-6.9870319403707981109619140625">
        <ele>923.4000244140625</ele>
        <time>2019-07-08T16:08:06.000Z</time>
      </trkpt>
      <trkpt lat="42.68513920716941356658935546875" lon="-6.98705147020518779754638671875">
        <ele>924.20001220703125</ele>
        <time>2019-07-08T16:08:08.000Z</time>
      </trkpt>
      <trkpt lat="42.685425616800785064697265625" lon="-6.987076364457607269287109375">
        <ele>925</ele>
        <time>2019-07-08T16:08:09.000Z</time>
      </trkpt>
      <trkpt lat="42.6857100985944271087646484375" lon="-6.98711131699383258819580078125">
        <ele>926.20001220703125</ele>
        <time>2019-07-08T16:08:10.000Z</time>
      </trkpt>
      <trkpt lat="42.68627160228788852691650390625" lon="-6.98721189983189105987548828125">
        <ele>927</ele>
        <time>2019-07-08T16:08:12.000Z</time>
      </trkpt>
      <trkpt lat="42.68682698719203472137451171875" lon="-6.98735103942453861236572265625">
        <ele>926.79998779296875</ele>
        <time>2019-07-08T16:08:14.000Z</time>
      </trkpt>
      <trkpt lat="42.687104009091854095458984375" lon="-6.98743418790400028228759765625">
        <ele>927.20001220703125</ele>
        <time>2019-07-08T16:08:15.000Z</time>
      </trkpt>
      <trkpt lat="42.6876597292721271514892578125" lon="-6.98762479238212108612060546875">
        <ele>928.4000244140625</ele>
        <time>2019-07-08T16:08:17.000Z</time>
      </trkpt>
      <trkpt lat="42.68821938894689083099365234375" lon="-6.98785143904387950897216796875">
        <ele>931.4000244140625</ele>
        <time>2019-07-08T16:08:19.000Z</time>
      </trkpt>
      <trkpt lat="42.6885002665221691131591796875" lon="-6.9879811070859432220458984375">
        <ele>934.20001220703125</ele>
        <time>2019-07-08T16:08:20.000Z</time>
      </trkpt>
      <trkpt lat="42.688782401382923126220703125" lon="-6.988120414316654205322265625">
        <ele>937.4000244140625</ele>
        <time>2019-07-08T16:08:21.000Z</time>
      </trkpt>
      <trkpt lat="42.68906361423432826995849609375" lon="-6.98827095329761505126953125">
        <ele>939</ele>
        <time>2019-07-08T16:08:22.000Z</time>
      </trkpt>
      <trkpt lat="42.68934239633381366729736328125" lon="-6.98843196965754032135009765625">
        <ele>940.20001220703125</ele>
        <time>2019-07-08T16:08:23.000Z</time>
      </trkpt>
      <trkpt lat="42.68961765803396701812744140625" lon="-6.988600194454193115234375">
        <ele>941.4000244140625</ele>
        <time>2019-07-08T16:08:24.000Z</time>
      </trkpt>
      <trkpt lat="42.6898893155157566070556640625" lon="-6.9887713529169559478759765625">
        <ele>942.5999755859375</ele>
        <time>2019-07-08T16:08:25.000Z</time>
      </trkpt>
      <trkpt lat="42.69015762023627758026123046875" lon="-6.98895097710192203521728515625">
        <ele>943.79998779296875</ele>
        <time>2019-07-08T16:08:26.000Z</time>
      </trkpt>
      <trkpt lat="42.69042097963392734527587890625" lon="-6.9891393184661865234375">
        <ele>945</ele>
        <time>2019-07-08T16:08:27.000Z</time>
      </trkpt>
      <trkpt lat="42.69093923270702362060546875" lon="-6.98953469283878803253173828125">
        <ele>946</ele>
        <time>2019-07-08T16:08:29.000Z</time>
      </trkpt>
      <trkpt lat="42.691441811621189117431640625" lon="-6.98996200226247310638427734375">
        <ele>947.5999755859375</ele>
        <time>2019-07-08T16:08:31.000Z</time>
      </trkpt>
      <trkpt lat="42.6919251121580600738525390625" lon="-6.9904155470430850982666015625">
        <ele>949.4000244140625</ele>
        <time>2019-07-08T16:08:33.000Z</time>
      </trkpt>
      <trkpt lat="42.6921608112752437591552734375" lon="-6.99065032415091991424560546875">
        <ele>951.4000244140625</ele>
        <time>2019-07-08T16:08:34.000Z</time>
      </trkpt>
      <trkpt lat="42.69239122979342937469482421875" lon="-6.99089105241000652313232421875">
        <ele>953.20001220703125</ele>
        <time>2019-07-08T16:08:35.000Z</time>
      </trkpt>
      <trkpt lat="42.6926177926361560821533203125" lon="-6.99113915674388408660888671875">
        <ele>955</ele>
        <time>2019-07-08T16:08:36.000Z</time>
      </trkpt>
      <trkpt lat="42.69284217618405818939208984375" lon="-6.991394050419330596923828125">
        <ele>957</ele>
        <time>2019-07-08T16:08:37.000Z</time>
      </trkpt>
      <trkpt lat="42.69306580536067485809326171875" lon="-6.9916537217795848846435546875">
        <ele>959.20001220703125</ele>
        <time>2019-07-08T16:08:38.000Z</time>
      </trkpt>
      <trkpt lat="42.693513818085193634033203125" lon="-6.992184631526470184326171875">
        <ele>960.4000244140625</ele>
        <time>2019-07-08T16:08:40.000Z</time>
      </trkpt>
      <trkpt lat="42.69396887160837650299072265625" lon="-6.9927215762436389923095703125">
        <ele>960.4000244140625</ele>
        <time>2019-07-08T16:08:42.000Z</time>
      </trkpt>
      <trkpt lat="42.6944256015121936798095703125" lon="-6.993266902863979339599609375">
        <ele>962.20001220703125</ele>
        <time>2019-07-08T16:08:44.000Z</time>
      </trkpt>
      <trkpt lat="42.6948867738246917724609375" lon="-6.993807367980480194091796875">
        <ele>963.79998779296875</ele>
        <time>2019-07-08T16:08:46.000Z</time>
      </trkpt>
      <trkpt lat="42.69535121507942676544189453125" lon="-6.994322352111339569091796875">
        <ele>963.5999755859375</ele>
        <time>2019-07-08T16:08:48.000Z</time>
      </trkpt>
      <trkpt lat="42.69582060165703296661376953125" lon="-6.994809843599796295166015625">
        <ele>963.5999755859375</ele>
        <time>2019-07-08T16:08:50.000Z</time>
      </trkpt>
      <trkpt lat="42.69629803486168384552001953125" lon="-6.99527160264551639556884765625">
        <ele>963.79998779296875</ele>
        <time>2019-07-08T16:08:52.000Z</time>
      </trkpt>
      <trkpt lat="42.69678887911140918731689453125" lon="-6.99570712633430957794189453125">
        <ele>965</ele>
        <time>2019-07-08T16:08:54.000Z</time>
      </trkpt>
      <trkpt lat="42.69703715108335018157958984375" lon="-6.9959214515984058380126953125">
        <ele>966</ele>
        <time>2019-07-08T16:08:55.000Z</time>
      </trkpt>
      <trkpt lat="42.697285003960132598876953125" lon="-6.9961366988718509674072265625">
        <ele>967.5999755859375</ele>
        <time>2019-07-08T16:08:56.000Z</time>
      </trkpt>
      <trkpt lat="42.69753436557948589324951171875" lon="-6.996352113783359527587890625">
        <ele>969</ele>
        <time>2019-07-08T16:08:57.000Z</time>
      </trkpt>
      <trkpt lat="42.6977862417697906494140625" lon="-6.99656509794294834136962890625">
        <ele>970.4000244140625</ele>
        <time>2019-07-08T16:08:58.000Z</time>
      </trkpt>
      <trkpt lat="42.69804063253104686737060546875" lon="-6.9967733882367610931396484375">
        <ele>971.4000244140625</ele>
        <time>2019-07-08T16:08:59.000Z</time>
      </trkpt>
      <trkpt lat="42.69829711876809597015380859375" lon="-6.9969789125025272369384765625">
        <ele>972.5999755859375</ele>
        <time>2019-07-08T16:09:00.000Z</time>
      </trkpt>
      <trkpt lat="42.698813863098621368408203125" lon="-6.9973792321979999542236328125">
        <ele>973.79998779296875</ele>
        <time>2019-07-08T16:09:02.000Z</time>
      </trkpt>
      <trkpt lat="42.69933396019041538238525390625" lon="-6.99776890687644481658935546875">
        <ele>975.79998779296875</ele>
        <time>2019-07-08T16:09:04.000Z</time>
      </trkpt>
      <trkpt lat="42.69959514029324054718017578125" lon="-6.99795884080231189727783203125">
        <ele>977.20001220703125</ele>
        <time>2019-07-08T16:09:05.000Z</time>
      </trkpt>
      <trkpt lat="42.70011448301374912261962890625" lon="-6.9983374513685703277587890625">
        <ele>978.20001220703125</ele>
        <time>2019-07-08T16:09:07.000Z</time>
      </trkpt>
      <trkpt lat="42.7006201632320880889892578125" lon="-6.99873852543532848358154296875">
        <ele>979.5999755859375</ele>
        <time>2019-07-08T16:09:09.000Z</time>
      </trkpt>
      <trkpt lat="42.7011076547205448150634765625" lon="-6.9991746358573436737060546875">
        <ele>979.79998779296875</ele>
        <time>2019-07-08T16:09:11.000Z</time>
      </trkpt>
      <trkpt lat="42.701574526727199554443359375" lon="-6.99965181760489940643310546875">
        <ele>979.4000244140625</ele>
        <time>2019-07-08T16:09:13.000Z</time>
      </trkpt>
      <trkpt lat="42.70201968960464000701904296875" lon="-7.00016311369836330413818359375">
        <ele>979.4000244140625</ele>
        <time>2019-07-08T16:09:15.000Z</time>
      </trkpt>
      <trkpt lat="42.70244180224835872650146484375" lon="-7.0007115416228771209716796875">
        <ele>980.20001220703125</ele>
        <time>2019-07-08T16:09:17.000Z</time>
      </trkpt>
      <trkpt lat="42.70264866761863231658935546875" lon="-7.00099694542586803436279296875">
        <ele>981.79998779296875</ele>
        <time>2019-07-08T16:09:18.000Z</time>
      </trkpt>
      <trkpt lat="42.703061141073703765869140625" lon="-7.00157663784921169281005859375">
        <ele>984</ele>
        <time>2019-07-08T16:09:20.000Z</time>
      </trkpt>
      <trkpt lat="42.7034854330122470855712890625" lon="-7.0021378062665462493896484375">
        <ele>984.79998779296875</ele>
        <time>2019-07-08T16:09:22.000Z</time>
      </trkpt>
      <trkpt lat="42.7037070505321025848388671875" lon="-7.00240242294967174530029296875">
        <ele>985</ele>
        <time>2019-07-08T16:09:23.000Z</time>
      </trkpt>
      <trkpt lat="42.704172916710376739501953125" lon="-7.00289678759872913360595703125">
        <ele>984</ele>
        <time>2019-07-08T16:09:25.000Z</time>
      </trkpt>
      <trkpt lat="42.70441255532205104827880859375" lon="-7.0031352527439594268798828125">
        <ele>984</ele>
        <time>2019-07-08T16:09:26.000Z</time>
      </trkpt>
      <trkpt lat="42.70488982088863849639892578125" lon="-7.003620229661464691162109375">
        <ele>984</ele>
        <time>2019-07-08T16:09:28.000Z</time>
      </trkpt>
      <trkpt lat="42.7053482271730899810791015625" lon="-7.004143930971622467041015625">
        <ele>984.4000244140625</ele>
        <time>2019-07-08T16:09:30.000Z</time>
      </trkpt>
      <trkpt lat="42.70556556992232799530029296875" lon="-7.00442698784172534942626953125">
        <ele>985.4000244140625</ele>
        <time>2019-07-08T16:09:31.000Z</time>
      </trkpt>
      <trkpt lat="42.70597963593900203704833984375" lon="-7.00503366999328136444091796875">
        <ele>986.5999755859375</ele>
        <time>2019-07-08T16:09:33.000Z</time>
      </trkpt>
      <trkpt lat="42.70639370195567607879638671875" lon="-7.005648650228977203369140625">
        <ele>986.79998779296875</ele>
        <time>2019-07-08T16:09:35.000Z</time>
      </trkpt>
      <trkpt lat="42.70683023147284984588623046875" lon="-7.0062365569174289703369140625">
        <ele>986.79998779296875</ele>
        <time>2019-07-08T16:09:37.000Z</time>
      </trkpt>
      <trkpt lat="42.70729810930788516998291015625" lon="-7.0067736692726612091064453125">
        <ele>988</ele>
        <time>2019-07-08T16:09:39.000Z</time>
      </trkpt>
      <trkpt lat="42.70779733546078205108642578125" lon="-7.00724548660218715667724609375">
        <ele>989.4000244140625</ele>
        <time>2019-07-08T16:09:41.000Z</time>
      </trkpt>
      <trkpt lat="42.7080565877258777618408203125" lon="-7.00746056623756885528564453125">
        <ele>990.4000244140625</ele>
        <time>2019-07-08T16:09:42.000Z</time>
      </trkpt>
      <trkpt lat="42.70858012139797210693359375" lon="-7.00786742381751537322998046875">
        <ele>990.79998779296875</ele>
        <time>2019-07-08T16:09:44.000Z</time>
      </trkpt>
      <trkpt lat="42.70910910330712795257568359375" lon="-7.008243016898632049560546875">
        <ele>991.5999755859375</ele>
        <time>2019-07-08T16:09:46.000Z</time>
      </trkpt>
      <trkpt lat="42.70937413908541202545166015625" lon="-7.0084242336452007293701171875">
        <ele>992.79998779296875</ele>
        <time>2019-07-08T16:09:47.000Z</time>
      </trkpt>
      <trkpt lat="42.709637582302093505859375" lon="-7.0086032710969448089599609375">
        <ele>994</ele>
        <time>2019-07-08T16:09:48.000Z</time>
      </trkpt>
      <trkpt lat="42.7101604454219341278076171875" lon="-7.00896159745752811431884765625">
        <ele>996.4000244140625</ele>
        <time>2019-07-08T16:09:50.000Z</time>
      </trkpt>
      <trkpt lat="42.71042053587734699249267578125" lon="-7.00914130546152591705322265625">
        <ele>998.20001220703125</ele>
        <time>2019-07-08T16:09:51.000Z</time>
      </trkpt>
      <trkpt lat="42.710938788950443267822265625" lon="-7.00949736870825290679931640625">
        <ele>999.5999755859375</ele>
        <time>2019-07-08T16:09:53.000Z</time>
      </trkpt>
      <trkpt lat="42.711453773081302642822265625" lon="-7.009849660098552703857421875">
        <ele>1000</ele>
        <time>2019-07-08T16:09:55.000Z</time>
      </trkpt>
      <trkpt lat="42.71171000786125659942626953125" lon="-7.010024003684520721435546875">
        <ele>1001.4000244140625</ele>
        <time>2019-07-08T16:09:56.000Z</time>
      </trkpt>
      <trkpt lat="42.7119659073650836944580078125" lon="-7.0101985149085521697998046875">
        <ele>1002.79998779296875</ele>
        <time>2019-07-08T16:09:57.000Z</time>
      </trkpt>
      <trkpt lat="42.71222247742116451263427734375" lon="-7.0103735290467739105224609375">
        <ele>1004.79998779296875</ele>
        <time>2019-07-08T16:09:58.000Z</time>
      </trkpt>
      <trkpt lat="42.71247963421046733856201171875" lon="-7.01055013574659824371337890625">
        <ele>1006.4000244140625</ele>
        <time>2019-07-08T16:09:59.000Z</time>
      </trkpt>
      <trkpt lat="42.7127383835613727569580078125" lon="-7.01072716154158115386962890625">
        <ele>1008.4000244140625</ele>
        <time>2019-07-08T16:10:00.000Z</time>
      </trkpt>
      <trkpt lat="42.71325898356735706329345703125" lon="-7.01108339242637157440185546875">
        <ele>1009.5999755859375</ele>
        <time>2019-07-08T16:10:02.000Z</time>
      </trkpt>
      <trkpt lat="42.7135212533175945281982421875" lon="-7.01125840656459331512451171875">
        <ele>1011.4000244140625</ele>
        <time>2019-07-08T16:10:03.000Z</time>
      </trkpt>
      <trkpt lat="42.71405409090220928192138671875" lon="-7.0115845464169979095458984375">
        <ele>1014.20001220703125</ele>
        <time>2019-07-08T16:10:05.000Z</time>
      </trkpt>
      <trkpt lat="42.71459765732288360595703125" lon="-7.01186441816389560699462890625">
        <ele>1017.5999755859375</ele>
        <time>2019-07-08T16:10:07.000Z</time>
      </trkpt>
      <trkpt lat="42.71487484686076641082763671875" lon="-7.0119828544557094573974609375">
        <ele>1020.4000244140625</ele>
        <time>2019-07-08T16:10:08.000Z</time>
      </trkpt>
      <trkpt lat="42.71515547297894954681396484375" lon="-7.0120854489505290985107421875">
        <ele>1021.79998779296875</ele>
        <time>2019-07-08T16:10:09.000Z</time>
      </trkpt>
      <trkpt lat="42.7154397033154964447021484375" lon="-7.01217488385736942291259765625">
        <ele>1023</ele>
        <time>2019-07-08T16:10:10.000Z</time>
      </trkpt>
      <trkpt lat="42.71572561003267765045166015625" lon="-7.01225283555686473846435546875">
        <ele>1024.800048828125</ele>
        <time>2019-07-08T16:10:11.000Z</time>
      </trkpt>
      <trkpt lat="42.71630111150443553924560546875" lon="-7.012371607124805450439453125">
        <ele>1026.199951171875</ele>
        <time>2019-07-08T16:10:13.000Z</time>
      </trkpt>
      <trkpt lat="42.7168787084519863128662109375" lon="-7.01244243420660495758056640625">
        <ele>1027.5999755859375</ele>
        <time>2019-07-08T16:10:15.000Z</time>
      </trkpt>
      <trkpt lat="42.717167548835277557373046875" lon="-7.0124723576009273529052734375">
        <ele>1029.4000244140625</ele>
        <time>2019-07-08T16:10:16.000Z</time>
      </trkpt>
      <trkpt lat="42.7174557186663150787353515625" lon="-7.0125008560717105865478515625">
        <ele>1031.199951171875</ele>
        <time>2019-07-08T16:10:17.000Z</time>
      </trkpt>
      <trkpt lat="42.71774229593575000762939453125" lon="-7.012529857456684112548828125">
        <ele>1033.5999755859375</ele>
        <time>2019-07-08T16:10:18.000Z</time>
      </trkpt>
      <trkpt lat="42.71802761591970920562744140625" lon="-7.01256698928773403167724609375">
        <ele>1034.800048828125</ele>
        <time>2019-07-08T16:10:19.000Z</time>
      </trkpt>
      <trkpt lat="42.71859087981283664703369140625" lon="-7.01268307864665985107421875">
        <ele>1035.5999755859375</ele>
        <time>2019-07-08T16:10:21.000Z</time>
      </trkpt>
      <trkpt lat="42.71886848844587802886962890625" lon="-7.0127674005925655364990234375">
        <ele>1036.800048828125</ele>
        <time>2019-07-08T16:10:22.000Z</time>
      </trkpt>
      <trkpt lat="42.71941968239843845367431640625" lon="-7.0129886828362941741943359375">
        <ele>1038.800048828125</ele>
        <time>2019-07-08T16:10:24.000Z</time>
      </trkpt>
      <trkpt lat="42.7196940220892429351806640625" lon="-7.01312371529638767242431640625">
        <ele>1040.4000244140625</ele>
        <time>2019-07-08T16:10:25.000Z</time>
      </trkpt>
      <trkpt lat="42.7199655957520008087158203125" lon="-7.01327408663928508758544921875">
        <ele>1042.800048828125</ele>
        <time>2019-07-08T16:10:26.000Z</time>
      </trkpt>
      <trkpt lat="42.7202334813773632049560546875" lon="-7.01344172470271587371826171875">
        <ele>1044.199951171875</ele>
        <time>2019-07-08T16:10:27.000Z</time>
      </trkpt>
      <trkpt lat="42.72075056098401546478271484375" lon="-7.0138330757617950439453125">
        <ele>1045.199951171875</ele>
        <time>2019-07-08T16:10:29.000Z</time>
      </trkpt>
      <trkpt lat="42.72099933587014675140380859375" lon="-7.01405578292906284332275390625">
        <ele>1045.4000244140625</ele>
        <time>2019-07-08T16:10:30.000Z</time>
      </trkpt>
      <trkpt lat="42.72147542797029018402099609375" lon="-7.0145477168262004852294921875">
        <ele>1045.5999755859375</ele>
        <time>2019-07-08T16:10:32.000Z</time>
      </trkpt>
      <trkpt lat="42.7217026613652706146240234375" lon="-7.014816105365753173828125">
        <ele>1047.800048828125</ele>
        <time>2019-07-08T16:10:33.000Z</time>
      </trkpt>
      <trkpt lat="42.721918411552906036376953125" lon="-7.015098072588443756103515625">
        <ele>1048.800048828125</ele>
        <time>2019-07-08T16:10:34.000Z</time>
      </trkpt>
      <trkpt lat="42.7221219241619110107421875" lon="-7.0153902657330036163330078125">
        <ele>1050.4000244140625</ele>
        <time>2019-07-08T16:10:35.000Z</time>
      </trkpt>
      <trkpt lat="42.722313366830348968505859375" lon="-7.0156864821910858154296875">
        <ele>1053.5999755859375</ele>
        <time>2019-07-08T16:10:36.000Z</time>
      </trkpt>
      <trkpt lat="42.72249466739594936370849609375" lon="-7.01598714105784893035888671875">
        <ele>1057</ele>
        <time>2019-07-08T16:10:37.000Z</time>
      </trkpt>
      <trkpt lat="42.7226628921926021575927734375" lon="-7.01629257760941982269287109375">
        <ele>1059</ele>
        <time>2019-07-08T16:10:38.000Z</time>
      </trkpt>
      <trkpt lat="42.722816951572895050048828125" lon="-7.01660254038870334625244140625">
        <ele>1060.4000244140625</ele>
        <time>2019-07-08T16:10:39.000Z</time>
      </trkpt>
      <trkpt lat="42.72308659739792346954345703125" lon="-7.0172433368861675262451171875">
        <ele>1061.800048828125</ele>
        <time>2019-07-08T16:10:41.000Z</time>
      </trkpt>
      <trkpt lat="42.72331240586936473846435546875" lon="-7.01791740953922271728515625">
        <ele>1061.800048828125</ele>
        <time>2019-07-08T16:10:43.000Z</time>
      </trkpt>
      <trkpt lat="42.7235067822039127349853515625" lon="-7.01861352659761905670166015625">
        <ele>1060.5999755859375</ele>
        <time>2019-07-08T16:10:45.000Z</time>
      </trkpt>
      <trkpt lat="42.72370233200490474700927734375" lon="-7.0193101465702056884765625">
        <ele>1059.800048828125</ele>
        <time>2019-07-08T16:10:47.000Z</time>
      </trkpt>
      <trkpt lat="42.72379855625331401824951171875" lon="-7.01966344378888607025146484375">
        <ele>1057.800048828125</ele>
        <time>2019-07-08T16:10:48.000Z</time>
      </trkpt>
      <trkpt lat="42.7239914238452911376953125" lon="-7.02038101851940155029296875">
        <ele>1061</ele>
        <time>2019-07-08T16:10:50.000Z</time>
      </trkpt>
      <trkpt lat="42.72408639080822467803955078125" lon="-7.0207459665834903717041015625">
        <ele>1063.5999755859375</ele>
        <time>2019-07-08T16:10:51.000Z</time>
      </trkpt>
      <trkpt lat="42.72417909465730190277099609375" lon="-7.02109389938414096832275390625">
        <ele>1065.4000244140625</ele>
        <time>2019-07-08T16:10:52.000Z</time>
      </trkpt>
      <trkpt lat="42.72574868984520435333251953125" lon="-7.0281200297176837921142578125">
        <ele>1069.800048828125</ele>
        <time>2019-07-08T16:11:12.000Z</time>
      </trkpt>
      <trkpt lat="42.7259314991533756256103515625" lon="-7.028934918344020843505859375">
        <ele>1069.800048828125</ele>
        <time>2019-07-08T16:11:14.000Z</time>
      </trkpt>
      <trkpt lat="42.72609352134168148040771484375" lon="-7.0296277664601802825927734375">
        <ele>1069.4000244140625</ele>
        <time>2019-07-08T16:11:16.000Z</time>
      </trkpt>
      <trkpt lat="42.726257555186748504638671875" lon="-7.03033394180238246917724609375">
        <ele>1069</ele>
        <time>2019-07-08T16:11:18.000Z</time>
      </trkpt>
      <trkpt lat="42.726423852145671844482421875" lon="-7.03104355372488498687744140625">
        <ele>1068</ele>
        <time>2019-07-08T16:11:20.000Z</time>
      </trkpt>
      <trkpt lat="42.7265059947967529296875" lon="-7.03140296973288059234619140625">
        <ele>1066.5999755859375</ele>
        <time>2019-07-08T16:11:21.000Z</time>
      </trkpt>
      <trkpt lat="42.72658956237137317657470703125" lon="-7.031763978302478790283203125">
        <ele>1065</ele>
        <time>2019-07-08T16:11:22.000Z</time>
      </trkpt>
      <trkpt lat="42.726761139929294586181640625" lon="-7.03248406760394573211669921875">
        <ele>1063.5999755859375</ele>
        <time>2019-07-08T16:11:24.000Z</time>
      </trkpt>
      <trkpt lat="42.7269343100488185882568359375" lon="-7.0331967808306217193603515625">
        <ele>1061.199951171875</ele>
        <time>2019-07-08T16:11:26.000Z</time>
      </trkpt>
      <trkpt lat="42.72710957564413547515869140625" lon="-7.0339105837047100067138671875">
        <ele>1059.5999755859375</ele>
        <time>2019-07-08T16:11:28.000Z</time>
      </trkpt>
      <trkpt lat="42.7271975018084049224853515625" lon="-7.03427008353173732757568359375">
        <ele>1058.4000244140625</ele>
        <time>2019-07-08T16:11:29.000Z</time>
      </trkpt>
      <trkpt lat="42.7272876910865306854248046875" lon="-7.03463033773005008697509765625">
        <ele>1056.4000244140625</ele>
        <time>2019-07-08T16:11:30.000Z</time>
      </trkpt>
      <trkpt lat="42.72738098166882991790771484375" lon="-7.03499101102352142333984375">
        <ele>1054.199951171875</ele>
        <time>2019-07-08T16:11:31.000Z</time>
      </trkpt>
      <trkpt lat="42.7274777926504611968994140625" lon="-7.0353529416024684906005859375">
        <ele>1043.800048828125</ele>
        <time>2019-07-08T16:11:32.000Z</time>
      </trkpt>
      <trkpt lat="42.72757912985980510711669921875" lon="-7.0357150398194789886474609375">
        <ele>1029.4000244140625</ele>
        <time>2019-07-08T16:11:33.000Z</time>
      </trkpt>
      <trkpt lat="42.72768683731555938720703125" lon="-7.036075629293918609619140625">
        <ele>1015.4000244140625</ele>
        <time>2019-07-08T16:11:34.000Z</time>
      </trkpt>
      <trkpt lat="42.72780074737966060638427734375" lon="-7.0364321954548358917236328125">
        <ele>1007.5999755859375</ele>
        <time>2019-07-08T16:11:35.000Z</time>
      </trkpt>
      <trkpt lat="42.72791842930018901824951171875" lon="-7.03678700141608715057373046875">
        <ele>1003.5999755859375</ele>
        <time>2019-07-08T16:11:36.000Z</time>
      </trkpt>
      <trkpt lat="42.7281708084046840667724609375" lon="-7.03748680651187896728515625">
        <ele>1005.4000244140625</ele>
        <time>2019-07-08T16:11:38.000Z</time>
      </trkpt>
      <trkpt lat="42.7283055894076824188232421875" lon="-7.03783147037029266357421875">
        <ele>1007.4000244140625</ele>
        <time>2019-07-08T16:11:39.000Z</time>
      </trkpt>
      <trkpt lat="42.72844481281936168670654296875" lon="-7.03817219473421573638916015625">
        <ele>1009.4000244140625</ele>
        <time>2019-07-08T16:11:40.000Z</time>
      </trkpt>
      <trkpt lat="42.7285885624587535858154296875" lon="-7.0385093986988067626953125">
        <ele>1011.20001220703125</ele>
        <time>2019-07-08T16:11:41.000Z</time>
      </trkpt>
      <trkpt lat="42.728888802230358123779296875" lon="-7.03916586935520172119140625">
        <ele>1013.79998779296875</ele>
        <time>2019-07-08T16:11:43.000Z</time>
      </trkpt>
      <trkpt lat="42.72904277779161930084228515625" lon="-7.03948639333248138427734375">
        <ele>1016</ele>
        <time>2019-07-08T16:11:44.000Z</time>
      </trkpt>
      <trkpt lat="42.72920052520930767059326171875" lon="-7.03980197198688983917236328125">
        <ele>1018.4000244140625</ele>
        <time>2019-07-08T16:11:45.000Z</time>
      </trkpt>
      <trkpt lat="42.7295293472707271575927734375" lon="-7.04041779041290283203125">
        <ele>1018</ele>
        <time>2019-07-08T16:11:47.000Z</time>
      </trkpt>
      <trkpt lat="42.72969983518123626708984375" lon="-7.04072146676480770111083984375">
        <ele>1017</ele>
        <time>2019-07-08T16:11:48.000Z</time>
      </trkpt>
      <trkpt lat="42.73005128838121891021728515625" lon="-7.04131457023322582244873046875">
        <ele>1016.4000244140625</ele>
        <time>2019-07-08T16:11:50.000Z</time>
      </trkpt>
      <trkpt lat="42.7302317507565021514892578125" lon="-7.0416046679019927978515625">
        <ele>1015.5999755859375</ele>
        <time>2019-07-08T16:11:51.000Z</time>
      </trkpt>
      <trkpt lat="42.730416320264339447021484375" lon="-7.041892670094966888427734375">
        <ele>1013.5999755859375</ele>
        <time>2019-07-08T16:11:52.000Z</time>
      </trkpt>
      <trkpt lat="42.73080230690538883209228515625" lon="-7.04245652072131633758544921875">
        <ele>1011.4000244140625</ele>
        <time>2019-07-08T16:11:54.000Z</time>
      </trkpt>
      <trkpt lat="42.73100581951439380645751953125" lon="-7.042728848755359649658203125">
        <ele>1010</ele>
        <time>2019-07-08T16:11:55.000Z</time>
      </trkpt>
      <trkpt lat="42.73121285252273082733154296875" lon="-7.04299011267721652984619140625">
        <ele>1007.4000244140625</ele>
        <time>2019-07-08T16:11:56.000Z</time>
      </trkpt>
      <trkpt lat="42.73141753859817981719970703125" lon="-7.0432406477630138397216796875">
        <ele>1003.79998779296875</ele>
        <time>2019-07-08T16:11:57.000Z</time>
      </trkpt>
      <trkpt lat="42.73162297904491424560546875" lon="-7.043480537831783294677734375">
        <ele>1001.79998779296875</ele>
        <time>2019-07-08T16:11:58.000Z</time>
      </trkpt>
      <trkpt lat="42.7318300120532512664794921875" lon="-7.04371380619704723358154296875">
        <ele>999.4000244140625</ele>
        <time>2019-07-08T16:11:59.000Z</time>
      </trkpt>
      <trkpt lat="42.7320362068712711334228515625" lon="-7.043939866125583648681640625">
        <ele>998.20001220703125</ele>
        <time>2019-07-08T16:12:00.000Z</time>
      </trkpt>
      <trkpt lat="42.73244415409862995147705078125" lon="-7.04436340369284152984619140625">
        <ele>997.79998779296875</ele>
        <time>2019-07-08T16:12:02.000Z</time>
      </trkpt>
      <trkpt lat="42.73284330032765865325927734375" lon="-7.04474545083940029144287109375">
        <ele>997.20001220703125</ele>
        <time>2019-07-08T16:12:04.000Z</time>
      </trkpt>
      <trkpt lat="42.7330403588712215423583984375" lon="-7.0449176989495754241943359375">
        <ele>995.4000244140625</ele>
        <time>2019-07-08T16:12:05.000Z</time>
      </trkpt>
      <trkpt lat="42.73323574103415012359619140625" lon="-7.04507938586175441741943359375">
        <ele>992.4000244140625</ele>
        <time>2019-07-08T16:12:06.000Z</time>
      </trkpt>
      <trkpt lat="42.73343212902545928955078125" lon="-7.0452321879565715789794921875">
        <ele>989.20001220703125</ele>
        <time>2019-07-08T16:12:07.000Z</time>
      </trkpt>
      <trkpt lat="42.7336304448544979095458984375" lon="-7.045379541814327239990234375">
        <ele>986.5999755859375</ele>
        <time>2019-07-08T16:12:08.000Z</time>
      </trkpt>
      <trkpt lat="42.73382867686450481414794921875" lon="-7.0455232076346874237060546875">
        <ele>984.4000244140625</ele>
        <time>2019-07-08T16:12:09.000Z</time>
      </trkpt>
      <trkpt lat="42.73402648977935314178466796875" lon="-7.04566645435988903045654296875">
        <ele>983</ele>
        <time>2019-07-08T16:12:10.000Z</time>
      </trkpt>
      <trkpt lat="42.73441541008651256561279296875" lon="-7.04595780931413173675537109375">
        <ele>980.79998779296875</ele>
        <time>2019-07-08T16:12:12.000Z</time>
      </trkpt>
      <trkpt lat="42.7347886562347412109375" lon="-7.04625352285802364349365234375">
        <ele>977.79998779296875</ele>
        <time>2019-07-08T16:12:14.000Z</time>
      </trkpt>
      <trkpt lat="42.73497800342738628387451171875" lon="-7.04639081843197345733642578125">
        <ele>976.20001220703125</ele>
        <time>2019-07-08T16:12:15.000Z</time>
      </trkpt>
      <trkpt lat="42.73561670444905757904052734375" lon="-7.04682835377752780914306640625">
        <ele>975.20001220703125</ele>
        <time>2019-07-08T16:12:18.000Z</time>
      </trkpt>
      <trkpt lat="42.73600579239428043365478515625" lon="-7.046541273593902587890625">
        <ele>974.5999755859375</ele>
        <time>2019-07-08T16:12:19.000Z</time>
      </trkpt>
      <trkpt lat="42.73648850619792938232421875" lon="-7.0466158725321292877197265625">
        <ele>974.4000244140625</ele>
        <time>2019-07-08T16:12:21.000Z</time>
      </trkpt>
      <trkpt lat="42.73700617253780364990234375" lon="-7.0466748811304569244384765625">
        <ele>974.79998779296875</ele>
        <time>2019-07-08T16:12:23.000Z</time>
      </trkpt>
      <trkpt lat="42.7375354059040546417236328125" lon="-7.04674805514514446258544921875">
        <ele>974.79998779296875</ele>
        <time>2019-07-08T16:12:25.000Z</time>
      </trkpt>
      <trkpt lat="42.7380674891173839569091796875" lon="-7.0468562655150890350341796875">
        <ele>974.79998779296875</ele>
        <time>2019-07-08T16:12:27.000Z</time>
      </trkpt>
      <trkpt lat="42.738592363893985748291015625" lon="-7.04702231101691722869873046875">
        <ele>974</ele>
        <time>2019-07-08T16:12:29.000Z</time>
      </trkpt>
      <trkpt lat="42.738853208720684051513671875" lon="-7.0471285097301006317138671875">
        <ele>972.79998779296875</ele>
        <time>2019-07-08T16:12:30.000Z</time>
      </trkpt>
      <trkpt lat="42.73911036550998687744140625" lon="-7.04725247807800769805908203125">
        <ele>971.5999755859375</ele>
        <time>2019-07-08T16:12:31.000Z</time>
      </trkpt>
      <trkpt lat="42.739612944424152374267578125" lon="-7.04755271784961223602294921875">
        <ele>970.20001220703125</ele>
        <time>2019-07-08T16:12:33.000Z</time>
      </trkpt>
      <trkpt lat="42.740101106464862823486328125" lon="-7.047902829945087432861328125">
        <ele>967.20001220703125</ele>
        <time>2019-07-08T16:12:35.000Z</time>
      </trkpt>
      <trkpt lat="42.74033881723880767822265625" lon="-7.04809226095676422119140625">
        <ele>965</ele>
        <time>2019-07-08T16:12:36.000Z</time>
      </trkpt>
      <trkpt lat="42.74057216942310333251953125" lon="-7.04829200170934200286865234375">
        <ele>964</ele>
        <time>2019-07-08T16:12:37.000Z</time>
      </trkpt>
      <trkpt lat="42.74080258794128894805908203125" lon="-7.048499621450901031494140625">
        <ele>962</ele>
        <time>2019-07-08T16:12:38.000Z</time>
      </trkpt>
      <trkpt lat="42.74102973751723766326904296875" lon="-7.0487163774669170379638671875">
        <ele>960.4000244140625</ele>
        <time>2019-07-08T16:12:39.000Z</time>
      </trkpt>
      <trkpt lat="42.74147448129951953887939453125" lon="-7.04917193390429019927978515625">
        <ele>958</ele>
        <time>2019-07-08T16:12:41.000Z</time>
      </trkpt>
      <trkpt lat="42.74169358424842357635498046875" lon="-7.04940478317439556121826171875">
        <ele>956.4000244140625</ele>
        <time>2019-07-08T16:12:42.000Z</time>
      </trkpt>
      <trkpt lat="42.7419114299118518829345703125" lon="-7.0496440865099430084228515625">
        <ele>955</ele>
        <time>2019-07-08T16:12:43.000Z</time>
      </trkpt>
      <trkpt lat="42.74213028140366077423095703125" lon="-7.04988875426352024078369140625">
        <ele>953.20001220703125</ele>
        <time>2019-07-08T16:12:44.000Z</time>
      </trkpt>
      <trkpt lat="42.74255591444671154022216796875" lon="-7.05039937980473041534423828125">
        <ele>951.79998779296875</ele>
        <time>2019-07-08T16:12:46.000Z</time>
      </trkpt>
      <trkpt lat="42.74296310730278491973876953125" lon="-7.05093950964510440826416015625">
        <ele>950.4000244140625</ele>
        <time>2019-07-08T16:12:48.000Z</time>
      </trkpt>
      <trkpt lat="42.743160165846347808837890625" lon="-7.05122097395360469818115234375">
        <ele>948.20001220703125</ele>
        <time>2019-07-08T16:12:49.000Z</time>
      </trkpt>
      <trkpt lat="42.7433524467051029205322265625" lon="-7.05150763504207134246826171875">
        <ele>945.5999755859375</ele>
        <time>2019-07-08T16:12:50.000Z</time>
      </trkpt>
      <trkpt lat="42.7435393631458282470703125" lon="-7.05179664306342601776123046875">
        <ele>944.4000244140625</ele>
        <time>2019-07-08T16:12:51.000Z</time>
      </trkpt>
      <trkpt lat="42.743722088634967803955078125" lon="-7.052087746560573577880859375">
        <ele>943</ele>
        <time>2019-07-08T16:12:52.000Z</time>
      </trkpt>
      <trkpt lat="42.7439033053815364837646484375" lon="-7.0523782633244991302490234375">
        <ele>941</ele>
        <time>2019-07-08T16:12:53.000Z</time>
      </trkpt>
      <trkpt lat="42.74408309720456600189208984375" lon="-7.05266634933650493621826171875">
        <ele>939</ele>
        <time>2019-07-08T16:12:54.000Z</time>
      </trkpt>
      <trkpt lat="42.744262218475341796875" lon="-7.0529542677104473114013671875">
        <ele>937.20001220703125</ele>
        <time>2019-07-08T16:12:55.000Z</time>
      </trkpt>
      <trkpt lat="42.74444234557449817657470703125" lon="-7.0532422699034214019775390625">
        <ele>935.5999755859375</ele>
        <time>2019-07-08T16:12:56.000Z</time>
      </trkpt>
      <trkpt lat="42.74462557397782802581787109375" lon="-7.05352909862995147705078125">
        <ele>934.20001220703125</ele>
        <time>2019-07-08T16:12:57.000Z</time>
      </trkpt>
      <trkpt lat="42.7448142506182193756103515625" lon="-7.0538142509758472442626953125">
        <ele>932.4000244140625</ele>
        <time>2019-07-08T16:12:58.000Z</time>
      </trkpt>
      <trkpt lat="42.745007537305355072021484375" lon="-7.05409747548401355743408203125">
        <ele>930.5999755859375</ele>
        <time>2019-07-08T16:12:59.000Z</time>
      </trkpt>
      <trkpt lat="42.74520861916244029998779296875" lon="-7.05437424592673778533935546875">
        <ele>929</ele>
        <time>2019-07-08T16:13:00.000Z</time>
      </trkpt>
      <trkpt lat="42.74541892111301422119140625" lon="-7.054641209542751312255859375">
        <ele>927</ele>
        <time>2019-07-08T16:13:01.000Z</time>
      </trkpt>
      <trkpt lat="42.7456403709948062896728515625" lon="-7.054897360503673553466796875">
        <ele>925</ele>
        <time>2019-07-08T16:13:02.000Z</time>
      </trkpt>
      <trkpt lat="42.74587011896073818206787109375" lon="-7.05514051951467990875244140625">
        <ele>922.79998779296875</ele>
        <time>2019-07-08T16:13:03.000Z</time>
      </trkpt>
      <trkpt lat="42.74610749445855617523193359375" lon="-7.05537152476608753204345703125">
        <ele>920.5999755859375</ele>
        <time>2019-07-08T16:13:04.000Z</time>
      </trkpt>
      <trkpt lat="42.74660856463015079498291015625" lon="-7.055793218314647674560546875">
        <ele>919.4000244140625</ele>
        <time>2019-07-08T16:13:06.000Z</time>
      </trkpt>
      <trkpt lat="42.74686672724783420562744140625" lon="-7.05599497072398662567138671875">
        <ele>918.20001220703125</ele>
        <time>2019-07-08T16:13:07.000Z</time>
      </trkpt>
      <trkpt lat="42.74712472222745418548583984375" lon="-7.05620015971362590789794921875">
        <ele>917.20001220703125</ele>
        <time>2019-07-08T16:13:08.000Z</time>
      </trkpt>
      <trkpt lat="42.74763199500739574432373046875" lon="-7.056635431945323944091796875">
        <ele>916.20001220703125</ele>
        <time>2019-07-08T16:13:10.000Z</time>
      </trkpt>
      <trkpt lat="42.74787758477032184600830078125" lon="-7.05687037669122219085693359375">
        <ele>914.20001220703125</ele>
        <time>2019-07-08T16:13:11.000Z</time>
      </trkpt>
      <trkpt lat="42.7481167204678058624267578125" lon="-7.0571185648441314697265625">
        <ele>912.5999755859375</ele>
        <time>2019-07-08T16:13:12.000Z</time>
      </trkpt>
      <trkpt lat="42.74834948591887950897216796875" lon="-7.057377062737941741943359375">
        <ele>911</ele>
        <time>2019-07-08T16:13:13.000Z</time>
      </trkpt>
      <trkpt lat="42.7487906254827976226806640625" lon="-7.05792549066245555877685546875">
        <ele>909.79998779296875</ele>
        <time>2019-07-08T16:13:15.000Z</time>
      </trkpt>
      <trkpt lat="42.74899757467210292816162109375" lon="-7.05821768380701541900634765625">
        <ele>906.79998779296875</ele>
        <time>2019-07-08T16:13:16.000Z</time>
      </trkpt>
      <trkpt lat="42.74919605813920497894287109375" lon="-7.05852027051150798797607421875">
        <ele>902.5999755859375</ele>
        <time>2019-07-08T16:13:17.000Z</time>
      </trkpt>
      <trkpt lat="42.74938548915088176727294921875" lon="-7.05883392132818698883056640625">
        <ele>897.79998779296875</ele>
        <time>2019-07-08T16:13:18.000Z</time>
      </trkpt>
      <trkpt lat="42.74956217966973781585693359375" lon="-7.05915897153317928314208984375">
        <ele>894.20001220703125</ele>
        <time>2019-07-08T16:13:19.000Z</time>
      </trkpt>
      <trkpt lat="42.749724201858043670654296875" lon="-7.05949625931680202484130859375">
        <ele>890.20001220703125</ele>
        <time>2019-07-08T16:13:20.000Z</time>
      </trkpt>
      <trkpt lat="42.74987231008708477020263671875" lon="-7.0598438568413257598876953125">
        <ele>884.5999755859375</ele>
        <time>2019-07-08T16:13:21.000Z</time>
      </trkpt>
      <trkpt lat="42.75000692345201969146728515625" lon="-7.0602029375731945037841796875">
        <ele>876.79998779296875</ele>
        <time>2019-07-08T16:13:22.000Z</time>
      </trkpt>
      <trkpt lat="42.75012846104800701141357421875" lon="-7.06056855618953704833984375">
        <ele>869.20001220703125</ele>
        <time>2019-07-08T16:13:23.000Z</time>
      </trkpt>
      <trkpt lat="42.750236503779888153076171875" lon="-7.06093794666230678558349609375">
        <ele>861.5999755859375</ele>
        <time>2019-07-08T16:13:24.000Z</time>
      </trkpt>
      <trkpt lat="42.750333733856678009033203125" lon="-7.06130884587764739990234375">
        <ele>856.20001220703125</ele>
        <time>2019-07-08T16:13:25.000Z</time>
      </trkpt>
      <trkpt lat="42.7504247613251209259033203125" lon="-7.0616810023784637451171875">
        <ele>853.4000244140625</ele>
        <time>2019-07-08T16:13:26.000Z</time>
      </trkpt>
      <trkpt lat="42.75051419623196125030517578125" lon="-7.062052823603153228759765625">
        <ele>852</ele>
        <time>2019-07-08T16:13:27.000Z</time>
      </trkpt>
      <trkpt lat="42.75070748291909694671630859375" lon="-7.06279085017740726470947265625">
        <ele>853.4000244140625</ele>
        <time>2019-07-08T16:13:29.000Z</time>
      </trkpt>
      <trkpt lat="42.75082248263061046600341796875" lon="-7.0631506852805614471435546875">
        <ele>856</ele>
        <time>2019-07-08T16:13:30.000Z</time>
      </trkpt>
      <trkpt lat="42.75095164775848388671875" lon="-7.06350130029022693634033203125">
        <ele>861.5999755859375</ele>
        <time>2019-07-08T16:13:31.000Z</time>
      </trkpt>
      <trkpt lat="42.7510924637317657470703125" lon="-7.063843868672847747802734375">
        <ele>867.20001220703125</ele>
        <time>2019-07-08T16:13:32.000Z</time>
      </trkpt>
      <trkpt lat="42.7512445114552974700927734375" lon="-7.06417822279036045074462890625">
        <ele>870</ele>
        <time>2019-07-08T16:13:33.000Z</time>
      </trkpt>
      <trkpt lat="42.751409299671649932861328125" lon="-7.0645000040531158447265625">
        <ele>868.4000244140625</ele>
        <time>2019-07-08T16:13:34.000Z</time>
      </trkpt>
      <trkpt lat="42.75158892385661602020263671875" lon="-7.0648079551756381988525390625">
        <ele>861.4000244140625</ele>
        <time>2019-07-08T16:13:35.000Z</time>
      </trkpt>
      <trkpt lat="42.751781456172466278076171875" lon="-7.06510190851986408233642578125">
        <ele>852.5999755859375</ele>
        <time>2019-07-08T16:13:36.000Z</time>
      </trkpt>
      <trkpt lat="42.7519844658672809600830078125" lon="-7.06538580358028411865234375">
        <ele>839.79998779296875</ele>
        <time>2019-07-08T16:13:37.000Z</time>
      </trkpt>
      <trkpt lat="42.75219560600817203521728515625" lon="-7.0656615681946277618408203125">
        <ele>833.4000244140625</ele>
        <time>2019-07-08T16:13:38.000Z</time>
      </trkpt>
      <trkpt lat="42.7524099312722682952880859375" lon="-7.065933644771575927734375">
        <ele>828.79998779296875</ele>
        <time>2019-07-08T16:13:39.000Z</time>
      </trkpt>
      <trkpt lat="42.75262425653636455535888671875" lon="-7.066207565367221832275390625">
        <ele>826.5999755859375</ele>
        <time>2019-07-08T16:13:40.000Z</time>
      </trkpt>
      <trkpt lat="42.75283698923885822296142578125" lon="-7.06648425199091434478759765625">
        <ele>825.20001220703125</ele>
        <time>2019-07-08T16:13:41.000Z</time>
      </trkpt>
      <trkpt lat="42.753046788275241851806640625" lon="-7.066766135394573211669921875">
        <ele>823.79998779296875</ele>
        <time>2019-07-08T16:13:42.000Z</time>
      </trkpt>
      <trkpt lat="42.7532494626939296722412109375" lon="-7.06705816090106964111328125">
        <ele>822</ele>
        <time>2019-07-08T16:13:43.000Z</time>
      </trkpt>
      <trkpt lat="42.75344551540911197662353515625" lon="-7.0673607476055622100830078125">
        <ele>819.5999755859375</ele>
        <time>2019-07-08T16:13:44.000Z</time>
      </trkpt>
      <trkpt lat="42.753636203706264495849609375" lon="-7.06767096184194087982177734375">
        <ele>817.4000244140625</ele>
        <time>2019-07-08T16:13:45.000Z</time>
      </trkpt>
      <trkpt lat="42.753821946680545806884765625" lon="-7.067988216876983642578125">
        <ele>815</ele>
        <time>2019-07-08T16:13:46.000Z</time>
      </trkpt>
      <trkpt lat="42.7540004812180995941162109375" lon="-7.06831268034875392913818359375">
        <ele>812.79998779296875</ele>
        <time>2019-07-08T16:13:47.000Z</time>
      </trkpt>
      <trkpt lat="42.75417256169021129608154296875" lon="-7.0686428435146808624267578125">
        <ele>809.79998779296875</ele>
        <time>2019-07-08T16:13:48.000Z</time>
      </trkpt>
      <trkpt lat="42.75433852337300777435302734375" lon="-7.0689767785370349884033203125">
        <ele>807.4000244140625</ele>
        <time>2019-07-08T16:13:49.000Z</time>
      </trkpt>
      <trkpt lat="42.754497528076171875" lon="-7.06931699998676776885986328125">
        <ele>806.20001220703125</ele>
        <time>2019-07-08T16:13:50.000Z</time>
      </trkpt>
      <trkpt lat="42.75464949198067188262939453125" lon="-7.06966266967356204986572265625">
        <ele>804.79998779296875</ele>
        <time>2019-07-08T16:13:51.000Z</time>
      </trkpt>
      <trkpt lat="42.754793576896190643310546875" lon="-7.07001554779708385467529296875">
        <ele>803.5999755859375</ele>
        <time>2019-07-08T16:13:52.000Z</time>
      </trkpt>
      <trkpt lat="42.755065150558948516845703125" lon="-7.0707369782030582427978515625">
        <ele>803</ele>
        <time>2019-07-08T16:13:54.000Z</time>
      </trkpt>
      <trkpt lat="42.7553325332701206207275390625" lon="-7.07146528176963329315185546875">
        <ele>803</ele>
        <time>2019-07-08T16:13:56.000Z</time>
      </trkpt>
      <trkpt lat="42.7554743550717830657958984375" lon="-7.0718236081302165985107421875">
        <ele>801.79998779296875</ele>
        <time>2019-07-08T16:13:57.000Z</time>
      </trkpt>
      <trkpt lat="42.755627073347568511962890625" lon="-7.07217221148312091827392578125">
        <ele>800.4000244140625</ele>
        <time>2019-07-08T16:13:58.000Z</time>
      </trkpt>
      <trkpt lat="42.75579236447811126708984375" lon="-7.07250815816223621368408203125">
        <ele>801.4000244140625</ele>
        <time>2019-07-08T16:13:59.000Z</time>
      </trkpt>
      <trkpt lat="42.75616410188376903533935546875" lon="-7.07313478924334049224853515625">
        <ele>802.79998779296875</ele>
        <time>2019-07-08T16:14:01.000Z</time>
      </trkpt>
      <trkpt lat="42.75658361613750457763671875" lon="-7.073702327907085418701171875">
        <ele>801.4000244140625</ele>
        <time>2019-07-08T16:14:03.000Z</time>
      </trkpt>
      <trkpt lat="42.75680799968540668487548828125" lon="-7.07395906560122966766357421875">
        <ele>800</ele>
        <time>2019-07-08T16:14:04.000Z</time>
      </trkpt>
      <trkpt lat="42.75704269297420978546142578125" lon="-7.074196524918079376220703125">
        <ele>795.4000244140625</ele>
        <time>2019-07-08T16:14:05.000Z</time>
      </trkpt>
      <trkpt lat="42.7572861872613430023193359375" lon="-7.074414454400539398193359375">
        <ele>789.79998779296875</ele>
        <time>2019-07-08T16:14:06.000Z</time>
      </trkpt>
      <trkpt lat="42.75753714144229888916015625" lon="-7.0746157877147197723388671875">
        <ele>784.79998779296875</ele>
        <time>2019-07-08T16:14:07.000Z</time>
      </trkpt>
      <trkpt lat="42.75779371149837970733642578125" lon="-7.0748001895844936370849609375">
        <ele>780.20001220703125</ele>
        <time>2019-07-08T16:14:08.000Z</time>
      </trkpt>
      <trkpt lat="42.75805346667766571044921875" lon="-7.07497143186628818511962890625">
        <ele>777.5999755859375</ele>
        <time>2019-07-08T16:14:09.000Z</time>
      </trkpt>
      <trkpt lat="42.758315987884998321533203125" lon="-7.07513387314975261688232421875">
        <ele>776.20001220703125</ele>
        <time>2019-07-08T16:14:10.000Z</time>
      </trkpt>
      <trkpt lat="42.75883960537612438201904296875" lon="-7.075458504259586334228515625">
        <ele>778.20001220703125</ele>
        <time>2019-07-08T16:14:12.000Z</time>
      </trkpt>
      <trkpt lat="42.7593555115163326263427734375" lon="-7.07580216228961944580078125">
        <ele>780.20001220703125</ele>
        <time>2019-07-08T16:14:14.000Z</time>
      </trkpt>
      <trkpt lat="42.759869657456874847412109375" lon="-7.0761624164879322052001953125">
        <ele>781.4000244140625</ele>
        <time>2019-07-08T16:14:16.000Z</time>
      </trkpt>
      <trkpt lat="42.76012505404651165008544921875" lon="-7.07635226659476757049560546875">
        <ele>779.79998779296875</ele>
        <time>2019-07-08T16:14:17.000Z</time>
      </trkpt>
      <trkpt lat="42.760625369846820831298828125" lon="-7.0767672546207904815673828125">
        <ele>777.79998779296875</ele>
        <time>2019-07-08T16:14:19.000Z</time>
      </trkpt>
      <trkpt lat="42.76086769066751003265380859375" lon="-7.0769939012825489044189453125">
        <ele>776</ele>
        <time>2019-07-08T16:14:20.000Z</time>
      </trkpt>
      <trkpt lat="42.76110590435564517974853515625" lon="-7.0772332884371280670166015625">
        <ele>771.20001220703125</ele>
        <time>2019-07-08T16:14:21.000Z</time>
      </trkpt>
      <trkpt lat="42.76133908890187740325927734375" lon="-7.07748382352292537689208984375">
        <ele>770</ele>
        <time>2019-07-08T16:14:22.000Z</time>
      </trkpt>
      <trkpt lat="42.761566825211048126220703125" lon="-7.07774617709219455718994140625">
        <ele>772.20001220703125</ele>
        <time>2019-07-08T16:14:23.000Z</time>
      </trkpt>
      <trkpt lat="42.76178902946412563323974609375" lon="-7.0780174992978572845458984375">
        <ele>777.20001220703125</ele>
        <time>2019-07-08T16:14:24.000Z</time>
      </trkpt>
      <trkpt lat="42.76200528256595134735107421875" lon="-7.07829795777797698974609375">
        <ele>779.79998779296875</ele>
        <time>2019-07-08T16:14:25.000Z</time>
      </trkpt>
      <trkpt lat="42.762214243412017822265625" lon="-7.0785894803702831268310546875">
        <ele>782</ele>
        <time>2019-07-08T16:14:26.000Z</time>
      </trkpt>
      <trkpt lat="42.76241465471684932708740234375" lon="-7.07889231853187084197998046875">
        <ele>784</ele>
        <time>2019-07-08T16:14:27.000Z</time>
      </trkpt>
      <trkpt lat="42.7626080252230167388916015625" lon="-7.079204209148883819580078125">
        <ele>785.79998779296875</ele>
        <time>2019-07-08T16:14:28.000Z</time>
      </trkpt>
      <trkpt lat="42.76279418729245662689208984375" lon="-7.0795218832790851593017578125">
        <ele>788</ele>
        <time>2019-07-08T16:14:29.000Z</time>
      </trkpt>
      <trkpt lat="42.7629719674587249755859375" lon="-7.07984550856053829193115234375">
        <ele>789.20001220703125</ele>
        <time>2019-07-08T16:14:30.000Z</time>
      </trkpt>
      <trkpt lat="42.76314287446439266204833984375" lon="-7.08017407916486263275146484375">
        <ele>790.4000244140625</ele>
        <time>2019-07-08T16:14:31.000Z</time>
      </trkpt>
      <trkpt lat="42.7634623087942600250244140625" lon="-7.08084396086633205413818359375">
        <ele>790</ele>
        <time>2019-07-08T16:14:33.000Z</time>
      </trkpt>
      <trkpt lat="42.7637603692710399627685546875" lon="-7.08152960054576396942138671875">
        <ele>788.20001220703125</ele>
        <time>2019-07-08T16:14:35.000Z</time>
      </trkpt>
      <trkpt lat="42.76404728181660175323486328125" lon="-7.08221658132970333099365234375">
        <ele>787</ele>
        <time>2019-07-08T16:14:37.000Z</time>
      </trkpt>
      <trkpt lat="42.7643390558660030364990234375" lon="-7.08289585076272487640380859375">
        <ele>785.79998779296875</ele>
        <time>2019-07-08T16:14:39.000Z</time>
      </trkpt>
      <trkpt lat="42.76464725844562053680419921875" lon="-7.08355668000876903533935546875">
        <ele>784.4000244140625</ele>
        <time>2019-07-08T16:14:41.000Z</time>
      </trkpt>
      <trkpt lat="42.76498873718082904815673828125" lon="-7.08418247289955615997314453125">
        <ele>784</ele>
        <time>2019-07-08T16:14:43.000Z</time>
      </trkpt>
      <trkpt lat="42.7653646655380725860595703125" lon="-7.084771804511547088623046875">
        <ele>784.20001220703125</ele>
        <time>2019-07-08T16:14:45.000Z</time>
      </trkpt>
      <trkpt lat="42.76576473377645015716552734375" lon="-7.08533247001469135284423828125">
        <ele>786</ele>
        <time>2019-07-08T16:14:47.000Z</time>
      </trkpt>
      <trkpt lat="42.76619053445756435394287109375" lon="-7.08585214801132678985595703125">
        <ele>786.4000244140625</ele>
        <time>2019-07-08T16:14:49.000Z</time>
      </trkpt>
      <trkpt lat="42.76641164906322956085205078125" lon="-7.08609790541231632232666015625">
        <ele>787.20001220703125</ele>
        <time>2019-07-08T16:14:50.000Z</time>
      </trkpt>
      <trkpt lat="42.76663745753467082977294921875" lon="-7.08633377216756343841552734375">
        <ele>787.5999755859375</ele>
        <time>2019-07-08T16:14:51.000Z</time>
      </trkpt>
      <trkpt lat="42.76710416190326213836669921875" lon="-7.0867775939404964447021484375">
        <ele>788.20001220703125</ele>
        <time>2019-07-08T16:14:53.000Z</time>
      </trkpt>
      <trkpt lat="42.7673458121716976165771484375" lon="-7.08698588423430919647216796875">
        <ele>788.79998779296875</ele>
        <time>2019-07-08T16:14:54.000Z</time>
      </trkpt>
      <trkpt lat="42.767841182649135589599609375" lon="-7.08737899549305438995361328125">
        <ele>789.4000244140625</ele>
        <time>2019-07-08T16:14:56.000Z</time>
      </trkpt>
      <trkpt lat="42.76834317483007907867431640625" lon="-7.08777378313243389129638671875">
        <ele>789.20001220703125</ele>
        <time>2019-07-08T16:14:58.000Z</time>
      </trkpt>
      <trkpt lat="42.76884575374424457550048828125" lon="-7.08819187246263027191162109375">
        <ele>787.20001220703125</ele>
        <time>2019-07-08T16:15:00.000Z</time>
      </trkpt>
      <trkpt lat="42.76909922249615192413330078125" lon="-7.08840561099350452423095703125">
        <ele>785.5999755859375</ele>
        <time>2019-07-08T16:15:01.000Z</time>
      </trkpt>
      <trkpt lat="42.76935269124805927276611328125" lon="-7.08862203173339366912841796875">
        <ele>783.20001220703125</ele>
        <time>2019-07-08T16:15:02.000Z</time>
      </trkpt>
      <trkpt lat="42.76960414834320545196533203125" lon="-7.08884499035775661468505859375">
        <ele>781.4000244140625</ele>
        <time>2019-07-08T16:15:03.000Z</time>
      </trkpt>
      <trkpt lat="42.77009549550712108612060546875" lon="-7.08931454457342624664306640625">
        <ele>780</ele>
        <time>2019-07-08T16:15:05.000Z</time>
      </trkpt>
      <trkpt lat="42.77033655904233455657958984375" lon="-7.08955879323184490203857421875">
        <ele>779</ele>
        <time>2019-07-08T16:15:06.000Z</time>
      </trkpt>
      <trkpt lat="42.77057561092078685760498046875" lon="-7.08981008268892765045166015625">
        <ele>778</ele>
        <time>2019-07-08T16:15:07.000Z</time>
      </trkpt>
      <trkpt lat="42.770811729133129119873046875" lon="-7.0900643058121204376220703125">
        <ele>777</ele>
        <time>2019-07-08T16:15:08.000Z</time>
      </trkpt>
      <trkpt lat="42.7710442431271076202392578125" lon="-7.09032439626753330230712890625">
        <ele>774.5999755859375</ele>
        <time>2019-07-08T16:15:09.000Z</time>
      </trkpt>
      <trkpt lat="42.77127332054078578948974609375" lon="-7.09059144370257854461669921875">
        <ele>767.79998779296875</ele>
        <time>2019-07-08T16:15:10.000Z</time>
      </trkpt>
      <trkpt lat="42.7714975364506244659423828125" lon="-7.090867124497890472412109375">
        <ele>759.4000244140625</ele>
        <time>2019-07-08T16:15:11.000Z</time>
      </trkpt>
      <trkpt lat="42.77171529829502105712890625" lon="-7.0911529473960399627685546875">
        <ele>750.20001220703125</ele>
        <time>2019-07-08T16:15:12.000Z</time>
      </trkpt>
      <trkpt lat="42.77192677371203899383544921875" lon="-7.0914486609399318695068359375">
        <ele>745.79998779296875</ele>
        <time>2019-07-08T16:15:13.000Z</time>
      </trkpt>
      <trkpt lat="42.7721332199871540069580078125" lon="-7.0917524211108684539794921875">
        <ele>743.4000244140625</ele>
        <time>2019-07-08T16:15:14.000Z</time>
      </trkpt>
      <trkpt lat="42.77233622968196868896484375" lon="-7.09206297062337398529052734375">
        <ele>747.5999755859375</ele>
        <time>2019-07-08T16:15:15.000Z</time>
      </trkpt>
      <trkpt lat="42.772735543549060821533203125" lon="-7.09269965998828411102294921875">
        <ele>749.20001220703125</ele>
        <time>2019-07-08T16:15:17.000Z</time>
      </trkpt>
      <trkpt lat="42.7729335241019725799560546875" lon="-7.093022949993610382080078125">
        <ele>748</ele>
        <time>2019-07-08T16:15:18.000Z</time>
      </trkpt>
      <trkpt lat="42.77313192375004291534423828125" lon="-7.09334783256053924560546875">
        <ele>745.4000244140625</ele>
        <time>2019-07-08T16:15:19.000Z</time>
      </trkpt>
      <trkpt lat="42.7733331732451915740966796875" lon="-7.093670703470706939697265625">
        <ele>737.5999755859375</ele>
        <time>2019-07-08T16:15:20.000Z</time>
      </trkpt>
      <trkpt lat="42.7735390327870845794677734375" lon="-7.09398946724832057952880859375">
        <ele>732.5999755859375</ele>
        <time>2019-07-08T16:15:21.000Z</time>
      </trkpt>
      <trkpt lat="42.77375034056603908538818359375" lon="-7.09430261515080928802490234375">
        <ele>729.5999755859375</ele>
        <time>2019-07-08T16:15:22.000Z</time>
      </trkpt>
      <trkpt lat="42.77396877296268939971923828125" lon="-7.0946036092936992645263671875">
        <ele>728.4000244140625</ele>
        <time>2019-07-08T16:15:23.000Z</time>
      </trkpt>
      <trkpt lat="42.7741941623389720916748046875" lon="-7.094893120229244232177734375">
        <ele>725.5999755859375</ele>
        <time>2019-07-08T16:15:24.000Z</time>
      </trkpt>
      <trkpt lat="42.77442525140941143035888671875" lon="-7.09517131559550762176513671875">
        <ele>724.20001220703125</ele>
        <time>2019-07-08T16:15:25.000Z</time>
      </trkpt>
      <trkpt lat="42.77490486390888690948486328125" lon="-7.0956952683627605438232421875">
        <ele>723.20001220703125</ele>
        <time>2019-07-08T16:15:27.000Z</time>
      </trkpt>
      <trkpt lat="42.77540593408048152923583984375" lon="-7.09617177955806255340576171875">
        <ele>721.4000244140625</ele>
        <time>2019-07-08T16:15:29.000Z</time>
      </trkpt>
      <trkpt lat="42.775661163032054901123046875" lon="-7.09639574401080608367919921875">
        <ele>719.5999755859375</ele>
        <time>2019-07-08T16:15:30.000Z</time>
      </trkpt>
      <trkpt lat="42.7759174816310405731201171875" lon="-7.09661300294101238250732421875">
        <ele>718.4000244140625</ele>
        <time>2019-07-08T16:15:31.000Z</time>
      </trkpt>
      <trkpt lat="42.77617178857326507568359375" lon="-7.0968258194625377655029296875">
        <ele>717</ele>
        <time>2019-07-08T16:15:32.000Z</time>
      </trkpt>
      <trkpt lat="42.776420898735523223876953125" lon="-7.09703410975635051727294921875">
        <ele>715.4000244140625</ele>
        <time>2019-07-08T16:15:33.000Z</time>
      </trkpt>
      <trkpt lat="42.7769109047949314117431640625" lon="-7.09744616411626338958740234375">
        <ele>712.79998779296875</ele>
        <time>2019-07-08T16:15:35.000Z</time>
      </trkpt>
      <trkpt lat="42.7773997373878955841064453125" lon="-7.09785436280071735382080078125">
        <ele>711.79998779296875</ele>
        <time>2019-07-08T16:15:37.000Z</time>
      </trkpt>
      <trkpt lat="42.7778919227421283721923828125" lon="-7.098260633647441864013671875">
        <ele>710.79998779296875</ele>
        <time>2019-07-08T16:15:39.000Z</time>
      </trkpt>
      <trkpt lat="42.77813851833343505859375" lon="-7.09846322424709796905517578125">
        <ele>709.79998779296875</ele>
        <time>2019-07-08T16:15:40.000Z</time>
      </trkpt>
      <trkpt lat="42.778384275734424591064453125" lon="-7.09866673685610294342041015625">
        <ele>707.79998779296875</ele>
        <time>2019-07-08T16:15:41.000Z</time>
      </trkpt>
      <trkpt lat="42.7786298654973506927490234375" lon="-7.0988720096647739410400390625">
        <ele>705.4000244140625</ele>
        <time>2019-07-08T16:15:42.000Z</time>
      </trkpt>
      <trkpt lat="42.7788746170699596405029296875" lon="-7.099078707396984100341796875">
        <ele>702.4000244140625</ele>
        <time>2019-07-08T16:15:43.000Z</time>
      </trkpt>
      <trkpt lat="42.7791200391948223114013671875" lon="-7.09928599186241626739501953125">
        <ele>700.79998779296875</ele>
        <time>2019-07-08T16:15:44.000Z</time>
      </trkpt>
      <trkpt lat="42.77961440384387969970703125" lon="-7.09969737567007541656494140625">
        <ele>699.20001220703125</ele>
        <time>2019-07-08T16:15:46.000Z</time>
      </trkpt>
      <trkpt lat="42.78010818175971508026123046875" lon="-7.10011043585836887359619140625">
        <ele>696.79998779296875</ele>
        <time>2019-07-08T16:15:48.000Z</time>
      </trkpt>
      <trkpt lat="42.78059869073331356048583984375" lon="-7.10053741000592708587646484375">
        <ele>695</ele>
        <time>2019-07-08T16:15:50.000Z</time>
      </trkpt>
      <trkpt lat="42.78084243647754192352294921875" lon="-7.1007559262216091156005859375">
        <ele>692.5999755859375</ele>
        <time>2019-07-08T16:15:51.000Z</time>
      </trkpt>
      <trkpt lat="42.78108517639338970184326171875" lon="-7.10098030976951122283935546875">
        <ele>691.4000244140625</ele>
        <time>2019-07-08T16:15:52.000Z</time>
      </trkpt>
      <trkpt lat="42.7813248150050640106201171875" lon="-7.1012095548212528228759765625">
        <ele>690.20001220703125</ele>
        <time>2019-07-08T16:15:53.000Z</time>
      </trkpt>
      <trkpt lat="42.7815595082938671112060546875" lon="-7.10144349373877048492431640625">
        <ele>689</ele>
        <time>2019-07-08T16:15:54.000Z</time>
      </trkpt>
      <trkpt lat="42.78201523236930370330810546875" lon="-7.10192880593240261077880859375">
        <ele>687.5999755859375</ele>
        <time>2019-07-08T16:15:56.000Z</time>
      </trkpt>
      <trkpt lat="42.78223182074725627899169921875" lon="-7.10217540152370929718017578125">
        <ele>686</ele>
        <time>2019-07-08T16:15:57.000Z</time>
      </trkpt>
      <trkpt lat="42.7824372611939907073974609375" lon="-7.102420739829540252685546875">
        <ele>683.79998779296875</ele>
        <time>2019-07-08T16:15:58.000Z</time>
      </trkpt>
      <trkpt lat="42.78263281099498271942138671875" lon="-7.1026624739170074462890625">
        <ele>682.5999755859375</ele>
        <time>2019-07-08T16:15:59.000Z</time>
      </trkpt>
      <trkpt lat="42.78281922452151775360107421875" lon="-7.10290186107158660888671875">
        <ele>680.5999755859375</ele>
        <time>2019-07-08T16:16:00.000Z</time>
      </trkpt>
      <trkpt lat="42.78299876488745212554931640625" lon="-7.103141583502292633056640625">
        <ele>678.5999755859375</ele>
        <time>2019-07-08T16:16:01.000Z</time>
      </trkpt>
      <trkpt lat="42.783172689378261566162109375" lon="-7.1033834852278232574462890625">
        <ele>677</ele>
        <time>2019-07-08T16:16:02.000Z</time>
      </trkpt>
      <trkpt lat="42.78350721113383769989013671875" lon="-7.10387089289724826812744140625">
        <ele>676.20001220703125</ele>
        <time>2019-07-08T16:16:04.000Z</time>
      </trkpt>
      <trkpt lat="42.783666215837001800537109375" lon="-7.1041147224605083465576171875">
        <ele>676</ele>
        <time>2019-07-08T16:16:05.000Z</time>
      </trkpt>
      <trkpt lat="42.78395866043865680694580078125" lon="-7.10458721034228801727294921875">
        <ele>676.79998779296875</ele>
        <time>2019-07-08T16:16:07.000Z</time>
      </trkpt>
      <trkpt lat="42.7840945310890674591064453125" lon="-7.1048151142895221710205078125">
        <ele>678</ele>
        <time>2019-07-08T16:16:08.000Z</time>
      </trkpt>
      <trkpt lat="42.7843526937067508697509765625" lon="-7.105261869728565216064453125">
        <ele>679.79998779296875</ele>
        <time>2019-07-08T16:16:10.000Z</time>
      </trkpt>
      <trkpt lat="42.7846168912947177886962890625" lon="-7.10570217110216617584228515625">
        <ele>681</ele>
        <time>2019-07-08T16:16:12.000Z</time>
      </trkpt>
      <trkpt lat="42.78502039611339569091796875" lon="-7.1063664369285106658935546875">
        <ele>679.20001220703125</ele>
        <time>2019-07-08T16:16:15.000Z</time>
      </trkpt>
      <trkpt lat="42.7853067219257354736328125" lon="-7.10681964643299579620361328125">
        <ele>678</ele>
        <time>2019-07-08T16:16:17.000Z</time>
      </trkpt>
      <trkpt lat="42.78545558452606201171875" lon="-7.10706330835819244384765625">
        <ele>676.79998779296875</ele>
        <time>2019-07-08T16:16:18.000Z</time>
      </trkpt>
      <trkpt lat="42.78560268692672252655029296875" lon="-7.107306383550167083740234375">
        <ele>675.4000244140625</ele>
        <time>2019-07-08T16:16:19.000Z</time>
      </trkpt>
      <trkpt lat="42.789928503334522247314453125" lon="-7.1095294319093227386474609375">
        <ele>668.20001220703125</ele>
        <time>2019-07-08T16:16:40.000Z</time>
      </trkpt>
      <trkpt lat="42.79011927545070648193359375" lon="-7.10950721986591815948486328125">
        <ele>666.79998779296875</ele>
        <time>2019-07-08T16:16:41.000Z</time>
      </trkpt>
      <trkpt lat="42.79039629735052585601806640625" lon="-7.1095262467861175537109375">
        <ele>665</ele>
        <time>2019-07-08T16:16:42.000Z</time>
      </trkpt>
      <trkpt lat="42.790672816336154937744140625" lon="-7.1095056273043155670166015625">
        <ele>663</ele>
        <time>2019-07-08T16:16:43.000Z</time>
      </trkpt>
      <trkpt lat="42.79095486737787723541259765625" lon="-7.1094771288335323333740234375">
        <ele>662</ele>
        <time>2019-07-08T16:16:44.000Z</time>
      </trkpt>
      <trkpt lat="42.79124119319021701812744140625" lon="-7.1094350516796112060546875">
        <ele>660.79998779296875</ele>
        <time>2019-07-08T16:16:45.000Z</time>
      </trkpt>
      <trkpt lat="42.79152768664062023162841796875" lon="-7.109366320073604583740234375">
        <ele>659.5999755859375</ele>
        <time>2019-07-08T16:16:46.000Z</time>
      </trkpt>
      <trkpt lat="42.79210302047431468963623046875" lon="-7.109165154397487640380859375">
        <ele>657.79998779296875</ele>
        <time>2019-07-08T16:16:48.000Z</time>
      </trkpt>
      <trkpt lat="42.7923872508108615875244140625" lon="-7.1090405993163585662841796875">
        <ele>656</ele>
        <time>2019-07-08T16:16:49.000Z</time>
      </trkpt>
      <trkpt lat="42.7926631830632686614990234375" lon="-7.10889928042888641357421875">
        <ele>653.79998779296875</ele>
        <time>2019-07-08T16:16:50.000Z</time>
      </trkpt>
      <trkpt lat="42.79293618164956569671630859375" lon="-7.108748741447925567626953125">
        <ele>651.5999755859375</ele>
        <time>2019-07-08T16:16:51.000Z</time>
      </trkpt>
      <trkpt lat="42.79320876114070415496826171875" lon="-7.1085976995527744293212890625">
        <ele>649.79998779296875</ele>
        <time>2019-07-08T16:16:52.000Z</time>
      </trkpt>
      <trkpt lat="42.7934839390218257904052734375" lon="-7.10845076479017734527587890625">
        <ele>647.4000244140625</ele>
        <time>2019-07-08T16:16:53.000Z</time>
      </trkpt>
      <trkpt lat="42.7937622182071208953857421875" lon="-7.10831413976848125457763671875">
        <ele>644.5999755859375</ele>
        <time>2019-07-08T16:16:54.000Z</time>
      </trkpt>
      <trkpt lat="42.79404594562947750091552734375" lon="-7.10819008760154247283935546875">
        <ele>642.5999755859375</ele>
        <time>2019-07-08T16:16:55.000Z</time>
      </trkpt>
      <trkpt lat="42.79432891868054866790771484375" lon="-7.108078859746456146240234375">
        <ele>639.5999755859375</ele>
        <time>2019-07-08T16:16:56.000Z</time>
      </trkpt>
      <trkpt lat="42.79460887424647808074951171875" lon="-7.10797727108001708984375">
        <ele>638.4000244140625</ele>
        <time>2019-07-08T16:16:57.000Z</time>
      </trkpt>
      <trkpt lat="42.79488799162209033966064453125" lon="-7.107890434563159942626953125">
        <ele>637.20001220703125</ele>
        <time>2019-07-08T16:16:58.000Z</time>
      </trkpt>
      <trkpt lat="42.7951665222644805908203125" lon="-7.1078195236623287200927734375">
        <ele>635.79998779296875</ele>
        <time>2019-07-08T16:16:59.000Z</time>
      </trkpt>
      <trkpt lat="42.79572777450084686279296875" lon="-7.1077330224215984344482421875">
        <ele>635</ele>
        <time>2019-07-08T16:17:01.000Z</time>
      </trkpt>
      <trkpt lat="42.79600664041936397552490234375" lon="-7.10771298967301845550537109375">
        <ele>634.4000244140625</ele>
        <time>2019-07-08T16:17:02.000Z</time>
      </trkpt>
      <trkpt lat="42.7962781302630901336669921875" lon="-7.10770343430340290069580078125">
        <ele>631.4000244140625</ele>
        <time>2019-07-08T16:17:03.000Z</time>
      </trkpt>
      <trkpt lat="42.79654140584170818328857421875" lon="-7.1077065356075763702392578125">
        <ele>628</ele>
        <time>2019-07-08T16:17:04.000Z</time>
      </trkpt>
      <trkpt lat="42.7968021668493747711181640625" lon="-7.1077202819287776947021484375">
        <ele>625.20001220703125</ele>
        <time>2019-07-08T16:17:05.000Z</time>
      </trkpt>
      <trkpt lat="42.79706083238124847412109375" lon="-7.1077444218099117279052734375">
        <ele>623</ele>
        <time>2019-07-08T16:17:06.000Z</time>
      </trkpt>
      <trkpt lat="42.79731723479926586151123046875" lon="-7.107775099575519561767578125">
        <ele>621.79998779296875</ele>
        <time>2019-07-08T16:17:07.000Z</time>
      </trkpt>
      <trkpt lat="42.79782551340758800506591796875" lon="-7.10784760303795337677001953125">
        <ele>622.4000244140625</ele>
        <time>2019-07-08T16:17:09.000Z</time>
      </trkpt>
      <trkpt lat="42.798080742359161376953125" lon="-7.10788431577384471893310546875">
        <ele>622.79998779296875</ele>
        <time>2019-07-08T16:17:10.000Z</time>
      </trkpt>
      <trkpt lat="42.798594720661640167236328125" lon="-7.10794634185731410980224609375">
        <ele>624.79998779296875</ele>
        <time>2019-07-08T16:17:12.000Z</time>
      </trkpt>
      <trkpt lat="42.79912118799984455108642578125" lon="-7.107984982430934906005859375">
        <ele>624</ele>
        <time>2019-07-08T16:17:14.000Z</time>
      </trkpt>
      <trkpt lat="42.7994002215564250946044921875" lon="-7.10799981839954853057861328125">
        <ele>622.5999755859375</ele>
        <time>2019-07-08T16:17:15.000Z</time>
      </trkpt>
      <trkpt lat="42.79968964867293834686279296875" lon="-7.1080106310546398162841796875">
        <ele>620.20001220703125</ele>
        <time>2019-07-08T16:17:16.000Z</time>
      </trkpt>
      <trkpt lat="42.79998385347425937652587890625" lon="-7.1080136485397815704345703125">
        <ele>617.4000244140625</ele>
        <time>2019-07-08T16:17:17.000Z</time>
      </trkpt>
      <trkpt lat="42.8002799861133098602294921875" lon="-7.10800786502659320831298828125">
        <ele>614.20001220703125</ele>
        <time>2019-07-08T16:17:18.000Z</time>
      </trkpt>
      <trkpt lat="42.80057745985686779022216796875" lon="-7.1079925261437892913818359375">
        <ele>610.5999755859375</ele>
        <time>2019-07-08T16:17:19.000Z</time>
      </trkpt>
      <trkpt lat="42.80087493360042572021484375" lon="-7.10796478204429149627685546875">
        <ele>608.79998779296875</ele>
        <time>2019-07-08T16:17:20.000Z</time>
      </trkpt>
      <trkpt lat="42.80117332935333251953125" lon="-7.10792454890906810760498046875">
        <ele>607.5999755859375</ele>
        <time>2019-07-08T16:17:21.000Z</time>
      </trkpt>
      <trkpt lat="42.8017719648778438568115234375" lon="-7.10780083201825618743896484375">
        <ele>606.5999755859375</ele>
        <time>2019-07-08T16:17:23.000Z</time>
      </trkpt>
      <trkpt lat="42.80236884020268917083740234375" lon="-7.1076455153524875640869140625">
        <ele>605.79998779296875</ele>
        <time>2019-07-08T16:17:25.000Z</time>
      </trkpt>
      <trkpt lat="42.80266530811786651611328125" lon="-7.10756278596818447113037109375">
        <ele>605.4000244140625</ele>
        <time>2019-07-08T16:17:26.000Z</time>
      </trkpt>
      <trkpt lat="42.8032525442540645599365234375" lon="-7.1073783002793788909912109375">
        <ele>604</ele>
        <time>2019-07-08T16:17:28.000Z</time>
      </trkpt>
      <trkpt lat="42.80382880009710788726806640625" lon="-7.10715324617922306060791015625">
        <ele>602.20001220703125</ele>
        <time>2019-07-08T16:17:30.000Z</time>
      </trkpt>
      <trkpt lat="42.804390303790569305419921875" lon="-7.10687161423265933990478515625">
        <ele>601.20001220703125</ele>
        <time>2019-07-08T16:17:32.000Z</time>
      </trkpt>
      <trkpt lat="42.80493353493511676788330078125" lon="-7.10652711801230907440185546875">
        <ele>601.79998779296875</ele>
        <time>2019-07-08T16:17:34.000Z</time>
      </trkpt>
      <trkpt lat="42.80519806779921054840087890625" lon="-7.1063344180583953857421875">
        <ele>600.5999755859375</ele>
        <time>2019-07-08T16:17:35.000Z</time>
      </trkpt>
      <trkpt lat="42.80571204610168933868408203125" lon="-7.10592010058462619781494140625">
        <ele>598.4000244140625</ele>
        <time>2019-07-08T16:17:37.000Z</time>
      </trkpt>
      <trkpt lat="42.805961072444915771484375" lon="-7.1056995727121829986572265625">
        <ele>596.20001220703125</ele>
        <time>2019-07-08T16:17:38.000Z</time>
      </trkpt>
      <trkpt lat="42.80645635910332202911376953125" lon="-7.1052670665085315704345703125">
        <ele>595.4000244140625</ele>
        <time>2019-07-08T16:17:40.000Z</time>
      </trkpt>
      <trkpt lat="42.80696757137775421142578125" lon="-7.10487990640103816986083984375">
        <ele>596.5999755859375</ele>
        <time>2019-07-08T16:17:42.000Z</time>
      </trkpt>
      <trkpt lat="42.80723285861313343048095703125" lon="-7.104712687432765960693359375">
        <ele>595</ele>
        <time>2019-07-08T16:17:43.000Z</time>
      </trkpt>
      <trkpt lat="42.80750309117138385772705078125" lon="-7.104562483727931976318359375">
        <ele>596</ele>
        <time>2019-07-08T16:17:44.000Z</time>
      </trkpt>
      <trkpt lat="42.80777935869991779327392578125" lon="-7.1044328995048999786376953125">
        <ele>594.79998779296875</ele>
        <time>2019-07-08T16:17:45.000Z</time>
      </trkpt>
      <trkpt lat="42.8083413653075695037841796875" lon="-7.10423315875232219696044921875">
        <ele>595.20001220703125</ele>
        <time>2019-07-08T16:17:47.000Z</time>
      </trkpt>
      <trkpt lat="42.80891393311321735382080078125" lon="-7.10411631502211093902587890625">
        <ele>594</ele>
        <time>2019-07-08T16:17:49.000Z</time>
      </trkpt>
      <trkpt lat="42.80920176766812801361083984375" lon="-7.10408848710358142852783203125">
        <ele>593.20001220703125</ele>
        <time>2019-07-08T16:17:50.000Z</time>
      </trkpt>
      <trkpt lat="42.80948859639465808868408203125" lon="-7.10407993756234645843505859375">
        <ele>589.5999755859375</ele>
        <time>2019-07-08T16:17:51.000Z</time>
      </trkpt>
      <trkpt lat="42.80977425165474414825439453125" lon="-7.1040889061987400054931640625">
        <ele>587.4000244140625</ele>
        <time>2019-07-08T16:17:52.000Z</time>
      </trkpt>
      <trkpt lat="42.81005906872451305389404296875" lon="-7.104117237031459808349609375">
        <ele>585.4000244140625</ele>
        <time>2019-07-08T16:17:53.000Z</time>
      </trkpt>
      <trkpt lat="42.81034371815621852874755859375" lon="-7.1041656844317913055419921875">
        <ele>584.20001220703125</ele>
        <time>2019-07-08T16:17:54.000Z</time>
      </trkpt>
      <trkpt lat="42.8106276132166385650634765625" lon="-7.1042334102094173431396484375">
        <ele>582</ele>
        <time>2019-07-08T16:17:55.000Z</time>
      </trkpt>
      <trkpt lat="42.81119531951844692230224609375" lon="-7.10441756062209606170654296875">
        <ele>583.20001220703125</ele>
        <time>2019-07-08T16:17:57.000Z</time>
      </trkpt>
      <trkpt lat="42.811765708029270172119140625" lon="-7.1046414412558078765869140625">
        <ele>584.20001220703125</ele>
        <time>2019-07-08T16:17:59.000Z</time>
      </trkpt>
      <trkpt lat="42.8120538778603076934814453125" lon="-7.1047557704150676727294921875">
        <ele>584.5999755859375</ele>
        <time>2019-07-08T16:18:00.000Z</time>
      </trkpt>
      <trkpt lat="42.81263633631169795989990234375" lon="-7.104978896677494049072265625">
        <ele>585</ele>
        <time>2019-07-08T16:18:02.000Z</time>
      </trkpt>
      <trkpt lat="42.81293020583689212799072265625" lon="-7.10508878342807292938232421875">
        <ele>583</ele>
        <time>2019-07-08T16:18:03.000Z</time>
      </trkpt>
      <trkpt lat="42.81351677142083644866943359375" lon="-7.10531827993690967559814453125">
        <ele>580</ele>
        <time>2019-07-08T16:18:05.000Z</time>
      </trkpt>
      <trkpt lat="42.81380929984152317047119140625" lon="-7.10543327964842319488525390625">
        <ele>577.4000244140625</ele>
        <time>2019-07-08T16:18:06.000Z</time>
      </trkpt>
      <trkpt lat="42.81410090625286102294921875" lon="-7.10554777644574642181396484375">
        <ele>576</ele>
        <time>2019-07-08T16:18:07.000Z</time>
      </trkpt>
      <trkpt lat="42.8146797604858875274658203125" lon="-7.10577291436493396759033203125">
        <ele>578.79998779296875</ele>
        <time>2019-07-08T16:18:09.000Z</time>
      </trkpt>
      <trkpt lat="42.814965583384037017822265625" lon="-7.105881460011005401611328125">
        <ele>579.79998779296875</ele>
        <time>2019-07-08T16:18:10.000Z</time>
      </trkpt>
      <trkpt lat="42.815529517829418182373046875" lon="-7.10609477944672107696533203125">
        <ele>579.79998779296875</ele>
        <time>2019-07-08T16:18:12.000Z</time>
      </trkpt>
      <trkpt lat="42.816090770065784454345703125" lon="-7.10630902089178562164306640625">
        <ele>580.79998779296875</ele>
        <time>2019-07-08T16:18:14.000Z</time>
      </trkpt>
      <trkpt lat="42.81664975918829441070556640625" lon="-7.106525190174579620361328125">
        <ele>579.79998779296875</ele>
        <time>2019-07-08T16:18:16.000Z</time>
      </trkpt>
      <trkpt lat="42.817203216254711151123046875" lon="-7.1067717857658863067626953125">
        <ele>578.79998779296875</ele>
        <time>2019-07-08T16:18:18.000Z</time>
      </trkpt>
      <trkpt lat="42.81774510629475116729736328125" lon="-7.107075713574886322021484375">
        <ele>578.4000244140625</ele>
        <time>2019-07-08T16:18:20.000Z</time>
      </trkpt>
      <trkpt lat="42.818270735442638397216796875" lon="-7.10743823088705539703369140625">
        <ele>577.4000244140625</ele>
        <time>2019-07-08T16:18:22.000Z</time>
      </trkpt>
      <trkpt lat="42.818777672946453094482421875" lon="-7.10785967297852039337158203125">
        <ele>576</ele>
        <time>2019-07-08T16:18:24.000Z</time>
      </trkpt>
      <trkpt lat="42.81926239840686321258544921875" lon="-7.10833727382123470306396484375">
        <ele>575.20001220703125</ele>
        <time>2019-07-08T16:18:26.000Z</time>
      </trkpt>
      <trkpt lat="42.81949256546795368194580078125" lon="-7.10859845392405986785888671875">
        <ele>574.20001220703125</ele>
        <time>2019-07-08T16:18:27.000Z</time>
      </trkpt>
      <trkpt lat="42.81971476972103118896484375" lon="-7.10887069813907146453857421875">
        <ele>573</ele>
        <time>2019-07-08T16:18:28.000Z</time>
      </trkpt>
      <trkpt lat="42.82013059593737125396728515625" lon="-7.1094499714672565460205078125">
        <ele>572.20001220703125</ele>
        <time>2019-07-08T16:18:30.000Z</time>
      </trkpt>
      <trkpt lat="42.82051398418843746185302734375" lon="-7.11006679572165012359619140625">
        <ele>571.5999755859375</ele>
        <time>2019-07-08T16:18:32.000Z</time>
      </trkpt>
      <trkpt lat="42.8208853863179683685302734375" lon="-7.1107045747339725494384765625">
        <ele>570</ele>
        <time>2019-07-08T16:18:34.000Z</time>
      </trkpt>
      <trkpt lat="42.821255028247833251953125" lon="-7.11134302429854869842529296875">
        <ele>567.79998779296875</ele>
        <time>2019-07-08T16:18:36.000Z</time>
      </trkpt>
      <trkpt lat="42.8214432857930660247802734375" lon="-7.11165667511522769927978515625">
        <ele>566</ele>
        <time>2019-07-08T16:18:37.000Z</time>
      </trkpt>
      <trkpt lat="42.82163766212761402130126953125" lon="-7.11196395568549633026123046875">
        <ele>563.79998779296875</ele>
        <time>2019-07-08T16:18:38.000Z</time>
      </trkpt>
      <trkpt lat="42.8218345530331134796142578125" lon="-7.112270481884479522705078125">
        <ele>562.5999755859375</ele>
        <time>2019-07-08T16:18:39.000Z</time>
      </trkpt>
      <trkpt lat="42.82203429378569126129150390625" lon="-7.112574912607669830322265625">
        <ele>559.4000244140625</ele>
        <time>2019-07-08T16:18:40.000Z</time>
      </trkpt>
      <trkpt lat="42.82244785688817501068115234375" lon="-7.1131748892366886138916015625">
        <ele>559.4000244140625</ele>
        <time>2019-07-08T16:18:42.000Z</time>
      </trkpt>
      <trkpt lat="42.82288388349115848541259765625" lon="-7.11375835351645946502685546875">
        <ele>559.5999755859375</ele>
        <time>2019-07-08T16:18:44.000Z</time>
      </trkpt>
      <trkpt lat="42.82333734445273876190185546875" lon="-7.114313654601573944091796875">
        <ele>560.5999755859375</ele>
        <time>2019-07-08T16:18:46.000Z</time>
      </trkpt>
      <trkpt lat="42.82357002608478069305419921875" lon="-7.114578187465667724609375">
        <ele>561.20001220703125</ele>
        <time>2019-07-08T16:18:47.000Z</time>
      </trkpt>
      <trkpt lat="42.8238059766590595245361328125" lon="-7.11483727209270000457763671875">
        <ele>562.5999755859375</ele>
        <time>2019-07-08T16:18:48.000Z</time>
      </trkpt>
      <trkpt lat="42.82428517006337642669677734375" lon="-7.11533389985561370849609375">
        <ele>563.4000244140625</ele>
        <time>2019-07-08T16:18:50.000Z</time>
      </trkpt>
      <trkpt lat="42.82452799379825592041015625" lon="-7.1155701018869876861572265625">
        <ele>563.79998779296875</ele>
        <time>2019-07-08T16:18:51.000Z</time>
      </trkpt>
      <trkpt lat="42.8250173293054103851318359375" lon="-7.11602431721985340118408203125">
        <ele>563.79998779296875</ele>
        <time>2019-07-08T16:18:53.000Z</time>
      </trkpt>
      <trkpt lat="42.8255192376673221588134765625" lon="-7.1164542250335216522216796875">
        <ele>563.5999755859375</ele>
        <time>2019-07-08T16:18:55.000Z</time>
      </trkpt>
      <trkpt lat="42.82603631727397441864013671875" lon="-7.11685479618608951568603515625">
        <ele>562.20001220703125</ele>
        <time>2019-07-08T16:18:57.000Z</time>
      </trkpt>
      <trkpt lat="42.82629934139549732208251953125" lon="-7.11704338900744915008544921875">
        <ele>559.4000244140625</ele>
        <time>2019-07-08T16:18:58.000Z</time>
      </trkpt>
      <trkpt lat="42.82656379044055938720703125" lon="-7.11722619831562042236328125">
        <ele>556.5999755859375</ele>
        <time>2019-07-08T16:18:59.000Z</time>
      </trkpt>
      <trkpt lat="42.8268299996852874755859375" lon="-7.11740364320576190948486328125">
        <ele>555.4000244140625</ele>
        <time>2019-07-08T16:19:00.000Z</time>
      </trkpt>
      <trkpt lat="42.82737608067691326141357421875" lon="-7.1177145279943943023681640625">
        <ele>556</ele>
        <time>2019-07-08T16:19:02.000Z</time>
      </trkpt>
      <trkpt lat="42.8279409371316432952880859375" lon="-7.117933295667171478271484375">
        <ele>556.5999755859375</ele>
        <time>2019-07-08T16:19:04.000Z</time>
      </trkpt>
      <trkpt lat="42.82852222211658954620361328125" lon="-7.11805290542542934417724609375">
        <ele>557</ele>
        <time>2019-07-08T16:19:06.000Z</time>
      </trkpt>
      <trkpt lat="42.8291098773479461669921875" lon="-7.1180836670100688934326171875">
        <ele>557.20001220703125</ele>
        <time>2019-07-08T16:19:08.000Z</time>
      </trkpt>
      <trkpt lat="42.82940483652055263519287109375" lon="-7.118069417774677276611328125">
        <ele>557.5999755859375</ele>
        <time>2019-07-08T16:19:09.000Z</time>
      </trkpt>
      <trkpt lat="42.82999089919030666351318359375" lon="-7.11797629483044147491455078125">
        <ele>558</ele>
        <time>2019-07-08T16:19:11.000Z</time>
      </trkpt>
      <trkpt lat="42.8305782191455364227294921875" lon="-7.1178322099149227142333984375">
        <ele>558.4000244140625</ele>
        <time>2019-07-08T16:19:13.000Z</time>
      </trkpt>
      <trkpt lat="42.83087267540395259857177734375" lon="-7.1177510730922222137451171875">
        <ele>558.79998779296875</ele>
        <time>2019-07-08T16:19:14.000Z</time>
      </trkpt>
      <trkpt lat="42.83147064037621021270751953125" lon="-7.1175943315029144287109375">
        <ele>559.4000244140625</ele>
        <time>2019-07-08T16:19:16.000Z</time>
      </trkpt>
      <trkpt lat="42.8320752270519733428955078125" lon="-7.117437422275543212890625">
        <ele>557</ele>
        <time>2019-07-08T16:19:18.000Z</time>
      </trkpt>
      <trkpt lat="42.83238125033676624298095703125" lon="-7.117357961833477020263671875">
        <ele>555.79998779296875</ele>
        <time>2019-07-08T16:19:19.000Z</time>
      </trkpt>
      <trkpt lat="42.83298994414508342742919921875" lon="-7.11719811893999576568603515625">
        <ele>555.5999755859375</ele>
        <time>2019-07-08T16:19:21.000Z</time>
      </trkpt>
      <trkpt lat="42.8332919441163539886474609375" lon="-7.11711765266954898834228515625">
        <ele>554.4000244140625</ele>
        <time>2019-07-08T16:19:22.000Z</time>
      </trkpt>
      <trkpt lat="42.833593524992465972900390625" lon="-7.1170369349420070648193359375">
        <ele>553</ele>
        <time>2019-07-08T16:19:23.000Z</time>
      </trkpt>
      <trkpt lat="42.83419576473534107208251953125" lon="-7.11686871014535427093505859375">
        <ele>554.4000244140625</ele>
        <time>2019-07-08T16:19:25.000Z</time>
      </trkpt>
      <trkpt lat="42.83449633978307247161865234375" lon="-7.116789333522319793701171875">
        <ele>553.20001220703125</ele>
        <time>2019-07-08T16:19:26.000Z</time>
      </trkpt>
      <trkpt lat="42.83479792065918445587158203125" lon="-7.1167170815169811248779296875">
        <ele>551.4000244140625</ele>
        <time>2019-07-08T16:19:27.000Z</time>
      </trkpt>
      <trkpt lat="42.8354031778872013092041015625" lon="-7.1165983937680721282958984375">
        <ele>549.5999755859375</ele>
        <time>2019-07-08T16:19:29.000Z</time>
      </trkpt>
      <trkpt lat="42.83601480536162853240966796875" lon="-7.116523124277591705322265625">
        <ele>548.4000244140625</ele>
        <time>2019-07-08T16:19:31.000Z</time>
      </trkpt>
      <trkpt lat="42.8363211639225482940673828125" lon="-7.11650074459612369537353515625">
        <ele>546.4000244140625</ele>
        <time>2019-07-08T16:19:32.000Z</time>
      </trkpt>
      <trkpt lat="42.83662819303572177886962890625" lon="-7.11649303324520587921142578125">
        <ele>544.79998779296875</ele>
        <time>2019-07-08T16:19:33.000Z</time>
      </trkpt>
      <trkpt lat="42.83693455159664154052734375" lon="-7.11650107987225055694580078125">
        <ele>542.20001220703125</ele>
        <time>2019-07-08T16:19:34.000Z</time>
      </trkpt>
      <trkpt lat="42.83724074251949787139892578125" lon="-7.1165216155350208282470703125">
        <ele>540.79998779296875</ele>
        <time>2019-07-08T16:19:35.000Z</time>
      </trkpt>
      <trkpt lat="42.8378567285835742950439453125" lon="-7.11660551838576793670654296875">
        <ele>539</ele>
        <time>2019-07-08T16:19:37.000Z</time>
      </trkpt>
      <trkpt lat="42.83847657032310962677001953125" lon="-7.116745077073574066162109375">
        <ele>540.20001220703125</ele>
        <time>2019-07-08T16:19:39.000Z</time>
      </trkpt>
      <trkpt lat="42.8390888683497905731201171875" lon="-7.11694012396037578582763671875">
        <ele>541.4000244140625</ele>
        <time>2019-07-08T16:19:41.000Z</time>
      </trkpt>
      <trkpt lat="42.83968448638916015625" lon="-7.1171901561319828033447265625">
        <ele>540</ele>
        <time>2019-07-08T16:19:43.000Z</time>
      </trkpt>
      <trkpt lat="42.83997776918113231658935546875" lon="-7.11733574979007244110107421875">
        <ele>539</ele>
        <time>2019-07-08T16:19:44.000Z</time>
      </trkpt>
      <trkpt lat="42.84026610665023326873779296875" lon="-7.1174965985119342803955078125">
        <ele>534.4000244140625</ele>
        <time>2019-07-08T16:19:45.000Z</time>
      </trkpt>
      <trkpt lat="42.8405496664345264434814453125" lon="-7.1176682598888874053955078125">
        <ele>528.5999755859375</ele>
        <time>2019-07-08T16:19:46.000Z</time>
      </trkpt>
      <trkpt lat="42.8408302925527095794677734375" lon="-7.1178489737212657928466796875">
        <ele>524.5999755859375</ele>
        <time>2019-07-08T16:19:47.000Z</time>
      </trkpt>
      <trkpt lat="42.84110798500478267669677734375" lon="-7.1180353872478008270263671875">
        <ele>519.20001220703125</ele>
        <time>2019-07-08T16:19:48.000Z</time>
      </trkpt>
      <trkpt lat="42.84138509072363376617431640625" lon="-7.1182238124310970306396484375">
        <ele>516.5999755859375</ele>
        <time>2019-07-08T16:19:49.000Z</time>
      </trkpt>
      <trkpt lat="42.841943912208080291748046875" lon="-7.118596136569976806640625">
        <ele>518.20001220703125</ele>
        <time>2019-07-08T16:19:51.000Z</time>
      </trkpt>
      <trkpt lat="42.8422260470688343048095703125" lon="-7.1187756769359111785888671875">
        <ele>520.5999755859375</ele>
        <time>2019-07-08T16:19:52.000Z</time>
      </trkpt>
      <trkpt lat="42.84251128323376178741455078125" lon="-7.11894281208515167236328125">
        <ele>522.5999755859375</ele>
        <time>2019-07-08T16:19:53.000Z</time>
      </trkpt>
      <trkpt lat="42.843093238770961761474609375" lon="-7.119230143725872039794921875">
        <ele>522</ele>
        <time>2019-07-08T16:19:55.000Z</time>
      </trkpt>
      <trkpt lat="42.843389622867107391357421875" lon="-7.11935461498796939849853515625">
        <ele>521.5999755859375</ele>
        <time>2019-07-08T16:19:56.000Z</time>
      </trkpt>
      <trkpt lat="42.8436881862580776214599609375" lon="-7.11946693249046802520751953125">
        <ele>519.5999755859375</ele>
        <time>2019-07-08T16:19:57.000Z</time>
      </trkpt>
      <trkpt lat="42.84398876130580902099609375" lon="-7.11956919170916080474853515625">
        <ele>517.4000244140625</ele>
        <time>2019-07-08T16:19:58.000Z</time>
      </trkpt>
      <trkpt lat="42.84428916871547698974609375" lon="-7.1196628175675868988037109375">
        <ele>515.79998779296875</ele>
        <time>2019-07-08T16:19:59.000Z</time>
      </trkpt>
      <trkpt lat="42.8448812663555145263671875" lon="-7.11985568515956401824951171875">
        <ele>515</ele>
        <time>2019-07-08T16:20:01.000Z</time>
      </trkpt>
      <trkpt lat="42.84545182250440120697021484375" lon="-7.12008409202098846435546875">
        <ele>515.20001220703125</ele>
        <time>2019-07-08T16:20:03.000Z</time>
      </trkpt>
      <trkpt lat="42.8460002504289150238037109375" lon="-7.12036815471947193145751953125">
        <ele>516</ele>
        <time>2019-07-08T16:20:05.000Z</time>
      </trkpt>
      <trkpt lat="42.8462661243975162506103515625" lon="-7.1205311827361583709716796875">
        <ele>518</ele>
        <time>2019-07-08T16:20:06.000Z</time>
      </trkpt>
      <trkpt lat="42.84652705304324626922607421875" lon="-7.12070628069341182708740234375">
        <ele>519.20001220703125</ele>
        <time>2019-07-08T16:20:07.000Z</time>
      </trkpt>
      <trkpt lat="42.84678387455642223358154296875" lon="-7.12088934145867824554443359375">
        <ele>521.79998779296875</ele>
        <time>2019-07-08T16:20:08.000Z</time>
      </trkpt>
      <trkpt lat="42.847283184528350830078125" lon="-7.1212956123054027557373046875">
        <ele>522.5999755859375</ele>
        <time>2019-07-08T16:20:10.000Z</time>
      </trkpt>
      <trkpt lat="42.84752181731164455413818359375" lon="-7.12152083404362201690673828125">
        <ele>525.5999755859375</ele>
        <time>2019-07-08T16:20:11.000Z</time>
      </trkpt>
      <trkpt lat="42.8477539122104644775390625" lon="-7.12176055647432804107666015625">
        <ele>527.79998779296875</ele>
        <time>2019-07-08T16:20:12.000Z</time>
      </trkpt>
      <trkpt lat="42.84798081032931804656982421875" lon="-7.12201234884560108184814453125">
        <ele>529</ele>
        <time>2019-07-08T16:20:13.000Z</time>
      </trkpt>
      <trkpt lat="42.84820276312530040740966796875" lon="-7.12227419950067996978759765625">
        <ele>530.20001220703125</ele>
        <time>2019-07-08T16:20:14.000Z</time>
      </trkpt>
      <trkpt lat="42.848639376461505889892578125" lon="-7.12281617335975170135498046875">
        <ele>531</ele>
        <time>2019-07-08T16:20:16.000Z</time>
      </trkpt>
      <trkpt lat="42.84885738976299762725830078125" lon="-7.12309042923152446746826171875">
        <ele>531.4000244140625</ele>
        <time>2019-07-08T16:20:17.000Z</time>
      </trkpt>
      <trkpt lat="42.8492956794798374176025390625" lon="-7.123625278472900390625">
        <ele>534</ele>
        <time>2019-07-08T16:20:19.000Z</time>
      </trkpt>
      <trkpt lat="42.849519811570644378662109375" lon="-7.1238805912435054779052734375">
        <ele>536.20001220703125</ele>
        <time>2019-07-08T16:20:20.000Z</time>
      </trkpt>
      <trkpt lat="42.849982492625713348388671875" lon="-7.124354504048824310302734375">
        <ele>536</ele>
        <time>2019-07-08T16:20:22.000Z</time>
      </trkpt>
      <trkpt lat="42.850219868123531341552734375" lon="-7.124577797949314117431640625">
        <ele>538.20001220703125</ele>
        <time>2019-07-08T16:20:23.000Z</time>
      </trkpt>
      <trkpt lat="42.85045950673520565032958984375" lon="-7.12479346431791782379150390625">
        <ele>541.5999755859375</ele>
        <time>2019-07-08T16:20:24.000Z</time>
      </trkpt>
      <trkpt lat="42.85095387138426303863525390625" lon="-7.12519504129886627197265625">
        <ele>543.5999755859375</ele>
        <time>2019-07-08T16:20:26.000Z</time>
      </trkpt>
      <trkpt lat="42.85120935179293155670166015625" lon="-7.12537743151187896728515625">
        <ele>544.79998779296875</ele>
        <time>2019-07-08T16:20:27.000Z</time>
      </trkpt>
      <trkpt lat="42.851469777524471282958984375" lon="-7.1255524456501007080078125">
        <ele>545.79998779296875</ele>
        <time>2019-07-08T16:20:28.000Z</time>
      </trkpt>
      <trkpt lat="42.8517348133027553558349609375" lon="-7.12571807205677032470703125">
        <ele>547.20001220703125</ele>
        <time>2019-07-08T16:20:29.000Z</time>
      </trkpt>
      <trkpt lat="42.8522809781134128570556640625" lon="-7.126024179160594940185546875">
        <ele>548.79998779296875</ele>
        <time>2019-07-08T16:20:31.000Z</time>
      </trkpt>
      <trkpt lat="42.85284943878650665283203125" lon="-7.1262885443866252899169921875">
        <ele>549</ele>
        <time>2019-07-08T16:20:33.000Z</time>
      </trkpt>
      <trkpt lat="42.85314020700752735137939453125" lon="-7.12639943696558475494384765625">
        <ele>549.79998779296875</ele>
        <time>2019-07-08T16:20:34.000Z</time>
      </trkpt>
      <trkpt lat="42.85343659110367298126220703125" lon="-7.1264987625181674957275390625">
        <ele>551.5999755859375</ele>
        <time>2019-07-08T16:20:35.000Z</time>
      </trkpt>
      <trkpt lat="42.853734903037548065185546875" lon="-7.1265882812440395355224609375">
        <ele>554.4000244140625</ele>
        <time>2019-07-08T16:20:36.000Z</time>
      </trkpt>
      <trkpt lat="42.85403623245656490325927734375" lon="-7.12666665203869342803955078125">
        <ele>557.20001220703125</ele>
        <time>2019-07-08T16:20:37.000Z</time>
      </trkpt>
      <trkpt lat="42.8543395735323429107666015625" lon="-7.126739658415317535400390625">
        <ele>560.20001220703125</ele>
        <time>2019-07-08T16:20:38.000Z</time>
      </trkpt>
      <trkpt lat="42.85464559681713581085205078125" lon="-7.12681375443935394287109375">
        <ele>562.4000244140625</ele>
        <time>2019-07-08T16:20:39.000Z</time>
      </trkpt>
      <trkpt lat="42.8549521230161190032958984375" lon="-7.12688726373016834259033203125">
        <ele>563.4000244140625</ele>
        <time>2019-07-08T16:20:40.000Z</time>
      </trkpt>
      <trkpt lat="42.85556291230022907257080078125" lon="-7.12704484350979328155517578125">
        <ele>557.79998779296875</ele>
        <time>2019-07-08T16:20:42.000Z</time>
      </trkpt>
      <trkpt lat="42.855866253376007080078125" lon="-7.1271448396146297454833984375">
        <ele>547.5999755859375</ele>
        <time>2019-07-08T16:20:43.000Z</time>
      </trkpt>
      <trkpt lat="42.85616707988083362579345703125" lon="-7.1272628568112850189208984375">
        <ele>534.79998779296875</ele>
        <time>2019-07-08T16:20:44.000Z</time>
      </trkpt>
      <trkpt lat="42.8564622066915035247802734375" lon="-7.12739420123398303985595703125">
        <ele>528.5999755859375</ele>
        <time>2019-07-08T16:20:45.000Z</time>
      </trkpt>
      <trkpt lat="42.85675431601703166961669921875" lon="-7.1275399625301361083984375">
        <ele>525.4000244140625</ele>
        <time>2019-07-08T16:20:46.000Z</time>
      </trkpt>
      <trkpt lat="42.857041396200656890869140625" lon="-7.12770332582294940948486328125">
        <ele>521.5999755859375</ele>
        <time>2019-07-08T16:20:47.000Z</time>
      </trkpt>
      <trkpt lat="42.85732210613787174224853515625" lon="-7.12788269855082035064697265625">
        <ele>526.20001220703125</ele>
        <time>2019-07-08T16:20:48.000Z</time>
      </trkpt>
      <trkpt lat="42.85759770311415195465087890625" lon="-7.128075063228607177734375">
        <ele>528.79998779296875</ele>
        <time>2019-07-08T16:20:49.000Z</time>
      </trkpt>
      <trkpt lat="42.857867181301116943359375" lon="-7.12828033603727817535400390625">
        <ele>534.79998779296875</ele>
        <time>2019-07-08T16:20:50.000Z</time>
      </trkpt>
      <trkpt lat="42.858131043612957000732421875" lon="-7.12849910371005535125732421875">
        <ele>539</ele>
        <time>2019-07-08T16:20:51.000Z</time>
      </trkpt>
      <trkpt lat="42.85838685929775238037109375" lon="-7.1287281811237335205078125">
        <ele>541.20001220703125</ele>
        <time>2019-07-08T16:20:52.000Z</time>
      </trkpt>
      <trkpt lat="42.858635969460010528564453125" lon="-7.12897083722054958343505859375">
        <ele>536.5999755859375</ele>
        <time>2019-07-08T16:20:53.000Z</time>
      </trkpt>
      <trkpt lat="42.85887627862393856048583984375" lon="-7.129226736724376678466796875">
        <ele>539.5999755859375</ele>
        <time>2019-07-08T16:20:54.000Z</time>
      </trkpt>
      <trkpt lat="42.85933292470872402191162109375" lon="-7.1297703869640827178955078125">
        <ele>544.79998779296875</ele>
        <time>2019-07-08T16:20:56.000Z</time>
      </trkpt>
      <trkpt lat="42.85954901017248630523681640625" lon="-7.13006115518510341644287109375">
        <ele>543</ele>
        <time>2019-07-08T16:20:57.000Z</time>
      </trkpt>
      <trkpt lat="42.859756462275981903076171875" lon="-7.1303589642047882080078125">
        <ele>546.79998779296875</ele>
        <time>2019-07-08T16:20:58.000Z</time>
      </trkpt>
      <trkpt lat="42.85995419137179851531982421875" lon="-7.13066808879375457763671875">
        <ele>548.79998779296875</ele>
        <time>2019-07-08T16:20:59.000Z</time>
      </trkpt>
      <trkpt lat="42.860141694545745849609375" lon="-7.13098593056201934814453125">
        <ele>550</ele>
        <time>2019-07-08T16:21:00.000Z</time>
      </trkpt>
      <trkpt lat="42.8604932315647602081298828125" lon="-7.13164843618869781494140625">
        <ele>552</ele>
        <time>2019-07-08T16:21:02.000Z</time>
      </trkpt>
      <trkpt lat="42.860812582075595855712890625" lon="-7.132350504398345947265625">
        <ele>552.5999755859375</ele>
        <time>2019-07-08T16:21:04.000Z</time>
      </trkpt>
      <trkpt lat="42.86095775663852691650390625" lon="-7.13271670974791049957275390625">
        <ele>553.4000244140625</ele>
        <time>2019-07-08T16:21:05.000Z</time>
      </trkpt>
      <trkpt lat="42.861218936741352081298828125" lon="-7.133469320833683013916015625">
        <ele>552.5999755859375</ele>
        <time>2019-07-08T16:21:07.000Z</time>
      </trkpt>
      <trkpt lat="42.86143326200544834136962890625" lon="-7.1342443116009235382080078125">
        <ele>553.4000244140625</ele>
        <time>2019-07-08T16:21:09.000Z</time>
      </trkpt>
      <trkpt lat="42.86152345128357410430908203125" lon="-7.134635746479034423828125">
        <ele>554.5999755859375</ele>
        <time>2019-07-08T16:21:10.000Z</time>
      </trkpt>
      <trkpt lat="42.8616700507700443267822265625" lon="-7.13542322628200054168701171875">
        <ele>553.79998779296875</ele>
        <time>2019-07-08T16:21:12.000Z</time>
      </trkpt>
      <trkpt lat="42.86177893169224262237548828125" lon="-7.13622428476810455322265625">
        <ele>554.79998779296875</ele>
        <time>2019-07-08T16:21:14.000Z</time>
      </trkpt>
      <trkpt lat="42.861816398799419403076171875" lon="-7.13662669993937015533447265625">
        <ele>555.5999755859375</ele>
        <time>2019-07-08T16:21:15.000Z</time>
      </trkpt>
      <trkpt lat="42.86185822449624538421630859375" lon="-7.1374334581196308135986328125">
        <ele>555.79998779296875</ele>
        <time>2019-07-08T16:21:17.000Z</time>
      </trkpt>
      <trkpt lat="42.86187364719808101654052734375" lon="-7.1382468380033969879150390625">
        <ele>556.20001220703125</ele>
        <time>2019-07-08T16:21:19.000Z</time>
      </trkpt>
      <trkpt lat="42.86188303492963314056396484375" lon="-7.1390555240213871002197265625">
        <ele>556.5999755859375</ele>
        <time>2019-07-08T16:21:21.000Z</time>
      </trkpt>
      <trkpt lat="42.86188823170959949493408203125" lon="-7.139458023011684417724609375">
        <ele>556.79998779296875</ele>
        <time>2019-07-08T16:21:22.000Z</time>
      </trkpt>
      <trkpt lat="42.86189854145050048828125" lon="-7.14025857858359813690185546875">
        <ele>559.20001220703125</ele>
        <time>2019-07-08T16:21:24.000Z</time>
      </trkpt>
      <trkpt lat="42.86190633662045001983642578125" lon="-7.14065822772681713104248046875">
        <ele>561.4000244140625</ele>
        <time>2019-07-08T16:21:25.000Z</time>
      </trkpt>
      <trkpt lat="42.8619131259620189666748046875" lon="-7.14105452410876750946044921875">
        <ele>562.5999755859375</ele>
        <time>2019-07-08T16:21:26.000Z</time>
      </trkpt>
      <trkpt lat="42.8619164787232875823974609375" lon="-7.141447551548480987548828125">
        <ele>564.20001220703125</ele>
        <time>2019-07-08T16:21:27.000Z</time>
      </trkpt>
      <trkpt lat="42.8619164787232875823974609375" lon="-7.14184175245463848114013671875">
        <ele>565.79998779296875</ele>
        <time>2019-07-08T16:21:28.000Z</time>
      </trkpt>
      <trkpt lat="42.86191463470458984375" lon="-7.142236120998859405517578125">
        <ele>567.5999755859375</ele>
        <time>2019-07-08T16:21:29.000Z</time>
      </trkpt>
      <trkpt lat="42.8619132936000823974609375" lon="-7.1426285617053508758544921875">
        <ele>571</ele>
        <time>2019-07-08T16:21:30.000Z</time>
      </trkpt>
      <trkpt lat="42.86191052757203578948974609375" lon="-7.14302225969731807708740234375">
        <ele>575.4000244140625</ele>
        <time>2019-07-08T16:21:31.000Z</time>
      </trkpt>
      <trkpt lat="42.8619094379246234893798828125" lon="-7.14341528713703155517578125">
        <ele>576.79998779296875</ele>
        <time>2019-07-08T16:21:32.000Z</time>
      </trkpt>
      <trkpt lat="42.8619121201336383819580078125" lon="-7.14418650604784488677978515625">
        <ele>578.20001220703125</ele>
        <time>2019-07-08T16:21:34.000Z</time>
      </trkpt>
      <trkpt lat="42.86191840656101703643798828125" lon="-7.144567966461181640625">
        <ele>576.20001220703125</ele>
        <time>2019-07-08T16:21:35.000Z</time>
      </trkpt>
      <trkpt lat="42.8619426302611827850341796875" lon="-7.14532895945012569427490234375">
        <ele>572.5999755859375</ele>
        <time>2019-07-08T16:21:37.000Z</time>
      </trkpt>
      <trkpt lat="42.86195796914398670196533203125" lon="-7.14570865966379642486572265625">
        <ele>571.20001220703125</ele>
        <time>2019-07-08T16:21:38.000Z</time>
      </trkpt>
      <trkpt lat="42.86199920810759067535400390625" lon="-7.14646495878696441650390625">
        <ele>573.79998779296875</ele>
        <time>2019-07-08T16:21:40.000Z</time>
      </trkpt>
      <trkpt lat="42.8620287962257862091064453125" lon="-7.14684457518160343170166015625">
        <ele>576.20001220703125</ele>
        <time>2019-07-08T16:21:41.000Z</time>
      </trkpt>
      <trkpt lat="42.8620670177042484283447265625" lon="-7.147222347557544708251953125">
        <ele>579</ele>
        <time>2019-07-08T16:21:42.000Z</time>
      </trkpt>
      <trkpt lat="42.86211554892361164093017578125" lon="-7.14759777300059795379638671875">
        <ele>580.4000244140625</ele>
        <time>2019-07-08T16:21:43.000Z</time>
      </trkpt>
      <trkpt lat="42.862171791493892669677734375" lon="-7.147976048290729522705078125">
        <ele>583.5999755859375</ele>
        <time>2019-07-08T16:21:44.000Z</time>
      </trkpt>
      <trkpt lat="42.86223323084414005279541015625" lon="-7.1483564190566539764404296875">
        <ele>585</ele>
        <time>2019-07-08T16:21:45.000Z</time>
      </trkpt>
      <trkpt lat="42.862299196422100067138671875" lon="-7.14873620308935642242431640625">
        <ele>587</ele>
        <time>2019-07-08T16:21:46.000Z</time>
      </trkpt>
      <trkpt lat="42.86237052641808986663818359375" lon="-7.1491181664168834686279296875">
        <ele>591</ele>
        <time>2019-07-08T16:21:47.000Z</time>
      </trkpt>
      <trkpt lat="42.862448729574680328369140625" lon="-7.14950096793472766876220703125">
        <ele>594.20001220703125</ele>
        <time>2019-07-08T16:21:48.000Z</time>
      </trkpt>
      <trkpt lat="42.86253799684345722198486328125" lon="-7.14988318271934986114501953125">
        <ele>598</ele>
        <time>2019-07-08T16:21:49.000Z</time>
      </trkpt>
      <trkpt lat="42.86263874731957912445068359375" lon="-7.15026422403752803802490234375">
        <ele>601.20001220703125</ele>
        <time>2019-07-08T16:21:50.000Z</time>
      </trkpt>
      <trkpt lat="42.8627479635179042816162109375" lon="-7.15064208023250102996826171875">
        <ele>602.5999755859375</ele>
        <time>2019-07-08T16:21:51.000Z</time>
      </trkpt>
      <trkpt lat="42.8628616221249103546142578125" lon="-7.151015661656856536865234375">
        <ele>605</ele>
        <time>2019-07-08T16:21:52.000Z</time>
      </trkpt>
      <trkpt lat="42.86298014223575592041015625" lon="-7.15138547122478485107421875">
        <ele>607.20001220703125</ele>
        <time>2019-07-08T16:21:53.000Z</time>
      </trkpt>
      <trkpt lat="42.86309950053691864013671875" lon="-7.15175427496433258056640625">
        <ele>608.5999755859375</ele>
        <time>2019-07-08T16:21:54.000Z</time>
      </trkpt>
      <trkpt lat="42.86333109252154827117919921875" lon="-7.15250034816563129425048828125">
        <ele>610</ele>
        <time>2019-07-08T16:21:56.000Z</time>
      </trkpt>
      <trkpt lat="42.86353410221636295318603515625" lon="-7.15325589291751384735107421875">
        <ele>612</ele>
        <time>2019-07-08T16:21:58.000Z</time>
      </trkpt>
      <trkpt lat="42.86362227983772754669189453125" lon="-7.1536370180547237396240234375">
        <ele>613.79998779296875</ele>
        <time>2019-07-08T16:21:59.000Z</time>
      </trkpt>
      <trkpt lat="42.86370207555592060089111328125" lon="-7.15401881374418735504150390625">
        <ele>615.79998779296875</ele>
        <time>2019-07-08T16:22:00.000Z</time>
      </trkpt>
      <trkpt lat="42.8637729026377201080322265625" lon="-7.1543997712433338165283203125">
        <ele>617.79998779296875</ele>
        <time>2019-07-08T16:22:01.000Z</time>
      </trkpt>
      <trkpt lat="42.8638366051018238067626953125" lon="-7.15477955527603626251220703125">
        <ele>619.5999755859375</ele>
        <time>2019-07-08T16:22:02.000Z</time>
      </trkpt>
      <trkpt lat="42.86389301531016826629638671875" lon="-7.15515925548970699310302734375">
        <ele>621.4000244140625</ele>
        <time>2019-07-08T16:22:03.000Z</time>
      </trkpt>
      <trkpt lat="42.86394280381500720977783203125" lon="-7.15553945861756801605224609375">
        <ele>624.5999755859375</ele>
        <time>2019-07-08T16:22:04.000Z</time>
      </trkpt>
      <trkpt lat="42.86398555152118206024169921875" lon="-7.15592066757380962371826171875">
        <ele>629</ele>
        <time>2019-07-08T16:22:05.000Z</time>
      </trkpt>
      <trkpt lat="42.8640216775238513946533203125" lon="-7.156304977834224700927734375">
        <ele>633.4000244140625</ele>
        <time>2019-07-08T16:22:06.000Z</time>
      </trkpt>
      <trkpt lat="42.8640510141849517822265625" lon="-7.15668945573270320892333984375">
        <ele>636.5999755859375</ele>
        <time>2019-07-08T16:22:07.000Z</time>
      </trkpt>
      <trkpt lat="42.86407540552318096160888671875" lon="-7.15707485564053058624267578125">
        <ele>638.5999755859375</ele>
        <time>2019-07-08T16:22:08.000Z</time>
      </trkpt>
      <trkpt lat="42.864124774932861328125" lon="-7.157851941883563995361328125">
        <ele>640.20001220703125</ele>
        <time>2019-07-08T16:22:10.000Z</time>
      </trkpt>
      <trkpt lat="42.86419224925339221954345703125" lon="-7.15863053686916828155517578125">
        <ele>640</ele>
        <time>2019-07-08T16:22:12.000Z</time>
      </trkpt>
      <trkpt lat="42.864237092435359954833984375" lon="-7.15901811607182025909423828125">
        <ele>639</ele>
        <time>2019-07-08T16:22:13.000Z</time>
      </trkpt>
      <trkpt lat="42.86434496752917766571044921875" lon="-7.15978975407779216766357421875">
        <ele>638</ele>
        <time>2019-07-08T16:22:15.000Z</time>
      </trkpt>
      <trkpt lat="42.86447656340897083282470703125" lon="-7.160553596913814544677734375">
        <ele>641.79998779296875</ele>
        <time>2019-07-08T16:22:17.000Z</time>
      </trkpt>
      <trkpt lat="42.8645490668714046478271484375" lon="-7.16093069873750209808349609375">
        <ele>646.4000244140625</ele>
        <time>2019-07-08T16:22:18.000Z</time>
      </trkpt>
      <trkpt lat="42.86462961696088314056396484375" lon="-7.16130570508539676666259765625">
        <ele>649</ele>
        <time>2019-07-08T16:22:19.000Z</time>
      </trkpt>
      <trkpt lat="42.8647167049348354339599609375" lon="-7.1616796217858791351318359375">
        <ele>652</ele>
        <time>2019-07-08T16:22:20.000Z</time>
      </trkpt>
      <trkpt lat="42.864809073507785797119140625" lon="-7.16205169446766376495361328125">
        <ele>653.5999755859375</ele>
        <time>2019-07-08T16:22:21.000Z</time>
      </trkpt>
      <trkpt lat="42.86500864662230014801025390625" lon="-7.1627976000308990478515625">
        <ele>654.4000244140625</ele>
        <time>2019-07-08T16:22:23.000Z</time>
      </trkpt>
      <trkpt lat="42.86522959358990192413330078125" lon="-7.16352556832134723663330078125">
        <ele>653.79998779296875</ele>
        <time>2019-07-08T16:22:25.000Z</time>
      </trkpt>
      <trkpt lat="42.86546579562127590179443359375" lon="-7.1642540395259857177734375">
        <ele>656.5999755859375</ele>
        <time>2019-07-08T16:22:27.000Z</time>
      </trkpt>
      <trkpt lat="42.8655852377414703369140625" lon="-7.16461739502847194671630859375">
        <ele>660.4000244140625</ele>
        <time>2019-07-08T16:22:28.000Z</time>
      </trkpt>
      <trkpt lat="42.86570702679455280303955078125" lon="-7.16497957706451416015625">
        <ele>665.5999755859375</ele>
        <time>2019-07-08T16:22:29.000Z</time>
      </trkpt>
      <trkpt lat="42.865829654037952423095703125" lon="-7.16534259729087352752685546875">
        <ele>668.5999755859375</ele>
        <time>2019-07-08T16:22:30.000Z</time>
      </trkpt>
      <trkpt lat="42.86595060490071773529052734375" lon="-7.1657052822411060333251953125">
        <ele>670</ele>
        <time>2019-07-08T16:22:31.000Z</time>
      </trkpt>
      <trkpt lat="42.86607147194445133209228515625" lon="-7.16606830246746540069580078125">
        <ele>671.4000244140625</ele>
        <time>2019-07-08T16:22:32.000Z</time>
      </trkpt>
      <trkpt lat="42.8661905787885189056396484375" lon="-7.1664331667125225067138671875">
        <ele>673</ele>
        <time>2019-07-08T16:22:33.000Z</time>
      </trkpt>
      <trkpt lat="42.86642669700086116790771484375" lon="-7.16715426184237003326416015625">
        <ele>672.4000244140625</ele>
        <time>2019-07-08T16:22:35.000Z</time>
      </trkpt>
      <trkpt lat="42.8666629828512668609619140625" lon="-7.16786839999258518218994140625">
        <ele>674.20001220703125</ele>
        <time>2019-07-08T16:22:37.000Z</time>
      </trkpt>
      <trkpt lat="42.866783179342746734619140625" lon="-7.16822027228772640228271484375">
        <ele>676.79998779296875</ele>
        <time>2019-07-08T16:22:38.000Z</time>
      </trkpt>
      <trkpt lat="42.8669053874909877777099609375" lon="-7.1685705520212650299072265625">
        <ele>679.4000244140625</ele>
        <time>2019-07-08T16:22:39.000Z</time>
      </trkpt>
      <trkpt lat="42.867027930915355682373046875" lon="-7.16891731135547161102294921875">
        <ele>681.5999755859375</ele>
        <time>2019-07-08T16:22:40.000Z</time>
      </trkpt>
      <trkpt lat="42.8671467863023281097412109375" lon="-7.1692535094916820526123046875">
        <ele>682.5999755859375</ele>
        <time>2019-07-08T16:22:41.000Z</time>
      </trkpt>
      <trkpt lat="42.8673754446208477020263671875" lon="-7.16989615000784397125244140625">
        <ele>682.79998779296875</ele>
        <time>2019-07-08T16:22:43.000Z</time>
      </trkpt>
      <trkpt lat="42.86760016344487667083740234375" lon="-7.17052169144153594970703125">
        <ele>682.5999755859375</ele>
        <time>2019-07-08T16:22:45.000Z</time>
      </trkpt>
      <trkpt lat="42.86782178096473217010498046875" lon="-7.1710995398461818695068359375">
        <ele>682.5999755859375</ele>
        <time>2019-07-08T16:22:47.000Z</time>
      </trkpt>
      <trkpt lat="42.868064604699611663818359375" lon="-7.1716208942234516143798828125">
        <ele>684.79998779296875</ele>
        <time>2019-07-08T16:22:49.000Z</time>
      </trkpt>
      <trkpt lat="42.86819209344685077667236328125" lon="-7.17186673544347286224365234375">
        <ele>686</ele>
        <time>2019-07-08T16:22:50.000Z</time>
      </trkpt>
      <trkpt lat="42.868322096765041351318359375" lon="-7.17210293747484683990478515625">
        <ele>688</ele>
        <time>2019-07-08T16:22:51.000Z</time>
      </trkpt>
      <trkpt lat="42.8684550337493419647216796875" lon="-7.17233662493526935577392578125">
        <ele>690.4000244140625</ele>
        <time>2019-07-08T16:22:52.000Z</time>
      </trkpt>
      <trkpt lat="42.8685898147523403167724609375" lon="-7.1725697256624698638916015625">
        <ele>692.5999755859375</ele>
        <time>2019-07-08T16:22:53.000Z</time>
      </trkpt>
      <trkpt lat="42.8687282837927341461181640625" lon="-7.1727997250854969024658203125">
        <ele>693.5999755859375</ele>
        <time>2019-07-08T16:22:54.000Z</time>
      </trkpt>
      <trkpt lat="42.869002707302570343017578125" lon="-7.17325461097061634063720703125">
        <ele>695</ele>
        <time>2019-07-08T16:22:56.000Z</time>
      </trkpt>
      <trkpt lat="42.86928425543010234832763671875" lon="-7.1736721135675907135009765625">
        <ele>696.4000244140625</ele>
        <time>2019-07-08T16:22:58.000Z</time>
      </trkpt>
      <trkpt lat="42.8697668015956878662109375" lon="-7.17424099333584308624267578125">
        <ele>698.20001220703125</ele>
        <time>2019-07-08T16:23:01.000Z</time>
      </trkpt>
      <trkpt lat="42.8744775988161563873291015625" lon="-7.17555644921958446502685546875">
        <ele>713.4000244140625</ele>
        <time>2019-07-08T16:23:21.000Z</time>
      </trkpt>
      <trkpt lat="42.8749805130064487457275390625" lon="-7.17564093880355358123779296875">
        <ele>713.5999755859375</ele>
        <time>2019-07-08T16:23:23.000Z</time>
      </trkpt>
      <trkpt lat="42.87543456070125102996826171875" lon="-7.175734229385852813720703125">
        <ele>713</ele>
        <time>2019-07-08T16:23:25.000Z</time>
      </trkpt>
      <trkpt lat="42.87591920234262943267822265625" lon="-7.1758185513317584991455078125">
        <ele>712.79998779296875</ele>
        <time>2019-07-08T16:23:27.000Z</time>
      </trkpt>
      <trkpt lat="42.87642739713191986083984375" lon="-7.17590220272541046142578125">
        <ele>712.20001220703125</ele>
        <time>2019-07-08T16:23:29.000Z</time>
      </trkpt>
      <trkpt lat="42.87696040235459804534912109375" lon="-7.1759868599474430084228515625">
        <ele>711.79998779296875</ele>
        <time>2019-07-08T16:23:31.000Z</time>
      </trkpt>
      <trkpt lat="42.8772355802357196807861328125" lon="-7.1760267578065395355224609375">
        <ele>711.5999755859375</ele>
        <time>2019-07-08T16:23:32.000Z</time>
      </trkpt>
      <trkpt lat="42.8777985088527202606201171875" lon="-7.1761125884950160980224609375">
        <ele>712</ele>
        <time>2019-07-08T16:23:34.000Z</time>
      </trkpt>
      <trkpt lat="42.87837526760995388031005859375" lon="-7.17619263567030429840087890625">
        <ele>711.5999755859375</ele>
        <time>2019-07-08T16:23:36.000Z</time>
      </trkpt>
      <trkpt lat="42.87895948626101016998291015625" lon="-7.17626472003757953643798828125">
        <ele>711.79998779296875</ele>
        <time>2019-07-08T16:23:38.000Z</time>
      </trkpt>
      <trkpt lat="42.879560887813568115234375" lon="-7.1763462759554386138916015625">
        <ele>707.20001220703125</ele>
        <time>2019-07-08T16:23:40.000Z</time>
      </trkpt>
      <trkpt lat="42.87986456416547298431396484375" lon="-7.17639178968966007232666015625">
        <ele>705</ele>
        <time>2019-07-08T16:23:41.000Z</time>
      </trkpt>
      <trkpt lat="42.88016865961253643035888671875" lon="-7.1764357946813106536865234375">
        <ele>703.79998779296875</ele>
        <time>2019-07-08T16:23:42.000Z</time>
      </trkpt>
      <trkpt lat="42.88047024048864841461181640625" lon="-7.1764810569584369659423828125">
        <ele>705.4000244140625</ele>
        <time>2019-07-08T16:23:43.000Z</time>
      </trkpt>
      <trkpt lat="42.88107189349830150604248046875" lon="-7.1765635348856449127197265625">
        <ele>702.20001220703125</ele>
        <time>2019-07-08T16:23:45.000Z</time>
      </trkpt>
      <trkpt lat="42.88137163035571575164794921875" lon="-7.1766027621924877166748046875">
        <ele>704.5999755859375</ele>
        <time>2019-07-08T16:23:46.000Z</time>
      </trkpt>
      <trkpt lat="42.8816709481179714202880859375" lon="-7.17664240859448909759521484375">
        <ele>705.79998779296875</ele>
        <time>2019-07-08T16:23:47.000Z</time>
      </trkpt>
      <trkpt lat="42.88226933218538761138916015625" lon="-7.17672371305525302886962890625">
        <ele>706.20001220703125</ele>
        <time>2019-07-08T16:23:49.000Z</time>
      </trkpt>
      <trkpt lat="42.882865704596042633056640625" lon="-7.17680769972503185272216796875">
        <ele>706.4000244140625</ele>
        <time>2019-07-08T16:23:51.000Z</time>
      </trkpt>
      <trkpt lat="42.8834594786167144775390625" lon="-7.17689336277544498443603515625">
        <ele>705.79998779296875</ele>
        <time>2019-07-08T16:23:53.000Z</time>
      </trkpt>
      <trkpt lat="42.88404663093388080596923828125" lon="-7.1770138107240200042724609375">
        <ele>704</ele>
        <time>2019-07-08T16:23:55.000Z</time>
      </trkpt>
      <trkpt lat="42.884338907897472381591796875" lon="-7.17709922231733798980712890625">
        <ele>700.20001220703125</ele>
        <time>2019-07-08T16:23:56.000Z</time>
      </trkpt>
      <trkpt lat="42.88463093340396881103515625" lon="-7.17720231972634792327880859375">
        <ele>693.20001220703125</ele>
        <time>2019-07-08T16:23:57.000Z</time>
      </trkpt>
      <trkpt lat="42.88492086343467235565185546875" lon="-7.17732402496039867401123046875">
        <ele>689.79998779296875</ele>
        <time>2019-07-08T16:23:58.000Z</time>
      </trkpt>
      <trkpt lat="42.8852077759802341461181640625" lon="-7.17746584676206111907958984375">
        <ele>687.20001220703125</ele>
        <time>2019-07-08T16:23:59.000Z</time>
      </trkpt>
      <trkpt lat="42.88548965938389301300048828125" lon="-7.177627198398113250732421875">
        <ele>683.4000244140625</ele>
        <time>2019-07-08T16:24:00.000Z</time>
      </trkpt>
      <trkpt lat="42.88576416671276092529296875" lon="-7.17780782841145992279052734375">
        <ele>682.20001220703125</ele>
        <time>2019-07-08T16:24:01.000Z</time>
      </trkpt>
      <trkpt lat="42.886287868022918701171875" lon="-7.17822424136102199554443359375">
        <ele>680.4000244140625</ele>
        <time>2019-07-08T16:24:03.000Z</time>
      </trkpt>
      <trkpt lat="42.8867721743881702423095703125" lon="-7.17870687134563922882080078125">
        <ele>679.5999755859375</ele>
        <time>2019-07-08T16:24:05.000Z</time>
      </trkpt>
      <trkpt lat="42.88699798285961151123046875" lon="-7.17897140420973300933837890625">
        <ele>679.20001220703125</ele>
        <time>2019-07-08T16:24:06.000Z</time>
      </trkpt>
      <trkpt lat="42.88742319680750370025634765625" lon="-7.17952880077064037322998046875">
        <ele>681.20001220703125</ele>
        <time>2019-07-08T16:24:08.000Z</time>
      </trkpt>
      <trkpt lat="42.8876254521310329437255859375" lon="-7.17981822788715362548828125">
        <ele>684.79998779296875</ele>
        <time>2019-07-08T16:24:09.000Z</time>
      </trkpt>
      <trkpt lat="42.887821085751056671142578125" lon="-7.18011368997395038604736328125">
        <ele>689.79998779296875</ele>
        <time>2019-07-08T16:24:10.000Z</time>
      </trkpt>
      <trkpt lat="42.88801764138042926788330078125" lon="-7.180412001907825469970703125">
        <ele>693.20001220703125</ele>
        <time>2019-07-08T16:24:11.000Z</time>
      </trkpt>
      <trkpt lat="42.88821880705654621124267578125" lon="-7.180709727108478546142578125">
        <ele>696.5999755859375</ele>
        <time>2019-07-08T16:24:12.000Z</time>
      </trkpt>
      <trkpt lat="42.8884269297122955322265625" lon="-7.1810017526149749755859375">
        <ele>698.4000244140625</ele>
        <time>2019-07-08T16:24:13.000Z</time>
      </trkpt>
      <trkpt lat="42.8888622857630252838134765625" lon="-7.1815494261682033538818359375">
        <ele>699.4000244140625</ele>
        <time>2019-07-08T16:24:15.000Z</time>
      </trkpt>
      <trkpt lat="42.889324128627777099609375" lon="-7.1820577047765254974365234375">
        <ele>697.5999755859375</ele>
        <time>2019-07-08T16:24:17.000Z</time>
      </trkpt>
      <trkpt lat="42.8895668685436248779296875" lon="-7.1822999417781829833984375">
        <ele>697</ele>
        <time>2019-07-08T16:24:18.000Z</time>
      </trkpt>
      <trkpt lat="42.89007447659969329833984375" lon="-7.18274074606597423553466796875">
        <ele>698</ele>
        <time>2019-07-08T16:24:20.000Z</time>
      </trkpt>
      <trkpt lat="42.89033892564475536346435546875" lon="-7.182939983904361724853515625">
        <ele>698.5999755859375</ele>
        <time>2019-07-08T16:24:21.000Z</time>
      </trkpt>
      <trkpt lat="42.8908840008080005645751953125" lon="-7.18329847790300846099853515625">
        <ele>697.20001220703125</ele>
        <time>2019-07-08T16:24:23.000Z</time>
      </trkpt>
      <trkpt lat="42.8914432413876056671142578125" lon="-7.183599136769771575927734375">
        <ele>696.5999755859375</ele>
        <time>2019-07-08T16:24:25.000Z</time>
      </trkpt>
      <trkpt lat="42.89172696880996227264404296875" lon="-7.18372629024088382720947265625">
        <ele>695.79998779296875</ele>
        <time>2019-07-08T16:24:26.000Z</time>
      </trkpt>
      <trkpt lat="42.8920132108032703399658203125" lon="-7.18383760191500186920166015625">
        <ele>694.4000244140625</ele>
        <time>2019-07-08T16:24:27.000Z</time>
      </trkpt>
      <trkpt lat="42.89230045862495899200439453125" lon="-7.1839359216392040252685546875">
        <ele>693.20001220703125</ele>
        <time>2019-07-08T16:24:28.000Z</time>
      </trkpt>
      <trkpt lat="42.892590053379535675048828125" lon="-7.18402736820280551910400390625">
        <ele>692</ele>
        <time>2019-07-08T16:24:29.000Z</time>
      </trkpt>
      <trkpt lat="42.89317033253610134124755859375" lon="-7.1842145361006259918212890625">
        <ele>687.5999755859375</ele>
        <time>2019-07-08T16:24:31.000Z</time>
      </trkpt>
      <trkpt lat="42.8934589214622974395751953125" lon="-7.1843208186328411102294921875">
        <ele>683.4000244140625</ele>
        <time>2019-07-08T16:24:32.000Z</time>
      </trkpt>
      <trkpt lat="42.8937449119985103607177734375" lon="-7.1844421885907649993896484375">
        <ele>675.5999755859375</ele>
        <time>2019-07-08T16:24:33.000Z</time>
      </trkpt>
      <trkpt lat="42.894027717411518096923828125" lon="-7.1845789812505245208740234375">
        <ele>665</ele>
        <time>2019-07-08T16:24:34.000Z</time>
      </trkpt>
      <trkpt lat="42.8943051584064960479736328125" lon="-7.18473312444984912872314453125">
        <ele>658</ele>
        <time>2019-07-08T16:24:35.000Z</time>
      </trkpt>
      <trkpt lat="42.89457748644053936004638671875" lon="-7.184906713664531707763671875">
        <ele>654</ele>
        <time>2019-07-08T16:24:36.000Z</time>
      </trkpt>
      <trkpt lat="42.8951057977974414825439453125" lon="-7.18530175276100635528564453125">
        <ele>653.79998779296875</ele>
        <time>2019-07-08T16:24:38.000Z</time>
      </trkpt>
      <trkpt lat="42.89562723599374294281005859375" lon="-7.18571699224412441253662109375">
        <ele>654.5999755859375</ele>
        <time>2019-07-08T16:24:40.000Z</time>
      </trkpt>
      <trkpt lat="42.895891852676868438720703125" lon="-7.1859190799295902252197265625">
        <ele>658.20001220703125</ele>
        <time>2019-07-08T16:24:41.000Z</time>
      </trkpt>
      <trkpt lat="42.896161414682865142822265625" lon="-7.1861085109412670135498046875">
        <ele>660</ele>
        <time>2019-07-08T16:24:42.000Z</time>
      </trkpt>
      <trkpt lat="42.89671361446380615234375" lon="-7.1864528395235538482666015625">
        <ele>657.20001220703125</ele>
        <time>2019-07-08T16:24:44.000Z</time>
      </trkpt>
      <trkpt lat="42.8969957493245601654052734375" lon="-7.186603210866451263427734375">
        <ele>655</ele>
        <time>2019-07-08T16:24:45.000Z</time>
      </trkpt>
      <trkpt lat="42.8972814045846462249755859375" lon="-7.1867378242313861846923828125">
        <ele>647.79998779296875</ele>
        <time>2019-07-08T16:24:46.000Z</time>
      </trkpt>
      <trkpt lat="42.89756982587277889251708984375" lon="-7.1868605352938175201416015625">
        <ele>642.79998779296875</ele>
        <time>2019-07-08T16:24:47.000Z</time>
      </trkpt>
      <trkpt lat="42.89786034263670444488525390625" lon="-7.18697444535791873931884765625">
        <ele>640.20001220703125</ele>
        <time>2019-07-08T16:24:48.000Z</time>
      </trkpt>
      <trkpt lat="42.89815035648643970489501953125" lon="-7.18708592467010021209716796875">
        <ele>638.79998779296875</ele>
        <time>2019-07-08T16:24:49.000Z</time>
      </trkpt>
      <trkpt lat="42.89872753433883190155029296875" lon="-7.18732212670147418975830078125">
        <ele>637.20001220703125</ele>
        <time>2019-07-08T16:24:51.000Z</time>
      </trkpt>
      <trkpt lat="42.8992980904877185821533203125" lon="-7.18758213333785533905029296875">
        <ele>635.5999755859375</ele>
        <time>2019-07-08T16:24:53.000Z</time>
      </trkpt>
      <trkpt lat="42.8998536430299282073974609375" lon="-7.18787717632949352264404296875">
        <ele>634</ele>
        <time>2019-07-08T16:24:55.000Z</time>
      </trkpt>
      <trkpt lat="42.90038581006228923797607421875" lon="-7.1882177330553531646728515625">
        <ele>632.79998779296875</ele>
        <time>2019-07-08T16:24:57.000Z</time>
      </trkpt>
      <trkpt lat="42.90064732544124126434326171875" lon="-7.1884038113057613372802734375">
        <ele>631.5999755859375</ele>
        <time>2019-07-08T16:24:58.000Z</time>
      </trkpt>
      <trkpt lat="42.900906912982463836669921875" lon="-7.1885972656309604644775390625">
        <ele>630.5999755859375</ele>
        <time>2019-07-08T16:24:59.000Z</time>
      </trkpt>
      <trkpt lat="42.90142357349395751953125" lon="-7.18900605104863643646240234375">
        <ele>629.4000244140625</ele>
        <time>2019-07-08T16:25:01.000Z</time>
      </trkpt>
      <trkpt lat="42.90168081410229206085205078125" lon="-7.18921643681824207305908203125">
        <ele>628.20001220703125</ele>
        <time>2019-07-08T16:25:02.000Z</time>
      </trkpt>
      <trkpt lat="42.90193880908191204071044921875" lon="-7.18942631967365741729736328125">
        <ele>627</ele>
        <time>2019-07-08T16:25:03.000Z</time>
      </trkpt>
      <trkpt lat="42.90219864808022975921630859375" lon="-7.18963335268199443817138671875">
        <ele>625.20001220703125</ele>
        <time>2019-07-08T16:25:04.000Z</time>
      </trkpt>
      <trkpt lat="42.9024627618491649627685546875" lon="-7.18983267433941364288330078125">
        <ele>623.5999755859375</ele>
        <time>2019-07-08T16:25:05.000Z</time>
      </trkpt>
      <trkpt lat="42.90273207239806652069091796875" lon="-7.19002059660851955413818359375">
        <ele>621.79998779296875</ele>
        <time>2019-07-08T16:25:06.000Z</time>
      </trkpt>
      <trkpt lat="42.90300683118402957916259765625" lon="-7.1901935152709484100341796875">
        <ele>620.4000244140625</ele>
        <time>2019-07-08T16:25:07.000Z</time>
      </trkpt>
      <trkpt lat="42.9035752080380916595458984375" lon="-7.19048805534839630126953125">
        <ele>618.79998779296875</ele>
        <time>2019-07-08T16:25:09.000Z</time>
      </trkpt>
      <trkpt lat="42.90415984578430652618408203125" lon="-7.19070489518344402313232421875">
        <ele>617.20001220703125</ele>
        <time>2019-07-08T16:25:11.000Z</time>
      </trkpt>
      <trkpt lat="42.90475160814821720123291015625" lon="-7.19084990210831165313720703125">
        <ele>615.79998779296875</ele>
        <time>2019-07-08T16:25:13.000Z</time>
      </trkpt>
      <trkpt lat="42.905349321663379669189453125" lon="-7.19093422405421733856201171875">
        <ele>614.4000244140625</ele>
        <time>2019-07-08T16:25:15.000Z</time>
      </trkpt>
      <trkpt lat="42.9056502319872379302978515625" lon="-7.1909552626311779022216796875">
        <ele>612.79998779296875</ele>
        <time>2019-07-08T16:25:16.000Z</time>
      </trkpt>
      <trkpt lat="42.90595022030174732208251953125" lon="-7.19097093679010868072509765625">
        <ele>610.5999755859375</ele>
        <time>2019-07-08T16:25:17.000Z</time>
      </trkpt>
      <trkpt lat="42.90654994547367095947265625" lon="-7.19101184047758579254150390625">
        <ele>608.79998779296875</ele>
        <time>2019-07-08T16:25:19.000Z</time>
      </trkpt>
      <trkpt lat="42.90714983828365802764892578125" lon="-7.19112164340913295745849609375">
        <ele>608</ele>
        <time>2019-07-08T16:25:21.000Z</time>
      </trkpt>
      <trkpt lat="42.9077607952058315277099609375" lon="-7.1913522295653820037841796875">
        <ele>609.4000244140625</ele>
        <time>2019-07-08T16:25:23.000Z</time>
      </trkpt>
      <trkpt lat="42.908380217850208282470703125" lon="-7.19168960116803646087646484375">
        <ele>608.4000244140625</ele>
        <time>2019-07-08T16:25:25.000Z</time>
      </trkpt>
      <trkpt lat="42.90867903269827365875244140625" lon="-7.1918856538832187652587890625">
        <ele>607.4000244140625</ele>
        <time>2019-07-08T16:25:26.000Z</time>
      </trkpt>
      <trkpt lat="42.9089664481580257415771484375" lon="-7.19209763221442699432373046875">
        <ele>604.79998779296875</ele>
        <time>2019-07-08T16:25:27.000Z</time>
      </trkpt>
      <trkpt lat="42.9092413745820522308349609375" lon="-7.192324362695217132568359375">
        <ele>601.5999755859375</ele>
        <time>2019-07-08T16:25:28.000Z</time>
      </trkpt>
      <trkpt lat="42.9095025546848773956298828125" lon="-7.19256986863911151885986328125">
        <ele>598.4000244140625</ele>
        <time>2019-07-08T16:25:29.000Z</time>
      </trkpt>
      <trkpt lat="42.90974789299070835113525390625" lon="-7.19283423386514186859130859375">
        <ele>595.5999755859375</ele>
        <time>2019-07-08T16:25:30.000Z</time>
      </trkpt>
      <trkpt lat="42.91018911637365818023681640625" lon="-7.19341568648815155029296875">
        <ele>595</ele>
        <time>2019-07-08T16:25:32.000Z</time>
      </trkpt>
      <trkpt lat="42.91058474220335483551025390625" lon="-7.19403921626508235931396484375">
        <ele>594.79998779296875</ele>
        <time>2019-07-08T16:25:34.000Z</time>
      </trkpt>
      <trkpt lat="42.91078154928982257843017578125" lon="-7.1943492628633975982666015625">
        <ele>594.4000244140625</ele>
        <time>2019-07-08T16:25:35.000Z</time>
      </trkpt>
      <trkpt lat="42.91118740104138851165771484375" lon="-7.1949514187872409820556640625">
        <ele>593.79998779296875</ele>
        <time>2019-07-08T16:25:37.000Z</time>
      </trkpt>
      <trkpt lat="42.91139963082969188690185546875" lon="-7.19524201937019824981689453125">
        <ele>592.4000244140625</ele>
        <time>2019-07-08T16:25:38.000Z</time>
      </trkpt>
      <trkpt lat="42.911623679101467132568359375" lon="-7.19551795162260532379150390625">
        <ele>590.4000244140625</ele>
        <time>2019-07-08T16:25:39.000Z</time>
      </trkpt>
      <trkpt lat="42.9118573665618896484375" lon="-7.19577829353511333465576171875">
        <ele>587.5999755859375</ele>
        <time>2019-07-08T16:25:40.000Z</time>
      </trkpt>
      <trkpt lat="42.9120996035635471343994140625" lon="-7.1960274875164031982421875">
        <ele>584.79998779296875</ele>
        <time>2019-07-08T16:25:41.000Z</time>
      </trkpt>
      <trkpt lat="42.91234829463064670562744140625" lon="-7.19626528210937976837158203125">
        <ele>583.4000244140625</ele>
        <time>2019-07-08T16:25:42.000Z</time>
      </trkpt>
      <trkpt lat="42.91286177001893520355224609375" lon="-7.1966988779604434967041015625">
        <ele>582.4000244140625</ele>
        <time>2019-07-08T16:25:44.000Z</time>
      </trkpt>
      <trkpt lat="42.9131262190639972686767578125" lon="-7.196889817714691162109375">
        <ele>581.5999755859375</ele>
        <time>2019-07-08T16:25:45.000Z</time>
      </trkpt>
      <trkpt lat="42.9133914224803447723388671875" lon="-7.19706860370934009552001953125">
        <ele>580.4000244140625</ele>
        <time>2019-07-08T16:25:46.000Z</time>
      </trkpt>
      <trkpt lat="42.91365444660186767578125" lon="-7.19724319875240325927734375">
        <ele>577.20001220703125</ele>
        <time>2019-07-08T16:25:47.000Z</time>
      </trkpt>
      <trkpt lat="42.9139151237905025482177734375" lon="-7.197421900928020477294921875">
        <ele>572.79998779296875</ele>
        <time>2019-07-08T16:25:48.000Z</time>
      </trkpt>
      <trkpt lat="42.91417052038013935089111328125" lon="-7.1976125054061412811279296875">
        <ele>568.4000244140625</ele>
        <time>2019-07-08T16:25:49.000Z</time>
      </trkpt>
      <trkpt lat="42.91441728360950946807861328125" lon="-7.19782062806189060211181640625">
        <ele>566</ele>
        <time>2019-07-08T16:25:50.000Z</time>
      </trkpt>
      <trkpt lat="42.91465465910732746124267578125" lon="-7.19804693944752216339111328125">
        <ele>564.79998779296875</ele>
        <time>2019-07-08T16:25:51.000Z</time>
      </trkpt>
      <trkpt lat="42.9151070304214954376220703125" lon="-7.19854968599975109100341796875">
        <ele>565</ele>
        <time>2019-07-08T16:25:53.000Z</time>
      </trkpt>
      <trkpt lat="42.91552327573299407958984375" lon="-7.19911278225481510162353515625">
        <ele>564.5999755859375</ele>
        <time>2019-07-08T16:25:55.000Z</time>
      </trkpt>
      <trkpt lat="42.91589048691093921661376953125" lon="-7.19973505474627017974853515625">
        <ele>563.4000244140625</ele>
        <time>2019-07-08T16:25:57.000Z</time>
      </trkpt>
      <trkpt lat="42.91605343110859394073486328125" lon="-7.20006664283573627471923828125">
        <ele>562</ele>
        <time>2019-07-08T16:25:58.000Z</time>
      </trkpt>
      <trkpt lat="42.916202880442142486572265625" lon="-7.20041147433221340179443359375">
        <ele>560.4000244140625</ele>
        <time>2019-07-08T16:25:59.000Z</time>
      </trkpt>
      <trkpt lat="42.9163398407399654388427734375" lon="-7.20076871104538440704345703125">
        <ele>558.79998779296875</ele>
        <time>2019-07-08T16:26:00.000Z</time>
      </trkpt>
      <trkpt lat="42.91646431200206279754638671875" lon="-7.20113650895655155181884765625">
        <ele>557.20001220703125</ele>
        <time>2019-07-08T16:26:01.000Z</time>
      </trkpt>
      <trkpt lat="42.9165748693048954010009765625" lon="-7.2015137784183025360107421875">
        <ele>554</ele>
        <time>2019-07-08T16:26:02.000Z</time>
      </trkpt>
      <trkpt lat="42.91667218320071697235107421875" lon="-7.2018986754119396209716796875">
        <ele>551.5999755859375</ele>
        <time>2019-07-08T16:26:03.000Z</time>
      </trkpt>
      <trkpt lat="42.9167564213275909423828125" lon="-7.2022862546145915985107421875">
        <ele>550.4000244140625</ele>
        <time>2019-07-08T16:26:04.000Z</time>
      </trkpt>
      <trkpt lat="42.9169017635285854339599609375" lon="-7.2030634246766567230224609375">
        <ele>549</ele>
        <time>2019-07-08T16:26:06.000Z</time>
      </trkpt>
      <trkpt lat="42.9170576669275760650634765625" lon="-7.203827686607837677001953125">
        <ele>549.79998779296875</ele>
        <time>2019-07-08T16:26:08.000Z</time>
      </trkpt>
      <trkpt lat="42.91725522838532924652099609375" lon="-7.20456160604953765869140625">
        <ele>550.5999755859375</ele>
        <time>2019-07-08T16:26:10.000Z</time>
      </trkpt>
      <trkpt lat="42.917495034635066986083984375" lon="-7.20526493154466152191162109375">
        <ele>549.5999755859375</ele>
        <time>2019-07-08T16:26:12.000Z</time>
      </trkpt>
      <trkpt lat="42.91777289472520351409912109375" lon="-7.20593883655965328216552734375">
        <ele>548.4000244140625</ele>
        <time>2019-07-08T16:26:14.000Z</time>
      </trkpt>
      <trkpt lat="42.91808922775089740753173828125" lon="-7.20658642239868640899658203125">
        <ele>549</ele>
        <time>2019-07-08T16:26:16.000Z</time>
      </trkpt>
      <trkpt lat="42.918441854417324066162109375" lon="-7.20721104182302951812744140625">
        <ele>549.20001220703125</ele>
        <time>2019-07-08T16:26:18.000Z</time>
      </trkpt>
      <trkpt lat="42.918798588216304779052734375" lon="-7.2078213281929492950439453125">
        <ele>547.79998779296875</ele>
        <time>2019-07-08T16:26:20.000Z</time>
      </trkpt>
      <trkpt lat="42.91897268034517765045166015625" lon="-7.2081197239458560943603515625">
        <ele>547.20001220703125</ele>
        <time>2019-07-08T16:26:21.000Z</time>
      </trkpt>
      <trkpt lat="42.91913361288607120513916015625" lon="-7.20842004753649234771728515625">
        <ele>544.5999755859375</ele>
        <time>2019-07-08T16:26:22.000Z</time>
      </trkpt>
      <trkpt lat="42.91927300393581390380859375" lon="-7.20872179605066776275634765625">
        <ele>541.20001220703125</ele>
        <time>2019-07-08T16:26:23.000Z</time>
      </trkpt>
      <trkpt lat="42.9193935357034206390380859375" lon="-7.20902002416551113128662109375">
        <ele>538.5999755859375</ele>
        <time>2019-07-08T16:26:24.000Z</time>
      </trkpt>
      <trkpt lat="42.91950291953980922698974609375" lon="-7.20931808464229106903076171875">
        <ele>537.4000244140625</ele>
        <time>2019-07-08T16:26:25.000Z</time>
      </trkpt>
      <trkpt lat="42.9196922667324542999267578125" lon="-7.2099238447844982147216796875">
        <ele>536.79998779296875</ele>
        <time>2019-07-08T16:26:27.000Z</time>
      </trkpt>
      <trkpt lat="42.919828556478023529052734375" lon="-7.21052189357578754425048828125">
        <ele>538.20001220703125</ele>
        <time>2019-07-08T16:26:29.000Z</time>
      </trkpt>
      <trkpt lat="42.91988094337284564971923828125" lon="-7.21080453135073184967041015625">
        <ele>538.79998779296875</ele>
        <time>2019-07-08T16:26:30.000Z</time>
      </trkpt>
      <trkpt lat="42.91992570273578166961669921875" lon="-7.2110775299370288848876953125">
        <ele>540</ele>
        <time>2019-07-08T16:26:31.000Z</time>
      </trkpt>
      <trkpt lat="42.91996258310973644256591796875" lon="-7.2113360278308391571044921875">
        <ele>541.20001220703125</ele>
        <time>2019-07-08T16:26:32.000Z</time>
      </trkpt>
      <trkpt lat="42.92005746625363826751708984375" lon="-7.211956791579723358154296875">
        <ele>543.5999755859375</ele>
        <time>2019-07-08T16:26:35.000Z</time>
      </trkpt>
      <trkpt lat="42.92010373435914516448974609375" lon="-7.2121081687510013580322265625">
        <ele>545.4000244140625</ele>
        <time>2019-07-08T16:26:36.000Z</time>
      </trkpt>
      <trkpt lat="42.92016810737550258636474609375" lon="-7.21223733387887477874755859375">
        <ele>547.5999755859375</ele>
        <time>2019-07-08T16:26:37.000Z</time>
      </trkpt>
      <trkpt lat="42.92025293223559856414794921875" lon="-7.2123433649539947509765625">
        <ele>548.79998779296875</ele>
        <time>2019-07-08T16:26:38.000Z</time>
      </trkpt>
      <trkpt lat="42.9204677604138851165771484375" lon="-7.212462387979030609130859375">
        <ele>550.20001220703125</ele>
        <time>2019-07-08T16:26:40.000Z</time>
      </trkpt>
      <trkpt lat="42.92072835378348827362060546875" lon="-7.21242642961442470550537109375">
        <ele>550.20001220703125</ele>
        <time>2019-07-08T16:26:42.000Z</time>
      </trkpt>
      <trkpt lat="42.9212150909006595611572265625" lon="-7.2120357491075992584228515625">
        <ele>549</ele>
        <time>2019-07-08T16:26:46.000Z</time>
      </trkpt>
      <trkpt lat="42.9217092879116535186767578125" lon="-7.211604751646518707275390625">
        <ele>548.4000244140625</ele>
        <time>2019-07-08T16:26:50.000Z</time>
      </trkpt>
      <trkpt lat="42.9221987910568714141845703125" lon="-7.21115975640714168548583984375">
        <ele>550.20001220703125</ele>
        <time>2019-07-08T16:26:54.000Z</time>
      </trkpt>
      <trkpt lat="42.92231672443449497222900390625" lon="-7.2110564075410366058349609375">
        <ele>551.4000244140625</ele>
        <time>2019-07-08T16:26:55.000Z</time>
      </trkpt>
      <trkpt lat="42.9224321432411670684814453125" lon="-7.21095523796975612640380859375">
        <ele>552.4000244140625</ele>
        <time>2019-07-08T16:26:56.000Z</time>
      </trkpt>
      <trkpt lat="42.92277194559574127197265625" lon="-7.21066203899681568145751953125">
        <ele>553.4000244140625</ele>
        <time>2019-07-08T16:26:59.000Z</time>
      </trkpt>
      <trkpt lat="42.92328667826950550079345703125" lon="-7.21039884723722934722900390625">
        <ele>553.20001220703125</ele>
        <time>2019-07-08T16:27:03.000Z</time>
      </trkpt>
      <trkpt lat="42.923871986567974090576171875" lon="-7.2102624736726284027099609375">
        <ele>553.4000244140625</ele>
        <time>2019-07-08T16:27:07.000Z</time>
      </trkpt>
      <trkpt lat="42.9241604916751384735107421875" lon="-7.210194580256938934326171875">
        <ele>554.4000244140625</ele>
        <time>2019-07-08T16:27:09.000Z</time>
      </trkpt>
      <trkpt lat="42.924561984837055206298828125" lon="-7.21010514535009860992431640625">
        <ele>556</ele>
        <time>2019-07-08T16:27:12.000Z</time>
      </trkpt>
      <trkpt lat="42.92502676136791706085205078125" lon="-7.210013531148433685302734375">
        <ele>556.79998779296875</ele>
        <time>2019-07-08T16:27:16.000Z</time>
      </trkpt>
      <trkpt lat="42.9251195490360260009765625" lon="-7.2099925763905048370361328125">
        <ele>557.4000244140625</ele>
        <time>2019-07-08T16:27:17.000Z</time>
      </trkpt>
      <trkpt lat="42.925477288663387298583984375" lon="-7.2099322266876697540283203125">
        <ele>558.20001220703125</ele>
        <time>2019-07-08T16:27:22.000Z</time>
      </trkpt>
      <trkpt lat="42.925549037754535675048828125" lon="-7.209962904453277587890625">
        <ele>558.79998779296875</ele>
        <time>2019-07-08T16:27:23.000Z</time>
      </trkpt>
      <trkpt lat="42.92561768554151058197021484375" lon="-7.21001160331070423126220703125">
        <ele>559</ele>
        <time>2019-07-08T16:27:24.000Z</time>
      </trkpt>
      <trkpt lat="42.92578934691846370697021484375" lon="-7.210167758166790008544921875">
        <ele>559.5999755859375</ele>
        <time>2019-07-08T16:27:27.000Z</time>
      </trkpt>
      <trkpt lat="42.92583771049976348876953125" lon="-7.21019692718982696533203125">
        <ele>559.79998779296875</ele>
        <time>2019-07-08T16:27:28.000Z</time>
      </trkpt>
      <trkpt lat="42.92587769217789173126220703125" lon="-7.210236489772796630859375">
        <ele>560</ele>
        <time>2019-07-08T16:27:29.000Z</time>
      </trkpt>
      <trkpt lat="42.925921194255352020263671875" lon="-7.21035123802721500396728515625">
        <ele>560.79998779296875</ele>
        <time>2019-07-08T16:27:31.000Z</time>
      </trkpt>
      <trkpt lat="42.9259337671101093292236328125" lon="-7.2104094922542572021484375">
        <ele>561.5999755859375</ele>
        <time>2019-07-08T16:27:32.000Z</time>
      </trkpt>
      <trkpt lat="42.92594860307872295379638671875" lon="-7.21050077117979526519775390625">
        <ele>562.79998779296875</ele>
        <time>2019-07-08T16:27:34.000Z</time>
      </trkpt>
      <trkpt lat="42.9259253852069377899169921875" lon="-7.2105340473353862762451171875">
        <ele>563.79998779296875</ele>
        <time>2019-07-08T16:28:19.000Z</time>
      </trkpt>
      <trkpt lat="42.9259223677217960357666015625" lon="-7.2105306945741176605224609375">
        <ele>563.4000244140625</ele>
        <time>2019-07-08T16:29:14.000Z</time>
      </trkpt>
      <trkpt lat="42.92590384371578693389892578125" lon="-7.21054737456142902374267578125">
        <ele>563</ele>
        <time>2019-07-08T16:33:20.000Z</time>
      </trkpt>
      <trkpt lat="42.925882972776889801025390625" lon="-7.21052709035575389862060546875">
        <ele>563</ele>
        <time>2019-07-08T16:36:46.000Z</time>
      </trkpt>
      <trkpt lat="42.92589143849909305572509765625" lon="-7.21052625216543674468994140625">
        <ele>562.5999755859375</ele>
        <time>2019-07-08T16:36:48.000Z</time>
      </trkpt>
      <trkpt lat="42.92591759003698825836181640625" lon="-7.21047109924256801605224609375">
        <ele>561.79998779296875</ele>
        <time>2019-07-08T16:37:30.000Z</time>
      </trkpt>
      <trkpt lat="42.92587601579725742340087890625" lon="-7.21049373038113117218017578125">
        <ele>561.5999755859375</ele>
        <time>2019-07-08T16:40:48.000Z</time>
      </trkpt>
      <trkpt lat="42.9259401373565196990966796875" lon="-7.2104488871991634368896484375">
        <ele>561.5999755859375</ele>
        <time>2019-07-08T16:42:12.000Z</time>
      </trkpt>
      <trkpt lat="42.9260182566940784454345703125" lon="-7.2103290259838104248046875">
        <ele>561.5999755859375</ele>
        <time>2019-07-08T16:43:17.000Z</time>
      </trkpt>
      <trkpt lat="42.926011048257350921630859375" lon="-7.2103127650916576385498046875">
        <ele>561.5999755859375</ele>
        <time>2019-07-08T16:44:10.000Z</time>
      </trkpt>
      <trkpt lat="42.92599855922162532806396484375" lon="-7.2103918902575969696044921875">
        <ele>560.4000244140625</ele>
        <time>2019-07-08T16:46:06.000Z</time>
      </trkpt>
      <trkpt lat="42.925868891179561614990234375" lon="-7.21052306704223155975341796875">
        <ele>560.4000244140625</ele>
        <time>2019-07-08T16:53:19.000Z</time>
      </trkpt>
      <trkpt lat="42.92594038881361484527587890625" lon="-7.2105112485587596893310546875">
        <ele>560.4000244140625</ele>
        <time>2019-07-08T16:57:06.000Z</time>
      </trkpt>
      <trkpt lat="42.92587618343532085418701171875" lon="-7.21044813282787799835205078125">
        <ele>559.4000244140625</ele>
        <time>2019-07-08T16:57:59.000Z</time>
      </trkpt>
      <trkpt lat="42.9258382134139537811279296875" lon="-7.21042013727128505706787109375">
        <ele>559</ele>
        <time>2019-07-08T16:58:00.000Z</time>
      </trkpt>
      <trkpt lat="42.92574760504066944122314453125" lon="-7.21034738235175609588623046875">
        <ele>558</ele>
        <time>2019-07-08T16:58:02.000Z</time>
      </trkpt>
      <trkpt lat="42.92544971220195293426513671875" lon="-7.21001579426229000091552734375">
        <ele>556.79998779296875</ele>
        <time>2019-07-08T16:58:10.000Z</time>
      </trkpt>
      <trkpt lat="42.9254509694874286651611328125" lon="-7.20992912538349628448486328125">
        <ele>556</ele>
        <time>2019-07-08T16:58:13.000Z</time>
      </trkpt>
      <trkpt lat="42.92552598752081394195556640625" lon="-7.20987078733742237091064453125">
        <ele>556.20001220703125</ele>
        <time>2019-07-08T16:58:15.000Z</time>
      </trkpt>
      <trkpt lat="42.92604155838489532470703125" lon="-7.20976643264293670654296875">
        <ele>556.79998779296875</ele>
        <time>2019-07-08T16:58:20.000Z</time>
      </trkpt>
      <trkpt lat="42.92659635655581951141357421875" lon="-7.20963458530604839324951171875">
        <ele>556.4000244140625</ele>
        <time>2019-07-08T16:58:24.000Z</time>
      </trkpt>
      <trkpt lat="42.92689575813710689544677734375" lon="-7.20956199802458286285400390625">
        <ele>555.5999755859375</ele>
        <time>2019-07-08T16:58:26.000Z</time>
      </trkpt>
      <trkpt lat="42.92735341005027294158935546875" lon="-7.20944565720856189727783203125">
        <ele>554.20001220703125</ele>
        <time>2019-07-08T16:58:29.000Z</time>
      </trkpt>
      <trkpt lat="42.9276676476001739501953125" lon="-7.20937659032642841339111328125">
        <ele>553.20001220703125</ele>
        <time>2019-07-08T16:58:31.000Z</time>
      </trkpt>
      <trkpt lat="42.9281190969049930572509765625" lon="-7.2092921845614910125732421875">
        <ele>555.79998779296875</ele>
        <time>2019-07-08T16:58:34.000Z</time>
      </trkpt>
      <trkpt lat="42.92827156372368335723876953125" lon="-7.209282629191875457763671875">
        <ele>557</ele>
        <time>2019-07-08T16:58:35.000Z</time>
      </trkpt>
      <trkpt lat="42.92842595838010311126708984375" lon="-7.20928338356316089630126953125">
        <ele>558</ele>
        <time>2019-07-08T16:58:36.000Z</time>
      </trkpt>
      <trkpt lat="42.92858169414103031158447265625" lon="-7.20929645933210849761962890625">
        <ele>559.4000244140625</ele>
        <time>2019-07-08T16:58:37.000Z</time>
      </trkpt>
      <trkpt lat="42.9290706105530261993408203125" lon="-7.209428139030933380126953125">
        <ele>557.5999755859375</ele>
        <time>2019-07-08T16:58:40.000Z</time>
      </trkpt>
      <trkpt lat="42.92941485531628131866455078125" lon="-7.2095684520900249481201171875">
        <ele>556.5999755859375</ele>
        <time>2019-07-08T16:58:42.000Z</time>
      </trkpt>
      <trkpt lat="42.92994777671992778778076171875" lon="-7.209808342158794403076171875">
        <ele>556.79998779296875</ele>
        <time>2019-07-08T16:58:45.000Z</time>
      </trkpt>
      <trkpt lat="42.93051187880337238311767578125" lon="-7.210073210299015045166015625">
        <ele>557.20001220703125</ele>
        <time>2019-07-08T16:58:48.000Z</time>
      </trkpt>
      <trkpt lat="42.93089861981570720672607421875" lon="-7.2102566063404083251953125">
        <ele>555.4000244140625</ele>
        <time>2019-07-08T16:58:50.000Z</time>
      </trkpt>
      <trkpt lat="42.93149021454155445098876953125" lon="-7.210502363741397857666015625">
        <ele>555.20001220703125</ele>
        <time>2019-07-08T16:58:53.000Z</time>
      </trkpt>
      <trkpt lat="42.93189807794988155364990234375" lon="-7.210599593818187713623046875">
        <ele>556.79998779296875</ele>
        <time>2019-07-08T16:58:55.000Z</time>
      </trkpt>
      <trkpt lat="42.93210444040596485137939453125" lon="-7.21062432043254375457763671875">
        <ele>557</ele>
        <time>2019-07-08T16:58:56.000Z</time>
      </trkpt>
      <trkpt lat="42.9327155649662017822265625" lon="-7.210672013461589813232421875">
        <ele>557.5999755859375</ele>
        <time>2019-07-08T16:58:59.000Z</time>
      </trkpt>
      <trkpt lat="42.933310009539127349853515625" lon="-7.21071316860616207122802734375">
        <ele>558</ele>
        <time>2019-07-08T16:59:02.000Z</time>
      </trkpt>
      <trkpt lat="42.9335076548159122467041015625" lon="-7.21072934567928314208984375">
        <ele>559.4000244140625</ele>
        <time>2019-07-08T16:59:03.000Z</time>
      </trkpt>
      <trkpt lat="42.93369784019887447357177734375" lon="-7.210745774209499359130859375">
        <ele>561.5999755859375</ele>
        <time>2019-07-08T16:59:04.000Z</time>
      </trkpt>
      <trkpt lat="42.9338764585554599761962890625" lon="-7.21076287329196929931640625">
        <ele>563.79998779296875</ele>
        <time>2019-07-08T16:59:05.000Z</time>
      </trkpt>
      <trkpt lat="42.934046946465969085693359375" lon="-7.21077896654605865478515625">
        <ele>565.4000244140625</ele>
        <time>2019-07-08T16:59:06.000Z</time>
      </trkpt>
      <trkpt lat="42.9342149198055267333984375" lon="-7.21079380251467227935791015625">
        <ele>567</ele>
        <time>2019-07-08T16:59:07.000Z</time>
      </trkpt>
      <trkpt lat="42.934544496238231658935546875" lon="-7.210820205509662628173828125">
        <ele>568.5999755859375</ele>
        <time>2019-07-08T16:59:09.000Z</time>
      </trkpt>
      <trkpt lat="42.93486225418746471405029296875" lon="-7.210845015943050384521484375">
        <ele>570.5999755859375</ele>
        <time>2019-07-08T16:59:11.000Z</time>
      </trkpt>
      <trkpt lat="42.93547346256673336029052734375" lon="-7.21090829931199550628662109375">
        <ele>572.4000244140625</ele>
        <time>2019-07-08T16:59:15.000Z</time>
      </trkpt>
      <trkpt lat="42.93609657324850559234619140625" lon="-7.21096294932067394256591796875">
        <ele>571.79998779296875</ele>
        <time>2019-07-08T16:59:18.000Z</time>
      </trkpt>
      <trkpt lat="42.936318106949329376220703125" lon="-7.2109675593674182891845703125">
        <ele>571.4000244140625</ele>
        <time>2019-07-08T16:59:19.000Z</time>
      </trkpt>
      <trkpt lat="42.936533354222774505615234375" lon="-7.21097686327993869781494140625">
        <ele>569.5999755859375</ele>
        <time>2019-07-08T16:59:20.000Z</time>
      </trkpt>
      <trkpt lat="42.936738543212413787841796875" lon="-7.2109880112111568450927734375">
        <ele>568.4000244140625</ele>
        <time>2019-07-08T16:59:21.000Z</time>
      </trkpt>
      <trkpt lat="42.9369378648698329925537109375" lon="-7.21099949441850185394287109375">
        <ele>567.20001220703125</ele>
        <time>2019-07-08T16:59:22.000Z</time>
      </trkpt>
      <trkpt lat="42.937529794871807098388671875" lon="-7.211046181619167327880859375">
        <ele>566.5999755859375</ele>
        <time>2019-07-08T16:59:25.000Z</time>
      </trkpt>
      <trkpt lat="42.93810755945742130279541015625" lon="-7.21114374697208404541015625">
        <ele>568.20001220703125</ele>
        <time>2019-07-08T16:59:28.000Z</time>
      </trkpt>
      <trkpt lat="42.93829531408846378326416015625" lon="-7.2112042643129825592041015625">
        <ele>569.4000244140625</ele>
        <time>2019-07-08T16:59:29.000Z</time>
      </trkpt>
      <trkpt lat="42.93847971595823764801025390625" lon="-7.2112810425460338592529296875">
        <ele>570.5999755859375</ele>
        <time>2019-07-08T16:59:30.000Z</time>
      </trkpt>
      <trkpt lat="42.9386611841619014739990234375" lon="-7.211372070014476776123046875">
        <ele>571.5999755859375</ele>
        <time>2019-07-08T16:59:31.000Z</time>
      </trkpt>
      <trkpt lat="42.9388408921658992767333984375" lon="-7.211475335061550140380859375">
        <ele>575.20001220703125</ele>
        <time>2019-07-08T16:59:32.000Z</time>
      </trkpt>
      <trkpt lat="42.93901749886572360992431640625" lon="-7.21158362925052642822265625">
        <ele>579.5999755859375</ele>
        <time>2019-07-08T16:59:33.000Z</time>
      </trkpt>
      <trkpt lat="42.93919301591813564300537109375" lon="-7.21169267781078815460205078125">
        <ele>584.5999755859375</ele>
        <time>2019-07-08T16:59:34.000Z</time>
      </trkpt>
      <trkpt lat="42.93937079608440399169921875" lon="-7.21179862506687641143798828125">
        <ele>587.4000244140625</ele>
        <time>2019-07-08T16:59:35.000Z</time>
      </trkpt>
      <trkpt lat="42.939550839364528656005859375" lon="-7.21189535222947597503662109375">
        <ele>589</ele>
        <time>2019-07-08T16:59:36.000Z</time>
      </trkpt>
      <trkpt lat="42.9399214871227741241455078125" lon="-7.21205628477036952972412109375">
        <ele>590.20001220703125</ele>
        <time>2019-07-08T16:59:38.000Z</time>
      </trkpt>
      <trkpt lat="42.9401130974292755126953125" lon="-7.212115712463855743408203125">
        <ele>588.79998779296875</ele>
        <time>2019-07-08T16:59:39.000Z</time>
      </trkpt>
      <trkpt lat="42.94030747376382350921630859375" lon="-7.21216105856001377105712890625">
        <ele>586</ele>
        <time>2019-07-08T16:59:40.000Z</time>
      </trkpt>
      <trkpt lat="42.94050528667867183685302734375" lon="-7.2121946699917316436767578125">
        <ele>583.20001220703125</ele>
        <time>2019-07-08T16:59:41.000Z</time>
      </trkpt>
      <trkpt lat="42.94070410542190074920654296875" lon="-7.21221872605383396148681640625">
        <ele>581.4000244140625</ele>
        <time>2019-07-08T16:59:42.000Z</time>
      </trkpt>
      <trkpt lat="42.94090460054576396942138671875" lon="-7.21223683096468448638916015625">
        <ele>579.5999755859375</ele>
        <time>2019-07-08T16:59:43.000Z</time>
      </trkpt>
      <trkpt lat="42.94151715002954006195068359375" lon="-7.21226155757904052734375">
        <ele>578.79998779296875</ele>
        <time>2019-07-08T16:59:46.000Z</time>
      </trkpt>
      <trkpt lat="42.942136824131011962890625" lon="-7.212252505123615264892578125">
        <ele>578.5999755859375</ele>
        <time>2019-07-08T16:59:49.000Z</time>
      </trkpt>
      <trkpt lat="42.94276638887822628021240234375" lon="-7.212223000824451446533203125">
        <ele>578.4000244140625</ele>
        <time>2019-07-08T16:59:52.000Z</time>
      </trkpt>
      <trkpt lat="42.9434029944241046905517578125" lon="-7.21216742880642414093017578125">
        <ele>578.4000244140625</ele>
        <time>2019-07-08T16:59:55.000Z</time>
      </trkpt>
      <trkpt lat="42.9440386779606342315673828125" lon="-7.21201990731060504913330078125">
        <ele>578.5999755859375</ele>
        <time>2019-07-08T16:59:58.000Z</time>
      </trkpt>
      <trkpt lat="42.94464536011219024658203125" lon="-7.2117350064218044281005859375">
        <ele>578</ele>
        <time>2019-07-08T17:00:01.000Z</time>
      </trkpt>
      <trkpt lat="42.9448413290083408355712890625" lon="-7.2116307355463504791259765625">
        <ele>578.4000244140625</ele>
        <time>2019-07-08T17:00:02.000Z</time>
      </trkpt>
      <trkpt lat="42.9452356137335300445556640625" lon="-7.211419679224491119384765625">
        <ele>582.79998779296875</ele>
        <time>2019-07-08T17:00:04.000Z</time>
      </trkpt>
      <trkpt lat="42.94543300755321979522705078125" lon="-7.21131381578743457794189453125">
        <ele>588</ele>
        <time>2019-07-08T17:00:05.000Z</time>
      </trkpt>
      <trkpt lat="42.9456305690109729766845703125" lon="-7.21120920963585376739501953125">
        <ele>594.4000244140625</ele>
        <time>2019-07-08T17:00:06.000Z</time>
      </trkpt>
      <trkpt lat="42.9458303935825824737548828125" lon="-7.2111063636839389801025390625">
        <ele>598.20001220703125</ele>
        <time>2019-07-08T17:00:07.000Z</time>
      </trkpt>
      <trkpt lat="42.9460302181541919708251953125" lon="-7.211002595722675323486328125">
        <ele>601</ele>
        <time>2019-07-08T17:00:08.000Z</time>
      </trkpt>
      <trkpt lat="42.94622945599257946014404296875" lon="-7.21089840866625308990478515625">
        <ele>602.5999755859375</ele>
        <time>2019-07-08T17:00:09.000Z</time>
      </trkpt>
      <trkpt lat="42.94642793945968151092529296875" lon="-7.21080050803720951080322265625">
        <ele>604.4000244140625</ele>
        <time>2019-07-08T17:00:10.000Z</time>
      </trkpt>
      <trkpt lat="42.94662592001259326934814453125" lon="-7.21071551553905010223388671875">
        <ele>605.79998779296875</ele>
        <time>2019-07-08T17:00:11.000Z</time>
      </trkpt>
      <trkpt lat="42.9468234814703464508056640625" lon="-7.2106467001140117645263671875">
        <ele>607.4000244140625</ele>
        <time>2019-07-08T17:00:12.000Z</time>
      </trkpt>
      <trkpt lat="42.94721751473844051361083984375" lon="-7.2105752862989902496337890625">
        <ele>609.20001220703125</ele>
        <time>2019-07-08T17:00:14.000Z</time>
      </trkpt>
      <trkpt lat="42.947804667055606842041015625" lon="-7.21064913086593151092529296875">
        <ele>608.5999755859375</ele>
        <time>2019-07-08T17:00:17.000Z</time>
      </trkpt>
      <trkpt lat="42.9480073414742946624755859375" lon="-7.2107206284999847412109375">
        <ele>605.20001220703125</ele>
        <time>2019-07-08T17:00:18.000Z</time>
      </trkpt>
      <trkpt lat="42.9482108540832996368408203125" lon="-7.210810817778110504150390625">
        <ele>601.5999755859375</ele>
        <time>2019-07-08T17:00:19.000Z</time>
      </trkpt>
      <trkpt lat="42.94841612689197063446044921875" lon="-7.21091978251934051513671875">
        <ele>598</ele>
        <time>2019-07-08T17:00:20.000Z</time>
      </trkpt>
      <trkpt lat="42.9486264288425445556640625" lon="-7.21104056574404239654541015625">
        <ele>595.5999755859375</ele>
        <time>2019-07-08T17:00:21.000Z</time>
      </trkpt>
      <trkpt lat="42.94884427450597286224365234375" lon="-7.21116730011999607086181640625">
        <ele>594.4000244140625</ele>
        <time>2019-07-08T17:00:22.000Z</time>
      </trkpt>
      <trkpt lat="42.94929874129593372344970703125" lon="-7.21142278052866458892822265625">
        <ele>593.4000244140625</ele>
        <time>2019-07-08T17:00:24.000Z</time>
      </trkpt>
      <trkpt lat="42.94975924305617809295654296875" lon="-7.21166552044451236724853515625">
        <ele>594.4000244140625</ele>
        <time>2019-07-08T17:00:26.000Z</time>
      </trkpt>
      <trkpt lat="42.950232736766338348388671875" lon="-7.21189535222947597503662109375">
        <ele>596</ele>
        <time>2019-07-08T17:00:28.000Z</time>
      </trkpt>
      <trkpt lat="42.9507200606167316436767578125" lon="-7.21211110241711139678955078125">
        <ele>597.20001220703125</ele>
        <time>2019-07-08T17:00:30.000Z</time>
      </trkpt>
      <trkpt lat="42.950967662036418914794921875" lon="-7.212210930883884429931640625">
        <ele>598.4000244140625</ele>
        <time>2019-07-08T17:00:31.000Z</time>
      </trkpt>
      <trkpt lat="42.9512147605419158935546875" lon="-7.2123073227703571319580078125">
        <ele>599.4000244140625</ele>
        <time>2019-07-08T17:00:32.000Z</time>
      </trkpt>
      <trkpt lat="42.95146127231419086456298828125" lon="-7.21239809878170490264892578125">
        <ele>601</ele>
        <time>2019-07-08T17:00:33.000Z</time>
      </trkpt>
      <trkpt lat="42.951707951724529266357421875" lon="-7.212483175098896026611328125">
        <ele>603</ele>
        <time>2019-07-08T17:00:34.000Z</time>
      </trkpt>
      <trkpt lat="42.95195429585874080657958984375" lon="-7.212565653026103973388671875">
        <ele>605.4000244140625</ele>
        <time>2019-07-08T17:00:35.000Z</time>
      </trkpt>
      <trkpt lat="42.952200807631015777587890625" lon="-7.21264586783945560455322265625">
        <ele>607.4000244140625</ele>
        <time>2019-07-08T17:00:36.000Z</time>
      </trkpt>
      <trkpt lat="42.952692992985248565673828125" lon="-7.2127995081245899200439453125">
        <ele>608.79998779296875</ele>
        <time>2019-07-08T17:00:38.000Z</time>
      </trkpt>
      <trkpt lat="42.95318551361560821533203125" lon="-7.21294577233493328094482421875">
        <ele>608.79998779296875</ele>
        <time>2019-07-08T17:00:40.000Z</time>
      </trkpt>
      <trkpt lat="42.95367300510406494140625" lon="-7.213092036545276641845703125">
        <ele>609.79998779296875</ele>
        <time>2019-07-08T17:00:42.000Z</time>
      </trkpt>
      <trkpt lat="42.9539149068295955657958984375" lon="-7.2131663002073764801025390625">
        <ele>610.5999755859375</ele>
        <time>2019-07-08T17:00:43.000Z</time>
      </trkpt>
      <trkpt lat="42.95415588654577732086181640625" lon="-7.2132410667836666107177734375">
        <ele>612.20001220703125</ele>
        <time>2019-07-08T17:00:44.000Z</time>
      </trkpt>
      <trkpt lat="42.95439544133841991424560546875" lon="-7.213315665721893310546875">
        <ele>613.5999755859375</ele>
        <time>2019-07-08T17:00:45.000Z</time>
      </trkpt>
      <trkpt lat="42.954634912312030792236328125" lon="-7.21338833682239055633544921875">
        <ele>614.79998779296875</ele>
        <time>2019-07-08T17:00:46.000Z</time>
      </trkpt>
      <trkpt lat="42.954875640571117401123046875" lon="-7.21345371566712856292724609375">
        <ele>616.5999755859375</ele>
        <time>2019-07-08T17:00:47.000Z</time>
      </trkpt>
      <trkpt lat="42.9551172070205211639404296875" lon="-7.2135074436664581298828125">
        <ele>618.20001220703125</ele>
        <time>2019-07-08T17:00:48.000Z</time>
      </trkpt>
      <trkpt lat="42.95536036603152751922607421875" lon="-7.21354356966912746429443359375">
        <ele>619.79998779296875</ele>
        <time>2019-07-08T17:00:49.000Z</time>
      </trkpt>
      <trkpt lat="42.95585003681480884552001953125" lon="-7.21354709006845951080322265625">
        <ele>621.20001220703125</ele>
        <time>2019-07-08T17:00:51.000Z</time>
      </trkpt>
      <trkpt lat="42.95633736066520214080810546875" lon="-7.21348355524241924285888671875">
        <ele>622</ele>
        <time>2019-07-08T17:00:53.000Z</time>
      </trkpt>
      <trkpt lat="42.95657758601009845733642578125" lon="-7.2134630195796489715576171875">
        <ele>622.4000244140625</ele>
        <time>2019-07-08T17:00:54.000Z</time>
      </trkpt>
      <trkpt lat="42.95681345276534557342529296875" lon="-7.2134645283222198486328125">
        <ele>623.79998779296875</ele>
        <time>2019-07-08T17:00:55.000Z</time>
      </trkpt>
      <trkpt lat="42.95726607553660869598388671875" lon="-7.2135364450514316558837890625">
        <ele>626.20001220703125</ele>
        <time>2019-07-08T17:00:57.000Z</time>
      </trkpt>
      <trkpt lat="42.95769522897899150848388671875" lon="-7.213695533573627471923828125">
        <ele>628.79998779296875</ele>
        <time>2019-07-08T17:00:59.000Z</time>
      </trkpt>
      <trkpt lat="42.9579023458063602447509765625" lon="-7.21380877308547496795654296875">
        <ele>631</ele>
        <time>2019-07-08T17:01:00.000Z</time>
      </trkpt>
      <trkpt lat="42.95810610987246036529541015625" lon="-7.21394087187945842742919921875">
        <ele>633.20001220703125</ele>
        <time>2019-07-08T17:01:01.000Z</time>
      </trkpt>
      <trkpt lat="42.9583087004721164703369140625" lon="-7.21408654935657978057861328125">
        <ele>634.4000244140625</ele>
        <time>2019-07-08T17:01:02.000Z</time>
      </trkpt>
      <trkpt lat="42.9587249457836151123046875" lon="-7.21439592540264129638671875">
        <ele>634.5999755859375</ele>
        <time>2019-07-08T17:01:04.000Z</time>
      </trkpt>
      <trkpt lat="42.959155105054378509521484375" lon="-7.214717455208301544189453125">
        <ele>633.4000244140625</ele>
        <time>2019-07-08T17:01:06.000Z</time>
      </trkpt>
      <trkpt lat="42.95937261544167995452880859375" lon="-7.21488215960562229156494140625">
        <ele>631.20001220703125</ele>
        <time>2019-07-08T17:01:07.000Z</time>
      </trkpt>
      <trkpt lat="42.959593646228313446044921875" lon="-7.215047366917133331298828125">
        <ele>628.5999755859375</ele>
        <time>2019-07-08T17:01:08.000Z</time>
      </trkpt>
      <trkpt lat="42.95981367118656635284423828125" lon="-7.215209305286407470703125">
        <ele>625.4000244140625</ele>
        <time>2019-07-08T17:01:09.000Z</time>
      </trkpt>
      <trkpt lat="42.960028164088726043701171875" lon="-7.2153675556182861328125">
        <ele>623.20001220703125</ele>
        <time>2019-07-08T17:01:10.000Z</time>
      </trkpt>
      <trkpt lat="42.96024014241993427276611328125" lon="-7.215524129569530487060546875">
        <ele>622.20001220703125</ele>
        <time>2019-07-08T17:01:11.000Z</time>
      </trkpt>
      <trkpt lat="42.960665859282016754150390625" lon="-7.21584121696650981903076171875">
        <ele>622.4000244140625</ele>
        <time>2019-07-08T17:01:13.000Z</time>
      </trkpt>
      <trkpt lat="42.961090318858623504638671875" lon="-7.2161629982292652130126953125">
        <ele>622</ele>
        <time>2019-07-08T17:01:15.000Z</time>
      </trkpt>
      <trkpt lat="42.961496673524379730224609375" lon="-7.216466926038265228271484375">
        <ele>621</ele>
        <time>2019-07-08T17:01:17.000Z</time>
      </trkpt>
      <trkpt lat="42.9616899602115154266357421875" lon="-7.21660581417381763458251953125">
        <ele>619.5999755859375</ele>
        <time>2019-07-08T17:01:18.000Z</time>
      </trkpt>
      <trkpt lat="42.96188123524188995361328125" lon="-7.2167322970926761627197265625">
        <ele>618.5999755859375</ele>
        <time>2019-07-08T17:01:19.000Z</time>
      </trkpt>
      <trkpt lat="42.96207527630031108856201171875" lon="-7.216838411986827850341796875">
        <ele>618</ele>
        <time>2019-07-08T17:01:20.000Z</time>
      </trkpt>
      <trkpt lat="42.9626897536218166351318359375" lon="-7.2169904597103595733642578125">
        <ele>618.5999755859375</ele>
        <time>2019-07-08T17:01:23.000Z</time>
      </trkpt>
      <trkpt lat="42.963114716112613677978515625" lon="-7.21702708862721920013427734375">
        <ele>620</ele>
        <time>2019-07-08T17:01:25.000Z</time>
      </trkpt>
      <trkpt lat="42.963761128485202789306640625" lon="-7.2170694172382354736328125">
        <ele>620.4000244140625</ele>
        <time>2019-07-08T17:01:28.000Z</time>
      </trkpt>
      <trkpt lat="42.964189946651458740234375" lon="-7.217047624289989471435546875">
        <ele>618.20001220703125</ele>
        <time>2019-07-08T17:01:30.000Z</time>
      </trkpt>
      <trkpt lat="42.9646177589893341064453125" lon="-7.21697646193206310272216796875">
        <ele>616.5999755859375</ele>
        <time>2019-07-08T17:01:32.000Z</time>
      </trkpt>
      <trkpt lat="42.965051271021366119384765625" lon="-7.216908819973468780517578125">
        <ele>615.5999755859375</ele>
        <time>2019-07-08T17:01:34.000Z</time>
      </trkpt>
      <trkpt lat="42.96526978723704814910888671875" lon="-7.2169059701263904571533203125">
        <ele>615</ele>
        <time>2019-07-08T17:01:35.000Z</time>
      </trkpt>
      <trkpt lat="42.965488135814666748046875" lon="-7.216938994824886322021484375">
        <ele>614.20001220703125</ele>
        <time>2019-07-08T17:01:36.000Z</time>
      </trkpt>
      <trkpt lat="42.965705059468746185302734375" lon="-7.21700680442154407501220703125">
        <ele>613.4000244140625</ele>
        <time>2019-07-08T17:01:37.000Z</time>
      </trkpt>
      <trkpt lat="42.965918965637683868408203125" lon="-7.21710227429866790771484375">
        <ele>612.79998779296875</ele>
        <time>2019-07-08T17:01:38.000Z</time>
      </trkpt>
      <trkpt lat="42.96634233556687831878662109375" lon="-7.2173485346138477325439453125">
        <ele>612.5999755859375</ele>
        <time>2019-07-08T17:01:40.000Z</time>
      </trkpt>
      <trkpt lat="42.966773249208927154541015625" lon="-7.2176214493811130523681640625">
        <ele>612.79998779296875</ele>
        <time>2019-07-08T17:01:42.000Z</time>
      </trkpt>
      <trkpt lat="42.9672169871628284454345703125" lon="-7.2179064340889453887939453125">
        <ele>612.79998779296875</ele>
        <time>2019-07-08T17:01:44.000Z</time>
      </trkpt>
      <trkpt lat="42.96765561215579509735107421875" lon="-7.2182319872081279754638671875">
        <ele>612.4000244140625</ele>
        <time>2019-07-08T17:01:46.000Z</time>
      </trkpt>
      <trkpt lat="42.96786281280219554901123046875" lon="-7.21843005158007144927978515625">
        <ele>611.20001220703125</ele>
        <time>2019-07-08T17:01:47.000Z</time>
      </trkpt>
      <trkpt lat="42.968059368431568145751953125" lon="-7.21865401603281497955322265625">
        <ele>609.4000244140625</ele>
        <time>2019-07-08T17:01:48.000Z</time>
      </trkpt>
      <trkpt lat="42.96844468452036380767822265625" lon="-7.2191301919519901275634765625">
        <ele>607.5999755859375</ele>
        <time>2019-07-08T17:01:50.000Z</time>
      </trkpt>
      <trkpt lat="42.96883494593203067779541015625" lon="-7.21961391158401966094970703125">
        <ele>607.20001220703125</ele>
        <time>2019-07-08T17:01:52.000Z</time>
      </trkpt>
      <trkpt lat="42.969239540398120880126953125" lon="-7.2200609184801578521728515625">
        <ele>608.20001220703125</ele>
        <time>2019-07-08T17:01:54.000Z</time>
      </trkpt>
      <trkpt lat="42.96945520676672458648681640625" lon="-7.22024724818766117095947265625">
        <ele>608.5999755859375</ele>
        <time>2019-07-08T17:01:55.000Z</time>
      </trkpt>
      <trkpt lat="42.969680763781070709228515625" lon="-7.2204005531966686248779296875">
        <ele>608.79998779296875</ele>
        <time>2019-07-08T17:01:56.000Z</time>
      </trkpt>
      <trkpt lat="42.969913780689239501953125" lon="-7.22051949240267276763916015625">
        <ele>609</ele>
        <time>2019-07-08T17:01:57.000Z</time>
      </trkpt>
      <trkpt lat="42.9703938961029052734375" lon="-7.22064354456961154937744140625">
        <ele>609</ele>
        <time>2019-07-08T17:01:59.000Z</time>
      </trkpt>
      <trkpt lat="42.97087677754461765289306640625" lon="-7.22063164226710796356201171875">
        <ele>609.20001220703125</ele>
        <time>2019-07-08T17:02:01.000Z</time>
      </trkpt>
      <trkpt lat="42.971354462206363677978515625" lon="-7.22051270306110382080078125">
        <ele>609.20001220703125</ele>
        <time>2019-07-08T17:02:03.000Z</time>
      </trkpt>
      <trkpt lat="42.9718313924968242645263671875" lon="-7.22036643885076045989990234375">
        <ele>609.20001220703125</ele>
        <time>2019-07-08T17:02:05.000Z</time>
      </trkpt>
      <trkpt lat="42.97232215292751789093017578125" lon="-7.2202791832387447357177734375">
        <ele>609.5999755859375</ele>
        <time>2019-07-08T17:02:07.000Z</time>
      </trkpt>
      <trkpt lat="42.972819618880748748779296875" lon="-7.2202845476567745208740234375">
        <ele>606.79998779296875</ele>
        <time>2019-07-08T17:02:09.000Z</time>
      </trkpt>
      <trkpt lat="42.9730548150837421417236328125" lon="-7.220321260392665863037109375">
        <ele>604</ele>
        <time>2019-07-08T17:02:10.000Z</time>
      </trkpt>
      <trkpt lat="42.9732760973274707794189453125" lon="-7.22037716768682003021240234375">
        <ele>601.5999755859375</ele>
        <time>2019-07-08T17:02:11.000Z</time>
      </trkpt>
      <trkpt lat="42.973483465611934661865234375" lon="-7.22044925205409526824951171875">
        <ele>600</ele>
        <time>2019-07-08T17:02:12.000Z</time>
      </trkpt>
      <trkpt lat="42.97386425547301769256591796875" lon="-7.22062761895358562469482421875">
        <ele>598.79998779296875</ele>
        <time>2019-07-08T17:02:14.000Z</time>
      </trkpt>
      <trkpt lat="42.974210679531097412109375" lon="-7.220825515687465667724609375">
        <ele>601.79998779296875</ele>
        <time>2019-07-08T17:02:16.000Z</time>
      </trkpt>
      <trkpt lat="42.9743764735758304595947265625" lon="-7.22092576324939727783203125">
        <ele>603.79998779296875</ele>
        <time>2019-07-08T17:02:17.000Z</time>
      </trkpt>
      <trkpt lat="42.9745390824973583221435546875" lon="-7.2210255078971385955810546875">
        <ele>605.4000244140625</ele>
        <time>2019-07-08T17:02:18.000Z</time>
      </trkpt>
      <trkpt lat="42.97470219433307647705078125" lon="-7.22112416289746761322021484375">
        <ele>606.79998779296875</ele>
        <time>2019-07-08T17:02:19.000Z</time>
      </trkpt>
      <trkpt lat="42.97486505471169948577880859375" lon="-7.2212223149836063385009765625">
        <ele>608.79998779296875</ele>
        <time>2019-07-08T17:02:20.000Z</time>
      </trkpt>
      <trkpt lat="42.975027747452259063720703125" lon="-7.22131879068911075592041015625">
        <ele>610</ele>
        <time>2019-07-08T17:02:21.000Z</time>
      </trkpt>
      <trkpt lat="42.975354306399822235107421875" lon="-7.22151040099561214447021484375">
        <ele>611</ele>
        <time>2019-07-08T17:02:23.000Z</time>
      </trkpt>
      <trkpt lat="42.9755180887877941131591796875" lon="-7.2216072119772434234619140625">
        <ele>612.4000244140625</ele>
        <time>2019-07-08T17:02:24.000Z</time>
      </trkpt>
      <trkpt lat="42.9758453182876110076904296875" lon="-7.22181080840528011322021484375">
        <ele>613.5999755859375</ele>
        <time>2019-07-08T17:02:26.000Z</time>
      </trkpt>
      <trkpt lat="42.9763170517981052398681640625" lon="-7.222204506397247314453125">
        <ele>614.5999755859375</ele>
        <time>2019-07-08T17:02:29.000Z</time>
      </trkpt>
      <trkpt lat="42.9764696024358272552490234375" lon="-7.2223659418523311614990234375">
        <ele>614.79998779296875</ele>
        <time>2019-07-08T17:02:30.000Z</time>
      </trkpt>
      <trkpt lat="42.976953573524951934814453125" lon="-7.2228725440800189971923828125">
        <ele>615.5999755859375</ele>
        <time>2019-07-08T17:02:33.000Z</time>
      </trkpt>
      <trkpt lat="42.97713520936667919158935546875" lon="-7.22302802838385105133056640625">
        <ele>615.79998779296875</ele>
        <time>2019-07-08T17:02:34.000Z</time>
      </trkpt>
      <trkpt lat="42.97754039056599140167236328125" lon="-7.22331636585295200347900390625">
        <ele>614.79998779296875</ele>
        <time>2019-07-08T17:02:36.000Z</time>
      </trkpt>
      <trkpt lat="42.97796510159969329833984375" lon="-7.2236054576933383941650390625">
        <ele>614.4000244140625</ele>
        <time>2019-07-08T17:02:38.000Z</time>
      </trkpt>
      <trkpt lat="42.9783870466053485870361328125" lon="-7.223910391330718994140625">
        <ele>613.5999755859375</ele>
        <time>2019-07-08T17:02:40.000Z</time>
      </trkpt>
      <trkpt lat="42.97879717312753200531005859375" lon="-7.2242522053420543670654296875">
        <ele>614.4000244140625</ele>
        <time>2019-07-08T17:02:42.000Z</time>
      </trkpt>
      <trkpt lat="42.97918684780597686767578125" lon="-7.22464439459145069122314453125">
        <ele>614.5999755859375</ele>
        <time>2019-07-08T17:02:44.000Z</time>
      </trkpt>
      <trkpt lat="42.97955690883100032806396484375" lon="-7.22506851889193058013916015625">
        <ele>614</ele>
        <time>2019-07-08T17:02:46.000Z</time>
      </trkpt>
      <trkpt lat="42.97992252744734287261962890625" lon="-7.22547722049057483673095703125">
        <ele>614.4000244140625</ele>
        <time>2019-07-08T17:02:48.000Z</time>
      </trkpt>
      <trkpt lat="42.98011279664933681488037109375" lon="-7.225654833018779754638671875">
        <ele>616</ele>
        <time>2019-07-08T17:02:49.000Z</time>
      </trkpt>
      <trkpt lat="42.98031211830675601959228515625" lon="-7.22580595873296260833740234375">
        <ele>617.20001220703125</ele>
        <time>2019-07-08T17:02:50.000Z</time>
      </trkpt>
      <trkpt lat="42.98051965422928333282470703125" lon="-7.2259292565286159515380859375">
        <ele>619.20001220703125</ele>
        <time>2019-07-08T17:02:51.000Z</time>
      </trkpt>
      <trkpt lat="42.98073573969304561614990234375" lon="-7.22602573223412036895751953125">
        <ele>621.5999755859375</ele>
        <time>2019-07-08T17:02:52.000Z</time>
      </trkpt>
      <trkpt lat="42.980958782136440277099609375" lon="-7.22609412856400012969970703125">
        <ele>623.20001220703125</ele>
        <time>2019-07-08T17:02:53.000Z</time>
      </trkpt>
      <trkpt lat="42.98118853010237216949462890625" lon="-7.22613737918436527252197265625">
        <ele>625.20001220703125</ele>
        <time>2019-07-08T17:02:54.000Z</time>
      </trkpt>
      <trkpt lat="42.981425486505031585693359375" lon="-7.22616151906549930572509765625">
        <ele>626.79998779296875</ele>
        <time>2019-07-08T17:02:55.000Z</time>
      </trkpt>
      <trkpt lat="42.9819128103554248809814453125" lon="-7.22620242275297641754150390625">
        <ele>628</ele>
        <time>2019-07-08T17:02:57.000Z</time>
      </trkpt>
      <trkpt lat="42.98240893520414829254150390625" lon="-7.2262747585773468017578125">
        <ele>628.20001220703125</ele>
        <time>2019-07-08T17:02:59.000Z</time>
      </trkpt>
      <trkpt lat="42.98290665261447429656982421875" lon="-7.2264060191810131072998046875">
        <ele>626.20001220703125</ele>
        <time>2019-07-08T17:03:01.000Z</time>
      </trkpt>
      <trkpt lat="42.98315609805285930633544921875" lon="-7.2264812886714935302734375">
        <ele>624.79998779296875</ele>
        <time>2019-07-08T17:03:02.000Z</time>
      </trkpt>
      <trkpt lat="42.98366337083280086517333984375" lon="-7.22663844935595989227294921875">
        <ele>623.4000244140625</ele>
        <time>2019-07-08T17:03:04.000Z</time>
      </trkpt>
      <trkpt lat="42.9841765947639942169189453125" lon="-7.2268019802868366241455078125">
        <ele>622.20001220703125</ele>
        <time>2019-07-08T17:03:06.000Z</time>
      </trkpt>
      <trkpt lat="42.98467406071722507476806640625" lon="-7.22695645876228809356689453125">
        <ele>621.4000244140625</ele>
        <time>2019-07-08T17:03:08.000Z</time>
      </trkpt>
      <trkpt lat="42.98515048809349536895751953125" lon="-7.22710683010518550872802734375">
        <ele>622.5999755859375</ele>
        <time>2019-07-08T17:03:10.000Z</time>
      </trkpt>
      <trkpt lat="42.985383756458759307861328125" lon="-7.227178327739238739013671875">
        <ele>623.79998779296875</ele>
        <time>2019-07-08T17:03:11.000Z</time>
      </trkpt>
      <trkpt lat="42.98561367206275463104248046875" lon="-7.2272482328116893768310546875">
        <ele>626</ele>
        <time>2019-07-08T17:03:12.000Z</time>
      </trkpt>
      <trkpt lat="42.98584140837192535400390625" lon="-7.22731419838964939117431640625">
        <ele>629.20001220703125</ele>
        <time>2019-07-08T17:03:13.000Z</time>
      </trkpt>
      <trkpt lat="42.98606813885271549224853515625" lon="-7.22737438045442104339599609375">
        <ele>632.79998779296875</ele>
        <time>2019-07-08T17:03:14.000Z</time>
      </trkpt>
      <trkpt lat="42.9862972162663936614990234375" lon="-7.22742752172052860260009765625">
        <ele>635.79998779296875</ele>
        <time>2019-07-08T17:03:15.000Z</time>
      </trkpt>
      <trkpt lat="42.98653014935553073883056640625" lon="-7.22746901214122772216796875">
        <ele>637.5999755859375</ele>
        <time>2019-07-08T17:03:16.000Z</time>
      </trkpt>
      <trkpt lat="42.9867660999298095703125" lon="-7.22750027664005756378173828125">
        <ele>639.20001220703125</ele>
        <time>2019-07-08T17:03:17.000Z</time>
      </trkpt>
      <trkpt lat="42.98700355924665927886962890625" lon="-7.2275241650640964508056640625">
        <ele>640.79998779296875</ele>
        <time>2019-07-08T17:03:18.000Z</time>
      </trkpt>
      <trkpt lat="42.9874827526509761810302734375" lon="-7.22755777649581432342529296875">
        <ele>642</ele>
        <time>2019-07-08T17:03:20.000Z</time>
      </trkpt>
      <trkpt lat="42.98796244896948337554931640625" lon="-7.2275922261178493499755859375">
        <ele>641.4000244140625</ele>
        <time>2019-07-08T17:03:22.000Z</time>
      </trkpt>
      <trkpt lat="42.98843753524124622344970703125" lon="-7.22769968211650848388671875">
        <ele>642.5999755859375</ele>
        <time>2019-07-08T17:03:24.000Z</time>
      </trkpt>
      <trkpt lat="42.9888969473540782928466796875" lon="-7.22789573483169078826904296875">
        <ele>641.79998779296875</ele>
        <time>2019-07-08T17:03:26.000Z</time>
      </trkpt>
      <trkpt lat="42.9893519170582294464111328125" lon="-7.22812070511281490325927734375">
        <ele>644.5999755859375</ele>
        <time>2019-07-08T17:03:28.000Z</time>
      </trkpt>
      <trkpt lat="42.9895837604999542236328125" lon="-7.228225059807300567626953125">
        <ele>646.4000244140625</ele>
        <time>2019-07-08T17:03:29.000Z</time>
      </trkpt>
      <trkpt lat="42.98981904052197933197021484375" lon="-7.22831734456121921539306640625">
        <ele>648.20001220703125</ele>
        <time>2019-07-08T17:03:30.000Z</time>
      </trkpt>
      <trkpt lat="42.99029563553631305694580078125" lon="-7.2284488566219806671142578125">
        <ele>649.4000244140625</ele>
        <time>2019-07-08T17:03:32.000Z</time>
      </trkpt>
      <trkpt lat="42.990777678787708282470703125" lon="-7.2285071946680545806884765625">
        <ele>648.20001220703125</ele>
        <time>2019-07-08T17:03:34.000Z</time>
      </trkpt>
      <trkpt lat="42.99125905148684978485107421875" lon="-7.22849956713616847991943359375">
        <ele>647</ele>
        <time>2019-07-08T17:03:36.000Z</time>
      </trkpt>
      <trkpt lat="42.9917375743389129638671875" lon="-7.22845346666872501373291015625">
        <ele>646</ele>
        <time>2019-07-08T17:03:38.000Z</time>
      </trkpt>
      <trkpt lat="42.99220763146877288818359375" lon="-7.22847676835954189300537109375">
        <ele>645.5999755859375</ele>
        <time>2019-07-08T17:03:40.000Z</time>
      </trkpt>
      <trkpt lat="42.9926600866019725799560546875" lon="-7.22864113748073577880859375">
        <ele>647.4000244140625</ele>
        <time>2019-07-08T17:03:42.000Z</time>
      </trkpt>
      <trkpt lat="42.99307742156088352203369140625" lon="-7.22895386628806591033935546875">
        <ele>647</ele>
        <time>2019-07-08T17:03:44.000Z</time>
      </trkpt>
      <trkpt lat="42.99346466548740863800048828125" lon="-7.2293698601424694061279296875">
        <ele>647.5999755859375</ele>
        <time>2019-07-08T17:03:46.000Z</time>
      </trkpt>
      <trkpt lat="42.99366138875484466552734375" lon="-7.2295847721397876739501953125">
        <ele>648.79998779296875</ele>
        <time>2019-07-08T17:03:47.000Z</time>
      </trkpt>
      <trkpt lat="42.994072772562503814697265625" lon="-7.2299978323280811309814453125">
        <ele>649.5999755859375</ele>
        <time>2019-07-08T17:03:49.000Z</time>
      </trkpt>
      <trkpt lat="42.99428558908402919769287109375" lon="-7.230186425149440765380859375">
        <ele>651</ele>
        <time>2019-07-08T17:03:50.000Z</time>
      </trkpt>
      <trkpt lat="42.994721196591854095458984375" lon="-7.23052178509533405303955078125">
        <ele>652.79998779296875</ele>
        <time>2019-07-08T17:03:52.000Z</time>
      </trkpt>
      <trkpt lat="42.9951632581651210784912109375" lon="-7.2308299876749515533447265625">
        <ele>652.79998779296875</ele>
        <time>2019-07-08T17:03:54.000Z</time>
      </trkpt>
      <trkpt lat="42.99560791812837123870849609375" lon="-7.23113215528428554534912109375">
        <ele>653</ele>
        <time>2019-07-08T17:03:56.000Z</time>
      </trkpt>
      <trkpt lat="42.9960507340729236602783203125" lon="-7.231432311236858367919921875">
        <ele>652.4000244140625</ele>
        <time>2019-07-08T17:03:58.000Z</time>
      </trkpt>
      <trkpt lat="42.9964889399707317352294921875" lon="-7.23173112608492374420166015625">
        <ele>652.4000244140625</ele>
        <time>2019-07-08T17:04:00.000Z</time>
      </trkpt>
      <trkpt lat="42.99692521803081035614013671875" lon="-7.23203103058040142059326171875">
        <ele>652.20001220703125</ele>
        <time>2019-07-08T17:04:02.000Z</time>
      </trkpt>
      <trkpt lat="42.9973616637289524078369140625" lon="-7.23232674412429332733154296875">
        <ele>651.79998779296875</ele>
        <time>2019-07-08T17:04:04.000Z</time>
      </trkpt>
      <trkpt lat="42.9978055693209171295166015625" lon="-7.23259731195867061614990234375">
        <ele>652</ele>
        <time>2019-07-08T17:04:06.000Z</time>
      </trkpt>
      <trkpt lat="42.9982689209282398223876953125" lon="-7.23280736245214939117431640625">
        <ele>652.79998779296875</ele>
        <time>2019-07-08T17:04:08.000Z</time>
      </trkpt>
      <trkpt lat="42.998747862875461578369140625" lon="-7.2329373657703399658203125">
        <ele>655</ele>
        <time>2019-07-08T17:04:10.000Z</time>
      </trkpt>
      <trkpt lat="42.9989870823919773101806640625" lon="-7.23298539407551288604736328125">
        <ele>656.5999755859375</ele>
        <time>2019-07-08T17:04:11.000Z</time>
      </trkpt>
      <trkpt lat="42.99945957027375698089599609375" lon="-7.2330692969262599945068359375">
        <ele>658.5999755859375</ele>
        <time>2019-07-08T17:04:13.000Z</time>
      </trkpt>
      <trkpt lat="42.9996827803552150726318359375" lon="-7.2331105358898639678955078125">
        <ele>660</ele>
        <time>2019-07-08T17:04:14.000Z</time>
      </trkpt>
      <trkpt lat="43.0000931583344936370849609375" lon="-7.2331946901977062225341796875">
        <ele>661.79998779296875</ele>
        <time>2019-07-08T17:04:16.000Z</time>
      </trkpt>
      <trkpt lat="43.00064988434314727783203125" lon="-7.23333232104778289794921875">
        <ele>663.4000244140625</ele>
        <time>2019-07-08T17:04:19.000Z</time>
      </trkpt>
      <trkpt lat="43.00082766450941562652587890625" lon="-7.233395688235759735107421875">
        <ele>664.5999755859375</ele>
        <time>2019-07-08T17:04:20.000Z</time>
      </trkpt>
      <trkpt lat="43.00100083462893962860107421875" lon="-7.2334699518978595733642578125">
        <ele>666.5999755859375</ele>
        <time>2019-07-08T17:04:21.000Z</time>
      </trkpt>
      <trkpt lat="43.00116981379687786102294921875" lon="-7.2335531003773212432861328125">
        <ele>668.4000244140625</ele>
        <time>2019-07-08T17:04:22.000Z</time>
      </trkpt>
      <trkpt lat="43.00133426673710346221923828125" lon="-7.233645804226398468017578125">
        <ele>669.79998779296875</ele>
        <time>2019-07-08T17:04:23.000Z</time>
      </trkpt>
      <trkpt lat="43.00149519927799701690673828125" lon="-7.23374479450285434722900390625">
        <ele>671</ele>
        <time>2019-07-08T17:04:24.000Z</time>
      </trkpt>
      <trkpt lat="43.0019881390035152435302734375" lon="-7.23403044976294040679931640625">
        <ele>671.79998779296875</ele>
        <time>2019-07-08T17:04:27.000Z</time>
      </trkpt>
      <trkpt lat="43.002332635223865509033203125" lon="-7.23420211113989353179931640625">
        <ele>672.79998779296875</ele>
        <time>2019-07-08T17:04:29.000Z</time>
      </trkpt>
      <trkpt lat="43.0025108344852924346923828125" lon="-7.23428676836192607879638671875">
        <ele>673.79998779296875</ele>
        <time>2019-07-08T17:04:30.000Z</time>
      </trkpt>
      <trkpt lat="43.00269305706024169921875" lon="-7.2343725152313709259033203125">
        <ele>675</ele>
        <time>2019-07-08T17:04:31.000Z</time>
      </trkpt>
      <trkpt lat="43.00324969924986362457275390625" lon="-7.2346910275518894195556640625">
        <ele>676.4000244140625</ele>
        <time>2019-07-08T17:04:34.000Z</time>
      </trkpt>
      <trkpt lat="43.00381128676235675811767578125" lon="-7.23516561090946197509765625">
        <ele>675.20001220703125</ele>
        <time>2019-07-08T17:04:37.000Z</time>
      </trkpt>
      <trkpt lat="43.00419216044247150421142578125" lon="-7.235524356365203857421875">
        <ele>673.20001220703125</ele>
        <time>2019-07-08T17:04:39.000Z</time>
      </trkpt>
      <trkpt lat="43.00438217818737030029296875" lon="-7.23570205271244049072265625">
        <ele>671.5999755859375</ele>
        <time>2019-07-08T17:04:40.000Z</time>
      </trkpt>
      <trkpt lat="43.00457068718969821929931640625" lon="-7.2358802519738674163818359375">
        <ele>670.4000244140625</ele>
        <time>2019-07-08T17:04:41.000Z</time>
      </trkpt>
      <trkpt lat="43.00494703464210033416748046875" lon="-7.2362369857728481292724609375">
        <ele>670</ele>
        <time>2019-07-08T17:04:43.000Z</time>
      </trkpt>
      <trkpt lat="43.0053251422941684722900390625" lon="-7.23659095354378223419189453125">
        <ele>670.5999755859375</ele>
        <time>2019-07-08T17:04:45.000Z</time>
      </trkpt>
      <trkpt lat="43.00551482476294040679931640625" lon="-7.23676596768200397491455078125">
        <ele>671.4000244140625</ele>
        <time>2019-07-08T17:04:46.000Z</time>
      </trkpt>
      <trkpt lat="43.005893267691135406494140625" lon="-7.23710761405527591705322265625">
        <ele>672.5999755859375</ele>
        <time>2019-07-08T17:04:48.000Z</time>
      </trkpt>
      <trkpt lat="43.0064345709979534149169921875" lon="-7.2375717200338840484619140625">
        <ele>674.4000244140625</ele>
        <time>2019-07-08T17:04:51.000Z</time>
      </trkpt>
      <trkpt lat="43.0067591182887554168701171875" lon="-7.237839438021183013916015625">
        <ele>675.4000244140625</ele>
        <time>2019-07-08T17:04:53.000Z</time>
      </trkpt>
      <trkpt lat="43.0070722661912441253662109375" lon="-7.2380877099931240081787109375">
        <ele>677</ele>
        <time>2019-07-08T17:04:55.000Z</time>
      </trkpt>
      <trkpt lat="43.0073847435414791107177734375" lon="-7.2383264265954494476318359375">
        <ele>678.5999755859375</ele>
        <time>2019-07-08T17:04:57.000Z</time>
      </trkpt>
      <trkpt lat="43.00754207186400890350341796875" lon="-7.2384447790682315826416015625">
        <ele>679.79998779296875</ele>
        <time>2019-07-08T17:04:58.000Z</time>
      </trkpt>
      <trkpt lat="43.00785874016582965850830078125" lon="-7.23868022672832012176513671875">
        <ele>681.4000244140625</ele>
        <time>2019-07-08T17:05:00.000Z</time>
      </trkpt>
      <trkpt lat="43.0081907473504543304443359375" lon="-7.238925062119960784912109375">
        <ele>682.4000244140625</ele>
        <time>2019-07-08T17:05:02.000Z</time>
      </trkpt>
      <trkpt lat="43.00875141285359859466552734375" lon="-7.23930970765650272369384765625">
        <ele>683</ele>
        <time>2019-07-08T17:05:05.000Z</time>
      </trkpt>
      <trkpt lat="43.0089519917964935302734375" lon="-7.239439375698566436767578125">
        <ele>683.79998779296875</ele>
        <time>2019-07-08T17:05:06.000Z</time>
      </trkpt>
      <trkpt lat="43.009368740022182464599609375" lon="-7.23969292826950550079345703125">
        <ele>684.20001220703125</ele>
        <time>2019-07-08T17:05:08.000Z</time>
      </trkpt>
      <trkpt lat="43.00980267114937305450439453125" lon="-7.239945642650127410888671875">
        <ele>685</ele>
        <time>2019-07-08T17:05:10.000Z</time>
      </trkpt>
      <trkpt lat="43.010241128504276275634765625" lon="-7.24019768647849559783935546875">
        <ele>683.79998779296875</ele>
        <time>2019-07-08T17:05:12.000Z</time>
      </trkpt>
      <trkpt lat="43.01045738160610198974609375" lon="-7.24031947553157806396484375">
        <ele>682.20001220703125</ele>
        <time>2019-07-08T17:05:13.000Z</time>
      </trkpt>
      <trkpt lat="43.01066919229924678802490234375" lon="-7.24044193513691425323486328125">
        <ele>681</ele>
        <time>2019-07-08T17:05:14.000Z</time>
      </trkpt>
      <trkpt lat="43.01087421365082263946533203125" lon="-7.2405654005706310272216796875">
        <ele>679.79998779296875</ele>
        <time>2019-07-08T17:05:15.000Z</time>
      </trkpt>
      <trkpt lat="43.011412918567657470703125" lon="-7.2409171052277088165283203125">
        <ele>679.79998779296875</ele>
        <time>2019-07-08T17:05:18.000Z</time>
      </trkpt>
      <trkpt lat="43.01155599765479564666748046875" lon="-7.24104023538529872894287109375">
        <ele>680.79998779296875</ele>
        <time>2019-07-08T17:05:19.000Z</time>
      </trkpt>
      <trkpt lat="43.0116823129355907440185546875" lon="-7.24117183126509189605712890625">
        <ele>682.5999755859375</ele>
        <time>2019-07-08T17:05:20.000Z</time>
      </trkpt>
      <trkpt lat="43.01179982721805572509765625" lon="-7.2413097135722637176513671875">
        <ele>685</ele>
        <time>2019-07-08T17:05:21.000Z</time>
      </trkpt>
      <trkpt lat="43.011914826929569244384765625" lon="-7.241449020802974700927734375">
        <ele>688.20001220703125</ele>
        <time>2019-07-08T17:05:22.000Z</time>
      </trkpt>
      <trkpt lat="43.0120284855365753173828125" lon="-7.24158992059528827667236328125">
        <ele>691.20001220703125</ele>
        <time>2019-07-08T17:05:23.000Z</time>
      </trkpt>
      <trkpt lat="43.012142144143581390380859375" lon="-7.24173224531114101409912109375">
        <ele>693.79998779296875</ele>
        <time>2019-07-08T17:05:24.000Z</time>
      </trkpt>
      <trkpt lat="43.01225840114057064056396484375" lon="-7.24187255837023258209228515625">
        <ele>695.4000244140625</ele>
        <time>2019-07-08T17:05:25.000Z</time>
      </trkpt>
      <trkpt lat="43.012630976736545562744140625" lon="-7.2422665916383266448974609375">
        <ele>695.79998779296875</ele>
        <time>2019-07-08T17:05:28.000Z</time>
      </trkpt>
      <trkpt lat="43.01302962005138397216796875" lon="-7.2426052205264568328857421875">
        <ele>695</ele>
        <time>2019-07-08T17:05:31.000Z</time>
      </trkpt>
      <trkpt lat="43.01345751620829105377197265625" lon="-7.24287101067602634429931640625">
        <ele>696</ele>
        <time>2019-07-08T17:05:34.000Z</time>
      </trkpt>
      <trkpt lat="43.01391684450209140777587890625" lon="-7.24303797818720340728759765625">
        <ele>696.5999755859375</ele>
        <time>2019-07-08T17:05:37.000Z</time>
      </trkpt>
      <trkpt lat="43.0142066068947315216064453125" lon="-7.24312330596148967742919921875">
        <ele>698</ele>
        <time>2019-07-08T17:05:39.000Z</time>
      </trkpt>
      <trkpt lat="43.01446116529405117034912109375" lon="-7.24320645444095134735107421875">
        <ele>700</ele>
        <time>2019-07-08T17:05:41.000Z</time>
      </trkpt>
      <trkpt lat="43.01456895656883716583251953125" lon="-7.243267558515071868896484375">
        <ele>701</ele>
        <time>2019-07-08T17:05:42.000Z</time>
      </trkpt>
      <trkpt lat="43.0146610736846923828125" lon="-7.2433523833751678466796875">
        <ele>702</ele>
        <time>2019-07-08T17:05:43.000Z</time>
      </trkpt>
      <trkpt lat="43.01473726518452167510986328125" lon="-7.243462018668651580810546875">
        <ele>703.4000244140625</ele>
        <time>2019-07-08T17:05:44.000Z</time>
      </trkpt>
      <trkpt lat="43.01479912362992763519287109375" lon="-7.24358908832073211669921875">
        <ele>705.20001220703125</ele>
        <time>2019-07-08T17:05:45.000Z</time>
      </trkpt>
      <trkpt lat="43.01485427655279636383056640625" lon="-7.243726216256618499755859375">
        <ele>707</ele>
        <time>2019-07-08T17:05:46.000Z</time>
      </trkpt>
      <trkpt lat="43.01491077058017253875732421875" lon="-7.24386577494442462921142578125">
        <ele>708.4000244140625</ele>
        <time>2019-07-08T17:05:47.000Z</time>
      </trkpt>
      <trkpt lat="43.0150310508906841278076171875" lon="-7.2441463172435760498046875">
        <ele>710</ele>
        <time>2019-07-08T17:05:49.000Z</time>
      </trkpt>
      <trkpt lat="43.0151376686990261077880859375" lon="-7.2444033063948154449462890625">
        <ele>711.5999755859375</ele>
        <time>2019-07-08T17:05:51.000Z</time>
      </trkpt>
      <trkpt lat="43.01522743888199329376220703125" lon="-7.2446031309664249420166015625">
        <ele>713.20001220703125</ele>
        <time>2019-07-08T17:05:53.000Z</time>
      </trkpt>
      <trkpt lat="43.0153049714863300323486328125" lon="-7.24474939517676830291748046875">
        <ele>714.5999755859375</ele>
        <time>2019-07-08T17:05:55.000Z</time>
      </trkpt>
      <trkpt lat="43.0153673328459262847900390625" lon="-7.244843356311321258544921875">
        <ele>716.5999755859375</ele>
        <time>2019-07-08T17:05:57.000Z</time>
      </trkpt>
      <trkpt lat="43.0154149420559406280517578125" lon="-7.2449011914432048797607421875">
        <ele>717.79998779296875</ele>
        <time>2019-07-08T17:05:59.000Z</time>
      </trkpt>
      <trkpt lat="43.01543748937547206878662109375" lon="-7.24492223002016544342041015625">
        <ele>718.20001220703125</ele>
        <time>2019-07-08T17:06:00.000Z</time>
      </trkpt>
      <trkpt lat="43.0155115015804767608642578125" lon="-7.24487847648561000823974609375">
        <ele>718.5999755859375</ele>
        <time>2019-07-08T17:06:02.000Z</time>
      </trkpt>
      <trkpt lat="43.015606887638568878173828125" lon="-7.24469575099647045135498046875">
        <ele>718.79998779296875</ele>
        <time>2019-07-08T17:06:04.000Z</time>
      </trkpt>
      <trkpt lat="43.0157311074435710906982421875" lon="-7.2442671842873096466064453125">
        <ele>718.20001220703125</ele>
        <time>2019-07-08T17:06:07.000Z</time>
      </trkpt>
      <trkpt lat="43.01575918681919574737548828125" lon="-7.24393509328365325927734375">
        <ele>718</ele>
        <time>2019-07-08T17:06:09.000Z</time>
      </trkpt>
      <trkpt lat="43.0157218873500823974609375" lon="-7.243608534336090087890625">
        <ele>718.4000244140625</ele>
        <time>2019-07-08T17:06:11.000Z</time>
      </trkpt>
      <trkpt lat="43.01561568863689899444580078125" lon="-7.2432878427207469940185546875">
        <ele>718.79998779296875</ele>
        <time>2019-07-08T17:06:13.000Z</time>
      </trkpt>
      <trkpt lat="43.01553404890000820159912109375" lon="-7.243142165243625640869140625">
        <ele>719</ele>
        <time>2019-07-08T17:06:14.000Z</time>
      </trkpt>
      <trkpt lat="43.01543715409934520721435546875" lon="-7.24301375448703765869140625">
        <ele>719.20001220703125</ele>
        <time>2019-07-08T17:06:15.000Z</time>
      </trkpt>
      <trkpt lat="43.015092909336090087890625" lon="-7.24268862046301364898681640625">
        <ele>720.79998779296875</ele>
        <time>2019-07-08T17:06:18.000Z</time>
      </trkpt>
      <trkpt lat="43.014818318188190460205078125" lon="-7.242454178631305694580078125">
        <ele>722.20001220703125</ele>
        <time>2019-07-08T17:06:20.000Z</time>
      </trkpt>
      <trkpt lat="43.014353625476360321044921875" lon="-7.24204950034618377685546875">
        <ele>722.79998779296875</ele>
        <time>2019-07-08T17:06:23.000Z</time>
      </trkpt>
      <trkpt lat="43.01419327966868877410888671875" lon="-7.24190608598291873931884765625">
        <ele>724.79998779296875</ele>
        <time>2019-07-08T17:06:24.000Z</time>
      </trkpt>
      <trkpt lat="43.01403385587036609649658203125" lon="-7.241754122078418731689453125">
        <ele>727.4000244140625</ele>
        <time>2019-07-08T17:06:25.000Z</time>
      </trkpt>
      <trkpt lat="43.01387862302362918853759765625" lon="-7.2415888309478759765625">
        <ele>729.4000244140625</ele>
        <time>2019-07-08T17:06:26.000Z</time>
      </trkpt>
      <trkpt lat="43.0136010982096195220947265625" lon="-7.241222374141216278076171875">
        <ele>731.20001220703125</ele>
        <time>2019-07-08T17:06:28.000Z</time>
      </trkpt>
      <trkpt lat="43.01338358782231807708740234375" lon="-7.24085189402103424072265625">
        <ele>730.20001220703125</ele>
        <time>2019-07-08T17:06:30.000Z</time>
      </trkpt>
      <trkpt lat="43.01308234222233295440673828125" lon="-7.240282595157623291015625">
        <ele>731.20001220703125</ele>
        <time>2019-07-08T17:06:33.000Z</time>
      </trkpt>
      <trkpt lat="43.0129771493375301361083984375" lon="-7.24008704535663127899169921875">
        <ele>732.79998779296875</ele>
        <time>2019-07-08T17:06:34.000Z</time>
      </trkpt>
      <trkpt lat="43.01287011243402957916259765625" lon="-7.23989543505012989044189453125">
        <ele>734</ele>
        <time>2019-07-08T17:06:35.000Z</time>
      </trkpt>
      <trkpt lat="43.01266442053020000457763671875" lon="-7.2395337559282779693603515625">
        <ele>735.20001220703125</ele>
        <time>2019-07-08T17:06:37.000Z</time>
      </trkpt>
      <trkpt lat="43.0125810205936431884765625" lon="-7.23936058580875396728515625">
        <ele>735.5999755859375</ele>
        <time>2019-07-08T17:06:38.000Z</time>
      </trkpt>
      <trkpt lat="43.0124970339238643646240234375" lon="-7.23898884840309619903564453125">
        <ele>737</ele>
        <time>2019-07-08T17:06:40.000Z</time>
      </trkpt>
      <trkpt lat="43.0125837028026580810546875" lon="-7.23858819343149662017822265625">
        <ele>738.4000244140625</ele>
        <time>2019-07-08T17:06:42.000Z</time>
      </trkpt>
      <trkpt lat="43.01279903389513492584228515625" lon="-7.238249816000461578369140625">
        <ele>740.20001220703125</ele>
        <time>2019-07-08T17:06:44.000Z</time>
      </trkpt>
      <trkpt lat="43.01291168667376041412353515625" lon="-7.23808385431766510009765625">
        <ele>740.79998779296875</ele>
        <time>2019-07-08T17:06:45.000Z</time>
      </trkpt>
      <trkpt lat="43.01300690509378910064697265625" lon="-7.237899117171764373779296875">
        <ele>742</ele>
        <time>2019-07-08T17:06:46.000Z</time>
      </trkpt>
      <trkpt lat="43.01306943409144878387451171875" lon="-7.23768965341150760650634765625">
        <ele>743.20001220703125</ele>
        <time>2019-07-08T17:06:47.000Z</time>
      </trkpt>
      <trkpt lat="43.01309265196323394775390625" lon="-7.2374661080539226531982421875">
        <ele>744.79998779296875</ele>
        <time>2019-07-08T17:06:48.000Z</time>
      </trkpt>
      <trkpt lat="43.0130750499665737152099609375" lon="-7.237235940992832183837890625">
        <ele>746.20001220703125</ele>
        <time>2019-07-08T17:06:49.000Z</time>
      </trkpt>
      <trkpt lat="43.01301620900630950927734375" lon="-7.23701457493007183074951171875">
        <ele>747.79998779296875</ele>
        <time>2019-07-08T17:06:50.000Z</time>
      </trkpt>
      <trkpt lat="43.012917302548885345458984375" lon="-7.2368190251290798187255859375">
        <ele>749.4000244140625</ele>
        <time>2019-07-08T17:06:51.000Z</time>
      </trkpt>
      <trkpt lat="43.01278679631650447845458984375" lon="-7.23665867932140827178955078125">
        <ele>751.20001220703125</ele>
        <time>2019-07-08T17:06:52.000Z</time>
      </trkpt>
      <trkpt lat="43.01263424567878246307373046875" lon="-7.2365310229361057281494140625">
        <ele>752.5999755859375</ele>
        <time>2019-07-08T17:06:53.000Z</time>
      </trkpt>
      <trkpt lat="43.01246912218630313873291015625" lon="-7.23642356693744659423828125">
        <ele>754</ele>
        <time>2019-07-08T17:06:54.000Z</time>
      </trkpt>
      <trkpt lat="43.01230031065642833709716796875" lon="-7.23632206209003925323486328125">
        <ele>755.4000244140625</ele>
        <time>2019-07-08T17:06:55.000Z</time>
      </trkpt>
      <trkpt lat="43.01213703118264675140380859375" lon="-7.2362145222723484039306640625">
        <ele>756.5999755859375</ele>
        <time>2019-07-08T17:06:56.000Z</time>
      </trkpt>
      <trkpt lat="43.0119827203452587127685546875" lon="-7.23609097301959991455078125">
        <ele>758</ele>
        <time>2019-07-08T17:06:57.000Z</time>
      </trkpt>
      <trkpt lat="43.01184031181037425994873046875" lon="-7.23594722338020801544189453125">
        <ele>759.20001220703125</ele>
        <time>2019-07-08T17:06:58.000Z</time>
      </trkpt>
      <trkpt lat="43.0117141641676425933837890625" lon="-7.23577841185033321380615234375">
        <ele>760.5999755859375</ele>
        <time>2019-07-08T17:06:59.000Z</time>
      </trkpt>
      <trkpt lat="43.01160880364477634429931640625" lon="-7.2355805151164531707763671875">
        <ele>761.5999755859375</ele>
        <time>2019-07-08T17:07:00.000Z</time>
      </trkpt>
      <trkpt lat="43.01152833737432956695556640625" lon="-7.2353555448353290557861328125">
        <ele>763</ele>
        <time>2019-07-08T17:07:01.000Z</time>
      </trkpt>
      <trkpt lat="43.0114747770130634307861328125" lon="-7.2351094521582126617431640625">
        <ele>764</ele>
        <time>2019-07-08T17:07:02.000Z</time>
      </trkpt>
      <trkpt lat="43.01144954748451709747314453125" lon="-7.23484684713184833526611328125">
        <ele>765.20001220703125</ele>
        <time>2019-07-08T17:07:03.000Z</time>
      </trkpt>
      <trkpt lat="43.01148600876331329345703125" lon="-7.23430504091084003448486328125">
        <ele>766</ele>
        <time>2019-07-08T17:07:05.000Z</time>
      </trkpt>
      <trkpt lat="43.01153219304978847503662109375" lon="-7.2340342216193675994873046875">
        <ele>766.79998779296875</ele>
        <time>2019-07-08T17:07:06.000Z</time>
      </trkpt>
      <trkpt lat="43.01163461990654468536376953125" lon="-7.23348612897098064422607421875">
        <ele>768</ele>
        <time>2019-07-08T17:07:08.000Z</time>
      </trkpt>
      <trkpt lat="43.01168558187782764434814453125" lon="-7.2332094423472881317138671875">
        <ele>769.20001220703125</ele>
        <time>2019-07-08T17:07:09.000Z</time>
      </trkpt>
      <trkpt lat="43.011737801134586334228515625" lon="-7.23293275572359561920166015625">
        <ele>770.4000244140625</ele>
        <time>2019-07-08T17:07:10.000Z</time>
      </trkpt>
      <trkpt lat="43.0117892660200595855712890625" lon="-7.2326565720140933990478515625">
        <ele>772</ele>
        <time>2019-07-08T17:07:11.000Z</time>
      </trkpt>
      <trkpt lat="43.011841066181659698486328125" lon="-7.2323863394558429718017578125">
        <ele>773.5999755859375</ele>
        <time>2019-07-08T17:07:12.000Z</time>
      </trkpt>
      <trkpt lat="43.01189194433391094207763671875" lon="-7.2321231476962566375732421875">
        <ele>774.79998779296875</ele>
        <time>2019-07-08T17:07:13.000Z</time>
      </trkpt>
      <trkpt lat="43.01201432012021541595458984375" lon="-7.23162149079144001007080078125">
        <ele>776.5999755859375</ele>
        <time>2019-07-08T17:07:15.000Z</time>
      </trkpt>
      <trkpt lat="43.0122127197682857513427734375" lon="-7.2311625815927982330322265625">
        <ele>776.79998779296875</ele>
        <time>2019-07-08T17:07:17.000Z</time>
      </trkpt>
      <trkpt lat="43.01250047050416469573974609375" lon="-7.23076201044023036956787109375">
        <ele>775.20001220703125</ele>
        <time>2019-07-08T17:07:19.000Z</time>
      </trkpt>
      <trkpt lat="43.012672550976276397705078125" lon="-7.230586074292659759521484375">
        <ele>773.79998779296875</ele>
        <time>2019-07-08T17:07:20.000Z</time>
      </trkpt>
      <trkpt lat="43.01285351626574993133544921875" lon="-7.23041474819183349609375">
        <ele>772.4000244140625</ele>
        <time>2019-07-08T17:07:21.000Z</time>
      </trkpt>
      <trkpt lat="43.01303490065038204193115234375" lon="-7.23023411817848682403564453125">
        <ele>770.79998779296875</ele>
        <time>2019-07-08T17:07:22.000Z</time>
      </trkpt>
      <trkpt lat="43.0132044665515422821044921875" lon="-7.230032198131084442138671875">
        <ele>769.5999755859375</ele>
        <time>2019-07-08T17:07:23.000Z</time>
      </trkpt>
      <trkpt lat="43.013479225337505340576171875" lon="-7.22955283708870410919189453125">
        <ele>767.5999755859375</ele>
        <time>2019-07-08T17:07:25.000Z</time>
      </trkpt>
      <trkpt lat="43.0135786347091197967529296875" lon="-7.2292786650359630584716796875">
        <ele>766.4000244140625</ele>
        <time>2019-07-08T17:07:26.000Z</time>
      </trkpt>
      <trkpt lat="43.0136594362556934356689453125" lon="-7.22898672334849834442138671875">
        <ele>764.5999755859375</ele>
        <time>2019-07-08T17:07:27.000Z</time>
      </trkpt>
      <trkpt lat="43.0137328617274761199951171875" lon="-7.22868832759559154510498046875">
        <ele>762.5999755859375</ele>
        <time>2019-07-08T17:07:28.000Z</time>
      </trkpt>
      <trkpt lat="43.01380486227571964263916015625" lon="-7.22838808782398700714111328125">
        <ele>760.4000244140625</ele>
        <time>2019-07-08T17:07:29.000Z</time>
      </trkpt>
      <trkpt lat="43.013876862823963165283203125" lon="-7.228088937699794769287109375">
        <ele>758.4000244140625</ele>
        <time>2019-07-08T17:07:30.000Z</time>
      </trkpt>
      <trkpt lat="43.014041483402252197265625" lon="-7.227503545582294464111328125">
        <ele>756.79998779296875</ele>
        <time>2019-07-08T17:07:32.000Z</time>
      </trkpt>
      <trkpt lat="43.01425270736217498779296875" lon="-7.226949669420719146728515625">
        <ele>757.4000244140625</ele>
        <time>2019-07-08T17:07:34.000Z</time>
      </trkpt>
      <trkpt lat="43.014373071491718292236328125" lon="-7.22668505273759365081787109375">
        <ele>759.79998779296875</ele>
        <time>2019-07-08T17:07:35.000Z</time>
      </trkpt>
      <trkpt lat="43.01450106315314769744873046875" lon="-7.22642563283443450927734375">
        <ele>763</ele>
        <time>2019-07-08T17:07:36.000Z</time>
      </trkpt>
      <trkpt lat="43.01463584415614604949951171875" lon="-7.2261723317205905914306640625">
        <ele>765.4000244140625</ele>
        <time>2019-07-08T17:07:37.000Z</time>
      </trkpt>
      <trkpt lat="43.01477666012942790985107421875" lon="-7.2259238921105861663818359375">
        <ele>767</ele>
        <time>2019-07-08T17:07:38.000Z</time>
      </trkpt>
      <trkpt lat="43.0149210803210735321044921875" lon="-7.22568123601377010345458984375">
        <ele>768.79998779296875</ele>
        <time>2019-07-08T17:07:39.000Z</time>
      </trkpt>
      <trkpt lat="43.0150736309587955474853515625" lon="-7.22545039840042591094970703125">
        <ele>770.79998779296875</ele>
        <time>2019-07-08T17:07:40.000Z</time>
      </trkpt>
      <trkpt lat="43.0152417719364166259765625" lon="-7.22524403594434261322021484375">
        <ele>773</ele>
        <time>2019-07-08T17:07:41.000Z</time>
      </trkpt>
      <trkpt lat="43.015425503253936767578125" lon="-7.22507170401513576507568359375">
        <ele>775.20001220703125</ele>
        <time>2019-07-08T17:07:42.000Z</time>
      </trkpt>
      <trkpt lat="43.01562624983489513397216796875" lon="-7.2249365039169788360595703125">
        <ele>776.20001220703125</ele>
        <time>2019-07-08T17:07:43.000Z</time>
      </trkpt>
      <trkpt lat="43.01605909131467342376708984375" lon="-7.22477213479578495025634765625">
        <ele>778.20001220703125</ele>
        <time>2019-07-08T17:07:45.000Z</time>
      </trkpt>
      <trkpt lat="43.016284815967082977294921875" lon="-7.22473450005054473876953125">
        <ele>779.5999755859375</ele>
        <time>2019-07-08T17:07:46.000Z</time>
      </trkpt>
      <trkpt lat="43.01651288755238056182861328125" lon="-7.22471161745488643646240234375">
        <ele>781.20001220703125</ele>
        <time>2019-07-08T17:07:47.000Z</time>
      </trkpt>
      <trkpt lat="43.0167436413466930389404296875" lon="-7.22469552420079708099365234375">
        <ele>782.5999755859375</ele>
        <time>2019-07-08T17:07:48.000Z</time>
      </trkpt>
      <trkpt lat="43.01697674207389354705810546875" lon="-7.224681861698627471923828125">
        <ele>784</ele>
        <time>2019-07-08T17:07:49.000Z</time>
      </trkpt>
      <trkpt lat="43.0172106809914112091064453125" lon="-7.22467146813869476318359375">
        <ele>785.5999755859375</ele>
        <time>2019-07-08T17:07:50.000Z</time>
      </trkpt>
      <trkpt lat="43.0176800675690174102783203125" lon="-7.2246656008064746856689453125">
        <ele>786.5999755859375</ele>
        <time>2019-07-08T17:07:52.000Z</time>
      </trkpt>
      <trkpt lat="43.0181407369673252105712890625" lon="-7.2246609069406986236572265625">
        <ele>788.20001220703125</ele>
        <time>2019-07-08T17:07:54.000Z</time>
      </trkpt>
      <trkpt lat="43.01835858263075351715087890625" lon="-7.22465336322784423828125">
        <ele>789.79998779296875</ele>
        <time>2019-07-08T17:07:55.000Z</time>
      </trkpt>
      <trkpt lat="43.0185668729245662689208984375" lon="-7.22463433630764484405517578125">
        <ele>791.79998779296875</ele>
        <time>2019-07-08T17:07:56.000Z</time>
      </trkpt>
      <trkpt lat="43.01876418292522430419921875" lon="-7.22458924166858196258544921875">
        <ele>793.5999755859375</ele>
        <time>2019-07-08T17:07:57.000Z</time>
      </trkpt>
      <trkpt lat="43.01895319484174251556396484375" lon="-7.2245009802281856536865234375">
        <ele>795.79998779296875</ele>
        <time>2019-07-08T17:07:58.000Z</time>
      </trkpt>
      <trkpt lat="43.01912971772253513336181640625" lon="-7.22436569631099700927734375">
        <ele>798.20001220703125</ele>
        <time>2019-07-08T17:07:59.000Z</time>
      </trkpt>
      <trkpt lat="43.01928746514022350311279296875" lon="-7.22418288700282573699951171875">
        <ele>800.79998779296875</ele>
        <time>2019-07-08T17:08:00.000Z</time>
      </trkpt>
      <trkpt lat="43.0194255150854587554931640625" lon="-7.2239531390368938446044921875">
        <ele>803.20001220703125</ele>
        <time>2019-07-08T17:08:01.000Z</time>
      </trkpt>
      <trkpt lat="43.0195472203195095062255859375" lon="-7.22368567250669002532958984375">
        <ele>805.4000244140625</ele>
        <time>2019-07-08T17:08:02.000Z</time>
      </trkpt>
      <trkpt lat="43.019659705460071563720703125" lon="-7.22339431755244731903076171875">
        <ele>807.4000244140625</ele>
        <time>2019-07-08T17:08:03.000Z</time>
      </trkpt>
      <trkpt lat="43.01976925693452358245849609375" lon="-7.2230901382863521575927734375">
        <ele>809.4000244140625</ele>
        <time>2019-07-08T17:08:04.000Z</time>
      </trkpt>
      <trkpt lat="43.01987855695188045501708984375" lon="-7.22277506254613399505615234375">
        <ele>811.5999755859375</ele>
        <time>2019-07-08T17:08:05.000Z</time>
      </trkpt>
      <trkpt lat="43.01998249255120754241943359375" lon="-7.222450934350490570068359375">
        <ele>813.5999755859375</ele>
        <time>2019-07-08T17:08:06.000Z</time>
      </trkpt>
      <trkpt lat="43.02008307538926601409912109375" lon="-7.2221205197274684906005859375">
        <ele>815.5999755859375</ele>
        <time>2019-07-08T17:08:07.000Z</time>
      </trkpt>
      <trkpt lat="43.02017879672348499298095703125" lon="-7.2217839024960994720458984375">
        <ele>817.20001220703125</ele>
        <time>2019-07-08T17:08:08.000Z</time>
      </trkpt>
      <trkpt lat="43.02026865072548389434814453125" lon="-7.2214446030557155609130859375">
        <ele>819</ele>
        <time>2019-07-08T17:08:09.000Z</time>
      </trkpt>
      <trkpt lat="43.0203525535762310028076171875" lon="-7.22110949456691741943359375">
        <ele>821.20001220703125</ele>
        <time>2019-07-08T17:08:10.000Z</time>
      </trkpt>
      <trkpt lat="43.02043293602764606475830078125" lon="-7.220781929790973663330078125">
        <ele>823.20001220703125</ele>
        <time>2019-07-08T17:08:11.000Z</time>
      </trkpt>
      <trkpt lat="43.02051566541194915771484375" lon="-7.22046333365142345428466796875">
        <ele>824.79998779296875</ele>
        <time>2019-07-08T17:08:12.000Z</time>
      </trkpt>
      <trkpt lat="43.02060878835618495941162109375" lon="-7.22015672363340854644775390625">
        <ele>826.20001220703125</ele>
        <time>2019-07-08T17:08:13.000Z</time>
      </trkpt>
      <trkpt lat="43.02072244696319103240966796875" lon="-7.21986629068851470947265625">
        <ele>827.4000244140625</ele>
        <time>2019-07-08T17:08:14.000Z</time>
      </trkpt>
      <trkpt lat="43.021007515490055084228515625" lon="-7.21933328546583652496337890625">
        <ele>829</ele>
        <time>2019-07-08T17:08:16.000Z</time>
      </trkpt>
      <trkpt lat="43.0211702920496463775634765625" lon="-7.21908845007419586181640625">
        <ele>830.4000244140625</ele>
        <time>2019-07-08T17:08:17.000Z</time>
      </trkpt>
      <trkpt lat="43.02133901976048946380615234375" lon="-7.21885451115667819976806640625">
        <ele>831.79998779296875</ele>
        <time>2019-07-08T17:08:18.000Z</time>
      </trkpt>
      <trkpt lat="43.02150942385196685791015625" lon="-7.21862518228590488433837890625">
        <ele>833.4000244140625</ele>
        <time>2019-07-08T17:08:19.000Z</time>
      </trkpt>
      <trkpt lat="43.02167630754411220550537109375" lon="-7.2183962725102901458740234375">
        <ele>835</ele>
        <time>2019-07-08T17:08:20.000Z</time>
      </trkpt>
      <trkpt lat="43.02183137275278568267822265625" lon="-7.21815965138375759124755859375">
        <ele>837.5999755859375</ele>
        <time>2019-07-08T17:08:21.000Z</time>
      </trkpt>
      <trkpt lat="43.0219685845077037811279296875" lon="-7.21790685318410396575927734375">
        <ele>840.79998779296875</ele>
        <time>2019-07-08T17:08:22.000Z</time>
      </trkpt>
      <trkpt lat="43.02208433859050273895263671875" lon="-7.21763335168361663818359375">
        <ele>843.4000244140625</ele>
        <time>2019-07-08T17:08:23.000Z</time>
      </trkpt>
      <trkpt lat="43.02217788062989711761474609375" lon="-7.217341326177120208740234375">
        <ele>845.5999755859375</ele>
        <time>2019-07-08T17:08:24.000Z</time>
      </trkpt>
      <trkpt lat="43.0222555808722972869873046875" lon="-7.217038907110691070556640625">
        <ele>847</ele>
        <time>2019-07-08T17:08:25.000Z</time>
      </trkpt>
      <trkpt lat="43.02239027805626392364501953125" lon="-7.216436080634593963623046875">
        <ele>848</ele>
        <time>2019-07-08T17:08:27.000Z</time>
      </trkpt>
      <trkpt lat="43.02245615981519222259521484375" lon="-7.216140367090702056884765625">
        <ele>848</ele>
        <time>2019-07-08T17:08:28.000Z</time>
      </trkpt>
      <trkpt lat="43.0226005800068378448486328125" lon="-7.21557567827403545379638671875">
        <ele>849.20001220703125</ele>
        <time>2019-07-08T17:08:30.000Z</time>
      </trkpt>
      <trkpt lat="43.02268967963755130767822265625" lon="-7.21532589755952358245849609375">
        <ele>850.20001220703125</ele>
        <time>2019-07-08T17:08:31.000Z</time>
      </trkpt>
      <trkpt lat="43.0229155719280242919921875" lon="-7.21489925868809223175048828125">
        <ele>853</ele>
        <time>2019-07-08T17:08:33.000Z</time>
      </trkpt>
      <trkpt lat="43.0230438150465488433837890625" lon="-7.2147055529057979583740234375">
        <ele>855</ele>
        <time>2019-07-08T17:08:34.000Z</time>
      </trkpt>
      <trkpt lat="43.0231695435941219329833984375" lon="-7.21450732089579105377197265625">
        <ele>857</ele>
        <time>2019-07-08T17:08:35.000Z</time>
      </trkpt>
      <trkpt lat="43.023281358182430267333984375" lon="-7.2142908163368701934814453125">
        <ele>858.4000244140625</ele>
        <time>2019-07-08T17:08:36.000Z</time>
      </trkpt>
      <trkpt lat="43.0234307236969470977783203125" lon="-7.21378840506076812744140625">
        <ele>859.4000244140625</ele>
        <time>2019-07-08T17:08:38.000Z</time>
      </trkpt>
      <trkpt lat="43.0235165543854236602783203125" lon="-7.212962619960308074951171875">
        <ele>858</ele>
        <time>2019-07-08T17:08:41.000Z</time>
      </trkpt>
      <trkpt lat="43.023556284606456756591796875" lon="-7.2126878611743450164794921875">
        <ele>855.5999755859375</ele>
        <time>2019-07-08T17:08:42.000Z</time>
      </trkpt>
      <trkpt lat="43.02361805923283100128173828125" lon="-7.21241804771125316619873046875">
        <ele>853.4000244140625</ele>
        <time>2019-07-08T17:08:43.000Z</time>
      </trkpt>
      <trkpt lat="43.02370590157806873321533203125" lon="-7.21215686760842800140380859375">
        <ele>851</ele>
        <time>2019-07-08T17:08:44.000Z</time>
      </trkpt>
      <trkpt lat="43.02382257767021656036376953125" lon="-7.2119110263884067535400390625">
        <ele>849.20001220703125</ele>
        <time>2019-07-08T17:08:45.000Z</time>
      </trkpt>
      <trkpt lat="43.0239664949476718902587890625" lon="-7.2116840444505214691162109375">
        <ele>847.4000244140625</ele>
        <time>2019-07-08T17:08:46.000Z</time>
      </trkpt>
      <trkpt lat="43.024128936231136322021484375" lon="-7.21147256903350353240966796875">
        <ele>845.5999755859375</ele>
        <time>2019-07-08T17:08:47.000Z</time>
      </trkpt>
      <trkpt lat="43.0243031121790409088134765625" lon="-7.21126754768192768096923828125">
        <ele>843.5999755859375</ele>
        <time>2019-07-08T17:08:48.000Z</time>
      </trkpt>
      <trkpt lat="43.02448323927819728851318359375" lon="-7.21106420271098613739013671875">
        <ele>841.79998779296875</ele>
        <time>2019-07-08T17:08:49.000Z</time>
      </trkpt>
      <trkpt lat="43.02466479130089282989501953125" lon="-7.2108582593500614166259765625">
        <ele>839.4000244140625</ele>
        <time>2019-07-08T17:08:50.000Z</time>
      </trkpt>
      <trkpt lat="43.02484340965747833251953125" lon="-7.21064594574272632598876953125">
        <ele>836.79998779296875</ele>
        <time>2019-07-08T17:08:51.000Z</time>
      </trkpt>
      <trkpt lat="43.025014400482177734375" lon="-7.21042114309966564178466796875">
        <ele>833.79998779296875</ele>
        <time>2019-07-08T17:08:52.000Z</time>
      </trkpt>
      <trkpt lat="43.0251654423773288726806640625" lon="-7.2101729549467563629150390625">
        <ele>831</ele>
        <time>2019-07-08T17:08:53.000Z</time>
      </trkpt>
      <trkpt lat="43.02529460750520229339599609375" lon="-7.2099000401794910430908203125">
        <ele>828.5999755859375</ele>
        <time>2019-07-08T17:08:54.000Z</time>
      </trkpt>
      <trkpt lat="43.025398291647434234619140625" lon="-7.20960575155913829803466796875">
        <ele>826.20001220703125</ele>
        <time>2019-07-08T17:08:55.000Z</time>
      </trkpt>
      <trkpt lat="43.02547465078532695770263671875" lon="-7.20929528586566448211669921875">
        <ele>825.20001220703125</ele>
        <time>2019-07-08T17:08:56.000Z</time>
      </trkpt>
      <trkpt lat="43.02557037211954593658447265625" lon="-7.20864795148372650146484375">
        <ele>825.4000244140625</ele>
        <time>2019-07-08T17:08:58.000Z</time>
      </trkpt>
      <trkpt lat="43.025645725429058074951171875" lon="-7.2079916484653949737548828125">
        <ele>824</ele>
        <time>2019-07-08T17:09:00.000Z</time>
      </trkpt>
      <trkpt lat="43.02572862245142459869384765625" lon="-7.207351438701152801513671875">
        <ele>823.4000244140625</ele>
        <time>2019-07-08T17:09:02.000Z</time>
      </trkpt>
      <trkpt lat="43.0257887206971645355224609375" lon="-7.20705337822437286376953125">
        <ele>823</ele>
        <time>2019-07-08T17:09:03.000Z</time>
      </trkpt>
      <trkpt lat="43.02600304596126079559326171875" lon="-7.206548787653446197509765625">
        <ele>822.5999755859375</ele>
        <time>2019-07-08T17:09:05.000Z</time>
      </trkpt>
      <trkpt lat="43.0263412557542324066162109375" lon="-7.20617520622909069061279296875">
        <ele>826</ele>
        <time>2019-07-08T17:09:07.000Z</time>
      </trkpt>
      <trkpt lat="43.02654149942100048065185546875" lon="-7.2060219012200832366943359375">
        <ele>828.79998779296875</ele>
        <time>2019-07-08T17:09:08.000Z</time>
      </trkpt>
      <trkpt lat="43.02675171755254268646240234375" lon="-7.20587580464780330657958984375">
        <ele>831.20001220703125</ele>
        <time>2019-07-08T17:09:09.000Z</time>
      </trkpt>
      <trkpt lat="43.02696813829243183135986328125" lon="-7.2057312168180942535400390625">
        <ele>833.20001220703125</ele>
        <time>2019-07-08T17:09:10.000Z</time>
      </trkpt>
      <trkpt lat="43.02719092927873134613037109375" lon="-7.20558864064514636993408203125">
        <ele>834.79998779296875</ele>
        <time>2019-07-08T17:09:11.000Z</time>
      </trkpt>
      <trkpt lat="43.027420341968536376953125" lon="-7.2054556198418140411376953125">
        <ele>837.4000244140625</ele>
        <time>2019-07-08T17:09:12.000Z</time>
      </trkpt>
      <trkpt lat="43.02765562199056148529052734375" lon="-7.2053372673690319061279296875">
        <ele>839.4000244140625</ele>
        <time>2019-07-08T17:09:13.000Z</time>
      </trkpt>
      <trkpt lat="43.02789601497352123260498046875" lon="-7.20523978583514690399169921875">
        <ele>842.20001220703125</ele>
        <time>2019-07-08T17:09:14.000Z</time>
      </trkpt>
      <trkpt lat="43.028138838708400726318359375" lon="-7.2051615826785564422607421875">
        <ele>845.5999755859375</ele>
        <time>2019-07-08T17:09:15.000Z</time>
      </trkpt>
      <trkpt lat="43.0283857695758342742919921875" lon="-7.20510005950927734375">
        <ele>846.79998779296875</ele>
        <time>2019-07-08T17:09:16.000Z</time>
      </trkpt>
      <trkpt lat="43.0286345444619655609130859375" lon="-7.205053456127643585205078125">
        <ele>848.79998779296875</ele>
        <time>2019-07-08T17:09:17.000Z</time>
      </trkpt>
      <trkpt lat="43.02888575010001659393310546875" lon="-7.2050236165523529052734375">
        <ele>850.4000244140625</ele>
        <time>2019-07-08T17:09:18.000Z</time>
      </trkpt>
      <trkpt lat="43.02913586609065532684326171875" lon="-7.20500391907989978790283203125">
        <ele>851.79998779296875</ele>
        <time>2019-07-08T17:09:19.000Z</time>
      </trkpt>
      <trkpt lat="43.029625453054904937744140625" lon="-7.204942144453525543212890625">
        <ele>852.20001220703125</ele>
        <time>2019-07-08T17:09:21.000Z</time>
      </trkpt>
      <trkpt lat="43.0300755612552165985107421875" lon="-7.20475648529827594757080078125">
        <ele>852.5999755859375</ele>
        <time>2019-07-08T17:09:23.000Z</time>
      </trkpt>
      <trkpt lat="43.03027882240712642669677734375" lon="-7.20460695214569568634033203125">
        <ele>853</ele>
        <time>2019-07-08T17:09:24.000Z</time>
      </trkpt>
      <trkpt lat="43.0304631404578685760498046875" lon="-7.2044219635426998138427734375">
        <ele>854.4000244140625</ele>
        <time>2019-07-08T17:09:25.000Z</time>
      </trkpt>
      <trkpt lat="43.03063086234033107757568359375" lon="-7.204206548631191253662109375">
        <ele>856.5999755859375</ele>
        <time>2019-07-08T17:09:26.000Z</time>
      </trkpt>
      <trkpt lat="43.03078559227287769317626953125" lon="-7.20396774820983409881591796875">
        <ele>859.4000244140625</ele>
        <time>2019-07-08T17:09:27.000Z</time>
      </trkpt>
      <trkpt lat="43.030929677188396453857421875" lon="-7.20372450537979602813720703125">
        <ele>861.20001220703125</ele>
        <time>2019-07-08T17:09:28.000Z</time>
      </trkpt>
      <trkpt lat="43.03106605075299739837646484375" lon="-7.2034909017384052276611328125">
        <ele>862.5999755859375</ele>
        <time>2019-07-08T17:09:29.000Z</time>
      </trkpt>
      <trkpt lat="43.03119580261409282684326171875" lon="-7.2032672725617885589599609375">
        <ele>864.4000244140625</ele>
        <time>2019-07-08T17:09:30.000Z</time>
      </trkpt>
      <trkpt lat="43.03143762052059173583984375" lon="-7.20284323208034038543701171875">
        <ele>865.4000244140625</ele>
        <time>2019-07-08T17:09:32.000Z</time>
      </trkpt>
      <trkpt lat="43.03165647201240062713623046875" lon="-7.20244542695581912994384765625">
        <ele>867.79998779296875</ele>
        <time>2019-07-08T17:09:34.000Z</time>
      </trkpt>
      <trkpt lat="43.0317620001733303070068359375" lon="-7.2022567503154277801513671875">
        <ele>869.4000244140625</ele>
        <time>2019-07-08T17:09:35.000Z</time>
      </trkpt>
      <trkpt lat="43.031865097582340240478515625" lon="-7.2020746953785419464111328125">
        <ele>871.20001220703125</ele>
        <time>2019-07-08T17:09:36.000Z</time>
      </trkpt>
      <trkpt lat="43.0320909060537815093994140625" lon="-7.2017380781471729278564453125">
        <ele>874.4000244140625</ele>
        <time>2019-07-08T17:09:38.000Z</time>
      </trkpt>
      <trkpt lat="43.032221831381320953369140625" lon="-7.20158946700394153594970703125">
        <ele>876.20001220703125</ele>
        <time>2019-07-08T17:09:39.000Z</time>
      </trkpt>
      <trkpt lat="43.03236491046845912933349609375" lon="-7.20145518891513347625732421875">
        <ele>877.79998779296875</ele>
        <time>2019-07-08T17:09:40.000Z</time>
      </trkpt>
      <trkpt lat="43.03266875445842742919921875" lon="-7.20120616257190704345703125">
        <ele>879.4000244140625</ele>
        <time>2019-07-08T17:09:42.000Z</time>
      </trkpt>
      <trkpt lat="43.03297142498195171356201171875" lon="-7.2009412944316864013671875">
        <ele>880.5999755859375</ele>
        <time>2019-07-08T17:09:44.000Z</time>
      </trkpt>
      <trkpt lat="43.0333746783435344696044921875" lon="-7.20054256729781627655029296875">
        <ele>881.20001220703125</ele>
        <time>2019-07-08T17:09:47.000Z</time>
      </trkpt>
      <trkpt lat="43.03349663503468036651611328125" lon="-7.2004207782447338104248046875">
        <ele>882</ele>
        <time>2019-07-08T17:09:48.000Z</time>
      </trkpt>
      <trkpt lat="43.033734597265720367431640625" lon="-7.2001770325005054473876953125">
        <ele>884</ele>
        <time>2019-07-08T17:09:50.000Z</time>
      </trkpt>
      <trkpt lat="43.03396317176520824432373046875" lon="-7.19993404112756252288818359375">
        <ele>885.20001220703125</ele>
        <time>2019-07-08T17:09:52.000Z</time>
      </trkpt>
      <trkpt lat="43.03419350646436214447021484375" lon="-7.19969113357365131378173828125">
        <ele>886.20001220703125</ele>
        <time>2019-07-08T17:09:54.000Z</time>
      </trkpt>
      <trkpt lat="43.0343942530453205108642578125" lon="-7.19943012110888957977294921875">
        <ele>888</ele>
        <time>2019-07-08T17:09:56.000Z</time>
      </trkpt>
      <trkpt lat="43.03447295911610126495361328125" lon="-7.19927086494863033294677734375">
        <ele>889.4000244140625</ele>
        <time>2019-07-08T17:09:57.000Z</time>
      </trkpt>
      <trkpt lat="43.03453984670341014862060546875" lon="-7.19908721745014190673828125">
        <ele>890.79998779296875</ele>
        <time>2019-07-08T17:09:58.000Z</time>
      </trkpt>
      <trkpt lat="43.03470429964363574981689453125" lon="-7.198382131755352020263671875">
        <ele>891</ele>
        <time>2019-07-08T17:10:01.000Z</time>
      </trkpt>
      <trkpt lat="43.03483405150473117828369140625" lon="-7.19782414846122264862060546875">
        <ele>891.79998779296875</ele>
        <time>2019-07-08T17:10:03.000Z</time>
      </trkpt>
      <trkpt lat="43.03502566181123256683349609375" lon="-7.19728611409664154052734375">
        <ele>891.5999755859375</ele>
        <time>2019-07-08T17:10:05.000Z</time>
      </trkpt>
      <trkpt lat="43.0352978222072124481201171875" lon="-7.19681513495743274688720703125">
        <ele>894.4000244140625</ele>
        <time>2019-07-08T17:10:07.000Z</time>
      </trkpt>
      <trkpt lat="43.035447187721729278564453125" lon="-7.1965976245701313018798828125">
        <ele>896</ele>
        <time>2019-07-08T17:10:08.000Z</time>
      </trkpt>
      <trkpt lat="43.0355978943407535552978515625" lon="-7.19638681970536708831787109375">
        <ele>898.20001220703125</ele>
        <time>2019-07-08T17:10:09.000Z</time>
      </trkpt>
      <trkpt lat="43.03574969060719013214111328125" lon="-7.1961862407624721527099609375">
        <ele>899.79998779296875</ele>
        <time>2019-07-08T17:10:10.000Z</time>
      </trkpt>
      <trkpt lat="43.0359070189297199249267578125" lon="-7.19600343145430088043212890625">
        <ele>902</ele>
        <time>2019-07-08T17:10:11.000Z</time>
      </trkpt>
      <trkpt lat="43.0360770039260387420654296875" lon="-7.195848785340785980224609375">
        <ele>904</ele>
        <time>2019-07-08T17:10:12.000Z</time>
      </trkpt>
      <trkpt lat="43.03626048378646373748779296875" lon="-7.195731438696384429931640625">
        <ele>905</ele>
        <time>2019-07-08T17:10:13.000Z</time>
      </trkpt>
      <trkpt lat="43.0364555306732654571533203125" lon="-7.19565491192042827606201171875">
        <ele>906.20001220703125</ele>
        <time>2019-07-08T17:10:14.000Z</time>
      </trkpt>
      <trkpt lat="43.0366577021777629852294921875" lon="-7.1956162713468074798583984375">
        <ele>907.79998779296875</ele>
        <time>2019-07-08T17:10:15.000Z</time>
      </trkpt>
      <trkpt lat="43.03686398081481456756591796875" lon="-7.19561417587101459503173828125">
        <ele>909.4000244140625</ele>
        <time>2019-07-08T17:10:16.000Z</time>
      </trkpt>
      <trkpt lat="43.03707294166088104248046875" lon="-7.19565398991107940673828125">
        <ele>911</ele>
        <time>2019-07-08T17:10:17.000Z</time>
      </trkpt>
      <trkpt lat="43.03728290833532810211181640625" lon="-7.1957349590957164764404296875">
        <ele>912</ele>
        <time>2019-07-08T17:10:18.000Z</time>
      </trkpt>
      <trkpt lat="43.0377074517309665679931640625" lon="-7.1959646232426166534423828125">
        <ele>912.79998779296875</ele>
        <time>2019-07-08T17:10:20.000Z</time>
      </trkpt>
      <trkpt lat="43.038134761154651641845703125" lon="-7.19619688577950000762939453125">
        <ele>912.79998779296875</ele>
        <time>2019-07-08T17:10:22.000Z</time>
      </trkpt>
      <trkpt lat="43.0383427999913692474365234375" lon="-7.19628187827765941619873046875">
        <ele>911.5999755859375</ele>
        <time>2019-07-08T17:10:23.000Z</time>
      </trkpt>
      <trkpt lat="43.038757704198360443115234375" lon="-7.1963297389447689056396484375">
        <ele>910</ele>
        <time>2019-07-08T17:10:25.000Z</time>
      </trkpt>
      <trkpt lat="43.038970269262790679931640625" lon="-7.1962876617908477783203125">
        <ele>908.79998779296875</ele>
        <time>2019-07-08T17:10:26.000Z</time>
      </trkpt>
      <trkpt lat="43.03918409161269664764404296875" lon="-7.19620409421622753143310546875">
        <ele>908</ele>
        <time>2019-07-08T17:10:27.000Z</time>
      </trkpt>
      <trkpt lat="43.03939841687679290771484375" lon="-7.19609328545629978179931640625">
        <ele>907.5999755859375</ele>
        <time>2019-07-08T17:10:28.000Z</time>
      </trkpt>
      <trkpt lat="43.0398408137261867523193359375" lon="-7.195851467549800872802734375">
        <ele>906.5999755859375</ele>
        <time>2019-07-08T17:10:30.000Z</time>
      </trkpt>
      <trkpt lat="43.0400694720447063446044921875" lon="-7.19573956914246082305908203125">
        <ele>903.4000244140625</ele>
        <time>2019-07-08T17:10:31.000Z</time>
      </trkpt>
      <trkpt lat="43.04030232131481170654296875" lon="-7.19564233906567096710205078125">
        <ele>898.5999755859375</ele>
        <time>2019-07-08T17:10:32.000Z</time>
      </trkpt>
      <trkpt lat="43.0405388586223125457763671875" lon="-7.19556706957519054412841796875">
        <ele>894.20001220703125</ele>
        <time>2019-07-08T17:10:33.000Z</time>
      </trkpt>
      <trkpt lat="43.04077330045402050018310546875" lon="-7.19551426358520984649658203125">
        <ele>891.79998779296875</ele>
        <time>2019-07-08T17:10:34.000Z</time>
      </trkpt>
      <trkpt lat="43.04100103676319122314453125" lon="-7.19547168351709842681884765625">
        <ele>889.5999755859375</ele>
        <time>2019-07-08T17:10:35.000Z</time>
      </trkpt>
      <trkpt lat="43.04122189991176128387451171875" lon="-7.19542675651609897613525390625">
        <ele>887.20001220703125</ele>
        <time>2019-07-08T17:10:36.000Z</time>
      </trkpt>
      <trkpt lat="43.04143555462360382080078125" lon="-7.195370011031627655029296875">
        <ele>885</ele>
        <time>2019-07-08T17:10:37.000Z</time>
      </trkpt>
      <trkpt lat="43.04164074361324310302734375" lon="-7.19527889974415302276611328125">
        <ele>883.4000244140625</ele>
        <time>2019-07-08T17:10:38.000Z</time>
      </trkpt>
      <trkpt lat="43.04200141690671443939208984375" lon="-7.19497044570744037628173828125">
        <ele>881.5999755859375</ele>
        <time>2019-07-08T17:10:40.000Z</time>
      </trkpt>
      <trkpt lat="43.04216301999986171722412109375" lon="-7.1947841159999370574951171875">
        <ele>880.4000244140625</ele>
        <time>2019-07-08T17:10:41.000Z</time>
      </trkpt>
      <trkpt lat="43.04232864640653133392333984375" lon="-7.1946087665855884552001953125">
        <ele>878.79998779296875</ele>
        <time>2019-07-08T17:10:42.000Z</time>
      </trkpt>
      <trkpt lat="43.0425089411437511444091796875" lon="-7.19446518458425998687744140625">
        <ele>877.20001220703125</ele>
        <time>2019-07-08T17:10:43.000Z</time>
      </trkpt>
      <trkpt lat="43.04270331747829914093017578125" lon="-7.19437080435454845428466796875">
        <ele>875.20001220703125</ele>
        <time>2019-07-08T17:10:44.000Z</time>
      </trkpt>
      <trkpt lat="43.042907752096652984619140625" lon="-7.194332666695117950439453125">
        <ele>874.4000244140625</ele>
        <time>2019-07-08T17:10:45.000Z</time>
      </trkpt>
      <trkpt lat="43.04311905987560749053955078125" lon="-7.19434565864503383636474609375">
        <ele>873.4000244140625</ele>
        <time>2019-07-08T17:10:46.000Z</time>
      </trkpt>
      <trkpt lat="43.04333732463419437408447265625" lon="-7.1943921782076358795166015625">
        <ele>872.20001220703125</ele>
        <time>2019-07-08T17:10:47.000Z</time>
      </trkpt>
      <trkpt lat="43.043794892728328704833984375" lon="-7.1945219300687313079833984375">
        <ele>870.79998779296875</ele>
        <time>2019-07-08T17:10:49.000Z</time>
      </trkpt>
      <trkpt lat="43.0442691408097743988037109375" lon="-7.194650173187255859375">
        <ele>868.5999755859375</ele>
        <time>2019-07-08T17:10:51.000Z</time>
      </trkpt>
      <trkpt lat="43.044498302042484283447265625" lon="-7.19471295364201068878173828125">
        <ele>866.20001220703125</ele>
        <time>2019-07-08T17:10:52.000Z</time>
      </trkpt>
      <trkpt lat="43.0447187460958957672119140625" lon="-7.1947750635445117950439453125">
        <ele>863.4000244140625</ele>
        <time>2019-07-08T17:10:53.000Z</time>
      </trkpt>
      <trkpt lat="43.0449316464364528656005859375" lon="-7.1948354132473468780517578125">
        <ele>859.5999755859375</ele>
        <time>2019-07-08T17:10:54.000Z</time>
      </trkpt>
      <trkpt lat="43.04513557814061641693115234375" lon="-7.1948974393308162689208984375">
        <ele>855.79998779296875</ele>
        <time>2019-07-08T17:10:55.000Z</time>
      </trkpt>
      <trkpt lat="43.045335151255130767822265625" lon="-7.1949519217014312744140625">
        <ele>853</ele>
        <time>2019-07-08T17:10:56.000Z</time>
      </trkpt>
      <trkpt lat="43.04553036577999591827392578125" lon="-7.194991149008274078369140625">
        <ele>851.20001220703125</ele>
        <time>2019-07-08T17:10:57.000Z</time>
      </trkpt>
      <trkpt lat="43.04572306573390960693359375" lon="-7.194997183978557586669921875">
        <ele>850.4000244140625</ele>
        <time>2019-07-08T17:10:58.000Z</time>
      </trkpt>
      <trkpt lat="43.0459116585552692413330078125" lon="-7.19495804049074649810791015625">
        <ele>850</ele>
        <time>2019-07-08T17:10:59.000Z</time>
      </trkpt>
      <trkpt lat="43.0460917018353939056396484375" lon="-7.19486986286938190460205078125">
        <ele>849.4000244140625</ele>
        <time>2019-07-08T17:11:00.000Z</time>
      </trkpt>
      <trkpt lat="43.0462573282420635223388671875" lon="-7.1947281248867511749267578125">
        <ele>848.79998779296875</ele>
        <time>2019-07-08T17:11:01.000Z</time>
      </trkpt>
      <trkpt lat="43.04639956913888454437255859375" lon="-7.1945383585989475250244140625">
        <ele>848.4000244140625</ele>
        <time>2019-07-08T17:11:02.000Z</time>
      </trkpt>
      <trkpt lat="43.046512305736541748046875" lon="-7.1943100355565547943115234375">
        <ele>847.20001220703125</ele>
        <time>2019-07-08T17:11:03.000Z</time>
      </trkpt>
      <trkpt lat="43.0465919338166713714599609375" lon="-7.19405396841466426849365234375">
        <ele>846</ele>
        <time>2019-07-08T17:11:04.000Z</time>
      </trkpt>
      <trkpt lat="43.0466328375041484832763671875" lon="-7.193784154951572418212890625">
        <ele>845</ele>
        <time>2019-07-08T17:11:05.000Z</time>
      </trkpt>
      <trkpt lat="43.0466398783028125762939453125" lon="-7.1935223042964935302734375">
        <ele>843.5999755859375</ele>
        <time>2019-07-08T17:11:06.000Z</time>
      </trkpt>
      <trkpt lat="43.04661079309880733489990234375" lon="-7.1930182166397571563720703125">
        <ele>841.79998779296875</ele>
        <time>2019-07-08T17:11:08.000Z</time>
      </trkpt>
      <trkpt lat="43.046632669866085052490234375" lon="-7.19277036376297473907470703125">
        <ele>839.79998779296875</ele>
        <time>2019-07-08T17:11:09.000Z</time>
      </trkpt>
      <trkpt lat="43.04669595323503017425537109375" lon="-7.192530222237110137939453125">
        <ele>837.79998779296875</ele>
        <time>2019-07-08T17:11:10.000Z</time>
      </trkpt>
      <trkpt lat="43.0467979609966278076171875" lon="-7.19230215065181255340576171875">
        <ele>835.79998779296875</ele>
        <time>2019-07-08T17:11:11.000Z</time>
      </trkpt>
      <trkpt lat="43.046929724514484405517578125" lon="-7.19208673574030399322509765625">
        <ele>834.20001220703125</ele>
        <time>2019-07-08T17:11:12.000Z</time>
      </trkpt>
      <trkpt lat="43.04707515053451061248779296875" lon="-7.1918776072561740875244140625">
        <ele>833.20001220703125</ele>
        <time>2019-07-08T17:11:13.000Z</time>
      </trkpt>
      <trkpt lat="43.0473694391548633575439453125" lon="-7.19146194867789745330810546875">
        <ele>831.4000244140625</ele>
        <time>2019-07-08T17:11:15.000Z</time>
      </trkpt>
      <trkpt lat="43.04751654155552387237548828125" lon="-7.19124938361346721649169921875">
        <ele>830</ele>
        <time>2019-07-08T17:11:16.000Z</time>
      </trkpt>
      <trkpt lat="43.0476601235568523406982421875" lon="-7.19102919101715087890625">
        <ele>827.4000244140625</ele>
        <time>2019-07-08T17:11:17.000Z</time>
      </trkpt>
      <trkpt lat="43.04779238998889923095703125" lon="-7.1907933242619037628173828125">
        <ele>824.20001220703125</ele>
        <time>2019-07-08T17:11:18.000Z</time>
      </trkpt>
      <trkpt lat="43.047909401357173919677734375" lon="-7.19053859822452068328857421875">
        <ele>820.5999755859375</ele>
        <time>2019-07-08T17:11:19.000Z</time>
      </trkpt>
      <trkpt lat="43.0480121634900569915771484375" lon="-7.190265767276287078857421875">
        <ele>817.4000244140625</ele>
        <time>2019-07-08T17:11:20.000Z</time>
      </trkpt>
      <trkpt lat="43.0481097288429737091064453125" lon="-7.18998136930167675018310546875">
        <ele>814</ele>
        <time>2019-07-08T17:11:21.000Z</time>
      </trkpt>
      <trkpt lat="43.04821190424263477325439453125" lon="-7.18969504348933696746826171875">
        <ele>811</ele>
        <time>2019-07-08T17:11:22.000Z</time>
      </trkpt>
      <trkpt lat="43.04832749068737030029296875" lon="-7.18941743485629558563232421875">
        <ele>808.79998779296875</ele>
        <time>2019-07-08T17:11:23.000Z</time>
      </trkpt>
      <trkpt lat="43.04846202023327350616455078125" lon="-7.1891565062105655670166015625">
        <ele>806.4000244140625</ele>
        <time>2019-07-08T17:11:24.000Z</time>
      </trkpt>
      <trkpt lat="43.0486133135855197906494140625" lon="-7.18891552649438381195068359375">
        <ele>804</ele>
        <time>2019-07-08T17:11:25.000Z</time>
      </trkpt>
      <trkpt lat="43.048773072659969329833984375" lon="-7.1886934898793697357177734375">
        <ele>802</ele>
        <time>2019-07-08T17:11:26.000Z</time>
      </trkpt>
      <trkpt lat="43.048931322991847991943359375" lon="-7.18848578631877899169921875">
        <ele>800.5999755859375</ele>
        <time>2019-07-08T17:11:27.000Z</time>
      </trkpt>
      <trkpt lat="43.04919677786529064178466796875" lon="-7.18810281716287136077880859375">
        <ele>799.4000244140625</ele>
        <time>2019-07-08T17:11:29.000Z</time>
      </trkpt>
      <trkpt lat="43.04929752834141254425048828125" lon="-7.18790969811379909515380859375">
        <ele>799.20001220703125</ele>
        <time>2019-07-08T17:11:30.000Z</time>
      </trkpt>
      <trkpt lat="43.0494300462305545806884765625" lon="-7.18747551552951335906982421875">
        <ele>799.20001220703125</ele>
        <time>2019-07-08T17:11:32.000Z</time>
      </trkpt>
      <trkpt lat="43.0494464747607707977294921875" lon="-7.1870047040283679962158203125">
        <ele>799.20001220703125</ele>
        <time>2019-07-08T17:11:34.000Z</time>
      </trkpt>
      <trkpt lat="43.04939727298915386199951171875" lon="-7.18654579482972621917724609375">
        <ele>798.20001220703125</ele>
        <time>2019-07-08T17:11:36.000Z</time>
      </trkpt>
      <trkpt lat="43.0493824370205402374267578125" lon="-7.18631797470152378082275390625">
        <ele>796.5999755859375</ele>
        <time>2019-07-08T17:11:37.000Z</time>
      </trkpt>
      <trkpt lat="43.04938654415309429168701171875" lon="-7.18608948402106761932373046875">
        <ele>795</ele>
        <time>2019-07-08T17:11:38.000Z</time>
      </trkpt>
      <trkpt lat="43.0494132824242115020751953125" lon="-7.18585965223610401153564453125">
        <ele>794.20001220703125</ele>
        <time>2019-07-08T17:11:39.000Z</time>
      </trkpt>
      <trkpt lat="43.04945913143455982208251953125" lon="-7.1856272220611572265625">
        <ele>793</ele>
        <time>2019-07-08T17:11:40.000Z</time>
      </trkpt>
      <trkpt lat="43.04951570928096771240234375" lon="-7.1853916905820369720458984375">
        <ele>791.79998779296875</ele>
        <time>2019-07-08T17:11:41.000Z</time>
      </trkpt>
      <trkpt lat="43.04963967762887477874755859375" lon="-7.1849179454147815704345703125">
        <ele>789.5999755859375</ele>
        <time>2019-07-08T17:11:43.000Z</time>
      </trkpt>
      <trkpt lat="43.0497136898338794708251953125" lon="-7.18469657935202121734619140625">
        <ele>787</ele>
        <time>2019-07-08T17:11:44.000Z</time>
      </trkpt>
      <trkpt lat="43.04980413056910037994384765625" lon="-7.18450664542615413665771484375">
        <ele>785.5999755859375</ele>
        <time>2019-07-08T17:11:45.000Z</time>
      </trkpt>
      <trkpt lat="43.04998551495373249053955078125" lon="-7.18419148586690425872802734375">
        <ele>784.5999755859375</ele>
        <time>2019-07-08T17:11:47.000Z</time>
      </trkpt>
      <trkpt lat="43.05008408613502979278564453125" lon="-7.18386978842318058013916015625">
        <ele>787.20001220703125</ele>
        <time>2019-07-08T17:11:49.000Z</time>
      </trkpt>
      <trkpt lat="43.0501212179660797119140625" lon="-7.1837035752832889556884765625">
        <ele>788.5999755859375</ele>
        <time>2019-07-08T17:11:50.000Z</time>
      </trkpt>
      <trkpt lat="43.05018383078277111053466796875" lon="-7.18354842625558376312255859375">
        <ele>790.20001220703125</ele>
        <time>2019-07-08T17:11:51.000Z</time>
      </trkpt>
      <trkpt lat="43.0502685718238353729248046875" lon="-7.1834103763103485107421875">
        <ele>791.79998779296875</ele>
        <time>2019-07-08T17:11:52.000Z</time>
      </trkpt>
      <trkpt lat="43.05035850964486598968505859375" lon="-7.18327551148831844329833984375">
        <ele>792.4000244140625</ele>
        <time>2019-07-08T17:11:53.000Z</time>
      </trkpt>
      <trkpt lat="43.05043176747858524322509765625" lon="-7.18313167802989482879638671875">
        <ele>793</ele>
        <time>2019-07-08T17:11:54.000Z</time>
      </trkpt>
      <trkpt lat="43.05056101642549037933349609375" lon="-7.18284786678850650787353515625">
        <ele>794.4000244140625</ele>
        <time>2019-07-08T17:11:56.000Z</time>
      </trkpt>
      <trkpt lat="43.05064869113266468048095703125" lon="-7.1827295981347560882568359375">
        <ele>795.5999755859375</ele>
        <time>2019-07-08T17:11:57.000Z</time>
      </trkpt>
      <trkpt lat="43.05075086653232574462890625" lon="-7.1826253272593021392822265625">
        <ele>796.79998779296875</ele>
        <time>2019-07-08T17:11:58.000Z</time>
      </trkpt>
      <trkpt lat="43.05086008273065090179443359375" lon="-7.18252331949770450592041015625">
        <ele>798</ele>
        <time>2019-07-08T17:11:59.000Z</time>
      </trkpt>
      <trkpt lat="43.05107616819441318511962890625" lon="-7.18229533173143863677978515625">
        <ele>799.20001220703125</ele>
        <time>2019-07-08T17:12:01.000Z</time>
      </trkpt>
      <trkpt lat="43.05122553370893001556396484375" lon="-7.182003892958164215087890625">
        <ele>800.4000244140625</ele>
        <time>2019-07-08T17:12:03.000Z</time>
      </trkpt>
      <trkpt lat="43.05126241408288478851318359375" lon="-7.18164891935884952545166015625">
        <ele>801</ele>
        <time>2019-07-08T17:12:05.000Z</time>
      </trkpt>
      <trkpt lat="43.05121882818639278411865234375" lon="-7.18124608509242534637451171875">
        <ele>801.5999755859375</ele>
        <time>2019-07-08T17:12:07.000Z</time>
      </trkpt>
      <trkpt lat="43.051122017204761505126953125" lon="-7.18056195415556430816650390625">
        <ele>802.79998779296875</ele>
        <time>2019-07-08T17:12:10.000Z</time>
      </trkpt>
      <trkpt lat="43.05102445185184478759765625" lon="-7.17987899668514728546142578125">
        <ele>804</ele>
        <time>2019-07-08T17:12:13.000Z</time>
      </trkpt>
      <trkpt lat="43.05096955038607120513916015625" lon="-7.17946459539234638214111328125">
        <ele>804.4000244140625</ele>
        <time>2019-07-08T17:12:15.000Z</time>
      </trkpt>
      <trkpt lat="43.050993271172046661376953125" lon="-7.17908606864511966705322265625">
        <ele>805.20001220703125</ele>
        <time>2019-07-08T17:12:17.000Z</time>
      </trkpt>
      <trkpt lat="43.05113534443080425262451171875" lon="-7.1787535585463047027587890625">
        <ele>806.20001220703125</ele>
        <time>2019-07-08T17:12:19.000Z</time>
      </trkpt>
      <trkpt lat="43.05124581791460514068603515625" lon="-7.17860980890691280364990234375">
        <ele>806.4000244140625</ele>
        <time>2019-07-08T17:12:20.000Z</time>
      </trkpt>
      <trkpt lat="43.05137540213763713836669921875" lon="-7.178493551909923553466796875">
        <ele>807</ele>
        <time>2019-07-08T17:12:21.000Z</time>
      </trkpt>
      <trkpt lat="43.05168301798403263092041015625" lon="-7.1783683262765407562255859375">
        <ele>806.20001220703125</ele>
        <time>2019-07-08T17:12:23.000Z</time>
      </trkpt>
      <trkpt lat="43.05185300298035144805908203125" lon="-7.17833236791193485260009765625">
        <ele>805.20001220703125</ele>
        <time>2019-07-08T17:12:24.000Z</time>
      </trkpt>
      <trkpt lat="43.05202516727149486541748046875" lon="-7.17828811146318912506103515625">
        <ele>804.20001220703125</ele>
        <time>2019-07-08T17:12:25.000Z</time>
      </trkpt>
      <trkpt lat="43.05219381116330623626708984375" lon="-7.17823505401611328125">
        <ele>803.20001220703125</ele>
        <time>2019-07-08T17:12:26.000Z</time>
      </trkpt>
      <trkpt lat="43.0523596890270709991455078125" lon="-7.178187109529972076416015625">
        <ele>802.5999755859375</ele>
        <time>2019-07-08T17:12:27.000Z</time>
      </trkpt>
      <trkpt lat="43.0525293387472629547119140625" lon="-7.17817981727421283721923828125">
        <ele>802</ele>
        <time>2019-07-08T17:12:28.000Z</time>
      </trkpt>
      <trkpt lat="43.05270217359066009521484375" lon="-7.1782070584595203399658203125">
        <ele>801.4000244140625</ele>
        <time>2019-07-08T17:12:29.000Z</time>
      </trkpt>
      <trkpt lat="43.05287123657763004302978515625" lon="-7.17825743369758129119873046875">
        <ele>801</ele>
        <time>2019-07-08T17:12:30.000Z</time>
      </trkpt>
      <trkpt lat="43.053183294832706451416015625" lon="-7.178352065384387969970703125">
        <ele>799.79998779296875</ele>
        <time>2019-07-08T17:12:32.000Z</time>
      </trkpt>
      <trkpt lat="43.0534748174250125885009765625" lon="-7.1783103235065937042236328125">
        <ele>800</ele>
        <time>2019-07-08T17:12:34.000Z</time>
      </trkpt>
      <trkpt lat="43.05371948517858982086181640625" lon="-7.17804134823381900787353515625">
        <ele>799.5999755859375</ele>
        <time>2019-07-08T17:12:36.000Z</time>
      </trkpt>
      <trkpt lat="43.0540417693555355072021484375" lon="-7.17751965858042240142822265625">
        <ele>798.20001220703125</ele>
        <time>2019-07-08T17:12:39.000Z</time>
      </trkpt>
      <trkpt lat="43.05417411960661411285400390625" lon="-7.177369706332683563232421875">
        <ele>795.5999755859375</ele>
        <time>2019-07-08T17:12:40.000Z</time>
      </trkpt>
      <trkpt lat="43.05432013235986232757568359375" lon="-7.17723148874938488006591796875">
        <ele>792.4000244140625</ele>
        <time>2019-07-08T17:12:41.000Z</time>
      </trkpt>
      <trkpt lat="43.05447167716920375823974609375" lon="-7.1771066822111606597900390625">
        <ele>788.79998779296875</ele>
        <time>2019-07-08T17:12:42.000Z</time>
      </trkpt>
      <trkpt lat="43.05463311262428760528564453125" lon="-7.17700056731700897216796875">
        <ele>787</ele>
        <time>2019-07-08T17:12:43.000Z</time>
      </trkpt>
      <trkpt lat="43.0548025108873844146728515625" lon="-7.1769135631620883941650390625">
        <ele>785.20001220703125</ele>
        <time>2019-07-08T17:12:44.000Z</time>
      </trkpt>
      <trkpt lat="43.05497995577752590179443359375" lon="-7.1768548898398876190185546875">
        <ele>783.5999755859375</ele>
        <time>2019-07-08T17:12:45.000Z</time>
      </trkpt>
      <trkpt lat="43.0551610887050628662109375" lon="-7.17683167196810245513916015625">
        <ele>782.20001220703125</ele>
        <time>2019-07-08T17:12:46.000Z</time>
      </trkpt>
      <trkpt lat="43.05533518083393573760986328125" lon="-7.17684273608028888702392578125">
        <ele>781.5999755859375</ele>
        <time>2019-07-08T17:12:47.000Z</time>
      </trkpt>
      <trkpt lat="43.05549980141222476959228515625" lon="-7.17687986791133880615234375">
        <ele>781.20001220703125</ele>
        <time>2019-07-08T17:12:48.000Z</time>
      </trkpt>
      <trkpt lat="43.05592761375010013580322265625" lon="-7.1769776009023189544677734375">
        <ele>782.20001220703125</ele>
        <time>2019-07-08T17:12:51.000Z</time>
      </trkpt>
      <trkpt lat="43.05604898370802402496337890625" lon="-7.1769407205283641815185546875">
        <ele>783</ele>
        <time>2019-07-08T17:12:52.000Z</time>
      </trkpt>
      <trkpt lat="43.0561583675444126129150390625" lon="-7.17686000280082225799560546875">
        <ele>784</ele>
        <time>2019-07-08T17:12:53.000Z</time>
      </trkpt>
      <trkpt lat="43.05624579079449176788330078125" lon="-7.1767392195761203765869140625">
        <ele>784.5999755859375</ele>
        <time>2019-07-08T17:12:54.000Z</time>
      </trkpt>
      <trkpt lat="43.05631016381084918975830078125" lon="-7.17659463174641132354736328125">
        <ele>784.79998779296875</ele>
        <time>2019-07-08T17:12:55.000Z</time>
      </trkpt>
      <trkpt lat="43.0564383231103420257568359375" lon="-7.17631149105727672576904296875">
        <ele>783.4000244140625</ele>
        <time>2019-07-08T17:12:57.000Z</time>
      </trkpt>
      <trkpt lat="43.05653178133070468902587890625" lon="-7.17620705254375934600830078125">
        <ele>781.5999755859375</ele>
        <time>2019-07-08T17:12:58.000Z</time>
      </trkpt>
      <trkpt lat="43.0566448532044887542724609375" lon="-7.17613865621387958526611328125">
        <ele>780.4000244140625</ele>
        <time>2019-07-08T17:12:59.000Z</time>
      </trkpt>
      <trkpt lat="43.05677183903753757476806640625" lon="-7.17611300759017467498779296875">
        <ele>779.20001220703125</ele>
        <time>2019-07-08T17:13:00.000Z</time>
      </trkpt>
      <trkpt lat="43.0569040216505527496337890625" lon="-7.17613957822322845458984375">
        <ele>778.4000244140625</ele>
        <time>2019-07-08T17:13:01.000Z</time>
      </trkpt>
      <trkpt lat="43.05703167803585529327392578125" lon="-7.17620805837213993072509765625">
        <ele>777.79998779296875</ele>
        <time>2019-07-08T17:13:02.000Z</time>
      </trkpt>
      <trkpt lat="43.05715019814670085906982421875" lon="-7.17632607556879520416259765625">
        <ele>777</ele>
        <time>2019-07-08T17:13:03.000Z</time>
      </trkpt>
      <trkpt lat="43.05726670660078525543212890625" lon="-7.17646856792271137237548828125">
        <ele>776</ele>
        <time>2019-07-08T17:13:04.000Z</time>
      </trkpt>
      <trkpt lat="43.057386316359043121337890625" lon="-7.17660804279148578643798828125">
        <ele>775</ele>
        <time>2019-07-08T17:13:05.000Z</time>
      </trkpt>
      <trkpt lat="43.0575061775743961334228515625" lon="-7.17673477716743946075439453125">
        <ele>773.79998779296875</ele>
        <time>2019-07-08T17:13:06.000Z</time>
      </trkpt>
      <trkpt lat="43.05774330161511898040771484375" lon="-7.17694398947060108184814453125">
        <ele>772.79998779296875</ele>
        <time>2019-07-08T17:13:08.000Z</time>
      </trkpt>
      <trkpt lat="43.05800045840442180633544921875" lon="-7.17703585512936115264892578125">
        <ele>772.79998779296875</ele>
        <time>2019-07-08T17:13:10.000Z</time>
      </trkpt>
      <trkpt lat="43.058137334883213043212890625" lon="-7.17701003886759281158447265625">
        <ele>772.5999755859375</ele>
        <time>2019-07-08T17:13:11.000Z</time>
      </trkpt>
      <trkpt lat="43.05826230905950069427490234375" lon="-7.17693158425390720367431640625">
        <ele>772.4000244140625</ele>
        <time>2019-07-08T17:13:12.000Z</time>
      </trkpt>
      <trkpt lat="43.05846515111625194549560546875" lon="-7.17664291150867938995361328125">
        <ele>772.20001220703125</ele>
        <time>2019-07-08T17:13:14.000Z</time>
      </trkpt>
      <trkpt lat="43.05863580666482448577880859375" lon="-7.17630294151604175567626953125">
        <ele>771.20001220703125</ele>
        <time>2019-07-08T17:13:16.000Z</time>
      </trkpt>
      <trkpt lat="43.0587933026254177093505859375" lon="-7.175952829420566558837890625">
        <ele>769.20001220703125</ele>
        <time>2019-07-08T17:13:18.000Z</time>
      </trkpt>
      <trkpt lat="43.05887988768517971038818359375" lon="-7.17579097487032413482666015625">
        <ele>767.4000244140625</ele>
        <time>2019-07-08T17:13:19.000Z</time>
      </trkpt>
      <trkpt lat="43.05899119935929775238037109375" lon="-7.17565803788602352142333984375">
        <ele>765.4000244140625</ele>
        <time>2019-07-08T17:13:20.000Z</time>
      </trkpt>
      <trkpt lat="43.05912715382874011993408203125" lon="-7.175564579665660858154296875">
        <ele>763.79998779296875</ele>
        <time>2019-07-08T17:13:21.000Z</time>
      </trkpt>
      <trkpt lat="43.05927434004843235015869140625" lon="-7.17551470734179019927978515625">
        <ele>762.4000244140625</ele>
        <time>2019-07-08T17:13:22.000Z</time>
      </trkpt>
      <trkpt lat="43.05942085571587085723876953125" lon="-7.17551504261791706085205078125">
        <ele>761.20001220703125</ele>
        <time>2019-07-08T17:13:23.000Z</time>
      </trkpt>
      <trkpt lat="43.05956871248781681060791015625" lon="-7.175565920770168304443359375">
        <ele>760</ele>
        <time>2019-07-08T17:13:24.000Z</time>
      </trkpt>
      <trkpt lat="43.059707768261432647705078125" lon="-7.1756703592836856842041015625">
        <ele>758.5999755859375</ele>
        <time>2019-07-08T17:13:25.000Z</time>
      </trkpt>
      <trkpt lat="43.05982503108680248260498046875" lon="-7.17582299374043941497802734375">
        <ele>757.20001220703125</ele>
        <time>2019-07-08T17:13:26.000Z</time>
      </trkpt>
      <trkpt lat="43.05992268025875091552734375" lon="-7.17599934898316860198974609375">
        <ele>756.5999755859375</ele>
        <time>2019-07-08T17:13:27.000Z</time>
      </trkpt>
      <trkpt lat="43.06006592698395252227783203125" lon="-7.1764217130839824676513671875">
        <ele>756.20001220703125</ele>
        <time>2019-07-08T17:13:29.000Z</time>
      </trkpt>
      <trkpt lat="43.06014404632151126861572265625" lon="-7.17664039693772792816162109375">
        <ele>756.20001220703125</ele>
        <time>2019-07-08T17:13:30.000Z</time>
      </trkpt>
      <trkpt lat="43.06023918092250823974609375" lon="-7.17683804221451282501220703125">
        <ele>755</ele>
        <time>2019-07-08T17:13:31.000Z</time>
      </trkpt>
      <trkpt lat="43.06034554727375507354736328125" lon="-7.1770213544368743896484375">
        <ele>754</ele>
        <time>2019-07-08T17:13:32.000Z</time>
      </trkpt>
      <trkpt lat="43.06052626110613346099853515625" lon="-7.17740264721214771270751953125">
        <ele>753.20001220703125</ele>
        <time>2019-07-08T17:13:34.000Z</time>
      </trkpt>
      <trkpt lat="43.06058158166706562042236328125" lon="-7.17761219479143619537353515625">
        <ele>752.4000244140625</ele>
        <time>2019-07-08T17:13:35.000Z</time>
      </trkpt>
      <trkpt lat="43.0607167817652225494384765625" lon="-7.1781906299293041229248046875">
        <ele>751.20001220703125</ele>
        <time>2019-07-08T17:13:38.000Z</time>
      </trkpt>
      <trkpt lat="43.060867153108119964599609375" lon="-7.178514003753662109375">
        <ele>751.20001220703125</ele>
        <time>2019-07-08T17:13:40.000Z</time>
      </trkpt>
      <trkpt lat="43.06109539233148097991943359375" lon="-7.17876822687685489654541015625">
        <ele>750.5999755859375</ele>
        <time>2019-07-08T17:13:42.000Z</time>
      </trkpt>
      <trkpt lat="43.06157399900257587432861328125" lon="-7.1790881641209125518798828125">
        <ele>749.4000244140625</ele>
        <time>2019-07-08T17:13:45.000Z</time>
      </trkpt>
      <trkpt lat="43.0619113706052303314208984375" lon="-7.17927197925746440887451171875">
        <ele>747.4000244140625</ele>
        <time>2019-07-08T17:13:47.000Z</time>
      </trkpt>
      <trkpt lat="43.06207339279353618621826171875" lon="-7.17933945357799530029296875">
        <ele>746.20001220703125</ele>
        <time>2019-07-08T17:13:48.000Z</time>
      </trkpt>
      <trkpt lat="43.06222963146865367889404296875" lon="-7.17938446439802646636962890625">
        <ele>745.20001220703125</ele>
        <time>2019-07-08T17:13:49.000Z</time>
      </trkpt>
      <trkpt lat="43.06252702139317989349365234375" lon="-7.1793709695339202880859375">
        <ele>744.20001220703125</ele>
        <time>2019-07-08T17:13:51.000Z</time>
      </trkpt>
      <trkpt lat="43.06278652511537075042724609375" lon="-7.17918162234127521514892578125">
        <ele>744.4000244140625</ele>
        <time>2019-07-08T17:13:53.000Z</time>
      </trkpt>
      <trkpt lat="43.0629658140242099761962890625" lon="-7.178825475275516510009765625">
        <ele>744.79998779296875</ele>
        <time>2019-07-08T17:13:55.000Z</time>
      </trkpt>
      <trkpt lat="43.06302423588931560516357421875" lon="-7.178363800048828125">
        <ele>745.20001220703125</ele>
        <time>2019-07-08T17:13:57.000Z</time>
      </trkpt>
      <trkpt lat="43.06303848512470722198486328125" lon="-7.1776072494685649871826171875">
        <ele>744.4000244140625</ele>
        <time>2019-07-08T17:14:00.000Z</time>
      </trkpt>
      <trkpt lat="43.06304611265659332275390625" lon="-7.1773718856275081634521484375">
        <ele>743.79998779296875</ele>
        <time>2019-07-08T17:14:01.000Z</time>
      </trkpt>
      <trkpt lat="43.06306228972971439361572265625" lon="-7.17714683152735233306884765625">
        <ele>743</ele>
        <time>2019-07-08T17:14:02.000Z</time>
      </trkpt>
      <trkpt lat="43.0631026066839694976806640625" lon="-7.17693711631000041961669921875">
        <ele>742.5999755859375</ele>
        <time>2019-07-08T17:14:03.000Z</time>
      </trkpt>
      <trkpt lat="43.06317678652703762054443359375" lon="-7.17675221152603626251220703125">
        <ele>742.20001220703125</ele>
        <time>2019-07-08T17:14:04.000Z</time>
      </trkpt>
      <trkpt lat="43.0634113959968090057373046875" lon="-7.17648281715810298919677734375">
        <ele>741.4000244140625</ele>
        <time>2019-07-08T17:14:06.000Z</time>
      </trkpt>
      <trkpt lat="43.06385924108326435089111328125" lon="-7.1761950664222240447998046875">
        <ele>742</ele>
        <time>2019-07-08T17:14:09.000Z</time>
      </trkpt>
      <trkpt lat="43.06422653608024120330810546875" lon="-7.17572517693042755126953125">
        <ele>742.20001220703125</ele>
        <time>2019-07-08T17:14:12.000Z</time>
      </trkpt>
      <trkpt lat="43.06436701677739620208740234375" lon="-7.1755976043641567230224609375">
        <ele>742.5999755859375</ele>
        <time>2019-07-08T17:14:13.000Z</time>
      </trkpt>
      <trkpt lat="43.06452811695635318756103515625" lon="-7.1755023859441280364990234375">
        <ele>742.79998779296875</ele>
        <time>2019-07-08T17:14:14.000Z</time>
      </trkpt>
      <trkpt lat="43.06503337807953357696533203125" lon="-7.17519954778254032135009765625">
        <ele>742.79998779296875</ele>
        <time>2019-07-08T17:14:17.000Z</time>
      </trkpt>
      <trkpt lat="43.0653154291212558746337890625" lon="-7.17486393637955188751220703125">
        <ele>742.20001220703125</ele>
        <time>2019-07-08T17:14:19.000Z</time>
      </trkpt>
      <trkpt lat="43.06542866863310337066650390625" lon="-7.17467165552079677581787109375">
        <ele>741.4000244140625</ele>
        <time>2019-07-08T17:14:20.000Z</time>
      </trkpt>
      <trkpt lat="43.0656225420534610748291015625" lon="-7.17431324534118175506591796875">
        <ele>740</ele>
        <time>2019-07-08T17:14:22.000Z</time>
      </trkpt>
      <trkpt lat="43.06572756730020046234130859375" lon="-7.17417159117758274078369140625">
        <ele>739.20001220703125</ele>
        <time>2019-07-08T17:14:23.000Z</time>
      </trkpt>
      <trkpt lat="43.06585379876196384429931640625" lon="-7.1740643866360187530517578125">
        <ele>738.4000244140625</ele>
        <time>2019-07-08T17:14:24.000Z</time>
      </trkpt>
      <trkpt lat="43.0659943632781505584716796875" lon="-7.174002192914485931396484375">
        <ele>737.79998779296875</ele>
        <time>2019-07-08T17:14:25.000Z</time>
      </trkpt>
      <trkpt lat="43.06614364497363567352294921875" lon="-7.17399590648710727691650390625">
        <ele>737.20001220703125</ele>
        <time>2019-07-08T17:14:26.000Z</time>
      </trkpt>
      <trkpt lat="43.06629066355526447296142578125" lon="-7.17404100112617015838623046875">
        <ele>736.79998779296875</ele>
        <time>2019-07-08T17:14:27.000Z</time>
      </trkpt>
      <trkpt lat="43.06642091833055019378662109375" lon="-7.1741421706974506378173828125">
        <ele>736.20001220703125</ele>
        <time>2019-07-08T17:14:28.000Z</time>
      </trkpt>
      <trkpt lat="43.06653055362403392791748046875" lon="-7.1742828190326690673828125">
        <ele>735.5999755859375</ele>
        <time>2019-07-08T17:14:29.000Z</time>
      </trkpt>
      <trkpt lat="43.066655360162258148193359375" lon="-7.1746648661792278289794921875">
        <ele>735.20001220703125</ele>
        <time>2019-07-08T17:14:31.000Z</time>
      </trkpt>
      <trkpt lat="43.066721074283123016357421875" lon="-7.1753605641424655914306640625">
        <ele>735</ele>
        <time>2019-07-08T17:14:34.000Z</time>
      </trkpt>
      <trkpt lat="43.06676633656024932861328125" lon="-7.175575308501720428466796875">
        <ele>735</ele>
        <time>2019-07-08T17:14:35.000Z</time>
      </trkpt>
      <trkpt lat="43.06693724356591701507568359375" lon="-7.17590354382991790771484375">
        <ele>734.79998779296875</ele>
        <time>2019-07-08T17:14:37.000Z</time>
      </trkpt>
      <trkpt lat="43.06717948056757450103759765625" lon="-7.1760834194719791412353515625">
        <ele>734.4000244140625</ele>
        <time>2019-07-08T17:14:39.000Z</time>
      </trkpt>
      <trkpt lat="43.06744401343166828155517578125" lon="-7.17606506310403347015380859375">
        <ele>734</ele>
        <time>2019-07-08T17:14:41.000Z</time>
      </trkpt>
      <trkpt lat="43.06767426431179046630859375" lon="-7.17582014389336109161376953125">
        <ele>733.4000244140625</ele>
        <time>2019-07-08T17:14:43.000Z</time>
      </trkpt>
      <trkpt lat="43.06786344386637210845947265625" lon="-7.17545670457184314727783203125">
        <ele>732.79998779296875</ele>
        <time>2019-07-08T17:14:45.000Z</time>
      </trkpt>
      <trkpt lat="43.06806125678122043609619140625" lon="-7.1750418841838836669921875">
        <ele>731.5999755859375</ele>
        <time>2019-07-08T17:14:47.000Z</time>
      </trkpt>
      <trkpt lat="43.06817114353179931640625" lon="-7.17485153116285800933837890625">
        <ele>730.5999755859375</ele>
        <time>2019-07-08T17:14:48.000Z</time>
      </trkpt>
      <trkpt lat="43.0682910047471523284912109375" lon="-7.1746883355081081390380859375">
        <ele>729.20001220703125</ele>
        <time>2019-07-08T17:14:49.000Z</time>
      </trkpt>
      <trkpt lat="43.06841916404664516448974609375" lon="-7.1745612658560276031494140625">
        <ele>728</ele>
        <time>2019-07-08T17:14:50.000Z</time>
      </trkpt>
      <trkpt lat="43.068559728562831878662109375" lon="-7.1744804643094539642333984375">
        <ele>726.79998779296875</ele>
        <time>2019-07-08T17:14:51.000Z</time>
      </trkpt>
      <trkpt lat="43.06870481930673122406005859375" lon="-7.1744422428309917449951171875">
        <ele>726.20001220703125</ele>
        <time>2019-07-08T17:14:52.000Z</time>
      </trkpt>
      <trkpt lat="43.06884907186031341552734375" lon="-7.1744516305625438690185546875">
        <ele>725.79998779296875</ele>
        <time>2019-07-08T17:14:53.000Z</time>
      </trkpt>
      <trkpt lat="43.068992905318737030029296875" lon="-7.1745160035789012908935546875">
        <ele>725.79998779296875</ele>
        <time>2019-07-08T17:14:54.000Z</time>
      </trkpt>
      <trkpt lat="43.06923530995845794677734375" lon="-7.174804843962192535400390625">
        <ele>725.79998779296875</ele>
        <time>2019-07-08T17:14:56.000Z</time>
      </trkpt>
      <trkpt lat="43.06954770348966121673583984375" lon="-7.17540339566767215728759765625">
        <ele>726.4000244140625</ele>
        <time>2019-07-08T17:14:59.000Z</time>
      </trkpt>
      <trkpt lat="43.06985733099281787872314453125" lon="-7.175894491374492645263671875">
        <ele>725.20001220703125</ele>
        <time>2019-07-08T17:15:02.000Z</time>
      </trkpt>
      <trkpt lat="43.07008699513971805572509765625" lon="-7.17606791295111179351806640625">
        <ele>724.79998779296875</ele>
        <time>2019-07-08T17:15:04.000Z</time>
      </trkpt>
      <trkpt lat="43.07036946527659893035888671875" lon="-7.17605299316346645355224609375">
        <ele>725</ele>
        <time>2019-07-08T17:15:06.000Z</time>
      </trkpt>
      <trkpt lat="43.07067431509494781494140625" lon="-7.175947129726409912109375">
        <ele>725.20001220703125</ele>
        <time>2019-07-08T17:15:08.000Z</time>
      </trkpt>
      <trkpt lat="43.0708434619009494781494140625" lon="-7.17592407949268817901611328125">
        <ele>724.20001220703125</ele>
        <time>2019-07-08T17:15:09.000Z</time>
      </trkpt>
      <trkpt lat="43.07102140970528125762939453125" lon="-7.1759422682225704193115234375">
        <ele>722.79998779296875</ele>
        <time>2019-07-08T17:15:10.000Z</time>
      </trkpt>
      <trkpt lat="43.07120430283248424530029296875" lon="-7.17600555159151554107666015625">
        <ele>721.20001220703125</ele>
        <time>2019-07-08T17:15:11.000Z</time>
      </trkpt>
      <trkpt lat="43.07137931697070598602294921875" lon="-7.1761159412562847137451171875">
        <ele>720.4000244140625</ele>
        <time>2019-07-08T17:15:12.000Z</time>
      </trkpt>
      <trkpt lat="43.0715451948344707489013671875" lon="-7.1762547455728054046630859375">
        <ele>719.79998779296875</ele>
        <time>2019-07-08T17:15:13.000Z</time>
      </trkpt>
      <trkpt lat="43.0716995894908905029296875" lon="-7.17642280273139476776123046875">
        <ele>719.4000244140625</ele>
        <time>2019-07-08T17:15:14.000Z</time>
      </trkpt>
      <trkpt lat="43.0719518847763538360595703125" lon="-7.1768072806298732757568359375">
        <ele>718.4000244140625</ele>
        <time>2019-07-08T17:15:16.000Z</time>
      </trkpt>
      <trkpt lat="43.07204894721508026123046875" lon="-7.17701037414371967315673828125">
        <ele>718</ele>
        <time>2019-07-08T17:15:17.000Z</time>
      </trkpt>
      <trkpt lat="43.07212614454329013824462890625" lon="-7.17721891589462757110595703125">
        <ele>717.4000244140625</ele>
        <time>2019-07-08T17:15:18.000Z</time>
      </trkpt>
      <trkpt lat="43.0721795372664928436279296875" lon="-7.17743583954870700836181640625">
        <ele>716.4000244140625</ele>
        <time>2019-07-08T17:15:19.000Z</time>
      </trkpt>
      <trkpt lat="43.07222102768719196319580078125" lon="-7.17764505185186862945556640625">
        <ele>715.79998779296875</ele>
        <time>2019-07-08T17:15:20.000Z</time>
      </trkpt>
      <trkpt lat="43.07226696051657199859619140625" lon="-7.17783196829259395599365234375">
        <ele>715.20001220703125</ele>
        <time>2019-07-08T17:15:21.000Z</time>
      </trkpt>
      <trkpt lat="43.07241783477365970611572265625" lon="-7.1780970878899097442626953125">
        <ele>714.79998779296875</ele>
        <time>2019-07-08T17:15:23.000Z</time>
      </trkpt>
      <trkpt lat="43.0725205130875110626220703125" lon="-7.1781745366752147674560546875">
        <ele>714.5999755859375</ele>
        <time>2019-07-08T17:15:24.000Z</time>
      </trkpt>
      <trkpt lat="43.07263492606580257415771484375" lon="-7.17821200378239154815673828125">
        <ele>714.4000244140625</ele>
        <time>2019-07-08T17:15:25.000Z</time>
      </trkpt>
      <trkpt lat="43.0728735588490962982177734375" lon="-7.178178392350673675537109375">
        <ele>714</ele>
        <time>2019-07-08T17:15:27.000Z</time>
      </trkpt>
      <trkpt lat="43.0730683542788028717041015625" lon="-7.17799298465251922607421875">
        <ele>713.4000244140625</ele>
        <time>2019-07-08T17:15:29.000Z</time>
      </trkpt>
      <trkpt lat="43.0731868743896484375" lon="-7.17769836075603961944580078125">
        <ele>712.20001220703125</ele>
        <time>2019-07-08T17:15:31.000Z</time>
      </trkpt>
      <trkpt lat="43.073276393115520477294921875" lon="-7.17737138271331787109375">
        <ele>710.5999755859375</ele>
        <time>2019-07-08T17:15:33.000Z</time>
      </trkpt>
      <trkpt lat="43.0733221583068370819091796875" lon="-7.17721019871532917022705078125">
        <ele>709.5999755859375</ele>
        <time>2019-07-08T17:15:34.000Z</time>
      </trkpt>
      <trkpt lat="43.073370940983295440673828125" lon="-7.17704750597476959228515625">
        <ele>708.4000244140625</ele>
        <time>2019-07-08T17:15:35.000Z</time>
      </trkpt>
      <trkpt lat="43.0734237469732761383056640625" lon="-7.17688263393938541412353515625">
        <ele>707.20001220703125</ele>
        <time>2019-07-08T17:15:36.000Z</time>
      </trkpt>
      <trkpt lat="43.0735310353338718414306640625" lon="-7.17653545551002025604248046875">
        <ele>705.79998779296875</ele>
        <time>2019-07-08T17:15:38.000Z</time>
      </trkpt>
      <trkpt lat="43.07363941334187984466552734375" lon="-7.17617989517748355865478515625">
        <ele>703.79998779296875</ele>
        <time>2019-07-08T17:15:40.000Z</time>
      </trkpt>
      <trkpt lat="43.0737389065325260162353515625" lon="-7.17584453523159027099609375">
        <ele>701.79998779296875</ele>
        <time>2019-07-08T17:15:42.000Z</time>
      </trkpt>
      <trkpt lat="43.073820881545543670654296875" lon="-7.175610847771167755126953125">
        <ele>700.5999755859375</ele>
        <time>2019-07-08T17:15:44.000Z</time>
      </trkpt>
      <trkpt lat="43.0738733522593975067138671875" lon="-7.175499536097049713134765625">
        <ele>699.5999755859375</ele>
        <time>2019-07-08T17:15:46.000Z</time>
      </trkpt>
      <trkpt lat="43.07397133670747280120849609375" lon="-7.17540624551475048065185546875">
        <ele>698.79998779296875</ele>
        <time>2019-07-08T17:19:30.000Z</time>
      </trkpt>
      <trkpt lat="43.0740181915462017059326171875" lon="-7.175374813377857208251953125">
        <ele>698.20001220703125</ele>
        <time>2019-07-08T17:19:31.000Z</time>
      </trkpt>
      <trkpt lat="43.07413914240896701812744140625" lon="-7.17530247755348682403564453125">
        <ele>697</ele>
        <time>2019-07-08T17:19:33.000Z</time>
      </trkpt>
      <trkpt lat="43.074209131300449371337890625" lon="-7.17527582310140132904052734375">
        <ele>698.4000244140625</ele>
        <time>2019-07-08T17:19:34.000Z</time>
      </trkpt>
      <trkpt lat="43.07428733445703983306884765625" lon="-7.1752579696476459503173828125">
        <ele>696.5999755859375</ele>
        <time>2019-07-08T17:19:35.000Z</time>
      </trkpt>
      <trkpt lat="43.07437249459326267242431640625" lon="-7.1752512641251087188720703125">
        <ele>696.79998779296875</ele>
        <time>2019-07-08T17:19:36.000Z</time>
      </trkpt>
      <trkpt lat="43.07456913404166698455810546875" lon="-7.175291664898395538330078125">
        <ele>695.5999755859375</ele>
        <time>2019-07-08T17:19:38.000Z</time>
      </trkpt>
      <trkpt lat="43.0746817030012607574462890625" lon="-7.1753498353064060211181640625">
        <ele>694.5999755859375</ele>
        <time>2019-07-08T17:19:39.000Z</time>
      </trkpt>
      <trkpt lat="43.074912540614604949951171875" lon="-7.1755141206085681915283203125">
        <ele>693</ele>
        <time>2019-07-08T17:19:41.000Z</time>
      </trkpt>
      <trkpt lat="43.07516274042427539825439453125" lon="-7.17568553052842617034912109375">
        <ele>691.79998779296875</ele>
        <time>2019-07-08T17:19:43.000Z</time>
      </trkpt>
      <trkpt lat="43.075302802026271820068359375" lon="-7.17575241811573505401611328125">
        <ele>690.79998779296875</ele>
        <time>2019-07-08T17:19:44.000Z</time>
      </trkpt>
      <trkpt lat="43.0754437856376171112060546875" lon="-7.17580321244895458221435546875">
        <ele>689.5999755859375</ele>
        <time>2019-07-08T17:19:45.000Z</time>
      </trkpt>
      <trkpt lat="43.07558812201023101806640625" lon="-7.17585199512541294097900390625">
        <ele>688.4000244140625</ele>
        <time>2019-07-08T17:19:46.000Z</time>
      </trkpt>
      <trkpt lat="43.075737990438938140869140625" lon="-7.17590999789535999298095703125">
        <ele>687.20001220703125</ele>
        <time>2019-07-08T17:19:47.000Z</time>
      </trkpt>
      <trkpt lat="43.07588584721088409423828125" lon="-7.175980322062969207763671875">
        <ele>686</ele>
        <time>2019-07-08T17:19:48.000Z</time>
      </trkpt>
      <trkpt lat="43.07602800428867340087890625" lon="-7.17606556601822376251220703125">
        <ele>685.20001220703125</ele>
        <time>2019-07-08T17:19:49.000Z</time>
      </trkpt>
      <trkpt lat="43.07616169564425945281982421875" lon="-7.1761672385036945343017578125">
        <ele>684.4000244140625</ele>
        <time>2019-07-08T17:19:50.000Z</time>
      </trkpt>
      <trkpt lat="43.07641332037746906280517578125" lon="-7.17640369199216365814208984375">
        <ele>683</ele>
        <time>2019-07-08T17:19:52.000Z</time>
      </trkpt>
      <trkpt lat="43.07665287517011165618896484375" lon="-7.17665322124958038330078125">
        <ele>681.20001220703125</ele>
        <time>2019-07-08T17:19:54.000Z</time>
      </trkpt>
      <trkpt lat="43.0767744965851306915283203125" lon="-7.17675983905792236328125">
        <ele>681</ele>
        <time>2019-07-08T17:19:55.000Z</time>
      </trkpt>
      <trkpt lat="43.07703324593603610992431640625" lon="-7.17690275050699710845947265625">
        <ele>681.5999755859375</ele>
        <time>2019-07-08T17:19:57.000Z</time>
      </trkpt>
      <trkpt lat="43.07729911990463733673095703125" lon="-7.1769024990499019622802734375">
        <ele>680.4000244140625</ele>
        <time>2019-07-08T17:19:59.000Z</time>
      </trkpt>
      <trkpt lat="43.077427782118320465087890625" lon="-7.1768510341644287109375">
        <ele>679.79998779296875</ele>
        <time>2019-07-08T17:20:00.000Z</time>
      </trkpt>
      <trkpt lat="43.07754454202950000762939453125" lon="-7.176770903170108795166015625">
        <ele>679.5999755859375</ele>
        <time>2019-07-08T17:20:01.000Z</time>
      </trkpt>
      <trkpt lat="43.077738918364048004150390625" lon="-7.1765439212322235107421875">
        <ele>678.79998779296875</ele>
        <time>2019-07-08T17:20:03.000Z</time>
      </trkpt>
      <trkpt lat="43.07785232551395893096923828125" lon="-7.1762423403561115264892578125">
        <ele>678.4000244140625</ele>
        <time>2019-07-08T17:20:05.000Z</time>
      </trkpt>
      <trkpt lat="43.07789272628724575042724609375" lon="-7.17593195848166942596435546875">
        <ele>678.5999755859375</ele>
        <time>2019-07-08T17:20:07.000Z</time>
      </trkpt>
      <trkpt lat="43.0778721906244754791259765625" lon="-7.17564295046031475067138671875">
        <ele>679</ele>
        <time>2019-07-08T17:20:09.000Z</time>
      </trkpt>
      <trkpt lat="43.0778088234364986419677734375" lon="-7.17537573538720607757568359375">
        <ele>680</ele>
        <time>2019-07-08T17:20:11.000Z</time>
      </trkpt>
      <trkpt lat="43.0776804126799106597900390625" lon="-7.17496250756084918975830078125">
        <ele>681.20001220703125</ele>
        <time>2019-07-08T17:20:14.000Z</time>
      </trkpt>
      <trkpt lat="43.07752191089093685150146484375" lon="-7.17435917817056179046630859375">
        <ele>682.4000244140625</ele>
        <time>2019-07-08T17:20:18.000Z</time>
      </trkpt>
      <trkpt lat="43.0775385908782482147216796875" lon="-7.1740387380123138427734375">
        <ele>683</ele>
        <time>2019-07-08T17:20:20.000Z</time>
      </trkpt>
      <trkpt lat="43.07759332470595836639404296875" lon="-7.17389012686908245086669921875">
        <ele>683.5999755859375</ele>
        <time>2019-07-08T17:20:21.000Z</time>
      </trkpt>
      <trkpt lat="43.07767362333834171295166015625" lon="-7.173753082752227783203125">
        <ele>683.5999755859375</ele>
        <time>2019-07-08T17:20:22.000Z</time>
      </trkpt>
      <trkpt lat="43.07812356390058994293212890625" lon="-7.17323516495525836944580078125">
        <ele>685.5999755859375</ele>
        <time>2019-07-08T17:20:26.000Z</time>
      </trkpt>
      <trkpt lat="43.07823269627988338470458984375" lon="-7.1731108613312244415283203125">
        <ele>686.5999755859375</ele>
        <time>2019-07-08T17:20:27.000Z</time>
      </trkpt>
      <trkpt lat="43.07833135128021240234375" lon="-7.17299225740134716033935546875">
        <ele>687.79998779296875</ele>
        <time>2019-07-08T17:20:28.000Z</time>
      </trkpt>
      <trkpt lat="43.07842296548187732696533203125" lon="-7.17287474311888217926025390625">
        <ele>688.79998779296875</ele>
        <time>2019-07-08T17:20:29.000Z</time>
      </trkpt>
      <trkpt lat="43.07850158773362636566162109375" lon="-7.1727497689425945281982421875">
        <ele>689.4000244140625</ele>
        <time>2019-07-08T17:20:30.000Z</time>
      </trkpt>
      <trkpt lat="43.07859412394464015960693359375" lon="-7.172459922730922698974609375">
        <ele>689.20001220703125</ele>
        <time>2019-07-08T17:20:32.000Z</time>
      </trkpt>
      <trkpt lat="43.07856361381709575653076171875" lon="-7.17213747091591358184814453125">
        <ele>688.79998779296875</ele>
        <time>2019-07-08T17:20:34.000Z</time>
      </trkpt>
      <trkpt lat="43.078422211110591888427734375" lon="-7.1718364767730236053466796875">
        <ele>689</ele>
        <time>2019-07-08T17:20:36.000Z</time>
      </trkpt>
      <trkpt lat="43.07822381146252155303955078125" lon="-7.1715444512665271759033203125">
        <ele>690.20001220703125</ele>
        <time>2019-07-08T17:20:38.000Z</time>
      </trkpt>
      <trkpt lat="43.078022561967372894287109375" lon="-7.17120691202580928802490234375">
        <ele>691.79998779296875</ele>
        <time>2019-07-08T17:20:40.000Z</time>
      </trkpt>
      <trkpt lat="43.07793564163148403167724609375" lon="-7.1710127033293247222900390625">
        <ele>692.79998779296875</ele>
        <time>2019-07-08T17:20:41.000Z</time>
      </trkpt>
      <trkpt lat="43.077867664396762847900390625" lon="-7.170794941484928131103515625">
        <ele>694</ele>
        <time>2019-07-08T17:20:42.000Z</time>
      </trkpt>
      <trkpt lat="43.0778168700635433197021484375" lon="-7.170556895434856414794921875">
        <ele>695.20001220703125</ele>
        <time>2019-07-08T17:20:43.000Z</time>
      </trkpt>
      <trkpt lat="43.07778895832598209381103515625" lon="-7.17030443251132965087890625">
        <ele>696.4000244140625</ele>
        <time>2019-07-08T17:20:44.000Z</time>
      </trkpt>
      <trkpt lat="43.07778962887823581695556640625" lon="-7.17004534788429737091064453125">
        <ele>698</ele>
        <time>2019-07-08T17:20:45.000Z</time>
      </trkpt>
      <trkpt lat="43.077813684940338134765625" lon="-7.1697899512946605682373046875">
        <ele>699.79998779296875</ele>
        <time>2019-07-08T17:20:46.000Z</time>
      </trkpt>
      <trkpt lat="43.07784696109592914581298828125" lon="-7.169549055397510528564453125">
        <ele>701.4000244140625</ele>
        <time>2019-07-08T17:20:47.000Z</time>
      </trkpt>
      <trkpt lat="43.0778748728334903717041015625" lon="-7.1693212352693080902099609375">
        <ele>702.5999755859375</ele>
        <time>2019-07-08T17:20:48.000Z</time>
      </trkpt>
      <trkpt lat="43.07788367383182048797607421875" lon="-7.16909836046397686004638671875">
        <ele>703.79998779296875</ele>
        <time>2019-07-08T17:20:49.000Z</time>
      </trkpt>
      <trkpt lat="43.077862970530986785888671875" lon="-7.1688769944012165069580078125">
        <ele>705.79998779296875</ele>
        <time>2019-07-08T17:20:50.000Z</time>
      </trkpt>
      <trkpt lat="43.07780806906521320343017578125" lon="-7.1686597354710102081298828125">
        <ele>708.4000244140625</ele>
        <time>2019-07-08T17:20:51.000Z</time>
      </trkpt>
      <trkpt lat="43.07772207073867321014404296875" lon="-7.168454043567180633544921875">
        <ele>711.20001220703125</ele>
        <time>2019-07-08T17:20:52.000Z</time>
      </trkpt>
      <trkpt lat="43.077605478465557098388671875" lon="-7.16826285235583782196044921875">
        <ele>713.4000244140625</ele>
        <time>2019-07-08T17:20:53.000Z</time>
      </trkpt>
      <trkpt lat="43.07746156118810176849365234375" lon="-7.1680877543985843658447265625">
        <ele>715</ele>
        <time>2019-07-08T17:20:54.000Z</time>
      </trkpt>
      <trkpt lat="43.07729492895305156707763671875" lon="-7.1679248102009296417236328125">
        <ele>716.4000244140625</ele>
        <time>2019-07-08T17:20:55.000Z</time>
      </trkpt>
      <trkpt lat="43.07711186818778514862060546875" lon="-7.16776899062097072601318359375">
        <ele>717.79998779296875</ele>
        <time>2019-07-08T17:20:56.000Z</time>
      </trkpt>
      <trkpt lat="43.07691724039614200592041015625" lon="-7.16761811636388301849365234375">
        <ele>719</ele>
        <time>2019-07-08T17:20:57.000Z</time>
      </trkpt>
      <trkpt lat="43.0765114724636077880859375" lon="-7.1673283539712429046630859375">
        <ele>720.4000244140625</ele>
        <time>2019-07-08T17:20:59.000Z</time>
      </trkpt>
      <trkpt lat="43.075932450592517852783203125" lon="-7.166882269084453582763671875">
        <ele>721.4000244140625</ele>
        <time>2019-07-08T17:21:02.000Z</time>
      </trkpt>
      <trkpt lat="43.07575919665396213531494140625" lon="-7.16670080088078975677490234375">
        <ele>721.5999755859375</ele>
        <time>2019-07-08T17:21:03.000Z</time>
      </trkpt>
      <trkpt lat="43.07544973678886890411376953125" lon="-7.16626527719199657440185546875">
        <ele>722.5999755859375</ele>
        <time>2019-07-08T17:21:05.000Z</time>
      </trkpt>
      <trkpt lat="43.07507607154548168182373046875" lon="-7.16556086204946041107177734375">
        <ele>724</ele>
        <time>2019-07-08T17:21:08.000Z</time>
      </trkpt>
      <trkpt lat="43.07499057613313198089599609375" lon="-7.1653307788074016571044921875">
        <ele>724.79998779296875</ele>
        <time>2019-07-08T17:21:09.000Z</time>
      </trkpt>
      <trkpt lat="43.0749334953725337982177734375" lon="-7.1650960855185985565185546875">
        <ele>727.20001220703125</ele>
        <time>2019-07-08T17:21:10.000Z</time>
      </trkpt>
      <trkpt lat="43.0749106965959072113037109375" lon="-7.1648530103266239166259765625">
        <ele>730.4000244140625</ele>
        <time>2019-07-08T17:21:11.000Z</time>
      </trkpt>
      <trkpt lat="43.07492293417453765869140625" lon="-7.16460918076336383819580078125">
        <ele>734</ele>
        <time>2019-07-08T17:21:12.000Z</time>
      </trkpt>
      <trkpt lat="43.07497029192745685577392578125" lon="-7.16436895541846752166748046875">
        <ele>736.79998779296875</ele>
        <time>2019-07-08T17:21:13.000Z</time>
      </trkpt>
      <trkpt lat="43.07505394332110881805419921875" lon="-7.1641435660421848297119140625">
        <ele>738.79998779296875</ele>
        <time>2019-07-08T17:21:14.000Z</time>
      </trkpt>
      <trkpt lat="43.07516609318554401397705078125" lon="-7.16393728740513324737548828125">
        <ele>740.4000244140625</ele>
        <time>2019-07-08T17:21:15.000Z</time>
      </trkpt>
      <trkpt lat="43.07530690915882587432861328125" lon="-7.1637502871453762054443359375">
        <ele>741.79998779296875</ele>
        <time>2019-07-08T17:21:16.000Z</time>
      </trkpt>
      <trkpt lat="43.07546742260456085205078125" lon="-7.163571417331695556640625">
        <ele>743</ele>
        <time>2019-07-08T17:21:17.000Z</time>
      </trkpt>
      <trkpt lat="43.0756375752389430999755859375" lon="-7.16338894329965114593505859375">
        <ele>744.20001220703125</ele>
        <time>2019-07-08T17:21:18.000Z</time>
      </trkpt>
      <trkpt lat="43.07599439285695552825927734375" lon="-7.1630002744495868682861328125">
        <ele>746</ele>
        <time>2019-07-08T17:21:20.000Z</time>
      </trkpt>
      <trkpt lat="43.07617795653641223907470703125" lon="-7.16279785148799419403076171875">
        <ele>748</ele>
        <time>2019-07-08T17:21:21.000Z</time>
      </trkpt>
      <trkpt lat="43.07635925710201263427734375" lon="-7.16259299777448177337646484375">
        <ele>750</ele>
        <time>2019-07-08T17:21:22.000Z</time>
      </trkpt>
      <trkpt lat="43.07652882300317287445068359375" lon="-7.162375487387180328369140625">
        <ele>752.4000244140625</ele>
        <time>2019-07-08T17:21:23.000Z</time>
      </trkpt>
      <trkpt lat="43.07667441666126251220703125" lon="-7.1621449850499629974365234375">
        <ele>753.5999755859375</ele>
        <time>2019-07-08T17:21:24.000Z</time>
      </trkpt>
      <trkpt lat="43.0769531987607479095458984375" lon="-7.16172362677752971649169921875">
        <ele>754.20001220703125</ele>
        <time>2019-07-08T17:21:26.000Z</time>
      </trkpt>
      <trkpt lat="43.0772924982011318206787109375" lon="-7.1614459343254566192626953125">
        <ele>754.79998779296875</ele>
        <time>2019-07-08T17:21:28.000Z</time>
      </trkpt>
      <trkpt lat="43.0776458792388439178466796875" lon="-7.16118902899324893951416015625">
        <ele>758</ele>
        <time>2019-07-08T17:21:30.000Z</time>
      </trkpt>
      <trkpt lat="43.07782106101512908935546875" lon="-7.16104452498257160186767578125">
        <ele>761.5999755859375</ele>
        <time>2019-07-08T17:21:31.000Z</time>
      </trkpt>
      <trkpt lat="43.07800001464784145355224609375" lon="-7.16089767403900623321533203125">
        <ele>765.5999755859375</ele>
        <time>2019-07-08T17:21:32.000Z</time>
      </trkpt>
      <trkpt lat="43.07817511260509490966796875" lon="-7.16075216419994831085205078125">
        <ele>768.20001220703125</ele>
        <time>2019-07-08T17:21:33.000Z</time>
      </trkpt>
      <trkpt lat="43.07834048755466938018798828125" lon="-7.16061227023601531982421875">
        <ele>769.4000244140625</ele>
        <time>2019-07-08T17:21:34.000Z</time>
      </trkpt>
      <trkpt lat="43.07864843867719173431396484375" lon="-7.16039878316223621368408203125">
        <ele>770.20001220703125</ele>
        <time>2019-07-08T17:21:36.000Z</time>
      </trkpt>
      <trkpt lat="43.0788126401603221893310546875" lon="-7.16036240570247173309326171875">
        <ele>770.79998779296875</ele>
        <time>2019-07-08T17:21:37.000Z</time>
      </trkpt>
      <trkpt lat="43.0789812840521335601806640625" lon="-7.16039258055388927459716796875">
        <ele>771.20001220703125</ele>
        <time>2019-07-08T17:21:38.000Z</time>
      </trkpt>
      <trkpt lat="43.07915235869586467742919921875" lon="-7.16046181507408618927001953125">
        <ele>772</ele>
        <time>2019-07-08T17:21:39.000Z</time>
      </trkpt>
      <trkpt lat="43.079318068921566009521484375" lon="-7.16054211370646953582763671875">
        <ele>773</ele>
        <time>2019-07-08T17:21:40.000Z</time>
      </trkpt>
      <trkpt lat="43.07947489432990550994873046875" lon="-7.160605229437351226806640625">
        <ele>774.5999755859375</ele>
        <time>2019-07-08T17:21:41.000Z</time>
      </trkpt>
      <trkpt lat="43.0796183086931705474853515625" lon="-7.16062610037624835968017578125">
        <ele>775.5999755859375</ele>
        <time>2019-07-08T17:21:42.000Z</time>
      </trkpt>
      <trkpt lat="43.07974562980234622955322265625" lon="-7.160590477287769317626953125">
        <ele>778.20001220703125</ele>
        <time>2019-07-08T17:21:43.000Z</time>
      </trkpt>
      <trkpt lat="43.0798620544373989105224609375" lon="-7.1605017967522144317626953125">
        <ele>780.5999755859375</ele>
        <time>2019-07-08T17:21:44.000Z</time>
      </trkpt>
      <trkpt lat="43.0799790658056735992431640625" lon="-7.1603810973465442657470703125">
        <ele>781.79998779296875</ele>
        <time>2019-07-08T17:21:45.000Z</time>
      </trkpt>
      <trkpt lat="43.08023094199597835540771484375" lon="-7.160154283046722412109375">
        <ele>783.20001220703125</ele>
        <time>2019-07-08T17:21:47.000Z</time>
      </trkpt>
      <trkpt lat="43.0805178545415401458740234375" lon="-7.159997709095478057861328125">
        <ele>785</ele>
        <time>2019-07-08T17:21:49.000Z</time>
      </trkpt>
      <trkpt lat="43.08065976016223430633544921875" lon="-7.1599050052464008331298828125">
        <ele>785.79998779296875</ele>
        <time>2019-07-08T17:21:50.000Z</time>
      </trkpt>
      <trkpt lat="43.0807823874056339263916015625" lon="-7.15976896695792675018310546875">
        <ele>786.4000244140625</ele>
        <time>2019-07-08T17:21:51.000Z</time>
      </trkpt>
      <trkpt lat="43.0808940343558788299560546875" lon="-7.15959160588681697845458984375">
        <ele>787</ele>
        <time>2019-07-08T17:21:52.000Z</time>
      </trkpt>
      <trkpt lat="43.08099755086004734039306640625" lon="-7.159392535686492919921875">
        <ele>787.79998779296875</ele>
        <time>2019-07-08T17:21:53.000Z</time>
      </trkpt>
      <trkpt lat="43.0810972116887569427490234375" lon="-7.1591834910213947296142578125">
        <ele>789.20001220703125</ele>
        <time>2019-07-08T17:21:54.000Z</time>
      </trkpt>
      <trkpt lat="43.0811920948326587677001953125" lon="-7.1589833311736583709716796875">
        <ele>791.20001220703125</ele>
        <time>2019-07-08T17:21:55.000Z</time>
      </trkpt>
      <trkpt lat="43.0812869779765605926513671875" lon="-7.15878157876431941986083984375">
        <ele>793.20001220703125</ele>
        <time>2019-07-08T17:21:56.000Z</time>
      </trkpt>
      <trkpt lat="43.08136987499892711639404296875" lon="-7.1585866995155811309814453125">
        <ele>795</ele>
        <time>2019-07-08T17:21:57.000Z</time>
      </trkpt>
      <trkpt lat="43.0814360082149505615234375" lon="-7.15838997624814510345458984375">
        <ele>796.20001220703125</ele>
        <time>2019-07-08T17:21:58.000Z</time>
      </trkpt>
      <trkpt lat="43.08146744035184383392333984375" lon="-7.15818218886852264404296875">
        <ele>797.20001220703125</ele>
        <time>2019-07-08T17:21:59.000Z</time>
      </trkpt>
      <trkpt lat="43.08146190829575061798095703125" lon="-7.15796702541410923004150390625">
        <ele>798</ele>
        <time>2019-07-08T17:22:00.000Z</time>
      </trkpt>
      <trkpt lat="43.08143106289207935333251953125" lon="-7.15775278396904468536376953125">
        <ele>799</ele>
        <time>2019-07-08T17:22:01.000Z</time>
      </trkpt>
      <trkpt lat="43.081351853907108306884765625" lon="-7.15731390751898288726806640625">
        <ele>801.20001220703125</ele>
        <time>2019-07-08T17:22:03.000Z</time>
      </trkpt>
      <trkpt lat="43.0813208408653736114501953125" lon="-7.1570880152285099029541015625">
        <ele>802.4000244140625</ele>
        <time>2019-07-08T17:22:04.000Z</time>
      </trkpt>
      <trkpt lat="43.0813151411712169647216796875" lon="-7.15685315430164337158203125">
        <ele>803.5999755859375</ele>
        <time>2019-07-08T17:22:05.000Z</time>
      </trkpt>
      <trkpt lat="43.08134221471846103668212890625" lon="-7.15662172995507717132568359375">
        <ele>804.79998779296875</ele>
        <time>2019-07-08T17:22:06.000Z</time>
      </trkpt>
      <trkpt lat="43.0813966132700443267822265625" lon="-7.15640388429164886474609375">
        <ele>805.79998779296875</ele>
        <time>2019-07-08T17:22:07.000Z</time>
      </trkpt>
      <trkpt lat="43.08148738928139209747314453125" lon="-7.1559762395918369293212890625">
        <ele>807.79998779296875</ele>
        <time>2019-07-08T17:22:09.000Z</time>
      </trkpt>
      <trkpt lat="43.08150046505033969879150390625" lon="-7.1557432226836681365966796875">
        <ele>809</ele>
        <time>2019-07-08T17:22:10.000Z</time>
      </trkpt>
      <trkpt lat="43.08152393437922000885009765625" lon="-7.1552121452987194061279296875">
        <ele>810.4000244140625</ele>
        <time>2019-07-08T17:22:12.000Z</time>
      </trkpt>
      <trkpt lat="43.0815605632960796356201171875" lon="-7.1549191139638423919677734375">
        <ele>810.79998779296875</ele>
        <time>2019-07-08T17:22:13.000Z</time>
      </trkpt>
      <trkpt lat="43.08168536983430385589599609375" lon="-7.154293991625308990478515625">
        <ele>810.79998779296875</ele>
        <time>2019-07-08T17:22:15.000Z</time>
      </trkpt>
      <trkpt lat="43.08178997598588466644287109375" lon="-7.15363861061632633209228515625">
        <ele>810.5999755859375</ele>
        <time>2019-07-08T17:22:17.000Z</time>
      </trkpt>
      <trkpt lat="43.0818157084286212921142578125" lon="-7.153303921222686767578125">
        <ele>812.20001220703125</ele>
        <time>2019-07-08T17:22:18.000Z</time>
      </trkpt>
      <trkpt lat="43.0818294547498226165771484375" lon="-7.15296797454357147216796875">
        <ele>814.4000244140625</ele>
        <time>2019-07-08T17:22:19.000Z</time>
      </trkpt>
      <trkpt lat="43.081838674843311309814453125" lon="-7.152632363140583038330078125">
        <ele>817.4000244140625</ele>
        <time>2019-07-08T17:22:20.000Z</time>
      </trkpt>
      <trkpt lat="43.08184571564197540283203125" lon="-7.15229717083275318145751953125">
        <ele>819.79998779296875</ele>
        <time>2019-07-08T17:22:21.000Z</time>
      </trkpt>
      <trkpt lat="43.08184630237519741058349609375" lon="-7.151965163648128509521484375">
        <ele>822.20001220703125</ele>
        <time>2019-07-08T17:22:22.000Z</time>
      </trkpt>
      <trkpt lat="43.08183590881526470184326171875" lon="-7.1516394428908824920654296875">
        <ele>824.79998779296875</ele>
        <time>2019-07-08T17:22:23.000Z</time>
      </trkpt>
      <trkpt lat="43.081817217171192169189453125" lon="-7.1513205952942371368408203125">
        <ele>826.5999755859375</ele>
        <time>2019-07-08T17:22:24.000Z</time>
      </trkpt>
      <trkpt lat="43.08179751969873905181884765625" lon="-7.15100937522947788238525390625">
        <ele>828</ele>
        <time>2019-07-08T17:22:25.000Z</time>
      </trkpt>
      <trkpt lat="43.08178645558655261993408203125" lon="-7.15041945688426494598388671875">
        <ele>829.20001220703125</ele>
        <time>2019-07-08T17:22:27.000Z</time>
      </trkpt>
      <trkpt lat="43.08187119662761688232421875" lon="-7.14993816800415515899658203125">
        <ele>830</ele>
        <time>2019-07-08T17:22:29.000Z</time>
      </trkpt>
      <trkpt lat="43.08195778168737888336181640625" lon="-7.14974890463054180145263671875">
        <ele>831.20001220703125</ele>
        <time>2019-07-08T17:22:30.000Z</time>
      </trkpt>
      <trkpt lat="43.08207076974213123321533203125" lon="-7.14958629570901393890380859375">
        <ele>832.4000244140625</ele>
        <time>2019-07-08T17:22:31.000Z</time>
      </trkpt>
      <trkpt lat="43.08220873586833477020263671875" lon="-7.14944816194474697113037109375">
        <ele>833.5999755859375</ele>
        <time>2019-07-08T17:22:32.000Z</time>
      </trkpt>
      <trkpt lat="43.082359693944454193115234375" lon="-7.1493297256529331207275390625">
        <ele>836</ele>
        <time>2019-07-08T17:22:33.000Z</time>
      </trkpt>
      <trkpt lat="43.08252288959920406341552734375" lon="-7.149229981005191802978515625">
        <ele>838.20001220703125</ele>
        <time>2019-07-08T17:22:34.000Z</time>
      </trkpt>
      <trkpt lat="43.08269337750971317291259765625" lon="-7.14915429241955280303955078125">
        <ele>840</ele>
        <time>2019-07-08T17:22:35.000Z</time>
      </trkpt>
      <trkpt lat="43.0828691460192203521728515625" lon="-7.149106599390506744384765625">
        <ele>842</ele>
        <time>2019-07-08T17:22:36.000Z</time>
      </trkpt>
      <trkpt lat="43.08304139412939548492431640625" lon="-7.1490692161023616790771484375">
        <ele>844</ele>
        <time>2019-07-08T17:22:37.000Z</time>
      </trkpt>
      <trkpt lat="43.08320702053606510162353515625" lon="-7.1490125544369220733642578125">
        <ele>846.5999755859375</ele>
        <time>2019-07-08T17:22:38.000Z</time>
      </trkpt>
      <trkpt lat="43.08335672132670879364013671875" lon="-7.14891272597014904022216796875">
        <ele>849</ele>
        <time>2019-07-08T17:22:39.000Z</time>
      </trkpt>
      <trkpt lat="43.08348446153104305267333984375" lon="-7.14876268990337848663330078125">
        <ele>851</ele>
        <time>2019-07-08T17:22:40.000Z</time>
      </trkpt>
      <trkpt lat="43.08357850648462772369384765625" lon="-7.14857317507266998291015625">
        <ele>852.79998779296875</ele>
        <time>2019-07-08T17:22:41.000Z</time>
      </trkpt>
      <trkpt lat="43.08365059085190296173095703125" lon="-7.14836136437952518463134765625">
        <ele>854.5999755859375</ele>
        <time>2019-07-08T17:22:42.000Z</time>
      </trkpt>
      <trkpt lat="43.0837244354188442230224609375" lon="-7.14814670383930206298828125">
        <ele>856.4000244140625</ele>
        <time>2019-07-08T17:22:43.000Z</time>
      </trkpt>
      <trkpt lat="43.0838204920291900634765625" lon="-7.14794662781059741973876953125">
        <ele>857.4000244140625</ele>
        <time>2019-07-08T17:22:44.000Z</time>
      </trkpt>
      <trkpt lat="43.08396038599312305450439453125" lon="-7.14778955094516277313232421875">
        <ele>858</ele>
        <time>2019-07-08T17:22:45.000Z</time>
      </trkpt>
      <trkpt lat="43.08413540013134479522705078125" lon="-7.14767823927104473114013671875">
        <ele>858.4000244140625</ele>
        <time>2019-07-08T17:22:46.000Z</time>
      </trkpt>
      <trkpt lat="43.0844400823116302490234375" lon="-7.1474320627748966217041015625">
        <ele>859.4000244140625</ele>
        <time>2019-07-08T17:22:48.000Z</time>
      </trkpt>
      <trkpt lat="43.0845461972057819366455078125" lon="-7.1472469903528690338134765625">
        <ele>861.4000244140625</ele>
        <time>2019-07-08T17:22:49.000Z</time>
      </trkpt>
      <trkpt lat="43.08462540619075298309326171875" lon="-7.14702663011848926544189453125">
        <ele>863.79998779296875</ele>
        <time>2019-07-08T17:22:50.000Z</time>
      </trkpt>
      <trkpt lat="43.084695227444171905517578125" lon="-7.1467888355255126953125">
        <ele>865.5999755859375</ele>
        <time>2019-07-08T17:22:51.000Z</time>
      </trkpt>
      <trkpt lat="43.08478499762713909149169921875" lon="-7.14656545780599117279052734375">
        <ele>866.4000244140625</ele>
        <time>2019-07-08T17:22:52.000Z</time>
      </trkpt>
      <trkpt lat="43.08489563874900341033935546875" lon="-7.1463585086166858673095703125">
        <ele>867.4000244140625</ele>
        <time>2019-07-08T17:22:53.000Z</time>
      </trkpt>
      <trkpt lat="43.08509789407253265380859375" lon="-7.14596615172922611236572265625">
        <ele>868.5999755859375</ele>
        <time>2019-07-08T17:22:55.000Z</time>
      </trkpt>
      <trkpt lat="43.0851669609546661376953125" lon="-7.1457633934915065765380859375">
        <ele>869.79998779296875</ele>
        <time>2019-07-08T17:22:56.000Z</time>
      </trkpt>
      <trkpt lat="43.08521934784948825836181640625" lon="-7.14555694721639156341552734375">
        <ele>871.4000244140625</ele>
        <time>2019-07-08T17:22:57.000Z</time>
      </trkpt>
      <trkpt lat="43.0852432362735271453857421875" lon="-7.1453493274748325347900390625">
        <ele>873.5999755859375</ele>
        <time>2019-07-08T17:22:58.000Z</time>
      </trkpt>
      <trkpt lat="43.08522487990558147430419921875" lon="-7.14514405466616153717041015625">
        <ele>875.5999755859375</ele>
        <time>2019-07-08T17:22:59.000Z</time>
      </trkpt>
      <trkpt lat="43.08516888879239559173583984375" lon="-7.14494808577001094818115234375">
        <ele>878.4000244140625</ele>
        <time>2019-07-08T17:23:00.000Z</time>
      </trkpt>
      <trkpt lat="43.0850769393146038055419921875" lon="-7.1447783522307872772216796875">
        <ele>880.5999755859375</ele>
        <time>2019-07-08T17:23:01.000Z</time>
      </trkpt>
      <trkpt lat="43.0849562399089336395263671875" lon="-7.14462990872561931610107421875">
        <ele>882</ele>
        <time>2019-07-08T17:23:02.000Z</time>
      </trkpt>
      <trkpt lat="43.0848120711743831634521484375" lon="-7.1444886736571788787841796875">
        <ele>883.20001220703125</ele>
        <time>2019-07-08T17:23:03.000Z</time>
      </trkpt>
      <trkpt lat="43.08447654359042644500732421875" lon="-7.14419941417872905731201171875">
        <ele>884.5999755859375</ele>
        <time>2019-07-08T17:23:05.000Z</time>
      </trkpt>
      <trkpt lat="43.08389232493937015533447265625" lon="-7.1437286026775836944580078125">
        <ele>885.79998779296875</ele>
        <time>2019-07-08T17:23:08.000Z</time>
      </trkpt>
      <trkpt lat="43.08348060585558414459228515625" lon="-7.14339651167392730712890625">
        <ele>886.20001220703125</ele>
        <time>2019-07-08T17:23:10.000Z</time>
      </trkpt>
      <trkpt lat="43.0830719880759716033935546875" lon="-7.14306416921317577362060546875">
        <ele>886.4000244140625</ele>
        <time>2019-07-08T17:23:12.000Z</time>
      </trkpt>
      <trkpt lat="43.0826790444552898406982421875" lon="-7.14275269769132137298583984375">
        <ele>886.4000244140625</ele>
        <time>2019-07-08T17:23:14.000Z</time>
      </trkpt>
      <trkpt lat="43.08230881579220294952392578125" lon="-7.142450027167797088623046875">
        <ele>887</ele>
        <time>2019-07-08T17:23:16.000Z</time>
      </trkpt>
      <trkpt lat="43.0818237550556659698486328125" lon="-7.141931690275669097900390625">
        <ele>886.4000244140625</ele>
        <time>2019-07-08T17:23:19.000Z</time>
      </trkpt>
      <trkpt lat="43.081430979073047637939453125" lon="-7.1414145268499851226806640625">
        <ele>887</ele>
        <time>2019-07-08T17:23:22.000Z</time>
      </trkpt>
      <trkpt lat="43.0812722258269786834716796875" lon="-7.14102552272379398345947265625">
        <ele>888.5999755859375</ele>
        <time>2019-07-08T17:23:24.000Z</time>
      </trkpt>
      <trkpt lat="43.08123442344367504119873046875" lon="-7.1408086828887462615966796875">
        <ele>891</ele>
        <time>2019-07-08T17:23:25.000Z</time>
      </trkpt>
      <trkpt lat="43.08122813701629638671875" lon="-7.140585891902446746826171875">
        <ele>892.79998779296875</ele>
        <time>2019-07-08T17:23:26.000Z</time>
      </trkpt>
      <trkpt lat="43.081257641315460205078125" lon="-7.14035597629845142364501953125">
        <ele>894</ele>
        <time>2019-07-08T17:23:27.000Z</time>
      </trkpt>
      <trkpt lat="43.0813563801348209381103515625" lon="-7.13988809846341609954833984375">
        <ele>896</ele>
        <time>2019-07-08T17:23:29.000Z</time>
      </trkpt>
      <trkpt lat="43.08145721442997455596923828125" lon="-7.13938132859766483306884765625">
        <ele>898</ele>
        <time>2019-07-08T17:23:31.000Z</time>
      </trkpt>
      <trkpt lat="43.0815642513334751129150390625" lon="-7.13884052820503711700439453125">
        <ele>899.79998779296875</ele>
        <time>2019-07-08T17:23:33.000Z</time>
      </trkpt>
      <trkpt lat="43.08162066154181957244873046875" lon="-7.13856317102909088134765625">
        <ele>901.5999755859375</ele>
        <time>2019-07-08T17:23:34.000Z</time>
      </trkpt>
      <trkpt lat="43.0816769041121006011962890625" lon="-7.13828153908252716064453125">
        <ele>903.4000244140625</ele>
        <time>2019-07-08T17:23:35.000Z</time>
      </trkpt>
      <trkpt lat="43.081729710102081298828125" lon="-7.13799647055566310882568359375">
        <ele>905.4000244140625</ele>
        <time>2019-07-08T17:23:36.000Z</time>
      </trkpt>
      <trkpt lat="43.08181009255349636077880859375" lon="-7.13741644285619258880615234375">
        <ele>907.20001220703125</ele>
        <time>2019-07-08T17:23:38.000Z</time>
      </trkpt>
      <trkpt lat="43.08183674700558185577392578125" lon="-7.13653986342251300811767578125">
        <ele>909.20001220703125</ele>
        <time>2019-07-08T17:23:41.000Z</time>
      </trkpt>
      <trkpt lat="43.0818113498389720916748046875" lon="-7.1362529508769512176513671875">
        <ele>911</ele>
        <time>2019-07-08T17:23:42.000Z</time>
      </trkpt>
      <trkpt lat="43.081770949065685272216796875" lon="-7.13597022928297519683837890625">
        <ele>912.79998779296875</ele>
        <time>2019-07-08T17:23:43.000Z</time>
      </trkpt>
      <trkpt lat="43.08171562850475311279296875" lon="-7.13569320738315582275390625">
        <ele>914.79998779296875</ele>
        <time>2019-07-08T17:23:44.000Z</time>
      </trkpt>
      <trkpt lat="43.0816463939845561981201171875" lon="-7.1354251541197299957275390625">
        <ele>916</ele>
        <time>2019-07-08T17:23:45.000Z</time>
      </trkpt>
      <trkpt lat="43.0815662629902362823486328125" lon="-7.13516875170171260833740234375">
        <ele>917.20001220703125</ele>
        <time>2019-07-08T17:23:46.000Z</time>
      </trkpt>
      <trkpt lat="43.08137674815952777862548828125" lon="-7.13469886220991611480712890625">
        <ele>918.5999755859375</ele>
        <time>2019-07-08T17:23:48.000Z</time>
      </trkpt>
      <trkpt lat="43.0810539610683917999267578125" lon="-7.13413811288774013519287109375">
        <ele>919.5999755859375</ele>
        <time>2019-07-08T17:23:51.000Z</time>
      </trkpt>
      <trkpt lat="43.08094994165003299713134765625" lon="-7.1339831314980983734130859375">
        <ele>920</ele>
        <time>2019-07-08T17:23:52.000Z</time>
      </trkpt>
      <trkpt lat="43.080706112086772918701171875" lon="-7.13355607353150844573974609375">
        <ele>920.79998779296875</ele>
        <time>2019-07-08T17:23:55.000Z</time>
      </trkpt>
      <trkpt lat="43.0806717462837696075439453125" lon="-7.13340989314019680023193359375">
        <ele>921.5999755859375</ele>
        <time>2019-07-08T17:23:56.000Z</time>
      </trkpt>
      <trkpt lat="43.080665208399295806884765625" lon="-7.13326069526374340057373046875">
        <ele>922.5999755859375</ele>
        <time>2019-07-08T17:23:57.000Z</time>
      </trkpt>
      <trkpt lat="43.08068540878593921661376953125" lon="-7.13311820290982723236083984375">
        <ele>922.79998779296875</ele>
        <time>2019-07-08T17:23:58.000Z</time>
      </trkpt>
      <trkpt lat="43.08073318563401699066162109375" lon="-7.132991887629032135009765625">
        <ele>923.20001220703125</ele>
        <time>2019-07-08T17:23:59.000Z</time>
      </trkpt>
      <trkpt lat="43.0808051861822605133056640625" lon="-7.1328854374587535858154296875">
        <ele>924.20001220703125</ele>
        <time>2019-07-08T17:24:00.000Z</time>
      </trkpt>
      <trkpt lat="43.08089730329811573028564453125" lon="-7.13279851712286472320556640625">
        <ele>925.20001220703125</ele>
        <time>2019-07-08T17:24:01.000Z</time>
      </trkpt>
      <trkpt lat="43.08100207708775997161865234375" lon="-7.1327258460223674774169921875">
        <ele>926.20001220703125</ele>
        <time>2019-07-08T17:24:02.000Z</time>
      </trkpt>
      <trkpt lat="43.08124012313783168792724609375" lon="-7.132596261799335479736328125">
        <ele>927.4000244140625</ele>
        <time>2019-07-08T17:24:04.000Z</time>
      </trkpt>
      <trkpt lat="43.081367276608943939208984375" lon="-7.13254404254257678985595703125">
        <ele>928</ele>
        <time>2019-07-08T17:24:05.000Z</time>
      </trkpt>
      <trkpt lat="43.08164144866168498992919921875" lon="-7.13251101784408092498779296875">
        <ele>928.5999755859375</ele>
        <time>2019-07-08T17:24:07.000Z</time>
      </trkpt>
      <trkpt lat="43.08221577666699886322021484375" lon="-7.132602632045745849609375">
        <ele>929.4000244140625</ele>
        <time>2019-07-08T17:24:11.000Z</time>
      </trkpt>
      <trkpt lat="43.08234703727066516876220703125" lon="-7.13257857598364353179931640625">
        <ele>929.79998779296875</ele>
        <time>2019-07-08T17:24:12.000Z</time>
      </trkpt>
      <trkpt lat="43.082466982305049896240234375" lon="-7.1325176395475864410400390625">
        <ele>930.5999755859375</ele>
        <time>2019-07-08T17:24:13.000Z</time>
      </trkpt>
      <trkpt lat="43.08256731368601322174072265625" lon="-7.132420241832733154296875">
        <ele>931.79998779296875</ele>
        <time>2019-07-08T17:24:14.000Z</time>
      </trkpt>
      <trkpt lat="43.082649707794189453125" lon="-7.13229862041771411895751953125">
        <ele>933</ele>
        <time>2019-07-08T17:24:15.000Z</time>
      </trkpt>
      <trkpt lat="43.08277568779885768890380859375" lon="-7.13200709782540798187255859375">
        <ele>934</ele>
        <time>2019-07-08T17:24:17.000Z</time>
      </trkpt>
      <trkpt lat="43.08282983489334583282470703125" lon="-7.13184415362775325775146484375">
        <ele>934.5999755859375</ele>
        <time>2019-07-08T17:24:18.000Z</time>
      </trkpt>
      <trkpt lat="43.08287576772272586822509765625" lon="-7.13166830129921436309814453125">
        <ele>935</ele>
        <time>2019-07-08T17:24:19.000Z</time>
      </trkpt>
      <trkpt lat="43.08290007524192333221435546875" lon="-7.131479121744632720947265625">
        <ele>936</ele>
        <time>2019-07-08T17:24:20.000Z</time>
      </trkpt>
      <trkpt lat="43.08291382156312465667724609375" lon="-7.13128256611526012420654296875">
        <ele>936.4000244140625</ele>
        <time>2019-07-08T17:24:21.000Z</time>
      </trkpt>
      <trkpt lat="43.08296293951570987701416015625" lon="-7.13067655451595783233642578125">
        <ele>937.79998779296875</ele>
        <time>2019-07-08T17:24:24.000Z</time>
      </trkpt>
      <trkpt lat="43.0830019153654575347900390625" lon="-7.130482010543346405029296875">
        <ele>938.4000244140625</ele>
        <time>2019-07-08T17:24:25.000Z</time>
      </trkpt>
      <trkpt lat="43.0830558948218822479248046875" lon="-7.1302957646548748016357421875">
        <ele>939.20001220703125</ele>
        <time>2019-07-08T17:24:26.000Z</time>
      </trkpt>
      <trkpt lat="43.08312605135142803192138671875" lon="-7.13011999614536762237548828125">
        <ele>939</ele>
        <time>2019-07-08T17:24:27.000Z</time>
      </trkpt>
      <trkpt lat="43.08331196196377277374267578125" lon="-7.12980500422418117523193359375">
        <ele>939.4000244140625</ele>
        <time>2019-07-08T17:24:29.000Z</time>
      </trkpt>
      <trkpt lat="43.0835490860044956207275390625" lon="-7.1295561455190181732177734375">
        <ele>940</ele>
        <time>2019-07-08T17:24:31.000Z</time>
      </trkpt>
      <trkpt lat="43.083827197551727294921875" lon="-7.12940208613872528076171875">
        <ele>939.4000244140625</ele>
        <time>2019-07-08T17:24:33.000Z</time>
      </trkpt>
      <trkpt lat="43.084117881953716278076171875" lon="-7.1293502859771251678466796875">
        <ele>940.20001220703125</ele>
        <time>2019-07-08T17:24:35.000Z</time>
      </trkpt>
      <trkpt lat="43.08426565490663051605224609375" lon="-7.129360847175121307373046875">
        <ele>941.4000244140625</ele>
        <time>2019-07-08T17:24:36.000Z</time>
      </trkpt>
      <trkpt lat="43.0844132602214813232421875" lon="-7.12939647026360034942626953125">
        <ele>943</ele>
        <time>2019-07-08T17:24:37.000Z</time>
      </trkpt>
      <trkpt lat="43.0845649726688861846923828125" lon="-7.12945849634706974029541015625">
        <ele>945</ele>
        <time>2019-07-08T17:24:38.000Z</time>
      </trkpt>
      <trkpt lat="43.08471660129725933074951171875" lon="-7.129550613462924957275390625">
        <ele>945.79998779296875</ele>
        <time>2019-07-08T17:24:39.000Z</time>
      </trkpt>
      <trkpt lat="43.0848660506308078765869140625" lon="-7.12967340834438800811767578125">
        <ele>946.4000244140625</ele>
        <time>2019-07-08T17:24:40.000Z</time>
      </trkpt>
      <trkpt lat="43.0850108899176120758056640625" lon="-7.129823528230190277099609375">
        <ele>946.79998779296875</ele>
        <time>2019-07-08T17:24:41.000Z</time>
      </trkpt>
      <trkpt lat="43.0852901749312877655029296875" lon="-7.13017665781080722808837890625">
        <ele>944.79998779296875</ele>
        <time>2019-07-08T17:24:43.000Z</time>
      </trkpt>
      <trkpt lat="43.08542721904814243316650390625" lon="-7.13036340661346912384033203125">
        <ele>943.20001220703125</ele>
        <time>2019-07-08T17:24:44.000Z</time>
      </trkpt>
      <trkpt lat="43.0856891535222530364990234375" lon="-7.1307249180972576141357421875">
        <ele>941.20001220703125</ele>
        <time>2019-07-08T17:24:46.000Z</time>
      </trkpt>
      <trkpt lat="43.0859064124524593353271484375" lon="-7.1310662291944026947021484375">
        <ele>940.20001220703125</ele>
        <time>2019-07-08T17:24:48.000Z</time>
      </trkpt>
      <trkpt lat="43.08603624813258647918701171875" lon="-7.131445594131946563720703125">
        <ele>939.79998779296875</ele>
        <time>2019-07-08T17:24:50.000Z</time>
      </trkpt>
      <trkpt lat="43.08604697696864604949951171875" lon="-7.13186577893793582916259765625">
        <ele>938.5999755859375</ele>
        <time>2019-07-08T17:24:52.000Z</time>
      </trkpt>
      <trkpt lat="43.0859261937439441680908203125" lon="-7.13224631734192371368408203125">
        <ele>938.4000244140625</ele>
        <time>2019-07-08T17:24:54.000Z</time>
      </trkpt>
      <trkpt lat="43.08568932116031646728515625" lon="-7.1325310505926609039306640625">
        <ele>937.4000244140625</ele>
        <time>2019-07-08T17:24:56.000Z</time>
      </trkpt>
      <trkpt lat="43.0852878279983997344970703125" lon="-7.1328213997185230255126953125">
        <ele>938.20001220703125</ele>
        <time>2019-07-08T17:24:59.000Z</time>
      </trkpt>
      <trkpt lat="43.08509026654064655303955078125" lon="-7.13308802805840969085693359375">
        <ele>938.20001220703125</ele>
        <time>2019-07-08T17:25:01.000Z</time>
      </trkpt>
      <trkpt lat="43.085011728107929229736328125" lon="-7.13343973271548748016357421875">
        <ele>938.5999755859375</ele>
        <time>2019-07-08T17:25:03.000Z</time>
      </trkpt>
      <trkpt lat="43.0850823037326335906982421875" lon="-7.13378858752548694610595703125">
        <ele>938.79998779296875</ele>
        <time>2019-07-08T17:25:05.000Z</time>
      </trkpt>
      <trkpt lat="43.08527885936200618743896484375" lon="-7.13403132744133472442626953125">
        <ele>939</ele>
        <time>2019-07-08T17:25:07.000Z</time>
      </trkpt>
      <trkpt lat="43.08556635864078998565673828125" lon="-7.13412604294717311859130859375">
        <ele>938.4000244140625</ele>
        <time>2019-07-08T17:25:09.000Z</time>
      </trkpt>
      <trkpt lat="43.08589585125446319580078125" lon="-7.1341527812182903289794921875">
        <ele>937.20001220703125</ele>
        <time>2019-07-08T17:25:11.000Z</time>
      </trkpt>
      <trkpt lat="43.08605334721505641937255859375" lon="-7.13419443927705287933349609375">
        <ele>936.79998779296875</ele>
        <time>2019-07-08T17:25:12.000Z</time>
      </trkpt>
      <trkpt lat="43.086352162063121795654296875" lon="-7.13439610786736011505126953125">
        <ele>935.5999755859375</ele>
        <time>2019-07-08T17:25:14.000Z</time>
      </trkpt>
      <trkpt lat="43.08659381233155727386474609375" lon="-7.13479123078286647796630859375">
        <ele>933.5999755859375</ele>
        <time>2019-07-08T17:25:16.000Z</time>
      </trkpt>
      <trkpt lat="43.08673060499131679534912109375" lon="-7.13502994738519191741943359375">
        <ele>932.5999755859375</ele>
        <time>2019-07-08T17:25:17.000Z</time>
      </trkpt>
      <trkpt lat="43.087043501436710357666015625" lon="-7.135509140789508819580078125">
        <ele>931.5999755859375</ele>
        <time>2019-07-08T17:25:19.000Z</time>
      </trkpt>
      <trkpt lat="43.0873789452016353607177734375" lon="-7.1359666250646114349365234375">
        <ele>930.20001220703125</ele>
        <time>2019-07-08T17:25:21.000Z</time>
      </trkpt>
      <trkpt lat="43.08755454607307910919189453125" lon="-7.13618338108062744140625">
        <ele>929</ele>
        <time>2019-07-08T17:25:22.000Z</time>
      </trkpt>
      <trkpt lat="43.087916560471057891845703125" lon="-7.13658948428928852081298828125">
        <ele>930</ele>
        <time>2019-07-08T17:25:24.000Z</time>
      </trkpt>
      <trkpt lat="43.08809517882764339447021484375" lon="-7.13677883148193359375">
        <ele>930</ele>
        <time>2019-07-08T17:25:25.000Z</time>
      </trkpt>
      <trkpt lat="43.08847018517553806304931640625" lon="-7.137096337974071502685546875">
        <ele>928.79998779296875</ele>
        <time>2019-07-08T17:25:27.000Z</time>
      </trkpt>
      <trkpt lat="43.088660873472690582275390625" lon="-7.13721628300845623016357421875">
        <ele>929.20001220703125</ele>
        <time>2019-07-08T17:25:28.000Z</time>
      </trkpt>
      <trkpt lat="43.08884519152343273162841796875" lon="-7.13730731047689914703369140625">
        <ele>930</ele>
        <time>2019-07-08T17:25:29.000Z</time>
      </trkpt>
      <trkpt lat="43.08919119648635387420654296875" lon="-7.13745147921144962310791015625">
        <ele>931</ele>
        <time>2019-07-08T17:25:31.000Z</time>
      </trkpt>
      <trkpt lat="43.089468888938426971435546875" lon="-7.13768877089023590087890625">
        <ele>931.4000244140625</ele>
        <time>2019-07-08T17:25:33.000Z</time>
      </trkpt>
      <trkpt lat="43.08977030217647552490234375" lon="-7.1381663717329502105712890625">
        <ele>932.4000244140625</ele>
        <time>2019-07-08T17:25:36.000Z</time>
      </trkpt>
      <trkpt lat="43.08989745564758777618408203125" lon="-7.13828019797801971435546875">
        <ele>932.5999755859375</ele>
        <time>2019-07-08T17:25:37.000Z</time>
      </trkpt>
      <trkpt lat="43.090040870010852813720703125" lon="-7.13835932314395904541015625">
        <ele>932.79998779296875</ele>
        <time>2019-07-08T17:25:38.000Z</time>
      </trkpt>
      <trkpt lat="43.090366758406162261962890625" lon="-7.13839016854763031005859375">
        <ele>933.20001220703125</ele>
        <time>2019-07-08T17:25:40.000Z</time>
      </trkpt>
      <trkpt lat="43.09054017998278141021728515625" lon="-7.13835638947784900665283203125">
        <ele>933.5999755859375</ele>
        <time>2019-07-08T17:25:41.000Z</time>
      </trkpt>
      <trkpt lat="43.09091350995004177093505859375" lon="-7.138305343687534332275390625">
        <ele>933.20001220703125</ele>
        <time>2019-07-08T17:25:43.000Z</time>
      </trkpt>
      <trkpt lat="43.09133134782314300537109375" lon="-7.1383430622518062591552734375">
        <ele>932.20001220703125</ele>
        <time>2019-07-08T17:25:45.000Z</time>
      </trkpt>
      <trkpt lat="43.09155640192329883575439453125" lon="-7.13834398426115512847900390625">
        <ele>932</ele>
        <time>2019-07-08T17:25:46.000Z</time>
      </trkpt>
      <trkpt lat="43.09199527837336063385009765625" lon="-7.1382902562618255615234375">
        <ele>931</ele>
        <time>2019-07-08T17:25:48.000Z</time>
      </trkpt>
      <trkpt lat="43.0921975336968898773193359375" lon="-7.13825714774429798126220703125">
        <ele>929.4000244140625</ele>
        <time>2019-07-08T17:25:49.000Z</time>
      </trkpt>
      <trkpt lat="43.092387132346630096435546875" lon="-7.13822479359805583953857421875">
        <ele>928</ele>
        <time>2019-07-08T17:25:50.000Z</time>
      </trkpt>
      <trkpt lat="43.092567510902881622314453125" lon="-7.1381895057857036590576171875">
        <ele>927</ele>
        <time>2019-07-08T17:25:51.000Z</time>
      </trkpt>
      <trkpt lat="43.09289641678333282470703125" lon="-7.13807341642677783966064453125">
        <ele>926.20001220703125</ele>
        <time>2019-07-08T17:25:53.000Z</time>
      </trkpt>
      <trkpt lat="43.09319011867046356201171875" lon="-7.1378907747566699981689453125">
        <ele>928.20001220703125</ele>
        <time>2019-07-08T17:25:55.000Z</time>
      </trkpt>
      <trkpt lat="43.09333152137696743011474609375" lon="-7.13782497681677341461181640625">
        <ele>929.5999755859375</ele>
        <time>2019-07-08T17:25:56.000Z</time>
      </trkpt>
      <trkpt lat="43.0934751033782958984375" lon="-7.1378042735159397125244140625">
        <ele>931.20001220703125</ele>
        <time>2019-07-08T17:25:57.000Z</time>
      </trkpt>
      <trkpt lat="43.09361935593187808990478515625" lon="-7.137832604348659515380859375">
        <ele>932.20001220703125</ele>
        <time>2019-07-08T17:25:58.000Z</time>
      </trkpt>
      <trkpt lat="43.09390149079263210296630859375" lon="-7.13801893405616283416748046875">
        <ele>933</ele>
        <time>2019-07-08T17:26:00.000Z</time>
      </trkpt>
      <trkpt lat="43.0941749922931194305419921875" lon="-7.13832487352192401885986328125">
        <ele>933.20001220703125</ele>
        <time>2019-07-08T17:26:02.000Z</time>
      </trkpt>
      <trkpt lat="43.09450549073517322540283203125" lon="-7.1389408595860004425048828125">
        <ele>929.79998779296875</ele>
        <time>2019-07-08T17:26:05.000Z</time>
      </trkpt>
      <trkpt lat="43.0946014635264873504638671875" lon="-7.13913473300635814666748046875">
        <ele>928.20001220703125</ele>
        <time>2019-07-08T17:26:06.000Z</time>
      </trkpt>
      <trkpt lat="43.0946941673755645751953125" lon="-7.1392996050417423248291015625">
        <ele>926.4000244140625</ele>
        <time>2019-07-08T17:26:07.000Z</time>
      </trkpt>
      <trkpt lat="43.09491083957254886627197265625" lon="-7.13952734135091304779052734375">
        <ele>925.4000244140625</ele>
        <time>2019-07-08T17:26:09.000Z</time>
      </trkpt>
      <trkpt lat="43.0951881967484951019287109375" lon="-7.13958634994924068450927734375">
        <ele>925.5999755859375</ele>
        <time>2019-07-08T17:26:11.000Z</time>
      </trkpt>
      <trkpt lat="43.095443509519100189208984375" lon="-7.13942642323672771453857421875">
        <ele>926.4000244140625</ele>
        <time>2019-07-08T17:26:13.000Z</time>
      </trkpt>
      <trkpt lat="43.0957863293588161468505859375" lon="-7.138866595923900604248046875">
        <ele>927.4000244140625</ele>
        <time>2019-07-08T17:26:16.000Z</time>
      </trkpt>
      <trkpt lat="43.09590225107967853546142578125" lon="-7.138656042516231536865234375">
        <ele>927.79998779296875</ele>
        <time>2019-07-08T17:26:17.000Z</time>
      </trkpt>
      <trkpt lat="43.09610174037516117095947265625" lon="-7.13821113109588623046875">
        <ele>929</ele>
        <time>2019-07-08T17:26:19.000Z</time>
      </trkpt>
      <trkpt lat="43.09616468846797943115234375" lon="-7.13796780444681644439697265625">
        <ele>930.4000244140625</ele>
        <time>2019-07-08T17:26:20.000Z</time>
      </trkpt>
      <trkpt lat="43.0961940251290798187255859375" lon="-7.1377140842378139495849609375">
        <ele>932.20001220703125</ele>
        <time>2019-07-08T17:26:21.000Z</time>
      </trkpt>
      <trkpt lat="43.096192181110382080078125" lon="-7.13745583780109882354736328125">
        <ele>934</ele>
        <time>2019-07-08T17:26:22.000Z</time>
      </trkpt>
      <trkpt lat="43.09614364989101886749267578125" lon="-7.1369385905563831329345703125">
        <ele>935.79998779296875</ele>
        <time>2019-07-08T17:26:24.000Z</time>
      </trkpt>
      <trkpt lat="43.09612303040921688079833984375" lon="-7.13621598668396472930908203125">
        <ele>937.20001220703125</ele>
        <time>2019-07-08T17:26:27.000Z</time>
      </trkpt>
      <trkpt lat="43.096219338476657867431640625" lon="-7.135763280093669891357421875">
        <ele>938.4000244140625</ele>
        <time>2019-07-08T17:26:29.000Z</time>
      </trkpt>
      <trkpt lat="43.09629745781421661376953125" lon="-7.13554627262055873870849609375">
        <ele>939.79998779296875</ele>
        <time>2019-07-08T17:26:30.000Z</time>
      </trkpt>
      <trkpt lat="43.096393682062625885009765625" lon="-7.13533689267933368682861328125">
        <ele>940.4000244140625</ele>
        <time>2019-07-08T17:26:31.000Z</time>
      </trkpt>
      <trkpt lat="43.09650474227964878082275390625" lon="-7.13514125905930995941162109375">
        <ele>940.79998779296875</ele>
        <time>2019-07-08T17:26:32.000Z</time>
      </trkpt>
      <trkpt lat="43.09674429707229137420654296875" lon="-7.13475418277084827423095703125">
        <ele>940.4000244140625</ele>
        <time>2019-07-08T17:26:34.000Z</time>
      </trkpt>
      <trkpt lat="43.09683968313038349151611328125" lon="-7.13453457690775394439697265625">
        <ele>939.4000244140625</ele>
        <time>2019-07-08T17:26:35.000Z</time>
      </trkpt>
      <trkpt lat="43.0969048105180263519287109375" lon="-7.13429938070476055145263671875">
        <ele>938</ele>
        <time>2019-07-08T17:26:36.000Z</time>
      </trkpt>
      <trkpt lat="43.09695317409932613372802734375" lon="-7.13380736298859119415283203125">
        <ele>936.79998779296875</ele>
        <time>2019-07-08T17:26:38.000Z</time>
      </trkpt>
      <trkpt lat="43.09699223376810550689697265625" lon="-7.133288942277431488037109375">
        <ele>935.4000244140625</ele>
        <time>2019-07-08T17:26:40.000Z</time>
      </trkpt>
      <trkpt lat="43.0970791541039943695068359375" lon="-7.13278234004974365234375">
        <ele>933.5999755859375</ele>
        <time>2019-07-08T17:26:42.000Z</time>
      </trkpt>
      <trkpt lat="43.09728543274104595184326171875" lon="-7.1320807747542858123779296875">
        <ele>932.20001220703125</ele>
        <time>2019-07-08T17:26:45.000Z</time>
      </trkpt>
      <trkpt lat="43.09759221039712429046630859375" lon="-7.131427824497222900390625">
        <ele>930.5999755859375</ele>
        <time>2019-07-08T17:26:48.000Z</time>
      </trkpt>
      <trkpt lat="43.0978553183376789093017578125" lon="-7.13102071546018123626708984375">
        <ele>928.79998779296875</ele>
        <time>2019-07-08T17:26:50.000Z</time>
      </trkpt>
      <trkpt lat="43.09815480373799800872802734375" lon="-7.130628861486911773681640625">
        <ele>926.4000244140625</ele>
        <time>2019-07-08T17:26:52.000Z</time>
      </trkpt>
      <trkpt lat="43.09831137768924236297607421875" lon="-7.130434401333332061767578125">
        <ele>925.20001220703125</ele>
        <time>2019-07-08T17:26:53.000Z</time>
      </trkpt>
      <trkpt lat="43.0984685383737087249755859375" lon="-7.1302394382655620574951171875">
        <ele>923.20001220703125</ele>
        <time>2019-07-08T17:26:54.000Z</time>
      </trkpt>
      <trkpt lat="43.09862687252461910247802734375" lon="-7.1300446428358554840087890625">
        <ele>920.5999755859375</ele>
        <time>2019-07-08T17:26:55.000Z</time>
      </trkpt>
      <trkpt lat="43.09878529049456119537353515625" lon="-7.1298491768538951873779296875">
        <ele>918.20001220703125</ele>
        <time>2019-07-08T17:26:56.000Z</time>
      </trkpt>
      <trkpt lat="43.0989412777125835418701171875" lon="-7.12965815328061580657958984375">
        <ele>917</ele>
        <time>2019-07-08T17:26:57.000Z</time>
      </trkpt>
      <trkpt lat="43.099091984331607818603515625" lon="-7.12947442196309566497802734375">
        <ele>915.4000244140625</ele>
        <time>2019-07-08T17:26:58.000Z</time>
      </trkpt>
      <trkpt lat="43.0992379970848560333251953125" lon="-7.1292979829013347625732421875">
        <ele>914</ele>
        <time>2019-07-08T17:26:59.000Z</time>
      </trkpt>
      <trkpt lat="43.099382333457469940185546875" lon="-7.1291323564946651458740234375">
        <ele>911.5999755859375</ele>
        <time>2019-07-08T17:27:00.000Z</time>
      </trkpt>
      <trkpt lat="43.09953220188617706298828125" lon="-7.12899128906428813934326171875">
        <ele>909.20001220703125</ele>
        <time>2019-07-08T17:27:01.000Z</time>
      </trkpt>
      <trkpt lat="43.09969271533191204071044921875" lon="-7.1288886107504367828369140625">
        <ele>907.4000244140625</ele>
        <time>2019-07-08T17:27:02.000Z</time>
      </trkpt>
      <trkpt lat="43.09986068867146968841552734375" lon="-7.12883119471371173858642578125">
        <ele>905.79998779296875</ele>
        <time>2019-07-08T17:27:03.000Z</time>
      </trkpt>
      <trkpt lat="43.10017987154424190521240234375" lon="-7.1287776343524456024169921875">
        <ele>904.5999755859375</ele>
        <time>2019-07-08T17:27:05.000Z</time>
      </trkpt>
      <trkpt lat="43.100449182093143463134765625" lon="-7.1286354772746562957763671875">
        <ele>905.20001220703125</ele>
        <time>2019-07-08T17:27:07.000Z</time>
      </trkpt>
      <trkpt lat="43.10063769109547138214111328125" lon="-7.12834403850138187408447265625">
        <ele>905.4000244140625</ele>
        <time>2019-07-08T17:27:09.000Z</time>
      </trkpt>
      <trkpt lat="43.1006746552884578704833984375" lon="-7.1279407851397991180419921875">
        <ele>904.5999755859375</ele>
        <time>2019-07-08T17:27:11.000Z</time>
      </trkpt>
      <trkpt lat="43.1005314923822879791259765625" lon="-7.1275542117655277252197265625">
        <ele>902.4000244140625</ele>
        <time>2019-07-08T17:27:13.000Z</time>
      </trkpt>
      <trkpt lat="43.1001470983028411865234375" lon="-7.12709362618625164031982421875">
        <ele>901.5999755859375</ele>
        <time>2019-07-08T17:27:16.000Z</time>
      </trkpt>
      <trkpt lat="43.09996563009917736053466796875" lon="-7.12669917382299900054931640625">
        <ele>902</ele>
        <time>2019-07-08T17:27:18.000Z</time>
      </trkpt>
      <trkpt lat="43.099916763603687286376953125" lon="-7.1262364089488983154296875">
        <ele>903.4000244140625</ele>
        <time>2019-07-08T17:27:20.000Z</time>
      </trkpt>
      <trkpt lat="43.099947273731231689453125" lon="-7.12600230239331722259521484375">
        <ele>903.5999755859375</ele>
        <time>2019-07-08T17:27:21.000Z</time>
      </trkpt>
      <trkpt lat="43.1000144965946674346923828125" lon="-7.12578504346311092376708984375">
        <ele>903.79998779296875</ele>
        <time>2019-07-08T17:27:22.000Z</time>
      </trkpt>
      <trkpt lat="43.10024407692253589630126953125" lon="-7.125448174774646759033203125">
        <ele>905.79998779296875</ele>
        <time>2019-07-08T17:27:24.000Z</time>
      </trkpt>
      <trkpt lat="43.10039444826543331146240234375" lon="-7.125338204205036163330078125">
        <ele>907.79998779296875</ele>
        <time>2019-07-08T17:27:25.000Z</time>
      </trkpt>
      <trkpt lat="43.10056108050048351287841796875" lon="-7.12527257390320301055908203125">
        <ele>909.20001220703125</ele>
        <time>2019-07-08T17:27:26.000Z</time>
      </trkpt>
      <trkpt lat="43.10092854313552379608154296875" lon="-7.12528581731021404266357421875">
        <ele>910.79998779296875</ele>
        <time>2019-07-08T17:27:28.000Z</time>
      </trkpt>
      <trkpt lat="43.10129131190478801727294921875" lon="-7.12536536157131195068359375">
        <ele>911.79998779296875</ele>
        <time>2019-07-08T17:27:30.000Z</time>
      </trkpt>
      <trkpt lat="43.10146515257656574249267578125" lon="-7.12535731494426727294921875">
        <ele>912</ele>
        <time>2019-07-08T17:27:31.000Z</time>
      </trkpt>
      <trkpt lat="43.10163195244967937469482421875" lon="-7.1253030002117156982421875">
        <ele>912.5999755859375</ele>
        <time>2019-07-08T17:27:32.000Z</time>
      </trkpt>
      <trkpt lat="43.10178416781127452850341796875" lon="-7.12520442903041839599609375">
        <ele>913.5999755859375</ele>
        <time>2019-07-08T17:27:33.000Z</time>
      </trkpt>
      <trkpt lat="43.10192012228071689605712890625" lon="-7.1250627748668193817138671875">
        <ele>914.5999755859375</ele>
        <time>2019-07-08T17:27:34.000Z</time>
      </trkpt>
      <trkpt lat="43.10228238813579082489013671875" lon="-7.12443337775766849517822265625">
        <ele>915.4000244140625</ele>
        <time>2019-07-08T17:27:37.000Z</time>
      </trkpt>
      <trkpt lat="43.10262747108936309814453125" lon="-7.123681269586086273193359375">
        <ele>914.79998779296875</ele>
        <time>2019-07-08T17:27:40.000Z</time>
      </trkpt>
      <trkpt lat="43.10289611108601093292236328125" lon="-7.12286244146525859832763671875">
        <ele>913</ele>
        <time>2019-07-08T17:27:43.000Z</time>
      </trkpt>
      <trkpt lat="43.10307749547064304351806640625" lon="-7.12239758111536502838134765625">
        <ele>912</ele>
        <time>2019-07-08T17:27:45.000Z</time>
      </trkpt>
      <trkpt lat="43.10324194841086864471435546875" lon="-7.1219742111861705780029296875">
        <ele>910.4000244140625</ele>
        <time>2019-07-08T17:27:47.000Z</time>
      </trkpt>
      <trkpt lat="43.10329441912472248077392578125" lon="-7.1215480752289295196533203125">
        <ele>909.79998779296875</ele>
        <time>2019-07-08T17:27:49.000Z</time>
      </trkpt>
      <trkpt lat="43.1032021343708038330078125" lon="-7.1211668662726879119873046875">
        <ele>909.79998779296875</ele>
        <time>2019-07-08T17:27:51.000Z</time>
      </trkpt>
      <trkpt lat="43.10294623486697673797607421875" lon="-7.1206297539174556732177734375">
        <ele>910.20001220703125</ele>
        <time>2019-07-08T17:27:54.000Z</time>
      </trkpt>
      <trkpt lat="43.102729730308055877685546875" lon="-7.120002619922161102294921875">
        <ele>910.4000244140625</ele>
        <time>2019-07-08T17:27:57.000Z</time>
      </trkpt>
      <trkpt lat="43.1026524491608142852783203125" lon="-7.119518816471099853515625">
        <ele>909.5999755859375</ele>
        <time>2019-07-08T17:27:59.000Z</time>
      </trkpt>
      <trkpt lat="43.10264130122959613800048828125" lon="-7.11926006712019443511962890625">
        <ele>909.20001220703125</ele>
        <time>2019-07-08T17:28:00.000Z</time>
      </trkpt>
      <trkpt lat="43.102648593485355377197265625" lon="-7.11899637244641780853271484375">
        <ele>909.20001220703125</ele>
        <time>2019-07-08T17:28:01.000Z</time>
      </trkpt>
      <trkpt lat="43.1027282215654850006103515625" lon="-7.11847753264009952545166015625">
        <ele>908.5999755859375</ele>
        <time>2019-07-08T17:28:03.000Z</time>
      </trkpt>
      <trkpt lat="43.10299250297248363494873046875" lon="-7.1177607960999011993408203125">
        <ele>908.4000244140625</ele>
        <time>2019-07-08T17:28:06.000Z</time>
      </trkpt>
      <trkpt lat="43.1031674332916736602783203125" lon="-7.11732418276369571685791015625">
        <ele>908.4000244140625</ele>
        <time>2019-07-08T17:28:08.000Z</time>
      </trkpt>
      <trkpt lat="43.10324513353407382965087890625" lon="-7.11685412563383579254150390625">
        <ele>909.5999755859375</ele>
        <time>2019-07-08T17:28:10.000Z</time>
      </trkpt>
      <trkpt lat="43.1031878851354122161865234375" lon="-7.11609028279781341552734375">
        <ele>909.79998779296875</ele>
        <time>2019-07-08T17:28:13.000Z</time>
      </trkpt>
      <trkpt lat="43.1031714566051959991455078125" lon="-7.1158215589821338653564453125">
        <ele>909.5999755859375</ele>
        <time>2019-07-08T17:28:14.000Z</time>
      </trkpt>
      <trkpt lat="43.10319903306663036346435546875" lon="-7.11526407860219478607177734375">
        <ele>908</ele>
        <time>2019-07-08T17:28:16.000Z</time>
      </trkpt>
      <trkpt lat="43.103235661983489990234375" lon="-7.114983536303043365478515625">
        <ele>907</ele>
        <time>2019-07-08T17:28:17.000Z</time>
      </trkpt>
      <trkpt lat="43.10327648185193538665771484375" lon="-7.11470735259354114532470703125">
        <ele>905.79998779296875</ele>
        <time>2019-07-08T17:28:18.000Z</time>
      </trkpt>
      <trkpt lat="43.10332006774842739105224609375" lon="-7.1144432388246059417724609375">
        <ele>904.4000244140625</ele>
        <time>2019-07-08T17:28:19.000Z</time>
      </trkpt>
      <trkpt lat="43.1034095026552677154541015625" lon="-7.1139668114483356475830078125">
        <ele>902.79998779296875</ele>
        <time>2019-07-08T17:28:21.000Z</time>
      </trkpt>
      <trkpt lat="43.1034591235220432281494140625" lon="-7.113762460649013519287109375">
        <ele>902.5999755859375</ele>
        <time>2019-07-08T17:28:22.000Z</time>
      </trkpt>
      <trkpt lat="43.1036151945590972900390625" lon="-7.11342140100896358489990234375">
        <ele>902.5999755859375</ele>
        <time>2019-07-08T17:28:24.000Z</time>
      </trkpt>
      <trkpt lat="43.10386665165424346923828125" lon="-7.11317564360797405242919921875">
        <ele>903.20001220703125</ele>
        <time>2019-07-08T17:28:26.000Z</time>
      </trkpt>
      <trkpt lat="43.1041846610605716705322265625" lon="-7.11305410601198673248291015625">
        <ele>904.20001220703125</ele>
        <time>2019-07-08T17:28:28.000Z</time>
      </trkpt>
      <trkpt lat="43.10449588112533092498779296875" lon="-7.112951762974262237548828125">
        <ele>904.4000244140625</ele>
        <time>2019-07-08T17:28:30.000Z</time>
      </trkpt>
      <trkpt lat="43.10476678423583507537841796875" lon="-7.11272838525474071502685546875">
        <ele>904</ele>
        <time>2019-07-08T17:28:32.000Z</time>
      </trkpt>
      <trkpt lat="43.10510507784783840179443359375" lon="-7.11216897703707218170166015625">
        <ele>903.5999755859375</ele>
        <time>2019-07-08T17:28:35.000Z</time>
      </trkpt>
      <trkpt lat="43.105236589908599853515625" lon="-7.11197300814092159271240234375">
        <ele>903.20001220703125</ele>
        <time>2019-07-08T17:28:36.000Z</time>
      </trkpt>
      <trkpt lat="43.10538402758538722991943359375" lon="-7.11179011501371860504150390625">
        <ele>902.20001220703125</ele>
        <time>2019-07-08T17:28:37.000Z</time>
      </trkpt>
      <trkpt lat="43.10554596595466136932373046875" lon="-7.1116306073963642120361328125">
        <ele>900.4000244140625</ele>
        <time>2019-07-08T17:28:38.000Z</time>
      </trkpt>
      <trkpt lat="43.1057148613035678863525390625" lon="-7.11149834096431732177734375">
        <ele>898.4000244140625</ele>
        <time>2019-07-08T17:28:39.000Z</time>
      </trkpt>
      <trkpt lat="43.105886019766330718994140625" lon="-7.1113888733088970184326171875">
        <ele>896.20001220703125</ele>
        <time>2019-07-08T17:28:40.000Z</time>
      </trkpt>
      <trkpt lat="43.106056340038776397705078125" lon="-7.11128787137567996978759765625">
        <ele>894.20001220703125</ele>
        <time>2019-07-08T17:28:41.000Z</time>
      </trkpt>
      <trkpt lat="43.1062184460461139678955078125" lon="-7.11117513477802276611328125">
        <ele>892.5999755859375</ele>
        <time>2019-07-08T17:28:42.000Z</time>
      </trkpt>
      <trkpt lat="43.10648540966212749481201171875" lon="-7.1108472347259521484375">
        <ele>891.20001220703125</ele>
        <time>2019-07-08T17:28:44.000Z</time>
      </trkpt>
      <trkpt lat="43.10678665526211261749267578125" lon="-7.11010384373366832733154296875">
        <ele>890.4000244140625</ele>
        <time>2019-07-08T17:28:47.000Z</time>
      </trkpt>
      <trkpt lat="43.10706191696226596832275390625" lon="-7.10932566784322261810302734375">
        <ele>889</ele>
        <time>2019-07-08T17:28:50.000Z</time>
      </trkpt>
      <trkpt lat="43.10714020393788814544677734375" lon="-7.1090670861303806304931640625">
        <ele>887.79998779296875</ele>
        <time>2019-07-08T17:28:51.000Z</time>
      </trkpt>
      <trkpt lat="43.107203654944896697998046875" lon="-7.1088065765798091888427734375">
        <ele>886.5999755859375</ele>
        <time>2019-07-08T17:28:52.000Z</time>
      </trkpt>
      <trkpt lat="43.1072829477488994598388671875" lon="-7.108280695974826812744140625">
        <ele>885.20001220703125</ele>
        <time>2019-07-08T17:28:54.000Z</time>
      </trkpt>
      <trkpt lat="43.10730029828846454620361328125" lon="-7.10802161134779453277587890625">
        <ele>883.20001220703125</ele>
        <time>2019-07-08T17:28:55.000Z</time>
      </trkpt>
      <trkpt lat="43.107304908335208892822265625" lon="-7.1077618561685085296630859375">
        <ele>882.20001220703125</ele>
        <time>2019-07-08T17:28:56.000Z</time>
      </trkpt>
      <trkpt lat="43.107270710170269012451171875" lon="-7.10723899304866790771484375">
        <ele>880.79998779296875</ele>
        <time>2019-07-08T17:28:58.000Z</time>
      </trkpt>
      <trkpt lat="43.1071810238063335418701171875" lon="-7.106723003089427947998046875">
        <ele>879.5999755859375</ele>
        <time>2019-07-08T17:29:00.000Z</time>
      </trkpt>
      <trkpt lat="43.10695613734424114227294921875" lon="-7.10600241087377071380615234375">
        <ele>877.79998779296875</ele>
        <time>2019-07-08T17:29:03.000Z</time>
      </trkpt>
      <trkpt lat="43.10678296722471714019775390625" lon="-7.10556034930050373077392578125">
        <ele>875.79998779296875</ele>
        <time>2019-07-08T17:29:05.000Z</time>
      </trkpt>
      <trkpt lat="43.10671289451420307159423828125" lon="-7.105334959924221038818359375">
        <ele>874.5999755859375</ele>
        <time>2019-07-08T17:29:06.000Z</time>
      </trkpt>
      <trkpt lat="43.10664583928883075714111328125" lon="-7.1048583649098873138427734375">
        <ele>873.20001220703125</ele>
        <time>2019-07-08T17:29:08.000Z</time>
      </trkpt>
      <trkpt lat="43.10668741352856159210205078125" lon="-7.1043376810848712921142578125">
        <ele>872.4000244140625</ele>
        <time>2019-07-08T17:29:10.000Z</time>
      </trkpt>
      <trkpt lat="43.1067451648414134979248046875" lon="-7.10404322482645511627197265625">
        <ele>871.79998779296875</ele>
        <time>2019-07-08T17:29:11.000Z</time>
      </trkpt>
      <trkpt lat="43.1068430654704570770263671875" lon="-7.1034381352365016937255859375">
        <ele>869.79998779296875</ele>
        <time>2019-07-08T17:29:13.000Z</time>
      </trkpt>
      <trkpt lat="43.10685756616294384002685546875" lon="-7.10314518772065639495849609375">
        <ele>867</ele>
        <time>2019-07-08T17:29:14.000Z</time>
      </trkpt>
      <trkpt lat="43.1068591587245464324951171875" lon="-7.10286087356507778167724609375">
        <ele>862.79998779296875</ele>
        <time>2019-07-08T17:29:15.000Z</time>
      </trkpt>
      <trkpt lat="43.106860332190990447998046875" lon="-7.1025875397026538848876953125">
        <ele>859</ele>
        <time>2019-07-08T17:29:16.000Z</time>
      </trkpt>
      <trkpt lat="43.10686980374157428741455078125" lon="-7.102324850857257843017578125">
        <ele>856</ele>
        <time>2019-07-08T17:29:17.000Z</time>
      </trkpt>
      <trkpt lat="43.10689486563205718994140625" lon="-7.102075405418872833251953125">
        <ele>854.4000244140625</ele>
        <time>2019-07-08T17:29:18.000Z</time>
      </trkpt>
      <trkpt lat="43.1069399602711200714111328125" lon="-7.10184850730001926422119140625">
        <ele>853.20001220703125</ele>
        <time>2019-07-08T17:29:19.000Z</time>
      </trkpt>
      <trkpt lat="43.10700961388647556304931640625" lon="-7.1016484312713146209716796875">
        <ele>852.79998779296875</ele>
        <time>2019-07-08T17:29:20.000Z</time>
      </trkpt>
      <trkpt lat="43.107222430408000946044921875" lon="-7.10133545100688934326171875">
        <ele>852.4000244140625</ele>
        <time>2019-07-08T17:29:22.000Z</time>
      </trkpt>
      <trkpt lat="43.10751822777092456817626953125" lon="-7.10113772191107273101806640625">
        <ele>854.20001220703125</ele>
        <time>2019-07-08T17:29:24.000Z</time>
      </trkpt>
      <trkpt lat="43.10768553055822849273681640625" lon="-7.101089693605899810791015625">
        <ele>854.79998779296875</ele>
        <time>2019-07-08T17:29:25.000Z</time>
      </trkpt>
      <trkpt lat="43.10785635374486446380615234375" lon="-7.1010747738182544708251953125">
        <ele>855.20001220703125</ele>
        <time>2019-07-08T17:29:26.000Z</time>
      </trkpt>
      <trkpt lat="43.10836530290544033050537109375" lon="-7.10115331225097179412841796875">
        <ele>854.4000244140625</ele>
        <time>2019-07-08T17:29:29.000Z</time>
      </trkpt>
      <trkpt lat="43.10853361152112483978271484375" lon="-7.10119388066232204437255859375">
        <ele>853.5999755859375</ele>
        <time>2019-07-08T17:29:30.000Z</time>
      </trkpt>
      <trkpt lat="43.1088721565902233123779296875" lon="-7.10124350152909755706787109375">
        <ele>852</ele>
        <time>2019-07-08T17:29:32.000Z</time>
      </trkpt>
      <trkpt lat="43.109045661985874176025390625" lon="-7.10125490091741085052490234375">
        <ele>851.20001220703125</ele>
        <time>2019-07-08T17:29:33.000Z</time>
      </trkpt>
      <trkpt lat="43.109222687780857086181640625" lon="-7.1012516319751739501953125">
        <ele>850.4000244140625</ele>
        <time>2019-07-08T17:29:34.000Z</time>
      </trkpt>
      <trkpt lat="43.10940063558518886566162109375" lon="-7.1012249775230884552001953125">
        <ele>849.20001220703125</ele>
        <time>2019-07-08T17:29:35.000Z</time>
      </trkpt>
      <trkpt lat="43.10957330279052257537841796875" lon="-7.10115901194512844085693359375">
        <ele>847.79998779296875</ele>
        <time>2019-07-08T17:29:36.000Z</time>
      </trkpt>
      <trkpt lat="43.109730966389179229736328125" lon="-7.101048119366168975830078125">
        <ele>846.20001220703125</ele>
        <time>2019-07-08T17:29:37.000Z</time>
      </trkpt>
      <trkpt lat="43.10987119562923908233642578125" lon="-7.10089690983295440673828125">
        <ele>845.20001220703125</ele>
        <time>2019-07-08T17:29:38.000Z</time>
      </trkpt>
      <trkpt lat="43.10998904518783092498779296875" lon="-7.10070622153580188751220703125">
        <ele>844.5999755859375</ele>
        <time>2019-07-08T17:29:39.000Z</time>
      </trkpt>
      <trkpt lat="43.11011016368865966796875" lon="-7.10026382468640804290771484375">
        <ele>844.20001220703125</ele>
        <time>2019-07-08T17:29:41.000Z</time>
      </trkpt>
      <trkpt lat="43.11010655947029590606689453125" lon="-7.09979091770946979522705078125">
        <ele>844.20001220703125</ele>
        <time>2019-07-08T17:29:43.000Z</time>
      </trkpt>
      <trkpt lat="43.10998803935945034027099609375" lon="-7.0993356965482234954833984375">
        <ele>845.4000244140625</ele>
        <time>2019-07-08T17:29:45.000Z</time>
      </trkpt>
      <trkpt lat="43.109879158437252044677734375" lon="-7.09913008846342563629150390625">
        <ele>846.20001220703125</ele>
        <time>2019-07-08T17:29:46.000Z</time>
      </trkpt>
      <trkpt lat="43.1097438745200634002685546875" lon="-7.098948955535888671875">
        <ele>847.20001220703125</ele>
        <time>2019-07-08T17:29:47.000Z</time>
      </trkpt>
      <trkpt lat="43.1094072572886943817138671875" lon="-7.098634801805019378662109375">
        <ele>849.4000244140625</ele>
        <time>2019-07-08T17:29:49.000Z</time>
      </trkpt>
      <trkpt lat="43.109220005571842193603515625" lon="-7.09847663529217243194580078125">
        <ele>850.79998779296875</ele>
        <time>2019-07-08T17:29:50.000Z</time>
      </trkpt>
      <trkpt lat="43.1090253777801990509033203125" lon="-7.0983092486858367919921875">
        <ele>852.4000244140625</ele>
        <time>2019-07-08T17:29:51.000Z</time>
      </trkpt>
      <trkpt lat="43.108615837991237640380859375" lon="-7.09796366281807422637939453125">
        <ele>853.79998779296875</ele>
        <time>2019-07-08T17:29:53.000Z</time>
      </trkpt>
      <trkpt lat="43.10820872895419597625732421875" lon="-7.09762729704380035400390625">
        <ele>854.79998779296875</ele>
        <time>2019-07-08T17:29:55.000Z</time>
      </trkpt>
      <trkpt lat="43.10784445144236087799072265625" lon="-7.09731808863580226898193359375">
        <ele>857.4000244140625</ele>
        <time>2019-07-08T17:29:57.000Z</time>
      </trkpt>
      <trkpt lat="43.10768745839595794677734375" lon="-7.09716285578906536102294921875">
        <ele>858.5999755859375</ele>
        <time>2019-07-08T17:29:58.000Z</time>
      </trkpt>
      <trkpt lat="43.107554018497467041015625" lon="-7.0969947986304759979248046875">
        <ele>860</ele>
        <time>2019-07-08T17:29:59.000Z</time>
      </trkpt>
      <trkpt lat="43.1074448861181735992431640625" lon="-7.0968080498278141021728515625">
        <ele>860.5999755859375</ele>
        <time>2019-07-08T17:30:00.000Z</time>
      </trkpt>
      <trkpt lat="43.107303567230701446533203125" lon="-7.09637830965220928192138671875">
        <ele>861.5999755859375</ele>
        <time>2019-07-08T17:30:02.000Z</time>
      </trkpt>
      <trkpt lat="43.10728487558662891387939453125" lon="-7.09587874822318553924560546875">
        <ele>863</ele>
        <time>2019-07-08T17:30:04.000Z</time>
      </trkpt>
      <trkpt lat="43.1073825247585773468017578125" lon="-7.0951149053871631622314453125">
        <ele>862</ele>
        <time>2019-07-08T17:30:07.000Z</time>
      </trkpt>
      <trkpt lat="43.10743206180632114410400390625" lon="-7.094620205461978912353515625">
        <ele>860.5999755859375</ele>
        <time>2019-07-08T17:30:09.000Z</time>
      </trkpt>
      <trkpt lat="43.10742636211216449737548828125" lon="-7.0940993539988994598388671875">
        <ele>859.20001220703125</ele>
        <time>2019-07-08T17:30:11.000Z</time>
      </trkpt>
      <trkpt lat="43.10729392804205417633056640625" lon="-7.09323559887707233428955078125">
        <ele>859.20001220703125</ele>
        <time>2019-07-08T17:30:14.000Z</time>
      </trkpt>
      <trkpt lat="43.107154704630374908447265625" lon="-7.0926295034587383270263671875">
        <ele>858.20001220703125</ele>
        <time>2019-07-08T17:30:16.000Z</time>
      </trkpt>
      <trkpt lat="43.106977008283138275146484375" lon="-7.091790139675140380859375">
        <ele>857</ele>
        <time>2019-07-08T17:30:19.000Z</time>
      </trkpt>
      <trkpt lat="43.1069838814437389373779296875" lon="-7.09127993322908878326416015625">
        <ele>856.20001220703125</ele>
        <time>2019-07-08T17:30:21.000Z</time>
      </trkpt>
      <trkpt lat="43.10703626833856105804443359375" lon="-7.0910418033599853515625">
        <ele>855.5999755859375</ele>
        <time>2019-07-08T17:30:22.000Z</time>
      </trkpt>
      <trkpt lat="43.10711975209414958953857421875" lon="-7.090821526944637298583984375">
        <ele>855.4000244140625</ele>
        <time>2019-07-08T17:30:23.000Z</time>
      </trkpt>
      <trkpt lat="43.107226453721523284912109375" lon="-7.09062681533396244049072265625">
        <ele>854.5999755859375</ele>
        <time>2019-07-08T17:30:24.000Z</time>
      </trkpt>
      <trkpt lat="43.10735897161066532135009765625" lon="-7.0904619432985782623291015625">
        <ele>854.20001220703125</ele>
        <time>2019-07-08T17:30:25.000Z</time>
      </trkpt>
      <trkpt lat="43.1075223349034786224365234375" lon="-7.0903231389820575714111328125">
        <ele>853.4000244140625</ele>
        <time>2019-07-08T17:30:26.000Z</time>
      </trkpt>
      <trkpt lat="43.10814854688942432403564453125" lon="-7.0900156907737255096435546875">
        <ele>852</ele>
        <time>2019-07-08T17:30:29.000Z</time>
      </trkpt>
      <trkpt lat="43.1086304225027561187744140625" lon="-7.08982299081981182098388671875">
        <ele>851.79998779296875</ele>
        <time>2019-07-08T17:30:31.000Z</time>
      </trkpt>
      <trkpt lat="43.1088728271424770355224609375" lon="-7.0897126011550426483154296875">
        <ele>850.79998779296875</ele>
        <time>2019-07-08T17:30:32.000Z</time>
      </trkpt>
      <trkpt lat="43.10911531560122966766357421875" lon="-7.08959399722516536712646484375">
        <ele>849.4000244140625</ele>
        <time>2019-07-08T17:30:33.000Z</time>
      </trkpt>
      <trkpt lat="43.10936115682125091552734375" lon="-7.08946944214403629302978515625">
        <ele>848.20001220703125</ele>
        <time>2019-07-08T17:30:34.000Z</time>
      </trkpt>
      <trkpt lat="43.10960783623158931732177734375" lon="-7.08934505470097064971923828125">
        <ele>846.5999755859375</ele>
        <time>2019-07-08T17:30:35.000Z</time>
      </trkpt>
      <trkpt lat="43.1098555214703083038330078125" lon="-7.08922661840915679931640625">
        <ele>845.4000244140625</ele>
        <time>2019-07-08T17:30:36.000Z</time>
      </trkpt>
      <trkpt lat="43.11009214259684085845947265625" lon="-7.0891023986041545867919921875">
        <ele>843.79998779296875</ele>
        <time>2019-07-08T17:30:37.000Z</time>
      </trkpt>
      <trkpt lat="43.11031593941152095794677734375" lon="-7.08898530341684818267822265625">
        <ele>842.4000244140625</ele>
        <time>2019-07-08T17:30:38.000Z</time>
      </trkpt>
      <trkpt lat="43.11055080033838748931884765625" lon="-7.08888371475040912628173828125">
        <ele>840.79998779296875</ele>
        <time>2019-07-08T17:30:39.000Z</time>
      </trkpt>
      <trkpt lat="43.1107936240732669830322265625" lon="-7.08879469893872737884521484375">
        <ele>839.20001220703125</ele>
        <time>2019-07-08T17:30:40.000Z</time>
      </trkpt>
      <trkpt lat="43.11128966510295867919921875" lon="-7.08865656517446041107177734375">
        <ele>837.79998779296875</ele>
        <time>2019-07-08T17:30:42.000Z</time>
      </trkpt>
      <trkpt lat="43.111781179904937744140625" lon="-7.088545672595500946044921875">
        <ele>836</ele>
        <time>2019-07-08T17:30:44.000Z</time>
      </trkpt>
      <trkpt lat="43.11224050819873809814453125" lon="-7.08844047971069812774658203125">
        <ele>835.5999755859375</ele>
        <time>2019-07-08T17:30:46.000Z</time>
      </trkpt>
      <trkpt lat="43.11279974877834320068359375" lon="-7.08831609226763248443603515625">
        <ele>836</ele>
        <time>2019-07-08T17:30:49.000Z</time>
      </trkpt>
      <trkpt lat="43.11294450424611568450927734375" lon="-7.08826563321053981781005859375">
        <ele>837</ele>
        <time>2019-07-08T17:30:50.000Z</time>
      </trkpt>
      <trkpt lat="43.113074339926242828369140625" lon="-7.0881777070462703704833984375">
        <ele>839.4000244140625</ele>
        <time>2019-07-08T17:30:51.000Z</time>
      </trkpt>
      <trkpt lat="43.11318892054259777069091796875" lon="-7.088044099509716033935546875">
        <ele>842</ele>
        <time>2019-07-08T17:30:52.000Z</time>
      </trkpt>
      <trkpt lat="43.11327315866947174072265625" lon="-7.08787570707499980926513671875">
        <ele>844</ele>
        <time>2019-07-08T17:30:53.000Z</time>
      </trkpt>
      <trkpt lat="43.11332621611654758453369140625" lon="-7.08769516088068485260009765625">
        <ele>845.5999755859375</ele>
        <time>2019-07-08T17:30:54.000Z</time>
      </trkpt>
      <trkpt lat="43.11334423720836639404296875" lon="-7.08749718032777309417724609375">
        <ele>846.79998779296875</ele>
        <time>2019-07-08T17:30:55.000Z</time>
      </trkpt>
      <trkpt lat="43.11331967823207378387451171875" lon="-7.087276317179203033447265625">
        <ele>847.20001220703125</ele>
        <time>2019-07-08T17:30:56.000Z</time>
      </trkpt>
      <trkpt lat="43.11328564770519733428955078125" lon="-7.08703768439590930938720703125">
        <ele>847.79998779296875</ele>
        <time>2019-07-08T17:30:57.000Z</time>
      </trkpt>
      <trkpt lat="43.113165535032749176025390625" lon="-7.08625028841197490692138671875">
        <ele>848.79998779296875</ele>
        <time>2019-07-08T17:31:00.000Z</time>
      </trkpt>
      <trkpt lat="43.113133013248443603515625" lon="-7.08598625846207141876220703125">
        <ele>849</ele>
        <time>2019-07-08T17:31:01.000Z</time>
      </trkpt>
      <trkpt lat="43.113103844225406646728515625" lon="-7.0854676701128482818603515625">
        <ele>847.4000244140625</ele>
        <time>2019-07-08T17:31:03.000Z</time>
      </trkpt>
      <trkpt lat="43.1131137348711490631103515625" lon="-7.085213363170623779296875">
        <ele>846</ele>
        <time>2019-07-08T17:31:04.000Z</time>
      </trkpt>
      <trkpt lat="43.11316360719501972198486328125" lon="-7.08471690304577350616455078125">
        <ele>844.20001220703125</ele>
        <time>2019-07-08T17:31:06.000Z</time>
      </trkpt>
      <trkpt lat="43.11324340291321277618408203125" lon="-7.084239386022090911865234375">
        <ele>843.20001220703125</ele>
        <time>2019-07-08T17:31:08.000Z</time>
      </trkpt>
      <trkpt lat="43.11330224387347698211669921875" lon="-7.08400879986584186553955078125">
        <ele>842.5999755859375</ele>
        <time>2019-07-08T17:31:09.000Z</time>
      </trkpt>
      <trkpt lat="43.1134932674467563629150390625" lon="-7.083586938679218292236328125">
        <ele>842.5999755859375</ele>
        <time>2019-07-08T17:31:11.000Z</time>
      </trkpt>
      <trkpt lat="43.11378671787679195404052734375" lon="-7.08321520127356052398681640625">
        <ele>843.79998779296875</ele>
        <time>2019-07-08T17:31:13.000Z</time>
      </trkpt>
      <trkpt lat="43.1139777414500713348388671875" lon="-7.0830543525516986846923828125">
        <ele>844.79998779296875</ele>
        <time>2019-07-08T17:31:14.000Z</time>
      </trkpt>
      <trkpt lat="43.11444184742867946624755859375" lon="-7.0827613212168216705322265625">
        <ele>845.5999755859375</ele>
        <time>2019-07-08T17:31:16.000Z</time>
      </trkpt>
      <trkpt lat="43.11494761146605014801025390625" lon="-7.082473821938037872314453125">
        <ele>840.79998779296875</ele>
        <time>2019-07-08T17:31:18.000Z</time>
      </trkpt>
      <trkpt lat="43.115187585353851318359375" lon="-7.08233426325023174285888671875">
        <ele>837.4000244140625</ele>
        <time>2019-07-08T17:31:19.000Z</time>
      </trkpt>
      <trkpt lat="43.11541766859591007232666015625" lon="-7.08219864405691623687744140625">
        <ele>834.79998779296875</ele>
        <time>2019-07-08T17:31:20.000Z</time>
      </trkpt>
      <trkpt lat="43.1156376935541629791259765625" lon="-7.0820716582238674163818359375">
        <ele>833.5999755859375</ele>
        <time>2019-07-08T17:31:21.000Z</time>
      </trkpt>
      <trkpt lat="43.1161986105144023895263671875" lon="-7.0817454345524311065673828125">
        <ele>835.20001220703125</ele>
        <time>2019-07-08T17:31:24.000Z</time>
      </trkpt>
      <trkpt lat="43.1163407675921916961669921875" lon="-7.081635296344757080078125">
        <ele>837.5999755859375</ele>
        <time>2019-07-08T17:31:25.000Z</time>
      </trkpt>
      <trkpt lat="43.1164629757404327392578125" lon="-7.08150294609367847442626953125">
        <ele>841.4000244140625</ele>
        <time>2019-07-08T17:31:26.000Z</time>
      </trkpt>
      <trkpt lat="43.11656330712139606475830078125" lon="-7.0813410915434360504150390625">
        <ele>845.79998779296875</ele>
        <time>2019-07-08T17:31:27.000Z</time>
      </trkpt>
      <trkpt lat="43.11663530766963958740234375" lon="-7.08115191198885440826416015625">
        <ele>851.4000244140625</ele>
        <time>2019-07-08T17:31:28.000Z</time>
      </trkpt>
      <trkpt lat="43.11667344532907009124755859375" lon="-7.08094437606632709503173828125">
        <ele>856</ele>
        <time>2019-07-08T17:31:29.000Z</time>
      </trkpt>
      <trkpt lat="43.1166777200996875762939453125" lon="-7.080727703869342803955078125">
        <ele>859.5999755859375</ele>
        <time>2019-07-08T17:31:30.000Z</time>
      </trkpt>
      <trkpt lat="43.11664964072406291961669921875" lon="-7.08049946464598178863525390625">
        <ele>861.4000244140625</ele>
        <time>2019-07-08T17:31:31.000Z</time>
      </trkpt>
      <trkpt lat="43.11660178005695343017578125" lon="-7.08026007749140262603759765625">
        <ele>862.5999755859375</ele>
        <time>2019-07-08T17:31:32.000Z</time>
      </trkpt>
      <trkpt lat="43.11649289913475513458251953125" lon="-7.07976487465202808380126953125">
        <ele>864.20001220703125</ele>
        <time>2019-07-08T17:31:34.000Z</time>
      </trkpt>
      <trkpt lat="43.11632576398551464080810546875" lon="-7.07900606095790863037109375">
        <ele>863</ele>
        <time>2019-07-08T17:31:37.000Z</time>
      </trkpt>
      <trkpt lat="43.11627111397683620452880859375" lon="-7.07875837571918964385986328125">
        <ele>862</ele>
        <time>2019-07-08T17:31:38.000Z</time>
      </trkpt>
      <trkpt lat="43.11617606319487094879150390625" lon="-7.078283540904521942138671875">
        <ele>860.5999755859375</ele>
        <time>2019-07-08T17:31:40.000Z</time>
      </trkpt>
      <trkpt lat="43.1161245144903659820556640625" lon="-7.07785950042307376861572265625">
        <ele>861.20001220703125</ele>
        <time>2019-07-08T17:31:42.000Z</time>
      </trkpt>
      <trkpt lat="43.116128705441951751708984375" lon="-7.07766470499336719512939453125">
        <ele>862</ele>
        <time>2019-07-08T17:31:43.000Z</time>
      </trkpt>
      <trkpt lat="43.11615443788468837738037109375" lon="-7.07747577689588069915771484375">
        <ele>862.5999755859375</ele>
        <time>2019-07-08T17:31:44.000Z</time>
      </trkpt>
      <trkpt lat="43.116203136742115020751953125" lon="-7.07729338668286800384521484375">
        <ele>863.20001220703125</ele>
        <time>2019-07-08T17:31:45.000Z</time>
      </trkpt>
      <trkpt lat="43.11627798713743686676025390625" lon="-7.07712239585816860198974609375">
        <ele>864</ele>
        <time>2019-07-08T17:31:46.000Z</time>
      </trkpt>
      <trkpt lat="43.11637504957616329193115234375" lon="-7.076966576278209686279296875">
        <ele>864.5999755859375</ele>
        <time>2019-07-08T17:31:47.000Z</time>
      </trkpt>
      <trkpt lat="43.11649474315345287322998046875" lon="-7.07682835869491100311279296875">
        <ele>864.79998779296875</ele>
        <time>2019-07-08T17:31:48.000Z</time>
      </trkpt>
      <trkpt lat="43.11693898402154445648193359375" lon="-7.07646558992564678192138671875">
        <ele>864.5999755859375</ele>
        <time>2019-07-08T17:31:51.000Z</time>
      </trkpt>
      <trkpt lat="43.11725028790533542633056640625" lon="-7.07623726688325405120849609375">
        <ele>863</ele>
        <time>2019-07-08T17:31:53.000Z</time>
      </trkpt>
      <trkpt lat="43.117715232074260711669921875" lon="-7.07591523416340351104736328125">
        <ele>861.79998779296875</ele>
        <time>2019-07-08T17:31:56.000Z</time>
      </trkpt>
      <trkpt lat="43.1180181540548801422119140625" lon="-7.0757007412612438201904296875">
        <ele>863</ele>
        <time>2019-07-08T17:31:58.000Z</time>
      </trkpt>
      <trkpt lat="43.11846365220844745635986328125" lon="-7.075365297496318817138671875">
        <ele>865</ele>
        <time>2019-07-08T17:32:01.000Z</time>
      </trkpt>
      <trkpt lat="43.1185995228588581085205078125" lon="-7.07523495890200138092041015625">
        <ele>866.4000244140625</ele>
        <time>2019-07-08T17:32:02.000Z</time>
      </trkpt>
      <trkpt lat="43.118718378245830535888671875" lon="-7.0750861801207065582275390625">
        <ele>868.20001220703125</ele>
        <time>2019-07-08T17:32:03.000Z</time>
      </trkpt>
      <trkpt lat="43.1188166141510009765625" lon="-7.07491711713373661041259765625">
        <ele>869.5999755859375</ele>
        <time>2019-07-08T17:32:04.000Z</time>
      </trkpt>
      <trkpt lat="43.11889096163213253021240234375" lon="-7.0747267641127109527587890625">
        <ele>871</ele>
        <time>2019-07-08T17:32:05.000Z</time>
      </trkpt>
      <trkpt lat="43.1189421750605106353759765625" lon="-7.0745182223618030548095703125">
        <ele>872.4000244140625</ele>
        <time>2019-07-08T17:32:06.000Z</time>
      </trkpt>
      <trkpt lat="43.11897561885416507720947265625" lon="-7.0742955990135669708251953125">
        <ele>873.79998779296875</ele>
        <time>2019-07-08T17:32:07.000Z</time>
      </trkpt>
      <trkpt lat="43.11899908818304538726806640625" lon="-7.0740639232099056243896484375">
        <ele>874.79998779296875</ele>
        <time>2019-07-08T17:32:08.000Z</time>
      </trkpt>
      <trkpt lat="43.1190373934805393218994140625" lon="-7.07358892075717449188232421875">
        <ele>877.20001220703125</ele>
        <time>2019-07-08T17:32:10.000Z</time>
      </trkpt>
      <trkpt lat="43.11905776150524616241455078125" lon="-7.0733558200299739837646484375">
        <ele>878.79998779296875</ele>
        <time>2019-07-08T17:32:11.000Z</time>
      </trkpt>
      <trkpt lat="43.11907720752060413360595703125" lon="-7.07313193939626216888427734375">
        <ele>880.4000244140625</ele>
        <time>2019-07-08T17:32:12.000Z</time>
      </trkpt>
      <trkpt lat="43.119094558060169219970703125" lon="-7.07291618920862674713134765625">
        <ele>882</ele>
        <time>2019-07-08T17:32:13.000Z</time>
      </trkpt>
      <trkpt lat="43.1191088072955608367919921875" lon="-7.072705887258052825927734375">
        <ele>883.4000244140625</ele>
        <time>2019-07-08T17:32:14.000Z</time>
      </trkpt>
      <trkpt lat="43.1191232241690158843994140625" lon="-7.072499357163906097412109375">
        <ele>884.79998779296875</ele>
        <time>2019-07-08T17:32:15.000Z</time>
      </trkpt>
      <trkpt lat="43.1191386468708515167236328125" lon="-7.072298862040042877197265625">
        <ele>886.20001220703125</ele>
        <time>2019-07-08T17:32:16.000Z</time>
      </trkpt>
      <trkpt lat="43.11915482394397258758544921875" lon="-7.0721012167632579803466796875">
        <ele>887.79998779296875</ele>
        <time>2019-07-08T17:32:17.000Z</time>
      </trkpt>
      <trkpt lat="43.1191745214164257049560546875" lon="-7.07190516404807567596435546875">
        <ele>889.20001220703125</ele>
        <time>2019-07-08T17:32:18.000Z</time>
      </trkpt>
      <trkpt lat="43.1192043609917163848876953125" lon="-7.07171003334224224090576171875">
        <ele>890.4000244140625</ele>
        <time>2019-07-08T17:32:19.000Z</time>
      </trkpt>
      <trkpt lat="43.11932690441608428955078125" lon="-7.07135430537164211273193359375">
        <ele>891.4000244140625</ele>
        <time>2019-07-08T17:32:21.000Z</time>
      </trkpt>
      <trkpt lat="43.11954776756465435028076171875" lon="-7.0710917003452777862548828125">
        <ele>892.5999755859375</ele>
        <time>2019-07-08T17:32:23.000Z</time>
      </trkpt>
      <trkpt lat="43.119830153882503509521484375" lon="-7.07090268842875957489013671875">
        <ele>893.79998779296875</ele>
        <time>2019-07-08T17:32:25.000Z</time>
      </trkpt>
      <trkpt lat="43.1199701316654682159423828125" lon="-7.0707909576594829559326171875">
        <ele>894.5999755859375</ele>
        <time>2019-07-08T17:32:26.000Z</time>
      </trkpt>
      <trkpt lat="43.1201000511646270751953125" lon="-7.07065542228519916534423828125">
        <ele>895.20001220703125</ele>
        <time>2019-07-08T17:32:27.000Z</time>
      </trkpt>
      <trkpt lat="43.1202175654470920562744140625" lon="-7.0704982616007328033447265625">
        <ele>896.5999755859375</ele>
        <time>2019-07-08T17:32:28.000Z</time>
      </trkpt>
      <trkpt lat="43.1203312240540981292724609375" lon="-7.07033422775566577911376953125">
        <ele>898</ele>
        <time>2019-07-08T17:32:29.000Z</time>
      </trkpt>
      <trkpt lat="43.12044136226177215576171875" lon="-7.07017865963280200958251953125">
        <ele>899</ele>
        <time>2019-07-08T17:32:30.000Z</time>
      </trkpt>
      <trkpt lat="43.120557367801666259765625" lon="-7.07004371099174022674560546875">
        <ele>900.5999755859375</ele>
        <time>2019-07-08T17:32:31.000Z</time>
      </trkpt>
      <trkpt lat="43.1206819228827953338623046875" lon="-7.0699386857450008392333984375">
        <ele>902.79998779296875</ele>
        <time>2019-07-08T17:32:32.000Z</time>
      </trkpt>
      <trkpt lat="43.120815195143222808837890625" lon="-7.06986199133098125457763671875">
        <ele>905.20001220703125</ele>
        <time>2019-07-08T17:32:33.000Z</time>
      </trkpt>
      <trkpt lat="43.12095140106976032257080078125" lon="-7.069809101521968841552734375">
        <ele>907</ele>
        <time>2019-07-08T17:32:34.000Z</time>
      </trkpt>
      <trkpt lat="43.12121492810547351837158203125" lon="-7.069723941385746002197265625">
        <ele>908.20001220703125</ele>
        <time>2019-07-08T17:32:36.000Z</time>
      </trkpt>
      <trkpt lat="43.12145666219294071197509765625" lon="-7.06961053423583507537841796875">
        <ele>909.5999755859375</ele>
        <time>2019-07-08T17:32:38.000Z</time>
      </trkpt>
      <trkpt lat="43.12166939489543437957763671875" lon="-7.069463767111301422119140625">
        <ele>911.20001220703125</ele>
        <time>2019-07-08T17:32:40.000Z</time>
      </trkpt>
      <trkpt lat="43.12176193110644817352294921875" lon="-7.069380283355712890625">
        <ele>912.4000244140625</ele>
        <time>2019-07-08T17:32:41.000Z</time>
      </trkpt>
      <trkpt lat="43.121851198375225067138671875" lon="-7.06929118372499942779541015625">
        <ele>913.79998779296875</ele>
        <time>2019-07-08T17:32:42.000Z</time>
      </trkpt>
      <trkpt lat="43.1219412200152873992919921875" lon="-7.06919730640947818756103515625">
        <ele>915.4000244140625</ele>
        <time>2019-07-08T17:32:43.000Z</time>
      </trkpt>
      <trkpt lat="43.122033588588237762451171875" lon="-7.06910342909395694732666015625">
        <ele>917</ele>
        <time>2019-07-08T17:32:44.000Z</time>
      </trkpt>
      <trkpt lat="43.12213207595050334930419921875" lon="-7.0690139941871166229248046875">
        <ele>918</ele>
        <time>2019-07-08T17:32:45.000Z</time>
      </trkpt>
      <trkpt lat="43.12223785556852817535400390625" lon="-7.0689355395734310150146484375">
        <ele>918.79998779296875</ele>
        <time>2019-07-08T17:32:46.000Z</time>
      </trkpt>
      <trkpt lat="43.1223505921661853790283203125" lon="-7.06886722706258296966552734375">
        <ele>919.20001220703125</ele>
        <time>2019-07-08T17:32:47.000Z</time>
      </trkpt>
      <trkpt lat="43.12258754856884479522705078125" lon="-7.06876396201550960540771484375">
        <ele>919.4000244140625</ele>
        <time>2019-07-08T17:32:49.000Z</time>
      </trkpt>
      <trkpt lat="43.12281972728669643402099609375" lon="-7.0687521435320377349853515625">
        <ele>919.4000244140625</ele>
        <time>2019-07-08T17:32:51.000Z</time>
      </trkpt>
      <trkpt lat="43.12316305004060268402099609375" lon="-7.0689791254699230194091796875">
        <ele>920.4000244140625</ele>
        <time>2019-07-08T17:32:54.000Z</time>
      </trkpt>
      <trkpt lat="43.1232833303511142730712890625" lon="-7.0690733380615711212158203125">
        <ele>921.5999755859375</ele>
        <time>2019-07-08T17:32:55.000Z</time>
      </trkpt>
      <trkpt lat="43.12340545468032360076904296875" lon="-7.06916998140513896942138671875">
        <ele>922.79998779296875</ele>
        <time>2019-07-08T17:32:56.000Z</time>
      </trkpt>
      <trkpt lat="43.12353084795176982879638671875" lon="-7.0692662894725799560546875">
        <ele>923.79998779296875</ele>
        <time>2019-07-08T17:32:57.000Z</time>
      </trkpt>
      <trkpt lat="43.123656995594501495361328125" lon="-7.06936209462583065032958984375">
        <ele>925</ele>
        <time>2019-07-08T17:32:58.000Z</time>
      </trkpt>
      <trkpt lat="43.12378716655075550079345703125" lon="-7.06944524310529232025146484375">
        <ele>926</ele>
        <time>2019-07-08T17:32:59.000Z</time>
      </trkpt>
      <trkpt lat="43.124040551483631134033203125" lon="-7.06960885785520076751708984375">
        <ele>927.5999755859375</ele>
        <time>2019-07-08T17:33:01.000Z</time>
      </trkpt>
      <trkpt lat="43.12455645762383937835693359375" lon="-7.069886215031147003173828125">
        <ele>929.20001220703125</ele>
        <time>2019-07-08T17:33:05.000Z</time>
      </trkpt>
      <trkpt lat="43.12489156611263751983642578125" lon="-7.07007304765284061431884765625">
        <ele>931.4000244140625</ele>
        <time>2019-07-08T17:33:08.000Z</time>
      </trkpt>
      <trkpt lat="43.12498443759977817535400390625" lon="-7.07012736238539218902587890625">
        <ele>932.5999755859375</ele>
        <time>2019-07-08T17:33:09.000Z</time>
      </trkpt>
      <trkpt lat="43.12515408731997013092041015625" lon="-7.070219479501247406005859375">
        <ele>934.5999755859375</ele>
        <time>2019-07-08T17:33:11.000Z</time>
      </trkpt>
      <trkpt lat="43.1252376548945903778076171875" lon="-7.07025527022778987884521484375">
        <ele>935.5999755859375</ele>
        <time>2019-07-08T17:33:12.000Z</time>
      </trkpt>
      <trkpt lat="43.1253223121166229248046875" lon="-7.07027488388121128082275390625">
        <ele>936.4000244140625</ele>
        <time>2019-07-08T17:33:13.000Z</time>
      </trkpt>
      <trkpt lat="43.12540738843381404876708984375" lon="-7.0702694356441497802734375">
        <ele>937.20001220703125</ele>
        <time>2019-07-08T17:33:14.000Z</time>
      </trkpt>
      <trkpt lat="43.12548936344683170318603515625" lon="-7.07023465074598789215087890625">
        <ele>938</ele>
        <time>2019-07-08T17:33:15.000Z</time>
      </trkpt>
      <trkpt lat="43.1255638785660266876220703125" lon="-7.070174552500247955322265625">
        <ele>938.79998779296875</ele>
        <time>2019-07-08T17:33:16.000Z</time>
      </trkpt>
      <trkpt lat="43.1256279163062572479248046875" lon="-7.0700979419052600860595703125">
        <ele>939.79998779296875</ele>
        <time>2019-07-08T17:33:17.000Z</time>
      </trkpt>
      <trkpt lat="43.12568105757236480712890625" lon="-7.0700090937316417694091796875">
        <ele>940.4000244140625</ele>
        <time>2019-07-08T17:33:18.000Z</time>
      </trkpt>
      <trkpt lat="43.125725649297237396240234375" lon="-7.06992141902446746826171875">
        <ele>940.5999755859375</ele>
        <time>2019-07-08T17:33:19.000Z</time>
      </trkpt>
      <trkpt lat="43.1257784552872180938720703125" lon="-7.069769203662872314453125">
        <ele>941.4000244140625</ele>
        <time>2019-07-08T17:33:21.000Z</time>
      </trkpt>
      <trkpt lat="43.12592782080173492431640625" lon="-7.069440968334674835205078125">
        <ele>942.20001220703125</ele>
        <time>2019-07-08T17:33:30.000Z</time>
      </trkpt>
      <trkpt lat="43.12600694596767425537109375" lon="-7.0691880024969577789306640625">
        <ele>941.20001220703125</ele>
        <time>2019-07-08T17:33:33.000Z</time>
      </trkpt>
      <trkpt lat="43.1260332651436328887939453125" lon="-7.06900351680815219879150390625">
        <ele>940.4000244140625</ele>
        <time>2019-07-08T17:33:36.000Z</time>
      </trkpt>
      <trkpt lat="43.12605178914964199066162109375" lon="-7.068569250404834747314453125">
        <ele>939.20001220703125</ele>
        <time>2019-07-08T17:33:41.000Z</time>
      </trkpt>
      <trkpt lat="43.1260463409125804901123046875" lon="-7.0680004544556140899658203125">
        <ele>938.20001220703125</ele>
        <time>2019-07-08T17:33:47.000Z</time>
      </trkpt>
      <trkpt lat="43.126050867140293121337890625" lon="-7.06762435846030712127685546875">
        <ele>936.4000244140625</ele>
        <time>2019-07-08T17:33:51.000Z</time>
      </trkpt>
      <trkpt lat="43.12605413608253002166748046875" lon="-7.0674583129584789276123046875">
        <ele>935</ele>
        <time>2019-07-08T17:33:53.000Z</time>
      </trkpt>
      <trkpt lat="43.12605924904346466064453125" lon="-7.06725639291107654571533203125">
        <ele>933.79998779296875</ele>
        <time>2019-07-08T17:33:56.000Z</time>
      </trkpt>
      <trkpt lat="43.12607006169855594635009765625" lon="-7.0671900920569896697998046875">
        <ele>933.5999755859375</ele>
        <time>2019-07-08T17:33:57.000Z</time>
      </trkpt>
      <trkpt lat="43.12610576860606670379638671875" lon="-7.06705371849238872528076171875">
        <ele>933.20001220703125</ele>
        <time>2019-07-08T17:33:59.000Z</time>
      </trkpt>
      <trkpt lat="43.126165531575679779052734375" lon="-7.06690728664398193359375">
        <ele>933</ele>
        <time>2019-07-08T17:34:01.000Z</time>
      </trkpt>
      <trkpt lat="43.12620685435831546783447265625" lon="-7.06683763302862644195556640625">
        <ele>932.79998779296875</ele>
        <time>2019-07-08T17:34:02.000Z</time>
      </trkpt>
      <trkpt lat="43.12625848688185214996337890625" lon="-7.0667766965925693511962890625">
        <ele>932.5999755859375</ele>
        <time>2019-07-08T17:34:03.000Z</time>
      </trkpt>
      <trkpt lat="43.12644858844578266143798828125" lon="-7.066647447645664215087890625">
        <ele>931.4000244140625</ele>
        <time>2019-07-08T17:34:06.000Z</time>
      </trkpt>
      <trkpt lat="43.12658839859068393707275390625" lon="-7.0665748603641986846923828125">
        <ele>930</ele>
        <time>2019-07-08T17:34:08.000Z</time>
      </trkpt>
      <trkpt lat="43.12673843465745449066162109375" lon="-7.0664987526834011077880859375">
        <ele>928.79998779296875</ele>
        <time>2019-07-08T17:34:10.000Z</time>
      </trkpt>
      <trkpt lat="43.126968853175640106201171875" lon="-7.066387273371219635009765625">
        <ele>927.4000244140625</ele>
        <time>2019-07-08T17:34:13.000Z</time>
      </trkpt>
      <trkpt lat="43.127198852598667144775390625" lon="-7.06627621315419673919677734375">
        <ele>926.20001220703125</ele>
        <time>2019-07-08T17:34:16.000Z</time>
      </trkpt>
      <trkpt lat="43.12770402990281581878662109375" lon="-7.066159956157207489013671875">
        <ele>926.20001220703125</ele>
        <time>2019-07-08T17:34:22.000Z</time>
      </trkpt>
      <trkpt lat="43.12809982337057590484619140625" lon="-7.066180072724819183349609375">
        <ele>925</ele>
        <time>2019-07-08T17:34:26.000Z</time>
      </trkpt>
      <trkpt lat="43.12845286913216114044189453125" lon="-7.06614159978926181793212890625">
        <ele>923.5999755859375</ele>
        <time>2019-07-08T17:34:29.000Z</time>
      </trkpt>
      <trkpt lat="43.1285656057298183441162109375" lon="-7.06610119901597499847412109375">
        <ele>922.4000244140625</ele>
        <time>2019-07-08T17:34:30.000Z</time>
      </trkpt>
      <trkpt lat="43.12867113389074802398681640625" lon="-7.06603489816188812255859375">
        <ele>921.5999755859375</ele>
        <time>2019-07-08T17:34:31.000Z</time>
      </trkpt>
      <trkpt lat="43.12876417301595211029052734375" lon="-7.065950073301792144775390625">
        <ele>921</ele>
        <time>2019-07-08T17:34:32.000Z</time>
      </trkpt>
      <trkpt lat="43.12916315160691738128662109375" lon="-7.0655787549912929534912109375">
        <ele>920.5999755859375</ele>
        <time>2019-07-08T17:34:36.000Z</time>
      </trkpt>
      <trkpt lat="43.129607476294040679931640625" lon="-7.06518623046576976776123046875">
        <ele>919.79998779296875</ele>
        <time>2019-07-08T17:34:40.000Z</time>
      </trkpt>
      <trkpt lat="43.12971401028335094451904296875" lon="-7.06510459072887897491455078125">
        <ele>918.79998779296875</ele>
        <time>2019-07-08T17:34:41.000Z</time>
      </trkpt>
      <trkpt lat="43.1299456022679805755615234375" lon="-7.06504122354090213775634765625">
        <ele>917.4000244140625</ele>
        <time>2019-07-08T17:34:43.000Z</time>
      </trkpt>
      <trkpt lat="43.1300676427781581878662109375" lon="-7.065069973468780517578125">
        <ele>916</ele>
        <time>2019-07-08T17:34:44.000Z</time>
      </trkpt>
      <trkpt lat="43.1301890127360820770263671875" lon="-7.065127976238727569580078125">
        <ele>915.4000244140625</ele>
        <time>2019-07-08T17:34:45.000Z</time>
      </trkpt>
      <trkpt lat="43.13030912540853023529052734375" lon="-7.06519863568246364593505859375">
        <ele>913.5999755859375</ele>
        <time>2019-07-08T17:34:46.000Z</time>
      </trkpt>
      <trkpt lat="43.130429573357105255126953125" lon="-7.06525445915758609771728515625">
        <ele>911.4000244140625</ele>
        <time>2019-07-08T17:34:47.000Z</time>
      </trkpt>
      <trkpt lat="43.1305524520576000213623046875" lon="-7.0652780123054981231689453125">
        <ele>909.20001220703125</ele>
        <time>2019-07-08T17:34:48.000Z</time>
      </trkpt>
      <trkpt lat="43.1306721456348896026611328125" lon="-7.065261416137218475341796875">
        <ele>908</ele>
        <time>2019-07-08T17:34:49.000Z</time>
      </trkpt>
      <trkpt lat="43.13089870847761631011962890625" lon="-7.0651586540043354034423828125">
        <ele>906.5999755859375</ele>
        <time>2019-07-08T17:34:51.000Z</time>
      </trkpt>
      <trkpt lat="43.1310166418552398681640625" lon="-7.065128982067108154296875">
        <ele>906.4000244140625</ele>
        <time>2019-07-08T17:34:52.000Z</time>
      </trkpt>
      <trkpt lat="43.131375052034854888916015625" lon="-7.06520081497728824615478515625">
        <ele>905.20001220703125</ele>
        <time>2019-07-08T17:34:55.000Z</time>
      </trkpt>
      <trkpt lat="43.13149667344987392425537109375" lon="-7.06518463790416717529296875">
        <ele>904</ele>
        <time>2019-07-08T17:34:56.000Z</time>
      </trkpt>
      <trkpt lat="43.13161033205687999725341796875" lon="-7.0651177503168582916259765625">
        <ele>902.79998779296875</ele>
        <time>2019-07-08T17:34:57.000Z</time>
      </trkpt>
      <trkpt lat="43.131810910999774932861328125" lon="-7.0648585818707942962646484375">
        <ele>901</ele>
        <time>2019-07-08T17:34:59.000Z</time>
      </trkpt>
      <trkpt lat="43.13191794790327548980712890625" lon="-7.0647127367556095123291015625">
        <ele>899.5999755859375</ele>
        <time>2019-07-08T17:35:00.000Z</time>
      </trkpt>
      <trkpt lat="43.132036216557025909423828125" lon="-7.064588181674480438232421875">
        <ele>897.79998779296875</ele>
        <time>2019-07-08T17:35:01.000Z</time>
      </trkpt>
      <trkpt lat="43.13216756097972393035888671875" lon="-7.06449237652122974395751953125">
        <ele>895</ele>
        <time>2019-07-08T17:35:02.000Z</time>
      </trkpt>
      <trkpt lat="43.13230887986719608306884765625" lon="-7.0644277520477771759033203125">
        <ele>892.5999755859375</ele>
        <time>2019-07-08T17:35:03.000Z</time>
      </trkpt>
      <trkpt lat="43.13246075995266437530517578125" lon="-7.0643989183008670806884765625">
        <ele>890.20001220703125</ele>
        <time>2019-07-08T17:35:04.000Z</time>
      </trkpt>
      <trkpt lat="43.1326217763125896453857421875" lon="-7.064415179193019866943359375">
        <ele>888.5999755859375</ele>
        <time>2019-07-08T17:35:05.000Z</time>
      </trkpt>
      <trkpt lat="43.1327870674431324005126953125" lon="-7.064475528895854949951171875">
        <ele>888</ele>
        <time>2019-07-08T17:35:06.000Z</time>
      </trkpt>
      <trkpt lat="43.13294976018369197845458984375" lon="-7.06455842591822147369384765625">
        <ele>887.20001220703125</ele>
        <time>2019-07-08T17:35:07.000Z</time>
      </trkpt>
      <trkpt lat="43.13326240517199039459228515625" lon="-7.0647097192704677581787109375">
        <ele>885.20001220703125</ele>
        <time>2019-07-08T17:35:09.000Z</time>
      </trkpt>
      <trkpt lat="43.1335773132741451263427734375" lon="-7.06473411060869693756103515625">
        <ele>883.79998779296875</ele>
        <time>2019-07-08T17:35:11.000Z</time>
      </trkpt>
      <trkpt lat="43.133913762867450714111328125" lon="-7.06463067792356014251708984375">
        <ele>882</ele>
        <time>2019-07-08T17:35:13.000Z</time>
      </trkpt>
      <trkpt lat="43.13408332876861095428466796875" lon="-7.06456965766847133636474609375">
        <ele>880.79998779296875</ele>
        <time>2019-07-08T17:35:14.000Z</time>
      </trkpt>
      <trkpt lat="43.1342485360801219940185546875" lon="-7.064508385956287384033203125">
        <ele>878.4000244140625</ele>
        <time>2019-07-08T17:35:15.000Z</time>
      </trkpt>
      <trkpt lat="43.13440385274589061737060546875" lon="-7.06444258801639080047607421875">
        <ele>875.5999755859375</ele>
        <time>2019-07-08T17:35:16.000Z</time>
      </trkpt>
      <trkpt lat="43.13454215414822101593017578125" lon="-7.06435960717499256134033203125">
        <ele>873.20001220703125</ele>
        <time>2019-07-08T17:35:17.000Z</time>
      </trkpt>
      <trkpt lat="43.13465832732617855072021484375" lon="-7.06423781812191009521484375">
        <ele>872</ele>
        <time>2019-07-08T17:35:18.000Z</time>
      </trkpt>
      <trkpt lat="43.13474264927208423614501953125" lon="-7.0640783943235874176025390625">
        <ele>871.20001220703125</ele>
        <time>2019-07-08T17:35:19.000Z</time>
      </trkpt>
      <trkpt lat="43.13479411415755748748779296875" lon="-7.0638852752745151519775390625">
        <ele>870.5999755859375</ele>
        <time>2019-07-08T17:35:20.000Z</time>
      </trkpt>
      <trkpt lat="43.134820349514484405517578125" lon="-7.06366793252527713775634765625">
        <ele>870.20001220703125</ele>
        <time>2019-07-08T17:35:21.000Z</time>
      </trkpt>
      <trkpt lat="43.13482177443802356719970703125" lon="-7.06316971220076084136962890625">
        <ele>869.20001220703125</ele>
        <time>2019-07-08T17:35:23.000Z</time>
      </trkpt>
      <trkpt lat="43.134821020066738128662109375" lon="-7.06289830617606639862060546875">
        <ele>867.20001220703125</ele>
        <time>2019-07-08T17:35:24.000Z</time>
      </trkpt>
      <trkpt lat="43.1348235346376895904541015625" lon="-7.06263327039778232574462890625">
        <ele>864</ele>
        <time>2019-07-08T17:35:25.000Z</time>
      </trkpt>
      <trkpt lat="43.13482613302767276763916015625" lon="-7.062376700341701507568359375">
        <ele>860.79998779296875</ele>
        <time>2019-07-08T17:35:26.000Z</time>
      </trkpt>
      <trkpt lat="43.1348238699138164520263671875" lon="-7.06213085912168025970458984375">
        <ele>857.79998779296875</ele>
        <time>2019-07-08T17:35:27.000Z</time>
      </trkpt>
      <trkpt lat="43.13480861485004425048828125" lon="-7.061901278793811798095703125">
        <ele>856.20001220703125</ele>
        <time>2019-07-08T17:35:28.000Z</time>
      </trkpt>
      <trkpt lat="43.13472135923802852630615234375" lon="-7.06147246062755584716796875">
        <ele>854.4000244140625</ele>
        <time>2019-07-08T17:35:30.000Z</time>
      </trkpt>
      <trkpt lat="43.1345563195645809173583984375" lon="-7.0610941015183925628662109375">
        <ele>853.5999755859375</ele>
        <time>2019-07-08T17:35:32.000Z</time>
      </trkpt>
      <trkpt lat="43.134293965995311737060546875" lon="-7.06057635135948657989501953125">
        <ele>854.4000244140625</ele>
        <time>2019-07-08T17:35:35.000Z</time>
      </trkpt>
      <trkpt lat="43.134189359843730926513671875" lon="-7.06020385958254337310791015625">
        <ele>853.4000244140625</ele>
        <time>2019-07-08T17:35:37.000Z</time>
      </trkpt>
      <trkpt lat="43.13416480086743831634521484375" lon="-7.0600064657628536224365234375">
        <ele>853.4000244140625</ele>
        <time>2019-07-08T17:35:38.000Z</time>
      </trkpt>
      <trkpt lat="43.134161867201328277587890625" lon="-7.05979834310710430145263671875">
        <ele>853.4000244140625</ele>
        <time>2019-07-08T17:35:39.000Z</time>
      </trkpt>
      <trkpt lat="43.13417988829314708709716796875" lon="-7.0595897175371646881103515625">
        <ele>852.4000244140625</ele>
        <time>2019-07-08T17:35:40.000Z</time>
      </trkpt>
      <trkpt lat="43.13422121107578277587890625" lon="-7.05938293598592281341552734375">
        <ele>851.79998779296875</ele>
        <time>2019-07-08T17:35:41.000Z</time>
      </trkpt>
      <trkpt lat="43.13436211086809635162353515625" lon="-7.05899049527943134307861328125">
        <ele>850.20001220703125</ele>
        <time>2019-07-08T17:35:43.000Z</time>
      </trkpt>
      <trkpt lat="43.134454898536205291748046875" lon="-7.0588078536093235015869140625">
        <ele>848</ele>
        <time>2019-07-08T17:35:44.000Z</time>
      </trkpt>
      <trkpt lat="43.13455187715590000152587890625" lon="-7.05863292329013347625732421875">
        <ele>844.20001220703125</ele>
        <time>2019-07-08T17:35:45.000Z</time>
      </trkpt>
      <trkpt lat="43.134647347033023834228515625" lon="-7.05845925025641918182373046875">
        <ele>841</ele>
        <time>2019-07-08T17:35:46.000Z</time>
      </trkpt>
      <trkpt lat="43.134737871587276458740234375" lon="-7.05826948396861553192138671875">
        <ele>838.5999755859375</ele>
        <time>2019-07-08T17:35:47.000Z</time>
      </trkpt>
      <trkpt lat="43.13481875695288181304931640625" lon="-7.05804820172488689422607421875">
        <ele>836.79998779296875</ele>
        <time>2019-07-08T17:35:48.000Z</time>
      </trkpt>
      <trkpt lat="43.1348858959972858428955078125" lon="-7.05779305659234523773193359375">
        <ele>834.79998779296875</ele>
        <time>2019-07-08T17:35:49.000Z</time>
      </trkpt>
      <trkpt lat="43.1349415518343448638916015625" lon="-7.05752667970955371856689453125">
        <ele>831.79998779296875</ele>
        <time>2019-07-08T17:35:50.000Z</time>
      </trkpt>
      <trkpt lat="43.134991340339183807373046875" lon="-7.05726751126348972320556640625">
        <ele>828.4000244140625</ele>
        <time>2019-07-08T17:35:51.000Z</time>
      </trkpt>
      <trkpt lat="43.1350381113588809967041015625" lon="-7.05701387487351894378662109375">
        <ele>824.79998779296875</ele>
        <time>2019-07-08T17:35:52.000Z</time>
      </trkpt>
      <trkpt lat="43.1350830383598804473876953125" lon="-7.056762836873531341552734375">
        <ele>822.4000244140625</ele>
        <time>2019-07-08T17:35:53.000Z</time>
      </trkpt>
      <trkpt lat="43.13512586988508701324462890625" lon="-7.0565165765583515167236328125">
        <ele>820.4000244140625</ele>
        <time>2019-07-08T17:35:54.000Z</time>
      </trkpt>
      <trkpt lat="43.1351685337722301483154296875" lon="-7.056271322071552276611328125">
        <ele>819.4000244140625</ele>
        <time>2019-07-08T17:35:55.000Z</time>
      </trkpt>
      <trkpt lat="43.1353108584880828857421875" lon="-7.05554519779980182647705078125">
        <ele>820.5999755859375</ele>
        <time>2019-07-08T17:35:58.000Z</time>
      </trkpt>
      <trkpt lat="43.13537850044667720794677734375" lon="-7.05531276762485504150390625">
        <ele>822.4000244140625</ele>
        <time>2019-07-08T17:35:59.000Z</time>
      </trkpt>
      <trkpt lat="43.1354669295251369476318359375" lon="-7.0550913177430629730224609375">
        <ele>824.20001220703125</ele>
        <time>2019-07-08T17:36:00.000Z</time>
      </trkpt>
      <trkpt lat="43.13558042049407958984375" lon="-7.0548878051340579986572265625">
        <ele>825.79998779296875</ele>
        <time>2019-07-08T17:36:01.000Z</time>
      </trkpt>
      <trkpt lat="43.13571880571544170379638671875" lon="-7.0547072589397430419921875">
        <ele>827</ele>
        <time>2019-07-08T17:36:02.000Z</time>
      </trkpt>
      <trkpt lat="43.13587387092411518096923828125" lon="-7.0545418001711368560791015625">
        <ele>828.20001220703125</ele>
        <time>2019-07-08T17:36:03.000Z</time>
      </trkpt>
      <trkpt lat="43.13603647984564304351806640625" lon="-7.05438061617314815521240234375">
        <ele>829.5999755859375</ele>
        <time>2019-07-08T17:36:04.000Z</time>
      </trkpt>
      <trkpt lat="43.1362015195190906524658203125" lon="-7.05422102473676204681396484375">
        <ele>831.4000244140625</ele>
        <time>2019-07-08T17:36:05.000Z</time>
      </trkpt>
      <trkpt lat="43.136368654668331146240234375" lon="-7.0540626905858516693115234375">
        <ele>833.79998779296875</ele>
        <time>2019-07-08T17:36:06.000Z</time>
      </trkpt>
      <trkpt lat="43.13653486780822277069091796875" lon="-7.05390871502459049224853515625">
        <ele>835.4000244140625</ele>
        <time>2019-07-08T17:36:07.000Z</time>
      </trkpt>
      <trkpt lat="43.13669345341622829437255859375" lon="-7.0537606067955493927001953125">
        <ele>837</ele>
        <time>2019-07-08T17:36:08.000Z</time>
      </trkpt>
      <trkpt lat="43.1368432380259037017822265625" lon="-7.05361082218587398529052734375">
        <ele>839.4000244140625</ele>
        <time>2019-07-08T17:36:09.000Z</time>
      </trkpt>
      <trkpt lat="43.1369803659617900848388671875" lon="-7.053450308740139007568359375">
        <ele>841.79998779296875</ele>
        <time>2019-07-08T17:36:10.000Z</time>
      </trkpt>
      <trkpt lat="43.1370972096920013427734375" lon="-7.05327018164098262786865234375">
        <ele>843</ele>
        <time>2019-07-08T17:36:11.000Z</time>
      </trkpt>
      <trkpt lat="43.1371875666081905364990234375" lon="-7.0530665852129459381103515625">
        <ele>843.4000244140625</ele>
        <time>2019-07-08T17:36:12.000Z</time>
      </trkpt>
      <trkpt lat="43.13724867068231105804443359375" lon="-7.052846141159534454345703125">
        <ele>845.20001220703125</ele>
        <time>2019-07-08T17:36:13.000Z</time>
      </trkpt>
      <trkpt lat="43.13727783970534801483154296875" lon="-7.05261672846972942352294921875">
        <ele>846.79998779296875</ele>
        <time>2019-07-08T17:36:14.000Z</time>
      </trkpt>
      <trkpt lat="43.1372742354869842529296875" lon="-7.0523853041231632232666015625">
        <ele>848.4000244140625</ele>
        <time>2019-07-08T17:36:15.000Z</time>
      </trkpt>
      <trkpt lat="43.137238025665283203125" lon="-7.0521586574614048004150390625">
        <ele>849.4000244140625</ele>
        <time>2019-07-08T17:36:16.000Z</time>
      </trkpt>
      <trkpt lat="43.1370742432773113250732421875" lon="-7.0517569966614246368408203125">
        <ele>851.4000244140625</ele>
        <time>2019-07-08T17:36:18.000Z</time>
      </trkpt>
      <trkpt lat="43.1369538791477680206298828125" lon="-7.05159648321568965911865234375">
        <ele>852.5999755859375</ele>
        <time>2019-07-08T17:36:19.000Z</time>
      </trkpt>
      <trkpt lat="43.13681281171739101409912109375" lon="-7.05146589316427707672119140625">
        <ele>854.20001220703125</ele>
        <time>2019-07-08T17:36:20.000Z</time>
      </trkpt>
      <trkpt lat="43.13665087334811687469482421875" lon="-7.05136111937463283538818359375">
        <ele>855.79998779296875</ele>
        <time>2019-07-08T17:36:21.000Z</time>
      </trkpt>
      <trkpt lat="43.1364707462489604949951171875" lon="-7.05127604305744171142578125">
        <ele>857.20001220703125</ele>
        <time>2019-07-08T17:36:22.000Z</time>
      </trkpt>
      <trkpt lat="43.13627846539020538330078125" lon="-7.05120739527046680450439453125">
        <ele>858.4000244140625</ele>
        <time>2019-07-08T17:36:23.000Z</time>
      </trkpt>
      <trkpt lat="43.135893233120441436767578125" lon="-7.05108719877898693084716796875">
        <ele>859.5999755859375</ele>
        <time>2019-07-08T17:36:25.000Z</time>
      </trkpt>
      <trkpt lat="43.1355470605194568634033203125" lon="-7.0509506575763225555419921875">
        <ele>860.4000244140625</ele>
        <time>2019-07-08T17:36:27.000Z</time>
      </trkpt>
      <trkpt lat="43.1353924982249736785888671875" lon="-7.05085032619535923004150390625">
        <ele>861</ele>
        <time>2019-07-08T17:36:28.000Z</time>
      </trkpt>
      <trkpt lat="43.13525042496621608734130859375" lon="-7.0507209934294223785400390625">
        <ele>861.79998779296875</ele>
        <time>2019-07-08T17:36:29.000Z</time>
      </trkpt>
      <trkpt lat="43.13511916436254978179931640625" lon="-7.05056349746882915496826171875">
        <ele>862.20001220703125</ele>
        <time>2019-07-08T17:36:30.000Z</time>
      </trkpt>
      <trkpt lat="43.1350022368133068084716796875" lon="-7.05038127489387989044189453125">
        <ele>862.5999755859375</ele>
        <time>2019-07-08T17:36:31.000Z</time>
      </trkpt>
      <trkpt lat="43.13483501784503459930419921875" lon="-7.049940638244152069091796875">
        <ele>862.79998779296875</ele>
        <time>2019-07-08T17:36:33.000Z</time>
      </trkpt>
      <trkpt lat="43.1347752548754215240478515625" lon="-7.049461863934993743896484375">
        <ele>862.4000244140625</ele>
        <time>2019-07-08T17:36:35.000Z</time>
      </trkpt>
      <trkpt lat="43.1348248757421970367431640625" lon="-7.04901401884853839874267578125">
        <ele>862</ele>
        <time>2019-07-08T17:36:37.000Z</time>
      </trkpt>
      <trkpt lat="43.1349643506109714508056640625" lon="-7.04860699363052845001220703125">
        <ele>862.4000244140625</ele>
        <time>2019-07-08T17:36:39.000Z</time>
      </trkpt>
      <trkpt lat="43.13517163507640361785888671875" lon="-7.04827037639915943145751953125">
        <ele>863.79998779296875</ele>
        <time>2019-07-08T17:36:41.000Z</time>
      </trkpt>
      <trkpt lat="43.13529518432915210723876953125" lon="-7.04813760705292224884033203125">
        <ele>865.20001220703125</ele>
        <time>2019-07-08T17:36:42.000Z</time>
      </trkpt>
      <trkpt lat="43.1354263611137866973876953125" lon="-7.04802780412137508392333984375">
        <ele>866.5999755859375</ele>
        <time>2019-07-08T17:36:43.000Z</time>
      </trkpt>
      <trkpt lat="43.13556499779224395751953125" lon="-7.04793979413807392120361328125">
        <ele>868.20001220703125</ele>
        <time>2019-07-08T17:36:44.000Z</time>
      </trkpt>
      <trkpt lat="43.13571042381227016448974609375" lon="-7.04787634313106536865234375">
        <ele>869.79998779296875</ele>
        <time>2019-07-08T17:36:45.000Z</time>
      </trkpt>
      <trkpt lat="43.13585995696485042572021484375" lon="-7.04783401452004909515380859375">
        <ele>871.4000244140625</ele>
        <time>2019-07-08T17:36:46.000Z</time>
      </trkpt>
      <trkpt lat="43.13601267524063587188720703125" lon="-7.0478020794689655303955078125">
        <ele>873</ele>
        <time>2019-07-08T17:36:47.000Z</time>
      </trkpt>
      <trkpt lat="43.13631777651607990264892578125" lon="-7.04773460514843463897705078125">
        <ele>874</ele>
        <time>2019-07-08T17:36:49.000Z</time>
      </trkpt>
      <trkpt lat="43.1367698125541210174560546875" lon="-7.0475710742175579071044921875">
        <ele>873</ele>
        <time>2019-07-08T17:36:52.000Z</time>
      </trkpt>
      <trkpt lat="43.13703979365527629852294921875" lon="-7.047362029552459716796875">
        <ele>873</ele>
        <time>2019-07-08T17:36:54.000Z</time>
      </trkpt>
      <trkpt lat="43.13724867068231105804443359375" lon="-7.04706505872309207916259765625">
        <ele>874</ele>
        <time>2019-07-08T17:36:56.000Z</time>
      </trkpt>
      <trkpt lat="43.137330226600170135498046875" lon="-7.04689557664096355438232421875">
        <ele>875</ele>
        <time>2019-07-08T17:36:57.000Z</time>
      </trkpt>
      <trkpt lat="43.13739451579749584197998046875" lon="-7.046712599694728851318359375">
        <ele>876</ele>
        <time>2019-07-08T17:36:58.000Z</time>
      </trkpt>
      <trkpt lat="43.137439191341400146484375" lon="-7.04651855863630771636962890625">
        <ele>877</ele>
        <time>2019-07-08T17:36:59.000Z</time>
      </trkpt>
      <trkpt lat="43.13746542669832706451416015625" lon="-7.046317644417285919189453125">
        <ele>877.79998779296875</ele>
        <time>2019-07-08T17:37:00.000Z</time>
      </trkpt>
      <trkpt lat="43.1374728865921497344970703125" lon="-7.04611605964601039886474609375">
        <ele>878.20001220703125</ele>
        <time>2019-07-08T17:37:01.000Z</time>
      </trkpt>
      <trkpt lat="43.13746073283255100250244140625" lon="-7.0459144748747348785400390625">
        <ele>878.4000244140625</ele>
        <time>2019-07-08T17:37:02.000Z</time>
      </trkpt>
      <trkpt lat="43.13738211058080196380615234375" lon="-7.04550334252417087554931640625">
        <ele>878.20001220703125</ele>
        <time>2019-07-08T17:37:04.000Z</time>
      </trkpt>
      <trkpt lat="43.137230984866619110107421875" lon="-7.0450719259679317474365234375">
        <ele>876.5999755859375</ele>
        <time>2019-07-08T17:37:06.000Z</time>
      </trkpt>
      <trkpt lat="43.137139119207859039306640625" lon="-7.044848464429378509521484375">
        <ele>875</ele>
        <time>2019-07-08T17:37:07.000Z</time>
      </trkpt>
      <trkpt lat="43.13704800792038440704345703125" lon="-7.0446239970624446868896484375">
        <ele>873</ele>
        <time>2019-07-08T17:37:08.000Z</time>
      </trkpt>
      <trkpt lat="43.13696913421154022216796875" lon="-7.04439693130552768707275390625">
        <ele>870.79998779296875</ele>
        <time>2019-07-08T17:37:09.000Z</time>
      </trkpt>
      <trkpt lat="43.1369102932512760162353515625" lon="-7.044164501130580902099609375">
        <ele>868.20001220703125</ele>
        <time>2019-07-08T17:37:10.000Z</time>
      </trkpt>
      <trkpt lat="43.13687383197247982025146484375" lon="-7.04392402432858943939208984375">
        <ele>866.20001220703125</ele>
        <time>2019-07-08T17:37:11.000Z</time>
      </trkpt>
      <trkpt lat="43.1368579901754856109619140625" lon="-7.0436744950711727142333984375">
        <ele>864.20001220703125</ele>
        <time>2019-07-08T17:37:12.000Z</time>
      </trkpt>
      <trkpt lat="43.1368596665561199188232421875" lon="-7.04341876320540904998779296875">
        <ele>863.20001220703125</ele>
        <time>2019-07-08T17:37:13.000Z</time>
      </trkpt>
      <trkpt lat="43.13689596019685268402099609375" lon="-7.042691297829151153564453125">
        <ele>862.20001220703125</ele>
        <time>2019-07-08T17:37:16.000Z</time>
      </trkpt>
      <trkpt lat="43.1369186751544475555419921875" lon="-7.04222652129828929901123046875">
        <ele>863.79998779296875</ele>
        <time>2019-07-08T17:37:18.000Z</time>
      </trkpt>
      <trkpt lat="43.13693024218082427978515625" lon="-7.0419883914291858673095703125">
        <ele>865.4000244140625</ele>
        <time>2019-07-08T17:37:19.000Z</time>
      </trkpt>
      <trkpt lat="43.13695815391838550567626953125" lon="-7.0415005646646022796630859375">
        <ele>867.4000244140625</ele>
        <time>2019-07-08T17:37:21.000Z</time>
      </trkpt>
      <trkpt lat="43.1370048411190509796142578125" lon="-7.0407676510512828826904296875">
        <ele>867.4000244140625</ele>
        <time>2019-07-08T17:37:24.000Z</time>
      </trkpt>
      <trkpt lat="43.13710332848131656646728515625" lon="-7.04009550623595714569091796875">
        <ele>867.5999755859375</ele>
        <time>2019-07-08T17:37:27.000Z</time>
      </trkpt>
      <trkpt lat="43.1372405402362346649169921875" lon="-7.03970222733914852142333984375">
        <ele>867.79998779296875</ele>
        <time>2019-07-08T17:37:29.000Z</time>
      </trkpt>
      <trkpt lat="43.13743374310433864593505859375" lon="-7.0393460802733898162841796875">
        <ele>868</ele>
        <time>2019-07-08T17:37:31.000Z</time>
      </trkpt>
      <trkpt lat="43.13767991960048675537109375" lon="-7.0390533842146396636962890625">
        <ele>867</ele>
        <time>2019-07-08T17:37:33.000Z</time>
      </trkpt>
      <trkpt lat="43.13782341778278350830078125" lon="-7.038934528827667236328125">
        <ele>865.79998779296875</ele>
        <time>2019-07-08T17:37:34.000Z</time>
      </trkpt>
      <trkpt lat="43.13797990791499614715576171875" lon="-7.03883352689445018768310546875">
        <ele>864.79998779296875</ele>
        <time>2019-07-08T17:37:35.000Z</time>
      </trkpt>
      <trkpt lat="43.138321302831172943115234375" lon="-7.0386815629899501800537109375">
        <ele>863.4000244140625</ele>
        <time>2019-07-08T17:37:37.000Z</time>
      </trkpt>
      <trkpt lat="43.13885782845318317413330078125" lon="-7.0385025255382061004638671875">
        <ele>863</ele>
        <time>2019-07-08T17:37:40.000Z</time>
      </trkpt>
      <trkpt lat="43.1394262053072452545166015625" lon="-7.0383238233625888824462890625">
        <ele>864.4000244140625</ele>
        <time>2019-07-08T17:37:43.000Z</time>
      </trkpt>
      <trkpt lat="43.139622844755649566650390625" lon="-7.03825651668012142181396484375">
        <ele>865.4000244140625</ele>
        <time>2019-07-08T17:37:44.000Z</time>
      </trkpt>
      <trkpt lat="43.1402084045112133026123046875" lon="-7.0380507409572601318359375">
        <ele>866.4000244140625</ele>
        <time>2019-07-08T17:37:47.000Z</time>
      </trkpt>
      <trkpt lat="43.14080527983605861663818359375" lon="-7.0378541015088558197021484375">
        <ele>863.79998779296875</ele>
        <time>2019-07-08T17:37:50.000Z</time>
      </trkpt>
      <trkpt lat="43.1409969739615917205810546875" lon="-7.037786878645420074462890625">
        <ele>862</ele>
        <time>2019-07-08T17:37:51.000Z</time>
      </trkpt>
      <trkpt lat="43.1411840580403804779052734375" lon="-7.0377194881439208984375">
        <ele>860.5999755859375</ele>
        <time>2019-07-08T17:37:52.000Z</time>
      </trkpt>
      <trkpt lat="43.14136787317693233489990234375" lon="-7.0376552827656269073486328125">
        <ele>858.79998779296875</ele>
        <time>2019-07-08T17:37:53.000Z</time>
      </trkpt>
      <trkpt lat="43.141549341380596160888671875" lon="-7.037593089044094085693359375">
        <ele>857.4000244140625</ele>
        <time>2019-07-08T17:37:54.000Z</time>
      </trkpt>
      <trkpt lat="43.1417238526046276092529296875" lon="-7.03753449954092502593994140625">
        <ele>856</ele>
        <time>2019-07-08T17:37:55.000Z</time>
      </trkpt>
      <trkpt lat="43.14220924861729145050048828125" lon="-7.03734674490988254547119140625">
        <ele>856.20001220703125</ele>
        <time>2019-07-08T17:37:58.000Z</time>
      </trkpt>
      <trkpt lat="43.14253312535583972930908203125" lon="-7.03715345822274684906005859375">
        <ele>856.79998779296875</ele>
        <time>2019-07-08T17:38:00.000Z</time>
      </trkpt>
      <trkpt lat="43.1426921300590038299560546875" lon="-7.03701876103878021240234375">
        <ele>857.5999755859375</ele>
        <time>2019-07-08T17:38:01.000Z</time>
      </trkpt>
      <trkpt lat="43.142842836678028106689453125" lon="-7.0368596725165843963623046875">
        <ele>858.20001220703125</ele>
        <time>2019-07-08T17:38:02.000Z</time>
      </trkpt>
      <trkpt lat="43.14309873618185520172119140625" lon="-7.0364865101873874664306640625">
        <ele>855.20001220703125</ele>
        <time>2019-07-08T17:38:04.000Z</time>
      </trkpt>
      <trkpt lat="43.14319931901991367340087890625" lon="-7.036279477179050445556640625">
        <ele>852.79998779296875</ele>
        <time>2019-07-08T17:38:05.000Z</time>
      </trkpt>
      <trkpt lat="43.14328372478485107421875" lon="-7.03606112860143184661865234375">
        <ele>850.20001220703125</ele>
        <time>2019-07-08T17:38:06.000Z</time>
      </trkpt>
      <trkpt lat="43.143354468047618865966796875" lon="-7.03583448193967342376708984375">
        <ele>848.5999755859375</ele>
        <time>2019-07-08T17:38:07.000Z</time>
      </trkpt>
      <trkpt lat="43.14344323240220546722412109375" lon="-7.03536224551498889923095703125">
        <ele>848</ele>
        <time>2019-07-08T17:38:09.000Z</time>
      </trkpt>
      <trkpt lat="43.143460750579833984375" lon="-7.034894116222858428955078125">
        <ele>848.79998779296875</ele>
        <time>2019-07-08T17:38:11.000Z</time>
      </trkpt>
      <trkpt lat="43.143385984003543853759765625" lon="-7.03426555730402469635009765625">
        <ele>850</ele>
        <time>2019-07-08T17:38:14.000Z</time>
      </trkpt>
      <trkpt lat="43.143342398107051849365234375" lon="-7.03407059423625469207763671875">
        <ele>851</ele>
        <time>2019-07-08T17:38:15.000Z</time>
      </trkpt>
      <trkpt lat="43.14324860461056232452392578125" lon="-7.0336787402629852294921875">
        <ele>852.4000244140625</ele>
        <time>2019-07-08T17:38:17.000Z</time>
      </trkpt>
      <trkpt lat="43.1430931203067302703857421875" lon="-7.033055461943149566650390625">
        <ele>852.4000244140625</ele>
        <time>2019-07-08T17:38:20.000Z</time>
      </trkpt>
      <trkpt lat="43.142927326261997222900390625" lon="-7.0323834009468555450439453125">
        <ele>851</ele>
        <time>2019-07-08T17:38:23.000Z</time>
      </trkpt>
      <trkpt lat="43.1427729316055774688720703125" lon="-7.03169063664972782135009765625">
        <ele>849.79998779296875</ele>
        <time>2019-07-08T17:38:26.000Z</time>
      </trkpt>
      <trkpt lat="43.1426901184022426605224609375" lon="-7.03100499697029590606689453125">
        <ele>848.5999755859375</ele>
        <time>2019-07-08T17:38:29.000Z</time>
      </trkpt>
      <trkpt lat="43.142715431749820709228515625" lon="-7.03055907972157001495361328125">
        <ele>848.4000244140625</ele>
        <time>2019-07-08T17:38:31.000Z</time>
      </trkpt>
      <trkpt lat="43.14281366765499114990234375" lon="-7.03014417551457881927490234375">
        <ele>848.5999755859375</ele>
        <time>2019-07-08T17:38:33.000Z</time>
      </trkpt>
      <trkpt lat="43.14297317527234554290771484375" lon="-7.029793560504913330078125">
        <ele>848.79998779296875</ele>
        <time>2019-07-08T17:38:35.000Z</time>
      </trkpt>
      <trkpt lat="43.14318758435547351837158203125" lon="-7.0294923149049282073974609375">
        <ele>849</ele>
        <time>2019-07-08T17:38:37.000Z</time>
      </trkpt>
      <trkpt lat="43.14331431873142719268798828125" lon="-7.0293531753122806549072265625">
        <ele>849.79998779296875</ele>
        <time>2019-07-08T17:38:38.000Z</time>
      </trkpt>
      <trkpt lat="43.1434508599340915679931640625" lon="-7.0292207412421703338623046875">
        <ele>851.20001220703125</ele>
        <time>2019-07-08T17:38:39.000Z</time>
      </trkpt>
      <trkpt lat="43.14359016716480255126953125" lon="-7.02909308485686779022216796875">
        <ele>853</ele>
        <time>2019-07-08T17:38:40.000Z</time>
      </trkpt>
      <trkpt lat="43.14373098313808441162109375" lon="-7.02897020615637302398681640625">
        <ele>854.20001220703125</ele>
        <time>2019-07-08T17:38:41.000Z</time>
      </trkpt>
      <trkpt lat="43.14386936835944652557373046875" lon="-7.02885051257908344268798828125">
        <ele>856</ele>
        <time>2019-07-08T17:38:42.000Z</time>
      </trkpt>
      <trkpt lat="43.14400381408631801605224609375" lon="-7.02873417176306247711181640625">
        <ele>858</ele>
        <time>2019-07-08T17:38:43.000Z</time>
      </trkpt>
      <trkpt lat="43.14413557760417461395263671875" lon="-7.02861984260380268096923828125">
        <ele>859.5999755859375</ele>
        <time>2019-07-08T17:38:44.000Z</time>
      </trkpt>
      <trkpt lat="43.14426549710333347320556640625" lon="-7.02850635163486003875732421875">
        <ele>861</ele>
        <time>2019-07-08T17:38:45.000Z</time>
      </trkpt>
      <trkpt lat="43.14439508132636547088623046875" lon="-7.02839386649429798126220703125">
        <ele>863</ele>
        <time>2019-07-08T17:38:46.000Z</time>
      </trkpt>
      <trkpt lat="43.14452533610165119171142578125" lon="-7.0282802917063236236572265625">
        <ele>865</ele>
        <time>2019-07-08T17:38:47.000Z</time>
      </trkpt>
      <trkpt lat="43.14465458504855632781982421875" lon="-7.02816571108996868133544921875">
        <ele>866.20001220703125</ele>
        <time>2019-07-08T17:38:48.000Z</time>
      </trkpt>
      <trkpt lat="43.14478500746190547943115234375" lon="-7.02805071137845516204833984375">
        <ele>867.5999755859375</ele>
        <time>2019-07-08T17:38:49.000Z</time>
      </trkpt>
      <trkpt lat="43.14503797329962253570556640625" lon="-7.02781065367162227630615234375">
        <ele>868.79998779296875</ele>
        <time>2019-07-08T17:38:51.000Z</time>
      </trkpt>
      <trkpt lat="43.14515448175370693206787109375" lon="-7.02767486684024333953857421875">
        <ele>869.5999755859375</ele>
        <time>2019-07-08T17:38:52.000Z</time>
      </trkpt>
      <trkpt lat="43.14525908790528774261474609375" lon="-7.02752374112606048583984375">
        <ele>871</ele>
        <time>2019-07-08T17:38:53.000Z</time>
      </trkpt>
      <trkpt lat="43.14534827135503292083740234375" lon="-7.02735501341521739959716796875">
        <ele>872.5999755859375</ele>
        <time>2019-07-08T17:38:54.000Z</time>
      </trkpt>
      <trkpt lat="43.14541918225586414337158203125" lon="-7.02716826461255550384521484375">
        <ele>874.20001220703125</ele>
        <time>2019-07-08T17:38:55.000Z</time>
      </trkpt>
      <trkpt lat="43.145471401512622833251953125" lon="-7.0269691944122314453125">
        <ele>875.20001220703125</ele>
        <time>2019-07-08T17:38:56.000Z</time>
      </trkpt>
      <trkpt lat="43.1455215252935886383056640625" lon="-7.0265502668917179107666015625">
        <ele>876.5999755859375</ele>
        <time>2019-07-08T17:38:58.000Z</time>
      </trkpt>
      <trkpt lat="43.14551657997071743011474609375" lon="-7.02612496912479400634765625">
        <ele>877.79998779296875</ele>
        <time>2019-07-08T17:39:00.000Z</time>
      </trkpt>
      <trkpt lat="43.145502246916294097900390625" lon="-7.0257040299475193023681640625">
        <ele>879.4000244140625</ele>
        <time>2019-07-08T17:39:02.000Z</time>
      </trkpt>
      <trkpt lat="43.14550149254500865936279296875" lon="-7.0254951529204845428466796875">
        <ele>881</ele>
        <time>2019-07-08T17:39:03.000Z</time>
      </trkpt>
      <trkpt lat="43.1455154903233051300048828125" lon="-7.02528786845505237579345703125">
        <ele>882.5999755859375</ele>
        <time>2019-07-08T17:39:04.000Z</time>
      </trkpt>
      <trkpt lat="43.1455996446311473846435546875" lon="-7.0248956792056560516357421875">
        <ele>884.20001220703125</ele>
        <time>2019-07-08T17:39:06.000Z</time>
      </trkpt>
      <trkpt lat="43.1456710584461688995361328125" lon="-7.0247129537165164947509765625">
        <ele>885.4000244140625</ele>
        <time>2019-07-08T17:39:07.000Z</time>
      </trkpt>
      <trkpt lat="43.1457612477242946624755859375" lon="-7.024536766111850738525390625">
        <ele>886.5999755859375</ele>
        <time>2019-07-08T17:39:08.000Z</time>
      </trkpt>
      <trkpt lat="43.1459979526698589324951171875" lon="-7.0242261327803134918212890625">
        <ele>887.5999755859375</ele>
        <time>2019-07-08T17:39:10.000Z</time>
      </trkpt>
      <trkpt lat="43.14613348804414272308349609375" lon="-7.02409344725310802459716796875">
        <ele>888.4000244140625</ele>
        <time>2019-07-08T17:39:11.000Z</time>
      </trkpt>
      <trkpt lat="43.146538250148296356201171875" lon="-7.02372263185679912567138671875">
        <ele>888.4000244140625</ele>
        <time>2019-07-08T17:39:14.000Z</time>
      </trkpt>
      <trkpt lat="43.14687788486480712890625" lon="-7.023251987993717193603515625">
        <ele>890</ele>
        <time>2019-07-08T17:39:17.000Z</time>
      </trkpt>
      <trkpt lat="43.1470567546784877777099609375" lon="-7.0228702761232852935791015625">
        <ele>891.79998779296875</ele>
        <time>2019-07-08T17:39:19.000Z</time>
      </trkpt>
      <trkpt lat="43.1471878476440906524658203125" lon="-7.02243290841579437255859375">
        <ele>893</ele>
        <time>2019-07-08T17:39:21.000Z</time>
      </trkpt>
      <trkpt lat="43.1472398154437541961669921875" lon="-7.02219796366989612579345703125">
        <ele>894.20001220703125</ele>
        <time>2019-07-08T17:39:22.000Z</time>
      </trkpt>
      <trkpt lat="43.1472907774150371551513671875" lon="-7.021958827972412109375">
        <ele>895.5999755859375</ele>
        <time>2019-07-08T17:39:23.000Z</time>
      </trkpt>
      <trkpt lat="43.1473454274237155914306640625" lon="-7.02172136865556240081787109375">
        <ele>897.20001220703125</ele>
        <time>2019-07-08T17:39:24.000Z</time>
      </trkpt>
      <trkpt lat="43.1474103033542633056640625" lon="-7.02149304561316967010498046875">
        <ele>898.5999755859375</ele>
        <time>2019-07-08T17:39:25.000Z</time>
      </trkpt>
      <trkpt lat="43.14756880514323711395263671875" lon="-7.0210695080459117889404296875">
        <ele>899.5999755859375</ele>
        <time>2019-07-08T17:39:27.000Z</time>
      </trkpt>
      <trkpt lat="43.14782763831317424774169921875" lon="-7.02049727551639080047607421875">
        <ele>898.79998779296875</ele>
        <time>2019-07-08T17:39:30.000Z</time>
      </trkpt>
      <trkpt lat="43.1480039097368717193603515625" lon="-7.020113803446292877197265625">
        <ele>898.4000244140625</ele>
        <time>2019-07-08T17:39:32.000Z</time>
      </trkpt>
      <trkpt lat="43.1482717953622341156005859375" lon="-7.019533105194568634033203125">
        <ele>899</ele>
        <time>2019-07-08T17:39:35.000Z</time>
      </trkpt>
      <trkpt lat="43.1484474800527095794677734375" lon="-7.01914963312447071075439453125">
        <ele>897.20001220703125</ele>
        <time>2019-07-08T17:39:37.000Z</time>
      </trkpt>
      <trkpt lat="43.1485329754650592803955078125" lon="-7.01896221376955509185791015625">
        <ele>896</ele>
        <time>2019-07-08T17:39:38.000Z</time>
      </trkpt>
      <trkpt lat="43.1487715244293212890625" lon="-7.0184359140694141387939453125">
        <ele>895.4000244140625</ele>
        <time>2019-07-08T17:39:41.000Z</time>
      </trkpt>
      <trkpt lat="43.1490075588226318359375" lon="-7.01795035041868686676025390625">
        <ele>897</ele>
        <time>2019-07-08T17:39:44.000Z</time>
      </trkpt>
      <trkpt lat="43.1491810642182826995849609375" lon="-7.0176433213055133819580078125">
        <ele>898.5999755859375</ele>
        <time>2019-07-08T17:39:46.000Z</time>
      </trkpt>
      <trkpt lat="43.149374686181545257568359375" lon="-7.01737250201404094696044921875">
        <ele>900.79998779296875</ele>
        <time>2019-07-08T17:39:48.000Z</time>
      </trkpt>
      <trkpt lat="43.1495545618236064910888671875" lon="-7.0171471126377582550048828125">
        <ele>902.5999755859375</ele>
        <time>2019-07-08T17:39:50.000Z</time>
      </trkpt>
      <trkpt lat="43.14963527955114841461181640625" lon="-7.0170463621616363525390625">
        <ele>904.20001220703125</ele>
        <time>2019-07-08T17:39:51.000Z</time>
      </trkpt>
      <trkpt lat="43.1497091241180896759033203125" lon="-7.01695240102708339691162109375">
        <ele>905.4000244140625</ele>
        <time>2019-07-08T17:39:52.000Z</time>
      </trkpt>
      <trkpt lat="43.149845413863658905029296875" lon="-7.01678417623043060302734375">
        <ele>907</ele>
        <time>2019-07-08T17:39:54.000Z</time>
      </trkpt>
      <trkpt lat="43.149906434118747711181640625" lon="-7.01671016402542591094970703125">
        <ele>908.20001220703125</ele>
        <time>2019-07-08T17:39:55.000Z</time>
      </trkpt>
      <trkpt lat="43.14996183849871158599853515625" lon="-7.01664738357067108154296875">
        <ele>909.20001220703125</ele>
        <time>2019-07-08T17:39:56.000Z</time>
      </trkpt>
      <trkpt lat="43.1500172428786754608154296875" lon="-7.01660446822643280029296875">
        <ele>910</ele>
        <time>2019-07-08T17:39:57.000Z</time>
      </trkpt>
      <trkpt lat="43.15007415600121021270751953125" lon="-7.0165955834090709686279296875">
        <ele>910.5999755859375</ele>
        <time>2019-07-08T17:39:58.000Z</time>
      </trkpt>
      <trkpt lat="43.15012780018150806427001953125" lon="-7.0166240818798542022705078125">
        <ele>911.20001220703125</ele>
        <time>2019-07-08T17:39:59.000Z</time>
      </trkpt>
      <trkpt lat="43.15017557702958583831787109375" lon="-7.01668359339237213134765625">
        <ele>912</ele>
        <time>2019-07-08T17:40:00.000Z</time>
      </trkpt>
      <trkpt lat="43.15023089759051799774169921875" lon="-7.01675827614963054656982421875">
        <ele>913</ele>
        <time>2019-07-08T17:40:01.000Z</time>
      </trkpt>
      <trkpt lat="43.1502992101013660430908203125" lon="-7.01683019287884235382080078125">
        <ele>913.79998779296875</ele>
        <time>2019-07-08T17:40:02.000Z</time>
      </trkpt>
      <trkpt lat="43.15038529224693775177001953125" lon="-7.01688936911523342132568359375">
        <ele>914.79998779296875</ele>
        <time>2019-07-08T17:40:03.000Z</time>
      </trkpt>
      <trkpt lat="43.1504869647324085235595703125" lon="-7.016928009688854217529296875">
        <ele>915.20001220703125</ele>
        <time>2019-07-08T17:40:04.000Z</time>
      </trkpt>
      <trkpt lat="43.15072945319116115570068359375" lon="-7.0169482938945293426513671875">
        <ele>915</ele>
        <time>2019-07-08T17:40:06.000Z</time>
      </trkpt>
      <trkpt lat="43.15098694525659084320068359375" lon="-7.01692105270922183990478515625">
        <ele>913.5999755859375</ele>
        <time>2019-07-08T17:40:08.000Z</time>
      </trkpt>
      <trkpt lat="43.1512413360178470611572265625" lon="-7.01691091060638427734375">
        <ele>911.20001220703125</ele>
        <time>2019-07-08T17:40:10.000Z</time>
      </trkpt>
      <trkpt lat="43.15136748366057872772216796875" lon="-7.01693245209753513336181640625">
        <ele>909.5999755859375</ele>
        <time>2019-07-08T17:40:11.000Z</time>
      </trkpt>
      <trkpt lat="43.15149120055139064788818359375" lon="-7.01697737909853458404541015625">
        <ele>908</ele>
        <time>2019-07-08T17:40:12.000Z</time>
      </trkpt>
      <trkpt lat="43.1517338566482067108154296875" lon="-7.017149962484836578369140625">
        <ele>906.20001220703125</ele>
        <time>2019-07-08T17:40:14.000Z</time>
      </trkpt>
      <trkpt lat="43.1519615091383457183837890625" lon="-7.01739706099033355712890625">
        <ele>905</ele>
        <time>2019-07-08T17:40:16.000Z</time>
      </trkpt>
      <trkpt lat="43.15232134424149990081787109375" lon="-7.017809785902500152587890625">
        <ele>903.79998779296875</ele>
        <time>2019-07-08T17:40:19.000Z</time>
      </trkpt>
      <trkpt lat="43.15257514826953411102294921875" lon="-7.01810155995190143585205078125">
        <ele>902.4000244140625</ele>
        <time>2019-07-08T17:40:21.000Z</time>
      </trkpt>
      <trkpt lat="43.15270473249256610870361328125" lon="-7.01825042255222797393798828125">
        <ele>901.20001220703125</ele>
        <time>2019-07-08T17:40:22.000Z</time>
      </trkpt>
      <trkpt lat="43.15308476798236370086669921875" lon="-7.01869256794452667236328125">
        <ele>900.20001220703125</ele>
        <time>2019-07-08T17:40:25.000Z</time>
      </trkpt>
      <trkpt lat="43.1532092392444610595703125" lon="-7.01884151436388492584228515625">
        <ele>900</ele>
        <time>2019-07-08T17:40:26.000Z</time>
      </trkpt>
      <trkpt lat="43.1534598581492900848388671875" lon="-7.01913538388907909393310546875">
        <ele>901.20001220703125</ele>
        <time>2019-07-08T17:40:28.000Z</time>
      </trkpt>
      <trkpt lat="43.1538403965532779693603515625" lon="-7.0195647887885570526123046875">
        <ele>900.79998779296875</ele>
        <time>2019-07-08T17:40:31.000Z</time>
      </trkpt>
      <trkpt lat="43.15409059636294841766357421875" lon="-7.0198491029441356658935546875">
        <ele>899.20001220703125</ele>
        <time>2019-07-08T17:40:33.000Z</time>
      </trkpt>
      <trkpt lat="43.15421263687312602996826171875" lon="-7.01997726224362850189208984375">
        <ele>898</ele>
        <time>2019-07-08T17:40:34.000Z</time>
      </trkpt>
      <trkpt lat="43.154335431754589080810546875" lon="-7.02008388005197048187255859375">
        <ele>896.5999755859375</ele>
        <time>2019-07-08T17:40:35.000Z</time>
      </trkpt>
      <trkpt lat="43.15446090884506702423095703125" lon="-7.02016736380755901336669921875">
        <ele>895.20001220703125</ele>
        <time>2019-07-08T17:40:36.000Z</time>
      </trkpt>
      <trkpt lat="43.1545887328684329986572265625" lon="-7.02022754587233066558837890625">
        <ele>894.5999755859375</ele>
        <time>2019-07-08T17:40:37.000Z</time>
      </trkpt>
      <trkpt lat="43.154723681509494781494140625" lon="-7.02026258222758769989013671875">
        <ele>894.20001220703125</ele>
        <time>2019-07-08T17:40:38.000Z</time>
      </trkpt>
      <trkpt lat="43.15486592240631580352783203125" lon="-7.02026643790304660797119140625">
        <ele>893.79998779296875</ele>
        <time>2019-07-08T17:40:39.000Z</time>
      </trkpt>
      <trkpt lat="43.155155517160892486572265625" lon="-7.02017054893076419830322265625">
        <ele>893.79998779296875</ele>
        <time>2019-07-08T17:40:41.000Z</time>
      </trkpt>
      <trkpt lat="43.155434131622314453125" lon="-7.01993870548903942108154296875">
        <ele>894.79998779296875</ele>
        <time>2019-07-08T17:40:43.000Z</time>
      </trkpt>
      <trkpt lat="43.15584174357354640960693359375" lon="-7.0194913633167743682861328125">
        <ele>894.5999755859375</ele>
        <time>2019-07-08T17:40:46.000Z</time>
      </trkpt>
      <trkpt lat="43.1562758423388004302978515625" lon="-7.01901351101696491241455078125">
        <ele>891.4000244140625</ele>
        <time>2019-07-08T17:40:49.000Z</time>
      </trkpt>
      <trkpt lat="43.15642143599689006805419921875" lon="-7.01884654350578784942626953125">
        <ele>889.5999755859375</ele>
        <time>2019-07-08T17:40:50.000Z</time>
      </trkpt>
      <trkpt lat="43.15656811930239200592041015625" lon="-7.018680833280086517333984375">
        <ele>887.4000244140625</ele>
        <time>2019-07-08T17:40:51.000Z</time>
      </trkpt>
      <trkpt lat="43.15672083757817745208740234375" lon="-7.01852166093885898590087890625">
        <ele>885.5999755859375</ele>
        <time>2019-07-08T17:40:52.000Z</time>
      </trkpt>
      <trkpt lat="43.15688529051840305328369140625" lon="-7.01838084496557712554931640625">
        <ele>884.4000244140625</ele>
        <time>2019-07-08T17:40:53.000Z</time>
      </trkpt>
      <trkpt lat="43.1570613943040370941162109375" lon="-7.01826618053019046783447265625">
        <ele>882.4000244140625</ele>
        <time>2019-07-08T17:40:54.000Z</time>
      </trkpt>
      <trkpt lat="43.15724126994609832763671875" lon="-7.0181723870337009429931640625">
        <ele>881.4000244140625</ele>
        <time>2019-07-08T17:40:55.000Z</time>
      </trkpt>
      <trkpt lat="43.1577684916555881500244140625" lon="-7.01791699044406414031982421875">
        <ele>880.20001220703125</ele>
        <time>2019-07-08T17:40:58.000Z</time>
      </trkpt>
      <trkpt lat="43.1582920253276824951171875" lon="-7.01770727522671222686767578125">
        <ele>881.79998779296875</ele>
        <time>2019-07-08T17:41:01.000Z</time>
      </trkpt>
      <trkpt lat="43.15865454263985157012939453125" lon="-7.01759780757129192352294921875">
        <ele>883.20001220703125</ele>
        <time>2019-07-08T17:41:03.000Z</time>
      </trkpt>
      <trkpt lat="43.15900691784918308258056640625" lon="-7.017520777881145477294921875">
        <ele>883</ele>
        <time>2019-07-08T17:41:05.000Z</time>
      </trkpt>
      <trkpt lat="43.159539587795734405517578125" lon="-7.01751231215894222259521484375">
        <ele>882.20001220703125</ele>
        <time>2019-07-08T17:41:08.000Z</time>
      </trkpt>
      <trkpt lat="43.15971351228654384613037109375" lon="-7.01749035157263278961181640625">
        <ele>881.4000244140625</ele>
        <time>2019-07-08T17:41:09.000Z</time>
      </trkpt>
      <trkpt lat="43.15988332964479923248291015625" lon="-7.017440982162952423095703125">
        <ele>880.20001220703125</ele>
        <time>2019-07-08T17:41:10.000Z</time>
      </trkpt>
      <trkpt lat="43.1600430049002170562744140625" lon="-7.01735909096896648406982421875">
        <ele>878.4000244140625</ele>
        <time>2019-07-08T17:41:11.000Z</time>
      </trkpt>
      <trkpt lat="43.1603305041790008544921875" lon="-7.0171053707599639892578125">
        <ele>877.20001220703125</ele>
        <time>2019-07-08T17:41:13.000Z</time>
      </trkpt>
      <trkpt lat="43.160467632114887237548828125" lon="-7.0169503055512905120849609375">
        <ele>875.79998779296875</ele>
        <time>2019-07-08T17:41:14.000Z</time>
      </trkpt>
      <trkpt lat="43.1606052629649639129638671875" lon="-7.01679331250488758087158203125">
        <ele>873.79998779296875</ele>
        <time>2019-07-08T17:41:15.000Z</time>
      </trkpt>
      <trkpt lat="43.16074867732822895050048828125" lon="-7.01664947904646396636962890625">
        <ele>871</ele>
        <time>2019-07-08T17:41:16.000Z</time>
      </trkpt>
      <trkpt lat="43.16090022213757038116455078125" lon="-7.01652995310723781585693359375">
        <ele>868</ele>
        <time>2019-07-08T17:41:17.000Z</time>
      </trkpt>
      <trkpt lat="43.1610585562884807586669921875" lon="-7.01644261367619037628173828125">
        <ele>863.79998779296875</ele>
        <time>2019-07-08T17:41:18.000Z</time>
      </trkpt>
      <trkpt lat="43.16122300922870635986328125" lon="-7.016387879848480224609375">
        <ele>860.20001220703125</ele>
        <time>2019-07-08T17:41:19.000Z</time>
      </trkpt>
      <trkpt lat="43.1613934971392154693603515625" lon="-7.01636516489088535308837890625">
        <ele>856.5999755859375</ele>
        <time>2019-07-08T17:41:20.000Z</time>
      </trkpt>
      <trkpt lat="43.16157144494354724884033203125" lon="-7.01637304387986660003662109375">
        <ele>854.20001220703125</ele>
        <time>2019-07-08T17:41:21.000Z</time>
      </trkpt>
      <trkpt lat="43.16175199113786220550537109375" lon="-7.0164118520915508270263671875">
        <ele>852.79998779296875</ele>
        <time>2019-07-08T17:41:22.000Z</time>
      </trkpt>
      <trkpt lat="43.16192834638059139251708984375" lon="-7.01647144742310047149658203125">
        <ele>851.4000244140625</ele>
        <time>2019-07-08T17:41:23.000Z</time>
      </trkpt>
      <trkpt lat="43.16210336051881313323974609375" lon="-7.0165352337062358856201171875">
        <ele>850</ele>
        <time>2019-07-08T17:41:24.000Z</time>
      </trkpt>
      <trkpt lat="43.16228424198925495147705078125" lon="-7.016585357487201690673828125">
        <ele>848.5999755859375</ele>
        <time>2019-07-08T17:41:25.000Z</time>
      </trkpt>
      <trkpt lat="43.16248155198991298675537109375" lon="-7.01661326922476291656494140625">
        <ele>847.4000244140625</ele>
        <time>2019-07-08T17:41:26.000Z</time>
      </trkpt>
      <trkpt lat="43.1629635952413082122802734375" lon="-7.01659508049488067626953125">
        <ele>846.4000244140625</ele>
        <time>2019-07-08T17:41:28.000Z</time>
      </trkpt>
      <trkpt lat="43.16324128769338130950927734375" lon="-7.0165405981242656707763671875">
        <ele>846</ele>
        <time>2019-07-08T17:41:29.000Z</time>
      </trkpt>
      <trkpt lat="43.1635344028472900390625" lon="-7.01647044159471988677978515625">
        <ele>844.79998779296875</ele>
        <time>2019-07-08T17:41:30.000Z</time>
      </trkpt>
      <trkpt lat="43.16383187659084796905517578125" lon="-7.0164001174271106719970703125">
        <ele>841.4000244140625</ele>
        <time>2019-07-08T17:41:31.000Z</time>
      </trkpt>
      <trkpt lat="43.1641231477260589599609375" lon="-7.01634052209556102752685546875">
        <ele>835.20001220703125</ele>
        <time>2019-07-08T17:41:32.000Z</time>
      </trkpt>
      <trkpt lat="43.164406456053256988525390625" lon="-7.016288973391056060791015625">
        <ele>830.5999755859375</ele>
        <time>2019-07-08T17:41:33.000Z</time>
      </trkpt>
      <trkpt lat="43.164682053029537200927734375" lon="-7.0162416994571685791015625">
        <ele>826.79998779296875</ele>
        <time>2019-07-08T17:41:34.000Z</time>
      </trkpt>
      <trkpt lat="43.16494968719780445098876953125" lon="-7.01619811356067657470703125">
        <ele>824.4000244140625</ele>
        <time>2019-07-08T17:41:35.000Z</time>
      </trkpt>
      <trkpt lat="43.16547774709761142730712890625" lon="-7.01611496508121490478515625">
        <ele>823.79998779296875</ele>
        <time>2019-07-08T17:41:37.000Z</time>
      </trkpt>
      <trkpt lat="43.1659953296184539794921875" lon="-7.01604254543781280517578125">
        <ele>824.5999755859375</ele>
        <time>2019-07-08T17:41:39.000Z</time>
      </trkpt>
      <trkpt lat="43.1664980761706829071044921875" lon="-7.01596476137638092041015625">
        <ele>826.5999755859375</ele>
        <time>2019-07-08T17:41:41.000Z</time>
      </trkpt>
      <trkpt lat="43.166739642620086669921875" lon="-7.0159267075359821319580078125">
        <ele>828</ele>
        <time>2019-07-08T17:41:42.000Z</time>
      </trkpt>
      <trkpt lat="43.16697509028017520904541015625" lon="-7.01588940806686878204345703125">
        <ele>829.4000244140625</ele>
        <time>2019-07-08T17:41:43.000Z</time>
      </trkpt>
      <trkpt lat="43.1672055087983608245849609375" lon="-7.0158526115119457244873046875">
        <ele>830.5999755859375</ele>
        <time>2019-07-08T17:41:44.000Z</time>
      </trkpt>
      <trkpt lat="43.16765352152287960052490234375" lon="-7.015789411962032318115234375">
        <ele>831.79998779296875</ele>
        <time>2019-07-08T17:41:46.000Z</time>
      </trkpt>
      <trkpt lat="43.1683219783008098602294921875" lon="-7.0157573930919170379638671875">
        <ele>832.20001220703125</ele>
        <time>2019-07-08T17:41:49.000Z</time>
      </trkpt>
      <trkpt lat="43.1687769480049610137939453125" lon="-7.0158291421830654144287109375">
        <ele>833.20001220703125</ele>
        <time>2019-07-08T17:41:51.000Z</time>
      </trkpt>
      <trkpt lat="43.1692426465451717376708984375" lon="-7.01599401421844959259033203125">
        <ele>831.5999755859375</ele>
        <time>2019-07-08T17:41:53.000Z</time>
      </trkpt>
      <trkpt lat="43.1697120331227779388427734375" lon="-7.01627095229923725128173828125">
        <ele>831</ele>
        <time>2019-07-08T17:41:55.000Z</time>
      </trkpt>
      <trkpt lat="43.169940523803234100341796875" lon="-7.01644680462777614593505859375">
        <ele>829.4000244140625</ele>
        <time>2019-07-08T17:41:56.000Z</time>
      </trkpt>
      <trkpt lat="43.17016406916081905364990234375" lon="-7.01665140688419342041015625">
        <ele>827.4000244140625</ele>
        <time>2019-07-08T17:41:57.000Z</time>
      </trkpt>
      <trkpt lat="43.17037981934845447540283203125" lon="-7.0168819092214107513427734375">
        <ele>825.79998779296875</ele>
        <time>2019-07-08T17:41:58.000Z</time>
      </trkpt>
      <trkpt lat="43.1705871038138866424560546875" lon="-7.017137892544269561767578125">
        <ele>824.5999755859375</ele>
        <time>2019-07-08T17:41:59.000Z</time>
      </trkpt>
      <trkpt lat="43.1709800474345684051513671875" lon="-7.01769185252487659454345703125">
        <ele>823.5999755859375</ele>
        <time>2019-07-08T17:42:01.000Z</time>
      </trkpt>
      <trkpt lat="43.17117006517946720123291015625" lon="-7.0179759152233600616455078125">
        <ele>823</ele>
        <time>2019-07-08T17:42:02.000Z</time>
      </trkpt>
      <trkpt lat="43.17154322750866413116455078125" lon="-7.018544711172580718994140625">
        <ele>822.5999755859375</ele>
        <time>2019-07-08T17:42:04.000Z</time>
      </trkpt>
      <trkpt lat="43.17172829993069171905517578125" lon="-7.01882793568074703216552734375">
        <ele>821.79998779296875</ele>
        <time>2019-07-08T17:42:05.000Z</time>
      </trkpt>
      <trkpt lat="43.1719117797911167144775390625" lon="-7.01910822652280330657958984375">
        <ele>820.20001220703125</ele>
        <time>2019-07-08T17:42:06.000Z</time>
      </trkpt>
      <trkpt lat="43.17227614112198352813720703125" lon="-7.01966159977018833160400390625">
        <ele>818</ele>
        <time>2019-07-08T17:42:08.000Z</time>
      </trkpt>
      <trkpt lat="43.17263153381645679473876953125" lon="-7.0202033221721649169921875">
        <ele>818</ele>
        <time>2019-07-08T17:42:10.000Z</time>
      </trkpt>
      <trkpt lat="43.17296043969690799713134765625" lon="-7.020699195563793182373046875">
        <ele>818.4000244140625</ele>
        <time>2019-07-08T17:42:12.000Z</time>
      </trkpt>
      <trkpt lat="43.17311852239072322845458984375" lon="-7.02093615196645259857177734375">
        <ele>819.4000244140625</ele>
        <time>2019-07-08T17:42:13.000Z</time>
      </trkpt>
      <trkpt lat="43.1734384596347808837890625" lon="-7.02142297290265560150146484375">
        <ele>820.4000244140625</ele>
        <time>2019-07-08T17:42:15.000Z</time>
      </trkpt>
      <trkpt lat="43.1736019067466259002685546875" lon="-7.021670155227184295654296875">
        <ele>820.5999755859375</ele>
        <time>2019-07-08T17:42:16.000Z</time>
      </trkpt>
      <trkpt lat="43.173947744071483612060546875" lon="-7.0222127996385097503662109375">
        <ele>821.4000244140625</ele>
        <time>2019-07-08T17:42:18.000Z</time>
      </trkpt>
      <trkpt lat="43.17432031966745853424072265625" lon="-7.022809088230133056640625">
        <ele>820.5999755859375</ele>
        <time>2019-07-08T17:42:20.000Z</time>
      </trkpt>
      <trkpt lat="43.17450941540300846099853515625" lon="-7.0231016166508197784423828125">
        <ele>819.5999755859375</ele>
        <time>2019-07-08T17:42:21.000Z</time>
      </trkpt>
      <trkpt lat="43.17469482310116291046142578125" lon="-7.0233795605599880218505859375">
        <ele>816.5999755859375</ele>
        <time>2019-07-08T17:42:22.000Z</time>
      </trkpt>
      <trkpt lat="43.17487503401935100555419921875" lon="-7.023643590509891510009765625">
        <ele>812.5999755859375</ele>
        <time>2019-07-08T17:42:23.000Z</time>
      </trkpt>
      <trkpt lat="43.17504845559597015380859375" lon="-7.02389814890921115875244140625">
        <ele>806.79998779296875</ele>
        <time>2019-07-08T17:42:24.000Z</time>
      </trkpt>
      <trkpt lat="43.1752172671258449554443359375" lon="-7.02414642088115215301513671875">
        <ele>804</ele>
        <time>2019-07-08T17:42:25.000Z</time>
      </trkpt>
      <trkpt lat="43.17538197152316570281982421875" lon="-7.024388574063777923583984375">
        <ele>802.5999755859375</ele>
        <time>2019-07-08T17:42:26.000Z</time>
      </trkpt>
      <trkpt lat="43.175542317330837249755859375" lon="-7.02461949549615383148193359375">
        <ele>803.79998779296875</ele>
        <time>2019-07-08T17:42:27.000Z</time>
      </trkpt>
      <trkpt lat="43.17597708664834499359130859375" lon="-7.02525383792817592620849609375">
        <ele>805.79998779296875</ele>
        <time>2019-07-08T17:42:30.000Z</time>
      </trkpt>
      <trkpt lat="43.17610784433782100677490234375" lon="-7.02544544823467731475830078125">
        <ele>807.20001220703125</ele>
        <time>2019-07-08T17:42:31.000Z</time>
      </trkpt>
      <trkpt lat="43.17635930143296718597412109375" lon="-7.02581844292581081390380859375">
        <ele>808.4000244140625</ele>
        <time>2019-07-08T17:42:33.000Z</time>
      </trkpt>
      <trkpt lat="43.1767308712005615234375" lon="-7.0263618417084217071533203125">
        <ele>809.20001220703125</ele>
        <time>2019-07-08T17:42:36.000Z</time>
      </trkpt>
      <trkpt lat="43.176859281957149505615234375" lon="-7.02652989886701107025146484375">
        <ele>809.79998779296875</ele>
        <time>2019-07-08T17:42:37.000Z</time>
      </trkpt>
      <trkpt lat="43.17699414677917957305908203125" lon="-7.02667926438152790069580078125">
        <ele>810.20001220703125</ele>
        <time>2019-07-08T17:42:38.000Z</time>
      </trkpt>
      <trkpt lat="43.17729078233242034912109375" lon="-7.02692099846899509429931640625">
        <ele>811.5999755859375</ele>
        <time>2019-07-08T17:42:40.000Z</time>
      </trkpt>
      <trkpt lat="43.177817501127719879150390625" lon="-7.027159631252288818359375">
        <ele>811.79998779296875</ele>
        <time>2019-07-08T17:42:43.000Z</time>
      </trkpt>
      <trkpt lat="43.17841219715774059295654296875" lon="-7.027340345084667205810546875">
        <ele>811.20001220703125</ele>
        <time>2019-07-08T17:42:46.000Z</time>
      </trkpt>
      <trkpt lat="43.1786357425153255462646484375" lon="-7.02738636173307895660400390625">
        <ele>810.5999755859375</ele>
        <time>2019-07-08T17:42:47.000Z</time>
      </trkpt>
      <trkpt lat="43.1788687594234943389892578125" lon="-7.027416117489337921142578125">
        <ele>809.79998779296875</ele>
        <time>2019-07-08T17:42:48.000Z</time>
      </trkpt>
      <trkpt lat="43.1791064701974391937255859375" lon="-7.027438245713710784912109375">
        <ele>808.5999755859375</ele>
        <time>2019-07-08T17:42:49.000Z</time>
      </trkpt>
      <trkpt lat="43.1795751862227916717529296875" lon="-7.02749021351337432861328125">
        <ele>807.5999755859375</ele>
        <time>2019-07-08T17:42:51.000Z</time>
      </trkpt>
      <trkpt lat="43.18003493361175060272216796875" lon="-7.027547545731067657470703125">
        <ele>808.4000244140625</ele>
        <time>2019-07-08T17:42:53.000Z</time>
      </trkpt>
      <trkpt lat="43.1802621670067310333251953125" lon="-7.02757596038281917572021484375">
        <ele>810.20001220703125</ele>
        <time>2019-07-08T17:42:54.000Z</time>
      </trkpt>
      <trkpt lat="43.1804878078401088714599609375" lon="-7.02760554850101470947265625">
        <ele>812.79998779296875</ele>
        <time>2019-07-08T17:42:55.000Z</time>
      </trkpt>
      <trkpt lat="43.18071353249251842498779296875" lon="-7.027636058628559112548828125">
        <ele>814.4000244140625</ele>
        <time>2019-07-08T17:42:56.000Z</time>
      </trkpt>
      <trkpt lat="43.18115693517029285430908203125" lon="-7.02770051546394824981689453125">
        <ele>816</ele>
        <time>2019-07-08T17:42:58.000Z</time>
      </trkpt>
      <trkpt lat="43.1818034313619136810302734375" lon="-7.02779456041753292083740234375">
        <ele>817.20001220703125</ele>
        <time>2019-07-08T17:43:01.000Z</time>
      </trkpt>
      <trkpt lat="43.1824293918907642364501953125" lon="-7.02788122929632663726806640625">
        <ele>817.79998779296875</ele>
        <time>2019-07-08T17:43:04.000Z</time>
      </trkpt>
      <trkpt lat="43.18263550288975238800048828125" lon="-7.02788894064724445343017578125">
        <ele>818.20001220703125</ele>
        <time>2019-07-08T17:43:05.000Z</time>
      </trkpt>
      <trkpt lat="43.18324419669806957244873046875" lon="-7.02779975719749927520751953125">
        <ele>818.79998779296875</ele>
        <time>2019-07-08T17:43:08.000Z</time>
      </trkpt>
      <trkpt lat="43.1836400739848613739013671875" lon="-7.02765843831002712249755859375">
        <ele>819.4000244140625</ele>
        <time>2019-07-08T17:43:10.000Z</time>
      </trkpt>
      <trkpt lat="43.1838311813771724700927734375" lon="-7.0275483839213848114013671875">
        <ele>820.5999755859375</ele>
        <time>2019-07-08T17:43:11.000Z</time>
      </trkpt>
      <trkpt lat="43.18440207280218601226806640625" lon="-7.02716298401355743408203125">
        <ele>821.4000244140625</ele>
        <time>2019-07-08T17:43:14.000Z</time>
      </trkpt>
      <trkpt lat="43.18477414548397064208984375" lon="-7.0269133709371089935302734375">
        <ele>821.5999755859375</ele>
        <time>2019-07-08T17:43:16.000Z</time>
      </trkpt>
      <trkpt lat="43.18494957871735095977783203125" lon="-7.02679493464529514312744140625">
        <ele>820.20001220703125</ele>
        <time>2019-07-08T17:43:17.000Z</time>
      </trkpt>
      <trkpt lat="43.185114450752735137939453125" lon="-7.0266820304095745086669921875">
        <ele>818.4000244140625</ele>
        <time>2019-07-08T17:43:18.000Z</time>
      </trkpt>
      <trkpt lat="43.18554100580513477325439453125" lon="-7.02633812092244625091552734375">
        <ele>820.4000244140625</ele>
        <time>2019-07-08T17:43:21.000Z</time>
      </trkpt>
      <trkpt lat="43.1856560893356800079345703125" lon="-7.02618724666535854339599609375">
        <ele>822.5999755859375</ele>
        <time>2019-07-08T17:43:22.000Z</time>
      </trkpt>
      <trkpt lat="43.18575315177440643310546875" lon="-7.026012651622295379638671875">
        <ele>824</ele>
        <time>2019-07-08T17:43:23.000Z</time>
      </trkpt>
      <trkpt lat="43.18583118729293346405029296875" lon="-7.02581492252647876739501953125">
        <ele>826</ele>
        <time>2019-07-08T17:43:24.000Z</time>
      </trkpt>
      <trkpt lat="43.1858892738819122314453125" lon="-7.02559816651046276092529296875">
        <ele>827.5999755859375</ele>
        <time>2019-07-08T17:43:25.000Z</time>
      </trkpt>
      <trkpt lat="43.18593445234000682830810546875" lon="-7.02509508468210697174072265625">
        <ele>828.79998779296875</ele>
        <time>2019-07-08T17:43:27.000Z</time>
      </trkpt>
      <trkpt lat="43.18599044345319271087646484375" lon="-7.024564929306507110595703125">
        <ele>828.20001220703125</ele>
        <time>2019-07-08T17:43:29.000Z</time>
      </trkpt>
      <trkpt lat="43.18605565465986728668212890625" lon="-7.024298720061779022216796875">
        <ele>825.79998779296875</ele>
        <time>2019-07-08T17:43:30.000Z</time>
      </trkpt>
      <trkpt lat="43.18613897077739238739013671875" lon="-7.02403150498867034912109375">
        <ele>823.79998779296875</ele>
        <time>2019-07-08T17:43:31.000Z</time>
      </trkpt>
      <trkpt lat="43.1862287409603595733642578125" lon="-7.02376387082040309906005859375">
        <ele>821</ele>
        <time>2019-07-08T17:43:32.000Z</time>
      </trkpt>
      <trkpt lat="43.1863212771713733673095703125" lon="-7.0234962366521358489990234375">
        <ele>818.5999755859375</ele>
        <time>2019-07-08T17:43:33.000Z</time>
      </trkpt>
      <trkpt lat="43.1864154897630214691162109375" lon="-7.023228518664836883544921875">
        <ele>816.79998779296875</ele>
        <time>2019-07-08T17:43:34.000Z</time>
      </trkpt>
      <trkpt lat="43.1865194253623485565185546875" lon="-7.02296708710491657257080078125">
        <ele>816</ele>
        <time>2019-07-08T17:43:35.000Z</time>
      </trkpt>
      <trkpt lat="43.18664632737636566162109375" lon="-7.02272124588489532470703125">
        <ele>815.5999755859375</ele>
        <time>2019-07-08T17:43:36.000Z</time>
      </trkpt>
      <trkpt lat="43.1868010573089122772216796875" lon="-7.0224977843463420867919921875">
        <ele>814.5999755859375</ele>
        <time>2019-07-08T17:43:37.000Z</time>
      </trkpt>
      <trkpt lat="43.18698151968419551849365234375" lon="-7.02229552902281284332275390625">
        <ele>812.5999755859375</ele>
        <time>2019-07-08T17:43:38.000Z</time>
      </trkpt>
      <trkpt lat="43.18739466369152069091796875" lon="-7.021886408329010009765625">
        <ele>811.5999755859375</ele>
        <time>2019-07-08T17:43:40.000Z</time>
      </trkpt>
      <trkpt lat="43.1876231543719768524169921875" lon="-7.0216579176485538482666015625">
        <ele>810</ele>
        <time>2019-07-08T17:43:41.000Z</time>
      </trkpt>
      <trkpt lat="43.18785809911787509918212890625" lon="-7.0214252360165119171142578125">
        <ele>808.5999755859375</ele>
        <time>2019-07-08T17:43:42.000Z</time>
      </trkpt>
      <trkpt lat="43.18808776326477527618408203125" lon="-7.0212019421160221099853515625">
        <ele>806.5999755859375</ele>
        <time>2019-07-08T17:43:43.000Z</time>
      </trkpt>
      <trkpt lat="43.1883044354617595672607421875" lon="-7.02099046669900417327880859375">
        <ele>805.20001220703125</ele>
        <time>2019-07-08T17:43:44.000Z</time>
      </trkpt>
      <trkpt lat="43.18850778043270111083984375" lon="-7.02079005539417266845703125">
        <ele>803.5999755859375</ele>
        <time>2019-07-08T17:43:45.000Z</time>
      </trkpt>
      <trkpt lat="43.1888811103999614715576171875" lon="-7.02041446231305599212646484375">
        <ele>802.4000244140625</ele>
        <time>2019-07-08T17:43:47.000Z</time>
      </trkpt>
      <trkpt lat="43.18905905820429325103759765625" lon="-7.0202381908893585205078125">
        <ele>804.5999755859375</ele>
        <time>2019-07-08T17:43:48.000Z</time>
      </trkpt>
      <trkpt lat="43.1892361678183078765869140625" lon="-7.02007164247334003448486328125">
        <ele>806.5999755859375</ele>
        <time>2019-07-08T17:43:49.000Z</time>
      </trkpt>
      <trkpt lat="43.1894185580313205718994140625" lon="-7.01992143876850605010986328125">
        <ele>809.20001220703125</ele>
        <time>2019-07-08T17:43:50.000Z</time>
      </trkpt>
      <trkpt lat="43.18961226381361484527587890625" lon="-7.01979688368737697601318359375">
        <ele>810.79998779296875</ele>
        <time>2019-07-08T17:43:51.000Z</time>
      </trkpt>
      <trkpt lat="43.19003219716250896453857421875" lon="-7.019610889256000518798828125">
        <ele>812</ele>
        <time>2019-07-08T17:43:53.000Z</time>
      </trkpt>
      <trkpt lat="43.19047543220221996307373046875" lon="-7.01945238746702671051025390625">
        <ele>811.20001220703125</ele>
        <time>2019-07-08T17:43:55.000Z</time>
      </trkpt>
      <trkpt lat="43.1906999833881855010986328125" lon="-7.0193723402917385101318359375">
        <ele>809.5999755859375</ele>
        <time>2019-07-08T17:43:56.000Z</time>
      </trkpt>
      <trkpt lat="43.19092269055545330047607421875" lon="-7.01929195784032344818115234375">
        <ele>806.5999755859375</ele>
        <time>2019-07-08T17:43:57.000Z</time>
      </trkpt>
      <trkpt lat="43.19113844074308872222900390625" lon="-7.01921425759792327880859375">
        <ele>803</ele>
        <time>2019-07-08T17:43:58.000Z</time>
      </trkpt>
      <trkpt lat="43.1913463957607746124267578125" lon="-7.01913856901228427886962890625">
        <ele>800</ele>
        <time>2019-07-08T17:43:59.000Z</time>
      </trkpt>
      <trkpt lat="43.1915502436459064483642578125" lon="-7.019063718616962432861328125">
        <ele>798.20001220703125</ele>
        <time>2019-07-08T17:44:00.000Z</time>
      </trkpt>
      <trkpt lat="43.19175350479781627655029296875" lon="-7.01898895204067230224609375">
        <ele>796.4000244140625</ele>
        <time>2019-07-08T17:44:01.000Z</time>
      </trkpt>
      <trkpt lat="43.1919569335877895355224609375" lon="-7.0189167000353336334228515625">
        <ele>794.5999755859375</ele>
        <time>2019-07-08T17:44:02.000Z</time>
      </trkpt>
      <trkpt lat="43.19215700961649417877197265625" lon="-7.01884545385837554931640625">
        <ele>792.5999755859375</ele>
        <time>2019-07-08T17:44:03.000Z</time>
      </trkpt>
      <trkpt lat="43.19235364906489849090576171875" lon="-7.01877412386238574981689453125">
        <ele>791</ele>
        <time>2019-07-08T17:44:04.000Z</time>
      </trkpt>
      <trkpt lat="43.19254140369594097137451171875" lon="-7.0187111757695674896240234375">
        <ele>789.20001220703125</ele>
        <time>2019-07-08T17:44:05.000Z</time>
      </trkpt>
      <trkpt lat="43.19292076863348484039306640625" lon="-7.01862593181431293487548828125">
        <ele>787.79998779296875</ele>
        <time>2019-07-08T17:44:07.000Z</time>
      </trkpt>
      <trkpt lat="43.19330918602645397186279296875" lon="-7.01865635812282562255859375">
        <ele>787.20001220703125</ele>
        <time>2019-07-08T17:44:09.000Z</time>
      </trkpt>
      <trkpt lat="43.1936886347830295562744140625" lon="-7.01883112080395221710205078125">
        <ele>789</ele>
        <time>2019-07-08T17:44:11.000Z</time>
      </trkpt>
      <trkpt lat="43.1940530799329280853271484375" lon="-7.01911501586437225341796875">
        <ele>791</ele>
        <time>2019-07-08T17:44:13.000Z</time>
      </trkpt>
      <trkpt lat="43.1946022622287273406982421875" lon="-7.01956638135015964508056640625">
        <ele>792.79998779296875</ele>
        <time>2019-07-08T17:44:16.000Z</time>
      </trkpt>
      <trkpt lat="43.19512101821601390838623046875" lon="-7.01998145319521427154541015625">
        <ele>794.5999755859375</ele>
        <time>2019-07-08T17:44:19.000Z</time>
      </trkpt>
      <trkpt lat="43.19559677504003047943115234375" lon="-7.02036534436047077178955078125">
        <ele>792.20001220703125</ele>
        <time>2019-07-08T17:44:22.000Z</time>
      </trkpt>
      <trkpt lat="43.1957445479929447174072265625" lon="-7.020481936633586883544921875">
        <ele>789.5999755859375</ele>
        <time>2019-07-08T17:44:23.000Z</time>
      </trkpt>
      <trkpt lat="43.1958885490894317626953125" lon="-7.02059718780219554901123046875">
        <ele>787.79998779296875</ele>
        <time>2019-07-08T17:44:24.000Z</time>
      </trkpt>
      <trkpt lat="43.19620194844901561737060546875" lon="-7.0207799971103668212890625">
        <ele>786.20001220703125</ele>
        <time>2019-07-08T17:44:26.000Z</time>
      </trkpt>
      <trkpt lat="43.19655935280025005340576171875" lon="-7.02084638178348541259765625">
        <ele>787.79998779296875</ele>
        <time>2019-07-08T17:44:28.000Z</time>
      </trkpt>
      <trkpt lat="43.19693972356617450714111328125" lon="-7.02076432295143604278564453125">
        <ele>788.79998779296875</ele>
        <time>2019-07-08T17:44:30.000Z</time>
      </trkpt>
      <trkpt lat="43.19755026139318943023681640625" lon="-7.020413875579833984375">
        <ele>788.4000244140625</ele>
        <time>2019-07-08T17:44:33.000Z</time>
      </trkpt>
      <trkpt lat="43.19776383228600025177001953125" lon="-7.02027968131005764007568359375">
        <ele>787.5999755859375</ele>
        <time>2019-07-08T17:44:34.000Z</time>
      </trkpt>
      <trkpt lat="43.19819566793739795684814453125" lon="-7.0200169086456298828125">
        <ele>786.4000244140625</ele>
        <time>2019-07-08T17:44:36.000Z</time>
      </trkpt>
      <trkpt lat="43.19841192103922367095947265625" lon="-7.0198916830122470855712890625">
        <ele>785.4000244140625</ele>
        <time>2019-07-08T17:44:37.000Z</time>
      </trkpt>
      <trkpt lat="43.1986255757510662078857421875" lon="-7.01977525837719440460205078125">
        <ele>783.4000244140625</ele>
        <time>2019-07-08T17:44:38.000Z</time>
      </trkpt>
      <trkpt lat="43.19904928095638751983642578125" lon="-7.01956168748438358306884765625">
        <ele>784.79998779296875</ele>
        <time>2019-07-08T17:44:40.000Z</time>
      </trkpt>
      <trkpt lat="43.1994708068668842315673828125" lon="-7.0193423330783843994140625">
        <ele>781.20001220703125</ele>
        <time>2019-07-08T17:44:42.000Z</time>
      </trkpt>
      <trkpt lat="43.19967188872396945953369140625" lon="-7.01922121457755565643310546875">
        <ele>775.79998779296875</ele>
        <time>2019-07-08T17:44:43.000Z</time>
      </trkpt>
      <trkpt lat="43.19985947571694850921630859375" lon="-7.01909062452614307403564453125">
        <ele>771.79998779296875</ele>
        <time>2019-07-08T17:44:44.000Z</time>
      </trkpt>
      <trkpt lat="43.20003147237002849578857421875" lon="-7.01894343830645084381103515625">
        <ele>767.20001220703125</ele>
        <time>2019-07-08T17:44:45.000Z</time>
      </trkpt>
      <trkpt lat="43.20018352009356021881103515625" lon="-7.0187698490917682647705078125">
        <ele>765</ele>
        <time>2019-07-08T17:44:46.000Z</time>
      </trkpt>
      <trkpt lat="43.2003136910498142242431640625" lon="-7.0185643248260021209716796875">
        <ele>763.5999755859375</ele>
        <time>2019-07-08T17:44:47.000Z</time>
      </trkpt>
      <trkpt lat="43.2004960812628269195556640625" lon="-7.01805763877928256988525390625">
        <ele>766.4000244140625</ele>
        <time>2019-07-08T17:44:49.000Z</time>
      </trkpt>
      <trkpt lat="43.20053924806416034698486328125" lon="-7.01776376925408840179443359375">
        <ele>767.4000244140625</ele>
        <time>2019-07-08T17:44:50.000Z</time>
      </trkpt>
      <trkpt lat="43.20054578594863414764404296875" lon="-7.017453052103519439697265625">
        <ele>767.4000244140625</ele>
        <time>2019-07-08T17:44:51.000Z</time>
      </trkpt>
      <trkpt lat="43.20050035603344440460205078125" lon="-7.0168279297649860382080078125">
        <ele>766.20001220703125</ele>
        <time>2019-07-08T17:44:53.000Z</time>
      </trkpt>
      <trkpt lat="43.20048174820840358734130859375" lon="-7.01652810908854007720947265625">
        <ele>764.79998779296875</ele>
        <time>2019-07-08T17:44:54.000Z</time>
      </trkpt>
      <trkpt lat="43.20049247704446315765380859375" lon="-7.0162390172481536865234375">
        <ele>763</ele>
        <time>2019-07-08T17:44:55.000Z</time>
      </trkpt>
      <trkpt lat="43.20053790695965290069580078125" lon="-7.015981189906597137451171875">
        <ele>761.79998779296875</ele>
        <time>2019-07-08T17:44:56.000Z</time>
      </trkpt>
      <trkpt lat="43.2006063871085643768310546875" lon="-7.0157533697783946990966796875">
        <ele>761.20001220703125</ele>
        <time>2019-07-08T17:44:57.000Z</time>
      </trkpt>
      <trkpt lat="43.20092699490487575531005859375" lon="-7.01514023356139659881591796875">
        <ele>761.79998779296875</ele>
        <time>2019-07-08T17:45:00.000Z</time>
      </trkpt>
      <trkpt lat="43.2012541405856609344482421875" lon="-7.0148487947881221771240234375">
        <ele>763.4000244140625</ele>
        <time>2019-07-08T17:45:02.000Z</time>
      </trkpt>
      <trkpt lat="43.201803155243396759033203125" lon="-7.014522738754749298095703125">
        <ele>763.4000244140625</ele>
        <time>2019-07-08T17:45:05.000Z</time>
      </trkpt>
      <trkpt lat="43.20238980464637279510498046875" lon="-7.014193832874298095703125">
        <ele>762.79998779296875</ele>
        <time>2019-07-08T17:45:08.000Z</time>
      </trkpt>
      <trkpt lat="43.20279364474117755889892578125" lon="-7.0139832794666290283203125">
        <ele>762.20001220703125</ele>
        <time>2019-07-08T17:45:10.000Z</time>
      </trkpt>
      <trkpt lat="43.203409798443317413330078125" lon="-7.0137034915387630462646484375">
        <ele>759.20001220703125</ele>
        <time>2019-07-08T17:45:13.000Z</time>
      </trkpt>
      <trkpt lat="43.2035983912646770477294921875" lon="-7.01361891813576221466064453125">
        <ele>755.79998779296875</ele>
        <time>2019-07-08T17:45:14.000Z</time>
      </trkpt>
      <trkpt lat="43.2037770934402942657470703125" lon="-7.01353727839887142181396484375">
        <ele>752.4000244140625</ele>
        <time>2019-07-08T17:45:15.000Z</time>
      </trkpt>
      <trkpt lat="43.20394783280789852142333984375" lon="-7.01346267946064472198486328125">
        <ele>749.20001220703125</ele>
        <time>2019-07-08T17:45:16.000Z</time>
      </trkpt>
      <trkpt lat="43.20443498902022838592529296875" lon="-7.01322781853377819061279296875">
        <ele>747</ele>
        <time>2019-07-08T17:45:19.000Z</time>
      </trkpt>
      <trkpt lat="43.20491309277713298797607421875" lon="-7.01301156543195247650146484375">
        <ele>746.20001220703125</ele>
        <time>2019-07-08T17:45:22.000Z</time>
      </trkpt>
      <trkpt lat="43.2050662301480770111083984375" lon="-7.0129467733204364776611328125">
        <ele>745.79998779296875</ele>
        <time>2019-07-08T17:45:23.000Z</time>
      </trkpt>
      <trkpt lat="43.20521919988095760345458984375" lon="-7.012901343405246734619140625">
        <ele>745.4000244140625</ele>
        <time>2019-07-08T17:45:24.000Z</time>
      </trkpt>
      <trkpt lat="43.20537460036575794219970703125" lon="-7.01288315467536449432373046875">
        <ele>744.79998779296875</ele>
        <time>2019-07-08T17:45:25.000Z</time>
      </trkpt>
      <trkpt lat="43.20553620345890522003173828125" lon="-7.01289388351142406463623046875">
        <ele>744.4000244140625</ele>
        <time>2019-07-08T17:45:26.000Z</time>
      </trkpt>
      <trkpt lat="43.2058427296578884124755859375" lon="-7.01300703920423984527587890625">
        <ele>743.4000244140625</ele>
        <time>2019-07-08T17:45:28.000Z</time>
      </trkpt>
      <trkpt lat="43.2059781812131404876708984375" lon="-7.013091109693050384521484375">
        <ele>742.20001220703125</ele>
        <time>2019-07-08T17:45:29.000Z</time>
      </trkpt>
      <trkpt lat="43.206110112369060516357421875" lon="-7.01316512189805507659912109375">
        <ele>741.5999755859375</ele>
        <time>2019-07-08T17:45:30.000Z</time>
      </trkpt>
      <trkpt lat="43.20625101216137409210205078125" lon="-7.01320208609104156494140625">
        <ele>741</ele>
        <time>2019-07-08T17:45:31.000Z</time>
      </trkpt>
      <trkpt lat="43.206397779285907745361328125" lon="-7.0131871663033962249755859375">
        <ele>740.5999755859375</ele>
        <time>2019-07-08T17:45:32.000Z</time>
      </trkpt>
      <trkpt lat="43.2066768966615200042724609375" lon="-7.0130123198032379150390625">
        <ele>740.20001220703125</ele>
        <time>2019-07-08T17:45:34.000Z</time>
      </trkpt>
      <trkpt lat="43.2067863643169403076171875" lon="-7.01286337338387966156005859375">
        <ele>740</ele>
        <time>2019-07-08T17:45:35.000Z</time>
      </trkpt>
      <trkpt lat="43.2068693451583385467529296875" lon="-7.01268550939857959747314453125">
        <ele>740</ele>
        <time>2019-07-08T17:45:36.000Z</time>
      </trkpt>
      <trkpt lat="43.20700253359973430633544921875" lon="-7.01231435872614383697509765625">
        <ele>738.79998779296875</ele>
        <time>2019-07-08T17:45:38.000Z</time>
      </trkpt>
      <trkpt lat="43.20722155272960662841796875" lon="-7.01203423552215099334716796875">
        <ele>737.20001220703125</ele>
        <time>2019-07-08T17:45:40.000Z</time>
      </trkpt>
      <trkpt lat="43.2075110636651515960693359375" lon="-7.011892832815647125244140625">
        <ele>736</ele>
        <time>2019-07-08T17:45:42.000Z</time>
      </trkpt>
      <trkpt lat="43.20804256014525890350341796875" lon="-7.01178445480763912200927734375">
        <ele>735</ele>
        <time>2019-07-08T17:45:45.000Z</time>
      </trkpt>
      <trkpt lat="43.20840348489582538604736328125" lon="-7.01172477565705776214599609375">
        <ele>732.79998779296875</ele>
        <time>2019-07-08T17:45:47.000Z</time>
      </trkpt>
      <trkpt lat="43.20857279933989048004150390625" lon="-7.01168395578861236572265625">
        <ele>731.4000244140625</ele>
        <time>2019-07-08T17:45:48.000Z</time>
      </trkpt>
      <trkpt lat="43.208737671375274658203125" lon="-7.01162368990480899810791015625">
        <ele>730.4000244140625</ele>
        <time>2019-07-08T17:45:49.000Z</time>
      </trkpt>
      <trkpt lat="43.2089014537632465362548828125" lon="-7.0115369372069835662841796875">
        <ele>729.20001220703125</ele>
        <time>2019-07-08T17:45:50.000Z</time>
      </trkpt>
      <trkpt lat="43.20906179957091808319091796875" lon="-7.011420093476772308349609375">
        <ele>728.4000244140625</ele>
        <time>2019-07-08T17:45:51.000Z</time>
      </trkpt>
      <trkpt lat="43.20933940820395946502685546875" lon="-7.01107283122837543487548828125">
        <ele>728.4000244140625</ele>
        <time>2019-07-08T17:45:53.000Z</time>
      </trkpt>
      <trkpt lat="43.209573514759540557861328125" lon="-7.01060696505010128021240234375">
        <ele>728</ele>
        <time>2019-07-08T17:45:55.000Z</time>
      </trkpt>
      <trkpt lat="43.209813572466373443603515625" lon="-7.010088376700878143310546875">
        <ele>726.4000244140625</ele>
        <time>2019-07-08T17:45:57.000Z</time>
      </trkpt>
      <trkpt lat="43.20993469096720218658447265625" lon="-7.009826190769672393798828125">
        <ele>725</ele>
        <time>2019-07-08T17:45:58.000Z</time>
      </trkpt>
      <trkpt lat="43.2100561447441577911376953125" lon="-7.00956056825816631317138671875">
        <ele>723</ele>
        <time>2019-07-08T17:45:59.000Z</time>
      </trkpt>
      <trkpt lat="43.2101805321872234344482421875" lon="-7.009297795593738555908203125">
        <ele>721</ele>
        <time>2019-07-08T17:46:00.000Z</time>
      </trkpt>
      <trkpt lat="43.21030684746801853179931640625" lon="-7.0090374536812305450439453125">
        <ele>719.20001220703125</ele>
        <time>2019-07-08T17:46:01.000Z</time>
      </trkpt>
      <trkpt lat="43.21043274365365505218505859375" lon="-7.00877836905419826507568359375">
        <ele>717</ele>
        <time>2019-07-08T17:46:02.000Z</time>
      </trkpt>
      <trkpt lat="43.21055813692510128021240234375" lon="-7.0085194520652294158935546875">
        <ele>714.4000244140625</ele>
        <time>2019-07-08T17:46:03.000Z</time>
      </trkpt>
      <trkpt lat="43.2106809318065643310546875" lon="-7.00826589949429035186767578125">
        <ele>712.5999755859375</ele>
        <time>2019-07-08T17:46:04.000Z</time>
      </trkpt>
      <trkpt lat="43.2107991166412830352783203125" lon="-7.0080279372632503509521484375">
        <ele>710.4000244140625</ele>
        <time>2019-07-08T17:46:05.000Z</time>
      </trkpt>
      <trkpt lat="43.21091051213443279266357421875" lon="-7.007808499038219451904296875">
        <ele>708.5999755859375</ele>
        <time>2019-07-08T17:46:06.000Z</time>
      </trkpt>
      <trkpt lat="43.21124897338449954986572265625" lon="-7.007241547107696533203125">
        <ele>708.20001220703125</ele>
        <time>2019-07-08T17:46:09.000Z</time>
      </trkpt>
      <trkpt lat="43.211373277008533477783203125" lon="-7.00708589516580104827880859375">
        <ele>707.5999755859375</ele>
        <time>2019-07-08T17:46:10.000Z</time>
      </trkpt>
      <trkpt lat="43.21150998584926128387451171875" lon="-7.006944827735424041748046875">
        <ele>706.4000244140625</ele>
        <time>2019-07-08T17:46:11.000Z</time>
      </trkpt>
      <trkpt lat="43.21182866580784320831298828125" lon="-7.00672731734812259674072265625">
        <ele>703.5999755859375</ele>
        <time>2019-07-08T17:46:13.000Z</time>
      </trkpt>
      <trkpt lat="43.21200736798346042633056640625" lon="-7.0066581666469573974609375">
        <ele>701.79998779296875</ele>
        <time>2019-07-08T17:46:14.000Z</time>
      </trkpt>
      <trkpt lat="43.21219109930098056793212890625" lon="-7.00661458075046539306640625">
        <ele>699.4000244140625</ele>
        <time>2019-07-08T17:46:15.000Z</time>
      </trkpt>
      <trkpt lat="43.212370388209819793701171875" lon="-7.0065835677087306976318359375">
        <ele>697</ele>
        <time>2019-07-08T17:46:16.000Z</time>
      </trkpt>
      <trkpt lat="43.2125437259674072265625" lon="-7.0065483637154102325439453125">
        <ele>695.4000244140625</ele>
        <time>2019-07-08T17:46:17.000Z</time>
      </trkpt>
      <trkpt lat="43.2128758169710636138916015625" lon="-7.0064222998917102813720703125">
        <ele>694.4000244140625</ele>
        <time>2019-07-08T17:46:19.000Z</time>
      </trkpt>
      <trkpt lat="43.21317329071462154388427734375" lon="-7.00617696158587932586669921875">
        <ele>692.5999755859375</ele>
        <time>2019-07-08T17:46:21.000Z</time>
      </trkpt>
      <trkpt lat="43.2134159468114376068115234375" lon="-7.00586515478789806365966796875">
        <ele>691.4000244140625</ele>
        <time>2019-07-08T17:46:23.000Z</time>
      </trkpt>
      <trkpt lat="43.2135329581797122955322265625" lon="-7.0057165436446666717529296875">
        <ele>690</ele>
        <time>2019-07-08T17:46:24.000Z</time>
      </trkpt>
      <trkpt lat="43.21365608833730220794677734375" lon="-7.00558033771812915802001953125">
        <ele>688.4000244140625</ele>
        <time>2019-07-08T17:46:25.000Z</time>
      </trkpt>
      <trkpt lat="43.21378760039806365966796875" lon="-7.00546248815953731536865234375">
        <ele>686.4000244140625</ele>
        <time>2019-07-08T17:46:26.000Z</time>
      </trkpt>
      <trkpt lat="43.21393067948520183563232421875" lon="-7.00537146069109439849853515625">
        <ele>685.4000244140625</ele>
        <time>2019-07-08T17:46:27.000Z</time>
      </trkpt>
      <trkpt lat="43.214084990322589874267578125" lon="-7.00531463138759136199951171875">
        <ele>683.79998779296875</ele>
        <time>2019-07-08T17:46:28.000Z</time>
      </trkpt>
      <trkpt lat="43.21442185901105403900146484375" lon="-7.005294263362884521484375">
        <ele>682.5999755859375</ele>
        <time>2019-07-08T17:46:30.000Z</time>
      </trkpt>
      <trkpt lat="43.21460357867181301116943359375" lon="-7.00530507601797580718994140625">
        <ele>681.4000244140625</ele>
        <time>2019-07-08T17:46:31.000Z</time>
      </trkpt>
      <trkpt lat="43.21498059667646884918212890625" lon="-7.00532980263233184814453125">
        <ele>678.5999755859375</ele>
        <time>2019-07-08T17:46:33.000Z</time>
      </trkpt>
      <trkpt lat="43.21553782559931278228759765625" lon="-7.005371712148189544677734375">
        <ele>678.5999755859375</ele>
        <time>2019-07-08T17:46:36.000Z</time>
      </trkpt>
      <trkpt lat="43.21607460267841815948486328125" lon="-7.00542326085269451141357421875">
        <ele>677.4000244140625</ele>
        <time>2019-07-08T17:46:39.000Z</time>
      </trkpt>
      <trkpt lat="43.21641038171947002410888671875" lon="-7.00540549121797084808349609375">
        <ele>674.4000244140625</ele>
        <time>2019-07-08T17:46:41.000Z</time>
      </trkpt>
      <trkpt lat="43.21657751686871051788330078125" lon="-7.00535670854151248931884765625">
        <ele>670.5999755859375</ele>
        <time>2019-07-08T17:46:42.000Z</time>
      </trkpt>
      <trkpt lat="43.216748423874378204345703125" lon="-7.00527674518525600433349609375">
        <ele>667</ele>
        <time>2019-07-08T17:46:43.000Z</time>
      </trkpt>
      <trkpt lat="43.2169182412326335906982421875" lon="-7.0051834546029567718505859375">
        <ele>664.4000244140625</ele>
        <time>2019-07-08T17:46:44.000Z</time>
      </trkpt>
      <trkpt lat="43.21708747185766696929931640625" lon="-7.005088068544864654541015625">
        <ele>662</ele>
        <time>2019-07-08T17:46:45.000Z</time>
      </trkpt>
      <trkpt lat="43.217258043587207794189453125" lon="-7.00499444268643856048583984375">
        <ele>659.79998779296875</ele>
        <time>2019-07-08T17:46:46.000Z</time>
      </trkpt>
      <trkpt lat="43.2174295373260974884033203125" lon="-7.00491003692150115966796875">
        <ele>656.79998779296875</ele>
        <time>2019-07-08T17:46:47.000Z</time>
      </trkpt>
      <trkpt lat="43.2176055572926998138427734375" lon="-7.004837282001972198486328125">
        <ele>653</ele>
        <time>2019-07-08T17:46:48.000Z</time>
      </trkpt>
      <trkpt lat="43.2177882827818393707275390625" lon="-7.00478531420230865478515625">
        <ele>650.4000244140625</ele>
        <time>2019-07-08T17:46:49.000Z</time>
      </trkpt>
      <trkpt lat="43.21797796525061130523681640625" lon="-7.00476276688277721405029296875">
        <ele>648.5999755859375</ele>
        <time>2019-07-08T17:46:50.000Z</time>
      </trkpt>
      <trkpt lat="43.2181755267083644866943359375" lon="-7.00477148406207561492919921875">
        <ele>647.4000244140625</ele>
        <time>2019-07-08T17:46:51.000Z</time>
      </trkpt>
      <trkpt lat="43.21837660856544971466064453125" lon="-7.00479679740965366363525390625">
        <ele>646</ele>
        <time>2019-07-08T17:46:52.000Z</time>
      </trkpt>
      <trkpt lat="43.218792267143726348876953125" lon="-7.0048649422824382781982421875">
        <ele>643.79998779296875</ele>
        <time>2019-07-08T17:46:54.000Z</time>
      </trkpt>
      <trkpt lat="43.2192132063210010528564453125" lon="-7.00494783930480480194091796875">
        <ele>642.5999755859375</ele>
        <time>2019-07-08T17:46:56.000Z</time>
      </trkpt>
      <trkpt lat="43.21942350827157497406005859375" lon="-7.00501807965338230133056640625">
        <ele>642</ele>
        <time>2019-07-08T17:46:57.000Z</time>
      </trkpt>
      <trkpt lat="43.21982868947088718414306640625" lon="-7.00526651926338672637939453125">
        <ele>640.20001220703125</ele>
        <time>2019-07-08T17:46:59.000Z</time>
      </trkpt>
      <trkpt lat="43.22001627646386623382568359375" lon="-7.00544421561062335968017578125">
        <ele>637.79998779296875</ele>
        <time>2019-07-08T17:47:00.000Z</time>
      </trkpt>
      <trkpt lat="43.22019112296402454376220703125" lon="-7.0056374184787273406982421875">
        <ele>634.20001220703125</ele>
        <time>2019-07-08T17:47:01.000Z</time>
      </trkpt>
      <trkpt lat="43.2203591801226139068603515625" lon="-7.00582467019557952880859375">
        <ele>631.5999755859375</ele>
        <time>2019-07-08T17:47:02.000Z</time>
      </trkpt>
      <trkpt lat="43.22051902301609516143798828125" lon="-7.00600362382829189300537109375">
        <ele>626.79998779296875</ele>
        <time>2019-07-08T17:47:03.000Z</time>
      </trkpt>
      <trkpt lat="43.2206743396818637847900390625" lon="-7.00617427937686443328857421875">
        <ele>622</ele>
        <time>2019-07-08T17:47:04.000Z</time>
      </trkpt>
      <trkpt lat="43.22083870880305767059326171875" lon="-7.0063250698149204254150390625">
        <ele>619.5999755859375</ele>
        <time>2019-07-08T17:47:05.000Z</time>
      </trkpt>
      <trkpt lat="43.22101925499737262725830078125" lon="-7.00645557604730129241943359375">
        <ele>618</ele>
        <time>2019-07-08T17:47:06.000Z</time>
      </trkpt>
      <trkpt lat="43.2214044034481048583984375" lon="-7.00667870230972766876220703125">
        <ele>616.20001220703125</ele>
        <time>2019-07-08T17:47:08.000Z</time>
      </trkpt>
      <trkpt lat="43.22199046611785888671875" lon="-7.00696201063692569732666015625">
        <ele>615.4000244140625</ele>
        <time>2019-07-08T17:47:11.000Z</time>
      </trkpt>
      <trkpt lat="43.22219992987811565399169921875" lon="-7.0070288144052028656005859375">
        <ele>614.5999755859375</ele>
        <time>2019-07-08T17:47:12.000Z</time>
      </trkpt>
      <trkpt lat="43.2228648662567138671875" lon="-7.00713358819484710693359375">
        <ele>612.20001220703125</ele>
        <time>2019-07-08T17:47:15.000Z</time>
      </trkpt>
      <trkpt lat="43.22308505885303020477294921875" lon="-7.00718111358582973480224609375">
        <ele>609.79998779296875</ele>
        <time>2019-07-08T17:47:16.000Z</time>
      </trkpt>
      <trkpt lat="43.2233060896396636962890625" lon="-7.00725085102021694183349609375">
        <ele>607.20001220703125</ele>
        <time>2019-07-08T17:47:17.000Z</time>
      </trkpt>
      <trkpt lat="43.2235248573124408721923828125" lon="-7.007348835468292236328125">
        <ele>604.5999755859375</ele>
        <time>2019-07-08T17:47:18.000Z</time>
      </trkpt>
      <trkpt lat="43.22373951785266399383544921875" lon="-7.007475905120372772216796875">
        <ele>602.20001220703125</ele>
        <time>2019-07-08T17:47:19.000Z</time>
      </trkpt>
      <trkpt lat="43.22395007126033306121826171875" lon="-7.0076210796833038330078125">
        <ele>599.79998779296875</ele>
        <time>2019-07-08T17:47:20.000Z</time>
      </trkpt>
      <trkpt lat="43.22415391914546489715576171875" lon="-7.0077630691230297088623046875">
        <ele>598.4000244140625</ele>
        <time>2019-07-08T17:47:21.000Z</time>
      </trkpt>
      <trkpt lat="43.2245613634586334228515625" lon="-7.0079776458442211151123046875">
        <ele>597.20001220703125</ele>
        <time>2019-07-08T17:47:23.000Z</time>
      </trkpt>
      <trkpt lat="43.2247787900269031524658203125" lon="-7.0080383308231830596923828125">
        <ele>596</ele>
        <time>2019-07-08T17:47:24.000Z</time>
      </trkpt>
      <trkpt lat="43.22500049136579036712646484375" lon="-7.008080072700977325439453125">
        <ele>594.4000244140625</ele>
        <time>2019-07-08T17:47:25.000Z</time>
      </trkpt>
      <trkpt lat="43.225217163562774658203125" lon="-7.00811921618878841400146484375">
        <ele>591.79998779296875</ele>
        <time>2019-07-08T17:47:26.000Z</time>
      </trkpt>
      <trkpt lat="43.225426375865936279296875" lon="-7.0081801526248455047607421875">
        <ele>590</ele>
        <time>2019-07-08T17:47:27.000Z</time>
      </trkpt>
      <trkpt lat="43.22562695480883121490478515625" lon="-7.0082733593881130218505859375">
        <ele>588.4000244140625</ele>
        <time>2019-07-08T17:47:28.000Z</time>
      </trkpt>
      <trkpt lat="43.225822336971759796142578125" lon="-7.00838408432900905609130859375">
        <ele>585.5999755859375</ele>
        <time>2019-07-08T17:47:29.000Z</time>
      </trkpt>
      <trkpt lat="43.22601201944053173065185546875" lon="-7.00849908404052257537841796875">
        <ele>582.20001220703125</ele>
        <time>2019-07-08T17:47:30.000Z</time>
      </trkpt>
      <trkpt lat="43.22619843296706676483154296875" lon="-7.00860888697206974029541015625">
        <ele>580.5999755859375</ele>
        <time>2019-07-08T17:47:31.000Z</time>
      </trkpt>
      <trkpt lat="43.22656874544918537139892578125" lon="-7.00879110954701900482177734375">
        <ele>578.5999755859375</ele>
        <time>2019-07-08T17:47:33.000Z</time>
      </trkpt>
      <trkpt lat="43.22675733827054500579833984375" lon="-7.0088533870875835418701171875">
        <ele>576.79998779296875</ele>
        <time>2019-07-08T17:47:34.000Z</time>
      </trkpt>
      <trkpt lat="43.2273133099079132080078125" lon="-7.00904189608991146087646484375">
        <ele>575.79998779296875</ele>
        <time>2019-07-08T17:47:37.000Z</time>
      </trkpt>
      <trkpt lat="43.22749427519738674163818359375" lon="-7.00914650224149227142333984375">
        <ele>575.5999755859375</ele>
        <time>2019-07-08T17:47:38.000Z</time>
      </trkpt>
      <trkpt lat="43.2276735641062259674072265625" lon="-7.00928111560642719268798828125">
        <ele>574.79998779296875</ele>
        <time>2019-07-08T17:47:39.000Z</time>
      </trkpt>
      <trkpt lat="43.2278526015579700469970703125" lon="-7.00943366624414920806884765625">
        <ele>574.4000244140625</ele>
        <time>2019-07-08T17:47:40.000Z</time>
      </trkpt>
      <trkpt lat="43.2282250933349132537841796875" lon="-7.009722255170345306396484375">
        <ele>571.5999755859375</ele>
        <time>2019-07-08T17:47:42.000Z</time>
      </trkpt>
      <trkpt lat="43.2284131832420825958251953125" lon="-7.0098518393933773040771484375">
        <ele>568.4000244140625</ele>
        <time>2019-07-08T17:47:43.000Z</time>
      </trkpt>
      <trkpt lat="43.22859381325542926788330078125" lon="-7.00998066924512386322021484375">
        <ele>564</ele>
        <time>2019-07-08T17:47:44.000Z</time>
      </trkpt>
      <trkpt lat="43.22876513935625553131103515625" lon="-7.01010371558368206024169921875">
        <ele>559.4000244140625</ele>
        <time>2019-07-08T17:47:45.000Z</time>
      </trkpt>
      <trkpt lat="43.22892741300165653228759765625" lon="-7.01022106222808361053466796875">
        <ele>555.79998779296875</ele>
        <time>2019-07-08T17:47:46.000Z</time>
      </trkpt>
      <trkpt lat="43.22908197529613971710205078125" lon="-7.0103279314935207366943359375">
        <ele>553.20001220703125</ele>
        <time>2019-07-08T17:47:47.000Z</time>
      </trkpt>
      <trkpt lat="43.22922681458294391632080078125" lon="-7.01042507775127887725830078125">
        <ele>552</ele>
        <time>2019-07-08T17:47:48.000Z</time>
      </trkpt>
      <trkpt lat="43.2295149005949497222900390625" lon="-7.0105763711035251617431640625">
        <ele>550.79998779296875</ele>
        <time>2019-07-08T17:47:50.000Z</time>
      </trkpt>
      <trkpt lat="43.230085037648677825927734375" lon="-7.01070360839366912841796875">
        <ele>550.20001220703125</ele>
        <time>2019-07-08T17:47:54.000Z</time>
      </trkpt>
      <trkpt lat="43.23020732961595058441162109375" lon="-7.010754905641078948974609375">
        <ele>549.4000244140625</ele>
        <time>2019-07-08T17:47:55.000Z</time>
      </trkpt>
      <trkpt lat="43.2303225807845592498779296875" lon="-7.0108358748257160186767578125">
        <ele>549</ele>
        <time>2019-07-08T17:47:56.000Z</time>
      </trkpt>
      <trkpt lat="43.23053858242928981781005859375" lon="-7.0110581628978252410888671875">
        <ele>547.5999755859375</ele>
        <time>2019-07-08T17:47:58.000Z</time>
      </trkpt>
      <trkpt lat="43.2308959029614925384521484375" lon="-7.0114148966968059539794921875">
        <ele>546.4000244140625</ele>
        <time>2019-07-08T17:48:01.000Z</time>
      </trkpt>
      <trkpt lat="43.23121701367199420928955078125" lon="-7.011573649942874908447265625">
        <ele>545.20001220703125</ele>
        <time>2019-07-08T17:48:03.000Z</time>
      </trkpt>
      <trkpt lat="43.23159746825695037841796875" lon="-7.01164531521499156951904296875">
        <ele>544</ele>
        <time>2019-07-08T17:48:05.000Z</time>
      </trkpt>
      <trkpt lat="43.23179553262889385223388671875" lon="-7.01167096383869647979736328125">
        <ele>542.79998779296875</ele>
        <time>2019-07-08T17:48:06.000Z</time>
      </trkpt>
      <trkpt lat="43.2319937646389007568359375" lon="-7.01169678010046482086181640625">
        <ele>540.79998779296875</ele>
        <time>2019-07-08T17:48:07.000Z</time>
      </trkpt>
      <trkpt lat="43.23219149373471736907958984375" lon="-7.011719159781932830810546875">
        <ele>538.20001220703125</ele>
        <time>2019-07-08T17:48:08.000Z</time>
      </trkpt>
      <trkpt lat="43.2323875464498996734619140625" lon="-7.01173634268343448638916015625">
        <ele>535.79998779296875</ele>
        <time>2019-07-08T17:48:09.000Z</time>
      </trkpt>
      <trkpt lat="43.23258049786090850830078125" lon="-7.011747322976589202880859375">
        <ele>533.5999755859375</ele>
        <time>2019-07-08T17:48:10.000Z</time>
      </trkpt>
      <trkpt lat="43.2327697612345218658447265625" lon="-7.01175042428076267242431640625">
        <ele>531.4000244140625</ele>
        <time>2019-07-08T17:48:11.000Z</time>
      </trkpt>
      <trkpt lat="43.23295223526656627655029296875" lon="-7.01174740679562091827392578125">
        <ele>529.4000244140625</ele>
        <time>2019-07-08T17:48:12.000Z</time>
      </trkpt>
      <trkpt lat="43.2331310212612152099609375" lon="-7.01174966990947723388671875">
        <ele>527.5999755859375</ele>
        <time>2019-07-08T17:48:13.000Z</time>
      </trkpt>
      <trkpt lat="43.2333025150001049041748046875" lon="-7.011767439544200897216796875">
        <ele>526</ele>
        <time>2019-07-08T17:48:14.000Z</time>
      </trkpt>
      <trkpt lat="43.233471326529979705810546875" lon="-7.01182099990546703338623046875">
        <ele>524.79998779296875</ele>
        <time>2019-07-08T17:48:15.000Z</time>
      </trkpt>
      <trkpt lat="43.23363854549825191497802734375" lon="-7.01191940344870090484619140625">
        <ele>523.5999755859375</ele>
        <time>2019-07-08T17:48:16.000Z</time>
      </trkpt>
      <trkpt lat="43.2338004000484943389892578125" lon="-7.0120492391288280487060546875">
        <ele>522.5999755859375</ele>
        <time>2019-07-08T17:48:17.000Z</time>
      </trkpt>
      <trkpt lat="43.23396443389356136322021484375" lon="-7.0121860317885875701904296875">
        <ele>521.20001220703125</ele>
        <time>2019-07-08T17:48:18.000Z</time>
      </trkpt>
      <trkpt lat="43.23413877747952938079833984375" lon="-7.012305557727813720703125">
        <ele>519.5999755859375</ele>
        <time>2019-07-08T17:48:19.000Z</time>
      </trkpt>
      <trkpt lat="43.234328962862491607666015625" lon="-7.012395076453685760498046875">
        <ele>518</ele>
        <time>2019-07-08T17:48:20.000Z</time>
      </trkpt>
      <trkpt lat="43.2345292903482913970947265625" lon="-7.01246338896453380584716796875">
        <ele>516.5999755859375</ele>
        <time>2019-07-08T17:48:21.000Z</time>
      </trkpt>
      <trkpt lat="43.23473154567182064056396484375" lon="-7.0125239901244640350341796875">
        <ele>515</ele>
        <time>2019-07-08T17:48:22.000Z</time>
      </trkpt>
      <trkpt lat="43.234930448234081268310546875" lon="-7.01257872395217418670654296875">
        <ele>513.20001220703125</ele>
        <time>2019-07-08T17:48:23.000Z</time>
      </trkpt>
      <trkpt lat="43.23512616567313671112060546875" lon="-7.0126336254179477691650390625">
        <ele>511.399993896484375</ele>
        <time>2019-07-08T17:48:24.000Z</time>
      </trkpt>
      <trkpt lat="43.2353198714554309844970703125" lon="-7.0126849226653575897216796875">
        <ele>510</ele>
        <time>2019-07-08T17:48:25.000Z</time>
      </trkpt>
      <trkpt lat="43.23550921864807605743408203125" lon="-7.0127332024276256561279296875">
        <ele>508.399993896484375</ele>
        <time>2019-07-08T17:48:26.000Z</time>
      </trkpt>
      <trkpt lat="43.23569278232753276824951171875" lon="-7.01277553103864192962646484375">
        <ele>506.399993896484375</ele>
        <time>2019-07-08T17:48:27.000Z</time>
      </trkpt>
      <trkpt lat="43.235869891941547393798828125" lon="-7.012810818850994110107421875">
        <ele>504.20001220703125</ele>
        <time>2019-07-08T17:48:28.000Z</time>
      </trkpt>
      <trkpt lat="43.23604281060397624969482421875" lon="-7.01283420436084270477294921875">
        <ele>502.600006103515625</ele>
        <time>2019-07-08T17:48:29.000Z</time>
      </trkpt>
      <trkpt lat="43.23640189133584499359130859375" lon="-7.0128250680863857269287109375">
        <ele>501.20001220703125</ele>
        <time>2019-07-08T17:48:31.000Z</time>
      </trkpt>
      <trkpt lat="43.23699214495718479156494140625" lon="-7.0127831585705280303955078125">
        <ele>500</ele>
        <time>2019-07-08T17:48:34.000Z</time>
      </trkpt>
      <trkpt lat="43.23740939609706401824951171875" lon="-7.01273513026535511016845703125">
        <ele>498</ele>
        <time>2019-07-08T17:48:36.000Z</time>
      </trkpt>
      <trkpt lat="43.23761500418186187744140625" lon="-7.01270445249974727630615234375">
        <ele>496.79998779296875</ele>
        <time>2019-07-08T17:48:37.000Z</time>
      </trkpt>
      <trkpt lat="43.238021023571491241455078125" lon="-7.01266153715550899505615234375">
        <ele>495</ele>
        <time>2019-07-08T17:48:39.000Z</time>
      </trkpt>
      <trkpt lat="43.23821724392473697662353515625" lon="-7.01266472227871417999267578125">
        <ele>493.399993896484375</ele>
        <time>2019-07-08T17:48:40.000Z</time>
      </trkpt>
      <trkpt lat="43.23840633966028690338134765625" lon="-7.0126772113144397735595703125">
        <ele>490.600006103515625</ele>
        <time>2019-07-08T17:48:41.000Z</time>
      </trkpt>
      <trkpt lat="43.23858822695910930633544921875" lon="-7.0126943103969097137451171875">
        <ele>487.399993896484375</ele>
        <time>2019-07-08T17:48:42.000Z</time>
      </trkpt>
      <trkpt lat="43.23876743204891681671142578125" lon="-7.012703530490398406982421875">
        <ele>484.20001220703125</ele>
        <time>2019-07-08T17:48:43.000Z</time>
      </trkpt>
      <trkpt lat="43.2389425300061702728271484375" lon="-7.01270520687103271484375">
        <ele>482.20001220703125</ele>
        <time>2019-07-08T17:48:44.000Z</time>
      </trkpt>
      <trkpt lat="43.23911360464990139007568359375" lon="-7.01269690878689289093017578125">
        <ele>480.600006103515625</ele>
        <time>2019-07-08T17:48:45.000Z</time>
      </trkpt>
      <trkpt lat="43.239281661808490753173828125" lon="-7.01268064789474010467529296875">
        <ele>479</ele>
        <time>2019-07-08T17:48:46.000Z</time>
      </trkpt>
      <trkpt lat="43.23944569565355777740478515625" lon="-7.01265164650976657867431640625">
        <ele>478.20001220703125</ele>
        <time>2019-07-08T17:48:47.000Z</time>
      </trkpt>
      <trkpt lat="43.23960461653769016265869140625" lon="-7.01260202564299106597900390625">
        <ele>477.600006103515625</ele>
        <time>2019-07-08T17:48:48.000Z</time>
      </trkpt>
      <trkpt lat="43.23976186104118824005126953125" lon="-7.01252357102930545806884765625">
        <ele>476.79998779296875</ele>
        <time>2019-07-08T17:48:49.000Z</time>
      </trkpt>
      <trkpt lat="43.2399134896695613861083984375" lon="-7.01241862960159778594970703125">
        <ele>476</ele>
        <time>2019-07-08T17:48:50.000Z</time>
      </trkpt>
      <trkpt lat="43.24005849659442901611328125" lon="-7.01228745281696319580078125">
        <ele>475.399993896484375</ele>
        <time>2019-07-08T17:48:51.000Z</time>
      </trkpt>
      <trkpt lat="43.24020124040544033050537109375" lon="-7.01213724911212921142578125">
        <ele>474.79998779296875</ele>
        <time>2019-07-08T17:48:52.000Z</time>
      </trkpt>
      <trkpt lat="43.2405022345483303070068359375" lon="-7.01182837598025798797607421875">
        <ele>472.79998779296875</ele>
        <time>2019-07-08T17:48:54.000Z</time>
      </trkpt>
      <trkpt lat="43.24067297391593456268310546875" lon="-7.01170164160430431365966796875">
        <ele>470.399993896484375</ele>
        <time>2019-07-08T17:48:55.000Z</time>
      </trkpt>
      <trkpt lat="43.24084044434130191802978515625" lon="-7.01159435324370861053466796875">
        <ele>466.600006103515625</ele>
        <time>2019-07-08T17:48:56.000Z</time>
      </trkpt>
      <trkpt lat="43.24100531637668609619140625" lon="-7.011487148702144622802734375">
        <ele>463.600006103515625</ele>
        <time>2019-07-08T17:48:57.000Z</time>
      </trkpt>
      <trkpt lat="43.24116096831858158111572265625" lon="-7.0113632641732692718505859375">
        <ele>460.79998779296875</ele>
        <time>2019-07-08T17:48:58.000Z</time>
      </trkpt>
      <trkpt lat="43.24131486006081104278564453125" lon="-7.01121649704873561859130859375">
        <ele>459</ele>
        <time>2019-07-08T17:48:59.000Z</time>
      </trkpt>
      <trkpt lat="43.24145902879536151885986328125" lon="-7.011062018573284149169921875">
        <ele>458</ele>
        <time>2019-07-08T17:49:00.000Z</time>
      </trkpt>
      <trkpt lat="43.241598419845104217529296875" lon="-7.0109176822006702423095703125">
        <ele>456.79998779296875</ele>
        <time>2019-07-08T17:49:01.000Z</time>
      </trkpt>
      <trkpt lat="43.2417387329041957855224609375" lon="-7.01080150902271270751953125">
        <ele>455.399993896484375</ele>
        <time>2019-07-08T17:49:02.000Z</time>
      </trkpt>
      <trkpt lat="43.24202279560267925262451171875" lon="-7.0106886886060237884521484375">
        <ele>453.600006103515625</ele>
        <time>2019-07-08T17:49:04.000Z</time>
      </trkpt>
      <trkpt lat="43.24228875339031219482421875" lon="-7.01070939190685749053955078125">
        <ele>451.79998779296875</ele>
        <time>2019-07-08T17:49:06.000Z</time>
      </trkpt>
      <trkpt lat="43.242719583213329315185546875" lon="-7.0109022594988346099853515625">
        <ele>451.600006103515625</ele>
        <time>2019-07-08T17:49:09.000Z</time>
      </trkpt>
      <trkpt lat="43.2430040650069713592529296875" lon="-7.01103360392153263092041015625">
        <ele>450.79998779296875</ele>
        <time>2019-07-08T17:49:11.000Z</time>
      </trkpt>
      <trkpt lat="43.2431462220847606658935546875" lon="-7.01108104549348354339599609375">
        <ele>450.79998779296875</ele>
        <time>2019-07-08T17:49:12.000Z</time>
      </trkpt>
      <trkpt lat="43.24343807995319366455078125" lon="-7.01108138076961040496826171875">
        <ele>451.79998779296875</ele>
        <time>2019-07-08T17:49:14.000Z</time>
      </trkpt>
      <trkpt lat="43.24358434416353702545166015625" lon="-7.01101684011518955230712890625">
        <ele>452.600006103515625</ele>
        <time>2019-07-08T17:49:15.000Z</time>
      </trkpt>
      <trkpt lat="43.24373085983097553253173828125" lon="-7.010913826525211334228515625">
        <ele>452.399993896484375</ele>
        <time>2019-07-08T17:49:16.000Z</time>
      </trkpt>
      <trkpt lat="43.24415481649339199066162109375" lon="-7.01059623621404170989990234375">
        <ele>451.79998779296875</ele>
        <time>2019-07-08T17:49:19.000Z</time>
      </trkpt>
      <trkpt lat="43.2442621886730194091796875" lon="-7.01052247546613216400146484375">
        <ele>451.20001220703125</ele>
        <time>2019-07-08T17:49:20.000Z</time>
      </trkpt>
      <trkpt lat="43.2443750090897083282470703125" lon="-7.0104496367275714874267578125">
        <ele>450.399993896484375</ele>
        <time>2019-07-08T17:49:21.000Z</time>
      </trkpt>
      <trkpt lat="43.24449830688536167144775390625" lon="-7.010402195155620574951171875">
        <ele>449.79998779296875</ele>
        <time>2019-07-08T17:49:22.000Z</time>
      </trkpt>
      <trkpt lat="43.24462017975747585296630859375" lon="-7.0103931427001953125">
        <ele>449.600006103515625</ele>
        <time>2019-07-08T17:49:23.000Z</time>
      </trkpt>
      <trkpt lat="43.244861997663974761962890625" lon="-7.0105086453258991241455078125">
        <ele>449.79998779296875</ele>
        <time>2019-07-08T17:49:25.000Z</time>
      </trkpt>
      <trkpt lat="43.245063163340091705322265625" lon="-7.0107959769666194915771484375">
        <ele>449.79998779296875</ele>
        <time>2019-07-08T17:49:27.000Z</time>
      </trkpt>
      <trkpt lat="43.24525536037981510162353515625" lon="-7.011160589754581451416015625">
        <ele>450.20001220703125</ele>
        <time>2019-07-08T17:49:29.000Z</time>
      </trkpt>
      <trkpt lat="43.24549139477312564849853515625" lon="-7.011470384895801544189453125">
        <ele>449.79998779296875</ele>
        <time>2019-07-08T17:49:31.000Z</time>
      </trkpt>
      <trkpt lat="43.24589992873370647430419921875" lon="-7.01186844147741794586181640625">
        <ele>449.20001220703125</ele>
        <time>2019-07-08T17:49:34.000Z</time>
      </trkpt>
      <trkpt lat="43.2461526431143283843994140625" lon="-7.01218058355152606964111328125">
        <ele>448.399993896484375</ele>
        <time>2019-07-08T17:49:36.000Z</time>
      </trkpt>
      <trkpt lat="43.2463598437607288360595703125" lon="-7.01254201121628284454345703125">
        <ele>447</ele>
        <time>2019-07-08T17:49:38.000Z</time>
      </trkpt>
      <trkpt lat="43.24646570719778537750244140625" lon="-7.01271518133580684661865234375">
        <ele>446.600006103515625</ele>
        <time>2019-07-08T17:49:39.000Z</time>
      </trkpt>
      <trkpt lat="43.24658322148025035858154296875" lon="-7.01286815106868743896484375">
        <ele>445.79998779296875</ele>
        <time>2019-07-08T17:49:40.000Z</time>
      </trkpt>
      <trkpt lat="43.2468607462942600250244140625" lon="-7.0131169259548187255859375">
        <ele>444.600006103515625</ele>
        <time>2019-07-08T17:49:42.000Z</time>
      </trkpt>
      <trkpt lat="43.24716391973197460174560546875" lon="-7.01335086487233638763427734375">
        <ele>443.600006103515625</ele>
        <time>2019-07-08T17:49:44.000Z</time>
      </trkpt>
      <trkpt lat="43.24746499769389629364013671875" lon="-7.01359947212040424346923828125">
        <ele>442</ele>
        <time>2019-07-08T17:49:46.000Z</time>
      </trkpt>
      <trkpt lat="43.2476080767810344696044921875" lon="-7.01373182237148284912109375">
        <ele>440.600006103515625</ele>
        <time>2019-07-08T17:49:47.000Z</time>
      </trkpt>
      <trkpt lat="43.24787235818803310394287109375" lon="-7.0140079222619533538818359375">
        <ele>439.399993896484375</ele>
        <time>2019-07-08T17:49:49.000Z</time>
      </trkpt>
      <trkpt lat="43.24827167205512523651123046875" lon="-7.01443347148597240447998046875">
        <ele>439.79998779296875</ele>
        <time>2019-07-08T17:49:52.000Z</time>
      </trkpt>
      <trkpt lat="43.24857543222606182098388671875" lon="-7.0146674104034900665283203125">
        <ele>440.600006103515625</ele>
        <time>2019-07-08T17:49:54.000Z</time>
      </trkpt>
      <trkpt lat="43.24910650961101055145263671875" lon="-7.01488860882818698883056640625">
        <ele>441.79998779296875</ele>
        <time>2019-07-08T17:49:57.000Z</time>
      </trkpt>
      <trkpt lat="43.249476738274097442626953125" lon="-7.01502338983118534088134765625">
        <ele>444.20001220703125</ele>
        <time>2019-07-08T17:49:59.000Z</time>
      </trkpt>
      <trkpt lat="43.24966482818126678466796875" lon="-7.01509346254169940948486328125">
        <ele>445.79998779296875</ele>
        <time>2019-07-08T17:50:00.000Z</time>
      </trkpt>
      <trkpt lat="43.24985249899327754974365234375" lon="-7.0151810534298419952392578125">
        <ele>447.79998779296875</ele>
        <time>2019-07-08T17:50:01.000Z</time>
      </trkpt>
      <trkpt lat="43.25003757141530513763427734375" lon="-7.0152893476188182830810546875">
        <ele>449.399993896484375</ele>
        <time>2019-07-08T17:50:02.000Z</time>
      </trkpt>
      <trkpt lat="43.25022180564701557159423828125" lon="-7.01540862210094928741455078125">
        <ele>450.600006103515625</ele>
        <time>2019-07-08T17:50:03.000Z</time>
      </trkpt>
      <trkpt lat="43.2505863346159458160400390625" lon="-7.0156558044254779815673828125">
        <ele>452.399993896484375</ele>
        <time>2019-07-08T17:50:05.000Z</time>
      </trkpt>
      <trkpt lat="43.25076662935316562652587890625" lon="-7.01578111387789249420166015625">
        <ele>453.79998779296875</ele>
        <time>2019-07-08T17:50:06.000Z</time>
      </trkpt>
      <trkpt lat="43.25094315223395824432373046875" lon="-7.01591539196670055389404296875">
        <ele>455.600006103515625</ele>
        <time>2019-07-08T17:50:07.000Z</time>
      </trkpt>
      <trkpt lat="43.25111196376383304595947265625" lon="-7.01606291346251964569091796875">
        <ele>457.600006103515625</ele>
        <time>2019-07-08T17:50:08.000Z</time>
      </trkpt>
      <trkpt lat="43.2512746565043926239013671875" lon="-7.0162254385650157928466796875">
        <ele>459.399993896484375</ele>
        <time>2019-07-08T17:50:09.000Z</time>
      </trkpt>
      <trkpt lat="43.2514345832169055938720703125" lon="-7.016392238438129425048828125">
        <ele>461</ele>
        <time>2019-07-08T17:50:10.000Z</time>
      </trkpt>
      <trkpt lat="43.2515901513397693634033203125" lon="-7.01656197197735309600830078125">
        <ele>463</ele>
        <time>2019-07-08T17:50:11.000Z</time>
      </trkpt>
      <trkpt lat="43.251736164093017578125" lon="-7.0167313702404499053955078125">
        <ele>464.600006103515625</ele>
        <time>2019-07-08T17:50:12.000Z</time>
      </trkpt>
      <trkpt lat="43.25186558067798614501953125" lon="-7.016901187598705291748046875">
        <ele>465.79998779296875</ele>
        <time>2019-07-08T17:50:13.000Z</time>
      </trkpt>
      <trkpt lat="43.25206968002021312713623046875" lon="-7.017239816486835479736328125">
        <ele>467.399993896484375</ele>
        <time>2019-07-08T17:50:15.000Z</time>
      </trkpt>
      <trkpt lat="43.2522778026759624481201171875" lon="-7.01751717366278171539306640625">
        <ele>469.399993896484375</ele>
        <time>2019-07-08T17:50:17.000Z</time>
      </trkpt>
      <trkpt lat="43.25239489786326885223388671875" lon="-7.0176171697676181793212890625">
        <ele>470.79998779296875</ele>
        <time>2019-07-08T17:50:18.000Z</time>
      </trkpt>
      <trkpt lat="43.25252079404890537261962890625" lon="-7.01767508871853351593017578125">
        <ele>472.600006103515625</ele>
        <time>2019-07-08T17:50:19.000Z</time>
      </trkpt>
      <trkpt lat="43.25264669023454189300537109375" lon="-7.01769202016294002532958984375">
        <ele>474.600006103515625</ele>
        <time>2019-07-08T17:50:20.000Z</time>
      </trkpt>
      <trkpt lat="43.2527726702392101287841796875" lon="-7.0176691375672817230224609375">
        <ele>476.399993896484375</ele>
        <time>2019-07-08T17:50:21.000Z</time>
      </trkpt>
      <trkpt lat="43.25289982371032238006591796875" lon="-7.017615325748920440673828125">
        <ele>477.600006103515625</ele>
        <time>2019-07-08T17:50:22.000Z</time>
      </trkpt>
      <trkpt lat="43.2530298270285129547119140625" lon="-7.01753175817430019378662109375">
        <ele>478.79998779296875</ele>
        <time>2019-07-08T17:50:23.000Z</time>
      </trkpt>
      <trkpt lat="43.2533000595867633819580078125" lon="-7.01731399632990360260009765625">
        <ele>480</ele>
        <time>2019-07-08T17:50:25.000Z</time>
      </trkpt>
      <trkpt lat="43.25345604680478572845458984375" lon="-7.0172131620347499847412109375">
        <ele>480.600006103515625</ele>
        <time>2019-07-08T17:50:26.000Z</time>
      </trkpt>
      <trkpt lat="43.25362510979175567626953125" lon="-7.01713956892490386962890625">
        <ele>481</ele>
        <time>2019-07-08T17:50:27.000Z</time>
      </trkpt>
      <trkpt lat="43.2537919096648693084716796875" lon="-7.01711115427315235137939453125">
        <ele>481.79998779296875</ele>
        <time>2019-07-08T17:50:28.000Z</time>
      </trkpt>
      <trkpt lat="43.25396885164082050323486328125" lon="-7.017111070454120635986328125">
        <ele>482.600006103515625</ele>
        <time>2019-07-08T17:50:29.000Z</time>
      </trkpt>
      <trkpt lat="43.25414001010358333587646484375" lon="-7.017153315246105194091796875">
        <ele>483.79998779296875</ele>
        <time>2019-07-08T17:50:30.000Z</time>
      </trkpt>
      <trkpt lat="43.254304043948650360107421875" lon="-7.017239145934581756591796875">
        <ele>485</ele>
        <time>2019-07-08T17:50:31.000Z</time>
      </trkpt>
      <trkpt lat="43.25445449911057949066162109375" lon="-7.01736353337764739990234375">
        <ele>486.399993896484375</ele>
        <time>2019-07-08T17:50:32.000Z</time>
      </trkpt>
      <trkpt lat="43.2545833289623260498046875" lon="-7.0175407268106937408447265625">
        <ele>487.79998779296875</ele>
        <time>2019-07-08T17:50:33.000Z</time>
      </trkpt>
      <trkpt lat="43.25469707138836383819580078125" lon="-7.0177422277629375457763671875">
        <ele>488.79998779296875</ele>
        <time>2019-07-08T17:50:34.000Z</time>
      </trkpt>
      <trkpt lat="43.2548004202544689178466796875" lon="-7.01795621775090694427490234375">
        <ele>489.79998779296875</ele>
        <time>2019-07-08T17:50:35.000Z</time>
      </trkpt>
      <trkpt lat="43.25489689595997333526611328125" lon="-7.018172554671764373779296875">
        <ele>491</ele>
        <time>2019-07-08T17:50:36.000Z</time>
      </trkpt>
      <trkpt lat="43.25498440302908420562744140625" lon="-7.0183740556240081787109375">
        <ele>492</ele>
        <time>2019-07-08T17:50:37.000Z</time>
      </trkpt>
      <trkpt lat="43.25506277382373809814453125" lon="-7.0185512490570545196533203125">
        <ele>493.20001220703125</ele>
        <time>2019-07-08T17:50:38.000Z</time>
      </trkpt>
      <trkpt lat="43.2551353611052036285400390625" lon="-7.0187079906463623046875">
        <ele>494.399993896484375</ele>
        <time>2019-07-08T17:50:39.000Z</time>
      </trkpt>
      <trkpt lat="43.25520467944443225860595703125" lon="-7.01884872280061244964599609375">
        <ele>495.600006103515625</ele>
        <time>2019-07-08T17:50:40.000Z</time>
      </trkpt>
      <trkpt lat="43.2552852295339107513427734375" lon="-7.0189619623124599456787109375">
        <ele>497.20001220703125</ele>
        <time>2019-07-08T17:50:41.000Z</time>
      </trkpt>
      <trkpt lat="43.255377598106861114501953125" lon="-7.01904837973415851593017578125">
        <ele>498.79998779296875</ele>
        <time>2019-07-08T17:50:42.000Z</time>
      </trkpt>
      <trkpt lat="43.25547759421169757843017578125" lon="-7.0191135071218013763427734375">
        <ele>500.600006103515625</ele>
        <time>2019-07-08T17:50:43.000Z</time>
      </trkpt>
      <trkpt lat="43.2555878162384033203125" lon="-7.01914577744901180267333984375">
        <ele>501.79998779296875</ele>
        <time>2019-07-08T17:50:44.000Z</time>
      </trkpt>
      <trkpt lat="43.25581823475658893585205078125" lon="-7.019122727215290069580078125">
        <ele>503.20001220703125</ele>
        <time>2019-07-08T17:50:46.000Z</time>
      </trkpt>
      <trkpt lat="43.256046809256076812744140625" lon="-7.01905332505702972412109375">
        <ele>504.399993896484375</ele>
        <time>2019-07-08T17:50:48.000Z</time>
      </trkpt>
      <trkpt lat="43.25627018697559833526611328125" lon="-7.01898685656487941741943359375">
        <ele>506</ele>
        <time>2019-07-08T17:50:50.000Z</time>
      </trkpt>
      <trkpt lat="43.25638233684003353118896484375" lon="-7.01896355487406253814697265625">
        <ele>506.600006103515625</ele>
        <time>2019-07-08T17:50:51.000Z</time>
      </trkpt>
      <trkpt lat="43.25660965405404567718505859375" lon="-7.01900160871446132659912109375">
        <ele>507</ele>
        <time>2019-07-08T17:50:53.000Z</time>
      </trkpt>
      <trkpt lat="43.25706127099692821502685546875" lon="-7.01932263560593128204345703125">
        <ele>507.399993896484375</ele>
        <time>2019-07-08T17:50:57.000Z</time>
      </trkpt>
      <trkpt lat="43.2573057711124420166015625" lon="-7.01945456676185131072998046875">
        <ele>508</ele>
        <time>2019-07-08T17:50:59.000Z</time>
      </trkpt>
      <trkpt lat="43.25743250548839569091796875" lon="-7.01949345879256725311279296875">
        <ele>508.600006103515625</ele>
        <time>2019-07-08T17:51:00.000Z</time>
      </trkpt>
      <trkpt lat="43.25767633505165576934814453125" lon="-7.0195792056620121002197265625">
        <ele>509.20001220703125</ele>
        <time>2019-07-08T17:51:02.000Z</time>
      </trkpt>
      <trkpt lat="43.25788303278386592864990234375" lon="-7.01976545155048370361328125">
        <ele>509.600006103515625</ele>
        <time>2019-07-08T17:51:04.000Z</time>
      </trkpt>
      <trkpt lat="43.25800440274178981781005859375" lon="-7.020074911415576934814453125">
        <ele>509.399993896484375</ele>
        <time>2019-07-08T17:51:06.000Z</time>
      </trkpt>
      <trkpt lat="43.2581075839698314666748046875" lon="-7.0207312144339084625244140625">
        <ele>509</ele>
        <time>2019-07-08T17:51:10.000Z</time>
      </trkpt>
      <trkpt lat="43.2582177221775054931640625" lon="-7.0209893770515918731689453125">
        <ele>509.79998779296875</ele>
        <time>2019-07-08T17:51:12.000Z</time>
      </trkpt>
      <trkpt lat="43.258294500410556793212890625" lon="-7.02109088189899921417236328125">
        <ele>510.600006103515625</ele>
        <time>2019-07-08T17:51:13.000Z</time>
      </trkpt>
      <trkpt lat="43.2584666647017002105712890625" lon="-7.02125382609665393829345703125">
        <ele>511.600006103515625</ele>
        <time>2019-07-08T17:51:15.000Z</time>
      </trkpt>
      <trkpt lat="43.25893982313573360443115234375" lon="-7.02166420407593250274658203125">
        <ele>512.5999755859375</ele>
        <time>2019-07-08T17:51:20.000Z</time>
      </trkpt>
      <trkpt lat="43.25902146287262439727783203125" lon="-7.02177216298878192901611328125">
        <ele>513.20001220703125</ele>
        <time>2019-07-08T17:51:21.000Z</time>
      </trkpt>
      <trkpt lat="43.25909078121185302734375" lon="-7.02189303003251552581787109375">
        <ele>513.79998779296875</ele>
        <time>2019-07-08T17:51:22.000Z</time>
      </trkpt>
      <trkpt lat="43.259148783981800079345703125" lon="-7.02202387154102325439453125">
        <ele>514.5999755859375</ele>
        <time>2019-07-08T17:51:23.000Z</time>
      </trkpt>
      <trkpt lat="43.25920100323855876922607421875" lon="-7.02215890400111675262451171875">
        <ele>515.5999755859375</ele>
        <time>2019-07-08T17:51:24.000Z</time>
      </trkpt>
      <trkpt lat="43.25925682671368122100830078125" lon="-7.02229066751897335052490234375">
        <ele>516.79998779296875</ele>
        <time>2019-07-08T17:51:25.000Z</time>
      </trkpt>
      <trkpt lat="43.25932052917778491973876953125" lon="-7.02241421677172183990478515625">
        <ele>517.4000244140625</ele>
        <time>2019-07-08T17:51:26.000Z</time>
      </trkpt>
      <trkpt lat="43.25939361937344074249267578125" lon="-7.0225293003022670745849609375">
        <ele>518.4000244140625</ele>
        <time>2019-07-08T17:51:27.000Z</time>
      </trkpt>
      <trkpt lat="43.25954969041049480438232421875" lon="-7.02272200025618076324462890625">
        <ele>520.4000244140625</ele>
        <time>2019-07-08T17:51:29.000Z</time>
      </trkpt>
      <trkpt lat="43.25961741618812084197998046875" lon="-7.0227971859276294708251953125">
        <ele>521.5999755859375</ele>
        <time>2019-07-08T17:51:30.000Z</time>
      </trkpt>
      <trkpt lat="43.259676508605480194091796875" lon="-7.02285829000174999237060546875">
        <ele>523</ele>
        <time>2019-07-08T17:51:31.000Z</time>
      </trkpt>
      <trkpt lat="43.25972906313836574554443359375" lon="-7.02289986424148082733154296875">
        <ele>524</ele>
        <time>2019-07-08T17:51:32.000Z</time>
      </trkpt>
      <trkpt lat="43.2597789354622364044189453125" lon="-7.02292014844715595245361328125">
        <ele>525.20001220703125</ele>
        <time>2019-07-08T17:51:33.000Z</time>
      </trkpt>
      <trkpt lat="43.2598285563290119171142578125" lon="-7.02292970381677150726318359375">
        <ele>526.4000244140625</ele>
        <time>2019-07-08T17:51:34.000Z</time>
      </trkpt>
      <trkpt lat="43.25987524352967739105224609375" lon="-7.0229463838040828704833984375">
        <ele>527.4000244140625</ele>
        <time>2019-07-08T17:51:35.000Z</time>
      </trkpt>
      <trkpt lat="43.25993509031832218170166015625" lon="-7.0230384171009063720703125">
        <ele>528.5999755859375</ele>
        <time>2019-07-08T17:51:37.000Z</time>
      </trkpt>
      <trkpt lat="43.259909190237522125244140625" lon="-7.0231483876705169677734375">
        <ele>529.20001220703125</ele>
        <time>2019-07-08T17:51:39.000Z</time>
      </trkpt>
      <trkpt lat="43.259817995131015777587890625" lon="-7.0232565142214298248291015625">
        <ele>529.79998779296875</ele>
        <time>2019-07-08T17:51:41.000Z</time>
      </trkpt>
      <trkpt lat="43.25955388136208057403564453125" lon="-7.02376864850521087646484375">
        <ele>529.20001220703125</ele>
        <time>2019-07-08T17:51:47.000Z</time>
      </trkpt>
      <trkpt lat="43.2595197670161724090576171875" lon="-7.02390384860336780548095703125">
        <ele>528.79998779296875</ele>
        <time>2019-07-08T17:51:48.000Z</time>
      </trkpt>
      <trkpt lat="43.2594929449260234832763671875" lon="-7.02405723743140697479248046875">
        <ele>528.4000244140625</ele>
        <time>2019-07-08T17:51:49.000Z</time>
      </trkpt>
      <trkpt lat="43.25946134515106678009033203125" lon="-7.0243870653212070465087890625">
        <ele>526.79998779296875</ele>
        <time>2019-07-08T17:51:51.000Z</time>
      </trkpt>
      <trkpt lat="43.25946335680782794952392578125" lon="-7.02454556711018085479736328125">
        <ele>525.4000244140625</ele>
        <time>2019-07-08T17:51:52.000Z</time>
      </trkpt>
      <trkpt lat="43.2594859041273593902587890625" lon="-7.0247008837759494781494140625">
        <ele>523.4000244140625</ele>
        <time>2019-07-08T17:51:53.000Z</time>
      </trkpt>
      <trkpt lat="43.2595251314342021942138671875" lon="-7.02485435642302036285400390625">
        <ele>521.4000244140625</ele>
        <time>2019-07-08T17:51:54.000Z</time>
      </trkpt>
      <trkpt lat="43.25957483612000942230224609375" lon="-7.02499869279563426971435546875">
        <ele>519.79998779296875</ele>
        <time>2019-07-08T17:51:55.000Z</time>
      </trkpt>
      <trkpt lat="43.259638287127017974853515625" lon="-7.02512408606708049774169921875">
        <ele>518.79998779296875</ele>
        <time>2019-07-08T17:51:56.000Z</time>
      </trkpt>
      <trkpt lat="43.259718418121337890625" lon="-7.0252198912203311920166015625">
        <ele>518.4000244140625</ele>
        <time>2019-07-08T17:51:57.000Z</time>
      </trkpt>
      <trkpt lat="43.25981774367392063140869140625" lon="-7.02527764253318309783935546875">
        <ele>518.20001220703125</ele>
        <time>2019-07-08T17:51:58.000Z</time>
      </trkpt>
      <trkpt lat="43.26004455797374248504638671875" lon="-7.02527931891381740570068359375">
        <ele>518.79998779296875</ele>
        <time>2019-07-08T17:52:00.000Z</time>
      </trkpt>
      <trkpt lat="43.260284028947353363037109375" lon="-7.0252051390707492828369140625">
        <ele>520</ele>
        <time>2019-07-08T17:52:02.000Z</time>
      </trkpt>
      <trkpt lat="43.26052014715969562530517578125" lon="-7.02514051459729671478271484375">
        <ele>521.20001220703125</ele>
        <time>2019-07-08T17:52:04.000Z</time>
      </trkpt>
      <trkpt lat="43.26074101030826568603515625" lon="-7.02511855401098728179931640625">
        <ele>522.5999755859375</ele>
        <time>2019-07-08T17:52:06.000Z</time>
      </trkpt>
      <trkpt lat="43.26094980351626873016357421875" lon="-7.02513816766440868377685546875">
        <ele>524.4000244140625</ele>
        <time>2019-07-08T17:52:08.000Z</time>
      </trkpt>
      <trkpt lat="43.26105088926851749420166015625" lon="-7.0251642353832721710205078125">
        <ele>525.79998779296875</ele>
        <time>2019-07-08T17:52:09.000Z</time>
      </trkpt>
      <trkpt lat="43.2611471973359584808349609375" lon="-7.02520254068076610565185546875">
        <ele>527.4000244140625</ele>
        <time>2019-07-08T17:52:10.000Z</time>
      </trkpt>
      <trkpt lat="43.26124233193695545196533203125" lon="-7.0252525806427001953125">
        <ele>528.5999755859375</ele>
        <time>2019-07-08T17:52:11.000Z</time>
      </trkpt>
      <trkpt lat="43.261414580047130584716796875" lon="-7.02537051402032375335693359375">
        <ele>530.5999755859375</ele>
        <time>2019-07-08T17:52:13.000Z</time>
      </trkpt>
      <trkpt lat="43.26155514456331729888916015625" lon="-7.02550143934786319732666015625">
        <ele>531.5999755859375</ele>
        <time>2019-07-08T17:52:15.000Z</time>
      </trkpt>
      <trkpt lat="43.26166008599102497100830078125" lon="-7.02565784566104412078857421875">
        <ele>532.4000244140625</ele>
        <time>2019-07-08T17:52:17.000Z</time>
      </trkpt>
      <trkpt lat="43.26169730164110660552978515625" lon="-7.02574049122631549835205078125">
        <ele>532.79998779296875</ele>
        <time>2019-07-08T17:52:18.000Z</time>
      </trkpt>
      <trkpt lat="43.2617171667516231536865234375" lon="-7.02582850120961666107177734375">
        <ele>533.79998779296875</ele>
        <time>2019-07-08T17:52:19.000Z</time>
      </trkpt>
      <trkpt lat="43.26171993277966976165771484375" lon="-7.02592170797288417816162109375">
        <ele>534.5999755859375</ele>
        <time>2019-07-08T17:52:20.000Z</time>
      </trkpt>
      <trkpt lat="43.261711634695529937744140625" lon="-7.02601089142262935638427734375">
        <ele>535.4000244140625</ele>
        <time>2019-07-08T17:52:21.000Z</time>
      </trkpt>
      <trkpt lat="43.2616947032511234283447265625" lon="-7.026089765131473541259765625">
        <ele>535.79998779296875</ele>
        <time>2019-07-08T17:52:22.000Z</time>
      </trkpt>
      <trkpt lat="43.2616678811609745025634765625" lon="-7.0262337662279605865478515625">
        <ele>537.20001220703125</ele>
        <time>2019-07-08T17:52:25.000Z</time>
      </trkpt>
      <trkpt lat="43.26169797219336032867431640625" lon="-7.02625547535717487335205078125">
        <ele>538</ele>
        <time>2019-07-08T17:52:27.000Z</time>
      </trkpt>
      <trkpt lat="43.26171624474227428436279296875" lon="-7.0262515358626842498779296875">
        <ele>538.20001220703125</ele>
        <time>2019-07-08T17:52:28.000Z</time>
      </trkpt>
      <trkpt lat="43.2617577351629734039306640625" lon="-7.0261486060917377471923828125">
        <ele>538.4000244140625</ele>
        <time>2019-07-08T17:52:44.000Z</time>
      </trkpt>
      <trkpt lat="43.261764608323574066162109375" lon="-7.02604559250175952911376953125">
        <ele>538</ele>
        <time>2019-07-08T17:52:46.000Z</time>
      </trkpt>
      <trkpt lat="43.26175580732524394989013671875" lon="-7.025929503142833709716796875">
        <ele>537.20001220703125</ele>
        <time>2019-07-08T17:52:48.000Z</time>
      </trkpt>
      <trkpt lat="43.261729069054126739501953125" lon="-7.02585549093782901763916015625">
        <ele>536.4000244140625</ele>
        <time>2019-07-08T17:52:50.000Z</time>
      </trkpt>
      <trkpt lat="43.261679448187351226806640625" lon="-7.02582028694450855255126953125">
        <ele>536.20001220703125</ele>
        <time>2019-07-08T17:52:57.000Z</time>
      </trkpt>
      <trkpt lat="43.261649943888187408447265625" lon="-7.02597635798156261444091796875">
        <ele>536.20001220703125</ele>
        <time>2019-07-08T17:53:00.000Z</time>
      </trkpt>
      <trkpt lat="43.26164013706147670745849609375" lon="-7.02608347870409488677978515625">
        <ele>536</ele>
        <time>2019-07-08T17:53:01.000Z</time>
      </trkpt>
      <trkpt lat="43.26160895638167858123779296875" lon="-7.02621608041226863861083984375">
        <ele>535.79998779296875</ele>
        <time>2019-07-08T17:53:02.000Z</time>
      </trkpt>
      <trkpt lat="43.26146260835230350494384765625" lon="-7.02663458883762359619140625">
        <ele>536</ele>
        <time>2019-07-08T17:53:05.000Z</time>
      </trkpt>
      <trkpt lat="43.2614341937005519866943359375" lon="-7.026952095329761505126953125">
        <ele>537.4000244140625</ele>
        <time>2019-07-08T17:53:07.000Z</time>
      </trkpt>
      <trkpt lat="43.26151407323777675628662109375" lon="-7.02729617245495319366455078125">
        <ele>539.20001220703125</ele>
        <time>2019-07-08T17:53:09.000Z</time>
      </trkpt>
      <trkpt lat="43.2616670429706573486328125" lon="-7.02769330702722072601318359375">
        <ele>540.20001220703125</ele>
        <time>2019-07-08T17:53:11.000Z</time>
      </trkpt>
      <trkpt lat="43.261817581951618194580078125" lon="-7.0280730910599231719970703125">
        <ele>541.4000244140625</ele>
        <time>2019-07-08T17:53:13.000Z</time>
      </trkpt>
      <trkpt lat="43.26197306625545024871826171875" lon="-7.02837542630732059478759765625">
        <ele>542.4000244140625</ele>
        <time>2019-07-08T17:53:15.000Z</time>
      </trkpt>
      <trkpt lat="43.2620718888938426971435546875" lon="-7.02849595807492733001708984375">
        <ele>544</ele>
        <time>2019-07-08T17:53:16.000Z</time>
      </trkpt>
      <trkpt lat="43.26218915171921253204345703125" lon="-7.02858899720013141632080078125">
        <ele>546.20001220703125</ele>
        <time>2019-07-08T17:53:17.000Z</time>
      </trkpt>
      <trkpt lat="43.2623256929218769073486328125" lon="-7.02865898609161376953125">
        <ele>548</ele>
        <time>2019-07-08T17:53:18.000Z</time>
      </trkpt>
      <trkpt lat="43.26247899793088436126708984375" lon="-7.02871958725154399871826171875">
        <ele>549.20001220703125</ele>
        <time>2019-07-08T17:53:19.000Z</time>
      </trkpt>
      <trkpt lat="43.2628071494400501251220703125" lon="-7.0287979580461978912353515625">
        <ele>551</ele>
        <time>2019-07-08T17:53:21.000Z</time>
      </trkpt>
      <trkpt lat="43.2631422579288482666015625" lon="-7.02878261916339397430419921875">
        <ele>552.4000244140625</ele>
        <time>2019-07-08T17:53:23.000Z</time>
      </trkpt>
      <trkpt lat="43.2634555734694004058837890625" lon="-7.0287205092608928680419921875">
        <ele>553.79998779296875</ele>
        <time>2019-07-08T17:53:25.000Z</time>
      </trkpt>
      <trkpt lat="43.2636034302413463592529296875" lon="-7.02871724031865596771240234375">
        <ele>554.5999755859375</ele>
        <time>2019-07-08T17:53:26.000Z</time>
      </trkpt>
      <trkpt lat="43.26374701224267482757568359375" lon="-7.02875596471130847930908203125">
        <ele>555.20001220703125</ele>
        <time>2019-07-08T17:53:27.000Z</time>
      </trkpt>
      <trkpt lat="43.26388414017856121063232421875" lon="-7.0288452319800853729248046875">
        <ele>555.5999755859375</ele>
        <time>2019-07-08T17:53:28.000Z</time>
      </trkpt>
      <trkpt lat="43.264158479869365692138671875" lon="-7.02908813953399658203125">
        <ele>556.5999755859375</ele>
        <time>2019-07-08T17:53:30.000Z</time>
      </trkpt>
      <trkpt lat="43.26431044377386569976806640625" lon="-7.0291892252862453460693359375">
        <ele>557.5999755859375</ele>
        <time>2019-07-08T17:53:31.000Z</time>
      </trkpt>
      <trkpt lat="43.26449015177786350250244140625" lon="-7.029246054589748382568359375">
        <ele>558.79998779296875</ele>
        <time>2019-07-08T17:53:32.000Z</time>
      </trkpt>
      <trkpt lat="43.26468964107334613800048828125" lon="-7.02926944009959697723388671875">
        <ele>559.79998779296875</ele>
        <time>2019-07-08T17:53:33.000Z</time>
      </trkpt>
      <trkpt lat="43.2649039663374423980712890625" lon="-7.0292800851166248321533203125">
        <ele>561.20001220703125</ele>
        <time>2019-07-08T17:53:34.000Z</time>
      </trkpt>
      <trkpt lat="43.26551944948732852935791015625" lon="-7.0293109305202960968017578125">
        <ele>562.5999755859375</ele>
        <time>2019-07-08T17:53:37.000Z</time>
      </trkpt>
      <trkpt lat="43.2656888477504253387451171875" lon="-7.02930112369358539581298828125">
        <ele>564</ele>
        <time>2019-07-08T17:53:38.000Z</time>
      </trkpt>
      <trkpt lat="43.2659875787794589996337890625" lon="-7.02916718088090419769287109375">
        <ele>566.5999755859375</ele>
        <time>2019-07-08T17:53:40.000Z</time>
      </trkpt>
      <trkpt lat="43.2661153189837932586669921875" lon="-7.0290514267981052398681640625">
        <ele>568.79998779296875</ele>
        <time>2019-07-08T17:53:41.000Z</time>
      </trkpt>
      <trkpt lat="43.266235180199146270751953125" lon="-7.02893064357340335845947265625">
        <ele>571.20001220703125</ele>
        <time>2019-07-08T17:53:42.000Z</time>
      </trkpt>
      <trkpt lat="43.2663560472428798675537109375" lon="-7.0288448967039585113525390625">
        <ele>572.79998779296875</ele>
        <time>2019-07-08T17:53:43.000Z</time>
      </trkpt>
      <trkpt lat="43.2664883136749267578125" lon="-7.02881312929093837738037109375">
        <ele>574.20001220703125</ele>
        <time>2019-07-08T17:53:44.000Z</time>
      </trkpt>
      <trkpt lat="43.26662711799144744873046875" lon="-7.028821595013141632080078125">
        <ele>575.20001220703125</ele>
        <time>2019-07-08T17:53:45.000Z</time>
      </trkpt>
      <trkpt lat="43.2669146172702312469482421875" lon="-7.0289672724902629852294921875">
        <ele>576.5999755859375</ele>
        <time>2019-07-08T17:53:47.000Z</time>
      </trkpt>
      <trkpt lat="43.267192058265209197998046875" lon="-7.0292475633323192596435546875">
        <ele>576.5999755859375</ele>
        <time>2019-07-08T17:53:49.000Z</time>
      </trkpt>
      <trkpt lat="43.2674245722591876983642578125" lon="-7.02985994517803192138671875">
        <ele>576.5999755859375</ele>
        <time>2019-07-08T17:53:52.000Z</time>
      </trkpt>
      <trkpt lat="43.26748584397137165069580078125" lon="-7.03005314804613590240478515625">
        <ele>577.5999755859375</ele>
        <time>2019-07-08T17:53:53.000Z</time>
      </trkpt>
      <trkpt lat="43.267570920288562774658203125" lon="-7.0302195288240909576416015625">
        <ele>578.5999755859375</ele>
        <time>2019-07-08T17:53:54.000Z</time>
      </trkpt>
      <trkpt lat="43.26768600381910800933837890625" lon="-7.03034467063844203948974609375">
        <ele>580.4000244140625</ele>
        <time>2019-07-08T17:53:55.000Z</time>
      </trkpt>
      <trkpt lat="43.26781441457569599151611328125" lon="-7.0304398052394390106201171875">
        <ele>582.4000244140625</ele>
        <time>2019-07-08T17:53:56.000Z</time>
      </trkpt>
      <trkpt lat="43.26795171014964580535888671875" lon="-7.03051717020571231842041015625">
        <ele>584.20001220703125</ele>
        <time>2019-07-08T17:53:57.000Z</time>
      </trkpt>
      <trkpt lat="43.26809554360806941986083984375" lon="-7.0305846445262432098388671875">
        <ele>585.79998779296875</ele>
        <time>2019-07-08T17:53:58.000Z</time>
      </trkpt>
      <trkpt lat="43.26840098015964031219482421875" lon="-7.030711881816387176513671875">
        <ele>587.5999755859375</ele>
        <time>2019-07-08T17:54:00.000Z</time>
      </trkpt>
      <trkpt lat="43.268726952373981475830078125" lon="-7.030824534595012664794921875">
        <ele>588.79998779296875</ele>
        <time>2019-07-08T17:54:02.000Z</time>
      </trkpt>
      <trkpt lat="43.2692524977028369903564453125" lon="-7.0309051685035228729248046875">
        <ele>590.5999755859375</ele>
        <time>2019-07-08T17:54:05.000Z</time>
      </trkpt>
      <trkpt lat="43.26943279244005680084228515625" lon="-7.03090860508382320404052734375">
        <ele>591.79998779296875</ele>
        <time>2019-07-08T17:54:06.000Z</time>
      </trkpt>
      <trkpt lat="43.26961384154856204986572265625" lon="-7.0309080183506011962890625">
        <ele>592.79998779296875</ele>
        <time>2019-07-08T17:54:07.000Z</time>
      </trkpt>
      <trkpt lat="43.2699733413755893707275390625" lon="-7.0309041626751422882080078125">
        <ele>594</ele>
        <time>2019-07-08T17:54:09.000Z</time>
      </trkpt>
      <trkpt lat="43.2704859785735607147216796875" lon="-7.03088580630719661712646484375">
        <ele>595.20001220703125</ele>
        <time>2019-07-08T17:54:12.000Z</time>
      </trkpt>
      <trkpt lat="43.27065386809408664703369140625" lon="-7.03087893314659595489501953125">
        <ele>596.20001220703125</ele>
        <time>2019-07-08T17:54:13.000Z</time>
      </trkpt>
      <trkpt lat="43.27082209289073944091796875" lon="-7.03086912631988525390625">
        <ele>597.4000244140625</ele>
        <time>2019-07-08T17:54:14.000Z</time>
      </trkpt>
      <trkpt lat="43.270986042916774749755859375" lon="-7.03085278160870075225830078125">
        <ele>599.20001220703125</ele>
        <time>2019-07-08T17:54:15.000Z</time>
      </trkpt>
      <trkpt lat="43.271148987114429473876953125" lon="-7.0308287255465984344482421875">
        <ele>600.79998779296875</ele>
        <time>2019-07-08T17:54:16.000Z</time>
      </trkpt>
      <trkpt lat="43.27130799181759357452392578125" lon="-7.0307941921055316925048828125">
        <ele>602.20001220703125</ele>
        <time>2019-07-08T17:54:17.000Z</time>
      </trkpt>
      <trkpt lat="43.2714649848639965057373046875" lon="-7.03075152821838855743408203125">
        <ele>603.20001220703125</ele>
        <time>2019-07-08T17:54:18.000Z</time>
      </trkpt>
      <trkpt lat="43.27176413498818874359130859375" lon="-7.030662931501865386962890625">
        <ele>605.20001220703125</ele>
        <time>2019-07-08T17:54:20.000Z</time>
      </trkpt>
      <trkpt lat="43.27191014774143695831298828125" lon="-7.03061171807348728179931640625">
        <ele>606.20001220703125</ele>
        <time>2019-07-08T17:54:21.000Z</time>
      </trkpt>
      <trkpt lat="43.2721918635070323944091796875" lon="-7.03051683492958545684814453125">
        <ele>608.4000244140625</ele>
        <time>2019-07-08T17:54:23.000Z</time>
      </trkpt>
      <trkpt lat="43.27248330228030681610107421875" lon="-7.03046771697700023651123046875">
        <ele>609.20001220703125</ele>
        <time>2019-07-08T17:54:25.000Z</time>
      </trkpt>
      <trkpt lat="43.2726226933300495147705078125" lon="-7.03047459013760089874267578125">
        <ele>609.79998779296875</ele>
        <time>2019-07-08T17:54:26.000Z</time>
      </trkpt>
      <trkpt lat="43.27276091091334819793701171875" lon="-7.03049831092357635498046875">
        <ele>609.5999755859375</ele>
        <time>2019-07-08T17:54:27.000Z</time>
      </trkpt>
      <trkpt lat="43.27323365025222301483154296875" lon="-7.03066167421638965606689453125">
        <ele>610.20001220703125</ele>
        <time>2019-07-08T17:54:31.000Z</time>
      </trkpt>
      <trkpt lat="43.2734229974448680877685546875" lon="-7.0307348482310771942138671875">
        <ele>611</ele>
        <time>2019-07-08T17:54:33.000Z</time>
      </trkpt>
      <trkpt lat="43.2735894620418548583984375" lon="-7.03080416657030582427978515625">
        <ele>612.20001220703125</ele>
        <time>2019-07-08T17:54:35.000Z</time>
      </trkpt>
      <trkpt lat="43.2737316191196441650390625" lon="-7.03088077716529369354248046875">
        <ele>613.79998779296875</ele>
        <time>2019-07-08T17:54:37.000Z</time>
      </trkpt>
      <trkpt lat="43.27378853224217891693115234375" lon="-7.03092017211019992828369140625">
        <ele>615</ele>
        <time>2019-07-08T17:54:38.000Z</time>
      </trkpt>
      <trkpt lat="43.27383614145219326019287109375" lon="-7.03096090815961360931396484375">
        <ele>616</ele>
        <time>2019-07-08T17:54:39.000Z</time>
      </trkpt>
      <trkpt lat="43.27388592995703220367431640625" lon="-7.03105210326611995697021484375">
        <ele>617.4000244140625</ele>
        <time>2019-07-08T17:54:41.000Z</time>
      </trkpt>
      <trkpt lat="43.27382608316838741302490234375" lon="-7.03123650513589382171630859375">
        <ele>617.79998779296875</ele>
        <time>2019-07-08T17:54:45.000Z</time>
      </trkpt>
      <trkpt lat="43.2738072238862514495849609375" lon="-7.03139944933354854583740234375">
        <ele>618</ele>
        <time>2019-07-08T17:54:47.000Z</time>
      </trkpt>
      <trkpt lat="43.27382591553032398223876953125" lon="-7.03170186839997768402099609375">
        <ele>618.4000244140625</ele>
        <time>2019-07-08T17:54:50.000Z</time>
      </trkpt>
      <trkpt lat="43.2738053798675537109375" lon="-7.03205265104770660400390625">
        <ele>619.5999755859375</ele>
        <time>2019-07-08T17:54:54.000Z</time>
      </trkpt>
      <trkpt lat="43.27376472763717174530029296875" lon="-7.0323609374463558197021484375">
        <ele>620.79998779296875</ele>
        <time>2019-07-08T17:54:58.000Z</time>
      </trkpt>
      <trkpt lat="43.27372751198709011077880859375" lon="-7.03255866654217243194580078125">
        <ele>621.79998779296875</ele>
        <time>2019-07-08T17:55:01.000Z</time>
      </trkpt>
      <trkpt lat="43.2736597023904323577880859375" lon="-7.03273200429975986480712890625">
        <ele>623</ele>
        <time>2019-07-08T17:55:04.000Z</time>
      </trkpt>
      <trkpt lat="43.273597173392772674560546875" lon="-7.0328393764793872833251953125">
        <ele>624</ele>
        <time>2019-07-08T17:55:06.000Z</time>
      </trkpt>
      <trkpt lat="43.2735356502234935760498046875" lon="-7.0329386182129383087158203125">
        <ele>625.20001220703125</ele>
        <time>2019-07-08T17:55:08.000Z</time>
      </trkpt>
      <trkpt lat="43.27348125167191028594970703125" lon="-7.03299569897353649139404296875">
        <ele>626.5999755859375</ele>
        <time>2019-07-08T17:55:10.000Z</time>
      </trkpt>
      <trkpt lat="43.27342651784420013427734375" lon="-7.03299636952579021453857421875">
        <ele>628</ele>
        <time>2019-07-08T17:55:12.000Z</time>
      </trkpt>
      <trkpt lat="43.27323247678577899932861328125" lon="-7.0330683700740337371826171875">
        <ele>628.20001220703125</ele>
        <time>2019-07-08T17:59:24.000Z</time>
      </trkpt>
      <trkpt lat="43.27314932830631732940673828125" lon="-7.03315436840057373046875">
        <ele>628.5999755859375</ele>
        <time>2019-07-08T18:02:04.000Z</time>
      </trkpt>
      <trkpt lat="43.273001052439212799072265625" lon="-7.033164761960506439208984375">
        <ele>628</ele>
        <time>2019-07-08T18:02:23.000Z</time>
      </trkpt>
      <trkpt lat="43.2729350030422210693359375" lon="-7.033092342317104339599609375">
        <ele>627.4000244140625</ele>
        <time>2019-07-08T18:02:27.000Z</time>
      </trkpt>
      <trkpt lat="43.27291614376008510589599609375" lon="-7.03309661708772182464599609375">
        <ele>627</ele>
        <time>2019-07-08T18:02:28.000Z</time>
      </trkpt>
      <trkpt lat="43.27281656675040721893310546875" lon="-7.03318026848137378692626953125">
        <ele>625.79998779296875</ele>
        <time>2019-07-08T18:02:32.000Z</time>
      </trkpt>
      <trkpt lat="43.27276543714106082916259765625" lon="-7.03323818743228912353515625">
        <ele>624.79998779296875</ele>
        <time>2019-07-08T18:02:35.000Z</time>
      </trkpt>
      <trkpt lat="43.2727722264826297760009765625" lon="-7.0332333259284496307373046875">
        <ele>623.5999755859375</ele>
        <time>2019-07-08T18:02:39.000Z</time>
      </trkpt>
      <trkpt lat="43.27270642854273319244384765625" lon="-7.0332886464893817901611328125">
        <ele>623.20001220703125</ele>
        <time>2019-07-08T18:02:42.000Z</time>
      </trkpt>
      <trkpt lat="43.2726454921066761016845703125" lon="-7.0332879759371280670166015625">
        <ele>622.20001220703125</ele>
        <time>2019-07-08T18:02:45.000Z</time>
      </trkpt>
      <trkpt lat="43.2726129703223705291748046875" lon="-7.033286802470684051513671875">
        <ele>621</ele>
        <time>2019-07-08T18:02:48.000Z</time>
      </trkpt>
      <trkpt lat="43.27257734723389148712158203125" lon="-7.03327548690140247344970703125">
        <ele>620.4000244140625</ele>
        <time>2019-07-08T18:02:51.000Z</time>
      </trkpt>
      <trkpt lat="43.27256024815142154693603515625" lon="-7.0332470722496509552001953125">
        <ele>620</ele>
        <time>2019-07-08T18:02:53.000Z</time>
      </trkpt>
      <trkpt lat="43.272545747458934783935546875" lon="-7.03325721435248851776123046875">
        <ele>619</ele>
        <time>2019-07-08T18:03:58.000Z</time>
      </trkpt>
      <trkpt lat="43.27255404554307460784912109375" lon="-7.0332376845180988311767578125">
        <ele>619.20001220703125</ele>
        <time>2019-07-08T18:04:23.000Z</time>
      </trkpt>
      <trkpt lat="43.272510208189487457275390625" lon="-7.03331504948437213897705078125">
        <ele>619</ele>
        <time>2019-07-08T18:05:42.000Z</time>
      </trkpt>
      <trkpt lat="43.2724736630916595458984375" lon="-7.03334279358386993408203125">
        <ele>618</ele>
        <time>2019-07-08T18:05:57.000Z</time>
      </trkpt>
      <trkpt lat="43.272427730262279510498046875" lon="-7.03339777886867523193359375">
        <ele>616.79998779296875</ele>
        <time>2019-07-08T18:06:13.000Z</time>
      </trkpt>
      <trkpt lat="43.272412978112697601318359375" lon="-7.0334743894636631011962890625">
        <ele>616.79998779296875</ele>
        <time>2019-07-08T18:06:46.000Z</time>
      </trkpt>
      <trkpt lat="43.2724081166088581085205078125" lon="-7.033466510474681854248046875">
        <ele>616.79998779296875</ele>
        <time>2019-07-08T18:06:48.000Z</time>
      </trkpt>
      <trkpt lat="43.2724074460566043853759765625" lon="-7.03345276415348052978515625">
        <ele>616.79998779296875</ele>
        <time>2019-07-08T18:06:53.000Z</time>
      </trkpt>
      <trkpt lat="43.27240602113306522369384765625" lon="-7.03340674750506877899169921875">
        <ele>615.79998779296875</ele>
        <time>2019-07-08T18:07:18.000Z</time>
      </trkpt>
      <trkpt lat="43.27245228923857212066650390625" lon="-7.0334026403725147247314453125">
        <ele>615.79998779296875</ele>
        <time>2019-07-08T18:08:36.000Z</time>
      </trkpt>
      <trkpt lat="43.2725945301353931427001953125" lon="-7.0338069833815097808837890625">
        <ele>615.5999755859375</ele>
        <time>2019-07-08T18:09:54.000Z</time>
      </trkpt>
      <trkpt lat="43.27251213602721691131591796875" lon="-7.03363775275647640228271484375">
        <ele>615.20001220703125</ele>
        <time>2019-07-08T18:10:16.000Z</time>
      </trkpt>
      <trkpt lat="43.27248212881386280059814453125" lon="-7.03339367173612117767333984375">
        <ele>615.5999755859375</ele>
        <time>2019-07-08T18:12:33.000Z</time>
      </trkpt>
      <trkpt lat="43.2724577374756336212158203125" lon="-7.0333798415958881378173828125">
        <ele>614.79998779296875</ele>
        <time>2019-07-08T18:12:57.000Z</time>
      </trkpt>
      <trkpt lat="43.27245421707630157470703125" lon="-7.03339098952710628509521484375">
        <ele>614.79998779296875</ele>
        <time>2019-07-08T18:13:44.000Z</time>
      </trkpt>
      <trkpt lat="43.2725368626415729522705078125" lon="-7.0335213281214237213134765625">
        <ele>615</ele>
        <time>2019-07-08T18:14:16.000Z</time>
      </trkpt>
      <trkpt lat="43.27250090427696704864501953125" lon="-7.03348218463361263275146484375">
        <ele>614.79998779296875</ele>
        <time>2019-07-08T18:14:18.000Z</time>
      </trkpt>
      <trkpt lat="43.272456228733062744140625" lon="-7.033462487161159515380859375">
        <ele>614.79998779296875</ele>
        <time>2019-07-08T18:14:20.000Z</time>
      </trkpt>
      <trkpt lat="43.2724389620125293731689453125" lon="-7.033453769981861114501953125">
        <ele>614.79998779296875</ele>
        <time>2019-07-08T18:14:22.000Z</time>
      </trkpt>
      <trkpt lat="43.27242429368197917938232421875" lon="-7.03350297175347805023193359375">
        <ele>615</ele>
        <time>2019-07-08T18:14:26.000Z</time>
      </trkpt>
      <trkpt lat="43.272425048053264617919921875" lon="-7.03347598202526569366455078125">
        <ele>614.79998779296875</ele>
        <time>2019-07-08T18:15:12.000Z</time>
      </trkpt>
      <trkpt lat="43.27244088985025882720947265625" lon="-7.03340976499021053314208984375">
        <ele>614.79998779296875</ele>
        <time>2019-07-08T18:15:21.000Z</time>
      </trkpt>
      <trkpt lat="43.27248699031770229339599609375" lon="-7.0334616489708423614501953125">
        <ele>614.79998779296875</ele>
        <time>2019-07-08T18:15:29.000Z</time>
      </trkpt>
      <trkpt lat="43.27256108634173870086669921875" lon="-7.0335186459124088287353515625">
        <ele>615.20001220703125</ele>
        <time>2019-07-08T18:16:06.000Z</time>
      </trkpt>
      <trkpt lat="43.27282511629164218902587890625" lon="-7.033441364765167236328125">
        <ele>615</ele>
        <time>2019-07-08T18:16:19.000Z</time>
      </trkpt>
      <trkpt lat="43.27296710573136806488037109375" lon="-7.0340084843337535858154296875">
        <ele>615</ele>
        <time>2019-07-08T18:16:33.000Z</time>
      </trkpt>
      <trkpt lat="43.27294397167861461639404296875" lon="-7.0346233807504177093505859375">
        <ele>615</ele>
        <time>2019-07-08T18:16:50.000Z</time>
      </trkpt>
      <trkpt lat="43.2728949375450611114501953125" lon="-7.03546307981014251708984375">
        <ele>614.79998779296875</ele>
        <time>2019-07-08T18:17:03.000Z</time>
      </trkpt>
      <trkpt lat="43.272779099643230438232421875" lon="-7.03564488328993320465087890625">
        <ele>614.79998779296875</ele>
        <time>2019-07-08T18:17:04.000Z</time>
      </trkpt>
      <trkpt lat="43.2727618329226970672607421875" lon="-7.03398493118584156036376953125">
        <ele>614.79998779296875</ele>
        <time>2019-07-08T18:17:05.000Z</time>
      </trkpt>
      <trkpt lat="43.2726656086742877960205078125" lon="-7.033315636217594146728515625">
        <ele>614.79998779296875</ele>
        <time>2019-07-08T18:17:07.000Z</time>
      </trkpt>
      <trkpt lat="43.272549770772457122802734375" lon="-7.03349224291741847991943359375">
        <ele>614.4000244140625</ele>
        <time>2019-07-08T18:19:29.000Z</time>
      </trkpt>
      <trkpt lat="43.27245430089533329010009765625" lon="-7.03338528983294963836669921875">
        <ele>601.5999755859375</ele>
        <time>2019-07-09T08:16:34.000Z</time>
      </trkpt>
      <trkpt lat="43.2725355215370655059814453125" lon="-7.03346173278987407684326171875">
        <ele>602</ele>
        <time>2019-07-09T08:18:03.000Z</time>
      </trkpt>
      <trkpt lat="43.27264574356377124786376953125" lon="-7.0334137044847011566162109375">
        <ele>603.4000244140625</ele>
        <time>2019-07-09T08:18:06.000Z</time>
      </trkpt>
      <trkpt lat="43.2727380283176898956298828125" lon="-7.03340657986700534820556640625">
        <ele>605.20001220703125</ele>
        <time>2019-07-09T08:18:09.000Z</time>
      </trkpt>
      <trkpt lat="43.2728392817080020904541015625" lon="-7.03334673307836055755615234375">
        <ele>605.79998779296875</ele>
        <time>2019-07-09T08:18:12.000Z</time>
      </trkpt>
      <trkpt lat="43.27287507243454456329345703125" lon="-7.03331052325665950775146484375">
        <ele>606.4000244140625</ele>
        <time>2019-07-09T08:18:13.000Z</time>
      </trkpt>
      <trkpt lat="43.27295352704823017120361328125" lon="-7.0332192443311214447021484375">
        <ele>607.79998779296875</ele>
        <time>2019-07-09T08:18:16.000Z</time>
      </trkpt>
      <trkpt lat="43.27297230251133441925048828125" lon="-7.033202983438968658447265625">
        <ele>608.4000244140625</ele>
        <time>2019-07-09T08:18:17.000Z</time>
      </trkpt>
      <trkpt lat="43.27299510128796100616455078125" lon="-7.03320038504898548126220703125">
        <ele>608.79998779296875</ele>
        <time>2019-07-09T08:18:18.000Z</time>
      </trkpt>
      <trkpt lat="43.27301555313169956207275390625" lon="-7.03321882523596286773681640625">
        <ele>609.20001220703125</ele>
        <time>2019-07-09T08:18:19.000Z</time>
      </trkpt>
      <trkpt lat="43.27305637300014495849609375" lon="-7.03326165676116943359375">
        <ele>610</ele>
        <time>2019-07-09T08:18:21.000Z</time>
      </trkpt>
      <trkpt lat="43.27307322062551975250244140625" lon="-7.033276073634624481201171875">
        <ele>610.5999755859375</ele>
        <time>2019-07-09T08:18:22.000Z</time>
      </trkpt>
      <trkpt lat="43.273090235888957977294921875" lon="-7.0332772471010684967041015625">
        <ele>611</ele>
        <time>2019-07-09T08:18:23.000Z</time>
      </trkpt>
      <trkpt lat="43.27319450676441192626953125" lon="-7.0332028158009052276611328125">
        <ele>612.4000244140625</ele>
        <time>2019-07-09T08:18:26.000Z</time>
      </trkpt>
      <trkpt lat="43.27335736714303493499755859375" lon="-7.0330296456813812255859375">
        <ele>613.4000244140625</ele>
        <time>2019-07-09T08:18:40.000Z</time>
      </trkpt>
      <trkpt lat="43.2733576186001300811767578125" lon="-7.03302822075784206390380859375">
        <ele>613.5999755859375</ele>
        <time>2019-07-09T08:18:48.000Z</time>
      </trkpt>
      <trkpt lat="43.273357115685939788818359375" lon="-7.03302436508238315582275390625">
        <ele>614.4000244140625</ele>
        <time>2019-07-09T08:19:26.000Z</time>
      </trkpt>
      <trkpt lat="43.2733629830181598663330078125" lon="-7.03300072811543941497802734375">
        <ele>614.20001220703125</ele>
        <time>2019-07-09T08:20:12.000Z</time>
      </trkpt>
      <trkpt lat="43.27343062497675418853759765625" lon="-7.03301531262695789337158203125">
        <ele>614</ele>
        <time>2019-07-09T08:20:15.000Z</time>
      </trkpt>
      <trkpt lat="43.27350153587758541107177734375" lon="-7.0330028235912322998046875">
        <ele>613.79998779296875</ele>
        <time>2019-07-09T08:20:18.000Z</time>
      </trkpt>
      <trkpt lat="43.27359415590763092041015625" lon="-7.03287432901561260223388671875">
        <ele>613.5999755859375</ele>
        <time>2019-07-09T08:20:21.000Z</time>
      </trkpt>
      <trkpt lat="43.27365576289594173431396484375" lon="-7.0327401347458362579345703125">
        <ele>613.20001220703125</ele>
        <time>2019-07-09T08:20:23.000Z</time>
      </trkpt>
      <trkpt lat="43.2737113349139690399169921875" lon="-7.032591439783573150634765625">
        <ele>611.79998779296875</ele>
        <time>2019-07-09T08:20:25.000Z</time>
      </trkpt>
      <trkpt lat="43.273734636604785919189453125" lon="-7.03250334598124027252197265625">
        <ele>611</ele>
        <time>2019-07-09T08:20:26.000Z</time>
      </trkpt>
      <trkpt lat="43.27375215478241443634033203125" lon="-7.03240946866571903228759765625">
        <ele>610.20001220703125</ele>
        <time>2019-07-09T08:20:27.000Z</time>
      </trkpt>
      <trkpt lat="43.27376221306622028350830078125" lon="-7.0323129929602146148681640625">
        <ele>609.4000244140625</ele>
        <time>2019-07-09T08:20:28.000Z</time>
      </trkpt>
      <trkpt lat="43.2737726904451847076416015625" lon="-7.03221903182566165924072265625">
        <ele>608.79998779296875</ele>
        <time>2019-07-09T08:20:29.000Z</time>
      </trkpt>
      <trkpt lat="43.27378928661346435546875" lon="-7.0320313610136508941650390625">
        <ele>607.79998779296875</ele>
        <time>2019-07-09T08:20:31.000Z</time>
      </trkpt>
      <trkpt lat="43.27379942871630191802978515625" lon="-7.03185609541833400726318359375">
        <ele>606.5999755859375</ele>
        <time>2019-07-09T08:20:33.000Z</time>
      </trkpt>
      <trkpt lat="43.2737954892218112945556640625" lon="-7.03167571686208248138427734375">
        <ele>605.5999755859375</ele>
        <time>2019-07-09T08:20:35.000Z</time>
      </trkpt>
      <trkpt lat="43.2737718522548675537109375" lon="-7.0314389280974864959716796875">
        <ele>604.4000244140625</ele>
        <time>2019-07-09T08:20:38.000Z</time>
      </trkpt>
      <trkpt lat="43.2737638056278228759765625" lon="-7.0313192345201969146728515625">
        <ele>604</ele>
        <time>2019-07-09T08:20:40.000Z</time>
      </trkpt>
      <trkpt lat="43.2737879455089569091796875" lon="-7.0311214216053485870361328125">
        <ele>603.4000244140625</ele>
        <time>2019-07-09T08:20:45.000Z</time>
      </trkpt>
      <trkpt lat="43.27381652779877185821533203125" lon="-7.0310872234404087066650390625">
        <ele>603.4000244140625</ele>
        <time>2019-07-09T08:20:49.000Z</time>
      </trkpt>
      <trkpt lat="43.2738759554922580718994140625" lon="-7.031114883720874786376953125">
        <ele>603.20001220703125</ele>
        <time>2019-07-09T08:20:51.000Z</time>
      </trkpt>
      <trkpt lat="43.27400612644851207733154296875" lon="-7.03137396834790706634521484375">
        <ele>602.20001220703125</ele>
        <time>2019-07-09T08:20:54.000Z</time>
      </trkpt>
      <trkpt lat="43.2740803062915802001953125" lon="-7.0317302830517292022705078125">
        <ele>601</ele>
        <time>2019-07-09T08:20:57.000Z</time>
      </trkpt>
      <trkpt lat="43.274124562740325927734375" lon="-7.03199540264904499053955078125">
        <ele>599.20001220703125</ele>
        <time>2019-07-09T08:20:59.000Z</time>
      </trkpt>
      <trkpt lat="43.27419220469892024993896484375" lon="-7.0322477817535400390625">
        <ele>598</ele>
        <time>2019-07-09T08:21:01.000Z</time>
      </trkpt>
      <trkpt lat="43.27431139536201953887939453125" lon="-7.03245489858090877532958984375">
        <ele>597</ele>
        <time>2019-07-09T08:21:03.000Z</time>
      </trkpt>
      <trkpt lat="43.27439269982278347015380859375" lon="-7.03252463601529598236083984375">
        <ele>596.5999755859375</ele>
        <time>2019-07-09T08:21:04.000Z</time>
      </trkpt>
      <trkpt lat="43.27448858879506587982177734375" lon="-7.03255766071379184722900390625">
        <ele>595.79998779296875</ele>
        <time>2019-07-09T08:21:05.000Z</time>
      </trkpt>
      <trkpt lat="43.27458732761442661285400390625" lon="-7.032553218305110931396484375">
        <ele>595</ele>
        <time>2019-07-09T08:21:06.000Z</time>
      </trkpt>
      <trkpt lat="43.2746839709579944610595703125" lon="-7.03252346254885196685791015625">
        <ele>594.20001220703125</ele>
        <time>2019-07-09T08:21:07.000Z</time>
      </trkpt>
      <trkpt lat="43.27478094957768917083740234375" lon="-7.0324769429862499237060546875">
        <ele>593.79998779296875</ele>
        <time>2019-07-09T08:21:08.000Z</time>
      </trkpt>
      <trkpt lat="43.27506140805780887603759765625" lon="-7.03232782892882823944091796875">
        <ele>592.20001220703125</ele>
        <time>2019-07-09T08:21:11.000Z</time>
      </trkpt>
      <trkpt lat="43.2752767391502857208251953125" lon="-7.03229664824903011322021484375">
        <ele>590.5999755859375</ele>
        <time>2019-07-09T08:21:13.000Z</time>
      </trkpt>
      <trkpt lat="43.27551486901938915252685546875" lon="-7.03238784335553646087646484375">
        <ele>589.4000244140625</ele>
        <time>2019-07-09T08:21:15.000Z</time>
      </trkpt>
      <trkpt lat="43.27576045878231525421142578125" lon="-7.03258565627038478851318359375">
        <ele>588.20001220703125</ele>
        <time>2019-07-09T08:21:17.000Z</time>
      </trkpt>
      <trkpt lat="43.275917954742908477783203125" lon="-7.03286133706569671630859375">
        <ele>586.20001220703125</ele>
        <time>2019-07-09T08:21:19.000Z</time>
      </trkpt>
      <trkpt lat="43.27597872354090213775634765625" lon="-7.03317205421626567840576171875">
        <ele>584.4000244140625</ele>
        <time>2019-07-09T08:21:21.000Z</time>
      </trkpt>
      <trkpt lat="43.27604711987078189849853515625" lon="-7.0334639959037303924560546875">
        <ele>583.4000244140625</ele>
        <time>2019-07-09T08:21:23.000Z</time>
      </trkpt>
      <trkpt lat="43.276096321642398834228515625" lon="-7.0335863716900348663330078125">
        <ele>583.20001220703125</ele>
        <time>2019-07-09T08:21:24.000Z</time>
      </trkpt>
      <trkpt lat="43.27614116482436656951904296875" lon="-7.03380589373409748077392578125">
        <ele>582.20001220703125</ele>
        <time>2019-07-09T08:21:26.000Z</time>
      </trkpt>
      <trkpt lat="43.2763030193746089935302734375" lon="-7.03392877243459224700927734375">
        <ele>581</ele>
        <time>2019-07-09T08:21:28.000Z</time>
      </trkpt>
      <trkpt lat="43.27647141180932521820068359375" lon="-7.03394553624093532562255859375">
        <ele>580</ele>
        <time>2019-07-09T08:21:30.000Z</time>
      </trkpt>
      <trkpt lat="43.276632092893123626708984375" lon="-7.03383523039519786834716796875">
        <ele>578.79998779296875</ele>
        <time>2019-07-09T08:21:32.000Z</time>
      </trkpt>
      <trkpt lat="43.27672001905739307403564453125" lon="-7.03361679799854755401611328125">
        <ele>577.4000244140625</ele>
        <time>2019-07-09T08:21:34.000Z</time>
      </trkpt>
      <trkpt lat="43.276783637702465057373046875" lon="-7.03331437893211841583251953125">
        <ele>576</ele>
        <time>2019-07-09T08:21:36.000Z</time>
      </trkpt>
      <trkpt lat="43.276831246912479400634765625" lon="-7.0329773426055908203125">
        <ele>575</ele>
        <time>2019-07-09T08:21:38.000Z</time>
      </trkpt>
      <trkpt lat="43.276821859180927276611328125" lon="-7.03262186609208583831787109375">
        <ele>573.79998779296875</ele>
        <time>2019-07-09T08:21:40.000Z</time>
      </trkpt>
      <trkpt lat="43.2768572308123111724853515625" lon="-7.03223629854619503021240234375">
        <ele>573.20001220703125</ele>
        <time>2019-07-09T08:21:42.000Z</time>
      </trkpt>
      <trkpt lat="43.2769148983061313629150390625" lon="-7.03203848563134670257568359375">
        <ele>572.5999755859375</ele>
        <time>2019-07-09T08:21:43.000Z</time>
      </trkpt>
      <trkpt lat="43.27702076174318790435791015625" lon="-7.03185416758060455322265625">
        <ele>572</ele>
        <time>2019-07-09T08:21:44.000Z</time>
      </trkpt>
      <trkpt lat="43.277122266590595245361328125" lon="-7.03167957253754138946533203125">
        <ele>571</ele>
        <time>2019-07-09T08:21:45.000Z</time>
      </trkpt>
      <trkpt lat="43.27723659574985504150390625" lon="-7.0315281115472316741943359375">
        <ele>569.79998779296875</ele>
        <time>2019-07-09T08:21:46.000Z</time>
      </trkpt>
      <trkpt lat="43.27736492268741130828857421875" lon="-7.03140087425708770751953125">
        <ele>568</ele>
        <time>2019-07-09T08:21:47.000Z</time>
      </trkpt>
      <trkpt lat="43.277506493031978607177734375" lon="-7.031299956142902374267578125">
        <ele>566.5999755859375</ele>
        <time>2019-07-09T08:21:48.000Z</time>
      </trkpt>
      <trkpt lat="43.2776571996510028839111328125" lon="-7.03122443519532680511474609375">
        <ele>565.20001220703125</ele>
        <time>2019-07-09T08:21:49.000Z</time>
      </trkpt>
      <trkpt lat="43.27781771309673786163330078125" lon="-7.03117095865309238433837890625">
        <ele>564.4000244140625</ele>
        <time>2019-07-09T08:21:50.000Z</time>
      </trkpt>
      <trkpt lat="43.27798065729439258575439453125" lon="-7.0311294682323932647705078125">
        <ele>563.79998779296875</ele>
        <time>2019-07-09T08:21:51.000Z</time>
      </trkpt>
      <trkpt lat="43.2783076353371143341064453125" lon="-7.031056880950927734375">
        <ele>562</ele>
        <time>2019-07-09T08:21:53.000Z</time>
      </trkpt>
      <trkpt lat="43.27847066335380077362060546875" lon="-7.03101203776895999908447265625">
        <ele>560.4000244140625</ele>
        <time>2019-07-09T08:21:54.000Z</time>
      </trkpt>
      <trkpt lat="43.2786338590085506439208984375" lon="-7.0309631712734699249267578125">
        <ele>558.4000244140625</ele>
        <time>2019-07-09T08:21:55.000Z</time>
      </trkpt>
      <trkpt lat="43.27879286371171474456787109375" lon="-7.03091262839734554290771484375">
        <ele>556.79998779296875</ele>
        <time>2019-07-09T08:21:56.000Z</time>
      </trkpt>
      <trkpt lat="43.27894792892038822174072265625" lon="-7.03086485154926776885986328125">
        <ele>555.79998779296875</ele>
        <time>2019-07-09T08:21:57.000Z</time>
      </trkpt>
      <trkpt lat="43.27910383231937885284423828125" lon="-7.03082495369017124176025390625">
        <ele>554.79998779296875</ele>
        <time>2019-07-09T08:21:58.000Z</time>
      </trkpt>
      <trkpt lat="43.2792571373283863067626953125" lon="-7.03079469501972198486328125">
        <ele>553.4000244140625</ele>
        <time>2019-07-09T08:21:59.000Z</time>
      </trkpt>
      <trkpt lat="43.27941195107996463775634765625" lon="-7.03077566809952259063720703125">
        <ele>552</ele>
        <time>2019-07-09T08:22:00.000Z</time>
      </trkpt>
      <trkpt lat="43.2795627415180206298828125" lon="-7.030768208205699920654296875">
        <ele>550.79998779296875</ele>
        <time>2019-07-09T08:22:01.000Z</time>
      </trkpt>
      <trkpt lat="43.279704563319683074951171875" lon="-7.03076762147247791290283203125">
        <ele>549.5999755859375</ele>
        <time>2019-07-09T08:22:02.000Z</time>
      </trkpt>
      <trkpt lat="43.27995107509195804595947265625" lon="-7.0307479240000247955322265625">
        <ele>548.5999755859375</ele>
        <time>2019-07-09T08:22:04.000Z</time>
      </trkpt>
      <trkpt lat="43.28007034957408905029296875" lon="-7.0307194255292415618896484375">
        <ele>548.4000244140625</ele>
        <time>2019-07-09T08:22:05.000Z</time>
      </trkpt>
      <trkpt lat="43.28028417192399501800537109375" lon="-7.030562348663806915283203125">
        <ele>548</ele>
        <time>2019-07-09T08:22:07.000Z</time>
      </trkpt>
      <trkpt lat="43.28042129985988140106201171875" lon="-7.03025582246482372283935546875">
        <ele>547.5999755859375</ele>
        <time>2019-07-09T08:22:09.000Z</time>
      </trkpt>
      <trkpt lat="43.2804778777062892913818359375" lon="-7.02992943115532398223876953125">
        <ele>546.4000244140625</ele>
        <time>2019-07-09T08:22:11.000Z</time>
      </trkpt>
      <trkpt lat="43.280509896576404571533203125" lon="-7.0297829993069171905517578125">
        <ele>545.5999755859375</ele>
        <time>2019-07-09T08:22:12.000Z</time>
      </trkpt>
      <trkpt lat="43.280562870204448699951171875" lon="-7.02965316362679004669189453125">
        <ele>545.20001220703125</ele>
        <time>2019-07-09T08:22:13.000Z</time>
      </trkpt>
      <trkpt lat="43.28064040280878543853759765625" lon="-7.02954637818038463592529296875">
        <ele>545</ele>
        <time>2019-07-09T08:22:14.000Z</time>
      </trkpt>
      <trkpt lat="43.28083134256303310394287109375" lon="-7.0293746329843997955322265625">
        <ele>545</ele>
        <time>2019-07-09T08:22:16.000Z</time>
      </trkpt>
      <trkpt lat="43.28093410469591617584228515625" lon="-7.02930296771228313446044921875">
        <ele>545.4000244140625</ele>
        <time>2019-07-09T08:22:17.000Z</time>
      </trkpt>
      <trkpt lat="43.28115404583513736724853515625" lon="-7.0291741378605365753173828125">
        <ele>546.4000244140625</ele>
        <time>2019-07-09T08:22:19.000Z</time>
      </trkpt>
      <trkpt lat="43.2815936766564846038818359375" lon="-7.0288918353617191314697265625">
        <ele>547.5999755859375</ele>
        <time>2019-07-09T08:22:23.000Z</time>
      </trkpt>
      <trkpt lat="43.28203012235462665557861328125" lon="-7.02863224782049655914306640625">
        <ele>548.4000244140625</ele>
        <time>2019-07-09T08:22:27.000Z</time>
      </trkpt>
      <trkpt lat="43.28214327804744243621826171875" lon="-7.0285853929817676544189453125">
        <ele>549</ele>
        <time>2019-07-09T08:22:28.000Z</time>
      </trkpt>
      <trkpt lat="43.282380737364292144775390625" lon="-7.02852797694504261016845703125">
        <ele>550.20001220703125</ele>
        <time>2019-07-09T08:22:30.000Z</time>
      </trkpt>
      <trkpt lat="43.282505460083484649658203125" lon="-7.02851758338510990142822265625">
        <ele>550.79998779296875</ele>
        <time>2019-07-09T08:22:31.000Z</time>
      </trkpt>
      <trkpt lat="43.28263898380100727081298828125" lon="-7.028519175946712493896484375">
        <ele>551.4000244140625</ele>
        <time>2019-07-09T08:22:32.000Z</time>
      </trkpt>
      <trkpt lat="43.2827813923358917236328125" lon="-7.0285354368388652801513671875">
        <ele>552</ele>
        <time>2019-07-09T08:22:33.000Z</time>
      </trkpt>
      <trkpt lat="43.282928578555583953857421875" lon="-7.02857541851699352264404296875">
        <ele>552.79998779296875</ele>
        <time>2019-07-09T08:22:34.000Z</time>
      </trkpt>
      <trkpt lat="43.28318774700164794921875" lon="-7.02868756838142871856689453125">
        <ele>554.20001220703125</ele>
        <time>2019-07-09T08:22:36.000Z</time>
      </trkpt>
      <trkpt lat="43.28341699205338954925537109375" lon="-7.02883961610496044158935546875">
        <ele>555.4000244140625</ele>
        <time>2019-07-09T08:22:38.000Z</time>
      </trkpt>
      <trkpt lat="43.28365000896155834197998046875" lon="-7.0290232636034488677978515625">
        <ele>556.4000244140625</ele>
        <time>2019-07-09T08:22:40.000Z</time>
      </trkpt>
      <trkpt lat="43.28376232646405696868896484375" lon="-7.02913013286888599395751953125">
        <ele>556.5999755859375</ele>
        <time>2019-07-09T08:22:41.000Z</time>
      </trkpt>
      <trkpt lat="43.2840877957642078399658203125" lon="-7.02949524857103824615478515625">
        <ele>557.4000244140625</ele>
        <time>2019-07-09T08:22:44.000Z</time>
      </trkpt>
      <trkpt lat="43.2843365706503391265869140625" lon="-7.02967219054698944091796875">
        <ele>559</ele>
        <time>2019-07-09T08:22:46.000Z</time>
      </trkpt>
      <trkpt lat="43.2846081443130970001220703125" lon="-7.02976740896701812744140625">
        <ele>560.5999755859375</ele>
        <time>2019-07-09T08:22:48.000Z</time>
      </trkpt>
      <trkpt lat="43.28489203937351703643798828125" lon="-7.02980361878871917724609375">
        <ele>563.20001220703125</ele>
        <time>2019-07-09T08:22:50.000Z</time>
      </trkpt>
      <trkpt lat="43.2850346155464649200439453125" lon="-7.02981510199606418609619140625">
        <ele>565.79998779296875</ele>
        <time>2019-07-09T08:22:51.000Z</time>
      </trkpt>
      <trkpt lat="43.2851757667958736419677734375" lon="-7.02982985414564609527587890625">
        <ele>568.4000244140625</ele>
        <time>2019-07-09T08:22:52.000Z</time>
      </trkpt>
      <trkpt lat="43.2853179238736629486083984375" lon="-7.02984561212360858917236328125">
        <ele>570</ele>
        <time>2019-07-09T08:22:53.000Z</time>
      </trkpt>
      <trkpt lat="43.28561154194176197052001953125" lon="-7.02990847639739513397216796875">
        <ele>571.4000244140625</ele>
        <time>2019-07-09T08:22:55.000Z</time>
      </trkpt>
      <trkpt lat="43.28607271425426006317138671875" lon="-7.02997955493628978729248046875">
        <ele>571.20001220703125</ele>
        <time>2019-07-09T08:22:58.000Z</time>
      </trkpt>
      <trkpt lat="43.28655249439179897308349609375" lon="-7.02997972257435321807861328125">
        <ele>571</ele>
        <time>2019-07-09T08:23:01.000Z</time>
      </trkpt>
      <trkpt lat="43.2870368845760822296142578125" lon="-7.03004107810556888580322265625">
        <ele>573</ele>
        <time>2019-07-09T08:23:04.000Z</time>
      </trkpt>
      <trkpt lat="43.2871911115944385528564453125" lon="-7.030090950429439544677734375">
        <ele>574</ele>
        <time>2019-07-09T08:23:05.000Z</time>
      </trkpt>
      <trkpt lat="43.28749512322247028350830078125" lon="-7.03024492599070072174072265625">
        <ele>575.5999755859375</ele>
        <time>2019-07-09T08:23:07.000Z</time>
      </trkpt>
      <trkpt lat="43.2877728156745433807373046875" lon="-7.03045539557933807373046875">
        <ele>577.4000244140625</ele>
        <time>2019-07-09T08:23:09.000Z</time>
      </trkpt>
      <trkpt lat="43.28790851868689060211181640625" lon="-7.0305843092501163482666015625">
        <ele>578.79998779296875</ele>
        <time>2019-07-09T08:23:10.000Z</time>
      </trkpt>
      <trkpt lat="43.2880393601953983306884765625" lon="-7.03072252683341503143310546875">
        <ele>580.4000244140625</ele>
        <time>2019-07-09T08:23:11.000Z</time>
      </trkpt>
      <trkpt lat="43.288166932761669158935546875" lon="-7.030871808528900146484375">
        <ele>581.5999755859375</ele>
        <time>2019-07-09T08:23:12.000Z</time>
      </trkpt>
      <trkpt lat="43.28828738071024417877197265625" lon="-7.03103047795593738555908203125">
        <ele>582.5999755859375</ele>
        <time>2019-07-09T08:23:13.000Z</time>
      </trkpt>
      <trkpt lat="43.28848955221474170684814453125" lon="-7.03136860392987728118896484375">
        <ele>584.20001220703125</ele>
        <time>2019-07-09T08:23:15.000Z</time>
      </trkpt>
      <trkpt lat="43.28864662908017635345458984375" lon="-7.03168652951717376708984375">
        <ele>586</ele>
        <time>2019-07-09T08:23:17.000Z</time>
      </trkpt>
      <trkpt lat="43.28872726298868656158447265625" lon="-7.03185006044805049896240234375">
        <ele>587.20001220703125</ele>
        <time>2019-07-09T08:23:18.000Z</time>
      </trkpt>
      <trkpt lat="43.28882331959903240203857421875" lon="-7.032028846442699432373046875">
        <ele>588.5999755859375</ele>
        <time>2019-07-09T08:23:19.000Z</time>
      </trkpt>
      <trkpt lat="43.28904191963374614715576171875" lon="-7.03235062770545482635498046875">
        <ele>590</ele>
        <time>2019-07-09T08:23:21.000Z</time>
      </trkpt>
      <trkpt lat="43.2894225418567657470703125" lon="-7.03273585997521877288818359375">
        <ele>591</ele>
        <time>2019-07-09T08:23:24.000Z</time>
      </trkpt>
      <trkpt lat="43.289656229317188262939453125" lon="-7.03293266706168651580810546875">
        <ele>592.20001220703125</ele>
        <time>2019-07-09T08:23:26.000Z</time>
      </trkpt>
      <trkpt lat="43.28978304751217365264892578125" lon="-7.0330267958343029022216796875">
        <ele>593.20001220703125</ele>
        <time>2019-07-09T08:23:27.000Z</time>
      </trkpt>
      <trkpt lat="43.28992034308612346649169921875" lon="-7.0331082679331302642822265625">
        <ele>594.4000244140625</ele>
        <time>2019-07-09T08:23:28.000Z</time>
      </trkpt>
      <trkpt lat="43.2901901565492153167724609375" lon="-7.0331458188593387603759765625">
        <ele>596</ele>
        <time>2019-07-09T08:23:30.000Z</time>
      </trkpt>
      <trkpt lat="43.2904469780623912811279296875" lon="-7.03299553133547306060791015625">
        <ele>598.20001220703125</ele>
        <time>2019-07-09T08:23:32.000Z</time>
      </trkpt>
      <trkpt lat="43.29054865054786205291748046875" lon="-7.032863683998584747314453125">
        <ele>600</ele>
        <time>2019-07-09T08:23:33.000Z</time>
      </trkpt>
      <trkpt lat="43.29063833691179752349853515625" lon="-7.0327109657227993011474609375">
        <ele>601.4000244140625</ele>
        <time>2019-07-09T08:23:34.000Z</time>
      </trkpt>
      <trkpt lat="43.290722072124481201171875" lon="-7.0325510390102863311767578125">
        <ele>602.5999755859375</ele>
        <time>2019-07-09T08:23:35.000Z</time>
      </trkpt>
      <trkpt lat="43.2909116707742214202880859375" lon="-7.03226228244602680206298828125">
        <ele>604</ele>
        <time>2019-07-09T08:23:37.000Z</time>
      </trkpt>
      <trkpt lat="43.29116019420325756072998046875" lon="-7.03209732659161090850830078125">
        <ele>605.20001220703125</ele>
        <time>2019-07-09T08:23:39.000Z</time>
      </trkpt>
      <trkpt lat="43.2914477773010730743408203125" lon="-7.03210218809545040130615234375">
        <ele>606.4000244140625</ele>
        <time>2019-07-09T08:23:41.000Z</time>
      </trkpt>
      <trkpt lat="43.29169646836817264556884765625" lon="-7.03223847784101963043212890625">
        <ele>608.20001220703125</ele>
        <time>2019-07-09T08:23:43.000Z</time>
      </trkpt>
      <trkpt lat="43.29187617637217044830322265625" lon="-7.03248708508908748626708984375">
        <ele>610</ele>
        <time>2019-07-09T08:23:45.000Z</time>
      </trkpt>
      <trkpt lat="43.29194138757884502410888671875" lon="-7.03263041563332080841064453125">
        <ele>611.20001220703125</ele>
        <time>2019-07-09T08:23:46.000Z</time>
      </trkpt>
      <trkpt lat="43.292001150548458099365234375" lon="-7.03277324326336383819580078125">
        <ele>612.5999755859375</ele>
        <time>2019-07-09T08:23:47.000Z</time>
      </trkpt>
      <trkpt lat="43.2920583151280879974365234375" lon="-7.0329104550182819366455078125">
        <ele>614.4000244140625</ele>
        <time>2019-07-09T08:23:48.000Z</time>
      </trkpt>
      <trkpt lat="43.2921226881444454193115234375" lon="-7.03303945250809192657470703125">
        <ele>615.4000244140625</ele>
        <time>2019-07-09T08:23:49.000Z</time>
      </trkpt>
      <trkpt lat="43.2922856323421001434326171875" lon="-7.03325830399990081787109375">
        <ele>616.79998779296875</ele>
        <time>2019-07-09T08:23:51.000Z</time>
      </trkpt>
      <trkpt lat="43.29250641167163848876953125" lon="-7.0333915762603282928466796875">
        <ele>617.20001220703125</ele>
        <time>2019-07-09T08:23:53.000Z</time>
      </trkpt>
      <trkpt lat="43.29277119599282741546630859375" lon="-7.0334069989621639251708984375">
        <ele>617.79998779296875</ele>
        <time>2019-07-09T08:23:55.000Z</time>
      </trkpt>
      <trkpt lat="43.29290849156677722930908203125" lon="-7.03336668200790882110595703125">
        <ele>619</ele>
        <time>2019-07-09T08:23:56.000Z</time>
      </trkpt>
      <trkpt lat="43.29304880462586879730224609375" lon="-7.03329719603061676025390625">
        <ele>620.4000244140625</ele>
        <time>2019-07-09T08:23:57.000Z</time>
      </trkpt>
      <trkpt lat="43.29344920814037322998046875" lon="-7.0330093614757061004638671875">
        <ele>621.5999755859375</ele>
        <time>2019-07-09T08:24:00.000Z</time>
      </trkpt>
      <trkpt lat="43.29372103326022624969482421875" lon="-7.03283443115651607513427734375">
        <ele>622</ele>
        <time>2019-07-09T08:24:02.000Z</time>
      </trkpt>
      <trkpt lat="43.29403351061046123504638671875" lon="-7.03277022577822208404541015625">
        <ele>622.20001220703125</ele>
        <time>2019-07-09T08:24:04.000Z</time>
      </trkpt>
      <trkpt lat="43.29435856081545352935791015625" lon="-7.03283895738422870635986328125">
        <ele>622.5999755859375</ele>
        <time>2019-07-09T08:24:06.000Z</time>
      </trkpt>
      <trkpt lat="43.29462242312729358673095703125" lon="-7.0329974591732025146484375">
        <ele>624.4000244140625</ele>
        <time>2019-07-09T08:24:08.000Z</time>
      </trkpt>
      <trkpt lat="43.29474362544715404510498046875" lon="-7.0331112854182720184326171875">
        <ele>625.5999755859375</ele>
        <time>2019-07-09T08:24:09.000Z</time>
      </trkpt>
      <trkpt lat="43.29485443420708179473876953125" lon="-7.03324531204998493194580078125">
        <ele>627</ele>
        <time>2019-07-09T08:24:10.000Z</time>
      </trkpt>
      <trkpt lat="43.29506783746182918548583984375" lon="-7.03355544246733188629150390625">
        <ele>628.4000244140625</ele>
        <time>2019-07-09T08:24:12.000Z</time>
      </trkpt>
      <trkpt lat="43.295280151069164276123046875" lon="-7.0338549278676509857177734375">
        <ele>630.20001220703125</ele>
        <time>2019-07-09T08:24:14.000Z</time>
      </trkpt>
      <trkpt lat="43.29538115300238132476806640625" lon="-7.03400387428700923919677734375">
        <ele>632.20001220703125</ele>
        <time>2019-07-09T08:24:15.000Z</time>
      </trkpt>
      <trkpt lat="43.295485675334930419921875" lon="-7.03415273688733577728271484375">
        <ele>633.20001220703125</ele>
        <time>2019-07-09T08:24:16.000Z</time>
      </trkpt>
      <trkpt lat="43.295695222914218902587890625" lon="-7.03444979153573513031005859375">
        <ele>634.4000244140625</ele>
        <time>2019-07-09T08:24:18.000Z</time>
      </trkpt>
      <trkpt lat="43.29577795229852199554443359375" lon="-7.03460183925926685333251953125">
        <ele>635</ele>
        <time>2019-07-09T08:24:19.000Z</time>
      </trkpt>
      <trkpt lat="43.29583327285945415496826171875" lon="-7.034758664667606353759765625">
        <ele>635.5999755859375</ele>
        <time>2019-07-09T08:24:20.000Z</time>
      </trkpt>
      <trkpt lat="43.29592312686145305633544921875" lon="-7.03507684171199798583984375">
        <ele>637</ele>
        <time>2019-07-09T08:24:22.000Z</time>
      </trkpt>
      <trkpt lat="43.2959837280213832855224609375" lon="-7.03520433045923709869384765625">
        <ele>638</ele>
        <time>2019-07-09T08:24:23.000Z</time>
      </trkpt>
      <trkpt lat="43.29606763087213039398193359375" lon="-7.03528915531933307647705078125">
        <ele>640</ele>
        <time>2019-07-09T08:24:24.000Z</time>
      </trkpt>
      <trkpt lat="43.29616921953856945037841796875" lon="-7.03532938845455646514892578125">
        <ele>642</ele>
        <time>2019-07-09T08:24:25.000Z</time>
      </trkpt>
      <trkpt lat="43.2962831296026706695556640625" lon="-7.0353482477366924285888671875">
        <ele>643.4000244140625</ele>
        <time>2019-07-09T08:24:26.000Z</time>
      </trkpt>
      <trkpt lat="43.2964044995605945587158203125" lon="-7.03535805456340312957763671875">
        <ele>644.79998779296875</ele>
        <time>2019-07-09T08:24:27.000Z</time>
      </trkpt>
      <trkpt lat="43.29653282649815082550048828125" lon="-7.03536928631365299224853515625">
        <ele>646</ele>
        <time>2019-07-09T08:24:28.000Z</time>
      </trkpt>
      <trkpt lat="43.2966690324246883392333984375" lon="-7.0353841222822666168212890625">
        <ele>647</ele>
        <time>2019-07-09T08:24:29.000Z</time>
      </trkpt>
      <trkpt lat="43.29695108346641063690185546875" lon="-7.03545008786022663116455078125">
        <ele>648.20001220703125</ele>
        <time>2019-07-09T08:24:31.000Z</time>
      </trkpt>
      <trkpt lat="43.2972322963178157806396484375" lon="-7.03555536456406116485595703125">
        <ele>649.4000244140625</ele>
        <time>2019-07-09T08:24:33.000Z</time>
      </trkpt>
      <trkpt lat="43.29751719720661640167236328125" lon="-7.03561856411397457122802734375">
        <ele>650.4000244140625</ele>
        <time>2019-07-09T08:24:35.000Z</time>
      </trkpt>
      <trkpt lat="43.29778675921261310577392578125" lon="-7.03555637039244174957275390625">
        <ele>652.4000244140625</ele>
        <time>2019-07-09T08:24:37.000Z</time>
      </trkpt>
      <trkpt lat="43.29791642725467681884765625" lon="-7.03547053970396518707275390625">
        <ele>654</ele>
        <time>2019-07-09T08:24:38.000Z</time>
      </trkpt>
      <trkpt lat="43.298045508563518524169921875" lon="-7.03534615226089954376220703125">
        <ele>655.5999755859375</ele>
        <time>2019-07-09T08:24:39.000Z</time>
      </trkpt>
      <trkpt lat="43.29816327430307865142822265625" lon="-7.0352003909647464752197265625">
        <ele>657</ele>
        <time>2019-07-09T08:24:40.000Z</time>
      </trkpt>
      <trkpt lat="43.2982739992439746856689453125" lon="-7.0350528694689273834228515625">
        <ele>658.4000244140625</ele>
        <time>2019-07-09T08:24:41.000Z</time>
      </trkpt>
      <trkpt lat="43.29839520156383514404296875" lon="-7.034912891685962677001953125">
        <ele>659</ele>
        <time>2019-07-09T08:24:42.000Z</time>
      </trkpt>
      <trkpt lat="43.2986806891858577728271484375" lon="-7.03469085507094860076904296875">
        <ele>659.79998779296875</ele>
        <time>2019-07-09T08:24:44.000Z</time>
      </trkpt>
      <trkpt lat="43.29900532029569149017333984375" lon="-7.03451181761920452117919921875">
        <ele>658.79998779296875</ele>
        <time>2019-07-09T08:24:46.000Z</time>
      </trkpt>
      <trkpt lat="43.29951091669499874114990234375" lon="-7.03426622785627841949462890625">
        <ele>660</ele>
        <time>2019-07-09T08:24:49.000Z</time>
      </trkpt>
      <trkpt lat="43.29967905767261981964111328125" lon="-7.03421643935143947601318359375">
        <ele>661.20001220703125</ele>
        <time>2019-07-09T08:24:50.000Z</time>
      </trkpt>
      <trkpt lat="43.30001634545624256134033203125" lon="-7.034174613654613494873046875">
        <ele>662.5999755859375</ele>
        <time>2019-07-09T08:24:52.000Z</time>
      </trkpt>
      <trkpt lat="43.30034759826958179473876953125" lon="-7.03421040438115596771240234375">
        <ele>664.4000244140625</ele>
        <time>2019-07-09T08:24:54.000Z</time>
      </trkpt>
      <trkpt lat="43.30050744116306304931640625" lon="-7.03423605300486087799072265625">
        <ele>665.5999755859375</ele>
        <time>2019-07-09T08:24:55.000Z</time>
      </trkpt>
      <trkpt lat="43.3008200861513614654541015625" lon="-7.03428735025227069854736328125">
        <ele>667.4000244140625</ele>
        <time>2019-07-09T08:24:57.000Z</time>
      </trkpt>
      <trkpt lat="43.30097640864551067352294921875" lon="-7.0343206264078617095947265625">
        <ele>668.79998779296875</ele>
        <time>2019-07-09T08:24:58.000Z</time>
      </trkpt>
      <trkpt lat="43.30112845636904239654541015625" lon="-7.03436932526528835296630859375">
        <ele>669.5999755859375</ele>
        <time>2019-07-09T08:24:59.000Z</time>
      </trkpt>
      <trkpt lat="43.30127933062613010406494140625" lon="-7.0344443432986736297607421875">
        <ele>670.4000244140625</ele>
        <time>2019-07-09T08:25:00.000Z</time>
      </trkpt>
      <trkpt lat="43.30142366699874401092529296875" lon="-7.03454819507896900177001953125">
        <ele>671.20001220703125</ele>
        <time>2019-07-09T08:25:01.000Z</time>
      </trkpt>
      <trkpt lat="43.30155760981142520904541015625" lon="-7.0346803776919841766357421875">
        <ele>672.4000244140625</ele>
        <time>2019-07-09T08:25:02.000Z</time>
      </trkpt>
      <trkpt lat="43.301686607301235198974609375" lon="-7.0348309166729450225830078125">
        <ele>673.5999755859375</ele>
        <time>2019-07-09T08:25:03.000Z</time>
      </trkpt>
      <trkpt lat="43.301810659468173980712890625" lon="-7.03498363494873046875">
        <ele>674.79998779296875</ele>
        <time>2019-07-09T08:25:04.000Z</time>
      </trkpt>
      <trkpt lat="43.302055411040782928466796875" lon="-7.03525646589696407318115234375">
        <ele>676.4000244140625</ele>
        <time>2019-07-09T08:25:06.000Z</time>
      </trkpt>
      <trkpt lat="43.30232740379869937896728515625" lon="-7.035456039011478424072265625">
        <ele>678.5999755859375</ele>
        <time>2019-07-09T08:25:08.000Z</time>
      </trkpt>
      <trkpt lat="43.30247157253324985504150390625" lon="-7.03552703373134136199951171875">
        <ele>679.79998779296875</ele>
        <time>2019-07-09T08:25:09.000Z</time>
      </trkpt>
      <trkpt lat="43.30261926166713237762451171875" lon="-7.03557967208325862884521484375">
        <ele>681</ele>
        <time>2019-07-09T08:25:10.000Z</time>
      </trkpt>
      <trkpt lat="43.302770890295505523681640625" lon="-7.03561169095337390899658203125">
        <ele>681.79998779296875</ele>
        <time>2019-07-09T08:25:11.000Z</time>
      </trkpt>
      <trkpt lat="43.3029259555041790008544921875" lon="-7.03562426380813121795654296875">
        <ele>682.4000244140625</ele>
        <time>2019-07-09T08:25:12.000Z</time>
      </trkpt>
      <trkpt lat="43.30324086360633373260498046875" lon="-7.0356111042201519012451171875">
        <ele>684.20001220703125</ele>
        <time>2019-07-09T08:25:14.000Z</time>
      </trkpt>
      <trkpt lat="43.303396515548229217529296875" lon="-7.035587131977081298828125">
        <ele>685.4000244140625</ele>
        <time>2019-07-09T08:25:15.000Z</time>
      </trkpt>
      <trkpt lat="43.30355099402368068695068359375" lon="-7.0355604775249958038330078125">
        <ele>686.4000244140625</ele>
        <time>2019-07-09T08:25:16.000Z</time>
      </trkpt>
      <trkpt lat="43.303706310689449310302734375" lon="-7.0355303026735782623291015625">
        <ele>687.5999755859375</ele>
        <time>2019-07-09T08:25:17.000Z</time>
      </trkpt>
      <trkpt lat="43.30386145971715450286865234375" lon="-7.03550398349761962890625">
        <ele>688.79998779296875</ele>
        <time>2019-07-09T08:25:18.000Z</time>
      </trkpt>
      <trkpt lat="43.3040099032223224639892578125" lon="-7.03546919859945774078369140625">
        <ele>690</ele>
        <time>2019-07-09T08:25:19.000Z</time>
      </trkpt>
      <trkpt lat="43.304176367819309234619140625" lon="-7.03539057634770870208740234375">
        <ele>691.20001220703125</ele>
        <time>2019-07-09T08:25:20.000Z</time>
      </trkpt>
      <trkpt lat="43.30432766117155551910400390625" lon="-7.0352852158248424530029296875">
        <ele>692.5999755859375</ele>
        <time>2019-07-09T08:25:21.000Z</time>
      </trkpt>
      <trkpt lat="43.3044504560530185699462890625" lon="-7.0351539552211761474609375">
        <ele>693.79998779296875</ele>
        <time>2019-07-09T08:25:22.000Z</time>
      </trkpt>
      <trkpt lat="43.30454207025468349456787109375" lon="-7.03499143011868000030517578125">
        <ele>695.4000244140625</ele>
        <time>2019-07-09T08:25:23.000Z</time>
      </trkpt>
      <trkpt lat="43.30460711382329463958740234375" lon="-7.03480082564055919647216796875">
        <ele>697</ele>
        <time>2019-07-09T08:25:24.000Z</time>
      </trkpt>
      <trkpt lat="43.304658494889736175537109375" lon="-7.03459697775542736053466796875">
        <ele>698.4000244140625</ele>
        <time>2019-07-09T08:25:25.000Z</time>
      </trkpt>
      <trkpt lat="43.30470736138522624969482421875" lon="-7.03438692726194858551025390625">
        <ele>699.4000244140625</ele>
        <time>2019-07-09T08:25:26.000Z</time>
      </trkpt>
      <trkpt lat="43.30481280572712421417236328125" lon="-7.03397587873041629791259765625">
        <ele>700.79998779296875</ele>
        <time>2019-07-09T08:25:28.000Z</time>
      </trkpt>
      <trkpt lat="43.30493886955082416534423828125" lon="-7.03362082131206989288330078125">
        <ele>701.5999755859375</ele>
        <time>2019-07-09T08:25:30.000Z</time>
      </trkpt>
      <trkpt lat="43.3050267957150936126708984375" lon="-7.03348989598453044891357421875">
        <ele>702</ele>
        <time>2019-07-09T08:25:31.000Z</time>
      </trkpt>
      <trkpt lat="43.3051391132175922393798828125" lon="-7.0334064960479736328125">
        <ele>702.79998779296875</ele>
        <time>2019-07-09T08:25:32.000Z</time>
      </trkpt>
      <trkpt lat="43.30526961944997310638427734375" lon="-7.0333724655210971832275390625">
        <ele>703.20001220703125</ele>
        <time>2019-07-09T08:25:33.000Z</time>
      </trkpt>
      <trkpt lat="43.30541730858385562896728515625" lon="-7.033386044204235076904296875">
        <ele>703.79998779296875</ele>
        <time>2019-07-09T08:25:34.000Z</time>
      </trkpt>
      <trkpt lat="43.30557924695312976837158203125" lon="-7.0334257744252681732177734375">
        <ele>705</ele>
        <time>2019-07-09T08:25:35.000Z</time>
      </trkpt>
      <trkpt lat="43.30574202351272106170654296875" lon="-7.03346760012209415435791015625">
        <ele>706.20001220703125</ele>
        <time>2019-07-09T08:25:36.000Z</time>
      </trkpt>
      <trkpt lat="43.30621258355677127838134765625" lon="-7.03356918878853321075439453125">
        <ele>707.4000244140625</ele>
        <time>2019-07-09T08:25:39.000Z</time>
      </trkpt>
      <trkpt lat="43.30666176974773406982421875" lon="-7.033628784120082855224609375">
        <ele>708.4000244140625</ele>
        <time>2019-07-09T08:25:42.000Z</time>
      </trkpt>
      <trkpt lat="43.30682362429797649383544921875" lon="-7.03360296785831451416015625">
        <ele>708.79998779296875</ele>
        <time>2019-07-09T08:25:43.000Z</time>
      </trkpt>
      <trkpt lat="43.3069861494004726409912109375" lon="-7.033536918461322784423828125">
        <ele>709.79998779296875</ele>
        <time>2019-07-09T08:25:44.000Z</time>
      </trkpt>
      <trkpt lat="43.307138867676258087158203125" lon="-7.033438347280025482177734375">
        <ele>710.79998779296875</ele>
        <time>2019-07-09T08:25:45.000Z</time>
      </trkpt>
      <trkpt lat="43.30727557651698589324951171875" lon="-7.03332024626433849334716796875">
        <ele>712.20001220703125</ele>
        <time>2019-07-09T08:25:46.000Z</time>
      </trkpt>
      <trkpt lat="43.30739200115203857421875" lon="-7.0331860519945621490478515625">
        <ele>713.5999755859375</ele>
        <time>2019-07-09T08:25:47.000Z</time>
      </trkpt>
      <trkpt lat="43.307492248713970184326171875" lon="-7.033031322062015533447265625">
        <ele>715</ele>
        <time>2019-07-09T08:25:48.000Z</time>
      </trkpt>
      <trkpt lat="43.30767086707055568695068359375" lon="-7.03268053941428661346435546875">
        <ele>716.79998779296875</ele>
        <time>2019-07-09T08:25:50.000Z</time>
      </trkpt>
      <trkpt lat="43.30783029086887836456298828125" lon="-7.03230209648609161376953125">
        <ele>718.4000244140625</ele>
        <time>2019-07-09T08:25:52.000Z</time>
      </trkpt>
      <trkpt lat="43.3080660738050937652587890625" lon="-7.0317202247679233551025390625">
        <ele>719.4000244140625</ele>
        <time>2019-07-09T08:25:55.000Z</time>
      </trkpt>
      <trkpt lat="43.3081443607807159423828125" lon="-7.03153221867978572845458984375">
        <ele>719.5999755859375</ele>
        <time>2019-07-09T08:25:56.000Z</time>
      </trkpt>
      <trkpt lat="43.30828861333429813385009765625" lon="-7.031174562871456146240234375">
        <ele>720.79998779296875</ele>
        <time>2019-07-09T08:25:58.000Z</time>
      </trkpt>
      <trkpt lat="43.30834812484681606292724609375" lon="-7.03099586069583892822265625">
        <ele>722.4000244140625</ele>
        <time>2019-07-09T08:25:59.000Z</time>
      </trkpt>
      <trkpt lat="43.3083922974765300750732421875" lon="-7.03080684877932071685791015625">
        <ele>723.79998779296875</ele>
        <time>2019-07-09T08:26:00.000Z</time>
      </trkpt>
      <trkpt lat="43.30843764357268810272216796875" lon="-7.0304046012461185455322265625">
        <ele>725.4000244140625</ele>
        <time>2019-07-09T08:26:02.000Z</time>
      </trkpt>
      <trkpt lat="43.30843211151659488677978515625" lon="-7.0299878530204296112060546875">
        <ele>726.79998779296875</ele>
        <time>2019-07-09T08:26:04.000Z</time>
      </trkpt>
      <trkpt lat="43.30839221365749835968017578125" lon="-7.02959666959941387176513671875">
        <ele>728</ele>
        <time>2019-07-09T08:26:06.000Z</time>
      </trkpt>
      <trkpt lat="43.3083755336701869964599609375" lon="-7.0292160473763942718505859375">
        <ele>729</ele>
        <time>2019-07-09T08:26:08.000Z</time>
      </trkpt>
      <trkpt lat="43.30840294249355792999267578125" lon="-7.02903239987790584564208984375">
        <ele>730</ele>
        <time>2019-07-09T08:26:09.000Z</time>
      </trkpt>
      <trkpt lat="43.30845910124480724334716796875" lon="-7.02886677347123622894287109375">
        <ele>731.4000244140625</ele>
        <time>2019-07-09T08:26:10.000Z</time>
      </trkpt>
      <trkpt lat="43.3085461892187595367431640625" lon="-7.0287278853356838226318359375">
        <ele>732.5999755859375</ele>
        <time>2019-07-09T08:26:11.000Z</time>
      </trkpt>
      <trkpt lat="43.3086487837135791778564453125" lon="-7.02861380763351917266845703125">
        <ele>733.5999755859375</ele>
        <time>2019-07-09T08:26:12.000Z</time>
      </trkpt>
      <trkpt lat="43.30877342261373996734619140625" lon="-7.028519175946712493896484375">
        <ele>734.79998779296875</ele>
        <time>2019-07-09T08:26:13.000Z</time>
      </trkpt>
      <trkpt lat="43.3088972233235836029052734375" lon="-7.02843912877142429351806640625">
        <ele>736</ele>
        <time>2019-07-09T08:26:14.000Z</time>
      </trkpt>
      <trkpt lat="43.30929863266646862030029296875" lon="-7.028188593685626983642578125">
        <ele>737.4000244140625</ele>
        <time>2019-07-09T08:26:17.000Z</time>
      </trkpt>
      <trkpt lat="43.30968621186912059783935546875" lon="-7.0278189517557621002197265625">
        <ele>738.20001220703125</ele>
        <time>2019-07-09T08:26:20.000Z</time>
      </trkpt>
      <trkpt lat="43.3098007924854755401611328125" lon="-7.02766950242221355438232421875">
        <ele>739</ele>
        <time>2019-07-09T08:26:21.000Z</time>
      </trkpt>
      <trkpt lat="43.31000874750316143035888671875" lon="-7.02734663151204586029052734375">
        <ele>740.4000244140625</ele>
        <time>2019-07-09T08:26:23.000Z</time>
      </trkpt>
      <trkpt lat="43.310109078884124755859375" lon="-7.02717446722090244293212890625">
        <ele>741.5999755859375</ele>
        <time>2019-07-09T08:26:24.000Z</time>
      </trkpt>
      <trkpt lat="43.31020287238061428070068359375" lon="-7.026994340121746063232421875">
        <ele>742.5999755859375</ele>
        <time>2019-07-09T08:26:25.000Z</time>
      </trkpt>
      <trkpt lat="43.3102862723171710968017578125" lon="-7.02680893242359161376953125">
        <ele>743.79998779296875</ele>
        <time>2019-07-09T08:26:26.000Z</time>
      </trkpt>
      <trkpt lat="43.31043966114521026611328125" lon="-7.02643300406634807586669921875">
        <ele>744.79998779296875</ele>
        <time>2019-07-09T08:26:28.000Z</time>
      </trkpt>
      <trkpt lat="43.3105732686817646026611328125" lon="-7.025866806507110595703125">
        <ele>745.5999755859375</ele>
        <time>2019-07-09T08:26:31.000Z</time>
      </trkpt>
      <trkpt lat="43.310586847364902496337890625" lon="-7.0256946422159671783447265625">
        <ele>746</ele>
        <time>2019-07-09T08:26:32.000Z</time>
      </trkpt>
      <trkpt lat="43.310567401349544525146484375" lon="-7.0255303569138050079345703125">
        <ele>746.20001220703125</ele>
        <time>2019-07-09T08:26:33.000Z</time>
      </trkpt>
      <trkpt lat="43.31049288623034954071044921875" lon="-7.02538199722766876220703125">
        <ele>747.20001220703125</ele>
        <time>2019-07-09T08:26:34.000Z</time>
      </trkpt>
      <trkpt lat="43.3103885315358638763427734375" lon="-7.02524160034954547882080078125">
        <ele>748.4000244140625</ele>
        <time>2019-07-09T08:26:35.000Z</time>
      </trkpt>
      <trkpt lat="43.31029507331550121307373046875" lon="-7.02509692870080471038818359375">
        <ele>749.4000244140625</ele>
        <time>2019-07-09T08:26:36.000Z</time>
      </trkpt>
      <trkpt lat="43.310159705579280853271484375" lon="-7.0247796736657619476318359375">
        <ele>750.79998779296875</ele>
        <time>2019-07-09T08:26:38.000Z</time>
      </trkpt>
      <trkpt lat="43.31009809859097003936767578125" lon="-7.02442017383873462677001953125">
        <ele>752.20001220703125</ele>
        <time>2019-07-09T08:26:40.000Z</time>
      </trkpt>
      <trkpt lat="43.31016607582569122314453125" lon="-7.02405757270753383636474609375">
        <ele>753.79998779296875</ele>
        <time>2019-07-09T08:26:42.000Z</time>
      </trkpt>
      <trkpt lat="43.31028551794588565826416015625" lon="-7.02375850640237331390380859375">
        <ele>754.79998779296875</ele>
        <time>2019-07-09T08:26:44.000Z</time>
      </trkpt>
      <trkpt lat="43.3103928901255130767822265625" lon="-7.02365272678434848785400390625">
        <ele>755.4000244140625</ele>
        <time>2019-07-09T08:26:45.000Z</time>
      </trkpt>
      <trkpt lat="43.31052641384303569793701171875" lon="-7.023583911359310150146484375">
        <ele>756.4000244140625</ele>
        <time>2019-07-09T08:26:46.000Z</time>
      </trkpt>
      <trkpt lat="43.3106775395572185516357421875" lon="-7.02354468405246734619140625">
        <ele>757.5999755859375</ele>
        <time>2019-07-09T08:26:47.000Z</time>
      </trkpt>
      <trkpt lat="43.3108354546129703521728515625" lon="-7.02351576648652553558349609375">
        <ele>758.5999755859375</ele>
        <time>2019-07-09T08:26:48.000Z</time>
      </trkpt>
      <trkpt lat="43.31099756062030792236328125" lon="-7.02346866019070148468017578125">
        <ele>759.20001220703125</ele>
        <time>2019-07-09T08:26:49.000Z</time>
      </trkpt>
      <trkpt lat="43.31129386089742183685302734375" lon="-7.02326782979071140289306640625">
        <ele>760</ele>
        <time>2019-07-09T08:26:51.000Z</time>
      </trkpt>
      <trkpt lat="43.31169786863029003143310546875" lon="-7.02283448539674282073974609375">
        <ele>761.4000244140625</ele>
        <time>2019-07-09T08:26:54.000Z</time>
      </trkpt>
      <trkpt lat="43.31211746670305728912353515625" lon="-7.0223847962915897369384765625">
        <ele>762.4000244140625</ele>
        <time>2019-07-09T08:26:57.000Z</time>
      </trkpt>
      <trkpt lat="43.31225149333477020263671875" lon="-7.022244818508625030517578125">
        <ele>762.5999755859375</ele>
        <time>2019-07-09T08:26:58.000Z</time>
      </trkpt>
      <trkpt lat="43.3126435987651348114013671875" lon="-7.02184860594570636749267578125">
        <ele>763.5999755859375</ele>
        <time>2019-07-09T08:27:01.000Z</time>
      </trkpt>
      <trkpt lat="43.312913663685321807861328125" lon="-7.02161760069429874420166015625">
        <ele>765.20001220703125</ele>
        <time>2019-07-09T08:27:03.000Z</time>
      </trkpt>
      <trkpt lat="43.3132191002368927001953125" lon="-7.02145985327661037445068359375">
        <ele>766.5999755859375</ele>
        <time>2019-07-09T08:27:05.000Z</time>
      </trkpt>
      <trkpt lat="43.31371120177209377288818359375" lon="-7.021318785846233367919921875">
        <ele>768.4000244140625</ele>
        <time>2019-07-09T08:27:08.000Z</time>
      </trkpt>
      <trkpt lat="43.31403256393969058990478515625" lon="-7.02124628238379955291748046875">
        <ele>770</ele>
        <time>2019-07-09T08:27:10.000Z</time>
      </trkpt>
      <trkpt lat="43.3143402636051177978515625" lon="-7.02122063376009464263916015625">
        <ele>770.4000244140625</ele>
        <time>2019-07-09T08:27:12.000Z</time>
      </trkpt>
      <trkpt lat="43.31448535434901714324951171875" lon="-7.0212371461093425750732421875">
        <ele>771</ele>
        <time>2019-07-09T08:27:13.000Z</time>
      </trkpt>
      <trkpt lat="43.314750306308269500732421875" lon="-7.02131249941885471343994140625">
        <ele>772.4000244140625</ele>
        <time>2019-07-09T08:27:15.000Z</time>
      </trkpt>
      <trkpt lat="43.31511248834431171417236328125" lon="-7.0214845798909664154052734375">
        <ele>773.79998779296875</ele>
        <time>2019-07-09T08:27:18.000Z</time>
      </trkpt>
      <trkpt lat="43.31549989990890026092529296875" lon="-7.0216807164251804351806640625">
        <ele>775.20001220703125</ele>
        <time>2019-07-09T08:27:21.000Z</time>
      </trkpt>
      <trkpt lat="43.31590290181338787078857421875" lon="-7.02189520932734012603759765625">
        <ele>776.5999755859375</ele>
        <time>2019-07-09T08:27:24.000Z</time>
      </trkpt>
      <trkpt lat="43.316189311444759368896484375" lon="-7.02203602530062198638916015625">
        <ele>778</ele>
        <time>2019-07-09T08:27:26.000Z</time>
      </trkpt>
      <trkpt lat="43.3164841867983341217041015625" lon="-7.02218472026288509368896484375">
        <ele>779</ele>
        <time>2019-07-09T08:27:28.000Z</time>
      </trkpt>
      <trkpt lat="43.31677981652319431304931640625" lon="-7.02234037220478057861328125">
        <ele>780.5999755859375</ele>
        <time>2019-07-09T08:27:30.000Z</time>
      </trkpt>
      <trkpt lat="43.31721249036490917205810546875" lon="-7.0225799269974231719970703125">
        <ele>781.79998779296875</ele>
        <time>2019-07-09T08:27:33.000Z</time>
      </trkpt>
      <trkpt lat="43.31761515699326992034912109375" lon="-7.02291998080909252166748046875">
        <ele>783</ele>
        <time>2019-07-09T08:27:36.000Z</time>
      </trkpt>
      <trkpt lat="43.31800960935652256011962890625" lon="-7.02332583256065845489501953125">
        <ele>784.5999755859375</ele>
        <time>2019-07-09T08:27:39.000Z</time>
      </trkpt>
      <trkpt lat="43.3183047361671924591064453125" lon="-7.02351023443043231964111328125">
        <ele>785.5999755859375</ele>
        <time>2019-07-09T08:27:41.000Z</time>
      </trkpt>
      <trkpt lat="43.318459130823612213134765625" lon="-7.0235740207135677337646484375">
        <ele>786.20001220703125</ele>
        <time>2019-07-09T08:27:42.000Z</time>
      </trkpt>
      <trkpt lat="43.31861947663128376007080078125" lon="-7.023616097867488861083984375">
        <ele>786.79998779296875</ele>
        <time>2019-07-09T08:27:43.000Z</time>
      </trkpt>
      <trkpt lat="43.31878476776182651519775390625" lon="-7.02363428659737110137939453125">
        <ele>787.4000244140625</ele>
        <time>2019-07-09T08:27:44.000Z</time>
      </trkpt>
      <trkpt lat="43.31895290873944759368896484375" lon="-7.0236285030841827392578125">
        <ele>788.20001220703125</ele>
        <time>2019-07-09T08:27:45.000Z</time>
      </trkpt>
      <trkpt lat="43.31929036416113376617431640625" lon="-7.023547030985355377197265625">
        <ele>789</ele>
        <time>2019-07-09T08:27:47.000Z</time>
      </trkpt>
      <trkpt lat="43.3194520510733127593994140625" lon="-7.02346413396298885345458984375">
        <ele>789.4000244140625</ele>
        <time>2019-07-09T08:27:48.000Z</time>
      </trkpt>
      <trkpt lat="43.31961021758615970611572265625" lon="-7.02335181646049022674560546875">
        <ele>789.4000244140625</ele>
        <time>2019-07-09T08:27:49.000Z</time>
      </trkpt>
      <trkpt lat="43.3200694620609283447265625" lon="-7.022971026599407196044921875">
        <ele>788.79998779296875</ele>
        <time>2019-07-09T08:27:52.000Z</time>
      </trkpt>
      <trkpt lat="43.3205463923513889312744140625" lon="-7.0226771570742130279541015625">
        <ele>789</ele>
        <time>2019-07-09T08:27:55.000Z</time>
      </trkpt>
      <trkpt lat="43.3210546709597110748291015625" lon="-7.0225152187049388885498046875">
        <ele>790.20001220703125</ele>
        <time>2019-07-09T08:27:58.000Z</time>
      </trkpt>
      <trkpt lat="43.32122021354734897613525390625" lon="-7.02249183319509029388427734375">
        <ele>790.79998779296875</ele>
        <time>2019-07-09T08:27:59.000Z</time>
      </trkpt>
      <trkpt lat="43.321707285940647125244140625" lon="-7.022486217319965362548828125">
        <ele>791.79998779296875</ele>
        <time>2019-07-09T08:28:02.000Z</time>
      </trkpt>
      <trkpt lat="43.32186989486217498779296875" lon="-7.0224947668612003326416015625">
        <ele>792.20001220703125</ele>
        <time>2019-07-09T08:28:03.000Z</time>
      </trkpt>
      <trkpt lat="43.32219653762876987457275390625" lon="-7.02248881570994853973388671875">
        <ele>793.20001220703125</ele>
        <time>2019-07-09T08:28:05.000Z</time>
      </trkpt>
      <trkpt lat="43.32236233167350292205810546875" lon="-7.02245294116437435150146484375">
        <ele>793.79998779296875</ele>
        <time>2019-07-09T08:28:06.000Z</time>
      </trkpt>
      <trkpt lat="43.32252569496631622314453125" lon="-7.02239334583282470703125">
        <ele>794.4000244140625</ele>
        <time>2019-07-09T08:28:07.000Z</time>
      </trkpt>
      <trkpt lat="43.32268067635595798492431640625" lon="-7.02231195755302906036376953125">
        <ele>794.79998779296875</ele>
        <time>2019-07-09T08:28:08.000Z</time>
      </trkpt>
      <trkpt lat="43.323139585554599761962890625" lon="-7.02207424677908420562744140625">
        <ele>794.79998779296875</ele>
        <time>2019-07-09T08:28:11.000Z</time>
      </trkpt>
      <trkpt lat="43.32362783141434192657470703125" lon="-7.02196176163852214813232421875">
        <ele>794.20001220703125</ele>
        <time>2019-07-09T08:28:14.000Z</time>
      </trkpt>
      <trkpt lat="43.32391030155122280120849609375" lon="-7.02201289124786853790283203125">
        <ele>795.79998779296875</ele>
        <time>2019-07-09T08:28:16.000Z</time>
      </trkpt>
      <trkpt lat="43.32418204285204410552978515625" lon="-7.02217415906488895416259765625">
        <ele>796.5999755859375</ele>
        <time>2019-07-09T08:28:18.000Z</time>
      </trkpt>
      <trkpt lat="43.3244594000279903411865234375" lon="-7.0224032364785671234130859375">
        <ele>797.4000244140625</ele>
        <time>2019-07-09T08:28:20.000Z</time>
      </trkpt>
      <trkpt lat="43.32461119629442691802978515625" lon="-7.0225041545927524566650390625">
        <ele>797.5999755859375</ele>
        <time>2019-07-09T08:28:21.000Z</time>
      </trkpt>
      <trkpt lat="43.32483365200459957122802734375" lon="-7.02259543351829051971435546875">
        <ele>798.20001220703125</ele>
        <time>2019-07-09T08:28:23.000Z</time>
      </trkpt>
      <trkpt lat="43.32494429312646389007568359375" lon="-7.02256844379007816314697265625">
        <ele>798.5999755859375</ele>
        <time>2019-07-09T08:28:24.000Z</time>
      </trkpt>
      <trkpt lat="43.32504789344966411590576171875" lon="-7.02249216847121715545654296875">
        <ele>799</ele>
        <time>2019-07-09T08:28:25.000Z</time>
      </trkpt>
      <trkpt lat="43.32525526173412799835205078125" lon="-7.02223434112966060638427734375">
        <ele>800.20001220703125</ele>
        <time>2019-07-09T08:28:27.000Z</time>
      </trkpt>
      <trkpt lat="43.32546229474246501922607421875" lon="-7.0219908468425273895263671875">
        <ele>801</ele>
        <time>2019-07-09T08:28:29.000Z</time>
      </trkpt>
      <trkpt lat="43.3257101476192474365234375" lon="-7.02193343080580234527587890625">
        <ele>801.20001220703125</ele>
        <time>2019-07-09T08:28:31.000Z</time>
      </trkpt>
      <trkpt lat="43.32621180452406406402587890625" lon="-7.02208514325320720672607421875">
        <ele>800.5999755859375</ele>
        <time>2019-07-09T08:28:34.000Z</time>
      </trkpt>
      <trkpt lat="43.3267278783023357391357421875" lon="-7.022248841822147369384765625">
        <ele>800.5999755859375</ele>
        <time>2019-07-09T08:28:37.000Z</time>
      </trkpt>
      <trkpt lat="43.32720992155373096466064453125" lon="-7.02238923870027065277099609375">
        <ele>801.4000244140625</ele>
        <time>2019-07-09T08:28:40.000Z</time>
      </trkpt>
      <trkpt lat="43.32751854322850704193115234375" lon="-7.022474817931652069091796875">
        <ele>802.4000244140625</ele>
        <time>2019-07-09T08:28:42.000Z</time>
      </trkpt>
      <trkpt lat="43.3279905281960964202880859375" lon="-7.02255494892597198486328125">
        <ele>804</ele>
        <time>2019-07-09T08:28:45.000Z</time>
      </trkpt>
      <trkpt lat="43.32831298001110553741455078125" lon="-7.02257263474166393280029296875">
        <ele>805.5999755859375</ele>
        <time>2019-07-09T08:28:47.000Z</time>
      </trkpt>
      <trkpt lat="43.32879602909088134765625" lon="-7.02251362614333629608154296875">
        <ele>807.20001220703125</ele>
        <time>2019-07-09T08:28:50.000Z</time>
      </trkpt>
      <trkpt lat="43.3292560279369354248046875" lon="-7.02237532474100589752197265625">
        <ele>808</ele>
        <time>2019-07-09T08:28:53.000Z</time>
      </trkpt>
      <trkpt lat="43.32938536070287227630615234375" lon="-7.02232151292264461517333984375">
        <ele>808.20001220703125</ele>
        <time>2019-07-09T08:28:54.000Z</time>
      </trkpt>
      <trkpt lat="43.3298675715923309326171875" lon="-7.02218069694936275482177734375">
        <ele>808.4000244140625</ele>
        <time>2019-07-09T08:28:57.000Z</time>
      </trkpt>
      <trkpt lat="43.33035799674689769744873046875" lon="-7.0221532881259918212890625">
        <ele>808</ele>
        <time>2019-07-09T08:29:00.000Z</time>
      </trkpt>
      <trkpt lat="43.33089108578860759735107421875" lon="-7.022208608686923980712890625">
        <ele>808.4000244140625</ele>
        <time>2019-07-09T08:29:03.000Z</time>
      </trkpt>
      <trkpt lat="43.3312574587762355804443359375" lon="-7.02225563116371631622314453125">
        <ele>809.4000244140625</ele>
        <time>2019-07-09T08:29:05.000Z</time>
      </trkpt>
      <trkpt lat="43.3314331434667110443115234375" lon="-7.0222795195877552032470703125">
        <ele>810.5999755859375</ele>
        <time>2019-07-09T08:29:06.000Z</time>
      </trkpt>
      <trkpt lat="43.33176565356552600860595703125" lon="-7.02232955954968929290771484375">
        <ele>811.5999755859375</ele>
        <time>2019-07-09T08:29:08.000Z</time>
      </trkpt>
      <trkpt lat="43.33193949423730373382568359375" lon="-7.02235235832631587982177734375">
        <ele>812.79998779296875</ele>
        <time>2019-07-09T08:29:09.000Z</time>
      </trkpt>
      <trkpt lat="43.33210662938654422760009765625" lon="-7.022373564541339874267578125">
        <ele>815</ele>
        <time>2019-07-09T08:29:10.000Z</time>
      </trkpt>
      <trkpt lat="43.33229036070406436920166015625" lon="-7.02239208854734897613525390625">
        <ele>817.4000244140625</ele>
        <time>2019-07-09T08:29:11.000Z</time>
      </trkpt>
      <trkpt lat="43.3324741758406162261962890625" lon="-7.02241279184818267822265625">
        <ele>819.20001220703125</ele>
        <time>2019-07-09T08:29:12.000Z</time>
      </trkpt>
      <trkpt lat="43.33282261155545711517333984375" lon="-7.02245092950761318206787109375">
        <ele>820.79998779296875</ele>
        <time>2019-07-09T08:29:14.000Z</time>
      </trkpt>
      <trkpt lat="43.3329842984676361083984375" lon="-7.0224696211516857147216796875">
        <ele>819</ele>
        <time>2019-07-09T08:29:15.000Z</time>
      </trkpt>
      <trkpt lat="43.3331437222659587860107421875" lon="-7.02248747460544109344482421875">
        <ele>816.20001220703125</ele>
        <time>2019-07-09T08:29:16.000Z</time>
      </trkpt>
      <trkpt lat="43.3332927525043487548828125" lon="-7.0224971137940883636474609375">
        <ele>813.20001220703125</ele>
        <time>2019-07-09T08:29:17.000Z</time>
      </trkpt>
      <trkpt lat="43.33343985490500926971435546875" lon="-7.02249049209058284759521484375">
        <ele>811.79998779296875</ele>
        <time>2019-07-09T08:29:18.000Z</time>
      </trkpt>
      <trkpt lat="43.3337431959807872772216796875" lon="-7.02240600250661373138427734375">
        <ele>811</ele>
        <time>2019-07-09T08:29:20.000Z</time>
      </trkpt>
      <trkpt lat="43.33401803858578205108642578125" lon="-7.0222070999443531036376953125">
        <ele>813</ele>
        <time>2019-07-09T08:29:22.000Z</time>
      </trkpt>
      <trkpt lat="43.33414527587592601776123046875" lon="-7.02208749018609523773193359375">
        <ele>814.20001220703125</ele>
        <time>2019-07-09T08:29:23.000Z</time>
      </trkpt>
      <trkpt lat="43.33438617177307605743408203125" lon="-7.021869309246540069580078125">
        <ele>815.5999755859375</ele>
        <time>2019-07-09T08:29:25.000Z</time>
      </trkpt>
      <trkpt lat="43.33488539792597293853759765625" lon="-7.02159530483186244964599609375">
        <ele>816.20001220703125</ele>
        <time>2019-07-09T08:29:29.000Z</time>
      </trkpt>
      <trkpt lat="43.33501313813030719757080078125" lon="-7.02157191932201385498046875">
        <ele>816.5999755859375</ele>
        <time>2019-07-09T08:29:30.000Z</time>
      </trkpt>
      <trkpt lat="43.3351416327059268951416015625" lon="-7.02156814746558666229248046875">
        <ele>816.79998779296875</ele>
        <time>2019-07-09T08:29:31.000Z</time>
      </trkpt>
      <trkpt lat="43.3354118652641773223876953125" lon="-7.021598406136035919189453125">
        <ele>817.5999755859375</ele>
        <time>2019-07-09T08:29:33.000Z</time>
      </trkpt>
      <trkpt lat="43.33597605116665363311767578125" lon="-7.02175573445856571197509765625">
        <ele>818.20001220703125</ele>
        <time>2019-07-09T08:29:37.000Z</time>
      </trkpt>
      <trkpt lat="43.3361125923693180084228515625" lon="-7.02177300117909908294677734375">
        <ele>818.5999755859375</ele>
        <time>2019-07-09T08:29:38.000Z</time>
      </trkpt>
      <trkpt lat="43.336383663117885589599609375" lon="-7.02176813967525959014892578125">
        <ele>819.79998779296875</ele>
        <time>2019-07-09T08:29:40.000Z</time>
      </trkpt>
      <trkpt lat="43.336520455777645111083984375" lon="-7.0217635296285152435302734375">
        <ele>821.20001220703125</ele>
        <time>2019-07-09T08:29:41.000Z</time>
      </trkpt>
      <trkpt lat="43.33665666170418262481689453125" lon="-7.02175908721983432769775390625">
        <ele>822.4000244140625</ele>
        <time>2019-07-09T08:29:42.000Z</time>
      </trkpt>
      <trkpt lat="43.33692555315792560577392578125" lon="-7.021719776093959808349609375">
        <ele>824.20001220703125</ele>
        <time>2019-07-09T08:29:44.000Z</time>
      </trkpt>
      <trkpt lat="43.33717064000666141510009765625" lon="-7.0215704105794429779052734375">
        <ele>825</ele>
        <time>2019-07-09T08:29:46.000Z</time>
      </trkpt>
      <trkpt lat="43.33764069713652133941650390625" lon="-7.0210919715464115142822265625">
        <ele>824.5999755859375</ele>
        <time>2019-07-09T08:29:50.000Z</time>
      </trkpt>
      <trkpt lat="43.33776759915053844451904296875" lon="-7.0209923945367336273193359375">
        <ele>824.5999755859375</ele>
        <time>2019-07-09T08:29:51.000Z</time>
      </trkpt>
      <trkpt lat="43.33803866989910602569580078125" lon="-7.02087052166461944580078125">
        <ele>826.4000244140625</ele>
        <time>2019-07-09T08:29:53.000Z</time>
      </trkpt>
      <trkpt lat="43.3383257500827312469482421875" lon="-7.020855434238910675048828125">
        <ele>827.5999755859375</ele>
        <time>2019-07-09T08:29:55.000Z</time>
      </trkpt>
      <trkpt lat="43.33861735649406909942626953125" lon="-7.02088401652872562408447265625">
        <ele>826.20001220703125</ele>
        <time>2019-07-09T08:29:57.000Z</time>
      </trkpt>
      <trkpt lat="43.33914558403193950653076171875" lon="-7.02077689580619335174560546875">
        <ele>825.79998779296875</ele>
        <time>2019-07-09T08:30:01.000Z</time>
      </trkpt>
      <trkpt lat="43.3393822051584720611572265625" lon="-7.02061495743691921234130859375">
        <ele>826.5999755859375</ele>
        <time>2019-07-09T08:30:03.000Z</time>
      </trkpt>
      <trkpt lat="43.33958513103425502777099609375" lon="-7.02039920724928379058837890625">
        <ele>827.79998779296875</ele>
        <time>2019-07-09T08:30:05.000Z</time>
      </trkpt>
      <trkpt lat="43.33976467140018939971923828125" lon="-7.0201672799885272979736328125">
        <ele>829.4000244140625</ele>
        <time>2019-07-09T08:30:07.000Z</time>
      </trkpt>
      <trkpt lat="43.33994957618415355682373046875" lon="-7.01994381844997406005859375">
        <ele>831</ele>
        <time>2019-07-09T08:30:09.000Z</time>
      </trkpt>
      <trkpt lat="43.3401570282876491546630859375" lon="-7.0197609253227710723876953125">
        <ele>832.4000244140625</ele>
        <time>2019-07-09T08:30:11.000Z</time>
      </trkpt>
      <trkpt lat="43.34026976488530635833740234375" lon="-7.0196942053735256195068359375">
        <ele>833</ele>
        <time>2019-07-09T08:30:12.000Z</time>
      </trkpt>
      <trkpt lat="43.340387530624866485595703125" lon="-7.01964466832578182220458984375">
        <ele>833.5999755859375</ele>
        <time>2019-07-09T08:30:13.000Z</time>
      </trkpt>
      <trkpt lat="43.3405140973627567291259765625" lon="-7.01961851678788661956787109375">
        <ele>834.20001220703125</ele>
        <time>2019-07-09T08:30:14.000Z</time>
      </trkpt>
      <trkpt lat="43.34064661525189876556396484375" lon="-7.01961114071309566497802734375">
        <ele>834.79998779296875</ele>
        <time>2019-07-09T08:30:15.000Z</time>
      </trkpt>
      <trkpt lat="43.340785838663578033447265625" lon="-7.01962052844464778900146484375">
        <ele>835.4000244140625</ele>
        <time>2019-07-09T08:30:16.000Z</time>
      </trkpt>
      <trkpt lat="43.3410790376365184783935546875" lon="-7.0196948759257793426513671875">
        <ele>836.20001220703125</ele>
        <time>2019-07-09T08:30:18.000Z</time>
      </trkpt>
      <trkpt lat="43.34162461571395397186279296875" lon="-7.0199047587811946868896484375">
        <ele>837.20001220703125</ele>
        <time>2019-07-09T08:30:22.000Z</time>
      </trkpt>
      <trkpt lat="43.34174632094800472259521484375" lon="-7.01998262666165828704833984375">
        <ele>837.79998779296875</ele>
        <time>2019-07-09T08:30:23.000Z</time>
      </trkpt>
      <trkpt lat="43.34195829927921295166015625" lon="-7.0201786793768405914306640625">
        <ele>839</ele>
        <time>2019-07-09T08:30:25.000Z</time>
      </trkpt>
      <trkpt lat="43.34216357208788394927978515625" lon="-7.02047891914844512939453125">
        <ele>840.20001220703125</ele>
        <time>2019-07-09T08:30:27.000Z</time>
      </trkpt>
      <trkpt lat="43.34234713576734066009521484375" lon="-7.020781338214874267578125">
        <ele>841.4000244140625</ele>
        <time>2019-07-09T08:30:29.000Z</time>
      </trkpt>
      <trkpt lat="43.3425606228411197662353515625" lon="-7.0209370739758014678955078125">
        <ele>842.79998779296875</ele>
        <time>2019-07-09T08:30:31.000Z</time>
      </trkpt>
      <trkpt lat="43.34272901527583599090576171875" lon="-7.0209397561848163604736328125">
        <ele>844.20001220703125</ele>
        <time>2019-07-09T08:30:33.000Z</time>
      </trkpt>
      <trkpt lat="43.3429254032671451568603515625" lon="-7.0208683423697948455810546875">
        <ele>846.4000244140625</ele>
        <time>2019-07-09T08:30:35.000Z</time>
      </trkpt>
      <trkpt lat="43.3431624434888362884521484375" lon="-7.02078829519450664520263671875">
        <ele>847.79998779296875</ele>
        <time>2019-07-09T08:30:37.000Z</time>
      </trkpt>
      <trkpt lat="43.34354323334991931915283203125" lon="-7.0206644944846630096435546875">
        <ele>848.79998779296875</ele>
        <time>2019-07-09T08:30:40.000Z</time>
      </trkpt>
      <trkpt lat="43.34365722723305225372314453125" lon="-7.02059919945895671844482421875">
        <ele>849</ele>
        <time>2019-07-09T08:30:41.000Z</time>
      </trkpt>
      <trkpt lat="43.3438712172210216522216796875" lon="-7.02041991055011749267578125">
        <ele>850</ele>
        <time>2019-07-09T08:30:43.000Z</time>
      </trkpt>
      <trkpt lat="43.3440422080457210540771484375" lon="-7.02017582952976226806640625">
        <ele>851.79998779296875</ele>
        <time>2019-07-09T08:30:45.000Z</time>
      </trkpt>
      <trkpt lat="43.3441503345966339111328125" lon="-7.01986645348370075225830078125">
        <ele>852.5999755859375</ele>
        <time>2019-07-09T08:30:47.000Z</time>
      </trkpt>
      <trkpt lat="43.344180174171924591064453125" lon="-7.01969973742961883544921875">
        <ele>852.79998779296875</ele>
        <time>2019-07-09T08:30:48.000Z</time>
      </trkpt>
      <trkpt lat="43.34419568069279193878173828125" lon="-7.0195322670042514801025390625">
        <ele>853</ele>
        <time>2019-07-09T08:30:49.000Z</time>
      </trkpt>
      <trkpt lat="43.3441753126680850982666015625" lon="-7.019200511276721954345703125">
        <ele>853.20001220703125</ele>
        <time>2019-07-09T08:30:51.000Z</time>
      </trkpt>
      <trkpt lat="43.3440965227782726287841796875" lon="-7.01889348216354846954345703125">
        <ele>854.5999755859375</ele>
        <time>2019-07-09T08:30:53.000Z</time>
      </trkpt>
      <trkpt lat="43.34403659217059612274169921875" lon="-7.01874193735420703887939453125">
        <ele>856</ele>
        <time>2019-07-09T08:30:54.000Z</time>
      </trkpt>
      <trkpt lat="43.343885801732540130615234375" lon="-7.01842996291816234588623046875">
        <ele>857.5999755859375</ele>
        <time>2019-07-09T08:30:56.000Z</time>
      </trkpt>
      <trkpt lat="43.34359310567378997802734375" lon="-7.0177754200994968414306640625">
        <ele>858</ele>
        <time>2019-07-09T08:31:00.000Z</time>
      </trkpt>
      <trkpt lat="43.343323878943920135498046875" lon="-7.0171011798083782196044921875">
        <ele>858.5999755859375</ele>
        <time>2019-07-09T08:31:04.000Z</time>
      </trkpt>
      <trkpt lat="43.3432573266327381134033203125" lon="-7.01693278737366199493408203125">
        <ele>858.79998779296875</ele>
        <time>2019-07-09T08:31:05.000Z</time>
      </trkpt>
      <trkpt lat="43.34299773909151554107666015625" lon="-7.016231976449489593505859375">
        <ele>859.5999755859375</ele>
        <time>2019-07-09T08:31:09.000Z</time>
      </trkpt>
      <trkpt lat="43.342934288084506988525390625" lon="-7.01607364229857921600341796875">
        <ele>859.79998779296875</ele>
        <time>2019-07-09T08:31:10.000Z</time>
      </trkpt>
      <trkpt lat="43.3428479544818401336669921875" lon="-7.0157372765243053436279296875">
        <ele>861.20001220703125</ele>
        <time>2019-07-09T08:31:12.000Z</time>
      </trkpt>
      <trkpt lat="43.342818282544612884521484375" lon="-7.0153825543820858001708984375">
        <ele>862.20001220703125</ele>
        <time>2019-07-09T08:31:14.000Z</time>
      </trkpt>
      <trkpt lat="43.34285155870020389556884765625" lon="-7.015039063990116119384765625">
        <ele>863.4000244140625</ele>
        <time>2019-07-09T08:31:16.000Z</time>
      </trkpt>
      <trkpt lat="43.3429379761219024658203125" lon="-7.01474611647427082061767578125">
        <ele>864.20001220703125</ele>
        <time>2019-07-09T08:31:18.000Z</time>
      </trkpt>
      <trkpt lat="43.34299522452056407928466796875" lon="-7.0146127603948116302490234375">
        <ele>864.5999755859375</ele>
        <time>2019-07-09T08:31:19.000Z</time>
      </trkpt>
      <trkpt lat="43.3430695720016956329345703125" lon="-7.0144863612949848175048828125">
        <ele>864.79998779296875</ele>
        <time>2019-07-09T08:31:20.000Z</time>
      </trkpt>
      <trkpt lat="43.3432549796998500823974609375" lon="-7.0142734609544277191162109375">
        <ele>865.5999755859375</ele>
        <time>2019-07-09T08:31:22.000Z</time>
      </trkpt>
      <trkpt lat="43.3434672094881534576416015625" lon="-7.0141376741230487823486328125">
        <ele>865.5999755859375</ele>
        <time>2019-07-09T08:31:24.000Z</time>
      </trkpt>
      <trkpt lat="43.3436972089111804962158203125" lon="-7.01407791115343570709228515625">
        <ele>865</ele>
        <time>2019-07-09T08:31:26.000Z</time>
      </trkpt>
      <trkpt lat="43.3442165516316890716552734375" lon="-7.0141517557203769683837890625">
        <ele>863.79998779296875</ele>
        <time>2019-07-09T08:31:30.000Z</time>
      </trkpt>
      <trkpt lat="43.34435191936790943145751953125" lon="-7.01418377459049224853515625">
        <ele>863.4000244140625</ele>
        <time>2019-07-09T08:31:31.000Z</time>
      </trkpt>
      <trkpt lat="43.34460739977657794952392578125" lon="-7.01423901133239269256591796875">
        <ele>862</ele>
        <time>2019-07-09T08:31:33.000Z</time>
      </trkpt>
      <trkpt lat="43.3447194658219814300537109375" lon="-7.0142610557377338409423828125">
        <ele>860.79998779296875</ele>
        <time>2019-07-09T08:31:34.000Z</time>
      </trkpt>
      <trkpt lat="43.34491753019392490386962890625" lon="-7.0142808370292186737060546875">
        <ele>859.20001220703125</ele>
        <time>2019-07-09T08:31:36.000Z</time>
      </trkpt>
      <trkpt lat="43.34501123987138271331787109375" lon="-7.01427161693572998046875">
        <ele>858.5999755859375</ele>
        <time>2019-07-09T08:31:37.000Z</time>
      </trkpt>
      <trkpt lat="43.3451910316944122314453125" lon="-7.0142013765871524810791015625">
        <ele>857.79998779296875</ele>
        <time>2019-07-09T08:31:39.000Z</time>
      </trkpt>
      <trkpt lat="43.34536227397620677947998046875" lon="-7.0140545256435871124267578125">
        <ele>857.5999755859375</ele>
        <time>2019-07-09T08:31:41.000Z</time>
      </trkpt>
      <trkpt lat="43.345492780208587646484375" lon="-7.0138572156429290771484375">
        <ele>857.20001220703125</ele>
        <time>2019-07-09T08:31:43.000Z</time>
      </trkpt>
      <trkpt lat="43.34553779102861881256103515625" lon="-7.01375017873942852020263671875">
        <ele>856.79998779296875</ele>
        <time>2019-07-09T08:31:44.000Z</time>
      </trkpt>
      <trkpt lat="43.3455720730125904083251953125" lon="-7.0136374421417713165283203125">
        <ele>856</ele>
        <time>2019-07-09T08:31:45.000Z</time>
      </trkpt>
      <trkpt lat="43.3455992303788661956787109375" lon="-7.0135177485644817352294921875">
        <ele>855</ele>
        <time>2019-07-09T08:31:46.000Z</time>
      </trkpt>
      <trkpt lat="43.34561607800424098968505859375" lon="-7.0133950375020503997802734375">
        <ele>854.20001220703125</ele>
        <time>2019-07-09T08:31:47.000Z</time>
      </trkpt>
      <trkpt lat="43.34561959840357303619384765625" lon="-7.0132703147828578948974609375">
        <ele>853.4000244140625</ele>
        <time>2019-07-09T08:31:48.000Z</time>
      </trkpt>
      <trkpt lat="43.34557349793612957000732421875" lon="-7.01289874501526355743408203125">
        <ele>852.4000244140625</ele>
        <time>2019-07-09T08:31:51.000Z</time>
      </trkpt>
      <trkpt lat="43.34554701112210750579833984375" lon="-7.012770585715770721435546875">
        <ele>852.20001220703125</ele>
        <time>2019-07-09T08:31:52.000Z</time>
      </trkpt>
      <trkpt lat="43.345493786036968231201171875" lon="-7.01251569204032421112060546875">
        <ele>850.20001220703125</ele>
        <time>2019-07-09T08:31:54.000Z</time>
      </trkpt>
      <trkpt lat="43.34544508717954158782958984375" lon="-7.0122718624770641326904296875">
        <ele>848.79998779296875</ele>
        <time>2019-07-09T08:31:56.000Z</time>
      </trkpt>
      <trkpt lat="43.34528013132512569427490234375" lon="-7.01168202795088291168212890625">
        <ele>848.20001220703125</ele>
        <time>2019-07-09T08:32:01.000Z</time>
      </trkpt>
      <trkpt lat="43.3452267386019229888916015625" lon="-7.01157222501933574676513671875">
        <ele>847.79998779296875</ele>
        <time>2019-07-09T08:32:02.000Z</time>
      </trkpt>
      <trkpt lat="43.3451673947274684906005859375" lon="-7.0114661939442157745361328125">
        <ele>847.20001220703125</ele>
        <time>2019-07-09T08:32:03.000Z</time>
      </trkpt>
      <trkpt lat="43.3449276722967624664306640625" lon="-7.01104097999632358551025390625">
        <ele>846</ele>
        <time>2019-07-09T08:32:07.000Z</time>
      </trkpt>
      <trkpt lat="43.3448584377765655517578125" lon="-7.0108030177652835845947265625">
        <ele>845.20001220703125</ele>
        <time>2019-07-09T08:32:09.000Z</time>
      </trkpt>
      <trkpt lat="43.34484712220728397369384765625" lon="-7.01068055815994739532470703125">
        <ele>844.4000244140625</ele>
        <time>2019-07-09T08:32:10.000Z</time>
      </trkpt>
      <trkpt lat="43.34484712220728397369384765625" lon="-7.01056254096329212188720703125">
        <ele>843.5999755859375</ele>
        <time>2019-07-09T08:32:11.000Z</time>
      </trkpt>
      <trkpt lat="43.3448525704443454742431640625" lon="-7.010455168783664703369140625">
        <ele>843</ele>
        <time>2019-07-09T08:32:12.000Z</time>
      </trkpt>
      <trkpt lat="43.3448584377765655517578125" lon="-7.01030069030821323394775390625">
        <ele>842.4000244140625</ele>
        <time>2019-07-09T08:32:14.000Z</time>
      </trkpt>
      <trkpt lat="43.34485449828207492828369140625" lon="-7.01024067588150501251220703125">
        <ele>844</ele>
        <time>2019-07-09T08:32:21.000Z</time>
      </trkpt>
      <trkpt lat="43.34485013969242572784423828125" lon="-7.010133303701877593994140625">
        <ele>843.79998779296875</ele>
        <time>2019-07-09T08:32:23.000Z</time>
      </trkpt>
      <trkpt lat="43.3448783867061138153076171875" lon="-7.00998519547283649444580078125">
        <ele>843.5999755859375</ele>
        <time>2019-07-09T08:32:25.000Z</time>
      </trkpt>
      <trkpt lat="43.34494368173182010650634765625" lon="-7.00988821685314178466796875">
        <ele>843</ele>
        <time>2019-07-09T08:32:27.000Z</time>
      </trkpt>
      <trkpt lat="43.34498257376253604888916015625" lon="-7.0098639093339443206787109375">
        <ele>842.5999755859375</ele>
        <time>2019-07-09T08:32:28.000Z</time>
      </trkpt>
      <trkpt lat="43.3450259082019329071044921875" lon="-7.00985510833561420440673828125">
        <ele>842.4000244140625</ele>
        <time>2019-07-09T08:32:29.000Z</time>
      </trkpt>
      <trkpt lat="43.34512389265000820159912109375" lon="-7.00989819131791591644287109375">
        <ele>842.20001220703125</ele>
        <time>2019-07-09T08:32:31.000Z</time>
      </trkpt>
      <trkpt lat="43.3451999165117740631103515625" lon="-7.0100248418748378753662109375">
        <ele>842.4000244140625</ele>
        <time>2019-07-09T08:32:33.000Z</time>
      </trkpt>
      <trkpt lat="43.34522464312613010406494140625" lon="-7.0102216489613056182861328125">
        <ele>842.4000244140625</ele>
        <time>2019-07-09T08:32:35.000Z</time>
      </trkpt>
      <trkpt lat="43.3452446758747100830078125" lon="-7.01043748296797275543212890625">
        <ele>842.79998779296875</ele>
        <time>2019-07-09T08:32:37.000Z</time>
      </trkpt>
      <trkpt lat="43.34532153792679309844970703125" lon="-7.0106159336864948272705078125">
        <ele>842.79998779296875</ele>
        <time>2019-07-09T08:32:39.000Z</time>
      </trkpt>
      <trkpt lat="43.3456599153578281402587890625" lon="-7.0110776089131832122802734375">
        <ele>842.20001220703125</ele>
        <time>2019-07-09T08:32:47.000Z</time>
      </trkpt>
      <trkpt lat="43.34577214904129505157470703125" lon="-7.0112133957445621490478515625">
        <ele>841.5999755859375</ele>
        <time>2019-07-09T08:32:49.000Z</time>
      </trkpt>
      <trkpt lat="43.3458825387060642242431640625" lon="-7.01136217452585697174072265625">
        <ele>840.4000244140625</ele>
        <time>2019-07-09T08:32:51.000Z</time>
      </trkpt>
      <trkpt lat="43.34599477238953113555908203125" lon="-7.011534087359905242919921875">
        <ele>839</ele>
        <time>2019-07-09T08:32:53.000Z</time>
      </trkpt>
      <trkpt lat="43.34618068300187587738037109375" lon="-7.01183340512216091156005859375">
        <ele>837.20001220703125</ele>
        <time>2019-07-09T08:32:56.000Z</time>
      </trkpt>
      <trkpt lat="43.34630842320621013641357421875" lon="-7.012035660445690155029296875">
        <ele>835.5999755859375</ele>
        <time>2019-07-09T08:32:58.000Z</time>
      </trkpt>
      <trkpt lat="43.34646633826196193695068359375" lon="-7.0123348943889141082763671875">
        <ele>834.4000244140625</ele>
        <time>2019-07-09T08:33:01.000Z</time>
      </trkpt>
      <trkpt lat="43.346608579158782958984375" lon="-7.0126636326313018798828125">
        <ele>833</ele>
        <time>2019-07-09T08:33:04.000Z</time>
      </trkpt>
      <trkpt lat="43.3467391692101955413818359375" lon="-7.0130138285458087921142578125">
        <ele>831.79998779296875</ele>
        <time>2019-07-09T08:33:07.000Z</time>
      </trkpt>
      <trkpt lat="43.346836566925048828125" lon="-7.0133420638740062713623046875">
        <ele>830.4000244140625</ele>
        <time>2019-07-09T08:33:10.000Z</time>
      </trkpt>
      <trkpt lat="43.34696573205292224884033203125" lon="-7.01367549598217010498046875">
        <ele>829</ele>
        <time>2019-07-09T08:33:13.000Z</time>
      </trkpt>
      <trkpt lat="43.3470667339861392974853515625" lon="-7.01389250345528125762939453125">
        <ele>827.79998779296875</ele>
        <time>2019-07-09T08:33:15.000Z</time>
      </trkpt>
      <trkpt lat="43.34718718193471431732177734375" lon="-7.01410523615777492523193359375">
        <ele>826.5999755859375</ele>
        <time>2019-07-09T08:33:17.000Z</time>
      </trkpt>
      <trkpt lat="43.34732615388929843902587890625" lon="-7.0143066532909870147705078125">
        <ele>825.20001220703125</ele>
        <time>2019-07-09T08:33:19.000Z</time>
      </trkpt>
      <trkpt lat="43.34748256020247936248779296875" lon="-7.01450119726359844207763671875">
        <ele>824</ele>
        <time>2019-07-09T08:33:21.000Z</time>
      </trkpt>
      <trkpt lat="43.347646929323673248291015625" lon="-7.01467738486826419830322265625">
        <ele>822.5999755859375</ele>
        <time>2019-07-09T08:33:23.000Z</time>
      </trkpt>
      <trkpt lat="43.3478204347193241119384765625" lon="-7.014831863343715667724609375">
        <ele>821</ele>
        <time>2019-07-09T08:33:25.000Z</time>
      </trkpt>
      <trkpt lat="43.347917161881923675537109375" lon="-7.01489313505589962005615234375">
        <ele>820.5999755859375</ele>
        <time>2019-07-09T08:33:26.000Z</time>
      </trkpt>
      <trkpt lat="43.34812059067189693450927734375" lon="-7.01496806927025318145751953125">
        <ele>820</ele>
        <time>2019-07-09T08:33:28.000Z</time>
      </trkpt>
      <trkpt lat="43.3483210019767284393310546875" lon="-7.015011571347713470458984375">
        <ele>818.79998779296875</ele>
        <time>2019-07-09T08:33:30.000Z</time>
      </trkpt>
      <trkpt lat="43.34850481711328029632568359375" lon="-7.0150690712034702301025390625">
        <ele>817.5999755859375</ele>
        <time>2019-07-09T08:33:32.000Z</time>
      </trkpt>
      <trkpt lat="43.34866977296769618988037109375" lon="-7.015183903276920318603515625">
        <ele>817</ele>
        <time>2019-07-09T08:33:34.000Z</time>
      </trkpt>
      <trkpt lat="43.34881746210157871246337890625" lon="-7.01537056826055049896240234375">
        <ele>816.5999755859375</ele>
        <time>2019-07-09T08:33:36.000Z</time>
      </trkpt>
      <trkpt lat="43.34904360584914684295654296875" lon="-7.0156900025904178619384765625">
        <ele>815.4000244140625</ele>
        <time>2019-07-09T08:33:39.000Z</time>
      </trkpt>
      <trkpt lat="43.34922130219638347625732421875" lon="-7.0158267952501773834228515625">
        <ele>813.5999755859375</ele>
        <time>2019-07-09T08:33:41.000Z</time>
      </trkpt>
      <trkpt lat="43.34938743151724338531494140625" lon="-7.01586426235735416412353515625">
        <ele>812.4000244140625</ele>
        <time>2019-07-09T08:33:43.000Z</time>
      </trkpt>
      <trkpt lat="43.34976344369351863861083984375" lon="-7.01579720713198184967041015625">
        <ele>811</ele>
        <time>2019-07-09T08:33:47.000Z</time>
      </trkpt>
      <trkpt lat="43.350209109485149383544921875" lon="-7.01579444110393524169921875">
        <ele>809.5999755859375</ele>
        <time>2019-07-09T08:33:51.000Z</time>
      </trkpt>
      <trkpt lat="43.3503205887973308563232421875" lon="-7.01579133979976177215576171875">
        <ele>808.20001220703125</ele>
        <time>2019-07-09T08:33:52.000Z</time>
      </trkpt>
      <trkpt lat="43.350434415042400360107421875" lon="-7.0157884061336517333984375">
        <ele>806.4000244140625</ele>
        <time>2019-07-09T08:33:53.000Z</time>
      </trkpt>
      <trkpt lat="43.35054698400199413299560546875" lon="-7.0157929323613643646240234375">
        <ele>804.5999755859375</ele>
        <time>2019-07-09T08:33:54.000Z</time>
      </trkpt>
      <trkpt lat="43.35066298954188823699951171875" lon="-7.01581380330026149749755859375">
        <ele>803.79998779296875</ele>
        <time>2019-07-09T08:33:55.000Z</time>
      </trkpt>
      <trkpt lat="43.35077430121600627899169921875" lon="-7.01584146358072757720947265625">
        <ele>803.4000244140625</ele>
        <time>2019-07-09T08:33:56.000Z</time>
      </trkpt>
      <trkpt lat="43.3510826714336872100830078125" lon="-7.0159706287086009979248046875">
        <ele>802.79998779296875</ele>
        <time>2019-07-09T08:33:59.000Z</time>
      </trkpt>
      <trkpt lat="43.35117981769144535064697265625" lon="-7.016040869057178497314453125">
        <ele>802.20001220703125</ele>
        <time>2019-07-09T08:34:00.000Z</time>
      </trkpt>
      <trkpt lat="43.35136539302766323089599609375" lon="-7.016195096075534820556640625">
        <ele>801</ele>
        <time>2019-07-09T08:34:02.000Z</time>
      </trkpt>
      <trkpt lat="43.35154292173683643341064453125" lon="-7.01632057316601276397705078125">
        <ele>799.79998779296875</ele>
        <time>2019-07-09T08:34:04.000Z</time>
      </trkpt>
      <trkpt lat="43.3517247252166271209716796875" lon="-7.016364075243473052978515625">
        <ele>799</ele>
        <time>2019-07-09T08:34:06.000Z</time>
      </trkpt>
      <trkpt lat="43.35182103328406810760498046875" lon="-7.016343288123607635498046875">
        <ele>798.5999755859375</ele>
        <time>2019-07-09T08:34:07.000Z</time>
      </trkpt>
      <trkpt lat="43.35192027501761913299560546875" lon="-7.0162968523800373077392578125">
        <ele>798.20001220703125</ele>
        <time>2019-07-09T08:34:08.000Z</time>
      </trkpt>
      <trkpt lat="43.35211590863764286041259765625" lon="-7.01615394093096256256103515625">
        <ele>797.4000244140625</ele>
        <time>2019-07-09T08:34:10.000Z</time>
      </trkpt>
      <trkpt lat="43.35230550728738307952880859375" lon="-7.01601044274866580963134765625">
        <ele>796.20001220703125</ele>
        <time>2019-07-09T08:34:12.000Z</time>
      </trkpt>
      <trkpt lat="43.35251748561859130859375" lon="-7.01592452824115753173828125">
        <ele>794.20001220703125</ele>
        <time>2019-07-09T08:34:14.000Z</time>
      </trkpt>
      <trkpt lat="43.35262142121791839599609375" lon="-7.01589477248489856719970703125">
        <ele>793</ele>
        <time>2019-07-09T08:34:15.000Z</time>
      </trkpt>
      <trkpt lat="43.3527268655598163604736328125" lon="-7.01586543582379817962646484375">
        <ele>792.4000244140625</ele>
        <time>2019-07-09T08:34:16.000Z</time>
      </trkpt>
      <trkpt lat="43.35282820276916027069091796875" lon="-7.01583006419241428375244140625">
        <ele>791.5999755859375</ele>
        <time>2019-07-09T08:34:17.000Z</time>
      </trkpt>
      <trkpt lat="43.35303992964327335357666015625" lon="-7.0157480053603649139404296875">
        <ele>790</ele>
        <time>2019-07-09T08:34:19.000Z</time>
      </trkpt>
      <trkpt lat="43.35335458628833293914794921875" lon="-7.0156900025904178619384765625">
        <ele>789</ele>
        <time>2019-07-09T08:34:22.000Z</time>
      </trkpt>
      <trkpt lat="43.35367619991302490234375" lon="-7.0157104544341564178466796875">
        <ele>787.4000244140625</ele>
        <time>2019-07-09T08:34:25.000Z</time>
      </trkpt>
      <trkpt lat="43.3539013378322124481201171875" lon="-7.01577574945986270904541015625">
        <ele>786.4000244140625</ele>
        <time>2019-07-09T08:34:27.000Z</time>
      </trkpt>
      <trkpt lat="43.35411633364856243133544921875" lon="-7.01588739641010761260986328125">
        <ele>785.20001220703125</ele>
        <time>2019-07-09T08:34:29.000Z</time>
      </trkpt>
      <trkpt lat="43.3543003164231777191162109375" lon="-7.01605805195868015289306640625">
        <ele>784.20001220703125</ele>
        <time>2019-07-09T08:34:31.000Z</time>
      </trkpt>
      <trkpt lat="43.3544741570949554443359375" lon="-7.01627715490758419036865234375">
        <ele>782.5999755859375</ele>
        <time>2019-07-09T08:34:33.000Z</time>
      </trkpt>
      <trkpt lat="43.3546469919383525848388671875" lon="-7.01648301444947719573974609375">
        <ele>781.4000244140625</ele>
        <time>2019-07-09T08:34:35.000Z</time>
      </trkpt>
      <trkpt lat="43.3547328226268291473388671875" lon="-7.0165707729756832122802734375">
        <ele>780.79998779296875</ele>
        <time>2019-07-09T08:34:36.000Z</time>
      </trkpt>
      <trkpt lat="43.35481756366789340972900390625" lon="-7.01664470136165618896484375">
        <ele>780.20001220703125</ele>
        <time>2019-07-09T08:34:37.000Z</time>
      </trkpt>
      <trkpt lat="43.3550132811069488525390625" lon="-7.01678526587784290313720703125">
        <ele>779</ele>
        <time>2019-07-09T08:34:39.000Z</time>
      </trkpt>
      <trkpt lat="43.3553259260952472686767578125" lon="-7.01699699275195598602294921875">
        <ele>777.79998779296875</ele>
        <time>2019-07-09T08:34:42.000Z</time>
      </trkpt>
      <trkpt lat="43.35553907789289951324462890625" lon="-7.01711752451956272125244140625">
        <ele>776.5999755859375</ele>
        <time>2019-07-09T08:34:44.000Z</time>
      </trkpt>
      <trkpt lat="43.35575952194631099700927734375" lon="-7.01721559278666973114013671875">
        <ele>775.4000244140625</ele>
        <time>2019-07-09T08:34:46.000Z</time>
      </trkpt>
      <trkpt lat="43.35609622299671173095703125" lon="-7.0173378847539424896240234375">
        <ele>774.4000244140625</ele>
        <time>2019-07-09T08:34:49.000Z</time>
      </trkpt>
      <trkpt lat="43.35629831068217754364013671875" lon="-7.017434276640415191650390625">
        <ele>773.5999755859375</ele>
        <time>2019-07-09T08:34:51.000Z</time>
      </trkpt>
      <trkpt lat="43.35638849996030330657958984375" lon="-7.01750527136027812957763671875">
        <ele>772.5999755859375</ele>
        <time>2019-07-09T08:34:52.000Z</time>
      </trkpt>
      <trkpt lat="43.35646905004978179931640625" lon="-7.01759059913456439971923828125">
        <ele>771.4000244140625</ele>
        <time>2019-07-09T08:34:53.000Z</time>
      </trkpt>
      <trkpt lat="43.356614224612712860107421875" lon="-7.01775555498898029327392578125">
        <ele>770.20001220703125</ele>
        <time>2019-07-09T08:34:55.000Z</time>
      </trkpt>
      <trkpt lat="43.35668840445578098297119140625" lon="-7.0178220234811305999755859375">
        <ele>769.79998779296875</ele>
        <time>2019-07-09T08:34:56.000Z</time>
      </trkpt>
      <trkpt lat="43.35689426399767398834228515625" lon="-7.01789469458162784576416015625">
        <ele>768.79998779296875</ele>
        <time>2019-07-09T08:34:58.000Z</time>
      </trkpt>
      <trkpt lat="43.35708998143672943115234375" lon="-7.017870806157588958740234375">
        <ele>768</ele>
        <time>2019-07-09T08:35:00.000Z</time>
      </trkpt>
      <trkpt lat="43.357187211513519287109375" lon="-7.01783501543104648590087890625">
        <ele>767.5999755859375</ele>
        <time>2019-07-09T08:35:01.000Z</time>
      </trkpt>
      <trkpt lat="43.35739181376993656158447265625" lon="-7.017761170864105224609375">
        <ele>766.4000244140625</ele>
        <time>2019-07-09T08:35:03.000Z</time>
      </trkpt>
      <trkpt lat="43.357616364955902099609375" lon="-7.01770056970417499542236328125">
        <ele>765.4000244140625</ele>
        <time>2019-07-09T08:35:05.000Z</time>
      </trkpt>
      <trkpt lat="43.357852734625339508056640625" lon="-7.01764022000133991241455078125">
        <ele>764</ele>
        <time>2019-07-09T08:35:07.000Z</time>
      </trkpt>
      <trkpt lat="43.3581031858921051025390625" lon="-7.01757500879466533660888671875">
        <ele>762</ele>
        <time>2019-07-09T08:35:09.000Z</time>
      </trkpt>
      <trkpt lat="43.358352296054363250732421875" lon="-7.0175092108547687530517578125">
        <ele>760.20001220703125</ele>
        <time>2019-07-09T08:35:11.000Z</time>
      </trkpt>
      <trkpt lat="43.35860677063465118408203125" lon="-7.0174411498010158538818359375">
        <ele>758.79998779296875</ele>
        <time>2019-07-09T08:35:13.000Z</time>
      </trkpt>
      <trkpt lat="43.35886786691844463348388671875" lon="-7.0173663832247257232666015625">
        <ele>757.20001220703125</ele>
        <time>2019-07-09T08:35:15.000Z</time>
      </trkpt>
      <trkpt lat="43.35912837646901607513427734375" lon="-7.01729471795260906219482421875">
        <ele>755.79998779296875</ele>
        <time>2019-07-09T08:35:17.000Z</time>
      </trkpt>
      <trkpt lat="43.35939140059053897857666015625" lon="-7.01721643097698688507080078125">
        <ele>754.4000244140625</ele>
        <time>2019-07-09T08:35:19.000Z</time>
      </trkpt>
      <trkpt lat="43.35952048189938068389892578125" lon="-7.01717888005077838897705078125">
        <ele>753</ele>
        <time>2019-07-09T08:35:20.000Z</time>
      </trkpt>
      <trkpt lat="43.35964453406631946563720703125" lon="-7.01714250259101390838623046875">
        <ele>751.4000244140625</ele>
        <time>2019-07-09T08:35:21.000Z</time>
      </trkpt>
      <trkpt lat="43.35976473055779933929443359375" lon="-7.017113752663135528564453125">
        <ele>750</ele>
        <time>2019-07-09T08:35:22.000Z</time>
      </trkpt>
      <trkpt lat="43.359886519610881805419921875" lon="-7.01710009016096591949462890625">
        <ele>749.20001220703125</ele>
        <time>2019-07-09T08:35:23.000Z</time>
      </trkpt>
      <trkpt lat="43.360010571777820587158203125" lon="-7.0171038620173931121826171875">
        <ele>748.5999755859375</ele>
        <time>2019-07-09T08:35:24.000Z</time>
      </trkpt>
      <trkpt lat="43.360139317810535430908203125" lon="-7.0171241462230682373046875">
        <ele>748.4000244140625</ele>
        <time>2019-07-09T08:35:25.000Z</time>
      </trkpt>
      <trkpt lat="43.36053662002086639404296875" lon="-7.01728667132556438446044921875">
        <ele>747.4000244140625</ele>
        <time>2019-07-09T08:35:28.000Z</time>
      </trkpt>
      <trkpt lat="43.3607946150004863739013671875" lon="-7.017442993819713592529296875">
        <ele>745.5999755859375</ele>
        <time>2019-07-09T08:35:30.000Z</time>
      </trkpt>
      <trkpt lat="43.36091615259647369384765625" lon="-7.01753611676394939422607421875">
        <ele>744.4000244140625</ele>
        <time>2019-07-09T08:35:31.000Z</time>
      </trkpt>
      <trkpt lat="43.3610283024609088897705078125" lon="-7.01764726080000400543212890625">
        <ele>743.4000244140625</ele>
        <time>2019-07-09T08:35:32.000Z</time>
      </trkpt>
      <trkpt lat="43.36113274097442626953125" lon="-7.01777617447078227996826171875">
        <ele>742.79998779296875</ele>
        <time>2019-07-09T08:35:33.000Z</time>
      </trkpt>
      <trkpt lat="43.36140506900846958160400390625" lon="-7.01818923465907573699951171875">
        <ele>741.4000244140625</ele>
        <time>2019-07-09T08:35:36.000Z</time>
      </trkpt>
      <trkpt lat="43.36157404817640781402587890625" lon="-7.0184349082410335540771484375">
        <ele>740</ele>
        <time>2019-07-09T08:35:38.000Z</time>
      </trkpt>
      <trkpt lat="43.3619456179440021514892578125" lon="-7.01885609887540340423583984375">
        <ele>738.79998779296875</ele>
        <time>2019-07-09T08:35:42.000Z</time>
      </trkpt>
      <trkpt lat="43.36228072643280029296875" lon="-7.01917142607271671295166015625">
        <ele>737.4000244140625</ele>
        <time>2019-07-09T08:35:45.000Z</time>
      </trkpt>
      <trkpt lat="43.36240611970424652099609375" lon="-7.01927603222429752349853515625">
        <ele>736.4000244140625</ele>
        <time>2019-07-09T08:35:46.000Z</time>
      </trkpt>
      <trkpt lat="43.362519443035125732421875" lon="-7.01937544159591197967529296875">
        <ele>735</ele>
        <time>2019-07-09T08:35:47.000Z</time>
      </trkpt>
      <trkpt lat="43.362633772194385528564453125" lon="-7.01947468332946300506591796875">
        <ele>733.4000244140625</ele>
        <time>2019-07-09T08:35:48.000Z</time>
      </trkpt>
      <trkpt lat="43.36276327259838581085205078125" lon="-7.01958733610808849334716796875">
        <ele>732.20001220703125</ele>
        <time>2019-07-09T08:35:49.000Z</time>
      </trkpt>
      <trkpt lat="43.36288749240338802337646484375" lon="-7.01970510184764862060546875">
        <ele>731</ele>
        <time>2019-07-09T08:35:50.000Z</time>
      </trkpt>
      <trkpt lat="43.36312319152057170867919921875" lon="-7.0199584029614925384521484375">
        <ele>729.20001220703125</ele>
        <time>2019-07-09T08:35:52.000Z</time>
      </trkpt>
      <trkpt lat="43.363315723836421966552734375" lon="-7.02022838406264781951904296875">
        <ele>727.79998779296875</ele>
        <time>2019-07-09T08:35:54.000Z</time>
      </trkpt>
      <trkpt lat="43.36339929141104221343994140625" lon="-7.02037967741489410400390625">
        <ele>726.79998779296875</ele>
        <time>2019-07-09T08:35:55.000Z</time>
      </trkpt>
      <trkpt lat="43.36346827447414398193359375" lon="-7.020529545843601226806640625">
        <ele>725.79998779296875</ele>
        <time>2019-07-09T08:35:56.000Z</time>
      </trkpt>
      <trkpt lat="43.3634996227920055389404296875" lon="-7.02067279256880283355712890625">
        <ele>725.4000244140625</ele>
        <time>2019-07-09T08:35:57.000Z</time>
      </trkpt>
      <trkpt lat="43.3635381795465946197509765625" lon="-7.02079567126929759979248046875">
        <ele>725</ele>
        <time>2019-07-09T08:35:58.000Z</time>
      </trkpt>
      <trkpt lat="43.3636572025716304779052734375" lon="-7.02097856439650058746337890625">
        <ele>724.5999755859375</ele>
        <time>2019-07-09T08:36:00.000Z</time>
      </trkpt>
      <trkpt lat="43.363813273608684539794921875" lon="-7.02109423466026782989501953125">
        <ele>724.20001220703125</ele>
        <time>2019-07-09T08:36:02.000Z</time>
      </trkpt>
      <trkpt lat="43.3640977554023265838623046875" lon="-7.02114603482186794281005859375">
        <ele>724</ele>
        <time>2019-07-09T08:36:04.000Z</time>
      </trkpt>
      <trkpt lat="43.36450159549713134765625" lon="-7.02108182944357395172119140625">
        <ele>723</ele>
        <time>2019-07-09T08:36:07.000Z</time>
      </trkpt>
      <trkpt lat="43.36476218886673450469970703125" lon="-7.0209930650889873504638671875">
        <ele>721.20001220703125</ele>
        <time>2019-07-09T08:36:09.000Z</time>
      </trkpt>
      <trkpt lat="43.3650501072406768798828125" lon="-7.02087094075977802276611328125">
        <ele>719.20001220703125</ele>
        <time>2019-07-09T08:36:11.000Z</time>
      </trkpt>
      <trkpt lat="43.3651967905461788177490234375" lon="-7.020796425640583038330078125">
        <ele>718</ele>
        <time>2019-07-09T08:36:12.000Z</time>
      </trkpt>
      <trkpt lat="43.3653476648032665252685546875" lon="-7.0207211561501026153564453125">
        <ele>716.5999755859375</ele>
        <time>2019-07-09T08:36:13.000Z</time>
      </trkpt>
      <trkpt lat="43.3654925040900707244873046875" lon="-7.020647563040256500244140625">
        <ele>715.4000244140625</ele>
        <time>2019-07-09T08:36:14.000Z</time>
      </trkpt>
      <trkpt lat="43.36564077995717525482177734375" lon="-7.02057908289134502410888671875">
        <ele>713.79998779296875</ele>
        <time>2019-07-09T08:36:15.000Z</time>
      </trkpt>
      <trkpt lat="43.3657778240740299224853515625" lon="-7.02051621861755847930908203125">
        <ele>712.4000244140625</ele>
        <time>2019-07-09T08:36:16.000Z</time>
      </trkpt>
      <trkpt lat="43.36590581573545932769775390625" lon="-7.02045746147632598876953125">
        <ele>711.20001220703125</ele>
        <time>2019-07-09T08:36:17.000Z</time>
      </trkpt>
      <trkpt lat="43.36615643464028835296630859375" lon="-7.02035243622958660125732421875">
        <ele>710</ele>
        <time>2019-07-09T08:36:19.000Z</time>
      </trkpt>
      <trkpt lat="43.36628803052008152008056640625" lon="-7.02032427303493022918701171875">
        <ele>709.79998779296875</ele>
        <time>2019-07-09T08:36:20.000Z</time>
      </trkpt>
      <trkpt lat="43.3665291778743267059326171875" lon="-7.0203510113060474395751953125">
        <ele>708.79998779296875</ele>
        <time>2019-07-09T08:36:22.000Z</time>
      </trkpt>
      <trkpt lat="43.36675842292606830596923828125" lon="-7.02049811370670795440673828125">
        <ele>707</ele>
        <time>2019-07-09T08:36:24.000Z</time>
      </trkpt>
      <trkpt lat="43.36697392165660858154296875" lon="-7.02073364518582820892333984375">
        <ele>705.5999755859375</ele>
        <time>2019-07-09T08:36:26.000Z</time>
      </trkpt>
      <trkpt lat="43.3671561442315578460693359375" lon="-7.02100002206861972808837890625">
        <ele>703.5999755859375</ele>
        <time>2019-07-09T08:36:28.000Z</time>
      </trkpt>
      <trkpt lat="43.36733006872236728668212890625" lon="-7.02120990492403507232666015625">
        <ele>702.4000244140625</ele>
        <time>2019-07-09T08:36:30.000Z</time>
      </trkpt>
      <trkpt lat="43.36753944866359233856201171875" lon="-7.021309398114681243896484375">
        <ele>702</ele>
        <time>2019-07-09T08:36:32.000Z</time>
      </trkpt>
      <trkpt lat="43.36775754578411579132080078125" lon="-7.0212673209607601165771484375">
        <ele>701.79998779296875</ele>
        <time>2019-07-09T08:36:34.000Z</time>
      </trkpt>
      <trkpt lat="43.36798000149428844451904296875" lon="-7.0211167819797992706298828125">
        <ele>701.20001220703125</ele>
        <time>2019-07-09T08:36:36.000Z</time>
      </trkpt>
      <trkpt lat="43.36820262484252452850341796875" lon="-7.020979821681976318359375">
        <ele>700.20001220703125</ele>
        <time>2019-07-09T08:36:38.000Z</time>
      </trkpt>
      <trkpt lat="43.36831812746822834014892578125" lon="-7.02095693908631801605224609375">
        <ele>699.5999755859375</ele>
        <time>2019-07-09T08:36:39.000Z</time>
      </trkpt>
      <trkpt lat="43.36845844052731990814208984375" lon="-7.02096951194107532501220703125">
        <ele>699</ele>
        <time>2019-07-09T08:36:40.000Z</time>
      </trkpt>
      <trkpt lat="43.3685988374054431915283203125" lon="-7.021017037332057952880859375">
        <ele>698</ele>
        <time>2019-07-09T08:36:41.000Z</time>
      </trkpt>
      <trkpt lat="43.368739821016788482666015625" lon="-7.02109809033572673797607421875">
        <ele>696.79998779296875</ele>
        <time>2019-07-09T08:36:42.000Z</time>
      </trkpt>
      <trkpt lat="43.368875943124294281005859375" lon="-7.02120806090533733367919921875">
        <ele>695.20001220703125</ele>
        <time>2019-07-09T08:36:43.000Z</time>
      </trkpt>
      <trkpt lat="43.3690051920711994171142578125" lon="-7.02131845057010650634765625">
        <ele>693.79998779296875</ele>
        <time>2019-07-09T08:36:44.000Z</time>
      </trkpt>
      <trkpt lat="43.36914827115833759307861328125" lon="-7.02142749913036823272705078125">
        <ele>692.4000244140625</ele>
        <time>2019-07-09T08:36:45.000Z</time>
      </trkpt>
      <trkpt lat="43.36930350400507450103759765625" lon="-7.02152724377810955047607421875">
        <ele>691.79998779296875</ele>
        <time>2019-07-09T08:36:46.000Z</time>
      </trkpt>
      <trkpt lat="43.36944557726383209228515625" lon="-7.02159874141216278076171875">
        <ele>691.20001220703125</ele>
        <time>2019-07-09T08:36:47.000Z</time>
      </trkpt>
      <trkpt lat="43.36972511373460292816162109375" lon="-7.02170670032501220703125">
        <ele>689.4000244140625</ele>
        <time>2019-07-09T08:36:49.000Z</time>
      </trkpt>
      <trkpt lat="43.3700116910040378570556640625" lon="-7.0218661241233348846435546875">
        <ele>688</ele>
        <time>2019-07-09T08:36:51.000Z</time>
      </trkpt>
      <trkpt lat="43.37014353834092617034912109375" lon="-7.0219472609460353851318359375">
        <ele>687</ele>
        <time>2019-07-09T08:36:52.000Z</time>
      </trkpt>
      <trkpt lat="43.370263315737247467041015625" lon="-7.02201037667691707611083984375">
        <ele>685.5999755859375</ele>
        <time>2019-07-09T08:36:53.000Z</time>
      </trkpt>
      <trkpt lat="43.37038443423807621002197265625" lon="-7.02204943634569644927978515625">
        <ele>684.5999755859375</ele>
        <time>2019-07-09T08:36:54.000Z</time>
      </trkpt>
      <trkpt lat="43.37051150389015674591064453125" lon="-7.022067792713642120361328125">
        <ele>684.20001220703125</ele>
        <time>2019-07-09T08:36:55.000Z</time>
      </trkpt>
      <trkpt lat="43.37107493542134761810302734375" lon="-7.02196880243718624114990234375">
        <ele>683.79998779296875</ele>
        <time>2019-07-09T08:36:59.000Z</time>
      </trkpt>
      <trkpt lat="43.37120837531983852386474609375" lon="-7.02191566117107868194580078125">
        <ele>683.4000244140625</ele>
        <time>2019-07-09T08:37:00.000Z</time>
      </trkpt>
      <trkpt lat="43.37146653793752193450927734375" lon="-7.02178004197776317596435546875">
        <ele>681.4000244140625</ele>
        <time>2019-07-09T08:37:02.000Z</time>
      </trkpt>
      <trkpt lat="43.37175101973116397857666015625" lon="-7.0216317661106586456298828125">
        <ele>679.4000244140625</ele>
        <time>2019-07-09T08:37:04.000Z</time>
      </trkpt>
      <trkpt lat="43.3719113655388355255126953125" lon="-7.0215687341988086700439453125">
        <ele>678</ele>
        <time>2019-07-09T08:37:05.000Z</time>
      </trkpt>
      <trkpt lat="43.37214413098990917205810546875" lon="-7.0215204544365406036376953125">
        <ele>676.20001220703125</ele>
        <time>2019-07-09T08:37:06.000Z</time>
      </trkpt>
      <trkpt lat="43.3722962625324726104736328125" lon="-7.02145666815340518951416015625">
        <ele>674.5999755859375</ele>
        <time>2019-07-09T08:37:07.000Z</time>
      </trkpt>
      <trkpt lat="43.37241922505199909210205078125" lon="-7.02139531262218952178955078125">
        <ele>673.20001220703125</ele>
        <time>2019-07-09T08:37:08.000Z</time>
      </trkpt>
      <trkpt lat="43.37271074764430522918701171875" lon="-7.02128232456743717193603515625">
        <ele>671.79998779296875</ele>
        <time>2019-07-09T08:37:10.000Z</time>
      </trkpt>
      <trkpt lat="43.37286128662526607513427734375" lon="-7.0212495513260364532470703125">
        <ele>671.20001220703125</ele>
        <time>2019-07-09T08:37:11.000Z</time>
      </trkpt>
      <trkpt lat="43.37301182560622692108154296875" lon="-7.0212394930422306060791015625">
        <ele>670.5999755859375</ele>
        <time>2019-07-09T08:37:12.000Z</time>
      </trkpt>
      <trkpt lat="43.373159430921077728271484375" lon="-7.0212522335350513458251953125">
        <ele>670</ele>
        <time>2019-07-09T08:37:13.000Z</time>
      </trkpt>
      <trkpt lat="43.37345656938850879669189453125" lon="-7.02134116552770137786865234375">
        <ele>668.5999755859375</ele>
        <time>2019-07-09T08:37:15.000Z</time>
      </trkpt>
      <trkpt lat="43.37360442616045475006103515625" lon="-7.0213759504258632659912109375">
        <ele>667.20001220703125</ele>
        <time>2019-07-09T08:37:16.000Z</time>
      </trkpt>
      <trkpt lat="43.3737540431320667266845703125" lon="-7.0213863439857959747314453125">
        <ele>665.5999755859375</ele>
        <time>2019-07-09T08:37:17.000Z</time>
      </trkpt>
      <trkpt lat="43.37391405366361141204833984375" lon="-7.0213672332465648651123046875">
        <ele>664.4000244140625</ele>
        <time>2019-07-09T08:37:18.000Z</time>
      </trkpt>
      <trkpt lat="43.3740785904228687286376953125" lon="-7.02132792212069034576416015625">
        <ele>663.5999755859375</ele>
        <time>2019-07-09T08:37:19.000Z</time>
      </trkpt>
      <trkpt lat="43.3742447197437286376953125" lon="-7.02127151191234588623046875">
        <ele>662.79998779296875</ele>
        <time>2019-07-09T08:37:20.000Z</time>
      </trkpt>
      <trkpt lat="43.3744098432362079620361328125" lon="-7.021208815276622772216796875">
        <ele>661.4000244140625</ele>
        <time>2019-07-09T08:37:21.000Z</time>
      </trkpt>
      <trkpt lat="43.3745704405009746551513671875" lon="-7.0211367309093475341796875">
        <ele>659</ele>
        <time>2019-07-09T08:37:22.000Z</time>
      </trkpt>
      <trkpt lat="43.37473967112600803375244140625" lon="-7.0210562646389007568359375">
        <ele>656.4000244140625</ele>
        <time>2019-07-09T08:37:23.000Z</time>
      </trkpt>
      <trkpt lat="43.374914266169071197509765625" lon="-7.0209685899317264556884765625">
        <ele>652.79998779296875</ele>
        <time>2019-07-09T08:37:24.000Z</time>
      </trkpt>
      <trkpt lat="43.37509430944919586181640625" lon="-7.0208747126162052154541015625">
        <ele>649</ele>
        <time>2019-07-09T08:37:25.000Z</time>
      </trkpt>
      <trkpt lat="43.3752570860087871551513671875" lon="-7.02078058384358882904052734375">
        <ele>645.4000244140625</ele>
        <time>2019-07-09T08:37:26.000Z</time>
      </trkpt>
      <trkpt lat="43.3754210360348224639892578125" lon="-7.02069341205060482025146484375">
        <ele>643</ele>
        <time>2019-07-09T08:37:27.000Z</time>
      </trkpt>
      <trkpt lat="43.37559076957404613494873046875" lon="-7.02061680145561695098876953125">
        <ele>641.4000244140625</ele>
        <time>2019-07-09T08:37:28.000Z</time>
      </trkpt>
      <trkpt lat="43.37591707706451416015625" lon="-7.02049224637448787689208984375">
        <ele>639</ele>
        <time>2019-07-09T08:37:30.000Z</time>
      </trkpt>
      <trkpt lat="43.3761088550090789794921875" lon="-7.02044664882123470306396484375">
        <ele>637.20001220703125</ele>
        <time>2019-07-09T08:37:31.000Z</time>
      </trkpt>
      <trkpt lat="43.37631697766482830047607421875" lon="-7.0204103551805019378662109375">
        <ele>635.20001220703125</ele>
        <time>2019-07-09T08:37:32.000Z</time>
      </trkpt>
      <trkpt lat="43.376491069793701171875" lon="-7.0203811861574649810791015625">
        <ele>633.79998779296875</ele>
        <time>2019-07-09T08:37:33.000Z</time>
      </trkpt>
      <trkpt lat="43.376664407551288604736328125" lon="-7.02035629190504550933837890625">
        <ele>632.5999755859375</ele>
        <time>2019-07-09T08:37:34.000Z</time>
      </trkpt>
      <trkpt lat="43.37684788741171360015869140625" lon="-7.0203347504138946533203125">
        <ele>631.5999755859375</ele>
        <time>2019-07-09T08:37:35.000Z</time>
      </trkpt>
      <trkpt lat="43.37707084603607654571533203125" lon="-7.020312286913394927978515625">
        <ele>630.5999755859375</ele>
        <time>2019-07-09T08:37:36.000Z</time>
      </trkpt>
      <trkpt lat="43.37762095034122467041015625" lon="-7.02021681703627109527587890625">
        <ele>628.5999755859375</ele>
        <time>2019-07-09T08:37:39.000Z</time>
      </trkpt>
      <trkpt lat="43.3777906000614166259765625" lon="-7.02017717063426971435546875">
        <ele>626.79998779296875</ele>
        <time>2019-07-09T08:37:40.000Z</time>
      </trkpt>
      <trkpt lat="43.3779744990170001983642578125" lon="-7.0201230235397815704345703125">
        <ele>623.5999755859375</ele>
        <time>2019-07-09T08:37:41.000Z</time>
      </trkpt>
      <trkpt lat="43.378144316375255584716796875" lon="-7.02005647122859954833984375">
        <ele>620.20001220703125</ele>
        <time>2019-07-09T08:37:42.000Z</time>
      </trkpt>
      <trkpt lat="43.378307260572910308837890625" lon="-7.0199718140065670013427734375">
        <ele>616</ele>
        <time>2019-07-09T08:37:43.000Z</time>
      </trkpt>
      <trkpt lat="43.3784743957221508026123046875" lon="-7.019870392978191375732421875">
        <ele>612.4000244140625</ele>
        <time>2019-07-09T08:37:44.000Z</time>
      </trkpt>
      <trkpt lat="43.37863440625369548797607421875" lon="-7.019756399095058441162109375">
        <ele>609.4000244140625</ele>
        <time>2019-07-09T08:37:45.000Z</time>
      </trkpt>
      <trkpt lat="43.37878980673849582672119140625" lon="-7.01962865889072418212890625">
        <ele>607.5999755859375</ele>
        <time>2019-07-09T08:37:46.000Z</time>
      </trkpt>
      <trkpt lat="43.37894537486135959625244140625" lon="-7.01948708854615688323974609375">
        <ele>605.5999755859375</ele>
        <time>2019-07-09T08:37:47.000Z</time>
      </trkpt>
      <trkpt lat="43.37909909896552562713623046875" lon="-7.0193280838429927825927734375">
        <ele>604</ele>
        <time>2019-07-09T08:37:48.000Z</time>
      </trkpt>
      <trkpt lat="43.3792428486049175262451171875" lon="-7.0191547460854053497314453125">
        <ele>602.20001220703125</ele>
        <time>2019-07-09T08:37:49.000Z</time>
      </trkpt>
      <trkpt lat="43.37938106618821620941162109375" lon="-7.0189703442156314849853515625">
        <ele>600.4000244140625</ele>
        <time>2019-07-09T08:37:50.000Z</time>
      </trkpt>
      <trkpt lat="43.37951953522861003875732421875" lon="-7.0187825895845890045166015625">
        <ele>598</ele>
        <time>2019-07-09T08:37:51.000Z</time>
      </trkpt>
      <trkpt lat="43.37966018356382846832275390625" lon="-7.01859307475388050079345703125">
        <ele>595.5999755859375</ele>
        <time>2019-07-09T08:37:52.000Z</time>
      </trkpt>
      <trkpt lat="43.3797968924045562744140625" lon="-7.01840347610414028167724609375">
        <ele>593.4000244140625</ele>
        <time>2019-07-09T08:37:53.000Z</time>
      </trkpt>
      <trkpt lat="43.3799281530082225799560546875" lon="-7.01821823604404926300048828125">
        <ele>590.79998779296875</ele>
        <time>2019-07-09T08:37:54.000Z</time>
      </trkpt>
      <trkpt lat="43.3800582401454448699951171875" lon="-7.0180399529635906219482421875">
        <ele>588.20001220703125</ele>
        <time>2019-07-09T08:37:55.000Z</time>
      </trkpt>
      <trkpt lat="43.380183465778827667236328125" lon="-7.0178642682731151580810546875">
        <ele>585.4000244140625</ele>
        <time>2019-07-09T08:37:56.000Z</time>
      </trkpt>
      <trkpt lat="43.38029905222356319427490234375" lon="-7.01769880950450897216796875">
        <ele>583.4000244140625</ele>
        <time>2019-07-09T08:37:57.000Z</time>
      </trkpt>
      <trkpt lat="43.3804079331457614898681640625" lon="-7.01754801906645298004150390625">
        <ele>582</ele>
        <time>2019-07-09T08:37:58.000Z</time>
      </trkpt>
      <trkpt lat="43.3805185742676258087158203125" lon="-7.0174149982631206512451171875">
        <ele>580.79998779296875</ele>
        <time>2019-07-09T08:37:59.000Z</time>
      </trkpt>
      <trkpt lat="43.3806412853300571441650390625" lon="-7.01730712316930294036865234375">
        <ele>579.5999755859375</ele>
        <time>2019-07-09T08:38:00.000Z</time>
      </trkpt>
      <trkpt lat="43.3807764016091823577880859375" lon="-7.01722246594727039337158203125">
        <ele>578.5999755859375</ele>
        <time>2019-07-09T08:38:01.000Z</time>
      </trkpt>
      <trkpt lat="43.38092266581952571868896484375" lon="-7.0171643793582916259765625">
        <ele>577.4000244140625</ele>
        <time>2019-07-09T08:38:02.000Z</time>
      </trkpt>
      <trkpt lat="43.38107756339013576507568359375" lon="-7.01713764108717441558837890625">
        <ele>576.20001220703125</ele>
        <time>2019-07-09T08:38:03.000Z</time>
      </trkpt>
      <trkpt lat="43.381236232817173004150390625" lon="-7.0171410776674747467041015625">
        <ele>574.79998779296875</ele>
        <time>2019-07-09T08:38:04.000Z</time>
      </trkpt>
      <trkpt lat="43.38138467632234096527099609375" lon="-7.0171722583472728729248046875">
        <ele>573.20001220703125</ele>
        <time>2019-07-09T08:38:05.000Z</time>
      </trkpt>
      <trkpt lat="43.3815180324018001556396484375" lon="-7.01722263358533382415771484375">
        <ele>571.79998779296875</ele>
        <time>2019-07-09T08:38:06.000Z</time>
      </trkpt>
      <trkpt lat="43.38164451532065868377685546875" lon="-7.01729622669517993927001953125">
        <ele>570.5999755859375</ele>
        <time>2019-07-09T08:38:07.000Z</time>
      </trkpt>
      <trkpt lat="43.3817678131163120269775390625" lon="-7.01739571988582611083984375">
        <ele>569.4000244140625</ele>
        <time>2019-07-09T08:38:08.000Z</time>
      </trkpt>
      <trkpt lat="43.38188038207590579986572265625" lon="-7.01751700602471828460693359375">
        <ele>568</ele>
        <time>2019-07-09T08:38:09.000Z</time>
      </trkpt>
      <trkpt lat="43.38197442702949047088623046875" lon="-7.01765262521803379058837890625">
        <ele>566.5999755859375</ele>
        <time>2019-07-09T08:38:10.000Z</time>
      </trkpt>
      <trkpt lat="43.3820631913840770721435546875" lon="-7.0177975483238697052001953125">
        <ele>565.20001220703125</ele>
        <time>2019-07-09T08:38:11.000Z</time>
      </trkpt>
      <trkpt lat="43.382144831120967864990234375" lon="-7.0179507695138454437255859375">
        <ele>564</ele>
        <time>2019-07-09T08:38:12.000Z</time>
      </trkpt>
      <trkpt lat="43.38221146725118160247802734375" lon="-7.0181177370250225067138671875">
        <ele>562.5999755859375</ele>
        <time>2019-07-09T08:38:13.000Z</time>
      </trkpt>
      <trkpt lat="43.38228036649525165557861328125" lon="-7.0182773284614086151123046875">
        <ele>561</ele>
        <time>2019-07-09T08:38:14.000Z</time>
      </trkpt>
      <trkpt lat="43.3823458291590213775634765625" lon="-7.0184184797108173370361328125">
        <ele>559.4000244140625</ele>
        <time>2019-07-09T08:38:15.000Z</time>
      </trkpt>
      <trkpt lat="43.38242922909557819366455078125" lon="-7.0185271091759204864501953125">
        <ele>558</ele>
        <time>2019-07-09T08:38:16.000Z</time>
      </trkpt>
      <trkpt lat="43.3825268782675266265869140625" lon="-7.01863314025104045867919921875">
        <ele>557</ele>
        <time>2019-07-09T08:38:17.000Z</time>
      </trkpt>
      <trkpt lat="43.3826321549713611602783203125" lon="-7.01871193014085292816162109375">
        <ele>556</ele>
        <time>2019-07-09T08:38:18.000Z</time>
      </trkpt>
      <trkpt lat="43.3827515132725238800048828125" lon="-7.01875886879861354827880859375">
        <ele>555.20001220703125</ele>
        <time>2019-07-09T08:38:19.000Z</time>
      </trkpt>
      <trkpt lat="43.38288537226617336273193359375" lon="-7.0187835954129695892333984375">
        <ele>554.20001220703125</ele>
        <time>2019-07-09T08:38:20.000Z</time>
      </trkpt>
      <trkpt lat="43.3830289542675018310546875" lon="-7.018782086670398712158203125">
        <ele>553.20001220703125</ele>
        <time>2019-07-09T08:38:21.000Z</time>
      </trkpt>
      <trkpt lat="43.38317840360105037689208984375" lon="-7.01875987462699413299560546875">
        <ele>552</ele>
        <time>2019-07-09T08:38:22.000Z</time>
      </trkpt>
      <trkpt lat="43.3833266794681549072265625" lon="-7.01872467063367366790771484375">
        <ele>550.4000244140625</ele>
        <time>2019-07-09T08:38:23.000Z</time>
      </trkpt>
      <trkpt lat="43.38346523232758045196533203125" lon="-7.0186692662537097930908203125">
        <ele>548.5999755859375</ele>
        <time>2019-07-09T08:38:24.000Z</time>
      </trkpt>
      <trkpt lat="43.3836071379482746124267578125" lon="-7.01858972199261188507080078125">
        <ele>547.5999755859375</ele>
        <time>2019-07-09T08:38:25.000Z</time>
      </trkpt>
      <trkpt lat="43.3837563358247280120849609375" lon="-7.01849902980029582977294921875">
        <ele>546.79998779296875</ele>
        <time>2019-07-09T08:38:26.000Z</time>
      </trkpt>
      <trkpt lat="43.38389958254992961883544921875" lon="-7.01839140616357326507568359375">
        <ele>546.4000244140625</ele>
        <time>2019-07-09T08:38:27.000Z</time>
      </trkpt>
      <trkpt lat="43.3841888420283794403076171875" lon="-7.018155790865421295166015625">
        <ele>545</ele>
        <time>2019-07-09T08:38:29.000Z</time>
      </trkpt>
      <trkpt lat="43.38446058332920074462890625" lon="-7.017950601875782012939453125">
        <ele>543.20001220703125</ele>
        <time>2019-07-09T08:38:31.000Z</time>
      </trkpt>
      <trkpt lat="43.38458530604839324951171875" lon="-7.0178575627505779266357421875">
        <ele>542</ele>
        <time>2019-07-09T08:38:32.000Z</time>
      </trkpt>
      <trkpt lat="43.38481522165238857269287109375" lon="-7.0177008211612701416015625">
        <ele>540.79998779296875</ele>
        <time>2019-07-09T08:38:34.000Z</time>
      </trkpt>
      <trkpt lat="43.38494497351348400115966796875" lon="-7.01765187084674835205078125">
        <ele>540.20001220703125</ele>
        <time>2019-07-09T08:38:35.000Z</time>
      </trkpt>
      <trkpt lat="43.38507288135588169097900390625" lon="-7.0176258869469165802001953125">
        <ele>539.5999755859375</ele>
        <time>2019-07-09T08:38:36.000Z</time>
      </trkpt>
      <trkpt lat="43.38520866818726062774658203125" lon="-7.0176205225288867950439453125">
        <ele>539.20001220703125</ele>
        <time>2019-07-09T08:38:37.000Z</time>
      </trkpt>
      <trkpt lat="43.385480828583240509033203125" lon="-7.017653882503509521484375">
        <ele>538</ele>
        <time>2019-07-09T08:38:39.000Z</time>
      </trkpt>
      <trkpt lat="43.38560454547405242919921875" lon="-7.0176637731492519378662109375">
        <ele>537.20001220703125</ele>
        <time>2019-07-09T08:38:40.000Z</time>
      </trkpt>
      <trkpt lat="43.38571962900459766387939453125" lon="-7.0176418125629425048828125">
        <ele>536.20001220703125</ele>
        <time>2019-07-09T08:38:41.000Z</time>
      </trkpt>
      <trkpt lat="43.38582524098455905914306640625" lon="-7.01759562827646732330322265625">
        <ele>535.20001220703125</ele>
        <time>2019-07-09T08:38:42.000Z</time>
      </trkpt>
      <trkpt lat="43.386046104133129119873046875" lon="-7.01743268407881259918212890625">
        <ele>534.20001220703125</ele>
        <time>2019-07-09T08:38:44.000Z</time>
      </trkpt>
      <trkpt lat="43.3861535601317882537841796875" lon="-7.0173211209475994110107421875">
        <ele>534</ele>
        <time>2019-07-09T08:38:45.000Z</time>
      </trkpt>
      <trkpt lat="43.386484645307064056396484375" lon="-7.01689356006681919097900390625">
        <ele>533.5999755859375</ele>
        <time>2019-07-09T08:38:48.000Z</time>
      </trkpt>
      <trkpt lat="43.3865773491561412811279296875" lon="-7.01673053205013275146484375">
        <ele>532.79998779296875</ele>
        <time>2019-07-09T08:38:49.000Z</time>
      </trkpt>
      <trkpt lat="43.38664750568568706512451171875" lon="-7.01654411852359771728515625">
        <ele>531.20001220703125</ele>
        <time>2019-07-09T08:38:50.000Z</time>
      </trkpt>
      <trkpt lat="43.3867255412042140960693359375" lon="-7.01635636389255523681640625">
        <ele>529.20001220703125</ele>
        <time>2019-07-09T08:38:51.000Z</time>
      </trkpt>
      <trkpt lat="43.38679133914411067962646484375" lon="-7.01616584323346614837646484375">
        <ele>527.20001220703125</ele>
        <time>2019-07-09T08:38:52.000Z</time>
      </trkpt>
      <trkpt lat="43.3868432231247425079345703125" lon="-7.0159729756414890289306640625">
        <ele>525</ele>
        <time>2019-07-09T08:38:53.000Z</time>
      </trkpt>
      <trkpt lat="43.386886976659297943115234375" lon="-7.015790082514286041259765625">
        <ele>523.20001220703125</ele>
        <time>2019-07-09T08:38:54.000Z</time>
      </trkpt>
      <trkpt lat="43.38693232275545597076416015625" lon="-7.0156167447566986083984375">
        <ele>522</ele>
        <time>2019-07-09T08:38:55.000Z</time>
      </trkpt>
      <trkpt lat="43.38706056587398052215576171875" lon="-7.01531960628926753997802734375">
        <ele>520.79998779296875</ele>
        <time>2019-07-09T08:38:57.000Z</time>
      </trkpt>
      <trkpt lat="43.3872562833130359649658203125" lon="-7.01511257328093051910400390625">
        <ele>520.20001220703125</ele>
        <time>2019-07-09T08:38:59.000Z</time>
      </trkpt>
      <trkpt lat="43.3874983526766300201416015625" lon="-7.0149906165897846221923828125">
        <ele>519.20001220703125</ele>
        <time>2019-07-09T08:39:01.000Z</time>
      </trkpt>
      <trkpt lat="43.38776280172169208526611328125" lon="-7.01495029963552951812744140625">
        <ele>517.5999755859375</ele>
        <time>2019-07-09T08:39:03.000Z</time>
      </trkpt>
      <trkpt lat="43.38789724744856357574462890625" lon="-7.0149544067680835723876953125">
        <ele>516.20001220703125</ele>
        <time>2019-07-09T08:39:04.000Z</time>
      </trkpt>
      <trkpt lat="43.38803420774638652801513671875" lon="-7.0149778760969638824462890625">
        <ele>515.20001220703125</ele>
        <time>2019-07-09T08:39:05.000Z</time>
      </trkpt>
      <trkpt lat="43.3881725929677486419677734375" lon="-7.01502389274537563323974609375">
        <ele>514.20001220703125</ele>
        <time>2019-07-09T08:39:06.000Z</time>
      </trkpt>
      <trkpt lat="43.3884257264435291290283203125" lon="-7.01516051776707172393798828125">
        <ele>512.79998779296875</ele>
        <time>2019-07-09T08:39:08.000Z</time>
      </trkpt>
      <trkpt lat="43.38864675723016262054443359375" lon="-7.01536101289093494415283203125">
        <ele>510.79998779296875</ele>
        <time>2019-07-09T08:39:10.000Z</time>
      </trkpt>
      <trkpt lat="43.38874214328825473785400390625" lon="-7.015482299029827117919921875">
        <ele>509.20001220703125</ele>
        <time>2019-07-09T08:39:11.000Z</time>
      </trkpt>
      <trkpt lat="43.388826213777065277099609375" lon="-7.01561330817639827728271484375">
        <ele>507.600006103515625</ele>
        <time>2019-07-09T08:39:12.000Z</time>
      </trkpt>
      <trkpt lat="43.3889661915600299835205078125" lon="-7.01590449549257755279541015625">
        <ele>506.20001220703125</ele>
        <time>2019-07-09T08:39:14.000Z</time>
      </trkpt>
      <trkpt lat="43.38912720791995525360107421875" lon="-7.01654336415231227874755859375">
        <ele>505</ele>
        <time>2019-07-09T08:39:18.000Z</time>
      </trkpt>
      <trkpt lat="43.38914095424115657806396484375" lon="-7.0171209610998630523681640625">
        <ele>503.79998779296875</ele>
        <time>2019-07-09T08:39:22.000Z</time>
      </trkpt>
      <trkpt lat="43.3890989609062671661376953125" lon="-7.017868459224700927734375">
        <ele>503.20001220703125</ele>
        <time>2019-07-09T08:39:27.000Z</time>
      </trkpt>
      <trkpt lat="43.38910591788589954376220703125" lon="-7.0181435532867908477783203125">
        <ele>502.399993896484375</ele>
        <time>2019-07-09T08:39:29.000Z</time>
      </trkpt>
      <trkpt lat="43.3891658484935760498046875" lon="-7.01838151551783084869384765625">
        <ele>502.20001220703125</ele>
        <time>2019-07-09T08:39:31.000Z</time>
      </trkpt>
      <trkpt lat="43.38926567696034908294677734375" lon="-7.01857631094753742218017578125">
        <ele>501.600006103515625</ele>
        <time>2019-07-09T08:39:33.000Z</time>
      </trkpt>
      <trkpt lat="43.3893363364040851593017578125" lon="-7.01865510083734989166259765625">
        <ele>501.20001220703125</ele>
        <time>2019-07-09T08:39:34.000Z</time>
      </trkpt>
      <trkpt lat="43.38942862115800380706787109375" lon="-7.0187162049114704132080078125">
        <ele>500.79998779296875</ele>
        <time>2019-07-09T08:39:35.000Z</time>
      </trkpt>
      <trkpt lat="43.38966784067451953887939453125" lon="-7.01877010054886341094970703125">
        <ele>499.79998779296875</ele>
        <time>2019-07-09T08:39:37.000Z</time>
      </trkpt>
      <trkpt lat="43.3899324573576450347900390625" lon="-7.0187415182590484619140625">
        <ele>497.79998779296875</ele>
        <time>2019-07-09T08:39:39.000Z</time>
      </trkpt>
      <trkpt lat="43.39007914066314697265625" lon="-7.01872475445270538330078125">
        <ele>496.20001220703125</ele>
        <time>2019-07-09T08:39:40.000Z</time>
      </trkpt>
      <trkpt lat="43.39021735824644565582275390625" lon="-7.0187105052173137664794921875">
        <ele>494.600006103515625</ele>
        <time>2019-07-09T08:39:41.000Z</time>
      </trkpt>
      <trkpt lat="43.39035482145845890045166015625" lon="-7.01869315467774868011474609375">
        <ele>493.399993896484375</ele>
        <time>2019-07-09T08:39:42.000Z</time>
      </trkpt>
      <trkpt lat="43.39048507623374462127685546875" lon="-7.01867706142365932464599609375">
        <ele>492.20001220703125</ele>
        <time>2019-07-09T08:39:43.000Z</time>
      </trkpt>
      <trkpt lat="43.39076369069516658782958984375" lon="-7.0186722837388515472412109375">
        <ele>490.79998779296875</ele>
        <time>2019-07-09T08:39:45.000Z</time>
      </trkpt>
      <trkpt lat="43.39100374840199947357177734375" lon="-7.01871729455888271331787109375">
        <ele>489</ele>
        <time>2019-07-09T08:39:47.000Z</time>
      </trkpt>
      <trkpt lat="43.39117951691150665283203125" lon="-7.01883967034518718719482421875">
        <ele>487.600006103515625</ele>
        <time>2019-07-09T08:39:49.000Z</time>
      </trkpt>
      <trkpt lat="43.39132058434188365936279296875" lon="-7.0190370641648769378662109375">
        <ele>487</ele>
        <time>2019-07-09T08:39:51.000Z</time>
      </trkpt>
      <trkpt lat="43.39139350689947605133056640625" lon="-7.01929028145968914031982421875">
        <ele>486.399993896484375</ele>
        <time>2019-07-09T08:39:53.000Z</time>
      </trkpt>
      <trkpt lat="43.39139568619430065155029296875" lon="-7.01968791894614696502685546875">
        <ele>485.20001220703125</ele>
        <time>2019-07-09T08:39:56.000Z</time>
      </trkpt>
      <trkpt lat="43.3913962729275226593017578125" lon="-7.0198115520179271697998046875">
        <ele>485</ele>
        <time>2019-07-09T08:39:57.000Z</time>
      </trkpt>
      <trkpt lat="43.391428291797637939453125" lon="-7.0200412161648273468017578125">
        <ele>484.600006103515625</ele>
        <time>2019-07-09T08:39:59.000Z</time>
      </trkpt>
      <trkpt lat="43.39152208529412746429443359375" lon="-7.0202400349080562591552734375">
        <ele>483.399993896484375</ele>
        <time>2019-07-09T08:40:01.000Z</time>
      </trkpt>
      <trkpt lat="43.391594253480434417724609375" lon="-7.0203174836933612823486328125">
        <ele>482.20001220703125</ele>
        <time>2019-07-09T08:40:02.000Z</time>
      </trkpt>
      <trkpt lat="43.39169718325138092041015625" lon="-7.0203771628439426422119140625">
        <ele>481</ele>
        <time>2019-07-09T08:40:03.000Z</time>
      </trkpt>
      <trkpt lat="43.3919253386557102203369140625" lon="-7.02039250172674655914306640625">
        <ele>479.20001220703125</ele>
        <time>2019-07-09T08:40:05.000Z</time>
      </trkpt>
      <trkpt lat="43.392174951732158660888671875" lon="-7.0202879793941974639892578125">
        <ele>477.399993896484375</ele>
        <time>2019-07-09T08:40:07.000Z</time>
      </trkpt>
      <trkpt lat="43.39241601526737213134765625" lon="-7.0201076008379459381103515625">
        <ele>476.20001220703125</ele>
        <time>2019-07-09T08:40:09.000Z</time>
      </trkpt>
      <trkpt lat="43.39263369329273700714111328125" lon="-7.0199345983564853668212890625">
        <ele>474.20001220703125</ele>
        <time>2019-07-09T08:40:11.000Z</time>
      </trkpt>
      <trkpt lat="43.392738215625286102294921875" lon="-7.0198755897581577301025390625">
        <ele>473.20001220703125</ele>
        <time>2019-07-09T08:40:12.000Z</time>
      </trkpt>
      <trkpt lat="43.392841480672359466552734375" lon="-7.01983518898487091064453125">
        <ele>471.79998779296875</ele>
        <time>2019-07-09T08:40:13.000Z</time>
      </trkpt>
      <trkpt lat="43.3929351903498172760009765625" lon="-7.0198179222643375396728515625">
        <ele>470.600006103515625</ele>
        <time>2019-07-09T08:40:14.000Z</time>
      </trkpt>
      <trkpt lat="43.3930475078523159027099609375" lon="-7.01983577571809291839599609375">
        <ele>469</ele>
        <time>2019-07-09T08:40:15.000Z</time>
      </trkpt>
      <trkpt lat="43.39318153448402881622314453125" lon="-7.01988891698420047760009765625">
        <ele>467.79998779296875</ele>
        <time>2019-07-09T08:40:16.000Z</time>
      </trkpt>
      <trkpt lat="43.393433578312397003173828125" lon="-7.019995115697383880615234375">
        <ele>466</ele>
        <time>2019-07-09T08:40:18.000Z</time>
      </trkpt>
      <trkpt lat="43.3936694450676441192626953125" lon="-7.01999067328870296478271484375">
        <ele>464.79998779296875</ele>
        <time>2019-07-09T08:40:20.000Z</time>
      </trkpt>
      <trkpt lat="43.39390070177614688873291015625" lon="-7.01985287480056285858154296875">
        <ele>464.20001220703125</ele>
        <time>2019-07-09T08:40:22.000Z</time>
      </trkpt>
      <trkpt lat="43.3940657414495944976806640625" lon="-7.01961985789239406585693359375">
        <ele>464</ele>
        <time>2019-07-09T08:40:24.000Z</time>
      </trkpt>
      <trkpt lat="43.39411075226962566375732421875" lon="-7.01947786845266819000244140625">
        <ele>463.20001220703125</ele>
        <time>2019-07-09T08:40:25.000Z</time>
      </trkpt>
      <trkpt lat="43.39413556270301342010498046875" lon="-7.0193277485668659210205078125">
        <ele>462.399993896484375</ele>
        <time>2019-07-09T08:40:26.000Z</time>
      </trkpt>
      <trkpt lat="43.3941358141601085662841796875" lon="-7.01917410828173160552978515625">
        <ele>461.600006103515625</ele>
        <time>2019-07-09T08:40:27.000Z</time>
      </trkpt>
      <trkpt lat="43.39412164874374866485595703125" lon="-7.0190213061869144439697265625">
        <ele>461</ele>
        <time>2019-07-09T08:40:28.000Z</time>
      </trkpt>
      <trkpt lat="43.3941069804131984710693359375" lon="-7.018869929015636444091796875">
        <ele>460.600006103515625</ele>
        <time>2019-07-09T08:40:29.000Z</time>
      </trkpt>
      <trkpt lat="43.39414469897747039794921875" lon="-7.01871679164469242095947265625">
        <ele>460.20001220703125</ele>
        <time>2019-07-09T08:40:30.000Z</time>
      </trkpt>
      <trkpt lat="43.394216783344745635986328125" lon="-7.0184385962784290313720703125">
        <ele>458.600006103515625</ele>
        <time>2019-07-09T08:40:32.000Z</time>
      </trkpt>
      <trkpt lat="43.39429029263556003570556640625" lon="-7.01832242310047149658203125">
        <ele>457.600006103515625</ele>
        <time>2019-07-09T08:40:33.000Z</time>
      </trkpt>
      <trkpt lat="43.39437327347695827484130859375" lon="-7.01822259463369846343994140625">
        <ele>456.399993896484375</ele>
        <time>2019-07-09T08:40:34.000Z</time>
      </trkpt>
      <trkpt lat="43.394568823277950286865234375" lon="-7.01807389967143535614013671875">
        <ele>455</ele>
        <time>2019-07-09T08:40:36.000Z</time>
      </trkpt>
      <trkpt lat="43.3947818912565708160400390625" lon="-7.01794096268713474273681640625">
        <ele>454</ele>
        <time>2019-07-09T08:40:38.000Z</time>
      </trkpt>
      <trkpt lat="43.39500443078577518463134765625" lon="-7.017804421484470367431640625">
        <ele>452.79998779296875</ele>
        <time>2019-07-09T08:40:40.000Z</time>
      </trkpt>
      <trkpt lat="43.39527013711631298065185546875" lon="-7.01769302599132061004638671875">
        <ele>451.20001220703125</ele>
        <time>2019-07-09T08:40:42.000Z</time>
      </trkpt>
      <trkpt lat="43.39556316845118999481201171875" lon="-7.01759822666645050048828125">
        <ele>448.79998779296875</ele>
        <time>2019-07-09T08:40:44.000Z</time>
      </trkpt>
      <trkpt lat="43.39571001939475536346435546875" lon="-7.0175511203706264495849609375">
        <ele>447.600006103515625</ele>
        <time>2019-07-09T08:40:45.000Z</time>
      </trkpt>
      <trkpt lat="43.39585326611995697021484375" lon="-7.01750166714191436767578125">
        <ele>445.20001220703125</ele>
        <time>2019-07-09T08:40:46.000Z</time>
      </trkpt>
      <trkpt lat="43.3959922380745410919189453125" lon="-7.01745414175093173980712890625">
        <ele>443</ele>
        <time>2019-07-09T08:40:47.000Z</time>
      </trkpt>
      <trkpt lat="43.3961270190775394439697265625" lon="-7.017420195043087005615234375">
        <ele>440.600006103515625</ele>
        <time>2019-07-09T08:40:48.000Z</time>
      </trkpt>
      <trkpt lat="43.39626154862344264984130859375" lon="-7.01740586198866367340087890625">
        <ele>439.399993896484375</ele>
        <time>2019-07-09T08:40:49.000Z</time>
      </trkpt>
      <trkpt lat="43.39639817364513874053955078125" lon="-7.01741742901504039764404296875">
        <ele>438.600006103515625</ele>
        <time>2019-07-09T08:40:50.000Z</time>
      </trkpt>
      <trkpt lat="43.3965340442955493927001953125" lon="-7.01745598576962947845458984375">
        <ele>438.20001220703125</ele>
        <time>2019-07-09T08:40:51.000Z</time>
      </trkpt>
      <trkpt lat="43.39666329324245452880859375" lon="-7.01752178370952606201171875">
        <ele>437.600006103515625</ele>
        <time>2019-07-09T08:40:52.000Z</time>
      </trkpt>
      <trkpt lat="43.39689471758902072906494140625" lon="-7.01773761771619319915771484375">
        <ele>436.600006103515625</ele>
        <time>2019-07-09T08:40:54.000Z</time>
      </trkpt>
      <trkpt lat="43.39707811363041400909423828125" lon="-7.01803651638329029083251953125">
        <ele>435.600006103515625</ele>
        <time>2019-07-09T08:40:56.000Z</time>
      </trkpt>
      <trkpt lat="43.3972330950200557708740234375" lon="-7.01836592517793178558349609375">
        <ele>434.20001220703125</ele>
        <time>2019-07-09T08:40:58.000Z</time>
      </trkpt>
      <trkpt lat="43.39730626903474330902099609375" lon="-7.01853029429912567138671875">
        <ele>433</ele>
        <time>2019-07-09T08:40:59.000Z</time>
      </trkpt>
      <trkpt lat="43.39736812748014926910400390625" lon="-7.01869617216289043426513671875">
        <ele>431.600006103515625</ele>
        <time>2019-07-09T08:41:00.000Z</time>
      </trkpt>
      <trkpt lat="43.39741230010986328125" lon="-7.01886498369276523590087890625">
        <ele>430</ele>
        <time>2019-07-09T08:41:01.000Z</time>
      </trkpt>
      <trkpt lat="43.397436439990997314453125" lon="-7.0190417580306529998779296875">
        <ele>429</ele>
        <time>2019-07-09T08:41:02.000Z</time>
      </trkpt>
      <trkpt lat="43.3974433131515979766845703125" lon="-7.0192231424152851104736328125">
        <ele>428.399993896484375</ele>
        <time>2019-07-09T08:41:03.000Z</time>
      </trkpt>
      <trkpt lat="43.39744272641837596893310546875" lon="-7.0197817124426364898681640625">
        <ele>427.20001220703125</ele>
        <time>2019-07-09T08:41:06.000Z</time>
      </trkpt>
      <trkpt lat="43.39749050326645374298095703125" lon="-7.02036702074110507965087890625">
        <ele>426</ele>
        <time>2019-07-09T08:41:09.000Z</time>
      </trkpt>
      <trkpt lat="43.39756728149950504302978515625" lon="-7.0209944061934947967529296875">
        <ele>425</ele>
        <time>2019-07-09T08:41:12.000Z</time>
      </trkpt>
      <trkpt lat="43.39759108610451221466064453125" lon="-7.02119632624089717864990234375">
        <ele>424.20001220703125</ele>
        <time>2019-07-09T08:41:13.000Z</time>
      </trkpt>
      <trkpt lat="43.397636599838733673095703125" lon="-7.0215848274528980255126953125">
        <ele>422.20001220703125</ele>
        <time>2019-07-09T08:41:15.000Z</time>
      </trkpt>
      <trkpt lat="43.3976669423282146453857421875" lon="-7.0217665471136569976806640625">
        <ele>421</ele>
        <time>2019-07-09T08:41:16.000Z</time>
      </trkpt>
      <trkpt lat="43.39769921265542507171630859375" lon="-7.02194273471832275390625">
        <ele>419.79998779296875</ele>
        <time>2019-07-09T08:41:17.000Z</time>
      </trkpt>
      <trkpt lat="43.397761993110179901123046875" lon="-7.0222775079309940338134765625">
        <ele>418.79998779296875</ele>
        <time>2019-07-09T08:41:19.000Z</time>
      </trkpt>
      <trkpt lat="43.39783432893455028533935546875" lon="-7.02280799858272075653076171875">
        <ele>418</ele>
        <time>2019-07-09T08:41:22.000Z</time>
      </trkpt>
      <trkpt lat="43.3978362567722797393798828125" lon="-7.02319574542343616485595703125">
        <ele>417.600006103515625</ele>
        <time>2019-07-09T08:41:24.000Z</time>
      </trkpt>
      <trkpt lat="43.397819995880126953125" lon="-7.02380393631756305694580078125">
        <ele>416.20001220703125</ele>
        <time>2019-07-09T08:41:27.000Z</time>
      </trkpt>
      <trkpt lat="43.39783273637294769287109375" lon="-7.0244412124156951904296875">
        <ele>415</ele>
        <time>2019-07-09T08:41:30.000Z</time>
      </trkpt>
      <trkpt lat="43.39785796590149402618408203125" lon="-7.02485636807978153228759765625">
        <ele>413.600006103515625</ele>
        <time>2019-07-09T08:41:32.000Z</time>
      </trkpt>
      <trkpt lat="43.39790289290249347686767578125" lon="-7.025230787694454193115234375">
        <ele>412.20001220703125</ele>
        <time>2019-07-09T08:41:34.000Z</time>
      </trkpt>
      <trkpt lat="43.3978701196610927581787109375" lon="-7.025578804314136505126953125">
        <ele>411.20001220703125</ele>
        <time>2019-07-09T08:41:36.000Z</time>
      </trkpt>
      <trkpt lat="43.3978349156677722930908203125" lon="-7.0257425867021083831787109375">
        <ele>411</ele>
        <time>2019-07-09T08:41:37.000Z</time>
      </trkpt>
      <trkpt lat="43.39778102003037929534912109375" lon="-7.0258941315114498138427734375">
        <ele>410.79998779296875</ele>
        <time>2019-07-09T08:41:38.000Z</time>
      </trkpt>
      <trkpt lat="43.3975452370941638946533203125" lon="-7.02640148811042308807373046875">
        <ele>410.79998779296875</ele>
        <time>2019-07-09T08:41:42.000Z</time>
      </trkpt>
      <trkpt lat="43.3975063450634479522705078125" lon="-7.02668295241892337799072265625">
        <ele>410.79998779296875</ele>
        <time>2019-07-09T08:41:44.000Z</time>
      </trkpt>
      <trkpt lat="43.39755269698798656463623046875" lon="-7.02697933651506900787353515625">
        <ele>411</ele>
        <time>2019-07-09T08:41:46.000Z</time>
      </trkpt>
      <trkpt lat="43.3976605720818042755126953125" lon="-7.02721620909869670867919921875">
        <ele>411</ele>
        <time>2019-07-09T08:41:48.000Z</time>
      </trkpt>
      <trkpt lat="43.3978194929659366607666015625" lon="-7.02733389101922512054443359375">
        <ele>410.79998779296875</ele>
        <time>2019-07-09T08:41:50.000Z</time>
      </trkpt>
      <trkpt lat="43.3981121890246868133544921875" lon="-7.0273428596556186676025390625">
        <ele>410.600006103515625</ele>
        <time>2019-07-09T08:41:52.000Z</time>
      </trkpt>
      <trkpt lat="43.39837093837559223175048828125" lon="-7.0272298716008663177490234375">
        <ele>410</ele>
        <time>2019-07-09T08:41:54.000Z</time>
      </trkpt>
      <trkpt lat="43.398476131260395050048828125" lon="-7.02715217135846614837646484375">
        <ele>409.600006103515625</ele>
        <time>2019-07-09T08:41:55.000Z</time>
      </trkpt>
      <trkpt lat="43.39868240989744663238525390625" lon="-7.0270183123648166656494140625">
        <ele>408.600006103515625</ele>
        <time>2019-07-09T08:41:57.000Z</time>
      </trkpt>
      <trkpt lat="43.39891408570110797882080078125" lon="-7.02689333818852901458740234375">
        <ele>407</ele>
        <time>2019-07-09T08:41:59.000Z</time>
      </trkpt>
      <trkpt lat="43.39905020780861377716064453125" lon="-7.02682762406766414642333984375">
        <ele>405.79998779296875</ele>
        <time>2019-07-09T08:42:00.000Z</time>
      </trkpt>
      <trkpt lat="43.39918029494583606719970703125" lon="-7.02677448280155658721923828125">
        <ele>404.79998779296875</ele>
        <time>2019-07-09T08:42:01.000Z</time>
      </trkpt>
      <trkpt lat="43.399325050413608551025390625" lon="-7.02673517167568206787109375">
        <ele>403.79998779296875</ele>
        <time>2019-07-09T08:42:02.000Z</time>
      </trkpt>
      <trkpt lat="43.3994764275848865509033203125" lon="-7.0267185755074024200439453125">
        <ele>403.20001220703125</ele>
        <time>2019-07-09T08:42:03.000Z</time>
      </trkpt>
      <trkpt lat="43.39962386526167392730712890625" lon="-7.0267309807240962982177734375">
        <ele>402.79998779296875</ele>
        <time>2019-07-09T08:42:04.000Z</time>
      </trkpt>
      <trkpt lat="43.39976258575916290283203125" lon="-7.0267745666205883026123046875">
        <ele>402</ele>
        <time>2019-07-09T08:42:05.000Z</time>
      </trkpt>
      <trkpt lat="43.39990985579788684844970703125" lon="-7.02684673480689525604248046875">
        <ele>401.399993896484375</ele>
        <time>2019-07-09T08:42:06.000Z</time>
      </trkpt>
      <trkpt lat="43.4000524319708347320556640625" lon="-7.0269452221691608428955078125">
        <ele>400.399993896484375</ele>
        <time>2019-07-09T08:42:07.000Z</time>
      </trkpt>
      <trkpt lat="43.40034269727766513824462890625" lon="-7.027210257947444915771484375">
        <ele>398.79998779296875</ele>
        <time>2019-07-09T08:42:09.000Z</time>
      </trkpt>
      <trkpt lat="43.4006725251674652099609375" lon="-7.02750471420586109161376953125">
        <ele>397.399993896484375</ele>
        <time>2019-07-09T08:42:11.000Z</time>
      </trkpt>
      <trkpt lat="43.40082063339650630950927734375" lon="-7.0276412554085254669189453125">
        <ele>395.600006103515625</ele>
        <time>2019-07-09T08:42:12.000Z</time>
      </trkpt>
      <trkpt lat="43.40106907300651073455810546875" lon="-7.02777989208698272705078125">
        <ele>393.399993896484375</ele>
        <time>2019-07-09T08:42:13.000Z</time>
      </trkpt>
      <trkpt lat="43.4012181870639324188232421875" lon="-7.027912996709346771240234375">
        <ele>391.600006103515625</ele>
        <time>2019-07-09T08:42:14.000Z</time>
      </trkpt>
      <trkpt lat="43.40148783288896083831787109375" lon="-7.028205357491970062255859375">
        <ele>390.20001220703125</ele>
        <time>2019-07-09T08:42:16.000Z</time>
      </trkpt>
      <trkpt lat="43.40184054337441921234130859375" lon="-7.02873953618109226226806640625">
        <ele>390.399993896484375</ele>
        <time>2019-07-09T08:42:19.000Z</time>
      </trkpt>
      <trkpt lat="43.402164168655872344970703125" lon="-7.0292691886425018310546875">
        <ele>388.600006103515625</ele>
        <time>2019-07-09T08:42:22.000Z</time>
      </trkpt>
      <trkpt lat="43.40226952917873859405517578125" lon="-7.02944143675267696380615234375">
        <ele>387.20001220703125</ele>
        <time>2019-07-09T08:42:23.000Z</time>
      </trkpt>
      <trkpt lat="43.40235971845686435699462890625" lon="-7.02961360104382038116455078125">
        <ele>386.20001220703125</ele>
        <time>2019-07-09T08:42:24.000Z</time>
      </trkpt>
      <trkpt lat="43.4024281986057758331298828125" lon="-7.0297880284488201141357421875">
        <ele>385.79998779296875</ele>
        <time>2019-07-09T08:42:25.000Z</time>
      </trkpt>
      <trkpt lat="43.4025500714778900146484375" lon="-7.03007929958403110504150390625">
        <ele>385.399993896484375</ele>
        <time>2019-07-09T08:42:27.000Z</time>
      </trkpt>
      <trkpt lat="43.40273774228990077972412109375" lon="-7.03025951050221920013427734375">
        <ele>386</ele>
        <time>2019-07-09T08:42:29.000Z</time>
      </trkpt>
      <trkpt lat="43.4029700048267841339111328125" lon="-7.03032338060438632965087890625">
        <ele>387.20001220703125</ele>
        <time>2019-07-09T08:42:31.000Z</time>
      </trkpt>
      <trkpt lat="43.4030880220234394073486328125" lon="-7.03030921518802642822265625">
        <ele>387.600006103515625</ele>
        <time>2019-07-09T08:42:32.000Z</time>
      </trkpt>
      <trkpt lat="43.40321416966617107391357421875" lon="-7.03026437200605869293212890625">
        <ele>387.600006103515625</ele>
        <time>2019-07-09T08:42:33.000Z</time>
      </trkpt>
      <trkpt lat="43.4034303389489650726318359375" lon="-7.03007929958403110504150390625">
        <ele>387.399993896484375</ele>
        <time>2019-07-09T08:42:35.000Z</time>
      </trkpt>
      <trkpt lat="43.4035828895866870880126953125" lon="-7.029782831668853759765625">
        <ele>386.79998779296875</ele>
        <time>2019-07-09T08:42:37.000Z</time>
      </trkpt>
      <trkpt lat="43.40364214964210987091064453125" lon="-7.0296096615493297576904296875">
        <ele>386.20001220703125</ele>
        <time>2019-07-09T08:42:38.000Z</time>
      </trkpt>
      <trkpt lat="43.40381674468517303466796875" lon="-7.0292857848107814788818359375">
        <ele>385.399993896484375</ele>
        <time>2019-07-09T08:42:40.000Z</time>
      </trkpt>
      <trkpt lat="43.40390785597264766693115234375" lon="-7.02914454974234104156494140625">
        <ele>385.20001220703125</ele>
        <time>2019-07-09T08:42:41.000Z</time>
      </trkpt>
      <trkpt lat="43.403999470174312591552734375" lon="-7.02901815064251422882080078125">
        <ele>384.399993896484375</ele>
        <time>2019-07-09T08:42:42.000Z</time>
      </trkpt>
      <trkpt lat="43.40410164557397365570068359375" lon="-7.0289079286158084869384765625">
        <ele>383.399993896484375</ele>
        <time>2019-07-09T08:42:43.000Z</time>
      </trkpt>
      <trkpt lat="43.4042192436754703521728515625" lon="-7.028810195624828338623046875">
        <ele>382.20001220703125</ele>
        <time>2019-07-09T08:42:44.000Z</time>
      </trkpt>
      <trkpt lat="43.40434857644140720367431640625" lon="-7.02871707268059253692626953125">
        <ele>381</ele>
        <time>2019-07-09T08:42:45.000Z</time>
      </trkpt>
      <trkpt lat="43.40446575544774532318115234375" lon="-7.02862001024186611175537109375">
        <ele>379.79998779296875</ele>
        <time>2019-07-09T08:42:46.000Z</time>
      </trkpt>
      <trkpt lat="43.4045773185789585113525390625" lon="-7.028529234230518341064453125">
        <ele>378.79998779296875</ele>
        <time>2019-07-09T08:42:47.000Z</time>
      </trkpt>
      <trkpt lat="43.40477990917861461639404296875" lon="-7.02836805023252964019775390625">
        <ele>376.79998779296875</ele>
        <time>2019-07-09T08:42:49.000Z</time>
      </trkpt>
      <trkpt lat="43.4050190448760986328125" lon="-7.0282551459968090057373046875">
        <ele>375.79998779296875</ele>
        <time>2019-07-09T08:42:51.000Z</time>
      </trkpt>
      <trkpt lat="43.40531685389578342437744140625" lon="-7.02824953012168407440185546875">
        <ele>375.600006103515625</ele>
        <time>2019-07-09T08:42:53.000Z</time>
      </trkpt>
      <trkpt lat="43.40575070120394229888916015625" lon="-7.02833569608628749847412109375">
        <ele>374.600006103515625</ele>
        <time>2019-07-09T08:42:55.000Z</time>
      </trkpt>
      <trkpt lat="43.40613727457821369171142578125" lon="-7.0284931920468807220458984375">
        <ele>372.399993896484375</ele>
        <time>2019-07-09T08:42:57.000Z</time>
      </trkpt>
      <trkpt lat="43.40630692429840564727783203125" lon="-7.0285880751907825469970703125">
        <ele>371</ele>
        <time>2019-07-09T08:42:58.000Z</time>
      </trkpt>
      <trkpt lat="43.40659593231976032257080078125" lon="-7.02880927361547946929931640625">
        <ele>369.20001220703125</ele>
        <time>2019-07-09T08:43:00.000Z</time>
      </trkpt>
      <trkpt lat="43.40683557093143463134765625" lon="-7.029078416526317596435546875">
        <ele>367.79998779296875</ele>
        <time>2019-07-09T08:43:02.000Z</time>
      </trkpt>
      <trkpt lat="43.40706221759319305419921875" lon="-7.0293578691780567169189453125">
        <ele>366.79998779296875</ele>
        <time>2019-07-09T08:43:04.000Z</time>
      </trkpt>
      <trkpt lat="43.40721099637448787689208984375" lon="-7.0294852741062641143798828125">
        <ele>366</ele>
        <time>2019-07-09T08:43:05.000Z</time>
      </trkpt>
      <trkpt lat="43.40737528167665004730224609375" lon="-7.0295892097055912017822265625">
        <ele>365.20001220703125</ele>
        <time>2019-07-09T08:43:06.000Z</time>
      </trkpt>
      <trkpt lat="43.40752749703824520111083984375" lon="-7.0296686701476573944091796875">
        <ele>364.20001220703125</ele>
        <time>2019-07-09T08:43:07.000Z</time>
      </trkpt>
      <trkpt lat="43.4076866693794727325439453125" lon="-7.02972524799406528472900390625">
        <ele>363.600006103515625</ele>
        <time>2019-07-09T08:43:08.000Z</time>
      </trkpt>
      <trkpt lat="43.40785338543355464935302734375" lon="-7.029756009578704833984375">
        <ele>363</ele>
        <time>2019-07-09T08:43:09.000Z</time>
      </trkpt>
      <trkpt lat="43.4080138988792896270751953125" lon="-7.02976715750992298126220703125">
        <ele>362.399993896484375</ele>
        <time>2019-07-09T08:43:10.000Z</time>
      </trkpt>
      <trkpt lat="43.4085476584732532501220703125" lon="-7.02977771870791912078857421875">
        <ele>361.600006103515625</ele>
        <time>2019-07-09T08:43:13.000Z</time>
      </trkpt>
      <trkpt lat="43.40873884968459606170654296875" lon="-7.0297809876501560211181640625">
        <ele>360.79998779296875</ele>
        <time>2019-07-09T08:43:14.000Z</time>
      </trkpt>
      <trkpt lat="43.40894320048391819000244140625" lon="-7.02976740896701812744140625">
        <ele>359.600006103515625</ele>
        <time>2019-07-09T08:43:15.000Z</time>
      </trkpt>
      <trkpt lat="43.409155346453189849853515625" lon="-7.0297367312014102935791015625">
        <ele>358.399993896484375</ele>
        <time>2019-07-09T08:43:16.000Z</time>
      </trkpt>
      <trkpt lat="43.4093590267002582550048828125" lon="-7.02969976700842380523681640625">
        <ele>356.20001220703125</ele>
        <time>2019-07-09T08:43:17.000Z</time>
      </trkpt>
      <trkpt lat="43.40954770334064960479736328125" lon="-7.0296676643192768096923828125">
        <ele>353.600006103515625</ele>
        <time>2019-07-09T08:43:18.000Z</time>
      </trkpt>
      <trkpt lat="43.40973244048655033111572265625" lon="-7.0296395011246204376220703125">
        <ele>351</ele>
        <time>2019-07-09T08:43:19.000Z</time>
      </trkpt>
      <trkpt lat="43.40989907272160053253173828125" lon="-7.029614187777042388916015625">
        <ele>349.600006103515625</ele>
        <time>2019-07-09T08:43:20.000Z</time>
      </trkpt>
      <trkpt lat="43.41018238104879856109619140625" lon="-7.02956833876669406890869140625">
        <ele>348.399993896484375</ele>
        <time>2019-07-09T08:43:22.000Z</time>
      </trkpt>
      <trkpt lat="43.4105687029659748077392578125" lon="-7.02953950501978397369384765625">
        <ele>349.600006103515625</ele>
        <time>2019-07-09T08:43:25.000Z</time>
      </trkpt>
      <trkpt lat="43.41069803573191165924072265625" lon="-7.0295566879212856292724609375">
        <ele>350</ele>
        <time>2019-07-09T08:43:26.000Z</time>
      </trkpt>
      <trkpt lat="43.41095301322638988494873046875" lon="-7.0296659879386425018310546875">
        <ele>350.20001220703125</ele>
        <time>2019-07-09T08:43:28.000Z</time>
      </trkpt>
      <trkpt lat="43.41116272844374179840087890625" lon="-7.02988550998270511627197265625">
        <ele>349.79998779296875</ele>
        <time>2019-07-09T08:43:30.000Z</time>
      </trkpt>
      <trkpt lat="43.41128611005842685699462890625" lon="-7.03019513748586177825927734375">
        <ele>348.79998779296875</ele>
        <time>2019-07-09T08:43:32.000Z</time>
      </trkpt>
      <trkpt lat="43.4113156981766223907470703125" lon="-7.0303662121295928955078125">
        <ele>348.600006103515625</ele>
        <time>2019-07-09T08:43:33.000Z</time>
      </trkpt>
      <trkpt lat="43.41132030822336673736572265625" lon="-7.03054801560938358306884765625">
        <ele>348</ele>
        <time>2019-07-09T08:43:34.000Z</time>
      </trkpt>
      <trkpt lat="43.41129281558096408843994140625" lon="-7.03093693591654300689697265625">
        <ele>347.20001220703125</ele>
        <time>2019-07-09T08:43:36.000Z</time>
      </trkpt>
      <trkpt lat="43.4112238325178623199462890625" lon="-7.031520903110504150390625">
        <ele>345.79998779296875</ele>
        <time>2019-07-09T08:43:39.000Z</time>
      </trkpt>
      <trkpt lat="43.41114847920835018157958984375" lon="-7.0318620465695858001708984375">
        <ele>344.600006103515625</ele>
        <time>2019-07-09T08:43:41.000Z</time>
      </trkpt>
      <trkpt lat="43.41107924468815326690673828125" lon="-7.03216186724603176116943359375">
        <ele>343.399993896484375</ele>
        <time>2019-07-09T08:43:43.000Z</time>
      </trkpt>
      <trkpt lat="43.41106005012989044189453125" lon="-7.0323089696466922760009765625">
        <ele>343</ele>
        <time>2019-07-09T08:43:44.000Z</time>
      </trkpt>
      <trkpt lat="43.41109089553356170654296875" lon="-7.0326043479144573211669921875">
        <ele>342.600006103515625</ele>
        <time>2019-07-09T08:43:46.000Z</time>
      </trkpt>
      <trkpt lat="43.41113246977329254150390625" lon="-7.032733596861362457275390625">
        <ele>342.399993896484375</ele>
        <time>2019-07-09T08:43:47.000Z</time>
      </trkpt>
      <trkpt lat="43.411187119781970977783203125" lon="-7.03283795155584812164306640625">
        <ele>342.20001220703125</ele>
        <time>2019-07-09T08:43:48.000Z</time>
      </trkpt>
      <trkpt lat="43.41135643422603607177734375" lon="-7.03297172673046588897705078125">
        <ele>341.399993896484375</ele>
        <time>2019-07-09T08:43:50.000Z</time>
      </trkpt>
      <trkpt lat="43.41156623326241970062255859375" lon="-7.033003158867359161376953125">
        <ele>340.600006103515625</ele>
        <time>2019-07-09T08:43:52.000Z</time>
      </trkpt>
      <trkpt lat="43.41168098151683807373046875" lon="-7.03296594321727752685546875">
        <ele>340.20001220703125</ele>
        <time>2019-07-09T08:43:53.000Z</time>
      </trkpt>
      <trkpt lat="43.4118005074560642242431640625" lon="-7.03290265984833240509033203125">
        <ele>340</ele>
        <time>2019-07-09T08:43:54.000Z</time>
      </trkpt>
      <trkpt lat="43.41214022599160671234130859375" lon="-7.03271842561662197113037109375">
        <ele>339</ele>
        <time>2019-07-09T08:43:57.000Z</time>
      </trkpt>
      <trkpt lat="43.4123798646032810211181640625" lon="-7.03265757299959659576416015625">
        <ele>337.79998779296875</ele>
        <time>2019-07-09T08:43:59.000Z</time>
      </trkpt>
      <trkpt lat="43.41249176301062107086181640625" lon="-7.03261583112180233001708984375">
        <ele>337</ele>
        <time>2019-07-09T08:44:00.000Z</time>
      </trkpt>
      <trkpt lat="43.41261296533048152923583984375" lon="-7.032580710947513580322265625">
        <ele>335.600006103515625</ele>
        <time>2019-07-09T08:44:01.000Z</time>
      </trkpt>
      <trkpt lat="43.41272930614650249481201171875" lon="-7.03255355358123779296875">
        <ele>334.600006103515625</ele>
        <time>2019-07-09T08:44:02.000Z</time>
      </trkpt>
      <trkpt lat="43.41284330002963542938232421875" lon="-7.03255095519125461578369140625">
        <ele>333.399993896484375</ele>
        <time>2019-07-09T08:44:03.000Z</time>
      </trkpt>
      <trkpt lat="43.41296500526368618011474609375" lon="-7.03258465044200420379638671875">
        <ele>332.399993896484375</ele>
        <time>2019-07-09T08:44:04.000Z</time>
      </trkpt>
      <trkpt lat="43.413133732974529266357421875" lon="-7.0326623506844043731689453125">
        <ele>331.79998779296875</ele>
        <time>2019-07-09T08:44:05.000Z</time>
      </trkpt>
      <trkpt lat="43.41351888142526149749755859375" lon="-7.03284633345901966094970703125">
        <ele>330.79998779296875</ele>
        <time>2019-07-09T08:44:07.000Z</time>
      </trkpt>
      <trkpt lat="43.4138215519487857818603515625" lon="-7.03290064819157123565673828125">
        <ele>330.399993896484375</ele>
        <time>2019-07-09T08:44:09.000Z</time>
      </trkpt>
      <trkpt lat="43.41407929547131061553955078125" lon="-7.03283325769007205963134765625">
        <ele>330.20001220703125</ele>
        <time>2019-07-09T08:44:11.000Z</time>
      </trkpt>
      <trkpt lat="43.4143221192061901092529296875" lon="-7.03269596211612224578857421875">
        <ele>329.399993896484375</ele>
        <time>2019-07-09T08:44:13.000Z</time>
      </trkpt>
      <trkpt lat="43.41445145197212696075439453125" lon="-7.0326321758329868316650390625">
        <ele>328.79998779296875</ele>
        <time>2019-07-09T08:44:14.000Z</time>
      </trkpt>
      <trkpt lat="43.4145846404135227203369140625" lon="-7.03258750028908252716064453125">
        <ele>328</ele>
        <time>2019-07-09T08:44:15.000Z</time>
      </trkpt>
      <trkpt lat="43.4147418849170207977294921875" lon="-7.03257274813950061798095703125">
        <ele>327.20001220703125</ele>
        <time>2019-07-09T08:44:16.000Z</time>
      </trkpt>
      <trkpt lat="43.4148957766592502593994140625" lon="-7.03258062712848186492919921875">
        <ele>326</ele>
        <time>2019-07-09T08:44:17.000Z</time>
      </trkpt>
      <trkpt lat="43.4150681085884571075439453125" lon="-7.0326056890189647674560546875">
        <ele>324.399993896484375</ele>
        <time>2019-07-09T08:44:18.000Z</time>
      </trkpt>
      <trkpt lat="43.4152253530919551849365234375" lon="-7.03262471593916416168212890625">
        <ele>323</ele>
        <time>2019-07-09T08:44:19.000Z</time>
      </trkpt>
      <trkpt lat="43.415507487952709197998046875" lon="-7.03256637789309024810791015625">
        <ele>321.600006103515625</ele>
        <time>2019-07-09T08:44:21.000Z</time>
      </trkpt>
      <trkpt lat="43.41573111712932586669921875" lon="-7.03235683031380176544189453125">
        <ele>321.20001220703125</ele>
        <time>2019-07-09T08:44:23.000Z</time>
      </trkpt>
      <trkpt lat="43.41589464806020259857177734375" lon="-7.0320581831037998199462890625">
        <ele>321</ele>
        <time>2019-07-09T08:44:25.000Z</time>
      </trkpt>
      <trkpt lat="43.4160440973937511444091796875" lon="-7.03173120506107807159423828125">
        <ele>320.20001220703125</ele>
        <time>2019-07-09T08:44:27.000Z</time>
      </trkpt>
      <trkpt lat="43.416244424879550933837890625" lon="-7.03144236467778682708740234375">
        <ele>319.79998779296875</ele>
        <time>2019-07-09T08:44:29.000Z</time>
      </trkpt>
      <trkpt lat="43.41674943454563617706298828125" lon="-7.0309804379940032958984375">
        <ele>318.79998779296875</ele>
        <time>2019-07-09T08:44:33.000Z</time>
      </trkpt>
      <trkpt lat="43.41688890941441059112548828125" lon="-7.0308652706444263458251953125">
        <ele>317.399993896484375</ele>
        <time>2019-07-09T08:44:34.000Z</time>
      </trkpt>
      <trkpt lat="43.417032323777675628662109375" lon="-7.0307497680187225341796875">
        <ele>314.399993896484375</ele>
        <time>2019-07-09T08:44:35.000Z</time>
      </trkpt>
      <trkpt lat="43.4171759895980358123779296875" lon="-7.03063921071588993072509765625">
        <ele>310.600006103515625</ele>
        <time>2019-07-09T08:44:36.000Z</time>
      </trkpt>
      <trkpt lat="43.4173204936087131500244140625" lon="-7.0305346883833408355712890625">
        <ele>307.399993896484375</ele>
        <time>2019-07-09T08:44:37.000Z</time>
      </trkpt>
      <trkpt lat="43.41747011058032512664794921875" lon="-7.030437290668487548828125">
        <ele>304.600006103515625</ele>
        <time>2019-07-09T08:44:38.000Z</time>
      </trkpt>
      <trkpt lat="43.41762433759868144989013671875" lon="-7.030343748629093170166015625">
        <ele>302.79998779296875</ele>
        <time>2019-07-09T08:44:39.000Z</time>
      </trkpt>
      <trkpt lat="43.417779318988323211669921875" lon="-7.03025314025580883026123046875">
        <ele>301.600006103515625</ele>
        <time>2019-07-09T08:44:40.000Z</time>
      </trkpt>
      <trkpt lat="43.41808500699698925018310546875" lon="-7.03004979528486728668212890625">
        <ele>300.20001220703125</ele>
        <time>2019-07-09T08:44:42.000Z</time>
      </trkpt>
      <trkpt lat="43.41838340274989604949951171875" lon="-7.02981661073863506317138671875">
        <ele>298.79998779296875</ele>
        <time>2019-07-09T08:44:44.000Z</time>
      </trkpt>
      <trkpt lat="43.418529331684112548828125" lon="-7.029697336256504058837890625">
        <ele>297.79998779296875</ele>
        <time>2019-07-09T08:44:45.000Z</time>
      </trkpt>
      <trkpt lat="43.4189703874289989471435546875" lon="-7.0293310470879077911376953125">
        <ele>296.20001220703125</ele>
        <time>2019-07-09T08:44:48.000Z</time>
      </trkpt>
      <trkpt lat="43.41911137104034423828125" lon="-7.0292046479880809783935546875">
        <ele>294.399993896484375</ele>
        <time>2019-07-09T08:44:49.000Z</time>
      </trkpt>
      <trkpt lat="43.419255204498767852783203125" lon="-7.029077745974063873291015625">
        <ele>293.20001220703125</ele>
        <time>2019-07-09T08:44:50.000Z</time>
      </trkpt>
      <trkpt lat="43.419385291635990142822265625" lon="-7.02894154004752635955810546875">
        <ele>292.600006103515625</ele>
        <time>2019-07-09T08:44:51.000Z</time>
      </trkpt>
      <trkpt lat="43.41950364410877227783203125" lon="-7.02879351563751697540283203125">
        <ele>292</ele>
        <time>2019-07-09T08:44:52.000Z</time>
      </trkpt>
      <trkpt lat="43.41960766352713108062744140625" lon="-7.02863794751465320587158203125">
        <ele>291.399993896484375</ele>
        <time>2019-07-09T08:44:53.000Z</time>
      </trkpt>
      <trkpt lat="43.41968880034983158111572265625" lon="-7.02846595086157321929931640625">
        <ele>290.79998779296875</ele>
        <time>2019-07-09T08:44:54.000Z</time>
      </trkpt>
      <trkpt lat="43.419845961034297943115234375" lon="-7.02816185541450977325439453125">
        <ele>290</ele>
        <time>2019-07-09T08:44:56.000Z</time>
      </trkpt>
      <trkpt lat="43.42008979059755802154541015625" lon="-7.0280013419687747955322265625">
        <ele>289.79998779296875</ele>
        <time>2019-07-09T08:44:58.000Z</time>
      </trkpt>
      <trkpt lat="43.42023597098886966705322265625" lon="-7.02796228229999542236328125">
        <ele>289.79998779296875</ele>
        <time>2019-07-09T08:44:59.000Z</time>
      </trkpt>
      <trkpt lat="43.42057225294411182403564453125" lon="-7.02788273803889751434326171875">
        <ele>289.399993896484375</ele>
        <time>2019-07-09T08:45:01.000Z</time>
      </trkpt>
      <trkpt lat="43.42091557569801807403564453125" lon="-7.02767201699316501617431640625">
        <ele>288</ele>
        <time>2019-07-09T08:45:03.000Z</time>
      </trkpt>
      <trkpt lat="43.42108606360852718353271484375" lon="-7.0275490544736385345458984375">
        <ele>286.20001220703125</ele>
        <time>2019-07-09T08:45:04.000Z</time>
      </trkpt>
      <trkpt lat="43.421256802976131439208984375" lon="-7.02742793597280979156494140625">
        <ele>284.20001220703125</ele>
        <time>2019-07-09T08:45:05.000Z</time>
      </trkpt>
      <trkpt lat="43.421430476009845733642578125" lon="-7.027320563793182373046875">
        <ele>282.399993896484375</ele>
        <time>2019-07-09T08:45:06.000Z</time>
      </trkpt>
      <trkpt lat="43.4216053225100040435791015625" lon="-7.02723431400954723358154296875">
        <ele>281.600006103515625</ele>
        <time>2019-07-09T08:45:07.000Z</time>
      </trkpt>
      <trkpt lat="43.42177773825824260711669921875" lon="-7.0271695218980312347412109375">
        <ele>281</ele>
        <time>2019-07-09T08:45:08.000Z</time>
      </trkpt>
      <trkpt lat="43.42235676012933254241943359375" lon="-7.027074135839939117431640625">
        <ele>279.79998779296875</ele>
        <time>2019-07-09T08:45:11.000Z</time>
      </trkpt>
      <trkpt lat="43.42256848700344562530517578125" lon="-7.0270407758653163909912109375">
        <ele>277.600006103515625</ele>
        <time>2019-07-09T08:45:12.000Z</time>
      </trkpt>
      <trkpt lat="43.4227901883423328399658203125" lon="-7.02699962072074413299560546875">
        <ele>275.600006103515625</ele>
        <time>2019-07-09T08:45:13.000Z</time>
      </trkpt>
      <trkpt lat="43.42301356606185436248779296875" lon="-7.026958130300045013427734375">
        <ele>272.79998779296875</ele>
        <time>2019-07-09T08:45:14.000Z</time>
      </trkpt>
      <trkpt lat="43.4232411347329616546630859375" lon="-7.0269115269184112548828125">
        <ele>270.399993896484375</ele>
        <time>2019-07-09T08:45:15.000Z</time>
      </trkpt>
      <trkpt lat="43.42346853576600551605224609375" lon="-7.02685813419520854949951171875">
        <ele>267.79998779296875</ele>
        <time>2019-07-09T08:45:16.000Z</time>
      </trkpt>
      <trkpt lat="43.4236840344965457916259765625" lon="-7.02681220136582851409912109375">
        <ele>264.79998779296875</ele>
        <time>2019-07-09T08:45:17.000Z</time>
      </trkpt>
      <trkpt lat="43.4238875471055507659912109375" lon="-7.0267641730606555938720703125">
        <ele>262</ele>
        <time>2019-07-09T08:45:18.000Z</time>
      </trkpt>
      <trkpt lat="43.4240855276584625244140625" lon="-7.02670994214713573455810546875">
        <ele>260.20001220703125</ele>
        <time>2019-07-09T08:45:19.000Z</time>
      </trkpt>
      <trkpt lat="43.424283005297183990478515625" lon="-7.02665294520556926727294921875">
        <ele>259</ele>
        <time>2019-07-09T08:45:20.000Z</time>
      </trkpt>
      <trkpt lat="43.4246891923248767852783203125" lon="-7.02653526328504085540771484375">
        <ele>258</ele>
        <time>2019-07-09T08:45:22.000Z</time>
      </trkpt>
      <trkpt lat="43.4252643585205078125" lon="-7.0262951217591762542724609375">
        <ele>256.600006103515625</ele>
        <time>2019-07-09T08:45:25.000Z</time>
      </trkpt>
      <trkpt lat="43.425642549991607666015625" lon="-7.0260567404329776763916015625">
        <ele>254.600006103515625</ele>
        <time>2019-07-09T08:45:27.000Z</time>
      </trkpt>
      <trkpt lat="43.4258334897458553314208984375" lon="-7.0259115658700466156005859375">
        <ele>253.1999969482421875</ele>
        <time>2019-07-09T08:45:28.000Z</time>
      </trkpt>
      <trkpt lat="43.4260202385485172271728515625" lon="-7.02575641684234142303466796875">
        <ele>251.1999969482421875</ele>
        <time>2019-07-09T08:45:29.000Z</time>
      </trkpt>
      <trkpt lat="43.42620740644633769989013671875" lon="-7.02559866942465305328369140625">
        <ele>249.1999969482421875</ele>
        <time>2019-07-09T08:45:30.000Z</time>
      </trkpt>
      <trkpt lat="43.42638527043163776397705078125" lon="-7.0254317857325077056884765625">
        <ele>247.600006103515625</ele>
        <time>2019-07-09T08:45:31.000Z</time>
      </trkpt>
      <trkpt lat="43.42655609361827373504638671875" lon="-7.02525149099528789520263671875">
        <ele>246.1999969482421875</ele>
        <time>2019-07-09T08:45:32.000Z</time>
      </trkpt>
      <trkpt lat="43.42672088183462619781494140625" lon="-7.02505744993686676025390625">
        <ele>245.1999969482421875</ele>
        <time>2019-07-09T08:45:33.000Z</time>
      </trkpt>
      <trkpt lat="43.4270616061985492706298828125" lon="-7.024635337293148040771484375">
        <ele>243.8000030517578125</ele>
        <time>2019-07-09T08:45:35.000Z</time>
      </trkpt>
      <trkpt lat="43.42744558118283748626708984375" lon="-7.024185396730899810791015625">
        <ele>242.600006103515625</ele>
        <time>2019-07-09T08:45:37.000Z</time>
      </trkpt>
      <trkpt lat="43.4278337471187114715576171875" lon="-7.02378298155963420867919921875">
        <ele>242.1999969482421875</ele>
        <time>2019-07-09T08:45:39.000Z</time>
      </trkpt>
      <trkpt lat="43.4280176460742950439453125" lon="-7.02361484058201313018798828125">
        <ele>243.600006103515625</ele>
        <time>2019-07-09T08:45:40.000Z</time>
      </trkpt>
      <trkpt lat="43.428335823118686676025390625" lon="-7.02327403239905834197998046875">
        <ele>243.399993896484375</ele>
        <time>2019-07-09T08:45:42.000Z</time>
      </trkpt>
      <trkpt lat="43.428465910255908966064453125" lon="-7.0230714417994022369384765625">
        <ele>242</ele>
        <time>2019-07-09T08:45:43.000Z</time>
      </trkpt>
      <trkpt lat="43.42872549779713153839111328125" lon="-7.02261756174266338348388671875">
        <ele>237.8000030517578125</ele>
        <time>2019-07-09T08:45:45.000Z</time>
      </trkpt>
      <trkpt lat="43.4288737736642360687255859375" lon="-7.02238722704350948333740234375">
        <ele>235.600006103515625</ele>
        <time>2019-07-09T08:45:46.000Z</time>
      </trkpt>
      <trkpt lat="43.42904350720345973968505859375" lon="-7.02216804027557373046875">
        <ele>233.8000030517578125</ele>
        <time>2019-07-09T08:45:47.000Z</time>
      </trkpt>
      <trkpt lat="43.4292298369109630584716796875" lon="-7.0219646953046321868896484375">
        <ele>231.8000030517578125</ele>
        <time>2019-07-09T08:45:48.000Z</time>
      </trkpt>
      <trkpt lat="43.42942957766354084014892578125" lon="-7.0217792876064777374267578125">
        <ele>229.399993896484375</ele>
        <time>2019-07-09T08:45:49.000Z</time>
      </trkpt>
      <trkpt lat="43.42964239418506622314453125" lon="-7.02161014080047607421875">
        <ele>226.399993896484375</ele>
        <time>2019-07-09T08:45:50.000Z</time>
      </trkpt>
      <trkpt lat="43.4298648498952388763427734375" lon="-7.02145549468696117401123046875">
        <ele>224.1999969482421875</ele>
        <time>2019-07-09T08:45:51.000Z</time>
      </trkpt>
      <trkpt lat="43.4300941787660121917724609375" lon="-7.02131836675107479095458984375">
        <ele>222.1999969482421875</ele>
        <time>2019-07-09T08:45:52.000Z</time>
      </trkpt>
      <trkpt lat="43.430322669446468353271484375" lon="-7.0211995951831340789794921875">
        <ele>220.600006103515625</ele>
        <time>2019-07-09T08:45:53.000Z</time>
      </trkpt>
      <trkpt lat="43.43054772354662418365478515625" lon="-7.021104879677295684814453125">
        <ele>219</ele>
        <time>2019-07-09T08:45:54.000Z</time>
      </trkpt>
      <trkpt lat="43.43076380901038646697998046875" lon="-7.02102231793105602264404296875">
        <ele>217.399993896484375</ele>
        <time>2019-07-09T08:45:55.000Z</time>
      </trkpt>
      <trkpt lat="43.43096346594393253326416015625" lon="-7.0209451206028461456298828125">
        <ele>216.1999969482421875</ele>
        <time>2019-07-09T08:45:56.000Z</time>
      </trkpt>
      <trkpt lat="43.43131869100034236907958984375" lon="-7.02082936652004718780517578125">
        <ele>214.8000030517578125</ele>
        <time>2019-07-09T08:45:58.000Z</time>
      </trkpt>
      <trkpt lat="43.43148414976894855499267578125" lon="-7.0208063162863254547119140625">
        <ele>214.600006103515625</ele>
        <time>2019-07-09T08:45:59.000Z</time>
      </trkpt>
      <trkpt lat="43.431816659867763519287109375" lon="-7.0208894647657871246337890625">
        <ele>214.1999969482421875</ele>
        <time>2019-07-09T08:46:01.000Z</time>
      </trkpt>
      <trkpt lat="43.432149253785610198974609375" lon="-7.021097503602504730224609375">
        <ele>213.8000030517578125</ele>
        <time>2019-07-09T08:46:03.000Z</time>
      </trkpt>
      <trkpt lat="43.43250162899494171142578125" lon="-7.02132205478847026824951171875">
        <ele>211.399993896484375</ele>
        <time>2019-07-09T08:46:05.000Z</time>
      </trkpt>
      <trkpt lat="43.43268309719860553741455078125" lon="-7.02140671201050281524658203125">
        <ele>210</ele>
        <time>2019-07-09T08:46:06.000Z</time>
      </trkpt>
      <trkpt lat="43.4330065548419952392578125" lon="-7.0215261541306972503662109375">
        <ele>208.1999969482421875</ele>
        <time>2019-07-09T08:46:08.000Z</time>
      </trkpt>
      <trkpt lat="43.433281481266021728515625" lon="-7.02153126709163188934326171875">
        <ele>207.600006103515625</ele>
        <time>2019-07-09T08:46:10.000Z</time>
      </trkpt>
      <trkpt lat="43.43351759947836399078369140625" lon="-7.02138014137744903564453125">
        <ele>207.399993896484375</ele>
        <time>2019-07-09T08:46:12.000Z</time>
      </trkpt>
      <trkpt lat="43.43367400579154491424560546875" lon="-7.02110228128731250762939453125">
        <ele>208</ele>
        <time>2019-07-09T08:46:14.000Z</time>
      </trkpt>
      <trkpt lat="43.43370652757585048675537109375" lon="-7.02074722386896610260009765625">
        <ele>208.1999969482421875</ele>
        <time>2019-07-09T08:46:16.000Z</time>
      </trkpt>
      <trkpt lat="43.43369244597852230072021484375" lon="-7.0200894959270954132080078125">
        <ele>208</ele>
        <time>2019-07-09T08:46:19.000Z</time>
      </trkpt>
      <trkpt lat="43.43368456698954105377197265625" lon="-7.0193609409034252166748046875">
        <ele>206.1999969482421875</ele>
        <time>2019-07-09T08:46:22.000Z</time>
      </trkpt>
      <trkpt lat="43.4336906857788562774658203125" lon="-7.019130773842334747314453125">
        <ele>204.8000030517578125</ele>
        <time>2019-07-09T08:46:23.000Z</time>
      </trkpt>
      <trkpt lat="43.43369395472109317779541015625" lon="-7.0189120061695575714111328125">
        <ele>203.399993896484375</ele>
        <time>2019-07-09T08:46:24.000Z</time>
      </trkpt>
      <trkpt lat="43.43370099551975727081298828125" lon="-7.01870262622833251953125">
        <ele>202.1999969482421875</ele>
        <time>2019-07-09T08:46:25.000Z</time>
      </trkpt>
      <trkpt lat="43.433717675507068634033203125" lon="-7.01850087381899356842041015625">
        <ele>200.399993896484375</ele>
        <time>2019-07-09T08:46:26.000Z</time>
      </trkpt>
      <trkpt lat="43.433747850358486175537109375" lon="-7.0183189027011394500732421875">
        <ele>198.399993896484375</ele>
        <time>2019-07-09T08:46:27.000Z</time>
      </trkpt>
      <trkpt lat="43.43380241654813289642333984375" lon="-7.01816475950181484222412109375">
        <ele>196.8000030517578125</ele>
        <time>2019-07-09T08:46:28.000Z</time>
      </trkpt>
      <trkpt lat="43.43386461026966571807861328125" lon="-7.0180334150791168212890625">
        <ele>196</ele>
        <time>2019-07-09T08:46:29.000Z</time>
      </trkpt>
      <trkpt lat="43.43393501825630664825439453125" lon="-7.01792838983237743377685546875">
        <ele>195.399993896484375</ele>
        <time>2019-07-09T08:46:30.000Z</time>
      </trkpt>
      <trkpt lat="43.4340165741741657257080078125" lon="-7.0178429782390594482421875">
        <ele>195.1999969482421875</ele>
        <time>2019-07-09T08:46:31.000Z</time>
      </trkpt>
      <trkpt lat="43.4341661073267459869384765625" lon="-7.01773543842136859893798828125">
        <ele>194.8000030517578125</ele>
        <time>2019-07-09T08:46:33.000Z</time>
      </trkpt>
      <trkpt lat="43.4343139640986919403076171875" lon="-7.0177732408046722412109375">
        <ele>194.1999969482421875</ele>
        <time>2019-07-09T08:46:34.000Z</time>
      </trkpt>
      <trkpt lat="43.43449526466429233551025390625" lon="-7.0178672857582569122314453125">
        <ele>193.1999969482421875</ele>
        <time>2019-07-09T08:46:35.000Z</time>
      </trkpt>
      <trkpt lat="43.4346284531056880950927734375" lon="-7.0180117897689342498779296875">
        <ele>192</ele>
        <time>2019-07-09T08:46:36.000Z</time>
      </trkpt>
      <trkpt lat="43.4347501583397388458251953125" lon="-7.018201388418674468994140625">
        <ele>191.399993896484375</ele>
        <time>2019-07-09T08:46:37.000Z</time>
      </trkpt>
      <trkpt lat="43.4348825924098491668701171875" lon="-7.0184121094644069671630859375">
        <ele>190.600006103515625</ele>
        <time>2019-07-09T08:46:38.000Z</time>
      </trkpt>
      <trkpt lat="43.43509540893137454986572265625" lon="-7.01878300867974758148193359375">
        <ele>188.8000030517578125</ele>
        <time>2019-07-09T08:46:40.000Z</time>
      </trkpt>
      <trkpt lat="43.4351823292672634124755859375" lon="-7.0189368166029453277587890625">
        <ele>187.399993896484375</ele>
        <time>2019-07-09T08:46:41.000Z</time>
      </trkpt>
      <trkpt lat="43.43526304699480533599853515625" lon="-7.01909246854484081268310546875">
        <ele>186.399993896484375</ele>
        <time>2019-07-09T08:46:42.000Z</time>
      </trkpt>
      <trkpt lat="43.43542062677443027496337890625" lon="-7.019427828490734100341796875">
        <ele>184.8000030517578125</ele>
        <time>2019-07-09T08:46:44.000Z</time>
      </trkpt>
      <trkpt lat="43.43567292205989360809326171875" lon="-7.01989763416349887847900390625">
        <ele>185.8000030517578125</ele>
        <time>2019-07-09T08:46:47.000Z</time>
      </trkpt>
      <trkpt lat="43.43593846075236797332763671875" lon="-7.0203821919858455657958984375">
        <ele>183.600006103515625</ele>
        <time>2019-07-09T08:46:50.000Z</time>
      </trkpt>
      <trkpt lat="43.43603569082915782928466796875" lon="-7.0205508358776569366455078125">
        <ele>182.1999969482421875</ele>
        <time>2019-07-09T08:46:51.000Z</time>
      </trkpt>
      <trkpt lat="43.43613526783883571624755859375" lon="-7.02072123996913433074951171875">
        <ele>180</ele>
        <time>2019-07-09T08:46:52.000Z</time>
      </trkpt>
      <trkpt lat="43.43623585067689418792724609375" lon="-7.0208881236612796783447265625">
        <ele>178.8000030517578125</ele>
        <time>2019-07-09T08:46:53.000Z</time>
      </trkpt>
      <trkpt lat="43.43633391894400119781494140625" lon="-7.021059952676296234130859375">
        <ele>177.399993896484375</ele>
        <time>2019-07-09T08:46:54.000Z</time>
      </trkpt>
      <trkpt lat="43.43642595224082469940185546875" lon="-7.02122247777879238128662109375">
        <ele>175.8000030517578125</ele>
        <time>2019-07-09T08:46:55.000Z</time>
      </trkpt>
      <trkpt lat="43.4365059994161128997802734375" lon="-7.0213813148438930511474609375">
        <ele>174.399993896484375</ele>
        <time>2019-07-09T08:46:56.000Z</time>
      </trkpt>
      <trkpt lat="43.4365589730441570281982421875" lon="-7.02155205421149730682373046875">
        <ele>172.8000030517578125</ele>
        <time>2019-07-09T08:46:57.000Z</time>
      </trkpt>
      <trkpt lat="43.43658587895333766937255859375" lon="-7.021739892661571502685546875">
        <ele>172</ele>
        <time>2019-07-09T08:46:58.000Z</time>
      </trkpt>
      <trkpt lat="43.4365888126194477081298828125" lon="-7.02193845994770526885986328125">
        <ele>171.399993896484375</ele>
        <time>2019-07-09T08:46:59.000Z</time>
      </trkpt>
      <trkpt lat="43.4365978650748729705810546875" lon="-7.02250407077372074127197265625">
        <ele>170.8000030517578125</ele>
        <time>2019-07-09T08:47:02.000Z</time>
      </trkpt>
      <trkpt lat="43.43671831302344799041748046875" lon="-7.0228216610848903656005859375">
        <ele>170.1999969482421875</ele>
        <time>2019-07-09T08:47:04.000Z</time>
      </trkpt>
      <trkpt lat="43.4369371645152568817138671875" lon="-7.0230959169566631317138671875">
        <ele>169.8000030517578125</ele>
        <time>2019-07-09T08:47:06.000Z</time>
      </trkpt>
      <trkpt lat="43.43715299852192401885986328125" lon="-7.0232850126922130584716796875">
        <ele>169.8000030517578125</ele>
        <time>2019-07-09T08:47:08.000Z</time>
      </trkpt>
      <trkpt lat="43.437467403709888458251953125" lon="-7.02339607290923595428466796875">
        <ele>169.1999969482421875</ele>
        <time>2019-07-09T08:47:10.000Z</time>
      </trkpt>
      <trkpt lat="43.437638394534587860107421875" lon="-7.02343965880572795867919921875">
        <ele>168.1999969482421875</ele>
        <time>2019-07-09T08:47:11.000Z</time>
      </trkpt>
      <trkpt lat="43.43781366012990474700927734375" lon="-7.0234972424805164337158203125">
        <ele>167.1999969482421875</ele>
        <time>2019-07-09T08:47:12.000Z</time>
      </trkpt>
      <trkpt lat="43.43797358684241771697998046875" lon="-7.02358650974929332733154296875">
        <ele>165.600006103515625</ele>
        <time>2019-07-09T08:47:13.000Z</time>
      </trkpt>
      <trkpt lat="43.4381109662353992462158203125" lon="-7.02369815669953823089599609375">
        <ele>163.399993896484375</ele>
        <time>2019-07-09T08:47:14.000Z</time>
      </trkpt>
      <trkpt lat="43.43823024071753025054931640625" lon="-7.0238323509693145751953125">
        <ele>160.600006103515625</ele>
        <time>2019-07-09T08:47:15.000Z</time>
      </trkpt>
      <trkpt lat="43.438354544341564178466796875" lon="-7.0239592529833316802978515625">
        <ele>158.8000030517578125</ele>
        <time>2019-07-09T08:47:16.000Z</time>
      </trkpt>
      <trkpt lat="43.43848806805908679962158203125" lon="-7.02406595461070537567138671875">
        <ele>157.8000030517578125</ele>
        <time>2019-07-09T08:47:17.000Z</time>
      </trkpt>
      <trkpt lat="43.438626118004322052001953125" lon="-7.02414893545210361480712890625">
        <ele>157</ele>
        <time>2019-07-09T08:47:18.000Z</time>
      </trkpt>
      <trkpt lat="43.4390755556523799896240234375" lon="-7.0243371091783046722412109375">
        <ele>156.1999969482421875</ele>
        <time>2019-07-09T08:47:21.000Z</time>
      </trkpt>
      <trkpt lat="43.43923489563167095184326171875" lon="-7.02439687214791774749755859375">
        <ele>155.399993896484375</ele>
        <time>2019-07-09T08:47:22.000Z</time>
      </trkpt>
      <trkpt lat="43.43940219841897487640380859375" lon="-7.0244599878787994384765625">
        <ele>153.8000030517578125</ele>
        <time>2019-07-09T08:47:23.000Z</time>
      </trkpt>
      <trkpt lat="43.43956246040761470794677734375" lon="-7.0245181582868099212646484375">
        <ele>152.1999969482421875</ele>
        <time>2019-07-09T08:47:24.000Z</time>
      </trkpt>
      <trkpt lat="43.43970847316086292266845703125" lon="-7.0245721377432346343994140625">
        <ele>150.8000030517578125</ele>
        <time>2019-07-09T08:47:25.000Z</time>
      </trkpt>
      <trkpt lat="43.4398419968783855438232421875" lon="-7.0246140472590923309326171875">
        <ele>149.8000030517578125</ele>
        <time>2019-07-09T08:47:26.000Z</time>
      </trkpt>
      <trkpt lat="43.4399643726646900177001953125" lon="-7.02463927678763866424560546875">
        <ele>148.8000030517578125</ele>
        <time>2019-07-09T08:47:27.000Z</time>
      </trkpt>
      <trkpt lat="43.4400800429284572601318359375" lon="-7.02463424764573574066162109375">
        <ele>148.1999969482421875</ele>
        <time>2019-07-09T08:47:28.000Z</time>
      </trkpt>
      <trkpt lat="43.4401921927928924560546875" lon="-7.02458797954022884368896484375">
        <ele>147.8000030517578125</ele>
        <time>2019-07-09T08:47:29.000Z</time>
      </trkpt>
      <trkpt lat="43.440391011536121368408203125" lon="-7.02438245527446269989013671875">
        <ele>147.1999969482421875</ele>
        <time>2019-07-09T08:47:31.000Z</time>
      </trkpt>
      <trkpt lat="43.44046778976917266845703125" lon="-7.02423744834959506988525390625">
        <ele>147</ele>
        <time>2019-07-09T08:47:32.000Z</time>
      </trkpt>
      <trkpt lat="43.44052805565297603607177734375" lon="-7.02407433651387691497802734375">
        <ele>147</ele>
        <time>2019-07-09T08:47:33.000Z</time>
      </trkpt>
      <trkpt lat="43.44065546058118343353271484375" lon="-7.0235104858875274658203125">
        <ele>145.8000030517578125</ele>
        <time>2019-07-09T08:47:36.000Z</time>
      </trkpt>
      <trkpt lat="43.440717570483684539794921875" lon="-7.02334326691925525665283203125">
        <ele>144.399993896484375</ele>
        <time>2019-07-09T08:47:37.000Z</time>
      </trkpt>
      <trkpt lat="43.440814130008220672607421875" lon="-7.02320345677435398101806640625">
        <ele>142.600006103515625</ele>
        <time>2019-07-09T08:47:38.000Z</time>
      </trkpt>
      <trkpt lat="43.4409152157604694366455078125" lon="-7.02310337685048580169677734375">
        <ele>141</ele>
        <time>2019-07-09T08:47:39.000Z</time>
      </trkpt>
      <trkpt lat="43.44102929346263408660888671875" lon="-7.023044116795063018798828125">
        <ele>139.8000030517578125</ele>
        <time>2019-07-09T08:47:40.000Z</time>
      </trkpt>
      <trkpt lat="43.4411586262285709381103515625" lon="-7.023037411272525787353515625">
        <ele>138.1999969482421875</ele>
        <time>2019-07-09T08:47:41.000Z</time>
      </trkpt>
      <trkpt lat="43.44130187295377254486083984375" lon="-7.02307923696935176849365234375">
        <ele>137</ele>
        <time>2019-07-09T08:47:42.000Z</time>
      </trkpt>
      <trkpt lat="43.44142626039683818817138671875" lon="-7.02316112816333770751953125">
        <ele>136</ele>
        <time>2019-07-09T08:47:43.000Z</time>
      </trkpt>
      <trkpt lat="43.44153807498514652252197265625" lon="-7.0232799835503101348876953125">
        <ele>134.8000030517578125</ele>
        <time>2019-07-09T08:47:44.000Z</time>
      </trkpt>
      <trkpt lat="43.44162675552070140838623046875" lon="-7.02343680895864963531494140625">
        <ele>133.600006103515625</ele>
        <time>2019-07-09T08:47:45.000Z</time>
      </trkpt>
      <trkpt lat="43.4416860155761241912841796875" lon="-7.023628167808055877685546875">
        <ele>133</ele>
        <time>2019-07-09T08:47:46.000Z</time>
      </trkpt>
      <trkpt lat="43.44172842800617218017578125" lon="-7.023829333484172821044921875">
        <ele>132.1999969482421875</ele>
        <time>2019-07-09T08:47:47.000Z</time>
      </trkpt>
      <trkpt lat="43.4417800605297088623046875" lon="-7.0240212790668010711669921875">
        <ele>131.8000030517578125</ele>
        <time>2019-07-09T08:47:48.000Z</time>
      </trkpt>
      <trkpt lat="43.44194979406893253326416015625" lon="-7.02435605227947235107421875">
        <ele>131</ele>
        <time>2019-07-09T08:47:50.000Z</time>
      </trkpt>
      <trkpt lat="43.44221097417175769805908203125" lon="-7.02458806335926055908203125">
        <ele>130.399993896484375</ele>
        <time>2019-07-09T08:47:52.000Z</time>
      </trkpt>
      <trkpt lat="43.44236989505589008331298828125" lon="-7.0246455632150173187255859375">
        <ele>129.600006103515625</ele>
        <time>2019-07-09T08:47:53.000Z</time>
      </trkpt>
      <trkpt lat="43.4425443224608898162841796875" lon="-7.0246743969619274139404296875">
        <ele>128.8000030517578125</ele>
        <time>2019-07-09T08:47:54.000Z</time>
      </trkpt>
      <trkpt lat="43.4427193365991115570068359375" lon="-7.02466928400099277496337890625">
        <ele>127.40000152587890625</ele>
        <time>2019-07-09T08:47:55.000Z</time>
      </trkpt>
      <trkpt lat="43.442887477576732635498046875" lon="-7.02463977970182895660400390625">
        <ele>126</ele>
        <time>2019-07-09T08:47:56.000Z</time>
      </trkpt>
      <trkpt lat="43.4430415369570255279541015625" lon="-7.02459485270082950592041015625">
        <ele>124.1999969482421875</ele>
        <time>2019-07-09T08:47:57.000Z</time>
      </trkpt>
      <trkpt lat="43.4431800059974193572998046875" lon="-7.02455512247979640960693359375">
        <ele>122</ele>
        <time>2019-07-09T08:47:58.000Z</time>
      </trkpt>
      <trkpt lat="43.4433117695152759552001953125" lon="-7.02454690821468830108642578125">
        <ele>119.8000030517578125</ele>
        <time>2019-07-09T08:47:59.000Z</time>
      </trkpt>
      <trkpt lat="43.4434368275105953216552734375" lon="-7.02457456849515438079833984375">
        <ele>118.1999969482421875</ele>
        <time>2019-07-09T08:48:00.000Z</time>
      </trkpt>
      <trkpt lat="43.44355677254498004913330078125" lon="-7.02463223598897457122802734375">
        <ele>117.1999969482421875</ele>
        <time>2019-07-09T08:48:01.000Z</time>
      </trkpt>
      <trkpt lat="43.4437486343085765838623046875" lon="-7.02485837973654270172119140625">
        <ele>115.8000030517578125</ele>
        <time>2019-07-09T08:48:03.000Z</time>
      </trkpt>
      <trkpt lat="43.44396815635263919830322265625" lon="-7.025310583412647247314453125">
        <ele>114</ele>
        <time>2019-07-09T08:48:06.000Z</time>
      </trkpt>
      <trkpt lat="43.44415389932692050933837890625" lon="-7.02554804272949695587158203125">
        <ele>112.59999847412109375</ele>
        <time>2019-07-09T08:48:08.000Z</time>
      </trkpt>
      <trkpt lat="43.4446527063846588134765625" lon="-7.02563253231346607208251953125">
        <ele>111.59999847412109375</ele>
        <time>2019-07-09T08:48:11.000Z</time>
      </trkpt>
      <trkpt lat="43.44482210464775562286376953125" lon="-7.02564745210111141204833984375">
        <ele>111</ele>
        <time>2019-07-09T08:48:12.000Z</time>
      </trkpt>
      <trkpt lat="43.44514958560466766357421875" lon="-7.02562582679092884063720703125">
        <ele>108.40000152587890625</ele>
        <time>2019-07-09T08:48:14.000Z</time>
      </trkpt>
      <trkpt lat="43.44530171714723110198974609375" lon="-7.02557285316288471221923828125">
        <ele>106.40000152587890625</ele>
        <time>2019-07-09T08:48:15.000Z</time>
      </trkpt>
      <trkpt lat="43.44543683342635631561279296875" lon="-7.02547729946672916412353515625">
        <ele>104.40000152587890625</ele>
        <time>2019-07-09T08:48:16.000Z</time>
      </trkpt>
      <trkpt lat="43.445560634136199951171875" lon="-7.02534788288176059722900390625">
        <ele>103.1999969482421875</ele>
        <time>2019-07-09T08:48:17.000Z</time>
      </trkpt>
      <trkpt lat="43.4457656554877758026123046875" lon="-7.02503993175923824310302734375">
        <ele>101.59999847412109375</ele>
        <time>2019-07-09T08:48:19.000Z</time>
      </trkpt>
      <trkpt lat="43.4459594450891017913818359375" lon="-7.024814374744892120361328125">
        <ele>100</ele>
        <time>2019-07-09T08:48:21.000Z</time>
      </trkpt>
      <trkpt lat="43.44610034488141536712646484375" lon="-7.0247753150761127471923828125">
        <ele>98.59999847412109375</ele>
        <time>2019-07-09T08:48:22.000Z</time>
      </trkpt>
      <trkpt lat="43.44623646698892116546630859375" lon="-7.02477850019931793212890625">
        <ele>97.1999969482421875</ele>
        <time>2019-07-09T08:48:23.000Z</time>
      </trkpt>
      <trkpt lat="43.44637543894350528717041015625" lon="-7.02482468448579311370849609375">
        <ele>96</ele>
        <time>2019-07-09T08:48:24.000Z</time>
      </trkpt>
      <trkpt lat="43.44651994295418262481689453125" lon="-7.02492945827543735504150390625">
        <ele>95</ele>
        <time>2019-07-09T08:48:25.000Z</time>
      </trkpt>
      <trkpt lat="43.4467014111578464508056640625" lon="-7.0252473838627338409423828125">
        <ele>93.40000152587890625</ele>
        <time>2019-07-09T08:48:27.000Z</time>
      </trkpt>
      <trkpt lat="43.446735106408596038818359375" lon="-7.025610320270061492919921875">
        <ele>91.8000030517578125</ele>
        <time>2019-07-09T08:48:29.000Z</time>
      </trkpt>
      <trkpt lat="43.44672881998121738433837890625" lon="-7.02596076764166355133056640625">
        <ele>90.40000152587890625</ele>
        <time>2019-07-09T08:48:31.000Z</time>
      </trkpt>
      <trkpt lat="43.4468472562730312347412109375" lon="-7.0262615941464900970458984375">
        <ele>89.8000030517578125</ele>
        <time>2019-07-09T08:48:33.000Z</time>
      </trkpt>
      <trkpt lat="43.4470658563077449798583984375" lon="-7.026515901088714599609375">
        <ele>89.40000152587890625</ele>
        <time>2019-07-09T08:48:35.000Z</time>
      </trkpt>
      <trkpt lat="43.44732712022960186004638671875" lon="-7.02678571455180644989013671875">
        <ele>87.1999969482421875</ele>
        <time>2019-07-09T08:48:37.000Z</time>
      </trkpt>
      <trkpt lat="43.44759643077850341796875" lon="-7.02711344696581363677978515625">
        <ele>85.59999847412109375</ele>
        <time>2019-07-09T08:48:39.000Z</time>
      </trkpt>
      <trkpt lat="43.44787144102156162261962890625" lon="-7.02744939364492893218994140625">
        <ele>84.40000152587890625</ele>
        <time>2019-07-09T08:48:41.000Z</time>
      </trkpt>
      <trkpt lat="43.4480069763958454132080078125" lon="-7.02761200256645679473876953125">
        <ele>83.1999969482421875</ele>
        <time>2019-07-09T08:48:42.000Z</time>
      </trkpt>
      <trkpt lat="43.44814083538949489593505859375" lon="-7.0277698338031768798828125">
        <ele>81.8000030517578125</ele>
        <time>2019-07-09T08:48:43.000Z</time>
      </trkpt>
      <trkpt lat="43.44827276654541492462158203125" lon="-7.0279289223253726959228515625">
        <ele>80.40000152587890625</ele>
        <time>2019-07-09T08:48:44.000Z</time>
      </trkpt>
      <trkpt lat="43.44840067438781261444091796875" lon="-7.02808943577110767364501953125">
        <ele>79</ele>
        <time>2019-07-09T08:48:45.000Z</time>
      </trkpt>
      <trkpt lat="43.44852036796510219573974609375" lon="-7.02825640328228473663330078125">
        <ele>78</ele>
        <time>2019-07-09T08:48:46.000Z</time>
      </trkpt>
      <trkpt lat="43.44862849451601505279541015625" lon="-7.02843435108661651611328125">
        <ele>76.1999969482421875</ele>
        <time>2019-07-09T08:48:47.000Z</time>
      </trkpt>
      <trkpt lat="43.44872270710766315460205078125" lon="-7.02861933968961238861083984375">
        <ele>74.1999969482421875</ele>
        <time>2019-07-09T08:48:48.000Z</time>
      </trkpt>
      <trkpt lat="43.4488062746822834014892578125" lon="-7.0288036577403545379638671875">
        <ele>72</ele>
        <time>2019-07-09T08:48:49.000Z</time>
      </trkpt>
      <trkpt lat="43.448884896934032440185546875" lon="-7.02897942624986171722412109375">
        <ele>70.40000152587890625</ele>
        <time>2019-07-09T08:48:50.000Z</time>
      </trkpt>
      <trkpt lat="43.44896771013736724853515625" lon="-7.02913650311529636383056640625">
        <ele>68.8000030517578125</ele>
        <time>2019-07-09T08:48:51.000Z</time>
      </trkpt>
      <trkpt lat="43.4491542913019657135009765625" lon="-7.02936130575835704803466796875">
        <ele>67.59999847412109375</ele>
        <time>2019-07-09T08:48:53.000Z</time>
      </trkpt>
      <trkpt lat="43.44938638620078563690185546875" lon="-7.0294661633670330047607421875">
        <ele>67.40000152587890625</ele>
        <time>2019-07-09T08:48:55.000Z</time>
      </trkpt>
      <trkpt lat="43.44997177831828594207763671875" lon="-7.02950128354132175445556640625">
        <ele>68</ele>
        <time>2019-07-09T08:48:59.000Z</time>
      </trkpt>
      <trkpt lat="43.45012969337403774261474609375" lon="-7.0295409299433231353759765625">
        <ele>67.8000030517578125</ele>
        <time>2019-07-09T08:49:00.000Z</time>
      </trkpt>
      <trkpt lat="43.45045776106417179107666015625" lon="-7.02968099154531955718994140625">
        <ele>66.1999969482421875</ele>
        <time>2019-07-09T08:49:02.000Z</time>
      </trkpt>
      <trkpt lat="43.45062791369855403900146484375" lon="-7.0297571830451488494873046875">
        <ele>64.59999847412109375</ele>
        <time>2019-07-09T08:49:03.000Z</time>
      </trkpt>
      <trkpt lat="43.4507924504578113555908203125" lon="-7.02983446419239044189453125">
        <ele>62.40000152587890625</ele>
        <time>2019-07-09T08:49:04.000Z</time>
      </trkpt>
      <trkpt lat="43.45094625838100910186767578125" lon="-7.02990763820707798004150390625">
        <ele>60.799999237060546875</ele>
        <time>2019-07-09T08:49:05.000Z</time>
      </trkpt>
      <trkpt lat="43.45108891837298870086669921875" lon="-7.0299891941249370574951171875">
        <ele>59</ele>
        <time>2019-07-09T08:49:06.000Z</time>
      </trkpt>
      <trkpt lat="43.45121867023408412933349609375" lon="-7.030092291533946990966796875">
        <ele>57.40000152587890625</ele>
        <time>2019-07-09T08:49:07.000Z</time>
      </trkpt>
      <trkpt lat="43.45132746733725070953369140625" lon="-7.0302225463092327117919921875">
        <ele>56</ele>
        <time>2019-07-09T08:49:08.000Z</time>
      </trkpt>
      <trkpt lat="43.4514140523970127105712890625" lon="-7.03037417493760585784912109375">
        <ele>54.799999237060546875</ele>
        <time>2019-07-09T08:49:09.000Z</time>
      </trkpt>
      <trkpt lat="43.45150784589350223541259765625" lon="-7.03074851073324680328369140625">
        <ele>53</ele>
        <time>2019-07-09T08:49:11.000Z</time>
      </trkpt>
      <trkpt lat="43.45155763439834117889404296875" lon="-7.0309360139071941375732421875">
        <ele>52.799999237060546875</ele>
        <time>2019-07-09T08:49:12.000Z</time>
      </trkpt>
      <trkpt lat="43.45172963105142116546630859375" lon="-7.0312297157943248748779296875">
        <ele>52</ele>
        <time>2019-07-09T08:49:14.000Z</time>
      </trkpt>
      <trkpt lat="43.4519803337752819061279296875" lon="-7.03134094364941120147705078125">
        <ele>51</ele>
        <time>2019-07-09T08:49:16.000Z</time>
      </trkpt>
      <trkpt lat="43.452129699289798736572265625" lon="-7.031338177621364593505859375">
        <ele>50.200000762939453125</ele>
        <time>2019-07-09T08:49:17.000Z</time>
      </trkpt>
      <trkpt lat="43.452436141669750213623046875" lon="-7.031339518725872039794921875">
        <ele>49</ele>
        <time>2019-07-09T08:49:19.000Z</time>
      </trkpt>
      <trkpt lat="43.45273797400295734405517578125" lon="-7.03146935440599918365478515625">
        <ele>46.59999847412109375</ele>
        <time>2019-07-09T08:49:21.000Z</time>
      </trkpt>
      <trkpt lat="43.45288507640361785888671875" lon="-7.03155619092285633087158203125">
        <ele>45</ele>
        <time>2019-07-09T08:49:22.000Z</time>
      </trkpt>
      <trkpt lat="43.4530346095561981201171875" lon="-7.0316095836460590362548828125">
        <ele>43.40000152587890625</ele>
        <time>2019-07-09T08:49:23.000Z</time>
      </trkpt>
      <trkpt lat="43.4531846456229686737060546875" lon="-7.03160396777093410491943359375">
        <ele>42.200000762939453125</ele>
        <time>2019-07-09T08:49:24.000Z</time>
      </trkpt>
      <trkpt lat="43.45333308912813663482666015625" lon="-7.03154982067644596099853515625">
        <ele>41.40000152587890625</ele>
        <time>2019-07-09T08:49:25.000Z</time>
      </trkpt>
      <trkpt lat="43.45349502749741077423095703125" lon="-7.0314754731953144073486328125">
        <ele>41</ele>
        <time>2019-07-09T08:49:26.000Z</time>
      </trkpt>
      <trkpt lat="43.453672640025615692138671875" lon="-7.03142627142369747161865234375">
        <ele>40.59999847412109375</ele>
        <time>2019-07-09T08:49:27.000Z</time>
      </trkpt>
      <trkpt lat="43.45405845902860164642333984375" lon="-7.03144689090549945831298828125">
        <ele>38.799999237060546875</ele>
        <time>2019-07-09T08:49:29.000Z</time>
      </trkpt>
      <trkpt lat="43.454246632754802703857421875" lon="-7.03145074658095836639404296875">
        <ele>37.40000152587890625</ele>
        <time>2019-07-09T08:49:30.000Z</time>
      </trkpt>
      <trkpt lat="43.45458970405161380767822265625" lon="-7.03134161420166492462158203125">
        <ele>35.799999237060546875</ele>
        <time>2019-07-09T08:49:32.000Z</time>
      </trkpt>
      <trkpt lat="43.454903773963451385498046875" lon="-7.03125226311385631561279296875">
        <ele>33.799999237060546875</ele>
        <time>2019-07-09T08:49:34.000Z</time>
      </trkpt>
      <trkpt lat="43.4550890140235424041748046875" lon="-7.031282521784305572509765625">
        <ele>32.59999847412109375</ele>
        <time>2019-07-09T08:49:35.000Z</time>
      </trkpt>
      <trkpt lat="43.45527852885425090789794921875" lon="-7.031346894800662994384765625">
        <ele>31.200000762939453125</ele>
        <time>2019-07-09T08:49:36.000Z</time>
      </trkpt>
      <trkpt lat="43.45547114498913288116455078125" lon="-7.0314245112240314483642578125">
        <ele>29.200000762939453125</ele>
        <time>2019-07-09T08:49:37.000Z</time>
      </trkpt>
      <trkpt lat="43.455661498010158538818359375" lon="-7.0315170474350452423095703125">
        <ele>27.200000762939453125</ele>
        <time>2019-07-09T08:49:38.000Z</time>
      </trkpt>
      <trkpt lat="43.45584263093769550323486328125" lon="-7.0316320471465587615966796875">
        <ele>25.799999237060546875</ele>
        <time>2019-07-09T08:49:39.000Z</time>
      </trkpt>
      <trkpt lat="43.456004820764064788818359375" lon="-7.03177697025239467620849609375">
        <ele>24.200000762939453125</ele>
        <time>2019-07-09T08:49:40.000Z</time>
      </trkpt>
      <trkpt lat="43.456161729991436004638671875" lon="-7.031928263604640960693359375">
        <ele>22.799999237060546875</ele>
        <time>2019-07-09T08:49:41.000Z</time>
      </trkpt>
      <trkpt lat="43.45632475800812244415283203125" lon="-7.03206069767475128173828125">
        <ele>21</ele>
        <time>2019-07-09T08:49:42.000Z</time>
      </trkpt>
      <trkpt lat="43.45650111325085163116455078125" lon="-7.0321664772927761077880859375">
        <ele>19.6000003814697265625</ele>
        <time>2019-07-09T08:49:43.000Z</time>
      </trkpt>
      <trkpt lat="43.45669087953865528106689453125" lon="-7.0322491228580474853515625">
        <ele>18.3999996185302734375</ele>
        <time>2019-07-09T08:49:44.000Z</time>
      </trkpt>
      <trkpt lat="43.45706655643880367279052734375" lon="-7.03239806927740573883056640625">
        <ele>16.6000003814697265625</ele>
        <time>2019-07-09T08:49:46.000Z</time>
      </trkpt>
      <trkpt lat="43.4572367928922176361083984375" lon="-7.03245255164802074432373046875">
        <ele>15</ele>
        <time>2019-07-09T08:49:47.000Z</time>
      </trkpt>
      <trkpt lat="43.457404263317584991455078125" lon="-7.03248448669910430908203125">
        <ele>13.3999996185302734375</ele>
        <time>2019-07-09T08:49:48.000Z</time>
      </trkpt>
      <trkpt lat="43.4575794450938701629638671875" lon="-7.03249043785035610198974609375">
        <ele>12.6000003814697265625</ele>
        <time>2019-07-09T08:49:49.000Z</time>
      </trkpt>
      <trkpt lat="43.4577685408294200897216796875" lon="-7.03247434459626674652099609375">
        <ele>11.3999996185302734375</ele>
        <time>2019-07-09T08:49:50.000Z</time>
      </trkpt>
      <trkpt lat="43.4583603031933307647705078125" lon="-7.03240678645670413970947265625">
        <ele>10.3999996185302734375</ele>
        <time>2019-07-09T08:49:53.000Z</time>
      </trkpt>
      <trkpt lat="43.4587619639933109283447265625" lon="-7.03244383446872234344482421875">
        <ele>8.80000019073486328125</ele>
        <time>2019-07-09T08:49:55.000Z</time>
      </trkpt>
      <trkpt lat="43.45894779078662395477294921875" lon="-7.03248389996588230133056640625">
        <ele>7.400000095367431640625</ele>
        <time>2019-07-09T08:49:56.000Z</time>
      </trkpt>
      <trkpt lat="43.4591260738670825958251953125" lon="-7.0325200259685516357421875">
        <ele>6</ele>
        <time>2019-07-09T08:49:57.000Z</time>
      </trkpt>
      <trkpt lat="43.4594378806650638580322265625" lon="-7.0325870811939239501953125">
        <ele>4.599999904632568359375</ele>
        <time>2019-07-09T08:49:59.000Z</time>
      </trkpt>
      <trkpt lat="43.4597027488052845001220703125" lon="-7.03269235789775848388671875">
        <ele>4</ele>
        <time>2019-07-09T08:50:01.000Z</time>
      </trkpt>
      <trkpt lat="43.4599156491458415985107421875" lon="-7.03292663209140300750732421875">
        <ele>4.19999980926513671875</ele>
        <time>2019-07-09T08:50:03.000Z</time>
      </trkpt>
      <trkpt lat="43.4600272960960865020751953125" lon="-7.033233158290386199951171875">
        <ele>4.599999904632568359375</ele>
        <time>2019-07-09T08:50:05.000Z</time>
      </trkpt>
      <trkpt lat="43.4599991329014301300048828125" lon="-7.03401778824627399444580078125">
        <ele>4.599999904632568359375</ele>
        <time>2019-07-09T08:50:09.000Z</time>
      </trkpt>
      <trkpt lat="43.46009057946503162384033203125" lon="-7.03471952117979526519775390625">
        <ele>5.400000095367431640625</ele>
        <time>2019-07-09T08:50:13.000Z</time>
      </trkpt>
      <trkpt lat="43.46011002548038959503173828125" lon="-7.0353777520358562469482421875">
        <ele>5.400000095367431640625</ele>
        <time>2019-07-09T08:50:16.000Z</time>
      </trkpt>
      <trkpt lat="43.4601972810924053192138671875" lon="-7.0360094122588634490966796875">
        <ele>4.400000095367431640625</ele>
        <time>2019-07-09T08:50:19.000Z</time>
      </trkpt>
      <trkpt lat="43.46029065549373626708984375" lon="-7.03664719127118587493896484375">
        <ele>4.400000095367431640625</ele>
        <time>2019-07-09T08:50:22.000Z</time>
      </trkpt>
      <trkpt lat="43.46033533103764057159423828125" lon="-7.03731916844844818115234375">
        <ele>3.7999999523162841796875</ele>
        <time>2019-07-09T08:50:25.000Z</time>
      </trkpt>
      <trkpt lat="43.4603650867938995361328125" lon="-7.03754246234893798828125">
        <ele>3.7999999523162841796875</ele>
        <time>2019-07-09T08:50:26.000Z</time>
      </trkpt>
      <trkpt lat="43.46040867269039154052734375" lon="-7.037766091525554656982421875">
        <ele>3.400000095367431640625</ele>
        <time>2019-07-09T08:50:27.000Z</time>
      </trkpt>
      <trkpt lat="43.4605300426483154296875" lon="-7.0382161997258663177490234375">
        <ele>2.2000000476837158203125</ele>
        <time>2019-07-09T08:50:29.000Z</time>
      </trkpt>
      <trkpt lat="43.4607001952826976776123046875" lon="-7.0389494486153125762939453125">
        <ele>0.800000011920928955078125</ele>
        <time>2019-07-09T08:50:32.000Z</time>
      </trkpt>
      <trkpt lat="43.4608061425387859344482421875" lon="-7.039449512958526611328125">
        <ele>-1</ele>
        <time>2019-07-09T08:50:34.000Z</time>
      </trkpt>
      <trkpt lat="43.46089775674045085906982421875" lon="-7.03989786095917224884033203125">
        <ele>-2.2000000476837158203125</ele>
        <time>2019-07-09T08:50:36.000Z</time>
      </trkpt>
      <trkpt lat="43.46095710061490535736083984375" lon="-7.040077485144138336181640625">
        <ele>-2.400000095367431640625</ele>
        <time>2019-07-09T08:50:37.000Z</time>
      </trkpt>
      <trkpt lat="43.4611295163631439208984375" lon="-7.04034696333110332489013671875">
        <ele>-2.7999999523162841796875</ele>
        <time>2019-07-09T08:50:39.000Z</time>
      </trkpt>
      <trkpt lat="43.4616108052432537078857421875" lon="-7.04068534076213836669921875">
        <ele>-0.60000002384185791015625</ele>
        <time>2019-07-09T08:50:43.000Z</time>
      </trkpt>
      <trkpt lat="43.4618431515991687774658203125" lon="-7.04084702767431735992431640625">
        <ele>-0.20000000298023223876953125</ele>
        <time>2019-07-09T08:50:45.000Z</time>
      </trkpt>
      <trkpt lat="43.46204071305692195892333984375" lon="-7.04106579534709453582763671875">
        <ele>-0.60000002384185791015625</ele>
        <time>2019-07-09T08:50:47.000Z</time>
      </trkpt>
      <trkpt lat="43.4621693752706050872802734375" lon="-7.04133485443890094757080078125">
        <ele>-1.2000000476837158203125</ele>
        <time>2019-07-09T08:50:49.000Z</time>
      </trkpt>
      <trkpt lat="43.46224757842719554901123046875" lon="-7.04164414666593074798583984375">
        <ele>-1.60000002384185791015625</ele>
        <time>2019-07-09T08:50:51.000Z</time>
      </trkpt>
      <trkpt lat="43.4622816927731037139892578125" lon="-7.0418033190071582794189453125">
        <ele>-1.7999999523162841796875</ele>
        <time>2019-07-09T08:50:52.000Z</time>
      </trkpt>
      <trkpt lat="43.46241362392902374267578125" lon="-7.04242718406021595001220703125">
        <ele>-2.7999999523162841796875</ele>
        <time>2019-07-09T08:50:56.000Z</time>
      </trkpt>
      <trkpt lat="43.46257313154637813568115234375" lon="-7.043149285018444061279296875">
        <ele>-3.400000095367431640625</ele>
        <time>2019-07-09T08:51:01.000Z</time>
      </trkpt>
      <trkpt lat="43.46265896223485469818115234375" lon="-7.04347844235599040985107421875">
        <ele>-4.19999980926513671875</ele>
        <time>2019-07-09T08:51:03.000Z</time>
      </trkpt>
      <trkpt lat="43.46270221285521984100341796875" lon="-7.04363333992660045623779296875">
        <ele>-5.599999904632568359375</ele>
        <time>2019-07-09T08:51:04.000Z</time>
      </trkpt>
      <trkpt lat="43.4627437032759189605712890625" lon="-7.04377968795597553253173828125">
        <ele>-7</ele>
        <time>2019-07-09T08:51:05.000Z</time>
      </trkpt>
      <trkpt lat="43.46281100995838642120361328125" lon="-7.04405821859836578369140625">
        <ele>-8</ele>
        <time>2019-07-09T08:51:07.000Z</time>
      </trkpt>
      <trkpt lat="43.46291041933000087738037109375" lon="-7.044441439211368560791015625">
        <ele>-6</ele>
        <time>2019-07-09T08:51:10.000Z</time>
      </trkpt>
      <trkpt lat="43.46297194249927997589111328125" lon="-7.0446856878697872161865234375">
        <ele>-4.599999904632568359375</ele>
        <time>2019-07-09T08:51:12.000Z</time>
      </trkpt>
      <trkpt lat="43.46310270018875598907470703125" lon="-7.04515985213220119476318359375">
        <ele>-6.19999980926513671875</ele>
        <time>2019-07-09T08:51:16.000Z</time>
      </trkpt>
      <trkpt lat="43.46314595080912113189697265625" lon="-7.04527460038661956787109375">
        <ele>-7.599999904632568359375</ele>
        <time>2019-07-09T08:51:17.000Z</time>
      </trkpt>
      <trkpt lat="43.46319724805653095245361328125" lon="-7.0453743450343608856201171875">
        <ele>-8.6000003814697265625</ele>
        <time>2019-07-09T08:51:18.000Z</time>
      </trkpt>
      <trkpt lat="43.463254831731319427490234375" lon="-7.045462690293788909912109375">
        <ele>-9.3999996185302734375</ele>
        <time>2019-07-09T08:51:19.000Z</time>
      </trkpt>
      <trkpt lat="43.46331476233899593353271484375" lon="-7.04554290510714054107666015625">
        <ele>-9.80000019073486328125</ele>
        <time>2019-07-09T08:51:20.000Z</time>
      </trkpt>
      <trkpt lat="43.4636539779603481292724609375" lon="-7.0460006408393383026123046875">
        <ele>-9.3999996185302734375</ele>
        <time>2019-07-09T08:51:26.000Z</time>
      </trkpt>
      <trkpt lat="43.46372094936668872833251953125" lon="-7.0460606552660465240478515625">
        <ele>-9.6000003814697265625</ele>
        <time>2019-07-09T08:51:27.000Z</time>
      </trkpt>
      <trkpt lat="43.4638197720050811767578125" lon="-7.04635829664766788482666015625">
        <ele>-10.80000019073486328125</ele>
        <time>2019-07-09T08:51:30.000Z</time>
      </trkpt>
      <trkpt lat="43.464074917137622833251953125" lon="-7.04693346284329891204833984375">
        <ele>-12.19999980926513671875</ele>
        <time>2019-07-09T08:51:36.000Z</time>
      </trkpt>
      <trkpt lat="43.464224450290203094482421875" lon="-7.04725683666765689849853515625">
        <ele>-13</ele>
        <time>2019-07-09T08:51:40.000Z</time>
      </trkpt>
      <trkpt lat="43.46451555378735065460205078125" lon="-7.0478017441928386688232421875">
        <ele>-13</ele>
        <time>2019-07-09T08:51:48.000Z</time>
      </trkpt>
      <trkpt lat="43.4646212495863437652587890625" lon="-7.04808865673840045928955078125">
        <ele>-12</ele>
        <time>2019-07-09T08:52:01.000Z</time>
      </trkpt>
      <trkpt lat="43.46466609276831150054931640625" lon="-7.0481785945594310760498046875">
        <ele>-11.80000019073486328125</ele>
        <time>2019-07-09T08:52:10.000Z</time>
      </trkpt>
      <trkpt lat="43.464697189629077911376953125" lon="-7.0482818596065044403076171875">
        <ele>-11.80000019073486328125</ele>
        <time>2019-07-09T08:52:18.000Z</time>
      </trkpt>
      <trkpt lat="43.46478260122239589691162109375" lon="-7.04850473441183567047119140625">
        <ele>-12</ele>
        <time>2019-07-09T08:52:25.000Z</time>
      </trkpt>
      <trkpt lat="43.46514067612588405609130859375" lon="-7.0490415953099727630615234375">
        <ele>-11.19999980926513671875</ele>
        <time>2019-07-09T08:52:31.000Z</time>
      </trkpt>
      <trkpt lat="43.46552456729114055633544921875" lon="-7.0493778772652149200439453125">
        <ele>-10.80000019073486328125</ele>
        <time>2019-07-09T08:52:37.000Z</time>
      </trkpt>
      <trkpt lat="43.46602119505405426025390625" lon="-7.049618102610111236572265625">
        <ele>-11.6000003814697265625</ele>
        <time>2019-07-09T08:52:43.000Z</time>
      </trkpt>
      <trkpt lat="43.4664810262620449066162109375" lon="-7.04980560578405857086181640625">
        <ele>-12.3999996185302734375</ele>
        <time>2019-07-09T08:52:48.000Z</time>
      </trkpt>
      <trkpt lat="43.46698201261460781097412109375" lon="-7.049989588558673858642578125">
        <ele>-12.80000019073486328125</ele>
        <time>2019-07-09T08:52:53.000Z</time>
      </trkpt>
      <trkpt lat="43.4675197117030620574951171875" lon="-7.0501718111336231231689453125">
        <ele>-13.3999996185302734375</ele>
        <time>2019-07-09T08:52:58.000Z</time>
      </trkpt>
      <trkpt lat="43.46762490458786487579345703125" lon="-7.05021095462143421173095703125">
        <ele>-14.6000003814697265625</ele>
        <time>2019-07-09T08:52:59.000Z</time>
      </trkpt>
      <trkpt lat="43.467832691967487335205078125" lon="-7.0502827875316143035888671875">
        <ele>-15.80000019073486328125</ele>
        <time>2019-07-09T08:53:01.000Z</time>
      </trkpt>
      <trkpt lat="43.46827198751270771026611328125" lon="-7.05042938701808452606201171875">
        <ele>-15.19999980926513671875</ele>
        <time>2019-07-09T08:53:05.000Z</time>
      </trkpt>
      <trkpt lat="43.46877356059849262237548828125" lon="-7.05060071311891078948974609375">
        <ele>-14.80000019073486328125</ele>
        <time>2019-07-09T08:53:09.000Z</time>
      </trkpt>
      <trkpt lat="43.469277061522006988525390625" lon="-7.05078327096998691558837890625">
        <ele>-16</ele>
        <time>2019-07-09T08:53:13.000Z</time>
      </trkpt>
      <trkpt lat="43.469754159450531005859375" lon="-7.050956524908542633056640625">
        <ele>-15.6000003814697265625</ele>
        <time>2019-07-09T08:53:17.000Z</time>
      </trkpt>
      <trkpt lat="43.47011089324951171875" lon="-7.05109172500669956207275390625">
        <ele>-14.80000019073486328125</ele>
        <time>2019-07-09T08:53:20.000Z</time>
      </trkpt>
      <trkpt lat="43.47054868005216121673583984375" lon="-7.05125584267079830169677734375">
        <ele>-14.6000003814697265625</ele>
        <time>2019-07-09T08:53:24.000Z</time>
      </trkpt>
      <trkpt lat="43.47081254236400127410888671875" lon="-7.05134921707212924957275390625">
        <ele>-16</ele>
        <time>2019-07-09T08:53:27.000Z</time>
      </trkpt>
      <trkpt lat="43.4711111895740032196044921875" lon="-7.0514939725399017333984375">
        <ele>-15</ele>
        <time>2019-07-09T08:53:33.000Z</time>
      </trkpt>
      <trkpt lat="43.47112501971423625946044921875" lon="-7.0515186153352260589599609375">
        <ele>-14.3999996185302734375</ele>
        <time>2019-07-09T08:53:34.000Z</time>
      </trkpt>
      <trkpt lat="43.47112669609487056732177734375" lon="-7.05154183320701122283935546875">
        <ele>-13.3999996185302734375</ele>
        <time>2019-07-09T08:53:35.000Z</time>
      </trkpt>
      <trkpt lat="43.47112133167684078216552734375" lon="-7.0515581779181957244873046875">
        <ele>-12.3999996185302734375</ele>
        <time>2019-07-09T08:53:37.000Z</time>
      </trkpt>
      <trkpt lat="43.47106349654495716094970703125" lon="-7.05160939134657382965087890625">
        <ele>-12.19999980926513671875</ele>
        <time>2019-07-09T08:53:59.000Z</time>
      </trkpt>
      <trkpt lat="43.4710253588855266571044921875" lon="-7.05161341466009616851806640625">
        <ele>-12.3999996185302734375</ele>
        <time>2019-07-09T08:55:01.000Z</time>
      </trkpt>
      <trkpt lat="43.4707889892160892486572265625" lon="-7.05172020010650157928466796875">
        <ele>-12.3999996185302734375</ele>
        <time>2019-07-09T09:01:26.000Z</time>
      </trkpt>
      <trkpt lat="43.47078219987452030181884765625" lon="-7.05162732861936092376708984375">
        <ele>-12.3999996185302734375</ele>
        <time>2019-07-09T09:06:16.000Z</time>
      </trkpt>
      <trkpt lat="43.47073693759739398956298828125" lon="-7.05145700834691524505615234375">
        <ele>-12.6000003814697265625</ele>
        <time>2019-07-09T09:07:07.000Z</time>
      </trkpt>
      <trkpt lat="43.47084053792059421539306640625" lon="-7.0513811521232128143310546875">
        <ele>-12.80000019073486328125</ele>
        <time>2019-07-09T09:07:12.000Z</time>
      </trkpt>
      <trkpt lat="43.4713690169155597686767578125" lon="-7.05155742354691028594970703125">
        <ele>-13</ele>
        <time>2019-07-09T09:07:18.000Z</time>
      </trkpt>
      <trkpt lat="43.47189799882471561431884765625" lon="-7.051737718284130096435546875">
        <ele>-12.6000003814697265625</ele>
        <time>2019-07-09T09:07:22.000Z</time>
      </trkpt>
      <trkpt lat="43.47216236405074596405029296875" lon="-7.0517231337726116180419921875">
        <ele>-15.19999980926513671875</ele>
        <time>2019-07-09T09:07:24.000Z</time>
      </trkpt>
      <trkpt lat="43.47228876315057277679443359375" lon="-7.0516736805438995361328125">
        <ele>-16.799999237060546875</ele>
        <time>2019-07-09T09:07:25.000Z</time>
      </trkpt>
      <trkpt lat="43.4725394658744335174560546875" lon="-7.05154250375926494598388671875">
        <ele>-18</ele>
        <time>2019-07-09T09:07:27.000Z</time>
      </trkpt>
      <trkpt lat="43.4729139693081378936767578125" lon="-7.05131853930652141571044921875">
        <ele>-17</ele>
        <time>2019-07-09T09:07:30.000Z</time>
      </trkpt>
      <trkpt lat="43.47328335978090763092041015625" lon="-7.051093317568302154541015625">
        <ele>-15.3999996185302734375</ele>
        <time>2019-07-09T09:07:33.000Z</time>
      </trkpt>
      <trkpt lat="43.47352735698223114013671875" lon="-7.05092291347682476043701171875">
        <ele>-14.19999980926513671875</ele>
        <time>2019-07-09T09:07:35.000Z</time>
      </trkpt>
      <trkpt lat="43.473961539566516876220703125" lon="-7.05043785274028778076171875">
        <ele>-13.3999996185302734375</ele>
        <time>2019-07-09T09:07:39.000Z</time>
      </trkpt>
      <trkpt lat="43.47426840104162693023681640625" lon="-7.0497825555503368377685546875">
        <ele>-13.3999996185302734375</ele>
        <time>2019-07-09T09:07:43.000Z</time>
      </trkpt>
      <trkpt lat="43.4745259769260883331298828125" lon="-7.04906967468559741973876953125">
        <ele>-14</ele>
        <time>2019-07-09T09:07:47.000Z</time>
      </trkpt>
      <trkpt lat="43.47475019283592700958251953125" lon="-7.04852677881717681884765625">
        <ele>-13.6000003814697265625</ele>
        <time>2019-07-09T09:07:50.000Z</time>
      </trkpt>
      <trkpt lat="43.4750309027731418609619140625" lon="-7.0480327494442462921142578125">
        <ele>-13.3999996185302734375</ele>
        <time>2019-07-09T09:07:53.000Z</time>
      </trkpt>
      <trkpt lat="43.47513400018215179443359375" lon="-7.04787609167397022247314453125">
        <ele>-12.6000003814697265625</ele>
        <time>2019-07-09T09:07:54.000Z</time>
      </trkpt>
      <trkpt lat="43.4754523448646068572998046875" lon="-7.04741642810404300689697265625">
        <ele>-11.6000003814697265625</ele>
        <time>2019-07-09T09:07:57.000Z</time>
      </trkpt>
      <trkpt lat="43.4756598807871341705322265625" lon="-7.0471050404012203216552734375">
        <ele>-10</ele>
        <time>2019-07-09T09:07:59.000Z</time>
      </trkpt>
      <trkpt lat="43.47576557658612728118896484375" lon="-7.046953327953815460205078125">
        <ele>-8.6000003814697265625</ele>
        <time>2019-07-09T09:08:00.000Z</time>
      </trkpt>
      <trkpt lat="43.47587269730865955352783203125" lon="-7.0468066446483135223388671875">
        <ele>-7.599999904632568359375</ele>
        <time>2019-07-09T09:08:01.000Z</time>
      </trkpt>
      <trkpt lat="43.47597931511700153350830078125" lon="-7.0466579496860504150390625">
        <ele>-6.400000095367431640625</ele>
        <time>2019-07-09T09:08:02.000Z</time>
      </trkpt>
      <trkpt lat="43.47620420157909393310546875" lon="-7.04636986367404460906982421875">
        <ele>-5</ele>
        <time>2019-07-09T09:08:04.000Z</time>
      </trkpt>
      <trkpt lat="43.47644870169460773468017578125" lon="-7.046103067696094512939453125">
        <ele>-3.599999904632568359375</ele>
        <time>2019-07-09T09:08:06.000Z</time>
      </trkpt>
      <trkpt lat="43.476875089108943939208984375" lon="-7.0457498542964458465576171875">
        <ele>-2.7999999523162841796875</ele>
        <time>2019-07-09T09:08:09.000Z</time>
      </trkpt>
      <trkpt lat="43.47703878767788410186767578125" lon="-7.04565019346773624420166015625">
        <ele>-2.2000000476837158203125</ele>
        <time>2019-07-09T09:08:10.000Z</time>
      </trkpt>
      <trkpt lat="43.47758092917501926422119140625" lon="-7.0454214513301849365234375">
        <ele>-2</ele>
        <time>2019-07-09T09:08:13.000Z</time>
      </trkpt>
      <trkpt lat="43.47815928049385547637939453125" lon="-7.0453490316867828369140625">
        <ele>-2</ele>
        <time>2019-07-09T09:08:16.000Z</time>
      </trkpt>
      <trkpt lat="43.4785489551723003387451171875" lon="-7.0453579165041446685791015625">
        <ele>-3.7999999523162841796875</ele>
        <time>2019-07-09T09:08:18.000Z</time>
      </trkpt>
      <trkpt lat="43.4791351854801177978515625" lon="-7.0453582517802715301513671875">
        <ele>-5.400000095367431640625</ele>
        <time>2019-07-09T09:08:21.000Z</time>
      </trkpt>
      <trkpt lat="43.4795232675969600677490234375" lon="-7.0453616045415401458740234375">
        <ele>-7.19999980926513671875</ele>
        <time>2019-07-09T09:08:23.000Z</time>
      </trkpt>
      <trkpt lat="43.4799038060009479522705078125" lon="-7.045362107455730438232421875">
        <ele>-8.19999980926513671875</ele>
        <time>2019-07-09T09:08:25.000Z</time>
      </trkpt>
      <trkpt lat="43.48009399138391017913818359375" lon="-7.0453619398176670074462890625">
        <ele>-9.19999980926513671875</ele>
        <time>2019-07-09T09:08:26.000Z</time>
      </trkpt>
      <trkpt lat="43.48028476350009441375732421875" lon="-7.04536168836057186126708984375">
        <ele>-10</ele>
        <time>2019-07-09T09:08:27.000Z</time>
      </trkpt>
      <trkpt lat="43.48066806793212890625" lon="-7.04536118544638156890869140625">
        <ele>-11.3999996185302734375</ele>
        <time>2019-07-09T09:08:29.000Z</time>
      </trkpt>
      <trkpt lat="43.4812452457845211029052734375" lon="-7.045358084142208099365234375">
        <ele>-12.3999996185302734375</ele>
        <time>2019-07-09T09:08:32.000Z</time>
      </trkpt>
      <trkpt lat="43.481831811368465423583984375" lon="-7.04536101780831813812255859375">
        <ele>-12.80000019073486328125</ele>
        <time>2019-07-09T09:08:35.000Z</time>
      </trkpt>
      <trkpt lat="43.482224084436893463134765625" lon="-7.0453813858330249786376953125">
        <ele>-11.3999996185302734375</ele>
        <time>2019-07-09T09:08:37.000Z</time>
      </trkpt>
      <trkpt lat="43.4826088137924671173095703125" lon="-7.04546998254954814910888671875">
        <ele>-9.80000019073486328125</ele>
        <time>2019-07-09T09:08:39.000Z</time>
      </trkpt>
      <trkpt lat="43.48298775963485240936279296875" lon="-7.0456118881702423095703125">
        <ele>-8.3999996185302734375</ele>
        <time>2019-07-09T09:08:41.000Z</time>
      </trkpt>
      <trkpt lat="43.4833608381450176239013671875" lon="-7.04577022232115268707275390625">
        <ele>-6.400000095367431640625</ele>
        <time>2019-07-09T09:08:43.000Z</time>
      </trkpt>
      <trkpt lat="43.4837346710264682769775390625" lon="-7.0458953641355037689208984375">
        <ele>-5</ele>
        <time>2019-07-09T09:08:45.000Z</time>
      </trkpt>
      <trkpt lat="43.4839230962097644805908203125" lon="-7.045928724110126495361328125">
        <ele>-3</ele>
        <time>2019-07-09T09:08:46.000Z</time>
      </trkpt>
      <trkpt lat="43.484113030135631561279296875" lon="-7.045942805707454681396484375">
        <ele>-1.2000000476837158203125</ele>
        <time>2019-07-09T09:08:47.000Z</time>
      </trkpt>
      <trkpt lat="43.4843022935092449188232421875" lon="-7.0459322445094585418701171875">
        <ele>1</ele>
        <time>2019-07-09T09:08:48.000Z</time>
      </trkpt>
      <trkpt lat="43.48449029959738254547119140625" lon="-7.04589745961129665374755859375">
        <ele>2.2000000476837158203125</ele>
        <time>2019-07-09T09:08:49.000Z</time>
      </trkpt>
      <trkpt lat="43.48486161790788173675537109375" lon="-7.04575915820896625518798828125">
        <ele>4.19999980926513671875</ele>
        <time>2019-07-09T09:08:51.000Z</time>
      </trkpt>
      <trkpt lat="43.4850452654063701629638671875" lon="-7.04565991647541522979736328125">
        <ele>5.80000019073486328125</ele>
        <time>2019-07-09T09:08:52.000Z</time>
      </trkpt>
      <trkpt lat="43.485226817429065704345703125" lon="-7.045543827116489410400390625">
        <ele>7.400000095367431640625</ele>
        <time>2019-07-09T09:08:53.000Z</time>
      </trkpt>
      <trkpt lat="43.4855874069035053253173828125" lon="-7.04527753405272960662841796875">
        <ele>9</ele>
        <time>2019-07-09T09:08:55.000Z</time>
      </trkpt>
      <trkpt lat="43.48577105440199375152587890625" lon="-7.0451369695365428924560546875">
        <ele>10</ele>
        <time>2019-07-09T09:08:56.000Z</time>
      </trkpt>
      <trkpt lat="43.4863199852406978607177734375" lon="-7.0447079837322235107421875">
        <ele>9.3999996185302734375</ele>
        <time>2019-07-09T09:08:59.000Z</time>
      </trkpt>
      <trkpt lat="43.48649776540696620941162109375" lon="-7.04457043670117855072021484375">
        <ele>7.599999904632568359375</ele>
        <time>2019-07-09T09:09:00.000Z</time>
      </trkpt>
      <trkpt lat="43.48667152225971221923828125" lon="-7.04443641006946563720703125">
        <ele>6.19999980926513671875</ele>
        <time>2019-07-09T09:09:01.000Z</time>
      </trkpt>
      <trkpt lat="43.48684024997055530548095703125" lon="-7.0443034730851650238037109375">
        <ele>5</ele>
        <time>2019-07-09T09:09:02.000Z</time>
      </trkpt>
      <trkpt lat="43.48700135014951229095458984375" lon="-7.0441680215299129486083984375">
        <ele>3.7999999523162841796875</ele>
        <time>2019-07-09T09:09:03.000Z</time>
      </trkpt>
      <trkpt lat="43.4874290786683559417724609375" lon="-7.04374515451490879058837890625">
        <ele>5.19999980926513671875</ele>
        <time>2019-07-09T09:09:06.000Z</time>
      </trkpt>
      <trkpt lat="43.48755841143429279327392578125" lon="-7.04359352588653564453125">
        <ele>7.400000095367431640625</ele>
        <time>2019-07-09T09:09:07.000Z</time>
      </trkpt>
      <trkpt lat="43.48768564872443675994873046875" lon="-7.04343519173562526702880859375">
        <ele>9.80000019073486328125</ele>
        <time>2019-07-09T09:09:08.000Z</time>
      </trkpt>
      <trkpt lat="43.48781305365264415740966796875" lon="-7.043271325528621673583984375">
        <ele>11</ele>
        <time>2019-07-09T09:09:09.000Z</time>
      </trkpt>
      <trkpt lat="43.4879407100379467010498046875" lon="-7.043104358017444610595703125">
        <ele>12.3999996185302734375</ele>
        <time>2019-07-09T09:09:10.000Z</time>
      </trkpt>
      <trkpt lat="43.48833390511572360992431640625" lon="-7.04258727841079235076904296875">
        <ele>12.19999980926513671875</ele>
        <time>2019-07-09T09:09:13.000Z</time>
      </trkpt>
      <trkpt lat="43.48846868611872196197509765625" lon="-7.04241008497774600982666015625">
        <ele>11.19999980926513671875</ele>
        <time>2019-07-09T09:09:14.000Z</time>
      </trkpt>
      <trkpt lat="43.4886058978736400604248046875" lon="-7.04223029315471649169921875">
        <ele>10</ele>
        <time>2019-07-09T09:09:15.000Z</time>
      </trkpt>
      <trkpt lat="43.48874461837112903594970703125" lon="-7.04204949550330638885498046875">
        <ele>8.3999996185302734375</ele>
        <time>2019-07-09T09:09:16.000Z</time>
      </trkpt>
      <trkpt lat="43.4888831712305545806884765625" lon="-7.04186894930899143218994140625">
        <ele>6.80000019073486328125</ele>
        <time>2019-07-09T09:09:17.000Z</time>
      </trkpt>
      <trkpt lat="43.489021472632884979248046875" lon="-7.04168940894305706024169921875">
        <ele>5.599999904632568359375</ele>
        <time>2019-07-09T09:09:18.000Z</time>
      </trkpt>
      <trkpt lat="43.489297069609165191650390625" lon="-7.04132965765893459320068359375">
        <ele>3.599999904632568359375</ele>
        <time>2019-07-09T09:09:20.000Z</time>
      </trkpt>
      <trkpt lat="43.48957492969930171966552734375" lon="-7.04096370376646518707275390625">
        <ele>2.2000000476837158203125</ele>
        <time>2019-07-09T09:09:22.000Z</time>
      </trkpt>
      <trkpt lat="43.48999368958175182342529296875" lon="-7.04041066579520702362060546875">
        <ele>0.4000000059604644775390625</ele>
        <time>2019-07-09T09:09:25.000Z</time>
      </trkpt>
      <trkpt lat="43.49013132043182849884033203125" lon="-7.04023129306733608245849609375">
        <ele>-0.800000011920928955078125</ele>
        <time>2019-07-09T09:09:26.000Z</time>
      </trkpt>
      <trkpt lat="43.4905391000211238861083984375" lon="-7.0397125370800495147705078125">
        <ele>-0.60000002384185791015625</ele>
        <time>2019-07-09T09:09:29.000Z</time>
      </trkpt>
      <trkpt lat="43.490943945944309234619140625" lon="-7.03918321989476680755615234375">
        <ele>0.4000000059604644775390625</ele>
        <time>2019-07-09T09:09:32.000Z</time>
      </trkpt>
      <trkpt lat="43.491367399692535400390625" lon="-7.038636468350887298583984375">
        <ele>2.2000000476837158203125</ele>
        <time>2019-07-09T09:09:35.000Z</time>
      </trkpt>
      <trkpt lat="43.49151148460805416107177734375" lon="-7.03845198266208171844482421875">
        <ele>4.80000019073486328125</ele>
        <time>2019-07-09T09:09:36.000Z</time>
      </trkpt>
      <trkpt lat="43.491652719676494598388671875" lon="-7.03827001154422760009765625">
        <ele>7.599999904632568359375</ele>
        <time>2019-07-09T09:09:37.000Z</time>
      </trkpt>
      <trkpt lat="43.49179043434560298919677734375" lon="-7.03809323720633983612060546875">
        <ele>9.6000003814697265625</ele>
        <time>2019-07-09T09:09:38.000Z</time>
      </trkpt>
      <trkpt lat="43.49205580540001392364501953125" lon="-7.03774823807179927825927734375">
        <ele>11</ele>
        <time>2019-07-09T09:09:40.000Z</time>
      </trkpt>
      <trkpt lat="43.4923157282173633575439453125" lon="-7.0374169014394283294677734375">
        <ele>9.6000003814697265625</ele>
        <time>2019-07-09T09:09:42.000Z</time>
      </trkpt>
      <trkpt lat="43.4924474917352199554443359375" lon="-7.03725085593760013580322265625">
        <ele>8.6000003814697265625</ele>
        <time>2019-07-09T09:09:43.000Z</time>
      </trkpt>
      <trkpt lat="43.4927173890173435211181640625" lon="-7.036895714700222015380859375">
        <ele>5.19999980926513671875</ele>
        <time>2019-07-09T09:09:45.000Z</time>
      </trkpt>
      <trkpt lat="43.49286013282835483551025390625" lon="-7.03671257011592388153076171875">
        <ele>1.39999997615814208984375</ele>
        <time>2019-07-09T09:09:46.000Z</time>
      </trkpt>
      <trkpt lat="43.493005894124507904052734375" lon="-7.036526240408420562744140625">
        <ele>-4.400000095367431640625</ele>
        <time>2019-07-09T09:09:47.000Z</time>
      </trkpt>
      <trkpt lat="43.493154086172580718994140625" lon="-7.0363373123109340667724609375">
        <ele>-9.19999980926513671875</ele>
        <time>2019-07-09T09:09:48.000Z</time>
      </trkpt>
      <trkpt lat="43.493301607668399810791015625" lon="-7.03614494763314723968505859375">
        <ele>-13.19999980926513671875</ele>
        <time>2019-07-09T09:09:49.000Z</time>
      </trkpt>
      <trkpt lat="43.49344946444034576416015625" lon="-7.03595048747956752777099609375">
        <ele>-15.3999996185302734375</ele>
        <time>2019-07-09T09:09:50.000Z</time>
      </trkpt>
      <trkpt lat="43.4935984946787357330322265625" lon="-7.03575669787824153900146484375">
        <ele>-16.6000003814697265625</ele>
        <time>2019-07-09T09:09:51.000Z</time>
      </trkpt>
      <trkpt lat="43.49403862841427326202392578125" lon="-7.03519242815673351287841796875">
        <ele>-18</ele>
        <time>2019-07-09T09:09:54.000Z</time>
      </trkpt>
      <trkpt lat="43.49418346770107746124267578125" lon="-7.0350059308111667633056640625">
        <ele>-19</ele>
        <time>2019-07-09T09:09:55.000Z</time>
      </trkpt>
      <trkpt lat="43.4946244396269321441650390625" lon="-7.0344396494328975677490234375">
        <ele>-17.799999237060546875</ele>
        <time>2019-07-09T09:09:58.000Z</time>
      </trkpt>
      <trkpt lat="43.4949204884469509124755859375" lon="-7.0340537466108798980712890625">
        <ele>-16.200000762939453125</ele>
        <time>2019-07-09T09:10:00.000Z</time>
      </trkpt>
      <trkpt lat="43.49537202157080173492431640625" lon="-7.033467851579189300537109375">
        <ele>-15.80000019073486328125</ele>
        <time>2019-07-09T09:10:03.000Z</time>
      </trkpt>
      <trkpt lat="43.49567838013172149658203125" lon="-7.0330821163952350616455078125">
        <ele>-17.6000003814697265625</ele>
        <time>2019-07-09T09:10:05.000Z</time>
      </trkpt>
      <trkpt lat="43.49583487026393413543701171875" lon="-7.03289276920258998870849609375">
        <ele>-19.200000762939453125</ele>
        <time>2019-07-09T09:10:06.000Z</time>
      </trkpt>
      <trkpt lat="43.4959937073290348052978515625" lon="-7.0327079482376575469970703125">
        <ele>-21</ele>
        <time>2019-07-09T09:10:07.000Z</time>
      </trkpt>
      <trkpt lat="43.496494777500629425048828125" lon="-7.03219883143901824951171875">
        <ele>-20.3999996185302734375</ele>
        <time>2019-07-09T09:10:10.000Z</time>
      </trkpt>
      <trkpt lat="43.496666438877582550048828125" lon="-7.03204083256423473358154296875">
        <ele>-19.799999237060546875</ele>
        <time>2019-07-09T09:10:11.000Z</time>
      </trkpt>
      <trkpt lat="43.49717999808490276336669921875" lon="-7.03158770687878131866455078125">
        <ele>-17.799999237060546875</ele>
        <time>2019-07-09T09:10:14.000Z</time>
      </trkpt>
      <trkpt lat="43.49734604358673095703125" lon="-7.03144370578229427337646484375">
        <ele>-16.3999996185302734375</ele>
        <time>2019-07-09T09:10:15.000Z</time>
      </trkpt>
      <trkpt lat="43.497507981956005096435546875" lon="-7.0313011296093463897705078125">
        <ele>-14.3999996185302734375</ele>
        <time>2019-07-09T09:10:16.000Z</time>
      </trkpt>
      <trkpt lat="43.49767084233462810516357421875" lon="-7.0311589725315570831298828125">
        <ele>-12.80000019073486328125</ele>
        <time>2019-07-09T09:10:17.000Z</time>
      </trkpt>
      <trkpt lat="43.4978347085416316986083984375" lon="-7.0310148037970066070556640625">
        <ele>-11.6000003814697265625</ele>
        <time>2019-07-09T09:10:18.000Z</time>
      </trkpt>
      <trkpt lat="43.4981669671833515167236328125" lon="-7.0307214371860027313232421875">
        <ele>-10</ele>
        <time>2019-07-09T09:10:20.000Z</time>
      </trkpt>
      <trkpt lat="43.49851054139435291290283203125" lon="-7.030421532690525054931640625">
        <ele>-9</ele>
        <time>2019-07-09T09:10:22.000Z</time>
      </trkpt>
      <trkpt lat="43.49903726018965244293212890625" lon="-7.02996044419705867767333984375">
        <ele>-9.6000003814697265625</ele>
        <time>2019-07-09T09:10:25.000Z</time>
      </trkpt>
      <trkpt lat="43.499215543270111083984375" lon="-7.0298088155686855316162109375">
        <ele>-10.6000003814697265625</ele>
        <time>2019-07-09T09:10:26.000Z</time>
      </trkpt>
      <trkpt lat="43.49939323961734771728515625" lon="-7.029656432569026947021484375">
        <ele>-11.80000019073486328125</ele>
        <time>2019-07-09T09:10:27.000Z</time>
      </trkpt>
      <trkpt lat="43.499743938446044921875" lon="-7.02935032546520233154296875">
        <ele>-13.3999996185302734375</ele>
        <time>2019-07-09T09:10:29.000Z</time>
      </trkpt>
      <trkpt lat="43.5000904463231563568115234375" lon="-7.0290514267981052398681640625">
        <ele>-12</ele>
        <time>2019-07-09T09:10:31.000Z</time>
      </trkpt>
      <trkpt lat="43.500436283648014068603515625" lon="-7.0287510193884372711181640625">
        <ele>-10</ele>
        <time>2019-07-09T09:10:33.000Z</time>
      </trkpt>
      <trkpt lat="43.5006089508533477783203125" lon="-7.0285974629223346710205078125">
        <ele>-9</ele>
        <time>2019-07-09T09:10:34.000Z</time>
      </trkpt>
      <trkpt lat="43.5007831268012523651123046875" lon="-7.02844197861850261688232421875">
        <ele>-7.400000095367431640625</ele>
        <time>2019-07-09T09:10:35.000Z</time>
      </trkpt>
      <trkpt lat="43.500957973301410675048828125" lon="-7.0282883383333683013916015625">
        <ele>-5.80000019073486328125</ele>
        <time>2019-07-09T09:10:36.000Z</time>
      </trkpt>
      <trkpt lat="43.50113256834447383880615234375" lon="-7.02813788317143917083740234375">
        <ele>-3.7999999523162841796875</ele>
        <time>2019-07-09T09:10:37.000Z</time>
      </trkpt>
      <trkpt lat="43.5014751367270946502685546875" lon="-7.0278380624949932098388671875">
        <ele>-1.7999999523162841796875</ele>
        <time>2019-07-09T09:10:39.000Z</time>
      </trkpt>
      <trkpt lat="43.50164336152374744415283203125" lon="-7.02768811024725437164306640625">
        <ele>-0.4000000059604644775390625</ele>
        <time>2019-07-09T09:10:40.000Z</time>
      </trkpt>
      <trkpt lat="43.50197763182222843170166015625" lon="-7.02739390544593334197998046875">
        <ele>1.2000000476837158203125</ele>
        <time>2019-07-09T09:10:42.000Z</time>
      </trkpt>
      <trkpt lat="43.50230854935944080352783203125" lon="-7.0271054841578006744384765625">
        <ele>3.2000000476837158203125</ele>
        <time>2019-07-09T09:10:44.000Z</time>
      </trkpt>
      <trkpt lat="43.50247501395642757415771484375" lon="-7.02696408145129680633544921875">
        <ele>4.80000019073486328125</ele>
        <time>2019-07-09T09:10:45.000Z</time>
      </trkpt>
      <trkpt lat="43.50264097563922405242919921875" lon="-7.0268231816589832305908203125">
        <ele>7.19999980926513671875</ele>
        <time>2019-07-09T09:10:46.000Z</time>
      </trkpt>
      <trkpt lat="43.50280660204589366912841796875" lon="-7.02667859382927417755126953125">
        <ele>9</ele>
        <time>2019-07-09T09:10:47.000Z</time>
      </trkpt>
      <trkpt lat="43.50314036943018436431884765625" lon="-7.0263789407908916473388671875">
        <ele>11.3999996185302734375</ele>
        <time>2019-07-09T09:10:49.000Z</time>
      </trkpt>
      <trkpt lat="43.5033104382455348968505859375" lon="-7.02622555196285247802734375">
        <ele>12.6000003814697265625</ele>
        <time>2019-07-09T09:10:50.000Z</time>
      </trkpt>
      <trkpt lat="43.50383422337472438812255859375" lon="-7.02576379291713237762451171875">
        <ele>14</ele>
        <time>2019-07-09T09:10:53.000Z</time>
      </trkpt>
      <trkpt lat="43.504373095929622650146484375" lon="-7.025299854576587677001953125">
        <ele>15</ele>
        <time>2019-07-09T09:10:56.000Z</time>
      </trkpt>
      <trkpt lat="43.50455112755298614501953125" lon="-7.025143615901470184326171875">
        <ele>15.3999996185302734375</ele>
        <time>2019-07-09T09:10:57.000Z</time>
      </trkpt>
      <trkpt lat="43.50490517914295196533203125" lon="-7.0248349942266941070556640625">
        <ele>16.799999237060546875</ele>
        <time>2019-07-09T09:10:59.000Z</time>
      </trkpt>
      <trkpt lat="43.5054270364344120025634765625" lon="-7.02438044361770153045654296875">
        <ele>18</ele>
        <time>2019-07-09T09:11:02.000Z</time>
      </trkpt>
      <trkpt lat="43.50576725788414478302001953125" lon="-7.02409763820469379425048828125">
        <ele>19.3999996185302734375</ele>
        <time>2019-07-09T09:11:04.000Z</time>
      </trkpt>
      <trkpt lat="43.50626849569380283355712890625" lon="-7.0237547345459461212158203125">
        <ele>19.3999996185302734375</ele>
        <time>2019-07-09T09:11:07.000Z</time>
      </trkpt>
      <trkpt lat="43.5066243074834346771240234375" lon="-7.02358718030154705047607421875">
        <ele>21.3999996185302734375</ele>
        <time>2019-07-09T09:11:09.000Z</time>
      </trkpt>
      <trkpt lat="43.50720425136387348175048828125" lon="-7.023443765938282012939453125">
        <ele>23.3999996185302734375</ele>
        <time>2019-07-09T09:11:12.000Z</time>
      </trkpt>
      <trkpt lat="43.5074056684970855712890625" lon="-7.02342976815998554229736328125">
        <ele>24.3999996185302734375</ele>
        <time>2019-07-09T09:11:13.000Z</time>
      </trkpt>
      <trkpt lat="43.50780464708805084228515625" lon="-7.02344477176666259765625">
        <ele>25.799999237060546875</ele>
        <time>2019-07-09T09:11:15.000Z</time>
      </trkpt>
      <trkpt lat="43.5083664022386074066162109375" lon="-7.02359841205179691314697265625">
        <ele>27</ele>
        <time>2019-07-09T09:11:18.000Z</time>
      </trkpt>
      <trkpt lat="43.50873243995010852813720703125" lon="-7.0237594284117221832275390625">
        <ele>28.6000003814697265625</ele>
        <time>2019-07-09T09:11:20.000Z</time>
      </trkpt>
      <trkpt lat="43.50891432724893093109130859375" lon="-7.02384634874761104583740234375">
        <ele>29.6000003814697265625</ele>
        <time>2019-07-09T09:11:21.000Z</time>
      </trkpt>
      <trkpt lat="43.50928078405559062957763671875" lon="-7.02402303926646709442138671875">
        <ele>30.799999237060546875</ele>
        <time>2019-07-09T09:11:23.000Z</time>
      </trkpt>
      <trkpt lat="43.509842120110988616943359375" lon="-7.02429679222404956817626953125">
        <ele>30.6000003814697265625</ele>
        <time>2019-07-09T09:11:26.000Z</time>
      </trkpt>
      <trkpt lat="43.510421477258205413818359375" lon="-7.02457959763705730438232421875">
        <ele>29.799999237060546875</ele>
        <time>2019-07-09T09:11:29.000Z</time>
      </trkpt>
      <trkpt lat="43.5108139179646968841552734375" lon="-7.02476902864873409271240234375">
        <ele>28.200000762939453125</ele>
        <time>2019-07-09T09:11:31.000Z</time>
      </trkpt>
      <trkpt lat="43.51139612495899200439453125" lon="-7.0250505767762660980224609375">
        <ele>27.799999237060546875</ele>
        <time>2019-07-09T09:11:34.000Z</time>
      </trkpt>
      <trkpt lat="43.51158396340906620025634765625" lon="-7.02513967640697956085205078125">
        <ele>26.6000003814697265625</ele>
        <time>2019-07-09T09:11:35.000Z</time>
      </trkpt>
      <trkpt lat="43.5119572095572948455810546875" lon="-7.02530463226139545440673828125">
        <ele>25.6000003814697265625</ele>
        <time>2019-07-09T09:11:37.000Z</time>
      </trkpt>
      <trkpt lat="43.51251326501369476318359375" lon="-7.0255692489445209503173828125">
        <ele>24.3999996185302734375</ele>
        <time>2019-07-09T09:11:40.000Z</time>
      </trkpt>
      <trkpt lat="43.51305364631116390228271484375" lon="-7.02588633634150028228759765625">
        <ele>25.200000762939453125</ele>
        <time>2019-07-09T09:11:43.000Z</time>
      </trkpt>
      <trkpt lat="43.51321608759462833404541015625" lon="-7.02602027915418148040771484375">
        <ele>24.200000762939453125</ele>
        <time>2019-07-09T09:11:44.000Z</time>
      </trkpt>
      <trkpt lat="43.513501323759555816650390625" lon="-7.0263616740703582763671875">
        <ele>23.6000003814697265625</ele>
        <time>2019-07-09T09:11:46.000Z</time>
      </trkpt>
      <trkpt lat="43.5136205144226551055908203125" lon="-7.0265682041645050048828125">
        <ele>22.3999996185302734375</ele>
        <time>2019-07-09T09:11:47.000Z</time>
      </trkpt>
      <trkpt lat="43.5137221030890941619873046875" lon="-7.02679493464529514312744140625">
        <ele>21</ele>
        <time>2019-07-09T09:11:48.000Z</time>
      </trkpt>
      <trkpt lat="43.51386451162397861480712890625" lon="-7.02729650773108005523681640625">
        <ele>21.6000003814697265625</ele>
        <time>2019-07-09T09:11:50.000Z</time>
      </trkpt>
      <trkpt lat="43.51390390656888484954833984375" lon="-7.02756556682288646697998046875">
        <ele>22.6000003814697265625</ele>
        <time>2019-07-09T09:11:51.000Z</time>
      </trkpt>
      <trkpt lat="43.51396568119525909423828125" lon="-7.02841750346124172210693359375">
        <ele>21.3999996185302734375</ele>
        <time>2019-07-09T09:11:54.000Z</time>
      </trkpt>
      <trkpt lat="43.514002896845340728759765625" lon="-7.02899903990328311920166015625">
        <ele>19.3999996185302734375</ele>
        <time>2019-07-09T09:11:56.000Z</time>
      </trkpt>
      <trkpt lat="43.5140764899551868438720703125" lon="-7.02956892549991607666015625">
        <ele>18.3999996185302734375</ele>
        <time>2019-07-09T09:11:58.000Z</time>
      </trkpt>
      <trkpt lat="43.514136336743831634521484375" lon="-7.0298420079052448272705078125">
        <ele>19.6000003814697265625</ele>
        <time>2019-07-09T09:11:59.000Z</time>
      </trkpt>
      <trkpt lat="43.5142129473388195037841796875" lon="-7.03010528348386287689208984375">
        <ele>20.799999237060546875</ele>
        <time>2019-07-09T09:12:00.000Z</time>
      </trkpt>
      <trkpt lat="43.5143029689788818359375" lon="-7.0303559862077236175537109375">
        <ele>22.799999237060546875</ele>
        <time>2019-07-09T09:12:01.000Z</time>
      </trkpt>
      <trkpt lat="43.51440531201660633087158203125" lon="-7.0305920206010341644287109375">
        <ele>24.6000003814697265625</ele>
        <time>2019-07-09T09:12:02.000Z</time>
      </trkpt>
      <trkpt lat="43.5146548412740230560302734375" lon="-7.03101187013089656829833984375">
        <ele>26.3999996185302734375</ele>
        <time>2019-07-09T09:12:04.000Z</time>
      </trkpt>
      <trkpt lat="43.51512481458485126495361328125" lon="-7.03152433969080448150634765625">
        <ele>26.200000762939453125</ele>
        <time>2019-07-09T09:12:07.000Z</time>
      </trkpt>
      <trkpt lat="43.5154859907925128936767578125" lon="-7.03176154755055904388427734375">
        <ele>25.799999237060546875</ele>
        <time>2019-07-09T09:12:09.000Z</time>
      </trkpt>
      <trkpt lat="43.51586191914975643157958984375" lon="-7.0318922214210033416748046875">
        <ele>25</ele>
        <time>2019-07-09T09:12:11.000Z</time>
      </trkpt>
      <trkpt lat="43.51644001901149749755859375" lon="-7.0319391600787639617919921875">
        <ele>25.3999996185302734375</ele>
        <time>2019-07-09T09:12:14.000Z</time>
      </trkpt>
      <trkpt lat="43.51700194180011749267578125" lon="-7.03183128498494625091552734375">
        <ele>25.3999996185302734375</ele>
        <time>2019-07-09T09:12:17.000Z</time>
      </trkpt>
      <trkpt lat="43.5174745135009288787841796875" lon="-7.0317019522190093994140625">
        <ele>24.200000762939453125</ele>
        <time>2019-07-09T09:12:20.000Z</time>
      </trkpt>
      <trkpt lat="43.51761482656002044677734375" lon="-7.0316602103412151336669921875">
        <ele>23.3999996185302734375</ele>
        <time>2019-07-09T09:12:21.000Z</time>
      </trkpt>
      <trkpt lat="43.51800181902945041656494140625" lon="-7.03155116178095340728759765625">
        <ele>22.200000762939453125</ele>
        <time>2019-07-09T09:12:24.000Z</time>
      </trkpt>
      <trkpt lat="43.51849786005914211273193359375" lon="-7.0314283668994903564453125">
        <ele>23</ele>
        <time>2019-07-09T09:12:28.000Z</time>
      </trkpt>
      <trkpt lat="43.5189631395041942596435546875" lon="-7.03128797002136707305908203125">
        <ele>22</ele>
        <time>2019-07-09T09:12:32.000Z</time>
      </trkpt>
      <trkpt lat="43.5192038677632808685302734375" lon="-7.0312203280627727508544921875">
        <ele>21</ele>
        <time>2019-07-09T09:12:34.000Z</time>
      </trkpt>
      <trkpt lat="43.5194556601345539093017578125" lon="-7.03114178963005542755126953125">
        <ele>20.3999996185302734375</ele>
        <time>2019-07-09T09:12:36.000Z</time>
      </trkpt>
      <trkpt lat="43.5195840708911418914794921875" lon="-7.03109283931553363800048828125">
        <ele>19.799999237060546875</ele>
        <time>2019-07-09T09:12:37.000Z</time>
      </trkpt>
      <trkpt lat="43.51995999924838542938232421875" lon="-7.03089033253490924835205078125">
        <ele>18.200000762939453125</ele>
        <time>2019-07-09T09:12:40.000Z</time>
      </trkpt>
      <trkpt lat="43.52021933533251285552978515625" lon="-7.03071498312056064605712890625">
        <ele>17</ele>
        <time>2019-07-09T09:12:42.000Z</time>
      </trkpt>
      <trkpt lat="43.52048755623400211334228515625" lon="-7.03052286989986896514892578125">
        <ele>15.6000003814697265625</ele>
        <time>2019-07-09T09:12:44.000Z</time>
      </trkpt>
      <trkpt lat="43.5208882950246334075927734375" lon="-7.0302460156381130218505859375">
        <ele>14.3999996185302734375</ele>
        <time>2019-07-09T09:12:47.000Z</time>
      </trkpt>
      <trkpt lat="43.5211479663848876953125" lon="-7.03009388409554958343505859375">
        <ele>13</ele>
        <time>2019-07-09T09:12:49.000Z</time>
      </trkpt>
      <trkpt lat="43.52127193473279476165771484375" lon="-7.03002314083278179168701171875">
        <ele>12</ele>
        <time>2019-07-09T09:12:50.000Z</time>
      </trkpt>
      <trkpt lat="43.5213979147374629974365234375" lon="-7.02995390631258487701416015625">
        <ele>11</ele>
        <time>2019-07-09T09:12:51.000Z</time>
      </trkpt>
      <trkpt lat="43.521653227508068084716796875" lon="-7.02982398681342601776123046875">
        <ele>9</ele>
        <time>2019-07-09T09:12:53.000Z</time>
      </trkpt>
      <trkpt lat="43.5219051875174045562744140625" lon="-7.0296902954578399658203125">
        <ele>7</ele>
        <time>2019-07-09T09:12:55.000Z</time>
      </trkpt>
      <trkpt lat="43.5221564769744873046875" lon="-7.02955509535968303680419921875">
        <ele>6</ele>
        <time>2019-07-09T09:12:57.000Z</time>
      </trkpt>
      <trkpt lat="43.52269224822521209716796875" lon="-7.02927790582180023193359375">
        <ele>4.400000095367431640625</ele>
        <time>2019-07-09T09:13:01.000Z</time>
      </trkpt>
      <trkpt lat="43.52297119796276092529296875" lon="-7.02912904322147369384765625">
        <ele>2.400000095367431640625</ele>
        <time>2019-07-09T09:13:03.000Z</time>
      </trkpt>
      <trkpt lat="43.5231071524322032928466796875" lon="-7.02905704267323017120361328125">
        <ele>1.39999997615814208984375</ele>
        <time>2019-07-09T09:13:04.000Z</time>
      </trkpt>
      <trkpt lat="43.52323933504521846771240234375" lon="-7.02898579649627208709716796875">
        <ele>0.4000000059604644775390625</ele>
        <time>2019-07-09T09:13:05.000Z</time>
      </trkpt>
      <trkpt lat="43.5234907083213329315185546875" lon="-7.0288360118865966796875">
        <ele>-1.39999997615814208984375</ele>
        <time>2019-07-09T09:13:07.000Z</time>
      </trkpt>
      <trkpt lat="43.52371777407824993133544921875" lon="-7.028659991919994354248046875">
        <ele>-3.400000095367431640625</ele>
        <time>2019-07-09T09:13:09.000Z</time>
      </trkpt>
      <trkpt lat="43.52392028085887432098388671875" lon="-7.028449438512325286865234375">
        <ele>-4.400000095367431640625</ele>
        <time>2019-07-09T09:13:11.000Z</time>
      </trkpt>
      <trkpt lat="43.5241828858852386474609375" lon="-7.02805272303521633148193359375">
        <ele>-5.80000019073486328125</ele>
        <time>2019-07-09T09:13:14.000Z</time>
      </trkpt>
      <trkpt lat="43.52438069880008697509765625" lon="-7.02758316881954669952392578125">
        <ele>-7</ele>
        <time>2019-07-09T09:13:17.000Z</time>
      </trkpt>
      <trkpt lat="43.5245387814939022064208984375" lon="-7.0269522629678249359130859375">
        <ele>-8.3999996185302734375</ele>
        <time>2019-07-09T09:13:21.000Z</time>
      </trkpt>
      <trkpt lat="43.52462151087820529937744140625" lon="-7.02637164853513240814208984375">
        <ele>-7.80000019073486328125</ele>
        <time>2019-07-09T09:13:26.000Z</time>
      </trkpt>
      <trkpt lat="43.52461866103112697601318359375" lon="-7.0263128913938999176025390625">
        <ele>-7.400000095367431640625</ele>
        <time>2019-07-09T09:13:27.000Z</time>
      </trkpt>
      <trkpt lat="43.52458697743713855743408203125" lon="-7.026236616075038909912109375">
        <ele>-6</ele>
        <time>2019-07-09T09:13:30.000Z</time>
      </trkpt>
      <trkpt lat="43.524582199752330780029296875" lon="-7.0262035913765430450439453125">
        <ele>-4.599999904632568359375</ele>
        <time>2019-07-09T09:13:32.000Z</time>
      </trkpt>
      <trkpt lat="43.524600304663181304931640625" lon="-7.02625237405300140380859375">
        <ele>-4</ele>
        <time>2019-07-09T09:14:23.000Z</time>
      </trkpt>
      <trkpt lat="43.52463140152394771575927734375" lon="-7.0263960398733615875244140625">
        <ele>-4</ele>
        <time>2019-07-09T09:14:25.000Z</time>
      </trkpt>
      <trkpt lat="43.524554707109928131103515625" lon="-7.0270518399775028228759765625">
        <ele>-5</ele>
        <time>2019-07-09T09:14:30.000Z</time>
      </trkpt>
      <trkpt lat="43.52452662773430347442626953125" lon="-7.0272640697658061981201171875">
        <ele>-6</ele>
        <time>2019-07-09T09:14:32.000Z</time>
      </trkpt>
      <trkpt lat="43.52453819476068019866943359375" lon="-7.027440257370471954345703125">
        <ele>-6.599999904632568359375</ele>
        <time>2019-07-09T09:14:34.000Z</time>
      </trkpt>
      <trkpt lat="43.5245941020548343658447265625" lon="-7.02757813967764377593994140625">
        <ele>-7.19999980926513671875</ele>
        <time>2019-07-09T09:14:36.000Z</time>
      </trkpt>
      <trkpt lat="43.52478898130357265472412109375" lon="-7.02796119265258312225341796875">
        <ele>-7.19999980926513671875</ele>
        <time>2019-07-09T09:15:26.000Z</time>
      </trkpt>
      <trkpt lat="43.52473299019038677215576171875" lon="-7.02801458537578582763671875">
        <ele>-7.19999980926513671875</ele>
        <time>2019-07-09T09:15:55.000Z</time>
      </trkpt>
      <trkpt lat="43.5247191600501537322998046875" lon="-7.028007209300994873046875">
        <ele>-7.19999980926513671875</ele>
        <time>2019-07-09T09:15:59.000Z</time>
      </trkpt>
      <trkpt lat="43.52472578175365924835205078125" lon="-7.0280261524021625518798828125">
        <ele>-7.400000095367431640625</ele>
        <time>2019-07-09T09:17:02.000Z</time>
      </trkpt>
      <trkpt lat="43.52471019141376018524169921875" lon="-7.02800310216844081878662109375">
        <ele>-7.400000095367431640625</ele>
        <time>2019-07-09T09:17:49.000Z</time>
      </trkpt>
      <trkpt lat="43.52472796104848384857177734375" lon="-7.0280164293944835662841796875">
        <ele>-7.400000095367431640625</ele>
        <time>2019-07-09T09:19:58.000Z</time>
      </trkpt>
      <trkpt lat="43.524922169744968414306640625" lon="-7.02790536917746067047119140625">
        <ele>-7.400000095367431640625</ele>
        <time>2019-07-09T09:22:50.000Z</time>
      </trkpt>
      <trkpt lat="43.52518376894295215606689453125" lon="-7.02777444384992122650146484375">
        <ele>-7.400000095367431640625</ele>
        <time>2019-07-09T09:23:18.000Z</time>
      </trkpt>
      <trkpt lat="43.525258116424083709716796875" lon="-7.02773253433406352996826171875">
        <ele>-7.80000019073486328125</ele>
        <time>2019-07-09T09:23:27.000Z</time>
      </trkpt>
      <trkpt lat="43.52527412585914134979248046875" lon="-7.02772599644958972930908203125">
        <ele>-8.3999996185302734375</ele>
        <time>2019-07-09T09:23:30.000Z</time>
      </trkpt>
      <trkpt lat="43.525480739772319793701171875" lon="-7.0276697538793087005615234375">
        <ele>-9.3999996185302734375</ele>
        <time>2019-07-09T09:23:53.000Z</time>
      </trkpt>
      <trkpt lat="43.52557050995528697967529296875" lon="-7.02747671864926815032958984375">
        <ele>-10.3999996185302734375</ele>
        <time>2019-07-09T09:24:12.000Z</time>
      </trkpt>
      <trkpt lat="43.52560739032924175262451171875" lon="-7.02746079303324222564697265625">
        <ele>-10.3999996185302734375</ele>
        <time>2019-07-09T09:24:37.000Z</time>
      </trkpt>
      <trkpt lat="43.525629602372646331787109375" lon="-7.02744939364492893218994140625">
        <ele>-10.3999996185302734375</ele>
        <time>2019-07-09T09:24:39.000Z</time>
      </trkpt>
      <trkpt lat="43.5257734358310699462890625" lon="-7.02753958292305469512939453125">
        <ele>-11.3999996185302734375</ele>
        <time>2019-07-09T09:24:54.000Z</time>
      </trkpt>
      <trkpt lat="43.52582330815494060516357421875" lon="-7.02756623737514019012451171875">
        <ele>-11.6000003814697265625</ele>
        <time>2019-07-09T09:24:58.000Z</time>
      </trkpt>
      <trkpt lat="43.52587603032588958740234375" lon="-7.02759222127497196197509765625">
        <ele>-11.80000019073486328125</ele>
        <time>2019-07-09T09:25:03.000Z</time>
      </trkpt>
      <trkpt lat="43.52592657320201396942138671875" lon="-7.02762071974575519561767578125">
        <ele>-12.6000003814697265625</ele>
        <time>2019-07-09T09:25:10.000Z</time>
      </trkpt>
      <trkpt lat="43.52598524652421474456787109375" lon="-7.02764066867530345916748046875">
        <ele>-13</ele>
        <time>2019-07-09T09:25:15.000Z</time>
      </trkpt>
      <trkpt lat="43.52632387541234493255615234375" lon="-7.02775315381586551666259765625">
        <ele>-13.19999980926513671875</ele>
        <time>2019-07-09T09:25:56.000Z</time>
      </trkpt>
      <trkpt lat="43.5263459198176860809326171875" lon="-7.02776254154741764068603515625">
        <ele>-13.19999980926513671875</ele>
        <time>2019-07-09T09:25:58.000Z</time>
      </trkpt>
      <trkpt lat="43.5264334268867969512939453125" lon="-7.027819789946079254150390625">
        <ele>-13.3999996185302734375</ele>
        <time>2019-07-09T09:26:07.000Z</time>
      </trkpt>
      <trkpt lat="43.52656074799597263336181640625" lon="-7.02786798588931560516357421875">
        <ele>-13.3999996185302734375</ele>
        <time>2019-07-09T09:26:20.000Z</time>
      </trkpt>
      <trkpt lat="43.526598550379276275634765625" lon="-7.0278905332088470458984375">
        <ele>-13.3999996185302734375</ele>
        <time>2019-07-09T09:26:25.000Z</time>
      </trkpt>
      <trkpt lat="43.52668664418160915374755859375" lon="-7.0279500447213649749755859375">
        <ele>-13.6000003814697265625</ele>
        <time>2019-07-09T09:26:38.000Z</time>
      </trkpt>
      <trkpt lat="43.52670508436858654022216796875" lon="-7.027972675859928131103515625">
        <ele>-13.6000003814697265625</ele>
        <time>2019-07-09T09:26:41.000Z</time>
      </trkpt>
      <trkpt lat="43.52710372768342494964599609375" lon="-7.02826545573770999908447265625">
        <ele>-14</ele>
        <time>2019-07-09T09:27:53.000Z</time>
      </trkpt>
      <trkpt lat="43.52714530192315578460693359375" lon="-7.02828540466725826263427734375">
        <ele>-14</ele>
        <time>2019-07-09T09:27:57.000Z</time>
      </trkpt>
      <trkpt lat="43.5271971859037876129150390625" lon="-7.02827417291700839996337890625">
        <ele>-13.19999980926513671875</ele>
        <time>2019-07-09T09:28:52.000Z</time>
      </trkpt>
      <trkpt lat="43.527314029633998870849609375" lon="-7.02834449708461761474609375">
        <ele>-13.6000003814697265625</ele>
        <time>2019-07-09T09:29:58.000Z</time>
      </trkpt>
      <trkpt lat="43.52763019502162933349609375" lon="-7.0287138037383556365966796875">
        <ele>-14</ele>
        <time>2019-07-09T09:30:58.000Z</time>
      </trkpt>
      <trkpt lat="43.52778182365000247955322265625" lon="-7.02887565828859806060791015625">
        <ele>-13.80000019073486328125</ele>
        <time>2019-07-09T09:31:18.000Z</time>
      </trkpt>
      <trkpt lat="43.5280573368072509765625" lon="-7.029121331870555877685546875">
        <ele>-13.6000003814697265625</ele>
        <time>2019-07-09T09:32:39.000Z</time>
      </trkpt>
      <trkpt lat="43.52824919857084751129150390625" lon="-7.029306404292583465576171875">
        <ele>-13.6000003814697265625</ele>
        <time>2019-07-09T09:33:09.000Z</time>
      </trkpt>
      <trkpt lat="43.52827015332877635955810546875" lon="-7.029319144785404205322265625">
        <ele>-13.80000019073486328125</ele>
        <time>2019-07-09T09:33:12.000Z</time>
      </trkpt>
      <trkpt lat="43.5284636914730072021484375" lon="-7.02946993522346019744873046875">
        <ele>-14</ele>
        <time>2019-07-09T09:33:35.000Z</time>
      </trkpt>
      <trkpt lat="43.52856603451073169708251953125" lon="-7.02961494214832782745361328125">
        <ele>-14</ele>
        <time>2019-07-09T09:33:50.000Z</time>
      </trkpt>
      <trkpt lat="43.52865924127399921417236328125" lon="-7.0297645591199398040771484375">
        <ele>-14</ele>
        <time>2019-07-09T09:34:07.000Z</time>
      </trkpt>
      <trkpt lat="43.52872244082391262054443359375" lon="-7.02987628988921642303466796875">
        <ele>-14.19999980926513671875</ele>
        <time>2019-07-09T09:34:18.000Z</time>
      </trkpt>
      <trkpt lat="43.52879016660153865814208984375" lon="-7.0298802293837070465087890625">
        <ele>-14.19999980926513671875</ele>
        <time>2019-07-09T09:34:24.000Z</time>
      </trkpt>
      <trkpt lat="43.5288628377020359039306640625" lon="-7.02988517470657825469970703125">
        <ele>-14.19999980926513671875</ele>
        <time>2019-07-09T09:34:32.000Z</time>
      </trkpt>
      <trkpt lat="43.52889242582023143768310546875" lon="-7.0299067161977291107177734375">
        <ele>-14.19999980926513671875</ele>
        <time>2019-07-09T09:34:34.000Z</time>
      </trkpt>
      <trkpt lat="43.5289748199284076690673828125" lon="-7.02989305369555950164794921875">
        <ele>-14</ele>
        <time>2019-07-09T09:34:42.000Z</time>
      </trkpt>
      <trkpt lat="43.52901832200586795806884765625" lon="-7.02990395016968250274658203125">
        <ele>-14.19999980926513671875</ele>
        <time>2019-07-09T09:34:45.000Z</time>
      </trkpt>
      <trkpt lat="43.52912829257547855377197265625" lon="-7.0298597775399684906005859375">
        <ele>-14.19999980926513671875</ele>
        <time>2019-07-09T09:34:57.000Z</time>
      </trkpt>
      <trkpt lat="43.52946340106427669525146484375" lon="-7.0298664830625057220458984375">
        <ele>-14.19999980926513671875</ele>
        <time>2019-07-09T09:36:00.000Z</time>
      </trkpt>
      <trkpt lat="43.52949189953505992889404296875" lon="-7.02992842532694339752197265625">
        <ele>-14.3999996185302734375</ele>
        <time>2019-07-09T09:36:06.000Z</time>
      </trkpt>
      <trkpt lat="43.52947496809065341949462890625" lon="-7.0301199518144130706787109375">
        <ele>-14.6000003814697265625</ele>
        <time>2019-07-09T09:38:37.000Z</time>
      </trkpt>
      <trkpt lat="43.52947412990033626556396484375" lon="-7.0301564969122409820556640625">
        <ele>-14.3999996185302734375</ele>
        <time>2019-07-09T09:38:40.000Z</time>
      </trkpt>
      <trkpt lat="43.52935192175209522247314453125" lon="-7.030314244329929351806640625">
        <ele>-14.3999996185302734375</ele>
        <time>2019-07-09T09:39:10.000Z</time>
      </trkpt>
      <trkpt lat="43.5293345712125301361083984375" lon="-7.030371911823749542236328125">
        <ele>-14.3999996185302734375</ele>
        <time>2019-07-09T09:39:17.000Z</time>
      </trkpt>
      <trkpt lat="43.52931973524391651153564453125" lon="-7.030401416122913360595703125">
        <ele>-14.3999996185302734375</ele>
        <time>2019-07-09T09:39:20.000Z</time>
      </trkpt>
      <trkpt lat="43.52924882434308528900146484375" lon="-7.03054533340036869049072265625">
        <ele>-14.3999996185302734375</ele>
        <time>2019-07-09T09:39:35.000Z</time>
      </trkpt>
      <trkpt lat="43.52918855845928192138671875" lon="-7.03062596730887889862060546875">
        <ele>-14.3999996185302734375</ele>
        <time>2019-07-09T09:39:44.000Z</time>
      </trkpt>
      <trkpt lat="43.5291461460292339324951171875" lon="-7.03068715520203113555908203125">
        <ele>-14.3999996185302734375</ele>
        <time>2019-07-09T09:39:52.000Z</time>
      </trkpt>
      <trkpt lat="43.52908235974609851837158203125" lon="-7.030760832130908966064453125">
        <ele>-14.3999996185302734375</ele>
        <time>2019-07-09T09:40:01.000Z</time>
      </trkpt>
      <trkpt lat="43.52901329286396503448486328125" lon="-7.030825205147266387939453125">
        <ele>-14.19999980926513671875</ele>
        <time>2019-07-09T09:40:13.000Z</time>
      </trkpt>
      <trkpt lat="43.52878446690738201141357421875" lon="-7.0310278795659542083740234375">
        <ele>-14.3999996185302734375</ele>
        <time>2019-07-09T09:40:43.000Z</time>
      </trkpt>
      <trkpt lat="43.52845455519855022430419921875" lon="-7.03124673105776309967041015625">
        <ele>-15</ele>
        <time>2019-07-09T09:41:25.000Z</time>
      </trkpt>
      <trkpt lat="43.5280608572065830230712890625" lon="-7.03146415762603282928466796875">
        <ele>-15.19999980926513671875</ele>
        <time>2019-07-09T09:42:11.000Z</time>
      </trkpt>
      <trkpt lat="43.52764754556119441986083984375" lon="-7.03163514845073223114013671875">
        <ele>-15.19999980926513671875</ele>
        <time>2019-07-09T09:43:19.000Z</time>
      </trkpt>
      <trkpt lat="43.5276858508586883544921875" lon="-7.0316350646317005157470703125">
        <ele>-15</ele>
        <time>2019-07-09T09:45:23.000Z</time>
      </trkpt>
      <trkpt lat="43.5277064703404903411865234375" lon="-7.031618468463420867919921875">
        <ele>-14.80000019073486328125</ele>
        <time>2019-07-09T09:45:26.000Z</time>
      </trkpt>
      <trkpt lat="43.5277289338409900665283203125" lon="-7.031612098217010498046875">
        <ele>-14.80000019073486328125</ele>
        <time>2019-07-09T09:45:30.000Z</time>
      </trkpt>
      <trkpt lat="43.5277502238750457763671875" lon="-7.0316199772059917449951171875">
        <ele>-14.80000019073486328125</ele>
        <time>2019-07-09T09:45:32.000Z</time>
      </trkpt>
      <trkpt lat="43.52776740677654743194580078125" lon="-7.03160782344639301300048828125">
        <ele>-14.80000019073486328125</ele>
        <time>2019-07-09T09:45:34.000Z</time>
      </trkpt>
      <trkpt lat="43.52780177257955074310302734375" lon="-7.0315195620059967041015625">
        <ele>-14.6000003814697265625</ele>
        <time>2019-07-09T09:45:46.000Z</time>
      </trkpt>
      <trkpt lat="43.5278013534843921661376953125" lon="-7.03148762695491313934326171875">
        <ele>-14.6000003814697265625</ele>
        <time>2019-07-09T09:45:49.000Z</time>
      </trkpt>
      <trkpt lat="43.5278184525668621063232421875" lon="-7.03145694918930530548095703125">
        <ele>-14.3999996185302734375</ele>
        <time>2019-07-09T09:45:52.000Z</time>
      </trkpt>
      <trkpt lat="43.527830354869365692138671875" lon="-7.03141604550182819366455078125">
        <ele>-13.6000003814697265625</ele>
        <time>2019-07-09T09:46:02.000Z</time>
      </trkpt>
      <trkpt lat="43.527849130332469940185546875" lon="-7.0313666760921478271484375">
        <ele>-13.19999980926513671875</ele>
        <time>2019-07-09T09:46:12.000Z</time>
      </trkpt>
      <trkpt lat="43.527889363467693328857421875" lon="-7.031357288360595703125">
        <ele>-12.6000003814697265625</ele>
        <time>2019-07-09T09:46:17.000Z</time>
      </trkpt>
      <trkpt lat="43.52789816446602344512939453125" lon="-7.031345553696155548095703125">
        <ele>-12.3999996185302734375</ele>
        <time>2019-07-09T09:46:19.000Z</time>
      </trkpt>
      <trkpt lat="43.527918867766857147216796875" lon="-7.0313222520053386688232421875">
        <ele>-11.80000019073486328125</ele>
        <time>2019-07-09T09:46:24.000Z</time>
      </trkpt>
      <trkpt lat="43.5279569216072559356689453125" lon="-7.031294591724872589111328125">
        <ele>-11.6000003814697265625</ele>
        <time>2019-07-09T09:46:28.000Z</time>
      </trkpt>
      <trkpt lat="43.5279787145555019378662109375" lon="-7.0312541909515857696533203125">
        <ele>-11</ele>
        <time>2019-07-09T09:46:33.000Z</time>
      </trkpt>
      <trkpt lat="43.5279968194663524627685546875" lon="-7.03123449347913265228271484375">
        <ele>-10.80000019073486328125</ele>
        <time>2019-07-09T09:46:35.000Z</time>
      </trkpt>
      <trkpt lat="43.52802724577486515045166015625" lon="-7.03122359700500965118408203125">
        <ele>-10.3999996185302734375</ele>
        <time>2019-07-09T09:46:38.000Z</time>
      </trkpt>
      <trkpt lat="43.52804820053279399871826171875" lon="-7.031209431588649749755859375">
        <ele>-10</ele>
        <time>2019-07-09T09:46:42.000Z</time>
      </trkpt>
      <trkpt lat="43.528059013187885284423828125" lon="-7.03119744546711444854736328125">
        <ele>-9.80000019073486328125</ele>
        <time>2019-07-09T09:46:45.000Z</time>
      </trkpt>
      <trkpt lat="43.528087176382541656494140625" lon="-7.03116676770150661468505859375">
        <ele>-9.6000003814697265625</ele>
        <time>2019-07-09T09:46:48.000Z</time>
      </trkpt>
      <trkpt lat="43.528094552457332611083984375" lon="-7.0311629958450794219970703125">
        <ele>-9.3999996185302734375</ele>
        <time>2019-07-09T09:46:49.000Z</time>
      </trkpt>
      <trkpt lat="43.52814920246601104736328125" lon="-7.0311334915459156036376953125">
        <ele>-8.6000003814697265625</ele>
        <time>2019-07-09T09:46:56.000Z</time>
      </trkpt>
      <trkpt lat="43.52815800346434116363525390625" lon="-7.03111781738698482513427734375">
        <ele>-8.3999996185302734375</ele>
        <time>2019-07-09T09:47:00.000Z</time>
      </trkpt>
      <trkpt lat="43.528228662908077239990234375" lon="-7.03107020817697048187255859375">
        <ele>-7.19999980926513671875</ele>
        <time>2019-07-09T09:47:14.000Z</time>
      </trkpt>
      <trkpt lat="43.528235368430614471435546875" lon="-7.0310661010444164276123046875">
        <ele>-7.19999980926513671875</ele>
        <time>2019-07-09T09:47:15.000Z</time>
      </trkpt>
      <trkpt lat="43.52828809060156345367431640625" lon="-7.031008936464786529541015625">
        <ele>-6.19999980926513671875</ele>
        <time>2019-07-09T09:47:22.000Z</time>
      </trkpt>
      <trkpt lat="43.5283126495778560638427734375" lon="-7.03099586069583892822265625">
        <ele>-6</ele>
        <time>2019-07-09T09:47:25.000Z</time>
      </trkpt>
      <trkpt lat="43.52834391407668590545654296875" lon="-7.0309765823185443878173828125">
        <ele>-5.400000095367431640625</ele>
        <time>2019-07-09T09:47:29.000Z</time>
      </trkpt>
      <trkpt lat="43.52835665456950664520263671875" lon="-7.03096828423440456390380859375">
        <ele>-5.19999980926513671875</ele>
        <time>2019-07-09T09:47:31.000Z</time>
      </trkpt>
      <trkpt lat="43.5284165851771831512451171875" lon="-7.0309202559292316436767578125">
        <ele>-4.19999980926513671875</ele>
        <time>2019-07-09T09:47:42.000Z</time>
      </trkpt>
      <trkpt lat="43.52844164706766605377197265625" lon="-7.03090072609484195709228515625">
        <ele>-3.599999904632568359375</ele>
        <time>2019-07-09T09:47:46.000Z</time>
      </trkpt>
      <trkpt lat="43.52848674170672893524169921875" lon="-7.0308458246290683746337890625">
        <ele>-3.2000000476837158203125</ele>
        <time>2019-07-09T09:47:52.000Z</time>
      </trkpt>
      <trkpt lat="43.52849160321056842803955078125" lon="-7.0308283902704715728759765625">
        <ele>-3</ele>
        <time>2019-07-09T09:47:54.000Z</time>
      </trkpt>
      <trkpt lat="43.52849763818085193634033203125" lon="-7.0307395420968532562255859375">
        <ele>-2.2000000476837158203125</ele>
        <time>2019-07-09T09:48:01.000Z</time>
      </trkpt>
      <trkpt lat="43.52849344722926616668701171875" lon="-7.03072705306112766265869140625">
        <ele>-2</ele>
        <time>2019-07-09T09:48:02.000Z</time>
      </trkpt>
      <trkpt lat="43.52848112583160400390625" lon="-7.03068497590720653533935546875">
        <ele>-1.39999997615814208984375</ele>
        <time>2019-07-09T09:48:07.000Z</time>
      </trkpt>
      <trkpt lat="43.52846972644329071044921875" lon="-7.030664272606372833251953125">
        <ele>-1</ele>
        <time>2019-07-09T09:48:10.000Z</time>
      </trkpt>
      <trkpt lat="43.5283548943698406219482421875" lon="-7.03064792789518833160400390625">
        <ele>0</ele>
        <time>2019-07-09T09:48:21.000Z</time>
      </trkpt>
      <trkpt lat="43.5282730869948863983154296875" lon="-7.0306563936173915863037109375">
        <ele>1</ele>
        <time>2019-07-09T09:48:35.000Z</time>
      </trkpt>
      <trkpt lat="43.52815012447535991668701171875" lon="-7.03070274554193019866943359375">
        <ele>2</ele>
        <time>2019-07-09T09:48:45.000Z</time>
      </trkpt>
      <trkpt lat="43.52807133458554744720458984375" lon="-7.030686400830745697021484375">
        <ele>3.2000000476837158203125</ele>
        <time>2019-07-09T09:48:56.000Z</time>
      </trkpt>
      <trkpt lat="43.52803411893546581268310546875" lon="-7.03061901032924652099609375">
        <ele>4.19999980926513671875</ele>
        <time>2019-07-09T09:49:03.000Z</time>
      </trkpt>
      <trkpt lat="43.52798961102962493896484375" lon="-7.030601911246776580810546875">
        <ele>5</ele>
        <time>2019-07-09T09:49:10.000Z</time>
      </trkpt>
      <trkpt lat="43.52797108702361583709716796875" lon="-7.03059596009552478790283203125">
        <ele>5.19999980926513671875</ele>
        <time>2019-07-09T09:49:14.000Z</time>
      </trkpt>
      <trkpt lat="43.52793571539223194122314453125" lon="-7.030601240694522857666015625">
        <ele>6</ele>
        <time>2019-07-09T09:49:20.000Z</time>
      </trkpt>
      <trkpt lat="43.52792263962328433990478515625" lon="-7.0305896736681461334228515625">
        <ele>6.19999980926513671875</ele>
        <time>2019-07-09T09:49:22.000Z</time>
      </trkpt>
      <trkpt lat="43.52790386416018009185791015625" lon="-7.03057433478534221649169921875">
        <ele>6.599999904632568359375</ele>
        <time>2019-07-09T09:49:25.000Z</time>
      </trkpt>
      <trkpt lat="43.52785726077854633331298828125" lon="-7.03056536614894866943359375">
        <ele>7.19999980926513671875</ele>
        <time>2019-07-09T09:49:30.000Z</time>
      </trkpt>
      <trkpt lat="43.52473382838070392608642578125" lon="-7.02797510661184787750244140625">
        <ele>13.80000019073486328125</ele>
        <time>2019-07-09T10:12:55.000Z</time>
      </trkpt>
      <trkpt lat="43.524780683219432830810546875" lon="-7.02799337916076183319091796875">
        <ele>14</ele>
        <time>2019-07-09T10:13:58.000Z</time>
      </trkpt>
      <trkpt lat="43.5247456468641757965087890625" lon="-7.02788089402019977569580078125">
        <ele>14.19999980926513671875</ele>
        <time>2019-07-09T10:14:29.000Z</time>
      </trkpt>
      <trkpt lat="43.52467196993529796600341796875" lon="-7.02769045718014240264892578125">
        <ele>13.3999996185302734375</ele>
        <time>2019-07-09T10:14:32.000Z</time>
      </trkpt>
      <trkpt lat="43.52445253171026706695556640625" lon="-7.02750035561621189117431640625">
        <ele>14.19999980926513671875</ele>
        <time>2019-07-09T10:14:39.000Z</time>
      </trkpt>
      <trkpt lat="43.524427302181720733642578125" lon="-7.0273733697831630706787109375">
        <ele>14.6000003814697265625</ele>
        <time>2019-07-09T10:14:41.000Z</time>
      </trkpt>
      <trkpt lat="43.5244569741189479827880859375" lon="-7.027155943214893341064453125">
        <ele>14.80000019073486328125</ele>
        <time>2019-07-09T10:14:43.000Z</time>
      </trkpt>
      <trkpt lat="43.52460072375833988189697265625" lon="-7.02646426856517791748046875">
        <ele>15</ele>
        <time>2019-07-09T10:14:48.000Z</time>
      </trkpt>
      <trkpt lat="43.524639867246150970458984375" lon="-7.02612974680960178375244140625">
        <ele>16.200000762939453125</ele>
        <time>2019-07-09T10:14:50.000Z</time>
      </trkpt>
      <trkpt lat="43.524685464799404144287109375" lon="-7.02545282430946826934814453125">
        <ele>17.799999237060546875</ele>
        <time>2019-07-09T10:14:54.000Z</time>
      </trkpt>
      <trkpt lat="43.52470465935766696929931640625" lon="-7.0250988565385341644287109375">
        <ele>18.799999237060546875</ele>
        <time>2019-07-09T10:14:56.000Z</time>
      </trkpt>
      <trkpt lat="43.5247235186398029327392578125" lon="-7.02473080717027187347412109375">
        <ele>20.6000003814697265625</ele>
        <time>2019-07-09T10:14:58.000Z</time>
      </trkpt>
      <trkpt lat="43.52473366074264049530029296875" lon="-7.0245412923395633697509765625">
        <ele>21.799999237060546875</ele>
        <time>2019-07-09T10:14:59.000Z</time>
      </trkpt>
      <trkpt lat="43.52474153973162174224853515625" lon="-7.02434188686311244964599609375">
        <ele>22.799999237060546875</ele>
        <time>2019-07-09T10:15:00.000Z</time>
      </trkpt>
      <trkpt lat="43.5247506760060787200927734375" lon="-7.0239217020571231842041015625">
        <ele>24.3999996185302734375</ele>
        <time>2019-07-09T10:15:02.000Z</time>
      </trkpt>
      <trkpt lat="43.524729050695896148681640625" lon="-7.023233212530612945556640625">
        <ele>25.3999996185302734375</ele>
        <time>2019-07-09T10:15:05.000Z</time>
      </trkpt>
      <trkpt lat="43.5246665216982364654541015625" lon="-7.02252536080777645111083984375">
        <ele>22.799999237060546875</ele>
        <time>2019-07-09T10:15:08.000Z</time>
      </trkpt>
      <trkpt lat="43.5246232710778713226318359375" lon="-7.02211816795170307159423828125">
        <ele>21.6000003814697265625</ele>
        <time>2019-07-09T10:15:10.000Z</time>
      </trkpt>
      <trkpt lat="43.52458479814231395721435546875" lon="-7.0217253081500530242919921875">
        <ele>20.200000762939453125</ele>
        <time>2019-07-09T10:15:12.000Z</time>
      </trkpt>
      <trkpt lat="43.52456350810825824737548828125" lon="-7.02151685021817684173583984375">
        <ele>21.799999237060546875</ele>
        <time>2019-07-09T10:15:13.000Z</time>
      </trkpt>
      <trkpt lat="43.52454121224582195281982421875" lon="-7.0213001780211925506591796875">
        <ele>23.200000762939453125</ele>
        <time>2019-07-09T10:15:14.000Z</time>
      </trkpt>
      <trkpt lat="43.5245163179934024810791015625" lon="-7.02107680030167102813720703125">
        <ele>24.799999237060546875</ele>
        <time>2019-07-09T10:15:15.000Z</time>
      </trkpt>
      <trkpt lat="43.5244388692080974578857421875" lon="-7.02037171460688114166259765625">
        <ele>26</ele>
        <time>2019-07-09T10:15:18.000Z</time>
      </trkpt>
      <trkpt lat="43.52436058223247528076171875" lon="-7.0196051895618438720703125">
        <ele>26.799999237060546875</ele>
        <time>2019-07-09T10:15:21.000Z</time>
      </trkpt>
      <trkpt lat="43.5243315808475017547607421875" lon="-7.01934191398322582244873046875">
        <ele>27.3999996185302734375</ele>
        <time>2019-07-09T10:15:22.000Z</time>
      </trkpt>
      <trkpt lat="43.52430383674800395965576171875" lon="-7.01907905749976634979248046875">
        <ele>27.6000003814697265625</ele>
        <time>2019-07-09T10:15:23.000Z</time>
      </trkpt>
      <trkpt lat="43.52424415759742259979248046875" lon="-7.01855242252349853515625">
        <ele>25.799999237060546875</ele>
        <time>2019-07-09T10:15:25.000Z</time>
      </trkpt>
      <trkpt lat="43.52421130053699016571044921875" lon="-7.01828596182167530059814453125">
        <ele>23</ele>
        <time>2019-07-09T10:15:26.000Z</time>
      </trkpt>
      <trkpt lat="43.5241766832768917083740234375" lon="-7.0180205069482326507568359375">
        <ele>20</ele>
        <time>2019-07-09T10:15:27.000Z</time>
      </trkpt>
      <trkpt lat="43.5241426527500152587890625" lon="-7.01775739900767803192138671875">
        <ele>17.6000003814697265625</ele>
        <time>2019-07-09T10:15:28.000Z</time>
      </trkpt>
      <trkpt lat="43.5241079516708850860595703125" lon="-7.0174969732761383056640625">
        <ele>15.6000003814697265625</ele>
        <time>2019-07-09T10:15:29.000Z</time>
      </trkpt>
      <trkpt lat="43.52407358586788177490234375" lon="-7.017237804830074310302734375">
        <ele>14</ele>
        <time>2019-07-09T10:15:30.000Z</time>
      </trkpt>
      <trkpt lat="43.52401181124150753021240234375" lon="-7.0167213119566440582275390625">
        <ele>12.3999996185302734375</ele>
        <time>2019-07-09T10:15:32.000Z</time>
      </trkpt>
      <trkpt lat="43.523914329707622528076171875" lon="-7.01595596037805080413818359375">
        <ele>11.3999996185302734375</ele>
        <time>2019-07-09T10:15:35.000Z</time>
      </trkpt>
      <trkpt lat="43.52387535385787487030029296875" lon="-7.01518449001014232635498046875">
        <ele>13.6000003814697265625</ele>
        <time>2019-07-09T10:15:38.000Z</time>
      </trkpt>
      <trkpt lat="43.52389262057840824127197265625" lon="-7.01493135653436183929443359375">
        <ele>15.6000003814697265625</ele>
        <time>2019-07-09T10:15:39.000Z</time>
      </trkpt>
      <trkpt lat="43.52392463944852352142333984375" lon="-7.014683671295642852783203125">
        <ele>17</ele>
        <time>2019-07-09T10:15:40.000Z</time>
      </trkpt>
      <trkpt lat="43.52396554313600063323974609375" lon="-7.014441601932048797607421875">
        <ele>17.6000003814697265625</ele>
        <time>2019-07-09T10:15:41.000Z</time>
      </trkpt>
      <trkpt lat="43.52411247789859771728515625" lon="-7.0137266255915164947509765625">
        <ele>17.3999996185302734375</ele>
        <time>2019-07-09T10:15:44.000Z</time>
      </trkpt>
      <trkpt lat="43.524209372699260711669921875" lon="-7.0132461749017238616943359375">
        <ele>14.80000019073486328125</ele>
        <time>2019-07-09T10:15:46.000Z</time>
      </trkpt>
      <trkpt lat="43.52430752478539943695068359375" lon="-7.0127442665398120880126953125">
        <ele>12.80000019073486328125</ele>
        <time>2019-07-09T10:15:48.000Z</time>
      </trkpt>
      <trkpt lat="43.52446711622178554534912109375" lon="-7.01198796741664409637451171875">
        <ele>15</ele>
        <time>2019-07-09T10:15:51.000Z</time>
      </trkpt>
      <trkpt lat="43.52451757527887821197509765625" lon="-7.01173131354153156280517578125">
        <ele>16.799999237060546875</ele>
        <time>2019-07-09T10:15:52.000Z</time>
      </trkpt>
      <trkpt lat="43.52456836961209774017333984375" lon="-7.011474072933197021484375">
        <ele>18.3999996185302734375</ele>
        <time>2019-07-09T10:15:53.000Z</time>
      </trkpt>
      <trkpt lat="43.52462234906852245330810546875" lon="-7.0112164132297039031982421875">
        <ele>19.799999237060546875</ele>
        <time>2019-07-09T10:15:54.000Z</time>
      </trkpt>
      <trkpt lat="43.524688147008419036865234375" lon="-7.0109619386494159698486328125">
        <ele>21.799999237060546875</ele>
        <time>2019-07-09T10:15:55.000Z</time>
      </trkpt>
      <trkpt lat="43.52476894855499267578125" lon="-7.01072037220001220703125">
        <ele>23.3999996185302734375</ele>
        <time>2019-07-09T10:15:56.000Z</time>
      </trkpt>
      <trkpt lat="43.5248668491840362548828125" lon="-7.01049598865211009979248046875">
        <ele>24.799999237060546875</ele>
        <time>2019-07-09T10:15:57.000Z</time>
      </trkpt>
      <trkpt lat="43.52498142980039119720458984375" lon="-7.01029331423342227935791015625">
        <ele>26.200000762939453125</ele>
        <time>2019-07-09T10:15:58.000Z</time>
      </trkpt>
      <trkpt lat="43.5252391733229160308837890625" lon="-7.0099369995296001434326171875">
        <ele>27.6000003814697265625</ele>
        <time>2019-07-09T10:16:00.000Z</time>
      </trkpt>
      <trkpt lat="43.525522649288177490234375" lon="-7.0096064172685146331787109375">
        <ele>30.200000762939453125</ele>
        <time>2019-07-09T10:16:02.000Z</time>
      </trkpt>
      <trkpt lat="43.525669164955615997314453125" lon="-7.00944104231894016265869140625">
        <ele>32.40000152587890625</ele>
        <time>2019-07-09T10:16:03.000Z</time>
      </trkpt>
      <trkpt lat="43.5258205421268939971923828125" lon="-7.0092677883803844451904296875">
        <ele>34.59999847412109375</ele>
        <time>2019-07-09T10:16:04.000Z</time>
      </trkpt>
      <trkpt lat="43.5259734280407428741455078125" lon="-7.00908212922513484954833984375">
        <ele>36</ele>
        <time>2019-07-09T10:16:05.000Z</time>
      </trkpt>
      <trkpt lat="43.52612488903105258941650390625" lon="-7.00888582505285739898681640625">
        <ele>36.59999847412109375</ele>
        <time>2019-07-09T10:16:06.000Z</time>
      </trkpt>
      <trkpt lat="43.5264176689088344573974609375" lon="-7.0084678195416927337646484375">
        <ele>37.200000762939453125</ele>
        <time>2019-07-09T10:16:08.000Z</time>
      </trkpt>
      <trkpt lat="43.526887558400630950927734375" lon="-7.007884941995143890380859375">
        <ele>36.40000152587890625</ele>
        <time>2019-07-09T10:16:11.000Z</time>
      </trkpt>
      <trkpt lat="43.52705813013017177581787109375" lon="-7.00773264281451702117919921875">
        <ele>34.799999237060546875</ele>
        <time>2019-07-09T10:16:12.000Z</time>
      </trkpt>
      <trkpt lat="43.52723482064902782440185546875" lon="-7.00760037638247013092041015625">
        <ele>32.799999237060546875</ele>
        <time>2019-07-09T10:16:13.000Z</time>
      </trkpt>
      <trkpt lat="43.52741804905235767364501953125" lon="-7.0074878074228763580322265625">
        <ele>31.200000762939453125</ele>
        <time>2019-07-09T10:16:14.000Z</time>
      </trkpt>
      <trkpt lat="43.527608402073383331298828125" lon="-7.0074006356298923492431640625">
        <ele>30.6000003814697265625</ele>
        <time>2019-07-09T10:16:15.000Z</time>
      </trkpt>
      <trkpt lat="43.52780185639858245849609375" lon="-7.0073335804045200347900390625">
        <ele>29.3999996185302734375</ele>
        <time>2019-07-09T10:16:16.000Z</time>
      </trkpt>
      <trkpt lat="43.52819052524864673614501953125" lon="-7.00724464841187000274658203125">
        <ele>27.6000003814697265625</ele>
        <time>2019-07-09T10:16:18.000Z</time>
      </trkpt>
      <trkpt lat="43.528380878269672393798828125" lon="-7.0072145573794841766357421875">
        <ele>26</ele>
        <time>2019-07-09T10:16:19.000Z</time>
      </trkpt>
      <trkpt lat="43.52856134064495563507080078125" lon="-7.0071857236325740814208984375">
        <ele>24.3999996185302734375</ele>
        <time>2019-07-09T10:16:20.000Z</time>
      </trkpt>
      <trkpt lat="43.52889728732407093048095703125" lon="-7.00709746219217777252197265625">
        <ele>23</ele>
        <time>2019-07-09T10:16:22.000Z</time>
      </trkpt>
      <trkpt lat="43.52934974245727062225341796875" lon="-7.006774507462978363037109375">
        <ele>24.200000762939453125</ele>
        <time>2019-07-09T10:16:25.000Z</time>
      </trkpt>
      <trkpt lat="43.52949156425893306732177734375" lon="-7.00660779140889644622802734375">
        <ele>25.6000003814697265625</ele>
        <time>2019-07-09T10:16:26.000Z</time>
      </trkpt>
      <trkpt lat="43.5297617129981517791748046875" lon="-7.00624451972544193267822265625">
        <ele>26.799999237060546875</ele>
        <time>2019-07-09T10:16:28.000Z</time>
      </trkpt>
      <trkpt lat="43.5300363041460514068603515625" lon="-7.0058436132967472076416015625">
        <ele>27.799999237060546875</ele>
        <time>2019-07-09T10:16:30.000Z</time>
      </trkpt>
      <trkpt lat="43.53048004209995269775390625" lon="-7.00522896833717823028564453125">
        <ele>26.3999996185302734375</ele>
        <time>2019-07-09T10:16:33.000Z</time>
      </trkpt>
      <trkpt lat="43.53062949143350124359130859375" lon="-7.005032412707805633544921875">
        <ele>26.6000003814697265625</ele>
        <time>2019-07-09T10:16:34.000Z</time>
      </trkpt>
      <trkpt lat="43.53106065653264522552490234375" lon="-7.00448281131684780120849609375">
        <ele>26.799999237060546875</ele>
        <time>2019-07-09T10:16:37.000Z</time>
      </trkpt>
      <trkpt lat="43.53147841058671474456787109375" lon="-7.0039747841656208038330078125">
        <ele>27</ele>
        <time>2019-07-09T10:16:40.000Z</time>
      </trkpt>
      <trkpt lat="43.53188828565180301666259765625" lon="-7.00345954857766628265380859375">
        <ele>26.6000003814697265625</ele>
        <time>2019-07-09T10:16:43.000Z</time>
      </trkpt>
      <trkpt lat="43.53231542743742465972900390625" lon="-7.00292964465916156768798828125">
        <ele>25.3999996185302734375</ele>
        <time>2019-07-09T10:16:46.000Z</time>
      </trkpt>
      <trkpt lat="43.53275463916361331939697265625" lon="-7.00242631137371063232421875">
        <ele>24.3999996185302734375</ele>
        <time>2019-07-09T10:16:49.000Z</time>
      </trkpt>
      <trkpt lat="43.53291657753288745880126953125" lon="-7.00228272937238216400146484375">
        <ele>24.200000762939453125</ele>
        <time>2019-07-09T10:16:50.000Z</time>
      </trkpt>
      <trkpt lat="43.5334567911922931671142578125" lon="-7.00198014266788959503173828125">
        <ele>25.3999996185302734375</ele>
        <time>2019-07-09T10:16:53.000Z</time>
      </trkpt>
      <trkpt lat="43.534030616283416748046875" lon="-7.001795656979084014892578125">
        <ele>26.3999996185302734375</ele>
        <time>2019-07-09T10:16:56.000Z</time>
      </trkpt>
      <trkpt lat="43.53458843193948268890380859375" lon="-7.00149432756006717681884765625">
        <ele>24.200000762939453125</ele>
        <time>2019-07-09T10:16:59.000Z</time>
      </trkpt>
      <trkpt lat="43.5347507894039154052734375" lon="-7.00135745108127593994140625">
        <ele>23.200000762939453125</ele>
        <time>2019-07-09T10:17:00.000Z</time>
      </trkpt>
      <trkpt lat="43.53489319793879985809326171875" lon="-7.00120992958545684814453125">
        <ele>23.6000003814697265625</ele>
        <time>2019-07-09T10:17:01.000Z</time>
      </trkpt>
      <trkpt lat="43.53526619262993335723876953125" lon="-7.00071028433740139007568359375">
        <ele>24.799999237060546875</ele>
        <time>2019-07-09T10:17:04.000Z</time>
      </trkpt>
      <trkpt lat="43.535371720790863037109375" lon="-7.00054113753139972686767578125">
        <ele>26</ele>
        <time>2019-07-09T10:17:05.000Z</time>
      </trkpt>
      <trkpt lat="43.535468280315399169921875" lon="-7.0003833062946796417236328125">
        <ele>27</ele>
        <time>2019-07-09T10:17:06.000Z</time>
      </trkpt>
      <trkpt lat="43.53555503301322460174560546875" lon="-7.000238634645938873291015625">
        <ele>28.3999996185302734375</ele>
        <time>2019-07-09T10:17:07.000Z</time>
      </trkpt>
      <trkpt lat="43.53563566692173480987548828125" lon="-7.000106871128082275390625">
        <ele>30</ele>
        <time>2019-07-09T10:17:08.000Z</time>
      </trkpt>
      <trkpt lat="43.5357131995260715484619140625" lon="-6.99998122639954090118408203125">
        <ele>31.799999237060546875</ele>
        <time>2019-07-09T10:17:09.000Z</time>
      </trkpt>
      <trkpt lat="43.5357926599681377410888671875" lon="-6.999857760965824127197265625">
        <ele>34.40000152587890625</ele>
        <time>2019-07-09T10:17:10.000Z</time>
      </trkpt>
      <trkpt lat="43.53587329387664794921875" lon="-6.99973144568502902984619140625">
        <ele>37</ele>
        <time>2019-07-09T10:17:11.000Z</time>
      </trkpt>
      <trkpt lat="43.5359524190425872802734375" lon="-6.99960521422326564788818359375">
        <ele>39.59999847412109375</ele>
        <time>2019-07-09T10:17:12.000Z</time>
      </trkpt>
      <trkpt lat="43.53602995164692401885986328125" lon="-6.99947780929505825042724609375">
        <ele>41.200000762939453125</ele>
        <time>2019-07-09T10:17:13.000Z</time>
      </trkpt>
      <trkpt lat="43.53618836961686611175537109375" lon="-6.9992175512015819549560546875">
        <ele>42.799999237060546875</ele>
        <time>2019-07-09T10:17:15.000Z</time>
      </trkpt>
      <trkpt lat="43.53651191107928752899169921875" lon="-6.998686976730823516845703125">
        <ele>42.799999237060546875</ele>
        <time>2019-07-09T10:17:19.000Z</time>
      </trkpt>
      <trkpt lat="43.53683411143720149993896484375" lon="-6.99815011583268642425537109375">
        <ele>42.59999847412109375</ele>
        <time>2019-07-09T10:17:24.000Z</time>
      </trkpt>
      <trkpt lat="43.53709026239812374114990234375" lon="-6.99772381223738193511962890625">
        <ele>43.799999237060546875</ele>
        <time>2019-07-09T10:17:28.000Z</time>
      </trkpt>
      <trkpt lat="43.53737843222916126251220703125" lon="-6.9972484745085239410400390625">
        <ele>43.59999847412109375</ele>
        <time>2019-07-09T10:17:32.000Z</time>
      </trkpt>
      <trkpt lat="43.537723012268543243408203125" lon="-6.996673643589019775390625">
        <ele>43</ele>
        <time>2019-07-09T10:17:37.000Z</time>
      </trkpt>
      <trkpt lat="43.5380311310291290283203125" lon="-6.99615589343011379241943359375">
        <ele>43.40000152587890625</ele>
        <time>2019-07-09T10:17:41.000Z</time>
      </trkpt>
      <trkpt lat="43.5383514873683452606201171875" lon="-6.9956289231777191162109375">
        <ele>43.799999237060546875</ele>
        <time>2019-07-09T10:17:45.000Z</time>
      </trkpt>
      <trkpt lat="43.53869489394128322601318359375" lon="-6.99503808282315731048583984375">
        <ele>44.799999237060546875</ele>
        <time>2019-07-09T10:17:49.000Z</time>
      </trkpt>
      <trkpt lat="43.53877343237400054931640625" lon="-6.9948971830308437347412109375">
        <ele>44.799999237060546875</ele>
        <time>2019-07-09T10:17:50.000Z</time>
      </trkpt>
      <trkpt lat="43.53898842819035053253173828125" lon="-6.99444095604121685028076171875">
        <ele>46.200000762939453125</ele>
        <time>2019-07-09T10:17:53.000Z</time>
      </trkpt>
      <trkpt lat="43.53905363939702510833740234375" lon="-6.99427901767194271087646484375">
        <ele>47.40000152587890625</ele>
        <time>2019-07-09T10:17:54.000Z</time>
      </trkpt>
      <trkpt lat="43.53928497992455959320068359375" lon="-6.993599832057952880859375">
        <ele>46.799999237060546875</ele>
        <time>2019-07-09T10:17:58.000Z</time>
      </trkpt>
      <trkpt lat="43.53933661244809627532958984375" lon="-6.9934316910803318023681640625">
        <ele>46.200000762939453125</ele>
        <time>2019-07-09T10:17:59.000Z</time>
      </trkpt>
      <trkpt lat="43.53955068625509738922119140625" lon="-6.9927470572292804718017578125">
        <ele>45.40000152587890625</ele>
        <time>2019-07-09T10:18:03.000Z</time>
      </trkpt>
      <trkpt lat="43.53976375423371791839599609375" lon="-6.9920822046697139739990234375">
        <ele>45.59999847412109375</ele>
        <time>2019-07-09T10:18:07.000Z</time>
      </trkpt>
      <trkpt lat="43.5399846173822879791259765625" lon="-6.991411149501800537109375">
        <ele>45.59999847412109375</ele>
        <time>2019-07-09T10:18:11.000Z</time>
      </trkpt>
      <trkpt lat="43.54006986133754253387451171875" lon="-6.991043351590633392333984375">
        <ele>44.799999237060546875</ele>
        <time>2019-07-09T10:18:13.000Z</time>
      </trkpt>
      <trkpt lat="43.54012937285006046295166015625" lon="-6.99064797721803188323974609375">
        <ele>43.799999237060546875</ele>
        <time>2019-07-09T10:18:15.000Z</time>
      </trkpt>
      <trkpt lat="43.54011319577693939208984375" lon="-6.98984616436064243316650390625">
        <ele>42.59999847412109375</ele>
        <time>2019-07-09T10:18:19.000Z</time>
      </trkpt>
      <trkpt lat="43.53992485441267490386962890625" lon="-6.9890777952969074249267578125">
        <ele>42.799999237060546875</ele>
        <time>2019-07-09T10:18:23.000Z</time>
      </trkpt>
      <trkpt lat="43.53975537233054637908935546875" lon="-6.98855350725352764129638671875">
        <ele>43.200000762939453125</ele>
        <time>2019-07-09T10:18:26.000Z</time>
      </trkpt>
      <trkpt lat="43.53965185582637786865234375" lon="-6.98820347897708415985107421875">
        <ele>43.59999847412109375</ele>
        <time>2019-07-09T10:18:28.000Z</time>
      </trkpt>
      <trkpt lat="43.5394615866243839263916015625" lon="-6.9874262250959873199462890625">
        <ele>43.40000152587890625</ele>
        <time>2019-07-09T10:18:32.000Z</time>
      </trkpt>
      <trkpt lat="43.5393724031746387481689453125" lon="-6.98676447384059429168701171875">
        <ele>43.200000762939453125</ele>
        <time>2019-07-09T10:18:35.000Z</time>
      </trkpt>
      <trkpt lat="43.53933778591454029083251953125" lon="-6.98629139922559261322021484375">
        <ele>42.200000762939453125</ele>
        <time>2019-07-09T10:18:37.000Z</time>
      </trkpt>
      <trkpt lat="43.53934046812355518341064453125" lon="-6.985651440918445587158203125">
        <ele>41.59999847412109375</ele>
        <time>2019-07-09T10:18:40.000Z</time>
      </trkpt>
      <trkpt lat="43.5393636859953403472900390625" lon="-6.98548539541661739349365234375">
        <ele>41</ele>
        <time>2019-07-09T10:18:41.000Z</time>
      </trkpt>
      <trkpt lat="43.5394458286464214324951171875" lon="-6.9852405600249767303466796875">
        <ele>40.40000152587890625</ele>
        <time>2019-07-09T10:18:43.000Z</time>
      </trkpt>
      <trkpt lat="43.5395197570323944091796875" lon="-6.985078118741512298583984375">
        <ele>42.40000152587890625</ele>
        <time>2019-07-09T10:18:45.000Z</time>
      </trkpt>
      <trkpt lat="43.53953677229583263397216796875" lon="-6.98499019257724285125732421875">
        <ele>43.59999847412109375</ele>
        <time>2019-07-09T10:18:46.000Z</time>
      </trkpt>
      <trkpt lat="43.539560995995998382568359375" lon="-6.9847847521305084228515625">
        <ele>45</ele>
        <time>2019-07-09T10:18:48.000Z</time>
      </trkpt>
      <trkpt lat="43.53965713642537593841552734375" lon="-6.98461644351482391357421875">
        <ele>45.200000762939453125</ele>
        <time>2019-07-09T10:18:50.000Z</time>
      </trkpt>
      <trkpt lat="43.53982309810817241668701171875" lon="-6.98458098806440830230712890625">
        <ele>44.799999237060546875</ele>
        <time>2019-07-09T10:18:52.000Z</time>
      </trkpt>
      <trkpt lat="43.54009307920932769775390625" lon="-6.984691880643367767333984375">
        <ele>44.200000762939453125</ele>
        <time>2019-07-09T10:18:55.000Z</time>
      </trkpt>
      <trkpt lat="43.54028158821165561676025390625" lon="-6.98466732166707515716552734375">
        <ele>44.799999237060546875</ele>
        <time>2019-07-09T10:18:57.000Z</time>
      </trkpt>
      <trkpt lat="43.540438748896121978759765625" lon="-6.98448627255856990814208984375">
        <ele>45</ele>
        <time>2019-07-09T10:18:59.000Z</time>
      </trkpt>
      <trkpt lat="43.5405877791345119476318359375" lon="-6.98397866450250148773193359375">
        <ele>43.40000152587890625</ele>
        <time>2019-07-09T10:19:02.000Z</time>
      </trkpt>
      <trkpt lat="43.54069967754185199737548828125" lon="-6.98355353437364101409912109375">
        <ele>41.799999237060546875</ele>
        <time>2019-07-09T10:19:04.000Z</time>
      </trkpt>
      <trkpt lat="43.5408246517181396484375" lon="-6.98307341895997524261474609375">
        <ele>39.799999237060546875</ele>
        <time>2019-07-09T10:19:06.000Z</time>
      </trkpt>
      <trkpt lat="43.5409649647772312164306640625" lon="-6.9825633801519870758056640625">
        <ele>38.40000152587890625</ele>
        <time>2019-07-09T10:19:08.000Z</time>
      </trkpt>
      <trkpt lat="43.541152887046337127685546875" lon="-6.9817538559436798095703125">
        <ele>38</ele>
        <time>2019-07-09T10:19:11.000Z</time>
      </trkpt>
      <trkpt lat="43.5412496142089366912841796875" lon="-6.9811639375984668731689453125">
        <ele>40.40000152587890625</ele>
        <time>2019-07-09T10:19:13.000Z</time>
      </trkpt>
      <trkpt lat="43.54129462502896785736083984375" lon="-6.98085959069430828094482421875">
        <ele>41.799999237060546875</ele>
        <time>2019-07-09T10:19:14.000Z</time>
      </trkpt>
      <trkpt lat="43.54137492366135120391845703125" lon="-6.9802442751824855804443359375">
        <ele>44</ele>
        <time>2019-07-09T10:19:16.000Z</time>
      </trkpt>
      <trkpt lat="43.54143954813480377197265625" lon="-6.9796290434896945953369140625">
        <ele>43.799999237060546875</ele>
        <time>2019-07-09T10:19:18.000Z</time>
      </trkpt>
      <trkpt lat="43.541463352739810943603515625" lon="-6.97932503186166286468505859375">
        <ele>42.200000762939453125</ele>
        <time>2019-07-09T10:19:19.000Z</time>
      </trkpt>
      <trkpt lat="43.54148514568805694580078125" lon="-6.979025714099407196044921875">
        <ele>40.799999237060546875</ele>
        <time>2019-07-09T10:19:20.000Z</time>
      </trkpt>
      <trkpt lat="43.5415111295878887176513671875" lon="-6.97810999117791652679443359375">
        <ele>40</ele>
        <time>2019-07-09T10:19:23.000Z</time>
      </trkpt>
      <trkpt lat="43.54150593280792236328125" lon="-6.977786533534526824951171875">
        <ele>39.799999237060546875</ele>
        <time>2019-07-09T10:19:24.000Z</time>
      </trkpt>
      <trkpt lat="43.54148087091743946075439453125" lon="-6.97711606509983539581298828125">
        <ele>39.200000762939453125</ele>
        <time>2019-07-09T10:19:26.000Z</time>
      </trkpt>
      <trkpt lat="43.54146293364465236663818359375" lon="-6.9767798669636249542236328125">
        <ele>38.40000152587890625</ele>
        <time>2019-07-09T10:19:27.000Z</time>
      </trkpt>
      <trkpt lat="43.54144399054348468780517578125" lon="-6.976447440683841705322265625">
        <ele>36.799999237060546875</ele>
        <time>2019-07-09T10:19:28.000Z</time>
      </trkpt>
      <trkpt lat="43.541401661932468414306640625" lon="-6.975789964199066162109375">
        <ele>34.59999847412109375</ele>
        <time>2019-07-09T10:19:30.000Z</time>
      </trkpt>
      <trkpt lat="43.541377522051334381103515625" lon="-6.97546340525150299072265625">
        <ele>32.40000152587890625</ele>
        <time>2019-07-09T10:19:31.000Z</time>
      </trkpt>
      <trkpt lat="43.54135329835116863250732421875" lon="-6.97513709776103496551513671875">
        <ele>33.799999237060546875</ele>
        <time>2019-07-09T10:19:32.000Z</time>
      </trkpt>
      <trkpt lat="43.541307114064693450927734375" lon="-6.9744792021811008453369140625">
        <ele>36</ele>
        <time>2019-07-09T10:19:34.000Z</time>
      </trkpt>
      <trkpt lat="43.541283309459686279296875" lon="-6.974146105349063873291015625">
        <ele>37.40000152587890625</ele>
        <time>2019-07-09T10:19:35.000Z</time>
      </trkpt>
      <trkpt lat="43.541242070496082305908203125" lon="-6.97347345761954784393310546875">
        <ele>38.799999237060546875</ele>
        <time>2019-07-09T10:19:37.000Z</time>
      </trkpt>
      <trkpt lat="43.54122698307037353515625" lon="-6.97313256561756134033203125">
        <ele>39.799999237060546875</ele>
        <time>2019-07-09T10:19:38.000Z</time>
      </trkpt>
      <trkpt lat="43.541215918958187103271484375" lon="-6.97278882376849651336669921875">
        <ele>41.59999847412109375</ele>
        <time>2019-07-09T10:19:39.000Z</time>
      </trkpt>
      <trkpt lat="43.54119907133281230926513671875" lon="-6.9720937125384807586669921875">
        <ele>42.200000762939453125</ele>
        <time>2019-07-09T10:19:41.000Z</time>
      </trkpt>
      <trkpt lat="43.54119404219090938568115234375" lon="-6.9713978469371795654296875">
        <ele>41.200000762939453125</ele>
        <time>2019-07-09T10:19:43.000Z</time>
      </trkpt>
      <trkpt lat="43.5411988198757171630859375" lon="-6.971051506698131561279296875">
        <ele>40</ele>
        <time>2019-07-09T10:19:44.000Z</time>
      </trkpt>
      <trkpt lat="43.5412070341408252716064453125" lon="-6.97070759721100330352783203125">
        <ele>38.200000762939453125</ele>
        <time>2019-07-09T10:19:45.000Z</time>
      </trkpt>
      <trkpt lat="43.5412160865962505340576171875" lon="-6.97036586701869964599609375">
        <ele>36.40000152587890625</ele>
        <time>2019-07-09T10:19:46.000Z</time>
      </trkpt>
      <trkpt lat="43.54124550707638263702392578125" lon="-6.96971274912357330322265625">
        <ele>35</ele>
        <time>2019-07-09T10:19:48.000Z</time>
      </trkpt>
      <trkpt lat="43.54128624312579631805419921875" lon="-6.969074048101902008056640625">
        <ele>34.799999237060546875</ele>
        <time>2019-07-09T10:19:50.000Z</time>
      </trkpt>
      <trkpt lat="43.5413354448974132537841796875" lon="-6.96843341924250125885009765625">
        <ele>35.59999847412109375</ele>
        <time>2019-07-09T10:19:52.000Z</time>
      </trkpt>
      <trkpt lat="43.54139420203864574432373046875" lon="-6.967795975506305694580078125">
        <ele>35.200000762939453125</ele>
        <time>2019-07-09T10:19:54.000Z</time>
      </trkpt>
      <trkpt lat="43.5414688847959041595458984375" lon="-6.9671634770929813385009765625">
        <ele>35.59999847412109375</ele>
        <time>2019-07-09T10:19:56.000Z</time>
      </trkpt>
      <trkpt lat="43.541553877294063568115234375" lon="-6.96653407998383045196533203125">
        <ele>34.59999847412109375</ele>
        <time>2019-07-09T10:19:58.000Z</time>
      </trkpt>
      <trkpt lat="43.54164213873445987701416015625" lon="-6.96592186577618122100830078125">
        <ele>35.200000762939453125</ele>
        <time>2019-07-09T10:20:00.000Z</time>
      </trkpt>
      <trkpt lat="43.54177155531942844390869140625" lon="-6.96504042483866214752197265625">
        <ele>36</ele>
        <time>2019-07-09T10:20:03.000Z</time>
      </trkpt>
      <trkpt lat="43.541812710464000701904296875" lon="-6.9647498242557048797607421875">
        <ele>36.40000152587890625</ele>
        <time>2019-07-09T10:20:04.000Z</time>
      </trkpt>
      <trkpt lat="43.54185285978019237518310546875" lon="-6.9644547812640666961669921875">
        <ele>37.799999237060546875</ele>
        <time>2019-07-09T10:20:05.000Z</time>
      </trkpt>
      <trkpt lat="43.54189225472509860992431640625" lon="-6.96416300721466541290283203125">
        <ele>39.40000152587890625</ele>
        <time>2019-07-09T10:20:06.000Z</time>
      </trkpt>
      <trkpt lat="43.54193148203194141387939453125" lon="-6.963875256478786468505859375">
        <ele>40.799999237060546875</ele>
        <time>2019-07-09T10:20:07.000Z</time>
      </trkpt>
      <trkpt lat="43.542017228901386260986328125" lon="-6.9633031077682971954345703125">
        <ele>43</ele>
        <time>2019-07-09T10:20:09.000Z</time>
      </trkpt>
      <trkpt lat="43.542058132588863372802734375" lon="-6.9630161114037036895751953125">
        <ele>44.200000762939453125</ele>
        <time>2019-07-09T10:20:10.000Z</time>
      </trkpt>
      <trkpt lat="43.5422234237194061279296875" lon="-6.96212871931493282318115234375">
        <ele>47.799999237060546875</ele>
        <time>2019-07-09T10:20:13.000Z</time>
      </trkpt>
      <trkpt lat="43.54210817255079746246337890625" lon="-6.96174834854900836944580078125">
        <ele>48.40000152587890625</ele>
        <time>2019-07-09T10:20:14.000Z</time>
      </trkpt>
      <trkpt lat="43.54223339818418025970458984375" lon="-6.9611491262912750244140625">
        <ele>48.799999237060546875</ele>
        <time>2019-07-09T10:20:16.000Z</time>
      </trkpt>
      <trkpt lat="43.542335070669651031494140625" lon="-6.96052215993404388427734375">
        <ele>49.799999237060546875</ele>
        <time>2019-07-09T10:20:18.000Z</time>
      </trkpt>
      <trkpt lat="43.54239868931472301483154296875" lon="-6.95987231098115444183349609375">
        <ele>50.200000762939453125</ele>
        <time>2019-07-09T10:20:20.000Z</time>
      </trkpt>
      <trkpt lat="43.5424192249774932861328125" lon="-6.95954306982457637786865234375">
        <ele>51.59999847412109375</ele>
        <time>2019-07-09T10:20:21.000Z</time>
      </trkpt>
      <trkpt lat="43.542444370687007904052734375" lon="-6.95885575376451015472412109375">
        <ele>53.200000762939453125</ele>
        <time>2019-07-09T10:20:23.000Z</time>
      </trkpt>
      <trkpt lat="43.54244445450603961944580078125" lon="-6.95814915932714939117431640625">
        <ele>53.200000762939453125</ele>
        <time>2019-07-09T10:20:25.000Z</time>
      </trkpt>
      <trkpt lat="43.542428277432918548583984375" lon="-6.95743267424404621124267578125">
        <ele>54.59999847412109375</ele>
        <time>2019-07-09T10:20:27.000Z</time>
      </trkpt>
      <trkpt lat="43.54240187443792819976806640625" lon="-6.95673412643373012542724609375">
        <ele>54.40000152587890625</ele>
        <time>2019-07-09T10:20:29.000Z</time>
      </trkpt>
      <trkpt lat="43.54237253777682781219482421875" lon="-6.95604630745947360992431640625">
        <ele>53.59999847412109375</ele>
        <time>2019-07-09T10:20:31.000Z</time>
      </trkpt>
      <trkpt lat="43.542340435087680816650390625" lon="-6.95536502636969089508056640625">
        <ele>53</ele>
        <time>2019-07-09T10:20:33.000Z</time>
      </trkpt>
      <trkpt lat="43.5423077456653118133544921875" lon="-6.95468575693666934967041015625">
        <ele>53</ele>
        <time>2019-07-09T10:20:35.000Z</time>
      </trkpt>
      <trkpt lat="43.542278073728084564208984375" lon="-6.9540095888078212738037109375">
        <ele>54.40000152587890625</ele>
        <time>2019-07-09T10:20:37.000Z</time>
      </trkpt>
      <trkpt lat="43.54225016199052333831787109375" lon="-6.95333995856344699859619140625">
        <ele>55.40000152587890625</ele>
        <time>2019-07-09T10:20:39.000Z</time>
      </trkpt>
      <trkpt lat="43.54223859496414661407470703125" lon="-6.95300837047398090362548828125">
        <ele>55.59999847412109375</ele>
        <time>2019-07-09T10:20:40.000Z</time>
      </trkpt>
      <trkpt lat="43.5422259382903575897216796875" lon="-6.95234821178019046783447265625">
        <ele>54.40000152587890625</ele>
        <time>2019-07-09T10:20:42.000Z</time>
      </trkpt>
      <trkpt lat="43.542222417891025543212890625" lon="-6.9520187191665172576904296875">
        <ele>53.200000762939453125</ele>
        <time>2019-07-09T10:20:43.000Z</time>
      </trkpt>
      <trkpt lat="43.54221931658685207366943359375" lon="-6.95168905891478061676025390625">
        <ele>52</ele>
        <time>2019-07-09T10:20:44.000Z</time>
      </trkpt>
      <trkpt lat="43.54221831075847148895263671875" lon="-6.95135981775820255279541015625">
        <ele>50.59999847412109375</ele>
        <time>2019-07-09T10:20:45.000Z</time>
      </trkpt>
      <trkpt lat="43.54221831075847148895263671875" lon="-6.95103091187775135040283203125">
        <ele>49.200000762939453125</ele>
        <time>2019-07-09T10:20:46.000Z</time>
      </trkpt>
      <trkpt lat="43.5422296263277530670166015625" lon="-6.950373351573944091796875">
        <ele>49.799999237060546875</ele>
        <time>2019-07-09T10:20:48.000Z</time>
      </trkpt>
      <trkpt lat="43.5422504134476184844970703125" lon="-6.94971009157598018646240234375">
        <ele>50.200000762939453125</ele>
        <time>2019-07-09T10:20:50.000Z</time>
      </trkpt>
      <trkpt lat="43.5422651655972003936767578125" lon="-6.94937682710587978363037109375">
        <ele>50.59999847412109375</ele>
        <time>2019-07-09T10:20:51.000Z</time>
      </trkpt>
      <trkpt lat="43.5423030517995357513427734375" lon="-6.94870694540441036224365234375">
        <ele>51</ele>
        <time>2019-07-09T10:20:53.000Z</time>
      </trkpt>
      <trkpt lat="43.54235258884727954864501953125" lon="-6.9480306096374988555908203125">
        <ele>51.40000152587890625</ele>
        <time>2019-07-09T10:20:55.000Z</time>
      </trkpt>
      <trkpt lat="43.54237974621355533599853515625" lon="-6.9476924836635589599609375">
        <ele>51.59999847412109375</ele>
        <time>2019-07-09T10:20:56.000Z</time>
      </trkpt>
      <trkpt lat="43.5424435324966907501220703125" lon="-6.94701765663921833038330078125">
        <ele>52</ele>
        <time>2019-07-09T10:20:58.000Z</time>
      </trkpt>
      <trkpt lat="43.54252575896680355072021484375" lon="-6.94634425453841686248779296875">
        <ele>52.40000152587890625</ele>
        <time>2019-07-09T10:21:00.000Z</time>
      </trkpt>
      <trkpt lat="43.54261008091270923614501953125" lon="-6.94566045887768268585205078125">
        <ele>51.799999237060546875</ele>
        <time>2019-07-09T10:21:02.000Z</time>
      </trkpt>
      <trkpt lat="43.54270689189434051513671875" lon="-6.94496677257120609283447265625">
        <ele>51.59999847412109375</ele>
        <time>2019-07-09T10:21:04.000Z</time>
      </trkpt>
      <trkpt lat="43.54281543754041194915771484375" lon="-6.94426403380930423736572265625">
        <ele>51</ele>
        <time>2019-07-09T10:21:06.000Z</time>
      </trkpt>
      <trkpt lat="43.54287662543356418609619140625" lon="-6.9439120776951313018798828125">
        <ele>50.59999847412109375</ele>
        <time>2019-07-09T10:21:07.000Z</time>
      </trkpt>
      <trkpt lat="43.54300587438046932220458984375" lon="-6.94320724345743656158447265625">
        <ele>50.200000762939453125</ele>
        <time>2019-07-09T10:21:09.000Z</time>
      </trkpt>
      <trkpt lat="43.54314853437244892120361328125" lon="-6.9425012357532978057861328125">
        <ele>49.40000152587890625</ele>
        <time>2019-07-09T10:21:11.000Z</time>
      </trkpt>
      <trkpt lat="43.5432964749634265899658203125" lon="-6.94179958663880825042724609375">
        <ele>49</ele>
        <time>2019-07-09T10:21:13.000Z</time>
      </trkpt>
      <trkpt lat="43.54344324208796024322509765625" lon="-6.94109701551496982574462890625">
        <ele>49.200000762939453125</ele>
        <time>2019-07-09T10:21:15.000Z</time>
      </trkpt>
      <trkpt lat="43.5435217805206775665283203125" lon="-6.9407509267330169677734375">
        <ele>49</ele>
        <time>2019-07-09T10:21:16.000Z</time>
      </trkpt>
      <trkpt lat="43.54367307387292385101318359375" lon="-6.9400698132812976837158203125">
        <ele>48.799999237060546875</ele>
        <time>2019-07-09T10:21:18.000Z</time>
      </trkpt>
      <trkpt lat="43.5438220202922821044921875" lon="-6.93939498625695705413818359375">
        <ele>50.59999847412109375</ele>
        <time>2019-07-09T10:21:20.000Z</time>
      </trkpt>
      <trkpt lat="43.543897457420825958251953125" lon="-6.93906054832041263580322265625">
        <ele>52</ele>
        <time>2019-07-09T10:21:21.000Z</time>
      </trkpt>
      <trkpt lat="43.543971218168735504150390625" lon="-6.93872594274580478668212890625">
        <ele>53.200000762939453125</ele>
        <time>2019-07-09T10:21:22.000Z</time>
      </trkpt>
      <trkpt lat="43.5441212542355060577392578125" lon="-6.938061006367206573486328125">
        <ele>54.59999847412109375</ele>
        <time>2019-07-09T10:21:24.000Z</time>
      </trkpt>
      <trkpt lat="43.544261567294597625732421875" lon="-6.93739254958927631378173828125">
        <ele>54.59999847412109375</ele>
        <time>2019-07-09T10:21:26.000Z</time>
      </trkpt>
      <trkpt lat="43.54438955895602703094482421875" lon="-6.93673926405608654022216796875">
        <ele>53.799999237060546875</ele>
        <time>2019-07-09T10:21:28.000Z</time>
      </trkpt>
      <trkpt lat="43.5444521717727184295654296875" lon="-6.93641907535493373870849609375">
        <ele>53.40000152587890625</ele>
        <time>2019-07-09T10:21:29.000Z</time>
      </trkpt>
      <trkpt lat="43.5445757210254669189453125" lon="-6.93578087724745273590087890625">
        <ele>53</ele>
        <time>2019-07-09T10:21:31.000Z</time>
      </trkpt>
      <trkpt lat="43.54469533078372478485107421875" lon="-6.93514452315866947174072265625">
        <ele>53</ele>
        <time>2019-07-09T10:21:33.000Z</time>
      </trkpt>
      <trkpt lat="43.544809408485889434814453125" lon="-6.93450473248958587646484375">
        <ele>53.59999847412109375</ele>
        <time>2019-07-09T10:21:35.000Z</time>
      </trkpt>
      <trkpt lat="43.5449138469994068145751953125" lon="-6.93385672755539417266845703125">
        <ele>53.799999237060546875</ele>
        <time>2019-07-09T10:21:37.000Z</time>
      </trkpt>
      <trkpt lat="43.54502021335065364837646484375" lon="-6.93321299739181995391845703125">
        <ele>53.59999847412109375</ele>
        <time>2019-07-09T10:21:39.000Z</time>
      </trkpt>
      <trkpt lat="43.5451244004070758819580078125" lon="-6.93258100189268589019775390625">
        <ele>54.200000762939453125</ele>
        <time>2019-07-09T10:21:41.000Z</time>
      </trkpt>
      <trkpt lat="43.54522523470222949981689453125" lon="-6.9319484196603298187255859375">
        <ele>54.59999847412109375</ele>
        <time>2019-07-09T10:21:43.000Z</time>
      </trkpt>
      <trkpt lat="43.545319028198719024658203125" lon="-6.9313124008476734161376953125">
        <ele>55.200000762939453125</ele>
        <time>2019-07-09T10:21:45.000Z</time>
      </trkpt>
      <trkpt lat="43.54536571539938449859619140625" lon="-6.93099279887974262237548828125">
        <ele>55.799999237060546875</ele>
        <time>2019-07-09T10:21:46.000Z</time>
      </trkpt>
      <trkpt lat="43.54545691050589084625244140625" lon="-6.9303481467068195343017578125">
        <ele>56.200000762939453125</ele>
        <time>2019-07-09T10:21:48.000Z</time>
      </trkpt>
      <trkpt lat="43.54554659686982631683349609375" lon="-6.92969276569783687591552734375">
        <ele>57</ele>
        <time>2019-07-09T10:21:50.000Z</time>
      </trkpt>
      <trkpt lat="43.545630834996700286865234375" lon="-6.9290254823863506317138671875">
        <ele>57.799999237060546875</ele>
        <time>2019-07-09T10:21:52.000Z</time>
      </trkpt>
      <trkpt lat="43.54571356438100337982177734375" lon="-6.928347051143646240234375">
        <ele>57.799999237060546875</ele>
        <time>2019-07-09T10:21:54.000Z</time>
      </trkpt>
      <trkpt lat="43.545792438089847564697265625" lon="-6.92766166292130947113037109375">
        <ele>57.40000152587890625</ele>
        <time>2019-07-09T10:21:56.000Z</time>
      </trkpt>
      <trkpt lat="43.5458693839609622955322265625" lon="-6.92696881480515003204345703125">
        <ele>57.799999237060546875</ele>
        <time>2019-07-09T10:21:58.000Z</time>
      </trkpt>
      <trkpt lat="43.5459069348871707916259765625" lon="-6.9266198761761188507080078125">
        <ele>58.40000152587890625</ele>
        <time>2019-07-09T10:21:59.000Z</time>
      </trkpt>
      <trkpt lat="43.545977510511875152587890625" lon="-6.9259164668619632720947265625">
        <ele>59.799999237060546875</ele>
        <time>2019-07-09T10:22:01.000Z</time>
      </trkpt>
      <trkpt lat="43.546047918498516082763671875" lon="-6.9252083636820316314697265625">
        <ele>60.40000152587890625</ele>
        <time>2019-07-09T10:22:03.000Z</time>
      </trkpt>
      <trkpt lat="43.54611271061003208160400390625" lon="-6.924497745931148529052734375">
        <ele>60.40000152587890625</ele>
        <time>2019-07-09T10:22:05.000Z</time>
      </trkpt>
      <trkpt lat="43.54614322073757648468017578125" lon="-6.92414226941764354705810546875">
        <ele>62</ele>
        <time>2019-07-09T10:22:06.000Z</time>
      </trkpt>
      <trkpt lat="43.54620021767914295196533203125" lon="-6.9234307296574115753173828125">
        <ele>62.200000762939453125</ele>
        <time>2019-07-09T10:22:08.000Z</time>
      </trkpt>
      <trkpt lat="43.54625302366912364959716796875" lon="-6.9227192737162113189697265625">
        <ele>60.40000152587890625</ele>
        <time>2019-07-09T10:22:10.000Z</time>
      </trkpt>
      <trkpt lat="43.54630297981202602386474609375" lon="-6.9220049679279327392578125">
        <ele>61.799999237060546875</ele>
        <time>2019-07-09T10:22:12.000Z</time>
      </trkpt>
      <trkpt lat="43.54632510803639888763427734375" lon="-6.92164647392928600311279296875">
        <ele>60.799999237060546875</ele>
        <time>2019-07-09T10:22:13.000Z</time>
      </trkpt>
      <trkpt lat="43.5463459789752960205078125" lon="-6.921287812292575836181640625">
        <ele>61.799999237060546875</ele>
        <time>2019-07-09T10:22:14.000Z</time>
      </trkpt>
      <trkpt lat="43.5463655926287174224853515625" lon="-6.920927725732326507568359375">
        <ele>63.59999847412109375</ele>
        <time>2019-07-09T10:22:15.000Z</time>
      </trkpt>
      <trkpt lat="43.54640071280300617218017578125" lon="-6.92020981572568416595458984375">
        <ele>65.59999847412109375</ele>
        <time>2019-07-09T10:22:17.000Z</time>
      </trkpt>
      <trkpt lat="43.54643248021602630615234375" lon="-6.919496096670627593994140625">
        <ele>65.8000030517578125</ele>
        <time>2019-07-09T10:22:19.000Z</time>
      </trkpt>
      <trkpt lat="43.546457625925540924072265625" lon="-6.918781958520412445068359375">
        <ele>65.1999969482421875</ele>
        <time>2019-07-09T10:22:21.000Z</time>
      </trkpt>
      <trkpt lat="43.54648151434957981109619140625" lon="-6.91806689836084842681884765625">
        <ele>64.8000030517578125</ele>
        <time>2019-07-09T10:22:23.000Z</time>
      </trkpt>
      <trkpt lat="43.54649953544139862060546875" lon="-6.91735091619193553924560546875">
        <ele>64.59999847412109375</ele>
        <time>2019-07-09T10:22:25.000Z</time>
      </trkpt>
      <trkpt lat="43.54650850407779216766357421875" lon="-6.91699367947876453399658203125">
        <ele>64.59999847412109375</ele>
        <time>2019-07-09T10:22:26.000Z</time>
      </trkpt>
      <trkpt lat="43.54652459733188152313232421875" lon="-6.91628507338464260101318359375">
        <ele>65.59999847412109375</ele>
        <time>2019-07-09T10:22:28.000Z</time>
      </trkpt>
      <trkpt lat="43.546534068882465362548828125" lon="-6.91557982005178928375244140625">
        <ele>65.8000030517578125</ele>
        <time>2019-07-09T10:22:30.000Z</time>
      </trkpt>
      <trkpt lat="43.5465409420430660247802734375" lon="-6.9148731417953968048095703125">
        <ele>66.40000152587890625</ele>
        <time>2019-07-09T10:22:32.000Z</time>
      </trkpt>
      <trkpt lat="43.546542786061763763427734375" lon="-6.9141610153019428253173828125">
        <ele>65.40000152587890625</ele>
        <time>2019-07-09T10:22:34.000Z</time>
      </trkpt>
      <trkpt lat="43.54653775691986083984375" lon="-6.9134485535323619842529296875">
        <ele>65.59999847412109375</ele>
        <time>2019-07-09T10:22:36.000Z</time>
      </trkpt>
      <trkpt lat="43.54652711190283298492431640625" lon="-6.91274791024625301361083984375">
        <ele>65.8000030517578125</ele>
        <time>2019-07-09T10:22:38.000Z</time>
      </trkpt>
      <trkpt lat="43.546510599553585052490234375" lon="-6.91205875016748905181884765625">
        <ele>66.40000152587890625</ele>
        <time>2019-07-09T10:22:40.000Z</time>
      </trkpt>
      <trkpt lat="43.546501211822032928466796875" lon="-6.91171760670840740203857421875">
        <ele>66.59999847412109375</ele>
        <time>2019-07-09T10:22:41.000Z</time>
      </trkpt>
      <trkpt lat="43.5464742220938205718994140625" lon="-6.91103984601795673370361328125">
        <ele>66.8000030517578125</ele>
        <time>2019-07-09T10:22:43.000Z</time>
      </trkpt>
      <trkpt lat="43.54643675498664379119873046875" lon="-6.9103546254336833953857421875">
        <ele>67.40000152587890625</ele>
        <time>2019-07-09T10:22:45.000Z</time>
      </trkpt>
      <trkpt lat="43.5464128665626049041748046875" lon="-6.91000568680465221405029296875">
        <ele>68.40000152587890625</ele>
        <time>2019-07-09T10:22:46.000Z</time>
      </trkpt>
      <trkpt lat="43.54638227261602878570556640625" lon="-6.909652054309844970703125">
        <ele>69.59999847412109375</ele>
        <time>2019-07-09T10:22:47.000Z</time>
      </trkpt>
      <trkpt lat="43.54634807445108890533447265625" lon="-6.9092971645295619964599609375">
        <ele>71</ele>
        <time>2019-07-09T10:22:48.000Z</time>
      </trkpt>
      <trkpt lat="43.54630834423005580902099609375" lon="-6.90894328057765960693359375">
        <ele>72.40000152587890625</ele>
        <time>2019-07-09T10:22:49.000Z</time>
      </trkpt>
      <trkpt lat="43.546269200742244720458984375" lon="-6.9085937552154064178466796875">
        <ele>73.59999847412109375</ele>
        <time>2019-07-09T10:22:50.000Z</time>
      </trkpt>
      <trkpt lat="43.54618303477764129638671875" lon="-6.907912977039813995361328125">
        <ele>74.1999969482421875</ele>
        <time>2019-07-09T10:22:52.000Z</time>
      </trkpt>
      <trkpt lat="43.54608220048248767852783203125" lon="-6.90725089050829410552978515625">
        <ele>74.59999847412109375</ele>
        <time>2019-07-09T10:22:54.000Z</time>
      </trkpt>
      <trkpt lat="43.54597440920770168304443359375" lon="-6.9066035561263561248779296875">
        <ele>74.59999847412109375</ele>
        <time>2019-07-09T10:22:56.000Z</time>
      </trkpt>
      <trkpt lat="43.545855470001697540283203125" lon="-6.90596829168498516082763671875">
        <ele>75.40000152587890625</ele>
        <time>2019-07-09T10:22:58.000Z</time>
      </trkpt>
      <trkpt lat="43.54579319246113300323486328125" lon="-6.9056540541350841522216796875">
        <ele>75.59999847412109375</ele>
        <time>2019-07-09T10:22:59.000Z</time>
      </trkpt>
      <trkpt lat="43.54566159658133983612060546875" lon="-6.90503337420523166656494140625">
        <ele>75.1999969482421875</ele>
        <time>2019-07-09T10:23:01.000Z</time>
      </trkpt>
      <trkpt lat="43.5455227084457874298095703125" lon="-6.904421746730804443359375">
        <ele>75.1999969482421875</ele>
        <time>2019-07-09T10:23:03.000Z</time>
      </trkpt>
      <trkpt lat="43.545377366244792938232421875" lon="-6.90380743704736232757568359375">
        <ele>75</ele>
        <time>2019-07-09T10:23:05.000Z</time>
      </trkpt>
      <trkpt lat="43.54522724635899066925048828125" lon="-6.90318332053720951080322265625">
        <ele>76.1999969482421875</ele>
        <time>2019-07-09T10:23:07.000Z</time>
      </trkpt>
      <trkpt lat="43.54515264742076396942138671875" lon="-6.902865730226039886474609375">
        <ele>77.40000152587890625</ele>
        <time>2019-07-09T10:23:08.000Z</time>
      </trkpt>
      <trkpt lat="43.54507737793028354644775390625" lon="-6.90254352986812591552734375">
        <ele>78.8000030517578125</ele>
        <time>2019-07-09T10:23:09.000Z</time>
      </trkpt>
      <trkpt lat="43.54492373764514923095703125" lon="-6.90188999287784099578857421875">
        <ele>80.1999969482421875</ele>
        <time>2019-07-09T10:23:11.000Z</time>
      </trkpt>
      <trkpt lat="43.5447696782648563385009765625" lon="-6.9012257270514965057373046875">
        <ele>81.8000030517578125</ele>
        <time>2019-07-09T10:23:13.000Z</time>
      </trkpt>
      <trkpt lat="43.5446204803884029388427734375" lon="-6.90055064857006072998046875">
        <ele>83.40000152587890625</ele>
        <time>2019-07-09T10:23:15.000Z</time>
      </trkpt>
      <trkpt lat="43.5444830171763896942138671875" lon="-6.89987565390765666961669921875">
        <ele>85.40000152587890625</ele>
        <time>2019-07-09T10:23:17.000Z</time>
      </trkpt>
      <trkpt lat="43.54435619898140430450439453125" lon="-6.89921599812805652618408203125">
        <ele>86.1999969482421875</ele>
        <time>2019-07-09T10:23:19.000Z</time>
      </trkpt>
      <trkpt lat="43.5442436300218105316162109375" lon="-6.89855298958718776702880859375">
        <ele>86.8000030517578125</ele>
        <time>2019-07-09T10:23:21.000Z</time>
      </trkpt>
      <trkpt lat="43.5441584698855876922607421875" lon="-6.897873468697071075439453125">
        <ele>86.59999847412109375</ele>
        <time>2019-07-09T10:23:23.000Z</time>
      </trkpt>
      <trkpt lat="43.54409099556505680084228515625" lon="-6.89718120731413364410400390625">
        <ele>87.1999969482421875</ele>
        <time>2019-07-09T10:23:25.000Z</time>
      </trkpt>
      <trkpt lat="43.54405780322849750518798828125" lon="-6.89683310687541961669921875">
        <ele>88</ele>
        <time>2019-07-09T10:23:26.000Z</time>
      </trkpt>
      <trkpt lat="43.54399703443050384521484375" lon="-6.89613615162670612335205078125">
        <ele>88.8000030517578125</ele>
        <time>2019-07-09T10:23:28.000Z</time>
      </trkpt>
      <trkpt lat="43.54395571164786815643310546875" lon="-6.89545135013759136199951171875">
        <ele>88.59999847412109375</ele>
        <time>2019-07-09T10:23:30.000Z</time>
      </trkpt>
      <trkpt lat="43.54393358342349529266357421875" lon="-6.89476939849555492401123046875">
        <ele>88.1999969482421875</ele>
        <time>2019-07-09T10:23:32.000Z</time>
      </trkpt>
      <trkpt lat="43.54392603971064090728759765625" lon="-6.8940793164074420928955078125">
        <ele>87.8000030517578125</ele>
        <time>2019-07-09T10:23:34.000Z</time>
      </trkpt>
      <trkpt lat="43.54393073357641696929931640625" lon="-6.89337699674069881439208984375">
        <ele>87.59999847412109375</ele>
        <time>2019-07-09T10:23:36.000Z</time>
      </trkpt>
      <trkpt lat="43.543951101601123809814453125" lon="-6.89266570843756198883056640625">
        <ele>88.40000152587890625</ele>
        <time>2019-07-09T10:23:38.000Z</time>
      </trkpt>
      <trkpt lat="43.5439888201653957366943359375" lon="-6.8919452838599681854248046875">
        <ele>88.40000152587890625</ele>
        <time>2019-07-09T10:23:40.000Z</time>
      </trkpt>
      <trkpt lat="43.54404254816472530364990234375" lon="-6.89121966250240802764892578125">
        <ele>87.8000030517578125</ele>
        <time>2019-07-09T10:23:42.000Z</time>
      </trkpt>
      <trkpt lat="43.54411094449460506439208984375" lon="-6.8905046023428440093994140625">
        <ele>87.1999969482421875</ele>
        <time>2019-07-09T10:23:44.000Z</time>
      </trkpt>
      <trkpt lat="43.54415260255336761474609375" lon="-6.890152394771575927734375">
        <ele>87</ele>
        <time>2019-07-09T10:23:45.000Z</time>
      </trkpt>
      <trkpt lat="43.54424354620277881622314453125" lon="-6.88945342786610126495361328125">
        <ele>85.8000030517578125</ele>
        <time>2019-07-09T10:23:47.000Z</time>
      </trkpt>
      <trkpt lat="43.5443495772778987884521484375" lon="-6.88875219784677028656005859375">
        <ele>85</ele>
        <time>2019-07-09T10:23:49.000Z</time>
      </trkpt>
      <trkpt lat="43.54447287507355213165283203125" lon="-6.88803973607718944549560546875">
        <ele>86.1999969482421875</ele>
        <time>2019-07-09T10:23:51.000Z</time>
      </trkpt>
      <trkpt lat="43.54461067356169223785400390625" lon="-6.8873194791376590728759765625">
        <ele>86.1999969482421875</ele>
        <time>2019-07-09T10:23:53.000Z</time>
      </trkpt>
      <trkpt lat="43.54477219283580780029296875" lon="-6.88660257495939731597900390625">
        <ele>86.1999969482421875</ele>
        <time>2019-07-09T10:23:55.000Z</time>
      </trkpt>
      <trkpt lat="43.54496397078037261962890625" lon="-6.88588273711502552032470703125">
        <ele>85.59999847412109375</ele>
        <time>2019-07-09T10:23:57.000Z</time>
      </trkpt>
      <trkpt lat="43.545062541961669921875" lon="-6.88551611267030239105224609375">
        <ele>84.59999847412109375</ele>
        <time>2019-07-09T10:23:58.000Z</time>
      </trkpt>
      <trkpt lat="43.5451632924377918243408203125" lon="-6.8851478956639766693115234375">
        <ele>83.1999969482421875</ele>
        <time>2019-07-09T10:23:59.000Z</time>
      </trkpt>
      <trkpt lat="43.54526613838970661163330078125" lon="-6.88477649353444576263427734375">
        <ele>82</ele>
        <time>2019-07-09T10:24:00.000Z</time>
      </trkpt>
      <trkpt lat="43.545471243560314178466796875" lon="-6.884025894105434417724609375">
        <ele>81</ele>
        <time>2019-07-09T10:24:02.000Z</time>
      </trkpt>
      <trkpt lat="43.54557040147483348846435546875" lon="-6.8836440145969390869140625">
        <ele>80.8000030517578125</ele>
        <time>2019-07-09T10:24:03.000Z</time>
      </trkpt>
      <trkpt lat="43.54575312696397304534912109375" lon="-6.8828760646283626556396484375">
        <ele>80.40000152587890625</ele>
        <time>2019-07-09T10:24:05.000Z</time>
      </trkpt>
      <trkpt lat="43.54583610780537128448486328125" lon="-6.88249141909182071685791015625">
        <ele>79.59999847412109375</ele>
        <time>2019-07-09T10:24:06.000Z</time>
      </trkpt>
      <trkpt lat="43.54590651579201221466064453125" lon="-6.88210434280335903167724609375">
        <ele>78.40000152587890625</ele>
        <time>2019-07-09T10:24:07.000Z</time>
      </trkpt>
      <trkpt lat="43.5459649376571178436279296875" lon="-6.88171307556331157684326171875">
        <ele>76.59999847412109375</ele>
        <time>2019-07-09T10:24:08.000Z</time>
      </trkpt>
      <trkpt lat="43.546017743647098541259765625" lon="-6.88131929375231266021728515625">
        <ele>74.40000152587890625</ele>
        <time>2019-07-09T10:24:09.000Z</time>
      </trkpt>
      <trkpt lat="43.546059988439083099365234375" lon="-6.8809269368648529052734375">
        <ele>72.59999847412109375</ele>
        <time>2019-07-09T10:24:10.000Z</time>
      </trkpt>
      <trkpt lat="43.54609309695661067962646484375" lon="-6.88053474761545658111572265625">
        <ele>70.8000030517578125</ele>
        <time>2019-07-09T10:24:11.000Z</time>
      </trkpt>
      <trkpt lat="43.5461474955081939697265625" lon="-6.8797613494098186492919921875">
        <ele>69.59999847412109375</ele>
        <time>2019-07-09T10:24:13.000Z</time>
      </trkpt>
      <trkpt lat="43.54619619436562061309814453125" lon="-6.87899130396544933319091796875">
        <ele>68.59999847412109375</ele>
        <time>2019-07-09T10:24:15.000Z</time>
      </trkpt>
      <trkpt lat="43.54622217826545238494873046875" lon="-6.87860615551471710205078125">
        <ele>68</ele>
        <time>2019-07-09T10:24:16.000Z</time>
      </trkpt>
      <trkpt lat="43.5462708771228790283203125" lon="-6.8778348527848720550537109375">
        <ele>66.1999969482421875</ele>
        <time>2019-07-09T10:24:18.000Z</time>
      </trkpt>
      <trkpt lat="43.546294681727886199951171875" lon="-6.8774523027241230010986328125">
        <ele>64.40000152587890625</ele>
        <time>2019-07-09T10:24:19.000Z</time>
      </trkpt>
      <trkpt lat="43.54631714522838592529296875" lon="-6.877070255577564239501953125">
        <ele>63</ele>
        <time>2019-07-09T10:24:20.000Z</time>
      </trkpt>
      <trkpt lat="43.54633994400501251220703125" lon="-6.87668971717357635498046875">
        <ele>61.799999237060546875</ele>
        <time>2019-07-09T10:24:21.000Z</time>
      </trkpt>
      <trkpt lat="43.5463900677859783172607421875" lon="-6.87592922709882259368896484375">
        <ele>60.40000152587890625</ele>
        <time>2019-07-09T10:24:23.000Z</time>
      </trkpt>
      <trkpt lat="43.54641680605709552764892578125" lon="-6.875549443066120147705078125">
        <ele>58.40000152587890625</ele>
        <time>2019-07-09T10:24:24.000Z</time>
      </trkpt>
      <trkpt lat="43.54644379578530788421630859375" lon="-6.87517334707081317901611328125">
        <ele>55.799999237060546875</ele>
        <time>2019-07-09T10:24:25.000Z</time>
      </trkpt>
      <trkpt lat="43.546468354761600494384765625" lon="-6.8747975863516330718994140625">
        <ele>54</ele>
        <time>2019-07-09T10:24:26.000Z</time>
      </trkpt>
      <trkpt lat="43.54649207554757595062255859375" lon="-6.87441981397569179534912109375">
        <ele>52.799999237060546875</ele>
        <time>2019-07-09T10:24:27.000Z</time>
      </trkpt>
      <trkpt lat="43.5465176403522491455078125" lon="-6.87403969466686248779296875">
        <ele>51.59999847412109375</ele>
        <time>2019-07-09T10:24:28.000Z</time>
      </trkpt>
      <trkpt lat="43.54656667448580265045166015625" lon="-6.873262859880924224853515625">
        <ele>52.59999847412109375</ele>
        <time>2019-07-09T10:24:30.000Z</time>
      </trkpt>
      <trkpt lat="43.54658494703471660614013671875" lon="-6.87287016771733760833740234375">
        <ele>54.40000152587890625</ele>
        <time>2019-07-09T10:24:31.000Z</time>
      </trkpt>
      <trkpt lat="43.54663071222603321075439453125" lon="-6.87208436429500579833984375">
        <ele>54.799999237060546875</ele>
        <time>2019-07-09T10:24:33.000Z</time>
      </trkpt>
      <trkpt lat="43.546658121049404144287109375" lon="-6.87169083394110202789306640625">
        <ele>55.799999237060546875</ele>
        <time>2019-07-09T10:24:34.000Z</time>
      </trkpt>
      <trkpt lat="43.5467471368610858917236328125" lon="-6.87090444378554821014404296875">
        <ele>56.799999237060546875</ele>
        <time>2019-07-09T10:24:36.000Z</time>
      </trkpt>
      <trkpt lat="43.5468084923923015594482421875" lon="-6.8705104105174541473388671875">
        <ele>55.200000762939453125</ele>
        <time>2019-07-09T10:24:37.000Z</time>
      </trkpt>
      <trkpt lat="43.5469560138881206512451171875" lon="-6.86972376890480518341064453125">
        <ele>55.200000762939453125</ele>
        <time>2019-07-09T10:24:39.000Z</time>
      </trkpt>
      <trkpt lat="43.547040335834026336669921875" lon="-6.8693325854837894439697265625">
        <ele>56.40000152587890625</ele>
        <time>2019-07-09T10:24:40.000Z</time>
      </trkpt>
      <trkpt lat="43.54722800664603710174560546875" lon="-6.86856002546846866607666015625">
        <ele>58.59999847412109375</ele>
        <time>2019-07-09T10:24:42.000Z</time>
      </trkpt>
      <trkpt lat="43.5473184473812580108642578125" lon="-6.86817831359803676605224609375">
        <ele>60.40000152587890625</ele>
        <time>2019-07-09T10:24:43.000Z</time>
      </trkpt>
      <trkpt lat="43.5474029369652271270751953125" lon="-6.86779492534697055816650390625">
        <ele>62.40000152587890625</ele>
        <time>2019-07-09T10:24:44.000Z</time>
      </trkpt>
      <trkpt lat="43.54755842126905918121337890625" lon="-6.86702462844550609588623046875">
        <ele>64.1999969482421875</ele>
        <time>2019-07-09T10:24:46.000Z</time>
      </trkpt>
      <trkpt lat="43.54763218201696872711181640625" lon="-6.866640150547027587890625">
        <ele>65.40000152587890625</ele>
        <time>2019-07-09T10:24:47.000Z</time>
      </trkpt>
      <trkpt lat="43.5476996563374996185302734375" lon="-6.8662510626018047332763671875">
        <ele>66.8000030517578125</ele>
        <time>2019-07-09T10:24:48.000Z</time>
      </trkpt>
      <trkpt lat="43.5477568209171295166015625" lon="-6.86586306430399417877197265625">
        <ele>68</ele>
        <time>2019-07-09T10:24:49.000Z</time>
      </trkpt>
      <trkpt lat="43.5478498600423336029052734375" lon="-6.86508270911872386932373046875">
        <ele>68</ele>
        <time>2019-07-09T10:24:51.000Z</time>
      </trkpt>
      <trkpt lat="43.54790903627872467041015625" lon="-6.86430000700056552886962890625">
        <ele>68</ele>
        <time>2019-07-09T10:24:53.000Z</time>
      </trkpt>
      <trkpt lat="43.54792588390409946441650390625" lon="-6.86351445503532886505126953125">
        <ele>67.8000030517578125</ele>
        <time>2019-07-09T10:24:55.000Z</time>
      </trkpt>
      <trkpt lat="43.54792739264667034149169921875" lon="-6.86272571794688701629638671875">
        <ele>68.40000152587890625</ele>
        <time>2019-07-09T10:24:57.000Z</time>
      </trkpt>
      <trkpt lat="43.54792739264667034149169921875" lon="-6.862327493727207183837890625">
        <ele>69.40000152587890625</ele>
        <time>2019-07-09T10:24:58.000Z</time>
      </trkpt>
      <trkpt lat="43.54792705737054347991943359375" lon="-6.861927844583988189697265625">
        <ele>70.8000030517578125</ele>
        <time>2019-07-09T10:24:59.000Z</time>
      </trkpt>
      <trkpt lat="43.54792621918022632598876953125" lon="-6.861524842679500579833984375">
        <ele>72.40000152587890625</ele>
        <time>2019-07-09T10:25:00.000Z</time>
      </trkpt>
      <trkpt lat="43.54792236350476741790771484375" lon="-6.86112058348953723907470703125">
        <ele>73.59999847412109375</ele>
        <time>2019-07-09T10:25:01.000Z</time>
      </trkpt>
      <trkpt lat="43.54790828190743923187255859375" lon="-6.860302425920963287353515625">
        <ele>74.40000152587890625</ele>
        <time>2019-07-09T10:25:03.000Z</time>
      </trkpt>
      <trkpt lat="43.54789252392947673797607421875" lon="-6.8594907224178314208984375">
        <ele>75</ele>
        <time>2019-07-09T10:25:05.000Z</time>
      </trkpt>
      <trkpt lat="43.5478750057518482208251953125" lon="-6.8586791865527629852294921875">
        <ele>75.8000030517578125</ele>
        <time>2019-07-09T10:25:07.000Z</time>
      </trkpt>
      <trkpt lat="43.54786369018256664276123046875" lon="-6.8582711555063724517822265625">
        <ele>76.40000152587890625</ele>
        <time>2019-07-09T10:25:08.000Z</time>
      </trkpt>
      <trkpt lat="43.547833599150180816650390625" lon="-6.8574584461748600006103515625">
        <ele>77</ele>
        <time>2019-07-09T10:25:10.000Z</time>
      </trkpt>
      <trkpt lat="43.54781406931579113006591796875" lon="-6.8570520915091037750244140625">
        <ele>77.59999847412109375</ele>
        <time>2019-07-09T10:25:11.000Z</time>
      </trkpt>
      <trkpt lat="43.54777148924767971038818359375" lon="-6.85624860227108001708984375">
        <ele>79.40000152587890625</ele>
        <time>2019-07-09T10:25:13.000Z</time>
      </trkpt>
      <trkpt lat="43.54771323502063751220703125" lon="-6.85545022599399089813232421875">
        <ele>81.1999969482421875</ele>
        <time>2019-07-09T10:25:15.000Z</time>
      </trkpt>
      <trkpt lat="43.5476151667535305023193359375" lon="-6.85465134680271148681640625">
        <ele>82.59999847412109375</ele>
        <time>2019-07-09T10:25:17.000Z</time>
      </trkpt>
      <trkpt lat="43.547484576702117919921875" lon="-6.85386990197002887725830078125">
        <ele>83.1999969482421875</ele>
        <time>2019-07-09T10:25:19.000Z</time>
      </trkpt>
      <trkpt lat="43.54740746319293975830078125" lon="-6.85348416678607463836669921875">
        <ele>84</ele>
        <time>2019-07-09T10:25:20.000Z</time>
      </trkpt>
      <trkpt lat="43.54722817428410053253173828125" lon="-6.8527126125991344451904296875">
        <ele>84.8000030517578125</ele>
        <time>2019-07-09T10:25:22.000Z</time>
      </trkpt>
      <trkpt lat="43.54701175354421138763427734375" lon="-6.851947344839572906494140625">
        <ele>85.40000152587890625</ele>
        <time>2019-07-09T10:25:24.000Z</time>
      </trkpt>
      <trkpt lat="43.5467585362493991851806640625" lon="-6.8511891178786754608154296875">
        <ele>84.59999847412109375</ele>
        <time>2019-07-09T10:25:26.000Z</time>
      </trkpt>
      <trkpt lat="43.54662291705608367919921875" lon="-6.8508132733404636383056640625">
        <ele>83.8000030517578125</ele>
        <time>2019-07-09T10:25:27.000Z</time>
      </trkpt>
      <trkpt lat="43.54632862843573093414306640625" lon="-6.8500729836523532867431640625">
        <ele>82.1999969482421875</ele>
        <time>2019-07-09T10:25:29.000Z</time>
      </trkpt>
      <trkpt lat="43.54600458405911922454833984375" lon="-6.849353313446044921875">
        <ele>80.59999847412109375</ele>
        <time>2019-07-09T10:25:31.000Z</time>
      </trkpt>
      <trkpt lat="43.5456611774861812591552734375" lon="-6.8486524187028408050537109375">
        <ele>79.8000030517578125</ele>
        <time>2019-07-09T10:25:33.000Z</time>
      </trkpt>
      <trkpt lat="43.545490019023418426513671875" lon="-6.84830599464476108551025390625">
        <ele>78.8000030517578125</ele>
        <time>2019-07-09T10:25:34.000Z</time>
      </trkpt>
      <trkpt lat="43.54515449143946170806884765625" lon="-6.84761985205113887786865234375">
        <ele>81</ele>
        <time>2019-07-09T10:25:36.000Z</time>
      </trkpt>
      <trkpt lat="43.5449916310608386993408203125" lon="-6.847276277840137481689453125">
        <ele>82.40000152587890625</ele>
        <time>2019-07-09T10:25:37.000Z</time>
      </trkpt>
      <trkpt lat="43.54483195580542087554931640625" lon="-6.84693186543881893157958984375">
        <ele>83.59999847412109375</ele>
        <time>2019-07-09T10:25:38.000Z</time>
      </trkpt>
      <trkpt lat="43.54451796971261501312255859375" lon="-6.84623298235237598419189453125">
        <ele>83.8000030517578125</ele>
        <time>2019-07-09T10:25:40.000Z</time>
      </trkpt>
      <trkpt lat="43.54422233998775482177734375" lon="-6.84551130048930644989013671875">
        <ele>84.1999969482421875</ele>
        <time>2019-07-09T10:25:42.000Z</time>
      </trkpt>
      <trkpt lat="43.543949089944362640380859375" lon="-6.844760365784168243408203125">
        <ele>83.59999847412109375</ele>
        <time>2019-07-09T10:25:44.000Z</time>
      </trkpt>
      <trkpt lat="43.5438178293406963348388671875" lon="-6.84437739662826061248779296875">
        <ele>82.8000030517578125</ele>
        <time>2019-07-09T10:25:45.000Z</time>
      </trkpt>
      <trkpt lat="43.54368899948894977569580078125" lon="-6.84398914687335491180419921875">
        <ele>82</ele>
        <time>2019-07-09T10:25:46.000Z</time>
      </trkpt>
      <trkpt lat="43.54356695897877216339111328125" lon="-6.843597628176212310791015625">
        <ele>80.1999969482421875</ele>
        <time>2019-07-09T10:25:47.000Z</time>
      </trkpt>
      <trkpt lat="43.543451540172100067138671875" lon="-6.8432025052607059478759765625">
        <ele>79</ele>
        <time>2019-07-09T10:25:48.000Z</time>
      </trkpt>
      <trkpt lat="43.54323637671768665313720703125" lon="-6.84239893220365047454833984375">
        <ele>78.40000152587890625</ele>
        <time>2019-07-09T10:25:50.000Z</time>
      </trkpt>
      <trkpt lat="43.5430426709353923797607421875" lon="-6.84157784096896648406982421875">
        <ele>78.59999847412109375</ele>
        <time>2019-07-09T10:25:52.000Z</time>
      </trkpt>
      <trkpt lat="43.5428646393120288848876953125" lon="-6.84074250049889087677001953125">
        <ele>80.40000152587890625</ele>
        <time>2019-07-09T10:25:54.000Z</time>
      </trkpt>
      <trkpt lat="43.5427169501781463623046875" lon="-6.83989861048758029937744140625">
        <ele>80.40000152587890625</ele>
        <time>2019-07-09T10:25:56.000Z</time>
      </trkpt>
      <trkpt lat="43.54259029962122440338134765625" lon="-6.8390400521457195281982421875">
        <ele>81.8000030517578125</ele>
        <time>2019-07-09T10:25:58.000Z</time>
      </trkpt>
      <trkpt lat="43.54249273426830768585205078125" lon="-6.83817897923290729522705078125">
        <ele>81.8000030517578125</ele>
        <time>2019-07-09T10:26:00.000Z</time>
      </trkpt>
      <trkpt lat="43.54245015420019626617431640625" lon="-6.83774898760020732879638671875">
        <ele>79.8000030517578125</ele>
        <time>2019-07-09T10:26:01.000Z</time>
      </trkpt>
      <trkpt lat="43.54241763241589069366455078125" lon="-6.8373207561671733856201171875">
        <ele>78.40000152587890625</ele>
        <time>2019-07-09T10:26:02.000Z</time>
      </trkpt>
      <trkpt lat="43.5423667542636394500732421875" lon="-6.8364668078720569610595703125">
        <ele>77.59999847412109375</ele>
        <time>2019-07-09T10:26:04.000Z</time>
      </trkpt>
      <trkpt lat="43.54235284030437469482421875" lon="-6.83604176156222820281982421875">
        <ele>77.1999969482421875</ele>
        <time>2019-07-09T10:26:05.000Z</time>
      </trkpt>
      <trkpt lat="43.54234051890671253204345703125" lon="-6.83519192039966583251953125">
        <ele>78.1999969482421875</ele>
        <time>2019-07-09T10:26:07.000Z</time>
      </trkpt>
      <trkpt lat="43.54234152473509311676025390625" lon="-6.83477039448916912078857421875">
        <ele>79.1999969482421875</ele>
        <time>2019-07-09T10:26:08.000Z</time>
      </trkpt>
      <trkpt lat="43.5423617251217365264892578125" lon="-6.83393061161041259765625">
        <ele>80.59999847412109375</ele>
        <time>2019-07-09T10:26:10.000Z</time>
      </trkpt>
      <trkpt lat="43.54241260327398777008056640625" lon="-6.8330889008939266204833984375">
        <ele>81.8000030517578125</ele>
        <time>2019-07-09T10:26:12.000Z</time>
      </trkpt>
      <trkpt lat="43.5424810834228992462158203125" lon="-6.83224744163453578948974609375">
        <ele>82.40000152587890625</ele>
        <time>2019-07-09T10:26:14.000Z</time>
      </trkpt>
      <trkpt lat="43.54252450168132781982421875" lon="-6.8318285979330539703369140625">
        <ele>83.1999969482421875</ele>
        <time>2019-07-09T10:26:15.000Z</time>
      </trkpt>
      <trkpt lat="43.54262131266295909881591796875" lon="-6.8310031481087207794189453125">
        <ele>84</ele>
        <time>2019-07-09T10:26:17.000Z</time>
      </trkpt>
      <trkpt lat="43.54271016083657741546630859375" lon="-6.83018549345433712005615234375">
        <ele>83.59999847412109375</ele>
        <time>2019-07-09T10:26:19.000Z</time>
      </trkpt>
      <trkpt lat="43.5427949018776416778564453125" lon="-6.82937546633183956146240234375">
        <ele>82.59999847412109375</ele>
        <time>2019-07-09T10:26:21.000Z</time>
      </trkpt>
      <trkpt lat="43.54283588938415050506591796875" lon="-6.82897347025573253631591796875">
        <ele>81.40000152587890625</ele>
        <time>2019-07-09T10:26:22.000Z</time>
      </trkpt>
      <trkpt lat="43.5429135896265506744384765625" lon="-6.82816721498966217041015625">
        <ele>80.59999847412109375</ele>
        <time>2019-07-09T10:26:24.000Z</time>
      </trkpt>
      <trkpt lat="43.54298223741352558135986328125" lon="-6.82735626585781574249267578125">
        <ele>81.59999847412109375</ele>
        <time>2019-07-09T10:26:26.000Z</time>
      </trkpt>
      <trkpt lat="43.5430141724646091461181640625" lon="-6.82694907300174236297607421875">
        <ele>83.1999969482421875</ele>
        <time>2019-07-09T10:26:27.000Z</time>
      </trkpt>
      <trkpt lat="43.54304426349699497222900390625" lon="-6.82654154486954212188720703125">
        <ele>85</ele>
        <time>2019-07-09T10:26:28.000Z</time>
      </trkpt>
      <trkpt lat="43.543098159134387969970703125" lon="-6.8257252313196659088134765625">
        <ele>86.40000152587890625</ele>
        <time>2019-07-09T10:26:30.000Z</time>
      </trkpt>
      <trkpt lat="43.5431425832211971282958984375" lon="-6.824908666312694549560546875">
        <ele>87.1999969482421875</ele>
        <time>2019-07-09T10:26:32.000Z</time>
      </trkpt>
      <trkpt lat="43.54316412471234798431396484375" lon="-6.82450122199952602386474609375">
        <ele>87.40000152587890625</ele>
        <time>2019-07-09T10:26:33.000Z</time>
      </trkpt>
      <trkpt lat="43.54320184327661991119384765625" lon="-6.82369194924831390380859375">
        <ele>89.40000152587890625</ele>
        <time>2019-07-09T10:26:35.000Z</time>
      </trkpt>
      <trkpt lat="43.543231599032878875732421875" lon="-6.8228941597044467926025390625">
        <ele>89.8000030517578125</ele>
        <time>2019-07-09T10:26:37.000Z</time>
      </trkpt>
      <trkpt lat="43.5432471893727779388427734375" lon="-6.82210148312151432037353515625">
        <ele>87.40000152587890625</ele>
        <time>2019-07-09T10:26:39.000Z</time>
      </trkpt>
      <trkpt lat="43.54325766675174236297607421875" lon="-6.821706779301166534423828125">
        <ele>86.1999969482421875</ele>
        <time>2019-07-09T10:26:40.000Z</time>
      </trkpt>
      <trkpt lat="43.54326856322586536407470703125" lon="-6.8213126622140407562255859375">
        <ele>84.40000152587890625</ele>
        <time>2019-07-09T10:26:41.000Z</time>
      </trkpt>
      <trkpt lat="43.54328180663287639617919921875" lon="-6.8205167166888713836669921875">
        <ele>83.1999969482421875</ele>
        <time>2019-07-09T10:26:43.000Z</time>
      </trkpt>
      <trkpt lat="43.543284237384796142578125" lon="-6.8197080306708812713623046875">
        <ele>82</ele>
        <time>2019-07-09T10:26:45.000Z</time>
      </trkpt>
      <trkpt lat="43.54326085187494754791259765625" lon="-6.81888853199779987335205078125">
        <ele>83.40000152587890625</ele>
        <time>2019-07-09T10:26:47.000Z</time>
      </trkpt>
      <trkpt lat="43.5432220436632633209228515625" lon="-6.8180613219738006591796875">
        <ele>84.59999847412109375</ele>
        <time>2019-07-09T10:26:49.000Z</time>
      </trkpt>
      <trkpt lat="43.5432059504091739654541015625" lon="-6.8176455795764923095703125">
        <ele>86.59999847412109375</ele>
        <time>2019-07-09T10:26:50.000Z</time>
      </trkpt>
      <trkpt lat="43.5431838221848011016845703125" lon="-6.81681451387703418731689453125">
        <ele>85.40000152587890625</ele>
        <time>2019-07-09T10:26:52.000Z</time>
      </trkpt>
      <trkpt lat="43.5431771166622638702392578125" lon="-6.8163983523845672607421875">
        <ele>83.1999969482421875</ele>
        <time>2019-07-09T10:26:53.000Z</time>
      </trkpt>
      <trkpt lat="43.54317627847194671630859375" lon="-6.815982274711132049560546875">
        <ele>81.59999847412109375</ele>
        <time>2019-07-09T10:26:54.000Z</time>
      </trkpt>
      <trkpt lat="43.5431972332298755645751953125" lon="-6.8151482753455638885498046875">
        <ele>82.40000152587890625</ele>
        <time>2019-07-09T10:26:56.000Z</time>
      </trkpt>
      <trkpt lat="43.543240316212177276611328125" lon="-6.81431092321872711181640625">
        <ele>83.1999969482421875</ele>
        <time>2019-07-09T10:26:58.000Z</time>
      </trkpt>
      <trkpt lat="43.54327149689197540283203125" lon="-6.81389191187918186187744140625">
        <ele>84.59999847412109375</ele>
        <time>2019-07-09T10:26:59.000Z</time>
      </trkpt>
      <trkpt lat="43.5433095507323741912841796875" lon="-6.8134702183306217193603515625">
        <ele>86.1999969482421875</ele>
        <time>2019-07-09T10:27:00.000Z</time>
      </trkpt>
      <trkpt lat="43.54335288517177104949951171875" lon="-6.8130507878959178924560546875">
        <ele>88</ele>
        <time>2019-07-09T10:27:01.000Z</time>
      </trkpt>
      <trkpt lat="43.543462939560413360595703125" lon="-6.81221117265522480010986328125">
        <ele>89.1999969482421875</ele>
        <time>2019-07-09T10:27:03.000Z</time>
      </trkpt>
      <trkpt lat="43.54360006749629974365234375" lon="-6.8113774247467517852783203125">
        <ele>89</ele>
        <time>2019-07-09T10:27:05.000Z</time>
      </trkpt>
      <trkpt lat="43.54376904666423797607421875" lon="-6.81056044064462184906005859375">
        <ele>88.1999969482421875</ele>
        <time>2019-07-09T10:27:07.000Z</time>
      </trkpt>
      <trkpt lat="43.54385630227625370025634765625" lon="-6.8101563490927219390869140625">
        <ele>87</ele>
        <time>2019-07-09T10:27:08.000Z</time>
      </trkpt>
      <trkpt lat="43.543944060802459716796875" lon="-6.80975544266402721405029296875">
        <ele>85.40000152587890625</ele>
        <time>2019-07-09T10:27:09.000Z</time>
      </trkpt>
      <trkpt lat="43.54410876519978046417236328125" lon="-6.808945834636688232421875">
        <ele>84.1999969482421875</ele>
        <time>2019-07-09T10:27:11.000Z</time>
      </trkpt>
      <trkpt lat="43.54425360448658466339111328125" lon="-6.8081264197826385498046875">
        <ele>82.8000030517578125</ele>
        <time>2019-07-09T10:27:13.000Z</time>
      </trkpt>
      <trkpt lat="43.54438570328056812286376953125" lon="-6.80729091167449951171875">
        <ele>81.8000030517578125</ele>
        <time>2019-07-09T10:27:15.000Z</time>
      </trkpt>
      <trkpt lat="43.54448192752897739410400390625" lon="-6.806442327797412872314453125">
        <ele>79.59999847412109375</ele>
        <time>2019-07-09T10:27:17.000Z</time>
      </trkpt>
      <trkpt lat="43.54451595805585384368896484375" lon="-6.8060180358588695526123046875">
        <ele>77</ele>
        <time>2019-07-09T10:27:18.000Z</time>
      </trkpt>
      <trkpt lat="43.5445460490882396697998046875" lon="-6.80559382773935794830322265625">
        <ele>75.8000030517578125</ele>
        <time>2019-07-09T10:27:19.000Z</time>
      </trkpt>
      <trkpt lat="43.544568680226802825927734375" lon="-6.80516836233437061309814453125">
        <ele>74.8000030517578125</ele>
        <time>2019-07-09T10:27:20.000Z</time>
      </trkpt>
      <trkpt lat="43.5446000285446643829345703125" lon="-6.80432044900953769683837890625">
        <ele>74.59999847412109375</ele>
        <time>2019-07-09T10:27:22.000Z</time>
      </trkpt>
      <trkpt lat="43.54460455477237701416015625" lon="-6.8034727871417999267578125">
        <ele>74.59999847412109375</ele>
        <time>2019-07-09T10:27:24.000Z</time>
      </trkpt>
      <trkpt lat="43.54457437992095947265625" lon="-6.80263149552047252655029296875">
        <ele>75</ele>
        <time>2019-07-09T10:27:26.000Z</time>
      </trkpt>
      <trkpt lat="43.5445158742368221282958984375" lon="-6.8018099851906299591064453125">
        <ele>73.40000152587890625</ele>
        <time>2019-07-09T10:27:28.000Z</time>
      </trkpt>
      <trkpt lat="43.54443012736737728118896484375" lon="-6.8010083399713039398193359375">
        <ele>73.8000030517578125</ele>
        <time>2019-07-09T10:27:30.000Z</time>
      </trkpt>
      <trkpt lat="43.5443799197673797607421875" lon="-6.8006174080073833465576171875">
        <ele>75.40000152587890625</ele>
        <time>2019-07-09T10:27:31.000Z</time>
      </trkpt>
      <trkpt lat="43.54432350955903530120849609375" lon="-6.80023175664246082305908203125">
        <ele>77.59999847412109375</ele>
        <time>2019-07-09T10:27:32.000Z</time>
      </trkpt>
      <trkpt lat="43.54425989091396331787109375" lon="-6.79984535090625286102294921875">
        <ele>80.59999847412109375</ele>
        <time>2019-07-09T10:27:33.000Z</time>
      </trkpt>
      <trkpt lat="43.5441894829273223876953125" lon="-6.79945760406553745269775390625">
        <ele>82.1999969482421875</ele>
        <time>2019-07-09T10:27:34.000Z</time>
      </trkpt>
      <trkpt lat="43.5441115312278270721435546875" lon="-6.799066923558712005615234375">
        <ele>84.8000030517578125</ele>
        <time>2019-07-09T10:27:35.000Z</time>
      </trkpt>
      <trkpt lat="43.5440285503864288330078125" lon="-6.79867473430931568145751953125">
        <ele>86.8000030517578125</ele>
        <time>2019-07-09T10:27:36.000Z</time>
      </trkpt>
      <trkpt lat="43.5439425520598888397216796875" lon="-6.79828112013638019561767578125">
        <ele>88.1999969482421875</ele>
        <time>2019-07-09T10:27:37.000Z</time>
      </trkpt>
      <trkpt lat="43.543850518763065338134765625" lon="-6.79789136163890361785888671875">
        <ele>89.40000152587890625</ele>
        <time>2019-07-09T10:27:38.000Z</time>
      </trkpt>
      <trkpt lat="43.543640635907649993896484375" lon="-6.7971020378172397613525390625">
        <ele>89.1999969482421875</ele>
        <time>2019-07-09T10:27:40.000Z</time>
      </trkpt>
      <trkpt lat="43.543421365320682525634765625" lon="-6.796319670975208282470703125">
        <ele>89.1999969482421875</ele>
        <time>2019-07-09T10:27:42.000Z</time>
      </trkpt>
      <trkpt lat="43.543203771114349365234375" lon="-6.79555180482566356658935546875">
        <ele>90.1999969482421875</ele>
        <time>2019-07-09T10:27:44.000Z</time>
      </trkpt>
      <trkpt lat="43.54309857822954654693603515625" lon="-6.7951725237071514129638671875">
        <ele>91.59999847412109375</ele>
        <time>2019-07-09T10:27:45.000Z</time>
      </trkpt>
      <trkpt lat="43.542994558811187744140625" lon="-6.79479843936860561370849609375">
        <ele>94.1999969482421875</ele>
        <time>2019-07-09T10:27:46.000Z</time>
      </trkpt>
      <trkpt lat="43.54289171285927295684814453125" lon="-6.7944288812577724456787109375">
        <ele>95.8000030517578125</ele>
        <time>2019-07-09T10:27:47.000Z</time>
      </trkpt>
      <trkpt lat="43.54268836788833141326904296875" lon="-6.79369688965380191802978515625">
        <ele>98.1999969482421875</ele>
        <time>2019-07-09T10:27:49.000Z</time>
      </trkpt>
      <trkpt lat="43.542586863040924072265625" lon="-6.7933342047035694122314453125">
        <ele>100.40000152587890625</ele>
        <time>2019-07-09T10:27:50.000Z</time>
      </trkpt>
      <trkpt lat="43.54238611645996570587158203125" lon="-6.7926170490682125091552734375">
        <ele>100.59999847412109375</ele>
        <time>2019-07-09T10:27:52.000Z</time>
      </trkpt>
      <trkpt lat="43.5422866232693195343017578125" lon="-6.7922593094408512115478515625">
        <ele>101.59999847412109375</ele>
        <time>2019-07-09T10:27:53.000Z</time>
      </trkpt>
      <trkpt lat="43.54218930937349796295166015625" lon="-6.79190014488995075225830078125">
        <ele>103.59999847412109375</ele>
        <time>2019-07-09T10:27:54.000Z</time>
      </trkpt>
      <trkpt lat="43.5420921631157398223876953125" lon="-6.79153821431100368499755859375">
        <ele>105.1999969482421875</ele>
        <time>2019-07-09T10:27:55.000Z</time>
      </trkpt>
      <trkpt lat="43.54189409874379634857177734375" lon="-6.79081284441053867340087890625">
        <ele>107</ele>
        <time>2019-07-09T10:27:57.000Z</time>
      </trkpt>
      <trkpt lat="43.5417924262583255767822265625" lon="-6.7904518358409404754638671875">
        <ele>109.59999847412109375</ele>
        <time>2019-07-09T10:27:58.000Z</time>
      </trkpt>
      <trkpt lat="43.5416896641254425048828125" lon="-6.7900927551090717315673828125">
        <ele>111.8000030517578125</ele>
        <time>2019-07-09T10:27:59.000Z</time>
      </trkpt>
      <trkpt lat="43.54158530943095684051513671875" lon="-6.78973342292010784149169921875">
        <ele>112.8000030517578125</ele>
        <time>2019-07-09T10:28:00.000Z</time>
      </trkpt>
      <trkpt lat="43.541382215917110443115234375" lon="-6.78901207633316516876220703125">
        <ele>113.40000152587890625</ele>
        <time>2019-07-09T10:28:02.000Z</time>
      </trkpt>
      <trkpt lat="43.54128356091678142547607421875" lon="-6.788652576506137847900390625">
        <ele>115</ele>
        <time>2019-07-09T10:28:03.000Z</time>
      </trkpt>
      <trkpt lat="43.5410853289067745208740234375" lon="-6.78793449886143207550048828125">
        <ele>116.1999969482421875</ele>
        <time>2019-07-09T10:28:05.000Z</time>
      </trkpt>
      <trkpt lat="43.5409857518970966339111328125" lon="-6.78757759742438793182373046875">
        <ele>118</ele>
        <time>2019-07-09T10:28:06.000Z</time>
      </trkpt>
      <trkpt lat="43.5408841632306575775146484375" lon="-6.7872214503586292266845703125">
        <ele>120.40000152587890625</ele>
        <time>2019-07-09T10:28:07.000Z</time>
      </trkpt>
      <trkpt lat="43.54078416712582111358642578125" lon="-6.78686480037868022918701171875">
        <ele>121.59999847412109375</ele>
        <time>2019-07-09T10:28:08.000Z</time>
      </trkpt>
      <trkpt lat="43.5406850092113018035888671875" lon="-6.78650974296033382415771484375">
        <ele>123.40000152587890625</ele>
        <time>2019-07-09T10:28:09.000Z</time>
      </trkpt>
      <trkpt lat="43.54058526456356048583984375" lon="-6.78615233860909938812255859375">
        <ele>125.1999969482421875</ele>
        <time>2019-07-09T10:28:10.000Z</time>
      </trkpt>
      <trkpt lat="43.5404853522777557373046875" lon="-6.78579443134367465972900390625">
        <ele>127.8000030517578125</ele>
        <time>2019-07-09T10:28:11.000Z</time>
      </trkpt>
      <trkpt lat="43.540384434163570404052734375" lon="-6.78543627262115478515625">
        <ele>129.600006103515625</ele>
        <time>2019-07-09T10:28:12.000Z</time>
      </trkpt>
      <trkpt lat="43.5402840189635753631591796875" lon="-6.78507828153669834136962890625">
        <ele>131.1999969482421875</ele>
        <time>2019-07-09T10:28:13.000Z</time>
      </trkpt>
      <trkpt lat="43.540183603763580322265625" lon="-6.7847202904522418975830078125">
        <ele>132.399993896484375</ele>
        <time>2019-07-09T10:28:14.000Z</time>
      </trkpt>
      <trkpt lat="43.53998755104839801788330078125" lon="-6.78401512093842029571533203125">
        <ele>133.8000030517578125</ele>
        <time>2019-07-09T10:28:16.000Z</time>
      </trkpt>
      <trkpt lat="43.53980281390249729156494140625" lon="-6.7833342589437961578369140625">
        <ele>134.8000030517578125</ele>
        <time>2019-07-09T10:28:18.000Z</time>
      </trkpt>
      <trkpt lat="43.53962905704975128173828125" lon="-6.78267150186002254486083984375">
        <ele>136.1999969482421875</ele>
        <time>2019-07-09T10:28:20.000Z</time>
      </trkpt>
      <trkpt lat="43.53946770541369915008544921875" lon="-6.78200111724436283111572265625">
        <ele>137</ele>
        <time>2019-07-09T10:28:22.000Z</time>
      </trkpt>
      <trkpt lat="43.53933325968682765960693359375" lon="-6.7813011445105075836181640625">
        <ele>136.1999969482421875</ele>
        <time>2019-07-09T10:28:24.000Z</time>
      </trkpt>
      <trkpt lat="43.53927710093557834625244140625" lon="-6.780939213931560516357421875">
        <ele>133.8000030517578125</ele>
        <time>2019-07-09T10:28:25.000Z</time>
      </trkpt>
      <trkpt lat="43.53922530077397823333740234375" lon="-6.780570410192012786865234375">
        <ele>132.600006103515625</ele>
        <time>2019-07-09T10:28:26.000Z</time>
      </trkpt>
      <trkpt lat="43.53913175873458385467529296875" lon="-6.779810003936290740966796875">
        <ele>130.1999969482421875</ele>
        <time>2019-07-09T10:28:28.000Z</time>
      </trkpt>
      <trkpt lat="43.539094962179660797119140625" lon="-6.77941664122045040130615234375">
        <ele>129.1999969482421875</ele>
        <time>2019-07-09T10:28:29.000Z</time>
      </trkpt>
      <trkpt lat="43.5390642844140529632568359375" lon="-6.7790162377059459686279296875">
        <ele>130.399993896484375</ele>
        <time>2019-07-09T10:28:30.000Z</time>
      </trkpt>
      <trkpt lat="43.53903888724744319915771484375" lon="-6.77860803902149200439453125">
        <ele>132.600006103515625</ele>
        <time>2019-07-09T10:28:31.000Z</time>
      </trkpt>
      <trkpt lat="43.5390230454504489898681640625" lon="-6.7781971581280231475830078125">
        <ele>133.8000030517578125</ele>
        <time>2019-07-09T10:28:32.000Z</time>
      </trkpt>
      <trkpt lat="43.539017848670482635498046875" lon="-6.7777864448726177215576171875">
        <ele>130.8000030517578125</ele>
        <time>2019-07-09T10:28:33.000Z</time>
      </trkpt>
      <trkpt lat="43.5390203632414340972900390625" lon="-6.77738252095878124237060546875">
        <ele>126</ele>
        <time>2019-07-09T10:28:34.000Z</time>
      </trkpt>
      <trkpt lat="43.53902983479201793670654296875" lon="-6.77698723040521144866943359375">
        <ele>124.8000030517578125</ele>
        <time>2019-07-09T10:28:35.000Z</time>
      </trkpt>
      <trkpt lat="43.53904626332223415374755859375" lon="-6.7765985615551471710205078125">
        <ele>123.1999969482421875</ele>
        <time>2019-07-09T10:28:36.000Z</time>
      </trkpt>
      <trkpt lat="43.53906788863241672515869140625" lon="-6.77621827460825443267822265625">
        <ele>120.8000030517578125</ele>
        <time>2019-07-09T10:28:37.000Z</time>
      </trkpt>
      <trkpt lat="43.5390954650938510894775390625" lon="-6.77584729157388210296630859375">
        <ele>119.1999969482421875</ele>
        <time>2019-07-09T10:28:38.000Z</time>
      </trkpt>
      <trkpt lat="43.53912807069718837738037109375" lon="-6.77548251114785671234130859375">
        <ele>117.1999969482421875</ele>
        <time>2019-07-09T10:28:39.000Z</time>
      </trkpt>
      <trkpt lat="43.53916293941438198089599609375" lon="-6.775123514235019683837890625">
        <ele>115.8000030517578125</ele>
        <time>2019-07-09T10:28:40.000Z</time>
      </trkpt>
      <trkpt lat="43.539204262197017669677734375" lon="-6.77477424032986164093017578125">
        <ele>114.40000152587890625</ele>
        <time>2019-07-09T10:28:41.000Z</time>
      </trkpt>
      <trkpt lat="43.53925027884542942047119140625" lon="-6.77443376742303371429443359375">
        <ele>112.8000030517578125</ele>
        <time>2019-07-09T10:28:42.000Z</time>
      </trkpt>
      <trkpt lat="43.53930023498833179473876953125" lon="-6.77409916184842586517333984375">
        <ele>111.8000030517578125</ele>
        <time>2019-07-09T10:28:43.000Z</time>
      </trkpt>
      <trkpt lat="43.53940819390118122100830078125" lon="-6.77343313582241535186767578125">
        <ele>109.8000030517578125</ele>
        <time>2019-07-09T10:28:45.000Z</time>
      </trkpt>
      <trkpt lat="43.53947474621236324310302734375" lon="-6.77310146391391754150390625">
        <ele>108.1999969482421875</ele>
        <time>2019-07-09T10:28:46.000Z</time>
      </trkpt>
      <trkpt lat="43.53954683057963848114013671875" lon="-6.7727693729102611541748046875">
        <ele>106.8000030517578125</ele>
        <time>2019-07-09T10:28:47.000Z</time>
      </trkpt>
      <trkpt lat="43.53970357216894626617431640625" lon="-6.772108711302280426025390625">
        <ele>107.40000152587890625</ele>
        <time>2019-07-09T10:28:49.000Z</time>
      </trkpt>
      <trkpt lat="43.5398598946630954742431640625" lon="-6.7714517377316951751708984375">
        <ele>106</ele>
        <time>2019-07-09T10:28:51.000Z</time>
      </trkpt>
      <trkpt lat="43.5399360023438930511474609375" lon="-6.7711349017918109893798828125">
        <ele>105.59999847412109375</ele>
        <time>2019-07-09T10:28:52.000Z</time>
      </trkpt>
      <trkpt lat="43.54006634093821048736572265625" lon="-6.77052176557481288909912109375">
        <ele>103.1999969482421875</ele>
        <time>2019-07-09T10:28:54.000Z</time>
      </trkpt>
      <trkpt lat="43.54012082330882549285888671875" lon="-6.77022404037415981292724609375">
        <ele>101.1999969482421875</ele>
        <time>2019-07-09T10:28:55.000Z</time>
      </trkpt>
      <trkpt lat="43.54016725905239582061767578125" lon="-6.7699282430112361907958984375">
        <ele>99.1999969482421875</ele>
        <time>2019-07-09T10:28:56.000Z</time>
      </trkpt>
      <trkpt lat="43.540208078920841217041015625" lon="-6.76963479258120059967041015625">
        <ele>98</ele>
        <time>2019-07-09T10:28:57.000Z</time>
      </trkpt>
      <trkpt lat="43.540310673415660858154296875" lon="-6.7688147909939289093017578125">
        <ele>97</ele>
        <time>2019-07-09T10:29:00.000Z</time>
      </trkpt>
      <trkpt lat="43.54034160263836383819580078125" lon="-6.768154799938201904296875">
        <ele>97.40000152587890625</ele>
        <time>2019-07-09T10:29:03.000Z</time>
      </trkpt>
      <trkpt lat="43.54032500647008419036865234375" lon="-6.76795522682368755340576171875">
        <ele>98</ele>
        <time>2019-07-09T10:29:04.000Z</time>
      </trkpt>
      <trkpt lat="43.54029156267642974853515625" lon="-6.76776831038296222686767578125">
        <ele>98.59999847412109375</ele>
        <time>2019-07-09T10:29:05.000Z</time>
      </trkpt>
      <trkpt lat="43.5401629842817783355712890625" lon="-6.76744611002504825592041015625">
        <ele>99</ele>
        <time>2019-07-09T10:29:07.000Z</time>
      </trkpt>
      <trkpt lat="43.539974391460418701171875" lon="-6.76717403344810009002685546875">
        <ele>98.59999847412109375</ele>
        <time>2019-07-09T10:29:09.000Z</time>
      </trkpt>
      <trkpt lat="43.5396350920200347900390625" lon="-6.76681277342140674591064453125">
        <ele>97</ele>
        <time>2019-07-09T10:29:12.000Z</time>
      </trkpt>
      <trkpt lat="43.539547584950923919677734375" lon="-6.76667095161974430084228515625">
        <ele>96.59999847412109375</ele>
        <time>2019-07-09T10:29:13.000Z</time>
      </trkpt>
      <trkpt lat="43.53949016891419887542724609375" lon="-6.76651119254529476165771484375">
        <ele>96</ele>
        <time>2019-07-09T10:29:14.000Z</time>
      </trkpt>
      <trkpt lat="43.53946544229984283447265625" lon="-6.7663376033306121826171875">
        <ele>95.40000152587890625</ele>
        <time>2019-07-09T10:29:15.000Z</time>
      </trkpt>
      <trkpt lat="43.53948497213423252105712890625" lon="-6.76615781150758266448974609375">
        <ele>94.59999847412109375</ele>
        <time>2019-07-09T10:29:16.000Z</time>
      </trkpt>
      <trkpt lat="43.5395519435405731201171875" lon="-6.76598682068288326263427734375">
        <ele>94</ele>
        <time>2019-07-09T10:29:17.000Z</time>
      </trkpt>
      <trkpt lat="43.5396583937108516693115234375" lon="-6.7658459208905696868896484375">
        <ele>93.8000030517578125</ele>
        <time>2019-07-09T10:29:18.000Z</time>
      </trkpt>
      <trkpt lat="43.5399712063372135162353515625" lon="-6.76569345407187938690185546875">
        <ele>93.1999969482421875</ele>
        <time>2019-07-09T10:29:20.000Z</time>
      </trkpt>
      <trkpt lat="43.54015619494020938873291015625" lon="-6.7656762711703777313232421875">
        <ele>92.59999847412109375</ele>
        <time>2019-07-09T10:29:21.000Z</time>
      </trkpt>
      <trkpt lat="43.54069146327674388885498046875" lon="-6.76567652262747287750244140625">
        <ele>91.8000030517578125</ele>
        <time>2019-07-09T10:29:24.000Z</time>
      </trkpt>
      <trkpt lat="43.54083160869777202606201171875" lon="-6.76567719317972660064697265625">
        <ele>90.40000152587890625</ele>
        <time>2019-07-09T10:29:25.000Z</time>
      </trkpt>
      <trkpt lat="43.54095230810344219207763671875" lon="-6.7656631954014301300048828125">
        <ele>88.59999847412109375</ele>
        <time>2019-07-09T10:29:26.000Z</time>
      </trkpt>
      <trkpt lat="43.5410497896373271942138671875" lon="-6.76564416848123073577880859375">
        <ele>86.8000030517578125</ele>
        <time>2019-07-09T10:29:27.000Z</time>
      </trkpt>
      <trkpt lat="43.54113033972680568695068359375" lon="-6.76561332307755947113037109375">
        <ele>86</ele>
        <time>2019-07-09T10:29:28.000Z</time>
      </trkpt>
      <trkpt lat="43.5411969758570194244384765625" lon="-6.76555314101278781890869140625">
        <ele>85.59999847412109375</ele>
        <time>2019-07-09T10:29:29.000Z</time>
      </trkpt>
      <trkpt lat="43.54125489480793476104736328125" lon="-6.765465550124645233154296875">
        <ele>86.1999969482421875</ele>
        <time>2019-07-09T10:29:30.000Z</time>
      </trkpt>
      <trkpt lat="43.5413096286356449127197265625" lon="-6.7653614468872547149658203125">
        <ele>87.1999969482421875</ele>
        <time>2019-07-09T10:29:31.000Z</time>
      </trkpt>
      <trkpt lat="43.54136520065367221832275390625" lon="-6.76525533199310302734375">
        <ele>88.1999969482421875</ele>
        <time>2019-07-09T10:29:32.000Z</time>
      </trkpt>
      <trkpt lat="43.54147030971944332122802734375" lon="-6.765041090548038482666015625">
        <ele>89</ele>
        <time>2019-07-09T10:29:34.000Z</time>
      </trkpt>
      <trkpt lat="43.54149612598121166229248046875" lon="-6.76479156129062175750732421875">
        <ele>89</ele>
        <time>2019-07-09T10:29:36.000Z</time>
      </trkpt>
      <trkpt lat="43.54137676768004894256591796875" lon="-6.7640998028218746185302734375">
        <ele>88</ele>
        <time>2019-07-09T10:29:40.000Z</time>
      </trkpt>
      <trkpt lat="43.5413491912186145782470703125" lon="-6.7638922668993473052978515625">
        <ele>86.8000030517578125</ele>
        <time>2019-07-09T10:29:41.000Z</time>
      </trkpt>
      <trkpt lat="43.54132144711911678314208984375" lon="-6.76368397660553455352783203125">
        <ele>85.1999969482421875</ele>
        <time>2019-07-09T10:29:42.000Z</time>
      </trkpt>
      <trkpt lat="43.5412901826202869415283203125" lon="-6.76346722058951854705810546875">
        <ele>84.1999969482421875</ele>
        <time>2019-07-09T10:29:43.000Z</time>
      </trkpt>
      <trkpt lat="43.541254810988903045654296875" lon="-6.76324191503226757049560546875">
        <ele>83.1999969482421875</ele>
        <time>2019-07-09T10:29:44.000Z</time>
      </trkpt>
      <trkpt lat="43.541134782135486602783203125" lon="-6.7625307105481624603271484375">
        <ele>83.40000152587890625</ele>
        <time>2019-07-09T10:29:47.000Z</time>
      </trkpt>
      <trkpt lat="43.5410957224667072296142578125" lon="-6.76228755153715610504150390625">
        <ele>85</ele>
        <time>2019-07-09T10:29:48.000Z</time>
      </trkpt>
      <trkpt lat="43.5410548187792301177978515625" lon="-6.76204405725002288818359375">
        <ele>86.1999969482421875</ele>
        <time>2019-07-09T10:29:49.000Z</time>
      </trkpt>
      <trkpt lat="43.540983237326145172119140625" lon="-6.76154793240129947662353515625">
        <ele>87.59999847412109375</ele>
        <time>2019-07-09T10:29:51.000Z</time>
      </trkpt>
      <trkpt lat="43.54087804444134235382080078125" lon="-6.76079724915325641632080078125">
        <ele>87</ele>
        <time>2019-07-09T10:29:54.000Z</time>
      </trkpt>
      <trkpt lat="43.5407723486423492431640625" lon="-6.7600161395967006683349609375">
        <ele>88.59999847412109375</ele>
        <time>2019-07-09T10:29:57.000Z</time>
      </trkpt>
      <trkpt lat="43.54073421098291873931884765625" lon="-6.75974783487617969512939453125">
        <ele>89.8000030517578125</ele>
        <time>2019-07-09T10:29:58.000Z</time>
      </trkpt>
      <trkpt lat="43.54059959761798381805419921875" lon="-6.75890545360743999481201171875">
        <ele>90</ele>
        <time>2019-07-09T10:30:01.000Z</time>
      </trkpt>
      <trkpt lat="43.5405599512159824371337890625" lon="-6.758625917136669158935546875">
        <ele>88.1999969482421875</ele>
        <time>2019-07-09T10:30:02.000Z</time>
      </trkpt>
      <trkpt lat="43.540521562099456787109375" lon="-6.75835065543651580810546875">
        <ele>86.59999847412109375</ele>
        <time>2019-07-09T10:30:03.000Z</time>
      </trkpt>
      <trkpt lat="43.5404808260500431060791015625" lon="-6.7580737173557281494140625">
        <ele>84.59999847412109375</ele>
        <time>2019-07-09T10:30:04.000Z</time>
      </trkpt>
      <trkpt lat="43.54043749161064624786376953125" lon="-6.75779216922819614410400390625">
        <ele>83.59999847412109375</ele>
        <time>2019-07-09T10:30:05.000Z</time>
      </trkpt>
      <trkpt lat="43.5403048060834407806396484375" lon="-6.756904609501361846923828125">
        <ele>85.1999969482421875</ele>
        <time>2019-07-09T10:30:08.000Z</time>
      </trkpt>
      <trkpt lat="43.54021352715790271759033203125" lon="-6.75630589015781879425048828125">
        <ele>86.40000152587890625</ele>
        <time>2019-07-09T10:30:10.000Z</time>
      </trkpt>
      <trkpt lat="43.54009416885673999786376953125" lon="-6.755519248545169830322265625">
        <ele>85.8000030517578125</ele>
        <time>2019-07-09T10:30:13.000Z</time>
      </trkpt>
      <trkpt lat="43.54006315581500530242919921875" lon="-6.7552863992750644683837890625">
        <ele>84.8000030517578125</ele>
        <time>2019-07-09T10:30:14.000Z</time>
      </trkpt>
      <trkpt lat="43.54000054299831390380859375" lon="-6.7548347823321819305419921875">
        <ele>83.59999847412109375</ele>
        <time>2019-07-09T10:30:16.000Z</time>
      </trkpt>
      <trkpt lat="43.5399292968213558197021484375" lon="-6.75436749123036861419677734375">
        <ele>84.8000030517578125</ele>
        <time>2019-07-09T10:30:18.000Z</time>
      </trkpt>
      <trkpt lat="43.5398904047906398773193359375" lon="-6.7541273497045040130615234375">
        <ele>85.8000030517578125</ele>
        <time>2019-07-09T10:30:19.000Z</time>
      </trkpt>
      <trkpt lat="43.53985260240733623504638671875" lon="-6.7538799159228801727294921875">
        <ele>87.40000152587890625</ele>
        <time>2019-07-09T10:30:20.000Z</time>
      </trkpt>
      <trkpt lat="43.5398142971098423004150390625" lon="-6.75362938083708286285400390625">
        <ele>89</ele>
        <time>2019-07-09T10:30:21.000Z</time>
      </trkpt>
      <trkpt lat="43.53977263905107975006103515625" lon="-6.7533743195235729217529296875">
        <ele>90.1999969482421875</ele>
        <time>2019-07-09T10:30:22.000Z</time>
      </trkpt>
      <trkpt lat="43.53969787247478961944580078125" lon="-6.7528566531836986541748046875">
        <ele>91.59999847412109375</ele>
        <time>2019-07-09T10:30:24.000Z</time>
      </trkpt>
      <trkpt lat="43.5395997203886508941650390625" lon="-6.7521029524505138397216796875">
        <ele>92.1999969482421875</ele>
        <time>2019-07-09T10:30:27.000Z</time>
      </trkpt>
      <trkpt lat="43.53953945450484752655029296875" lon="-6.75143131054937839508056640625">
        <ele>91.8000030517578125</ele>
        <time>2019-07-09T10:30:30.000Z</time>
      </trkpt>
      <trkpt lat="43.53956577368080615997314453125" lon="-6.75061759538948535919189453125">
        <ele>93</ele>
        <time>2019-07-09T10:30:34.000Z</time>
      </trkpt>
      <trkpt lat="43.539700470864772796630859375" lon="-6.74982793629169464111328125">
        <ele>92</ele>
        <time>2019-07-09T10:30:38.000Z</time>
      </trkpt>
      <trkpt lat="43.53981588967144489288330078125" lon="-6.749198623001575469970703125">
        <ele>90.8000030517578125</ele>
        <time>2019-07-09T10:30:41.000Z</time>
      </trkpt>
      <trkpt lat="43.539961986243724822998046875" lon="-6.748542822897434234619140625">
        <ele>89.59999847412109375</ele>
        <time>2019-07-09T10:30:44.000Z</time>
      </trkpt>
      <trkpt lat="43.540200032293796539306640625" lon="-6.7478885315358638763427734375">
        <ele>88.8000030517578125</ele>
        <time>2019-07-09T10:30:47.000Z</time>
      </trkpt>
      <trkpt lat="43.54029449634253978729248046875" lon="-6.74767336808145046234130859375">
        <ele>88.40000152587890625</ele>
        <time>2019-07-09T10:30:48.000Z</time>
      </trkpt>
      <trkpt lat="43.54049415327608585357666015625" lon="-6.74724496901035308837890625">
        <ele>85.8000030517578125</ele>
        <time>2019-07-09T10:30:50.000Z</time>
      </trkpt>
      <trkpt lat="43.5406923852860927581787109375" lon="-6.7468218505382537841796875">
        <ele>83.59999847412109375</ele>
        <time>2019-07-09T10:30:52.000Z</time>
      </trkpt>
      <trkpt lat="43.5407926328480243682861328125" lon="-6.74661775119602680206298828125">
        <ele>82.1999969482421875</ele>
        <time>2019-07-09T10:30:53.000Z</time>
      </trkpt>
      <trkpt lat="43.5408995859324932098388671875" lon="-6.7464227043092250823974609375">
        <ele>80.59999847412109375</ele>
        <time>2019-07-09T10:30:54.000Z</time>
      </trkpt>
      <trkpt lat="43.5411379672586917877197265625" lon="-6.7460592649877071380615234375">
        <ele>79.40000152587890625</ele>
        <time>2019-07-09T10:30:56.000Z</time>
      </trkpt>
      <trkpt lat="43.54141230694949626922607421875" lon="-6.74574385397136211395263671875">
        <ele>77.59999847412109375</ele>
        <time>2019-07-09T10:30:58.000Z</time>
      </trkpt>
      <trkpt lat="43.54171522893011569976806640625" lon="-6.74548300914466381072998046875">
        <ele>76.59999847412109375</ele>
        <time>2019-07-09T10:31:00.000Z</time>
      </trkpt>
      <trkpt lat="43.54216231964528560638427734375" lon="-6.74514169804751873016357421875">
        <ele>75.1999969482421875</ele>
        <time>2019-07-09T10:31:03.000Z</time>
      </trkpt>
      <trkpt lat="43.542293496429920196533203125" lon="-6.745025776326656341552734375">
        <ele>74</ele>
        <time>2019-07-09T10:31:04.000Z</time>
      </trkpt>
      <trkpt lat="43.542412854731082916259765625" lon="-6.74489761702716350555419921875">
        <ele>73</ele>
        <time>2019-07-09T10:31:05.000Z</time>
      </trkpt>
      <trkpt lat="43.54260496795177459716796875" lon="-6.74459503032267093658447265625">
        <ele>71.59999847412109375</ele>
        <time>2019-07-09T10:31:07.000Z</time>
      </trkpt>
      <trkpt lat="43.5427539981901645660400390625" lon="-6.74424081109464168548583984375">
        <ele>71.59999847412109375</ele>
        <time>2019-07-09T10:31:09.000Z</time>
      </trkpt>
      <trkpt lat="43.54284879751503467559814453125" lon="-6.74383915029466152191162109375">
        <ele>71.8000030517578125</ele>
        <time>2019-07-09T10:31:11.000Z</time>
      </trkpt>
      <trkpt lat="43.54286690242588520050048828125" lon="-6.74339910037815570831298828125">
        <ele>71.40000152587890625</ele>
        <time>2019-07-09T10:31:13.000Z</time>
      </trkpt>
      <trkpt lat="43.54279674589633941650390625" lon="-6.74296005629003047943115234375">
        <ele>70</ele>
        <time>2019-07-09T10:31:15.000Z</time>
      </trkpt>
      <trkpt lat="43.54266188107430934906005859375" lon="-6.7425683699548244476318359375">
        <ele>69</ele>
        <time>2019-07-09T10:31:17.000Z</time>
      </trkpt>
      <trkpt lat="43.54251318611204624176025390625" lon="-6.7422045953571796417236328125">
        <ele>68</ele>
        <time>2019-07-09T10:31:19.000Z</time>
      </trkpt>
      <trkpt lat="43.54237723164260387420654296875" lon="-6.74184308387339115142822265625">
        <ele>66.59999847412109375</ele>
        <time>2019-07-09T10:31:21.000Z</time>
      </trkpt>
      <trkpt lat="43.54232341982424259185791015625" lon="-6.74165331758558750152587890625">
        <ele>65.59999847412109375</ele>
        <time>2019-07-09T10:31:22.000Z</time>
      </trkpt>
      <trkpt lat="43.54228176176548004150390625" lon="-6.74145533703267574310302734375">
        <ele>64.40000152587890625</ele>
        <time>2019-07-09T10:31:23.000Z</time>
      </trkpt>
      <trkpt lat="43.54224680922925472259521484375" lon="-6.7410230822861194610595703125">
        <ele>63.200000762939453125</ele>
        <time>2019-07-09T10:31:25.000Z</time>
      </trkpt>
      <trkpt lat="43.54227346368134021759033203125" lon="-6.74058110453188419342041015625">
        <ele>62</ele>
        <time>2019-07-09T10:31:27.000Z</time>
      </trkpt>
      <trkpt lat="43.54233901016414165496826171875" lon="-6.7401399649679660797119140625">
        <ele>60.799999237060546875</ele>
        <time>2019-07-09T10:31:29.000Z</time>
      </trkpt>
      <trkpt lat="43.542427606880664825439453125" lon="-6.7396689020097255706787109375">
        <ele>59.59999847412109375</ele>
        <time>2019-07-09T10:31:31.000Z</time>
      </trkpt>
      <trkpt lat="43.54254218749701976776123046875" lon="-6.73920043744146823883056640625">
        <ele>58</ele>
        <time>2019-07-09T10:31:33.000Z</time>
      </trkpt>
      <trkpt lat="43.5426118411123752593994140625" lon="-6.738974042236804962158203125">
        <ele>55.799999237060546875</ele>
        <time>2019-07-09T10:31:34.000Z</time>
      </trkpt>
      <trkpt lat="43.5426933132112026214599609375" lon="-6.73876239918172359466552734375">
        <ele>53.799999237060546875</ele>
        <time>2019-07-09T10:31:35.000Z</time>
      </trkpt>
      <trkpt lat="43.54278693906962871551513671875" lon="-6.73856659792363643646240234375">
        <ele>52.59999847412109375</ele>
        <time>2019-07-09T10:31:36.000Z</time>
      </trkpt>
      <trkpt lat="43.54289003647863864898681640625" lon="-6.7383847944438457489013671875">
        <ele>50.59999847412109375</ele>
        <time>2019-07-09T10:31:37.000Z</time>
      </trkpt>
      <trkpt lat="43.54310528375208377838134765625" lon="-6.73803904093801975250244140625">
        <ele>49.200000762939453125</ele>
        <time>2019-07-09T10:31:39.000Z</time>
      </trkpt>
      <trkpt lat="43.54344139806926250457763671875" lon="-6.737538389861583709716796875">
        <ele>49</ele>
        <time>2019-07-09T10:31:42.000Z</time>
      </trkpt>
      <trkpt lat="43.54376141913235187530517578125" lon="-6.73700429499149322509765625">
        <ele>48.59999847412109375</ele>
        <time>2019-07-09T10:31:45.000Z</time>
      </trkpt>
      <trkpt lat="43.54405243881046772003173828125" lon="-6.7363748140633106231689453125">
        <ele>48.59999847412109375</ele>
        <time>2019-07-09T10:31:48.000Z</time>
      </trkpt>
      <trkpt lat="43.54413055814802646636962890625" lon="-6.73613433726131916046142578125">
        <ele>48</ele>
        <time>2019-07-09T10:31:49.000Z</time>
      </trkpt>
      <trkpt lat="43.5443021357059478759765625" lon="-6.73539019189774990081787109375">
        <ele>46.40000152587890625</ele>
        <time>2019-07-09T10:31:52.000Z</time>
      </trkpt>
      <trkpt lat="43.54438126087188720703125" lon="-6.7348995991051197052001953125">
        <ele>45</ele>
        <time>2019-07-09T10:31:54.000Z</time>
      </trkpt>
      <trkpt lat="43.544466756284236907958984375" lon="-6.7344255186617374420166015625">
        <ele>44</ele>
        <time>2019-07-09T10:31:56.000Z</time>
      </trkpt>
      <trkpt lat="43.5446037165820598602294921875" lon="-6.73371934331953525543212890625">
        <ele>43.40000152587890625</ele>
        <time>2019-07-09T10:31:59.000Z</time>
      </trkpt>
      <trkpt lat="43.5447344742715358734130859375" lon="-6.73325054347515106201171875">
        <ele>42.40000152587890625</ele>
        <time>2019-07-09T10:32:01.000Z</time>
      </trkpt>
      <trkpt lat="43.54480630718171596527099609375" lon="-6.73302062787115573883056640625">
        <ele>41.200000762939453125</ele>
        <time>2019-07-09T10:32:02.000Z</time>
      </trkpt>
      <trkpt lat="43.54487503878772258758544921875" lon="-6.73279431648552417755126953125">
        <ele>40.200000762939453125</ele>
        <time>2019-07-09T10:32:03.000Z</time>
      </trkpt>
      <trkpt lat="43.5449440218508243560791015625" lon="-6.7325677536427974700927734375">
        <ele>38.200000762939453125</ele>
        <time>2019-07-09T10:32:04.000Z</time>
      </trkpt>
      <trkpt lat="43.545005209743976593017578125" lon="-6.73233666457235813140869140625">
        <ele>36.40000152587890625</ele>
        <time>2019-07-09T10:32:05.000Z</time>
      </trkpt>
      <trkpt lat="43.54506723582744598388671875" lon="-6.73210649751126766204833984375">
        <ele>34.59999847412109375</ele>
        <time>2019-07-09T10:32:06.000Z</time>
      </trkpt>
      <trkpt lat="43.5451277531683444976806640625" lon="-6.73188261687755584716796875">
        <ele>33.200000762939453125</ele>
        <time>2019-07-09T10:32:07.000Z</time>
      </trkpt>
      <trkpt lat="43.54522607289254665374755859375" lon="-6.73146343789994716644287109375">
        <ele>31.6000003814697265625</ele>
        <time>2019-07-09T10:32:09.000Z</time>
      </trkpt>
      <trkpt lat="43.54532363824546337127685546875" lon="-6.7308444343507289886474609375">
        <ele>30.6000003814697265625</ele>
        <time>2019-07-09T10:32:12.000Z</time>
      </trkpt>
      <trkpt lat="43.54530469514429569244384765625" lon="-6.73039910383522510528564453125">
        <ele>31.200000762939453125</ele>
        <time>2019-07-09T10:32:14.000Z</time>
      </trkpt>
      <trkpt lat="43.5451934672892093658447265625" lon="-6.72997556626796722412109375">
        <ele>32.200000762939453125</ele>
        <time>2019-07-09T10:32:16.000Z</time>
      </trkpt>
      <trkpt lat="43.5448930598795413970947265625" lon="-6.72944172285497188568115234375">
        <ele>32.59999847412109375</ele>
        <time>2019-07-09T10:32:19.000Z</time>
      </trkpt>
      <trkpt lat="43.54467940516769886016845703125" lon="-6.7292009107768535614013671875">
        <ele>30.3999996185302734375</ele>
        <time>2019-07-09T10:32:21.000Z</time>
      </trkpt>
      <trkpt lat="43.54457446373999118804931640625" lon="-6.72911516390740871429443359375">
        <ele>29</ele>
        <time>2019-07-09T10:32:22.000Z</time>
      </trkpt>
      <trkpt lat="43.54446935467422008514404296875" lon="-6.72904291190207004547119140625">
        <ele>27</ele>
        <time>2019-07-09T10:32:23.000Z</time>
      </trkpt>
      <trkpt lat="43.54436592198908329010009765625" lon="-6.7289849929511547088623046875">
        <ele>25.799999237060546875</ele>
        <time>2019-07-09T10:32:24.000Z</time>
      </trkpt>
      <trkpt lat="43.54415796697139739990234375" lon="-6.72890670597553253173828125">
        <ele>24.6000003814697265625</ele>
        <time>2019-07-09T10:32:26.000Z</time>
      </trkpt>
      <trkpt lat="43.54377449490129947662353515625" lon="-6.728764884173870086669921875">
        <ele>23.200000762939453125</ele>
        <time>2019-07-09T10:32:30.000Z</time>
      </trkpt>
      <trkpt lat="43.5435925237834453582763671875" lon="-6.72868550755083560943603515625">
        <ele>22</ele>
        <time>2019-07-09T10:32:32.000Z</time>
      </trkpt>
      <trkpt lat="43.54319907724857330322265625" lon="-6.72853111289441585540771484375">
        <ele>20.799999237060546875</ele>
        <time>2019-07-09T10:32:36.000Z</time>
      </trkpt>
      <trkpt lat="43.542673029005527496337890625" lon="-6.728279404342174530029296875">
        <ele>20.200000762939453125</ele>
        <time>2019-07-09T10:32:41.000Z</time>
      </trkpt>
      <trkpt lat="43.54257487691938877105712890625" lon="-6.7282098345458507537841796875">
        <ele>20</ele>
        <time>2019-07-09T10:32:42.000Z</time>
      </trkpt>
      <trkpt lat="43.54239567182958126068115234375" lon="-6.728023253381252288818359375">
        <ele>19.3999996185302734375</ele>
        <time>2019-07-09T10:32:44.000Z</time>
      </trkpt>
      <trkpt lat="43.54233280755579471588134765625" lon="-6.7279100976884365081787109375">
        <ele>18.799999237060546875</ele>
        <time>2019-07-09T10:32:45.000Z</time>
      </trkpt>
      <trkpt lat="43.5422765649855136871337890625" lon="-6.72779601998627185821533203125">
        <ele>18.200000762939453125</ele>
        <time>2019-07-09T10:32:46.000Z</time>
      </trkpt>
      <trkpt lat="43.54224898852407932281494140625" lon="-6.727661155164241790771484375">
        <ele>17.3999996185302734375</ele>
        <time>2019-07-09T10:32:47.000Z</time>
      </trkpt>
      <trkpt lat="43.5422131977975368499755859375" lon="-6.72753400169312953948974609375">
        <ele>16.6000003814697265625</ele>
        <time>2019-07-09T10:32:48.000Z</time>
      </trkpt>
      <trkpt lat="43.54214656166732311248779296875" lon="-6.72727701254189014434814453125">
        <ele>15.6000003814697265625</ele>
        <time>2019-07-09T10:32:50.000Z</time>
      </trkpt>
      <trkpt lat="43.5419694520533084869384765625" lon="-6.726647280156612396240234375">
        <ele>15</ele>
        <time>2019-07-09T10:32:55.000Z</time>
      </trkpt>
      <trkpt lat="43.54185621254146099090576171875" lon="-6.7263413406908512115478515625">
        <ele>14.3999996185302734375</ele>
        <time>2019-07-09T10:32:58.000Z</time>
      </trkpt>
      <trkpt lat="43.54167155921459197998046875" lon="-6.7257945053279399871826171875">
        <ele>13.3999996185302734375</ele>
        <time>2019-07-09T10:33:04.000Z</time>
      </trkpt>
      <trkpt lat="43.5414554737508296966552734375" lon="-6.725170053541660308837890625">
        <ele>13.80000019073486328125</ele>
        <time>2019-07-09T10:33:10.000Z</time>
      </trkpt>
      <trkpt lat="43.5413838922977447509765625" lon="-6.72494935803115367889404296875">
        <ele>14.80000019073486328125</ele>
        <time>2019-07-09T10:33:12.000Z</time>
      </trkpt>
      <trkpt lat="43.5412985645234584808349609375" lon="-6.72473025508224964141845703125">
        <ele>15</ele>
        <time>2019-07-09T10:33:14.000Z</time>
      </trkpt>
      <trkpt lat="43.54116990230977535247802734375" lon="-6.724555157124996185302734375">
        <ele>14.3999996185302734375</ele>
        <time>2019-07-09T10:33:16.000Z</time>
      </trkpt>
      <trkpt lat="43.5410055331885814666748046875" lon="-6.72447443939745426177978515625">
        <ele>13.3999996185302734375</ele>
        <time>2019-07-09T10:33:18.000Z</time>
      </trkpt>
      <trkpt lat="43.54078819043934345245361328125" lon="-6.72448500059545040130615234375">
        <ele>12.3999996185302734375</ele>
        <time>2019-07-09T10:33:21.000Z</time>
      </trkpt>
      <trkpt lat="43.5406328737735748291015625" lon="-6.7244912870228290557861328125">
        <ele>11.19999980926513671875</ele>
        <time>2019-07-09T10:33:24.000Z</time>
      </trkpt>
      <trkpt lat="43.54036222212016582489013671875" lon="-6.7245462723076343536376953125">
        <ele>10.19999980926513671875</ele>
        <time>2019-07-09T10:33:36.000Z</time>
      </trkpt>
      <trkpt lat="43.54006759822368621826171875" lon="-6.72459865920245647430419921875">
        <ele>9.6000003814697265625</ele>
        <time>2019-07-09T10:33:46.000Z</time>
      </trkpt>
      <trkpt lat="43.53980683721601963043212890625" lon="-6.72465180046856403350830078125">
        <ele>9.19999980926513671875</ele>
        <time>2019-07-09T10:33:53.000Z</time>
      </trkpt>
      <trkpt lat="43.539759479463100433349609375" lon="-6.724657081067562103271484375">
        <ele>9.19999980926513671875</ele>
        <time>2019-07-09T10:33:54.000Z</time>
      </trkpt>
      <trkpt lat="43.53964649140834808349609375" lon="-6.7245757766067981719970703125">
        <ele>8.80000019073486328125</ele>
        <time>2019-07-09T10:33:57.000Z</time>
      </trkpt>
      <trkpt lat="43.53968513198196887969970703125" lon="-6.7244403250515460968017578125">
        <ele>8.19999980926513671875</ele>
        <time>2019-07-09T10:34:00.000Z</time>
      </trkpt>
      <trkpt lat="43.53978487662971019744873046875" lon="-6.72447837889194488525390625">
        <ele>8.3999996185302734375</ele>
        <time>2019-07-09T10:34:02.000Z</time>
      </trkpt>
      <trkpt lat="43.53989736177027225494384765625" lon="-6.72455373220145702362060546875">
        <ele>8.6000003814697265625</ele>
        <time>2019-07-09T10:34:04.000Z</time>
      </trkpt>
      <trkpt lat="43.540261052548885345458984375" lon="-6.7245680652558803558349609375">
        <ele>8.80000019073486328125</ele>
        <time>2019-07-09T10:34:12.000Z</time>
      </trkpt>
      <trkpt lat="43.54039692319929599761962890625" lon="-6.72453814186155796051025390625">
        <ele>8.6000003814697265625</ele>
        <time>2019-07-09T10:34:15.000Z</time>
      </trkpt>
      <trkpt lat="43.540661036968231201171875" lon="-6.72433932311832904815673828125">
        <ele>8.6000003814697265625</ele>
        <time>2019-07-09T10:34:24.000Z</time>
      </trkpt>
      <trkpt lat="43.54079187847673892974853515625" lon="-6.72399885021150112152099609375">
        <ele>8.19999980926513671875</ele>
        <time>2019-07-09T10:34:39.000Z</time>
      </trkpt>
      <trkpt lat="43.5408013500273227691650390625" lon="-6.7239427752792835235595703125">
        <ele>8</ele>
        <time>2019-07-09T10:34:40.000Z</time>
      </trkpt>
      <trkpt lat="43.5408459417521953582763671875" lon="-6.72385484911501407623291015625">
        <ele>8</ele>
        <time>2019-07-09T10:34:41.000Z</time>
      </trkpt>
      <trkpt lat="43.5409190319478511810302734375" lon="-6.72373632900416851043701171875">
        <ele>7.80000019073486328125</ele>
        <time>2019-07-09T10:34:43.000Z</time>
      </trkpt>
      <trkpt lat="43.5413203574717044830322265625" lon="-6.72333064489066600799560546875">
        <ele>7.80000019073486328125</ele>
        <time>2019-07-09T10:34:53.000Z</time>
      </trkpt>
      <trkpt lat="43.5416948609054088592529296875" lon="-6.72289495356380939483642578125">
        <ele>7.400000095367431640625</ele>
        <time>2019-07-09T10:35:01.000Z</time>
      </trkpt>
      <trkpt lat="43.54182033799588680267333984375" lon="-6.72280258499085903167724609375">
        <ele>7.19999980926513671875</ele>
        <time>2019-07-09T10:35:04.000Z</time>
      </trkpt>
      <trkpt lat="43.54195629246532917022705078125" lon="-6.72272689640522003173828125">
        <ele>7.599999904632568359375</ele>
        <time>2019-07-09T10:35:07.000Z</time>
      </trkpt>
      <trkpt lat="43.5420502535998821258544921875" lon="-6.72266185283660888671875">
        <ele>7.80000019073486328125</ele>
        <time>2019-07-09T10:35:09.000Z</time>
      </trkpt>
      <trkpt lat="43.54215796105563640594482421875" lon="-6.7226261459290981292724609375">
        <ele>8</ele>
        <time>2019-07-09T10:35:11.000Z</time>
      </trkpt>
      <trkpt lat="43.54261511005461215972900390625" lon="-6.72249329276382923126220703125">
        <ele>8.3999996185302734375</ele>
        <time>2019-07-09T10:35:19.000Z</time>
      </trkpt>
      <trkpt lat="43.54309120215475559234619140625" lon="-6.7224378883838653564453125">
        <ele>8.3999996185302734375</ele>
        <time>2019-07-09T10:35:26.000Z</time>
      </trkpt>
      <trkpt lat="43.54356461204588413238525390625" lon="-6.72229707241058349609375">
        <ele>7.19999980926513671875</ele>
        <time>2019-07-09T10:35:32.000Z</time>
      </trkpt>
      <trkpt lat="43.544055707752704620361328125" lon="-6.7221232317388057708740234375">
        <ele>7</ele>
        <time>2019-07-09T10:35:38.000Z</time>
      </trkpt>
      <trkpt lat="43.544522412121295928955078125" lon="-6.7219659872353076934814453125">
        <ele>6.599999904632568359375</ele>
        <time>2019-07-09T10:35:44.000Z</time>
      </trkpt>
      <trkpt lat="43.5449648089706897735595703125" lon="-6.72180480323731899261474609375">
        <ele>7.400000095367431640625</ele>
        <time>2019-07-09T10:35:51.000Z</time>
      </trkpt>
      <trkpt lat="43.54544249363243579864501953125" lon="-6.721671782433986663818359375">
        <ele>7.80000019073486328125</ele>
        <time>2019-07-09T10:35:57.000Z</time>
      </trkpt>
      <trkpt lat="43.545911125838756561279296875" lon="-6.7215321399271488189697265625">
        <ele>7.400000095367431640625</ele>
        <time>2019-07-09T10:36:03.000Z</time>
      </trkpt>
      <trkpt lat="43.54636047966778278350830078125" lon="-6.72141169197857379913330078125">
        <ele>7.19999980926513671875</ele>
        <time>2019-07-09T10:36:09.000Z</time>
      </trkpt>
      <trkpt lat="43.54653549380600452423095703125" lon="-6.72139492817223072052001953125">
        <ele>7.80000019073486328125</ele>
        <time>2019-07-09T10:36:11.000Z</time>
      </trkpt>
      <trkpt lat="43.546626269817352294921875" lon="-6.72140716575086116790771484375">
        <ele>8.19999980926513671875</ele>
        <time>2019-07-09T10:36:12.000Z</time>
      </trkpt>
      <trkpt lat="43.546717129647731781005859375" lon="-6.72143851406872272491455078125">
        <ele>8.19999980926513671875</ele>
        <time>2019-07-09T10:36:13.000Z</time>
      </trkpt>
      <trkpt lat="43.546893484890460968017578125" lon="-6.72154194675385951995849609375">
        <ele>8.6000003814697265625</ele>
        <time>2019-07-09T10:36:15.000Z</time>
      </trkpt>
      <trkpt lat="43.5472131706774234771728515625" lon="-6.72184688039124011993408203125">
        <ele>9.3999996185302734375</ele>
        <time>2019-07-09T10:36:19.000Z</time>
      </trkpt>
      <trkpt lat="43.547446690499782562255859375" lon="-6.72209314070641994476318359375">
        <ele>10.6000003814697265625</ele>
        <time>2019-07-09T10:36:22.000Z</time>
      </trkpt>
      <trkpt lat="43.54774852283298969268798828125" lon="-6.722401678562164306640625">
        <ele>11.6000003814697265625</ele>
        <time>2019-07-09T10:36:26.000Z</time>
      </trkpt>
      <trkpt lat="43.54797718115150928497314453125" lon="-6.72261147759854793548583984375">
        <ele>12.3999996185302734375</ele>
        <time>2019-07-09T10:36:29.000Z</time>
      </trkpt>
      <trkpt lat="43.5480610840022563934326171875" lon="-6.72265539877116680145263671875">
        <ele>12.80000019073486328125</ele>
        <time>2019-07-09T10:36:30.000Z</time>
      </trkpt>
      <trkpt lat="43.5481485910713672637939453125" lon="-6.72268155030906200408935546875">
        <ele>13.19999980926513671875</ele>
        <time>2019-07-09T10:36:31.000Z</time>
      </trkpt>
      <trkpt lat="43.54831664822995662689208984375" lon="-6.7226536385715007781982421875">
        <ele>14</ele>
        <time>2019-07-09T10:36:33.000Z</time>
      </trkpt>
      <trkpt lat="43.54846400208771228790283203125" lon="-6.7224746011197566986083984375">
        <ele>15</ele>
        <time>2019-07-09T10:36:35.000Z</time>
      </trkpt>
      <trkpt lat="43.5485319793224334716796875" lon="-6.7223681509494781494140625">
        <ele>15.6000003814697265625</ele>
        <time>2019-07-09T10:36:36.000Z</time>
      </trkpt>
      <trkpt lat="43.54867489077150821685791015625" lon="-6.72214980237185955047607421875">
        <ele>16.6000003814697265625</ele>
        <time>2019-07-09T10:36:38.000Z</time>
      </trkpt>
      <trkpt lat="43.54882526211440563201904296875" lon="-6.72193028032779693603515625">
        <ele>18</ele>
        <time>2019-07-09T10:36:40.000Z</time>
      </trkpt>
      <trkpt lat="43.5489049740135669708251953125" lon="-6.721825338900089263916015625">
        <ele>18.6000003814697265625</ele>
        <time>2019-07-09T10:36:41.000Z</time>
      </trkpt>
      <trkpt lat="43.54899306781589984893798828125" lon="-6.7217378318309783935546875">
        <ele>19.799999237060546875</ele>
        <time>2019-07-09T10:36:42.000Z</time>
      </trkpt>
      <trkpt lat="43.54908225126564502716064453125" lon="-6.72165862284600734710693359375">
        <ele>21</ele>
        <time>2019-07-09T10:36:43.000Z</time>
      </trkpt>
      <trkpt lat="43.54917914606630802154541015625" lon="-6.7215723730623722076416015625">
        <ele>22.200000762939453125</ele>
        <time>2019-07-09T10:36:44.000Z</time>
      </trkpt>
      <trkpt lat="43.5493679903447628021240234375" lon="-6.72136031091213226318359375">
        <ele>23.6000003814697265625</ele>
        <time>2019-07-09T10:36:46.000Z</time>
      </trkpt>
      <trkpt lat="43.5497240535914897918701171875" lon="-6.7208642698824405670166015625">
        <ele>24.3999996185302734375</ele>
        <time>2019-07-09T10:36:50.000Z</time>
      </trkpt>
      <trkpt lat="43.54981499724090099334716796875" lon="-6.72073937952518463134765625">
        <ele>24.6000003814697265625</ele>
        <time>2019-07-09T10:36:51.000Z</time>
      </trkpt>
      <trkpt lat="43.55009512044489383697509765625" lon="-6.7203476093709468841552734375">
        <ele>22.799999237060546875</ele>
        <time>2019-07-09T10:36:54.000Z</time>
      </trkpt>
      <trkpt lat="43.55018413625657558441162109375" lon="-6.72022364102303981781005859375">
        <ele>21.799999237060546875</ele>
        <time>2019-07-09T10:36:55.000Z</time>
      </trkpt>
      <trkpt lat="43.55036350898444652557373046875" lon="-6.719966232776641845703125">
        <ele>19.6000003814697265625</ele>
        <time>2019-07-09T10:36:57.000Z</time>
      </trkpt>
      <trkpt lat="43.550450764596462249755859375" lon="-6.71982550062239170074462890625">
        <ele>18.3999996185302734375</ele>
        <time>2019-07-09T10:36:58.000Z</time>
      </trkpt>
      <trkpt lat="43.55053785257041454315185546875" lon="-6.71968258917331695556640625">
        <ele>16.799999237060546875</ele>
        <time>2019-07-09T10:36:59.000Z</time>
      </trkpt>
      <trkpt lat="43.5506777465343475341796875" lon="-6.71939198859035968780517578125">
        <ele>15</ele>
        <time>2019-07-09T10:37:01.000Z</time>
      </trkpt>
      <trkpt lat="43.55073482729494571685791015625" lon="-6.7192514240741729736328125">
        <ele>14</ele>
        <time>2019-07-09T10:37:02.000Z</time>
      </trkpt>
      <trkpt lat="43.55078662745654582977294921875" lon="-6.71912661753594875335693359375">
        <ele>12.80000019073486328125</ele>
        <time>2019-07-09T10:37:03.000Z</time>
      </trkpt>
      <trkpt lat="43.55087363161146640777587890625" lon="-6.7189525254070758819580078125">
        <ele>11.3999996185302734375</ele>
        <time>2019-07-09T10:37:05.000Z</time>
      </trkpt>
      <trkpt lat="43.55097538791596889495849609375" lon="-6.7189102806150913238525390625">
        <ele>10.6000003814697265625</ele>
        <time>2019-07-09T10:37:07.000Z</time>
      </trkpt>
      <trkpt lat="43.5510956682264804840087890625" lon="-6.718941628932952880859375">
        <ele>10</ele>
        <time>2019-07-09T10:37:09.000Z</time>
      </trkpt>
      <trkpt lat="43.55155943892896175384521484375" lon="-6.719000972807407379150390625">
        <ele>9</ele>
        <time>2019-07-09T10:37:14.000Z</time>
      </trkpt>
      <trkpt lat="43.55167142115533351898193359375" lon="-6.7190044932067394256591796875">
        <ele>9</ele>
        <time>2019-07-09T10:37:15.000Z</time>
      </trkpt>
      <trkpt lat="43.552218340337276458740234375" lon="-6.7190413735806941986083984375">
        <ele>8</ele>
        <time>2019-07-09T10:37:20.000Z</time>
      </trkpt>
      <trkpt lat="43.55230978690087795257568359375" lon="-6.719078756868839263916015625">
        <ele>7.599999904632568359375</ele>
        <time>2019-07-09T10:37:21.000Z</time>
      </trkpt>
      <trkpt lat="43.5523898340761661529541015625" lon="-6.71913164667785167694091796875">
        <ele>7.599999904632568359375</ele>
        <time>2019-07-09T10:37:22.000Z</time>
      </trkpt>
      <trkpt lat="43.552754111588001251220703125" lon="-6.7193424515426158905029296875">
        <ele>8.80000019073486328125</ele>
        <time>2019-07-09T10:37:26.000Z</time>
      </trkpt>
      <trkpt lat="43.55326465331017971038818359375" lon="-6.7195717804133892059326171875">
        <ele>8.6000003814697265625</ele>
        <time>2019-07-09T10:37:31.000Z</time>
      </trkpt>
      <trkpt lat="43.55373001657426357269287109375" lon="-6.71971402131021022796630859375">
        <ele>8.6000003814697265625</ele>
        <time>2019-07-09T10:37:36.000Z</time>
      </trkpt>
      <trkpt lat="43.55403478257358074188232421875" lon="-6.71980069018900394439697265625">
        <ele>7.599999904632568359375</ele>
        <time>2019-07-09T10:37:41.000Z</time>
      </trkpt>
      <trkpt lat="43.55445806868374347686767578125" lon="-6.7201338708400726318359375">
        <ele>7.599999904632568359375</ele>
        <time>2019-07-09T10:37:50.000Z</time>
      </trkpt>
      <trkpt lat="43.55454507283866405487060546875" lon="-6.72024057246744632720947265625">
        <ele>7.80000019073486328125</ele>
        <time>2019-07-09T10:37:52.000Z</time>
      </trkpt>
      <trkpt lat="43.55461657047271728515625" lon="-6.7203415744006633758544921875">
        <ele>7.80000019073486328125</ele>
        <time>2019-07-09T10:37:54.000Z</time>
      </trkpt>
      <trkpt lat="43.5547250322997570037841796875" lon="-6.7204562388360500335693359375">
        <ele>8.6000003814697265625</ele>
        <time>2019-07-09T10:38:02.000Z</time>
      </trkpt>
      <trkpt lat="43.55468471534550189971923828125" lon="-6.72052404843270778656005859375">
        <ele>8.6000003814697265625</ele>
        <time>2019-07-09T10:39:28.000Z</time>
      </trkpt>
      <trkpt lat="43.55468471534550189971923828125" lon="-6.72052404843270778656005859375">
        <ele>8.6000003814697265625</ele>
        <time>2019-07-09T10:39:57.000Z</time>
      </trkpt>
      <trkpt lat="43.55468471534550189971923828125" lon="-6.72052404843270778656005859375">
        <ele>8.6000003814697265625</ele>
        <time>2019-07-09T10:41:28.000Z</time>
      </trkpt>
      <trkpt lat="43.5547273792326450347900390625" lon="-6.72065463848412036895751953125">
        <ele>8.6000003814697265625</ele>
        <time>2019-07-09T10:42:05.000Z</time>
      </trkpt>
      <trkpt lat="43.55470499955117702484130859375" lon="-6.72067500650882720947265625">
        <ele>8.6000003814697265625</ele>
        <time>2019-07-09T10:42:07.000Z</time>
      </trkpt>
      <trkpt lat="43.55471975170075893402099609375" lon="-6.72069554217159748077392578125">
        <ele>8.19999980926513671875</ele>
        <time>2019-07-09T10:42:10.000Z</time>
      </trkpt>
      <trkpt lat="43.55471891351044178009033203125" lon="-6.72071264125406742095947265625">
        <ele>8.19999980926513671875</ele>
        <time>2019-07-09T10:42:12.000Z</time>
      </trkpt>
      <trkpt lat="43.5547280497848987579345703125" lon="-6.72074013389647006988525390625">
        <ele>8.19999980926513671875</ele>
        <time>2019-07-09T10:42:14.000Z</time>
      </trkpt>
      <trkpt lat="43.55471790768206119537353515625" lon="-6.72101355157792568206787109375">
        <ele>8.19999980926513671875</ele>
        <time>2019-07-09T10:42:34.000Z</time>
      </trkpt>
      <trkpt lat="43.55489996261894702911376953125" lon="-6.7210292257368564605712890625">
        <ele>8.6000003814697265625</ele>
        <time>2019-07-09T10:43:35.000Z</time>
      </trkpt>
      <trkpt lat="43.55498780496418476104736328125" lon="-6.7210309021174907684326171875">
        <ele>9.80000019073486328125</ele>
        <time>2019-07-09T10:43:51.000Z</time>
      </trkpt>
      <trkpt lat="43.55503968894481658935546875" lon="-6.72103651799261569976806640625">
        <ele>9</ele>
        <time>2019-07-09T10:50:08.000Z</time>
      </trkpt>
      <trkpt lat="43.55461682192981243133544921875" lon="-6.72100936062633991241455078125">
        <ele>9</ele>
        <time>2019-07-09T10:51:54.000Z</time>
      </trkpt>
      <trkpt lat="43.55463526211678981781005859375" lon="-6.7210131324827671051025390625">
        <ele>9</ele>
        <time>2019-07-09T10:52:26.000Z</time>
      </trkpt>
      <trkpt lat="43.5546985454857349395751953125" lon="-6.72092311084270477294921875">
        <ele>9</ele>
        <time>2019-07-09T10:54:17.000Z</time>
      </trkpt>
      <trkpt lat="43.554758727550506591796875" lon="-6.72096057794988155364990234375">
        <ele>9</ele>
        <time>2019-07-09T10:55:02.000Z</time>
      </trkpt>
      <trkpt lat="43.5546485893428325653076171875" lon="-6.72085471451282501220703125">
        <ele>9</ele>
        <time>2019-07-09T10:56:57.000Z</time>
      </trkpt>
      <trkpt lat="43.554648421704769134521484375" lon="-6.7205729149281978607177734375">
        <ele>9</ele>
        <time>2019-07-09T10:59:10.000Z</time>
      </trkpt>
      <trkpt lat="43.55467281304299831390380859375" lon="-6.72053611837327480316162109375">
        <ele>9</ele>
        <time>2019-07-09T11:02:21.000Z</time>
      </trkpt>
      <trkpt lat="43.55463375337421894073486328125" lon="-6.7205816321074962615966796875">
        <ele>9</ele>
        <time>2019-07-09T11:03:48.000Z</time>
      </trkpt>
      <trkpt lat="43.55459050275385379791259765625" lon="-6.7205749265849590301513671875">
        <ele>8.80000019073486328125</ele>
        <time>2019-07-09T11:03:50.000Z</time>
      </trkpt>
      <trkpt lat="43.55456988327205181121826171875" lon="-6.72055573202669620513916015625">
        <ele>8.80000019073486328125</ele>
        <time>2019-07-09T11:03:51.000Z</time>
      </trkpt>
      <trkpt lat="43.554386906325817108154296875" lon="-6.7202218808233737945556640625">
        <ele>8.19999980926513671875</ele>
        <time>2019-07-09T11:03:57.000Z</time>
      </trkpt>
      <trkpt lat="43.55429529212415218353271484375" lon="-6.7201125808060169219970703125">
        <ele>7.80000019073486328125</ele>
        <time>2019-07-09T11:03:59.000Z</time>
      </trkpt>
      <trkpt lat="43.55424466542899608612060546875" lon="-6.72006824053823947906494140625">
        <ele>7.400000095367431640625</ele>
        <time>2019-07-09T11:04:00.000Z</time>
      </trkpt>
      <trkpt lat="43.55410904623568058013916015625" lon="-6.7199556715786457061767578125">
        <ele>6.80000019073486328125</ele>
        <time>2019-07-09T11:04:03.000Z</time>
      </trkpt>
      <trkpt lat="43.55390905402600765228271484375" lon="-6.7198433540761470794677734375">
        <ele>6.599999904632568359375</ele>
        <time>2019-07-09T11:04:07.000Z</time>
      </trkpt>
      <trkpt lat="43.55369397439062595367431640625" lon="-6.71975945122539997100830078125">
        <ele>6.80000019073486328125</ele>
        <time>2019-07-09T11:04:11.000Z</time>
      </trkpt>
      <trkpt lat="43.55323850177228450775146484375" lon="-6.7195798270404338836669921875">
        <ele>7.19999980926513671875</ele>
        <time>2019-07-09T11:04:17.000Z</time>
      </trkpt>
      <trkpt lat="43.55278797447681427001953125" lon="-6.71932694502174854278564453125">
        <ele>6.599999904632568359375</ele>
        <time>2019-07-09T11:04:22.000Z</time>
      </trkpt>
      <trkpt lat="43.55268563143908977508544921875" lon="-6.7192554473876953125">
        <ele>6.400000095367431640625</ele>
        <time>2019-07-09T11:04:23.000Z</time>
      </trkpt>
      <trkpt lat="43.5523140616714954376220703125" lon="-6.7189971171319484710693359375">
        <ele>6</ele>
        <time>2019-07-09T11:04:27.000Z</time>
      </trkpt>
      <trkpt lat="43.5521289892494678497314453125" lon="-6.7189483344554901123046875">
        <ele>6.19999980926513671875</ele>
        <time>2019-07-09T11:04:29.000Z</time>
      </trkpt>
      <trkpt lat="43.55192656628787517547607421875" lon="-6.71894489787518978118896484375">
        <ele>6.19999980926513671875</ele>
        <time>2019-07-09T11:04:31.000Z</time>
      </trkpt>
      <trkpt lat="43.5513897053897380828857421875" lon="-6.7189820297062397003173828125">
        <ele>6.599999904632568359375</ele>
        <time>2019-07-09T11:04:36.000Z</time>
      </trkpt>
      <trkpt lat="43.5510913096368312835693359375" lon="-6.71897272579371929168701171875">
        <ele>7.599999904632568359375</ele>
        <time>2019-07-09T11:04:40.000Z</time>
      </trkpt>
      <trkpt lat="43.5509615577757358551025390625" lon="-6.71900072135031223297119140625">
        <ele>9.19999980926513671875</ele>
        <time>2019-07-09T11:04:43.000Z</time>
      </trkpt>
      <trkpt lat="43.55088905431330204010009765625" lon="-6.7190824449062347412109375">
        <ele>10.19999980926513671875</ele>
        <time>2019-07-09T11:04:45.000Z</time>
      </trkpt>
      <trkpt lat="43.55073113925755023956298828125" lon="-6.71940028667449951171875">
        <ele>11.80000019073486328125</ele>
        <time>2019-07-09T11:04:48.000Z</time>
      </trkpt>
      <trkpt lat="43.550542630255222320556640625" lon="-6.71974654309451580047607421875">
        <ele>13</ele>
        <time>2019-07-09T11:04:51.000Z</time>
      </trkpt>
      <trkpt lat="43.55039787478744983673095703125" lon="-6.7199845053255558013916015625">
        <ele>14.6000003814697265625</ele>
        <time>2019-07-09T11:04:53.000Z</time>
      </trkpt>
      <trkpt lat="43.55024498887360095977783203125" lon="-6.72023084945976734161376953125">
        <ele>16.799999237060546875</ele>
        <time>2019-07-09T11:04:55.000Z</time>
      </trkpt>
      <trkpt lat="43.55016519315540790557861328125" lon="-6.72035724855959415435791015625">
        <ele>17.3999996185302734375</ele>
        <time>2019-07-09T11:04:56.000Z</time>
      </trkpt>
      <trkpt lat="43.5500858165323734283447265625" lon="-6.7204860784113407135009765625">
        <ele>18</ele>
        <time>2019-07-09T11:04:57.000Z</time>
      </trkpt>
      <trkpt lat="43.5499030910432338714599609375" lon="-6.72074206173419952392578125">
        <ele>19.6000003814697265625</ele>
        <time>2019-07-09T11:04:59.000Z</time>
      </trkpt>
      <trkpt lat="43.54946580715477466583251953125" lon="-6.72124053351581096649169921875">
        <ele>20.799999237060546875</ele>
        <time>2019-07-09T11:05:03.000Z</time>
      </trkpt>
      <trkpt lat="43.54903631843626499176025390625" lon="-6.72170656733214855194091796875">
        <ele>21.3999996185302734375</ele>
        <time>2019-07-09T11:05:07.000Z</time>
      </trkpt>
      <trkpt lat="43.54862728156149387359619140625" lon="-6.72217796556651592254638671875">
        <ele>20.799999237060546875</ele>
        <time>2019-07-09T11:05:11.000Z</time>
      </trkpt>
      <trkpt lat="43.5483631677925586700439453125" lon="-6.7225248925387859344482421875">
        <ele>19.3999996185302734375</ele>
        <time>2019-07-09T11:05:14.000Z</time>
      </trkpt>
      <trkpt lat="43.548182956874370574951171875" lon="-6.722668893635272979736328125">
        <ele>17.799999237060546875</ele>
        <time>2019-07-09T11:05:16.000Z</time>
      </trkpt>
      <trkpt lat="43.54801674373447895050048828125" lon="-6.7227092944085597991943359375">
        <ele>16.6000003814697265625</ele>
        <time>2019-07-09T11:05:18.000Z</time>
      </trkpt>
      <trkpt lat="43.54786469601094722747802734375" lon="-6.72263511456549167633056640625">
        <ele>15.3999996185302734375</ele>
        <time>2019-07-09T11:05:20.000Z</time>
      </trkpt>
      <trkpt lat="43.5476517118513584136962890625" lon="-6.72241039574146270751953125">
        <ele>14</ele>
        <time>2019-07-09T11:05:23.000Z</time>
      </trkpt>
      <trkpt lat="43.54749321006238460540771484375" lon="-6.7222489602863788604736328125">
        <ele>12.6000003814697265625</ele>
        <time>2019-07-09T11:05:25.000Z</time>
      </trkpt>
      <trkpt lat="43.547342084348201751708984375" lon="-6.72207369469106197357177734375">
        <ele>11</ele>
        <time>2019-07-09T11:05:27.000Z</time>
      </trkpt>
      <trkpt lat="43.54719716124236583709716796875" lon="-6.7219041287899017333984375">
        <ele>10</ele>
        <time>2019-07-09T11:05:29.000Z</time>
      </trkpt>
      <trkpt lat="43.5468789003789424896240234375" lon="-6.7215871252119541168212890625">
        <ele>8.80000019073486328125</ele>
        <time>2019-07-09T11:05:33.000Z</time>
      </trkpt>
      <trkpt lat="43.5467129386961460113525390625" lon="-6.7214717902243137359619140625">
        <ele>8.6000003814697265625</ele>
        <time>2019-07-09T11:05:35.000Z</time>
      </trkpt>
      <trkpt lat="43.54656181298196315765380859375" lon="-6.72142175026237964630126953125">
        <ele>8.6000003814697265625</ele>
        <time>2019-07-09T11:05:37.000Z</time>
      </trkpt>
      <trkpt lat="43.54608639143407344818115234375" lon="-6.721495427191257476806640625">
        <ele>8.6000003814697265625</ele>
        <time>2019-07-09T11:05:44.000Z</time>
      </trkpt>
      <trkpt lat="43.54557459242641925811767578125" lon="-6.7216360755264759063720703125">
        <ele>8.19999980926513671875</ele>
        <time>2019-07-09T11:05:51.000Z</time>
      </trkpt>
      <trkpt lat="43.54512683115899562835693359375" lon="-6.721774376928806304931640625">
        <ele>7.80000019073486328125</ele>
        <time>2019-07-09T11:05:56.000Z</time>
      </trkpt>
      <trkpt lat="43.54464738629758358001708984375" lon="-6.72190823592245578765869140625">
        <ele>7.400000095367431640625</ele>
        <time>2019-07-09T11:06:02.000Z</time>
      </trkpt>
      <trkpt lat="43.54413357563316822052001953125" lon="-6.722068749368190765380859375">
        <ele>8.6000003814697265625</ele>
        <time>2019-07-09T11:06:09.000Z</time>
      </trkpt>
      <trkpt lat="43.54368464089930057525634765625" lon="-6.72219221480190753936767578125">
        <ele>8.3999996185302734375</ele>
        <time>2019-07-09T11:06:17.000Z</time>
      </trkpt>
      <trkpt lat="43.5432317666709423065185546875" lon="-6.72232464887201786041259765625">
        <ele>8.19999980926513671875</ele>
        <time>2019-07-09T11:06:24.000Z</time>
      </trkpt>
      <trkpt lat="43.5427171178162097930908203125" lon="-6.72244316898286342620849609375">
        <ele>7.599999904632568359375</ele>
        <time>2019-07-09T11:06:31.000Z</time>
      </trkpt>
      <trkpt lat="43.54257219471037387847900390625" lon="-6.72249547205865383148193359375">
        <ele>7.599999904632568359375</ele>
        <time>2019-07-09T11:06:33.000Z</time>
      </trkpt>
      <trkpt lat="43.54209576733410358428955078125" lon="-6.72259991057217121124267578125">
        <ele>8</ele>
        <time>2019-07-09T11:06:40.000Z</time>
      </trkpt>
      <trkpt lat="43.541757054626941680908203125" lon="-6.7228092066943645477294921875">
        <ele>7.80000019073486328125</ele>
        <time>2019-07-09T11:06:47.000Z</time>
      </trkpt>
      <trkpt lat="43.5413927771151065826416015625" lon="-6.7232269607484340667724609375">
        <ele>7.400000095367431640625</ele>
        <time>2019-07-09T11:06:55.000Z</time>
      </trkpt>
      <trkpt lat="43.54125003330409526824951171875" lon="-6.7234059982001781463623046875">
        <ele>7.400000095367431640625</ele>
        <time>2019-07-09T11:06:59.000Z</time>
      </trkpt>
      <trkpt lat="43.541170991957187652587890625" lon="-6.7234866321086883544921875">
        <ele>7.599999904632568359375</ele>
        <time>2019-07-09T11:07:01.000Z</time>
      </trkpt>
      <trkpt lat="43.54086748324334621429443359375" lon="-6.72400505281984806060791015625">
        <ele>7.80000019073486328125</ele>
        <time>2019-07-09T11:07:10.000Z</time>
      </trkpt>
      <trkpt lat="43.54074628092348575592041015625" lon="-6.7242403328418731689453125">
        <ele>8.19999980926513671875</ele>
        <time>2019-07-09T11:07:27.000Z</time>
      </trkpt>
      <trkpt lat="43.54031276889145374298095703125" lon="-6.7244007624685764312744140625">
        <ele>8</ele>
        <time>2019-07-09T11:07:47.000Z</time>
      </trkpt>
      <trkpt lat="43.53988093324005603790283203125" lon="-6.72457602806389331817626953125">
        <ele>7.80000019073486328125</ele>
        <time>2019-07-09T11:08:06.000Z</time>
      </trkpt>
      <trkpt lat="43.53976040147244930267333984375" lon="-6.72463000752031803131103515625">
        <ele>7.80000019073486328125</ele>
        <time>2019-07-09T11:08:09.000Z</time>
      </trkpt>
      <trkpt lat="43.53967457078397274017333984375" lon="-6.7245407402515411376953125">
        <ele>7.599999904632568359375</ele>
        <time>2019-07-09T11:08:14.000Z</time>
      </trkpt>
      <trkpt lat="43.53973475284874439239501953125" lon="-6.72450729645788669586181640625">
        <ele>7.599999904632568359375</ele>
        <time>2019-07-09T11:08:16.000Z</time>
      </trkpt>
      <trkpt lat="43.53988093324005603790283203125" lon="-6.72460134141147136688232421875">
        <ele>7.599999904632568359375</ele>
        <time>2019-07-09T11:08:18.000Z</time>
      </trkpt>
      <trkpt lat="43.5399172268807888031005859375" lon="-6.72467258758842945098876953125">
        <ele>7.599999904632568359375</ele>
        <time>2019-07-09T11:08:20.000Z</time>
      </trkpt>
      <trkpt lat="43.53999509476125240325927734375" lon="-6.724681891500949859619140625">
        <ele>7.599999904632568359375</ele>
        <time>2019-07-09T11:08:22.000Z</time>
      </trkpt>
      <trkpt lat="43.54046163149178028106689453125" lon="-6.724568568170070648193359375">
        <ele>8.19999980926513671875</ele>
        <time>2019-07-09T11:08:29.000Z</time>
      </trkpt>
      <trkpt lat="43.5405497252941131591796875" lon="-6.72455012798309326171875">
        <ele>8.19999980926513671875</ele>
        <time>2019-07-09T11:08:30.000Z</time>
      </trkpt>
      <trkpt lat="43.54104258120059967041015625" lon="-6.72449405305087566375732421875">
        <ele>9</ele>
        <time>2019-07-09T11:08:36.000Z</time>
      </trkpt>
      <trkpt lat="43.54120242409408092498779296875" lon="-6.72458156011998653411865234375">
        <ele>10</ele>
        <time>2019-07-09T11:08:38.000Z</time>
      </trkpt>
      <trkpt lat="43.54127886705100536346435546875" lon="-6.7246696539223194122314453125">
        <ele>10.19999980926513671875</ele>
        <time>2019-07-09T11:08:39.000Z</time>
      </trkpt>
      <trkpt lat="43.5413414798676967620849609375" lon="-6.724778451025485992431640625">
        <ele>10.3999996185302734375</ele>
        <time>2019-07-09T11:08:40.000Z</time>
      </trkpt>
      <trkpt lat="43.54147718288004398345947265625" lon="-6.72514381818473339080810546875">
        <ele>11.6000003814697265625</ele>
        <time>2019-07-09T11:08:43.000Z</time>
      </trkpt>
      <trkpt lat="43.5416925139725208282470703125" lon="-6.725782267749309539794921875">
        <ele>12.3999996185302734375</ele>
        <time>2019-07-09T11:08:48.000Z</time>
      </trkpt>
      <trkpt lat="43.5418913327157497406005859375" lon="-6.72638584859669208526611328125">
        <ele>12.6000003814697265625</ele>
        <time>2019-07-09T11:08:53.000Z</time>
      </trkpt>
      <trkpt lat="43.54196802712976932525634765625" lon="-6.7266048677265644073486328125">
        <ele>12.6000003814697265625</ele>
        <time>2019-07-09T11:08:55.000Z</time>
      </trkpt>
      <trkpt lat="43.54216533713042736053466796875" lon="-6.7271879129111766815185546875">
        <ele>12.3999996185302734375</ele>
        <time>2019-07-09T11:09:00.000Z</time>
      </trkpt>
      <trkpt lat="43.5423902235925197601318359375" lon="-6.72782041132450103759765625">
        <ele>12.19999980926513671875</ele>
        <time>2019-07-09T11:09:05.000Z</time>
      </trkpt>
      <trkpt lat="43.5424381680786609649658203125" lon="-6.72794303856790065765380859375">
        <ele>12.6000003814697265625</ele>
        <time>2019-07-09T11:09:06.000Z</time>
      </trkpt>
      <trkpt lat="43.54273329488933086395263671875" lon="-6.72836959362030029296875">
        <ele>13.6000003814697265625</ele>
        <time>2019-07-09T11:09:10.000Z</time>
      </trkpt>
      <trkpt lat="43.54281091131269931793212890625" lon="-6.72846523113548755645751953125">
        <ele>13.6000003814697265625</ele>
        <time>2019-07-09T11:09:11.000Z</time>
      </trkpt>
      <trkpt lat="43.5428901202976703643798828125" lon="-6.72853949479758739471435546875">
        <ele>13.80000019073486328125</ele>
        <time>2019-07-09T11:09:12.000Z</time>
      </trkpt>
      <trkpt lat="43.543169237673282623291015625" lon="-6.7286483757197856903076171875">
        <ele>15</ele>
        <time>2019-07-09T11:09:15.000Z</time>
      </trkpt>
      <trkpt lat="43.543384484946727752685546875" lon="-6.72868651337921619415283203125">
        <ele>16.200000762939453125</ele>
        <time>2019-07-09T11:09:17.000Z</time>
      </trkpt>
      <trkpt lat="43.54371163062751293182373046875" lon="-6.72877368517220020294189453125">
        <ele>17.3999996185302734375</ele>
        <time>2019-07-09T11:09:20.000Z</time>
      </trkpt>
      <trkpt lat="43.5439244471490383148193359375" lon="-6.72883017919957637786865234375">
        <ele>18.6000003814697265625</ele>
        <time>2019-07-09T11:09:22.000Z</time>
      </trkpt>
      <trkpt lat="43.54433096945285797119140625" lon="-6.72898440621793270111083984375">
        <ele>19.799999237060546875</ele>
        <time>2019-07-09T11:09:26.000Z</time>
      </trkpt>
      <trkpt lat="43.54464344680309295654296875" lon="-6.72918221913278102874755859375">
        <ele>20.799999237060546875</ele>
        <time>2019-07-09T11:09:29.000Z</time>
      </trkpt>
      <trkpt lat="43.54475132189691066741943359375" lon="-6.7292750068008899688720703125">
        <ele>21.200000762939453125</ele>
        <time>2019-07-09T11:09:30.000Z</time>
      </trkpt>
      <trkpt lat="43.54504670016467571258544921875" lon="-6.72966308891773223876953125">
        <ele>22</ele>
        <time>2019-07-09T11:09:33.000Z</time>
      </trkpt>
      <trkpt lat="43.54512716643512248992919921875" lon="-6.7298158071935176849365234375">
        <ele>22.6000003814697265625</ele>
        <time>2019-07-09T11:09:34.000Z</time>
      </trkpt>
      <trkpt lat="43.545199669897556304931640625" lon="-6.72998269088566303253173828125">
        <ele>23.200000762939453125</ele>
        <time>2019-07-09T11:09:35.000Z</time>
      </trkpt>
      <trkpt lat="43.54526027105748653411865234375" lon="-6.7301631532609462738037109375">
        <ele>23.6000003814697265625</ele>
        <time>2019-07-09T11:09:36.000Z</time>
      </trkpt>
      <trkpt lat="43.54530670680105686187744140625" lon="-6.7303589545190334320068359375">
        <ele>24.3999996185302734375</ele>
        <time>2019-07-09T11:09:37.000Z</time>
      </trkpt>
      <trkpt lat="43.5453433357179164886474609375" lon="-6.7305648140609264373779296875">
        <ele>25.3999996185302734375</ele>
        <time>2019-07-09T11:09:38.000Z</time>
      </trkpt>
      <trkpt lat="43.54535934515297412872314453125" lon="-6.73078500665724277496337890625">
        <ele>26</ele>
        <time>2019-07-09T11:09:39.000Z</time>
      </trkpt>
      <trkpt lat="43.54534878395497798919677734375" lon="-6.731017939746379852294921875">
        <ele>27</ele>
        <time>2019-07-09T11:09:40.000Z</time>
      </trkpt>
      <trkpt lat="43.545318357646465301513671875" lon="-6.731253974139690399169921875">
        <ele>27.3999996185302734375</ele>
        <time>2019-07-09T11:09:41.000Z</time>
      </trkpt>
      <trkpt lat="43.5452233068645000457763671875" lon="-6.7317332513630390167236328125">
        <ele>27.799999237060546875</ele>
        <time>2019-07-09T11:09:43.000Z</time>
      </trkpt>
      <trkpt lat="43.54503228329122066497802734375" lon="-6.73245099373161792755126953125">
        <ele>27.6000003814697265625</ele>
        <time>2019-07-09T11:09:46.000Z</time>
      </trkpt>
      <trkpt lat="43.54490068741142749786376953125" lon="-6.73290831036865711212158203125">
        <ele>27.799999237060546875</ele>
        <time>2019-07-09T11:09:48.000Z</time>
      </trkpt>
      <trkpt lat="43.54475903324782848358154296875" lon="-6.73334836028516292572021484375">
        <ele>29</ele>
        <time>2019-07-09T11:09:50.000Z</time>
      </trkpt>
      <trkpt lat="43.544688709080219268798828125" lon="-6.73357316292822360992431640625">
        <ele>30.200000762939453125</ele>
        <time>2019-07-09T11:09:51.000Z</time>
      </trkpt>
      <trkpt lat="43.54456021450459957122802734375" lon="-6.7340473271906375885009765625">
        <ele>32.799999237060546875</ele>
        <time>2019-07-09T11:09:53.000Z</time>
      </trkpt>
      <trkpt lat="43.5444635711610317230224609375" lon="-6.73456750810146331787109375">
        <ele>34.40000152587890625</ele>
        <time>2019-07-09T11:09:55.000Z</time>
      </trkpt>
      <trkpt lat="43.54432971216738224029541015625" lon="-6.73539572395384311676025390625">
        <ele>34.200000762939453125</ele>
        <time>2019-07-09T11:09:58.000Z</time>
      </trkpt>
      <trkpt lat="43.5442163050174713134765625" lon="-6.73595177941024303436279296875">
        <ele>33</ele>
        <time>2019-07-09T11:10:00.000Z</time>
      </trkpt>
      <trkpt lat="43.543970547616481781005859375" lon="-6.73675979487597942352294921875">
        <ele>32.799999237060546875</ele>
        <time>2019-07-09T11:10:03.000Z</time>
      </trkpt>
      <trkpt lat="43.5437212698161602020263671875" lon="-6.73723672516644001007080078125">
        <ele>33.799999237060546875</ele>
        <time>2019-07-09T11:10:05.000Z</time>
      </trkpt>
      <trkpt lat="43.5435663722455501556396484375" lon="-6.737465299665927886962890625">
        <ele>34.40000152587890625</ele>
        <time>2019-07-09T11:10:06.000Z</time>
      </trkpt>
      <trkpt lat="43.543426059186458587646484375" lon="-6.73767392523586750030517578125">
        <ele>36.200000762939453125</ele>
        <time>2019-07-09T11:10:07.000Z</time>
      </trkpt>
      <trkpt lat="43.54329102672636508941650390625" lon="-6.737859249114990234375">
        <ele>38.40000152587890625</ele>
        <time>2019-07-09T11:10:08.000Z</time>
      </trkpt>
      <trkpt lat="43.5431633703410625457763671875" lon="-6.73803468234837055206298828125">
        <ele>39.59999847412109375</ele>
        <time>2019-07-09T11:10:09.000Z</time>
      </trkpt>
      <trkpt lat="43.5430423356592655181884765625" lon="-6.73820885829627513885498046875">
        <ele>41.40000152587890625</ele>
        <time>2019-07-09T11:10:10.000Z</time>
      </trkpt>
      <trkpt lat="43.542930185794830322265625" lon="-6.7383881472051143646240234375">
        <ele>42.40000152587890625</ele>
        <time>2019-07-09T11:10:11.000Z</time>
      </trkpt>
      <trkpt lat="43.54270999319851398468017578125" lon="-6.738787628710269927978515625">
        <ele>43.59999847412109375</ele>
        <time>2019-07-09T11:10:13.000Z</time>
      </trkpt>
      <trkpt lat="43.542548976838588714599609375" lon="-6.7392290197312831878662109375">
        <ele>45.200000762939453125</ele>
        <time>2019-07-09T11:10:15.000Z</time>
      </trkpt>
      <trkpt lat="43.5424794070422649383544921875" lon="-6.73947687260806560516357421875">
        <ele>46.200000762939453125</ele>
        <time>2019-07-09T11:10:16.000Z</time>
      </trkpt>
      <trkpt lat="43.54242115281522274017333984375" lon="-6.73973880708217620849609375">
        <ele>47.200000762939453125</ele>
        <time>2019-07-09T11:10:17.000Z</time>
      </trkpt>
      <trkpt lat="43.54233406484127044677734375" lon="-6.7402423918247222900390625">
        <ele>49</ele>
        <time>2019-07-09T11:10:19.000Z</time>
      </trkpt>
      <trkpt lat="43.54228268377482891082763671875" lon="-6.7406750656664371490478515625">
        <ele>50.200000762939453125</ele>
        <time>2019-07-09T11:10:21.000Z</time>
      </trkpt>
      <trkpt lat="43.54227011092007160186767578125" lon="-6.7408740520477294921875">
        <ele>51.40000152587890625</ele>
        <time>2019-07-09T11:10:22.000Z</time>
      </trkpt>
      <trkpt lat="43.54226944036781787872314453125" lon="-6.7410737089812755584716796875">
        <ele>52.59999847412109375</ele>
        <time>2019-07-09T11:10:23.000Z</time>
      </trkpt>
      <trkpt lat="43.5422829352319240570068359375" lon="-6.7412782274186611175537109375">
        <ele>54.200000762939453125</ele>
        <time>2019-07-09T11:10:24.000Z</time>
      </trkpt>
      <trkpt lat="43.542310930788516998291015625" lon="-6.74148383550345897674560546875">
        <ele>55.40000152587890625</ele>
        <time>2019-07-09T11:10:25.000Z</time>
      </trkpt>
      <trkpt lat="43.54234957136213779449462890625" lon="-6.74168407917022705078125">
        <ele>56.40000152587890625</ele>
        <time>2019-07-09T11:10:26.000Z</time>
      </trkpt>
      <trkpt lat="43.54245518334209918975830078125" lon="-6.7420738376677036285400390625">
        <ele>58</ele>
        <time>2019-07-09T11:10:28.000Z</time>
      </trkpt>
      <trkpt lat="43.54259692132472991943359375" lon="-6.742460913956165313720703125">
        <ele>60.200000762939453125</ele>
        <time>2019-07-09T11:10:30.000Z</time>
      </trkpt>
      <trkpt lat="43.54273849166929721832275390625" lon="-6.74286617897450923919677734375">
        <ele>61.200000762939453125</ele>
        <time>2019-07-09T11:10:32.000Z</time>
      </trkpt>
      <trkpt lat="43.54284343309700489044189453125" lon="-6.7432841844856739044189453125">
        <ele>62.40000152587890625</ele>
        <time>2019-07-09T11:10:34.000Z</time>
      </trkpt>
      <trkpt lat="43.54287528432905673980712890625" lon="-6.743496246635913848876953125">
        <ele>63.200000762939453125</ele>
        <time>2019-07-09T11:10:35.000Z</time>
      </trkpt>
      <trkpt lat="43.54289020411670207977294921875" lon="-6.74370923079550266265869140625">
        <ele>64.59999847412109375</ele>
        <time>2019-07-09T11:10:36.000Z</time>
      </trkpt>
      <trkpt lat="43.5428847558796405792236328125" lon="-6.7439175210893154144287109375">
        <ele>65.8000030517578125</ele>
        <time>2019-07-09T11:10:37.000Z</time>
      </trkpt>
      <trkpt lat="43.54285751469433307647705078125" lon="-6.7441193573176860809326171875">
        <ele>67</ele>
        <time>2019-07-09T11:10:38.000Z</time>
      </trkpt>
      <trkpt lat="43.54280755855143070220947265625" lon="-6.744314990937709808349609375">
        <ele>68</ele>
        <time>2019-07-09T11:10:39.000Z</time>
      </trkpt>
      <trkpt lat="43.5426581092178821563720703125" lon="-6.74468739889562129974365234375">
        <ele>69.40000152587890625</ele>
        <time>2019-07-09T11:10:41.000Z</time>
      </trkpt>
      <trkpt lat="43.54256263934075832366943359375" lon="-6.7448651790618896484375">
        <ele>70</ele>
        <time>2019-07-09T11:10:42.000Z</time>
      </trkpt>
      <trkpt lat="43.5423119366168975830078125" lon="-6.74516131170094013214111328125">
        <ele>70.59999847412109375</ele>
        <time>2019-07-09T11:10:44.000Z</time>
      </trkpt>
      <trkpt lat="43.5418524406850337982177734375" lon="-6.74552894197404384613037109375">
        <ele>71.40000152587890625</ele>
        <time>2019-07-09T11:10:47.000Z</time>
      </trkpt>
      <trkpt lat="43.5413944534957408905029296875" lon="-6.74591668881475925445556640625">
        <ele>71.59999847412109375</ele>
        <time>2019-07-09T11:10:50.000Z</time>
      </trkpt>
      <trkpt lat="43.54100662283599376678466796875" lon="-6.746382974088191986083984375">
        <ele>71.59999847412109375</ele>
        <time>2019-07-09T11:10:53.000Z</time>
      </trkpt>
      <trkpt lat="43.5408955626189708709716796875" lon="-6.74656209535896778106689453125">
        <ele>72</ele>
        <time>2019-07-09T11:10:54.000Z</time>
      </trkpt>
      <trkpt lat="43.540693558752536773681640625" lon="-6.7469465732574462890625">
        <ele>73</ele>
        <time>2019-07-09T11:10:56.000Z</time>
      </trkpt>
      <trkpt lat="43.54041033424437046051025390625" lon="-6.74753640778362751007080078125">
        <ele>73.1999969482421875</ele>
        <time>2019-07-09T11:10:59.000Z</time>
      </trkpt>
      <trkpt lat="43.5401532612740993499755859375" lon="-6.74810235388576984405517578125">
        <ele>74.1999969482421875</ele>
        <time>2019-07-09T11:11:02.000Z</time>
      </trkpt>
      <trkpt lat="43.5400117747485637664794921875" lon="-6.7484732531011104583740234375">
        <ele>76.1999969482421875</ele>
        <time>2019-07-09T11:11:04.000Z</time>
      </trkpt>
      <trkpt lat="43.53991228155791759490966796875" lon="-6.74881816841661930084228515625">
        <ele>78.1999969482421875</ele>
        <time>2019-07-09T11:11:06.000Z</time>
      </trkpt>
      <trkpt lat="43.53987447917461395263671875" lon="-6.748983375728130340576171875">
        <ele>79.1999969482421875</ele>
        <time>2019-07-09T11:11:07.000Z</time>
      </trkpt>
      <trkpt lat="43.53983986191451549530029296875" lon="-6.749149672687053680419921875">
        <ele>80.40000152587890625</ele>
        <time>2019-07-09T11:11:08.000Z</time>
      </trkpt>
      <trkpt lat="43.539807759225368499755859375" lon="-6.74932368099689483642578125">
        <ele>81.59999847412109375</ele>
        <time>2019-07-09T11:11:09.000Z</time>
      </trkpt>
      <trkpt lat="43.539776243269443511962890625" lon="-6.7495038919150829315185546875">
        <ele>82.8000030517578125</ele>
        <time>2019-07-09T11:11:10.000Z</time>
      </trkpt>
      <trkpt lat="43.53970658965408802032470703125" lon="-6.74989071674644947052001953125">
        <ele>84.40000152587890625</ele>
        <time>2019-07-09T11:11:12.000Z</time>
      </trkpt>
      <trkpt lat="43.539634086191654205322265625" lon="-6.75031450577080249786376953125">
        <ele>86</ele>
        <time>2019-07-09T11:11:14.000Z</time>
      </trkpt>
      <trkpt lat="43.53955035097897052764892578125" lon="-6.75103149376809597015380859375">
        <ele>87.40000152587890625</ele>
        <time>2019-07-09T11:11:17.000Z</time>
      </trkpt>
      <trkpt lat="43.5395651869475841522216796875" lon="-6.7517653293907642364501953125">
        <ele>88.59999847412109375</ele>
        <time>2019-07-09T11:11:20.000Z</time>
      </trkpt>
      <trkpt lat="43.53961992077529430389404296875" lon="-6.7522249929606914520263671875">
        <ele>90</ele>
        <time>2019-07-09T11:11:22.000Z</time>
      </trkpt>
      <trkpt lat="43.53968680836260318756103515625" lon="-6.75268893130123615264892578125">
        <ele>91</ele>
        <time>2019-07-09T11:11:24.000Z</time>
      </trkpt>
      <trkpt lat="43.53979476727545261383056640625" lon="-6.7534088529646396636962890625">
        <ele>91.1999969482421875</ele>
        <time>2019-07-09T11:11:27.000Z</time>
      </trkpt>
      <trkpt lat="43.5399071685969829559326171875" lon="-6.75415341742336750030517578125">
        <ele>90.40000152587890625</ele>
        <time>2019-07-09T11:11:30.000Z</time>
      </trkpt>
      <trkpt lat="43.5400221683084964752197265625" lon="-6.75493486225605010986328125">
        <ele>92</ele>
        <time>2019-07-09T11:11:33.000Z</time>
      </trkpt>
      <trkpt lat="43.54006097652018070220947265625" lon="-6.755208112299442291259765625">
        <ele>92.59999847412109375</ele>
        <time>2019-07-09T11:11:34.000Z</time>
      </trkpt>
      <trkpt lat="43.5401894710958003997802734375" lon="-6.75604755990207195281982421875">
        <ele>90</ele>
        <time>2019-07-09T11:11:37.000Z</time>
      </trkpt>
      <trkpt lat="43.54023247025907039642333984375" lon="-6.7563356459140777587890625">
        <ele>87.40000152587890625</ele>
        <time>2019-07-09T11:11:38.000Z</time>
      </trkpt>
      <trkpt lat="43.54027505032718181610107421875" lon="-6.756627671420574188232421875">
        <ele>85.40000152587890625</ele>
        <time>2019-07-09T11:11:39.000Z</time>
      </trkpt>
      <trkpt lat="43.54036289267241954803466796875" lon="-6.757210381329059600830078125">
        <ele>83.1999969482421875</ele>
        <time>2019-07-09T11:11:41.000Z</time>
      </trkpt>
      <trkpt lat="43.54045224376022815704345703125" lon="-6.75778797827661037445068359375">
        <ele>81.40000152587890625</ele>
        <time>2019-07-09T11:11:43.000Z</time>
      </trkpt>
      <trkpt lat="43.54058786295354366302490234375" lon="-6.75866874866187572479248046875">
        <ele>82.1999969482421875</ele>
        <time>2019-07-09T11:11:46.000Z</time>
      </trkpt>
      <trkpt lat="43.5407292656600475311279296875" lon="-6.75957374274730682373046875">
        <ele>80.59999847412109375</ele>
        <time>2019-07-09T11:11:49.000Z</time>
      </trkpt>
      <trkpt lat="43.54086295701563358306884765625" lon="-6.7604597099125385284423828125">
        <ele>80.1999969482421875</ele>
        <time>2019-07-09T11:11:52.000Z</time>
      </trkpt>
      <trkpt lat="43.54098935611546039581298828125" lon="-6.76128205843269824981689453125">
        <ele>80.1999969482421875</ele>
        <time>2019-07-09T11:11:55.000Z</time>
      </trkpt>
      <trkpt lat="43.54110368527472019195556640625" lon="-6.76204162649810314178466796875">
        <ele>81</ele>
        <time>2019-07-09T11:11:58.000Z</time>
      </trkpt>
      <trkpt lat="43.54114190675318241119384765625" lon="-6.76229610107839107513427734375">
        <ele>81.40000152587890625</ele>
        <time>2019-07-09T11:11:59.000Z</time>
      </trkpt>
      <trkpt lat="43.54125472716987133026123046875" lon="-6.76300562918186187744140625">
        <ele>81.8000030517578125</ele>
        <time>2019-07-09T11:12:02.000Z</time>
      </trkpt>
      <trkpt lat="43.5413615964353084564208984375" lon="-6.76365673542022705078125">
        <ele>81.40000152587890625</ele>
        <time>2019-07-09T11:12:05.000Z</time>
      </trkpt>
      <trkpt lat="43.54146326892077922821044921875" lon="-6.764264591038227081298828125">
        <ele>81.1999969482421875</ele>
        <time>2019-07-09T11:12:08.000Z</time>
      </trkpt>
      <trkpt lat="43.54158145375549793243408203125" lon="-6.76487982273101806640625">
        <ele>83.1999969482421875</ele>
        <time>2019-07-09T11:12:12.000Z</time>
      </trkpt>
      <trkpt lat="43.54161581955850124359130859375" lon="-6.76499021239578723907470703125">
        <ele>84.40000152587890625</ele>
        <time>2019-07-09T11:12:13.000Z</time>
      </trkpt>
      <trkpt lat="43.541660495102405548095703125" lon="-6.765085346996784210205078125">
        <ele>85.59999847412109375</ele>
        <time>2019-07-09T11:12:14.000Z</time>
      </trkpt>
      <trkpt lat="43.541718833148479461669921875" lon="-6.7651686631143093109130859375">
        <ele>86.59999847412109375</ele>
        <time>2019-07-09T11:12:15.000Z</time>
      </trkpt>
      <trkpt lat="43.54185118339955806732177734375" lon="-6.7653425037860870361328125">
        <ele>88</ele>
        <time>2019-07-09T11:12:17.000Z</time>
      </trkpt>
      <trkpt lat="43.541928716003894805908203125" lon="-6.76556646823883056640625">
        <ele>88.8000030517578125</ele>
        <time>2019-07-09T11:12:19.000Z</time>
      </trkpt>
      <trkpt lat="43.541929386556148529052734375" lon="-6.76569010131061077117919921875">
        <ele>89.1999969482421875</ele>
        <time>2019-07-09T11:12:20.000Z</time>
      </trkpt>
      <trkpt lat="43.54190181009471416473388671875" lon="-6.76580979488790035247802734375">
        <ele>89.59999847412109375</ele>
        <time>2019-07-09T11:12:21.000Z</time>
      </trkpt>
      <trkpt lat="43.54181564413011074066162109375" lon="-6.766037531197071075439453125">
        <ele>90</ele>
        <time>2019-07-09T11:12:23.000Z</time>
      </trkpt>
      <trkpt lat="43.54178731329739093780517578125" lon="-6.76615932025015354156494140625">
        <ele>90.40000152587890625</ele>
        <time>2019-07-09T11:12:24.000Z</time>
      </trkpt>
      <trkpt lat="43.5417796857655048370361328125" lon="-6.7662906646728515625">
        <ele>90.8000030517578125</ele>
        <time>2019-07-09T11:12:25.000Z</time>
      </trkpt>
      <trkpt lat="43.54181128554046154022216796875" lon="-6.76657858304679393768310546875">
        <ele>91.59999847412109375</ele>
        <time>2019-07-09T11:12:27.000Z</time>
      </trkpt>
      <trkpt lat="43.5418881475925445556640625" lon="-6.76710982806980609893798828125">
        <ele>92.8000030517578125</ele>
        <time>2019-07-09T11:12:30.000Z</time>
      </trkpt>
      <trkpt lat="43.54193483479321002960205078125" lon="-6.767517440021038055419921875">
        <ele>94</ele>
        <time>2019-07-09T11:12:32.000Z</time>
      </trkpt>
      <trkpt lat="43.541975654661655426025390625" lon="-6.7679273150861263275146484375">
        <ele>95.40000152587890625</ele>
        <time>2019-07-09T11:12:34.000Z</time>
      </trkpt>
      <trkpt lat="43.54202561080455780029296875" lon="-6.768349595367908477783203125">
        <ele>96.40000152587890625</ele>
        <time>2019-07-09T11:12:36.000Z</time>
      </trkpt>
      <trkpt lat="43.54208772070705890655517578125" lon="-6.76878436468541622161865234375">
        <ele>97.8000030517578125</ele>
        <time>2019-07-09T11:12:38.000Z</time>
      </trkpt>
      <trkpt lat="43.54219232685863971710205078125" lon="-6.76945642568171024322509765625">
        <ele>98.8000030517578125</ele>
        <time>2019-07-09T11:12:41.000Z</time>
      </trkpt>
      <trkpt lat="43.54225938208401203155517578125" lon="-6.76992279477417469024658203125">
        <ele>100</ele>
        <time>2019-07-09T11:12:43.000Z</time>
      </trkpt>
      <trkpt lat="43.54236097075045108795166015625" lon="-6.77065218798816204071044921875">
        <ele>101.1999969482421875</ele>
        <time>2019-07-09T11:12:46.000Z</time>
      </trkpt>
      <trkpt lat="43.5424281097948551177978515625" lon="-6.77113406360149383544921875">
        <ele>102.40000152587890625</ele>
        <time>2019-07-09T11:12:48.000Z</time>
      </trkpt>
      <trkpt lat="43.54249960742890834808349609375" lon="-6.77162482403218746185302734375">
        <ele>104.1999969482421875</ele>
        <time>2019-07-09T11:12:50.000Z</time>
      </trkpt>
      <trkpt lat="43.54260924272239208221435546875" lon="-6.772376596927642822265625">
        <ele>105</ele>
        <time>2019-07-09T11:12:53.000Z</time>
      </trkpt>
      <trkpt lat="43.54271569289267063140869140625" lon="-6.77307304926216602325439453125">
        <ele>104.40000152587890625</ele>
        <time>2019-07-09T11:12:56.000Z</time>
      </trkpt>
      <trkpt lat="43.542831279337406158447265625" lon="-6.7737711779773235321044921875">
        <ele>104.59999847412109375</ele>
        <time>2019-07-09T11:12:59.000Z</time>
      </trkpt>
      <trkpt lat="43.542944602668285369873046875" lon="-6.77452663891017436981201171875">
        <ele>103.59999847412109375</ele>
        <time>2019-07-09T11:13:02.000Z</time>
      </trkpt>
      <trkpt lat="43.5429850034415721893310546875" lon="-6.77479418925940990447998046875">
        <ele>102.8000030517578125</ele>
        <time>2019-07-09T11:13:03.000Z</time>
      </trkpt>
      <trkpt lat="43.5430647991597652435302734375" lon="-6.77533381618559360504150390625">
        <ele>100.8000030517578125</ele>
        <time>2019-07-09T11:13:05.000Z</time>
      </trkpt>
      <trkpt lat="43.543144762516021728515625" lon="-6.7758648097515106201171875">
        <ele>98.8000030517578125</ele>
        <time>2019-07-09T11:13:07.000Z</time>
      </trkpt>
      <trkpt lat="43.54325816966593265533447265625" lon="-6.7766582407057285308837890625">
        <ele>97.59999847412109375</ele>
        <time>2019-07-09T11:13:10.000Z</time>
      </trkpt>
      <trkpt lat="43.543375767767429351806640625" lon="-6.77745695225894451141357421875">
        <ele>98.40000152587890625</ele>
        <time>2019-07-09T11:13:13.000Z</time>
      </trkpt>
      <trkpt lat="43.54341424070298671722412109375" lon="-6.77772332914173603057861328125">
        <ele>99</ele>
        <time>2019-07-09T11:13:14.000Z</time>
      </trkpt>
      <trkpt lat="43.5435251332819461822509765625" lon="-6.77849412895739078521728515625">
        <ele>99.8000030517578125</ele>
        <time>2019-07-09T11:13:17.000Z</time>
      </trkpt>
      <trkpt lat="43.543560840189456939697265625" lon="-6.77873703651130199432373046875">
        <ele>100.1999969482421875</ele>
        <time>2019-07-09T11:13:18.000Z</time>
      </trkpt>
      <trkpt lat="43.54363049380481243133544921875" lon="-6.7792197503149509429931640625">
        <ele>101.8000030517578125</ele>
        <time>2019-07-09T11:13:20.000Z</time>
      </trkpt>
      <trkpt lat="43.54366553016006946563720703125" lon="-6.77946140058338642120361328125">
        <ele>103</ele>
        <time>2019-07-09T11:13:21.000Z</time>
      </trkpt>
      <trkpt lat="43.54370106942951679229736328125" lon="-6.77970246411859989166259765625">
        <ele>104</ele>
        <time>2019-07-09T11:13:22.000Z</time>
      </trkpt>
      <trkpt lat="43.5437695495784282684326171875" lon="-6.7801804840564727783203125">
        <ele>105.8000030517578125</ele>
        <time>2019-07-09T11:13:24.000Z</time>
      </trkpt>
      <trkpt lat="43.54383744299411773681640625" lon="-6.7806554026901721954345703125">
        <ele>107.8000030517578125</ele>
        <time>2019-07-09T11:13:26.000Z</time>
      </trkpt>
      <trkpt lat="43.54390860535204410552978515625" lon="-6.7811294831335544586181640625">
        <ele>108.8000030517578125</ele>
        <time>2019-07-09T11:13:28.000Z</time>
      </trkpt>
      <trkpt lat="43.54397960007190704345703125" lon="-6.78161119110882282257080078125">
        <ele>110.40000152587890625</ele>
        <time>2019-07-09T11:13:30.000Z</time>
      </trkpt>
      <trkpt lat="43.54405327700078487396240234375" lon="-6.7821036279201507568359375">
        <ele>112.1999969482421875</ele>
        <time>2019-07-09T11:13:32.000Z</time>
      </trkpt>
      <trkpt lat="43.5441277921199798583984375" lon="-6.78259690292179584503173828125">
        <ele>113.8000030517578125</ele>
        <time>2019-07-09T11:13:34.000Z</time>
      </trkpt>
      <trkpt lat="43.5442362539470195770263671875" lon="-6.78334884345531463623046875">
        <ele>114</ele>
        <time>2019-07-09T11:13:37.000Z</time>
      </trkpt>
      <trkpt lat="43.54435200802981853485107421875" lon="-6.7841419391334056854248046875">
        <ele>114.59999847412109375</ele>
        <time>2019-07-09T11:13:40.000Z</time>
      </trkpt>
      <trkpt lat="43.54447220452129840850830078125" lon="-6.784937381744384765625">
        <ele>114.1999969482421875</ele>
        <time>2019-07-09T11:13:43.000Z</time>
      </trkpt>
      <trkpt lat="43.5445980168879032135009765625" lon="-6.78573005832731723785400390625">
        <ele>112.59999847412109375</ele>
        <time>2019-07-09T11:13:46.000Z</time>
      </trkpt>
      <trkpt lat="43.54463850148022174835205078125" lon="-6.78599677048623561859130859375">
        <ele>111.59999847412109375</ele>
        <time>2019-07-09T11:13:47.000Z</time>
      </trkpt>
      <trkpt lat="43.5446776449680328369140625" lon="-6.786256022751331329345703125">
        <ele>110.40000152587890625</ele>
        <time>2019-07-09T11:13:48.000Z</time>
      </trkpt>
      <trkpt lat="43.54475165717303752899169921875" lon="-6.78675231523811817169189453125">
        <ele>108.8000030517578125</ele>
        <time>2019-07-09T11:13:50.000Z</time>
      </trkpt>
      <trkpt lat="43.54478820227086544036865234375" lon="-6.786990277469158172607421875">
        <ele>107.59999847412109375</ele>
        <time>2019-07-09T11:13:51.000Z</time>
      </trkpt>
      <trkpt lat="43.54485911317169666290283203125" lon="-6.7874546349048614501953125">
        <ele>105.8000030517578125</ele>
        <time>2019-07-09T11:13:53.000Z</time>
      </trkpt>
      <trkpt lat="43.54496489278972148895263671875" lon="-6.78812921047210693359375">
        <ele>105.1999969482421875</ele>
        <time>2019-07-09T11:13:56.000Z</time>
      </trkpt>
      <trkpt lat="43.5450318641960620880126953125" lon="-6.78858811967074871063232421875">
        <ele>104.8000030517578125</ele>
        <time>2019-07-09T11:13:58.000Z</time>
      </trkpt>
      <trkpt lat="43.545066229999065399169921875" lon="-6.7888244055211544036865234375">
        <ele>103.40000152587890625</ele>
        <time>2019-07-09T11:13:59.000Z</time>
      </trkpt>
      <trkpt lat="43.5450995899736881256103515625" lon="-6.78906538523733615875244140625">
        <ele>100.59999847412109375</ele>
        <time>2019-07-09T11:14:00.000Z</time>
      </trkpt>
      <trkpt lat="43.5451274178922176361083984375" lon="-6.789311729371547698974609375">
        <ele>97</ele>
        <time>2019-07-09T11:14:01.000Z</time>
      </trkpt>
      <trkpt lat="43.54514493606984615325927734375" lon="-6.78956528194248676300048828125">
        <ele>94.1999969482421875</ele>
        <time>2019-07-09T11:14:02.000Z</time>
      </trkpt>
      <trkpt lat="43.54515030048787593841552734375" lon="-6.78982528857886791229248046875">
        <ele>92.1999969482421875</ele>
        <time>2019-07-09T11:14:03.000Z</time>
      </trkpt>
      <trkpt lat="43.54514510370790958404541015625" lon="-6.7900910787284374237060546875">
        <ele>90.59999847412109375</ele>
        <time>2019-07-09T11:14:04.000Z</time>
      </trkpt>
      <trkpt lat="43.54512901045382022857666015625" lon="-6.79036022163927555084228515625">
        <ele>89.1999969482421875</ele>
        <time>2019-07-09T11:14:05.000Z</time>
      </trkpt>
      <trkpt lat="43.54510252363979816436767578125" lon="-6.79063246585428714752197265625">
        <ele>88</ele>
        <time>2019-07-09T11:14:06.000Z</time>
      </trkpt>
      <trkpt lat="43.54506723582744598388671875" lon="-6.7909031175076961517333984375">
        <ele>86.59999847412109375</ele>
        <time>2019-07-09T11:14:07.000Z</time>
      </trkpt>
      <trkpt lat="43.5449795611202716827392578125" lon="-6.79142992012202739715576171875">
        <ele>84.8000030517578125</ele>
        <time>2019-07-09T11:14:09.000Z</time>
      </trkpt>
      <trkpt lat="43.544889204204082489013671875" lon="-6.79195948876440525054931640625">
        <ele>83.59999847412109375</ele>
        <time>2019-07-09T11:14:11.000Z</time>
      </trkpt>
      <trkpt lat="43.544846288859844207763671875" lon="-6.792221255600452423095703125">
        <ele>82.59999847412109375</ele>
        <time>2019-07-09T11:14:12.000Z</time>
      </trkpt>
      <trkpt lat="43.54480303823947906494140625" lon="-6.79247782565653324127197265625">
        <ele>81.40000152587890625</ele>
        <time>2019-07-09T11:14:13.000Z</time>
      </trkpt>
      <trkpt lat="43.54476087726652622222900390625" lon="-6.792729534208774566650390625">
        <ele>79.8000030517578125</ele>
        <time>2019-07-09T11:14:14.000Z</time>
      </trkpt>
      <trkpt lat="43.5447257570922374725341796875" lon="-6.7929804883897304534912109375">
        <ele>78.59999847412109375</ele>
        <time>2019-07-09T11:14:15.000Z</time>
      </trkpt>
      <trkpt lat="43.544694744050502777099609375" lon="-6.79350142367184162139892578125">
        <ele>77.1999969482421875</ele>
        <time>2019-07-09T11:14:17.000Z</time>
      </trkpt>
      <trkpt lat="43.5447046346962451934814453125" lon="-6.79377324879169464111328125">
        <ele>76.59999847412109375</ele>
        <time>2019-07-09T11:14:18.000Z</time>
      </trkpt>
      <trkpt lat="43.54478250257670879364013671875" lon="-6.79433156736195087432861328125">
        <ele>75.59999847412109375</ele>
        <time>2019-07-09T11:14:20.000Z</time>
      </trkpt>
      <trkpt lat="43.5448481328785419464111328125" lon="-6.794609092175960540771484375">
        <ele>74.59999847412109375</ele>
        <time>2019-07-09T11:14:21.000Z</time>
      </trkpt>
      <trkpt lat="43.54493446648120880126953125" lon="-6.794875971972942352294921875">
        <ele>72.8000030517578125</ele>
        <time>2019-07-09T11:14:22.000Z</time>
      </trkpt>
      <trkpt lat="43.5450409166514873504638671875" lon="-6.795127093791961669921875">
        <ele>71</ele>
        <time>2019-07-09T11:14:23.000Z</time>
      </trkpt>
      <trkpt lat="43.54516245424747467041015625" lon="-6.79536438547074794769287109375">
        <ele>69</ele>
        <time>2019-07-09T11:14:24.000Z</time>
      </trkpt>
      <trkpt lat="43.54528927244246006011962890625" lon="-6.7955870926380157470703125">
        <ele>67.8000030517578125</ele>
        <time>2019-07-09T11:14:25.000Z</time>
      </trkpt>
      <trkpt lat="43.54553586803376674652099609375" lon="-6.7959966324269771575927734375">
        <ele>66.40000152587890625</ele>
        <time>2019-07-09T11:14:27.000Z</time>
      </trkpt>
      <trkpt lat="43.5458884947001934051513671875" lon="-6.7965887300670146942138671875">
        <ele>67.59999847412109375</ele>
        <time>2019-07-09T11:14:30.000Z</time>
      </trkpt>
      <trkpt lat="43.54618898592889308929443359375" lon="-6.797252409160137176513671875">
        <ele>69.1999969482421875</ele>
        <time>2019-07-09T11:14:33.000Z</time>
      </trkpt>
      <trkpt lat="43.5463364236056804656982421875" lon="-6.79779211990535259246826171875">
        <ele>68.40000152587890625</ele>
        <time>2019-07-09T11:14:35.000Z</time>
      </trkpt>
      <trkpt lat="43.54639249853789806365966796875" lon="-6.7980884201824665069580078125">
        <ele>66.8000030517578125</ele>
        <time>2019-07-09T11:14:36.000Z</time>
      </trkpt>
      <trkpt lat="43.5464398562908172607421875" lon="-6.7983908392488956451416015625">
        <ele>64.8000030517578125</ele>
        <time>2019-07-09T11:14:37.000Z</time>
      </trkpt>
      <trkpt lat="43.54657606221735477447509765625" lon="-6.79929331876337528228759765625">
        <ele>64.40000152587890625</ele>
        <time>2019-07-09T11:14:40.000Z</time>
      </trkpt>
      <trkpt lat="43.5466539300978183746337890625" lon="-6.7999183572828769683837890625">
        <ele>63.200000762939453125</ele>
        <time>2019-07-09T11:14:42.000Z</time>
      </trkpt>
      <trkpt lat="43.546751998364925384521484375" lon="-6.8005470000207424163818359375">
        <ele>63.40000152587890625</ele>
        <time>2019-07-09T11:14:44.000Z</time>
      </trkpt>
      <trkpt lat="43.54684763588011264801025390625" lon="-6.80117882788181304931640625">
        <ele>64.1999969482421875</ele>
        <time>2019-07-09T11:14:46.000Z</time>
      </trkpt>
      <trkpt lat="43.54693950153887271881103515625" lon="-6.80179682560265064239501953125">
        <ele>64.8000030517578125</ele>
        <time>2019-07-09T11:14:48.000Z</time>
      </trkpt>
      <trkpt lat="43.54698979295790195465087890625" lon="-6.8020942993462085723876953125">
        <ele>65.40000152587890625</ele>
        <time>2019-07-09T11:14:49.000Z</time>
      </trkpt>
      <trkpt lat="43.54707126505672931671142578125" lon="-6.80267642252147197723388671875">
        <ele>66.40000152587890625</ele>
        <time>2019-07-09T11:14:51.000Z</time>
      </trkpt>
      <trkpt lat="43.5471672378480434417724609375" lon="-6.80352115072309970855712890625">
        <ele>68.40000152587890625</ele>
        <time>2019-07-09T11:14:54.000Z</time>
      </trkpt>
      <trkpt lat="43.547195233404636383056640625" lon="-6.80380328558385372161865234375">
        <ele>70.1999969482421875</ele>
        <time>2019-07-09T11:14:55.000Z</time>
      </trkpt>
      <trkpt lat="43.54726186953485012054443359375" lon="-6.804367639124393463134765625">
        <ele>71.40000152587890625</ele>
        <time>2019-07-09T11:14:57.000Z</time>
      </trkpt>
      <trkpt lat="43.54729757644236087799072265625" lon="-6.80465002544224262237548828125">
        <ele>70</ele>
        <time>2019-07-09T11:14:58.000Z</time>
      </trkpt>
      <trkpt lat="43.54733361862599849700927734375" lon="-6.804922521114349365234375">
        <ele>68.8000030517578125</ele>
        <time>2019-07-09T11:14:59.000Z</time>
      </trkpt>
      <trkpt lat="43.547366559505462646484375" lon="-6.80517800152301788330078125">
        <ele>66.8000030517578125</ele>
        <time>2019-07-09T11:15:00.000Z</time>
      </trkpt>
      <trkpt lat="43.54742699302732944488525390625" lon="-6.80565048940479755401611328125">
        <ele>65.40000152587890625</ele>
        <time>2019-07-09T11:15:02.000Z</time>
      </trkpt>
      <trkpt lat="43.54751584120094776153564453125" lon="-6.8063150905072689056396484375">
        <ele>66.59999847412109375</ele>
        <time>2019-07-09T11:15:05.000Z</time>
      </trkpt>
      <trkpt lat="43.54757803492248058319091796875" lon="-6.80676519870758056640625">
        <ele>68.40000152587890625</ele>
        <time>2019-07-09T11:15:07.000Z</time>
      </trkpt>
      <trkpt lat="43.54764441959559917449951171875" lon="-6.8072359263896942138671875">
        <ele>69.8000030517578125</ele>
        <time>2019-07-09T11:15:09.000Z</time>
      </trkpt>
      <trkpt lat="43.54771398939192295074462890625" lon="-6.8077386729419231414794921875">
        <ele>71</ele>
        <time>2019-07-09T11:15:11.000Z</time>
      </trkpt>
      <trkpt lat="43.5477492772042751312255859375" lon="-6.808001361787319183349609375">
        <ele>72</ele>
        <time>2019-07-09T11:15:12.000Z</time>
      </trkpt>
      <trkpt lat="43.54786553420126438140869140625" lon="-6.80881440639495849609375">
        <ele>72.40000152587890625</ele>
        <time>2019-07-09T11:15:15.000Z</time>
      </trkpt>
      <trkpt lat="43.54790157638490200042724609375" lon="-6.80908757261931896209716796875">
        <ele>74</ele>
        <time>2019-07-09T11:15:16.000Z</time>
      </trkpt>
      <trkpt lat="43.54797416366636753082275390625" lon="-6.809612698853015899658203125">
        <ele>75.1999969482421875</ele>
        <time>2019-07-09T11:15:18.000Z</time>
      </trkpt>
      <trkpt lat="43.548008613288402557373046875" lon="-6.80986708961427211761474609375">
        <ele>74</ele>
        <time>2019-07-09T11:15:19.000Z</time>
      </trkpt>
      <trkpt lat="43.54804239235818386077880859375" lon="-6.81012072600424289703369140625">
        <ele>73</ele>
        <time>2019-07-09T11:15:20.000Z</time>
      </trkpt>
      <trkpt lat="43.54807642288506031036376953125" lon="-6.8103756196796894073486328125">
        <ele>71.40000152587890625</ele>
        <time>2019-07-09T11:15:21.000Z</time>
      </trkpt>
      <trkpt lat="43.54811129160225391387939453125" lon="-6.81063604541122913360595703125">
        <ele>69</ele>
        <time>2019-07-09T11:15:22.000Z</time>
      </trkpt>
      <trkpt lat="43.54814699850976467132568359375" lon="-6.81090057827532291412353515625">
        <ele>67.59999847412109375</ele>
        <time>2019-07-09T11:15:23.000Z</time>
      </trkpt>
      <trkpt lat="43.54818262159824371337890625" lon="-6.81116796098649501800537109375">
        <ele>66.40000152587890625</ele>
        <time>2019-07-09T11:15:24.000Z</time>
      </trkpt>
      <trkpt lat="43.548291586339473724365234375" lon="-6.811987459659576416015625">
        <ele>67.59999847412109375</ele>
        <time>2019-07-09T11:15:27.000Z</time>
      </trkpt>
      <trkpt lat="43.54839744977653026580810546875" lon="-6.81278080679476261138916015625">
        <ele>68.8000030517578125</ele>
        <time>2019-07-09T11:15:30.000Z</time>
      </trkpt>
      <trkpt lat="43.54846718721091747283935546875" lon="-6.81329704821109771728515625">
        <ele>69.8000030517578125</ele>
        <time>2019-07-09T11:15:32.000Z</time>
      </trkpt>
      <trkpt lat="43.54857824742794036865234375" lon="-6.81407514028251171112060546875">
        <ele>69.8000030517578125</ele>
        <time>2019-07-09T11:15:35.000Z</time>
      </trkpt>
      <trkpt lat="43.54869232513010501861572265625" lon="-6.81487360037863254547119140625">
        <ele>69.59999847412109375</ele>
        <time>2019-07-09T11:15:38.000Z</time>
      </trkpt>
      <trkpt lat="43.5488067381083965301513671875" lon="-6.81568882428109645843505859375">
        <ele>69.59999847412109375</ele>
        <time>2019-07-09T11:15:41.000Z</time>
      </trkpt>
      <trkpt lat="43.5488833487033843994140625" lon="-6.81623230688273906707763671875">
        <ele>68.8000030517578125</ele>
        <time>2019-07-09T11:15:43.000Z</time>
      </trkpt>
      <trkpt lat="43.5489234142005443572998046875" lon="-6.81650404818356037139892578125">
        <ele>67.40000152587890625</ele>
        <time>2019-07-09T11:15:44.000Z</time>
      </trkpt>
      <trkpt lat="43.5489636473357677459716796875" lon="-6.81677478365600109100341796875">
        <ele>65.1999969482421875</ele>
        <time>2019-07-09T11:15:45.000Z</time>
      </trkpt>
      <trkpt lat="43.54900337755680084228515625" lon="-6.8170442618429660797119140625">
        <ele>63.40000152587890625</ele>
        <time>2019-07-09T11:15:46.000Z</time>
      </trkpt>
      <trkpt lat="43.5490407608449459075927734375" lon="-6.81730887852609157562255859375">
        <ele>62.200000762939453125</ele>
        <time>2019-07-09T11:15:47.000Z</time>
      </trkpt>
      <trkpt lat="43.54907671920955181121826171875" lon="-6.817566454410552978515625">
        <ele>61.200000762939453125</ele>
        <time>2019-07-09T11:15:48.000Z</time>
      </trkpt>
      <trkpt lat="43.5491493903100490570068359375" lon="-6.8180574662983417510986328125">
        <ele>59.799999237060546875</ele>
        <time>2019-07-09T11:15:50.000Z</time>
      </trkpt>
      <trkpt lat="43.5492432676255702972412109375" lon="-6.81876204907894134521484375">
        <ele>59.59999847412109375</ele>
        <time>2019-07-09T11:15:53.000Z</time>
      </trkpt>
      <trkpt lat="43.549300767481327056884765625" lon="-6.81920587085187435150146484375">
        <ele>61.799999237060546875</ele>
        <time>2019-07-09T11:15:55.000Z</time>
      </trkpt>
      <trkpt lat="43.54932792484760284423828125" lon="-6.81942128576338291168212890625">
        <ele>63.40000152587890625</ele>
        <time>2019-07-09T11:15:56.000Z</time>
      </trkpt>
      <trkpt lat="43.54935315437614917755126953125" lon="-6.819822527468204498291015625">
        <ele>64.1999969482421875</ele>
        <time>2019-07-09T11:15:58.000Z</time>
      </trkpt>
      <trkpt lat="43.54934359900653362274169921875" lon="-6.81999527849256992340087890625">
        <ele>64.8000030517578125</ele>
        <time>2019-07-09T11:15:59.000Z</time>
      </trkpt>
      <trkpt lat="43.5492814891040325164794921875" lon="-6.82038771919906139373779296875">
        <ele>66.1999969482421875</ele>
        <time>2019-07-09T11:16:02.000Z</time>
      </trkpt>
      <trkpt lat="43.5492721013724803924560546875" lon="-6.8204684369266033172607421875">
        <ele>66.40000152587890625</ele>
        <time>2019-07-09T11:16:03.000Z</time>
      </trkpt>
      <trkpt lat="43.5492798127233982086181640625" lon="-6.820585615932941436767578125">
        <ele>67.40000152587890625</ele>
        <time>2019-07-09T11:16:05.000Z</time>
      </trkpt>
      <trkpt lat="43.54930370114743709564208984375" lon="-6.820704974234104156494140625">
        <ele>68.59999847412109375</ele>
        <time>2019-07-09T11:16:07.000Z</time>
      </trkpt>
      <trkpt lat="43.54930110275745391845703125" lon="-6.8208741210401058197021484375">
        <ele>69.40000152587890625</ele>
        <time>2019-07-09T11:16:09.000Z</time>
      </trkpt>
      <trkpt lat="43.54925910942256450653076171875" lon="-6.821068413555622100830078125">
        <ele>69.59999847412109375</ele>
        <time>2019-07-09T11:16:11.000Z</time>
      </trkpt>
      <trkpt lat="43.5492503084242343902587890625" lon="-6.821182072162628173828125">
        <ele>69.8000030517578125</ele>
        <time>2019-07-09T11:16:12.000Z</time>
      </trkpt>
      <trkpt lat="43.549261204898357391357421875" lon="-6.8213049508631229400634765625">
        <ele>70</ele>
        <time>2019-07-09T11:16:13.000Z</time>
      </trkpt>
      <trkpt lat="43.54930512607097625732421875" lon="-6.82158817537128925323486328125">
        <ele>70</ele>
        <time>2019-07-09T11:16:15.000Z</time>
      </trkpt>
      <trkpt lat="43.54930453933775424957275390625" lon="-6.82193485088646411895751953125">
        <ele>69.59999847412109375</ele>
        <time>2019-07-09T11:16:17.000Z</time>
      </trkpt>
      <trkpt lat="43.549193479120731353759765625" lon="-6.8227283656597137451171875">
        <ele>68.8000030517578125</ele>
        <time>2019-07-09T11:16:21.000Z</time>
      </trkpt>
      <trkpt lat="43.5490467958152294158935546875" lon="-6.82340922765433788299560546875">
        <ele>69.59999847412109375</ele>
        <time>2019-07-09T11:16:24.000Z</time>
      </trkpt>
      <trkpt lat="43.54898619465529918670654296875" lon="-6.82363972999155521392822265625">
        <ele>69.8000030517578125</ele>
        <time>2019-07-09T11:16:25.000Z</time>
      </trkpt>
      <trkpt lat="43.5487705282866954803466796875" lon="-6.824336349964141845703125">
        <ele>70.40000152587890625</ele>
        <time>2019-07-09T11:16:28.000Z</time>
      </trkpt>
      <trkpt lat="43.5485308058559894561767578125" lon="-6.8251002766191959381103515625">
        <ele>69</ele>
        <time>2019-07-09T11:16:31.000Z</time>
      </trkpt>
      <trkpt lat="43.548283874988555908203125" lon="-6.8258697353303432464599609375">
        <ele>68.8000030517578125</ele>
        <time>2019-07-09T11:16:34.000Z</time>
      </trkpt>
      <trkpt lat="43.54820382781326770782470703125" lon="-6.8261258862912654876708984375">
        <ele>68.8000030517578125</ele>
        <time>2019-07-09T11:16:35.000Z</time>
      </trkpt>
      <trkpt lat="43.54803979396820068359375" lon="-6.82664246298372745513916015625">
        <ele>69.8000030517578125</ele>
        <time>2019-07-09T11:16:37.000Z</time>
      </trkpt>
      <trkpt lat="43.54787550866603851318359375" lon="-6.82717077434062957763671875">
        <ele>70.1999969482421875</ele>
        <time>2019-07-09T11:16:39.000Z</time>
      </trkpt>
      <trkpt lat="43.54762815870344638824462890625" lon="-6.8279581703245639801025390625">
        <ele>68.40000152587890625</ele>
        <time>2019-07-09T11:16:42.000Z</time>
      </trkpt>
      <trkpt lat="43.547466807067394256591796875" lon="-6.828468628227710723876953125">
        <ele>66.8000030517578125</ele>
        <time>2019-07-09T11:16:44.000Z</time>
      </trkpt>
      <trkpt lat="43.54724745266139507293701171875" lon="-6.82921989820897579193115234375">
        <ele>65.59999847412109375</ele>
        <time>2019-07-09T11:16:47.000Z</time>
      </trkpt>
      <trkpt lat="43.54705064557492733001708984375" lon="-6.8299917876720428466796875">
        <ele>65</ele>
        <time>2019-07-09T11:16:50.000Z</time>
      </trkpt>
      <trkpt lat="43.54691150598227977752685546875" lon="-6.83075554668903350830078125">
        <ele>64.40000152587890625</ele>
        <time>2019-07-09T11:16:53.000Z</time>
      </trkpt>
      <trkpt lat="43.546840511262416839599609375" lon="-6.8314938247203826904296875">
        <ele>64.8000030517578125</ele>
        <time>2019-07-09T11:16:56.000Z</time>
      </trkpt>
      <trkpt lat="43.54682953096926212310791015625" lon="-6.83225833810865879058837890625">
        <ele>64.40000152587890625</ele>
        <time>2019-07-09T11:16:59.000Z</time>
      </trkpt>
      <trkpt lat="43.54685953818261623382568359375" lon="-6.8327759206295013427734375">
        <ele>63.200000762939453125</ele>
        <time>2019-07-09T11:17:01.000Z</time>
      </trkpt>
      <trkpt lat="43.5468839295208454132080078125" lon="-6.833026371896266937255859375">
        <ele>62</ele>
        <time>2019-07-09T11:17:02.000Z</time>
      </trkpt>
      <trkpt lat="43.5469146072864532470703125" lon="-6.83327087201178073883056640625">
        <ele>60.40000152587890625</ele>
        <time>2019-07-09T11:17:03.000Z</time>
      </trkpt>
      <trkpt lat="43.54695090092718601226806640625" lon="-6.83350606821477413177490234375">
        <ele>58.200000762939453125</ele>
        <time>2019-07-09T11:17:04.000Z</time>
      </trkpt>
      <trkpt lat="43.54699130170047283172607421875" lon="-6.8337276019155979156494140625">
        <ele>56.40000152587890625</ele>
        <time>2019-07-09T11:17:05.000Z</time>
      </trkpt>
      <trkpt lat="43.54708023369312286376953125" lon="-6.83413982391357421875">
        <ele>55.40000152587890625</ele>
        <time>2019-07-09T11:17:07.000Z</time>
      </trkpt>
      <trkpt lat="43.54724787175655364990234375" lon="-6.83474977500736713409423828125">
        <ele>55.200000762939453125</ele>
        <time>2019-07-09T11:17:10.000Z</time>
      </trkpt>
      <trkpt lat="43.547469489276409149169921875" lon="-6.83537288568913936614990234375">
        <ele>55.59999847412109375</ele>
        <time>2019-07-09T11:17:13.000Z</time>
      </trkpt>
      <trkpt lat="43.54775053448975086212158203125" lon="-6.83598342351615428924560546875">
        <ele>54.59999847412109375</ele>
        <time>2019-07-09T11:17:16.000Z</time>
      </trkpt>
      <trkpt lat="43.5478552244603633880615234375" lon="-6.83617453090846538543701171875">
        <ele>54</ele>
        <time>2019-07-09T11:17:17.000Z</time>
      </trkpt>
      <trkpt lat="43.548063933849334716796875" lon="-6.83652908541262149810791015625">
        <ele>52.200000762939453125</ele>
        <time>2019-07-09T11:17:19.000Z</time>
      </trkpt>
      <trkpt lat="43.54817180894315242767333984375" lon="-6.83669538237154483795166015625">
        <ele>50.59999847412109375</ele>
        <time>2019-07-09T11:17:20.000Z</time>
      </trkpt>
      <trkpt lat="43.54828580282628536224365234375" lon="-6.83685748837888240814208984375">
        <ele>49.59999847412109375</ele>
        <time>2019-07-09T11:17:21.000Z</time>
      </trkpt>
      <trkpt lat="43.5485291294753551483154296875" lon="-6.83716334402561187744140625">
        <ele>48.59999847412109375</ele>
        <time>2019-07-09T11:17:23.000Z</time>
      </trkpt>
      <trkpt lat="43.54893364012241363525390625" lon="-6.837577410042285919189453125">
        <ele>48</ele>
        <time>2019-07-09T11:17:26.000Z</time>
      </trkpt>
      <trkpt lat="43.5492194630205631256103515625" lon="-6.8378266878426074981689453125">
        <ele>47.40000152587890625</ele>
        <time>2019-07-09T11:17:28.000Z</time>
      </trkpt>
      <trkpt lat="43.5496992431581020355224609375" lon="-6.83824117295444011688232421875">
        <ele>46.799999237060546875</ele>
        <time>2019-07-09T11:17:31.000Z</time>
      </trkpt>
      <trkpt lat="43.55009478516876697540283203125" lon="-6.838604696094989776611328125">
        <ele>46.40000152587890625</ele>
        <time>2019-07-09T11:17:33.000Z</time>
      </trkpt>
      <trkpt lat="43.55054908432066440582275390625" lon="-6.8389686383306980133056640625">
        <ele>43.59999847412109375</ele>
        <time>2019-07-09T11:17:35.000Z</time>
      </trkpt>
      <trkpt lat="43.550775311887264251708984375" lon="-6.839147508144378662109375">
        <ele>41.40000152587890625</ele>
        <time>2019-07-09T11:17:36.000Z</time>
      </trkpt>
      <trkpt lat="43.55099667795002460479736328125" lon="-6.83932059444487094879150390625">
        <ele>39.40000152587890625</ele>
        <time>2019-07-09T11:17:37.000Z</time>
      </trkpt>
      <trkpt lat="43.55121619999408721923828125" lon="-6.839489154517650604248046875">
        <ele>37.40000152587890625</ele>
        <time>2019-07-09T11:17:38.000Z</time>
      </trkpt>
      <trkpt lat="43.55143354274332523345947265625" lon="-6.83965654112398624420166015625">
        <ele>35.799999237060546875</ele>
        <time>2019-07-09T11:17:39.000Z</time>
      </trkpt>
      <trkpt lat="43.5518590919673442840576171875" lon="-6.8399910628795623779296875">
        <ele>35.200000762939453125</ele>
        <time>2019-07-09T11:17:41.000Z</time>
      </trkpt>
      <trkpt lat="43.5522694699466228485107421875" lon="-6.840316615998744964599609375">
        <ele>36.40000152587890625</ele>
        <time>2019-07-09T11:17:43.000Z</time>
      </trkpt>
      <trkpt lat="43.5526593960821628570556640625" lon="-6.8406245671212673187255859375">
        <ele>37.40000152587890625</ele>
        <time>2019-07-09T11:17:45.000Z</time>
      </trkpt>
      <trkpt lat="43.55302660726010799407958984375" lon="-6.84093276970088481903076171875">
        <ele>39.200000762939453125</ele>
        <time>2019-07-09T11:17:47.000Z</time>
      </trkpt>
      <trkpt lat="43.55337110348045825958251953125" lon="-6.84124507941305637359619140625">
        <ele>44</ele>
        <time>2019-07-09T11:17:49.000Z</time>
      </trkpt>
      <trkpt lat="43.5535207204520702362060546875" lon="-6.84140416793525218963623046875">
        <ele>49.799999237060546875</ele>
        <time>2019-07-09T11:17:50.000Z</time>
      </trkpt>
      <trkpt lat="43.5536603629589080810546875" lon="-6.84157867915928363800048828125">
        <ele>56.799999237060546875</ele>
        <time>2019-07-09T11:17:51.000Z</time>
      </trkpt>
      <trkpt lat="43.5537906177341938018798828125" lon="-6.8417645059525966644287109375">
        <ele>60.200000762939453125</ele>
        <time>2019-07-09T11:17:52.000Z</time>
      </trkpt>
      <trkpt lat="43.55405087582767009735107421875" lon="-6.84216742403805255889892578125">
        <ele>61.40000152587890625</ele>
        <time>2019-07-09T11:17:54.000Z</time>
      </trkpt>
      <trkpt lat="43.55429797433316707611083984375" lon="-6.84262289665639400482177734375">
        <ele>58</ele>
        <time>2019-07-09T11:17:56.000Z</time>
      </trkpt>
      <trkpt lat="43.554405681788921356201171875" lon="-6.84286328963935375213623046875">
        <ele>55.799999237060546875</ele>
        <time>2019-07-09T11:17:57.000Z</time>
      </trkpt>
      <trkpt lat="43.55450165458023548126220703125" lon="-6.8430982343852519989013671875">
        <ele>54</ele>
        <time>2019-07-09T11:17:58.000Z</time>
      </trkpt>
      <trkpt lat="43.554656468331813812255859375" lon="-6.84356418438255786895751953125">
        <ele>52.799999237060546875</ele>
        <time>2019-07-09T11:18:00.000Z</time>
      </trkpt>
      <trkpt lat="43.55483659543097019195556640625" lon="-6.84427865780889987945556640625">
        <ele>52.200000762939453125</ele>
        <time>2019-07-09T11:18:03.000Z</time>
      </trkpt>
      <trkpt lat="43.55494572781026363372802734375" lon="-6.8447518162429332733154296875">
        <ele>54.40000152587890625</ele>
        <time>2019-07-09T11:18:05.000Z</time>
      </trkpt>
      <trkpt lat="43.5551092587411403656005859375" lon="-6.845483891665935516357421875">
        <ele>56.200000762939453125</ele>
        <time>2019-07-09T11:18:08.000Z</time>
      </trkpt>
      <trkpt lat="43.55521059595048427581787109375" lon="-6.8459718860685825347900390625">
        <ele>54.59999847412109375</ele>
        <time>2019-07-09T11:18:10.000Z</time>
      </trkpt>
      <trkpt lat="43.55526055209338665008544921875" lon="-6.84621873311698436737060546875">
        <ele>53</ele>
        <time>2019-07-09T11:18:11.000Z</time>
      </trkpt>
      <trkpt lat="43.55536155402660369873046875" lon="-6.84670773334801197052001953125">
        <ele>51.799999237060546875</ele>
        <time>2019-07-09T11:18:13.000Z</time>
      </trkpt>
      <trkpt lat="43.5555038787424564361572265625" lon="-6.84736168943345546722412109375">
        <ele>51</ele>
        <time>2019-07-09T11:18:16.000Z</time>
      </trkpt>
      <trkpt lat="43.55559716932475566864013671875" lon="-6.8477936089038848876953125">
        <ele>50.59999847412109375</ele>
        <time>2019-07-09T11:18:18.000Z</time>
      </trkpt>
      <trkpt lat="43.55574770830571651458740234375" lon="-6.8484936654567718505859375">
        <ele>51.799999237060546875</ele>
        <time>2019-07-09T11:18:21.000Z</time>
      </trkpt>
      <trkpt lat="43.55591283179819583892822265625" lon="-6.8492592684924602508544921875">
        <ele>51.59999847412109375</ele>
        <time>2019-07-09T11:18:24.000Z</time>
      </trkpt>
      <trkpt lat="43.55607368052005767822265625" lon="-6.8500166572630405426025390625">
        <ele>52</ele>
        <time>2019-07-09T11:18:27.000Z</time>
      </trkpt>
      <trkpt lat="43.5562377981841564178466796875" lon="-6.8507770635187625885009765625">
        <ele>52.799999237060546875</ele>
        <time>2019-07-09T11:18:30.000Z</time>
      </trkpt>
      <trkpt lat="43.5564014129340648651123046875" lon="-6.85153461992740631103515625">
        <ele>53.799999237060546875</ele>
        <time>2019-07-09T11:18:33.000Z</time>
      </trkpt>
      <trkpt lat="43.5565489344298839569091796875" lon="-6.85224900953471660614013671875">
        <ele>54.200000762939453125</ele>
        <time>2019-07-09T11:18:36.000Z</time>
      </trkpt>
      <trkpt lat="43.5566860623657703399658203125" lon="-6.85290061868727207183837890625">
        <ele>52.799999237060546875</ele>
        <time>2019-07-09T11:18:39.000Z</time>
      </trkpt>
      <trkpt lat="43.55682478286325931549072265625" lon="-6.85353294946253299713134765625">
        <ele>52.40000152587890625</ele>
        <time>2019-07-09T11:18:42.000Z</time>
      </trkpt>
      <trkpt lat="43.5569700412452220916748046875" lon="-6.8542082794010639190673828125">
        <ele>53.799999237060546875</ele>
        <time>2019-07-09T11:18:45.000Z</time>
      </trkpt>
      <trkpt lat="43.5571195743978023529052734375" lon="-6.8549049831926822662353515625">
        <ele>54</ele>
        <time>2019-07-09T11:18:48.000Z</time>
      </trkpt>
      <trkpt lat="43.557217977941036224365234375" lon="-6.85535810887813568115234375">
        <ele>52.59999847412109375</ele>
        <time>2019-07-09T11:18:50.000Z</time>
      </trkpt>
      <trkpt lat="43.55731428600847721099853515625" lon="-6.85580662451684474945068359375">
        <ele>50.799999237060546875</ele>
        <time>2019-07-09T11:18:52.000Z</time>
      </trkpt>
      <trkpt lat="43.55741268955171108245849609375" lon="-6.85625907965004444122314453125">
        <ele>49.40000152587890625</ele>
        <time>2019-07-09T11:18:54.000Z</time>
      </trkpt>
      <trkpt lat="43.55756691657006740570068359375" lon="-6.85696332715451717376708984375">
        <ele>48.59999847412109375</ele>
        <time>2019-07-09T11:18:57.000Z</time>
      </trkpt>
      <trkpt lat="43.55772667564451694488525390625" lon="-6.85767360962927341461181640625">
        <ele>48.59999847412109375</ele>
        <time>2019-07-09T11:19:00.000Z</time>
      </trkpt>
      <trkpt lat="43.55788014829158782958984375" lon="-6.858375929296016693115234375">
        <ele>51.40000152587890625</ele>
        <time>2019-07-09T11:19:03.000Z</time>
      </trkpt>
      <trkpt lat="43.55792842805385589599609375" lon="-6.85860567726194858551025390625">
        <ele>52.59999847412109375</ele>
        <time>2019-07-09T11:19:04.000Z</time>
      </trkpt>
      <trkpt lat="43.558082990348339080810546875" lon="-6.8593190610408782958984375">
        <ele>51.799999237060546875</ele>
        <time>2019-07-09T11:19:07.000Z</time>
      </trkpt>
      <trkpt lat="43.5581347905099391937255859375" lon="-6.85956691391766071319580078125">
        <ele>49.40000152587890625</ele>
        <time>2019-07-09T11:19:08.000Z</time>
      </trkpt>
      <trkpt lat="43.558186255395412445068359375" lon="-6.8598110787570476531982421875">
        <ele>48.200000762939453125</ele>
        <time>2019-07-09T11:19:09.000Z</time>
      </trkpt>
      <trkpt lat="43.55823663063347339630126953125" lon="-6.8600524775683879852294921875">
        <ele>45.59999847412109375</ele>
        <time>2019-07-09T11:19:10.000Z</time>
      </trkpt>
      <trkpt lat="43.55828591622412204742431640625" lon="-6.86028909869492053985595703125">
        <ele>44.200000762939453125</ele>
        <time>2019-07-09T11:19:11.000Z</time>
      </trkpt>
      <trkpt lat="43.558331429958343505859375" lon="-6.86052530072629451751708984375">
        <ele>42.40000152587890625</ele>
        <time>2019-07-09T11:19:12.000Z</time>
      </trkpt>
      <trkpt lat="43.55847735889256000518798828125" lon="-6.8612353317439556121826171875">
        <ele>44.59999847412109375</ele>
        <time>2019-07-09T11:19:15.000Z</time>
      </trkpt>
      <trkpt lat="43.5585860721766948699951171875" lon="-6.86172525398433208465576171875">
        <ele>45.59999847412109375</ele>
        <time>2019-07-09T11:19:17.000Z</time>
      </trkpt>
      <trkpt lat="43.55869352817535400390625" lon="-6.8622280843555927276611328125">
        <ele>44.200000762939453125</ele>
        <time>2019-07-09T11:19:19.000Z</time>
      </trkpt>
      <trkpt lat="43.55885705910623073577880859375" lon="-6.86297558248043060302734375">
        <ele>43.200000762939453125</ele>
        <time>2019-07-09T11:19:22.000Z</time>
      </trkpt>
      <trkpt lat="43.55891070328652858734130859375" lon="-6.86322628520429134368896484375">
        <ele>42.59999847412109375</ele>
        <time>2019-07-09T11:19:23.000Z</time>
      </trkpt>
      <trkpt lat="43.55907104909420013427734375" lon="-6.863979399204254150390625">
        <ele>42</ele>
        <time>2019-07-09T11:19:26.000Z</time>
      </trkpt>
      <trkpt lat="43.559237010776996612548828125" lon="-6.86473779380321502685546875">
        <ele>43.200000762939453125</ele>
        <time>2019-07-09T11:19:29.000Z</time>
      </trkpt>
      <trkpt lat="43.559291996061801910400390625" lon="-6.86499671079218387603759765625">
        <ele>44.40000152587890625</ele>
        <time>2019-07-09T11:19:30.000Z</time>
      </trkpt>
      <trkpt lat="43.55934522114694118499755859375" lon="-6.8652519397437572479248046875">
        <ele>45.59999847412109375</ele>
        <time>2019-07-09T11:19:31.000Z</time>
      </trkpt>
      <trkpt lat="43.55945116840302944183349609375" lon="-6.86575032770633697509765625">
        <ele>47.40000152587890625</ele>
        <time>2019-07-09T11:19:33.000Z</time>
      </trkpt>
      <trkpt lat="43.55950414203107357025146484375" lon="-6.86599851585924625396728515625">
        <ele>48.40000152587890625</ele>
        <time>2019-07-09T11:19:34.000Z</time>
      </trkpt>
      <trkpt lat="43.55961293913424015045166015625" lon="-6.86649355106055736541748046875">
        <ele>49.59999847412109375</ele>
        <time>2019-07-09T11:19:36.000Z</time>
      </trkpt>
      <trkpt lat="43.55971570126712322235107421875" lon="-6.8669672124087810516357421875">
        <ele>50.799999237060546875</ele>
        <time>2019-07-09T11:19:38.000Z</time>
      </trkpt>
      <trkpt lat="43.5598105005919933319091796875" lon="-6.867408938705921173095703125">
        <ele>52.200000762939453125</ele>
        <time>2019-07-09T11:19:40.000Z</time>
      </trkpt>
      <trkpt lat="43.55990789830684661865234375" lon="-6.86785493977367877960205078125">
        <ele>53.40000152587890625</ele>
        <time>2019-07-09T11:19:42.000Z</time>
      </trkpt>
      <trkpt lat="43.56005583889782428741455078125" lon="-6.86854493804275989532470703125">
        <ele>53.799999237060546875</ele>
        <time>2019-07-09T11:19:45.000Z</time>
      </trkpt>
      <trkpt lat="43.5602076351642608642578125" lon="-6.86925119720399379730224609375">
        <ele>54</ele>
        <time>2019-07-09T11:19:48.000Z</time>
      </trkpt>
      <trkpt lat="43.56035708449780941009521484375" lon="-6.869981847703456878662109375">
        <ele>54</ele>
        <time>2019-07-09T11:19:51.000Z</time>
      </trkpt>
      <trkpt lat="43.56046420522034168243408203125" lon="-6.87068869359791278839111328125">
        <ele>53.59999847412109375</ele>
        <time>2019-07-09T11:19:54.000Z</time>
      </trkpt>
      <trkpt lat="43.56049236841499805450439453125" lon="-6.87116377986967563629150390625">
        <ele>52.40000152587890625</ele>
        <time>2019-07-09T11:19:56.000Z</time>
      </trkpt>
      <trkpt lat="43.56045146472752094268798828125" lon="-6.8719031475484371185302734375">
        <ele>51.799999237060546875</ele>
        <time>2019-07-09T11:19:59.000Z</time>
      </trkpt>
      <trkpt lat="43.5603217966854572296142578125" lon="-6.87265642918646335601806640625">
        <ele>52.200000762939453125</ele>
        <time>2019-07-09T11:20:02.000Z</time>
      </trkpt>
      <trkpt lat="43.56007880531251430511474609375" lon="-6.873395629227161407470703125">
        <ele>52.40000152587890625</ele>
        <time>2019-07-09T11:20:05.000Z</time>
      </trkpt>
      <trkpt lat="43.559723831713199615478515625" lon="-6.87408017925918102264404296875">
        <ele>51</ele>
        <time>2019-07-09T11:20:08.000Z</time>
      </trkpt>
      <trkpt lat="43.55943180620670318603515625" lon="-6.87449558638036251068115234375">
        <ele>49.200000762939453125</ele>
        <time>2019-07-09T11:20:10.000Z</time>
      </trkpt>
      <trkpt lat="43.559104911983013153076171875" lon="-6.874863468110561370849609375">
        <ele>47.200000762939453125</ele>
        <time>2019-07-09T11:20:12.000Z</time>
      </trkpt>
      <trkpt lat="43.55892612598836421966552734375" lon="-6.87502180226147174835205078125">
        <ele>46</ele>
        <time>2019-07-09T11:20:13.000Z</time>
      </trkpt>
      <trkpt lat="43.55874289758503437042236328125" lon="-6.87516965903341770172119140625">
        <ele>44.799999237060546875</ele>
        <time>2019-07-09T11:20:14.000Z</time>
      </trkpt>
      <trkpt lat="43.558559753000736236572265625" lon="-6.875299327075481414794921875">
        <ele>43.59999847412109375</ele>
        <time>2019-07-09T11:20:15.000Z</time>
      </trkpt>
      <trkpt lat="43.55838146992027759552001953125" lon="-6.8754245527088642120361328125">
        <ele>42.59999847412109375</ele>
        <time>2019-07-09T11:20:16.000Z</time>
      </trkpt>
      <trkpt lat="43.5580404102802276611328125" lon="-6.87569235451519489288330078125">
        <ele>41</ele>
        <time>2019-07-09T11:20:18.000Z</time>
      </trkpt>
      <trkpt lat="43.55770823545753955841064453125" lon="-6.875990331172943115234375">
        <ele>39.59999847412109375</ele>
        <time>2019-07-09T11:20:20.000Z</time>
      </trkpt>
      <trkpt lat="43.5575507394969463348388671875" lon="-6.87617297284305095672607421875">
        <ele>38.799999237060546875</ele>
        <time>2019-07-09T11:20:21.000Z</time>
      </trkpt>
      <trkpt lat="43.55739869177341461181640625" lon="-6.876382939517498016357421875">
        <ele>38.40000152587890625</ele>
        <time>2019-07-09T11:20:22.000Z</time>
      </trkpt>
      <trkpt lat="43.55698320083320140838623046875" lon="-6.8770841695368289947509765625">
        <ele>36.799999237060546875</ele>
        <time>2019-07-09T11:20:25.000Z</time>
      </trkpt>
      <trkpt lat="43.556841127574443817138671875" lon="-6.87731961719691753387451171875">
        <ele>35.40000152587890625</ele>
        <time>2019-07-09T11:20:26.000Z</time>
      </trkpt>
      <trkpt lat="43.5566939413547515869140625" lon="-6.87755204737186431884765625">
        <ele>33.59999847412109375</ele>
        <time>2019-07-09T11:20:27.000Z</time>
      </trkpt>
      <trkpt lat="43.55655153281986713409423828125" lon="-6.877787075936794281005859375">
        <ele>32</ele>
        <time>2019-07-09T11:20:28.000Z</time>
      </trkpt>
      <trkpt lat="43.55641826055943965911865234375" lon="-6.878015734255313873291015625">
        <ele>30.3999996185302734375</ele>
        <time>2019-07-09T11:20:29.000Z</time>
      </trkpt>
      <trkpt lat="43.5562820546329021453857421875" lon="-6.878243386745452880859375">
        <ele>28.6000003814697265625</ele>
        <time>2019-07-09T11:20:30.000Z</time>
      </trkpt>
      <trkpt lat="43.55601307936012744903564453125" lon="-6.8787005357444286346435546875">
        <ele>26.799999237060546875</ele>
        <time>2019-07-09T11:20:32.000Z</time>
      </trkpt>
      <trkpt lat="43.5555826686322689056396484375" lon="-6.87941459007561206817626953125">
        <ele>26.6000003814697265625</ele>
        <time>2019-07-09T11:20:35.000Z</time>
      </trkpt>
      <trkpt lat="43.5553050599992275238037109375" lon="-6.879897303879261016845703125">
        <ele>28</ele>
        <time>2019-07-09T11:20:37.000Z</time>
      </trkpt>
      <trkpt lat="43.554916642606258392333984375" lon="-6.880632899701595306396484375">
        <ele>26.6000003814697265625</ele>
        <time>2019-07-09T11:20:40.000Z</time>
      </trkpt>
      <trkpt lat="43.55480608530342578887939453125" lon="-6.88089366070926189422607421875">
        <ele>23.6000003814697265625</ele>
        <time>2019-07-09T11:20:41.000Z</time>
      </trkpt>
      <trkpt lat="43.5547086037695407867431640625" lon="-6.8811658211052417755126953125">
        <ele>20</ele>
        <time>2019-07-09T11:20:42.000Z</time>
      </trkpt>
      <trkpt lat="43.5546177439391613006591796875" lon="-6.8814553320407867431640625">
        <ele>17.3999996185302734375</ele>
        <time>2019-07-09T11:20:43.000Z</time>
      </trkpt>
      <trkpt lat="43.5545315779745578765869140625" lon="-6.8817609362304210662841796875">
        <ele>15.3999996185302734375</ele>
        <time>2019-07-09T11:20:44.000Z</time>
      </trkpt>
      <trkpt lat="43.554474078118801116943359375" lon="-6.88207970000803470611572265625">
        <ele>14.3999996185302734375</ele>
        <time>2019-07-09T11:20:45.000Z</time>
      </trkpt>
      <trkpt lat="43.5544487647712230682373046875" lon="-6.88240944407880306243896484375">
        <ele>14.19999980926513671875</ele>
        <time>2019-07-09T11:20:46.000Z</time>
      </trkpt>
      <trkpt lat="43.554449938237667083740234375" lon="-6.882751174271106719970703125">
        <ele>14.3999996185302734375</ele>
        <time>2019-07-09T11:20:47.000Z</time>
      </trkpt>
      <trkpt lat="43.5545188374817371368408203125" lon="-6.88343756832182407379150390625">
        <ele>15.6000003814697265625</ele>
        <time>2019-07-09T11:20:49.000Z</time>
      </trkpt>
      <trkpt lat="43.55468027293682098388671875" lon="-6.8840803764760494232177734375">
        <ele>17.3999996185302734375</ele>
        <time>2019-07-09T11:20:51.000Z</time>
      </trkpt>
      <trkpt lat="43.55493851937353610992431640625" lon="-6.88466660678386688232421875">
        <ele>19.6000003814697265625</ele>
        <time>2019-07-09T11:20:53.000Z</time>
      </trkpt>
      <trkpt lat="43.55509425513446331024169921875" lon="-6.88493080437183380126953125">
        <ele>21</ele>
        <time>2019-07-09T11:20:54.000Z</time>
      </trkpt>
      <trkpt lat="43.55526088736951351165771484375" lon="-6.88516859896481037139892578125">
        <ele>22.3999996185302734375</ele>
        <time>2019-07-09T11:20:55.000Z</time>
      </trkpt>
      <trkpt lat="43.55542500503361225128173828125" lon="-6.885382421314716339111328125">
        <ele>23.799999237060546875</ele>
        <time>2019-07-09T11:20:56.000Z</time>
      </trkpt>
      <trkpt lat="43.55559180490672588348388671875" lon="-6.8855622969567775726318359375">
        <ele>25</ele>
        <time>2019-07-09T11:20:57.000Z</time>
      </trkpt>
      <trkpt lat="43.555761873722076416015625" lon="-6.885716356337070465087890625">
        <ele>26.799999237060546875</ele>
        <time>2019-07-09T11:20:58.000Z</time>
      </trkpt>
      <trkpt lat="43.555940575897693634033203125" lon="-6.88585306517779827117919921875">
        <ele>28.3999996185302734375</ele>
        <time>2019-07-09T11:20:59.000Z</time>
      </trkpt>
      <trkpt lat="43.5561238043010234832763671875" lon="-6.88597678206861019134521484375">
        <ele>29.799999237060546875</ele>
        <time>2019-07-09T11:21:00.000Z</time>
      </trkpt>
      <trkpt lat="43.55648296885192394256591796875" lon="-6.88621013425290584564208984375">
        <ele>31.6000003814697265625</ele>
        <time>2019-07-09T11:21:02.000Z</time>
      </trkpt>
      <trkpt lat="43.5566545464098453521728515625" lon="-6.8863267265260219573974609375">
        <ele>33.200000762939453125</ele>
        <time>2019-07-09T11:21:03.000Z</time>
      </trkpt>
      <trkpt lat="43.556825704872608184814453125" lon="-6.8864504434168338775634765625">
        <ele>35.40000152587890625</ele>
        <time>2019-07-09T11:21:04.000Z</time>
      </trkpt>
      <trkpt lat="43.5569851286709308624267578125" lon="-6.88659109175205230712890625">
        <ele>38</ele>
        <time>2019-07-09T11:21:05.000Z</time>
      </trkpt>
      <trkpt lat="43.557134158909320831298828125" lon="-6.886749677360057830810546875">
        <ele>39.40000152587890625</ele>
        <time>2019-07-09T11:21:06.000Z</time>
      </trkpt>
      <trkpt lat="43.55726952664554119110107421875" lon="-6.88692905008792877197265625">
        <ele>41</ele>
        <time>2019-07-09T11:21:07.000Z</time>
      </trkpt>
      <trkpt lat="43.55739374645054340362548828125" lon="-6.88712661154568195343017578125">
        <ele>42.59999847412109375</ele>
        <time>2019-07-09T11:21:08.000Z</time>
      </trkpt>
      <trkpt lat="43.5574669204652309417724609375" lon="-6.887357197701930999755859375">
        <ele>44</ele>
        <time>2019-07-09T11:21:09.000Z</time>
      </trkpt>
      <trkpt lat="43.55753690935671329498291015625" lon="-6.887593232095241546630859375">
        <ele>45.200000762939453125</ele>
        <time>2019-07-09T11:21:10.000Z</time>
      </trkpt>
      <trkpt lat="43.55764947831630706787109375" lon="-6.8880785442888736724853515625">
        <ele>47.59999847412109375</ele>
        <time>2019-07-09T11:21:12.000Z</time>
      </trkpt>
      <trkpt lat="43.5576965846121311187744140625" lon="-6.88832371495664119720458984375">
        <ele>49.200000762939453125</ele>
        <time>2019-07-09T11:21:13.000Z</time>
      </trkpt>
      <trkpt lat="43.557739667594432830810546875" lon="-6.8885737471282482147216796875">
        <ele>50.799999237060546875</ele>
        <time>2019-07-09T11:21:14.000Z</time>
      </trkpt>
      <trkpt lat="43.55783329345285892486572265625" lon="-6.88907615840435028076171875">
        <ele>52.59999847412109375</ele>
        <time>2019-07-09T11:21:16.000Z</time>
      </trkpt>
      <trkpt lat="43.55797477997839450836181640625" lon="-6.889869086444377899169921875">
        <ele>53.799999237060546875</ele>
        <time>2019-07-09T11:21:19.000Z</time>
      </trkpt>
      <trkpt lat="43.558091036975383758544921875" lon="-6.89069847576320171356201171875">
        <ele>54.799999237060546875</ele>
        <time>2019-07-09T11:21:22.000Z</time>
      </trkpt>
      <trkpt lat="43.55815532617270946502685546875" lon="-6.89125017262995243072509765625">
        <ele>54.799999237060546875</ele>
        <time>2019-07-09T11:21:24.000Z</time>
      </trkpt>
      <trkpt lat="43.5582041926681995391845703125" lon="-6.89181058667600154876708984375">
        <ele>56</ele>
        <time>2019-07-09T11:21:26.000Z</time>
      </trkpt>
      <trkpt lat="43.5582548193633556365966796875" lon="-6.8926761858165264129638671875">
        <ele>55.799999237060546875</ele>
        <time>2019-07-09T11:21:29.000Z</time>
      </trkpt>
      <trkpt lat="43.55827770195901393890380859375" lon="-6.893270127475261688232421875">
        <ele>54</ele>
        <time>2019-07-09T11:21:31.000Z</time>
      </trkpt>
      <trkpt lat="43.55829413048923015594482421875" lon="-6.89386717043817043304443359375">
        <ele>52</ele>
        <time>2019-07-09T11:21:33.000Z</time>
      </trkpt>
      <trkpt lat="43.5583037696778774261474609375" lon="-6.8941634707152843475341796875">
        <ele>50.799999237060546875</ele>
        <time>2019-07-09T11:21:34.000Z</time>
      </trkpt>
      <trkpt lat="43.55833344161510467529296875" lon="-6.8950643576681613922119140625">
        <ele>50.799999237060546875</ele>
        <time>2019-07-09T11:21:37.000Z</time>
      </trkpt>
      <trkpt lat="43.55834090150892734527587890625" lon="-6.8953681178390979766845703125">
        <ele>52</ele>
        <time>2019-07-09T11:21:38.000Z</time>
      </trkpt>
      <trkpt lat="43.55835682712495326995849609375" lon="-6.89598150551319122314453125">
        <ele>54.200000762939453125</ele>
        <time>2019-07-09T11:21:40.000Z</time>
      </trkpt>
      <trkpt lat="43.5583671368658542633056640625" lon="-6.8962907977402210235595703125">
        <ele>55.799999237060546875</ele>
        <time>2019-07-09T11:21:41.000Z</time>
      </trkpt>
      <trkpt lat="43.55838968418538570404052734375" lon="-6.89691047184169292449951171875">
        <ele>55.59999847412109375</ele>
        <time>2019-07-09T11:21:43.000Z</time>
      </trkpt>
      <trkpt lat="43.5584144107997417449951171875" lon="-6.897785626351833343505859375">
        <ele>54.799999237060546875</ele>
        <time>2019-07-09T11:21:46.000Z</time>
      </trkpt>
      <trkpt lat="43.5584385506808757781982421875" lon="-6.898561455309391021728515625">
        <ele>55</ele>
        <time>2019-07-09T11:21:49.000Z</time>
      </trkpt>
      <trkpt lat="43.55845950543880462646484375" lon="-6.89930149354040622711181640625">
        <ele>55.59999847412109375</ele>
        <time>2019-07-09T11:21:52.000Z</time>
      </trkpt>
      <trkpt lat="43.55848096311092376708984375" lon="-6.90001152455806732177734375">
        <ele>57.200000762939453125</ele>
        <time>2019-07-09T11:21:55.000Z</time>
      </trkpt>
      <trkpt lat="43.5584888420999050140380859375" lon="-6.900253929197788238525390625">
        <ele>58.59999847412109375</ele>
        <time>2019-07-09T11:21:56.000Z</time>
      </trkpt>
      <trkpt lat="43.55849697254598140716552734375" lon="-6.9005025364458560943603515625">
        <ele>59.799999237060546875</ele>
        <time>2019-07-09T11:21:57.000Z</time>
      </trkpt>
      <trkpt lat="43.558520190417766571044921875" lon="-6.90128331072628498077392578125">
        <ele>59.799999237060546875</ele>
        <time>2019-07-09T11:22:00.000Z</time>
      </trkpt>
      <trkpt lat="43.55852480046451091766357421875" lon="-6.90155438147485256195068359375">
        <ele>58.799999237060546875</ele>
        <time>2019-07-09T11:22:01.000Z</time>
      </trkpt>
      <trkpt lat="43.5585320927202701568603515625" lon="-6.90210289321839809417724609375">
        <ele>57.40000152587890625</ele>
        <time>2019-07-09T11:22:03.000Z</time>
      </trkpt>
      <trkpt lat="43.5585391335189342498779296875" lon="-6.90262391231954097747802734375">
        <ele>56.200000762939453125</ele>
        <time>2019-07-09T11:22:05.000Z</time>
      </trkpt>
      <trkpt lat="43.55855279602110385894775390625" lon="-6.90311341546475887298583984375">
        <ele>58</ele>
        <time>2019-07-09T11:22:07.000Z</time>
      </trkpt>
      <trkpt lat="43.5585652850568294525146484375" lon="-6.9033543951809406280517578125">
        <ele>59.59999847412109375</ele>
        <time>2019-07-09T11:22:08.000Z</time>
      </trkpt>
      <trkpt lat="43.55860006995499134063720703125" lon="-6.9038435630500316619873046875">
        <ele>61</ele>
        <time>2019-07-09T11:22:10.000Z</time>
      </trkpt>
      <trkpt lat="43.55866896919906139373779296875" lon="-6.9046230800449848175048828125">
        <ele>62</ele>
        <time>2019-07-09T11:22:13.000Z</time>
      </trkpt>
      <trkpt lat="43.5587758384644985198974609375" lon="-6.9054461829364299774169921875">
        <ele>61.40000152587890625</ele>
        <time>2019-07-09T11:22:16.000Z</time>
      </trkpt>
      <trkpt lat="43.5589106194674968719482421875" lon="-6.90631144680082798004150390625">
        <ele>60.59999847412109375</ele>
        <time>2019-07-09T11:22:19.000Z</time>
      </trkpt>
      <trkpt lat="43.5590578056871891021728515625" lon="-6.9071710109710693359375">
        <ele>60.200000762939453125</ele>
        <time>2019-07-09T11:22:22.000Z</time>
      </trkpt>
      <trkpt lat="43.55911186896264553070068359375" lon="-6.9074564985930919647216796875">
        <ele>59.799999237060546875</ele>
        <time>2019-07-09T11:22:23.000Z</time>
      </trkpt>
      <trkpt lat="43.55930448509752750396728515625" lon="-6.908283792436122894287109375">
        <ele>60.799999237060546875</ele>
        <time>2019-07-09T11:22:26.000Z</time>
      </trkpt>
      <trkpt lat="43.5593733005225658416748046875" lon="-6.90854941494762897491455078125">
        <ele>61</ele>
        <time>2019-07-09T11:22:27.000Z</time>
      </trkpt>
      <trkpt lat="43.55957438237965106964111328125" lon="-6.90933329053223133087158203125">
        <ele>60.59999847412109375</ele>
        <time>2019-07-09T11:22:30.000Z</time>
      </trkpt>
      <trkpt lat="43.559776805341243743896484375" lon="-6.910118758678436279296875">
        <ele>60</ele>
        <time>2019-07-09T11:22:33.000Z</time>
      </trkpt>
      <trkpt lat="43.55998836457729339599609375" lon="-6.9109299592673778533935546875">
        <ele>60</ele>
        <time>2019-07-09T11:22:36.000Z</time>
      </trkpt>
      <trkpt lat="43.56005986221134662628173828125" lon="-6.91120840609073638916015625">
        <ele>59.799999237060546875</ele>
        <time>2019-07-09T11:22:37.000Z</time>
      </trkpt>
      <trkpt lat="43.560209311544895172119140625" lon="-6.91177896223962306976318359375">
        <ele>58</ele>
        <time>2019-07-09T11:22:39.000Z</time>
      </trkpt>
      <trkpt lat="43.560285083949565887451171875" lon="-6.912073753774166107177734375">
        <ele>56.799999237060546875</ele>
        <time>2019-07-09T11:22:40.000Z</time>
      </trkpt>
      <trkpt lat="43.56043973006308078765869140625" lon="-6.91267901100218296051025390625">
        <ele>55.799999237060546875</ele>
        <time>2019-07-09T11:22:42.000Z</time>
      </trkpt>
      <trkpt lat="43.56059932149946689605712890625" lon="-6.913297511637210845947265625">
        <ele>55.40000152587890625</ele>
        <time>2019-07-09T11:22:44.000Z</time>
      </trkpt>
      <trkpt lat="43.56075924821197986602783203125" lon="-6.9139263220131397247314453125">
        <ele>55.799999237060546875</ele>
        <time>2019-07-09T11:22:46.000Z</time>
      </trkpt>
      <trkpt lat="43.56092135421931743621826171875" lon="-6.914558820426464080810546875">
        <ele>55</ele>
        <time>2019-07-09T11:22:48.000Z</time>
      </trkpt>
      <trkpt lat="43.56099813245236873626708984375" lon="-6.91486635245382785797119140625">
        <ele>53.799999237060546875</ele>
        <time>2019-07-09T11:22:49.000Z</time>
      </trkpt>
      <trkpt lat="43.561072647571563720703125" lon="-6.91516592167317867279052734375">
        <ele>52.200000762939453125</ele>
        <time>2019-07-09T11:22:50.000Z</time>
      </trkpt>
      <trkpt lat="43.5611452348530292510986328125" lon="-6.91546096466481685638427734375">
        <ele>51</ele>
        <time>2019-07-09T11:22:51.000Z</time>
      </trkpt>
      <trkpt lat="43.56121480464935302734375" lon="-6.91575315780937671661376953125">
        <ele>50</ele>
        <time>2019-07-09T11:22:52.000Z</time>
      </trkpt>
      <trkpt lat="43.56134883128106594085693359375" lon="-6.9163312576711177825927734375">
        <ele>48.200000762939453125</ele>
        <time>2019-07-09T11:22:54.000Z</time>
      </trkpt>
      <trkpt lat="43.56147523038089275360107421875" lon="-6.91690097562968730926513671875">
        <ele>47.200000762939453125</ele>
        <time>2019-07-09T11:22:56.000Z</time>
      </trkpt>
      <trkpt lat="43.56165644712746143341064453125" lon="-6.91776162944734096527099609375">
        <ele>47.40000152587890625</ele>
        <time>2019-07-09T11:22:59.000Z</time>
      </trkpt>
      <trkpt lat="43.56181888841092586517333984375" lon="-6.9185749255120754241943359375">
        <ele>47.59999847412109375</ele>
        <time>2019-07-09T11:23:02.000Z</time>
      </trkpt>
      <trkpt lat="43.56195987202227115631103515625" lon="-6.91931831650435924530029296875">
        <ele>47.200000762939453125</ele>
        <time>2019-07-09T11:23:05.000Z</time>
      </trkpt>
      <trkpt lat="43.56212834827601909637451171875" lon="-6.9200608693063259124755859375">
        <ele>46.59999847412109375</ele>
        <time>2019-07-09T11:23:08.000Z</time>
      </trkpt>
      <trkpt lat="43.5622808150947093963623046875" lon="-6.9208038412034511566162109375">
        <ele>45.799999237060546875</ele>
        <time>2019-07-09T11:23:11.000Z</time>
      </trkpt>
      <trkpt lat="43.5623311065137386322021484375" lon="-6.92103224806487560272216796875">
        <ele>44.59999847412109375</ele>
        <time>2019-07-09T11:23:12.000Z</time>
      </trkpt>
      <trkpt lat="43.56237846426665782928466796875" lon="-6.921249590814113616943359375">
        <ele>43.200000762939453125</ele>
        <time>2019-07-09T11:23:13.000Z</time>
      </trkpt>
      <trkpt lat="43.5624216310679912567138671875" lon="-6.92145201377570629119873046875">
        <ele>42</ele>
        <time>2019-07-09T11:23:14.000Z</time>
      </trkpt>
      <trkpt lat="43.56246404349803924560546875" lon="-6.92164027132093906402587890625">
        <ele>41</ele>
        <time>2019-07-09T11:23:15.000Z</time>
      </trkpt>
      <trkpt lat="43.56255498714745044708251953125" lon="-6.92197571508586406707763671875">
        <ele>40</ele>
        <time>2019-07-09T11:23:17.000Z</time>
      </trkpt>
      <trkpt lat="43.5627900995314121246337890625" lon="-6.922533698379993438720703125">
        <ele>40.40000152587890625</ele>
        <time>2019-07-09T11:23:21.000Z</time>
      </trkpt>
      <trkpt lat="43.5629741661250591278076171875" lon="-6.92290945909917354583740234375">
        <ele>41</ele>
        <time>2019-07-09T11:23:24.000Z</time>
      </trkpt>
      <trkpt lat="43.56314088217914104461669921875" lon="-6.9230729900300502777099609375">
        <ele>40.799999237060546875</ele>
        <time>2019-07-09T11:23:26.000Z</time>
      </trkpt>
      <trkpt lat="43.563298545777797698974609375" lon="-6.92324205301702022552490234375">
        <ele>40.59999847412109375</ele>
        <time>2019-07-09T11:23:28.000Z</time>
      </trkpt>
      <trkpt lat="43.56336032040417194366455078125" lon="-6.92349451594054698944091796875">
        <ele>40.799999237060546875</ele>
        <time>2019-07-09T11:23:30.000Z</time>
      </trkpt>
      <trkpt lat="43.5633070953190326690673828125" lon="-6.92374396137893199920654296875">
        <ele>40.59999847412109375</ele>
        <time>2019-07-09T11:23:32.000Z</time>
      </trkpt>
      <trkpt lat="43.56319234706461429595947265625" lon="-6.9239701889455318450927734375">
        <ele>40.799999237060546875</ele>
        <time>2019-07-09T11:23:34.000Z</time>
      </trkpt>
      <trkpt lat="43.56312210671603679656982421875" lon="-6.9242712669074535369873046875">
        <ele>41</ele>
        <time>2019-07-09T11:23:36.000Z</time>
      </trkpt>
      <trkpt lat="43.56313685886561870574951171875" lon="-6.92464895546436309814453125">
        <ele>41.200000762939453125</ele>
        <time>2019-07-09T11:23:38.000Z</time>
      </trkpt>
      <trkpt lat="43.56325722299516201019287109375" lon="-6.92526678554713726043701171875">
        <ele>41.40000152587890625</ele>
        <time>2019-07-09T11:23:41.000Z</time>
      </trkpt>
      <trkpt lat="43.563399128615856170654296875" lon="-6.925922669470310211181640625">
        <ele>40.40000152587890625</ele>
        <time>2019-07-09T11:23:44.000Z</time>
      </trkpt>
      <trkpt lat="43.5634988732635974884033203125" lon="-6.92637361586093902587890625">
        <ele>40</ele>
        <time>2019-07-09T11:23:46.000Z</time>
      </trkpt>
      <trkpt lat="43.56360255740582942962646484375" lon="-6.9268455170094966888427734375">
        <ele>38</ele>
        <time>2019-07-09T11:23:48.000Z</time>
      </trkpt>
      <trkpt lat="43.5637496598064899444580078125" lon="-6.92751229740679264068603515625">
        <ele>36.59999847412109375</ele>
        <time>2019-07-09T11:23:51.000Z</time>
      </trkpt>
      <trkpt lat="43.563870526850223541259765625" lon="-6.9281152077019214630126953125">
        <ele>36.40000152587890625</ele>
        <time>2019-07-09T11:23:54.000Z</time>
      </trkpt>
      <trkpt lat="43.56397085823118686676025390625" lon="-6.9286622107028961181640625">
        <ele>35</ele>
        <time>2019-07-09T11:23:57.000Z</time>
      </trkpt>
      <trkpt lat="43.56403238140046596527099609375" lon="-6.9289875961840152740478515625">
        <ele>33.799999237060546875</ele>
        <time>2019-07-09T11:23:59.000Z</time>
      </trkpt>
      <trkpt lat="43.5640953294932842254638671875" lon="-6.9292742572724819183349609375">
        <ele>33.40000152587890625</ele>
        <time>2019-07-09T11:24:01.000Z</time>
      </trkpt>
      <trkpt lat="43.56438911519944667816162109375" lon="-6.9298737309873104095458984375">
        <ele>33.59999847412109375</ele>
        <time>2019-07-09T11:24:06.000Z</time>
      </trkpt>
      <trkpt lat="43.56470243073999881744384765625" lon="-6.93038444034755229949951171875">
        <ele>33.799999237060546875</ele>
        <time>2019-07-09T11:24:10.000Z</time>
      </trkpt>
      <trkpt lat="43.56503720395267009735107421875" lon="-6.93095457740128040313720703125">
        <ele>32.59999847412109375</ele>
        <time>2019-07-09T11:24:14.000Z</time>
      </trkpt>
      <trkpt lat="43.565377257764339447021484375" lon="-6.93151130340993404388427734375">
        <ele>32.200000762939453125</ele>
        <time>2019-07-09T11:24:18.000Z</time>
      </trkpt>
      <trkpt lat="43.56566936708986759185791015625" lon="-6.9320580549538135528564453125">
        <ele>33.59999847412109375</ele>
        <time>2019-07-09T11:24:22.000Z</time>
      </trkpt>
      <trkpt lat="43.5659038089215755462646484375" lon="-6.9326625578105449676513671875">
        <ele>34.40000152587890625</ele>
        <time>2019-07-09T11:24:26.000Z</time>
      </trkpt>
      <trkpt lat="43.56614403426647186279296875" lon="-6.93331458605825901031494140625">
        <ele>33.200000762939453125</ele>
        <time>2019-07-09T11:24:30.000Z</time>
      </trkpt>
      <trkpt lat="43.56626900844275951385498046875" lon="-6.93364642560482025146484375">
        <ele>32.59999847412109375</ele>
        <time>2019-07-09T11:24:32.000Z</time>
      </trkpt>
      <trkpt lat="43.56650370173156261444091796875" lon="-6.93432142026722431182861328125">
        <ele>31.799999237060546875</ele>
        <time>2019-07-09T11:24:36.000Z</time>
      </trkpt>
      <trkpt lat="43.5665612854063510894775390625" lon="-6.93448537029325962066650390625">
        <ele>31.6000003814697265625</ele>
        <time>2019-07-09T11:24:37.000Z</time>
      </trkpt>
      <trkpt lat="43.56677175499498844146728515625" lon="-6.9350973330438137054443359375">
        <ele>32</ele>
        <time>2019-07-09T11:24:41.000Z</time>
      </trkpt>
      <trkpt lat="43.5669200308620929718017578125" lon="-6.935527659952640533447265625">
        <ele>32.59999847412109375</ele>
        <time>2019-07-09T11:24:44.000Z</time>
      </trkpt>
      <trkpt lat="43.56713318265974521636962890625" lon="-6.9361816160380840301513671875">
        <ele>33</ele>
        <time>2019-07-09T11:24:48.000Z</time>
      </trkpt>
      <trkpt lat="43.56735513545572757720947265625" lon="-6.93685929290950298309326171875">
        <ele>31.200000762939453125</ele>
        <time>2019-07-09T11:24:52.000Z</time>
      </trkpt>
      <trkpt lat="43.56745990924537181854248046875" lon="-6.9371703453361988067626953125">
        <ele>29.799999237060546875</ele>
        <time>2019-07-09T11:24:54.000Z</time>
      </trkpt>
      <trkpt lat="43.56768052093684673309326171875" lon="-6.93782589398324489593505859375">
        <ele>29.3999996185302734375</ele>
        <time>2019-07-09T11:24:59.000Z</time>
      </trkpt>
      <trkpt lat="43.56790892779827117919921875" lon="-6.93849460221827030181884765625">
        <ele>30.799999237060546875</ele>
        <time>2019-07-09T11:25:04.000Z</time>
      </trkpt>
      <trkpt lat="43.56810715980827808380126953125" lon="-6.93908586166799068450927734375">
        <ele>30.6000003814697265625</ele>
        <time>2019-07-09T11:25:09.000Z</time>
      </trkpt>
      <trkpt lat="43.5682128556072711944580078125" lon="-6.93935240618884563446044921875">
        <ele>31.200000762939453125</ele>
        <time>2019-07-09T11:25:13.000Z</time>
      </trkpt>
      <trkpt lat="43.5684113390743732452392578125" lon="-6.9399583339691162109375">
        <ele>31.200000762939453125</ele>
        <time>2019-07-09T11:25:19.000Z</time>
      </trkpt>
      <trkpt lat="43.56862373650074005126953125" lon="-6.9405941851437091827392578125">
        <ele>31.200000762939453125</ele>
        <time>2019-07-09T11:25:26.000Z</time>
      </trkpt>
      <trkpt lat="43.56881417334079742431640625" lon="-6.94117798469960689544677734375">
        <ele>30.799999237060546875</ele>
        <time>2019-07-09T11:25:32.000Z</time>
      </trkpt>
      <trkpt lat="43.568887598812580108642578125" lon="-6.94137898273766040802001953125">
        <ele>29.799999237060546875</ele>
        <time>2019-07-09T11:25:34.000Z</time>
      </trkpt>
      <trkpt lat="43.569095134735107421875" lon="-6.941991783678531646728515625">
        <ele>29.200000762939453125</ele>
        <time>2019-07-09T11:25:41.000Z</time>
      </trkpt>
      <trkpt lat="43.56919630430638790130615234375" lon="-6.94211189635097980499267578125">
        <ele>29.6000003814697265625</ele>
        <time>2019-07-09T11:25:43.000Z</time>
      </trkpt>
      <trkpt lat="43.56937919743359088897705078125" lon="-6.9422340206801891326904296875">
        <ele>29.6000003814697265625</ele>
        <time>2019-07-09T11:25:46.000Z</time>
      </trkpt>
      <trkpt lat="43.5696407966315746307373046875" lon="-6.94243443198502063751220703125">
        <ele>30</ele>
        <time>2019-07-09T11:25:50.000Z</time>
      </trkpt>
      <trkpt lat="43.56976979412138462066650390625" lon="-6.9425418041646480560302734375">
        <ele>29.6000003814697265625</ele>
        <time>2019-07-09T11:25:52.000Z</time>
      </trkpt>
      <trkpt lat="43.56988848187029361724853515625" lon="-6.94264280609786510467529296875">
        <ele>28.6000003814697265625</ele>
        <time>2019-07-09T11:25:54.000Z</time>
      </trkpt>
      <trkpt lat="43.57002862729132175445556640625" lon="-6.94278471171855926513671875">
        <ele>27.6000003814697265625</ele>
        <time>2019-07-09T11:25:57.000Z</time>
      </trkpt>
      <trkpt lat="43.5701192356646060943603515625" lon="-6.94285235367715358734130859375">
        <ele>27.200000762939453125</ele>
        <time>2019-07-09T11:25:59.000Z</time>
      </trkpt>
      <trkpt lat="43.5702248476445674896240234375" lon="-6.9428633339703083038330078125">
        <ele>26.799999237060546875</ele>
        <time>2019-07-09T11:26:01.000Z</time>
      </trkpt>
      <trkpt lat="43.5703019611537456512451171875" lon="-6.94283165037631988525390625">
        <ele>26.200000762939453125</ele>
        <time>2019-07-09T11:26:03.000Z</time>
      </trkpt>
      <trkpt lat="43.57034143991768360137939453125" lon="-6.9428150542080402374267578125">
        <ele>25.6000003814697265625</ele>
        <time>2019-07-09T11:26:04.000Z</time>
      </trkpt>
      <trkpt lat="43.57040195725858211517333984375" lon="-6.94278647191822528839111328125">
        <ele>25</ele>
        <time>2019-07-09T11:26:05.000Z</time>
      </trkpt>
      <trkpt lat="43.5705319605767726898193359375" lon="-6.94270248524844646453857421875">
        <ele>24</ele>
        <time>2019-07-09T11:26:07.000Z</time>
      </trkpt>
      <trkpt lat="43.5706415958702564239501953125" lon="-6.94263459183275699615478515625">
        <ele>23</ele>
        <time>2019-07-09T11:26:09.000Z</time>
      </trkpt>
      <trkpt lat="43.5707569308578968048095703125" lon="-6.94256636314094066619873046875">
        <ele>21.799999237060546875</ele>
        <time>2019-07-09T11:26:11.000Z</time>
      </trkpt>
      <trkpt lat="43.57089011929929256439208984375" lon="-6.94250039756298065185546875">
        <ele>20.6000003814697265625</ele>
        <time>2019-07-09T11:26:13.000Z</time>
      </trkpt>
      <trkpt lat="43.57097947038710117340087890625" lon="-6.94246360100805759429931640625">
        <ele>19.3999996185302734375</ele>
        <time>2019-07-09T11:26:15.000Z</time>
      </trkpt>
      <trkpt lat="43.57106345705687999725341796875" lon="-6.94245480000972747802734375">
        <ele>18.200000762939453125</ele>
        <time>2019-07-09T11:26:17.000Z</time>
      </trkpt>
      <trkpt lat="43.5712501220405101776123046875" lon="-6.94240140728652477264404296875">
        <ele>18</ele>
        <time>2019-07-09T11:26:25.000Z</time>
      </trkpt>
      <trkpt lat="43.571346513926982879638671875" lon="-6.9425692968070507049560546875">
        <ele>17.3999996185302734375</ele>
        <time>2019-07-09T11:27:24.000Z</time>
      </trkpt>
      <trkpt lat="43.57141189277172088623046875" lon="-6.94259536452591419219970703125">
        <ele>17.200000762939453125</ele>
        <time>2019-07-09T11:27:27.000Z</time>
      </trkpt>
      <trkpt lat="43.571597971022129058837890625" lon="-6.94285981357097625732421875">
        <ele>16.3999996185302734375</ele>
        <time>2019-07-09T11:27:35.000Z</time>
      </trkpt>
      <trkpt lat="43.57162320055067539215087890625" lon="-6.94297020323574542999267578125">
        <ele>16</ele>
        <time>2019-07-09T11:27:37.000Z</time>
      </trkpt>
      <trkpt lat="43.57162554748356342315673828125" lon="-6.94311722181737422943115234375">
        <ele>15</ele>
        <time>2019-07-09T11:27:40.000Z</time>
      </trkpt>
      <trkpt lat="43.5716437362134456634521484375" lon="-6.94336465559899806976318359375">
        <ele>14</ele>
        <time>2019-07-09T11:27:48.000Z</time>
      </trkpt>
      <trkpt lat="43.57164968736469745635986328125" lon="-6.94338628090918064117431640625">
        <ele>13.80000019073486328125</ele>
        <time>2019-07-09T11:28:15.000Z</time>
      </trkpt>
      <trkpt lat="43.57159738428890705108642578125" lon="-6.9434349797666072845458984375">
        <ele>14</ele>
        <time>2019-07-09T11:29:49.000Z</time>
      </trkpt>
      <trkpt lat="43.57158279977738857269287109375" lon="-6.9434262625873088836669921875">
        <ele>14</ele>
        <time>2019-07-09T11:30:27.000Z</time>
      </trkpt>
      <trkpt lat="43.5715721547603607177734375" lon="-6.9434250891208648681640625">
        <ele>14</ele>
        <time>2019-07-09T11:31:36.000Z</time>
      </trkpt>
      <trkpt lat="43.57171104289591312408447265625" lon="-6.94348937831819057464599609375">
        <ele>14</ele>
        <time>2019-07-09T11:32:46.000Z</time>
      </trkpt>
      <trkpt lat="43.57172462157905101776123046875" lon="-6.9436156935989856719970703125">
        <ele>13</ele>
        <time>2019-07-09T11:32:57.000Z</time>
      </trkpt>
      <trkpt lat="43.5717322491109371185302734375" lon="-6.94362181238830089569091796875">
        <ele>13</ele>
        <time>2019-07-09T11:32:58.000Z</time>
      </trkpt>
      <trkpt lat="43.57176921330392360687255859375" lon="-6.9436619617044925689697265625">
        <ele>11.80000019073486328125</ele>
        <time>2019-07-09T11:33:06.000Z</time>
      </trkpt>
      <trkpt lat="43.57192494906485080718994140625" lon="-6.94379632361233234405517578125">
        <ele>10.80000019073486328125</ele>
        <time>2019-07-09T11:33:43.000Z</time>
      </trkpt>
      <trkpt lat="43.57191338203847408294677734375" lon="-6.94391869939863681793212890625">
        <ele>9.6000003814697265625</ele>
        <time>2019-07-09T11:34:04.000Z</time>
      </trkpt>
      <trkpt lat="43.57208303175866603851318359375" lon="-6.9440800510346889495849609375">
        <ele>8.6000003814697265625</ele>
        <time>2019-07-09T11:34:29.000Z</time>
      </trkpt>
      <trkpt lat="43.5721047408878803253173828125" lon="-6.9441182725131511688232421875">
        <ele>8.6000003814697265625</ele>
        <time>2019-07-09T11:34:35.000Z</time>
      </trkpt>
      <trkpt lat="43.57214120216667652130126953125" lon="-6.94429907016456127166748046875">
        <ele>8.3999996185302734375</ele>
        <time>2019-07-09T11:34:58.000Z</time>
      </trkpt>
      <trkpt lat="43.57217992655932903289794921875" lon="-6.944305188953876495361328125">
        <ele>8.3999996185302734375</ele>
        <time>2019-07-09T11:35:00.000Z</time>
      </trkpt>
      <trkpt lat="43.5721456445753574371337890625" lon="-6.94449990056455135345458984375">
        <ele>8.19999980926513671875</ele>
        <time>2019-07-09T11:35:17.000Z</time>
      </trkpt>
      <trkpt lat="43.5721996240317821502685546875" lon="-6.944600902497768402099609375">
        <ele>8</ele>
        <time>2019-07-09T11:35:26.000Z</time>
      </trkpt>
      <trkpt lat="43.57225502841174602508544921875" lon="-6.94466636516153812408447265625">
        <ele>8</ele>
        <time>2019-07-09T11:35:35.000Z</time>
      </trkpt>
      <trkpt lat="43.572251088917255401611328125" lon="-6.9447690434753894805908203125">
        <ele>8.19999980926513671875</ele>
        <time>2019-07-09T11:35:43.000Z</time>
      </trkpt>
      <trkpt lat="43.5722586326301097869873046875" lon="-6.9448887370526790618896484375">
        <ele>8</ele>
        <time>2019-07-09T11:35:54.000Z</time>
      </trkpt>
      <trkpt lat="43.5723553597927093505859375" lon="-6.9450919143855571746826171875">
        <ele>8.19999980926513671875</ele>
        <time>2019-07-09T11:36:16.000Z</time>
      </trkpt>
      <trkpt lat="43.57238561846315860748291015625" lon="-6.94515804760158061981201171875">
        <ele>8.19999980926513671875</ele>
        <time>2019-07-09T11:36:23.000Z</time>
      </trkpt>
      <trkpt lat="43.5724524222314357757568359375" lon="-6.9453735463321208953857421875">
        <ele>8.19999980926513671875</ele>
        <time>2019-07-09T11:36:42.000Z</time>
      </trkpt>
      <trkpt lat="43.572840504348278045654296875" lon="-6.945549733936786651611328125">
        <ele>7.599999904632568359375</ele>
        <time>2019-07-09T11:38:48.000Z</time>
      </trkpt>
      <trkpt lat="43.57268996536731719970703125" lon="-6.945606730878353118896484375">
        <ele>7.599999904632568359375</ele>
        <time>2019-07-09T11:42:03.000Z</time>
      </trkpt>
      <trkpt lat="43.57268116436898708343505859375" lon="-6.94560295902192592620849609375">
        <ele>7.599999904632568359375</ele>
        <time>2019-07-09T11:42:04.000Z</time>
      </trkpt>
      <trkpt lat="43.5725255124270915985107421875" lon="-6.9454550184309482574462890625">
        <ele>7.400000095367431640625</ele>
        <time>2019-07-09T11:42:28.000Z</time>
      </trkpt>
      <trkpt lat="43.5724948346614837646484375" lon="-6.94535234011709690093994140625">
        <ele>7.400000095367431640625</ele>
        <time>2019-07-09T11:42:37.000Z</time>
      </trkpt>
      <trkpt lat="43.57248636893928050994873046875" lon="-6.9453302957117557525634765625">
        <ele>7.400000095367431640625</ele>
        <time>2019-07-09T11:42:39.000Z</time>
      </trkpt>
      <trkpt lat="43.5724738799035549163818359375" lon="-6.94529785774648189544677734375">
        <ele>7.400000095367431640625</ele>
        <time>2019-07-09T11:42:42.000Z</time>
      </trkpt>
      <trkpt lat="43.57246323488652706146240234375" lon="-6.9452846981585025787353515625">
        <ele>7.599999904632568359375</ele>
        <time>2019-07-09T11:42:45.000Z</time>
      </trkpt>
      <trkpt lat="43.5724235884845256805419921875" lon="-6.9452565349638462066650390625">
        <ele>7.599999904632568359375</ele>
        <time>2019-07-09T11:42:51.000Z</time>
      </trkpt>
      <trkpt lat="43.57222351245582103729248046875" lon="-6.94470827467739582061767578125">
        <ele>7</ele>
        <time>2019-07-09T11:43:51.000Z</time>
      </trkpt>
      <trkpt lat="43.57203559018671512603759765625" lon="-6.94419211708009243011474609375">
        <ele>6.80000019073486328125</ele>
        <time>2019-07-09T11:44:55.000Z</time>
      </trkpt>
      <trkpt lat="43.57203559018671512603759765625" lon="-6.944137550890445709228515625">
        <ele>7</ele>
        <time>2019-07-09T11:45:00.000Z</time>
      </trkpt>
      <trkpt lat="43.572020418941974639892578125" lon="-6.9441417418420314788818359375">
        <ele>7</ele>
        <time>2019-07-09T11:45:01.000Z</time>
      </trkpt>
      <trkpt lat="43.57185437344014644622802734375" lon="-6.94377352483570575714111328125">
        <ele>8.6000003814697265625</ele>
        <time>2019-07-09T11:45:50.000Z</time>
      </trkpt>
      <trkpt lat="43.57175965793430805206298828125" lon="-6.943646371364593505859375">
        <ele>9.6000003814697265625</ele>
        <time>2019-07-09T11:46:10.000Z</time>
      </trkpt>
      <trkpt lat="43.57166946865618228912353515625" lon="-6.943544447422027587890625">
        <ele>10.6000003814697265625</ele>
        <time>2019-07-09T11:46:29.000Z</time>
      </trkpt>
      <trkpt lat="43.57188991270959377288818359375" lon="-6.94347864948213100433349609375">
        <ele>11.80000019073486328125</ele>
        <time>2019-07-09T11:47:18.000Z</time>
      </trkpt>
      <trkpt lat="43.57201094739139080047607421875" lon="-6.94333950988948345184326171875">
        <ele>12.3999996185302734375</ele>
        <time>2019-07-09T11:47:26.000Z</time>
      </trkpt>
      <trkpt lat="43.57205369509756565093994140625" lon="-6.943320818245410919189453125">
        <ele>12.80000019073486328125</ele>
        <time>2019-07-09T11:47:31.000Z</time>
      </trkpt>
      <trkpt lat="43.5720410384237766265869140625" lon="-6.9433276914060115814208984375">
        <ele>13.80000019073486328125</ele>
        <time>2019-07-09T11:47:41.000Z</time>
      </trkpt>
      <trkpt lat="43.57195093296468257904052734375" lon="-6.94284279830753803253173828125">
        <ele>14.80000019073486328125</ele>
        <time>2019-07-09T11:48:19.000Z</time>
      </trkpt>
      <trkpt lat="43.5719498433172702789306640625" lon="-6.94281765259802341461181640625">
        <ele>15</ele>
        <time>2019-07-09T11:48:22.000Z</time>
      </trkpt>
      <trkpt lat="43.5718951933085918426513671875" lon="-6.94260257296264171600341796875">
        <ele>15.19999980926513671875</ele>
        <time>2019-07-09T11:48:44.000Z</time>
      </trkpt>
      <trkpt lat="43.57178564183413982391357421875" lon="-6.94254792295396327972412109375">
        <ele>15</ele>
        <time>2019-07-09T11:49:02.000Z</time>
      </trkpt>
      <trkpt lat="43.5715679638087749481201171875" lon="-6.9423745013773441314697265625">
        <ele>15</ele>
        <time>2019-07-09T11:49:30.000Z</time>
      </trkpt>
      <trkpt lat="43.5715696401894092559814453125" lon="-6.9423332624137401580810546875">
        <ele>15</ele>
        <time>2019-07-09T11:49:34.000Z</time>
      </trkpt>
      <trkpt lat="43.57126998715102672576904296875" lon="-6.94240073673427104949951171875">
        <ele>16</ele>
        <time>2019-07-09T11:50:14.000Z</time>
      </trkpt>
      <trkpt lat="43.57124702073633670806884765625" lon="-6.9424506090581417083740234375">
        <ele>16.3999996185302734375</ele>
        <time>2019-07-09T11:50:50.000Z</time>
      </trkpt>
      <trkpt lat="43.5713366232812404632568359375" lon="-6.9424729049205780029296875">
        <ele>16.6000003814697265625</ele>
        <time>2019-07-09T11:51:15.000Z</time>
      </trkpt>
      <trkpt lat="43.5713507048785686492919921875" lon="-6.9424754194915294647216796875">
        <ele>16.6000003814697265625</ele>
        <time>2019-07-09T11:51:17.000Z</time>
      </trkpt>
      <trkpt lat="43.57135648839175701141357421875" lon="-6.942681111395359039306640625">
        <ele>15.3999996185302734375</ele>
        <time>2019-07-09T11:51:57.000Z</time>
      </trkpt>
      <trkpt lat="43.5713493637740612030029296875" lon="-6.94284237921237945556640625">
        <ele>15</ele>
        <time>2019-07-09T11:52:27.000Z</time>
      </trkpt>
      <trkpt lat="43.571347184479236602783203125" lon="-6.942850761115550994873046875">
        <ele>15</ele>
        <time>2019-07-09T11:52:28.000Z</time>
      </trkpt>
      <trkpt lat="43.57151113450527191162109375" lon="-6.942972131073474884033203125">
        <ele>14</ele>
        <time>2019-07-09T11:53:33.000Z</time>
      </trkpt>
      <trkpt lat="43.57137157581746578216552734375" lon="-6.94267314858734607696533203125">
        <ele>15.3999996185302734375</ele>
        <time>2019-07-09T11:54:25.000Z</time>
      </trkpt>
      <trkpt lat="43.571435697376728057861328125" lon="-6.9426899962127208709716796875">
        <ele>15.3999996185302734375</ele>
        <time>2019-07-09T11:55:13.000Z</time>
      </trkpt>
      <trkpt lat="43.57160576619207859039306640625" lon="-6.94347177632153034210205078125">
        <ele>11.3999996185302734375</ele>
        <time>2019-07-09T13:20:04.000Z</time>
      </trkpt>
      <trkpt lat="43.571601323783397674560546875" lon="-6.9434819184243679046630859375">
        <ele>10.3999996185302734375</ele>
        <time>2019-07-09T13:20:28.000Z</time>
      </trkpt>
      <trkpt lat="43.571576178073883056640625" lon="-6.94339835084974765777587890625">
        <ele>11.3999996185302734375</ele>
        <time>2019-07-09T13:22:07.000Z</time>
      </trkpt>
      <trkpt lat="43.5715501941740512847900390625" lon="-6.943202130496501922607421875">
        <ele>11.3999996185302734375</ele>
        <time>2019-07-09T13:22:13.000Z</time>
      </trkpt>
      <trkpt lat="43.57153552584350109100341796875" lon="-6.94299199618399143218994140625">
        <ele>11.3999996185302734375</ele>
        <time>2019-07-09T13:22:16.000Z</time>
      </trkpt>
      <trkpt lat="43.57149193994700908660888671875" lon="-6.94286375306546688079833984375">
        <ele>11.3999996185302734375</ele>
        <time>2019-07-09T13:22:18.000Z</time>
      </trkpt>
      <trkpt lat="43.571363277733325958251953125" lon="-6.94270416162908077239990234375">
        <ele>12.3999996185302734375</ele>
        <time>2019-07-09T13:22:22.000Z</time>
      </trkpt>
      <trkpt lat="43.571235872805118560791015625" lon="-6.94260005839169025421142578125">
        <ele>13</ele>
        <time>2019-07-09T13:22:25.000Z</time>
      </trkpt>
      <trkpt lat="43.57112799771130084991455078125" lon="-6.942542307078838348388671875">
        <ele>13.6000003814697265625</ele>
        <time>2019-07-09T13:22:27.000Z</time>
      </trkpt>
      <trkpt lat="43.57101266272366046905517578125" lon="-6.94248656742274761199951171875">
        <ele>14.19999980926513671875</ele>
        <time>2019-07-09T13:22:29.000Z</time>
      </trkpt>
      <trkpt lat="43.57089615426957607269287109375" lon="-6.94248539395630359649658203125">
        <ele>14.80000019073486328125</ele>
        <time>2019-07-09T13:22:31.000Z</time>
      </trkpt>
      <trkpt lat="43.5707862675189971923828125" lon="-6.94253836758434772491455078125">
        <ele>15</ele>
        <time>2019-07-09T13:22:33.000Z</time>
      </trkpt>
      <trkpt lat="43.57067990116775035858154296875" lon="-6.94259720854461193084716796875">
        <ele>15.80000019073486328125</ele>
        <time>2019-07-09T13:22:35.000Z</time>
      </trkpt>
      <trkpt lat="43.570509664714336395263671875" lon="-6.94269913248717784881591796875">
        <ele>17</ele>
        <time>2019-07-09T13:22:38.000Z</time>
      </trkpt>
      <trkpt lat="43.57045811600983142852783203125" lon="-6.9427238591015338897705078125">
        <ele>17.3999996185302734375</ele>
        <time>2019-07-09T13:22:39.000Z</time>
      </trkpt>
      <trkpt lat="43.57035652734339237213134765625" lon="-6.94277524016797542572021484375">
        <ele>18.6000003814697265625</ele>
        <time>2019-07-09T13:22:41.000Z</time>
      </trkpt>
      <trkpt lat="43.5702516697347164154052734375" lon="-6.942828632891178131103515625">
        <ele>20.200000762939453125</ele>
        <time>2019-07-09T13:22:43.000Z</time>
      </trkpt>
      <trkpt lat="43.57014186680316925048828125" lon="-6.94286174140870571136474609375">
        <ele>20.799999237060546875</ele>
        <time>2019-07-09T13:22:45.000Z</time>
      </trkpt>
      <trkpt lat="43.5700835287570953369140625" lon="-6.942868195474147796630859375">
        <ele>21.3999996185302734375</ele>
        <time>2019-07-09T13:22:46.000Z</time>
      </trkpt>
      <trkpt lat="43.57002192176878452301025390625" lon="-6.9428510963916778564453125">
        <ele>22.200000762939453125</ele>
        <time>2019-07-09T13:22:47.000Z</time>
      </trkpt>
      <trkpt lat="43.56996073387563228607177734375" lon="-6.9428160600364208221435546875">
        <ele>22.6000003814697265625</ele>
        <time>2019-07-09T13:22:48.000Z</time>
      </trkpt>
      <trkpt lat="43.56974489986896514892578125" lon="-6.94261950440704822540283203125">
        <ele>23.799999237060546875</ele>
        <time>2019-07-09T13:22:52.000Z</time>
      </trkpt>
      <trkpt lat="43.5695931874215602874755859375" lon="-6.9424539618194103240966796875">
        <ele>24.799999237060546875</ele>
        <time>2019-07-09T13:22:55.000Z</time>
      </trkpt>
      <trkpt lat="43.5693512856960296630859375" lon="-6.9422712363302707672119140625">
        <ele>25.799999237060546875</ele>
        <time>2019-07-09T13:22:59.000Z</time>
      </trkpt>
      <trkpt lat="43.5691831447184085845947265625" lon="-6.9422296620905399322509765625">
        <ele>27.200000762939453125</ele>
        <time>2019-07-09T13:23:04.000Z</time>
      </trkpt>
      <trkpt lat="43.5691744275391101837158203125" lon="-6.9423144869506359100341796875">
        <ele>27.6000003814697265625</ele>
        <time>2019-07-09T13:23:06.000Z</time>
      </trkpt>
      <trkpt lat="43.56920317746698856353759765625" lon="-6.94258731789886951446533203125">
        <ele>27.6000003814697265625</ele>
        <time>2019-07-09T13:23:09.000Z</time>
      </trkpt>
      <trkpt lat="43.569189012050628662109375" lon="-6.94280843250453472137451171875">
        <ele>27.3999996185302734375</ele>
        <time>2019-07-09T13:23:11.000Z</time>
      </trkpt>
      <trkpt lat="43.56900804676115512847900390625" lon="-6.94345199503004550933837890625">
        <ele>26.6000003814697265625</ele>
        <time>2019-07-09T13:23:18.000Z</time>
      </trkpt>
      <trkpt lat="43.568735383450984954833984375" lon="-6.94398625753819942474365234375">
        <ele>27.3999996185302734375</ele>
        <time>2019-07-09T13:23:24.000Z</time>
      </trkpt>
      <trkpt lat="43.56858140788972377777099609375" lon="-6.94426252506673336029052734375">
        <ele>26.799999237060546875</ele>
        <time>2019-07-09T13:23:27.000Z</time>
      </trkpt>
      <trkpt lat="43.56828468851745128631591796875" lon="-6.94483299739658832550048828125">
        <ele>27.799999237060546875</ele>
        <time>2019-07-09T13:23:35.000Z</time>
      </trkpt>
      <trkpt lat="43.56798612512648105621337890625" lon="-6.945384107530117034912109375">
        <ele>26.799999237060546875</ele>
        <time>2019-07-09T13:23:41.000Z</time>
      </trkpt>
      <trkpt lat="43.567687310278415679931640625" lon="-6.9459337927401065826416015625">
        <ele>26.3999996185302734375</ele>
        <time>2019-07-09T13:23:46.000Z</time>
      </trkpt>
      <trkpt lat="43.56757759116590023040771484375" lon="-6.9461373053491115570068359375">
        <ele>26</ele>
        <time>2019-07-09T13:23:48.000Z</time>
      </trkpt>
      <trkpt lat="43.5673461668193340301513671875" lon="-6.9465507008135318756103515625">
        <ele>27.200000762939453125</ele>
        <time>2019-07-09T13:23:54.000Z</time>
      </trkpt>
      <trkpt lat="43.56700443662703037261962890625" lon="-6.94696870632469654083251953125">
        <ele>28</ele>
        <time>2019-07-09T13:24:03.000Z</time>
      </trkpt>
      <trkpt lat="43.5667681507766246795654296875" lon="-6.9470916688442230224609375">
        <ele>27.6000003814697265625</ele>
        <time>2019-07-09T13:24:09.000Z</time>
      </trkpt>
      <trkpt lat="43.56671878136694431304931640625" lon="-6.94703190587460994720458984375">
        <ele>27.6000003814697265625</ele>
        <time>2019-07-09T13:24:12.000Z</time>
      </trkpt>
      <trkpt lat="43.56678181327879428863525390625" lon="-6.9471535272896289825439453125">
        <ele>28.200000762939453125</ele>
        <time>2019-07-09T13:25:05.000Z</time>
      </trkpt>
      <trkpt lat="43.56676454655826091766357421875" lon="-6.9470487534999847412109375">
        <ele>27.799999237060546875</ele>
        <time>2019-07-09T13:26:49.000Z</time>
      </trkpt>
      <trkpt lat="43.56675851158797740936279296875" lon="-6.9470167346298694610595703125">
        <ele>27.799999237060546875</ele>
        <time>2019-07-09T13:27:14.000Z</time>
      </trkpt>
      <trkpt lat="43.5527646727859973907470703125" lon="-6.95207848213613033294677734375">
        <ele>26.3999996185302734375</ele>
        <time>2019-07-09T13:30:03.000Z</time>
      </trkpt>
      <trkpt lat="43.55269267223775386810302734375" lon="-6.95230387151241302490234375">
        <ele>27.3999996185302734375</ele>
        <time>2019-07-09T13:30:04.000Z</time>
      </trkpt>
      <trkpt lat="43.5525658540427684783935546875" lon="-6.95272791199386119842529296875">
        <ele>29</ele>
        <time>2019-07-09T13:30:06.000Z</time>
      </trkpt>
      <trkpt lat="43.5524361021816730499267578125" lon="-6.95316662080585956573486328125">
        <ele>30.3999996185302734375</ele>
        <time>2019-07-09T13:30:08.000Z</time>
      </trkpt>
      <trkpt lat="43.5522939451038837432861328125" lon="-6.9536416232585906982421875">
        <ele>31.6000003814697265625</ele>
        <time>2019-07-09T13:30:10.000Z</time>
      </trkpt>
      <trkpt lat="43.55205547995865345001220703125" lon="-6.9544125907123088836669921875">
        <ele>32</ele>
        <time>2019-07-09T13:30:13.000Z</time>
      </trkpt>
      <trkpt lat="43.5517974011600017547607421875" lon="-6.9552363641560077667236328125">
        <ele>31</ele>
        <time>2019-07-09T13:30:16.000Z</time>
      </trkpt>
      <trkpt lat="43.5517119057476520538330078125" lon="-6.9555149786174297332763671875">
        <ele>29</ele>
        <time>2019-07-09T13:30:17.000Z</time>
      </trkpt>
      <trkpt lat="43.55162565596401691436767578125" lon="-6.95579116232693195343017578125">
        <ele>26.6000003814697265625</ele>
        <time>2019-07-09T13:30:18.000Z</time>
      </trkpt>
      <trkpt lat="43.5515402443706989288330078125" lon="-6.95606424473226070404052734375">
        <ele>25.6000003814697265625</ele>
        <time>2019-07-09T13:30:19.000Z</time>
      </trkpt>
      <trkpt lat="43.55145583860576152801513671875" lon="-6.95633380673825740814208984375">
        <ele>23.799999237060546875</ele>
        <time>2019-07-09T13:30:20.000Z</time>
      </trkpt>
      <trkpt lat="43.55129205621778964996337890625" lon="-6.9568560831248760223388671875">
        <ele>22.3999996185302734375</ele>
        <time>2019-07-09T13:30:22.000Z</time>
      </trkpt>
      <trkpt lat="43.55113481171429157257080078125" lon="-6.9573538005352020263671875">
        <ele>25</ele>
        <time>2019-07-09T13:30:24.000Z</time>
      </trkpt>
      <trkpt lat="43.551059626042842864990234375" lon="-6.9575940258800983428955078125">
        <ele>29.200000762939453125</ele>
        <time>2019-07-09T13:30:25.000Z</time>
      </trkpt>
      <trkpt lat="43.5509843565523624420166015625" lon="-6.95782645605504512786865234375">
        <ele>34.200000762939453125</ele>
        <time>2019-07-09T13:30:26.000Z</time>
      </trkpt>
      <trkpt lat="43.55090833269059658050537109375" lon="-6.9580536894500255584716796875">
        <ele>37</ele>
        <time>2019-07-09T13:30:27.000Z</time>
      </trkpt>
      <trkpt lat="43.55083130300045013427734375" lon="-6.95828125812113285064697265625">
        <ele>38.40000152587890625</ele>
        <time>2019-07-09T13:30:28.000Z</time>
      </trkpt>
      <trkpt lat="43.55058948509395122528076171875" lon="-6.958989612758159637451171875">
        <ele>35.200000762939453125</ele>
        <time>2019-07-09T13:30:31.000Z</time>
      </trkpt>
      <trkpt lat="43.550502397119998931884765625" lon="-6.9592375494539737701416015625">
        <ele>31.799999237060546875</ele>
        <time>2019-07-09T13:30:32.000Z</time>
      </trkpt>
      <trkpt lat="43.55041279457509517669677734375" lon="-6.959493868052959442138671875">
        <ele>28.6000003814697265625</ele>
        <time>2019-07-09T13:30:33.000Z</time>
      </trkpt>
      <trkpt lat="43.55031975544989109039306640625" lon="-6.95975697599351406097412109375">
        <ele>26.6000003814697265625</ele>
        <time>2019-07-09T13:30:34.000Z</time>
      </trkpt>
      <trkpt lat="43.550223447382450103759765625" lon="-6.96002586744725704193115234375">
        <ele>25.3999996185302734375</ele>
        <time>2019-07-09T13:30:35.000Z</time>
      </trkpt>
      <trkpt lat="43.55003057979047298431396484375" lon="-6.960573457181453704833984375">
        <ele>24</ele>
        <time>2019-07-09T13:30:37.000Z</time>
      </trkpt>
      <trkpt lat="43.549833856523036956787109375" lon="-6.96112431585788726806640625">
        <ele>26.3999996185302734375</ele>
        <time>2019-07-09T13:30:39.000Z</time>
      </trkpt>
      <trkpt lat="43.54973553679883480072021484375" lon="-6.9613985717296600341796875">
        <ele>28.200000762939453125</ele>
        <time>2019-07-09T13:30:40.000Z</time>
      </trkpt>
      <trkpt lat="43.54954040609300136566162109375" lon="-6.9619368575513362884521484375">
        <ele>29.6000003814697265625</ele>
        <time>2019-07-09T13:30:42.000Z</time>
      </trkpt>
      <trkpt lat="43.54944619350135326385498046875" lon="-6.96219946257770061492919921875">
        <ele>31.200000762939453125</ele>
        <time>2019-07-09T13:30:43.000Z</time>
      </trkpt>
      <trkpt lat="43.549354076385498046875" lon="-6.9624612294137477874755859375">
        <ele>29.799999237060546875</ele>
        <time>2019-07-09T13:30:44.000Z</time>
      </trkpt>
      <trkpt lat="43.54926229454576969146728515625" lon="-6.962721906602382659912109375">
        <ele>27.3999996185302734375</ele>
        <time>2019-07-09T13:30:45.000Z</time>
      </trkpt>
      <trkpt lat="43.5491708479821681976318359375" lon="-6.96298115886747837066650390625">
        <ele>26.200000762939453125</ele>
        <time>2019-07-09T13:30:46.000Z</time>
      </trkpt>
      <trkpt lat="43.5489048063755035400390625" lon="-6.96376151405274868011474609375">
        <ele>27.200000762939453125</ele>
        <time>2019-07-09T13:30:49.000Z</time>
      </trkpt>
      <trkpt lat="43.548739850521087646484375" lon="-6.96428890340030193328857421875">
        <ele>27.3999996185302734375</ele>
        <time>2019-07-09T13:30:51.000Z</time>
      </trkpt>
      <trkpt lat="43.548664413392543792724609375" lon="-6.96454304270446300506591796875">
        <ele>28.799999237060546875</ele>
        <time>2019-07-09T13:30:52.000Z</time>
      </trkpt>
      <trkpt lat="43.54847188107669353485107421875" lon="-6.9652406685054302215576171875">
        <ele>29</ele>
        <time>2019-07-09T13:30:55.000Z</time>
      </trkpt>
      <trkpt lat="43.54841329157352447509765625" lon="-6.9654599390923976898193359375">
        <ele>29.799999237060546875</ele>
        <time>2019-07-09T13:30:56.000Z</time>
      </trkpt>
      <trkpt lat="43.54829871095716953277587890625" lon="-6.965879537165164947509765625">
        <ele>31.3999996185302734375</ele>
        <time>2019-07-09T13:30:58.000Z</time>
      </trkpt>
      <trkpt lat="43.54819159023463726043701171875" lon="-6.9662692956626415252685546875">
        <ele>32.799999237060546875</ele>
        <time>2019-07-09T13:31:00.000Z</time>
      </trkpt>
      <trkpt lat="43.548087738454341888427734375" lon="-6.96664170362055301666259765625">
        <ele>34.59999847412109375</ele>
        <time>2019-07-09T13:31:02.000Z</time>
      </trkpt>
      <trkpt lat="43.54791440069675445556640625" lon="-6.96717730723321437835693359375">
        <ele>35.59999847412109375</ele>
        <time>2019-07-09T13:31:05.000Z</time>
      </trkpt>
      <trkpt lat="43.547603599727153778076171875" lon="-6.9678534753620624542236328125">
        <ele>34.200000762939453125</ele>
        <time>2019-07-09T13:31:09.000Z</time>
      </trkpt>
      <trkpt lat="43.54740285314619541168212890625" lon="-6.96815966628491878509521484375">
        <ele>33.200000762939453125</ele>
        <time>2019-07-09T13:31:11.000Z</time>
      </trkpt>
      <trkpt lat="43.5470542497932910919189453125" lon="-6.96858890354633331298828125">
        <ele>31.6000003814697265625</ele>
        <time>2019-07-09T13:31:14.000Z</time>
      </trkpt>
      <trkpt lat="43.54679851792752742767333984375" lon="-6.96886559017002582550048828125">
        <ele>30.200000762939453125</ele>
        <time>2019-07-09T13:31:16.000Z</time>
      </trkpt>
      <trkpt lat="43.546669185161590576171875" lon="-6.9690061546862125396728515625">
        <ele>29</ele>
        <time>2019-07-09T13:31:17.000Z</time>
      </trkpt>
      <trkpt lat="43.54654169641435146331787109375" lon="-6.969151161611080169677734375">
        <ele>27.799999237060546875</ele>
        <time>2019-07-09T13:31:18.000Z</time>
      </trkpt>
      <trkpt lat="43.546422421932220458984375" lon="-6.9693079032003879547119140625">
        <ele>26.200000762939453125</ele>
        <time>2019-07-09T13:31:19.000Z</time>
      </trkpt>
      <trkpt lat="43.5463111102581024169921875" lon="-6.9694773852825164794921875">
        <ele>24.799999237060546875</ele>
        <time>2019-07-09T13:31:20.000Z</time>
      </trkpt>
      <trkpt lat="43.54621119797229766845703125" lon="-6.969656758010387420654296875">
        <ele>23.799999237060546875</ele>
        <time>2019-07-09T13:31:21.000Z</time>
      </trkpt>
      <trkpt lat="43.54612729512155055999755859375" lon="-6.96984979324042797088623046875">
        <ele>23</ele>
        <time>2019-07-09T13:31:22.000Z</time>
      </trkpt>
      <trkpt lat="43.5460604913532733917236328125" lon="-6.97005607187747955322265625">
        <ele>22.200000762939453125</ele>
        <time>2019-07-09T13:31:23.000Z</time>
      </trkpt>
      <trkpt lat="43.54597206227481365203857421875" lon="-6.970500312745571136474609375">
        <ele>21</ele>
        <time>2019-07-09T13:31:25.000Z</time>
      </trkpt>
      <trkpt lat="43.54594892822206020355224609375" lon="-6.97099157609045505523681640625">
        <ele>20.3999996185302734375</ele>
        <time>2019-07-09T13:31:27.000Z</time>
      </trkpt>
      <trkpt lat="43.54600374586880207061767578125" lon="-6.9717356376349925994873046875">
        <ele>21.6000003814697265625</ele>
        <time>2019-07-09T13:31:30.000Z</time>
      </trkpt>
      <trkpt lat="43.54602687992155551910400390625" lon="-6.97197041474282741546630859375">
        <ele>23.200000762939453125</ele>
        <time>2019-07-09T13:31:31.000Z</time>
      </trkpt>
      <trkpt lat="43.54605068452656269073486328125" lon="-6.9722023420035839080810546875">
        <ele>24.799999237060546875</ele>
        <time>2019-07-09T13:31:32.000Z</time>
      </trkpt>
      <trkpt lat="43.546100556850433349609375" lon="-6.972668208181858062744140625">
        <ele>26.799999237060546875</ele>
        <time>2019-07-09T13:31:34.000Z</time>
      </trkpt>
      <trkpt lat="43.5461716353893280029296875" lon="-6.9733865372836589813232421875">
        <ele>27.799999237060546875</ele>
        <time>2019-07-09T13:31:37.000Z</time>
      </trkpt>
      <trkpt lat="43.546186722815036773681640625" lon="-6.97363455779850482940673828125">
        <ele>28.200000762939453125</ele>
        <time>2019-07-09T13:31:38.000Z</time>
      </trkpt>
      <trkpt lat="43.54615964926779270172119140625" lon="-6.9743896834552288055419921875">
        <ele>29.200000762939453125</ele>
        <time>2019-07-09T13:31:41.000Z</time>
      </trkpt>
      <trkpt lat="43.54605554603040218353271484375" lon="-6.97487273253500461578369140625">
        <ele>31.3999996185302734375</ele>
        <time>2019-07-09T13:31:43.000Z</time>
      </trkpt>
      <trkpt lat="43.54588396847248077392578125" lon="-6.9753093458712100982666015625">
        <ele>31.799999237060546875</ele>
        <time>2019-07-09T13:31:45.000Z</time>
      </trkpt>
      <trkpt lat="43.545518182218074798583984375" lon="-6.97587001137435436248779296875">
        <ele>31</ele>
        <time>2019-07-09T13:31:48.000Z</time>
      </trkpt>
      <trkpt lat="43.5450395755469799041748046875" lon="-6.9763081334531307220458984375">
        <ele>30.6000003814697265625</ele>
        <time>2019-07-09T13:31:51.000Z</time>
      </trkpt>
      <trkpt lat="43.5447066463530063629150390625" lon="-6.976582892239093780517578125">
        <ele>29.799999237060546875</ele>
        <time>2019-07-09T13:31:53.000Z</time>
      </trkpt>
      <trkpt lat="43.54423834942281246185302734375" lon="-6.9770477525889873504638671875">
        <ele>28.799999237060546875</ele>
        <time>2019-07-09T13:31:56.000Z</time>
      </trkpt>
      <trkpt lat="43.54396677576005458831787109375" lon="-6.97742301039397716522216796875">
        <ele>27.3999996185302734375</ele>
        <time>2019-07-09T13:31:58.000Z</time>
      </trkpt>
      <trkpt lat="43.54373493231832981109619140625" lon="-6.97785031981766223907470703125">
        <ele>26</ele>
        <time>2019-07-09T13:32:00.000Z</time>
      </trkpt>
      <trkpt lat="43.543479032814502716064453125" lon="-6.9785809703171253204345703125">
        <ele>25</ele>
        <time>2019-07-09T13:32:03.000Z</time>
      </trkpt>
      <trkpt lat="43.54333779774606227874755859375" lon="-6.97936660610139369964599609375">
        <ele>26</ele>
        <time>2019-07-09T13:32:06.000Z</time>
      </trkpt>
      <trkpt lat="43.54330946691334247589111328125" lon="-6.9796186499297618865966796875">
        <ele>27.200000762939453125</ele>
        <time>2019-07-09T13:32:07.000Z</time>
      </trkpt>
      <trkpt lat="43.54328298009932041168212890625" lon="-6.97986625134944915771484375">
        <ele>29.200000762939453125</ele>
        <time>2019-07-09T13:32:08.000Z</time>
      </trkpt>
      <trkpt lat="43.54325800202786922454833984375" lon="-6.98011301457881927490234375">
        <ele>31.799999237060546875</ele>
        <time>2019-07-09T13:32:09.000Z</time>
      </trkpt>
      <trkpt lat="43.5432334430515766143798828125" lon="-6.98035868816077709197998046875">
        <ele>33.40000152587890625</ele>
        <time>2019-07-09T13:32:10.000Z</time>
      </trkpt>
      <trkpt lat="43.543208800256252288818359375" lon="-6.98059841059148311614990234375">
        <ele>34.59999847412109375</ele>
        <time>2019-07-09T13:32:11.000Z</time>
      </trkpt>
      <trkpt lat="43.54313881136476993560791015625" lon="-6.9812303222715854644775390625">
        <ele>36.200000762939453125</ele>
        <time>2019-07-09T13:32:14.000Z</time>
      </trkpt>
      <trkpt lat="43.5431036911904811859130859375" lon="-6.98155327700078487396240234375">
        <ele>37.40000152587890625</ele>
        <time>2019-07-09T13:32:16.000Z</time>
      </trkpt>
      <trkpt lat="43.54308231733739376068115234375" lon="-6.981817223131656646728515625">
        <ele>39</ele>
        <time>2019-07-09T13:32:18.000Z</time>
      </trkpt>
      <trkpt lat="43.543073348701000213623046875" lon="-6.981935910880565643310546875">
        <ele>40</ele>
        <time>2019-07-09T13:32:19.000Z</time>
      </trkpt>
      <trkpt lat="43.54305717162787914276123046875" lon="-6.98205233551561832427978515625">
        <ele>41</ele>
        <time>2019-07-09T13:32:20.000Z</time>
      </trkpt>
      <trkpt lat="43.5430039465427398681640625" lon="-6.98230706155300140380859375">
        <ele>42.40000152587890625</ele>
        <time>2019-07-09T13:32:22.000Z</time>
      </trkpt>
      <trkpt lat="43.5428537428379058837890625" lon="-6.9829288311302661895751953125">
        <ele>42.799999237060546875</ele>
        <time>2019-07-09T13:32:26.000Z</time>
      </trkpt>
      <trkpt lat="43.5426312871277332305908203125" lon="-6.9836218468844890594482421875">
        <ele>42</ele>
        <time>2019-07-09T13:32:30.000Z</time>
      </trkpt>
      <trkpt lat="43.542450405657291412353515625" lon="-6.9841529242694377899169921875">
        <ele>41.200000762939453125</ele>
        <time>2019-07-09T13:32:33.000Z</time>
      </trkpt>
      <trkpt lat="43.54220422916114330291748046875" lon="-6.98486446402966976165771484375">
        <ele>40.40000152587890625</ele>
        <time>2019-07-09T13:32:37.000Z</time>
      </trkpt>
      <trkpt lat="43.54214522056281566619873046875" lon="-6.9850393943488597869873046875">
        <ele>40.200000762939453125</ele>
        <time>2019-07-09T13:32:38.000Z</time>
      </trkpt>
      <trkpt lat="43.54198646731674671173095703125" lon="-6.98549763299524784088134765625">
        <ele>38.59999847412109375</ele>
        <time>2019-07-09T13:32:41.000Z</time>
      </trkpt>
      <trkpt lat="43.5419235192239284515380859375" lon="-6.98572562076151371002197265625">
        <ele>38.200000762939453125</ele>
        <time>2019-07-09T13:32:43.000Z</time>
      </trkpt>
      <trkpt lat="43.54192511178553104400634765625" lon="-6.985945142805576324462890625">
        <ele>38</ele>
        <time>2019-07-09T13:32:45.000Z</time>
      </trkpt>
      <trkpt lat="43.54197070933878421783447265625" lon="-6.986167430877685546875">
        <ele>37.59999847412109375</ele>
        <time>2019-07-09T13:32:47.000Z</time>
      </trkpt>
      <trkpt lat="43.54192762635648250579833984375" lon="-6.9863754697144031524658203125">
        <ele>37.799999237060546875</ele>
        <time>2019-07-09T13:32:49.000Z</time>
      </trkpt>
      <trkpt lat="43.5418678633868694305419921875" lon="-6.98644612915813922882080078125">
        <ele>37.59999847412109375</ele>
        <time>2019-07-09T13:32:50.000Z</time>
      </trkpt>
      <trkpt lat="43.54179234243929386138916015625" lon="-6.9864810816943645477294921875">
        <ele>37.40000152587890625</ele>
        <time>2019-07-09T13:32:51.000Z</time>
      </trkpt>
      <trkpt lat="43.54163576848804950714111328125" lon="-6.986442692577838897705078125">
        <ele>37.59999847412109375</ele>
        <time>2019-07-09T13:32:53.000Z</time>
      </trkpt>
      <trkpt lat="43.54152680374681949615478515625" lon="-6.9862758927047252655029296875">
        <ele>37.799999237060546875</ele>
        <time>2019-07-09T13:32:55.000Z</time>
      </trkpt>
      <trkpt lat="43.541437871754169464111328125" lon="-6.9860650040209293365478515625">
        <ele>38</ele>
        <time>2019-07-09T13:32:57.000Z</time>
      </trkpt>
      <trkpt lat="43.54129194281995296478271484375" lon="-6.985921673476696014404296875">
        <ele>39</ele>
        <time>2019-07-09T13:32:59.000Z</time>
      </trkpt>
      <trkpt lat="43.5411339439451694488525390625" lon="-6.9858688674867153167724609375">
        <ele>39.40000152587890625</ele>
        <time>2019-07-09T13:33:01.000Z</time>
      </trkpt>
      <trkpt lat="43.5409706644713878631591796875" lon="-6.9859077595174312591552734375">
        <ele>40</ele>
        <time>2019-07-09T13:33:03.000Z</time>
      </trkpt>
      <trkpt lat="43.54082993231713771820068359375" lon="-6.9860723800957202911376953125">
        <ele>40.40000152587890625</ele>
        <time>2019-07-09T13:33:05.000Z</time>
      </trkpt>
      <trkpt lat="43.54074426926672458648681640625" lon="-6.9863600470125675201416015625">
        <ele>40.200000762939453125</ele>
        <time>2019-07-09T13:33:07.000Z</time>
      </trkpt>
      <trkpt lat="43.540691547095775604248046875" lon="-6.98696681298315525054931640625">
        <ele>38.59999847412109375</ele>
        <time>2019-07-09T13:33:10.000Z</time>
      </trkpt>
      <trkpt lat="43.5406702570617198944091796875" lon="-6.9871942140161991119384765625">
        <ele>37</ele>
        <time>2019-07-09T13:33:11.000Z</time>
      </trkpt>
      <trkpt lat="43.54064821265637874603271484375" lon="-6.987429745495319366455078125">
        <ele>35.200000762939453125</ele>
        <time>2019-07-09T13:33:12.000Z</time>
      </trkpt>
      <trkpt lat="43.54062776081264019012451171875" lon="-6.98766938410699367523193359375">
        <ele>33.200000762939453125</ele>
        <time>2019-07-09T13:33:13.000Z</time>
      </trkpt>
      <trkpt lat="43.5406082309782505035400390625" lon="-6.98791095055639743804931640625">
        <ele>31.799999237060546875</ele>
        <time>2019-07-09T13:33:14.000Z</time>
      </trkpt>
      <trkpt lat="43.54056724347174167633056640625" lon="-6.9883965142071247100830078125">
        <ele>30.6000003814697265625</ele>
        <time>2019-07-09T13:33:16.000Z</time>
      </trkpt>
      <trkpt lat="43.540516532957553863525390625" lon="-6.9891585968434810638427734375">
        <ele>29.6000003814697265625</ele>
        <time>2019-07-09T13:33:19.000Z</time>
      </trkpt>
      <trkpt lat="43.54049205780029296875" lon="-6.9899337552487850189208984375">
        <ele>30.6000003814697265625</ele>
        <time>2019-07-09T13:33:22.000Z</time>
      </trkpt>
      <trkpt lat="43.5404825024306774139404296875" lon="-6.990202479064464569091796875">
        <ele>32.40000152587890625</ele>
        <time>2019-07-09T13:33:23.000Z</time>
      </trkpt>
      <trkpt lat="43.5404694266617298126220703125" lon="-6.99047950096428394317626953125">
        <ele>34.799999237060546875</ele>
        <time>2019-07-09T13:33:24.000Z</time>
      </trkpt>
      <trkpt lat="43.540454842150211334228515625" lon="-6.990763731300830841064453125">
        <ele>38</ele>
        <time>2019-07-09T13:33:25.000Z</time>
      </trkpt>
      <trkpt lat="43.5404405929148197174072265625" lon="-6.99105533771216869354248046875">
        <ele>40.59999847412109375</ele>
        <time>2019-07-09T13:33:26.000Z</time>
      </trkpt>
      <trkpt lat="43.54042793624103069305419921875" lon="-6.99135658331215381622314453125">
        <ele>42.59999847412109375</ele>
        <time>2019-07-09T13:33:27.000Z</time>
      </trkpt>
      <trkpt lat="43.5404181294143199920654296875" lon="-6.9916651211678981781005859375">
        <ele>44.40000152587890625</ele>
        <time>2019-07-09T13:33:28.000Z</time>
      </trkpt>
      <trkpt lat="43.5404137708246707916259765625" lon="-6.9923008047044277191162109375">
        <ele>45.59999847412109375</ele>
        <time>2019-07-09T13:33:30.000Z</time>
      </trkpt>
      <trkpt lat="43.5404476337134838104248046875" lon="-6.992936991155147552490234375">
        <ele>45.799999237060546875</ele>
        <time>2019-07-09T13:33:32.000Z</time>
      </trkpt>
      <trkpt lat="43.54051393456757068634033203125" lon="-6.99357778765261173248291015625">
        <ele>46.59999847412109375</ele>
        <time>2019-07-09T13:33:34.000Z</time>
      </trkpt>
      <trkpt lat="43.540556095540523529052734375" lon="-6.99390199966728687286376953125">
        <ele>47.40000152587890625</ele>
        <time>2019-07-09T13:33:35.000Z</time>
      </trkpt>
      <trkpt lat="43.540673442184925079345703125" lon="-6.9945384375751018524169921875">
        <ele>48</ele>
        <time>2019-07-09T13:33:37.000Z</time>
      </trkpt>
      <trkpt lat="43.54082741774618625640869140625" lon="-6.9951573573052883148193359375">
        <ele>40.200000762939453125</ele>
        <time>2019-07-09T13:33:39.000Z</time>
      </trkpt>
      <trkpt lat="43.54091727174818515777587890625" lon="-6.99546153657138347625732421875">
        <ele>34.799999237060546875</ele>
        <time>2019-07-09T13:33:40.000Z</time>
      </trkpt>
      <trkpt lat="43.54101936332881450653076171875" lon="-6.995762698352336883544921875">
        <ele>31</ele>
        <time>2019-07-09T13:33:41.000Z</time>
      </trkpt>
      <trkpt lat="43.54113184846937656402587890625" lon="-6.99606218375265598297119140625">
        <ele>25.6000003814697265625</ele>
        <time>2019-07-09T13:33:42.000Z</time>
      </trkpt>
      <trkpt lat="43.5412516258656978607177734375" lon="-6.99635806493461132049560546875">
        <ele>23.799999237060546875</ele>
        <time>2019-07-09T13:33:43.000Z</time>
      </trkpt>
      <trkpt lat="43.54151196777820587158203125" lon="-6.9969383440911769866943359375">
        <ele>21.3999996185302734375</ele>
        <time>2019-07-09T13:33:45.000Z</time>
      </trkpt>
      <trkpt lat="43.54165169410407543182373046875" lon="-6.99722358025610446929931640625">
        <ele>22.799999237060546875</ele>
        <time>2019-07-09T13:33:46.000Z</time>
      </trkpt>
      <trkpt lat="43.54179703630506992340087890625" lon="-6.99750688858330249786376953125">
        <ele>20.6000003814697265625</ele>
        <time>2019-07-09T13:33:47.000Z</time>
      </trkpt>
      <trkpt lat="43.54194707237184047698974609375" lon="-6.99779120273888111114501953125">
        <ele>19.3999996185302734375</ele>
        <time>2019-07-09T13:33:48.000Z</time>
      </trkpt>
      <trkpt lat="43.54225234128534793853759765625" lon="-6.99837005697190761566162109375">
        <ele>20.3999996185302734375</ele>
        <time>2019-07-09T13:33:50.000Z</time>
      </trkpt>
      <trkpt lat="43.54255610145628452301025390625" lon="-6.99897137470543384552001953125">
        <ele>22.3999996185302734375</ele>
        <time>2019-07-09T13:33:52.000Z</time>
      </trkpt>
      <trkpt lat="43.54285583831369876861572265625" lon="-6.99959079734981060028076171875">
        <ele>23</ele>
        <time>2019-07-09T13:33:54.000Z</time>
      </trkpt>
      <trkpt lat="43.543139062821865081787109375" lon="-7.00022731907665729522705078125">
        <ele>23.3999996185302734375</ele>
        <time>2019-07-09T13:33:56.000Z</time>
      </trkpt>
      <trkpt lat="43.54339781217277050018310546875" lon="-7.00088060460984706878662109375">
        <ele>22.6000003814697265625</ele>
        <time>2019-07-09T13:33:58.000Z</time>
      </trkpt>
      <trkpt lat="43.5436371155083179473876953125" lon="-7.00154260732233524322509765625">
        <ele>22.799999237060546875</ele>
        <time>2019-07-09T13:34:00.000Z</time>
      </trkpt>
      <trkpt lat="43.54385814629495143890380859375" lon="-7.002213411033153533935546875">
        <ele>22.799999237060546875</ele>
        <time>2019-07-09T13:34:02.000Z</time>
      </trkpt>
      <trkpt lat="43.544065095484256744384765625" lon="-7.00289159081876277923583984375">
        <ele>23.3999996185302734375</ele>
        <time>2019-07-09T13:34:04.000Z</time>
      </trkpt>
      <trkpt lat="43.54425427503883838653564453125" lon="-7.00358091853559017181396484375">
        <ele>23.200000762939453125</ele>
        <time>2019-07-09T13:34:06.000Z</time>
      </trkpt>
      <trkpt lat="43.54442727752029895782470703125" lon="-7.00428030453622341156005859375">
        <ele>22.3999996185302734375</ele>
        <time>2019-07-09T13:34:08.000Z</time>
      </trkpt>
      <trkpt lat="43.54450824670493602752685546875" lon="-7.00463217683136463165283203125">
        <ele>21</ele>
        <time>2019-07-09T13:34:09.000Z</time>
      </trkpt>
      <trkpt lat="43.54458385147154331207275390625" lon="-7.0049856416881084442138671875">
        <ele>18.3999996185302734375</ele>
        <time>2019-07-09T13:34:10.000Z</time>
      </trkpt>
      <trkpt lat="43.5446526668965816497802734375" lon="-7.00534162111580371856689453125">
        <ele>14.3999996185302734375</ele>
        <time>2019-07-09T13:34:11.000Z</time>
      </trkpt>
      <trkpt lat="43.54471729137003421783447265625" lon="-7.00569936074316501617431640625">
        <ele>10.80000019073486328125</ele>
        <time>2019-07-09T13:34:12.000Z</time>
      </trkpt>
      <trkpt lat="43.5447783954441547393798828125" lon="-7.00605760328471660614013671875">
        <ele>9.19999980926513671875</ele>
        <time>2019-07-09T13:34:13.000Z</time>
      </trkpt>
      <trkpt lat="43.54489515535533428192138671875" lon="-7.00677417218685150146484375">
        <ele>9</ele>
        <time>2019-07-09T13:34:15.000Z</time>
      </trkpt>
      <trkpt lat="43.54494796134531497955322265625" lon="-7.00713417492806911468505859375">
        <ele>10.3999996185302734375</ele>
        <time>2019-07-09T13:34:16.000Z</time>
      </trkpt>
      <trkpt lat="43.54499640874564647674560546875" lon="-7.00749660842120647430419921875">
        <ele>11.6000003814697265625</ele>
        <time>2019-07-09T13:34:17.000Z</time>
      </trkpt>
      <trkpt lat="43.54507721029222011566162109375" lon="-7.0082291029393672943115234375">
        <ele>12.6000003814697265625</ele>
        <time>2019-07-09T13:34:19.000Z</time>
      </trkpt>
      <trkpt lat="43.54513923637568950653076171875" lon="-7.00897492468357086181640625">
        <ele>10.19999980926513671875</ele>
        <time>2019-07-09T13:34:21.000Z</time>
      </trkpt>
      <trkpt lat="43.5451636277139186859130859375" lon="-7.0093529485166072845458984375">
        <ele>8.19999980926513671875</ele>
        <time>2019-07-09T13:34:22.000Z</time>
      </trkpt>
      <trkpt lat="43.5451840795576572418212890625" lon="-7.00973373837769031524658203125">
        <ele>7.19999980926513671875</ele>
        <time>2019-07-09T13:34:23.000Z</time>
      </trkpt>
      <trkpt lat="43.545209728181362152099609375" lon="-7.010503113269805908203125">
        <ele>7</ele>
        <time>2019-07-09T13:34:25.000Z</time>
      </trkpt>
      <trkpt lat="43.54521836154162883758544921875" lon="-7.01127818785607814788818359375">
        <ele>8</ele>
        <time>2019-07-09T13:34:27.000Z</time>
      </trkpt>
      <trkpt lat="43.54521048255264759063720703125" lon="-7.01205150224268436431884765625">
        <ele>7</ele>
        <time>2019-07-09T13:34:29.000Z</time>
      </trkpt>
      <trkpt lat="43.54519807733595371246337890625" lon="-7.01243338175117969512939453125">
        <ele>5.19999980926513671875</ele>
        <time>2019-07-09T13:34:30.000Z</time>
      </trkpt>
      <trkpt lat="43.5451559163630008697509765625" lon="-7.01318255625665187835693359375">
        <ele>4.19999980926513671875</ele>
        <time>2019-07-09T13:34:32.000Z</time>
      </trkpt>
      <trkpt lat="43.54509497992694377899169921875" lon="-7.013918571174144744873046875">
        <ele>7</ele>
        <time>2019-07-09T13:34:34.000Z</time>
      </trkpt>
      <trkpt lat="43.54505977593362331390380859375" lon="-7.0142808370292186737060546875">
        <ele>10.19999980926513671875</ele>
        <time>2019-07-09T13:34:35.000Z</time>
      </trkpt>
      <trkpt lat="43.54502205736935138702392578125" lon="-7.01464016921818256378173828125">
        <ele>12.3999996185302734375</ele>
        <time>2019-07-09T13:34:36.000Z</time>
      </trkpt>
      <trkpt lat="43.54498006403446197509765625" lon="-7.014997489750385284423828125">
        <ele>14.19999980926513671875</ele>
        <time>2019-07-09T13:34:37.000Z</time>
      </trkpt>
      <trkpt lat="43.54493371210992336273193359375" lon="-7.0153510384261608123779296875">
        <ele>15.6000003814697265625</ele>
        <time>2019-07-09T13:34:38.000Z</time>
      </trkpt>
      <trkpt lat="43.54482826776802539825439453125" lon="-7.0160497538745403289794921875">
        <ele>16.799999237060546875</ele>
        <time>2019-07-09T13:34:40.000Z</time>
      </trkpt>
      <trkpt lat="43.5447116754949092864990234375" lon="-7.016742266714572906494140625">
        <ele>17</ele>
        <time>2019-07-09T13:34:42.000Z</time>
      </trkpt>
      <trkpt lat="43.544584102928638458251953125" lon="-7.01741659082472324371337890625">
        <ele>18.200000762939453125</ele>
        <time>2019-07-09T13:34:44.000Z</time>
      </trkpt>
      <trkpt lat="43.54444789700210094451904296875" lon="-7.01807054691016674041748046875">
        <ele>19.200000762939453125</ele>
        <time>2019-07-09T13:34:46.000Z</time>
      </trkpt>
      <trkpt lat="43.5443740524351596832275390625" lon="-7.0183953456580638885498046875">
        <ele>19.6000003814697265625</ele>
        <time>2019-07-09T13:34:47.000Z</time>
      </trkpt>
      <trkpt lat="43.54421236552298069000244140625" lon="-7.01905424706637859344482421875">
        <ele>20.200000762939453125</ele>
        <time>2019-07-09T13:34:49.000Z</time>
      </trkpt>
      <trkpt lat="43.544044308364391326904296875" lon="-7.01973284594714641571044921875">
        <ele>20.3999996185302734375</ele>
        <time>2019-07-09T13:34:51.000Z</time>
      </trkpt>
      <trkpt lat="43.543882705271244049072265625" lon="-7.02042301185429096221923828125">
        <ele>19</ele>
        <time>2019-07-09T13:34:53.000Z</time>
      </trkpt>
      <trkpt lat="43.5438057594001293182373046875" lon="-7.0207707770168781280517578125">
        <ele>17</ele>
        <time>2019-07-09T13:34:54.000Z</time>
      </trkpt>
      <trkpt lat="43.5436595790088176727294921875" lon="-7.0214704982936382293701171875">
        <ele>13.6000003814697265625</ele>
        <time>2019-07-09T13:34:56.000Z</time>
      </trkpt>
      <trkpt lat="43.543589673936367034912109375" lon="-7.021819017827510833740234375">
        <ele>12.3999996185302734375</ele>
        <time>2019-07-09T13:34:57.000Z</time>
      </trkpt>
      <trkpt lat="43.5434624366462230682373046875" lon="-7.0225168950855731964111328125">
        <ele>14</ele>
        <time>2019-07-09T13:34:59.000Z</time>
      </trkpt>
      <trkpt lat="43.54340703226625919342041015625" lon="-7.02286801300942897796630859375">
        <ele>16.200000762939453125</ele>
        <time>2019-07-09T13:35:00.000Z</time>
      </trkpt>
      <trkpt lat="43.5433568246662616729736328125" lon="-7.02322139404714107513427734375">
        <ele>17.200000762939453125</ele>
        <time>2019-07-09T13:35:01.000Z</time>
      </trkpt>
      <trkpt lat="43.54327124543488025665283203125" lon="-7.02392647974193096160888671875">
        <ele>20.200000762939453125</ele>
        <time>2019-07-09T13:35:03.000Z</time>
      </trkpt>
      <trkpt lat="43.543204776942729949951171875" lon="-7.0246177352964878082275390625">
        <ele>19.3999996185302734375</ele>
        <time>2019-07-09T13:35:05.000Z</time>
      </trkpt>
      <trkpt lat="43.54315255768597126007080078125" lon="-7.02529205940663814544677734375">
        <ele>21.799999237060546875</ele>
        <time>2019-07-09T13:35:07.000Z</time>
      </trkpt>
      <trkpt lat="43.54311400093138217926025390625" lon="-7.02595959417521953582763671875">
        <ele>23.3999996185302734375</ele>
        <time>2019-07-09T13:35:09.000Z</time>
      </trkpt>
      <trkpt lat="43.54309153743088245391845703125" lon="-7.02662746421992778778076171875">
        <ele>26</ele>
        <time>2019-07-09T13:35:11.000Z</time>
      </trkpt>
      <trkpt lat="43.54307158850133419036865234375" lon="-7.0273096673190593719482421875">
        <ele>26.799999237060546875</ele>
        <time>2019-07-09T13:35:13.000Z</time>
      </trkpt>
      <trkpt lat="43.5430420003831386566162109375" lon="-7.02803813852369785308837890625">
        <ele>27</ele>
        <time>2019-07-09T13:35:15.000Z</time>
      </trkpt>
      <trkpt lat="43.54301869869232177734375" lon="-7.02878773212432861328125">
        <ele>22.799999237060546875</ele>
        <time>2019-07-09T13:35:17.000Z</time>
      </trkpt>
      <trkpt lat="43.54301073588430881500244140625" lon="-7.02916525304317474365234375">
        <ele>21.200000762939453125</ele>
        <time>2019-07-09T13:35:18.000Z</time>
      </trkpt>
      <trkpt lat="43.54300419799983501434326171875" lon="-7.02954369597136974334716796875">
        <ele>19.6000003814697265625</ele>
        <time>2019-07-09T13:35:19.000Z</time>
      </trkpt>
      <trkpt lat="43.54299782775342464447021484375" lon="-7.0302993245422840118408203125">
        <ele>18.200000762939453125</ele>
        <time>2019-07-09T13:35:21.000Z</time>
      </trkpt>
      <trkpt lat="43.54300017468631267547607421875" lon="-7.0310362614691257476806640625">
        <ele>19.200000762939453125</ele>
        <time>2019-07-09T13:35:23.000Z</time>
      </trkpt>
      <trkpt lat="43.543002940714359283447265625" lon="-7.03170941211283206939697265625">
        <ele>20</ele>
        <time>2019-07-09T13:35:25.000Z</time>
      </trkpt>
      <trkpt lat="43.54299967177212238311767578125" lon="-7.03202775679528713226318359375">
        <ele>22.200000762939453125</ele>
        <time>2019-07-09T13:35:26.000Z</time>
      </trkpt>
      <trkpt lat="43.5429940558969974517822265625" lon="-7.03235129825770854949951171875">
        <ele>24.6000003814697265625</ele>
        <time>2019-07-09T13:35:27.000Z</time>
      </trkpt>
      <trkpt lat="43.542986176908016204833984375" lon="-7.032683305442333221435546875">
        <ele>27.6000003814697265625</ele>
        <time>2019-07-09T13:35:28.000Z</time>
      </trkpt>
      <trkpt lat="43.542970083653926849365234375" lon="-7.0333657599985599517822265625">
        <ele>26.799999237060546875</ele>
        <time>2019-07-09T13:35:30.000Z</time>
      </trkpt>
      <trkpt lat="43.54296580888330936431884765625" lon="-7.03370983712375164031982421875">
        <ele>26</ele>
        <time>2019-07-09T13:35:31.000Z</time>
      </trkpt>
      <trkpt lat="43.54296430014073848724365234375" lon="-7.03438994474709033966064453125">
        <ele>24.6000003814697265625</ele>
        <time>2019-07-09T13:35:33.000Z</time>
      </trkpt>
      <trkpt lat="43.5429658927023410797119140625" lon="-7.0347286574542522430419921875">
        <ele>23.3999996185302734375</ele>
        <time>2019-07-09T13:35:34.000Z</time>
      </trkpt>
      <trkpt lat="43.54296731762588024139404296875" lon="-7.0354045741260051727294921875">
        <ele>22</ele>
        <time>2019-07-09T13:35:36.000Z</time>
      </trkpt>
      <trkpt lat="43.54296304285526275634765625" lon="-7.0360771380364894866943359375">
        <ele>21</ele>
        <time>2019-07-09T13:35:38.000Z</time>
      </trkpt>
      <trkpt lat="43.5429588519036769866943359375" lon="-7.0367037691175937652587890625">
        <ele>20.799999237060546875</ele>
        <time>2019-07-09T13:35:40.000Z</time>
      </trkpt>
      <trkpt lat="43.5429554991424083709716796875" lon="-7.0373050868511199951171875">
        <ele>23</ele>
        <time>2019-07-09T13:35:42.000Z</time>
      </trkpt>
      <trkpt lat="43.5429444350302219390869140625" lon="-7.03793196938931941986083984375">
        <ele>24.200000762939453125</ele>
        <time>2019-07-09T13:35:44.000Z</time>
      </trkpt>
      <trkpt lat="43.54292708449065685272216796875" lon="-7.03858491964638233184814453125">
        <ele>25</ele>
        <time>2019-07-09T13:35:46.000Z</time>
      </trkpt>
      <trkpt lat="43.5429192893207073211669921875" lon="-7.03925178386270999908447265625">
        <ele>24.799999237060546875</ele>
        <time>2019-07-09T13:35:48.000Z</time>
      </trkpt>
      <trkpt lat="43.5429152660071849822998046875" lon="-7.03991697169840335845947265625">
        <ele>23.200000762939453125</ele>
        <time>2019-07-09T13:35:50.000Z</time>
      </trkpt>
      <trkpt lat="43.54291467927396297454833984375" lon="-7.04024537466466426849365234375">
        <ele>21.799999237060546875</ele>
        <time>2019-07-09T13:35:51.000Z</time>
      </trkpt>
      <trkpt lat="43.5429132543504238128662109375" lon="-7.04089949838817119598388671875">
        <ele>19.3999996185302734375</ele>
        <time>2019-07-09T13:35:53.000Z</time>
      </trkpt>
      <trkpt lat="43.5429048724472522735595703125" lon="-7.04155261628329753875732421875">
        <ele>19.200000762939453125</ele>
        <time>2019-07-09T13:35:55.000Z</time>
      </trkpt>
      <trkpt lat="43.54289992712438106536865234375" lon="-7.04187892377376556396484375">
        <ele>20.6000003814697265625</ele>
        <time>2019-07-09T13:35:56.000Z</time>
      </trkpt>
      <trkpt lat="43.54288031347095966339111328125" lon="-7.0425352267920970916748046875">
        <ele>20.799999237060546875</ele>
        <time>2019-07-09T13:35:58.000Z</time>
      </trkpt>
      <trkpt lat="43.5428398288786411285400390625" lon="-7.04319898970425128936767578125">
        <ele>20</ele>
        <time>2019-07-09T13:36:00.000Z</time>
      </trkpt>
      <trkpt lat="43.54278878308832645416259765625" lon="-7.043862752616405487060546875">
        <ele>19</ele>
        <time>2019-07-09T13:36:02.000Z</time>
      </trkpt>
      <trkpt lat="43.54275559075176715850830078125" lon="-7.0441921614110469818115234375">
        <ele>16.799999237060546875</ele>
        <time>2019-07-09T13:36:03.000Z</time>
      </trkpt>
      <trkpt lat="43.54266154579818248748779296875" lon="-7.0448422618210315704345703125">
        <ele>17.799999237060546875</ele>
        <time>2019-07-09T13:36:05.000Z</time>
      </trkpt>
      <trkpt lat="43.54260228574275970458984375" lon="-7.04516219906508922576904296875">
        <ele>18.6000003814697265625</ele>
        <time>2019-07-09T13:36:06.000Z</time>
      </trkpt>
      <trkpt lat="43.54253950528800487518310546875" lon="-7.0454796217381954193115234375">
        <ele>20</ele>
        <time>2019-07-09T13:36:07.000Z</time>
      </trkpt>
      <trkpt lat="43.542401790618896484375" lon="-7.046108432114124298095703125">
        <ele>19.799999237060546875</ele>
        <time>2019-07-09T13:36:09.000Z</time>
      </trkpt>
      <trkpt lat="43.5422504134476184844970703125" lon="-7.046728692948818206787109375">
        <ele>19.200000762939453125</ele>
        <time>2019-07-09T13:36:11.000Z</time>
      </trkpt>
      <trkpt lat="43.54210113175213336944580078125" lon="-7.0473370514810085296630859375">
        <ele>19</ele>
        <time>2019-07-09T13:36:13.000Z</time>
      </trkpt>
      <trkpt lat="43.54196065105497837066650390625" lon="-7.04794012941420078277587890625">
        <ele>19.3999996185302734375</ele>
        <time>2019-07-09T13:36:15.000Z</time>
      </trkpt>
      <trkpt lat="43.541894853115081787109375" lon="-7.0482453145086765289306640625">
        <ele>20.799999237060546875</ele>
        <time>2019-07-09T13:36:16.000Z</time>
      </trkpt>
      <trkpt lat="43.541773147881031036376953125" lon="-7.04887010157108306884765625">
        <ele>22.200000762939453125</ele>
        <time>2019-07-09T13:36:18.000Z</time>
      </trkpt>
      <trkpt lat="43.54166829027235507965087890625" lon="-7.0495253987610340118408203125">
        <ele>22</ele>
        <time>2019-07-09T13:36:20.000Z</time>
      </trkpt>
      <trkpt lat="43.54162353090941905975341796875" lon="-7.04986377619206905364990234375">
        <ele>20.6000003814697265625</ele>
        <time>2019-07-09T13:36:21.000Z</time>
      </trkpt>
      <trkpt lat="43.541584052145481109619140625" lon="-7.05020844005048274993896484375">
        <ele>19.200000762939453125</ele>
        <time>2019-07-09T13:36:22.000Z</time>
      </trkpt>
      <trkpt lat="43.54152026586234569549560546875" lon="-7.05090967006981372833251953125">
        <ele>18.200000762939453125</ele>
        <time>2019-07-09T13:36:24.000Z</time>
      </trkpt>
      <trkpt lat="43.54148380458354949951171875" lon="-7.05161894671618938446044921875">
        <ele>18.200000762939453125</ele>
        <time>2019-07-09T13:36:26.000Z</time>
      </trkpt>
      <trkpt lat="43.54147232137620449066162109375" lon="-7.05232939682900905609130859375">
        <ele>18.799999237060546875</ele>
        <time>2019-07-09T13:36:28.000Z</time>
      </trkpt>
      <trkpt lat="43.5414836369454860687255859375" lon="-7.05303817056119441986083984375">
        <ele>19</ele>
        <time>2019-07-09T13:36:30.000Z</time>
      </trkpt>
      <trkpt lat="43.54151054285466670989990234375" lon="-7.05374476499855518341064453125">
        <ele>19</ele>
        <time>2019-07-09T13:36:32.000Z</time>
      </trkpt>
      <trkpt lat="43.5415433160960674285888671875" lon="-7.05444700084626674652099609375">
        <ele>19.3999996185302734375</ele>
        <time>2019-07-09T13:36:34.000Z</time>
      </trkpt>
      <trkpt lat="43.541567288339138031005859375" lon="-7.05513414926826953887939453125">
        <ele>21.799999237060546875</ele>
        <time>2019-07-09T13:36:36.000Z</time>
      </trkpt>
      <trkpt lat="43.5415755026042461395263671875" lon="-7.055473364889621734619140625">
        <ele>23.3999996185302734375</ele>
        <time>2019-07-09T13:36:37.000Z</time>
      </trkpt>
      <trkpt lat="43.54158849455416202545166015625" lon="-7.056162022054195404052734375">
        <ele>26</ele>
        <time>2019-07-09T13:36:39.000Z</time>
      </trkpt>
      <trkpt lat="43.54159620590507984161376953125" lon="-7.05651632510125637054443359375">
        <ele>27.6000003814697265625</ele>
        <time>2019-07-09T13:36:40.000Z</time>
      </trkpt>
      <trkpt lat="43.54161816649138927459716796875" lon="-7.05723465420305728912353515625">
        <ele>28</ele>
        <time>2019-07-09T13:36:42.000Z</time>
      </trkpt>
      <trkpt lat="43.541634343564510345458984375" lon="-7.05794929526746273040771484375">
        <ele>27</ele>
        <time>2019-07-09T13:36:44.000Z</time>
      </trkpt>
      <trkpt lat="43.54165420867502689361572265625" lon="-7.058648765087127685546875">
        <ele>28.3999996185302734375</ele>
        <time>2019-07-09T13:36:46.000Z</time>
      </trkpt>
      <trkpt lat="43.5416683740913867950439453125" lon="-7.0589956082403659820556640625">
        <ele>29.200000762939453125</ele>
        <time>2019-07-09T13:36:47.000Z</time>
      </trkpt>
      <trkpt lat="43.541694693267345428466796875" lon="-7.0596889592707157135009765625">
        <ele>31.799999237060546875</ele>
        <time>2019-07-09T13:36:49.000Z</time>
      </trkpt>
      <trkpt lat="43.54170802049338817596435546875" lon="-7.0600389875471591949462890625">
        <ele>33.799999237060546875</ele>
        <time>2019-07-09T13:36:50.000Z</time>
      </trkpt>
      <trkpt lat="43.54175269603729248046875" lon="-7.06074482761323451995849609375">
        <ele>34</ele>
        <time>2019-07-09T13:36:52.000Z</time>
      </trkpt>
      <trkpt lat="43.54183609597384929656982421875" lon="-7.0614531822502613067626953125">
        <ele>32</ele>
        <time>2019-07-09T13:36:54.000Z</time>
      </trkpt>
      <trkpt lat="43.54195562191307544708251953125" lon="-7.06216220743954181671142578125">
        <ele>31.3999996185302734375</ele>
        <time>2019-07-09T13:36:56.000Z</time>
      </trkpt>
      <trkpt lat="43.54211370460689067840576171875" lon="-7.06286528147757053375244140625">
        <ele>31</ele>
        <time>2019-07-09T13:36:58.000Z</time>
      </trkpt>
      <trkpt lat="43.5423092544078826904296875" lon="-7.0635496638715267181396484375">
        <ele>32.59999847412109375</ele>
        <time>2019-07-09T13:37:00.000Z</time>
      </trkpt>
      <trkpt lat="43.54241880588233470916748046875" lon="-7.06388317979872226715087890625">
        <ele>34</ele>
        <time>2019-07-09T13:37:01.000Z</time>
      </trkpt>
      <trkpt lat="43.54253648780286312103271484375" lon="-7.06420957110822200775146484375">
        <ele>35</ele>
        <time>2019-07-09T13:37:02.000Z</time>
      </trkpt>
      <trkpt lat="43.54279515333473682403564453125" lon="-7.0648344419896602630615234375">
        <ele>35.799999237060546875</ele>
        <time>2019-07-09T13:37:04.000Z</time>
      </trkpt>
      <trkpt lat="43.5430741868913173675537109375" lon="-7.06542930565774440765380859375">
        <ele>36.200000762939453125</ele>
        <time>2019-07-09T13:37:06.000Z</time>
      </trkpt>
      <trkpt lat="43.543356321752071380615234375" lon="-7.06602073274552822113037109375">
        <ele>36</ele>
        <time>2019-07-09T13:37:08.000Z</time>
      </trkpt>
      <trkpt lat="43.543494455516338348388671875" lon="-7.06631879322230815887451171875">
        <ele>34.59999847412109375</ele>
        <time>2019-07-09T13:37:09.000Z</time>
      </trkpt>
      <trkpt lat="43.54375337250530719757080078125" lon="-7.066929750144481658935546875">
        <ele>34</ele>
        <time>2019-07-09T13:37:11.000Z</time>
      </trkpt>
      <trkpt lat="43.54387390427291393280029296875" lon="-7.06724298186600208282470703125">
        <ele>32.59999847412109375</ele>
        <time>2019-07-09T13:37:12.000Z</time>
      </trkpt>
      <trkpt lat="43.54408864863216876983642578125" lon="-7.06788830459117889404296875">
        <ele>31.6000003814697265625</ele>
        <time>2019-07-09T13:37:14.000Z</time>
      </trkpt>
      <trkpt lat="43.54426550678908824920654296875" lon="-7.06855910830199718475341796875">
        <ele>31.799999237060546875</ele>
        <time>2019-07-09T13:37:16.000Z</time>
      </trkpt>
      <trkpt lat="43.5444022156298160552978515625" lon="-7.0692600868642330169677734375">
        <ele>30.3999996185302734375</ele>
        <time>2019-07-09T13:37:18.000Z</time>
      </trkpt>
      <trkpt lat="43.5444898903369903564453125" lon="-7.0699918270111083984375">
        <ele>30.3999996185302734375</ele>
        <time>2019-07-09T13:37:20.000Z</time>
      </trkpt>
      <trkpt lat="43.54451847262680530548095703125" lon="-7.0703611336648464202880859375">
        <ele>31.799999237060546875</ele>
        <time>2019-07-09T13:37:21.000Z</time>
      </trkpt>
      <trkpt lat="43.54453590698540210723876953125" lon="-7.07073144614696502685546875">
        <ele>33.40000152587890625</ele>
        <time>2019-07-09T13:37:22.000Z</time>
      </trkpt>
      <trkpt lat="43.54453909210860729217529296875" lon="-7.07147483713924884796142578125">
        <ele>34.40000152587890625</ele>
        <time>2019-07-09T13:37:24.000Z</time>
      </trkpt>
      <trkpt lat="43.54449600912630558013916015625" lon="-7.07221613265573978424072265625">
        <ele>34.200000762939453125</ele>
        <time>2019-07-09T13:37:26.000Z</time>
      </trkpt>
      <trkpt lat="43.5444022156298160552978515625" lon="-7.07295172847807407379150390625">
        <ele>34.59999847412109375</ele>
        <time>2019-07-09T13:37:28.000Z</time>
      </trkpt>
      <trkpt lat="43.5442647524178028106689453125" lon="-7.0736713148653507232666015625">
        <ele>34.40000152587890625</ele>
        <time>2019-07-09T13:37:30.000Z</time>
      </trkpt>
      <trkpt lat="43.5440902411937713623046875" lon="-7.0743656717240810394287109375">
        <ele>35</ele>
        <time>2019-07-09T13:37:32.000Z</time>
      </trkpt>
      <trkpt lat="43.54387189261615276336669921875" lon="-7.07503773272037506103515625">
        <ele>35.40000152587890625</ele>
        <time>2019-07-09T13:37:34.000Z</time>
      </trkpt>
      <trkpt lat="43.54360132478177547454833984375" lon="-7.07568389363586902618408203125">
        <ele>33.200000762939453125</ele>
        <time>2019-07-09T13:37:36.000Z</time>
      </trkpt>
      <trkpt lat="43.5434550605714321136474609375" lon="-7.07599704153835773468017578125">
        <ele>31.200000762939453125</ele>
        <time>2019-07-09T13:37:37.000Z</time>
      </trkpt>
      <trkpt lat="43.54330158792436122894287109375" lon="-7.076304070651531219482421875">
        <ele>28.3999996185302734375</ele>
        <time>2019-07-09T13:37:38.000Z</time>
      </trkpt>
      <trkpt lat="43.54313897900283336639404296875" lon="-7.0766007900238037109375">
        <ele>27.200000762939453125</ele>
        <time>2019-07-09T13:37:39.000Z</time>
      </trkpt>
      <trkpt lat="43.54278559796512126922607421875" lon="-7.07716028206050395965576171875">
        <ele>26</ele>
        <time>2019-07-09T13:37:41.000Z</time>
      </trkpt>
      <trkpt lat="43.54240405373275279998779296875" lon="-7.0776818878948688507080078125">
        <ele>27.200000762939453125</ele>
        <time>2019-07-09T13:37:43.000Z</time>
      </trkpt>
      <trkpt lat="43.54199887253344058990478515625" lon="-7.0781569741666316986083984375">
        <ele>28.799999237060546875</ele>
        <time>2019-07-09T13:37:45.000Z</time>
      </trkpt>
      <trkpt lat="43.54178513400256633758544921875" lon="-7.07837440073490142822265625">
        <ele>31.6000003814697265625</ele>
        <time>2019-07-09T13:37:46.000Z</time>
      </trkpt>
      <trkpt lat="43.541563935577869415283203125" lon="-7.07857900299131870269775390625">
        <ele>38.59999847412109375</ele>
        <time>2019-07-09T13:37:47.000Z</time>
      </trkpt>
      <trkpt lat="43.541336618363857269287109375" lon="-7.078771702945232391357421875">
        <ele>47</ele>
        <time>2019-07-09T13:37:48.000Z</time>
      </trkpt>
      <trkpt lat="43.54110301472246646881103515625" lon="-7.07894981838762760162353515625">
        <ele>54.59999847412109375</ele>
        <time>2019-07-09T13:37:49.000Z</time>
      </trkpt>
      <trkpt lat="43.54086513631045818328857421875" lon="-7.07912013866007328033447265625">
        <ele>58.40000152587890625</ele>
        <time>2019-07-09T13:37:50.000Z</time>
      </trkpt>
      <trkpt lat="43.5406296886503696441650390625" lon="-7.0792843401432037353515625">
        <ele>60.200000762939453125</ele>
        <time>2019-07-09T13:37:51.000Z</time>
      </trkpt>
      <trkpt lat="43.540164493024349212646484375" lon="-7.0795966498553752899169921875">
        <ele>59.59999847412109375</ele>
        <time>2019-07-09T13:37:53.000Z</time>
      </trkpt>
      <trkpt lat="43.5399356670677661895751953125" lon="-7.0797537267208099365234375">
        <ele>59</ele>
        <time>2019-07-09T13:37:54.000Z</time>
      </trkpt>
      <trkpt lat="43.53949151001870632171630859375" lon="-7.0800968818366527557373046875">
        <ele>58.59999847412109375</ele>
        <time>2019-07-09T13:37:56.000Z</time>
      </trkpt>
      <trkpt lat="43.53927408345043659210205078125" lon="-7.08028572611510753631591796875">
        <ele>61</ele>
        <time>2019-07-09T13:37:57.000Z</time>
      </trkpt>
      <trkpt lat="43.53906118310987949371337890625" lon="-7.0804888196289539337158203125">
        <ele>62.200000762939453125</ele>
        <time>2019-07-09T13:37:58.000Z</time>
      </trkpt>
      <trkpt lat="43.53865717537701129913330078125" lon="-7.08094320259988307952880859375">
        <ele>62.59999847412109375</ele>
        <time>2019-07-09T13:38:00.000Z</time>
      </trkpt>
      <trkpt lat="43.5382730327546596527099609375" lon="-7.0814477093517780303955078125">
        <ele>58.40000152587890625</ele>
        <time>2019-07-09T13:38:02.000Z</time>
      </trkpt>
      <trkpt lat="43.5380909778177738189697265625" lon="-7.08171869628131389617919921875">
        <ele>56.59999847412109375</ele>
        <time>2019-07-09T13:38:03.000Z</time>
      </trkpt>
      <trkpt lat="43.53775746189057826995849609375" lon="-7.08228950388729572296142578125">
        <ele>57.200000762939453125</ele>
        <time>2019-07-09T13:38:05.000Z</time>
      </trkpt>
      <trkpt lat="43.5376075096428394317626953125" lon="-7.08258815109729766845703125">
        <ele>60</ele>
        <time>2019-07-09T13:38:06.000Z</time>
      </trkpt>
      <trkpt lat="43.53746719658374786376953125" lon="-7.0828967727720737457275390625">
        <ele>63.799999237060546875</ele>
        <time>2019-07-09T13:38:07.000Z</time>
      </trkpt>
      <trkpt lat="43.53733451105654239654541015625" lon="-7.08321318961679935455322265625">
        <ele>67.8000030517578125</ele>
        <time>2019-07-09T13:38:08.000Z</time>
      </trkpt>
      <trkpt lat="43.53721146471798419952392578125" lon="-7.08353857509791851043701171875">
        <ele>69.59999847412109375</ele>
        <time>2019-07-09T13:38:09.000Z</time>
      </trkpt>
      <trkpt lat="43.53699236176908016204833984375" lon="-7.08421650342643260955810546875">
        <ele>65.40000152587890625</ele>
        <time>2019-07-09T13:38:11.000Z</time>
      </trkpt>
      <trkpt lat="43.5368992388248443603515625" lon="-7.08456753753125667572021484375">
        <ele>59.799999237060546875</ele>
        <time>2019-07-09T13:38:12.000Z</time>
      </trkpt>
      <trkpt lat="43.5368186049163341522216796875" lon="-7.08492494188249111175537109375">
        <ele>52.59999847412109375</ele>
        <time>2019-07-09T13:38:13.000Z</time>
      </trkpt>
      <trkpt lat="43.536748699843883514404296875" lon="-7.08528268150985240936279296875">
        <ele>49</ele>
        <time>2019-07-09T13:38:14.000Z</time>
      </trkpt>
      <trkpt lat="43.536691367626190185546875" lon="-7.08564209751784801483154296875">
        <ele>47.200000762939453125</ele>
        <time>2019-07-09T13:38:15.000Z</time>
      </trkpt>
      <trkpt lat="43.53660746477544307708740234375" lon="-7.08635866641998291015625">
        <ele>49</ele>
        <time>2019-07-09T13:38:17.000Z</time>
      </trkpt>
      <trkpt lat="43.5365815646946430206298828125" lon="-7.0867140591144561767578125">
        <ele>50.40000152587890625</ele>
        <time>2019-07-09T13:38:18.000Z</time>
      </trkpt>
      <trkpt lat="43.536564297974109649658203125" lon="-7.0870682783424854278564453125">
        <ele>52</ele>
        <time>2019-07-09T13:38:19.000Z</time>
      </trkpt>
      <trkpt lat="43.536553569138050079345703125" lon="-7.08742442540824413299560546875">
        <ele>53.799999237060546875</ele>
        <time>2019-07-09T13:38:20.000Z</time>
      </trkpt>
      <trkpt lat="43.53654443286359310150146484375" lon="-7.08778166212141513824462890625">
        <ele>55.40000152587890625</ele>
        <time>2019-07-09T13:38:21.000Z</time>
      </trkpt>
      <trkpt lat="43.5365329496562480926513671875" lon="-7.08814107812941074371337890625">
        <ele>57.59999847412109375</ele>
        <time>2019-07-09T13:38:22.000Z</time>
      </trkpt>
      <trkpt lat="43.5365165211260318756103515625" lon="-7.08850434981286525726318359375">
        <ele>59.799999237060546875</ele>
        <time>2019-07-09T13:38:23.000Z</time>
      </trkpt>
      <trkpt lat="43.53649347089231014251708984375" lon="-7.0888707228004932403564453125">
        <ele>61.799999237060546875</ele>
        <time>2019-07-09T13:38:24.000Z</time>
      </trkpt>
      <trkpt lat="43.5364618711173534393310546875" lon="-7.08924011327326297760009765625">
        <ele>63</ele>
        <time>2019-07-09T13:38:25.000Z</time>
      </trkpt>
      <trkpt lat="43.536366485059261322021484375" lon="-7.08998241461813449859619140625">
        <ele>64.1999969482421875</ele>
        <time>2019-07-09T13:38:27.000Z</time>
      </trkpt>
      <trkpt lat="43.5362241603434085845947265625" lon="-7.0907087065279483795166015625">
        <ele>65.1999969482421875</ele>
        <time>2019-07-09T13:38:29.000Z</time>
      </trkpt>
      <trkpt lat="43.53603397496044635772705078125" lon="-7.0913987047970294952392578125">
        <ele>67.40000152587890625</ele>
        <time>2019-07-09T13:38:31.000Z</time>
      </trkpt>
      <trkpt lat="43.5359250940382480621337890625" lon="-7.09173004142940044403076171875">
        <ele>68.8000030517578125</ele>
        <time>2019-07-09T13:38:32.000Z</time>
      </trkpt>
      <trkpt lat="43.5358077473938465118408203125" lon="-7.0920548401772975921630859375">
        <ele>70.8000030517578125</ele>
        <time>2019-07-09T13:38:33.000Z</time>
      </trkpt>
      <trkpt lat="43.53568243794143199920654296875" lon="-7.0923733524978160858154296875">
        <ele>72</ele>
        <time>2019-07-09T13:38:34.000Z</time>
      </trkpt>
      <trkpt lat="43.5354030691087245941162109375" lon="-7.09298984147608280181884765625">
        <ele>74.1999969482421875</ele>
        <time>2019-07-09T13:38:36.000Z</time>
      </trkpt>
      <trkpt lat="43.5352454893290996551513671875" lon="-7.09328421391546726226806640625">
        <ele>76</ele>
        <time>2019-07-09T13:38:37.000Z</time>
      </trkpt>
      <trkpt lat="43.53490007109940052032470703125" lon="-7.09384915418922901153564453125">
        <ele>77.8000030517578125</ele>
        <time>2019-07-09T13:38:39.000Z</time>
      </trkpt>
      <trkpt lat="43.53471432812511920928955078125" lon="-7.09412056021392345428466796875">
        <ele>78.8000030517578125</ele>
        <time>2019-07-09T13:38:40.000Z</time>
      </trkpt>
      <trkpt lat="43.534519784152507781982421875" lon="-7.0943840034306049346923828125">
        <ele>81</ele>
        <time>2019-07-09T13:38:41.000Z</time>
      </trkpt>
      <trkpt lat="43.5343171097338199615478515625" lon="-7.094638310372829437255859375">
        <ele>82.8000030517578125</ele>
        <time>2019-07-09T13:38:42.000Z</time>
      </trkpt>
      <trkpt lat="43.5341085679829120635986328125" lon="-7.094885744154453277587890625">
        <ele>84</ele>
        <time>2019-07-09T13:38:43.000Z</time>
      </trkpt>
      <trkpt lat="43.5336884669959545135498046875" lon="-7.09538069553673267364501953125">
        <ele>85.1999969482421875</ele>
        <time>2019-07-09T13:38:45.000Z</time>
      </trkpt>
      <trkpt lat="43.5332834534347057342529296875" lon="-7.09589459002017974853515625">
        <ele>85.8000030517578125</ele>
        <time>2019-07-09T13:38:47.000Z</time>
      </trkpt>
      <trkpt lat="43.5329099558293819427490234375" lon="-7.09644771181046962738037109375">
        <ele>85.40000152587890625</ele>
        <time>2019-07-09T13:38:49.000Z</time>
      </trkpt>
      <trkpt lat="43.53257761336863040924072265625" lon="-7.09704852662980556488037109375">
        <ele>85.8000030517578125</ele>
        <time>2019-07-09T13:38:51.000Z</time>
      </trkpt>
      <trkpt lat="43.532281480729579925537109375" lon="-7.0976891554892063140869140625">
        <ele>84</ele>
        <time>2019-07-09T13:38:53.000Z</time>
      </trkpt>
      <trkpt lat="43.53202055208384990692138671875" lon="-7.0983600430190563201904296875">
        <ele>83.59999847412109375</ele>
        <time>2019-07-09T13:38:55.000Z</time>
      </trkpt>
      <trkpt lat="43.53180413134396076202392578125" lon="-7.0990647934377193450927734375">
        <ele>83.59999847412109375</ele>
        <time>2019-07-09T13:38:57.000Z</time>
      </trkpt>
      <trkpt lat="43.531636409461498260498046875" lon="-7.09980189800262451171875">
        <ele>83.1999969482421875</ele>
        <time>2019-07-09T13:38:59.000Z</time>
      </trkpt>
      <trkpt lat="43.53151629678905010223388671875" lon="-7.10056699812412261962890625">
        <ele>84</ele>
        <time>2019-07-09T13:39:01.000Z</time>
      </trkpt>
      <trkpt lat="43.53147354908287525177001953125" lon="-7.10095851682126522064208984375">
        <ele>85.1999969482421875</ele>
        <time>2019-07-09T13:39:02.000Z</time>
      </trkpt>
      <trkpt lat="43.5314437933266162872314453125" lon="-7.10135498084127902984619140625">
        <ele>86.8000030517578125</ele>
        <time>2019-07-09T13:39:03.000Z</time>
      </trkpt>
      <trkpt lat="43.53142820298671722412109375" lon="-7.101755551993846893310546875">
        <ele>88.8000030517578125</ele>
        <time>2019-07-09T13:39:04.000Z</time>
      </trkpt>
      <trkpt lat="43.5314394347369670867919921875" lon="-7.10256499238312244415283203125">
        <ele>89.1999969482421875</ele>
        <time>2019-07-09T13:39:06.000Z</time>
      </trkpt>
      <trkpt lat="43.53150992654263973236083984375" lon="-7.10337870754301548004150390625">
        <ele>90</ele>
        <time>2019-07-09T13:39:08.000Z</time>
      </trkpt>
      <trkpt lat="43.53163280524313449859619140625" lon="-7.10418798029422760009765625">
        <ele>90</ele>
        <time>2019-07-09T13:39:10.000Z</time>
      </trkpt>
      <trkpt lat="43.53181184269487857818603515625" lon="-7.10498317144811153411865234375">
        <ele>89.40000152587890625</ele>
        <time>2019-07-09T13:39:12.000Z</time>
      </trkpt>
      <trkpt lat="43.5319232381880283355712890625" lon="-7.105369158089160919189453125">
        <ele>88.8000030517578125</ele>
        <time>2019-07-09T13:39:13.000Z</time>
      </trkpt>
      <trkpt lat="43.53218651376664638519287109375" lon="-7.106114141643047332763671875">
        <ele>88</ele>
        <time>2019-07-09T13:39:15.000Z</time>
      </trkpt>
      <trkpt lat="43.5324999131262302398681640625" lon="-7.10681713186204433441162109375">
        <ele>87.40000152587890625</ele>
        <time>2019-07-09T13:39:17.000Z</time>
      </trkpt>
      <trkpt lat="43.5328509472310543060302734375" lon="-7.10747544653713703155517578125">
        <ele>86.59999847412109375</ele>
        <time>2019-07-09T13:39:19.000Z</time>
      </trkpt>
      <trkpt lat="43.53320927359163761138916015625" lon="-7.10811381228268146514892578125">
        <ele>86</ele>
        <time>2019-07-09T13:39:21.000Z</time>
      </trkpt>
      <trkpt lat="43.533383868634700775146484375" lon="-7.1084401197731494903564453125">
        <ele>84.59999847412109375</ele>
        <time>2019-07-09T13:39:22.000Z</time>
      </trkpt>
      <trkpt lat="43.53355460800230503082275390625" lon="-7.10877262987196445465087890625">
        <ele>83.59999847412109375</ele>
        <time>2019-07-09T13:39:23.000Z</time>
      </trkpt>
      <trkpt lat="43.533881418406963348388671875" lon="-7.1094539947807788848876953125">
        <ele>83.40000152587890625</ele>
        <time>2019-07-09T13:39:25.000Z</time>
      </trkpt>
      <trkpt lat="43.534175120294094085693359375" lon="-7.1101584099233150482177734375">
        <ele>84</ele>
        <time>2019-07-09T13:39:27.000Z</time>
      </trkpt>
      <trkpt lat="43.53443495929241180419921875" lon="-7.1108832769095897674560546875">
        <ele>85</ele>
        <time>2019-07-09T13:39:29.000Z</time>
      </trkpt>
      <trkpt lat="43.53466034866869449615478515625" lon="-7.1116353012621402740478515625">
        <ele>84.1999969482421875</ele>
        <time>2019-07-09T13:39:31.000Z</time>
      </trkpt>
      <trkpt lat="43.534759841859340667724609375" lon="-7.1120222099125385284423828125">
        <ele>82.59999847412109375</ele>
        <time>2019-07-09T13:39:32.000Z</time>
      </trkpt>
      <trkpt lat="43.5348498634994029998779296875" lon="-7.11241565644741058349609375">
        <ele>79.59999847412109375</ele>
        <time>2019-07-09T13:39:33.000Z</time>
      </trkpt>
      <trkpt lat="43.53493116796016693115234375" lon="-7.11281186901032924652099609375">
        <ele>78.1999969482421875</ele>
        <time>2019-07-09T13:39:34.000Z</time>
      </trkpt>
      <trkpt lat="43.53500333614647388458251953125" lon="-7.1132090874016284942626953125">
        <ele>76.59999847412109375</ele>
        <time>2019-07-09T13:39:35.000Z</time>
      </trkpt>
      <trkpt lat="43.535119593143463134765625" lon="-7.11400696076452732086181640625">
        <ele>76.59999847412109375</ele>
        <time>2019-07-09T13:39:37.000Z</time>
      </trkpt>
      <trkpt lat="43.53516208939254283905029296875" lon="-7.1144078671932220458984375">
        <ele>79.1999969482421875</ele>
        <time>2019-07-09T13:39:38.000Z</time>
      </trkpt>
      <trkpt lat="43.53519394062459468841552734375" lon="-7.1148101985454559326171875">
        <ele>81.1999969482421875</ele>
        <time>2019-07-09T13:39:39.000Z</time>
      </trkpt>
      <trkpt lat="43.53521623648703098297119140625" lon="-7.11521361954510211944580078125">
        <ele>82.40000152587890625</ele>
        <time>2019-07-09T13:39:40.000Z</time>
      </trkpt>
      <trkpt lat="43.535230569541454315185546875" lon="-7.11601761169731616973876953125">
        <ele>83</ele>
        <time>2019-07-09T13:39:42.000Z</time>
      </trkpt>
      <trkpt lat="43.53520282544195652008056640625" lon="-7.1168233640491962432861328125">
        <ele>80.59999847412109375</ele>
        <time>2019-07-09T13:39:44.000Z</time>
      </trkpt>
      <trkpt lat="43.53517524898052215576171875" lon="-7.1172233484685420989990234375">
        <ele>79.59999847412109375</ele>
        <time>2019-07-09T13:39:45.000Z</time>
      </trkpt>
      <trkpt lat="43.535139374434947967529296875" lon="-7.1176206506788730621337890625">
        <ele>77.8000030517578125</ele>
        <time>2019-07-09T13:39:46.000Z</time>
      </trkpt>
      <trkpt lat="43.53504474274814128875732421875" lon="-7.11840176023542881011962890625">
        <ele>77.1999969482421875</ele>
        <time>2019-07-09T13:39:48.000Z</time>
      </trkpt>
      <trkpt lat="43.5349331796169281005859375" lon="-7.11917038075625896453857421875">
        <ele>77.59999847412109375</ele>
        <time>2019-07-09T13:39:50.000Z</time>
      </trkpt>
      <trkpt lat="43.534824885427951812744140625" lon="-7.119940929114818572998046875">
        <ele>78</ele>
        <time>2019-07-09T13:39:52.000Z</time>
      </trkpt>
      <trkpt lat="43.534735031425952911376953125" lon="-7.120722122490406036376953125">
        <ele>79.40000152587890625</ele>
        <time>2019-07-09T13:39:54.000Z</time>
      </trkpt>
      <trkpt lat="43.5346822254359722137451171875" lon="-7.1215122006833553314208984375">
        <ele>80.1999969482421875</ele>
        <time>2019-07-09T13:39:56.000Z</time>
      </trkpt>
      <trkpt lat="43.534672670066356658935546875" lon="-7.12230035103857517242431640625">
        <ele>80.1999969482421875</ele>
        <time>2019-07-09T13:39:58.000Z</time>
      </trkpt>
      <trkpt lat="43.53468214161694049835205078125" lon="-7.1226918697357177734375">
        <ele>80.1999969482421875</ele>
        <time>2019-07-09T13:39:59.000Z</time>
      </trkpt>
      <trkpt lat="43.5347261466085910797119140625" lon="-7.123472727835178375244140625">
        <ele>80.1999969482421875</ele>
        <time>2019-07-09T13:40:01.000Z</time>
      </trkpt>
      <trkpt lat="43.53476579301059246063232421875" lon="-7.12386106140911579132080078125">
        <ele>80.59999847412109375</ele>
        <time>2019-07-09T13:40:02.000Z</time>
      </trkpt>
      <trkpt lat="43.5348833911120891571044921875" lon="-7.1246235631406307220458984375">
        <ele>81.1999969482421875</ele>
        <time>2019-07-09T13:40:04.000Z</time>
      </trkpt>
      <trkpt lat="43.5349554754793643951416015625" lon="-7.12499655783176422119140625">
        <ele>81.8000030517578125</ele>
        <time>2019-07-09T13:40:05.000Z</time>
      </trkpt>
      <trkpt lat="43.535119928419589996337890625" lon="-7.1257294714450836181640625">
        <ele>82.1999969482421875</ele>
        <time>2019-07-09T13:40:07.000Z</time>
      </trkpt>
      <trkpt lat="43.53529326617717742919921875" lon="-7.12645961903035640716552734375">
        <ele>82.59999847412109375</ele>
        <time>2019-07-09T13:40:09.000Z</time>
      </trkpt>
      <trkpt lat="43.535462580621242523193359375" lon="-7.1271917782723903656005859375">
        <ele>82.1999969482421875</ele>
        <time>2019-07-09T13:40:11.000Z</time>
      </trkpt>
      <trkpt lat="43.5356109403073787689208984375" lon="-7.1279243566095829010009765625">
        <ele>82</ele>
        <time>2019-07-09T13:40:13.000Z</time>
      </trkpt>
      <trkpt lat="43.535667099058628082275390625" lon="-7.1282958425581455230712890625">
        <ele>84.1999969482421875</ele>
        <time>2019-07-09T13:40:14.000Z</time>
      </trkpt>
      <trkpt lat="43.535711355507373809814453125" lon="-7.12867160327732563018798828125">
        <ele>86.59999847412109375</ele>
        <time>2019-07-09T13:40:15.000Z</time>
      </trkpt>
      <trkpt lat="43.535745553672313690185546875" lon="-7.1290502138435840606689453125">
        <ele>89.8000030517578125</ele>
        <time>2019-07-09T13:40:16.000Z</time>
      </trkpt>
      <trkpt lat="43.53577111847698688507080078125" lon="-7.12943133898079395294189453125">
        <ele>91.40000152587890625</ele>
        <time>2019-07-09T13:40:17.000Z</time>
      </trkpt>
      <trkpt lat="43.53578788228332996368408203125" lon="-7.12981514632701873779296875">
        <ele>92.40000152587890625</ele>
        <time>2019-07-09T13:40:18.000Z</time>
      </trkpt>
      <trkpt lat="43.53579215705394744873046875" lon="-7.13059726171195507049560546875">
        <ele>93.8000030517578125</ele>
        <time>2019-07-09T13:40:20.000Z</time>
      </trkpt>
      <trkpt lat="43.53575200773775577545166015625" lon="-7.1313840709626674652099609375">
        <ele>94.1999969482421875</ele>
        <time>2019-07-09T13:40:22.000Z</time>
      </trkpt>
      <trkpt lat="43.53571303188800811767578125" lon="-7.1317750029265880584716796875">
        <ele>95</ele>
        <time>2019-07-09T13:40:23.000Z</time>
      </trkpt>
      <trkpt lat="43.53560079820454120635986328125" lon="-7.13254136033356189727783203125">
        <ele>95.40000152587890625</ele>
        <time>2019-07-09T13:40:25.000Z</time>
      </trkpt>
      <trkpt lat="43.53553039021790027618408203125" lon="-7.13291251100599765777587890625">
        <ele>93.8000030517578125</ele>
        <time>2019-07-09T13:40:26.000Z</time>
      </trkpt>
      <trkpt lat="43.53536023758351802825927734375" lon="-7.1336398087441921234130859375">
        <ele>93.59999847412109375</ele>
        <time>2019-07-09T13:40:28.000Z</time>
      </trkpt>
      <trkpt lat="43.53515437804162502288818359375" lon="-7.13435210287570953369140625">
        <ele>92.40000152587890625</ele>
        <time>2019-07-09T13:40:30.000Z</time>
      </trkpt>
      <trkpt lat="43.53504306636750698089599609375" lon="-7.134705819189548492431640625">
        <ele>93.40000152587890625</ele>
        <time>2019-07-09T13:40:31.000Z</time>
      </trkpt>
      <trkpt lat="43.5348223708570003509521484375" lon="-7.13542037643492221832275390625">
        <ele>95</ele>
        <time>2019-07-09T13:40:33.000Z</time>
      </trkpt>
      <trkpt lat="43.53461408056318759918212890625" lon="-7.13614222593605518341064453125">
        <ele>93.59999847412109375</ele>
        <time>2019-07-09T13:40:35.000Z</time>
      </trkpt>
      <trkpt lat="43.5345212928950786590576171875" lon="-7.13651203550398349761962890625">
        <ele>91.40000152587890625</ele>
        <time>2019-07-09T13:40:36.000Z</time>
      </trkpt>
      <trkpt lat="43.5344388149678707122802734375" lon="-7.13688947260379791259765625">
        <ele>89.59999847412109375</ele>
        <time>2019-07-09T13:40:37.000Z</time>
      </trkpt>
      <trkpt lat="43.53436580859124660491943359375" lon="-7.137275375425815582275390625">
        <ele>87.1999969482421875</ele>
        <time>2019-07-09T13:40:38.000Z</time>
      </trkpt>
      <trkpt lat="43.5343020223081111907958984375" lon="-7.13766572065651416778564453125">
        <ele>86.1999969482421875</ele>
        <time>2019-07-09T13:40:39.000Z</time>
      </trkpt>
      <trkpt lat="43.53420185856521129608154296875" lon="-7.13845663703978061676025390625">
        <ele>84.59999847412109375</ele>
        <time>2019-07-09T13:40:41.000Z</time>
      </trkpt>
      <trkpt lat="43.5341444425284862518310546875" lon="-7.13922911323606967926025390625">
        <ele>84</ele>
        <time>2019-07-09T13:40:43.000Z</time>
      </trkpt>
      <trkpt lat="43.53413010947406291961669921875" lon="-7.1396087296307086944580078125">
        <ele>83</ele>
        <time>2019-07-09T13:40:44.000Z</time>
      </trkpt>
      <trkpt lat="43.53413078002631664276123046875" lon="-7.14035245589911937713623046875">
        <ele>81.8000030517578125</ele>
        <time>2019-07-09T13:40:46.000Z</time>
      </trkpt>
      <trkpt lat="43.5341759584844112396240234375" lon="-7.14108972810208797454833984375">
        <ele>83.1999969482421875</ele>
        <time>2019-07-09T13:40:48.000Z</time>
      </trkpt>
      <trkpt lat="43.5342567600309848785400390625" lon="-7.1418218873441219329833984375">
        <ele>85.1999969482421875</ele>
        <time>2019-07-09T13:40:50.000Z</time>
      </trkpt>
      <trkpt lat="43.5343627072870731353759765625" lon="-7.14252001605927944183349609375">
        <ele>86.59999847412109375</ele>
        <time>2019-07-09T13:40:52.000Z</time>
      </trkpt>
      <trkpt lat="43.5344927944242954254150390625" lon="-7.14317799545824527740478515625">
        <ele>86.40000152587890625</ele>
        <time>2019-07-09T13:40:54.000Z</time>
      </trkpt>
      <trkpt lat="43.5345668904483318328857421875" lon="-7.14350237511098384857177734375">
        <ele>84.59999847412109375</ele>
        <time>2019-07-09T13:40:55.000Z</time>
      </trkpt>
      <trkpt lat="43.534647859632968902587890625" lon="-7.14382491074502468109130859375">
        <ele>83.40000152587890625</ele>
        <time>2019-07-09T13:40:56.000Z</time>
      </trkpt>
      <trkpt lat="43.53473603725433349609375" lon="-7.1441413275897502899169921875">
        <ele>81.8000030517578125</ele>
        <time>2019-07-09T13:40:57.000Z</time>
      </trkpt>
      <trkpt lat="43.534928150475025177001953125" lon="-7.1447454951703548431396484375">
        <ele>80.59999847412109375</ele>
        <time>2019-07-09T13:40:59.000Z</time>
      </trkpt>
      <trkpt lat="43.53514113463461399078369140625" lon="-7.14531303383409976959228515625">
        <ele>83.1999969482421875</ele>
        <time>2019-07-09T13:41:01.000Z</time>
      </trkpt>
      <trkpt lat="43.535254709422588348388671875" lon="-7.14558963663876056671142578125">
        <ele>84.8000030517578125</ele>
        <time>2019-07-09T13:41:02.000Z</time>
      </trkpt>
      <trkpt lat="43.53537197224795818328857421875" lon="-7.14585634879767894744873046875">
        <ele>87.1999969482421875</ele>
        <time>2019-07-09T13:41:03.000Z</time>
      </trkpt>
      <trkpt lat="43.53549149818718433380126953125" lon="-7.14611233212053775787353515625">
        <ele>89.8000030517578125</ele>
        <time>2019-07-09T13:41:04.000Z</time>
      </trkpt>
      <trkpt lat="43.535613454878330230712890625" lon="-7.1463583409786224365234375">
        <ele>91.1999969482421875</ele>
        <time>2019-07-09T13:41:05.000Z</time>
      </trkpt>
      <trkpt lat="43.53586130775511264801025390625" lon="-7.146826051175594329833984375">
        <ele>92.8000030517578125</ele>
        <time>2019-07-09T13:41:07.000Z</time>
      </trkpt>
      <trkpt lat="43.536221645772457122802734375" lon="-7.14745201170444488525390625">
        <ele>91.8000030517578125</ele>
        <time>2019-07-09T13:41:10.000Z</time>
      </trkpt>
      <trkpt lat="43.5365537367761135101318359375" lon="-7.14804251678287982940673828125">
        <ele>91</ele>
        <time>2019-07-09T13:41:13.000Z</time>
      </trkpt>
      <trkpt lat="43.536842577159404754638671875" lon="-7.1485807187855243682861328125">
        <ele>92</ele>
        <time>2019-07-09T13:41:16.000Z</time>
      </trkpt>
      <trkpt lat="43.53693419136106967926025390625" lon="-7.1487577445805072784423828125">
        <ele>93</ele>
        <time>2019-07-09T13:41:17.000Z</time>
      </trkpt>
      <trkpt lat="43.53702454827725887298583984375" lon="-7.1489344350993633270263671875">
        <ele>94</ele>
        <time>2019-07-09T13:41:18.000Z</time>
      </trkpt>
      <trkpt lat="43.53711314499378204345703125" lon="-7.1491067670285701751708984375">
        <ele>94.59999847412109375</ele>
        <time>2019-07-09T13:41:19.000Z</time>
      </trkpt>
      <trkpt lat="43.5372926853597164154052734375" lon="-7.1494510956108570098876953125">
        <ele>95.1999969482421875</ele>
        <time>2019-07-09T13:41:21.000Z</time>
      </trkpt>
      <trkpt lat="43.53758110664784908294677734375" lon="-7.14999617077410221099853515625">
        <ele>93.59999847412109375</ele>
        <time>2019-07-09T13:41:24.000Z</time>
      </trkpt>
      <trkpt lat="43.53767146356403827667236328125" lon="-7.15017286129295825958251953125">
        <ele>92.40000152587890625</ele>
        <time>2019-07-09T13:41:25.000Z</time>
      </trkpt>
      <trkpt lat="43.5377597250044345855712890625" lon="-7.1503452770411968231201171875">
        <ele>91.1999969482421875</ele>
        <time>2019-07-09T13:41:26.000Z</time>
      </trkpt>
      <trkpt lat="43.53794136084616184234619140625" lon="-7.15067292563617229461669921875">
        <ele>88.8000030517578125</ele>
        <time>2019-07-09T13:41:28.000Z</time>
      </trkpt>
      <trkpt lat="43.53804244659841060638427734375" lon="-7.1508190222084522247314453125">
        <ele>87</ele>
        <time>2019-07-09T13:41:29.000Z</time>
      </trkpt>
      <trkpt lat="43.5381590388715267181396484375" lon="-7.15093879960477352142333984375">
        <ele>85</ele>
        <time>2019-07-09T13:41:30.000Z</time>
      </trkpt>
      <trkpt lat="43.5382891260087490081787109375" lon="-7.1510268934071063995361328125">
        <ele>83.8000030517578125</ele>
        <time>2019-07-09T13:41:31.000Z</time>
      </trkpt>
      <trkpt lat="43.5385714285075664520263671875" lon="-7.151146419346332550048828125">
        <ele>82.1999969482421875</ele>
        <time>2019-07-09T13:41:33.000Z</time>
      </trkpt>
      <trkpt lat="43.5388597659766674041748046875" lon="-7.1512739919126033782958984375">
        <ele>80.8000030517578125</ele>
        <time>2019-07-09T13:41:35.000Z</time>
      </trkpt>
      <trkpt lat="43.539143241941928863525390625" lon="-7.15141489170491695404052734375">
        <ele>79.40000152587890625</ele>
        <time>2019-07-09T13:41:37.000Z</time>
      </trkpt>
      <trkpt lat="43.5392835550010204315185546875" lon="-7.15148605406284332275390625">
        <ele>77.59999847412109375</ele>
        <time>2019-07-09T13:41:38.000Z</time>
      </trkpt>
      <trkpt lat="43.53942311368882656097412109375" lon="-7.1515539474785327911376953125">
        <ele>75.1999969482421875</ele>
        <time>2019-07-09T13:41:39.000Z</time>
      </trkpt>
      <trkpt lat="43.53956158272922039031982421875" lon="-7.15161882340908050537109375">
        <ele>73.59999847412109375</ele>
        <time>2019-07-09T13:41:40.000Z</time>
      </trkpt>
      <trkpt lat="43.53969485498964786529541015625" lon="-7.15168277733027935028076171875">
        <ele>71.8000030517578125</ele>
        <time>2019-07-09T13:41:41.000Z</time>
      </trkpt>
      <trkpt lat="43.5398166440427303314208984375" lon="-7.15174346230924129486083984375">
        <ele>70.1999969482421875</ele>
        <time>2019-07-09T13:41:42.000Z</time>
      </trkpt>
      <trkpt lat="43.5399296320974826812744140625" lon="-7.1517990343272686004638671875">
        <ele>69</ele>
        <time>2019-07-09T13:41:43.000Z</time>
      </trkpt>
      <trkpt lat="43.5400375910103321075439453125" lon="-7.15185393579304218292236328125">
        <ele>68</ele>
        <time>2019-07-09T13:41:44.000Z</time>
      </trkpt>
      <trkpt lat="43.540358953177928924560546875" lon="-7.1520216576755046844482421875">
        <ele>66.59999847412109375</ele>
        <time>2019-07-09T13:41:47.000Z</time>
      </trkpt>
      <trkpt lat="43.54059121571481227874755859375" lon="-7.15214361436665058135986328125">
        <ele>65</ele>
        <time>2019-07-09T13:41:49.000Z</time>
      </trkpt>
      <trkpt lat="43.540839739143848419189453125" lon="-7.1522677503526210784912109375">
        <ele>63.200000762939453125</ele>
        <time>2019-07-09T13:41:51.000Z</time>
      </trkpt>
      <trkpt lat="43.54109530337154865264892578125" lon="-7.15239523909986019134521484375">
        <ele>62</ele>
        <time>2019-07-09T13:41:53.000Z</time>
      </trkpt>
      <trkpt lat="43.541336953639984130859375" lon="-7.15251526795327663421630859375">
        <ele>60.40000152587890625</ele>
        <time>2019-07-09T13:41:55.000Z</time>
      </trkpt>
      <trkpt lat="43.541452623903751373291015625" lon="-7.1525731869041919708251953125">
        <ele>59.200000762939453125</ele>
        <time>2019-07-09T13:41:56.000Z</time>
      </trkpt>
      <trkpt lat="43.541568629443645477294921875" lon="-7.1526308543980121612548828125">
        <ele>57.799999237060546875</ele>
        <time>2019-07-09T13:41:57.000Z</time>
      </trkpt>
      <trkpt lat="43.54182922281324863433837890625" lon="-7.152745015919208526611328125">
        <ele>56</ele>
        <time>2019-07-09T13:41:59.000Z</time>
      </trkpt>
      <trkpt lat="43.54197439737617969512939453125" lon="-7.15279455296695232391357421875">
        <ele>54.799999237060546875</ele>
        <time>2019-07-09T13:42:00.000Z</time>
      </trkpt>
      <trkpt lat="43.54212476871907711029052734375" lon="-7.1528310142457485198974609375">
        <ele>52.59999847412109375</ele>
        <time>2019-07-09T13:42:01.000Z</time>
      </trkpt>
      <trkpt lat="43.54227564297616481781005859375" lon="-7.152854986488819122314453125">
        <ele>50</ele>
        <time>2019-07-09T13:42:02.000Z</time>
      </trkpt>
      <trkpt lat="43.542424254119396209716796875" lon="-7.15286529622972011566162109375">
        <ele>47.59999847412109375</ele>
        <time>2019-07-09T13:42:03.000Z</time>
      </trkpt>
      <trkpt lat="43.54257009923458099365234375" lon="-7.15285993181169033050537109375">
        <ele>46.200000762939453125</ele>
        <time>2019-07-09T13:42:04.000Z</time>
      </trkpt>
      <trkpt lat="43.54285567067563533782958984375" lon="-7.1528132446110248565673828125">
        <ele>44.59999847412109375</ele>
        <time>2019-07-09T13:42:06.000Z</time>
      </trkpt>
      <trkpt lat="43.543281890451908111572265625" lon="-7.152649126946926116943359375">
        <ele>43.40000152587890625</ele>
        <time>2019-07-09T13:42:09.000Z</time>
      </trkpt>
      <trkpt lat="43.543556816875934600830078125" lon="-7.1524732746183872222900390625">
        <ele>41.59999847412109375</ele>
        <time>2019-07-09T13:42:11.000Z</time>
      </trkpt>
      <trkpt lat="43.5438087768852710723876953125" lon="-7.15225157327950000762939453125">
        <ele>39.40000152587890625</ele>
        <time>2019-07-09T13:42:13.000Z</time>
      </trkpt>
      <trkpt lat="43.5439351759850978851318359375" lon="-7.1521319635212421417236328125">
        <ele>38</ele>
        <time>2019-07-09T13:42:14.000Z</time>
      </trkpt>
      <trkpt lat="43.54406450875103473663330078125" lon="-7.152010090649127960205078125">
        <ele>36.40000152587890625</ele>
        <time>2019-07-09T13:42:15.000Z</time>
      </trkpt>
      <trkpt lat="43.544196188449859619140625" lon="-7.15188712812960147857666015625">
        <ele>34.59999847412109375</ele>
        <time>2019-07-09T13:42:16.000Z</time>
      </trkpt>
      <trkpt lat="43.54433071799576282501220703125" lon="-7.15176508761942386627197265625">
        <ele>32.59999847412109375</ele>
        <time>2019-07-09T13:42:17.000Z</time>
      </trkpt>
      <trkpt lat="43.54446985758841037750244140625" lon="-7.15164832770824432373046875">
        <ele>31.3999996185302734375</ele>
        <time>2019-07-09T13:42:18.000Z</time>
      </trkpt>
      <trkpt lat="43.54476724751293659210205078125" lon="-7.1514520235359668731689453125">
        <ele>30</ele>
        <time>2019-07-09T13:42:20.000Z</time>
      </trkpt>
      <trkpt lat="43.54522691108286380767822265625" lon="-7.151285894215106964111328125">
        <ele>31.6000003814697265625</ele>
        <time>2019-07-09T13:42:23.000Z</time>
      </trkpt>
      <trkpt lat="43.54582093656063079833984375" lon="-7.15127818286418914794921875">
        <ele>31.6000003814697265625</ele>
        <time>2019-07-09T13:42:27.000Z</time>
      </trkpt>
      <trkpt lat="43.5462365113198757171630859375" lon="-7.15139108709990978240966796875">
        <ele>30</ele>
        <time>2019-07-09T13:42:30.000Z</time>
      </trkpt>
      <trkpt lat="43.5466851107776165008544921875" lon="-7.1515629999339580535888671875">
        <ele>29.799999237060546875</ele>
        <time>2019-07-09T13:42:34.000Z</time>
      </trkpt>
      <trkpt lat="43.54693916626274585723876953125" lon="-7.151652686297893524169921875">
        <ele>30.799999237060546875</ele>
        <time>2019-07-09T13:42:37.000Z</time>
      </trkpt>
      <trkpt lat="43.54700915515422821044921875" lon="-7.15165092609822750091552734375">
        <ele>31.3999996185302734375</ele>
        <time>2019-07-09T13:42:38.000Z</time>
      </trkpt>
      <trkpt lat="43.5470763780176639556884765625" lon="-7.151627205312252044677734375">
        <ele>31.6000003814697265625</ele>
        <time>2019-07-09T13:42:39.000Z</time>
      </trkpt>
      <trkpt lat="43.547218702733516693115234375" lon="-7.15156760998070240020751953125">
        <ele>32</ele>
        <time>2019-07-09T13:42:41.000Z</time>
      </trkpt>
      <trkpt lat="43.54736320674419403076171875" lon="-7.1515868045389652252197265625">
        <ele>32.200000762939453125</ele>
        <time>2019-07-09T13:42:43.000Z</time>
      </trkpt>
      <trkpt lat="43.5474233888089656829833984375" lon="-7.15162611566483974456787109375">
        <ele>32.59999847412109375</ele>
        <time>2019-07-09T13:42:44.000Z</time>
      </trkpt>
      <trkpt lat="43.5476104728877544403076171875" lon="-7.15176927857100963592529296875">
        <ele>33.200000762939453125</ele>
        <time>2019-07-09T13:42:47.000Z</time>
      </trkpt>
      <trkpt lat="43.5477782785892486572265625" lon="-7.15181219391524791717529296875">
        <ele>33.200000762939453125</ele>
        <time>2019-07-09T13:42:49.000Z</time>
      </trkpt>
      <trkpt lat="43.54824489913880825042724609375" lon="-7.15179920196533203125">
        <ele>31.3999996185302734375</ele>
        <time>2019-07-09T13:42:53.000Z</time>
      </trkpt>
      <trkpt lat="43.54849702678620815277099609375" lon="-7.1517836116254329681396484375">
        <ele>30.200000762939453125</ele>
        <time>2019-07-09T13:42:55.000Z</time>
      </trkpt>
      <trkpt lat="43.548628203570842742919921875" lon="-7.15177497826516628265380859375">
        <ele>29.200000762939453125</ele>
        <time>2019-07-09T13:42:56.000Z</time>
      </trkpt>
      <trkpt lat="43.54890874586999416351318359375" lon="-7.1517577953636646270751953125">
        <ele>28</ele>
        <time>2019-07-09T13:42:58.000Z</time>
      </trkpt>
      <trkpt lat="43.54919926263391971588134765625" lon="-7.1517346613109111785888671875">
        <ele>27</ele>
        <time>2019-07-09T13:43:00.000Z</time>
      </trkpt>
      <trkpt lat="43.549762777984142303466796875" lon="-7.1516991220414638519287109375">
        <ele>25.799999237060546875</ele>
        <time>2019-07-09T13:43:04.000Z</time>
      </trkpt>
      <trkpt lat="43.55027650482952594757080078125" lon="-7.15166978538036346435546875">
        <ele>24.799999237060546875</ele>
        <time>2019-07-09T13:43:08.000Z</time>
      </trkpt>
      <trkpt lat="43.5508118569850921630859375" lon="-7.15163432992994785308837890625">
        <ele>23.799999237060546875</ele>
        <time>2019-07-09T13:43:13.000Z</time>
      </trkpt>
      <trkpt lat="43.5511560179293155670166015625" lon="-7.151619158685207366943359375">
        <ele>22.200000762939453125</ele>
        <time>2019-07-09T13:43:16.000Z</time>
      </trkpt>
      <trkpt lat="43.55141359381377696990966796875" lon="-7.1516022272408008575439453125">
        <ele>20.799999237060546875</ele>
        <time>2019-07-09T13:43:18.000Z</time>
      </trkpt>
      <trkpt lat="43.55168868787586688995361328125" lon="-7.15159007348120212554931640625">
        <ele>18.799999237060546875</ele>
        <time>2019-07-09T13:43:20.000Z</time>
      </trkpt>
      <trkpt lat="43.55181827209889888763427734375" lon="-7.151584960520267486572265625">
        <ele>17.200000762939453125</ele>
        <time>2019-07-09T13:43:21.000Z</time>
      </trkpt>
      <trkpt lat="43.55193930678069591522216796875" lon="-7.15158001519739627838134765625">
        <ele>15.80000019073486328125</ele>
        <time>2019-07-09T13:43:22.000Z</time>
      </trkpt>
      <trkpt lat="43.55214751325547695159912109375" lon="-7.1515697054564952850341796875">
        <ele>14.6000003814697265625</ele>
        <time>2019-07-09T13:43:24.000Z</time>
      </trkpt>
      <trkpt lat="43.55241992510855197906494140625" lon="-7.15152570046484470367431640625">
        <ele>15.3999996185302734375</ele>
        <time>2019-07-09T13:43:28.000Z</time>
      </trkpt>
      <trkpt lat="43.5524736531078815460205078125" lon="-7.1515023149549961090087890625">
        <ele>16.200000762939453125</ele>
        <time>2019-07-09T13:43:29.000Z</time>
      </trkpt>
      <trkpt lat="43.5525266267359256744384765625" lon="-7.15147959999740123748779296875">
        <ele>16.799999237060546875</ele>
        <time>2019-07-09T13:43:30.000Z</time>
      </trkpt>
      <trkpt lat="43.55257784016430377960205078125" lon="-7.15147473849356174468994140625">
        <ele>17.200000762939453125</ele>
        <time>2019-07-09T13:43:31.000Z</time>
      </trkpt>
      <trkpt lat="43.5526245273649692535400390625" lon="-7.151501812040805816650390625">
        <ele>17.799999237060546875</ele>
        <time>2019-07-09T13:43:32.000Z</time>
      </trkpt>
      <trkpt lat="43.5526593960821628570556640625" lon="-7.15163332410156726837158203125">
        <ele>18.3999996185302734375</ele>
        <time>2019-07-09T13:43:34.000Z</time>
      </trkpt>
      <trkpt lat="43.55260198004543781280517578125" lon="-7.15196927078068256378173828125">
        <ele>18.3999996185302734375</ele>
        <time>2019-07-09T13:43:37.000Z</time>
      </trkpt>
      <trkpt lat="43.55259896256029605865478515625" lon="-7.15229566209018230438232421875">
        <ele>17.200000762939453125</ele>
        <time>2019-07-09T13:43:39.000Z</time>
      </trkpt>
      <trkpt lat="43.55259929783642292022705078125" lon="-7.15267251245677471160888671875">
        <ele>15.19999980926513671875</ele>
        <time>2019-07-09T13:43:41.000Z</time>
      </trkpt>
      <trkpt lat="43.552595861256122589111328125" lon="-7.153408862650394439697265625">
        <ele>15.3999996185302734375</ele>
        <time>2019-07-09T13:43:45.000Z</time>
      </trkpt>
      <trkpt lat="43.55259812436997890472412109375" lon="-7.1535694599151611328125">
        <ele>16.799999237060546875</ele>
        <time>2019-07-09T13:43:46.000Z</time>
      </trkpt>
      <trkpt lat="43.552600555121898651123046875" lon="-7.15372729115188121795654296875">
        <ele>18.3999996185302734375</ele>
        <time>2019-07-09T13:43:47.000Z</time>
      </trkpt>
      <trkpt lat="43.552603237330913543701171875" lon="-7.15388520620763301849365234375">
        <ele>19.6000003814697265625</ele>
        <time>2019-07-09T13:43:48.000Z</time>
      </trkpt>
      <trkpt lat="43.55260935612022876739501953125" lon="-7.1543662436306476593017578125">
        <ele>20.799999237060546875</ele>
        <time>2019-07-09T13:43:51.000Z</time>
      </trkpt>
      <trkpt lat="43.5526144690811634063720703125" lon="-7.15498759411275386810302734375">
        <ele>21</ele>
        <time>2019-07-09T13:43:55.000Z</time>
      </trkpt>
      <trkpt lat="43.55261589400470256805419921875" lon="-7.1553657017648220062255859375">
        <ele>20.6000003814697265625</ele>
        <time>2019-07-09T13:43:58.000Z</time>
      </trkpt>
      <trkpt lat="43.55261287651956081390380859375" lon="-7.1557526104152202606201171875">
        <ele>22</ele>
        <time>2019-07-09T13:44:03.000Z</time>
      </trkpt>
      <trkpt lat="43.5526178218424320220947265625" lon="-7.15590767562389373779296875">
        <ele>23.3999996185302734375</ele>
        <time>2019-07-09T13:44:06.000Z</time>
      </trkpt>
      <trkpt lat="43.5525977052748203277587890625" lon="-7.1564902178943157196044921875">
        <ele>24.200000762939453125</ele>
        <time>2019-07-09T13:44:22.000Z</time>
      </trkpt>
      <trkpt lat="43.5526241920888423919677734375" lon="-7.15679422952234745025634765625">
        <ele>24.3999996185302734375</ele>
        <time>2019-07-09T13:44:26.000Z</time>
      </trkpt>
      <trkpt lat="43.5526449792087078094482421875" lon="-7.1569388173520565032958984375">
        <ele>25</ele>
        <time>2019-07-09T13:44:28.000Z</time>
      </trkpt>
      <trkpt lat="43.5528427921235561370849609375" lon="-7.157494537532329559326171875">
        <ele>23.799999237060546875</ele>
        <time>2019-07-09T13:44:35.000Z</time>
      </trkpt>
      <trkpt lat="43.5528759844601154327392578125" lon="-7.15757693164050579071044921875">
        <ele>23.3999996185302734375</ele>
        <time>2019-07-09T13:44:36.000Z</time>
      </trkpt>
      <trkpt lat="43.55297279544174671173095703125" lon="-7.15781648643314838409423828125">
        <ele>22.200000762939453125</ele>
        <time>2019-07-09T13:44:39.000Z</time>
      </trkpt>
      <trkpt lat="43.55309751816093921661376953125" lon="-7.158112786710262298583984375">
        <ele>21</ele>
        <time>2019-07-09T13:44:43.000Z</time>
      </trkpt>
      <trkpt lat="43.55317429639399051666259765625" lon="-7.15830431319773197174072265625">
        <ele>19.799999237060546875</ele>
        <time>2019-07-09T13:44:46.000Z</time>
      </trkpt>
      <trkpt lat="43.5532741248607635498046875" lon="-7.158566080033779144287109375">
        <ele>18.799999237060546875</ele>
        <time>2019-07-09T13:44:50.000Z</time>
      </trkpt>
      <trkpt lat="43.55343296192586421966552734375" lon="-7.15915624983608722686767578125">
        <ele>19.200000762939453125</ele>
        <time>2019-07-09T13:45:01.000Z</time>
      </trkpt>
      <trkpt lat="43.5534439422190189361572265625" lon="-7.15921944938600063323974609375">
        <ele>19.3999996185302734375</ele>
        <time>2019-07-09T13:45:02.000Z</time>
      </trkpt>
      <trkpt lat="43.55349180288612842559814453125" lon="-7.15963267721235752105712890625">
        <ele>19.799999237060546875</ele>
        <time>2019-07-09T13:45:07.000Z</time>
      </trkpt>
      <trkpt lat="43.553529269993305206298828125" lon="-7.16031043790280818939208984375">
        <ele>20.799999237060546875</ele>
        <time>2019-07-09T13:45:13.000Z</time>
      </trkpt>
      <trkpt lat="43.55352558195590972900390625" lon="-7.16062542982399463653564453125">
        <ele>22</ele>
        <time>2019-07-09T13:45:16.000Z</time>
      </trkpt>
      <trkpt lat="43.553509153425693511962890625" lon="-7.1609718538820743560791015625">
        <ele>23.200000762939453125</ele>
        <time>2019-07-09T13:45:20.000Z</time>
      </trkpt>
      <trkpt lat="43.55348828248679637908935546875" lon="-7.1616072021424770355224609375">
        <ele>22.6000003814697265625</ele>
        <time>2019-07-09T13:45:46.000Z</time>
      </trkpt>
      <trkpt lat="43.55349414981901645660400390625" lon="-7.16168724931776523590087890625">
        <ele>22.3999996185302734375</ele>
        <time>2019-07-09T13:45:56.000Z</time>
      </trkpt>
      <trkpt lat="43.5534493066370487213134765625" lon="-7.16181985102593898773193359375">
        <ele>22.200000762939453125</ele>
        <time>2019-07-09T13:46:11.000Z</time>
      </trkpt>
      <trkpt lat="43.5534006915986537933349609375" lon="-7.1621096134185791015625">
        <ele>22</ele>
        <time>2019-07-09T13:46:20.000Z</time>
      </trkpt>
      <trkpt lat="43.55344704352319240570068359375" lon="-7.162322513759136199951171875">
        <ele>21</ele>
        <time>2019-07-09T13:46:26.000Z</time>
      </trkpt>
      <trkpt lat="43.55356254614889621734619140625" lon="-7.16271285898983478546142578125">
        <ele>20</ele>
        <time>2019-07-09T13:46:37.000Z</time>
      </trkpt>
      <trkpt lat="43.55361401103436946868896484375" lon="-7.16294604353606700897216796875">
        <ele>19.3999996185302734375</ele>
        <time>2019-07-09T13:46:43.000Z</time>
      </trkpt>
      <trkpt lat="43.5536585189402103424072265625" lon="-7.16313262470066547393798828125">
        <ele>19</ele>
        <time>2019-07-09T13:46:48.000Z</time>
      </trkpt>
      <trkpt lat="43.553674779832363128662109375" lon="-7.16341895051300525665283203125">
        <ele>18</ele>
        <time>2019-07-09T13:46:56.000Z</time>
      </trkpt>
      <trkpt lat="43.55359020642936229705810546875" lon="-7.16344174928963184356689453125">
        <ele>17.3999996185302734375</ele>
        <time>2019-07-09T13:47:11.000Z</time>
      </trkpt>
      <trkpt lat="43.55347068049013614654541015625" lon="-7.16278175823390483856201171875">
        <ele>18.3999996185302734375</ele>
        <time>2019-07-09T13:47:23.000Z</time>
      </trkpt>
      <trkpt lat="43.55341670103371143341064453125" lon="-7.16257723979651927947998046875">
        <ele>19</ele>
        <time>2019-07-09T13:47:26.000Z</time>
      </trkpt>
      <trkpt lat="43.55328912846744060516357421875" lon="-7.1621275506913661956787109375">
        <ele>20.200000762939453125</ele>
        <time>2019-07-09T13:47:33.000Z</time>
      </trkpt>
      <trkpt lat="43.55327479541301727294921875" lon="-7.1620090305805206298828125">
        <ele>20.799999237060546875</ele>
        <time>2019-07-09T13:47:36.000Z</time>
      </trkpt>
      <trkpt lat="43.55332617647945880889892578125" lon="-7.16194859705865383148193359375">
        <ele>21.200000762939453125</ele>
        <time>2019-07-09T13:47:39.000Z</time>
      </trkpt>
      <trkpt lat="43.5533567704260349273681640625" lon="-7.16190786100924015045166015625">
        <ele>21.3999996185302734375</ele>
        <time>2019-07-09T13:47:41.000Z</time>
      </trkpt>
      <trkpt lat="43.55344939045608043670654296875" lon="-7.161709964275360107421875">
        <ele>21.6000003814697265625</ele>
        <time>2019-07-09T13:47:46.000Z</time>
      </trkpt>
      <trkpt lat="43.55346062220633029937744140625" lon="-7.1615341119468212127685546875">
        <ele>21.200000762939453125</ele>
        <time>2019-07-09T13:47:48.000Z</time>
      </trkpt>
      <trkpt lat="43.553464896976947784423828125" lon="-7.16099272482097148895263671875">
        <ele>19.799999237060546875</ele>
        <time>2019-07-09T13:47:52.000Z</time>
      </trkpt>
      <trkpt lat="43.55348509736359119415283203125" lon="-7.160328291356563568115234375">
        <ele>20.3999996185302734375</ele>
        <time>2019-07-09T13:47:57.000Z</time>
      </trkpt>
      <trkpt lat="43.55348057113587856292724609375" lon="-7.16010189615190029144287109375">
        <ele>21.200000762939453125</ele>
        <time>2019-07-09T13:47:59.000Z</time>
      </trkpt>
      <trkpt lat="43.55343815870583057403564453125" lon="-7.15940334834158420562744140625">
        <ele>20.799999237060546875</ele>
        <time>2019-07-09T13:48:06.000Z</time>
      </trkpt>
      <trkpt lat="43.55339239351451396942138671875" lon="-7.15907695703208446502685546875">
        <ele>20.200000762939453125</ele>
        <time>2019-07-09T13:48:10.000Z</time>
      </trkpt>
      <trkpt lat="43.5533279366791248321533203125" lon="-7.15879566036164760589599609375">
        <ele>19</ele>
        <time>2019-07-09T13:48:14.000Z</time>
      </trkpt>
      <trkpt lat="43.55316909961402416229248046875" lon="-7.15830967761576175689697265625">
        <ele>17.6000003814697265625</ele>
        <time>2019-07-09T13:48:19.000Z</time>
      </trkpt>
      <trkpt lat="43.55292350985109806060791015625" lon="-7.1577206812798976898193359375">
        <ele>17.799999237060546875</ele>
        <time>2019-07-09T13:48:25.000Z</time>
      </trkpt>
      <trkpt lat="43.55284857563674449920654296875" lon="-7.1575433202087879180908203125">
        <ele>19.200000762939453125</ele>
        <time>2019-07-09T13:48:27.000Z</time>
      </trkpt>
      <trkpt lat="43.55281270109117031097412109375" lon="-7.15745556168258190155029296875">
        <ele>20.200000762939453125</ele>
        <time>2019-07-09T13:48:28.000Z</time>
      </trkpt>
      <trkpt lat="43.5527378506958484649658203125" lon="-7.1572814695537090301513671875">
        <ele>22</ele>
        <time>2019-07-09T13:48:30.000Z</time>
      </trkpt>
      <trkpt lat="43.55265713296830654144287109375" lon="-7.15709857642650604248046875">
        <ele>23</ele>
        <time>2019-07-09T13:48:32.000Z</time>
      </trkpt>
      <trkpt lat="43.55262377299368381500244140625" lon="-7.15700201690196990966796875">
        <ele>23.200000762939453125</ele>
        <time>2019-07-09T13:48:33.000Z</time>
      </trkpt>
      <trkpt lat="43.55257448740303516387939453125" lon="-7.15657747350633144378662109375">
        <ele>23.799999237060546875</ele>
        <time>2019-07-09T13:48:38.000Z</time>
      </trkpt>
      <trkpt lat="43.55260181240737438201904296875" lon="-7.1565012820065021514892578125">
        <ele>24</ele>
        <time>2019-07-09T13:48:40.000Z</time>
      </trkpt>
      <trkpt lat="43.55287740938365459442138671875" lon="-7.156587950885295867919921875">
        <ele>24.200000762939453125</ele>
        <time>2019-07-09T13:48:52.000Z</time>
      </trkpt>
      <trkpt lat="43.553039096295833587646484375" lon="-7.15717895887792110443115234375">
        <ele>24.3999996185302734375</ele>
        <time>2019-07-09T13:49:14.000Z</time>
      </trkpt>
      <trkpt lat="43.55305426754057407379150390625" lon="-7.1574075333774089813232421875">
        <ele>24.200000762939453125</ele>
        <time>2019-07-09T13:49:28.000Z</time>
      </trkpt>
      <trkpt lat="43.55297430418431758880615234375" lon="-7.1574286557734012603759765625">
        <ele>25</ele>
        <time>2019-07-09T13:49:45.000Z</time>
      </trkpt>
      <trkpt lat="43.55296097695827484130859375" lon="-7.15742178261280059814453125">
        <ele>24.6000003814697265625</ele>
        <time>2019-07-09T13:50:15.000Z</time>
      </trkpt>
      <trkpt lat="43.55297748930752277374267578125" lon="-7.15744734741747379302978515625">
        <ele>24.3999996185302734375</ele>
        <time>2019-07-09T13:51:04.000Z</time>
      </trkpt>
      <trkpt lat="43.55292141437530517578125" lon="-7.1573046036064624786376953125">
        <ele>24.200000762939453125</ele>
        <time>2019-07-09T13:52:09.000Z</time>
      </trkpt>
      <trkpt lat="43.5529007948935031890869140625" lon="-7.1572580002248287200927734375">
        <ele>23.799999237060546875</ele>
        <time>2019-07-09T13:52:10.000Z</time>
      </trkpt>
      <trkpt lat="43.5528015531599521636962890625" lon="-7.1570603549480438232421875">
        <ele>24.3999996185302734375</ele>
        <time>2019-07-09T13:52:21.000Z</time>
      </trkpt>
      <trkpt lat="43.55271060951054096221923828125" lon="-7.15660773217678070068359375">
        <ele>24.6000003814697265625</ele>
        <time>2019-07-09T13:52:53.000Z</time>
      </trkpt>
      <trkpt lat="43.5526929236948490142822265625" lon="-7.15655098669230937957763671875">
        <ele>24.3999996185302734375</ele>
        <time>2019-07-09T13:52:56.000Z</time>
      </trkpt>
      <trkpt lat="43.55271019041538238525390625" lon="-7.1565091609954833984375">
        <ele>24.3999996185302734375</ele>
        <time>2019-07-09T13:52:58.000Z</time>
      </trkpt>
      <trkpt lat="43.55275654233992099761962890625" lon="-7.15653824619948863983154296875">
        <ele>24.200000762939453125</ele>
        <time>2019-07-09T13:53:01.000Z</time>
      </trkpt>
      <trkpt lat="43.55273810215294361114501953125" lon="-7.15669582597911357879638671875">
        <ele>24.200000762939453125</ele>
        <time>2019-07-09T13:53:07.000Z</time>
      </trkpt>
      <trkpt lat="43.5527160577476024627685546875" lon="-7.15672382153570652008056640625">
        <ele>24.3999996185302734375</ele>
        <time>2019-07-09T13:53:10.000Z</time>
      </trkpt>
      <trkpt lat="43.55270055122673511505126953125" lon="-7.15672734193503856658935546875">
        <ele>24.3999996185302734375</ele>
        <time>2019-07-09T13:53:13.000Z</time>
      </trkpt>
      <trkpt lat="43.55267104692757129669189453125" lon="-7.15672516264021396636962890625">
        <ele>24.799999237060546875</ele>
        <time>2019-07-09T13:53:22.000Z</time>
      </trkpt>
      <trkpt lat="43.5526748187839984893798828125" lon="-7.15673790313303470611572265625">
        <ele>25.200000762939453125</ele>
        <time>2019-07-09T13:54:00.000Z</time>
      </trkpt>
      <trkpt lat="43.5525521077215671539306640625" lon="-7.15220597572624683380126953125">
        <ele>10.19999980926513671875</ele>
        <time>2019-07-09T15:04:16.000Z</time>
      </trkpt>
      <trkpt lat="43.5525418817996978759765625" lon="-7.151836417615413665771484375">
        <ele>11</ele>
        <time>2019-07-09T15:04:20.000Z</time>
      </trkpt>
      <trkpt lat="43.55249695479869842529296875" lon="-7.15168965049088001251220703125">
        <ele>10</ele>
        <time>2019-07-09T15:04:22.000Z</time>
      </trkpt>
      <trkpt lat="43.55237885378301143646240234375" lon="-7.15160683728754520416259765625">
        <ele>10.3999996185302734375</ele>
        <time>2019-07-09T15:04:24.000Z</time>
      </trkpt>
      <trkpt lat="43.5518265701830387115478515625" lon="-7.15163600631058216094970703125">
        <ele>10.19999980926513671875</ele>
        <time>2019-07-09T15:04:30.000Z</time>
      </trkpt>
      <trkpt lat="43.55133161880075931549072265625" lon="-7.15168495662510395050048828125">
        <ele>11.3999996185302734375</ele>
        <time>2019-07-09T15:04:34.000Z</time>
      </trkpt>
      <trkpt lat="43.55080825276672840118408203125" lon="-7.15171613730490207672119140625">
        <ele>12.6000003814697265625</ele>
        <time>2019-07-09T15:04:38.000Z</time>
      </trkpt>
      <trkpt lat="43.55029092170298099517822265625" lon="-7.15175025165081024169921875">
        <ele>11.80000019073486328125</ele>
        <time>2019-07-09T15:04:42.000Z</time>
      </trkpt>
      <trkpt lat="43.55002236552536487579345703125" lon="-7.1517614834010601043701171875">
        <ele>12.19999980926513671875</ele>
        <time>2019-07-09T15:04:44.000Z</time>
      </trkpt>
      <trkpt lat="43.54959153570234775543212890625" lon="-7.15178914368152618408203125">
        <ele>13.80000019073486328125</ele>
        <time>2019-07-09T15:04:47.000Z</time>
      </trkpt>
      <trkpt lat="43.548995666205883026123046875" lon="-7.151815630495548248291015625">
        <ele>14.19999980926513671875</ele>
        <time>2019-07-09T15:04:51.000Z</time>
      </trkpt>
      <trkpt lat="43.5485683567821979522705078125" lon="-7.15184169821441173553466796875">
        <ele>15</ele>
        <time>2019-07-09T15:04:54.000Z</time>
      </trkpt>
      <trkpt lat="43.548286221921443939208984375" lon="-7.15185494162142276763916015625">
        <ele>16.200000762939453125</ele>
        <time>2019-07-09T15:04:56.000Z</time>
      </trkpt>
      <trkpt lat="43.5480258800089359283447265625" lon="-7.15186265297234058380126953125">
        <ele>17.200000762939453125</ele>
        <time>2019-07-09T15:04:58.000Z</time>
      </trkpt>
      <trkpt lat="43.547794036567211151123046875" lon="-7.1518681012094020843505859375">
        <ele>18.3999996185302734375</ele>
        <time>2019-07-09T15:05:00.000Z</time>
      </trkpt>
      <trkpt lat="43.5475990734994411468505859375" lon="-7.1518915705382823944091796875">
        <ele>19.799999237060546875</ele>
        <time>2019-07-09T15:05:02.000Z</time>
      </trkpt>
      <trkpt lat="43.5475192777812480926513671875" lon="-7.15192115865647792816162109375">
        <ele>21</ele>
        <time>2019-07-09T15:05:03.000Z</time>
      </trkpt>
      <trkpt lat="43.5474535636603832244873046875" lon="-7.15196927078068256378173828125">
        <ele>22.3999996185302734375</ele>
        <time>2019-07-09T15:05:04.000Z</time>
      </trkpt>
      <trkpt lat="43.54739396832883358001708984375" lon="-7.15202827937901020050048828125">
        <ele>23.3999996185302734375</ele>
        <time>2019-07-09T15:05:05.000Z</time>
      </trkpt>
      <trkpt lat="43.54733328334987163543701171875" lon="-7.1520820073783397674560546875">
        <ele>24.3999996185302734375</ele>
        <time>2019-07-09T15:05:06.000Z</time>
      </trkpt>
      <trkpt lat="43.54726321063935756683349609375" lon="-7.15211234986782073974609375">
        <ele>25</ele>
        <time>2019-07-09T15:05:07.000Z</time>
      </trkpt>
      <trkpt lat="43.54718961752951145172119140625" lon="-7.15211226604878902435302734375">
        <ele>25.799999237060546875</ele>
        <time>2019-07-09T15:05:08.000Z</time>
      </trkpt>
      <trkpt lat="43.54712122119963169097900390625" lon="-7.1520759724080562591552734375">
        <ele>26.3999996185302734375</ele>
        <time>2019-07-09T15:05:09.000Z</time>
      </trkpt>
      <trkpt lat="43.54706858284771442413330078125" lon="-7.1520043909549713134765625">
        <ele>27</ele>
        <time>2019-07-09T15:05:10.000Z</time>
      </trkpt>
      <trkpt lat="43.54703790508210659027099609375" lon="-7.1517946757376194000244140625">
        <ele>27.3999996185302734375</ele>
        <time>2019-07-09T15:05:12.000Z</time>
      </trkpt>
      <trkpt lat="43.54706858284771442413330078125" lon="-7.15168763883411884307861328125">
        <ele>27.3999996185302734375</ele>
        <time>2019-07-09T15:05:13.000Z</time>
      </trkpt>
      <trkpt lat="43.54712189175188541412353515625" lon="-7.1515800990164279937744140625">
        <ele>27.3999996185302734375</ele>
        <time>2019-07-09T15:05:14.000Z</time>
      </trkpt>
      <trkpt lat="43.5472631268203258514404296875" lon="-7.15133258141577243804931640625">
        <ele>26.6000003814697265625</ele>
        <time>2019-07-09T15:05:16.000Z</time>
      </trkpt>
      <trkpt lat="43.54733026586472988128662109375" lon="-7.15117433108389377593994140625">
        <ele>26.200000762939453125</ele>
        <time>2019-07-09T15:05:17.000Z</time>
      </trkpt>
      <trkpt lat="43.547387011349201202392578125" lon="-7.150990851223468780517578125">
        <ele>25.3999996185302734375</ele>
        <time>2019-07-09T15:05:18.000Z</time>
      </trkpt>
      <trkpt lat="43.54743654839694499969482421875" lon="-7.1507948823273181915283203125">
        <ele>24.3999996185302734375</ele>
        <time>2019-07-09T15:05:19.000Z</time>
      </trkpt>
      <trkpt lat="43.5474850796163082122802734375" lon="-7.15059815905988216400146484375">
        <ele>22.6000003814697265625</ele>
        <time>2019-07-09T15:05:20.000Z</time>
      </trkpt>
      <trkpt lat="43.54753361083567142486572265625" lon="-7.15040135197341442108154296875">
        <ele>20.3999996185302734375</ele>
        <time>2019-07-09T15:05:21.000Z</time>
      </trkpt>
      <trkpt lat="43.54758306406438350677490234375" lon="-7.15019934810698032379150390625">
        <ele>18</ele>
        <time>2019-07-09T15:05:22.000Z</time>
      </trkpt>
      <trkpt lat="43.5476334393024444580078125" lon="-7.149992398917675018310546875">
        <ele>15.80000019073486328125</ele>
        <time>2019-07-09T15:05:23.000Z</time>
      </trkpt>
      <trkpt lat="43.5476838983595371246337890625" lon="-7.14978310279548168182373046875">
        <ele>14.3999996185302734375</ele>
        <time>2019-07-09T15:05:24.000Z</time>
      </trkpt>
      <trkpt lat="43.54773310013115406036376953125" lon="-7.14957590214908123016357421875">
        <ele>13.3999996185302734375</ele>
        <time>2019-07-09T15:05:25.000Z</time>
      </trkpt>
      <trkpt lat="43.54783435352146625518798828125" lon="-7.14916057884693145751953125">
        <ele>12.19999980926513671875</ele>
        <time>2019-07-09T15:05:27.000Z</time>
      </trkpt>
      <trkpt lat="43.54788715951144695281982421875" lon="-7.1489511989057064056396484375">
        <ele>11</ele>
        <time>2019-07-09T15:05:28.000Z</time>
      </trkpt>
      <trkpt lat="43.547941558063030242919921875" lon="-7.14874072931706905364990234375">
        <ele>9.80000019073486328125</ele>
        <time>2019-07-09T15:05:29.000Z</time>
      </trkpt>
      <trkpt lat="43.5480496846139430999755859375" lon="-7.1483145095407962799072265625">
        <ele>8.3999996185302734375</ele>
        <time>2019-07-09T15:05:31.000Z</time>
      </trkpt>
      <trkpt lat="43.548197709023952484130859375" lon="-7.14767572470009326934814453125">
        <ele>8.19999980926513671875</ele>
        <time>2019-07-09T15:05:34.000Z</time>
      </trkpt>
      <trkpt lat="43.5483504272997379302978515625" lon="-7.14704305864870548248291015625">
        <ele>8.80000019073486328125</ele>
        <time>2019-07-09T15:05:37.000Z</time>
      </trkpt>
      <trkpt lat="43.54845243506133556365966796875" lon="-7.1466297470033168792724609375">
        <ele>9.3999996185302734375</ele>
        <time>2019-07-09T15:05:39.000Z</time>
      </trkpt>
      <trkpt lat="43.548598028719425201416015625" lon="-7.14601568877696990966796875">
        <ele>9.3999996185302734375</ele>
        <time>2019-07-09T15:05:42.000Z</time>
      </trkpt>
      <trkpt lat="43.54869014583528041839599609375" lon="-7.14563976041972637176513671875">
        <ele>10.3999996185302734375</ele>
        <time>2019-07-09T15:05:44.000Z</time>
      </trkpt>
      <trkpt lat="43.548732809722423553466796875" lon="-7.1454673446714878082275390625">
        <ele>11.6000003814697265625</ele>
        <time>2019-07-09T15:05:45.000Z</time>
      </trkpt>
      <trkpt lat="43.548774383962154388427734375" lon="-7.1452990360558032989501953125">
        <ele>13.3999996185302734375</ele>
        <time>2019-07-09T15:05:46.000Z</time>
      </trkpt>
      <trkpt lat="43.54881470091640949249267578125" lon="-7.14512913487851619720458984375">
        <ele>14.6000003814697265625</ele>
        <time>2019-07-09T15:05:47.000Z</time>
      </trkpt>
      <trkpt lat="43.548895083367824554443359375" lon="-7.144780196249485015869140625">
        <ele>16</ele>
        <time>2019-07-09T15:05:49.000Z</time>
      </trkpt>
      <trkpt lat="43.5489369928836822509765625" lon="-7.14460543356835842132568359375">
        <ele>17.3999996185302734375</ele>
        <time>2019-07-09T15:05:50.000Z</time>
      </trkpt>
      <trkpt lat="43.5489783994853496551513671875" lon="-7.14442941360175609588623046875">
        <ele>18.6000003814697265625</ele>
        <time>2019-07-09T15:05:51.000Z</time>
      </trkpt>
      <trkpt lat="43.549161292612552642822265625" lon="-7.143702618777751922607421875">
        <ele>18.3999996185302734375</ele>
        <time>2019-07-09T15:05:55.000Z</time>
      </trkpt>
      <trkpt lat="43.54920865036547183990478515625" lon="-7.1435103379189968109130859375">
        <ele>17</ele>
        <time>2019-07-09T15:05:56.000Z</time>
      </trkpt>
      <trkpt lat="43.54925676248967647552490234375" lon="-7.143319062888622283935546875">
        <ele>15.80000019073486328125</ele>
        <time>2019-07-09T15:05:57.000Z</time>
      </trkpt>
      <trkpt lat="43.54930470697581768035888671875" lon="-7.1431314758956432342529296875">
        <ele>14.80000019073486328125</ele>
        <time>2019-07-09T15:05:58.000Z</time>
      </trkpt>
      <trkpt lat="43.54935181327164173126220703125" lon="-7.1429465711116790771484375">
        <ele>13.6000003814697265625</ele>
        <time>2019-07-09T15:05:59.000Z</time>
      </trkpt>
      <trkpt lat="43.549492545425891876220703125" lon="-7.14237936772406101226806640625">
        <ele>12</ele>
        <time>2019-07-09T15:06:02.000Z</time>
      </trkpt>
      <trkpt lat="43.54958918876945972442626953125" lon="-7.14196848683059215545654296875">
        <ele>11</ele>
        <time>2019-07-09T15:06:04.000Z</time>
      </trkpt>
      <trkpt lat="43.549691699445247650146484375" lon="-7.14153916575014591217041015625">
        <ele>10</ele>
        <time>2019-07-09T15:06:06.000Z</time>
      </trkpt>
      <trkpt lat="43.5498355329036712646484375" lon="-7.1408670209348201751708984375">
        <ele>8.80000019073486328125</ele>
        <time>2019-07-09T15:06:09.000Z</time>
      </trkpt>
      <trkpt lat="43.54988825507462024688720703125" lon="-7.1403942815959453582763671875">
        <ele>8.80000019073486328125</ele>
        <time>2019-07-09T15:06:11.000Z</time>
      </trkpt>
      <trkpt lat="43.549878112971782684326171875" lon="-7.13990293443202972412109375">
        <ele>9.80000019073486328125</ele>
        <time>2019-07-09T15:06:13.000Z</time>
      </trkpt>
      <trkpt lat="43.54981382377445697784423828125" lon="-7.13940010406076908111572265625">
        <ele>11.19999980926513671875</ele>
        <time>2019-07-09T15:06:15.000Z</time>
      </trkpt>
      <trkpt lat="43.5496854968369007110595703125" lon="-7.13862955570220947265625">
        <ele>11.80000019073486328125</ele>
        <time>2019-07-09T15:06:18.000Z</time>
      </trkpt>
      <trkpt lat="43.54964417405426502227783203125" lon="-7.1383799426257610321044921875">
        <ele>12.6000003814697265625</ele>
        <time>2019-07-09T15:06:19.000Z</time>
      </trkpt>
      <trkpt lat="43.549605868756771087646484375" lon="-7.13813192211091518402099609375">
        <ele>13.80000019073486328125</ele>
        <time>2019-07-09T15:06:20.000Z</time>
      </trkpt>
      <trkpt lat="43.54949514381587505340576171875" lon="-7.13737956248223781585693359375">
        <ele>14.80000019073486328125</ele>
        <time>2019-07-09T15:06:23.000Z</time>
      </trkpt>
      <trkpt lat="43.549421466886997222900390625" lon="-7.136864997446537017822265625">
        <ele>13.80000019073486328125</ele>
        <time>2019-07-09T15:06:25.000Z</time>
      </trkpt>
      <trkpt lat="43.549383245408535003662109375" lon="-7.1366063319146633148193359375">
        <ele>12.3999996185302734375</ele>
        <time>2019-07-09T15:06:26.000Z</time>
      </trkpt>
      <trkpt lat="43.549346029758453369140625" lon="-7.13634632527828216552734375">
        <ele>11</ele>
        <time>2019-07-09T15:06:27.000Z</time>
      </trkpt>
      <trkpt lat="43.54931090958416461944580078125" lon="-7.13608439080417156219482421875">
        <ele>10</ele>
        <time>2019-07-09T15:06:28.000Z</time>
      </trkpt>
      <trkpt lat="43.54927738197147846221923828125" lon="-7.1358251385390758514404296875">
        <ele>9.3999996185302734375</ele>
        <time>2019-07-09T15:06:29.000Z</time>
      </trkpt>
      <trkpt lat="43.54924268089234828948974609375" lon="-7.13557393290102481842041015625">
        <ele>8.6000003814697265625</ele>
        <time>2019-07-09T15:06:30.000Z</time>
      </trkpt>
      <trkpt lat="43.5491225682199001312255859375" lon="-7.1348387561738491058349609375">
        <ele>8</ele>
        <time>2019-07-09T15:06:33.000Z</time>
      </trkpt>
      <trkpt lat="43.54901100508868694305419921875" lon="-7.1340858936309814453125">
        <ele>9.6000003814697265625</ele>
        <time>2019-07-09T15:06:36.000Z</time>
      </trkpt>
      <trkpt lat="43.54897362180054187774658203125" lon="-7.13383602909743785858154296875">
        <ele>9.80000019073486328125</ele>
        <time>2019-07-09T15:06:37.000Z</time>
      </trkpt>
      <trkpt lat="43.5488637350499629974365234375" lon="-7.13309540413320064544677734375">
        <ele>10</ele>
        <time>2019-07-09T15:06:40.000Z</time>
      </trkpt>
      <trkpt lat="43.54875854216516017913818359375" lon="-7.1323734708130359649658203125">
        <ele>10.6000003814697265625</ele>
        <time>2019-07-09T15:06:43.000Z</time>
      </trkpt>
      <trkpt lat="43.54872149415314197540283203125" lon="-7.1321300603449344635009765625">
        <ele>11</ele>
        <time>2019-07-09T15:06:44.000Z</time>
      </trkpt>
      <trkpt lat="43.5486146248877048492431640625" lon="-7.1313870884478092193603515625">
        <ele>11.80000019073486328125</ele>
        <time>2019-07-09T15:06:47.000Z</time>
      </trkpt>
      <trkpt lat="43.54850607924163341522216796875" lon="-7.130670435726642608642578125">
        <ele>10.80000019073486328125</ele>
        <time>2019-07-09T15:06:50.000Z</time>
      </trkpt>
      <trkpt lat="43.54841857217252254486083984375" lon="-7.13003198616206645965576171875">
        <ele>10.3999996185302734375</ele>
        <time>2019-07-09T15:06:53.000Z</time>
      </trkpt>
      <trkpt lat="43.5483289696276187896728515625" lon="-7.1294220350682735443115234375">
        <ele>11.80000019073486328125</ele>
        <time>2019-07-09T15:06:56.000Z</time>
      </trkpt>
      <trkpt lat="43.54829502291977405548095703125" lon="-7.12921340949833393096923828125">
        <ele>12.19999980926513671875</ele>
        <time>2019-07-09T15:06:57.000Z</time>
      </trkpt>
      <trkpt lat="43.548229895532131195068359375" lon="-7.128778137266635894775390625">
        <ele>13.3999996185302734375</ele>
        <time>2019-07-09T15:06:59.000Z</time>
      </trkpt>
      <trkpt lat="43.54813459329307079315185546875" lon="-7.1281027235090732574462890625">
        <ele>13.19999980926513671875</ele>
        <time>2019-07-09T15:07:02.000Z</time>
      </trkpt>
      <trkpt lat="43.5480718128383159637451171875" lon="-7.127656638622283935546875">
        <ele>12.19999980926513671875</ele>
        <time>2019-07-09T15:07:04.000Z</time>
      </trkpt>
      <trkpt lat="43.54797533713281154632568359375" lon="-7.1269892714917659759521484375">
        <ele>11.3999996185302734375</ele>
        <time>2019-07-09T15:07:07.000Z</time>
      </trkpt>
      <trkpt lat="43.54791440069675445556640625" lon="-7.12653975002467632293701171875">
        <ele>14.6000003814697265625</ele>
        <time>2019-07-09T15:07:09.000Z</time>
      </trkpt>
      <trkpt lat="43.547881208360195159912109375" lon="-7.126315534114837646484375">
        <ele>16.6000003814697265625</ele>
        <time>2019-07-09T15:07:10.000Z</time>
      </trkpt>
      <trkpt lat="43.54778406210243701934814453125" lon="-7.12565629743039608001708984375">
        <ele>18.200000762939453125</ele>
        <time>2019-07-09T15:07:13.000Z</time>
      </trkpt>
      <trkpt lat="43.5477519594132900238037109375" lon="-7.12544222362339496612548828125">
        <ele>16.6000003814697265625</ele>
        <time>2019-07-09T15:07:14.000Z</time>
      </trkpt>
      <trkpt lat="43.54772035963833332061767578125" lon="-7.12522949092090129852294921875">
        <ele>15.3999996185302734375</ele>
        <time>2019-07-09T15:07:15.000Z</time>
      </trkpt>
      <trkpt lat="43.5476892627775669097900390625" lon="-7.1250165067613124847412109375">
        <ele>14</ele>
        <time>2019-07-09T15:07:16.000Z</time>
      </trkpt>
      <trkpt lat="43.5476587526500225067138671875" lon="-7.12480100803077220916748046875">
        <ele>12.80000019073486328125</ele>
        <time>2019-07-09T15:07:17.000Z</time>
      </trkpt>
      <trkpt lat="43.547559678554534912109375" lon="-7.12414805777370929718017578125">
        <ele>11.80000019073486328125</ele>
        <time>2019-07-09T15:07:20.000Z</time>
      </trkpt>
      <trkpt lat="43.547496311366558074951171875" lon="-7.12370465509593486785888671875">
        <ele>10.6000003814697265625</ele>
        <time>2019-07-09T15:07:22.000Z</time>
      </trkpt>
      <trkpt lat="43.547399751842021942138671875" lon="-7.12305153720080852508544921875">
        <ele>10.19999980926513671875</ele>
        <time>2019-07-09T15:07:25.000Z</time>
      </trkpt>
      <trkpt lat="43.5472919605672359466552734375" lon="-7.12238542735576629638671875">
        <ele>10.6000003814697265625</ele>
        <time>2019-07-09T15:07:28.000Z</time>
      </trkpt>
      <trkpt lat="43.54718215763568878173828125" lon="-7.121651172637939453125">
        <ele>8.6000003814697265625</ele>
        <time>2019-07-09T15:07:31.000Z</time>
      </trkpt>
      <trkpt lat="43.5471117496490478515625" lon="-7.12113124318420886993408203125">
        <ele>7.19999980926513671875</ele>
        <time>2019-07-09T15:07:33.000Z</time>
      </trkpt>
      <trkpt lat="43.5470415093004703521728515625" lon="-7.12060586549341678619384765625">
        <ele>5.80000019073486328125</ele>
        <time>2019-07-09T15:07:35.000Z</time>
      </trkpt>
      <trkpt lat="43.54697428643703460693359375" lon="-7.12008786387741565704345703125">
        <ele>7</ele>
        <time>2019-07-09T15:07:37.000Z</time>
      </trkpt>
      <trkpt lat="43.54694285430014133453369140625" lon="-7.1198379993438720703125">
        <ele>8</ele>
        <time>2019-07-09T15:07:38.000Z</time>
      </trkpt>
      <trkpt lat="43.546896167099475860595703125" lon="-7.119355536997318267822265625">
        <ele>9.3999996185302734375</ele>
        <time>2019-07-09T15:07:40.000Z</time>
      </trkpt>
      <trkpt lat="43.5468923114240169525146484375" lon="-7.11911908350884914398193359375">
        <ele>10</ele>
        <time>2019-07-09T15:07:41.000Z</time>
      </trkpt>
      <trkpt lat="43.54692961089313030242919921875" lon="-7.1186405606567859649658203125">
        <ele>10.6000003814697265625</ele>
        <time>2019-07-09T15:07:43.000Z</time>
      </trkpt>
      <trkpt lat="43.54701426811516284942626953125" lon="-7.11789272725582122802734375">
        <ele>8.3999996185302734375</ele>
        <time>2019-07-09T15:07:46.000Z</time>
      </trkpt>
      <trkpt lat="43.54702784679830074310302734375" lon="-7.11763565428555011749267578125">
        <ele>6.599999904632568359375</ele>
        <time>2019-07-09T15:07:47.000Z</time>
      </trkpt>
      <trkpt lat="43.5470287688076496124267578125" lon="-7.1173762343823909759521484375">
        <ele>5.400000095367431640625</ele>
        <time>2019-07-09T15:07:48.000Z</time>
      </trkpt>
      <trkpt lat="43.54701074771583080291748046875" lon="-7.1168528683483600616455078125">
        <ele>3.7999999523162841796875</ele>
        <time>2019-07-09T15:07:50.000Z</time>
      </trkpt>
      <trkpt lat="43.5469778068363666534423828125" lon="-7.1160601079463958740234375">
        <ele>3.400000095367431640625</ele>
        <time>2019-07-09T15:07:53.000Z</time>
      </trkpt>
      <trkpt lat="43.5469509847462177276611328125" lon="-7.1152680180966854095458984375">
        <ele>4</ele>
        <time>2019-07-09T15:07:56.000Z</time>
      </trkpt>
      <trkpt lat="43.546935059130191802978515625" lon="-7.1147386170923709869384765625">
        <ele>5.400000095367431640625</ele>
        <time>2019-07-09T15:07:58.000Z</time>
      </trkpt>
      <trkpt lat="43.54691703803837299346923828125" lon="-7.114207036793231964111328125">
        <ele>7.19999980926513671875</ele>
        <time>2019-07-09T15:08:00.000Z</time>
      </trkpt>
      <trkpt lat="43.54689658619463443756103515625" lon="-7.113669253885746002197265625">
        <ele>8.80000019073486328125</ele>
        <time>2019-07-09T15:08:02.000Z</time>
      </trkpt>
      <trkpt lat="43.546868674457073211669921875" lon="-7.11284589953720569610595703125">
        <ele>9.19999980926513671875</ele>
        <time>2019-07-09T15:08:05.000Z</time>
      </trkpt>
      <trkpt lat="43.5468393377959728240966796875" lon="-7.1120181865990161895751953125">
        <ele>7.80000019073486328125</ele>
        <time>2019-07-09T15:08:08.000Z</time>
      </trkpt>
      <trkpt lat="43.54681092314422130584716796875" lon="-7.111182175576686859130859375">
        <ele>9.6000003814697265625</ele>
        <time>2019-07-09T15:08:11.000Z</time>
      </trkpt>
      <trkpt lat="43.54680321179330348968505859375" lon="-7.11090716533362865447998046875">
        <ele>14.19999980926513671875</ele>
        <time>2019-07-09T15:08:12.000Z</time>
      </trkpt>
      <trkpt lat="43.54679524898529052734375" lon="-7.1106385253369808197021484375">
        <ele>18.799999237060546875</ele>
        <time>2019-07-09T15:08:13.000Z</time>
      </trkpt>
      <trkpt lat="43.5467866994440555572509765625" lon="-7.11037592031061649322509765625">
        <ele>21</ele>
        <time>2019-07-09T15:08:14.000Z</time>
      </trkpt>
      <trkpt lat="43.546779155731201171875" lon="-7.11011675186455249786376953125">
        <ele>22.200000762939453125</ele>
        <time>2019-07-09T15:08:15.000Z</time>
      </trkpt>
      <trkpt lat="43.54676113463938236236572265625" lon="-7.10959254764020442962646484375">
        <ele>20</ele>
        <time>2019-07-09T15:08:17.000Z</time>
      </trkpt>
      <trkpt lat="43.54675141163170337677001953125" lon="-7.10932181216776371002197265625">
        <ele>17.799999237060546875</ele>
        <time>2019-07-09T15:08:18.000Z</time>
      </trkpt>
      <trkpt lat="43.54674235917627811431884765625" lon="-7.10904655046761035919189453125">
        <ele>16.200000762939453125</ele>
        <time>2019-07-09T15:08:19.000Z</time>
      </trkpt>
      <trkpt lat="43.54673422873020172119140625" lon="-7.10876575671136379241943359375">
        <ele>14.80000019073486328125</ele>
        <time>2019-07-09T15:08:20.000Z</time>
      </trkpt>
      <trkpt lat="43.54670413769781589508056640625" lon="-7.10790376178920269012451171875">
        <ele>15</ele>
        <time>2019-07-09T15:08:23.000Z</time>
      </trkpt>
      <trkpt lat="43.54669692926108837127685546875" lon="-7.10763185285031795501708984375">
        <ele>16.200000762939453125</ele>
        <time>2019-07-09T15:08:24.000Z</time>
      </trkpt>
      <trkpt lat="43.5466887988150119781494140625" lon="-7.107375450432300567626953125">
        <ele>18.799999237060546875</ele>
        <time>2019-07-09T15:08:25.000Z</time>
      </trkpt>
      <trkpt lat="43.54668133892118930816650390625" lon="-7.10712927393615245819091796875">
        <ele>21.799999237060546875</ele>
        <time>2019-07-09T15:08:26.000Z</time>
      </trkpt>
      <trkpt lat="43.54667379520833492279052734375" lon="-7.10688636638224124908447265625">
        <ele>24.799999237060546875</ele>
        <time>2019-07-09T15:08:27.000Z</time>
      </trkpt>
      <trkpt lat="43.54666390456259250640869140625" lon="-7.106637172400951385498046875">
        <ele>26.200000762939453125</ele>
        <time>2019-07-09T15:08:28.000Z</time>
      </trkpt>
      <trkpt lat="43.5466435365378856658935546875" lon="-7.106118164956569671630859375">
        <ele>24.200000762939453125</ele>
        <time>2019-07-09T15:08:30.000Z</time>
      </trkpt>
      <trkpt lat="43.54663507081568241119384765625" lon="-7.10585690103471279144287109375">
        <ele>20.3999996185302734375</ele>
        <time>2019-07-09T15:08:31.000Z</time>
      </trkpt>
      <trkpt lat="43.54662685655057430267333984375" lon="-7.1056003309786319732666015625">
        <ele>16</ele>
        <time>2019-07-09T15:08:32.000Z</time>
      </trkpt>
      <trkpt lat="43.54661813937127590179443359375" lon="-7.10534828715026378631591796875">
        <ele>13.6000003814697265625</ele>
        <time>2019-07-09T15:08:33.000Z</time>
      </trkpt>
      <trkpt lat="43.54661093093454837799072265625" lon="-7.1050997637212276458740234375">
        <ele>12.6000003814697265625</ele>
        <time>2019-07-09T15:08:34.000Z</time>
      </trkpt>
      <trkpt lat="43.54659500531852245330810546875" lon="-7.10436844266951084136962890625">
        <ele>13.80000019073486328125</ele>
        <time>2019-07-09T15:08:37.000Z</time>
      </trkpt>
      <trkpt lat="43.54658260010182857513427734375" lon="-7.1038823761045932769775390625">
        <ele>15</ele>
        <time>2019-07-09T15:08:39.000Z</time>
      </trkpt>
      <trkpt lat="43.5465630702674388885498046875" lon="-7.1031487919390201568603515625">
        <ele>16.200000762939453125</ele>
        <time>2019-07-09T15:08:42.000Z</time>
      </trkpt>
      <trkpt lat="43.5465417802333831787109375" lon="-7.10239500738680362701416015625">
        <ele>17</ele>
        <time>2019-07-09T15:08:45.000Z</time>
      </trkpt>
      <trkpt lat="43.54651554487645626068115234375" lon="-7.10162672214210033416748046875">
        <ele>16.799999237060546875</ele>
        <time>2019-07-09T15:08:48.000Z</time>
      </trkpt>
      <trkpt lat="43.546493835747241973876953125" lon="-7.10089079104363918304443359375">
        <ele>16.3999996185302734375</ele>
        <time>2019-07-09T15:08:51.000Z</time>
      </trkpt>
      <trkpt lat="43.54647950269281864166259765625" lon="-7.1003995276987552642822265625">
        <ele>18.200000762939453125</ele>
        <time>2019-07-09T15:08:53.000Z</time>
      </trkpt>
      <trkpt lat="43.5464658401906490325927734375" lon="-7.09990424104034900665283203125">
        <ele>20.200000762939453125</ele>
        <time>2019-07-09T15:08:55.000Z</time>
      </trkpt>
      <trkpt lat="43.54645050130784511566162109375" lon="-7.09940082393586635589599609375">
        <ele>21.6000003814697265625</ele>
        <time>2019-07-09T15:08:57.000Z</time>
      </trkpt>
      <trkpt lat="43.54643113911151885986328125" lon="-7.098623402416706085205078125">
        <ele>22.3999996185302734375</ele>
        <time>2019-07-09T15:09:00.000Z</time>
      </trkpt>
      <trkpt lat="43.5464121960103511810302734375" lon="-7.09783206693828105926513671875">
        <ele>18.799999237060546875</ele>
        <time>2019-07-09T15:09:03.000Z</time>
      </trkpt>
      <trkpt lat="43.54640507139265537261962890625" lon="-7.09757038392126560211181640625">
        <ele>16.799999237060546875</ele>
        <time>2019-07-09T15:09:04.000Z</time>
      </trkpt>
      <trkpt lat="43.54639082215726375579833984375" lon="-7.09706042893230915069580078125">
        <ele>15.19999980926513671875</ele>
        <time>2019-07-09T15:09:06.000Z</time>
      </trkpt>
      <trkpt lat="43.54636534117162227630615234375" lon="-7.0963105000555515289306640625">
        <ele>15</ele>
        <time>2019-07-09T15:09:09.000Z</time>
      </trkpt>
      <trkpt lat="43.5463414527475833892822265625" lon="-7.09580917842686176300048828125">
        <ele>16.6000003814697265625</ele>
        <time>2019-07-09T15:09:11.000Z</time>
      </trkpt>
      <trkpt lat="43.54628487490117549896240234375" lon="-7.09506905637681484222412109375">
        <ele>17.6000003814697265625</ele>
        <time>2019-07-09T15:09:14.000Z</time>
      </trkpt>
      <trkpt lat="43.5462646745145320892333984375" lon="-7.09482128731906414031982421875">
        <ele>18.200000762939453125</ele>
        <time>2019-07-09T15:09:15.000Z</time>
      </trkpt>
      <trkpt lat="43.54621849022805690765380859375" lon="-7.09432256408035755157470703125">
        <ele>19.3999996185302734375</ele>
        <time>2019-07-09T15:09:17.000Z</time>
      </trkpt>
      <trkpt lat="43.5461691208183765411376953125" lon="-7.093819566071033477783203125">
        <ele>20.6000003814697265625</ele>
        <time>2019-07-09T15:09:19.000Z</time>
      </trkpt>
      <trkpt lat="43.546119667589664459228515625" lon="-7.09330382756888866424560546875">
        <ele>21.799999237060546875</ele>
        <time>2019-07-09T15:09:21.000Z</time>
      </trkpt>
      <trkpt lat="43.54606443084776401519775390625" lon="-7.0927776955068111419677734375">
        <ele>23</ele>
        <time>2019-07-09T15:09:23.000Z</time>
      </trkpt>
      <trkpt lat="43.545977510511875152587890625" lon="-7.0920028723776340484619140625">
        <ele>24</ele>
        <time>2019-07-09T15:09:26.000Z</time>
      </trkpt>
      <trkpt lat="43.54589377529919147491455078125" lon="-7.09125361405313014984130859375">
        <ele>24</ele>
        <time>2019-07-09T15:09:29.000Z</time>
      </trkpt>
      <trkpt lat="43.54580610059201717376708984375" lon="-7.0905028469860553741455078125">
        <ele>23.6000003814697265625</ele>
        <time>2019-07-09T15:09:32.000Z</time>
      </trkpt>
      <trkpt lat="43.54571842588484287261962890625" lon="-7.089758031070232391357421875">
        <ele>24.6000003814697265625</ele>
        <time>2019-07-09T15:09:35.000Z</time>
      </trkpt>
      <trkpt lat="43.5456581600010395050048828125" lon="-7.08927514962852001190185546875">
        <ele>25.799999237060546875</ele>
        <time>2019-07-09T15:09:37.000Z</time>
      </trkpt>
      <trkpt lat="43.54560191743075847625732421875" lon="-7.08878539502620697021484375">
        <ele>26.799999237060546875</ele>
        <time>2019-07-09T15:09:39.000Z</time>
      </trkpt>
      <trkpt lat="43.5455377958714962005615234375" lon="-7.08829723298549652099609375">
        <ele>25.6000003814697265625</ele>
        <time>2019-07-09T15:09:41.000Z</time>
      </trkpt>
      <trkpt lat="43.545420281589031219482421875" lon="-7.08756004460155963897705078125">
        <ele>24.6000003814697265625</ele>
        <time>2019-07-09T15:09:44.000Z</time>
      </trkpt>
      <trkpt lat="43.54537527076900005340576171875" lon="-7.08731353282928466796875">
        <ele>24.3999996185302734375</ele>
        <time>2019-07-09T15:09:45.000Z</time>
      </trkpt>
      <trkpt lat="43.545234538614749908447265625" lon="-7.08662764169275760650634765625">
        <ele>24</ele>
        <time>2019-07-09T15:09:48.000Z</time>
      </trkpt>
      <trkpt lat="43.54518885724246501922607421875" lon="-7.0864121429622173309326171875">
        <ele>23.3999996185302734375</ele>
        <time>2019-07-09T15:09:49.000Z</time>
      </trkpt>
      <trkpt lat="43.5450435988605022430419921875" lon="-7.0857298560440540313720703125">
        <ele>23</ele>
        <time>2019-07-09T15:09:52.000Z</time>
      </trkpt>
      <trkpt lat="43.54489431716501712799072265625" lon="-7.08500926382839679718017578125">
        <ele>23</ele>
        <time>2019-07-09T15:09:55.000Z</time>
      </trkpt>
      <trkpt lat="43.54473740793764591217041015625" lon="-7.08426260389387607574462890625">
        <ele>22.6000003814697265625</ele>
        <time>2019-07-09T15:09:58.000Z</time>
      </trkpt>
      <trkpt lat="43.5446348972618579864501953125" lon="-7.083779387176036834716796875">
        <ele>22</ele>
        <time>2019-07-09T15:10:00.000Z</time>
      </trkpt>
      <trkpt lat="43.54448779486119747161865234375" lon="-7.08307824097573757171630859375">
        <ele>21.200000762939453125</ele>
        <time>2019-07-09T15:10:03.000Z</time>
      </trkpt>
      <trkpt lat="43.54434228502213954925537109375" lon="-7.08239846862852573394775390625">
        <ele>22.3999996185302734375</ele>
        <time>2019-07-09T15:10:06.000Z</time>
      </trkpt>
      <trkpt lat="43.5442932508885860443115234375" lon="-7.08216679282486438751220703125">
        <ele>23</ele>
        <time>2019-07-09T15:10:07.000Z</time>
      </trkpt>
      <trkpt lat="43.54414522647857666015625" lon="-7.08145894110202789306640625">
        <ele>23.799999237060546875</ele>
        <time>2019-07-09T15:10:10.000Z</time>
      </trkpt>
      <trkpt lat="43.5439995490014553070068359375" lon="-7.08075025118887424468994140625">
        <ele>23.200000762939453125</ele>
        <time>2019-07-09T15:10:13.000Z</time>
      </trkpt>
      <trkpt lat="43.543849177658557891845703125" lon="-7.08005673252046108245849609375">
        <ele>23</ele>
        <time>2019-07-09T15:10:16.000Z</time>
      </trkpt>
      <trkpt lat="43.54370727203786373138427734375" lon="-7.07941484637558460235595703125">
        <ele>24.6000003814697265625</ele>
        <time>2019-07-09T15:10:19.000Z</time>
      </trkpt>
      <trkpt lat="43.54362227953970432281494140625" lon="-7.07900932990014553070068359375">
        <ele>25.6000003814697265625</ele>
        <time>2019-07-09T15:10:21.000Z</time>
      </trkpt>
      <trkpt lat="43.54353778995573520660400390625" lon="-7.07860641181468963623046875">
        <ele>26.799999237060546875</ele>
        <time>2019-07-09T15:10:23.000Z</time>
      </trkpt>
      <trkpt lat="43.5433772765100002288818359375" lon="-7.077838294208049774169921875">
        <ele>27.799999237060546875</ele>
        <time>2019-07-09T15:10:27.000Z</time>
      </trkpt>
      <trkpt lat="43.543275855481624603271484375" lon="-7.07736597396433353424072265625">
        <ele>29.200000762939453125</ele>
        <time>2019-07-09T15:10:30.000Z</time>
      </trkpt>
      <trkpt lat="43.5432190261781215667724609375" lon="-7.07708635367453098297119140625">
        <ele>31.6000003814697265625</ele>
        <time>2019-07-09T15:10:32.000Z</time>
      </trkpt>
      <trkpt lat="43.54314987547695636749267578125" lon="-7.07682785578072071075439453125">
        <ele>33</ele>
        <time>2019-07-09T15:10:34.000Z</time>
      </trkpt>
      <trkpt lat="43.54294368065893650054931640625" lon="-7.0764063298702239990234375">
        <ele>33.40000152587890625</ele>
        <time>2019-07-09T15:10:38.000Z</time>
      </trkpt>
      <trkpt lat="43.542941920459270477294921875" lon="-7.07616501487791538238525390625">
        <ele>33.40000152587890625</ele>
        <time>2019-07-09T15:10:40.000Z</time>
      </trkpt>
      <trkpt lat="43.542964048683643341064453125" lon="-7.07585907541215419769287109375">
        <ele>33</ele>
        <time>2019-07-09T15:10:42.000Z</time>
      </trkpt>
      <trkpt lat="43.5428639687597751617431640625" lon="-7.07528877072036266326904296875">
        <ele>31.3999996185302734375</ele>
        <time>2019-07-09T15:10:45.000Z</time>
      </trkpt>
      <trkpt lat="43.54276799596846103668212890625" lon="-7.07489096559584140777587890625">
        <ele>30.200000762939453125</ele>
        <time>2019-07-09T15:10:47.000Z</time>
      </trkpt>
      <trkpt lat="43.54271954856812953948974609375" lon="-7.07468158565461635589599609375">
        <ele>29.200000762939453125</ele>
        <time>2019-07-09T15:10:48.000Z</time>
      </trkpt>
      <trkpt lat="43.542672358453273773193359375" lon="-7.07446566782891750335693359375">
        <ele>27.799999237060546875</ele>
        <time>2019-07-09T15:10:49.000Z</time>
      </trkpt>
      <trkpt lat="43.54262516833841800689697265625" lon="-7.07424589432775974273681640625">
        <ele>26.6000003814697265625</ele>
        <time>2019-07-09T15:10:50.000Z</time>
      </trkpt>
      <trkpt lat="43.54257739149034023284912109375" lon="-7.07402461208403110504150390625">
        <ele>25.3999996185302734375</ele>
        <time>2019-07-09T15:10:51.000Z</time>
      </trkpt>
      <trkpt lat="43.54247882030904293060302734375" lon="-7.07358238287270069122314453125">
        <ele>24</ele>
        <time>2019-07-09T15:10:53.000Z</time>
      </trkpt>
      <trkpt lat="43.54233683086931705474853515625" lon="-7.07292473874986171722412109375">
        <ele>22.3999996185302734375</ele>
        <time>2019-07-09T15:10:56.000Z</time>
      </trkpt>
      <trkpt lat="43.54220590554177761077880859375" lon="-7.07226969301700592041015625">
        <ele>22.6000003814697265625</ele>
        <time>2019-07-09T15:10:59.000Z</time>
      </trkpt>
      <trkpt lat="43.5420624911785125732421875" lon="-7.07161347381770610809326171875">
        <ele>22.3999996185302734375</ele>
        <time>2019-07-09T15:11:02.000Z</time>
      </trkpt>
      <trkpt lat="43.541922681033611297607421875" lon="-7.070960439741611480712890625">
        <ele>22.3999996185302734375</ele>
        <time>2019-07-09T15:11:05.000Z</time>
      </trkpt>
      <trkpt lat="43.54179217480123043060302734375" lon="-7.07032752223312854766845703125">
        <ele>22.799999237060546875</ele>
        <time>2019-07-09T15:11:08.000Z</time>
      </trkpt>
      <trkpt lat="43.5417029075324535369873046875" lon="-7.06990876235067844390869140625">
        <ele>23.6000003814697265625</ele>
        <time>2019-07-09T15:11:10.000Z</time>
      </trkpt>
      <trkpt lat="43.5415681265294551849365234375" lon="-7.069300152361392974853515625">
        <ele>24.799999237060546875</ele>
        <time>2019-07-09T15:11:13.000Z</time>
      </trkpt>
      <trkpt lat="43.54143393225967884063720703125" lon="-7.06880654208362102508544921875">
        <ele>26.6000003814697265625</ele>
        <time>2019-07-09T15:11:16.000Z</time>
      </trkpt>
      <trkpt lat="43.541394956409931182861328125" lon="-7.06867846660315990447998046875">
        <ele>27.6000003814697265625</ele>
        <time>2019-07-09T15:11:17.000Z</time>
      </trkpt>
      <trkpt lat="43.54135547764599323272705078125" lon="-7.06856497563421726226806640625">
        <ele>29.3999996185302734375</ele>
        <time>2019-07-09T15:11:18.000Z</time>
      </trkpt>
      <trkpt lat="43.541314490139484405517578125" lon="-7.06846741028130054473876953125">
        <ele>30.799999237060546875</ele>
        <time>2019-07-09T15:11:19.000Z</time>
      </trkpt>
      <trkpt lat="43.54126922786235809326171875" lon="-7.06839264370501041412353515625">
        <ele>32.40000152587890625</ele>
        <time>2019-07-09T15:11:20.000Z</time>
      </trkpt>
      <trkpt lat="43.54121734388172626495361328125" lon="-7.06834034062922000885009765625">
        <ele>33.799999237060546875</ele>
        <time>2019-07-09T15:11:21.000Z</time>
      </trkpt>
      <trkpt lat="43.54115732945501804351806640625" lon="-7.0682985149323940277099609375">
        <ele>35.200000762939453125</ele>
        <time>2019-07-09T15:11:22.000Z</time>
      </trkpt>
      <trkpt lat="43.54102791287004947662353515625" lon="-7.0681945793330669403076171875">
        <ele>36.59999847412109375</ele>
        <time>2019-07-09T15:11:24.000Z</time>
      </trkpt>
      <trkpt lat="43.540950715541839599609375" lon="-7.06802015192806720733642578125">
        <ele>37.200000762939453125</ele>
        <time>2019-07-09T15:11:26.000Z</time>
      </trkpt>
      <trkpt lat="43.540963120758533477783203125" lon="-7.06777154467999935150146484375">
        <ele>37.200000762939453125</ele>
        <time>2019-07-09T15:11:28.000Z</time>
      </trkpt>
      <trkpt lat="43.5410008393228054046630859375" lon="-7.06747398711740970611572265625">
        <ele>37</ele>
        <time>2019-07-09T15:11:30.000Z</time>
      </trkpt>
      <trkpt lat="43.54095398448407649993896484375" lon="-7.06715346314013004302978515625">
        <ele>36.200000762939453125</ele>
        <time>2019-07-09T15:11:32.000Z</time>
      </trkpt>
      <trkpt lat="43.54090578854084014892578125" lon="-7.06699102185666561126708984375">
        <ele>35.59999847412109375</ele>
        <time>2019-07-09T15:11:33.000Z</time>
      </trkpt>
      <trkpt lat="43.5408077202737331390380859375" lon="-7.06665960140526294708251953125">
        <ele>34.59999847412109375</ele>
        <time>2019-07-09T15:11:35.000Z</time>
      </trkpt>
      <trkpt lat="43.54065223596990108489990234375" lon="-7.0660199783742427825927734375">
        <ele>34.40000152587890625</ele>
        <time>2019-07-09T15:11:39.000Z</time>
      </trkpt>
      <trkpt lat="43.540483005344867706298828125" lon="-7.06535160541534423828125">
        <ele>35.59999847412109375</ele>
        <time>2019-07-09T15:11:43.000Z</time>
      </trkpt>
      <trkpt lat="43.54044453240931034088134765625" lon="-7.06519511528313159942626953125">
        <ele>36.200000762939453125</ele>
        <time>2019-07-09T15:11:44.000Z</time>
      </trkpt>
      <trkpt lat="43.54037043638527393341064453125" lon="-7.06489034928381443023681640625">
        <ele>37.59999847412109375</ele>
        <time>2019-07-09T15:11:46.000Z</time>
      </trkpt>
      <trkpt lat="43.5402233339846134185791015625" lon="-7.0642862655222415924072265625">
        <ele>37.799999237060546875</ele>
        <time>2019-07-09T15:11:50.000Z</time>
      </trkpt>
      <trkpt lat="43.5401690192520618438720703125" lon="-7.064058445394039154052734375">
        <ele>39</ele>
        <time>2019-07-09T15:11:52.000Z</time>
      </trkpt>
      <trkpt lat="43.54012216441333293914794921875" lon="-7.06385635770857334136962890625">
        <ele>40.40000152587890625</ele>
        <time>2019-07-09T15:11:54.000Z</time>
      </trkpt>
      <trkpt lat="43.5400684364140033721923828125" lon="-7.06362954340875148773193359375">
        <ele>41.799999237060546875</ele>
        <time>2019-07-09T15:11:56.000Z</time>
      </trkpt>
      <trkpt lat="43.53993608616292476654052734375" lon="-7.06310433335602283477783203125">
        <ele>41.59999847412109375</ele>
        <time>2019-07-09T15:12:00.000Z</time>
      </trkpt>
      <trkpt lat="43.5398375988006591796875" lon="-7.0626930333673954010009765625">
        <ele>40.59999847412109375</ele>
        <time>2019-07-09T15:12:03.000Z</time>
      </trkpt>
      <trkpt lat="43.5396780073642730712890625" lon="-7.06203061155974864959716796875">
        <ele>41.40000152587890625</ele>
        <time>2019-07-09T15:12:08.000Z</time>
      </trkpt>
      <trkpt lat="43.53964607231318950653076171875" lon="-7.06189633347094058990478515625">
        <ele>42.200000762939453125</ele>
        <time>2019-07-09T15:12:09.000Z</time>
      </trkpt>
      <trkpt lat="43.5394719801843166351318359375" lon="-7.06116358749568462371826171875">
        <ele>43</ele>
        <time>2019-07-09T15:12:14.000Z</time>
      </trkpt>
      <trkpt lat="43.539318926632404327392578125" lon="-7.06053645350039005279541015625">
        <ele>42.200000762939453125</ele>
        <time>2019-07-09T15:12:18.000Z</time>
      </trkpt>
      <trkpt lat="43.53915698826313018798828125" lon="-7.05986179411411285400390625">
        <ele>42</ele>
        <time>2019-07-09T15:12:23.000Z</time>
      </trkpt>
      <trkpt lat="43.5390850715339183807373046875" lon="-7.05951604060828685760498046875">
        <ele>41</ele>
        <time>2019-07-09T15:12:26.000Z</time>
      </trkpt>
      <trkpt lat="43.53904458694159984588623046875" lon="-7.059315629303455352783203125">
        <ele>39.799999237060546875</ele>
        <time>2019-07-09T15:12:28.000Z</time>
      </trkpt>
      <trkpt lat="43.53896730579435825347900390625" lon="-7.05887683667242527008056640625">
        <ele>39.799999237060546875</ele>
        <time>2019-07-09T15:13:02.000Z</time>
      </trkpt>
      <trkpt lat="43.5390592552721500396728515625" lon="-7.05856251530349254608154296875">
        <ele>39.200000762939453125</ele>
        <time>2019-07-09T15:13:05.000Z</time>
      </trkpt>
      <trkpt lat="43.5390746779739856719970703125" lon="-7.0584263093769550323486328125">
        <ele>38</ele>
        <time>2019-07-09T15:13:06.000Z</time>
      </trkpt>
      <trkpt lat="43.53909127414226531982421875" lon="-7.05828624777495861053466796875">
        <ele>36.799999237060546875</ele>
        <time>2019-07-09T15:13:07.000Z</time>
      </trkpt>
      <trkpt lat="43.53911004960536956787109375" lon="-7.0581466890871524810791015625">
        <ele>35.799999237060546875</ele>
        <time>2019-07-09T15:13:08.000Z</time>
      </trkpt>
      <trkpt lat="43.53917400352656841278076171875" lon="-7.05772248096764087677001953125">
        <ele>34.59999847412109375</ele>
        <time>2019-07-09T15:13:11.000Z</time>
      </trkpt>
      <trkpt lat="43.53927525691688060760498046875" lon="-7.05707355402410030364990234375">
        <ele>32.59999847412109375</ele>
        <time>2019-07-09T15:13:15.000Z</time>
      </trkpt>
      <trkpt lat="43.5393003188073635101318359375" lon="-7.05691128037869930267333984375">
        <ele>31</ele>
        <time>2019-07-09T15:13:16.000Z</time>
      </trkpt>
      <trkpt lat="43.5393244586884975433349609375" lon="-7.0567591488361358642578125">
        <ele>29.200000762939453125</ele>
        <time>2019-07-09T15:13:17.000Z</time>
      </trkpt>
      <trkpt lat="43.539367876946926116943359375" lon="-7.0564880780875682830810546875">
        <ele>27.799999237060546875</ele>
        <time>2019-07-09T15:13:19.000Z</time>
      </trkpt>
      <trkpt lat="43.53942194022238254547119140625" lon="-7.0561341941356658935546875">
        <ele>29.200000762939453125</ele>
        <time>2019-07-09T15:13:22.000Z</time>
      </trkpt>
      <trkpt lat="43.5394615866243839263916015625" lon="-7.0556760393083095550537109375">
        <ele>30.200000762939453125</ele>
        <time>2019-07-09T15:13:26.000Z</time>
      </trkpt>
      <trkpt lat="43.53945362381637096405029296875" lon="-7.05558895133435726165771484375">
        <ele>30.6000003814697265625</ele>
        <time>2019-07-09T15:13:27.000Z</time>
      </trkpt>
      <trkpt lat="43.53938874788582324981689453125" lon="-7.05538191832602024078369140625">
        <ele>32</ele>
        <time>2019-07-09T15:13:31.000Z</time>
      </trkpt>
      <trkpt lat="43.53935723192989826202392578125" lon="-7.0553142763674259185791015625">
        <ele>32.200000762939453125</ele>
        <time>2019-07-09T15:13:32.000Z</time>
      </trkpt>
      <trkpt lat="43.53898725472390651702880859375" lon="-7.05480876378715038299560546875">
        <ele>32.200000762939453125</ele>
        <time>2019-07-09T15:13:38.000Z</time>
      </trkpt>
      <trkpt lat="43.538611494004726409912109375" lon="-7.0543934404850006103515625">
        <ele>32.799999237060546875</ele>
        <time>2019-07-09T15:13:43.000Z</time>
      </trkpt>
      <trkpt lat="43.5384597815573215484619140625" lon="-7.054230161011219024658203125">
        <ele>33</ele>
        <time>2019-07-09T15:13:45.000Z</time>
      </trkpt>
      <trkpt lat="43.53826054371893405914306640625" lon="-7.0539768598973751068115234375">
        <ele>33.59999847412109375</ele>
        <time>2019-07-09T15:13:48.000Z</time>
      </trkpt>
      <trkpt lat="43.53820119984447956085205078125" lon="-7.053870745003223419189453125">
        <ele>34</ele>
        <time>2019-07-09T15:13:49.000Z</time>
      </trkpt>
      <trkpt lat="43.53814713656902313232421875" lon="-7.0537512190639972686767578125">
        <ele>34.200000762939453125</ele>
        <time>2019-07-09T15:13:50.000Z</time>
      </trkpt>
      <trkpt lat="43.5380685143172740936279296875" lon="-7.05348324961960315704345703125">
        <ele>34.40000152587890625</ele>
        <time>2019-07-09T15:13:52.000Z</time>
      </trkpt>
      <trkpt lat="43.5379518382251262664794921875" lon="-7.0527769066393375396728515625">
        <ele>33.59999847412109375</ele>
        <time>2019-07-09T15:13:57.000Z</time>
      </trkpt>
      <trkpt lat="43.53786441497504711151123046875" lon="-7.052099145948886871337890625">
        <ele>34</ele>
        <time>2019-07-09T15:14:03.000Z</time>
      </trkpt>
      <trkpt lat="43.5377808474004268646240234375" lon="-7.05143253318965435028076171875">
        <ele>34.40000152587890625</ele>
        <time>2019-07-09T15:14:09.000Z</time>
      </trkpt>
      <trkpt lat="43.53769929148256778717041015625" lon="-7.0508031360805034637451171875">
        <ele>34.799999237060546875</ele>
        <time>2019-07-09T15:14:15.000Z</time>
      </trkpt>
      <trkpt lat="43.53769057430326938629150390625" lon="-7.05072275362908840179443359375">
        <ele>35.200000762939453125</ele>
        <time>2019-07-09T15:14:16.000Z</time>
      </trkpt>
      <trkpt lat="43.5375820286571979522705078125" lon="-7.05009478144347667694091796875">
        <ele>36</ele>
        <time>2019-07-09T15:14:24.000Z</time>
      </trkpt>
      <trkpt lat="43.5375295579433441162109375" lon="-7.04986042343080043792724609375">
        <ele>35.799999237060546875</ele>
        <time>2019-07-09T15:14:27.000Z</time>
      </trkpt>
      <trkpt lat="43.53746183216571807861328125" lon="-7.049741484224796295166015625">
        <ele>35.799999237060546875</ele>
        <time>2019-07-09T15:14:29.000Z</time>
      </trkpt>
      <trkpt lat="43.5373885743319988250732421875" lon="-7.04961097799241542816162109375">
        <ele>35.799999237060546875</ele>
        <time>2019-07-09T15:14:31.000Z</time>
      </trkpt>
      <trkpt lat="43.53721984662115573883056640625" lon="-7.049026004970073699951171875">
        <ele>35</ele>
        <time>2019-07-09T15:14:37.000Z</time>
      </trkpt>
      <trkpt lat="43.537151701748371124267578125" lon="-7.04882794059813022613525390625">
        <ele>34</ele>
        <time>2019-07-09T15:14:39.000Z</time>
      </trkpt>
      <trkpt lat="43.53694408200681209564208984375" lon="-7.0482349209487438201904296875">
        <ele>34.59999847412109375</ele>
        <time>2019-07-09T15:14:45.000Z</time>
      </trkpt>
      <trkpt lat="43.536782562732696533203125" lon="-7.04762362875044345855712890625">
        <ele>35</ele>
        <time>2019-07-09T15:14:52.000Z</time>
      </trkpt>
      <trkpt lat="43.53669597767293453216552734375" lon="-7.0469565130770206451416015625">
        <ele>35.40000152587890625</ele>
        <time>2019-07-09T15:15:01.000Z</time>
      </trkpt>
      <trkpt lat="43.5365815646946430206298828125" lon="-7.04630616120994091033935546875">
        <ele>35.200000762939453125</ele>
        <time>2019-07-09T15:15:09.000Z</time>
      </trkpt>
      <trkpt lat="43.536487855017185211181640625" lon="-7.045691013336181640625">
        <ele>35.59999847412109375</ele>
        <time>2019-07-09T15:15:18.000Z</time>
      </trkpt>
      <trkpt lat="43.5364833287894725799560546875" lon="-7.045658491551876068115234375">
        <ele>36.200000762939453125</ele>
        <time>2019-07-09T15:15:21.000Z</time>
      </trkpt>
      <trkpt lat="43.5364504717290401458740234375" lon="-7.04545422457158565521240234375">
        <ele>36.200000762939453125</ele>
        <time>2019-07-09T15:15:33.000Z</time>
      </trkpt>
      <trkpt lat="43.53634159080684185028076171875" lon="-7.04478115774691104888916015625">
        <ele>35.59999847412109375</ele>
        <time>2019-07-09T15:15:41.000Z</time>
      </trkpt>
      <trkpt lat="43.5362295247614383697509765625" lon="-7.044159807264804840087890625">
        <ele>37</ele>
        <time>2019-07-09T15:15:49.000Z</time>
      </trkpt>
      <trkpt lat="43.53619054891169071197509765625" lon="-7.044012956321239471435546875">
        <ele>37.40000152587890625</ele>
        <time>2019-07-09T15:15:51.000Z</time>
      </trkpt>
      <trkpt lat="43.53611762635409832000732421875" lon="-7.04383157193660736083984375">
        <ele>38</ele>
        <time>2019-07-09T15:15:54.000Z</time>
      </trkpt>
      <trkpt lat="43.53605358861386775970458984375" lon="-7.0437150634825229644775390625">
        <ele>38.40000152587890625</ele>
        <time>2019-07-09T15:15:56.000Z</time>
      </trkpt>
      <trkpt lat="43.53596784174442291259765625" lon="-7.04357902519404888153076171875">
        <ele>38.40000152587890625</ele>
        <time>2019-07-09T15:16:00.000Z</time>
      </trkpt>
      <trkpt lat="43.53596155531704425811767578125" lon="-7.0435814559459686279296875">
        <ele>38.799999237060546875</ele>
        <time>2019-07-09T15:17:41.000Z</time>
      </trkpt>
      <trkpt lat="43.53596247732639312744140625" lon="-7.04358137212693691253662109375">
        <ele>38.59999847412109375</ele>
        <time>2019-07-09T15:18:49.000Z</time>
      </trkpt>
      <trkpt lat="43.53593121282756328582763671875" lon="-7.0436288975179195404052734375">
        <ele>38</ele>
        <time>2019-07-09T15:20:16.000Z</time>
      </trkpt>
      <trkpt lat="43.53588410653173923492431640625" lon="-7.04358623363077640533447265625">
        <ele>38.200000762939453125</ele>
        <time>2019-07-09T15:22:37.000Z</time>
      </trkpt>
      <trkpt lat="43.5358397662639617919921875" lon="-7.0434853993356227874755859375">
        <ele>38.59999847412109375</ele>
        <time>2019-07-09T15:22:51.000Z</time>
      </trkpt>
      <trkpt lat="43.5356171429157257080078125" lon="-7.0430557429790496826171875">
        <ele>39.40000152587890625</ele>
        <time>2019-07-09T15:23:02.000Z</time>
      </trkpt>
      <trkpt lat="43.5353328287601470947265625" lon="-7.04251670278608798980712890625">
        <ele>39.40000152587890625</ele>
        <time>2019-07-09T15:23:17.000Z</time>
      </trkpt>
      <trkpt lat="43.53502345271408557891845703125" lon="-7.04205603338778018951416015625">
        <ele>39.799999237060546875</ele>
        <time>2019-07-09T15:23:26.000Z</time>
      </trkpt>
      <trkpt lat="43.53467962704598903656005859375" lon="-7.04162671230733394622802734375">
        <ele>40.200000762939453125</ele>
        <time>2019-07-09T15:23:35.000Z</time>
      </trkpt>
      <trkpt lat="43.5343699157238006591796875" lon="-7.04121130518615245819091796875">
        <ele>40.200000762939453125</ele>
        <time>2019-07-09T15:23:42.000Z</time>
      </trkpt>
      <trkpt lat="43.533959202468395233154296875" lon="-7.04084987752139568328857421875">
        <ele>39.40000152587890625</ele>
        <time>2019-07-09T15:23:50.000Z</time>
      </trkpt>
      <trkpt lat="43.53357589803636074066162109375" lon="-7.04046598635613918304443359375">
        <ele>38.799999237060546875</ele>
        <time>2019-07-09T15:23:57.000Z</time>
      </trkpt>
      <trkpt lat="43.53351437486708164215087890625" lon="-7.0404164493083953857421875">
        <ele>38.799999237060546875</ele>
        <time>2019-07-09T15:23:58.000Z</time>
      </trkpt>
      <trkpt lat="43.533385209739208221435546875" lon="-7.0403683371841907501220703125">
        <ele>38.59999847412109375</ele>
        <time>2019-07-09T15:24:00.000Z</time>
      </trkpt>
      <trkpt lat="43.53326191194355487823486328125" lon="-7.04038786701858043670654296875">
        <ele>38.59999847412109375</ele>
        <time>2019-07-09T15:24:02.000Z</time>
      </trkpt>
      <trkpt lat="43.53284306824207305908203125" lon="-7.0406234823167324066162109375">
        <ele>38.40000152587890625</ele>
        <time>2019-07-09T15:24:08.000Z</time>
      </trkpt>
      <trkpt lat="43.532420955598354339599609375" lon="-7.04102070070803165435791015625">
        <ele>37.799999237060546875</ele>
        <time>2019-07-09T15:24:15.000Z</time>
      </trkpt>
      <trkpt lat="43.53205575607717037200927734375" lon="-7.0415387861430644989013671875">
        <ele>37.40000152587890625</ele>
        <time>2019-07-09T15:24:21.000Z</time>
      </trkpt>
      <trkpt lat="43.5317720286548137664794921875" lon="-7.0419491641223430633544921875">
        <ele>36.200000762939453125</ele>
        <time>2019-07-09T15:24:25.000Z</time>
      </trkpt>
      <trkpt lat="43.5317029617726802825927734375" lon="-7.04204865731298923492431640625">
        <ele>35</ele>
        <time>2019-07-09T15:24:26.000Z</time>
      </trkpt>
      <trkpt lat="43.53163481689989566802978515625" lon="-7.04214488156139850616455078125">
        <ele>33.59999847412109375</ele>
        <time>2019-07-09T15:24:27.000Z</time>
      </trkpt>
      <trkpt lat="43.53156767785549163818359375" lon="-7.0422385074198246002197265625">
        <ele>32.200000762939453125</ele>
        <time>2019-07-09T15:24:28.000Z</time>
      </trkpt>
      <trkpt lat="43.531435243785381317138671875" lon="-7.04242031089961528778076171875">
        <ele>31</ele>
        <time>2019-07-09T15:24:30.000Z</time>
      </trkpt>
      <trkpt lat="43.53111279197037220001220703125" lon="-7.04287108965218067169189453125">
        <ele>30.200000762939453125</ele>
        <time>2019-07-09T15:24:35.000Z</time>
      </trkpt>
      <trkpt lat="43.53098438121378421783447265625" lon="-7.04305901192128658294677734375">
        <ele>29.6000003814697265625</ele>
        <time>2019-07-09T15:24:37.000Z</time>
      </trkpt>
      <trkpt lat="43.53084825910627841949462890625" lon="-7.0432570762932300567626953125">
        <ele>28</ele>
        <time>2019-07-09T15:24:39.000Z</time>
      </trkpt>
      <trkpt lat="43.53070274926722049713134765625" lon="-7.043459415435791015625">
        <ele>26.799999237060546875</ele>
        <time>2019-07-09T15:24:41.000Z</time>
      </trkpt>
      <trkpt lat="43.5305563174188137054443359375" lon="-7.04366066493093967437744140625">
        <ele>25.799999237060546875</ele>
        <time>2019-07-09T15:24:43.000Z</time>
      </trkpt>
      <trkpt lat="43.5304165072739124298095703125" lon="-7.0438548736274242401123046875">
        <ele>24.3999996185302734375</ele>
        <time>2019-07-09T15:24:45.000Z</time>
      </trkpt>
      <trkpt lat="43.53028365410864353179931640625" lon="-7.04404505901038646697998046875">
        <ele>23.200000762939453125</ele>
        <time>2019-07-09T15:24:47.000Z</time>
      </trkpt>
      <trkpt lat="43.53010428138077259063720703125" lon="-7.0443591289222240447998046875">
        <ele>22.3999996185302734375</ele>
        <time>2019-07-09T15:24:50.000Z</time>
      </trkpt>
      <trkpt lat="43.53005985729396343231201171875" lon="-7.044488377869129180908203125">
        <ele>22</ele>
        <time>2019-07-09T15:24:51.000Z</time>
      </trkpt>
      <trkpt lat="43.52995835244655609130859375" lon="-7.04492281191051006317138671875">
        <ele>21</ele>
        <time>2019-07-09T15:24:54.000Z</time>
      </trkpt>
      <trkpt lat="43.52990093640983104705810546875" lon="-7.04522673971951007843017578125">
        <ele>19.799999237060546875</ele>
        <time>2019-07-09T15:24:56.000Z</time>
      </trkpt>
      <trkpt lat="43.52984041906893253326416015625" lon="-7.04553569667041301727294921875">
        <ele>18.6000003814697265625</ele>
        <time>2019-07-09T15:24:58.000Z</time>
      </trkpt>
      <trkpt lat="43.5297268442809581756591796875" lon="-7.04599167220294475555419921875">
        <ele>17.3999996185302734375</ele>
        <time>2019-07-09T15:25:01.000Z</time>
      </trkpt>
      <trkpt lat="43.52967261336743831634521484375" lon="-7.04612963832914829254150390625">
        <ele>17</ele>
        <time>2019-07-09T15:25:02.000Z</time>
      </trkpt>
      <trkpt lat="43.5296091623604297637939453125" lon="-7.04625762999057769775390625">
        <ele>16.3999996185302734375</ele>
        <time>2019-07-09T15:25:03.000Z</time>
      </trkpt>
      <trkpt lat="43.529463149607181549072265625" lon="-7.0464884676039218902587890625">
        <ele>14.19999980926513671875</ele>
        <time>2019-07-09T15:25:05.000Z</time>
      </trkpt>
      <trkpt lat="43.5293032228946685791015625" lon="-7.04670061357319355010986328125">
        <ele>12.6000003814697265625</ele>
        <time>2019-07-09T15:25:07.000Z</time>
      </trkpt>
      <trkpt lat="43.52914824150502681732177734375" lon="-7.0469209738075733184814453125">
        <ele>11.3999996185302734375</ele>
        <time>2019-07-09T15:25:09.000Z</time>
      </trkpt>
      <trkpt lat="43.5290797613561153411865234375" lon="-7.04704259522259235382080078125">
        <ele>10.80000019073486328125</ele>
        <time>2019-07-09T15:25:10.000Z</time>
      </trkpt>
      <trkpt lat="43.52901932783424854278564453125" lon="-7.04717519693076610565185546875">
        <ele>10.19999980926513671875</ele>
        <time>2019-07-09T15:25:11.000Z</time>
      </trkpt>
      <trkpt lat="43.528970293700695037841796875" lon="-7.04731785692274570465087890625">
        <ele>9.6000003814697265625</ele>
        <time>2019-07-09T15:25:12.000Z</time>
      </trkpt>
      <trkpt lat="43.52893400005996227264404296875" lon="-7.047470994293689727783203125">
        <ele>8.80000019073486328125</ele>
        <time>2019-07-09T15:25:13.000Z</time>
      </trkpt>
      <trkpt lat="43.52891103364527225494384765625" lon="-7.04762999899685382843017578125">
        <ele>8.19999980926513671875</ele>
        <time>2019-07-09T15:25:14.000Z</time>
      </trkpt>
      <trkpt lat="43.528899215161800384521484375" lon="-7.04779344610869884490966796875">
        <ele>7.80000019073486328125</ele>
        <time>2019-07-09T15:25:15.000Z</time>
      </trkpt>
      <trkpt lat="43.52889443747699260711669921875" lon="-7.0481249503791332244873046875">
        <ele>6.80000019073486328125</ele>
        <time>2019-07-09T15:25:17.000Z</time>
      </trkpt>
      <trkpt lat="43.52888680994510650634765625" lon="-7.048455365002155303955078125">
        <ele>5</ele>
        <time>2019-07-09T15:25:19.000Z</time>
      </trkpt>
      <trkpt lat="43.52884716354310512542724609375" lon="-7.04877144657075405120849609375">
        <ele>3.599999904632568359375</ele>
        <time>2019-07-09T15:25:21.000Z</time>
      </trkpt>
      <trkpt lat="43.52877859957516193389892578125" lon="-7.0490597002208232879638671875">
        <ele>2.599999904632568359375</ele>
        <time>2019-07-09T15:25:23.000Z</time>
      </trkpt>
      <trkpt lat="43.52875228039920330047607421875" lon="-7.0491953194141387939453125">
        <ele>2</ele>
        <time>2019-07-09T15:25:24.000Z</time>
      </trkpt>
      <trkpt lat="43.52869679220020771026611328125" lon="-7.04955548979341983795166015625">
        <ele>1.60000002384185791015625</ele>
        <time>2019-07-09T15:25:27.000Z</time>
      </trkpt>
      <trkpt lat="43.52859101258218288421630859375" lon="-7.04970083199441432952880859375">
        <ele>1.7999999523162841796875</ele>
        <time>2019-07-09T15:25:29.000Z</time>
      </trkpt>
      <trkpt lat="43.52844332344830036163330078125" lon="-7.04970468766987323760986328125">
        <ele>2.400000095367431640625</ele>
        <time>2019-07-09T15:25:31.000Z</time>
      </trkpt>
      <trkpt lat="43.5283327661454677581787109375" lon="-7.04956806264817714691162109375">
        <ele>2.7999999523162841796875</ele>
        <time>2019-07-09T15:25:33.000Z</time>
      </trkpt>
      <trkpt lat="43.5283161699771881103515625" lon="-7.0493762008845806121826171875">
        <ele>3</ele>
        <time>2019-07-09T15:25:35.000Z</time>
      </trkpt>
      <trkpt lat="43.5284011624753475189208984375" lon="-7.049212418496608734130859375">
        <ele>3</ele>
        <time>2019-07-09T15:25:37.000Z</time>
      </trkpt>
      <trkpt lat="43.52862839587032794952392578125" lon="-7.049037404358386993408203125">
        <ele>2.599999904632568359375</ele>
        <time>2019-07-09T15:25:40.000Z</time>
      </trkpt>
      <trkpt lat="43.5287662781774997711181640625" lon="-7.04884772188961505889892578125">
        <ele>2.599999904632568359375</ele>
        <time>2019-07-09T15:25:42.000Z</time>
      </trkpt>
      <trkpt lat="43.5288386978209018707275390625" lon="-7.04857614822685718536376953125">
        <ele>2.7999999523162841796875</ele>
        <time>2019-07-09T15:25:44.000Z</time>
      </trkpt>
      <trkpt lat="43.52887113578617572784423828125" lon="-7.048107348382472991943359375">
        <ele>3.599999904632568359375</ele>
        <time>2019-07-09T15:25:47.000Z</time>
      </trkpt>
      <trkpt lat="43.52889024652540683746337890625" lon="-7.04762245528399944305419921875">
        <ele>4.80000019073486328125</ele>
        <time>2019-07-09T15:25:50.000Z</time>
      </trkpt>
      <trkpt lat="43.52893349714577198028564453125" lon="-7.04730679281055927276611328125">
        <ele>5.599999904632568359375</ele>
        <time>2019-07-09T15:25:52.000Z</time>
      </trkpt>
      <trkpt lat="43.52897289209067821502685546875" lon="-7.047156505286693572998046875">
        <ele>6</ele>
        <time>2019-07-09T15:25:53.000Z</time>
      </trkpt>
      <trkpt lat="43.52902494370937347412109375" lon="-7.04701535403728485107421875">
        <ele>6.400000095367431640625</ele>
        <time>2019-07-09T15:25:54.000Z</time>
      </trkpt>
      <trkpt lat="43.52916634641587734222412109375" lon="-7.0467610470950603485107421875">
        <ele>7.19999980926513671875</ele>
        <time>2019-07-09T15:25:56.000Z</time>
      </trkpt>
      <trkpt lat="43.5293345712125301361083984375" lon="-7.04653347842395305633544921875">
        <ele>8.19999980926513671875</ele>
        <time>2019-07-09T15:25:58.000Z</time>
      </trkpt>
      <trkpt lat="43.52958208881318569183349609375" lon="-7.0461858808994293212890625">
        <ele>9.6000003814697265625</ele>
        <time>2019-07-09T15:26:01.000Z</time>
      </trkpt>
      <trkpt lat="43.52965283207595348358154296875" lon="-7.04605436883866786956787109375">
        <ele>9.80000019073486328125</ele>
        <time>2019-07-09T15:26:02.000Z</time>
      </trkpt>
      <trkpt lat="43.5297618806362152099609375" lon="-7.04575547017157077789306640625">
        <ele>11.19999980926513671875</ele>
        <time>2019-07-09T15:26:04.000Z</time>
      </trkpt>
      <trkpt lat="43.52980278432369232177734375" lon="-7.0455926097929477691650390625">
        <ele>12.19999980926513671875</ele>
        <time>2019-07-09T15:26:05.000Z</time>
      </trkpt>
      <trkpt lat="43.52983874268829822540283203125" lon="-7.0454219542443752288818359375">
        <ele>13.3999996185302734375</ele>
        <time>2019-07-09T15:26:06.000Z</time>
      </trkpt>
      <trkpt lat="43.52990613318979740142822265625" lon="-7.04507033340632915496826171875">
        <ele>14.80000019073486328125</ele>
        <time>2019-07-09T15:26:08.000Z</time>
      </trkpt>
      <trkpt lat="43.53001224808394908905029296875" lon="-7.04456423409283161163330078125">
        <ele>15.80000019073486328125</ele>
        <time>2019-07-09T15:26:11.000Z</time>
      </trkpt>
      <trkpt lat="43.5300976596772670745849609375" lon="-7.04426432959735393524169921875">
        <ele>17.3999996185302734375</ele>
        <time>2019-07-09T15:26:13.000Z</time>
      </trkpt>
      <trkpt lat="43.53022699244320392608642578125" lon="-7.0440020598471164703369140625">
        <ele>19</ele>
        <time>2019-07-09T15:26:15.000Z</time>
      </trkpt>
      <trkpt lat="43.530388176441192626953125" lon="-7.04377147369086742401123046875">
        <ele>20</ele>
        <time>2019-07-09T15:26:17.000Z</time>
      </trkpt>
      <trkpt lat="43.53055774234235286712646484375" lon="-7.04354231245815753936767578125">
        <ele>21.3999996185302734375</ele>
        <time>2019-07-09T15:26:19.000Z</time>
      </trkpt>
      <trkpt lat="43.530720770359039306640625" lon="-7.04332463443279266357421875">
        <ele>22.6000003814697265625</ele>
        <time>2019-07-09T15:26:21.000Z</time>
      </trkpt>
      <trkpt lat="43.5309345088899135589599609375" lon="-7.04302749596536159515380859375">
        <ele>23.799999237060546875</ele>
        <time>2019-07-09T15:26:24.000Z</time>
      </trkpt>
      <trkpt lat="43.53107004426419734954833984375" lon="-7.04283823259174823760986328125">
        <ele>25.3999996185302734375</ele>
        <time>2019-07-09T15:26:26.000Z</time>
      </trkpt>
      <trkpt lat="43.5311417095363140106201171875" lon="-7.04274133779108524322509765625">
        <ele>26.6000003814697265625</ele>
        <time>2019-07-09T15:26:27.000Z</time>
      </trkpt>
      <trkpt lat="43.5312853753566741943359375" lon="-7.042547129094600677490234375">
        <ele>28</ele>
        <time>2019-07-09T15:26:29.000Z</time>
      </trkpt>
      <trkpt lat="43.53149668313562870025634765625" lon="-7.042256779968738555908203125">
        <ele>29.3999996185302734375</ele>
        <time>2019-07-09T15:26:32.000Z</time>
      </trkpt>
      <trkpt lat="43.53164412081241607666015625" lon="-7.04204748384654521942138671875">
        <ele>30.3999996185302734375</ele>
        <time>2019-07-09T15:26:34.000Z</time>
      </trkpt>
      <trkpt lat="43.5318005271255970001220703125" lon="-7.041823603212833404541015625">
        <ele>31.6000003814697265625</ele>
        <time>2019-07-09T15:26:36.000Z</time>
      </trkpt>
      <trkpt lat="43.5319721885025501251220703125" lon="-7.04159729182720184326171875">
        <ele>32.799999237060546875</ele>
        <time>2019-07-09T15:26:38.000Z</time>
      </trkpt>
      <trkpt lat="43.53225356899201869964599609375" lon="-7.041222788393497467041015625">
        <ele>34.200000762939453125</ele>
        <time>2019-07-09T15:26:41.000Z</time>
      </trkpt>
      <trkpt lat="43.53261147625744342803955078125" lon="-7.0407760329544544219970703125">
        <ele>35.59999847412109375</ele>
        <time>2019-07-09T15:26:45.000Z</time>
      </trkpt>
      <trkpt lat="43.53306946344673633575439453125" lon="-7.04042776487767696380615234375">
        <ele>36.40000152587890625</ele>
        <time>2019-07-09T15:26:50.000Z</time>
      </trkpt>
      <trkpt lat="43.5332715511322021484375" lon="-7.0403220690786838531494140625">
        <ele>36.59999847412109375</ele>
        <time>2019-07-09T15:26:53.000Z</time>
      </trkpt>
      <trkpt lat="43.533412031829357147216796875" lon="-7.04027571715414524078369140625">
        <ele>37.200000762939453125</ele>
        <time>2019-07-09T15:26:56.000Z</time>
      </trkpt>
      <trkpt lat="43.53345603682100772857666015625" lon="-7.04027622006833553314208984375">
        <ele>37.59999847412109375</ele>
        <time>2019-07-09T15:26:57.000Z</time>
      </trkpt>
      <trkpt lat="43.5335033945739269256591796875" lon="-7.040287367999553680419921875">
        <ele>38</ele>
        <time>2019-07-09T15:26:58.000Z</time>
      </trkpt>
      <trkpt lat="43.53361177258193492889404296875" lon="-7.04035618342459201812744140625">
        <ele>38.40000152587890625</ele>
        <time>2019-07-09T15:27:00.000Z</time>
      </trkpt>
      <trkpt lat="43.5337293706834316253662109375" lon="-7.0404803194105625152587890625">
        <ele>38.799999237060546875</ele>
        <time>2019-07-09T15:27:02.000Z</time>
      </trkpt>
      <trkpt lat="43.5341062210500240325927734375" lon="-7.040943838655948638916015625">
        <ele>38.799999237060546875</ele>
        <time>2019-07-09T15:27:09.000Z</time>
      </trkpt>
      <trkpt lat="43.534452728927135467529296875" lon="-7.04134457744657993316650390625">
        <ele>39.59999847412109375</ele>
        <time>2019-07-09T15:27:15.000Z</time>
      </trkpt>
      <trkpt lat="43.53482278995215892791748046875" lon="-7.04175093211233615875244140625">
        <ele>39.799999237060546875</ele>
        <time>2019-07-09T15:27:21.000Z</time>
      </trkpt>
      <trkpt lat="43.53498657234013080596923828125" lon="-7.0419614017009735107421875">
        <ele>40</ele>
        <time>2019-07-09T15:27:24.000Z</time>
      </trkpt>
      <trkpt lat="43.5353091917932033538818359375" lon="-7.04245400615036487579345703125">
        <ele>41</ele>
        <time>2019-07-09T15:27:30.000Z</time>
      </trkpt>
      <trkpt lat="43.53553575463593006134033203125" lon="-7.04286069609224796295166015625">
        <ele>39.799999237060546875</ele>
        <time>2019-07-09T15:27:35.000Z</time>
      </trkpt>
      <trkpt lat="43.53581973351538181304931640625" lon="-7.0433667115867137908935546875">
        <ele>39.200000762939453125</ele>
        <time>2019-07-09T15:27:42.000Z</time>
      </trkpt>
      <trkpt lat="43.53599960915744304656982421875" lon="-7.04368832521140575408935546875">
        <ele>38.59999847412109375</ele>
        <time>2019-07-09T15:27:48.000Z</time>
      </trkpt>
      <trkpt lat="43.53612072765827178955078125" lon="-7.04389460384845733642578125">
        <ele>38.200000762939453125</ele>
        <time>2019-07-09T15:27:55.000Z</time>
      </trkpt>
      <trkpt lat="43.53617093525826930999755859375" lon="-7.04400784336030483245849609375">
        <ele>38.200000762939453125</ele>
        <time>2019-07-09T15:27:57.000Z</time>
      </trkpt>
      <trkpt lat="43.53621804155409336090087890625" lon="-7.04415352083742618560791015625">
        <ele>38</ele>
        <time>2019-07-09T15:27:59.000Z</time>
      </trkpt>
      <trkpt lat="43.5363331250846385955810546875" lon="-7.04481988213956356048583984375">
        <ele>37.799999237060546875</ele>
        <time>2019-07-09T15:28:07.000Z</time>
      </trkpt>
      <trkpt lat="43.53636656887829303741455078125" lon="-7.0449525676667690277099609375">
        <ele>37.40000152587890625</ele>
        <time>2019-07-09T15:28:09.000Z</time>
      </trkpt>
      <trkpt lat="43.5364095680415630340576171875" lon="-7.04512062482535839080810546875">
        <ele>36.799999237060546875</ele>
        <time>2019-07-09T15:28:12.000Z</time>
      </trkpt>
      <trkpt lat="43.53653035126626491546630859375" lon="-7.0456475950777530670166015625">
        <ele>36.59999847412109375</ele>
        <time>2019-07-09T15:28:20.000Z</time>
      </trkpt>
      <trkpt lat="43.53655566461384296417236328125" lon="-7.0458128862082958221435546875">
        <ele>36.40000152587890625</ele>
        <time>2019-07-09T15:28:22.000Z</time>
      </trkpt>
      <trkpt lat="43.5366385616362094879150390625" lon="-7.0464509166777133941650390625">
        <ele>36</ele>
        <time>2019-07-09T15:28:29.000Z</time>
      </trkpt>
      <trkpt lat="43.5366466082632541656494140625" lon="-7.04653264023363590240478515625">
        <ele>35.799999237060546875</ele>
        <time>2019-07-09T15:28:30.000Z</time>
      </trkpt>
      <trkpt lat="43.5367691516876220703125" lon="-7.04720470122992992401123046875">
        <ele>36.200000762939453125</ele>
        <time>2019-07-09T15:28:38.000Z</time>
      </trkpt>
      <trkpt lat="43.53681282140314579010009765625" lon="-7.04738407395780086517333984375">
        <ele>35.59999847412109375</ele>
        <time>2019-07-09T15:28:41.000Z</time>
      </trkpt>
      <trkpt lat="43.53682723827660083770751953125" lon="-7.04748230986297130584716796875">
        <ele>35.40000152587890625</ele>
        <time>2019-07-09T15:28:43.000Z</time>
      </trkpt>
      <trkpt lat="43.5369406454265117645263671875" lon="-7.0479856431484222412109375">
        <ele>36</ele>
        <time>2019-07-09T15:29:34.000Z</time>
      </trkpt>
      <trkpt lat="43.5370378755033016204833984375" lon="-7.04804255627095699310302734375">
        <ele>35.799999237060546875</ele>
        <time>2019-07-09T15:29:39.000Z</time>
      </trkpt>
      <trkpt lat="43.5369376279413700103759765625" lon="-7.04800601117312908172607421875">
        <ele>36</ele>
        <time>2019-07-09T15:29:55.000Z</time>
      </trkpt>
      <trkpt lat="43.53687199763953685760498046875" lon="-7.04793426208198070526123046875">
        <ele>36.40000152587890625</ele>
        <time>2019-07-09T15:30:01.000Z</time>
      </trkpt>
      <trkpt lat="43.53687065653502941131591796875" lon="-7.04792168922722339630126953125">
        <ele>35.40000152587890625</ele>
        <time>2019-07-09T15:31:21.000Z</time>
      </trkpt>
      <trkpt lat="43.53686763904988765716552734375" lon="-7.0479284785687923431396484375">
        <ele>35.40000152587890625</ele>
        <time>2019-07-09T15:31:24.000Z</time>
      </trkpt>
      <trkpt lat="43.53680946864187717437744140625" lon="-7.0479677058756351470947265625">
        <ele>34.799999237060546875</ele>
        <time>2019-07-09T15:34:15.000Z</time>
      </trkpt>
      <trkpt lat="43.53684961795806884765625" lon="-7.04798388294875621795654296875">
        <ele>34.799999237060546875</ele>
        <time>2019-07-09T15:36:02.000Z</time>
      </trkpt>
      <trkpt lat="43.53684785775840282440185546875" lon="-7.04799544997513294219970703125">
        <ele>34.799999237060546875</ele>
        <time>2019-07-09T15:36:42.000Z</time>
      </trkpt>
      <trkpt lat="43.5368605144321918487548828125" lon="-7.04797466285526752471923828125">
        <ele>34.799999237060546875</ele>
        <time>2019-07-09T15:40:01.000Z</time>
      </trkpt>
      <trkpt lat="43.53679471649229526519775390625" lon="-7.04798338003456592559814453125">
        <ele>34.799999237060546875</ele>
        <time>2019-07-09T15:42:57.000Z</time>
      </trkpt>
      <trkpt lat="43.53683813475072383880615234375" lon="-7.04798631370067596435546875">
        <ele>34.799999237060546875</ele>
        <time>2019-07-09T15:47:52.000Z</time>
      </trkpt>
      <trkpt lat="43.53683277033269405364990234375" lon="-7.04801053740084171295166015625">
        <ele>34.799999237060546875</ele>
        <time>2019-07-09T15:56:21.000Z</time>
      </trkpt>
      <trkpt lat="43.53683377616107463836669921875" lon="-7.04802026040852069854736328125">
        <ele>35</ele>
        <time>2019-07-09T15:56:29.000Z</time>
      </trkpt>
      <trkpt lat="43.53678432293236255645751953125" lon="-7.04785379581153392791748046875">
        <ele>35.40000152587890625</ele>
        <time>2019-07-09T15:58:03.000Z</time>
      </trkpt>
      <trkpt lat="43.53674543090164661407470703125" lon="-7.04770493321120738983154296875">
        <ele>35</ele>
        <time>2019-07-09T15:58:18.000Z</time>
      </trkpt>
      <trkpt lat="43.53666915558278560638427734375" lon="-7.04705801792442798614501953125">
        <ele>35</ele>
        <time>2019-07-09T15:58:26.000Z</time>
      </trkpt>
      <trkpt lat="43.5366189479827880859375" lon="-7.04656868241727352142333984375">
        <ele>35</ele>
        <time>2019-07-09T15:58:31.000Z</time>
      </trkpt>
      <trkpt lat="43.5365513898432254791259765625" lon="-7.04589578323066234588623046875">
        <ele>34.799999237060546875</ele>
        <time>2019-07-09T15:58:38.000Z</time>
      </trkpt>
      <trkpt lat="43.5365269146859645843505859375" lon="-7.04574457369744777679443359375">
        <ele>34.799999237060546875</ele>
        <time>2019-07-09T15:58:40.000Z</time>
      </trkpt>
      <trkpt lat="43.53646136820316314697265625" lon="-7.0453247241675853729248046875">
        <ele>35.40000152587890625</ele>
        <time>2019-07-09T15:58:47.000Z</time>
      </trkpt>
      <trkpt lat="43.53636757470667362213134765625" lon="-7.04494158737361431121826171875">
        <ele>35.59999847412109375</ele>
        <time>2019-07-09T15:58:52.000Z</time>
      </trkpt>
      <trkpt lat="43.536328263580799102783203125" lon="-7.04463464207947254180908203125">
        <ele>35.799999237060546875</ele>
        <time>2019-07-09T15:58:55.000Z</time>
      </trkpt>
      <trkpt lat="43.536261208355426788330078125" lon="-7.04430766403675079345703125">
        <ele>36.40000152587890625</ele>
        <time>2019-07-09T15:58:59.000Z</time>
      </trkpt>
      <trkpt lat="43.5361356474459171295166015625" lon="-7.04389728605747222900390625">
        <ele>36.799999237060546875</ele>
        <time>2019-07-09T15:59:05.000Z</time>
      </trkpt>
      <trkpt lat="43.53606934659183025360107421875" lon="-7.0437539555132389068603515625">
        <ele>37.200000762939453125</ele>
        <time>2019-07-09T15:59:07.000Z</time>
      </trkpt>
      <trkpt lat="43.5360297001898288726806640625" lon="-7.04369033686816692352294921875">
        <ele>37.40000152587890625</ele>
        <time>2019-07-09T15:59:08.000Z</time>
      </trkpt>
      <trkpt lat="43.5358550213277339935302734375" lon="-7.043390013277530670166015625">
        <ele>37.59999847412109375</ele>
        <time>2019-07-09T15:59:12.000Z</time>
      </trkpt>
      <trkpt lat="43.53560842573642730712890625" lon="-7.0429553277790546417236328125">
        <ele>38.40000152587890625</ele>
        <time>2019-07-09T15:59:17.000Z</time>
      </trkpt>
      <trkpt lat="43.5353085212409496307373046875" lon="-7.042436487972736358642578125">
        <ele>38.40000152587890625</ele>
        <time>2019-07-09T15:59:25.000Z</time>
      </trkpt>
      <trkpt lat="43.53498506359755992889404296875" lon="-7.0419511757791042327880859375">
        <ele>39.200000762939453125</ele>
        <time>2019-07-09T15:59:31.000Z</time>
      </trkpt>
      <trkpt lat="43.53491566143929958343505859375" lon="-7.04186777584254741668701171875">
        <ele>39.40000152587890625</ele>
        <time>2019-07-09T15:59:32.000Z</time>
      </trkpt>
      <trkpt lat="43.53455758653581142425537109375" lon="-7.04145303927361965179443359375">
        <ele>40</ele>
        <time>2019-07-09T15:59:37.000Z</time>
      </trkpt>
      <trkpt lat="43.53418123908340930938720703125" lon="-7.0410580001771450042724609375">
        <ele>39.40000152587890625</ele>
        <time>2019-07-09T15:59:44.000Z</time>
      </trkpt>
      <trkpt lat="43.533882088959217071533203125" lon="-7.04079606570303440093994140625">
        <ele>38.40000152587890625</ele>
        <time>2019-07-09T15:59:54.000Z</time>
      </trkpt>
      <trkpt lat="43.53350381366908550262451171875" lon="-7.0404110848903656005859375">
        <ele>38.59999847412109375</ele>
        <time>2019-07-09T15:59:59.000Z</time>
      </trkpt>
      <trkpt lat="43.5333528555929660797119140625" lon="-7.0403522439301013946533203125">
        <ele>38.799999237060546875</ele>
        <time>2019-07-09T16:00:01.000Z</time>
      </trkpt>
      <trkpt lat="43.5332133807241916656494140625" lon="-7.040370516479015350341796875">
        <ele>38.799999237060546875</ele>
        <time>2019-07-09T16:00:03.000Z</time>
      </trkpt>
      <trkpt lat="43.5327201895415782928466796875" lon="-7.0406814850866794586181640625">
        <ele>38.59999847412109375</ele>
        <time>2019-07-09T16:00:09.000Z</time>
      </trkpt>
      <trkpt lat="43.5323128290474414825439453125" lon="-7.04113058745861053466796875">
        <ele>38.40000152587890625</ele>
        <time>2019-07-09T16:00:14.000Z</time>
      </trkpt>
      <trkpt lat="43.5320365615189075469970703125" lon="-7.0415411330759525299072265625">
        <ele>37.40000152587890625</ele>
        <time>2019-07-09T16:00:18.000Z</time>
      </trkpt>
      <trkpt lat="43.53179591707885265350341796875" lon="-7.04188940115272998809814453125">
        <ele>36.40000152587890625</ele>
        <time>2019-07-09T16:00:21.000Z</time>
      </trkpt>
      <trkpt lat="43.53157463483512401580810546875" lon="-7.0421942509710788726806640625">
        <ele>35</ele>
        <time>2019-07-09T16:00:24.000Z</time>
      </trkpt>
      <trkpt lat="43.53144303895533084869384765625" lon="-7.04237840138375759124755859375">
        <ele>33.799999237060546875</ele>
        <time>2019-07-09T16:00:26.000Z</time>
      </trkpt>
      <trkpt lat="43.5312483273446559906005859375" lon="-7.0426619611680507659912109375">
        <ele>32.40000152587890625</ele>
        <time>2019-07-09T16:00:29.000Z</time>
      </trkpt>
      <trkpt lat="43.53103584609925746917724609375" lon="-7.04296496696770191192626953125">
        <ele>31.200000762939453125</ele>
        <time>2019-07-09T16:00:32.000Z</time>
      </trkpt>
      <trkpt lat="43.5308052599430084228515625" lon="-7.04329286701977252960205078125">
        <ele>29.799999237060546875</ele>
        <time>2019-07-09T16:00:35.000Z</time>
      </trkpt>
      <trkpt lat="43.530559837818145751953125" lon="-7.0436332561075687408447265625">
        <ele>28.3999996185302734375</ele>
        <time>2019-07-09T16:00:38.000Z</time>
      </trkpt>
      <trkpt lat="43.53039764799177646636962890625" lon="-7.04385981895029544830322265625">
        <ele>27.200000762939453125</ele>
        <time>2019-07-09T16:00:40.000Z</time>
      </trkpt>
      <trkpt lat="43.53024006821215152740478515625" lon="-7.04407959245145320892333984375">
        <ele>26</ele>
        <time>2019-07-09T16:00:42.000Z</time>
      </trkpt>
      <trkpt lat="43.53017016313970088958740234375" lon="-7.04419325105845928192138671875">
        <ele>25.3999996185302734375</ele>
        <time>2019-07-09T16:00:43.000Z</time>
      </trkpt>
      <trkpt lat="43.5301114059984683990478515625" lon="-7.04431177116930484771728515625">
        <ele>24.799999237060546875</ele>
        <time>2019-07-09T16:00:44.000Z</time>
      </trkpt>
      <trkpt lat="43.5300621204078197479248046875" lon="-7.04443749971687793731689453125">
        <ele>24.200000762939453125</ele>
        <time>2019-07-09T16:00:45.000Z</time>
      </trkpt>
      <trkpt lat="43.53002197109162807464599609375" lon="-7.04457010142505168914794921875">
        <ele>23.6000003814697265625</ele>
        <time>2019-07-09T16:00:46.000Z</time>
      </trkpt>
      <trkpt lat="43.529933877289295196533203125" lon="-7.0449854247272014617919921875">
        <ele>22</ele>
        <time>2019-07-09T16:00:49.000Z</time>
      </trkpt>
      <trkpt lat="43.5298807360231876373291015625" lon="-7.04528088681399822235107421875">
        <ele>20.3999996185302734375</ele>
        <time>2019-07-09T16:00:51.000Z</time>
      </trkpt>
      <trkpt lat="43.5297781415283679962158203125" lon="-7.0457679592072963714599609375">
        <ele>19.200000762939453125</ele>
        <time>2019-07-09T16:00:54.000Z</time>
      </trkpt>
      <trkpt lat="43.5297291912138462066650390625" lon="-7.04594154842197895050048828125">
        <ele>18.799999237060546875</ele>
        <time>2019-07-09T16:00:55.000Z</time>
      </trkpt>
      <trkpt lat="43.52957672439515590667724609375" lon="-7.04626793973147869110107421875">
        <ele>18</ele>
        <time>2019-07-09T16:00:57.000Z</time>
      </trkpt>
      <trkpt lat="43.52937086485326290130615234375" lon="-7.0465506613254547119140625">
        <ele>16.799999237060546875</ele>
        <time>2019-07-09T16:00:59.000Z</time>
      </trkpt>
      <trkpt lat="43.52916316129267215728759765625" lon="-7.04683120362460613250732421875">
        <ele>15.6000003814697265625</ele>
        <time>2019-07-09T16:01:01.000Z</time>
      </trkpt>
      <trkpt lat="43.5290710441768169403076171875" lon="-7.04700605012476444244384765625">
        <ele>14.80000019073486328125</ele>
        <time>2019-07-09T16:01:02.000Z</time>
      </trkpt>
      <trkpt lat="43.52899812161922454833984375" lon="-7.0472143404185771942138671875">
        <ele>14</ele>
        <time>2019-07-09T16:01:03.000Z</time>
      </trkpt>
      <trkpt lat="43.5289459861814975738525390625" lon="-7.0474423281848430633544921875">
        <ele>13.19999980926513671875</ele>
        <time>2019-07-09T16:01:04.000Z</time>
      </trkpt>
      <trkpt lat="43.52891371585428714752197265625" lon="-7.04768029041588306427001953125">
        <ele>12.6000003814697265625</ele>
        <time>2019-07-09T16:01:05.000Z</time>
      </trkpt>
      <trkpt lat="43.52889946661889553070068359375" lon="-7.0479127205908298492431640625">
        <ele>11.80000019073486328125</ele>
        <time>2019-07-09T16:01:06.000Z</time>
      </trkpt>
      <trkpt lat="43.52889728732407093048095703125" lon="-7.04813785851001739501953125">
        <ele>11</ele>
        <time>2019-07-09T16:01:07.000Z</time>
      </trkpt>
      <trkpt lat="43.5288853012025356292724609375" lon="-7.0485354959964752197265625">
        <ele>9.19999980926513671875</ele>
        <time>2019-07-09T16:01:09.000Z</time>
      </trkpt>
      <trkpt lat="43.5288641788065433502197265625" lon="-7.04871377907693386077880859375">
        <ele>8.3999996185302734375</ele>
        <time>2019-07-09T16:01:10.000Z</time>
      </trkpt>
      <trkpt lat="43.5288329981267452239990234375" lon="-7.0488776452839374542236328125">
        <ele>7.599999904632568359375</ele>
        <time>2019-07-09T16:01:11.000Z</time>
      </trkpt>
      <trkpt lat="43.52876686491072177886962890625" lon="-7.0491683296859264373779296875">
        <ele>6</ele>
        <time>2019-07-09T16:01:13.000Z</time>
      </trkpt>
      <trkpt lat="43.528738282620906829833984375" lon="-7.04943043179810047149658203125">
        <ele>4.80000019073486328125</ele>
        <time>2019-07-09T16:01:15.000Z</time>
      </trkpt>
      <trkpt lat="43.52871623821556568145751953125" lon="-7.0495441742241382598876953125">
        <ele>4.400000095367431640625</ele>
        <time>2019-07-09T16:01:16.000Z</time>
      </trkpt>
      <trkpt lat="43.5286110453307628631591796875" lon="-7.04969194717705249786376953125">
        <ele>4.19999980926513671875</ele>
        <time>2019-07-09T16:01:18.000Z</time>
      </trkpt>
      <trkpt lat="43.528455980122089385986328125" lon="-7.0496866665780544281005859375">
        <ele>4.19999980926513671875</ele>
        <time>2019-07-09T16:01:20.000Z</time>
      </trkpt>
      <trkpt lat="43.52831709198653697967529296875" lon="-7.049523554742336273193359375">
        <ele>4.19999980926513671875</ele>
        <time>2019-07-09T16:01:22.000Z</time>
      </trkpt>
      <trkpt lat="43.5280122421681880950927734375" lon="-7.04895819537341594696044921875">
        <ele>4.400000095367431640625</ele>
        <time>2019-07-09T16:01:26.000Z</time>
      </trkpt>
      <trkpt lat="43.527709655463695526123046875" lon="-7.04829636029899120330810546875">
        <ele>5</ele>
        <time>2019-07-09T16:01:30.000Z</time>
      </trkpt>
      <trkpt lat="43.5275542549788951873779296875" lon="-7.04762832261621952056884765625">
        <ele>6</ele>
        <time>2019-07-09T16:01:34.000Z</time>
      </trkpt>
      <trkpt lat="43.5274694301187992095947265625" lon="-7.04708668403327465057373046875">
        <ele>7.19999980926513671875</ele>
        <time>2019-07-09T16:01:37.000Z</time>
      </trkpt>
      <trkpt lat="43.52740949951112270355224609375" lon="-7.04671218059957027435302734375">
        <ele>8.3999996185302734375</ele>
        <time>2019-07-09T16:01:39.000Z</time>
      </trkpt>
      <trkpt lat="43.52734713815152645111083984375" lon="-7.0463282056152820587158203125">
        <ele>9.6000003814697265625</ele>
        <time>2019-07-09T16:01:41.000Z</time>
      </trkpt>
      <trkpt lat="43.52728821337223052978515625" lon="-7.0459640957415103912353515625">
        <ele>11</ele>
        <time>2019-07-09T16:01:43.000Z</time>
      </trkpt>
      <trkpt lat="43.5272481478750705718994140625" lon="-7.0458058454096317291259765625">
        <ele>11.80000019073486328125</ele>
        <time>2019-07-09T16:01:44.000Z</time>
      </trkpt>
      <trkpt lat="43.52719190530478954315185546875" lon="-7.0456754229962825775146484375">
        <ele>12.6000003814697265625</ele>
        <time>2019-07-09T16:01:45.000Z</time>
      </trkpt>
      <trkpt lat="43.5271180607378482818603515625" lon="-7.04557995311915874481201171875">
        <ele>13.19999980926513671875</ele>
        <time>2019-07-09T16:01:46.000Z</time>
      </trkpt>
      <trkpt lat="43.5270292125642299652099609375" lon="-7.04552547074854373931884765625">
        <ele>13.6000003814697265625</ele>
        <time>2019-07-09T16:01:47.000Z</time>
      </trkpt>
      <trkpt lat="43.52693491615355014801025390625" lon="-7.0455144904553890228271484375">
        <ele>14</ele>
        <time>2019-07-09T16:01:48.000Z</time>
      </trkpt>
      <trkpt lat="43.5267438925802707672119140625" lon="-7.045602835714817047119140625">
        <ele>14.6000003814697265625</ele>
        <time>2019-07-09T16:01:50.000Z</time>
      </trkpt>
      <trkpt lat="43.52664791978895664215087890625" lon="-7.04568087123334407806396484375">
        <ele>15.19999980926513671875</ele>
        <time>2019-07-09T16:01:51.000Z</time>
      </trkpt>
      <trkpt lat="43.52643736638128757476806640625" lon="-7.0458506047725677490234375">
        <ele>16.6000003814697265625</ele>
        <time>2019-07-09T16:01:53.000Z</time>
      </trkpt>
      <trkpt lat="43.5263144038617610931396484375" lon="-7.045917324721813201904296875">
        <ele>17.3999996185302734375</ele>
        <time>2019-07-09T16:01:54.000Z</time>
      </trkpt>
      <trkpt lat="43.52617702446877956390380859375" lon="-7.04595630057156085968017578125">
        <ele>18.200000762939453125</ele>
        <time>2019-07-09T16:01:55.000Z</time>
      </trkpt>
      <trkpt lat="43.5260304249823093414306640625" lon="-7.0459704659879207611083984375">
        <ele>19.200000762939453125</ele>
        <time>2019-07-09T16:01:56.000Z</time>
      </trkpt>
      <trkpt lat="43.525879383087158203125" lon="-7.04597038216888904571533203125">
        <ele>20.200000762939453125</ele>
        <time>2019-07-09T16:01:57.000Z</time>
      </trkpt>
      <trkpt lat="43.525580652058124542236328125" lon="-7.0459496788680553436279296875">
        <ele>21.799999237060546875</ele>
        <time>2019-07-09T16:01:59.000Z</time>
      </trkpt>
      <trkpt lat="43.5252824239432811737060546875" lon="-7.0459339208900928497314453125">
        <ele>23</ele>
        <time>2019-07-09T16:02:01.000Z</time>
      </trkpt>
      <trkpt lat="43.52482435293495655059814453125" lon="-7.04600105993449687957763671875">
        <ele>24</ele>
        <time>2019-07-09T16:02:04.000Z</time>
      </trkpt>
      <trkpt lat="43.5243666172027587890625" lon="-7.04615159891545772552490234375">
        <ele>24.6000003814697265625</ele>
        <time>2019-07-09T16:02:07.000Z</time>
      </trkpt>
      <trkpt lat="43.5239012539386749267578125" lon="-7.046306245028972625732421875">
        <ele>24.6000003814697265625</ele>
        <time>2019-07-09T16:02:10.000Z</time>
      </trkpt>
      <trkpt lat="43.52345441468060016632080078125" lon="-7.04646105878055095672607421875">
        <ele>24.799999237060546875</ele>
        <time>2019-07-09T16:02:13.000Z</time>
      </trkpt>
      <trkpt lat="43.52292970754206180572509765625" lon="-7.04675945453345775604248046875">
        <ele>24.3999996185302734375</ele>
        <time>2019-07-09T16:02:17.000Z</time>
      </trkpt>
      <trkpt lat="43.52245981805026531219482421875" lon="-7.047182656824588775634765625">
        <ele>23.799999237060546875</ele>
        <time>2019-07-09T16:02:21.000Z</time>
      </trkpt>
      <trkpt lat="43.52212169207632541656494140625" lon="-7.04749437980353832244873046875">
        <ele>23</ele>
        <time>2019-07-09T16:02:24.000Z</time>
      </trkpt>
      <trkpt lat="43.5216644592583179473876953125" lon="-7.0479013212025165557861328125">
        <ele>22</ele>
        <time>2019-07-09T16:02:28.000Z</time>
      </trkpt>
      <trkpt lat="43.52125994861125946044921875" lon="-7.0482976175844669342041015625">
        <ele>21.200000762939453125</ele>
        <time>2019-07-09T16:02:32.000Z</time>
      </trkpt>
      <trkpt lat="43.52116917259991168975830078125" lon="-7.0484075881540775299072265625">
        <ele>20.799999237060546875</ele>
        <time>2019-07-09T16:02:33.000Z</time>
      </trkpt>
      <trkpt lat="43.52100840769708156585693359375" lon="-7.04867069609463214874267578125">
        <ele>20</ele>
        <time>2019-07-09T16:02:35.000Z</time>
      </trkpt>
      <trkpt lat="43.5209422744810581207275390625" lon="-7.0488229952752590179443359375">
        <ele>19.799999237060546875</ele>
        <time>2019-07-09T16:02:36.000Z</time>
      </trkpt>
      <trkpt lat="43.52088821120560169219970703125" lon="-7.0489887893199920654296875">
        <ele>19.6000003814697265625</ele>
        <time>2019-07-09T16:02:37.000Z</time>
      </trkpt>
      <trkpt lat="43.52081604301929473876953125" lon="-7.04934887588024139404296875">
        <ele>19.3999996185302734375</ele>
        <time>2019-07-09T16:02:39.000Z</time>
      </trkpt>
      <trkpt lat="43.52078779600560665130615234375" lon="-7.05008287914097309112548828125">
        <ele>18.799999237060546875</ele>
        <time>2019-07-09T16:02:43.000Z</time>
      </trkpt>
      <trkpt lat="43.52084152400493621826171875" lon="-7.0505342446267604827880859375">
        <ele>17.6000003814697265625</ele>
        <time>2019-07-09T16:02:46.000Z</time>
      </trkpt>
      <trkpt lat="43.52088368497788906097412109375" lon="-7.050805985927581787109375">
        <ele>16</ele>
        <time>2019-07-09T16:02:48.000Z</time>
      </trkpt>
      <trkpt lat="43.5208909772336483001708984375" lon="-7.050948478281497955322265625">
        <ele>15.3999996185302734375</ele>
        <time>2019-07-09T16:02:49.000Z</time>
      </trkpt>
      <trkpt lat="43.52084831334650516510009765625" lon="-7.0512366481125354766845703125">
        <ele>14.80000019073486328125</ele>
        <time>2019-07-09T16:02:51.000Z</time>
      </trkpt>
      <trkpt lat="43.52070481516420841217041015625" lon="-7.05148953013122081756591796875">
        <ele>14.6000003814697265625</ele>
        <time>2019-07-09T16:02:53.000Z</time>
      </trkpt>
      <trkpt lat="43.5204517655074596405029296875" lon="-7.0516500435769557952880859375">
        <ele>14.6000003814697265625</ele>
        <time>2019-07-09T16:02:55.000Z</time>
      </trkpt>
      <trkpt lat="43.520018756389617919921875" lon="-7.05184659920632839202880859375">
        <ele>14.6000003814697265625</ele>
        <time>2019-07-09T16:02:58.000Z</time>
      </trkpt>
      <trkpt lat="43.519499413669109344482421875" lon="-7.05214197747409343719482421875">
        <ele>14</ele>
        <time>2019-07-09T16:03:02.000Z</time>
      </trkpt>
      <trkpt lat="43.51936622522771358489990234375" lon="-7.05224876292049884796142578125">
        <ele>13.80000019073486328125</ele>
        <time>2019-07-09T16:03:03.000Z</time>
      </trkpt>
      <trkpt lat="43.51923848502337932586669921875" lon="-7.052380777895450592041015625">
        <ele>13.3999996185302734375</ele>
        <time>2019-07-09T16:03:04.000Z</time>
      </trkpt>
      <trkpt lat="43.51901502348482608795166015625" lon="-7.05270607955753803253173828125">
        <ele>13</ele>
        <time>2019-07-09T16:03:06.000Z</time>
      </trkpt>
      <trkpt lat="43.51891913451254367828369140625" lon="-7.05289182253181934356689453125">
        <ele>12.6000003814697265625</ele>
        <time>2019-07-09T16:03:07.000Z</time>
      </trkpt>
      <trkpt lat="43.518836237490177154541015625" lon="-7.05308393575251102447509765625">
        <ele>12.19999980926513671875</ele>
        <time>2019-07-09T16:03:08.000Z</time>
      </trkpt>
      <trkpt lat="43.518723584711551666259765625" lon="-7.05350504256784915924072265625">
        <ele>11.6000003814697265625</ele>
        <time>2019-07-09T16:03:10.000Z</time>
      </trkpt>
      <trkpt lat="43.518665917217731475830078125" lon="-7.05414206720888614654541015625">
        <ele>10.80000019073486328125</ele>
        <time>2019-07-09T16:03:13.000Z</time>
      </trkpt>
      <trkpt lat="43.51864571683108806610107421875" lon="-7.05431892536580562591552734375">
        <ele>10</ele>
        <time>2019-07-09T16:03:14.000Z</time>
      </trkpt>
      <trkpt lat="43.5185678489506244659423828125" lon="-7.0545733161270618438720703125">
        <ele>8.6000003814697265625</ele>
        <time>2019-07-09T16:03:16.000Z</time>
      </trkpt>
      <trkpt lat="43.51841940544545650482177734375" lon="-7.05466912128031253814697265625">
        <ele>7.599999904632568359375</ele>
        <time>2019-07-09T16:03:18.000Z</time>
      </trkpt>
      <trkpt lat="43.51833122782409191131591796875" lon="-7.05464196391403675079345703125">
        <ele>7.19999980926513671875</ele>
        <time>2019-07-09T16:03:19.000Z</time>
      </trkpt>
      <trkpt lat="43.51824791170656681060791015625" lon="-7.054566778242588043212890625">
        <ele>6.80000019073486328125</ele>
        <time>2019-07-09T16:03:20.000Z</time>
      </trkpt>
      <trkpt lat="43.51810139603912830352783203125" lon="-7.05429486930370330810546875">
        <ele>6.599999904632568359375</ele>
        <time>2019-07-09T16:03:22.000Z</time>
      </trkpt>
      <trkpt lat="43.5180052556097507476806640625" lon="-7.0538615249097347259521484375">
        <ele>7.19999980926513671875</ele>
        <time>2019-07-09T16:03:24.000Z</time>
      </trkpt>
      <trkpt lat="43.51798321120440959930419921875" lon="-7.0533562637865543365478515625">
        <ele>8.6000003814697265625</ele>
        <time>2019-07-09T16:03:26.000Z</time>
      </trkpt>
      <trkpt lat="43.51800777018070220947265625" lon="-7.05286583863198757171630859375">
        <ele>10.3999996185302734375</ele>
        <time>2019-07-09T16:03:28.000Z</time>
      </trkpt>
      <trkpt lat="43.51803149096667766571044921875" lon="-7.05262712202966213226318359375">
        <ele>11.3999996185302734375</ele>
        <time>2019-07-09T16:03:29.000Z</time>
      </trkpt>
      <trkpt lat="43.5180642642080783843994140625" lon="-7.05239376984536647796630859375">
        <ele>12.80000019073486328125</ele>
        <time>2019-07-09T16:03:30.000Z</time>
      </trkpt>
      <trkpt lat="43.5181001387536525726318359375" lon="-7.05216997303068637847900390625">
        <ele>13.80000019073486328125</ele>
        <time>2019-07-09T16:03:31.000Z</time>
      </trkpt>
      <trkpt lat="43.51818504743278026580810546875" lon="-7.05173428170382976531982421875">
        <ele>15.3999996185302734375</ele>
        <time>2019-07-09T16:03:33.000Z</time>
      </trkpt>
      <trkpt lat="43.51837028749287128448486328125" lon="-7.05113916657865047454833984375">
        <ele>17.200000762939453125</ele>
        <time>2019-07-09T16:03:36.000Z</time>
      </trkpt>
      <trkpt lat="43.51843197830021381378173828125" lon="-7.0509717799723148345947265625">
        <ele>18.200000762939453125</ele>
        <time>2019-07-09T16:03:37.000Z</time>
      </trkpt>
      <trkpt lat="43.51851915009319782257080078125" lon="-7.05066542141139507293701171875">
        <ele>19.799999237060546875</ele>
        <time>2019-07-09T16:03:39.000Z</time>
      </trkpt>
      <trkpt lat="43.5185004584491252899169921875" lon="-7.05039166845381259918212890625">
        <ele>20.799999237060546875</ele>
        <time>2019-07-09T16:03:41.000Z</time>
      </trkpt>
      <trkpt lat="43.518447317183017730712890625" lon="-7.05029360018670558929443359375">
        <ele>21</ele>
        <time>2019-07-09T16:03:42.000Z</time>
      </trkpt>
      <trkpt lat="43.5183774121105670928955078125" lon="-7.050241716206073760986328125">
        <ele>21.3999996185302734375</ele>
        <time>2019-07-09T16:03:43.000Z</time>
      </trkpt>
      <trkpt lat="43.51820868439972400665283203125" lon="-7.050260491669178009033203125">
        <ele>22</ele>
        <time>2019-07-09T16:03:45.000Z</time>
      </trkpt>
      <trkpt lat="43.5181172378361225128173828125" lon="-7.0503245294094085693359375">
        <ele>22.6000003814697265625</ele>
        <time>2019-07-09T16:03:46.000Z</time>
      </trkpt>
      <trkpt lat="43.51790291257202625274658203125" lon="-7.0505359210073947906494140625">
        <ele>23.799999237060546875</ele>
        <time>2019-07-09T16:03:48.000Z</time>
      </trkpt>
      <trkpt lat="43.5176398046314716339111328125" lon="-7.05078075639903545379638671875">
        <ele>25.3999996185302734375</ele>
        <time>2019-07-09T16:03:50.000Z</time>
      </trkpt>
      <trkpt lat="43.5173336975276470184326171875" lon="-7.05105635337531566619873046875">
        <ele>27.3999996185302734375</ele>
        <time>2019-07-09T16:03:52.000Z</time>
      </trkpt>
      <trkpt lat="43.51717100478708744049072265625" lon="-7.0512004382908344268798828125">
        <ele>28.6000003814697265625</ele>
        <time>2019-07-09T16:03:53.000Z</time>
      </trkpt>
      <trkpt lat="43.51700923405587673187255859375" lon="-7.0513479597866535186767578125">
        <ele>30</ele>
        <time>2019-07-09T16:03:54.000Z</time>
      </trkpt>
      <trkpt lat="43.51685601286590099334716796875" lon="-7.05149740912020206451416015625">
        <ele>31.3999996185302734375</ele>
        <time>2019-07-09T16:03:55.000Z</time>
      </trkpt>
      <trkpt lat="43.5167063958942890167236328125" lon="-7.05163788981735706329345703125">
        <ele>32.59999847412109375</ele>
        <time>2019-07-09T16:03:56.000Z</time>
      </trkpt>
      <trkpt lat="43.5164116881787776947021484375" lon="-7.05191147513687610626220703125">
        <ele>34.200000762939453125</ele>
        <time>2019-07-09T16:03:58.000Z</time>
      </trkpt>
      <trkpt lat="43.51613835431635379791259765625" lon="-7.05220215953886508941650390625">
        <ele>35.59999847412109375</ele>
        <time>2019-07-09T16:04:00.000Z</time>
      </trkpt>
      <trkpt lat="43.515900559723377227783203125" lon="-7.05253802239894866943359375">
        <ele>37.200000762939453125</ele>
        <time>2019-07-09T16:04:02.000Z</time>
      </trkpt>
      <trkpt lat="43.515698052942752838134765625" lon="-7.05285854637622833251953125">
        <ele>38.40000152587890625</ele>
        <time>2019-07-09T16:04:04.000Z</time>
      </trkpt>
      <trkpt lat="43.51559688337147235870361328125" lon="-7.0529881305992603302001953125">
        <ele>38.59999847412109375</ele>
        <time>2019-07-09T16:04:05.000Z</time>
      </trkpt>
      <trkpt lat="43.51534970104694366455078125" lon="-7.05316565930843353271484375">
        <ele>38.799999237060546875</ele>
        <time>2019-07-09T16:04:07.000Z</time>
      </trkpt>
      <trkpt lat="43.515045940876007080078125" lon="-7.053237073123455047607421875">
        <ele>39</ele>
        <time>2019-07-09T16:04:09.000Z</time>
      </trkpt>
      <trkpt lat="43.51472265087068080902099609375" lon="-7.0532094128429889678955078125">
        <ele>39.40000152587890625</ele>
        <time>2019-07-09T16:04:11.000Z</time>
      </trkpt>
      <trkpt lat="43.5145644843578338623046875" lon="-7.0531316287815570831298828125">
        <ele>39.40000152587890625</ele>
        <time>2019-07-09T16:04:12.000Z</time>
      </trkpt>
      <trkpt lat="43.514417968690395355224609375" lon="-7.0530243404209613800048828125">
        <ele>39.799999237060546875</ele>
        <time>2019-07-09T16:04:13.000Z</time>
      </trkpt>
      <trkpt lat="43.5140443034470081329345703125" lon="-7.0525616593658924102783203125">
        <ele>40.40000152587890625</ele>
        <time>2019-07-09T16:04:16.000Z</time>
      </trkpt>
      <trkpt lat="43.51393659599125385284423828125" lon="-7.05240852199494838714599609375">
        <ele>40.59999847412109375</ele>
        <time>2019-07-09T16:04:17.000Z</time>
      </trkpt>
      <trkpt lat="43.5138233564794063568115234375" lon="-7.0522699691355228424072265625">
        <ele>40.799999237060546875</ele>
        <time>2019-07-09T16:04:18.000Z</time>
      </trkpt>
      <trkpt lat="43.5135559737682342529296875" lon="-7.052060253918170928955078125">
        <ele>41.200000762939453125</ele>
        <time>2019-07-09T16:04:20.000Z</time>
      </trkpt>
      <trkpt lat="43.51325221359729766845703125" lon="-7.0519356988370418548583984375">
        <ele>41.40000152587890625</ele>
        <time>2019-07-09T16:04:22.000Z</time>
      </trkpt>
      <trkpt lat="43.51309672929346561431884765625" lon="-7.0519075356423854827880859375">
        <ele>41.799999237060546875</ele>
        <time>2019-07-09T16:04:23.000Z</time>
      </trkpt>
      <trkpt lat="43.512940071523189544677734375" lon="-7.05191063694655895233154296875">
        <ele>42.40000152587890625</ele>
        <time>2019-07-09T16:04:24.000Z</time>
      </trkpt>
      <trkpt lat="43.51278106682002544403076171875" lon="-7.05194382928311824798583984375">
        <ele>42.799999237060546875</ele>
        <time>2019-07-09T16:04:25.000Z</time>
      </trkpt>
      <trkpt lat="43.51228661835193634033203125" lon="-7.05213108099997043609619140625">
        <ele>43.799999237060546875</ele>
        <time>2019-07-09T16:04:28.000Z</time>
      </trkpt>
      <trkpt lat="43.5121164657175540924072265625" lon="-7.05220936797559261322021484375">
        <ele>44</ele>
        <time>2019-07-09T16:04:29.000Z</time>
      </trkpt>
      <trkpt lat="43.511621765792369842529296875" lon="-7.05252151004970073699951171875">
        <ele>44.799999237060546875</ele>
        <time>2019-07-09T16:04:32.000Z</time>
      </trkpt>
      <trkpt lat="43.5111874155700206756591796875" lon="-7.0529147051274776458740234375">
        <ele>44.59999847412109375</ele>
        <time>2019-07-09T16:04:35.000Z</time>
      </trkpt>
      <trkpt lat="43.51082607172429561614990234375" lon="-7.05345190130174160003662109375">
        <ele>43.59999847412109375</ele>
        <time>2019-07-09T16:04:38.000Z</time>
      </trkpt>
      <trkpt lat="43.5106162726879119873046875" lon="-7.0538585074245929718017578125">
        <ele>42.799999237060546875</ele>
        <time>2019-07-09T16:04:40.000Z</time>
      </trkpt>
      <trkpt lat="43.5104025341570377349853515625" lon="-7.054220102727413177490234375">
        <ele>41.799999237060546875</ele>
        <time>2019-07-09T16:04:42.000Z</time>
      </trkpt>
      <trkpt lat="43.5102908872067928314208984375" lon="-7.05436653457581996917724609375">
        <ele>41.40000152587890625</ele>
        <time>2019-07-09T16:04:43.000Z</time>
      </trkpt>
      <trkpt lat="43.510186113417148590087890625" lon="-7.0544827915728092193603515625">
        <ele>41.200000762939453125</ele>
        <time>2019-07-09T16:04:44.000Z</time>
      </trkpt>
      <trkpt lat="43.50998436100780963897705078125" lon="-7.05460055731236934661865234375">
        <ele>40.59999847412109375</ele>
        <time>2019-07-09T16:04:46.000Z</time>
      </trkpt>
      <trkpt lat="43.50989006459712982177734375" lon="-7.0545904152095317840576171875">
        <ele>40</ele>
        <time>2019-07-09T16:04:47.000Z</time>
      </trkpt>
      <trkpt lat="43.50980465300381183624267578125" lon="-7.05453869886696338653564453125">
        <ele>39.40000152587890625</ele>
        <time>2019-07-09T16:04:48.000Z</time>
      </trkpt>
      <trkpt lat="43.5096816904842853546142578125" lon="-7.0543124713003635406494140625">
        <ele>38.799999237060546875</ele>
        <time>2019-07-09T16:04:50.000Z</time>
      </trkpt>
      <trkpt lat="43.50956576876342296600341796875" lon="-7.05375867895781993865966796875">
        <ele>39.200000762939453125</ele>
        <time>2019-07-09T16:04:53.000Z</time>
      </trkpt>
      <trkpt lat="43.50942545570433139801025390625" lon="-7.05335265956819057464599609375">
        <ele>40.40000152587890625</ele>
        <time>2019-07-09T16:04:55.000Z</time>
      </trkpt>
      <trkpt lat="43.5092351026833057403564453125" lon="-7.05302643589675426483154296875">
        <ele>41.59999847412109375</ele>
        <time>2019-07-09T16:04:57.000Z</time>
      </trkpt>
      <trkpt lat="43.5090004093945026397705078125" lon="-7.05283842980861663818359375">
        <ele>42.200000762939453125</ele>
        <time>2019-07-09T16:04:59.000Z</time>
      </trkpt>
      <trkpt lat="43.50853512994945049285888671875" lon="-7.0527698658406734466552734375">
        <ele>42.59999847412109375</ele>
        <time>2019-07-09T16:05:02.000Z</time>
      </trkpt>
      <trkpt lat="43.50835910998284816741943359375" lon="-7.052762322127819061279296875">
        <ele>42.799999237060546875</ele>
        <time>2019-07-09T16:05:03.000Z</time>
      </trkpt>
      <trkpt lat="43.50784848444163799285888671875" lon="-7.05274782143533229827880859375">
        <ele>44.40000152587890625</ele>
        <time>2019-07-09T16:05:06.000Z</time>
      </trkpt>
      <trkpt lat="43.507704399526119232177734375" lon="-7.052769698202610015869140625">
        <ele>44.59999847412109375</ele>
        <time>2019-07-09T16:05:07.000Z</time>
      </trkpt>
      <trkpt lat="43.5074490867555141448974609375" lon="-7.0528922416269779205322265625">
        <ele>44.40000152587890625</ele>
        <time>2019-07-09T16:05:09.000Z</time>
      </trkpt>
      <trkpt lat="43.50724406540393829345703125" lon="-7.0531373284757137298583984375">
        <ele>43.40000152587890625</ele>
        <time>2019-07-09T16:05:11.000Z</time>
      </trkpt>
      <trkpt lat="43.5071657784283161163330078125" lon="-7.0532989315688610076904296875">
        <ele>43</ele>
        <time>2019-07-09T16:05:12.000Z</time>
      </trkpt>
      <trkpt lat="43.50703041069209575653076171875" lon="-7.0536161027848720550537109375">
        <ele>42.200000762939453125</ele>
        <time>2019-07-09T16:05:14.000Z</time>
      </trkpt>
      <trkpt lat="43.5069572366774082183837890625" lon="-7.053724229335784912109375">
        <ele>42</ele>
        <time>2019-07-09T16:05:15.000Z</time>
      </trkpt>
      <trkpt lat="43.5068745911121368408203125" lon="-7.05380402505397796630859375">
        <ele>41.59999847412109375</ele>
        <time>2019-07-09T16:05:16.000Z</time>
      </trkpt>
      <trkpt lat="43.50666713900864124298095703125" lon="-7.0538256503641605377197265625">
        <ele>41</ele>
        <time>2019-07-09T16:05:18.000Z</time>
      </trkpt>
      <trkpt lat="43.506548702716827392578125" lon="-7.0537676475942134857177734375">
        <ele>40.59999847412109375</ele>
        <time>2019-07-09T16:05:19.000Z</time>
      </trkpt>
      <trkpt lat="43.506176210939884185791015625" lon="-7.05355030484497547149658203125">
        <ele>40.200000762939453125</ele>
        <time>2019-07-09T16:05:22.000Z</time>
      </trkpt>
      <trkpt lat="43.50590690039098262786865234375" lon="-7.053550891578197479248046875">
        <ele>40.200000762939453125</ele>
        <time>2019-07-09T16:05:24.000Z</time>
      </trkpt>
      <trkpt lat="43.5054431296885013580322265625" lon="-7.053816430270671844482421875">
        <ele>40.40000152587890625</ele>
        <time>2019-07-09T16:05:27.000Z</time>
      </trkpt>
      <trkpt lat="43.50500266067683696746826171875" lon="-7.05423058010637760162353515625">
        <ele>40.200000762939453125</ele>
        <time>2019-07-09T16:05:30.000Z</time>
      </trkpt>
      <trkpt lat="43.50474148057401180267333984375" lon="-7.0544817857444286346435546875">
        <ele>39.799999237060546875</ele>
        <time>2019-07-09T16:05:32.000Z</time>
      </trkpt>
      <trkpt lat="43.5045972280204296112060546875" lon="-7.05456518568098545074462890625">
        <ele>39.40000152587890625</ele>
        <time>2019-07-09T16:05:33.000Z</time>
      </trkpt>
      <trkpt lat="43.5044391453266143798828125" lon="-7.05461178906261920928955078125">
        <ele>39</ele>
        <time>2019-07-09T16:05:34.000Z</time>
      </trkpt>
      <trkpt lat="43.503945283591747283935546875" lon="-7.05458027310669422149658203125">
        <ele>38.200000762939453125</ele>
        <time>2019-07-09T16:05:37.000Z</time>
      </trkpt>
      <trkpt lat="43.5037754662334918975830078125" lon="-7.05459150485694408416748046875">
        <ele>38.200000762939453125</ele>
        <time>2019-07-09T16:05:38.000Z</time>
      </trkpt>
      <trkpt lat="43.503436334431171417236328125" lon="-7.05470818094909191131591796875">
        <ele>38</ele>
        <time>2019-07-09T16:05:40.000Z</time>
      </trkpt>
      <trkpt lat="43.50311052985489368438720703125" lon="-7.05493264831602573394775390625">
        <ele>37.59999847412109375</ele>
        <time>2019-07-09T16:05:42.000Z</time>
      </trkpt>
      <trkpt lat="43.5028199292719364166259765625" lon="-7.05520405434072017669677734375">
        <ele>37</ele>
        <time>2019-07-09T16:05:44.000Z</time>
      </trkpt>
      <trkpt lat="43.50266343913972377777099609375" lon="-7.0553005300462245941162109375">
        <ele>36.799999237060546875</ele>
        <time>2019-07-09T16:05:45.000Z</time>
      </trkpt>
      <trkpt lat="43.50214116275310516357421875" lon="-7.0554457046091556549072265625">
        <ele>36.59999847412109375</ele>
        <time>2019-07-09T16:05:48.000Z</time>
      </trkpt>
      <trkpt lat="43.501636572182178497314453125" lon="-7.05555508844554424285888671875">
        <ele>36.200000762939453125</ele>
        <time>2019-07-09T16:05:51.000Z</time>
      </trkpt>
      <trkpt lat="43.50132049061357975006103515625" lon="-7.05568157136440277099609375">
        <ele>35.799999237060546875</ele>
        <time>2019-07-09T16:05:53.000Z</time>
      </trkpt>
      <trkpt lat="43.50090038962662220001220703125" lon="-7.05592908896505832672119140625">
        <ele>34.799999237060546875</ele>
        <time>2019-07-09T16:05:56.000Z</time>
      </trkpt>
      <trkpt lat="43.50041541270911693572998046875" lon="-7.05615607090294361114501953125">
        <ele>34.200000762939453125</ele>
        <time>2019-07-09T16:06:00.000Z</time>
      </trkpt>
      <trkpt lat="43.50028817541897296905517578125" lon="-7.0561863295733928680419921875">
        <ele>34</ele>
        <time>2019-07-09T16:06:01.000Z</time>
      </trkpt>
      <trkpt lat="43.5000188648700714111328125" lon="-7.05619923770427703857421875">
        <ele>34</ele>
        <time>2019-07-09T16:06:03.000Z</time>
      </trkpt>
      <trkpt lat="43.49949105642735958099365234375" lon="-7.05606873147189617156982421875">
        <ele>34.200000762939453125</ele>
        <time>2019-07-09T16:06:07.000Z</time>
      </trkpt>
      <trkpt lat="43.4990437142550945281982421875" lon="-7.05581107176840305328369140625">
        <ele>33.59999847412109375</ele>
        <time>2019-07-09T16:06:11.000Z</time>
      </trkpt>
      <trkpt lat="43.4986065141856670379638671875" lon="-7.05562549643218517303466796875">
        <ele>33.200000762939453125</ele>
        <time>2019-07-09T16:06:15.000Z</time>
      </trkpt>
      <trkpt lat="43.49808423779904842376708984375" lon="-7.0554651506245136260986328125">
        <ele>33.200000762939453125</ele>
        <time>2019-07-09T16:06:19.000Z</time>
      </trkpt>
      <trkpt lat="43.4976731054484844207763671875" lon="-7.055414021015167236328125">
        <ele>32.40000152587890625</ele>
        <time>2019-07-09T16:06:22.000Z</time>
      </trkpt>
      <trkpt lat="43.49725090898573398590087890625" lon="-7.05549113452434539794921875">
        <ele>31.3999996185302734375</ele>
        <time>2019-07-09T16:06:25.000Z</time>
      </trkpt>
      <trkpt lat="43.496970869600772857666015625" lon="-7.0555670745670795440673828125">
        <ele>30.200000762939453125</ele>
        <time>2019-07-09T16:06:27.000Z</time>
      </trkpt>
      <trkpt lat="43.49669083021581172943115234375" lon="-7.0556810684502124786376953125">
        <ele>28.6000003814697265625</ele>
        <time>2019-07-09T16:06:29.000Z</time>
      </trkpt>
      <trkpt lat="43.49643803201615810394287109375" lon="-7.05583588220179080963134765625">
        <ele>27.6000003814697265625</ele>
        <time>2019-07-09T16:06:31.000Z</time>
      </trkpt>
      <trkpt lat="43.49612270481884479522705078125" lon="-7.0561015047132968902587890625">
        <ele>26</ele>
        <time>2019-07-09T16:06:34.000Z</time>
      </trkpt>
      <trkpt lat="43.49591709673404693603515625" lon="-7.0562852360308170318603515625">
        <ele>24</ele>
        <time>2019-07-09T16:06:36.000Z</time>
      </trkpt>
      <trkpt lat="43.4957160986959934234619140625" lon="-7.05648480914533138275146484375">
        <ele>22.6000003814697265625</ele>
        <time>2019-07-09T16:06:38.000Z</time>
      </trkpt>
      <trkpt lat="43.4956282563507556915283203125" lon="-7.05659930594265460968017578125">
        <ele>22.200000762939453125</ele>
        <time>2019-07-09T16:06:39.000Z</time>
      </trkpt>
      <trkpt lat="43.49555692635476589202880859375" lon="-7.0567309856414794921875">
        <ele>21.6000003814697265625</ele>
        <time>2019-07-09T16:06:40.000Z</time>
      </trkpt>
      <trkpt lat="43.4954985044896602630615234375" lon="-7.056873477995395660400390625">
        <ele>20.799999237060546875</ele>
        <time>2019-07-09T16:06:41.000Z</time>
      </trkpt>
      <trkpt lat="43.49544829688966274261474609375" lon="-7.057027034461498260498046875">
        <ele>20</ele>
        <time>2019-07-09T16:06:42.000Z</time>
      </trkpt>
      <trkpt lat="43.4953767992556095123291015625" lon="-7.05737647600471973419189453125">
        <ele>19</ele>
        <time>2019-07-09T16:06:44.000Z</time>
      </trkpt>
      <trkpt lat="43.4953717701137065887451171875" lon="-7.057743184268474578857421875">
        <ele>17.6000003814697265625</ele>
        <time>2019-07-09T16:06:46.000Z</time>
      </trkpt>
      <trkpt lat="43.49545173346996307373046875" lon="-7.05811165273189544677734375">
        <ele>16</ele>
        <time>2019-07-09T16:06:48.000Z</time>
      </trkpt>
      <trkpt lat="43.49555726163089275360107421875" lon="-7.0584474317729473114013671875">
        <ele>14.3999996185302734375</ele>
        <time>2019-07-09T16:06:50.000Z</time>
      </trkpt>
      <trkpt lat="43.495648205280303955078125" lon="-7.05876049585640430450439453125">
        <ele>12.80000019073486328125</ele>
        <time>2019-07-09T16:06:52.000Z</time>
      </trkpt>
      <trkpt lat="43.4957150928676128387451171875" lon="-7.0590484142303466796875">
        <ele>11.3999996185302734375</ele>
        <time>2019-07-09T16:06:54.000Z</time>
      </trkpt>
      <trkpt lat="43.49575943313539028167724609375" lon="-7.05931755714118480682373046875">
        <ele>10.19999980926513671875</ele>
        <time>2019-07-09T16:06:56.000Z</time>
      </trkpt>
      <trkpt lat="43.49578156135976314544677734375" lon="-7.0595813356339931488037109375">
        <ele>9.19999980926513671875</ele>
        <time>2019-07-09T16:06:58.000Z</time>
      </trkpt>
      <trkpt lat="43.4957764483988285064697265625" lon="-7.05971150659024715423583984375">
        <ele>8.80000019073486328125</ele>
        <time>2019-07-09T16:06:59.000Z</time>
      </trkpt>
      <trkpt lat="43.49575373344123363494873046875" lon="-7.0598356425762176513671875">
        <ele>8.3999996185302734375</ele>
        <time>2019-07-09T16:07:00.000Z</time>
      </trkpt>
      <trkpt lat="43.49564895965158939361572265625" lon="-7.06002968363463878631591796875">
        <ele>7.599999904632568359375</ele>
        <time>2019-07-09T16:07:02.000Z</time>
      </trkpt>
      <trkpt lat="43.49547193385660648345947265625" lon="-7.0601187832653522491455078125">
        <ele>6.80000019073486328125</ele>
        <time>2019-07-09T16:07:04.000Z</time>
      </trkpt>
      <trkpt lat="43.49536732770502567291259765625" lon="-7.060129009187221527099609375">
        <ele>6.400000095367431640625</ele>
        <time>2019-07-09T16:07:05.000Z</time>
      </trkpt>
      <trkpt lat="43.49494077265262603759765625" lon="-7.06006103195250034332275390625">
        <ele>5.80000019073486328125</ele>
        <time>2019-07-09T16:07:09.000Z</time>
      </trkpt>
      <trkpt lat="43.49473801441490650177001953125" lon="-7.059937231242656707763671875">
        <ele>5.400000095367431640625</ele>
        <time>2019-07-09T16:07:11.000Z</time>
      </trkpt>
      <trkpt lat="43.49460273049771785736083984375" lon="-7.059687115252017974853515625">
        <ele>5</ele>
        <time>2019-07-09T16:07:13.000Z</time>
      </trkpt>
      <trkpt lat="43.49447767250239849090576171875" lon="-7.05897088162600994110107421875">
        <ele>5.19999980926513671875</ele>
        <time>2019-07-09T16:07:17.000Z</time>
      </trkpt>
      <trkpt lat="43.49427583627402782440185546875" lon="-7.0582422427833080291748046875">
        <ele>5.400000095367431640625</ele>
        <time>2019-07-09T16:07:21.000Z</time>
      </trkpt>
      <trkpt lat="43.49406176246702671051025390625" lon="-7.05764570273458957672119140625">
        <ele>6.19999980926513671875</ele>
        <time>2019-07-09T16:07:25.000Z</time>
      </trkpt>
      <trkpt lat="43.4937949664890766143798828125" lon="-7.0571133680641651153564453125">
        <ele>6</ele>
        <time>2019-07-09T16:07:29.000Z</time>
      </trkpt>
      <trkpt lat="43.49371433258056640625" lon="-7.0569906570017337799072265625">
        <ele>6.19999980926513671875</ele>
        <time>2019-07-09T16:07:30.000Z</time>
      </trkpt>
      <trkpt lat="43.4935334511101245880126953125" lon="-7.0567841269075870513916015625">
        <ele>6.599999904632568359375</ele>
        <time>2019-07-09T16:07:32.000Z</time>
      </trkpt>
      <trkpt lat="43.49328358657658100128173828125" lon="-7.056512720882892608642578125">
        <ele>8</ele>
        <time>2019-07-09T16:07:35.000Z</time>
      </trkpt>
      <trkpt lat="43.493041098117828369140625" lon="-7.056207619607448577880859375">
        <ele>9</ele>
        <time>2019-07-09T16:07:38.000Z</time>
      </trkpt>
      <trkpt lat="43.492973037064075469970703125" lon="-7.05608683638274669647216796875">
        <ele>9.3999996185302734375</ele>
        <time>2019-07-09T16:07:39.000Z</time>
      </trkpt>
      <trkpt lat="43.492764495313167572021484375" lon="-7.05552709288895130157470703125">
        <ele>9.80000019073486328125</ele>
        <time>2019-07-09T16:07:44.000Z</time>
      </trkpt>
      <trkpt lat="43.492702804505825042724609375" lon="-7.05540220253169536590576171875">
        <ele>9.80000019073486328125</ele>
        <time>2019-07-09T16:07:45.000Z</time>
      </trkpt>
      <trkpt lat="43.492517732083797454833984375" lon="-7.05516566522419452667236328125">
        <ele>9.19999980926513671875</ele>
        <time>2019-07-09T16:07:47.000Z</time>
      </trkpt>
      <trkpt lat="43.4922691248357295989990234375" lon="-7.05498981289565563201904296875">
        <ele>8.3999996185302734375</ele>
        <time>2019-07-09T16:07:49.000Z</time>
      </trkpt>
      <trkpt lat="43.49212420172989368438720703125" lon="-7.05492862500250339508056640625">
        <ele>7.80000019073486328125</ele>
        <time>2019-07-09T16:07:50.000Z</time>
      </trkpt>
      <trkpt lat="43.49153663031756877899169921875" lon="-7.05476417206227779388427734375">
        <ele>6.80000019073486328125</ele>
        <time>2019-07-09T16:07:53.000Z</time>
      </trkpt>
      <trkpt lat="43.4910158626735210418701171875" lon="-7.0546712167561054229736328125">
        <ele>7.19999980926513671875</ele>
        <time>2019-07-09T16:07:55.000Z</time>
      </trkpt>
      <trkpt lat="43.4905129484832286834716796875" lon="-7.0546071790158748626708984375">
        <ele>7.80000019073486328125</ele>
        <time>2019-07-09T16:07:57.000Z</time>
      </trkpt>
      <trkpt lat="43.4900449030101299285888671875" lon="-7.0545354299247264862060546875">
        <ele>8</ele>
        <time>2019-07-09T16:07:59.000Z</time>
      </trkpt>
      <trkpt lat="43.48940393887460231781005859375" lon="-7.05441766418516635894775390625">
        <ele>6.599999904632568359375</ele>
        <time>2019-07-09T16:08:02.000Z</time>
      </trkpt>
      <trkpt lat="43.48881863057613372802734375" lon="-7.0543097890913486480712890625">
        <ele>5.599999904632568359375</ele>
        <time>2019-07-09T16:08:05.000Z</time>
      </trkpt>
      <trkpt lat="43.4882142953574657440185546875" lon="-7.05428908579051494598388671875">
        <ele>5</ele>
        <time>2019-07-09T16:08:08.000Z</time>
      </trkpt>
      <trkpt lat="43.4875980578362941741943359375" lon="-7.05445186235010623931884765625">
        <ele>5.19999980926513671875</ele>
        <time>2019-07-09T16:08:11.000Z</time>
      </trkpt>
      <trkpt lat="43.48696882836520671844482421875" lon="-7.05469443462789058685302734375">
        <ele>5.599999904632568359375</ele>
        <time>2019-07-09T16:08:14.000Z</time>
      </trkpt>
      <trkpt lat="43.4863189794123172760009765625" lon="-7.054947651922702789306640625">
        <ele>6.19999980926513671875</ele>
        <time>2019-07-09T16:08:17.000Z</time>
      </trkpt>
      <trkpt lat="43.485871888697147369384765625" lon="-7.05512040294706821441650390625">
        <ele>6.400000095367431640625</ele>
        <time>2019-07-09T16:08:19.000Z</time>
      </trkpt>
      <trkpt lat="43.4854197688400745391845703125" lon="-7.0552965067327022552490234375">
        <ele>6.400000095367431640625</ele>
        <time>2019-07-09T16:08:21.000Z</time>
      </trkpt>
      <trkpt lat="43.4849664755165576934814453125" lon="-7.05547462217509746551513671875">
        <ele>6.599999904632568359375</ele>
        <time>2019-07-09T16:08:23.000Z</time>
      </trkpt>
      <trkpt lat="43.484511338174343109130859375" lon="-7.05565567128360271453857421875">
        <ele>6.599999904632568359375</ele>
        <time>2019-07-09T16:08:25.000Z</time>
      </trkpt>
      <trkpt lat="43.4840568713843822479248046875" lon="-7.05583219416439533233642578125">
        <ele>6.599999904632568359375</ele>
        <time>2019-07-09T16:08:27.000Z</time>
      </trkpt>
      <trkpt lat="43.4836096130311489105224609375" lon="-7.056009806692600250244140625">
        <ele>6.19999980926513671875</ele>
        <time>2019-07-09T16:08:29.000Z</time>
      </trkpt>
      <trkpt lat="43.48316989839076995849609375" lon="-7.05618121661245822906494140625">
        <ele>6.19999980926513671875</ele>
        <time>2019-07-09T16:08:31.000Z</time>
      </trkpt>
      <trkpt lat="43.4827231429517269134521484375" lon="-7.0563516207039356231689453125">
        <ele>6.19999980926513671875</ele>
        <time>2019-07-09T16:08:33.000Z</time>
      </trkpt>
      <trkpt lat="43.4822787344455718994140625" lon="-7.05651682801544666290283203125">
        <ele>6.400000095367431640625</ele>
        <time>2019-07-09T16:08:35.000Z</time>
      </trkpt>
      <trkpt lat="43.48183147609233856201171875" lon="-7.05664507113397121429443359375">
        <ele>6.599999904632568359375</ele>
        <time>2019-07-09T16:08:37.000Z</time>
      </trkpt>
      <trkpt lat="43.48137156106531620025634765625" lon="-7.056707851588726043701171875">
        <ele>6.80000019073486328125</ele>
        <time>2019-07-09T16:08:39.000Z</time>
      </trkpt>
      <trkpt lat="43.48090209066867828369140625" lon="-7.056736014783382415771484375">
        <ele>6.80000019073486328125</ele>
        <time>2019-07-09T16:08:41.000Z</time>
      </trkpt>
      <trkpt lat="43.4804301895201206207275390625" lon="-7.05675445497035980224609375">
        <ele>6.80000019073486328125</ele>
        <time>2019-07-09T16:08:43.000Z</time>
      </trkpt>
      <trkpt lat="43.479959629476070404052734375" lon="-7.05677113495767116546630859375">
        <ele>6.80000019073486328125</ele>
        <time>2019-07-09T16:08:45.000Z</time>
      </trkpt>
      <trkpt lat="43.479488231241703033447265625" lon="-7.056782282888889312744140625">
        <ele>6.80000019073486328125</ele>
        <time>2019-07-09T16:08:47.000Z</time>
      </trkpt>
      <trkpt lat="43.4790159948170185089111328125" lon="-7.05680281855165958404541015625">
        <ele>6.80000019073486328125</ele>
        <time>2019-07-09T16:08:49.000Z</time>
      </trkpt>
      <trkpt lat="43.47854116000235080718994140625" lon="-7.0568250305950641632080078125">
        <ele>6.599999904632568359375</ele>
        <time>2019-07-09T16:08:51.000Z</time>
      </trkpt>
      <trkpt lat="43.478059954941272735595703125" lon="-7.05685176886618137359619140625">
        <ele>6.599999904632568359375</ele>
        <time>2019-07-09T16:08:53.000Z</time>
      </trkpt>
      <trkpt lat="43.47757590003311634063720703125" lon="-7.05687792040407657623291015625">
        <ele>6.599999904632568359375</ele>
        <time>2019-07-09T16:08:55.000Z</time>
      </trkpt>
      <trkpt lat="43.4770915098488330841064453125" lon="-7.05690063536167144775390625">
        <ele>6.80000019073486328125</ele>
        <time>2019-07-09T16:08:57.000Z</time>
      </trkpt>
      <trkpt lat="43.47660678438842296600341796875" lon="-7.0569222606718540191650390625">
        <ele>7.19999980926513671875</ele>
        <time>2019-07-09T16:08:59.000Z</time>
      </trkpt>
      <trkpt lat="43.4761302731931209564208984375" lon="-7.05694229342043399810791015625">
        <ele>7.599999904632568359375</ele>
        <time>2019-07-09T16:09:01.000Z</time>
      </trkpt>
      <trkpt lat="43.475900776684284210205078125" lon="-7.056950591504573822021484375">
        <ele>7.80000019073486328125</ele>
        <time>2019-07-09T16:09:02.000Z</time>
      </trkpt>
      <trkpt lat="43.47526333294808864593505859375" lon="-7.0570080913603305816650390625">
        <ele>9.3999996185302734375</ele>
        <time>2019-07-09T16:09:05.000Z</time>
      </trkpt>
      <trkpt lat="43.47492487169802188873291015625" lon="-7.0570838637650012969970703125">
        <ele>11</ele>
        <time>2019-07-09T16:09:07.000Z</time>
      </trkpt>
      <trkpt lat="43.4746624343097209930419921875" lon="-7.05718201585114002227783203125">
        <ele>12.19999980926513671875</ele>
        <time>2019-07-09T16:09:09.000Z</time>
      </trkpt>
      <trkpt lat="43.474198915064334869384765625" lon="-7.0574224926531314849853515625">
        <ele>13.19999980926513671875</ele>
        <time>2019-07-09T16:09:13.000Z</time>
      </trkpt>
      <trkpt lat="43.473707735538482666015625" lon="-7.05768509767949581146240234375">
        <ele>13</ele>
        <time>2019-07-09T16:09:17.000Z</time>
      </trkpt>
      <trkpt lat="43.4734703600406646728515625" lon="-7.0578025281429290771484375">
        <ele>12</ele>
        <time>2019-07-09T16:09:19.000Z</time>
      </trkpt>
      <trkpt lat="43.47326123155653476715087890625" lon="-7.05791853368282318115234375">
        <ele>10.80000019073486328125</ele>
        <time>2019-07-09T16:09:21.000Z</time>
      </trkpt>
      <trkpt lat="43.473107255995273590087890625" lon="-7.0580253191292285919189453125">
        <ele>9.6000003814697265625</ele>
        <time>2019-07-09T16:09:23.000Z</time>
      </trkpt>
      <trkpt lat="43.47304045222699642181396484375" lon="-7.05807007849216461181640625">
        <ele>9.19999980926513671875</ele>
        <time>2019-07-09T16:09:24.000Z</time>
      </trkpt>
      <trkpt lat="43.4729099459946155548095703125" lon="-7.05808659084141254425048828125">
        <ele>8.80000019073486328125</ele>
        <time>2019-07-09T16:09:26.000Z</time>
      </trkpt>
      <trkpt lat="43.47279913723468780517578125" lon="-7.057977877557277679443359375">
        <ele>8.6000003814697265625</ele>
        <time>2019-07-09T16:09:28.000Z</time>
      </trkpt>
      <trkpt lat="43.47265756689012050628662109375" lon="-7.05765433609485626220703125">
        <ele>8.6000003814697265625</ele>
        <time>2019-07-09T16:09:31.000Z</time>
      </trkpt>
      <trkpt lat="43.4723466821014881134033203125" lon="-7.05716910772025585174560546875">
        <ele>9.80000019073486328125</ele>
        <time>2019-07-09T16:09:35.000Z</time>
      </trkpt>
      <trkpt lat="43.4721103124320507049560546875" lon="-7.0568384416401386260986328125">
        <ele>11</ele>
        <time>2019-07-09T16:09:38.000Z</time>
      </trkpt>
      <trkpt lat="43.4717294387519359588623046875" lon="-7.0563127286732196807861328125">
        <ele>12</ele>
        <time>2019-07-09T16:09:43.000Z</time>
      </trkpt>
      <trkpt lat="43.4715664945542812347412109375" lon="-7.05609203316271305084228515625">
        <ele>12</ele>
        <time>2019-07-09T16:09:45.000Z</time>
      </trkpt>
      <trkpt lat="43.4711628220975399017333984375" lon="-7.05558006651699542999267578125">
        <ele>11.6000003814697265625</ele>
        <time>2019-07-09T16:09:49.000Z</time>
      </trkpt>
      <trkpt lat="43.4709415398538112640380859375" lon="-7.05536247231066226959228515625">
        <ele>11</ele>
        <time>2019-07-09T16:09:51.000Z</time>
      </trkpt>
      <trkpt lat="43.47083047963678836822509765625" lon="-7.055281586945056915283203125">
        <ele>10.3999996185302734375</ele>
        <time>2019-07-09T16:09:52.000Z</time>
      </trkpt>
      <trkpt lat="43.470715396106243133544921875" lon="-7.05521679483354091644287109375">
        <ele>9.80000019073486328125</ele>
        <time>2019-07-09T16:09:53.000Z</time>
      </trkpt>
      <trkpt lat="43.47047475166618824005126953125" lon="-7.05511051230132579803466796875">
        <ele>8.19999980926513671875</ele>
        <time>2019-07-09T16:09:55.000Z</time>
      </trkpt>
      <trkpt lat="43.4702351130545139312744140625" lon="-7.0550165511667728424072265625">
        <ele>6.80000019073486328125</ele>
        <time>2019-07-09T16:09:57.000Z</time>
      </trkpt>
      <trkpt lat="43.46974284388124942779541015625" lon="-7.05483139492571353912353515625">
        <ele>5.599999904632568359375</ele>
        <time>2019-07-09T16:10:02.000Z</time>
      </trkpt>
      <trkpt lat="43.46942064352333545684814453125" lon="-7.05471170134842395782470703125">
        <ele>4.19999980926513671875</ele>
        <time>2019-07-09T16:10:06.000Z</time>
      </trkpt>
      <trkpt lat="43.4689389355480670928955078125" lon="-7.0545236952602863311767578125">
        <ele>3.2000000476837158203125</ele>
        <time>2019-07-09T16:10:12.000Z</time>
      </trkpt>
      <trkpt lat="43.46887967549264430999755859375" lon="-7.0544998906552791595458984375">
        <ele>3</ele>
        <time>2019-07-09T16:10:13.000Z</time>
      </trkpt>
      <trkpt lat="43.46839318983256816864013671875" lon="-7.0543181709945201873779296875">
        <ele>2.2000000476837158203125</ele>
        <time>2019-07-09T16:10:21.000Z</time>
      </trkpt>
      <trkpt lat="43.4679109789431095123291015625" lon="-7.0541418157517910003662109375">
        <ele>2.599999904632568359375</ele>
        <time>2019-07-09T16:10:26.000Z</time>
      </trkpt>
      <trkpt lat="43.46743647940456867218017578125" lon="-7.0539567433297634124755859375">
        <ele>3.2000000476837158203125</ele>
        <time>2019-07-09T16:10:31.000Z</time>
      </trkpt>
      <trkpt lat="43.46692518331110477447509765625" lon="-7.05377175472676753997802734375">
        <ele>3.400000095367431640625</ele>
        <time>2019-07-09T16:10:37.000Z</time>
      </trkpt>
      <trkpt lat="43.46640265546739101409912109375" lon="-7.0536043681204319000244140625">
        <ele>3.400000095367431640625</ele>
        <time>2019-07-09T16:10:43.000Z</time>
      </trkpt>
      <trkpt lat="43.4659439139068126678466796875" lon="-7.053539492189884185791015625">
        <ele>3.599999904632568359375</ele>
        <time>2019-07-09T16:10:48.000Z</time>
      </trkpt>
      <trkpt lat="43.4654934704303741455078125" lon="-7.053473778069019317626953125">
        <ele>3.2000000476837158203125</ele>
        <time>2019-07-09T16:10:54.000Z</time>
      </trkpt>
      <trkpt lat="43.46541577018797397613525390625" lon="-7.05346346832811832427978515625">
        <ele>3.2000000476837158203125</ele>
        <time>2019-07-09T16:10:55.000Z</time>
      </trkpt>
      <trkpt lat="43.46495560370385646820068359375" lon="-7.053398676216602325439453125">
        <ele>2.7999999523162841796875</ele>
        <time>2019-07-09T16:11:03.000Z</time>
      </trkpt>
      <trkpt lat="43.46462468616664409637451171875" lon="-7.05310706980526447296142578125">
        <ele>3</ele>
        <time>2019-07-09T16:11:13.000Z</time>
      </trkpt>
      <trkpt lat="43.46438898704946041107177734375" lon="-7.05254849977791309356689453125">
        <ele>3.2000000476837158203125</ele>
        <time>2019-07-09T16:11:21.000Z</time>
      </trkpt>
      <trkpt lat="43.4643201716244220733642578125" lon="-7.0523299835622310638427734375">
        <ele>3.599999904632568359375</ele>
        <time>2019-07-09T16:11:24.000Z</time>
      </trkpt>
      <trkpt lat="43.46427231095731258392333984375" lon="-7.051711566746234893798828125">
        <ele>3.400000095367431640625</ele>
        <time>2019-07-09T16:11:35.000Z</time>
      </trkpt>
      <trkpt lat="43.4642410464584827423095703125" lon="-7.051009833812713623046875">
        <ele>2.7999999523162841796875</ele>
        <time>2019-07-09T16:11:44.000Z</time>
      </trkpt>
      <trkpt lat="43.46419050358235836029052734375" lon="-7.05037523992359638214111328125">
        <ele>3</ele>
        <time>2019-07-09T16:11:49.000Z</time>
      </trkpt>
      <trkpt lat="43.46417239867150783538818359375" lon="-7.0498532988131046295166015625">
        <ele>2.400000095367431640625</ele>
        <time>2019-07-09T16:15:10.000Z</time>
      </trkpt>
      <trkpt lat="43.46419704146683216094970703125" lon="-7.04983259551227092742919921875">
        <ele>3.2000000476837158203125</ele>
        <time>2019-07-09T16:17:43.000Z</time>
      </trkpt>
      <trkpt lat="43.464231826364994049072265625" lon="-7.0498631894588470458984375">
        <ele>3.2000000476837158203125</ele>
        <time>2019-07-09T16:17:45.000Z</time>
      </trkpt>
      <trkpt lat="43.4642185829579830169677734375" lon="-7.049976848065853118896484375">
        <ele>3.400000095367431640625</ele>
        <time>2019-07-09T16:17:48.000Z</time>
      </trkpt>
      <trkpt lat="43.46414557658135890960693359375" lon="-7.0500128902494907379150390625">
        <ele>3.400000095367431640625</ele>
        <time>2019-07-09T16:17:50.000Z</time>
      </trkpt>
      <trkpt lat="43.463857658207416534423828125" lon="-7.05004080198705196380615234375">
        <ele>3.599999904632568359375</ele>
        <time>2019-07-09T16:17:55.000Z</time>
      </trkpt>
      <trkpt lat="43.46363511867821216583251953125" lon="-7.05005966126918792724609375">
        <ele>4.400000095367431640625</ele>
        <time>2019-07-09T16:17:58.000Z</time>
      </trkpt>
      <trkpt lat="43.46330520696938037872314453125" lon="-7.0501382835209369659423828125">
        <ele>5.19999980926513671875</ele>
        <time>2019-07-09T16:18:03.000Z</time>
      </trkpt>
      <trkpt lat="43.46318635158240795135498046875" lon="-7.0501778461039066314697265625">
        <ele>5.400000095367431640625</ele>
        <time>2019-07-09T16:18:05.000Z</time>
      </trkpt>
      <trkpt lat="43.462833724915981292724609375" lon="-7.05038814805448055267333984375">
        <ele>6.400000095367431640625</ele>
        <time>2019-07-09T16:18:10.000Z</time>
      </trkpt>
      <trkpt lat="43.46252233721315860748291015625" lon="-7.050556875765323638916015625">
        <ele>7.599999904632568359375</ele>
        <time>2019-07-09T16:18:15.000Z</time>
      </trkpt>
      <trkpt lat="43.4622143022716045379638671875" lon="-7.05073834396898746490478515625">
        <ele>8.6000003814697265625</ele>
        <time>2019-07-09T16:18:20.000Z</time>
      </trkpt>
      <trkpt lat="43.46195672638714313507080078125" lon="-7.0508869551122188568115234375">
        <ele>9.80000019073486328125</ele>
        <time>2019-07-09T16:18:27.000Z</time>
      </trkpt>
      <trkpt lat="43.46171633340418338775634765625" lon="-7.05131853930652141571044921875">
        <ele>10</ele>
        <time>2019-07-09T16:18:42.000Z</time>
      </trkpt>
      <trkpt lat="43.46171381883323192596435546875" lon="-7.051422558724880218505859375">
        <ele>8.6000003814697265625</ele>
        <time>2019-07-09T16:18:47.000Z</time>
      </trkpt>
      <trkpt lat="43.46169789321720600128173828125" lon="-7.05144862644374370574951171875">
        <ele>7.80000019073486328125</ele>
        <time>2019-07-09T16:20:01.000Z</time>
      </trkpt>
      <trkpt lat="43.4640301577746868133544921875" lon="-7.04984583891928195953369140625">
        <ele>3</ele>
        <time>2019-07-09T16:46:07.000Z</time>
      </trkpt>
      <trkpt lat="43.46403024159371852874755859375" lon="-7.04985187388956546783447265625">
        <ele>1.7999999523162841796875</ele>
        <time>2019-07-09T16:46:08.000Z</time>
      </trkpt>
      <trkpt lat="43.4641884081065654754638671875" lon="-7.04976537264883518218994140625">
        <ele>0.800000011920928955078125</ele>
        <time>2019-07-09T16:47:31.000Z</time>
      </trkpt>
      <trkpt lat="43.464195616543292999267578125" lon="-7.0497671328485012054443359375">
        <ele>-0.20000000298023223876953125</ele>
        <time>2019-07-09T16:48:28.000Z</time>
      </trkpt>
      <trkpt lat="43.4641957841813564300537109375" lon="-7.0497666299343109130859375">
        <ele>-0.4000000059604644775390625</ele>
        <time>2019-07-09T16:48:32.000Z</time>
      </trkpt>
      <trkpt lat="43.4642262943089008331298828125" lon="-7.0496739260852336883544921875">
        <ele>-0.4000000059604644775390625</ele>
        <time>2019-07-09T16:48:53.000Z</time>
      </trkpt>
      <trkpt lat="43.46426694653928279876708984375" lon="-7.04949782229959964752197265625">
        <ele>-0.20000000298023223876953125</ele>
        <time>2019-07-09T16:49:03.000Z</time>
      </trkpt>
      <trkpt lat="43.464325703680515289306640625" lon="-7.04896490089595317840576171875">
        <ele>0.4000000059604644775390625</ele>
        <time>2019-07-09T16:49:09.000Z</time>
      </trkpt>
      <trkpt lat="43.464407511055469512939453125" lon="-7.04880631528794765472412109375">
        <ele>1</ele>
        <time>2019-07-09T16:49:11.000Z</time>
      </trkpt>
      <trkpt lat="43.4646861255168914794921875" lon="-7.04848864115774631500244140625">
        <ele>1.39999997615814208984375</ele>
        <time>2019-07-09T16:49:17.000Z</time>
      </trkpt>
      <trkpt lat="43.464718647301197052001953125" lon="-7.04840012826025485992431640625">
        <ele>0.800000011920928955078125</ele>
        <time>2019-07-09T16:49:19.000Z</time>
      </trkpt>
      <trkpt lat="43.46469392068684101104736328125" lon="-7.0482865534722805023193359375">
        <ele>0.4000000059604644775390625</ele>
        <time>2019-07-09T16:49:21.000Z</time>
      </trkpt>
      <trkpt lat="43.46445419825613498687744140625" lon="-7.04774231649935245513916015625">
        <ele>0.60000002384185791015625</ele>
        <time>2019-07-09T16:49:28.000Z</time>
      </trkpt>
      <trkpt lat="43.46419100649654865264892578125" lon="-7.047206461429595947265625">
        <ele>1.2000000476837158203125</ele>
        <time>2019-07-09T16:49:34.000Z</time>
      </trkpt>
      <trkpt lat="43.4639201872050762176513671875" lon="-7.0466391742229461669921875">
        <ele>2</ele>
        <time>2019-07-09T16:49:41.000Z</time>
      </trkpt>
      <trkpt lat="43.463791944086551666259765625" lon="-7.04635016620159149169921875">
        <ele>2.2000000476837158203125</ele>
        <time>2019-07-09T16:52:11.000Z</time>
      </trkpt>
      <trkpt lat="43.46354627050459384918212890625" lon="-7.045793272554874420166015625">
        <ele>3.2000000476837158203125</ele>
        <time>2019-07-09T16:52:17.000Z</time>
      </trkpt>
      <trkpt lat="43.46343646757304668426513671875" lon="-7.045617587864398956298828125">
        <ele>3.2000000476837158203125</ele>
        <time>2019-07-09T16:52:19.000Z</time>
      </trkpt>
      <trkpt lat="43.4633750282227993011474609375" lon="-7.04553971998393535614013671875">
        <ele>3.400000095367431640625</ele>
        <time>2019-07-09T16:52:20.000Z</time>
      </trkpt>
      <trkpt lat="43.46324821002781391143798828125" lon="-7.04536135308444499969482421875">
        <ele>3.7999999523162841796875</ele>
        <time>2019-07-09T16:52:22.000Z</time>
      </trkpt>
      <trkpt lat="43.46314125694334506988525390625" lon="-7.04513252712786197662353515625">
        <ele>4.599999904632568359375</ele>
        <time>2019-07-09T16:52:24.000Z</time>
      </trkpt>
      <trkpt lat="43.46297244541347026824951171875" lon="-7.0445680059492588043212890625">
        <ele>5.80000019073486328125</ele>
        <time>2019-07-09T16:52:28.000Z</time>
      </trkpt>
      <trkpt lat="43.4628496505320072174072265625" lon="-7.04409778118133544921875">
        <ele>6.80000019073486328125</ele>
        <time>2019-07-09T16:52:31.000Z</time>
      </trkpt>
      <trkpt lat="43.462781421840190887451171875" lon="-7.04383232630789279937744140625">
        <ele>8</ele>
        <time>2019-07-09T16:52:33.000Z</time>
      </trkpt>
      <trkpt lat="43.46265896223485469818115234375" lon="-7.0433883368968963623046875">
        <ele>9.19999980926513671875</ele>
        <time>2019-07-09T16:52:37.000Z</time>
      </trkpt>
      <trkpt lat="43.46255712211132049560546875" lon="-7.04297049902379512786865234375">
        <ele>10.19999980926513671875</ele>
        <time>2019-07-09T16:52:40.000Z</time>
      </trkpt>
      <trkpt lat="43.46243969164788722991943359375" lon="-7.042472697794437408447265625">
        <ele>11.6000003814697265625</ele>
        <time>2019-07-09T16:52:43.000Z</time>
      </trkpt>
      <trkpt lat="43.46231631003320217132568359375" lon="-7.04195511527359485626220703125">
        <ele>12.6000003814697265625</ele>
        <time>2019-07-09T16:52:46.000Z</time>
      </trkpt>
      <trkpt lat="43.46220265142619609832763671875" lon="-7.04146309755742549896240234375">
        <ele>14</ele>
        <time>2019-07-09T16:52:49.000Z</time>
      </trkpt>
      <trkpt lat="43.46209804527461528778076171875" lon="-7.041169144213199615478515625">
        <ele>15.19999980926513671875</ele>
        <time>2019-07-09T16:52:51.000Z</time>
      </trkpt>
      <trkpt lat="43.46190509386360645294189453125" lon="-7.04091810621321201324462890625">
        <ele>15.80000019073486328125</ele>
        <time>2019-07-09T16:52:53.000Z</time>
      </trkpt>
      <trkpt lat="43.461409471929073333740234375" lon="-7.040532119572162628173828125">
        <ele>16</ele>
        <time>2019-07-09T16:52:57.000Z</time>
      </trkpt>
      <trkpt lat="43.4612904489040374755859375" lon="-7.040426172316074371337890625">
        <ele>16.3999996185302734375</ele>
        <time>2019-07-09T16:52:58.000Z</time>
      </trkpt>
      <trkpt lat="43.461086265742778778076171875" lon="-7.040152586996555328369140625">
        <ele>17.200000762939453125</ele>
        <time>2019-07-09T16:53:00.000Z</time>
      </trkpt>
      <trkpt lat="43.46100688911974430084228515625" lon="-7.0399770699441432952880859375">
        <ele>17.3999996185302734375</ele>
        <time>2019-07-09T16:53:01.000Z</time>
      </trkpt>
      <trkpt lat="43.460947461426258087158203125" lon="-7.0397748984396457672119140625">
        <ele>17.6000003814697265625</ele>
        <time>2019-07-09T16:53:02.000Z</time>
      </trkpt>
      <trkpt lat="43.4608115069568157196044921875" lon="-7.039068639278411865234375">
        <ele>18.200000762939453125</ele>
        <time>2019-07-09T16:53:05.000Z</time>
      </trkpt>
      <trkpt lat="43.46071922220289707183837890625" lon="-7.038576118648052215576171875">
        <ele>18.6000003814697265625</ele>
        <time>2019-07-09T16:53:07.000Z</time>
      </trkpt>
      <trkpt lat="43.46060891635715961456298828125" lon="-7.0380867831408977508544921875">
        <ele>19.6000003814697265625</ele>
        <time>2019-07-09T16:53:09.000Z</time>
      </trkpt>
      <trkpt lat="43.46043222583830356597900390625" lon="-7.03734791837632656097412109375">
        <ele>20.3999996185302734375</ele>
        <time>2019-07-09T16:53:12.000Z</time>
      </trkpt>
      <trkpt lat="43.46038411371409893035888671875" lon="-7.03709126450121402740478515625">
        <ele>20.799999237060546875</ele>
        <time>2019-07-09T16:53:13.000Z</time>
      </trkpt>
      <trkpt lat="43.4602720476686954498291015625" lon="-7.03631476499140262603759765625">
        <ele>22.3999996185302734375</ele>
        <time>2019-07-09T16:53:16.000Z</time>
      </trkpt>
      <trkpt lat="43.46015780232846736907958984375" lon="-7.03581453301012516021728515625">
        <ele>23.3999996185302734375</ele>
        <time>2019-07-09T16:53:18.000Z</time>
      </trkpt>
      <trkpt lat="43.460006006062030792236328125" lon="-7.0351217687129974365234375">
        <ele>24.3999996185302734375</ele>
        <time>2019-07-09T16:53:21.000Z</time>
      </trkpt>
      <trkpt lat="43.4599627554416656494140625" lon="-7.03490342013537883758544921875">
        <ele>24.799999237060546875</ele>
        <time>2019-07-09T16:53:22.000Z</time>
      </trkpt>
      <trkpt lat="43.45986644737422466278076171875" lon="-7.0342545770108699798583984375">
        <ele>25.3999996185302734375</ele>
        <time>2019-07-09T16:53:25.000Z</time>
      </trkpt>
      <trkpt lat="43.4598455764353275299072265625" lon="-7.0335903950035572052001953125">
        <ele>25</ele>
        <time>2019-07-09T16:53:28.000Z</time>
      </trkpt>
      <trkpt lat="43.4598405472934246063232421875" lon="-7.03318722546100616455078125">
        <ele>24.6000003814697265625</ele>
        <time>2019-07-09T16:53:30.000Z</time>
      </trkpt>
      <trkpt lat="43.45975153148174285888671875" lon="-7.03283677808940410614013671875">
        <ele>24.3999996185302734375</ele>
        <time>2019-07-09T16:53:32.000Z</time>
      </trkpt>
      <trkpt lat="43.45957190729677677154541015625" lon="-7.0325979776680469512939453125">
        <ele>24.200000762939453125</ele>
        <time>2019-07-09T16:53:34.000Z</time>
      </trkpt>
      <trkpt lat="43.45931156538426876068115234375" lon="-7.03249387443065643310546875">
        <ele>24.200000762939453125</ele>
        <time>2019-07-09T16:53:36.000Z</time>
      </trkpt>
      <trkpt lat="43.45882306806743144989013671875" lon="-7.03240242786705493927001953125">
        <ele>25.3999996185302734375</ele>
        <time>2019-07-09T16:53:39.000Z</time>
      </trkpt>
      <trkpt lat="43.458652496337890625" lon="-7.03237007372081279754638671875">
        <ele>26.3999996185302734375</ele>
        <time>2019-07-09T16:53:40.000Z</time>
      </trkpt>
      <trkpt lat="43.45848242752254009246826171875" lon="-7.0323555730283260345458984375">
        <ele>27.200000762939453125</ele>
        <time>2019-07-09T16:53:41.000Z</time>
      </trkpt>
      <trkpt lat="43.458311855792999267578125" lon="-7.03235800378024578094482421875">
        <ele>27.6000003814697265625</ele>
        <time>2019-07-09T16:53:42.000Z</time>
      </trkpt>
      <trkpt lat="43.45779343508183956146240234375" lon="-7.03242304734885692596435546875">
        <ele>28.6000003814697265625</ele>
        <time>2019-07-09T16:53:45.000Z</time>
      </trkpt>
      <trkpt lat="43.45762462355196475982666015625" lon="-7.0324457623064517974853515625">
        <ele>29.200000762939453125</ele>
        <time>2019-07-09T16:53:46.000Z</time>
      </trkpt>
      <trkpt lat="43.45729085616767406463623046875" lon="-7.0324350334703922271728515625">
        <ele>29.799999237060546875</ele>
        <time>2019-07-09T16:53:48.000Z</time>
      </trkpt>
      <trkpt lat="43.457125313580036163330078125" lon="-7.0323901064693927764892578125">
        <ele>30.200000762939453125</ele>
        <time>2019-07-09T16:53:49.000Z</time>
      </trkpt>
      <trkpt lat="43.4568062983453273773193359375" lon="-7.03226781450212001800537109375">
        <ele>31.3999996185302734375</ele>
        <time>2019-07-09T16:53:51.000Z</time>
      </trkpt>
      <trkpt lat="43.45650128088891506195068359375" lon="-7.032142840325832366943359375">
        <ele>33.40000152587890625</ele>
        <time>2019-07-09T16:53:53.000Z</time>
      </trkpt>
      <trkpt lat="43.45635409466922283172607421875" lon="-7.0320640504360198974609375">
        <ele>34.200000762939453125</ele>
        <time>2019-07-09T16:53:54.000Z</time>
      </trkpt>
      <trkpt lat="43.45621445216238498687744140625" lon="-7.031966485083103179931640625">
        <ele>35.40000152587890625</ele>
        <time>2019-07-09T16:53:55.000Z</time>
      </trkpt>
      <trkpt lat="43.45608050934970378875732421875" lon="-7.03184754587709903717041015625">
        <ele>36.59999847412109375</ele>
        <time>2019-07-09T16:53:56.000Z</time>
      </trkpt>
      <trkpt lat="43.4559456445276737213134765625" lon="-7.03171980567276477813720703125">
        <ele>37.59999847412109375</ele>
        <time>2019-07-09T16:53:57.000Z</time>
      </trkpt>
      <trkpt lat="43.4558034874498844146728515625" lon="-7.03160229139029979705810546875">
        <ele>38.59999847412109375</ele>
        <time>2019-07-09T16:53:58.000Z</time>
      </trkpt>
      <trkpt lat="43.4556495957076549530029296875" lon="-7.03150556422770023345947265625">
        <ele>39.40000152587890625</ele>
        <time>2019-07-09T16:53:59.000Z</time>
      </trkpt>
      <trkpt lat="43.45548572950065135955810546875" lon="-7.03142778016626834869384765625">
        <ele>40.40000152587890625</ele>
        <time>2019-07-09T16:54:00.000Z</time>
      </trkpt>
      <trkpt lat="43.455318175256252288818359375" lon="-7.03136474825441837310791015625">
        <ele>41.59999847412109375</ele>
        <time>2019-07-09T16:54:01.000Z</time>
      </trkpt>
      <trkpt lat="43.45515598542988300323486328125" lon="-7.03131127171218395233154296875">
        <ele>43</ele>
        <time>2019-07-09T16:54:02.000Z</time>
      </trkpt>
      <trkpt lat="43.455002009868621826171875" lon="-7.031270451843738555908203125">
        <ele>44.59999847412109375</ele>
        <time>2019-07-09T16:54:03.000Z</time>
      </trkpt>
      <trkpt lat="43.4548549912869930267333984375" lon="-7.03125142492353916168212890625">
        <ele>46.200000762939453125</ele>
        <time>2019-07-09T16:54:04.000Z</time>
      </trkpt>
      <trkpt lat="43.45471023581922054290771484375" lon="-7.03126483596861362457275390625">
        <ele>47.799999237060546875</ele>
        <time>2019-07-09T16:54:05.000Z</time>
      </trkpt>
      <trkpt lat="43.45456489361822605133056640625" lon="-7.031307332217693328857421875">
        <ele>48.799999237060546875</ele>
        <time>2019-07-09T16:54:06.000Z</time>
      </trkpt>
      <trkpt lat="43.4542535059154033660888671875" lon="-7.03140749596059322357177734375">
        <ele>50.200000762939453125</ele>
        <time>2019-07-09T16:54:08.000Z</time>
      </trkpt>
      <trkpt lat="43.45390641130506992340087890625" lon="-7.03141118399798870086669921875">
        <ele>52.40000152587890625</ele>
        <time>2019-07-09T16:54:10.000Z</time>
      </trkpt>
      <trkpt lat="43.4537311457097530364990234375" lon="-7.031407244503498077392578125">
        <ele>54</ele>
        <time>2019-07-09T16:54:11.000Z</time>
      </trkpt>
      <trkpt lat="43.45356325618922710418701171875" lon="-7.031433396041393280029296875">
        <ele>56</ele>
        <time>2019-07-09T16:54:12.000Z</time>
      </trkpt>
      <trkpt lat="43.453407101333141326904296875" lon="-7.031487040221691131591796875">
        <ele>57.59999847412109375</ele>
        <time>2019-07-09T16:54:13.000Z</time>
      </trkpt>
      <trkpt lat="43.45325798727571964263916015625" lon="-7.0315463840961456298828125">
        <ele>58.59999847412109375</ele>
        <time>2019-07-09T16:54:14.000Z</time>
      </trkpt>
      <trkpt lat="43.453109376132488250732421875" lon="-7.03157924115657806396484375">
        <ele>59.59999847412109375</ele>
        <time>2019-07-09T16:54:15.000Z</time>
      </trkpt>
      <trkpt lat="43.45296327956020832061767578125" lon="-7.031564824283123016357421875">
        <ele>60.40000152587890625</ele>
        <time>2019-07-09T16:54:16.000Z</time>
      </trkpt>
      <trkpt lat="43.45282363705337047576904296875" lon="-7.03150874935090541839599609375">
        <ele>61</ele>
        <time>2019-07-09T16:54:17.000Z</time>
      </trkpt>
      <trkpt lat="43.4526912868022918701171875" lon="-7.0314355753362178802490234375">
        <ele>61.59999847412109375</ele>
        <time>2019-07-09T16:54:18.000Z</time>
      </trkpt>
      <trkpt lat="43.45255759544670581817626953125" lon="-7.03137380070984363555908203125">
        <ele>62.200000762939453125</ele>
        <time>2019-07-09T16:54:19.000Z</time>
      </trkpt>
      <trkpt lat="43.45226808451116085052490234375" lon="-7.03134127892553806304931640625">
        <ele>62.59999847412109375</ele>
        <time>2019-07-09T16:54:21.000Z</time>
      </trkpt>
      <trkpt lat="43.451959379017353057861328125" lon="-7.0313289575278759002685546875">
        <ele>64</ele>
        <time>2019-07-09T16:54:23.000Z</time>
      </trkpt>
      <trkpt lat="43.45181143842637538909912109375" lon="-7.0312850363552570343017578125">
        <ele>65.1999969482421875</ele>
        <time>2019-07-09T16:54:24.000Z</time>
      </trkpt>
      <trkpt lat="43.45168453641235828399658203125" lon="-7.0312059111893177032470703125">
        <ele>66.59999847412109375</ele>
        <time>2019-07-09T16:54:25.000Z</time>
      </trkpt>
      <trkpt lat="43.4515821933746337890625" lon="-7.03109216876327991485595703125">
        <ele>67.8000030517578125</ele>
        <time>2019-07-09T16:54:26.000Z</time>
      </trkpt>
      <trkpt lat="43.45150667242705821990966796875" lon="-7.03094447962939739227294921875">
        <ele>68.59999847412109375</ele>
        <time>2019-07-09T16:54:27.000Z</time>
      </trkpt>
      <trkpt lat="43.4514556266367435455322265625" lon="-7.03077315352857112884521484375">
        <ele>69.40000152587890625</ele>
        <time>2019-07-09T16:54:28.000Z</time>
      </trkpt>
      <trkpt lat="43.45136904157698154449462890625" lon="-7.03042278997600078582763671875">
        <ele>70.59999847412109375</ele>
        <time>2019-07-09T16:54:30.000Z</time>
      </trkpt>
      <trkpt lat="43.45123459585011005401611328125" lon="-7.03012908808887004852294921875">
        <ele>72</ele>
        <time>2019-07-09T16:54:32.000Z</time>
      </trkpt>
      <trkpt lat="43.451023958623409271240234375" lon="-7.02992674894630908966064453125">
        <ele>73.8000030517578125</ele>
        <time>2019-07-09T16:54:34.000Z</time>
      </trkpt>
      <trkpt lat="43.450738303363323211669921875" lon="-7.02979146502912044525146484375">
        <ele>75.59999847412109375</ele>
        <time>2019-07-09T16:54:36.000Z</time>
      </trkpt>
      <trkpt lat="43.45058633945882320404052734375" lon="-7.02972189523279666900634765625">
        <ele>76.8000030517578125</ele>
        <time>2019-07-09T16:54:37.000Z</time>
      </trkpt>
      <trkpt lat="43.45043085515499114990234375" lon="-7.029648385941982269287109375">
        <ele>78</ele>
        <time>2019-07-09T16:54:38.000Z</time>
      </trkpt>
      <trkpt lat="43.450278304517269134521484375" lon="-7.0295749604701995849609375">
        <ele>79.40000152587890625</ele>
        <time>2019-07-09T16:54:39.000Z</time>
      </trkpt>
      <trkpt lat="43.45011963509023189544677734375" lon="-7.0295033790171146392822265625">
        <ele>80.8000030517578125</ele>
        <time>2019-07-09T16:54:40.000Z</time>
      </trkpt>
      <trkpt lat="43.449960462749004364013671875" lon="-7.02944378368556499481201171875">
        <ele>82.1999969482421875</ele>
        <time>2019-07-09T16:54:41.000Z</time>
      </trkpt>
      <trkpt lat="43.44979911111295223236083984375" lon="-7.02941612340509891510009765625">
        <ele>83.40000152587890625</ele>
        <time>2019-07-09T16:54:42.000Z</time>
      </trkpt>
      <trkpt lat="43.4494785033166408538818359375" lon="-7.0294172130525112152099609375">
        <ele>84.8000030517578125</ele>
        <time>2019-07-09T16:54:44.000Z</time>
      </trkpt>
      <trkpt lat="43.44933475367724895477294921875" lon="-7.02940656803548336029052734375">
        <ele>85.59999847412109375</ele>
        <time>2019-07-09T16:54:45.000Z</time>
      </trkpt>
      <trkpt lat="43.449206091463565826416015625" lon="-7.02936801128089427947998046875">
        <ele>86.1999969482421875</ele>
        <time>2019-07-09T16:54:46.000Z</time>
      </trkpt>
      <trkpt lat="43.44909285195171833038330078125" lon="-7.02928855083882808685302734375">
        <ele>87</ele>
        <time>2019-07-09T16:54:47.000Z</time>
      </trkpt>
      <trkpt lat="43.44899444840848445892333984375" lon="-7.02916952781379222869873046875">
        <ele>87.59999847412109375</ele>
        <time>2019-07-09T16:54:48.000Z</time>
      </trkpt>
      <trkpt lat="43.4489066898822784423828125" lon="-7.02900624834001064300537109375">
        <ele>88</ele>
        <time>2019-07-09T16:54:49.000Z</time>
      </trkpt>
      <trkpt lat="43.44873293302953243255615234375" lon="-7.02862403355538845062255859375">
        <ele>89</ele>
        <time>2019-07-09T16:54:51.000Z</time>
      </trkpt>
      <trkpt lat="43.44852455891668796539306640625" lon="-7.0282336883246898651123046875">
        <ele>91</ele>
        <time>2019-07-09T16:54:53.000Z</time>
      </trkpt>
      <trkpt lat="43.448400758206844329833984375" lon="-7.02805138193070888519287109375">
        <ele>92.40000152587890625</ele>
        <time>2019-07-09T16:54:54.000Z</time>
      </trkpt>
      <trkpt lat="43.44826840795576572418212890625" lon="-7.0278799720108509063720703125">
        <ele>93.8000030517578125</ele>
        <time>2019-07-09T16:54:55.000Z</time>
      </trkpt>
      <trkpt lat="43.44813262112438678741455078125" lon="-7.02771593816578388214111328125">
        <ele>95.1999969482421875</ele>
        <time>2019-07-09T16:54:56.000Z</time>
      </trkpt>
      <trkpt lat="43.4479959122836589813232421875" lon="-7.027552910149097442626953125">
        <ele>96.1999969482421875</ele>
        <time>2019-07-09T16:54:57.000Z</time>
      </trkpt>
      <trkpt lat="43.4478579461574554443359375" lon="-7.02738703228533267974853515625">
        <ele>97.1999969482421875</ele>
        <time>2019-07-09T16:54:58.000Z</time>
      </trkpt>
      <trkpt lat="43.44771838746964931488037109375" lon="-7.0272218249738216400146484375">
        <ele>98.40000152587890625</ele>
        <time>2019-07-09T16:54:59.000Z</time>
      </trkpt>
      <trkpt lat="43.44757891260087490081787109375" lon="-7.027060054242610931396484375">
        <ele>99.8000030517578125</ele>
        <time>2019-07-09T16:55:00.000Z</time>
      </trkpt>
      <trkpt lat="43.44744580797851085662841796875" lon="-7.02690708450973033905029296875">
        <ele>101</ele>
        <time>2019-07-09T16:55:01.000Z</time>
      </trkpt>
      <trkpt lat="43.44732259400188922882080078125" lon="-7.02676442451775074005126953125">
        <ele>102.1999969482421875</ele>
        <time>2019-07-09T16:55:02.000Z</time>
      </trkpt>
      <trkpt lat="43.44720725901424884796142578125" lon="-7.02663115225732326507568359375">
        <ele>103.40000152587890625</ele>
        <time>2019-07-09T16:55:03.000Z</time>
      </trkpt>
      <trkpt lat="43.4469830431044101715087890625" lon="-7.0263920165598392486572265625">
        <ele>104.8000030517578125</ele>
        <time>2019-07-09T16:55:05.000Z</time>
      </trkpt>
      <trkpt lat="43.446787409484386444091796875" lon="-7.02613578177988529205322265625">
        <ele>106</ele>
        <time>2019-07-09T16:55:07.000Z</time>
      </trkpt>
      <trkpt lat="43.44669093377888202667236328125" lon="-7.0258170180022716522216796875">
        <ele>107.1999969482421875</ele>
        <time>2019-07-09T16:55:09.000Z</time>
      </trkpt>
      <trkpt lat="43.44668917357921600341796875" lon="-7.02548534609377384185791015625">
        <ele>108.40000152587890625</ele>
        <time>2019-07-09T16:55:11.000Z</time>
      </trkpt>
      <trkpt lat="43.4466749243438243865966796875" lon="-7.0253268443048000335693359375">
        <ele>109</ele>
        <time>2019-07-09T16:55:12.000Z</time>
      </trkpt>
      <trkpt lat="43.446635194122791290283203125" lon="-7.02517773024737834930419921875">
        <ele>109.40000152587890625</ele>
        <time>2019-07-09T16:55:13.000Z</time>
      </trkpt>
      <trkpt lat="43.44657073728740215301513671875" lon="-7.0250435359776020050048828125">
        <ele>110</ele>
        <time>2019-07-09T16:55:14.000Z</time>
      </trkpt>
      <trkpt lat="43.44648373313248157501220703125" lon="-7.0249322243034839630126953125">
        <ele>110.59999847412109375</ele>
        <time>2019-07-09T16:55:15.000Z</time>
      </trkpt>
      <trkpt lat="43.44637895934283733367919921875" lon="-7.02485133893787860870361328125">
        <ele>111.1999969482421875</ele>
        <time>2019-07-09T16:55:16.000Z</time>
      </trkpt>
      <trkpt lat="43.4462608583271503448486328125" lon="-7.02480255626142024993896484375">
        <ele>111.8000030517578125</ele>
        <time>2019-07-09T16:55:17.000Z</time>
      </trkpt>
      <trkpt lat="43.44613772816956043243408203125" lon="-7.02479300089180469512939453125">
        <ele>112.59999847412109375</ele>
        <time>2019-07-09T16:55:18.000Z</time>
      </trkpt>
      <trkpt lat="43.44601702876389026641845703125" lon="-7.024827115237712860107421875">
        <ele>113.40000152587890625</ele>
        <time>2019-07-09T16:55:19.000Z</time>
      </trkpt>
      <trkpt lat="43.4459027834236621856689453125" lon="-7.024900875985622406005859375">
        <ele>114.1999969482421875</ele>
        <time>2019-07-09T16:55:20.000Z</time>
      </trkpt>
      <trkpt lat="43.4457991831004619598388671875" lon="-7.0250059850513935089111328125">
        <ele>115</ele>
        <time>2019-07-09T16:55:21.000Z</time>
      </trkpt>
      <trkpt lat="43.4457089938223361968994140625" lon="-7.025134898722171783447265625">
        <ele>115.8000030517578125</ele>
        <time>2019-07-09T16:55:22.000Z</time>
      </trkpt>
      <trkpt lat="43.44561972655355930328369140625" lon="-7.0252765528857707977294921875">
        <ele>116.59999847412109375</ele>
        <time>2019-07-09T16:55:23.000Z</time>
      </trkpt>
      <trkpt lat="43.4455198980867862701416015625" lon="-7.02540454454720020294189453125">
        <ele>117.40000152587890625</ele>
        <time>2019-07-09T16:55:24.000Z</time>
      </trkpt>
      <trkpt lat="43.44540263526141643524169921875" lon="-7.02550831250846385955810546875">
        <ele>118.59999847412109375</ele>
        <time>2019-07-09T16:55:25.000Z</time>
      </trkpt>
      <trkpt lat="43.44526751898229122161865234375" lon="-7.0255846716463565826416015625">
        <ele>119.40000152587890625</ele>
        <time>2019-07-09T16:55:26.000Z</time>
      </trkpt>
      <trkpt lat="43.4451192431151866912841796875" lon="-7.0256359688937664031982421875">
        <ele>120.40000152587890625</ele>
        <time>2019-07-09T16:55:27.000Z</time>
      </trkpt>
      <trkpt lat="43.444960154592990875244140625" lon="-7.025659270584583282470703125">
        <ele>121.1999969482421875</ele>
        <time>2019-07-09T16:55:28.000Z</time>
      </trkpt>
      <trkpt lat="43.44479293562471866607666015625" lon="-7.0256574265658855438232421875">
        <ele>122.1999969482421875</ele>
        <time>2019-07-09T16:55:29.000Z</time>
      </trkpt>
      <trkpt lat="43.44461658038198947906494140625" lon="-7.02564225532114505767822265625">
        <ele>123.1999969482421875</ele>
        <time>2019-07-09T16:55:30.000Z</time>
      </trkpt>
      <trkpt lat="43.44443888403475284576416015625" lon="-7.025620378553867340087890625">
        <ele>124.59999847412109375</ele>
        <time>2019-07-09T16:55:31.000Z</time>
      </trkpt>
      <trkpt lat="43.44426990486681461334228515625" lon="-7.0255856774747371673583984375">
        <ele>126.1999969482421875</ele>
        <time>2019-07-09T16:55:32.000Z</time>
      </trkpt>
      <trkpt lat="43.444116599857807159423828125" lon="-7.0255333743989467620849609375">
        <ele>128</ele>
        <time>2019-07-09T16:55:33.000Z</time>
      </trkpt>
      <trkpt lat="43.4439850039780139923095703125" lon="-7.025455422699451446533203125">
        <ele>129.399993896484375</ele>
        <time>2019-07-09T16:55:34.000Z</time>
      </trkpt>
      <trkpt lat="43.4438783861696720123291015625" lon="-7.025344111025333404541015625">
        <ele>130.399993896484375</ele>
        <time>2019-07-09T16:55:35.000Z</time>
      </trkpt>
      <trkpt lat="43.44371787272393703460693359375" lon="-7.025035321712493896484375">
        <ele>132</ele>
        <time>2019-07-09T16:55:37.000Z</time>
      </trkpt>
      <trkpt lat="43.4436359815299510955810546875" lon="-7.02487279660999774932861328125">
        <ele>132.600006103515625</ele>
        <time>2019-07-09T16:55:38.000Z</time>
      </trkpt>
      <trkpt lat="43.44354160130023956298828125" lon="-7.02473281882703304290771484375">
        <ele>133.399993896484375</ele>
        <time>2019-07-09T16:55:39.000Z</time>
      </trkpt>
      <trkpt lat="43.44343028962612152099609375" lon="-7.024632655084133148193359375">
        <ele>134</ele>
        <time>2019-07-09T16:55:40.000Z</time>
      </trkpt>
      <trkpt lat="43.44330648891627788543701171875" lon="-7.02456853352487087249755859375">
        <ele>134.8000030517578125</ele>
        <time>2019-07-09T16:55:41.000Z</time>
      </trkpt>
      <trkpt lat="43.443171791732311248779296875" lon="-7.02454322017729282379150390625">
        <ele>135.1999969482421875</ele>
        <time>2019-07-09T16:55:42.000Z</time>
      </trkpt>
      <trkpt lat="43.44302955083549022674560546875" lon="-7.0245597325265407562255859375">
        <ele>136</ele>
        <time>2019-07-09T16:55:43.000Z</time>
      </trkpt>
      <trkpt lat="43.44271824695169925689697265625" lon="-7.0246385224163532257080078125">
        <ele>137.8000030517578125</ele>
        <time>2019-07-09T16:55:45.000Z</time>
      </trkpt>
      <trkpt lat="43.4425557218492031097412109375" lon="-7.024650759994983673095703125">
        <ele>139</ele>
        <time>2019-07-09T16:55:46.000Z</time>
      </trkpt>
      <trkpt lat="43.44239420257508754730224609375" lon="-7.02463139779865741729736328125">
        <ele>141</ele>
        <time>2019-07-09T16:55:47.000Z</time>
      </trkpt>
      <trkpt lat="43.44223846681416034698486328125" lon="-7.024581022560596466064453125">
        <ele>143</ele>
        <time>2019-07-09T16:55:48.000Z</time>
      </trkpt>
      <trkpt lat="43.44209530390799045562744140625" lon="-7.0244973711669445037841796875">
        <ele>144.399993896484375</ele>
        <time>2019-07-09T16:55:49.000Z</time>
      </trkpt>
      <trkpt lat="43.44196739606559276580810546875" lon="-7.0243848860263824462890625">
        <ele>145.1999969482421875</ele>
        <time>2019-07-09T16:55:50.000Z</time>
      </trkpt>
      <trkpt lat="43.4418563358485698699951171875" lon="-7.02424013055860996246337890625">
        <ele>145.8000030517578125</ele>
        <time>2019-07-09T16:55:51.000Z</time>
      </trkpt>
      <trkpt lat="43.4417681582272052764892578125" lon="-7.0240719057619571685791015625">
        <ele>146.8000030517578125</ele>
        <time>2019-07-09T16:55:52.000Z</time>
      </trkpt>
      <trkpt lat="43.44170185737311840057373046875" lon="-7.023890018463134765625">
        <ele>148</ele>
        <time>2019-07-09T16:55:53.000Z</time>
      </trkpt>
      <trkpt lat="43.4416511468589305877685546875" lon="-7.02370570041239261627197265625">
        <ele>149</ele>
        <time>2019-07-09T16:55:54.000Z</time>
      </trkpt>
      <trkpt lat="43.4416018612682819366455078125" lon="-7.02353437431156635284423828125">
        <ele>150</ele>
        <time>2019-07-09T16:55:55.000Z</time>
      </trkpt>
      <trkpt lat="43.4415405057370662689208984375" lon="-7.02339020557701587677001953125">
        <ele>150.8000030517578125</ele>
        <time>2019-07-09T16:55:56.000Z</time>
      </trkpt>
      <trkpt lat="43.4414654038846492767333984375" lon="-7.0232771337032318115234375">
        <ele>151.399993896484375</ele>
        <time>2019-07-09T16:55:57.000Z</time>
      </trkpt>
      <trkpt lat="43.441378735005855560302734375" lon="-7.02318769879639148712158203125">
        <ele>152</ele>
        <time>2019-07-09T16:55:58.000Z</time>
      </trkpt>
      <trkpt lat="43.44128024764358997344970703125" lon="-7.02312701381742954254150390625">
        <ele>152.600006103515625</ele>
        <time>2019-07-09T16:55:59.000Z</time>
      </trkpt>
      <trkpt lat="43.44117161817848682403564453125" lon="-7.02309809625148773193359375">
        <ele>153.399993896484375</ele>
        <time>2019-07-09T16:56:00.000Z</time>
      </trkpt>
      <trkpt lat="43.44105326570570468902587890625" lon="-7.02310471795499324798583984375">
        <ele>154</ele>
        <time>2019-07-09T16:56:01.000Z</time>
      </trkpt>
      <trkpt lat="43.44093373976647853851318359375" lon="-7.023148722946643829345703125">
        <ele>154.600006103515625</ele>
        <time>2019-07-09T16:56:02.000Z</time>
      </trkpt>
      <trkpt lat="43.44082192517817020416259765625" lon="-7.023235894739627838134765625">
        <ele>155.399993896484375</ele>
        <time>2019-07-09T16:56:03.000Z</time>
      </trkpt>
      <trkpt lat="43.4407284669578075408935546875" lon="-7.02335734851658344268798828125">
        <ele>156.1999969482421875</ele>
        <time>2019-07-09T16:56:04.000Z</time>
      </trkpt>
      <trkpt lat="43.44065663404762744903564453125" lon="-7.02350847423076629638671875">
        <ele>157.399993896484375</ele>
        <time>2019-07-09T16:56:05.000Z</time>
      </trkpt>
      <trkpt lat="43.44060617499053478240966796875" lon="-7.02368424274027347564697265625">
        <ele>158.399993896484375</ele>
        <time>2019-07-09T16:56:06.000Z</time>
      </trkpt>
      <trkpt lat="43.4405333362519741058349609375" lon="-7.0240584947168827056884765625">
        <ele>160.399993896484375</ele>
        <time>2019-07-09T16:56:08.000Z</time>
      </trkpt>
      <trkpt lat="43.440481536090373992919921875" lon="-7.024227641522884368896484375">
        <ele>161.399993896484375</ele>
        <time>2019-07-09T16:56:09.000Z</time>
      </trkpt>
      <trkpt lat="43.44040869735181331634521484375" lon="-7.02437457628548145294189453125">
        <ele>162.600006103515625</ele>
        <time>2019-07-09T16:56:10.000Z</time>
      </trkpt>
      <trkpt lat="43.44030912034213542938232421875" lon="-7.024495191872119903564453125">
        <ele>163.600006103515625</ele>
        <time>2019-07-09T16:56:11.000Z</time>
      </trkpt>
      <trkpt lat="43.4401903487741947174072265625" lon="-7.02458404004573822021484375">
        <ele>164.399993896484375</ele>
        <time>2019-07-09T16:56:12.000Z</time>
      </trkpt>
      <trkpt lat="43.44005766324698925018310546875" lon="-7.02462963759899139404296875">
        <ele>165.1999969482421875</ele>
        <time>2019-07-09T16:56:13.000Z</time>
      </trkpt>
      <trkpt lat="43.4399154223501682281494140625" lon="-7.0246314816176891326904296875">
        <ele>165.8000030517578125</ele>
        <time>2019-07-09T16:56:14.000Z</time>
      </trkpt>
      <trkpt lat="43.43976714648306369781494140625" lon="-7.0245940983295440673828125">
        <ele>166.399993896484375</ele>
        <time>2019-07-09T16:56:15.000Z</time>
      </trkpt>
      <trkpt lat="43.43961375765502452850341796875" lon="-7.02453441917896270751953125">
        <ele>167.399993896484375</ele>
        <time>2019-07-09T16:56:16.000Z</time>
      </trkpt>
      <trkpt lat="43.439285941421985626220703125" lon="-7.02439871616661548614501953125">
        <ele>169.399993896484375</ele>
        <time>2019-07-09T16:56:18.000Z</time>
      </trkpt>
      <trkpt lat="43.4391161240637302398681640625" lon="-7.02433249913156032562255859375">
        <ele>171</ele>
        <time>2019-07-09T16:56:19.000Z</time>
      </trkpt>
      <trkpt lat="43.43894454650580883026123046875" lon="-7.02427047304809093475341796875">
        <ele>172.600006103515625</ele>
        <time>2019-07-09T16:56:20.000Z</time>
      </trkpt>
      <trkpt lat="43.43877254985272884368896484375" lon="-7.02421397902071475982666015625">
        <ele>173.8000030517578125</ele>
        <time>2019-07-09T16:56:21.000Z</time>
      </trkpt>
      <trkpt lat="43.4386096894741058349609375" lon="-7.02415446750819683074951171875">
        <ele>175.1999969482421875</ele>
        <time>2019-07-09T16:56:22.000Z</time>
      </trkpt>
      <trkpt lat="43.43846292234957218170166015625" lon="-7.02407777309417724609375">
        <ele>176.399993896484375</ele>
        <time>2019-07-09T16:56:23.000Z</time>
      </trkpt>
      <trkpt lat="43.43833367340266704559326171875" lon="-7.02397274784743785858154296875">
        <ele>177.8000030517578125</ele>
        <time>2019-07-09T16:56:24.000Z</time>
      </trkpt>
      <trkpt lat="43.43821414746344089508056640625" lon="-7.0238362066447734832763671875">
        <ele>178.600006103515625</ele>
        <time>2019-07-09T16:56:25.000Z</time>
      </trkpt>
      <trkpt lat="43.438101746141910552978515625" lon="-7.0236923731863498687744140625">
        <ele>179.1999969482421875</ele>
        <time>2019-07-09T16:56:26.000Z</time>
      </trkpt>
      <trkpt lat="43.4379838965833187103271484375" lon="-7.02356421388685703277587890625">
        <ele>179.8000030517578125</ele>
        <time>2019-07-09T16:56:27.000Z</time>
      </trkpt>
      <trkpt lat="43.43785355798900127410888671875" lon="-7.023471258580684661865234375">
        <ele>180.600006103515625</ele>
        <time>2019-07-09T16:56:28.000Z</time>
      </trkpt>
      <trkpt lat="43.43771257437765598297119140625" lon="-7.023414261639118194580078125">
        <ele>181.399993896484375</ele>
        <time>2019-07-09T16:56:29.000Z</time>
      </trkpt>
      <trkpt lat="43.43756907619535923004150390625" lon="-7.02337897382676601409912109375">
        <ele>182.1999969482421875</ele>
        <time>2019-07-09T16:56:30.000Z</time>
      </trkpt>
      <trkpt lat="43.437280319631099700927734375" lon="-7.02328694052994251251220703125">
        <ele>183.8000030517578125</ele>
        <time>2019-07-09T16:56:32.000Z</time>
      </trkpt>
      <trkpt lat="43.4369881264865398406982421875" lon="-7.02309365384280681610107421875">
        <ele>185.8000030517578125</ele>
        <time>2019-07-09T16:56:34.000Z</time>
      </trkpt>
      <trkpt lat="43.43675519339740276336669921875" lon="-7.02282057143747806549072265625">
        <ele>187.1999969482421875</ele>
        <time>2019-07-09T16:56:36.000Z</time>
      </trkpt>
      <trkpt lat="43.43666835688054561614990234375" lon="-7.0226575434207916259765625">
        <ele>188.399993896484375</ele>
        <time>2019-07-09T16:56:37.000Z</time>
      </trkpt>
      <trkpt lat="43.4366042353212833404541015625" lon="-7.02247858978807926177978515625">
        <ele>189.399993896484375</ele>
        <time>2019-07-09T16:56:38.000Z</time>
      </trkpt>
      <trkpt lat="43.43656383454799652099609375" lon="-7.0220894180238246917724609375">
        <ele>190.8000030517578125</ele>
        <time>2019-07-09T16:56:40.000Z</time>
      </trkpt>
      <trkpt lat="43.4365577995777130126953125" lon="-7.0214916206896305084228515625">
        <ele>192</ele>
        <time>2019-07-09T16:56:43.000Z</time>
      </trkpt>
      <trkpt lat="43.43643902800977230072021484375" lon="-7.0211528241634368896484375">
        <ele>193.399993896484375</ele>
        <time>2019-07-09T16:56:45.000Z</time>
      </trkpt>
      <trkpt lat="43.43624440021812915802001953125" lon="-7.02082492411136627197265625">
        <ele>194.600006103515625</ele>
        <time>2019-07-09T16:56:47.000Z</time>
      </trkpt>
      <trkpt lat="43.4361405484378337860107421875" lon="-7.0206460542976856231689453125">
        <ele>195.8000030517578125</ele>
        <time>2019-07-09T16:56:48.000Z</time>
      </trkpt>
      <trkpt lat="43.4360346011817455291748046875" lon="-7.02045570127665996551513671875">
        <ele>196.8000030517578125</ele>
        <time>2019-07-09T16:56:49.000Z</time>
      </trkpt>
      <trkpt lat="43.4358108043670654296875" lon="-7.02004968188703060150146484375">
        <ele>199</ele>
        <time>2019-07-09T16:56:51.000Z</time>
      </trkpt>
      <trkpt lat="43.4356956370174884796142578125" lon="-7.01984382234513759613037109375">
        <ele>200.600006103515625</ele>
        <time>2019-07-09T16:56:52.000Z</time>
      </trkpt>
      <trkpt lat="43.4355816431343555450439453125" lon="-7.019643075764179229736328125">
        <ele>202.600006103515625</ele>
        <time>2019-07-09T16:56:53.000Z</time>
      </trkpt>
      <trkpt lat="43.43546924181282520294189453125" lon="-7.01944517903029918670654296875">
        <ele>204.1999969482421875</ele>
        <time>2019-07-09T16:56:54.000Z</time>
      </trkpt>
      <trkpt lat="43.435359857976436614990234375" lon="-7.01924870721995830535888671875">
        <ele>205.600006103515625</ele>
        <time>2019-07-09T16:56:55.000Z</time>
      </trkpt>
      <trkpt lat="43.43525223433971405029296875" lon="-7.01905474998056888580322265625">
        <ele>206.8000030517578125</ele>
        <time>2019-07-09T16:56:56.000Z</time>
      </trkpt>
      <trkpt lat="43.4351441077888011932373046875" lon="-7.0188617147505283355712890625">
        <ele>208</ele>
        <time>2019-07-09T16:56:57.000Z</time>
      </trkpt>
      <trkpt lat="43.4350384958088397979736328125" lon="-7.01867245137691497802734375">
        <ele>209</ele>
        <time>2019-07-09T16:56:58.000Z</time>
      </trkpt>
      <trkpt lat="43.43483489938080310821533203125" lon="-7.018312700092792510986328125">
        <ele>210.399993896484375</ele>
        <time>2019-07-09T16:57:00.000Z</time>
      </trkpt>
      <trkpt lat="43.4346287883818149566650390625" lon="-7.0180092751979827880859375">
        <ele>211.399993896484375</ele>
        <time>2019-07-09T16:57:02.000Z</time>
      </trkpt>
      <trkpt lat="43.43451462686061859130859375" lon="-7.01789402402937412261962890625">
        <ele>211.8000030517578125</ele>
        <time>2019-07-09T16:57:03.000Z</time>
      </trkpt>
      <trkpt lat="43.43438982032239437103271484375" lon="-7.01781682670116424560546875">
        <ele>212.399993896484375</ele>
        <time>2019-07-09T16:57:04.000Z</time>
      </trkpt>
      <trkpt lat="43.43426258303225040435791015625" lon="-7.01778623275458812713623046875">
        <ele>213</ele>
        <time>2019-07-09T16:57:05.000Z</time>
      </trkpt>
      <trkpt lat="43.434146828949451446533203125" lon="-7.01780475676059722900390625">
        <ele>213.600006103515625</ele>
        <time>2019-07-09T16:57:06.000Z</time>
      </trkpt>
      <trkpt lat="43.434034846723079681396484375" lon="-7.0178602449595928192138671875">
        <ele>214.1999969482421875</ele>
        <time>2019-07-09T16:57:07.000Z</time>
      </trkpt>
      <trkpt lat="43.43392697162926197052001953125" lon="-7.01794146560132503509521484375">
        <ele>214.600006103515625</ele>
        <time>2019-07-09T16:57:08.000Z</time>
      </trkpt>
      <trkpt lat="43.43376285396516323089599609375" lon="-7.01818722300231456756591796875">
        <ele>215.1999969482421875</ele>
        <time>2019-07-09T16:57:10.000Z</time>
      </trkpt>
      <trkpt lat="43.433712311089038848876953125" lon="-7.01834346167743206024169921875">
        <ele>215.600006103515625</ele>
        <time>2019-07-09T16:57:11.000Z</time>
      </trkpt>
      <trkpt lat="43.433689177036285400390625" lon="-7.018528282642364501953125">
        <ele>216.600006103515625</ele>
        <time>2019-07-09T16:57:12.000Z</time>
      </trkpt>
      <trkpt lat="43.4336705692112445831298828125" lon="-7.01871846802532672882080078125">
        <ele>217.399993896484375</ele>
        <time>2019-07-09T16:57:13.000Z</time>
      </trkpt>
      <trkpt lat="43.433662019670009613037109375" lon="-7.0189250819385051727294921875">
        <ele>218.1999969482421875</ele>
        <time>2019-07-09T16:57:14.000Z</time>
      </trkpt>
      <trkpt lat="43.43364483676850795745849609375" lon="-7.01936957426369190216064453125">
        <ele>219.600006103515625</ele>
        <time>2019-07-09T16:57:16.000Z</time>
      </trkpt>
      <trkpt lat="43.4336435794830322265625" lon="-7.01960359700024127960205078125">
        <ele>220.8000030517578125</ele>
        <time>2019-07-09T16:57:17.000Z</time>
      </trkpt>
      <trkpt lat="43.4336407296359539031982421875" lon="-7.0198521204292774200439453125">
        <ele>222.399993896484375</ele>
        <time>2019-07-09T16:57:18.000Z</time>
      </trkpt>
      <trkpt lat="43.4336422383785247802734375" lon="-7.0201052539050579071044921875">
        <ele>224</ele>
        <time>2019-07-09T16:57:19.000Z</time>
      </trkpt>
      <trkpt lat="43.43364894390106201171875" lon="-7.02036014758050441741943359375">
        <ele>225.1999969482421875</ele>
        <time>2019-07-09T16:57:20.000Z</time>
      </trkpt>
      <trkpt lat="43.43365900218486785888671875" lon="-7.020602636039257049560546875">
        <ele>226.8000030517578125</ele>
        <time>2019-07-09T16:57:21.000Z</time>
      </trkpt>
      <trkpt lat="43.4336662106215953826904296875" lon="-7.02082064934074878692626953125">
        <ele>228.1999969482421875</ele>
        <time>2019-07-09T16:57:22.000Z</time>
      </trkpt>
      <trkpt lat="43.43365590088069438934326171875" lon="-7.0210138522088527679443359375">
        <ele>229.399993896484375</ele>
        <time>2019-07-09T16:57:23.000Z</time>
      </trkpt>
      <trkpt lat="43.43356705270707607269287109375" lon="-7.02134770341217517852783203125">
        <ele>230.1999969482421875</ele>
        <time>2019-07-09T16:57:25.000Z</time>
      </trkpt>
      <trkpt lat="43.433374352753162384033203125" lon="-7.021576277911663055419921875">
        <ele>230.1999969482421875</ele>
        <time>2019-07-09T16:57:27.000Z</time>
      </trkpt>
      <trkpt lat="43.43310822732746601104736328125" lon="-7.021646015346050262451171875">
        <ele>230.399993896484375</ele>
        <time>2019-07-09T16:57:29.000Z</time>
      </trkpt>
      <trkpt lat="43.432794325053691864013671875" lon="-7.02156521379947662353515625">
        <ele>231.600006103515625</ele>
        <time>2019-07-09T16:57:31.000Z</time>
      </trkpt>
      <trkpt lat="43.43262509442865848541259765625" lon="-7.021492458879947662353515625">
        <ele>232.600006103515625</ele>
        <time>2019-07-09T16:57:32.000Z</time>
      </trkpt>
      <trkpt lat="43.4324504993855953216552734375" lon="-7.02140771783888339996337890625">
        <ele>233.8000030517578125</ele>
        <time>2019-07-09T16:57:33.000Z</time>
      </trkpt>
      <trkpt lat="43.4322724677622318267822265625" lon="-7.02131316997110843658447265625">
        <ele>235</ele>
        <time>2019-07-09T16:57:34.000Z</time>
      </trkpt>
      <trkpt lat="43.4320972859859466552734375" lon="-7.02120906673371791839599609375">
        <ele>236.1999969482421875</ele>
        <time>2019-07-09T16:57:35.000Z</time>
      </trkpt>
      <trkpt lat="43.4319363534450531005859375" lon="-7.02110244892537593841552734375">
        <ele>237.1999969482421875</ele>
        <time>2019-07-09T16:57:36.000Z</time>
      </trkpt>
      <trkpt lat="43.4316481836140155792236328125" lon="-7.02094218693673610687255859375">
        <ele>239</ele>
        <time>2019-07-09T16:57:38.000Z</time>
      </trkpt>
      <trkpt lat="43.43134886585175991058349609375" lon="-7.02090212143957614898681640625">
        <ele>240.600006103515625</ele>
        <time>2019-07-09T16:57:40.000Z</time>
      </trkpt>
      <trkpt lat="43.4308629669249057769775390625" lon="-7.02104545198380947113037109375">
        <ele>241.8000030517578125</ele>
        <time>2019-07-09T16:57:43.000Z</time>
      </trkpt>
      <trkpt lat="43.430502377450466156005859375" lon="-7.021188698709011077880859375">
        <ele>243.399993896484375</ele>
        <time>2019-07-09T16:57:45.000Z</time>
      </trkpt>
      <trkpt lat="43.4303124435245990753173828125" lon="-7.0212673209607601165771484375">
        <ele>244.8000030517578125</ele>
        <time>2019-07-09T16:57:46.000Z</time>
      </trkpt>
      <trkpt lat="43.430122844874858856201171875" lon="-7.021350972354412078857421875">
        <ele>246.399993896484375</ele>
        <time>2019-07-09T16:57:47.000Z</time>
      </trkpt>
      <trkpt lat="43.42994011938571929931640625" lon="-7.0214425027370452880859375">
        <ele>248</ele>
        <time>2019-07-09T16:57:48.000Z</time>
      </trkpt>
      <trkpt lat="43.4297656081616878509521484375" lon="-7.0215442590415477752685546875">
        <ele>249.600006103515625</ele>
        <time>2019-07-09T16:57:49.000Z</time>
      </trkpt>
      <trkpt lat="43.42959637753665447235107421875" lon="-7.02166177332401275634765625">
        <ele>251</ele>
        <time>2019-07-09T16:57:50.000Z</time>
      </trkpt>
      <trkpt lat="43.42942806892096996307373046875" lon="-7.02179395593702793121337890625">
        <ele>252.1999969482421875</ele>
        <time>2019-07-09T16:57:51.000Z</time>
      </trkpt>
      <trkpt lat="43.429261855781078338623046875" lon="-7.02194265089929103851318359375">
        <ele>253.399993896484375</ele>
        <time>2019-07-09T16:57:52.000Z</time>
      </trkpt>
      <trkpt lat="43.42909748665988445281982421875" lon="-7.02210777439177036285400390625">
        <ele>254.600006103515625</ele>
        <time>2019-07-09T16:57:53.000Z</time>
      </trkpt>
      <trkpt lat="43.42893638648092746734619140625" lon="-7.022291086614131927490234375">
        <ele>255.600006103515625</ele>
        <time>2019-07-09T16:57:54.000Z</time>
      </trkpt>
      <trkpt lat="43.42878081835806369781494140625" lon="-7.0224897377192974090576171875">
        <ele>257</ele>
        <time>2019-07-09T16:57:55.000Z</time>
      </trkpt>
      <trkpt lat="43.42863430269062519073486328125" lon="-7.022700794041156768798828125">
        <ele>258.79998779296875</ele>
        <time>2019-07-09T16:57:56.000Z</time>
      </trkpt>
      <trkpt lat="43.42850019223988056182861328125" lon="-7.02291713096201419830322265625">
        <ele>260.600006103515625</ele>
        <time>2019-07-09T16:57:57.000Z</time>
      </trkpt>
      <trkpt lat="43.42837639153003692626953125" lon="-7.0231269299983978271484375">
        <ele>262</ele>
        <time>2019-07-09T16:57:58.000Z</time>
      </trkpt>
      <trkpt lat="43.4281271137297153472900390625" lon="-7.02349212951958179473876953125">
        <ele>263.600006103515625</ele>
        <time>2019-07-09T16:58:00.000Z</time>
      </trkpt>
      <trkpt lat="43.42783684842288494110107421875" lon="-7.02379605732858180999755859375">
        <ele>264.79998779296875</ele>
        <time>2019-07-09T16:58:02.000Z</time>
      </trkpt>
      <trkpt lat="43.427509367465972900390625" lon="-7.02410786412656307220458984375">
        <ele>266</ele>
        <time>2019-07-09T16:58:04.000Z</time>
      </trkpt>
      <trkpt lat="43.42733913101255893707275390625" lon="-7.02428120188415050506591796875">
        <ele>267.399993896484375</ele>
        <time>2019-07-09T16:58:05.000Z</time>
      </trkpt>
      <trkpt lat="43.42717132531106472015380859375" lon="-7.0244702138006687164306640625">
        <ele>269.399993896484375</ele>
        <time>2019-07-09T16:58:06.000Z</time>
      </trkpt>
      <trkpt lat="43.4270116500556468963623046875" lon="-7.02466341666877269744873046875">
        <ele>271.20001220703125</ele>
        <time>2019-07-09T16:58:07.000Z</time>
      </trkpt>
      <trkpt lat="43.4268587641417980194091796875" lon="-7.0248467288911342620849609375">
        <ele>272.79998779296875</ele>
        <time>2019-07-09T16:58:08.000Z</time>
      </trkpt>
      <trkpt lat="43.4265638887882232666015625" lon="-7.0251997746527194976806640625">
        <ele>274.600006103515625</ele>
        <time>2019-07-09T16:58:10.000Z</time>
      </trkpt>
      <trkpt lat="43.42627161182463169097900390625" lon="-7.0255420915782451629638671875">
        <ele>276.399993896484375</ele>
        <time>2019-07-09T16:58:12.000Z</time>
      </trkpt>
      <trkpt lat="43.42611721716821193695068359375" lon="-7.025706209242343902587890625">
        <ele>277</ele>
        <time>2019-07-09T16:58:13.000Z</time>
      </trkpt>
      <trkpt lat="43.42595410533249378204345703125" lon="-7.02586219646036624908447265625">
        <ele>277.79998779296875</ele>
        <time>2019-07-09T16:58:14.000Z</time>
      </trkpt>
      <trkpt lat="43.42559586279094219207763671875" lon="-7.0261502824723720550537109375">
        <ele>279.79998779296875</ele>
        <time>2019-07-09T16:58:16.000Z</time>
      </trkpt>
      <trkpt lat="43.4253998100757598876953125" lon="-7.02627659775316715240478515625">
        <ele>281</ele>
        <time>2019-07-09T16:58:17.000Z</time>
      </trkpt>
      <trkpt lat="43.4251984767615795135498046875" lon="-7.0263930223882198333740234375">
        <ele>282.20001220703125</ele>
        <time>2019-07-09T16:58:18.000Z</time>
      </trkpt>
      <trkpt lat="43.42499085702002048492431640625" lon="-7.02649670653045177459716796875">
        <ele>283.399993896484375</ele>
        <time>2019-07-09T16:58:19.000Z</time>
      </trkpt>
      <trkpt lat="43.4245302714407444000244140625" lon="-7.0266508497297763824462890625">
        <ele>285</ele>
        <time>2019-07-09T16:58:21.000Z</time>
      </trkpt>
      <trkpt lat="43.4240292012691497802734375" lon="-7.02678923495113849639892578125">
        <ele>287.399993896484375</ele>
        <time>2019-07-09T16:58:23.000Z</time>
      </trkpt>
      <trkpt lat="43.4237748943269252777099609375" lon="-7.0268587209284305572509765625">
        <ele>290</ele>
        <time>2019-07-09T16:58:24.000Z</time>
      </trkpt>
      <trkpt lat="43.4235249459743499755859375" lon="-7.02693373896181583404541015625">
        <ele>293</ele>
        <time>2019-07-09T16:58:25.000Z</time>
      </trkpt>
      <trkpt lat="43.4232863970100879669189453125" lon="-7.0270002074539661407470703125">
        <ele>295.600006103515625</ele>
        <time>2019-07-09T16:58:26.000Z</time>
      </trkpt>
      <trkpt lat="43.423058576881885528564453125" lon="-7.02705494128167629241943359375">
        <ele>297.20001220703125</ele>
        <time>2019-07-09T16:58:27.000Z</time>
      </trkpt>
      <trkpt lat="43.42264124192297458648681640625" lon="-7.02712585218250751495361328125">
        <ele>299</ele>
        <time>2019-07-09T16:58:29.000Z</time>
      </trkpt>
      <trkpt lat="43.42245382256805896759033203125" lon="-7.02715217135846614837646484375">
        <ele>300</ele>
        <time>2019-07-09T16:58:30.000Z</time>
      </trkpt>
      <trkpt lat="43.42209876514971256256103515625" lon="-7.02719709835946559906005859375">
        <ele>301.20001220703125</ele>
        <time>2019-07-09T16:58:32.000Z</time>
      </trkpt>
      <trkpt lat="43.4215107746422290802001953125" lon="-7.02732517383992671966552734375">
        <ele>302.600006103515625</ele>
        <time>2019-07-09T16:58:35.000Z</time>
      </trkpt>
      <trkpt lat="43.42131421901285648345947265625" lon="-7.02742475084960460662841796875">
        <ele>303.79998779296875</ele>
        <time>2019-07-09T16:58:36.000Z</time>
      </trkpt>
      <trkpt lat="43.421125710010528564453125" lon="-7.027540504932403564453125">
        <ele>305</ele>
        <time>2019-07-09T16:58:37.000Z</time>
      </trkpt>
      <trkpt lat="43.42093435116112232208251953125" lon="-7.02765516936779022216796875">
        <ele>306.600006103515625</ele>
        <time>2019-07-09T16:58:38.000Z</time>
      </trkpt>
      <trkpt lat="43.420745171606540679931640625" lon="-7.027770169079303741455078125">
        <ele>307.79998779296875</ele>
        <time>2019-07-09T16:58:39.000Z</time>
      </trkpt>
      <trkpt lat="43.42037402093410491943359375" lon="-7.02797167003154754638671875">
        <ele>309</ele>
        <time>2019-07-09T16:58:41.000Z</time>
      </trkpt>
      <trkpt lat="43.419897258281707763671875" lon="-7.02814106829464435577392578125">
        <ele>310.600006103515625</ele>
        <time>2019-07-09T16:58:44.000Z</time>
      </trkpt>
      <trkpt lat="43.4196895547211170196533203125" lon="-7.02834173105657100677490234375">
        <ele>311.20001220703125</ele>
        <time>2019-07-09T16:58:46.000Z</time>
      </trkpt>
      <trkpt lat="43.41961587779223918914794921875" lon="-7.02849813736975193023681640625">
        <ele>311.79998779296875</ele>
        <time>2019-07-09T16:58:47.000Z</time>
      </trkpt>
      <trkpt lat="43.41944471932947635650634765625" lon="-7.02883995138108730316162109375">
        <ele>312.600006103515625</ele>
        <time>2019-07-09T16:58:49.000Z</time>
      </trkpt>
      <trkpt lat="43.41932988725602626800537109375" lon="-7.02900406904518604278564453125">
        <ele>313</ele>
        <time>2019-07-09T16:58:50.000Z</time>
      </trkpt>
      <trkpt lat="43.41918739490211009979248046875" lon="-7.02915913425385951995849609375">
        <ele>313.399993896484375</ele>
        <time>2019-07-09T16:58:51.000Z</time>
      </trkpt>
      <trkpt lat="43.41902411542832851409912109375" lon="-7.029305733740329742431640625">
        <ele>314.20001220703125</ele>
        <time>2019-07-09T16:58:52.000Z</time>
      </trkpt>
      <trkpt lat="43.4188543818891048431396484375" lon="-7.02944881282746791839599609375">
        <ele>315.399993896484375</ele>
        <time>2019-07-09T16:58:53.000Z</time>
      </trkpt>
      <trkpt lat="43.41868649236857891082763671875" lon="-7.029591389000415802001953125">
        <ele>317</ele>
        <time>2019-07-09T16:58:54.000Z</time>
      </trkpt>
      <trkpt lat="43.4185284934937953948974609375" lon="-7.0297266729176044464111328125">
        <ele>319</ele>
        <time>2019-07-09T16:58:55.000Z</time>
      </trkpt>
      <trkpt lat="43.41838725842535495758056640625" lon="-7.02985013835132122039794921875">
        <ele>320.79998779296875</ele>
        <time>2019-07-09T16:58:56.000Z</time>
      </trkpt>
      <trkpt lat="43.41826102696359157562255859375" lon="-7.02996195293962955474853515625">
        <ele>322.399993896484375</ele>
        <time>2019-07-09T16:58:57.000Z</time>
      </trkpt>
      <trkpt lat="43.41802700422704219818115234375" lon="-7.03014585189521312713623046875">
        <ele>324.20001220703125</ele>
        <time>2019-07-09T16:58:59.000Z</time>
      </trkpt>
      <trkpt lat="43.41780303977429866790771484375" lon="-7.03028717078268527984619140625">
        <ele>325.399993896484375</ele>
        <time>2019-07-09T16:59:01.000Z</time>
      </trkpt>
      <trkpt lat="43.4174804203212261199951171875" lon="-7.0304797030985355377197265625">
        <ele>326.600006103515625</ele>
        <time>2019-07-09T16:59:04.000Z</time>
      </trkpt>
      <trkpt lat="43.4172004647552967071533203125" lon="-7.03067257069051265716552734375">
        <ele>327.79998779296875</ele>
        <time>2019-07-09T16:59:07.000Z</time>
      </trkpt>
      <trkpt lat="43.41690282337367534637451171875" lon="-7.03091396950185298919677734375">
        <ele>329</ele>
        <time>2019-07-09T16:59:10.000Z</time>
      </trkpt>
      <trkpt lat="43.41657894663512706756591796875" lon="-7.03119325451552867889404296875">
        <ele>330.20001220703125</ele>
        <time>2019-07-09T16:59:13.000Z</time>
      </trkpt>
      <trkpt lat="43.41635280288755893707275390625" lon="-7.0314007066190242767333984375">
        <ele>331.79998779296875</ele>
        <time>2019-07-09T16:59:15.000Z</time>
      </trkpt>
      <trkpt lat="43.41613504104316234588623046875" lon="-7.03165040351450443267822265625">
        <ele>333.600006103515625</ele>
        <time>2019-07-09T16:59:17.000Z</time>
      </trkpt>
      <trkpt lat="43.416035212576389312744140625" lon="-7.031796164810657501220703125">
        <ele>334.399993896484375</ele>
        <time>2019-07-09T16:59:18.000Z</time>
      </trkpt>
      <trkpt lat="43.41594460420310497283935546875" lon="-7.0319552533328533172607421875">
        <ele>335.600006103515625</ele>
        <time>2019-07-09T16:59:19.000Z</time>
      </trkpt>
      <trkpt lat="43.41577126644551753997802734375" lon="-7.03228290192782878875732421875">
        <ele>337.20001220703125</ele>
        <time>2019-07-09T16:59:21.000Z</time>
      </trkpt>
      <trkpt lat="43.41567805968225002288818359375" lon="-7.0324286632239818572998046875">
        <ele>337.79998779296875</ele>
        <time>2019-07-09T16:59:22.000Z</time>
      </trkpt>
      <trkpt lat="43.41557244770228862762451171875" lon="-7.03254709951579570770263671875">
        <ele>338.399993896484375</ele>
        <time>2019-07-09T16:59:23.000Z</time>
      </trkpt>
      <trkpt lat="43.41545342467725276947021484375" lon="-7.03262991271913051605224609375">
        <ele>339.399993896484375</ele>
        <time>2019-07-09T16:59:24.000Z</time>
      </trkpt>
      <trkpt lat="43.41532115824520587921142578125" lon="-7.0326734147965908050537109375">
        <ele>340</ele>
        <time>2019-07-09T16:59:25.000Z</time>
      </trkpt>
      <trkpt lat="43.41517916880548000335693359375" lon="-7.03267450444400310516357421875">
        <ele>340.600006103515625</ele>
        <time>2019-07-09T16:59:26.000Z</time>
      </trkpt>
      <trkpt lat="43.41503282077610492706298828125" lon="-7.03265187330543994903564453125">
        <ele>341</ele>
        <time>2019-07-09T16:59:27.000Z</time>
      </trkpt>
      <trkpt lat="43.4147378616034984588623046875" lon="-7.0326278172433376312255859375">
        <ele>342.399993896484375</ele>
        <time>2019-07-09T16:59:29.000Z</time>
      </trkpt>
      <trkpt lat="43.41459210030734539031982421875" lon="-7.03265212476253509521484375">
        <ele>343.600006103515625</ele>
        <time>2019-07-09T16:59:30.000Z</time>
      </trkpt>
      <trkpt lat="43.4144508652389049530029296875" lon="-7.03270032070577144622802734375">
        <ele>344.79998779296875</ele>
        <time>2019-07-09T16:59:31.000Z</time>
      </trkpt>
      <trkpt lat="43.414199911057949066162109375" lon="-7.03283929266035556793212890625">
        <ele>346.399993896484375</ele>
        <time>2019-07-09T16:59:33.000Z</time>
      </trkpt>
      <trkpt lat="43.4140773676335811614990234375" lon="-7.0329037494957447052001953125">
        <ele>346.79998779296875</ele>
        <time>2019-07-09T16:59:34.000Z</time>
      </trkpt>
      <trkpt lat="43.41381308622658252716064453125" lon="-7.032950855791568756103515625">
        <ele>347.20001220703125</ele>
        <time>2019-07-09T16:59:36.000Z</time>
      </trkpt>
      <trkpt lat="43.41353547759354114532470703125" lon="-7.03285119496285915374755859375">
        <ele>347.600006103515625</ele>
        <time>2019-07-09T16:59:38.000Z</time>
      </trkpt>
      <trkpt lat="43.413246385753154754638671875" lon="-7.03271381556987762451171875">
        <ele>349.399993896484375</ele>
        <time>2019-07-09T16:59:40.000Z</time>
      </trkpt>
      <trkpt lat="43.413092158734798431396484375" lon="-7.0326841436326503753662109375">
        <ele>350.399993896484375</ele>
        <time>2019-07-09T16:59:41.000Z</time>
      </trkpt>
      <trkpt lat="43.4129293821752071380615234375" lon="-7.032685987651348114013671875">
        <ele>351.399993896484375</ele>
        <time>2019-07-09T16:59:42.000Z</time>
      </trkpt>
      <trkpt lat="43.4127557091414928436279296875" lon="-7.03270652331411838531494140625">
        <ele>352</ele>
        <time>2019-07-09T16:59:43.000Z</time>
      </trkpt>
      <trkpt lat="43.41239386238157749176025390625" lon="-7.0327560603618621826171875">
        <ele>354</ele>
        <time>2019-07-09T16:59:45.000Z</time>
      </trkpt>
      <trkpt lat="43.4122122265398502349853515625" lon="-7.03278757631778717041015625">
        <ele>355.399993896484375</ele>
        <time>2019-07-09T16:59:46.000Z</time>
      </trkpt>
      <trkpt lat="43.412038721144199371337890625" lon="-7.0328410528600215911865234375">
        <ele>357</ele>
        <time>2019-07-09T16:59:47.000Z</time>
      </trkpt>
      <trkpt lat="43.41188005171716213226318359375" lon="-7.03291305340826511383056640625">
        <ele>358.399993896484375</ele>
        <time>2019-07-09T16:59:48.000Z</time>
      </trkpt>
      <trkpt lat="43.41159221716225147247314453125" lon="-7.03301313333213329315185546875">
        <ele>359.399993896484375</ele>
        <time>2019-07-09T16:59:50.000Z</time>
      </trkpt>
      <trkpt lat="43.411315865814685821533203125" lon="-7.03288673423230648040771484375">
        <ele>359.79998779296875</ele>
        <time>2019-07-09T16:59:52.000Z</time>
      </trkpt>
      <trkpt lat="43.411113359034061431884765625" lon="-7.03254617750644683837890625">
        <ele>360.399993896484375</ele>
        <time>2019-07-09T16:59:54.000Z</time>
      </trkpt>
      <trkpt lat="43.4110568650066852569580078125" lon="-7.032362781465053558349609375">
        <ele>360.79998779296875</ele>
        <time>2019-07-09T16:59:55.000Z</time>
      </trkpt>
      <trkpt lat="43.41105108149349689483642578125" lon="-7.0321802236139774322509765625">
        <ele>361.20001220703125</ele>
        <time>2019-07-09T16:59:56.000Z</time>
      </trkpt>
      <trkpt lat="43.411120064556598663330078125" lon="-7.03173506073653697967529296875">
        <ele>362</ele>
        <time>2019-07-09T16:59:58.000Z</time>
      </trkpt>
      <trkpt lat="43.41120648197829723358154296875" lon="-7.0312733016908168792724609375">
        <ele>363</ele>
        <time>2019-07-09T17:00:00.000Z</time>
      </trkpt>
      <trkpt lat="43.41127353720366954803466796875" lon="-7.03079343773424625396728515625">
        <ele>364.79998779296875</ele>
        <time>2019-07-09T17:00:02.000Z</time>
      </trkpt>
      <trkpt lat="43.4112913906574249267578125" lon="-7.03056729398667812347412109375">
        <ele>366</ele>
        <time>2019-07-09T17:00:03.000Z</time>
      </trkpt>
      <trkpt lat="43.411260880529880523681640625" lon="-7.03016596846282482147216796875">
        <ele>367.600006103515625</ele>
        <time>2019-07-09T17:00:05.000Z</time>
      </trkpt>
      <trkpt lat="43.41113138012588024139404296875" lon="-7.029843516647815704345703125">
        <ele>368.600006103515625</ele>
        <time>2019-07-09T17:00:07.000Z</time>
      </trkpt>
      <trkpt lat="43.4110283665359020233154296875" lon="-7.02972055412828922271728515625">
        <ele>369</ele>
        <time>2019-07-09T17:00:08.000Z</time>
      </trkpt>
      <trkpt lat="43.410902135074138641357421875" lon="-7.02962927520275115966796875">
        <ele>369.20001220703125</ele>
        <time>2019-07-09T17:00:09.000Z</time>
      </trkpt>
      <trkpt lat="43.41060399077832698822021484375" lon="-7.02953430823981761932373046875">
        <ele>370</ele>
        <time>2019-07-09T17:00:11.000Z</time>
      </trkpt>
      <trkpt lat="43.41028229333460330963134765625" lon="-7.02953816391527652740478515625">
        <ele>371.399993896484375</ele>
        <time>2019-07-09T17:00:13.000Z</time>
      </trkpt>
      <trkpt lat="43.40993645600974559783935546875" lon="-7.02959348447620868682861328125">
        <ele>373</ele>
        <time>2019-07-09T17:00:15.000Z</time>
      </trkpt>
      <trkpt lat="43.409557007253170013427734375" lon="-7.02966020442545413970947265625">
        <ele>374.600006103515625</ele>
        <time>2019-07-09T17:00:17.000Z</time>
      </trkpt>
      <trkpt lat="43.40913816355168819427490234375" lon="-7.02972994185984134674072265625">
        <ele>377.20001220703125</ele>
        <time>2019-07-09T17:00:19.000Z</time>
      </trkpt>
      <trkpt lat="43.40892476029694080352783203125" lon="-7.0297602005302906036376953125">
        <ele>378.79998779296875</ele>
        <time>2019-07-09T17:00:20.000Z</time>
      </trkpt>
      <trkpt lat="43.40870901010930538177490234375" lon="-7.0297809876501560211181640625">
        <ele>380</ele>
        <time>2019-07-09T17:00:21.000Z</time>
      </trkpt>
      <trkpt lat="43.408288322389125823974609375" lon="-7.02978358604013919830322265625">
        <ele>382</ele>
        <time>2019-07-09T17:00:23.000Z</time>
      </trkpt>
      <trkpt lat="43.4080960415303707122802734375" lon="-7.02977453358471393585205078125">
        <ele>383.20001220703125</ele>
        <time>2019-07-09T17:00:24.000Z</time>
      </trkpt>
      <trkpt lat="43.4077520482242107391357421875" lon="-7.0297461189329624176025390625">
        <ele>384.79998779296875</ele>
        <time>2019-07-09T17:00:26.000Z</time>
      </trkpt>
      <trkpt lat="43.4075961448252201080322265625" lon="-7.02971242368221282958984375">
        <ele>385.600006103515625</ele>
        <time>2019-07-09T17:00:27.000Z</time>
      </trkpt>
      <trkpt lat="43.40744535438716411590576171875" lon="-7.029651738703250885009765625">
        <ele>386</ele>
        <time>2019-07-09T17:00:28.000Z</time>
      </trkpt>
      <trkpt lat="43.407297246158123016357421875" lon="-7.029557526111602783203125">
        <ele>386.20001220703125</ele>
        <time>2019-07-09T17:00:29.000Z</time>
      </trkpt>
      <trkpt lat="43.40701804496347904205322265625" lon="-7.02927513979375362396240234375">
        <ele>386.79998779296875</ele>
        <time>2019-07-09T17:00:31.000Z</time>
      </trkpt>
      <trkpt lat="43.4068903885781764984130859375" lon="-7.02911873348057270050048828125">
        <ele>387.399993896484375</ele>
        <time>2019-07-09T17:00:32.000Z</time>
      </trkpt>
      <trkpt lat="43.40662543661892414093017578125" lon="-7.028828300535678863525390625">
        <ele>388.600006103515625</ele>
        <time>2019-07-09T17:00:34.000Z</time>
      </trkpt>
      <trkpt lat="43.40632318519055843353271484375" lon="-7.028594948351383209228515625">
        <ele>389.79998779296875</ele>
        <time>2019-07-09T17:00:36.000Z</time>
      </trkpt>
      <trkpt lat="43.40597952716052532196044921875" lon="-7.02841532416641712188720703125">
        <ele>391</ele>
        <time>2019-07-09T17:00:38.000Z</time>
      </trkpt>
      <trkpt lat="43.405614830553531646728515625" lon="-7.02831490896642208099365234375">
        <ele>392.600006103515625</ele>
        <time>2019-07-09T17:00:40.000Z</time>
      </trkpt>
      <trkpt lat="43.4052498824894428253173828125" lon="-7.0283047668635845184326171875">
        <ele>394.20001220703125</ele>
        <time>2019-07-09T17:00:42.000Z</time>
      </trkpt>
      <trkpt lat="43.40488300658762454986572265625" lon="-7.0283996500074863433837890625">
        <ele>396</ele>
        <time>2019-07-09T17:00:44.000Z</time>
      </trkpt>
      <trkpt lat="43.40470321476459503173828125" lon="-7.02848874963819980621337890625">
        <ele>397.20001220703125</ele>
        <time>2019-07-09T17:00:45.000Z</time>
      </trkpt>
      <trkpt lat="43.40452677570283412933349609375" lon="-7.0285971276462078094482421875">
        <ele>398.20001220703125</ele>
        <time>2019-07-09T17:00:46.000Z</time>
      </trkpt>
      <trkpt lat="43.40435595251619815826416015625" lon="-7.0287111215293407440185546875">
        <ele>399.399993896484375</ele>
        <time>2019-07-09T17:00:47.000Z</time>
      </trkpt>
      <trkpt lat="43.404048420488834381103515625" lon="-7.0289216749370098114013671875">
        <ele>400.79998779296875</ele>
        <time>2019-07-09T17:00:49.000Z</time>
      </trkpt>
      <trkpt lat="43.40379972942173480987548828125" lon="-7.0291385985910892486572265625">
        <ele>402.20001220703125</ele>
        <time>2019-07-09T17:00:51.000Z</time>
      </trkpt>
      <trkpt lat="43.40360560454428195953369140625" lon="-7.0294276066124439239501953125">
        <ele>403.20001220703125</ele>
        <time>2019-07-09T17:00:53.000Z</time>
      </trkpt>
      <trkpt lat="43.4035319276154041290283203125" lon="-7.0295996032655239105224609375">
        <ele>403.399993896484375</ele>
        <time>2019-07-09T17:00:54.000Z</time>
      </trkpt>
      <trkpt lat="43.4033937938511371612548828125" lon="-7.0299489609897136688232421875">
        <ele>403.79998779296875</ele>
        <time>2019-07-09T17:00:56.000Z</time>
      </trkpt>
      <trkpt lat="43.40320117771625518798828125" lon="-7.03020636923611164093017578125">
        <ele>404.79998779296875</ele>
        <time>2019-07-09T17:00:58.000Z</time>
      </trkpt>
      <trkpt lat="43.4029684960842132568359375" lon="-7.0303107239305973052978515625">
        <ele>405.399993896484375</ele>
        <time>2019-07-09T17:01:00.000Z</time>
      </trkpt>
      <trkpt lat="43.4027205593883991241455078125" lon="-7.030249536037445068359375">
        <ele>405.79998779296875</ele>
        <time>2019-07-09T17:01:02.000Z</time>
      </trkpt>
      <trkpt lat="43.4026063978672027587890625" lon="-7.03015825711190700531005859375">
        <ele>406</ele>
        <time>2019-07-09T17:01:03.000Z</time>
      </trkpt>
      <trkpt lat="43.4025083296000957489013671875" lon="-7.03002892434597015380859375">
        <ele>406.399993896484375</ele>
        <time>2019-07-09T17:01:04.000Z</time>
      </trkpt>
      <trkpt lat="43.40242442674934864044189453125" lon="-7.0298597775399684906005859375">
        <ele>407</ele>
        <time>2019-07-09T17:01:05.000Z</time>
      </trkpt>
      <trkpt lat="43.40224631130695343017578125" lon="-7.02944378368556499481201171875">
        <ele>408.20001220703125</ele>
        <time>2019-07-09T17:01:07.000Z</time>
      </trkpt>
      <trkpt lat="43.40198068879544734954833984375" lon="-7.02900289557874202728271484375">
        <ele>410.20001220703125</ele>
        <time>2019-07-09T17:01:09.000Z</time>
      </trkpt>
      <trkpt lat="43.401838280260562896728515625" lon="-7.02876401133835315704345703125">
        <ele>411.79998779296875</ele>
        <time>2019-07-09T17:01:10.000Z</time>
      </trkpt>
      <trkpt lat="43.40155589394271373748779296875" lon="-7.028306610882282257080078125">
        <ele>415.399993896484375</ele>
        <time>2019-07-09T17:01:12.000Z</time>
      </trkpt>
      <trkpt lat="43.40141055174171924591064453125" lon="-7.02811005525290966033935546875">
        <ele>417</ele>
        <time>2019-07-09T17:01:13.000Z</time>
      </trkpt>
      <trkpt lat="43.40126319788396358489990234375" lon="-7.0279326103627681732177734375">
        <ele>418.20001220703125</ele>
        <time>2019-07-09T17:01:14.000Z</time>
      </trkpt>
      <trkpt lat="43.4009563364088535308837890625" lon="-7.0276187919080257415771484375">
        <ele>419.20001220703125</ele>
        <time>2019-07-09T17:01:16.000Z</time>
      </trkpt>
      <trkpt lat="43.40050094760954380035400390625" lon="-7.02718787826597690582275390625">
        <ele>419.600006103515625</ele>
        <time>2019-07-09T17:01:19.000Z</time>
      </trkpt>
      <trkpt lat="43.40008067898452281951904296875" lon="-7.02683147974312305450439453125">
        <ele>420.79998779296875</ele>
        <time>2019-07-09T17:01:22.000Z</time>
      </trkpt>
      <trkpt lat="43.39977960102260112762451171875" lon="-7.02669653110206127166748046875">
        <ele>421.79998779296875</ele>
        <time>2019-07-09T17:01:24.000Z</time>
      </trkpt>
      <trkpt lat="43.3996199257671833038330078125" lon="-7.02667473815381526947021484375">
        <ele>422</ele>
        <time>2019-07-09T17:01:25.000Z</time>
      </trkpt>
      <trkpt lat="43.399457819759845733642578125" lon="-7.0266914181411266326904296875">
        <ele>422.399993896484375</ele>
        <time>2019-07-09T17:01:26.000Z</time>
      </trkpt>
      <trkpt lat="43.39913033880293369293212890625" lon="-7.02681203372776508331298828125">
        <ele>423.399993896484375</ele>
        <time>2019-07-09T17:01:28.000Z</time>
      </trkpt>
      <trkpt lat="43.39879539795219898223876953125" lon="-7.0269753970205783843994140625">
        <ele>424.79998779296875</ele>
        <time>2019-07-09T17:01:30.000Z</time>
      </trkpt>
      <trkpt lat="43.3986355550587177276611328125" lon="-7.0270484872162342071533203125">
        <ele>426</ele>
        <time>2019-07-09T17:01:31.000Z</time>
      </trkpt>
      <trkpt lat="43.39848476462066173553466796875" lon="-7.0271225832402706146240234375">
        <ele>427.20001220703125</ele>
        <time>2019-07-09T17:01:32.000Z</time>
      </trkpt>
      <trkpt lat="43.39834294281899929046630859375" lon="-7.027195505797863006591796875">
        <ele>428.20001220703125</ele>
        <time>2019-07-09T17:01:33.000Z</time>
      </trkpt>
      <trkpt lat="43.39807815849781036376953125" lon="-7.0273002795875072479248046875">
        <ele>429</ele>
        <time>2019-07-09T17:01:35.000Z</time>
      </trkpt>
      <trkpt lat="43.39782862924039363861083984375" lon="-7.0272623933851718902587890625">
        <ele>429.20001220703125</ele>
        <time>2019-07-09T17:01:37.000Z</time>
      </trkpt>
      <trkpt lat="43.39761304669082164764404296875" lon="-7.02705929987132549285888671875">
        <ele>429</ele>
        <time>2019-07-09T17:01:39.000Z</time>
      </trkpt>
      <trkpt lat="43.397493772208690643310546875" lon="-7.0267319865524768829345703125">
        <ele>429.20001220703125</ele>
        <time>2019-07-09T17:01:41.000Z</time>
      </trkpt>
      <trkpt lat="43.397483043372631072998046875" lon="-7.02653325162827968597412109375">
        <ele>429.600006103515625</ele>
        <time>2019-07-09T17:01:42.000Z</time>
      </trkpt>
      <trkpt lat="43.3975133858621120452880859375" lon="-7.0263343490660190582275390625">
        <ele>430</ele>
        <time>2019-07-09T17:01:43.000Z</time>
      </trkpt>
      <trkpt lat="43.397672809660434722900390625" lon="-7.02596060000360012054443359375">
        <ele>430.600006103515625</ele>
        <time>2019-07-09T17:01:45.000Z</time>
      </trkpt>
      <trkpt lat="43.39783541858196258544921875" lon="-7.02557905577123165130615234375">
        <ele>431.20001220703125</ele>
        <time>2019-07-09T17:01:47.000Z</time>
      </trkpt>
      <trkpt lat="43.3978991210460662841796875" lon="-7.02513414435088634490966796875">
        <ele>431.600006103515625</ele>
        <time>2019-07-09T17:01:49.000Z</time>
      </trkpt>
      <trkpt lat="43.39788663201034069061279296875" lon="-7.02489576302468776702880859375">
        <ele>432.20001220703125</ele>
        <time>2019-07-09T17:01:50.000Z</time>
      </trkpt>
      <trkpt lat="43.39783399365842342376708984375" lon="-7.0243696309626102447509765625">
        <ele>433.600006103515625</ele>
        <time>2019-07-09T17:01:52.000Z</time>
      </trkpt>
      <trkpt lat="43.39782125316560268402099609375" lon="-7.0238231308758258819580078125">
        <ele>435.600006103515625</ele>
        <time>2019-07-09T17:01:54.000Z</time>
      </trkpt>
      <trkpt lat="43.397831059992313385009765625" lon="-7.0232784748077392578125">
        <ele>437.399993896484375</ele>
        <time>2019-07-09T17:01:56.000Z</time>
      </trkpt>
      <trkpt lat="43.3978261984884738922119140625" lon="-7.023009918630123138427734375">
        <ele>438</ele>
        <time>2019-07-09T17:01:57.000Z</time>
      </trkpt>
      <trkpt lat="43.39780566282570362091064453125" lon="-7.0227445475757122039794921875">
        <ele>438.399993896484375</ele>
        <time>2019-07-09T17:01:58.000Z</time>
      </trkpt>
      <trkpt lat="43.39767842553555965423583984375" lon="-7.02195086516439914703369140625">
        <ele>440</ele>
        <time>2019-07-09T17:02:01.000Z</time>
      </trkpt>
      <trkpt lat="43.39758454822003841400146484375" lon="-7.021386511623859405517578125">
        <ele>441.600006103515625</ele>
        <time>2019-07-09T17:02:03.000Z</time>
      </trkpt>
      <trkpt lat="43.39750575833022594451904296875" lon="-7.0208019576966762542724609375">
        <ele>443.20001220703125</ele>
        <time>2019-07-09T17:02:05.000Z</time>
      </trkpt>
      <trkpt lat="43.3974671177566051483154296875" lon="-7.02051336877048015594482421875">
        <ele>444.399993896484375</ele>
        <time>2019-07-09T17:02:06.000Z</time>
      </trkpt>
      <trkpt lat="43.39743174612522125244140625" lon="-7.02023156918585300445556640625">
        <ele>445.600006103515625</ele>
        <time>2019-07-09T17:02:07.000Z</time>
      </trkpt>
      <trkpt lat="43.39740366674959659576416015625" lon="-7.01995898969471454620361328125">
        <ele>447</ele>
        <time>2019-07-09T17:02:08.000Z</time>
      </trkpt>
      <trkpt lat="43.39739285409450531005859375" lon="-7.01969915069639682769775390625">
        <ele>448</ele>
        <time>2019-07-09T17:02:09.000Z</time>
      </trkpt>
      <trkpt lat="43.39739285409450531005859375" lon="-7.01924216933548450469970703125">
        <ele>449.20001220703125</ele>
        <time>2019-07-09T17:02:11.000Z</time>
      </trkpt>
      <trkpt lat="43.39737298898398876190185546875" lon="-7.01886950992047786712646484375">
        <ele>449.399993896484375</ele>
        <time>2019-07-09T17:02:13.000Z</time>
      </trkpt>
      <trkpt lat="43.39728380553424358367919921875" lon="-7.0185162127017974853515625">
        <ele>449.600006103515625</ele>
        <time>2019-07-09T17:02:15.000Z</time>
      </trkpt>
      <trkpt lat="43.39704441837966442108154296875" lon="-7.018012292683124542236328125">
        <ele>450.600006103515625</ele>
        <time>2019-07-09T17:02:18.000Z</time>
      </trkpt>
      <trkpt lat="43.3968642912805080413818359375" lon="-7.01772605068981647491455078125">
        <ele>452.399993896484375</ele>
        <time>2019-07-09T17:02:20.000Z</time>
      </trkpt>
      <trkpt lat="43.3966500498354434967041015625" lon="-7.01753561384975910186767578125">
        <ele>454</ele>
        <time>2019-07-09T17:02:22.000Z</time>
      </trkpt>
      <trkpt lat="43.3964237384498119354248046875" lon="-7.01743637211620807647705078125">
        <ele>455</ele>
        <time>2019-07-09T17:02:24.000Z</time>
      </trkpt>
      <trkpt lat="43.39620103128254413604736328125" lon="-7.01741793192923069000244140625">
        <ele>456</ele>
        <time>2019-07-09T17:02:26.000Z</time>
      </trkpt>
      <trkpt lat="43.39608636684715747833251953125" lon="-7.01743997633457183837890625">
        <ele>456.79998779296875</ele>
        <time>2019-07-09T17:02:27.000Z</time>
      </trkpt>
      <trkpt lat="43.395832479000091552734375" lon="-7.017525471746921539306640625">
        <ele>458.20001220703125</ele>
        <time>2019-07-09T17:02:29.000Z</time>
      </trkpt>
      <trkpt lat="43.3955506794154644012451171875" lon="-7.0176295749843120574951171875">
        <ele>459.79998779296875</ele>
        <time>2019-07-09T17:02:31.000Z</time>
      </trkpt>
      <trkpt lat="43.395404331386089324951171875" lon="-7.01768179424107074737548828125">
        <ele>460.79998779296875</ele>
        <time>2019-07-09T17:02:32.000Z</time>
      </trkpt>
      <trkpt lat="43.3952556364238262176513671875" lon="-7.0177355222404003143310546875">
        <ele>462.399993896484375</ele>
        <time>2019-07-09T17:02:33.000Z</time>
      </trkpt>
      <trkpt lat="43.3951064385473728179931640625" lon="-7.0177955366671085357666015625">
        <ele>463.79998779296875</ele>
        <time>2019-07-09T17:02:34.000Z</time>
      </trkpt>
      <trkpt lat="43.3949582464993000030517578125" lon="-7.01786653138697147369384765625">
        <ele>465</ele>
        <time>2019-07-09T17:02:35.000Z</time>
      </trkpt>
      <trkpt lat="43.3948147483170032501220703125" lon="-7.0179524458944797515869140625">
        <ele>466.20001220703125</ele>
        <time>2019-07-09T17:02:36.000Z</time>
      </trkpt>
      <trkpt lat="43.39467669837176799774169921875" lon="-7.0180463232100009918212890625">
        <ele>467.399993896484375</ele>
        <time>2019-07-09T17:02:37.000Z</time>
      </trkpt>
      <trkpt lat="43.39454711414873600006103515625" lon="-7.018141709268093109130859375">
        <ele>468.399993896484375</ele>
        <time>2019-07-09T17:02:38.000Z</time>
      </trkpt>
      <trkpt lat="43.3943178690969944000244140625" lon="-7.01833960600197315216064453125">
        <ele>470.399993896484375</ele>
        <time>2019-07-09T17:02:40.000Z</time>
      </trkpt>
      <trkpt lat="43.3941462077200412750244140625" lon="-7.018617801368236541748046875">
        <ele>471.600006103515625</ele>
        <time>2019-07-09T17:02:42.000Z</time>
      </trkpt>
      <trkpt lat="43.394084013998508453369140625" lon="-7.0189505629241466522216796875">
        <ele>472.79998779296875</ele>
        <time>2019-07-09T17:02:44.000Z</time>
      </trkpt>
      <trkpt lat="43.394099771976470947265625" lon="-7.01929204165935516357421875">
        <ele>474.399993896484375</ele>
        <time>2019-07-09T17:02:46.000Z</time>
      </trkpt>
      <trkpt lat="43.39409373700618743896484375" lon="-7.0194618590176105499267578125">
        <ele>475.399993896484375</ele>
        <time>2019-07-09T17:02:47.000Z</time>
      </trkpt>
      <trkpt lat="43.39406046085059642791748046875" lon="-7.01962404884397983551025390625">
        <ele>476.399993896484375</ele>
        <time>2019-07-09T17:02:48.000Z</time>
      </trkpt>
      <trkpt lat="43.39399843476712703704833984375" lon="-7.01976905576884746551513671875">
        <ele>477.399993896484375</ele>
        <time>2019-07-09T17:02:49.000Z</time>
      </trkpt>
      <trkpt lat="43.3939148671925067901611328125" lon="-7.0198895037174224853515625">
        <ele>478.20001220703125</ele>
        <time>2019-07-09T17:02:50.000Z</time>
      </trkpt>
      <trkpt lat="43.39381285943090915679931640625" lon="-7.01998363249003887176513671875">
        <ele>479</ele>
        <time>2019-07-09T17:02:51.000Z</time>
      </trkpt>
      <trkpt lat="43.3936962671577930450439453125" lon="-7.02004347927868366241455078125">
        <ele>479.600006103515625</ele>
        <time>2019-07-09T17:02:52.000Z</time>
      </trkpt>
      <trkpt lat="43.39356341399252414703369140625" lon="-7.02006041072309017181396484375">
        <ele>480.20001220703125</ele>
        <time>2019-07-09T17:02:53.000Z</time>
      </trkpt>
      <trkpt lat="43.3934230171144008636474609375" lon="-7.020035348832607269287109375">
        <ele>480.79998779296875</ele>
        <time>2019-07-09T17:02:54.000Z</time>
      </trkpt>
      <trkpt lat="43.39313576929271221160888671875" lon="-7.019930072128772735595703125">
        <ele>482.600006103515625</ele>
        <time>2019-07-09T17:02:56.000Z</time>
      </trkpt>
      <trkpt lat="43.39298556558787822723388671875" lon="-7.0199040882289409637451171875">
        <ele>483.79998779296875</ele>
        <time>2019-07-09T17:02:57.000Z</time>
      </trkpt>
      <trkpt lat="43.392833769321441650390625" lon="-7.01991355977952480316162109375">
        <ele>485</ele>
        <time>2019-07-09T17:02:58.000Z</time>
      </trkpt>
      <trkpt lat="43.39253780432045459747314453125" lon="-7.020026631653308868408203125">
        <ele>486.79998779296875</ele>
        <time>2019-07-09T17:03:00.000Z</time>
      </trkpt>
      <trkpt lat="43.39227025397121906280517578125" lon="-7.02023726888000965118408203125">
        <ele>489</ele>
        <time>2019-07-09T17:03:02.000Z</time>
      </trkpt>
      <trkpt lat="43.392138071358203887939453125" lon="-7.02033852227032184600830078125">
        <ele>490</ele>
        <time>2019-07-09T17:03:03.000Z</time>
      </trkpt>
      <trkpt lat="43.392004631459712982177734375" lon="-7.02040507458150386810302734375">
        <ele>491.399993896484375</ele>
        <time>2019-07-09T17:03:04.000Z</time>
      </trkpt>
      <trkpt lat="43.39187278412282466888427734375" lon="-7.0204291306436061859130859375">
        <ele>492.399993896484375</ele>
        <time>2019-07-09T17:03:05.000Z</time>
      </trkpt>
      <trkpt lat="43.39174403809010982513427734375" lon="-7.02041010372340679168701171875">
        <ele>493.600006103515625</ele>
        <time>2019-07-09T17:03:06.000Z</time>
      </trkpt>
      <trkpt lat="43.39162317104637622833251953125" lon="-7.0203459821641445159912109375">
        <ele>494.399993896484375</ele>
        <time>2019-07-09T17:03:07.000Z</time>
      </trkpt>
      <trkpt lat="43.39151387102901935577392578125" lon="-7.020243220031261444091796875">
        <ele>495</ele>
        <time>2019-07-09T17:03:08.000Z</time>
      </trkpt>
      <trkpt lat="43.39141714386641979217529296875" lon="-7.0200918428599834442138671875">
        <ele>495.79998779296875</ele>
        <time>2019-07-09T17:03:09.000Z</time>
      </trkpt>
      <trkpt lat="43.3913500048220157623291015625" lon="-7.0199161581695079803466796875">
        <ele>496.600006103515625</ele>
        <time>2019-07-09T17:03:10.000Z</time>
      </trkpt>
      <trkpt lat="43.39132058434188365936279296875" lon="-7.01973100192844867706298828125">
        <ele>497.399993896484375</ele>
        <time>2019-07-09T17:03:11.000Z</time>
      </trkpt>
      <trkpt lat="43.3913174830377101898193359375" lon="-7.01955263502895832061767578125">
        <ele>498.20001220703125</ele>
        <time>2019-07-09T17:03:12.000Z</time>
      </trkpt>
      <trkpt lat="43.3913225121796131134033203125" lon="-7.0193830691277980804443359375">
        <ele>499</ele>
        <time>2019-07-09T17:03:13.000Z</time>
      </trkpt>
      <trkpt lat="43.39130281470715999603271484375" lon="-7.01922406442463397979736328125">
        <ele>499.399993896484375</ele>
        <time>2019-07-09T17:03:14.000Z</time>
      </trkpt>
      <trkpt lat="43.39125822298228740692138671875" lon="-7.0190742798149585723876953125">
        <ele>499.79998779296875</ele>
        <time>2019-07-09T17:03:15.000Z</time>
      </trkpt>
      <trkpt lat="43.391098715364933013916015625" lon="-7.01882374472916126251220703125">
        <ele>500.399993896484375</ele>
        <time>2019-07-09T17:03:17.000Z</time>
      </trkpt>
      <trkpt lat="43.3909936062991619110107421875" lon="-7.01873950660228729248046875">
        <ele>500.79998779296875</ele>
        <time>2019-07-09T17:03:18.000Z</time>
      </trkpt>
      <trkpt lat="43.390871398150920867919921875" lon="-7.01868896372616291046142578125">
        <ele>501.600006103515625</ele>
        <time>2019-07-09T17:03:19.000Z</time>
      </trkpt>
      <trkpt lat="43.3907322585582733154296875" lon="-7.01866306364536285400390625">
        <ele>502.600006103515625</ele>
        <time>2019-07-09T17:03:20.000Z</time>
      </trkpt>
      <trkpt lat="43.3905781991779804229736328125" lon="-7.01865325681865215301513671875">
        <ele>503.600006103515625</ele>
        <time>2019-07-09T17:03:21.000Z</time>
      </trkpt>
      <trkpt lat="43.39040997438132762908935546875" lon="-7.0186605490744113922119140625">
        <ele>504.79998779296875</ele>
        <time>2019-07-09T17:03:22.000Z</time>
      </trkpt>
      <trkpt lat="43.390226997435092926025390625" lon="-7.0186803303658962249755859375">
        <ele>506.20001220703125</ele>
        <time>2019-07-09T17:03:23.000Z</time>
      </trkpt>
      <trkpt lat="43.3900414220988750457763671875" lon="-7.01870455406606197357177734375">
        <ele>508</ele>
        <time>2019-07-09T17:03:24.000Z</time>
      </trkpt>
      <trkpt lat="43.3898647315800189971923828125" lon="-7.0187286101281642913818359375">
        <ele>510.20001220703125</ele>
        <time>2019-07-09T17:03:25.000Z</time>
      </trkpt>
      <trkpt lat="43.38970237411558628082275390625" lon="-7.018748559057712554931640625">
        <ele>512.20001220703125</ele>
        <time>2019-07-09T17:03:26.000Z</time>
      </trkpt>
      <trkpt lat="43.3895566128194332122802734375" lon="-7.018753252923488616943359375">
        <ele>514</ele>
        <time>2019-07-09T17:03:27.000Z</time>
      </trkpt>
      <trkpt lat="43.38942577131092548370361328125" lon="-7.01872366480529308319091796875">
        <ele>515.20001220703125</ele>
        <time>2019-07-09T17:03:28.000Z</time>
      </trkpt>
      <trkpt lat="43.38931311853229999542236328125" lon="-7.018651328980922698974609375">
        <ele>515.79998779296875</ele>
        <time>2019-07-09T17:03:29.000Z</time>
      </trkpt>
      <trkpt lat="43.389213122427463531494140625" lon="-7.01853741891682147979736328125">
        <ele>516.20001220703125</ele>
        <time>2019-07-09T17:03:30.000Z</time>
      </trkpt>
      <trkpt lat="43.38913206942379474639892578125" lon="-7.01839610002934932708740234375">
        <ele>516.5999755859375</ele>
        <time>2019-07-09T17:03:31.000Z</time>
      </trkpt>
      <trkpt lat="43.38904841803014278411865234375" lon="-7.0180329121649265289306640625">
        <ele>517.79998779296875</ele>
        <time>2019-07-09T17:03:33.000Z</time>
      </trkpt>
      <trkpt lat="43.38906861841678619384765625" lon="-7.01759914867579936981201171875">
        <ele>519.4000244140625</ele>
        <time>2019-07-09T17:03:35.000Z</time>
      </trkpt>
      <trkpt lat="43.38909133337438106536865234375" lon="-7.0171471126377582550048828125">
        <ele>521</ele>
        <time>2019-07-09T17:03:37.000Z</time>
      </trkpt>
      <trkpt lat="43.3890821970999240875244140625" lon="-7.01671033166348934173583984375">
        <ele>522.5999755859375</ele>
        <time>2019-07-09T17:03:39.000Z</time>
      </trkpt>
      <trkpt lat="43.389035426080226898193359375" lon="-7.0162948407232761383056640625">
        <ele>524</ele>
        <time>2019-07-09T17:03:41.000Z</time>
      </trkpt>
      <trkpt lat="43.38892319239675998687744140625" lon="-7.0159029029309749603271484375">
        <ele>524.4000244140625</ele>
        <time>2019-07-09T17:03:43.000Z</time>
      </trkpt>
      <trkpt lat="43.3887635171413421630859375" lon="-7.01558514498174190521240234375">
        <ele>524.5999755859375</ele>
        <time>2019-07-09T17:03:45.000Z</time>
      </trkpt>
      <trkpt lat="43.388564027845859527587890625" lon="-7.0153252221643924713134765625">
        <ele>524.5999755859375</ele>
        <time>2019-07-09T17:03:47.000Z</time>
      </trkpt>
      <trkpt lat="43.388330005109310150146484375" lon="-7.01513067819178104400634765625">
        <ele>525.20001220703125</ele>
        <time>2019-07-09T17:03:49.000Z</time>
      </trkpt>
      <trkpt lat="43.388069160282611846923828125" lon="-7.01499874703586101531982421875">
        <ele>526.5999755859375</ele>
        <time>2019-07-09T17:03:51.000Z</time>
      </trkpt>
      <trkpt lat="43.387784175574779510498046875" lon="-7.014955915510654449462890625">
        <ele>528.5999755859375</ele>
        <time>2019-07-09T17:03:53.000Z</time>
      </trkpt>
      <trkpt lat="43.38763765990734100341796875" lon="-7.01496605761349201202392578125">
        <ele>529.5999755859375</ele>
        <time>2019-07-09T17:03:54.000Z</time>
      </trkpt>
      <trkpt lat="43.3874896354973316192626953125" lon="-7.014998495578765869140625">
        <ele>530.5999755859375</ele>
        <time>2019-07-09T17:03:55.000Z</time>
      </trkpt>
      <trkpt lat="43.38734387420117855072021484375" lon="-7.01505926437675952911376953125">
        <ele>531.79998779296875</ele>
        <time>2019-07-09T17:03:56.000Z</time>
      </trkpt>
      <trkpt lat="43.38720523752272129058837890625" lon="-7.01515230350196361541748046875">
        <ele>533</ele>
        <time>2019-07-09T17:03:57.000Z</time>
      </trkpt>
      <trkpt lat="43.38708168826997280120849609375" lon="-7.0152747631072998046875">
        <ele>534.5999755859375</ele>
        <time>2019-07-09T17:03:58.000Z</time>
      </trkpt>
      <trkpt lat="43.38697959668934345245361328125" lon="-7.01541884802281856536865234375">
        <ele>535.79998779296875</ele>
        <time>2019-07-09T17:03:59.000Z</time>
      </trkpt>
      <trkpt lat="43.38689963333308696746826171875" lon="-7.0155845582485198974609375">
        <ele>537.20001220703125</ele>
        <time>2019-07-09T17:04:00.000Z</time>
      </trkpt>
      <trkpt lat="43.386835344135761260986328125" lon="-7.01576887629926204681396484375">
        <ele>538.20001220703125</ele>
        <time>2019-07-09T17:04:01.000Z</time>
      </trkpt>
      <trkpt lat="43.38672210462391376495361328125" lon="-7.01616534031927585601806640625">
        <ele>540.20001220703125</ele>
        <time>2019-07-09T17:04:03.000Z</time>
      </trkpt>
      <trkpt lat="43.38665002025663852691650390625" lon="-7.0163702778518199920654296875">
        <ele>541.4000244140625</ele>
        <time>2019-07-09T17:04:04.000Z</time>
      </trkpt>
      <trkpt lat="43.38655664585530757904052734375" lon="-7.01657186262309551239013671875">
        <ele>542.79998779296875</ele>
        <time>2019-07-09T17:04:05.000Z</time>
      </trkpt>
      <trkpt lat="43.386447764933109283447265625" lon="-7.01676414348185062408447265625">
        <ele>544</ele>
        <time>2019-07-09T17:04:06.000Z</time>
      </trkpt>
      <trkpt lat="43.3863299153745174407958984375" lon="-7.01695122756063938140869140625">
        <ele>545</ele>
        <time>2019-07-09T17:04:07.000Z</time>
      </trkpt>
      <trkpt lat="43.38620812632143497467041015625" lon="-7.01713244430720806121826171875">
        <ele>546.5999755859375</ele>
        <time>2019-07-09T17:04:08.000Z</time>
      </trkpt>
      <trkpt lat="43.38608759455382823944091796875" lon="-7.01730251312255859375">
        <ele>547.79998779296875</ele>
        <time>2019-07-09T17:04:09.000Z</time>
      </trkpt>
      <trkpt lat="43.385967314243316650390625" lon="-7.01744810678064823150634765625">
        <ele>549.20001220703125</ele>
        <time>2019-07-09T17:04:10.000Z</time>
      </trkpt>
      <trkpt lat="43.38568375445902347564697265625" lon="-7.017619349062442779541015625">
        <ele>551</ele>
        <time>2019-07-09T17:04:12.000Z</time>
      </trkpt>
      <trkpt lat="43.38536926545202732086181640625" lon="-7.0176403038203716278076171875">
        <ele>552</ele>
        <time>2019-07-09T17:04:14.000Z</time>
      </trkpt>
      <trkpt lat="43.38507078588008880615234375" lon="-7.01763845980167388916015625">
        <ele>553.5999755859375</ele>
        <time>2019-07-09T17:04:16.000Z</time>
      </trkpt>
      <trkpt lat="43.38477465324103832244873046875" lon="-7.0177160762250423431396484375">
        <ele>555.20001220703125</ele>
        <time>2019-07-09T17:04:18.000Z</time>
      </trkpt>
      <trkpt lat="43.38462746702134609222412109375" lon="-7.01778623275458812713623046875">
        <ele>556.20001220703125</ele>
        <time>2019-07-09T17:04:19.000Z</time>
      </trkpt>
      <trkpt lat="43.38448028080165386199951171875" lon="-7.01787239871919155120849609375">
        <ele>558.5999755859375</ele>
        <time>2019-07-09T17:04:20.000Z</time>
      </trkpt>
      <trkpt lat="43.38433309458196163177490234375" lon="-7.01798052527010440826416015625">
        <ele>561</ele>
        <time>2019-07-09T17:04:21.000Z</time>
      </trkpt>
      <trkpt lat="43.38418255560100078582763671875" lon="-7.01810457743704319000244140625">
        <ele>563</ele>
        <time>2019-07-09T17:04:22.000Z</time>
      </trkpt>
      <trkpt lat="43.384025730192661285400390625" lon="-7.018238939344882965087890625">
        <ele>564.4000244140625</ele>
        <time>2019-07-09T17:04:23.000Z</time>
      </trkpt>
      <trkpt lat="43.38353916071355342864990234375" lon="-7.0186122693121433258056640625">
        <ele>565.20001220703125</ele>
        <time>2019-07-09T17:04:26.000Z</time>
      </trkpt>
      <trkpt lat="43.3832084946334362030029296875" lon="-7.01877881772816181182861328125">
        <ele>565.5999755859375</ele>
        <time>2019-07-09T17:04:28.000Z</time>
      </trkpt>
      <trkpt lat="43.38285888545215129852294921875" lon="-7.018825672566890716552734375">
        <ele>566.4000244140625</ele>
        <time>2019-07-09T17:04:30.000Z</time>
      </trkpt>
      <trkpt lat="43.38269124738872051239013671875" lon="-7.01882131397724151611328125">
        <ele>567</ele>
        <time>2019-07-09T17:04:31.000Z</time>
      </trkpt>
      <trkpt lat="43.382533751428127288818359375" lon="-7.01878518797457218170166015625">
        <ele>568</ele>
        <time>2019-07-09T17:04:32.000Z</time>
      </trkpt>
      <trkpt lat="43.38238799013197422027587890625" lon="-7.0187239162623882293701171875">
        <ele>569.5999755859375</ele>
        <time>2019-07-09T17:04:33.000Z</time>
      </trkpt>
      <trkpt lat="43.3822633512318134307861328125" lon="-7.0186032168567180633544921875">
        <ele>570.79998779296875</ele>
        <time>2019-07-09T17:04:34.000Z</time>
      </trkpt>
      <trkpt lat="43.382158242166042327880859375" lon="-7.01844018884003162384033203125">
        <ele>573</ele>
        <time>2019-07-09T17:04:35.000Z</time>
      </trkpt>
      <trkpt lat="43.38207450695335865020751953125" lon="-7.01824405230581760406494140625">
        <ele>574.79998779296875</ele>
        <time>2019-07-09T17:04:36.000Z</time>
      </trkpt>
      <trkpt lat="43.3820015005767345428466796875" lon="-7.01804355718195438385009765625">
        <ele>576.79998779296875</ele>
        <time>2019-07-09T17:04:37.000Z</time>
      </trkpt>
      <trkpt lat="43.3819253928959369659423828125" lon="-7.0178528688848018646240234375">
        <ele>578.5999755859375</ele>
        <time>2019-07-09T17:04:38.000Z</time>
      </trkpt>
      <trkpt lat="43.3818372152745723724365234375" lon="-7.01767877675592899322509765625">
        <ele>579.4000244140625</ele>
        <time>2019-07-09T17:04:39.000Z</time>
      </trkpt>
      <trkpt lat="43.38173386640846729278564453125" lon="-7.017526812851428985595703125">
        <ele>580.4000244140625</ele>
        <time>2019-07-09T17:04:40.000Z</time>
      </trkpt>
      <trkpt lat="43.38161601684987545013427734375" lon="-7.01739513315260410308837890625">
        <ele>581.20001220703125</ele>
        <time>2019-07-09T17:04:41.000Z</time>
      </trkpt>
      <trkpt lat="43.381487019360065460205078125" lon="-7.01728734187781810760498046875">
        <ele>582</ele>
        <time>2019-07-09T17:04:42.000Z</time>
      </trkpt>
      <trkpt lat="43.381337821483612060546875" lon="-7.01722003519535064697265625">
        <ele>582.5999755859375</ele>
        <time>2019-07-09T17:04:43.000Z</time>
      </trkpt>
      <trkpt lat="43.381175883114337921142578125" lon="-7.01718340627849102020263671875">
        <ele>583.5999755859375</ele>
        <time>2019-07-09T17:04:44.000Z</time>
      </trkpt>
      <trkpt lat="43.3810121007263660430908203125" lon="-7.01718038879334926605224609375">
        <ele>584.5999755859375</ele>
        <time>2019-07-09T17:04:45.000Z</time>
      </trkpt>
      <trkpt lat="43.38085971772670745849609375" lon="-7.01721467077732086181640625">
        <ele>586.20001220703125</ele>
        <time>2019-07-09T17:04:46.000Z</time>
      </trkpt>
      <trkpt lat="43.380704820156097412109375" lon="-7.01727493666112422943115234375">
        <ele>588</ele>
        <time>2019-07-09T17:04:47.000Z</time>
      </trkpt>
      <trkpt lat="43.380555622279644012451171875" lon="-7.01736981980502605438232421875">
        <ele>589.5999755859375</ele>
        <time>2019-07-09T17:04:48.000Z</time>
      </trkpt>
      <trkpt lat="43.38041354902088642120361328125" lon="-7.017496638000011444091796875">
        <ele>591.20001220703125</ele>
        <time>2019-07-09T17:04:49.000Z</time>
      </trkpt>
      <trkpt lat="43.380280025303363800048828125" lon="-7.01765279285609722137451171875">
        <ele>593.20001220703125</ele>
        <time>2019-07-09T17:04:50.000Z</time>
      </trkpt>
      <trkpt lat="43.38014951907098293304443359375" lon="-7.01783367432653903961181640625">
        <ele>595.20001220703125</ele>
        <time>2019-07-09T17:04:51.000Z</time>
      </trkpt>
      <trkpt lat="43.38001691736280918121337890625" lon="-7.018031068146228790283203125">
        <ele>597.4000244140625</ele>
        <time>2019-07-09T17:04:52.000Z</time>
      </trkpt>
      <trkpt lat="43.37988431565463542938232421875" lon="-7.0182372629642486572265625">
        <ele>599.4000244140625</ele>
        <time>2019-07-09T17:04:53.000Z</time>
      </trkpt>
      <trkpt lat="43.37974651716649532318115234375" lon="-7.0184436254203319549560546875">
        <ele>601.5999755859375</ele>
        <time>2019-07-09T17:04:54.000Z</time>
      </trkpt>
      <trkpt lat="43.37960536591708660125732421875" lon="-7.01865023933351039886474609375">
        <ele>603.5999755859375</ele>
        <time>2019-07-09T17:04:55.000Z</time>
      </trkpt>
      <trkpt lat="43.37945826351642608642578125" lon="-7.0188630558550357818603515625">
        <ele>606</ele>
        <time>2019-07-09T17:04:56.000Z</time>
      </trkpt>
      <trkpt lat="43.37930671870708465576171875" lon="-7.0190796442329883575439453125">
        <ele>608.5999755859375</ele>
        <time>2019-07-09T17:04:57.000Z</time>
      </trkpt>
      <trkpt lat="43.37915156967937946319580078125" lon="-7.01928894035518169403076171875">
        <ele>611.4000244140625</ele>
        <time>2019-07-09T17:04:58.000Z</time>
      </trkpt>
      <trkpt lat="43.3789908885955810546875" lon="-7.019484825432300567626953125">
        <ele>614.20001220703125</ele>
        <time>2019-07-09T17:04:59.000Z</time>
      </trkpt>
      <trkpt lat="43.3788254298269748687744140625" lon="-7.01966025866568088531494140625">
        <ele>617</ele>
        <time>2019-07-09T17:05:00.000Z</time>
      </trkpt>
      <trkpt lat="43.378654606640338897705078125" lon="-7.01981498859822750091552734375">
        <ele>620</ele>
        <time>2019-07-09T17:05:01.000Z</time>
      </trkpt>
      <trkpt lat="43.3784777484834194183349609375" lon="-7.01995111070573329925537109375">
        <ele>622.4000244140625</ele>
        <time>2019-07-09T17:05:02.000Z</time>
      </trkpt>
      <trkpt lat="43.3782953582704067230224609375" lon="-7.02007097192108631134033203125">
        <ele>624</ele>
        <time>2019-07-09T17:05:03.000Z</time>
      </trkpt>
      <trkpt lat="43.378105424344539642333984375" lon="-7.02016853727400302886962890625">
        <ele>625</ele>
        <time>2019-07-09T17:05:04.000Z</time>
      </trkpt>
      <trkpt lat="43.37791054509580135345458984375" lon="-7.020243220031261444091796875">
        <ele>626.4000244140625</ele>
        <time>2019-07-09T17:05:05.000Z</time>
      </trkpt>
      <trkpt lat="43.37771357037127017974853515625" lon="-7.02029644511640071868896484375">
        <ele>628</ele>
        <time>2019-07-09T17:05:06.000Z</time>
      </trkpt>
      <trkpt lat="43.37751726619899272918701171875" lon="-7.02033449895679950714111328125">
        <ele>630.4000244140625</ele>
        <time>2019-07-09T17:05:07.000Z</time>
      </trkpt>
      <trkpt lat="43.37732196785509586334228515625" lon="-7.020363248884677886962890625">
        <ele>632.4000244140625</ele>
        <time>2019-07-09T17:05:08.000Z</time>
      </trkpt>
      <trkpt lat="43.37713547050952911376953125" lon="-7.02038579620420932769775390625">
        <ele>634.4000244140625</ele>
        <time>2019-07-09T17:05:09.000Z</time>
      </trkpt>
      <trkpt lat="43.37696372531354427337646484375" lon="-7.02040842734277248382568359375">
        <ele>636.20001220703125</ele>
        <time>2019-07-09T17:05:10.000Z</time>
      </trkpt>
      <trkpt lat="43.37680530734360218048095703125" lon="-7.0204291306436061859130859375">
        <ele>638.20001220703125</ele>
        <time>2019-07-09T17:05:11.000Z</time>
      </trkpt>
      <trkpt lat="43.37665242142975330352783203125" lon="-7.02045142650604248046875">
        <ele>640.20001220703125</ele>
        <time>2019-07-09T17:05:12.000Z</time>
      </trkpt>
      <trkpt lat="43.3764929138123989105224609375" lon="-7.02047355473041534423828125">
        <ele>641.79998779296875</ele>
        <time>2019-07-09T17:05:13.000Z</time>
      </trkpt>
      <trkpt lat="43.376326449215412139892578125" lon="-7.02050163410604000091552734375">
        <ele>643.20001220703125</ele>
        <time>2019-07-09T17:05:14.000Z</time>
      </trkpt>
      <trkpt lat="43.37615554220974445343017578125" lon="-7.020535580813884735107421875">
        <ele>644.4000244140625</ele>
        <time>2019-07-09T17:05:15.000Z</time>
      </trkpt>
      <trkpt lat="43.37598170153796672821044921875" lon="-7.0205803401768207550048828125">
        <ele>646.4000244140625</ele>
        <time>2019-07-09T17:05:16.000Z</time>
      </trkpt>
      <trkpt lat="43.37580719031393527984619140625" lon="-7.02063851058483123779296875">
        <ele>648.5999755859375</ele>
        <time>2019-07-09T17:05:17.000Z</time>
      </trkpt>
      <trkpt lat="43.375630415976047515869140625" lon="-7.02070917002856731414794921875">
        <ele>651.20001220703125</ele>
        <time>2019-07-09T17:05:18.000Z</time>
      </trkpt>
      <trkpt lat="43.37545028887689113616943359375" lon="-7.0207925699651241302490234375">
        <ele>653.5999755859375</ele>
        <time>2019-07-09T17:05:19.000Z</time>
      </trkpt>
      <trkpt lat="43.37526588700711727142333984375" lon="-7.020885944366455078125">
        <ele>655.79998779296875</ele>
        <time>2019-07-09T17:05:20.000Z</time>
      </trkpt>
      <trkpt lat="43.3750767074525356292724609375" lon="-7.020979821681976318359375">
        <ele>657.79998779296875</ele>
        <time>2019-07-09T17:05:21.000Z</time>
      </trkpt>
      <trkpt lat="43.3748802356421947479248046875" lon="-7.02107495628297328948974609375">
        <ele>659.79998779296875</ele>
        <time>2019-07-09T17:05:22.000Z</time>
      </trkpt>
      <trkpt lat="43.37467563338577747344970703125" lon="-7.0211630500853061676025390625">
        <ele>662</ele>
        <time>2019-07-09T17:05:23.000Z</time>
      </trkpt>
      <trkpt lat="43.37446709163486957550048828125" lon="-7.02123890630900859832763671875">
        <ele>664.4000244140625</ele>
        <time>2019-07-09T17:05:24.000Z</time>
      </trkpt>
      <trkpt lat="43.3742646686732769012451171875" lon="-7.02129825018346309661865234375">
        <ele>667.20001220703125</ele>
        <time>2019-07-09T17:05:25.000Z</time>
      </trkpt>
      <trkpt lat="43.37407666258513927459716796875" lon="-7.0213472843170166015625">
        <ele>670</ele>
        <time>2019-07-09T17:05:26.000Z</time>
      </trkpt>
      <trkpt lat="43.37390005588531494140625" lon="-7.02138424851000308990478515625">
        <ele>672.79998779296875</ele>
        <time>2019-07-09T17:05:27.000Z</time>
      </trkpt>
      <trkpt lat="43.37372663430869579315185546875" lon="-7.021400593221187591552734375">
        <ele>675</ele>
        <time>2019-07-09T17:05:28.000Z</time>
      </trkpt>
      <trkpt lat="43.3735542185604572296142578125" lon="-7.021392546594142913818359375">
        <ele>676.4000244140625</ele>
        <time>2019-07-09T17:05:29.000Z</time>
      </trkpt>
      <trkpt lat="43.3733852393925189971923828125" lon="-7.0213601924479007720947265625">
        <ele>677.4000244140625</ele>
        <time>2019-07-09T17:05:30.000Z</time>
      </trkpt>
      <trkpt lat="43.37308759801089763641357421875" lon="-7.0212921313941478729248046875">
        <ele>680.20001220703125</ele>
        <time>2019-07-09T17:05:32.000Z</time>
      </trkpt>
      <trkpt lat="43.3729436807334423065185546875" lon="-7.0212857611477375030517578125">
        <ele>682.20001220703125</ele>
        <time>2019-07-09T17:05:33.000Z</time>
      </trkpt>
      <trkpt lat="43.37279163300991058349609375" lon="-7.02130445279181003570556640625">
        <ele>684.20001220703125</ele>
        <time>2019-07-09T17:05:34.000Z</time>
      </trkpt>
      <trkpt lat="43.37262801826000213623046875" lon="-7.021349966526031494140625">
        <ele>685.4000244140625</ele>
        <time>2019-07-09T17:05:35.000Z</time>
      </trkpt>
      <trkpt lat="43.3724503219127655029296875" lon="-7.02141710557043552398681640625">
        <ele>686.5999755859375</ele>
        <time>2019-07-09T17:05:36.000Z</time>
      </trkpt>
      <trkpt lat="43.37225762195885181427001953125" lon="-7.02149757184088230133056640625">
        <ele>688</ele>
        <time>2019-07-09T17:05:37.000Z</time>
      </trkpt>
      <trkpt lat="43.3720538578927516937255859375" lon="-7.0215833187103271484375">
        <ele>689.5999755859375</ele>
        <time>2019-07-09T17:05:38.000Z</time>
      </trkpt>
      <trkpt lat="43.371846489608287811279296875" lon="-7.02167124487459659576416015625">
        <ele>691.4000244140625</ele>
        <time>2019-07-09T17:05:39.000Z</time>
      </trkpt>
      <trkpt lat="43.37163920514285564422607421875" lon="-7.02175841666758060455322265625">
        <ele>693.4000244140625</ele>
        <time>2019-07-09T17:05:40.000Z</time>
      </trkpt>
      <trkpt lat="43.37143569253385066986083984375" lon="-7.021845169365406036376953125">
        <ele>695.20001220703125</ele>
        <time>2019-07-09T17:05:41.000Z</time>
      </trkpt>
      <trkpt lat="43.37123804725706577301025390625" lon="-7.0219264738261699676513671875">
        <ele>696.4000244140625</ele>
        <time>2019-07-09T17:05:42.000Z</time>
      </trkpt>
      <trkpt lat="43.3710430003702640533447265625" lon="-7.0219982229173183441162109375">
        <ele>697.79998779296875</ele>
        <time>2019-07-09T17:05:43.000Z</time>
      </trkpt>
      <trkpt lat="43.37084862403571605682373046875" lon="-7.02205345965921878814697265625">
        <ele>698.79998779296875</ele>
        <time>2019-07-09T17:05:44.000Z</time>
      </trkpt>
      <trkpt lat="43.370660953223705291748046875" lon="-7.02208958566188812255859375">
        <ele>699.79998779296875</ele>
        <time>2019-07-09T17:05:45.000Z</time>
      </trkpt>
      <trkpt lat="43.3704804070293903350830078125" lon="-7.022103331983089447021484375">
        <ele>700.5999755859375</ele>
        <time>2019-07-09T17:05:46.000Z</time>
      </trkpt>
      <trkpt lat="43.37029977701604366302490234375" lon="-7.0220850594341754913330078125">
        <ele>701.20001220703125</ele>
        <time>2019-07-09T17:05:47.000Z</time>
      </trkpt>
      <trkpt lat="43.37012141011655330657958984375" lon="-7.0220294035971164703369140625">
        <ele>702.20001220703125</ele>
        <time>2019-07-09T17:05:48.000Z</time>
      </trkpt>
      <trkpt lat="43.36994790472090244293212890625" lon="-7.02194164507091045379638671875">
        <ele>703</ele>
        <time>2019-07-09T17:05:49.000Z</time>
      </trkpt>
      <trkpt lat="43.3695929311215877532958984375" lon="-7.02174182049930095672607421875">
        <ele>704.4000244140625</ele>
        <time>2019-07-09T17:05:51.000Z</time>
      </trkpt>
      <trkpt lat="43.3692197687923908233642578125" lon="-7.021566890180110931396484375">
        <ele>706.5999755859375</ele>
        <time>2019-07-09T17:05:53.000Z</time>
      </trkpt>
      <trkpt lat="43.3690519630908966064453125" lon="-7.0214520581066608428955078125">
        <ele>708.20001220703125</ele>
        <time>2019-07-09T17:05:54.000Z</time>
      </trkpt>
      <trkpt lat="43.3689025975763797760009765625" lon="-7.02132373116910457611083984375">
        <ele>709.4000244140625</ele>
        <time>2019-07-09T17:05:55.000Z</time>
      </trkpt>
      <trkpt lat="43.368766643106937408447265625" lon="-7.02120043337345123291015625">
        <ele>710.4000244140625</ele>
        <time>2019-07-09T17:05:56.000Z</time>
      </trkpt>
      <trkpt lat="43.36863714270293712615966796875" lon="-7.0211013592779636383056640625">
        <ele>711</ele>
        <time>2019-07-09T17:05:57.000Z</time>
      </trkpt>
      <trkpt lat="43.36850504390895366668701171875" lon="-7.021033130586147308349609375">
        <ele>711.5999755859375</ele>
        <time>2019-07-09T17:05:58.000Z</time>
      </trkpt>
      <trkpt lat="43.36836691014468669891357421875" lon="-7.02099549584090709686279296875">
        <ele>712</ele>
        <time>2019-07-09T17:05:59.000Z</time>
      </trkpt>
      <trkpt lat="43.36807471700012683868408203125" lon="-7.02101963572204113006591796875">
        <ele>712.79998779296875</ele>
        <time>2019-07-09T17:06:01.000Z</time>
      </trkpt>
      <trkpt lat="43.36779274977743625640869140625" lon="-7.021174617111682891845703125">
        <ele>714</ele>
        <time>2019-07-09T17:06:03.000Z</time>
      </trkpt>
      <trkpt lat="43.3676593936979770660400390625" lon="-7.0212535746395587921142578125">
        <ele>715</ele>
        <time>2019-07-09T17:06:04.000Z</time>
      </trkpt>
      <trkpt lat="43.3675272949039936065673828125" lon="-7.0212928019464015960693359375">
        <ele>716.20001220703125</ele>
        <time>2019-07-09T17:06:05.000Z</time>
      </trkpt>
      <trkpt lat="43.36739377118647098541259765625" lon="-7.02128358185291290283203125">
        <ele>717</ele>
        <time>2019-07-09T17:06:06.000Z</time>
      </trkpt>
      <trkpt lat="43.3672634325921535491943359375" lon="-7.0212247408926486968994140625">
        <ele>717.5999755859375</ele>
        <time>2019-07-09T17:06:07.000Z</time>
      </trkpt>
      <trkpt lat="43.36713979952037334442138671875" lon="-7.0211125910282135009765625">
        <ele>718.20001220703125</ele>
        <time>2019-07-09T17:06:08.000Z</time>
      </trkpt>
      <trkpt lat="43.36692455224692821502685546875" lon="-7.02080204151570796966552734375">
        <ele>718.79998779296875</ele>
        <time>2019-07-09T17:06:10.000Z</time>
      </trkpt>
      <trkpt lat="43.3667035214602947235107421875" lon="-7.0205144584178924560546875">
        <ele>720.79998779296875</ele>
        <time>2019-07-09T17:06:12.000Z</time>
      </trkpt>
      <trkpt lat="43.3665767870843410491943359375" lon="-7.020412199199199676513671875">
        <ele>722.20001220703125</ele>
        <time>2019-07-09T17:06:13.000Z</time>
      </trkpt>
      <trkpt lat="43.36643882095813751220703125" lon="-7.02034204266965389251708984375">
        <ele>723.20001220703125</ele>
        <time>2019-07-09T17:06:14.000Z</time>
      </trkpt>
      <trkpt lat="43.36629440076649188995361328125" lon="-7.02030532993376255035400390625">
        <ele>723.79998779296875</ele>
        <time>2019-07-09T17:06:15.000Z</time>
      </trkpt>
      <trkpt lat="43.36614503525197505950927734375" lon="-7.02030122280120849609375">
        <ele>724.4000244140625</ele>
        <time>2019-07-09T17:06:16.000Z</time>
      </trkpt>
      <trkpt lat="43.365991897881031036376953125" lon="-7.0203339122235774993896484375">
        <ele>725</ele>
        <time>2019-07-09T17:06:17.000Z</time>
      </trkpt>
      <trkpt lat="43.365830965340137481689453125" lon="-7.0204009674489498138427734375">
        <ele>725.79998779296875</ele>
        <time>2019-07-09T17:06:18.000Z</time>
      </trkpt>
      <trkpt lat="43.36566173471510410308837890625" lon="-7.02048872597515583038330078125">
        <ele>726.4000244140625</ele>
        <time>2019-07-09T17:06:19.000Z</time>
      </trkpt>
      <trkpt lat="43.36548336781561374664306640625" lon="-7.0205863751471042633056640625">
        <ele>727.79998779296875</ele>
        <time>2019-07-09T17:06:20.000Z</time>
      </trkpt>
      <trkpt lat="43.36529745720326900482177734375" lon="-7.02068871818482875823974609375">
        <ele>729.20001220703125</ele>
        <time>2019-07-09T17:06:21.000Z</time>
      </trkpt>
      <trkpt lat="43.365105427801609039306640625" lon="-7.02079298906028270721435546875">
        <ele>730.79998779296875</ele>
        <time>2019-07-09T17:06:22.000Z</time>
      </trkpt>
      <trkpt lat="43.36490820161998271942138671875" lon="-7.020895667374134063720703125">
        <ele>732.20001220703125</ele>
        <time>2019-07-09T17:06:23.000Z</time>
      </trkpt>
      <trkpt lat="43.36470820941030979156494140625" lon="-7.0209877006709575653076171875">
        <ele>733.5999755859375</ele>
        <time>2019-07-09T17:06:24.000Z</time>
      </trkpt>
      <trkpt lat="43.364509977400302886962890625" lon="-7.0210589468479156494140625">
        <ele>735.20001220703125</ele>
        <time>2019-07-09T17:06:25.000Z</time>
      </trkpt>
      <trkpt lat="43.3643183670938014984130859375" lon="-7.02110714279115200042724609375">
        <ele>737</ele>
        <time>2019-07-09T17:06:26.000Z</time>
      </trkpt>
      <trkpt lat="43.3641413412988185882568359375" lon="-7.0211318694055080413818359375">
        <ele>738.4000244140625</ele>
        <time>2019-07-09T17:06:27.000Z</time>
      </trkpt>
      <trkpt lat="43.36398032493889331817626953125" lon="-7.0211318694055080413818359375">
        <ele>739.20001220703125</ele>
        <time>2019-07-09T17:06:28.000Z</time>
      </trkpt>
      <trkpt lat="43.3638338930904865264892578125" lon="-7.02110127545893192291259765625">
        <ele>739.79998779296875</ele>
        <time>2019-07-09T17:06:29.000Z</time>
      </trkpt>
      <trkpt lat="43.3637034706771373748779296875" lon="-7.0210309512913227081298828125">
        <ele>740</ele>
        <time>2019-07-09T17:06:30.000Z</time>
      </trkpt>
      <trkpt lat="43.36350984871387481689453125" lon="-7.02077672816812992095947265625">
        <ele>740.20001220703125</ele>
        <time>2019-07-09T17:06:32.000Z</time>
      </trkpt>
      <trkpt lat="43.36339627392590045928955078125" lon="-7.02044178731739521026611328125">
        <ele>741</ele>
        <time>2019-07-09T17:06:34.000Z</time>
      </trkpt>
      <trkpt lat="43.36333374492824077606201171875" lon="-7.02027750201523303985595703125">
        <ele>741.5999755859375</ele>
        <time>2019-07-09T17:06:35.000Z</time>
      </trkpt>
      <trkpt lat="43.3632530272006988525390625" lon="-7.02012595720589160919189453125">
        <ele>742.20001220703125</ele>
        <time>2019-07-09T17:06:36.000Z</time>
      </trkpt>
      <trkpt lat="43.3631542883813381195068359375" lon="-7.01998296193778514862060546875">
        <ele>742.5999755859375</ele>
        <time>2019-07-09T17:06:37.000Z</time>
      </trkpt>
      <trkpt lat="43.36290794424712657928466796875" lon="-7.01969898305833339691162109375">
        <ele>743.79998779296875</ele>
        <time>2019-07-09T17:06:39.000Z</time>
      </trkpt>
      <trkpt lat="43.362594880163669586181640625" lon="-7.01940259896218776702880859375">
        <ele>746</ele>
        <time>2019-07-09T17:06:41.000Z</time>
      </trkpt>
      <trkpt lat="43.3624129928648471832275390625" lon="-7.01925222761929035186767578125">
        <ele>747.79998779296875</ele>
        <time>2019-07-09T17:06:42.000Z</time>
      </trkpt>
      <trkpt lat="43.36222104728221893310546875" lon="-7.01909984461963176727294921875">
        <ele>749.4000244140625</ele>
        <time>2019-07-09T17:06:43.000Z</time>
      </trkpt>
      <trkpt lat="43.36203019134700298309326171875" lon="-7.018940337002277374267578125">
        <ele>751.20001220703125</ele>
        <time>2019-07-09T17:06:44.000Z</time>
      </trkpt>
      <trkpt lat="43.361848555505275726318359375" lon="-7.01877169311046600341796875">
        <ele>752.5999755859375</ele>
        <time>2019-07-09T17:06:45.000Z</time>
      </trkpt>
      <trkpt lat="43.36167664267122745513916015625" lon="-7.0185951702296733856201171875">
        <ele>754.4000244140625</ele>
        <time>2019-07-09T17:06:46.000Z</time>
      </trkpt>
      <trkpt lat="43.36151705123484134674072265625" lon="-7.01841588132083415985107421875">
        <ele>756.20001220703125</ele>
        <time>2019-07-09T17:06:47.000Z</time>
      </trkpt>
      <trkpt lat="43.36137254722416400909423828125" lon="-7.01823835261166095733642578125">
        <ele>758</ele>
        <time>2019-07-09T17:06:48.000Z</time>
      </trkpt>
      <trkpt lat="43.36124413646757602691650390625" lon="-7.0180634222924709320068359375">
        <ele>759</ele>
        <time>2019-07-09T17:06:49.000Z</time>
      </trkpt>
      <trkpt lat="43.36101799272000789642333984375" lon="-7.01773979701101779937744140625">
        <ele>760</ele>
        <time>2019-07-09T17:06:51.000Z</time>
      </trkpt>
      <trkpt lat="43.36090617813169956207275390625" lon="-7.01760116033256053924560546875">
        <ele>760.4000244140625</ele>
        <time>2019-07-09T17:06:52.000Z</time>
      </trkpt>
      <trkpt lat="43.3606467582285404205322265625" lon="-7.01738758943974971771240234375">
        <ele>761.20001220703125</ele>
        <time>2019-07-09T17:06:54.000Z</time>
      </trkpt>
      <trkpt lat="43.36019405163824558258056640625" lon="-7.0171662233769893646240234375">
        <ele>762.5999755859375</ele>
        <time>2019-07-09T17:06:57.000Z</time>
      </trkpt>
      <trkpt lat="43.3600469492375850677490234375" lon="-7.0171192847192287445068359375">
        <ele>763.4000244140625</ele>
        <time>2019-07-09T17:06:58.000Z</time>
      </trkpt>
      <trkpt lat="43.3598987571895122528076171875" lon="-7.0170934684574604034423828125">
        <ele>764</ele>
        <time>2019-07-09T17:06:59.000Z</time>
      </trkpt>
      <trkpt lat="43.35974511690437793731689453125" lon="-7.017089612782001495361328125">
        <ele>764.5999755859375</ele>
        <time>2019-07-09T17:07:00.000Z</time>
      </trkpt>
      <trkpt lat="43.35958334617316722869873046875" lon="-7.01710796914994716644287109375">
        <ele>765.4000244140625</ele>
        <time>2019-07-09T17:07:01.000Z</time>
      </trkpt>
      <trkpt lat="43.35923080332577228546142578125" lon="-7.01719178818166255950927734375">
        <ele>766.79998779296875</ele>
        <time>2019-07-09T17:07:03.000Z</time>
      </trkpt>
      <trkpt lat="43.3590394444763660430908203125" lon="-7.0172426663339138031005859375">
        <ele>767.79998779296875</ele>
        <time>2019-07-09T17:07:04.000Z</time>
      </trkpt>
      <trkpt lat="43.35884188301861286163330078125" lon="-7.01729647815227508544921875">
        <ele>769</ele>
        <time>2019-07-09T17:07:05.000Z</time>
      </trkpt>
      <trkpt lat="43.35864306427538394927978515625" lon="-7.01735154725611209869384765625">
        <ele>770.5999755859375</ele>
        <time>2019-07-09T17:07:06.000Z</time>
      </trkpt>
      <trkpt lat="43.35844449698925018310546875" lon="-7.0174076221883296966552734375">
        <ele>772.4000244140625</ele>
        <time>2019-07-09T17:07:07.000Z</time>
      </trkpt>
      <trkpt lat="43.35824760608375072479248046875" lon="-7.0174616016447544097900390625">
        <ele>774</ele>
        <time>2019-07-09T17:07:08.000Z</time>
      </trkpt>
      <trkpt lat="43.35805482231080532073974609375" lon="-7.017514742910861968994140625">
        <ele>775.4000244140625</ele>
        <time>2019-07-09T17:07:09.000Z</time>
      </trkpt>
      <trkpt lat="43.35769691504538059234619140625" lon="-7.01761540956795215606689453125">
        <ele>777.20001220703125</ele>
        <time>2019-07-09T17:07:11.000Z</time>
      </trkpt>
      <trkpt lat="43.3573721162974834442138671875" lon="-7.01770878396928310394287109375">
        <ele>779</ele>
        <time>2019-07-09T17:07:13.000Z</time>
      </trkpt>
      <trkpt lat="43.35721411742269992828369140625" lon="-7.0177563093602657318115234375">
        <ele>779.5999755859375</ele>
        <time>2019-07-09T17:07:14.000Z</time>
      </trkpt>
      <trkpt lat="43.35705888457596302032470703125" lon="-7.0178059302270412445068359375">
        <ele>780</ele>
        <time>2019-07-09T17:07:15.000Z</time>
      </trkpt>
      <trkpt lat="43.35677188821136951446533203125" lon="-7.01785379089415073394775390625">
        <ele>781</ele>
        <time>2019-07-09T17:07:17.000Z</time>
      </trkpt>
      <trkpt lat="43.35664339363574981689453125" lon="-7.01782286167144775390625">
        <ele>781.5999755859375</ele>
        <time>2019-07-09T17:07:18.000Z</time>
      </trkpt>
      <trkpt lat="43.35652462206780910491943359375" lon="-7.01775379478931427001953125">
        <ele>782.20001220703125</ele>
        <time>2019-07-09T17:07:19.000Z</time>
      </trkpt>
      <trkpt lat="43.35641431622207164764404296875" lon="-7.017653547227382659912109375">
        <ele>782.79998779296875</ele>
        <time>2019-07-09T17:07:20.000Z</time>
      </trkpt>
      <trkpt lat="43.3561872504651546478271484375" lon="-7.01742681674659252166748046875">
        <ele>784.4000244140625</ele>
        <time>2019-07-09T17:07:22.000Z</time>
      </trkpt>
      <trkpt lat="43.35587770678102970123291015625" lon="-7.0172621123492717742919921875">
        <ele>785.79998779296875</ele>
        <time>2019-07-09T17:07:24.000Z</time>
      </trkpt>
      <trkpt lat="43.35551862604916095733642578125" lon="-7.0171142555773258209228515625">
        <ele>787.79998779296875</ele>
        <time>2019-07-09T17:07:26.000Z</time>
      </trkpt>
      <trkpt lat="43.3553359843790531158447265625" lon="-7.017027251422405242919921875">
        <ele>789.20001220703125</ele>
        <time>2019-07-09T17:07:27.000Z</time>
      </trkpt>
      <trkpt lat="43.355149738490581512451171875" lon="-7.0169261656701564788818359375">
        <ele>790.4000244140625</ele>
        <time>2019-07-09T17:07:28.000Z</time>
      </trkpt>
      <trkpt lat="43.3549623191356658935546875" lon="-7.01680856756865978240966796875">
        <ele>791.5999755859375</ele>
        <time>2019-07-09T17:07:29.000Z</time>
      </trkpt>
      <trkpt lat="43.35461287759244441986083984375" lon="-7.01652131974697113037109375">
        <ele>793.79998779296875</ele>
        <time>2019-07-09T17:07:31.000Z</time>
      </trkpt>
      <trkpt lat="43.3544703014194965362548828125" lon="-7.01636214740574359893798828125">
        <ele>795.20001220703125</ele>
        <time>2019-07-09T17:07:32.000Z</time>
      </trkpt>
      <trkpt lat="43.35434767417609691619873046875" lon="-7.0162063278257846832275390625">
        <ele>797.20001220703125</ele>
        <time>2019-07-09T17:07:33.000Z</time>
      </trkpt>
      <trkpt lat="43.3542382903397083282470703125" lon="-7.01606626622378826141357421875">
        <ele>798.4000244140625</ele>
        <time>2019-07-09T17:07:34.000Z</time>
      </trkpt>
      <trkpt lat="43.35413259454071521759033203125" lon="-7.01594623737037181854248046875">
        <ele>799.4000244140625</ele>
        <time>2019-07-09T17:07:35.000Z</time>
      </trkpt>
      <trkpt lat="43.3540206961333751678466796875" lon="-7.01584984548389911651611328125">
        <ele>800</ele>
        <time>2019-07-09T17:07:36.000Z</time>
      </trkpt>
      <trkpt lat="43.35389622487127780914306640625" lon="-7.01577323488891124725341796875">
        <ele>800.20001220703125</ele>
        <time>2019-07-09T17:07:37.000Z</time>
      </trkpt>
      <trkpt lat="43.3534711785614490509033203125" lon="-7.01565253548324108123779296875">
        <ele>801.20001220703125</ele>
        <time>2019-07-09T17:07:40.000Z</time>
      </trkpt>
      <trkpt lat="43.3533182926476001739501953125" lon="-7.01564717106521129608154296875">
        <ele>802</ele>
        <time>2019-07-09T17:07:41.000Z</time>
      </trkpt>
      <trkpt lat="43.35315761156380176544189453125" lon="-7.01566276140511035919189453125">
        <ele>803</ele>
        <time>2019-07-09T17:07:42.000Z</time>
      </trkpt>
      <trkpt lat="43.352989889681339263916015625" lon="-7.015700228512287139892578125">
        <ele>804</ele>
        <time>2019-07-09T17:07:43.000Z</time>
      </trkpt>
      <trkpt lat="43.35264564491808414459228515625" lon="-7.0158098638057708740234375">
        <ele>805.5999755859375</ele>
        <time>2019-07-09T17:07:45.000Z</time>
      </trkpt>
      <trkpt lat="43.35231925360858440399169921875" lon="-7.0159347541630268096923828125">
        <ele>807.5999755859375</ele>
        <time>2019-07-09T17:07:47.000Z</time>
      </trkpt>
      <trkpt lat="43.35216812789440155029296875" lon="-7.01602251268923282623291015625">
        <ele>808.79998779296875</ele>
        <time>2019-07-09T17:07:48.000Z</time>
      </trkpt>
      <trkpt lat="43.35202597081661224365234375" lon="-7.0161298848688602447509765625">
        <ele>810</ele>
        <time>2019-07-09T17:07:49.000Z</time>
      </trkpt>
      <trkpt lat="43.351887166500091552734375" lon="-7.01623910106718540191650390625">
        <ele>811.20001220703125</ele>
        <time>2019-07-09T17:07:50.000Z</time>
      </trkpt>
      <trkpt lat="43.3517528884112834930419921875" lon="-7.01631747186183929443359375">
        <ele>812.4000244140625</ele>
        <time>2019-07-09T17:07:51.000Z</time>
      </trkpt>
      <trkpt lat="43.35162389092147350311279296875" lon="-7.016343958675861358642578125">
        <ele>813.4000244140625</ele>
        <time>2019-07-09T17:07:52.000Z</time>
      </trkpt>
      <trkpt lat="43.35149799473583698272705078125" lon="-7.01631822623312473297119140625">
        <ele>814.20001220703125</ele>
        <time>2019-07-09T17:07:53.000Z</time>
      </trkpt>
      <trkpt lat="43.3513720147311687469482421875" lon="-7.01625050045549869537353515625">
        <ele>814.79998779296875</ele>
        <time>2019-07-09T17:07:54.000Z</time>
      </trkpt>
      <trkpt lat="43.35111267864704132080078125" lon="-7.01605268754065036773681640625">
        <ele>816</ele>
        <time>2019-07-09T17:07:56.000Z</time>
      </trkpt>
      <trkpt lat="43.3508298732340335845947265625" lon="-7.01588035561144351959228515625">
        <ele>817.4000244140625</ele>
        <time>2019-07-09T17:07:58.000Z</time>
      </trkpt>
      <trkpt lat="43.35053357295691967010498046875" lon="-7.01578714884817600250244140625">
        <ele>819</ele>
        <time>2019-07-09T17:08:00.000Z</time>
      </trkpt>
      <trkpt lat="43.3503829501569271087646484375" lon="-7.01576937921345233917236328125">
        <ele>820.20001220703125</ele>
        <time>2019-07-09T17:08:01.000Z</time>
      </trkpt>
      <trkpt lat="43.35022763349115848541259765625" lon="-7.01576686464250087738037109375">
        <ele>821.4000244140625</ele>
        <time>2019-07-09T17:08:02.000Z</time>
      </trkpt>
      <trkpt lat="43.34990560077130794525146484375" lon="-7.01578044332563877105712890625">
        <ele>822.79998779296875</ele>
        <time>2019-07-09T17:08:04.000Z</time>
      </trkpt>
      <trkpt lat="43.34958708845078945159912109375" lon="-7.015809528529644012451171875">
        <ele>824.20001220703125</ele>
        <time>2019-07-09T17:08:06.000Z</time>
      </trkpt>
      <trkpt lat="43.34930394776165485382080078125" lon="-7.01584045775234699249267578125">
        <ele>826.20001220703125</ele>
        <time>2019-07-09T17:08:08.000Z</time>
      </trkpt>
      <trkpt lat="43.34918308071792125701904296875" lon="-7.0158286392688751220703125">
        <ele>827</ele>
        <time>2019-07-09T17:08:09.000Z</time>
      </trkpt>
      <trkpt lat="43.34907352924346923828125" lon="-7.0157801918685436248779296875">
        <ele>827.5999755859375</ele>
        <time>2019-07-09T17:08:10.000Z</time>
      </trkpt>
      <trkpt lat="43.3489771373569965362548828125" lon="-7.01569712720811367034912109375">
        <ele>827.79998779296875</ele>
        <time>2019-07-09T17:08:11.000Z</time>
      </trkpt>
      <trkpt lat="43.3486301265656948089599609375" lon="-7.0152162574231624603271484375">
        <ele>829</ele>
        <time>2019-07-09T17:08:15.000Z</time>
      </trkpt>
      <trkpt lat="43.34852837026119232177734375" lon="-7.0151240564882755279541015625">
        <ele>830.20001220703125</ele>
        <time>2019-07-09T17:08:16.000Z</time>
      </trkpt>
      <trkpt lat="43.34841261617839336395263671875" lon="-7.01505540870130062103271484375">
        <ele>831.4000244140625</ele>
        <time>2019-07-09T17:08:17.000Z</time>
      </trkpt>
      <trkpt lat="43.3481399528682231903076171875" lon="-7.01497108675539493560791015625">
        <ele>832.5999755859375</ele>
        <time>2019-07-09T17:08:19.000Z</time>
      </trkpt>
      <trkpt lat="43.34783460013568401336669921875" lon="-7.01485943980515003204345703125">
        <ele>833.79998779296875</ele>
        <time>2019-07-09T17:08:21.000Z</time>
      </trkpt>
      <trkpt lat="43.3475525490939617156982421875" lon="-7.014623321592807769775390625">
        <ele>836.20001220703125</ele>
        <time>2019-07-09T17:08:23.000Z</time>
      </trkpt>
      <trkpt lat="43.3474194444715976715087890625" lon="-7.014476470649242401123046875">
        <ele>837.5999755859375</ele>
        <time>2019-07-09T17:08:24.000Z</time>
      </trkpt>
      <trkpt lat="43.34729564376175403594970703125" lon="-7.014322914183139801025390625">
        <ele>839.20001220703125</ele>
        <time>2019-07-09T17:08:25.000Z</time>
      </trkpt>
      <trkpt lat="43.3471867628395557403564453125" lon="-7.0141701959073543548583984375">
        <ele>840.4000244140625</ele>
        <time>2019-07-09T17:08:26.000Z</time>
      </trkpt>
      <trkpt lat="43.34709397517144680023193359375" lon="-7.0140199922025203704833984375">
        <ele>841.5999755859375</ele>
        <time>2019-07-09T17:08:27.000Z</time>
      </trkpt>
      <trkpt lat="43.34701149724423885345458984375" lon="-7.01386417262256145477294921875">
        <ele>842.20001220703125</ele>
        <time>2019-07-09T17:08:28.000Z</time>
      </trkpt>
      <trkpt lat="43.34693421609699726104736328125" lon="-7.01370139606297016143798828125">
        <ele>842.79998779296875</ele>
        <time>2019-07-09T17:08:29.000Z</time>
      </trkpt>
      <trkpt lat="43.3467948250472545623779296875" lon="-7.01335840858519077301025390625">
        <ele>844</ele>
        <time>2019-07-09T17:08:31.000Z</time>
      </trkpt>
      <trkpt lat="43.34662727080285549163818359375" lon="-7.0128540694713592529296875">
        <ele>845.5999755859375</ele>
        <time>2019-07-09T17:08:34.000Z</time>
      </trkpt>
      <trkpt lat="43.34651646204292774200439453125" lon="-7.01253077946603298187255859375">
        <ele>847.20001220703125</ele>
        <time>2019-07-09T17:08:36.000Z</time>
      </trkpt>
      <trkpt lat="43.34637195803225040435791015625" lon="-7.0122103393077850341796875">
        <ele>848.4000244140625</ele>
        <time>2019-07-09T17:08:38.000Z</time>
      </trkpt>
      <trkpt lat="43.3462054096162319183349609375" lon="-7.0119090937077999114990234375">
        <ele>850.20001220703125</ele>
        <time>2019-07-09T17:08:40.000Z</time>
      </trkpt>
      <trkpt lat="43.34604942239820957183837890625" lon="-7.01164866797626018524169921875">
        <ele>852</ele>
        <time>2019-07-09T17:08:42.000Z</time>
      </trkpt>
      <trkpt lat="43.3458293974399566650390625" lon="-7.0113139785826206207275390625">
        <ele>853.4000244140625</ele>
        <time>2019-07-09T17:08:45.000Z</time>
      </trkpt>
      <trkpt lat="43.34560266695916652679443359375" lon="-7.01103393919765949249267578125">
        <ele>854.5999755859375</ele>
        <time>2019-07-09T17:08:48.000Z</time>
      </trkpt>
      <trkpt lat="43.34544274024665355682373046875" lon="-7.01084232889115810394287109375">
        <ele>855.79998779296875</ele>
        <time>2019-07-09T17:08:50.000Z</time>
      </trkpt>
      <trkpt lat="43.34529471583664417266845703125" lon="-7.01063529588282108306884765625">
        <ele>857</ele>
        <time>2019-07-09T17:08:52.000Z</time>
      </trkpt>
      <trkpt lat="43.34517904557287693023681640625" lon="-7.01045089401304721832275390625">
        <ele>857.79998779296875</ele>
        <time>2019-07-09T17:08:54.000Z</time>
      </trkpt>
      <trkpt lat="43.3451201207935810089111328125" lon="-7.0103899575769901275634765625">
        <ele>858.20001220703125</ele>
        <time>2019-07-09T17:08:55.000Z</time>
      </trkpt>
      <trkpt lat="43.34505415521562099456787109375" lon="-7.0103601180016994476318359375">
        <ele>858.4000244140625</ele>
        <time>2019-07-09T17:08:56.000Z</time>
      </trkpt>
      <trkpt lat="43.34493144415318965911865234375" lon="-7.010425664484500885009765625">
        <ele>858.5999755859375</ele>
        <time>2019-07-09T17:08:58.000Z</time>
      </trkpt>
      <trkpt lat="43.3448700048029422760009765625" lon="-7.0106350444257259368896484375">
        <ele>858.5999755859375</ele>
        <time>2019-07-09T17:09:00.000Z</time>
      </trkpt>
      <trkpt lat="43.3448924683034420013427734375" lon="-7.0109230466187000274658203125">
        <ele>858.5999755859375</ele>
        <time>2019-07-09T17:09:02.000Z</time>
      </trkpt>
      <trkpt lat="43.345001600682735443115234375" lon="-7.0112127251923084259033203125">
        <ele>859.20001220703125</ele>
        <time>2019-07-09T17:09:04.000Z</time>
      </trkpt>
      <trkpt lat="43.3450815640389919281005859375" lon="-7.01135379262268543243408203125">
        <ele>859.5999755859375</ele>
        <time>2019-07-09T17:09:05.000Z</time>
      </trkpt>
      <trkpt lat="43.34524526260793209075927734375" lon="-7.01164162717759609222412109375">
        <ele>861.20001220703125</ele>
        <time>2019-07-09T17:09:07.000Z</time>
      </trkpt>
      <trkpt lat="43.34531634114682674407958984375" lon="-7.01180038042366504669189453125">
        <ele>861.79998779296875</ele>
        <time>2019-07-09T17:09:08.000Z</time>
      </trkpt>
      <trkpt lat="43.34537618793547153472900390625" lon="-7.01197438873350620269775390625">
        <ele>862.4000244140625</ele>
        <time>2019-07-09T17:09:09.000Z</time>
      </trkpt>
      <trkpt lat="43.3454646170139312744140625" lon="-7.0123426057398319244384765625">
        <ele>863.79998779296875</ele>
        <time>2019-07-09T17:09:11.000Z</time>
      </trkpt>
      <trkpt lat="43.3455331809818744659423828125" lon="-7.01270294375717639923095703125">
        <ele>865.20001220703125</ele>
        <time>2019-07-09T17:09:13.000Z</time>
      </trkpt>
      <trkpt lat="43.3455968834459781646728515625" lon="-7.01306202448904514312744140625">
        <ele>866.20001220703125</ele>
        <time>2019-07-09T17:09:15.000Z</time>
      </trkpt>
      <trkpt lat="43.34561741910874843597412109375" lon="-7.0132428221404552459716796875">
        <ele>867</ele>
        <time>2019-07-09T17:09:16.000Z</time>
      </trkpt>
      <trkpt lat="43.3456223644316196441650390625" lon="-7.0134252123534679412841796875">
        <ele>867.79998779296875</ele>
        <time>2019-07-09T17:09:17.000Z</time>
      </trkpt>
      <trkpt lat="43.34560803137719631195068359375" lon="-7.01360383071005344390869140625">
        <ele>868.4000244140625</ele>
        <time>2019-07-09T17:09:18.000Z</time>
      </trkpt>
      <trkpt lat="43.34557299502193927764892578125" lon="-7.01377205550670623779296875">
        <ele>869</ele>
        <time>2019-07-09T17:09:19.000Z</time>
      </trkpt>
      <trkpt lat="43.3455170877277851104736328125" lon="-7.0139291323721408843994140625">
        <ele>869.4000244140625</ele>
        <time>2019-07-09T17:09:20.000Z</time>
      </trkpt>
      <trkpt lat="43.3453460969030857086181640625" lon="-7.01419207267463207244873046875">
        <ele>870.4000244140625</ele>
        <time>2019-07-09T17:09:22.000Z</time>
      </trkpt>
      <trkpt lat="43.34512456320226192474365234375" lon="-7.01435744762420654296875">
        <ele>871.79998779296875</ele>
        <time>2019-07-09T17:09:24.000Z</time>
      </trkpt>
      <trkpt lat="43.3448753692209720611572265625" lon="-7.01441218145191669464111328125">
        <ele>873</ele>
        <time>2019-07-09T17:09:26.000Z</time>
      </trkpt>
      <trkpt lat="43.34448787383735179901123046875" lon="-7.0143542625010013580322265625">
        <ele>874.20001220703125</ele>
        <time>2019-07-09T17:09:29.000Z</time>
      </trkpt>
      <trkpt lat="43.3442215807735919952392578125" lon="-7.01429508626461029052734375">
        <ele>875.4000244140625</ele>
        <time>2019-07-09T17:09:31.000Z</time>
      </trkpt>
      <trkpt lat="43.34396383725106716156005859375" lon="-7.01423934660851955413818359375">
        <ele>876.79998779296875</ele>
        <time>2019-07-09T17:09:33.000Z</time>
      </trkpt>
      <trkpt lat="43.34369930438697338104248046875" lon="-7.01421604491770267486572265625">
        <ele>878.4000244140625</ele>
        <time>2019-07-09T17:09:35.000Z</time>
      </trkpt>
      <trkpt lat="43.343436531722545623779296875" lon="-7.01427823863923549652099609375">
        <ele>880.20001220703125</ele>
        <time>2019-07-09T17:09:37.000Z</time>
      </trkpt>
      <trkpt lat="43.343218266963958740234375" lon="-7.014426179230213165283203125">
        <ele>881.79998779296875</ele>
        <time>2019-07-09T17:09:39.000Z</time>
      </trkpt>
      <trkpt lat="43.34304937161505222320556640625" lon="-7.01463446952402591705322265625">
        <ele>883.20001220703125</ele>
        <time>2019-07-09T17:09:41.000Z</time>
      </trkpt>
      <trkpt lat="43.3429186977446079254150390625" lon="-7.01491526328027248382568359375">
        <ele>883.5999755859375</ele>
        <time>2019-07-09T17:09:43.000Z</time>
      </trkpt>
      <trkpt lat="43.34284636192023754119873046875" lon="-7.01526847667992115020751953125">
        <ele>884.20001220703125</ele>
        <time>2019-07-09T17:09:45.000Z</time>
      </trkpt>
      <trkpt lat="43.34285122342407703399658203125" lon="-7.015663683414459228515625">
        <ele>884.79998779296875</ele>
        <time>2019-07-09T17:09:47.000Z</time>
      </trkpt>
      <trkpt lat="43.34294945932924747467041015625" lon="-7.0160621590912342071533203125">
        <ele>885</ele>
        <time>2019-07-09T17:09:49.000Z</time>
      </trkpt>
      <trkpt lat="43.343203179538249969482421875" lon="-7.016715444624423980712890625">
        <ele>885.20001220703125</ele>
        <time>2019-07-09T17:09:52.000Z</time>
      </trkpt>
      <trkpt lat="43.34329781122505664825439453125" lon="-7.01694871298968791961669921875">
        <ele>885.20001220703125</ele>
        <time>2019-07-09T17:09:53.000Z</time>
      </trkpt>
      <trkpt lat="43.34359042346477508544921875" lon="-7.017691768705844879150390625">
        <ele>885</ele>
        <time>2019-07-09T17:09:56.000Z</time>
      </trkpt>
      <trkpt lat="43.34388420917093753814697265625" lon="-7.01842878945171833038330078125">
        <ele>883.79998779296875</ele>
        <time>2019-07-09T17:09:59.000Z</time>
      </trkpt>
      <trkpt lat="43.34405352361500263214111328125" lon="-7.018861211836338043212890625">
        <ele>882.5999755859375</ele>
        <time>2019-07-09T17:10:01.000Z</time>
      </trkpt>
      <trkpt lat="43.34412074647843837738037109375" lon="-7.0190662331879138946533203125">
        <ele>881.79998779296875</ele>
        <time>2019-07-09T17:10:02.000Z</time>
      </trkpt>
      <trkpt lat="43.3441686071455478668212890625" lon="-7.01927536167204380035400390625">
        <ele>880.79998779296875</ele>
        <time>2019-07-09T17:10:03.000Z</time>
      </trkpt>
      <trkpt lat="43.344192914664745330810546875" lon="-7.01948842965066432952880859375">
        <ele>879.4000244140625</ele>
        <time>2019-07-09T17:10:04.000Z</time>
      </trkpt>
      <trkpt lat="43.3441917411983013153076171875" lon="-7.019698731601238250732421875">
        <ele>877.79998779296875</ele>
        <time>2019-07-09T17:10:05.000Z</time>
      </trkpt>
      <trkpt lat="43.34416483528912067413330078125" lon="-7.0198990590870380401611328125">
        <ele>876.5999755859375</ele>
        <time>2019-07-09T17:10:06.000Z</time>
      </trkpt>
      <trkpt lat="43.34411144256591796875" lon="-7.02008756808936595916748046875">
        <ele>875.4000244140625</ele>
        <time>2019-07-09T17:10:07.000Z</time>
      </trkpt>
      <trkpt lat="43.34403357468545436859130859375" lon="-7.02026375569403171539306640625">
        <ele>874.5999755859375</ele>
        <time>2019-07-09T17:10:08.000Z</time>
      </trkpt>
      <trkpt lat="43.343934752047061920166015625" lon="-7.020424939692020416259765625">
        <ele>873.79998779296875</ele>
        <time>2019-07-09T17:10:09.000Z</time>
      </trkpt>
      <trkpt lat="43.3438165672123432159423828125" lon="-7.02056248672306537628173828125">
        <ele>873.20001220703125</ele>
        <time>2019-07-09T17:10:10.000Z</time>
      </trkpt>
      <trkpt lat="43.34367625415325164794921875" lon="-7.02067061327397823333740234375">
        <ele>872.4000244140625</ele>
        <time>2019-07-09T17:10:11.000Z</time>
      </trkpt>
      <trkpt lat="43.34351657889783382415771484375" lon="-7.020754851400852203369140625">
        <ele>871.79998779296875</ele>
        <time>2019-07-09T17:10:12.000Z</time>
      </trkpt>
      <trkpt lat="43.3431517146527767181396484375" lon="-7.02088133431971073150634765625">
        <ele>871</ele>
        <time>2019-07-09T17:10:14.000Z</time>
      </trkpt>
      <trkpt lat="43.34279338829219341278076171875" lon="-7.0209823362529277801513671875">
        <ele>869.79998779296875</ele>
        <time>2019-07-09T17:10:16.000Z</time>
      </trkpt>
      <trkpt lat="43.34249901585280895233154296875" lon="-7.021018378436565399169921875">
        <ele>869</ele>
        <time>2019-07-09T17:10:18.000Z</time>
      </trkpt>
      <trkpt lat="43.34237060509622097015380859375" lon="-7.02097789384424686431884765625">
        <ele>868.5999755859375</ele>
        <time>2019-07-09T17:10:19.000Z</time>
      </trkpt>
      <trkpt lat="43.34225493483245372772216796875" lon="-7.0208834297955036163330078125">
        <ele>867.79998779296875</ele>
        <time>2019-07-09T17:10:20.000Z</time>
      </trkpt>
      <trkpt lat="43.34215351380407810211181640625" lon="-7.02074110507965087890625">
        <ele>866.79998779296875</ele>
        <time>2019-07-09T17:10:21.000Z</time>
      </trkpt>
      <trkpt lat="43.34205846302211284637451171875" lon="-7.0205649174749851226806640625">
        <ele>865.5999755859375</ele>
        <time>2019-07-09T17:10:22.000Z</time>
      </trkpt>
      <trkpt lat="43.34185813553631305694580078125" lon="-7.020205669105052947998046875">
        <ele>864.5999755859375</ele>
        <time>2019-07-09T17:10:24.000Z</time>
      </trkpt>
      <trkpt lat="43.34160248748958110809326171875" lon="-7.0199459977447986602783203125">
        <ele>864</ele>
        <time>2019-07-09T17:10:26.000Z</time>
      </trkpt>
      <trkpt lat="43.34145010448992252349853515625" lon="-7.01986343599855899810791015625">
        <ele>863.5999755859375</ele>
        <time>2019-07-09T17:10:27.000Z</time>
      </trkpt>
      <trkpt lat="43.34096588194370269775390625" lon="-7.019692696630954742431640625">
        <ele>862.20001220703125</ele>
        <time>2019-07-09T17:10:30.000Z</time>
      </trkpt>
      <trkpt lat="43.340623565018177032470703125" lon="-7.0196405611932277679443359375">
        <ele>861.5999755859375</ele>
        <time>2019-07-09T17:10:32.000Z</time>
      </trkpt>
      <trkpt lat="43.34029122255742549896240234375" lon="-7.01970719732344150543212890625">
        <ele>860.79998779296875</ele>
        <time>2019-07-09T17:10:34.000Z</time>
      </trkpt>
      <trkpt lat="43.3400090038776397705078125" lon="-7.01988874934613704681396484375">
        <ele>859.5999755859375</ele>
        <time>2019-07-09T17:10:36.000Z</time>
      </trkpt>
      <trkpt lat="43.33958588540554046630859375" lon="-7.020371295511722564697265625">
        <ele>858.20001220703125</ele>
        <time>2019-07-09T17:10:39.000Z</time>
      </trkpt>
      <trkpt lat="43.3392635174095630645751953125" lon="-7.020679078996181488037109375">
        <ele>857</ele>
        <time>2019-07-09T17:10:41.000Z</time>
      </trkpt>
      <trkpt lat="43.33888775669038295745849609375" lon="-7.020844034850597381591796875">
        <ele>856.20001220703125</ele>
        <time>2019-07-09T17:10:43.000Z</time>
      </trkpt>
      <trkpt lat="43.33868575282394886016845703125" lon="-7.0208656601607799530029296875">
        <ele>856</ele>
        <time>2019-07-09T17:10:44.000Z</time>
      </trkpt>
      <trkpt lat="43.338104300200939178466796875" lon="-7.020867504179477691650390625">
        <ele>854.4000244140625</ele>
        <time>2019-07-09T17:10:47.000Z</time>
      </trkpt>
      <trkpt lat="43.33775972016155719757080078125" lon="-7.02097873203456401824951171875">
        <ele>852.5999755859375</ele>
        <time>2019-07-09T17:10:49.000Z</time>
      </trkpt>
      <trkpt lat="43.33759811706840991973876953125" lon="-7.02108233235776424407958984375">
        <ele>851.5999755859375</ele>
        <time>2019-07-09T17:10:50.000Z</time>
      </trkpt>
      <trkpt lat="43.33744539879262447357177734375" lon="-7.0212146826088428497314453125">
        <ele>850.79998779296875</ele>
        <time>2019-07-09T17:10:51.000Z</time>
      </trkpt>
      <trkpt lat="43.33729905076324939727783203125" lon="-7.02136144973337650299072265625">
        <ele>850.20001220703125</ele>
        <time>2019-07-09T17:10:52.000Z</time>
      </trkpt>
      <trkpt lat="43.33698908798396587371826171875" lon="-7.02161709778010845184326171875">
        <ele>848.79998779296875</ele>
        <time>2019-07-09T17:10:54.000Z</time>
      </trkpt>
      <trkpt lat="43.3366334438323974609375" lon="-7.0217340253293514251708984375">
        <ele>848</ele>
        <time>2019-07-09T17:10:56.000Z</time>
      </trkpt>
      <trkpt lat="43.33644443191587924957275390625" lon="-7.0217511244118213653564453125">
        <ele>847.79998779296875</ele>
        <time>2019-07-09T17:10:57.000Z</time>
      </trkpt>
      <trkpt lat="43.3358400128781795501708984375" lon="-7.021731846034526824951171875">
        <ele>846.5999755859375</ele>
        <time>2019-07-09T17:11:00.000Z</time>
      </trkpt>
      <trkpt lat="43.3352167345583438873291015625" lon="-7.02159396372735500335693359375">
        <ele>845.4000244140625</ele>
        <time>2019-07-09T17:11:03.000Z</time>
      </trkpt>
      <trkpt lat="43.334829322993755340576171875" lon="-7.02161475084722042083740234375">
        <ele>845</ele>
        <time>2019-07-09T17:11:05.000Z</time>
      </trkpt>
      <trkpt lat="43.33446529693901538848876953125" lon="-7.0217625238001346588134765625">
        <ele>844.5999755859375</ele>
        <time>2019-07-09T17:11:07.000Z</time>
      </trkpt>
      <trkpt lat="43.33411275409162044525146484375" lon="-7.02203401364386081695556640625">
        <ele>844</ele>
        <time>2019-07-09T17:11:09.000Z</time>
      </trkpt>
      <trkpt lat="43.3336047269403934478759765625" lon="-7.022401057183742523193359375">
        <ele>843.20001220703125</ele>
        <time>2019-07-09T17:11:12.000Z</time>
      </trkpt>
      <trkpt lat="43.3334147930145263671875" lon="-7.022460065782070159912109375">
        <ele>842.79998779296875</ele>
        <time>2019-07-09T17:11:13.000Z</time>
      </trkpt>
      <trkpt lat="43.33321035839617252349853515625" lon="-7.02247959561645984649658203125">
        <ele>842.4000244140625</ele>
        <time>2019-07-09T17:11:14.000Z</time>
      </trkpt>
      <trkpt lat="43.33276502788066864013671875" lon="-7.022436596453189849853515625">
        <ele>841.5999755859375</ele>
        <time>2019-07-09T17:11:16.000Z</time>
      </trkpt>
      <trkpt lat="43.3322788774967193603515625" lon="-7.02237515710294246673583984375">
        <ele>841.20001220703125</ele>
        <time>2019-07-09T17:11:18.000Z</time>
      </trkpt>
      <trkpt lat="43.33176498301327228546142578125" lon="-7.0223061740398406982421875">
        <ele>841.20001220703125</ele>
        <time>2019-07-09T17:11:20.000Z</time>
      </trkpt>
      <trkpt lat="43.331235833466053009033203125" lon="-7.0222325809299945831298828125">
        <ele>840.5999755859375</ele>
        <time>2019-07-09T17:11:22.000Z</time>
      </trkpt>
      <trkpt lat="43.33073920570313930511474609375" lon="-7.02216309495270252227783203125">
        <ele>839.79998779296875</ele>
        <time>2019-07-09T17:11:24.000Z</time>
      </trkpt>
      <trkpt lat="43.33051063120365142822265625" lon="-7.02213526703417301177978515625">
        <ele>839.20001220703125</ele>
        <time>2019-07-09T17:11:25.000Z</time>
      </trkpt>
      <trkpt lat="43.33006194792687892913818359375" lon="-7.02212487347424030303955078125">
        <ele>837.5999755859375</ele>
        <time>2019-07-09T17:11:27.000Z</time>
      </trkpt>
      <trkpt lat="43.32960228435695171356201171875" lon="-7.0222094468772411346435546875">
        <ele>836</ele>
        <time>2019-07-09T17:11:29.000Z</time>
      </trkpt>
      <trkpt lat="43.329147063195705413818359375" lon="-7.02235043048858642578125">
        <ele>835.20001220703125</ele>
        <time>2019-07-09T17:11:31.000Z</time>
      </trkpt>
      <trkpt lat="43.32893005572259426116943359375" lon="-7.0224156416952610015869140625">
        <ele>834.79998779296875</ele>
        <time>2019-07-09T17:11:32.000Z</time>
      </trkpt>
      <trkpt lat="43.32849201746284961700439453125" lon="-7.0225073397159576416015625">
        <ele>833.4000244140625</ele>
        <time>2019-07-09T17:11:34.000Z</time>
      </trkpt>
      <trkpt lat="43.3280260674655437469482421875" lon="-7.02252636663615703582763671875">
        <ele>832</ele>
        <time>2019-07-09T17:11:36.000Z</time>
      </trkpt>
      <trkpt lat="43.3275144360959529876708984375" lon="-7.022458054125308990478515625">
        <ele>831.4000244140625</ele>
        <time>2019-07-09T17:11:38.000Z</time>
      </trkpt>
      <trkpt lat="43.32699065096676349639892578125" lon="-7.02231581322848796844482421875">
        <ele>831.20001220703125</ele>
        <time>2019-07-09T17:11:40.000Z</time>
      </trkpt>
      <trkpt lat="43.32673651166260242462158203125" lon="-7.0222412981092929840087890625">
        <ele>830.79998779296875</ele>
        <time>2019-07-09T17:11:41.000Z</time>
      </trkpt>
      <trkpt lat="43.32627349533140659332275390625" lon="-7.0221011526882648468017578125">
        <ele>830</ele>
        <time>2019-07-09T17:11:43.000Z</time>
      </trkpt>
      <trkpt lat="43.32607618533074855804443359375" lon="-7.02204130589962005615234375">
        <ele>829.20001220703125</ele>
        <time>2019-07-09T17:11:44.000Z</time>
      </trkpt>
      <trkpt lat="43.3257428370416164398193359375" lon="-7.02195321209728717803955078125">
        <ele>827.79998779296875</ele>
        <time>2019-07-09T17:11:46.000Z</time>
      </trkpt>
      <trkpt lat="43.32559539936482906341552734375" lon="-7.0219361968338489532470703125">
        <ele>826.4000244140625</ele>
        <time>2019-07-09T17:11:47.000Z</time>
      </trkpt>
      <trkpt lat="43.32545776851475238800048828125" lon="-7.02195606194436550140380859375">
        <ele>824.79998779296875</ele>
        <time>2019-07-09T17:11:48.000Z</time>
      </trkpt>
      <trkpt lat="43.32533530890941619873046875" lon="-7.02201926149427890777587890625">
        <ele>823</ele>
        <time>2019-07-09T17:11:49.000Z</time>
      </trkpt>
      <trkpt lat="43.32522123120725154876708984375" lon="-7.02212445437908172607421875">
        <ele>821.79998779296875</ele>
        <time>2019-07-09T17:11:50.000Z</time>
      </trkpt>
      <trkpt lat="43.32500095479190349578857421875" lon="-7.02238571830093860626220703125">
        <ele>820.5999755859375</ele>
        <time>2019-07-09T17:11:52.000Z</time>
      </trkpt>
      <trkpt lat="43.324761651456356048583984375" lon="-7.02253072522580623626708984375">
        <ele>820.20001220703125</ele>
        <time>2019-07-09T17:11:54.000Z</time>
      </trkpt>
      <trkpt lat="43.32451078109443187713623046875" lon="-7.02246467582881450653076171875">
        <ele>820</ele>
        <time>2019-07-09T17:11:56.000Z</time>
      </trkpt>
      <trkpt lat="43.3243851363658905029296875" lon="-7.0223619975149631500244140625">
        <ele>819.5999755859375</ele>
        <time>2019-07-09T17:11:57.000Z</time>
      </trkpt>
      <trkpt lat="43.32409746944904327392578125" lon="-7.022130489349365234375">
        <ele>819.20001220703125</ele>
        <time>2019-07-09T17:11:59.000Z</time>
      </trkpt>
      <trkpt lat="43.32376596517860889434814453125" lon="-7.0219804532825946807861328125">
        <ele>818.79998779296875</ele>
        <time>2019-07-09T17:12:01.000Z</time>
      </trkpt>
      <trkpt lat="43.323592878878116607666015625" lon="-7.0219522900879383087158203125">
        <ele>818.5999755859375</ele>
        <time>2019-07-09T17:12:02.000Z</time>
      </trkpt>
      <trkpt lat="43.32341576926410198211669921875" lon="-7.021957822144031524658203125">
        <ele>818.20001220703125</ele>
        <time>2019-07-09T17:12:03.000Z</time>
      </trkpt>
      <trkpt lat="43.323053754866123199462890625" lon="-7.02206066809594631195068359375">
        <ele>817.79998779296875</ele>
        <time>2019-07-09T17:12:05.000Z</time>
      </trkpt>
      <trkpt lat="43.3226878009736537933349609375" lon="-7.0222329162061214447021484375">
        <ele>817.4000244140625</ele>
        <time>2019-07-09T17:12:07.000Z</time>
      </trkpt>
      <trkpt lat="43.32230851985514163970947265625" lon="-7.022388316690921783447265625">
        <ele>817.4000244140625</ele>
        <time>2019-07-09T17:12:09.000Z</time>
      </trkpt>
      <trkpt lat="43.32169261761009693145751953125" lon="-7.02244405634701251983642578125">
        <ele>816.4000244140625</ele>
        <time>2019-07-09T17:12:12.000Z</time>
      </trkpt>
      <trkpt lat="43.32105693407356739044189453125" lon="-7.02249082736670970916748046875">
        <ele>815.79998779296875</ele>
        <time>2019-07-09T17:12:15.000Z</time>
      </trkpt>
      <trkpt lat="43.32064940594136714935302734375" lon="-7.02260867692530155181884765625">
        <ele>815</ele>
        <time>2019-07-09T17:12:17.000Z</time>
      </trkpt>
      <trkpt lat="43.3202545344829559326171875" lon="-7.02279542572796344757080078125">
        <ele>814</ele>
        <time>2019-07-09T17:12:19.000Z</time>
      </trkpt>
      <trkpt lat="43.31989402882754802703857421875" lon="-7.02302659861743450164794921875">
        <ele>813</ele>
        <time>2019-07-09T17:12:21.000Z</time>
      </trkpt>
      <trkpt lat="43.31941357813775539398193359375" lon="-7.023411579430103302001953125">
        <ele>811.79998779296875</ele>
        <time>2019-07-09T17:12:24.000Z</time>
      </trkpt>
      <trkpt lat="43.31905449740588665008544921875" lon="-7.0235844142735004425048828125">
        <ele>811.5999755859375</ele>
        <time>2019-07-09T17:12:26.000Z</time>
      </trkpt>
      <trkpt lat="43.31870564259588718414306640625" lon="-7.02363110147416591644287109375">
        <ele>811.4000244140625</ele>
        <time>2019-07-09T17:12:28.000Z</time>
      </trkpt>
      <trkpt lat="43.31828688271343708038330078125" lon="-7.0235495455563068389892578125">
        <ele>810.20001220703125</ele>
        <time>2019-07-09T17:12:31.000Z</time>
      </trkpt>
      <trkpt lat="43.31817037425935268402099609375" lon="-7.02349531464278697967529296875">
        <ele>809.20001220703125</ele>
        <time>2019-07-09T17:12:32.000Z</time>
      </trkpt>
      <trkpt lat="43.3179570548236370086669921875" lon="-7.02335483394563198089599609375">
        <ele>807.4000244140625</ele>
        <time>2019-07-09T17:12:34.000Z</time>
      </trkpt>
      <trkpt lat="43.317770473659038543701171875" lon="-7.023183591663837432861328125">
        <ele>806.20001220703125</ele>
        <time>2019-07-09T17:12:36.000Z</time>
      </trkpt>
      <trkpt lat="43.31741834990680217742919921875" lon="-7.02278754673898220062255859375">
        <ele>805.20001220703125</ele>
        <time>2019-07-09T17:12:40.000Z</time>
      </trkpt>
      <trkpt lat="43.3169991709291934967041015625" lon="-7.02248713932931423187255859375">
        <ele>803.79998779296875</ele>
        <time>2019-07-09T17:12:44.000Z</time>
      </trkpt>
      <trkpt lat="43.31663095392286777496337890625" lon="-7.0222885720431804656982421875">
        <ele>802.79998779296875</ele>
        <time>2019-07-09T17:12:47.000Z</time>
      </trkpt>
      <trkpt lat="43.31637430004775524139404296875" lon="-7.022154293954372406005859375">
        <ele>801.79998779296875</ele>
        <time>2019-07-09T17:12:49.000Z</time>
      </trkpt>
      <trkpt lat="43.315984793007373809814453125" lon="-7.02195455320179462432861328125">
        <ele>800.5999755859375</ele>
        <time>2019-07-09T17:12:52.000Z</time>
      </trkpt>
      <trkpt lat="43.31572093069553375244140625" lon="-7.02181826345622539520263671875">
        <ele>799.20001220703125</ele>
        <time>2019-07-09T17:12:54.000Z</time>
      </trkpt>
      <trkpt lat="43.31530275754630565643310546875" lon="-7.021597735583782196044921875">
        <ele>797.79998779296875</ele>
        <time>2019-07-09T17:12:57.000Z</time>
      </trkpt>
      <trkpt lat="43.3148445188999176025390625" lon="-7.02137603424489498138427734375">
        <ele>796.5999755859375</ele>
        <time>2019-07-09T17:13:00.000Z</time>
      </trkpt>
      <trkpt lat="43.3144902996718883514404296875" lon="-7.02127545140683650970458984375">
        <ele>796.4000244140625</ele>
        <time>2019-07-09T17:13:02.000Z</time>
      </trkpt>
      <trkpt lat="43.3140983618795871734619140625" lon="-7.02126287855207920074462890625">
        <ele>796.79998779296875</ele>
        <time>2019-07-09T17:13:04.000Z</time>
      </trkpt>
      <trkpt lat="43.3134841360151767730712890625" lon="-7.021405287086963653564453125">
        <ele>796.5999755859375</ele>
        <time>2019-07-09T17:13:07.000Z</time>
      </trkpt>
      <trkpt lat="43.3129316009581089019775390625" lon="-7.0216200314462184906005859375">
        <ele>795.79998779296875</ele>
        <time>2019-07-09T17:13:10.000Z</time>
      </trkpt>
      <trkpt lat="43.3127683214843273162841796875" lon="-7.0217293314635753631591796875">
        <ele>795</ele>
        <time>2019-07-09T17:13:11.000Z</time>
      </trkpt>
      <trkpt lat="43.312611915171146392822265625" lon="-7.021863944828510284423828125">
        <ele>794</ele>
        <time>2019-07-09T17:13:12.000Z</time>
      </trkpt>
      <trkpt lat="43.3124565146863460540771484375" lon="-7.02201574109494686126708984375">
        <ele>792.79998779296875</ele>
        <time>2019-07-09T17:13:13.000Z</time>
      </trkpt>
      <trkpt lat="43.3121393434703350067138671875" lon="-7.02234146185219287872314453125">
        <ele>791.4000244140625</ele>
        <time>2019-07-09T17:13:15.000Z</time>
      </trkpt>
      <trkpt lat="43.3116538636386394500732421875" lon="-7.02288393862545490264892578125">
        <ele>790.5999755859375</ele>
        <time>2019-07-09T17:13:18.000Z</time>
      </trkpt>
      <trkpt lat="43.3114972896873950958251953125" lon="-7.02306649647653102874755859375">
        <ele>790.4000244140625</ele>
        <time>2019-07-09T17:13:19.000Z</time>
      </trkpt>
      <trkpt lat="43.31106754951179027557373046875" lon="-7.0235140062868595123291015625">
        <ele>788.79998779296875</ele>
        <time>2019-07-09T17:13:22.000Z</time>
      </trkpt>
      <trkpt lat="43.31091181375086307525634765625" lon="-7.023597322404384613037109375">
        <ele>787.4000244140625</ele>
        <time>2019-07-09T17:13:23.000Z</time>
      </trkpt>
      <trkpt lat="43.3107461035251617431640625" lon="-7.023640573024749755859375">
        <ele>785.79998779296875</ele>
        <time>2019-07-09T17:13:24.000Z</time>
      </trkpt>
      <trkpt lat="43.310576118528842926025390625" lon="-7.02367569319903850555419921875">
        <ele>784.5999755859375</ele>
        <time>2019-07-09T17:13:25.000Z</time>
      </trkpt>
      <trkpt lat="43.310413844883441925048828125" lon="-7.023730091750621795654296875">
        <ele>783.5999755859375</ele>
        <time>2019-07-09T17:13:26.000Z</time>
      </trkpt>
      <trkpt lat="43.31027227453887462615966796875" lon="-7.0238221250474452972412109375">
        <ele>782.79998779296875</ele>
        <time>2019-07-09T17:13:27.000Z</time>
      </trkpt>
      <trkpt lat="43.3101538382470607757568359375" lon="-7.0239471830427646636962890625">
        <ele>782</ele>
        <time>2019-07-09T17:13:28.000Z</time>
      </trkpt>
      <trkpt lat="43.31006406806409358978271484375" lon="-7.0241014100611209869384765625">
        <ele>781.20001220703125</ele>
        <time>2019-07-09T17:13:29.000Z</time>
      </trkpt>
      <trkpt lat="43.3100066520273685455322265625" lon="-7.0242760889232158660888671875">
        <ele>780.4000244140625</ele>
        <time>2019-07-09T17:13:30.000Z</time>
      </trkpt>
      <trkpt lat="43.30997823737561702728271484375" lon="-7.0244608260691165924072265625">
        <ele>779.5999755859375</ele>
        <time>2019-07-09T17:13:31.000Z</time>
      </trkpt>
      <trkpt lat="43.30998259596526622772216796875" lon="-7.02465620823204517364501953125">
        <ele>778.5999755859375</ele>
        <time>2019-07-09T17:13:32.000Z</time>
      </trkpt>
      <trkpt lat="43.310020901262760162353515625" lon="-7.024851925671100616455078125">
        <ele>777.79998779296875</ele>
        <time>2019-07-09T17:13:33.000Z</time>
      </trkpt>
      <trkpt lat="43.3100898005068302154541015625" lon="-7.02503624372184276580810546875">
        <ele>777</ele>
        <time>2019-07-09T17:13:34.000Z</time>
      </trkpt>
      <trkpt lat="43.310180492699146270751953125" lon="-7.0252108387649059295654296875">
        <ele>776.5999755859375</ele>
        <time>2019-07-09T17:13:35.000Z</time>
      </trkpt>
      <trkpt lat="43.31044368445873260498046875" lon="-7.025727666914463043212890625">
        <ele>775.5999755859375</ele>
        <time>2019-07-09T17:13:38.000Z</time>
      </trkpt>
      <trkpt lat="43.3104834146797657012939453125" lon="-7.02610610984265804290771484375">
        <ele>774.20001220703125</ele>
        <time>2019-07-09T17:13:40.000Z</time>
      </trkpt>
      <trkpt lat="43.3103855140507221221923828125" lon="-7.0265293121337890625">
        <ele>772.5999755859375</ele>
        <time>2019-07-09T17:13:42.000Z</time>
      </trkpt>
      <trkpt lat="43.31021276302635669708251953125" lon="-7.0269891433417797088623046875">
        <ele>771</ele>
        <time>2019-07-09T17:13:44.000Z</time>
      </trkpt>
      <trkpt lat="43.30985401757061481475830078125" lon="-7.02765877358615398406982421875">
        <ele>770</ele>
        <time>2019-07-09T17:13:47.000Z</time>
      </trkpt>
      <trkpt lat="43.3097226731479167938232421875" lon="-7.0278474502265453338623046875">
        <ele>770</ele>
        <time>2019-07-09T17:13:48.000Z</time>
      </trkpt>
      <trkpt lat="43.30944179557263851165771484375" lon="-7.028163112699985504150390625">
        <ele>769.20001220703125</ele>
        <time>2019-07-09T17:13:50.000Z</time>
      </trkpt>
      <trkpt lat="43.3092854730784893035888671875" lon="-7.02829261310398578643798828125">
        <ele>768.4000244140625</ele>
        <time>2019-07-09T17:13:51.000Z</time>
      </trkpt>
      <trkpt lat="43.3089579083025455474853515625" lon="-7.02851540409028530120849609375">
        <ele>766.5999755859375</ele>
        <time>2019-07-09T17:13:53.000Z</time>
      </trkpt>
      <trkpt lat="43.30879773013293743133544921875" lon="-7.0286115445196628570556640625">
        <ele>765.20001220703125</ele>
        <time>2019-07-09T17:13:54.000Z</time>
      </trkpt>
      <trkpt lat="43.3086528070271015167236328125" lon="-7.028711624443531036376953125">
        <ele>764</ele>
        <time>2019-07-09T17:13:55.000Z</time>
      </trkpt>
      <trkpt lat="43.3085240609943866729736328125" lon="-7.02881949953734874725341796875">
        <ele>763</ele>
        <time>2019-07-09T17:13:56.000Z</time>
      </trkpt>
      <trkpt lat="43.3084003441035747528076171875" lon="-7.02894506044685840606689453125">
        <ele>761.79998779296875</ele>
        <time>2019-07-09T17:13:57.000Z</time>
      </trkpt>
      <trkpt lat="43.30832281149923801422119140625" lon="-7.02910884283483028411865234375">
        <ele>760.5999755859375</ele>
        <time>2019-07-09T17:13:58.000Z</time>
      </trkpt>
      <trkpt lat="43.30828123725950717926025390625" lon="-7.02929802238941192626953125">
        <ele>759.5999755859375</ele>
        <time>2019-07-09T17:13:59.000Z</time>
      </trkpt>
      <trkpt lat="43.30827536992728710174560546875" lon="-7.02949977479875087738037109375">
        <ele>758.5999755859375</ele>
        <time>2019-07-09T17:14:00.000Z</time>
      </trkpt>
      <trkpt lat="43.30829816870391368865966796875" lon="-7.02971242368221282958984375">
        <ele>757.5999755859375</ele>
        <time>2019-07-09T17:14:01.000Z</time>
      </trkpt>
      <trkpt lat="43.30837704241275787353515625" lon="-7.03016563318669795989990234375">
        <ele>756.20001220703125</ele>
        <time>2019-07-09T17:14:03.000Z</time>
      </trkpt>
      <trkpt lat="43.30840428359806537628173828125" lon="-7.0304069481790065765380859375">
        <ele>755.5999755859375</ele>
        <time>2019-07-09T17:14:04.000Z</time>
      </trkpt>
      <trkpt lat="43.30836656503379344940185546875" lon="-7.03089821152389049530029296875">
        <ele>755</ele>
        <time>2019-07-09T17:14:06.000Z</time>
      </trkpt>
      <trkpt lat="43.30820915289223194122314453125" lon="-7.03139022924005985260009765625">
        <ele>754</ele>
        <time>2019-07-09T17:14:08.000Z</time>
      </trkpt>
      <trkpt lat="43.30809817649424076080322265625" lon="-7.03164403326809406280517578125">
        <ele>753.5999755859375</ele>
        <time>2019-07-09T17:14:09.000Z</time>
      </trkpt>
      <trkpt lat="43.3078595437109470367431640625" lon="-7.032207213342189788818359375">
        <ele>752.79998779296875</ele>
        <time>2019-07-09T17:14:11.000Z</time>
      </trkpt>
      <trkpt lat="43.3077405206859111785888671875" lon="-7.03248624689877033233642578125">
        <ele>752.4000244140625</ele>
        <time>2019-07-09T17:14:12.000Z</time>
      </trkpt>
      <trkpt lat="43.3075031451880931854248046875" lon="-7.03300341032445430755615234375">
        <ele>751.79998779296875</ele>
        <time>2019-07-09T17:14:14.000Z</time>
      </trkpt>
      <trkpt lat="43.307223021984100341796875" lon="-7.033402137458324432373046875">
        <ele>750.20001220703125</ele>
        <time>2019-07-09T17:14:16.000Z</time>
      </trkpt>
      <trkpt lat="43.3070661127567291259765625" lon="-7.0335414446890354156494140625">
        <ele>748.79998779296875</ele>
        <time>2019-07-09T17:14:17.000Z</time>
      </trkpt>
      <trkpt lat="43.30689386464655399322509765625" lon="-7.0336346514523029327392578125">
        <ele>747</ele>
        <time>2019-07-09T17:14:18.000Z</time>
      </trkpt>
      <trkpt lat="43.30670996569097042083740234375" lon="-7.03368804417550563812255859375">
        <ele>745.4000244140625</ele>
        <time>2019-07-09T17:14:19.000Z</time>
      </trkpt>
      <trkpt lat="43.30651567317545413970947265625" lon="-7.03370220959186553955078125">
        <ele>743.79998779296875</ele>
        <time>2019-07-09T17:14:20.000Z</time>
      </trkpt>
      <trkpt lat="43.306311406195163726806640625" lon="-7.03368217684328556060791015625">
        <ele>742.4000244140625</ele>
        <time>2019-07-09T17:14:21.000Z</time>
      </trkpt>
      <trkpt lat="43.30609842203557491302490234375" lon="-7.03364529646933078765869140625">
        <ele>741.4000244140625</ele>
        <time>2019-07-09T17:14:22.000Z</time>
      </trkpt>
      <trkpt lat="43.305681757628917694091796875" lon="-7.03355913050472736358642578125">
        <ele>739.79998779296875</ele>
        <time>2019-07-09T17:14:24.000Z</time>
      </trkpt>
      <trkpt lat="43.30534287728369235992431640625" lon="-7.0334951765835285186767578125">
        <ele>738</ele>
        <time>2019-07-09T17:14:26.000Z</time>
      </trkpt>
      <trkpt lat="43.3052034862339496612548828125" lon="-7.0334837771952152252197265625">
        <ele>736.79998779296875</ele>
        <time>2019-07-09T17:14:27.000Z</time>
      </trkpt>
      <trkpt lat="43.30507599748671054840087890625" lon="-7.0335105992853641510009765625">
        <ele>735.20001220703125</ele>
        <time>2019-07-09T17:14:28.000Z</time>
      </trkpt>
      <trkpt lat="43.3049640990793704986572265625" lon="-7.0335875451564788818359375">
        <ele>733.20001220703125</ele>
        <time>2019-07-09T17:14:29.000Z</time>
      </trkpt>
      <trkpt lat="43.30487315542995929718017578125" lon="-7.0337167941033840179443359375">
        <ele>731.4000244140625</ele>
        <time>2019-07-09T17:14:30.000Z</time>
      </trkpt>
      <trkpt lat="43.30480056814849376678466796875" lon="-7.03389893285930156707763671875">
        <ele>730</ele>
        <time>2019-07-09T17:14:31.000Z</time>
      </trkpt>
      <trkpt lat="43.30467291176319122314453125" lon="-7.0343705825507640838623046875">
        <ele>728.5999755859375</ele>
        <time>2019-07-09T17:14:33.000Z</time>
      </trkpt>
      <trkpt lat="43.30447685904800891876220703125" lon="-7.0350414700806140899658203125">
        <ele>727.4000244140625</ele>
        <time>2019-07-09T17:14:36.000Z</time>
      </trkpt>
      <trkpt lat="43.30428457818925380706787109375" lon="-7.035346738994121551513671875">
        <ele>724.79998779296875</ele>
        <time>2019-07-09T17:14:38.000Z</time>
      </trkpt>
      <trkpt lat="43.3041597716510295867919921875" lon="-7.03544505871832370758056640625">
        <ele>723</ele>
        <time>2019-07-09T17:14:39.000Z</time>
      </trkpt>
      <trkpt lat="43.30400361679494380950927734375" lon="-7.0355091802775859832763671875">
        <ele>721.5999755859375</ele>
        <time>2019-07-09T17:14:40.000Z</time>
      </trkpt>
      <trkpt lat="43.3038137666881084442138671875" lon="-7.03555335290729999542236328125">
        <ele>720.4000244140625</ele>
        <time>2019-07-09T17:14:41.000Z</time>
      </trkpt>
      <trkpt lat="43.30340347252786159515380859375" lon="-7.035614959895610809326171875">
        <ele>719</ele>
        <time>2019-07-09T17:14:43.000Z</time>
      </trkpt>
      <trkpt lat="43.3030091039836406707763671875" lon="-7.0356580428779125213623046875">
        <ele>718</ele>
        <time>2019-07-09T17:14:45.000Z</time>
      </trkpt>
      <trkpt lat="43.30281757749617099761962890625" lon="-7.035647816956043243408203125">
        <ele>717.4000244140625</ele>
        <time>2019-07-09T17:14:46.000Z</time>
      </trkpt>
      <trkpt lat="43.30262546427547931671142578125" lon="-7.03560515306890010833740234375">
        <ele>716.4000244140625</ele>
        <time>2019-07-09T17:14:47.000Z</time>
      </trkpt>
      <trkpt lat="43.3024337701499462127685546875" lon="-7.0355299673974514007568359375">
        <ele>715.79998779296875</ele>
        <time>2019-07-09T17:14:48.000Z</time>
      </trkpt>
      <trkpt lat="43.3022515475749969482421875" lon="-7.0354186557233333587646484375">
        <ele>714.5999755859375</ele>
        <time>2019-07-09T17:14:49.000Z</time>
      </trkpt>
      <trkpt lat="43.3020743541419506072998046875" lon="-7.0352701283991336822509765625">
        <ele>713.4000244140625</ele>
        <time>2019-07-09T17:14:50.000Z</time>
      </trkpt>
      <trkpt lat="43.3019120804965496063232421875" lon="-7.03509989194571971893310546875">
        <ele>712.20001220703125</ele>
        <time>2019-07-09T17:14:51.000Z</time>
      </trkpt>
      <trkpt lat="43.30160488374531269073486328125" lon="-7.0347380451858043670654296875">
        <ele>710.79998779296875</ele>
        <time>2019-07-09T17:14:53.000Z</time>
      </trkpt>
      <trkpt lat="43.301451243460178375244140625" lon="-7.03459127806127071380615234375">
        <ele>709.5999755859375</ele>
        <time>2019-07-09T17:14:54.000Z</time>
      </trkpt>
      <trkpt lat="43.30129676498472690582275390625" lon="-7.03447309322655200958251953125">
        <ele>708.5999755859375</ele>
        <time>2019-07-09T17:14:55.000Z</time>
      </trkpt>
      <trkpt lat="43.30114002339541912078857421875" lon="-7.0343813113868236541748046875">
        <ele>707.20001220703125</ele>
        <time>2019-07-09T17:14:56.000Z</time>
      </trkpt>
      <trkpt lat="43.300972469151020050048828125" lon="-7.034314759075641632080078125">
        <ele>706</ele>
        <time>2019-07-09T17:14:57.000Z</time>
      </trkpt>
      <trkpt lat="43.3007781766355037689208984375" lon="-7.03427092172205448150634765625">
        <ele>704.5999755859375</ele>
        <time>2019-07-09T17:14:58.000Z</time>
      </trkpt>
      <trkpt lat="43.30056301318109035491943359375" lon="-7.0342388190329074859619140625">
        <ele>703.20001220703125</ele>
        <time>2019-07-09T17:14:59.000Z</time>
      </trkpt>
      <trkpt lat="43.30034424550831317901611328125" lon="-7.03421241603791713714599609375">
        <ele>702.20001220703125</ele>
        <time>2019-07-09T17:15:00.000Z</time>
      </trkpt>
      <trkpt lat="43.2999185286462306976318359375" lon="-7.0341858454048633575439453125">
        <ele>700.5999755859375</ele>
        <time>2019-07-09T17:15:02.000Z</time>
      </trkpt>
      <trkpt lat="43.2997046224772930145263671875" lon="-7.03420554287731647491455078125">
        <ele>699.4000244140625</ele>
        <time>2019-07-09T17:15:03.000Z</time>
      </trkpt>
      <trkpt lat="43.2994873635470867156982421875" lon="-7.03426471911370754241943359375">
        <ele>698.20001220703125</ele>
        <time>2019-07-09T17:15:04.000Z</time>
      </trkpt>
      <trkpt lat="43.29926700331270694732666015625" lon="-7.03435591422021389007568359375">
        <ele>697</ele>
        <time>2019-07-09T17:15:05.000Z</time>
      </trkpt>
      <trkpt lat="43.29905024729669094085693359375" lon="-7.034461610019207000732421875">
        <ele>696</ele>
        <time>2019-07-09T17:15:06.000Z</time>
      </trkpt>
      <trkpt lat="43.29866702668368816375732421875" lon="-7.0346696488559246063232421875">
        <ele>693.79998779296875</ele>
        <time>2019-07-09T17:15:08.000Z</time>
      </trkpt>
      <trkpt lat="43.29850626178085803985595703125" lon="-7.0347779430449008941650390625">
        <ele>692.79998779296875</ele>
        <time>2019-07-09T17:15:09.000Z</time>
      </trkpt>
      <trkpt lat="43.298359997570514678955078125" lon="-7.0349071919918060302734375">
        <ele>691.5999755859375</ele>
        <time>2019-07-09T17:15:10.000Z</time>
      </trkpt>
      <trkpt lat="43.298225216567516326904296875" lon="-7.03505999408662319183349609375">
        <ele>690.20001220703125</ele>
        <time>2019-07-09T17:15:11.000Z</time>
      </trkpt>
      <trkpt lat="43.298101834952831268310546875" lon="-7.03521606512367725372314453125">
        <ele>688.79998779296875</ele>
        <time>2019-07-09T17:15:12.000Z</time>
      </trkpt>
      <trkpt lat="43.29797686077654361724853515625" lon="-7.03536794520914554595947265625">
        <ele>687</ele>
        <time>2019-07-09T17:15:13.000Z</time>
      </trkpt>
      <trkpt lat="43.29784442670643329620361328125" lon="-7.03549769707024097442626953125">
        <ele>685.20001220703125</ele>
        <time>2019-07-09T17:15:14.000Z</time>
      </trkpt>
      <trkpt lat="43.2977067120373249053955078125" lon="-7.03558822162449359893798828125">
        <ele>683.5999755859375</ele>
        <time>2019-07-09T17:15:15.000Z</time>
      </trkpt>
      <trkpt lat="43.2975565083324909210205078125" lon="-7.03562669456005096435546875">
        <ele>682.5999755859375</ele>
        <time>2019-07-09T17:15:16.000Z</time>
      </trkpt>
      <trkpt lat="43.29722617752850055694580078125" lon="-7.035552598536014556884765625">
        <ele>680.5999755859375</ele>
        <time>2019-07-09T17:15:18.000Z</time>
      </trkpt>
      <trkpt lat="43.29687950201332569122314453125" lon="-7.03541438095271587371826171875">
        <ele>678.5999755859375</ele>
        <time>2019-07-09T17:15:20.000Z</time>
      </trkpt>
      <trkpt lat="43.29651421867311000823974609375" lon="-7.0353365130722522735595703125">
        <ele>677.4000244140625</ele>
        <time>2019-07-09T17:15:22.000Z</time>
      </trkpt>
      <trkpt lat="43.2962110452353954315185546875" lon="-7.03529971651732921600341796875">
        <ele>676.20001220703125</ele>
        <time>2019-07-09T17:15:24.000Z</time>
      </trkpt>
      <trkpt lat="43.29609629698097705841064453125" lon="-7.03526535071432590484619140625">
        <ele>674.79998779296875</ele>
        <time>2019-07-09T17:15:25.000Z</time>
      </trkpt>
      <trkpt lat="43.29600409604609012603759765625" lon="-7.03519695438444614410400390625">
        <ele>673.4000244140625</ele>
        <time>2019-07-09T17:15:26.000Z</time>
      </trkpt>
      <trkpt lat="43.29593402333557605743408203125" lon="-7.03508597798645496368408203125">
        <ele>671.5999755859375</ele>
        <time>2019-07-09T17:15:27.000Z</time>
      </trkpt>
      <trkpt lat="43.2958804629743099212646484375" lon="-7.03493602573871612548828125">
        <ele>670</ele>
        <time>2019-07-09T17:15:28.000Z</time>
      </trkpt>
      <trkpt lat="43.29582790844142436981201171875" lon="-7.034762017428874969482421875">
        <ele>668.5999755859375</ele>
        <time>2019-07-09T17:15:29.000Z</time>
      </trkpt>
      <trkpt lat="43.2957554049789905548095703125" lon="-7.03458189032971858978271484375">
        <ele>667.5999755859375</ele>
        <time>2019-07-09T17:15:30.000Z</time>
      </trkpt>
      <trkpt lat="43.29553730785846710205078125" lon="-7.0342146791517734527587890625">
        <ele>666.4000244140625</ele>
        <time>2019-07-09T17:15:32.000Z</time>
      </trkpt>
      <trkpt lat="43.29513187520205974578857421875" lon="-7.0336363278329372406005859375">
        <ele>665.4000244140625</ele>
        <time>2019-07-09T17:15:35.000Z</time>
      </trkpt>
      <trkpt lat="43.2948682643473148345947265625" lon="-7.03326442278921604156494140625">
        <ele>664.20001220703125</ele>
        <time>2019-07-09T17:15:37.000Z</time>
      </trkpt>
      <trkpt lat="43.29473474062979221343994140625" lon="-7.0331018976867198944091796875">
        <ele>663.5999755859375</ele>
        <time>2019-07-09T17:15:38.000Z</time>
      </trkpt>
      <trkpt lat="43.29459325410425662994384765625" lon="-7.0329644344747066497802734375">
        <ele>662.20001220703125</ele>
        <time>2019-07-09T17:15:39.000Z</time>
      </trkpt>
      <trkpt lat="43.29444355331361293792724609375" lon="-7.03285672701895236968994140625">
        <ele>660.5999755859375</ele>
        <time>2019-07-09T17:15:40.000Z</time>
      </trkpt>
      <trkpt lat="43.29428739845752716064453125" lon="-7.03278514556586742401123046875">
        <ele>658.79998779296875</ele>
        <time>2019-07-09T17:15:41.000Z</time>
      </trkpt>
      <trkpt lat="43.29412856139242649078369140625" lon="-7.03274977393448352813720703125">
        <ele>657.4000244140625</ele>
        <time>2019-07-09T17:15:42.000Z</time>
      </trkpt>
      <trkpt lat="43.29397114925086498260498046875" lon="-7.0327426493167877197265625">
        <ele>656</ele>
        <time>2019-07-09T17:15:43.000Z</time>
      </trkpt>
      <trkpt lat="43.2938141562044620513916015625" lon="-7.03276477754116058349609375">
        <ele>655</ele>
        <time>2019-07-09T17:15:44.000Z</time>
      </trkpt>
      <trkpt lat="43.29350243322551250457763671875" lon="-7.0329164899885654449462890625">
        <ele>653.5999755859375</ele>
        <time>2019-07-09T17:15:46.000Z</time>
      </trkpt>
      <trkpt lat="43.2932052947580814361572265625" lon="-7.03314271755516529083251953125">
        <ele>652</ele>
        <time>2019-07-09T17:15:48.000Z</time>
      </trkpt>
      <trkpt lat="43.29289541579782962799072265625" lon="-7.033322341740131378173828125">
        <ele>650.5999755859375</ele>
        <time>2019-07-09T17:15:50.000Z</time>
      </trkpt>
      <trkpt lat="43.292733393609523773193359375" lon="-7.03336919657886028289794921875">
        <ele>649.4000244140625</ele>
        <time>2019-07-09T17:15:51.000Z</time>
      </trkpt>
      <trkpt lat="43.292573131620883941650390625" lon="-7.033373974263668060302734375">
        <ele>648</ele>
        <time>2019-07-09T17:15:52.000Z</time>
      </trkpt>
      <trkpt lat="43.29242485575377941131591796875" lon="-7.033337764441967010498046875">
        <ele>646.5999755859375</ele>
        <time>2019-07-09T17:15:53.000Z</time>
      </trkpt>
      <trkpt lat="43.292289488017559051513671875" lon="-7.03326224349439144134521484375">
        <ele>645.5999755859375</ele>
        <time>2019-07-09T17:15:54.000Z</time>
      </trkpt>
      <trkpt lat="43.29216652549803256988525390625" lon="-7.033150680363178253173828125">
        <ele>644.79998779296875</ele>
        <time>2019-07-09T17:15:55.000Z</time>
      </trkpt>
      <trkpt lat="43.292055465281009674072265625" lon="-7.03300357796251773834228515625">
        <ele>643.79998779296875</ele>
        <time>2019-07-09T17:15:56.000Z</time>
      </trkpt>
      <trkpt lat="43.291955888271331787109375" lon="-7.03282722271978855133056640625">
        <ele>642.5999755859375</ele>
        <time>2019-07-09T17:15:57.000Z</time>
      </trkpt>
      <trkpt lat="43.2918660342693328857421875" lon="-7.0326395519077777862548828125">
        <ele>641.4000244140625</ele>
        <time>2019-07-09T17:15:58.000Z</time>
      </trkpt>
      <trkpt lat="43.29177676700055599212646484375" lon="-7.032459340989589691162109375">
        <ele>640.4000244140625</ele>
        <time>2019-07-09T17:15:59.000Z</time>
      </trkpt>
      <trkpt lat="43.29167584888637065887451171875" lon="-7.03230570070445537567138671875">
        <ele>639.5999755859375</ele>
        <time>2019-07-09T17:16:00.000Z</time>
      </trkpt>
      <trkpt lat="43.29156252555549144744873046875" lon="-7.0321872644126415252685546875">
        <ele>638.79998779296875</ele>
        <time>2019-07-09T17:16:01.000Z</time>
      </trkpt>
      <trkpt lat="43.29144182614982128143310546875" lon="-7.03210654668509960174560546875">
        <ele>637.79998779296875</ele>
        <time>2019-07-09T17:16:02.000Z</time>
      </trkpt>
      <trkpt lat="43.2913146726787090301513671875" lon="-7.03206547535955905914306640625">
        <ele>637</ele>
        <time>2019-07-09T17:16:03.000Z</time>
      </trkpt>
      <trkpt lat="43.29118072986602783203125" lon="-7.0320699177682399749755859375">
        <ele>635.79998779296875</ele>
        <time>2019-07-09T17:16:04.000Z</time>
      </trkpt>
      <trkpt lat="43.29104997217655181884765625" lon="-7.0321158505976200103759765625">
        <ele>634.79998779296875</ele>
        <time>2019-07-09T17:16:05.000Z</time>
      </trkpt>
      <trkpt lat="43.2909291051328182220458984375" lon="-7.03220562078058719635009765625">
        <ele>634</ele>
        <time>2019-07-09T17:16:06.000Z</time>
      </trkpt>
      <trkpt lat="43.2908213138580322265625" lon="-7.03232757747173309326171875">
        <ele>633.4000244140625</ele>
        <time>2019-07-09T17:16:07.000Z</time>
      </trkpt>
      <trkpt lat="43.29072215594351291656494140625" lon="-7.03248423524200916290283203125">
        <ele>632.79998779296875</ele>
        <time>2019-07-09T17:16:08.000Z</time>
      </trkpt>
      <trkpt lat="43.290628530085086822509765625" lon="-7.0326563157141208648681640625">
        <ele>632.20001220703125</ele>
        <time>2019-07-09T17:16:09.000Z</time>
      </trkpt>
      <trkpt lat="43.290530629456043243408203125" lon="-7.03281884081661701202392578125">
        <ele>631.20001220703125</ele>
        <time>2019-07-09T17:16:10.000Z</time>
      </trkpt>
      <trkpt lat="43.29042342491447925567626953125" lon="-7.032955549657344818115234375">
        <ele>630.20001220703125</ele>
        <time>2019-07-09T17:16:11.000Z</time>
      </trkpt>
      <trkpt lat="43.290318064391613006591796875" lon="-7.0330542884767055511474609375">
        <ele>629.4000244140625</ele>
        <time>2019-07-09T17:16:12.000Z</time>
      </trkpt>
      <trkpt lat="43.290209434926509857177734375" lon="-7.03311019577085971832275390625">
        <ele>628.5999755859375</ele>
        <time>2019-07-09T17:16:13.000Z</time>
      </trkpt>
      <trkpt lat="43.290090747177600860595703125" lon="-7.03312008641660213470458984375">
        <ele>627.79998779296875</ele>
        <time>2019-07-09T17:16:14.000Z</time>
      </trkpt>
      <trkpt lat="43.28996476717293262481689453125" lon="-7.03308555297553539276123046875">
        <ele>626.79998779296875</ele>
        <time>2019-07-09T17:16:15.000Z</time>
      </trkpt>
      <trkpt lat="43.2898340933024883270263671875" lon="-7.03301346860826015472412109375">
        <ele>625.79998779296875</ele>
        <time>2019-07-09T17:16:16.000Z</time>
      </trkpt>
      <trkpt lat="43.2896983064711093902587890625" lon="-7.0329124666750431060791015625">
        <ele>624.5999755859375</ele>
        <time>2019-07-09T17:16:17.000Z</time>
      </trkpt>
      <trkpt lat="43.28924752771854400634765625" lon="-7.0325071178376674652099609375">
        <ele>623.79998779296875</ele>
        <time>2019-07-09T17:16:20.000Z</time>
      </trkpt>
      <trkpt lat="43.28893898986279964447021484375" lon="-7.03214979730546474456787109375">
        <ele>623.5999755859375</ele>
        <time>2019-07-09T17:16:22.000Z</time>
      </trkpt>
      <trkpt lat="43.28854453749954700469970703125" lon="-7.03150455839931964874267578125">
        <ele>623.4000244140625</ele>
        <time>2019-07-09T17:16:25.000Z</time>
      </trkpt>
      <trkpt lat="43.2883069105446338653564453125" lon="-7.031091749668121337890625">
        <ele>622.20001220703125</ele>
        <time>2019-07-09T17:16:27.000Z</time>
      </trkpt>
      <trkpt lat="43.2881815172731876373291015625" lon="-7.03090759925544261932373046875">
        <ele>620.5999755859375</ele>
        <time>2019-07-09T17:16:28.000Z</time>
      </trkpt>
      <trkpt lat="43.28805034048855304718017578125" lon="-7.0307435654103755950927734375">
        <ele>619</ele>
        <time>2019-07-09T17:16:29.000Z</time>
      </trkpt>
      <trkpt lat="43.28791857697069644927978515625" lon="-7.0305960439145565032958984375">
        <ele>617.5999755859375</ele>
        <time>2019-07-09T17:16:30.000Z</time>
      </trkpt>
      <trkpt lat="43.2876554690301418304443359375" lon="-7.03033980913460254669189453125">
        <ele>615.79998779296875</ele>
        <time>2019-07-09T17:16:32.000Z</time>
      </trkpt>
      <trkpt lat="43.2875163294374942779541015625" lon="-7.030233778059482574462890625">
        <ele>614.79998779296875</ele>
        <time>2019-07-09T17:16:33.000Z</time>
      </trkpt>
      <trkpt lat="43.28736034221947193145751953125" lon="-7.0301420800387859344482421875">
        <ele>613.20001220703125</ele>
        <time>2019-07-09T17:16:34.000Z</time>
      </trkpt>
      <trkpt lat="43.28718935139477252960205078125" lon="-7.03006320632994174957275390625">
        <ele>611.5999755859375</ele>
        <time>2019-07-09T17:16:35.000Z</time>
      </trkpt>
      <trkpt lat="43.28700914047658443450927734375" lon="-7.029998414218425750732421875">
        <ele>610.4000244140625</ele>
        <time>2019-07-09T17:16:36.000Z</time>
      </trkpt>
      <trkpt lat="43.2866529934108257293701171875" lon="-7.02992968261241912841796875">
        <ele>609</ele>
        <time>2019-07-09T17:16:38.000Z</time>
      </trkpt>
      <trkpt lat="43.2862952537834644317626953125" lon="-7.02992205508053302764892578125">
        <ele>606.79998779296875</ele>
        <time>2019-07-09T17:16:40.000Z</time>
      </trkpt>
      <trkpt lat="43.28611395321786403656005859375" lon="-7.029919959604740142822265625">
        <ele>605.4000244140625</ele>
        <time>2019-07-09T17:16:41.000Z</time>
      </trkpt>
      <trkpt lat="43.28593173064291477203369140625" lon="-7.02991099096834659576416015625">
        <ele>604</ele>
        <time>2019-07-09T17:16:42.000Z</time>
      </trkpt>
      <trkpt lat="43.2857480831444263458251953125" lon="-7.0298902876675128936767578125">
        <ele>602.5999755859375</ele>
        <time>2019-07-09T17:16:43.000Z</time>
      </trkpt>
      <trkpt lat="43.28556443564593791961669921875" lon="-7.02985818497836589813232421875">
        <ele>601.4000244140625</ele>
        <time>2019-07-09T17:16:44.000Z</time>
      </trkpt>
      <trkpt lat="43.2852069474756717681884765625" lon="-7.02979582361876964569091796875">
        <ele>599.79998779296875</ele>
        <time>2019-07-09T17:16:46.000Z</time>
      </trkpt>
      <trkpt lat="43.28485834412276744842529296875" lon="-7.0297692529857158660888671875">
        <ele>598</ele>
        <time>2019-07-09T17:16:48.000Z</time>
      </trkpt>
      <trkpt lat="43.284509740769863128662109375" lon="-7.02971938066184520721435546875">
        <ele>596.4000244140625</ele>
        <time>2019-07-09T17:16:50.000Z</time>
      </trkpt>
      <trkpt lat="43.28416365198791027069091796875" lon="-7.0295654051005840301513671875">
        <ele>595.20001220703125</ele>
        <time>2019-07-09T17:16:52.000Z</time>
      </trkpt>
      <trkpt lat="43.2840016297996044158935546875" lon="-7.02944009564816951751708984375">
        <ele>594.20001220703125</ele>
        <time>2019-07-09T17:16:53.000Z</time>
      </trkpt>
      <trkpt lat="43.2838443852961063385009765625" lon="-7.0292881317436695098876953125">
        <ele>592.79998779296875</ele>
        <time>2019-07-09T17:16:54.000Z</time>
      </trkpt>
      <trkpt lat="43.2836837880313396453857421875" lon="-7.02912636101245880126953125">
        <ele>591.4000244140625</ele>
        <time>2019-07-09T17:16:55.000Z</time>
      </trkpt>
      <trkpt lat="43.2835131324827671051025390625" lon="-7.0289706252515316009521484375">
        <ele>590</ele>
        <time>2019-07-09T17:16:56.000Z</time>
      </trkpt>
      <trkpt lat="43.28333267010748386383056640625" lon="-7.02883022837340831756591796875">
        <ele>588.79998779296875</ele>
        <time>2019-07-09T17:16:57.000Z</time>
      </trkpt>
      <trkpt lat="43.28314675949513912200927734375" lon="-7.0287081040441989898681640625">
        <ele>587.5999755859375</ele>
        <time>2019-07-09T17:16:58.000Z</time>
      </trkpt>
      <trkpt lat="43.282954730093479156494140625" lon="-7.02860844321548938751220703125">
        <ele>586.5999755859375</ele>
        <time>2019-07-09T17:16:59.000Z</time>
      </trkpt>
      <trkpt lat="43.28275867737829685211181640625" lon="-7.0285404659807682037353515625">
        <ele>585.5999755859375</ele>
        <time>2019-07-09T17:17:00.000Z</time>
      </trkpt>
      <trkpt lat="43.28256304375827312469482421875" lon="-7.028509117662906646728515625">
        <ele>584.5999755859375</ele>
        <time>2019-07-09T17:17:01.000Z</time>
      </trkpt>
      <trkpt lat="43.28236606903374195098876953125" lon="-7.02851221896708011627197265625">
        <ele>583.4000244140625</ele>
        <time>2019-07-09T17:17:02.000Z</time>
      </trkpt>
      <trkpt lat="43.282165825366973876953125" lon="-7.0285491831600666046142578125">
        <ele>582.4000244140625</ele>
        <time>2019-07-09T17:17:03.000Z</time>
      </trkpt>
      <trkpt lat="43.28196491114795207977294921875" lon="-7.02861900441348552703857421875">
        <ele>581.4000244140625</ele>
        <time>2019-07-09T17:17:04.000Z</time>
      </trkpt>
      <trkpt lat="43.28176776878535747528076171875" lon="-7.02871958725154399871826171875">
        <ele>580.4000244140625</ele>
        <time>2019-07-09T17:17:05.000Z</time>
      </trkpt>
      <trkpt lat="43.28139276243746280670166015625" lon="-7.0289541967213153839111328125">
        <ele>578.79998779296875</ele>
        <time>2019-07-09T17:17:07.000Z</time>
      </trkpt>
      <trkpt lat="43.28104558400809764862060546875" lon="-7.0291751436889171600341796875">
        <ele>577.4000244140625</ele>
        <time>2019-07-09T17:17:09.000Z</time>
      </trkpt>
      <trkpt lat="43.28073411248624324798583984375" lon="-7.02938175760209560394287109375">
        <ele>575.4000244140625</ele>
        <time>2019-07-09T17:17:11.000Z</time>
      </trkpt>
      <trkpt lat="43.28061274252831935882568359375" lon="-7.029488123953342437744140625">
        <ele>574.4000244140625</ele>
        <time>2019-07-09T17:17:12.000Z</time>
      </trkpt>
      <trkpt lat="43.28051693737506866455078125" lon="-7.0296042971312999725341796875">
        <ele>573.20001220703125</ele>
        <time>2019-07-09T17:17:13.000Z</time>
      </trkpt>
      <trkpt lat="43.28044694848358631134033203125" lon="-7.02974268235266208648681640625">
        <ele>572</ele>
        <time>2019-07-09T17:17:14.000Z</time>
      </trkpt>
      <trkpt lat="43.280395232141017913818359375" lon="-7.0299107395112514495849609375">
        <ele>570.79998779296875</ele>
        <time>2019-07-09T17:17:15.000Z</time>
      </trkpt>
      <trkpt lat="43.28031443059444427490234375" lon="-7.0302999950945377349853515625">
        <ele>569.79998779296875</ele>
        <time>2019-07-09T17:17:17.000Z</time>
      </trkpt>
      <trkpt lat="43.28016732819378376007080078125" lon="-7.030603252351284027099609375">
        <ele>570</ele>
        <time>2019-07-09T17:17:19.000Z</time>
      </trkpt>
      <trkpt lat="43.279931545257568359375" lon="-7.0307415537536144256591796875">
        <ele>570.79998779296875</ele>
        <time>2019-07-09T17:17:21.000Z</time>
      </trkpt>
      <trkpt lat="43.27944346703588962554931640625" lon="-7.03076519072055816650390625">
        <ele>572.4000244140625</ele>
        <time>2019-07-09T17:17:24.000Z</time>
      </trkpt>
      <trkpt lat="43.2790616713464260101318359375" lon="-7.030836604535579681396484375">
        <ele>574.5999755859375</ele>
        <time>2019-07-09T17:17:26.000Z</time>
      </trkpt>
      <trkpt lat="43.27886335551738739013671875" lon="-7.030896283686161041259765625">
        <ele>576.20001220703125</ele>
        <time>2019-07-09T17:17:27.000Z</time>
      </trkpt>
      <trkpt lat="43.278657495975494384765625" lon="-7.03095705248415470123291015625">
        <ele>578.20001220703125</ele>
        <time>2019-07-09T17:17:28.000Z</time>
      </trkpt>
      <trkpt lat="43.27844652347266674041748046875" lon="-7.03101639635860919952392578125">
        <ele>580.20001220703125</ele>
        <time>2019-07-09T17:17:29.000Z</time>
      </trkpt>
      <trkpt lat="43.278236053884029388427734375" lon="-7.03107557259500026702880859375">
        <ele>582</ele>
        <time>2019-07-09T17:17:30.000Z</time>
      </trkpt>
      <trkpt lat="43.27802927233278751373291015625" lon="-7.03113474883139133453369140625">
        <ele>583.20001220703125</ele>
        <time>2019-07-09T17:17:31.000Z</time>
      </trkpt>
      <trkpt lat="43.27783011831343173980712890625" lon="-7.031196020543575286865234375">
        <ele>584.5999755859375</ele>
        <time>2019-07-09T17:17:32.000Z</time>
      </trkpt>
      <trkpt lat="43.27764429152011871337890625" lon="-7.03126483596861362457275390625">
        <ele>585.79998779296875</ele>
        <time>2019-07-09T17:17:33.000Z</time>
      </trkpt>
      <trkpt lat="43.27747665345668792724609375" lon="-7.03134949319064617156982421875">
        <ele>587.4000244140625</ele>
        <time>2019-07-09T17:17:34.000Z</time>
      </trkpt>
      <trkpt lat="43.27733240090310573577880859375" lon="-7.0314530096948146820068359375">
        <ele>588.4000244140625</ele>
        <time>2019-07-09T17:17:35.000Z</time>
      </trkpt>
      <trkpt lat="43.2772065885365009307861328125" lon="-7.03158217482268810272216796875">
        <ele>589.20001220703125</ele>
        <time>2019-07-09T17:17:36.000Z</time>
      </trkpt>
      <trkpt lat="43.27709452249109745025634765625" lon="-7.03173673711717128753662109375">
        <ele>589.79998779296875</ele>
        <time>2019-07-09T17:17:37.000Z</time>
      </trkpt>
      <trkpt lat="43.2770054228603839874267578125" lon="-7.03190253116190433502197265625">
        <ele>590.4000244140625</ele>
        <time>2019-07-09T17:17:38.000Z</time>
      </trkpt>
      <trkpt lat="43.2769413851201534271240234375" lon="-7.03209011815488338470458984375">
        <ele>591</ele>
        <time>2019-07-09T17:17:39.000Z</time>
      </trkpt>
      <trkpt lat="43.27689989469945430755615234375" lon="-7.0322878472506999969482421875">
        <ele>591.79998779296875</ele>
        <time>2019-07-09T17:17:40.000Z</time>
      </trkpt>
      <trkpt lat="43.27687893994152545928955078125" lon="-7.032494880259037017822265625">
        <ele>592.79998779296875</ele>
        <time>2019-07-09T17:17:41.000Z</time>
      </trkpt>
      <trkpt lat="43.27687357552349567413330078125" lon="-7.03270099125802516937255859375">
        <ele>593.5999755859375</ele>
        <time>2019-07-09T17:17:42.000Z</time>
      </trkpt>
      <trkpt lat="43.27688078396022319793701171875" lon="-7.03290022909641265869140625">
        <ele>594</ele>
        <time>2019-07-09T17:17:43.000Z</time>
      </trkpt>
      <trkpt lat="43.276896290481090545654296875" lon="-7.0332464016973972320556640625">
        <ele>595.5999755859375</ele>
        <time>2019-07-09T17:17:45.000Z</time>
      </trkpt>
      <trkpt lat="43.27688732184469699859619140625" lon="-7.033404819667339324951171875">
        <ele>596.5999755859375</ele>
        <time>2019-07-09T17:17:46.000Z</time>
      </trkpt>
      <trkpt lat="43.2768629305064678192138671875" lon="-7.033567763864994049072265625">
        <ele>597.4000244140625</ele>
        <time>2019-07-09T17:17:47.000Z</time>
      </trkpt>
      <trkpt lat="43.2767978869378566741943359375" lon="-7.03371939249336719512939453125">
        <ele>598</ele>
        <time>2019-07-09T17:17:48.000Z</time>
      </trkpt>
      <trkpt lat="43.2767120562493801116943359375" lon="-7.0338477194309234619140625">
        <ele>598.4000244140625</ele>
        <time>2019-07-09T17:17:49.000Z</time>
      </trkpt>
      <trkpt lat="43.27660552226006984710693359375" lon="-7.03395031392574310302734375">
        <ele>598.79998779296875</ele>
        <time>2019-07-09T17:17:50.000Z</time>
      </trkpt>
      <trkpt lat="43.276353813707828521728515625" lon="-7.03404477797448635101318359375">
        <ele>599.4000244140625</ele>
        <time>2019-07-09T17:17:52.000Z</time>
      </trkpt>
      <trkpt lat="43.276218362152576446533203125" lon="-7.034025080502033233642578125">
        <ele>599.79998779296875</ele>
        <time>2019-07-09T17:17:53.000Z</time>
      </trkpt>
      <trkpt lat="43.276085592806339263916015625" lon="-7.0339608751237392425537109375">
        <ele>600.4000244140625</ele>
        <time>2019-07-09T17:17:54.000Z</time>
      </trkpt>
      <trkpt lat="43.27596388757228851318359375" lon="-7.03386054374277591705322265625">
        <ele>601</ele>
        <time>2019-07-09T17:17:55.000Z</time>
      </trkpt>
      <trkpt lat="43.27586741186678409576416015625" lon="-7.03372375108301639556884765625">
        <ele>602</ele>
        <time>2019-07-09T17:17:56.000Z</time>
      </trkpt>
      <trkpt lat="43.275801278650760650634765625" lon="-7.03355158679187297821044921875">
        <ele>602.79998779296875</ele>
        <time>2019-07-09T17:17:57.000Z</time>
      </trkpt>
      <trkpt lat="43.27575660310685634613037109375" lon="-7.033354528248310089111328125">
        <ele>603.4000244140625</ele>
        <time>2019-07-09T17:17:58.000Z</time>
      </trkpt>
      <trkpt lat="43.2757209800183773040771484375" lon="-7.033138610422611236572265625">
        <ele>604</ele>
        <time>2019-07-09T17:17:59.000Z</time>
      </trkpt>
      <trkpt lat="43.2756770588457584381103515625" lon="-7.03292260877788066864013671875">
        <ele>605</ele>
        <time>2019-07-09T17:18:00.000Z</time>
      </trkpt>
      <trkpt lat="43.275618888437747955322265625" lon="-7.032732255756855010986328125">
        <ele>605.79998779296875</ele>
        <time>2019-07-09T17:18:01.000Z</time>
      </trkpt>
      <trkpt lat="43.27554822899401187896728515625" lon="-7.03257610090076923370361328125">
        <ele>606.79998779296875</ele>
        <time>2019-07-09T17:18:02.000Z</time>
      </trkpt>
      <trkpt lat="43.27545451931655406951904296875" lon="-7.03245506621897220611572265625">
        <ele>607.4000244140625</ele>
        <time>2019-07-09T17:18:03.000Z</time>
      </trkpt>
      <trkpt lat="43.27534161508083343505859375" lon="-7.0323751866817474365234375">
        <ele>608</ele>
        <time>2019-07-09T17:18:04.000Z</time>
      </trkpt>
      <trkpt lat="43.27521529980003833770751953125" lon="-7.03233889304101467132568359375">
        <ele>608.4000244140625</ele>
        <time>2019-07-09T17:18:05.000Z</time>
      </trkpt>
      <trkpt lat="43.27507917769253253936767578125" lon="-7.03234970569610595703125">
        <ele>609</ele>
        <time>2019-07-09T17:18:06.000Z</time>
      </trkpt>
      <trkpt lat="43.27493282966315746307373046875" lon="-7.0324020087718963623046875">
        <ele>609.79998779296875</ele>
        <time>2019-07-09T17:18:07.000Z</time>
      </trkpt>
      <trkpt lat="43.2746537961065769195556640625" lon="-7.03254022635519504547119140625">
        <ele>611.79998779296875</ele>
        <time>2019-07-09T17:18:09.000Z</time>
      </trkpt>
      <trkpt lat="43.27453234232962131500244140625" lon="-7.03257911838591098785400390625">
        <ele>612.79998779296875</ele>
        <time>2019-07-09T17:18:10.000Z</time>
      </trkpt>
      <trkpt lat="43.27442287467420101165771484375" lon="-7.03257626853883266448974609375">
        <ele>614</ele>
        <time>2019-07-09T17:18:11.000Z</time>
      </trkpt>
      <trkpt lat="43.2743235491216182708740234375" lon="-7.03252899460494518280029296875">
        <ele>615</ele>
        <time>2019-07-09T17:18:12.000Z</time>
      </trkpt>
      <trkpt lat="43.2741730101406574249267578125" lon="-7.032327242195606231689453125">
        <ele>616.4000244140625</ele>
        <time>2019-07-09T17:18:14.000Z</time>
      </trkpt>
      <trkpt lat="43.27409899793565273284912109375" lon="-7.032052315771579742431640625">
        <ele>617.4000244140625</ele>
        <time>2019-07-09T17:18:16.000Z</time>
      </trkpt>
      <trkpt lat="43.2740539871156215667724609375" lon="-7.03177906572818756103515625">
        <ele>618.79998779296875</ele>
        <time>2019-07-09T17:18:18.000Z</time>
      </trkpt>
      <trkpt lat="43.2740144245326519012451171875" lon="-7.0315482281148433685302734375">
        <ele>620</ele>
        <time>2019-07-09T17:18:20.000Z</time>
      </trkpt>
      <trkpt lat="43.27394426800310611724853515625" lon="-7.03128528781235218048095703125">
        <ele>621.4000244140625</ele>
        <time>2019-07-09T17:18:23.000Z</time>
      </trkpt>
      <trkpt lat="43.2739121653139591217041015625" lon="-7.03121840022504329681396484375">
        <ele>621.5999755859375</ele>
        <time>2019-07-09T17:18:24.000Z</time>
      </trkpt>
      <trkpt lat="43.2738174498081207275390625" lon="-7.031172551214694976806640625">
        <ele>622</ele>
        <time>2019-07-09T17:18:26.000Z</time>
      </trkpt>
      <trkpt lat="43.27374729327857494354248046875" lon="-7.031251676380634307861328125">
        <ele>622.5999755859375</ele>
        <time>2019-07-09T17:18:28.000Z</time>
      </trkpt>
      <trkpt lat="43.2737405039370059967041015625" lon="-7.0313983596861362457275390625">
        <ele>623.5999755859375</ele>
        <time>2019-07-09T17:18:30.000Z</time>
      </trkpt>
      <trkpt lat="43.27375081367790699005126953125" lon="-7.03149332664906978607177734375">
        <ele>624</ele>
        <time>2019-07-09T17:18:31.000Z</time>
      </trkpt>
      <trkpt lat="43.27377126552164554595947265625" lon="-7.03184905461966991424560546875">
        <ele>625</ele>
        <time>2019-07-09T17:18:34.000Z</time>
      </trkpt>
      <trkpt lat="43.27376187779009342193603515625" lon="-7.03207905404269695281982421875">
        <ele>626.20001220703125</ele>
        <time>2019-07-09T17:18:36.000Z</time>
      </trkpt>
      <trkpt lat="43.273732624948024749755859375" lon="-7.0323803834617137908935546875">
        <ele>627.20001220703125</ele>
        <time>2019-07-09T17:18:39.000Z</time>
      </trkpt>
      <trkpt lat="43.27372047118842601776123046875" lon="-7.03247635625302791595458984375">
        <ele>627.4000244140625</ele>
        <time>2019-07-09T17:18:40.000Z</time>
      </trkpt>
      <trkpt lat="43.27363698743283748626708984375" lon="-7.03275446780025959014892578125">
        <ele>628.20001220703125</ele>
        <time>2019-07-09T17:18:43.000Z</time>
      </trkpt>
      <trkpt lat="43.2735651545226573944091796875" lon="-7.032901905477046966552734375">
        <ele>629.5999755859375</ele>
        <time>2019-07-09T17:18:45.000Z</time>
      </trkpt>
      <trkpt lat="43.27349566854536533355712890625" lon="-7.0329919271171092987060546875">
        <ele>631.20001220703125</ele>
        <time>2019-07-09T17:18:47.000Z</time>
      </trkpt>
      <trkpt lat="43.273467756807804107666015625" lon="-7.0330060087144374847412109375">
        <ele>631.79998779296875</ele>
        <time>2019-07-09T17:18:48.000Z</time>
      </trkpt>
      <trkpt lat="43.27344135381281375885009765625" lon="-7.03300617635250091552734375">
        <ele>632.4000244140625</ele>
        <time>2019-07-09T17:18:49.000Z</time>
      </trkpt>
      <trkpt lat="43.27334680594503879547119140625" lon="-7.0330214314162731170654296875">
        <ele>633.4000244140625</ele>
        <time>2019-07-09T17:18:52.000Z</time>
      </trkpt>
      <trkpt lat="43.2730548642575740814208984375" lon="-7.03321681357920169830322265625">
        <ele>633.79998779296875</ele>
        <time>2019-07-09T17:19:02.000Z</time>
      </trkpt>
      <trkpt lat="43.27298688702285289764404296875" lon="-7.03310784883797168731689453125">
        <ele>633.20001220703125</ele>
        <time>2019-07-09T17:19:06.000Z</time>
      </trkpt>
      <trkpt lat="43.2729123719036579132080078125" lon="-7.03311170451343059539794921875">
        <ele>632.4000244140625</ele>
        <time>2019-07-09T17:19:09.000Z</time>
      </trkpt>
      <trkpt lat="43.27283450402319431304931640625" lon="-7.03319451771676540374755859375">
        <ele>631.4000244140625</ele>
        <time>2019-07-09T17:19:12.000Z</time>
      </trkpt>
      <trkpt lat="43.2727521099150180816650390625" lon="-7.03327531926333904266357421875">
        <ele>630.4000244140625</ele>
        <time>2019-07-09T17:19:15.000Z</time>
      </trkpt>
      <trkpt lat="43.27268421649932861328125" lon="-7.03330499120056629180908203125">
        <ele>629.20001220703125</ele>
        <time>2019-07-09T17:19:17.000Z</time>
      </trkpt>
      <trkpt lat="43.27261338941752910614013671875" lon="-7.03330063261091709136962890625">
        <ele>628.20001220703125</ele>
        <time>2019-07-09T17:19:19.000Z</time>
      </trkpt>
      <trkpt lat="43.27258036471903324127197265625" lon="-7.03330792486667633056640625">
        <ele>627.5999755859375</ele>
        <time>2019-07-09T17:19:20.000Z</time>
      </trkpt>
      <trkpt lat="43.27255270443856716156005859375" lon="-7.033321000635623931884765625">
        <ele>627</ele>
        <time>2019-07-09T17:19:21.000Z</time>
      </trkpt>
      <trkpt lat="43.27251448296010494232177734375" lon="-7.033343128859996795654296875">
        <ele>625.79998779296875</ele>
        <time>2019-07-09T17:19:23.000Z</time>
      </trkpt>
      <trkpt lat="43.2724758423864841461181640625" lon="-7.03336752019822597503662109375">
        <ele>624.5999755859375</ele>
        <time>2019-07-09T17:19:26.000Z</time>
      </trkpt>
      <trkpt lat="43.27244273386895656585693359375" lon="-7.03338143415749073028564453125">
        <ele>623.4000244140625</ele>
        <time>2019-07-09T17:19:30.000Z</time>
      </trkpt>
      <trkpt lat="43.2724265567958354949951171875" lon="-7.03345335088670253753662109375">
        <ele>622.79998779296875</ele>
        <time>2019-07-09T17:20:06.000Z</time>
      </trkpt>
      <trkpt lat="43.27242898754775524139404296875" lon="-7.03347128815948963165283203125">
        <ele>622.5999755859375</ele>
        <time>2019-07-09T17:20:22.000Z</time>
      </trkpt>
      <trkpt lat="43.276902325451374053955078125" lon="-7.03277684748172760009765625">
        <ele>594</ele>
        <time>2019-07-11T07:30:22.000Z</time>
      </trkpt>
      <trkpt lat="43.2768951170146465301513671875" lon="-7.03261935152113437652587890625">
        <ele>593</ele>
        <time>2019-07-11T07:30:23.000Z</time>
      </trkpt>
      <trkpt lat="43.27689704485237598419189453125" lon="-7.0324675552546977996826171875">
        <ele>590</ele>
        <time>2019-07-11T07:30:24.000Z</time>
      </trkpt>
      <trkpt lat="43.2769091986119747161865234375" lon="-7.0323153398931026458740234375">
        <ele>592</ele>
        <time>2019-07-11T07:30:25.000Z</time>
      </trkpt>
      <trkpt lat="43.27693509869277477264404296875" lon="-7.03216304071247577667236328125">
        <ele>587.79998779296875</ele>
        <time>2019-07-11T07:30:26.000Z</time>
      </trkpt>
      <trkpt lat="43.27702126465737819671630859375" lon="-7.0318499766290187835693359375">
        <ele>588</ele>
        <time>2019-07-11T07:30:28.000Z</time>
      </trkpt>
      <trkpt lat="43.27717415057122707366943359375" lon="-7.0315542630851268768310546875">
        <ele>586</ele>
        <time>2019-07-11T07:30:30.000Z</time>
      </trkpt>
      <trkpt lat="43.277278505265712738037109375" lon="-7.031421326100826263427734375">
        <ele>585</ele>
        <time>2019-07-11T07:30:31.000Z</time>
      </trkpt>
      <trkpt lat="43.277397193014621734619140625" lon="-7.03130758367478847503662109375">
        <ele>584.4000244140625</ele>
        <time>2019-07-11T07:30:32.000Z</time>
      </trkpt>
      <trkpt lat="43.27752686105668544769287109375" lon="-7.03121789731085300445556640625">
        <ele>583.79998779296875</ele>
        <time>2019-07-11T07:30:33.000Z</time>
      </trkpt>
      <trkpt lat="43.2776696048676967620849609375" lon="-7.03115151263773441314697265625">
        <ele>583</ele>
        <time>2019-07-11T07:30:34.000Z</time>
      </trkpt>
      <trkpt lat="43.27782374806702136993408203125" lon="-7.03110323287546634674072265625">
        <ele>582</ele>
        <time>2019-07-11T07:30:35.000Z</time>
      </trkpt>
      <trkpt lat="43.27798065729439258575439453125" lon="-7.03106182627379894256591796875">
        <ele>580.79998779296875</ele>
        <time>2019-07-11T07:30:36.000Z</time>
      </trkpt>
      <trkpt lat="43.2781420089304447174072265625" lon="-7.03101756982505321502685546875">
        <ele>579.5999755859375</ele>
        <time>2019-07-11T07:30:37.000Z</time>
      </trkpt>
      <trkpt lat="43.27830101363360881805419921875" lon="-7.03096828423440456390380859375">
        <ele>578.4000244140625</ele>
        <time>2019-07-11T07:30:38.000Z</time>
      </trkpt>
      <trkpt lat="43.278602175414562225341796875" lon="-7.0308827050030231475830078125">
        <ele>576.4000244140625</ele>
        <time>2019-07-11T07:30:40.000Z</time>
      </trkpt>
      <trkpt lat="43.2787461765110492706298828125" lon="-7.03085009939968585968017578125">
        <ele>575.20001220703125</ele>
        <time>2019-07-11T07:30:41.000Z</time>
      </trkpt>
      <trkpt lat="43.27888187952339649200439453125" lon="-7.030814476311206817626953125">
        <ele>574</ele>
        <time>2019-07-11T07:30:42.000Z</time>
      </trkpt>
      <trkpt lat="43.2791471667587757110595703125" lon="-7.03074633143842220306396484375">
        <ele>572.79998779296875</ele>
        <time>2019-07-11T07:30:44.000Z</time>
      </trkpt>
      <trkpt lat="43.2794137112796306610107421875" lon="-7.0307068526744842529296875">
        <ele>571.5999755859375</ele>
        <time>2019-07-11T07:30:46.000Z</time>
      </trkpt>
      <trkpt lat="43.27968888916075229644775390625" lon="-7.030709199607372283935546875">
        <ele>569.79998779296875</ele>
        <time>2019-07-11T07:30:48.000Z</time>
      </trkpt>
      <trkpt lat="43.2799588702619075775146484375" lon="-7.0306949503719806671142578125">
        <ele>568.20001220703125</ele>
        <time>2019-07-11T07:30:50.000Z</time>
      </trkpt>
      <trkpt lat="43.280179314315319061279296875" lon="-7.03059277497231960296630859375">
        <ele>567</ele>
        <time>2019-07-11T07:30:52.000Z</time>
      </trkpt>
      <trkpt lat="43.28034183941781520843505859375" lon="-7.03037903644144535064697265625">
        <ele>565</ele>
        <time>2019-07-11T07:30:54.000Z</time>
      </trkpt>
      <trkpt lat="43.280400596559047698974609375" lon="-7.03002029098570346832275390625">
        <ele>563.79998779296875</ele>
        <time>2019-07-11T07:30:56.000Z</time>
      </trkpt>
      <trkpt lat="43.280428759753704071044921875" lon="-7.02983438037335872650146484375">
        <ele>563.20001220703125</ele>
        <time>2019-07-11T07:30:57.000Z</time>
      </trkpt>
      <trkpt lat="43.2804852537810802459716796875" lon="-7.02966204844415187835693359375">
        <ele>562.5999755859375</ele>
        <time>2019-07-11T07:30:58.000Z</time>
      </trkpt>
      <trkpt lat="43.28056898899376392364501953125" lon="-7.02951570041477680206298828125">
        <ele>562</ele>
        <time>2019-07-11T07:30:59.000Z</time>
      </trkpt>
      <trkpt lat="43.280811309814453125" lon="-7.02930682338774204254150390625">
        <ele>561.79998779296875</ele>
        <time>2019-07-11T07:31:01.000Z</time>
      </trkpt>
      <trkpt lat="43.2812527008354663848876953125" lon="-7.02907062135636806488037109375">
        <ele>562.20001220703125</ele>
        <time>2019-07-11T07:31:04.000Z</time>
      </trkpt>
      <trkpt lat="43.28168445266783237457275390625" lon="-7.02880290336906909942626953125">
        <ele>561.5999755859375</ele>
        <time>2019-07-11T07:31:07.000Z</time>
      </trkpt>
      <trkpt lat="43.2818226702511310577392578125" lon="-7.0287174917757511138916015625">
        <ele>561.4000244140625</ele>
        <time>2019-07-11T07:31:08.000Z</time>
      </trkpt>
      <trkpt lat="43.2822481356561183929443359375" lon="-7.028527893126010894775390625">
        <ele>562.4000244140625</ele>
        <time>2019-07-11T07:31:11.000Z</time>
      </trkpt>
      <trkpt lat="43.28239641152322292327880859375" lon="-7.02849579043686389923095703125">
        <ele>563.5999755859375</ele>
        <time>2019-07-11T07:31:12.000Z</time>
      </trkpt>
      <trkpt lat="43.2825448550283908843994140625" lon="-7.028484977781772613525390625">
        <ele>564.5999755859375</ele>
        <time>2019-07-11T07:31:13.000Z</time>
      </trkpt>
      <trkpt lat="43.28283964656293392181396484375" lon="-7.0285166613757610321044921875">
        <ele>566.4000244140625</ele>
        <time>2019-07-11T07:31:15.000Z</time>
      </trkpt>
      <trkpt lat="43.2829870842397212982177734375" lon="-7.028560079634189605712890625">
        <ele>567.4000244140625</ele>
        <time>2019-07-11T07:31:16.000Z</time>
      </trkpt>
      <trkpt lat="43.283133096992969512939453125" lon="-7.0286222733557224273681640625">
        <ele>570.20001220703125</ele>
        <time>2019-07-11T07:31:17.000Z</time>
      </trkpt>
      <trkpt lat="43.28327449969947338104248046875" lon="-7.028703577816486358642578125">
        <ele>571.5999755859375</ele>
        <time>2019-07-11T07:31:18.000Z</time>
      </trkpt>
      <trkpt lat="43.28341095708310604095458984375" lon="-7.02879955060780048370361328125">
        <ele>572.79998779296875</ele>
        <time>2019-07-11T07:31:19.000Z</time>
      </trkpt>
      <trkpt lat="43.28367481939494609832763671875" lon="-7.029018737375736236572265625">
        <ele>574.5999755859375</ele>
        <time>2019-07-11T07:31:21.000Z</time>
      </trkpt>
      <trkpt lat="43.28404630534350872039794921875" lon="-7.02940388582646846771240234375">
        <ele>574.5999755859375</ele>
        <time>2019-07-11T07:31:24.000Z</time>
      </trkpt>
      <trkpt lat="43.2841746322810649871826171875" lon="-7.0295281894505023956298828125">
        <ele>576</ele>
        <time>2019-07-11T07:31:25.000Z</time>
      </trkpt>
      <trkpt lat="43.28445601277053356170654296875" lon="-7.02970035374164581298828125">
        <ele>577.79998779296875</ele>
        <time>2019-07-11T07:31:27.000Z</time>
      </trkpt>
      <trkpt lat="43.28476312570273876190185546875" lon="-7.0297689177095890045166015625">
        <ele>580.5999755859375</ele>
        <time>2019-07-11T07:31:29.000Z</time>
      </trkpt>
      <trkpt lat="43.2849216274917125701904296875" lon="-7.0297801494598388671875">
        <ele>583.79998779296875</ele>
        <time>2019-07-11T07:31:30.000Z</time>
      </trkpt>
      <trkpt lat="43.28508079983294010162353515625" lon="-7.0297890342772006988525390625">
        <ele>587.5999755859375</ele>
        <time>2019-07-11T07:31:31.000Z</time>
      </trkpt>
      <trkpt lat="43.28524005599319934844970703125" lon="-7.0298031158745288848876953125">
        <ele>589.4000244140625</ele>
        <time>2019-07-11T07:31:32.000Z</time>
      </trkpt>
      <trkpt lat="43.28539780341088771820068359375" lon="-7.02983203344047069549560546875">
        <ele>590.5999755859375</ele>
        <time>2019-07-11T07:31:33.000Z</time>
      </trkpt>
      <trkpt lat="43.285872973501682281494140625" lon="-7.02993965707719326019287109375">
        <ele>591.5999755859375</ele>
        <time>2019-07-11T07:31:36.000Z</time>
      </trkpt>
      <trkpt lat="43.28637354075908660888671875" lon="-7.0299732685089111328125">
        <ele>591</ele>
        <time>2019-07-11T07:31:39.000Z</time>
      </trkpt>
      <trkpt lat="43.28688056208193302154541015625" lon="-7.02999942004680633544921875">
        <ele>591.20001220703125</ele>
        <time>2019-07-11T07:31:42.000Z</time>
      </trkpt>
      <trkpt lat="43.28719924204051494598388671875" lon="-7.03008768148720264434814453125">
        <ele>592.5999755859375</ele>
        <time>2019-07-11T07:31:44.000Z</time>
      </trkpt>
      <trkpt lat="43.2873543910682201385498046875" lon="-7.030151300132274627685546875">
        <ele>594</ele>
        <time>2019-07-11T07:31:45.000Z</time>
      </trkpt>
      <trkpt lat="43.287507779896259307861328125" lon="-7.0302258990705013275146484375">
        <ele>595.79998779296875</ele>
        <time>2019-07-11T07:31:46.000Z</time>
      </trkpt>
      <trkpt lat="43.28765588812530040740966796875" lon="-7.0303170941770076751708984375">
        <ele>597.5999755859375</ele>
        <time>2019-07-11T07:31:47.000Z</time>
      </trkpt>
      <trkpt lat="43.28779385425150394439697265625" lon="-7.03042698092758655548095703125">
        <ele>598.79998779296875</ele>
        <time>2019-07-11T07:31:48.000Z</time>
      </trkpt>
      <trkpt lat="43.2879243604838848114013671875" lon="-7.0305544696748256683349609375">
        <ele>599.79998779296875</ele>
        <time>2019-07-11T07:31:49.000Z</time>
      </trkpt>
      <trkpt lat="43.28805151395499706268310546875" lon="-7.0306922681629657745361328125">
        <ele>601.20001220703125</ele>
        <time>2019-07-11T07:31:50.000Z</time>
      </trkpt>
      <trkpt lat="43.2881753146648406982421875" lon="-7.0308344252407550811767578125">
        <ele>603.5999755859375</ele>
        <time>2019-07-11T07:31:51.000Z</time>
      </trkpt>
      <trkpt lat="43.2882934994995594024658203125" lon="-7.030978091061115264892578125">
        <ele>606.5999755859375</ele>
        <time>2019-07-11T07:31:52.000Z</time>
      </trkpt>
      <trkpt lat="43.2884033024311065673828125" lon="-7.03113676048815250396728515625">
        <ele>609.4000244140625</ele>
        <time>2019-07-11T07:31:53.000Z</time>
      </trkpt>
      <trkpt lat="43.288504220545291900634765625" lon="-7.03130523674190044403076171875">
        <ele>610.79998779296875</ele>
        <time>2019-07-11T07:31:54.000Z</time>
      </trkpt>
      <trkpt lat="43.28879012726247310638427734375" lon="-7.031857855618000030517578125">
        <ele>610.5999755859375</ele>
        <time>2019-07-11T07:31:57.000Z</time>
      </trkpt>
      <trkpt lat="43.28889640979468822479248046875" lon="-7.032044269144535064697265625">
        <ele>609.5999755859375</ele>
        <time>2019-07-11T07:31:58.000Z</time>
      </trkpt>
      <trkpt lat="43.2890130020678043365478515625" lon="-7.032223977148532867431640625">
        <ele>609.20001220703125</ele>
        <time>2019-07-11T07:31:59.000Z</time>
      </trkpt>
      <trkpt lat="43.28941793181002140045166015625" lon="-7.03268221579492092132568359375">
        <ele>610</ele>
        <time>2019-07-11T07:32:02.000Z</time>
      </trkpt>
      <trkpt lat="43.2896966300904750823974609375" lon="-7.032921016216278076171875">
        <ele>611</ele>
        <time>2019-07-11T07:32:04.000Z</time>
      </trkpt>
      <trkpt lat="43.28994892537593841552734375" lon="-7.03310944139957427978515625">
        <ele>612.20001220703125</ele>
        <time>2019-07-11T07:32:06.000Z</time>
      </trkpt>
      <trkpt lat="43.29007624648511409759521484375" lon="-7.03317138366401195526123046875">
        <ele>613.5999755859375</ele>
        <time>2019-07-11T07:32:07.000Z</time>
      </trkpt>
      <trkpt lat="43.29020733945071697235107421875" lon="-7.03319585882127285003662109375">
        <ele>615.20001220703125</ele>
        <time>2019-07-11T07:32:08.000Z</time>
      </trkpt>
      <trkpt lat="43.29033642075955867767333984375" lon="-7.033172138035297393798828125">
        <ele>617.5999755859375</ele>
        <time>2019-07-11T07:32:09.000Z</time>
      </trkpt>
      <trkpt lat="43.29045259393751621246337890625" lon="-7.03309561125934123992919921875">
        <ele>619.4000244140625</ele>
        <time>2019-07-11T07:32:10.000Z</time>
      </trkpt>
      <trkpt lat="43.2905535958707332611083984375" lon="-7.0329811982810497283935546875">
        <ele>620.5999755859375</ele>
        <time>2019-07-11T07:32:11.000Z</time>
      </trkpt>
      <trkpt lat="43.29064353369176387786865234375" lon="-7.03283962793648242950439453125">
        <ele>621.20001220703125</ele>
        <time>2019-07-11T07:32:12.000Z</time>
      </trkpt>
      <trkpt lat="43.29072668217122554779052734375" lon="-7.03268724493682384490966796875">
        <ele>621.79998779296875</ele>
        <time>2019-07-11T07:32:13.000Z</time>
      </trkpt>
      <trkpt lat="43.29081150703132152557373046875" lon="-7.0325379632413387298583984375">
        <ele>622.4000244140625</ele>
        <time>2019-07-11T07:32:14.000Z</time>
      </trkpt>
      <trkpt lat="43.29090974293649196624755859375" lon="-7.032408379018306732177734375">
        <ele>623</ele>
        <time>2019-07-11T07:32:15.000Z</time>
      </trkpt>
      <trkpt lat="43.291025497019290924072265625" lon="-7.032301090657711029052734375">
        <ele>623.5999755859375</ele>
        <time>2019-07-11T07:32:16.000Z</time>
      </trkpt>
      <trkpt lat="43.291295059025287628173828125" lon="-7.03220847062766551971435546875">
        <ele>624.20001220703125</ele>
        <time>2019-07-11T07:32:18.000Z</time>
      </trkpt>
      <trkpt lat="43.29157375730574131011962890625" lon="-7.03227837570011615753173828125">
        <ele>625.20001220703125</ele>
        <time>2019-07-11T07:32:20.000Z</time>
      </trkpt>
      <trkpt lat="43.29169931821525096893310546875" lon="-7.0323679782450199127197265625">
        <ele>625.4000244140625</ele>
        <time>2019-07-11T07:32:21.000Z</time>
      </trkpt>
      <trkpt lat="43.2918115518987178802490234375" lon="-7.0324883423745632171630859375">
        <ele>626</ele>
        <time>2019-07-11T07:32:22.000Z</time>
      </trkpt>
      <trkpt lat="43.2919919304549694061279296875" lon="-7.03282001428306102752685546875">
        <ele>627.20001220703125</ele>
        <time>2019-07-11T07:32:24.000Z</time>
      </trkpt>
      <trkpt lat="43.29216099344193935394287109375" lon="-7.03315797261893749237060546875">
        <ele>629</ele>
        <time>2019-07-11T07:32:26.000Z</time>
      </trkpt>
      <trkpt lat="43.29237724654376506805419921875" lon="-7.03342460095882415771484375">
        <ele>630.5999755859375</ele>
        <time>2019-07-11T07:32:28.000Z</time>
      </trkpt>
      <trkpt lat="43.2925089262425899505615234375" lon="-7.0335151255130767822265625">
        <ele>631.79998779296875</ele>
        <time>2019-07-11T07:32:29.000Z</time>
      </trkpt>
      <trkpt lat="43.29265393316745758056640625" lon="-7.0335655845701694488525390625">
        <ele>633.20001220703125</ele>
        <time>2019-07-11T07:32:30.000Z</time>
      </trkpt>
      <trkpt lat="43.29280589707195758819580078125" lon="-7.03357069753110408782958984375">
        <ele>634.5999755859375</ele>
        <time>2019-07-11T07:32:31.000Z</time>
      </trkpt>
      <trkpt lat="43.29295861534774303436279296875" lon="-7.03353331424295902252197265625">
        <ele>636</ele>
        <time>2019-07-11T07:32:32.000Z</time>
      </trkpt>
      <trkpt lat="43.2931105792522430419921875" lon="-7.033460140228271484375">
        <ele>637</ele>
        <time>2019-07-11T07:32:33.000Z</time>
      </trkpt>
      <trkpt lat="43.293261118233203887939453125" lon="-7.03336517326533794403076171875">
        <ele>638.20001220703125</ele>
        <time>2019-07-11T07:32:34.000Z</time>
      </trkpt>
      <trkpt lat="43.29340889118611812591552734375" lon="-7.03325587324798107147216796875">
        <ele>639.4000244140625</ele>
        <time>2019-07-11T07:32:35.000Z</time>
      </trkpt>
      <trkpt lat="43.29355607740581035614013671875" lon="-7.0331438072025775909423828125">
        <ele>640.5999755859375</ele>
        <time>2019-07-11T07:32:36.000Z</time>
      </trkpt>
      <trkpt lat="43.293708376586437225341796875" lon="-7.03304481692612171173095703125">
        <ele>641.20001220703125</ele>
        <time>2019-07-11T07:32:37.000Z</time>
      </trkpt>
      <trkpt lat="43.29387173987925052642822265625" lon="-7.03297792933881282806396484375">
        <ele>641.79998779296875</ele>
        <time>2019-07-11T07:32:38.000Z</time>
      </trkpt>
      <trkpt lat="43.29404172487556934356689453125" lon="-7.032950185239315032958984375">
        <ele>642.20001220703125</ele>
        <time>2019-07-11T07:32:39.000Z</time>
      </trkpt>
      <trkpt lat="43.2943733967840671539306640625" lon="-7.03297155909240245819091796875">
        <ele>642.5999755859375</ele>
        <time>2019-07-11T07:32:41.000Z</time>
      </trkpt>
      <trkpt lat="43.29453055746853351593017578125" lon="-7.03302897512912750244140625">
        <ele>643</ele>
        <time>2019-07-11T07:32:42.000Z</time>
      </trkpt>
      <trkpt lat="43.29468109644949436187744140625" lon="-7.03312218189239501953125">
        <ele>643.5999755859375</ele>
        <time>2019-07-11T07:32:43.000Z</time>
      </trkpt>
      <trkpt lat="43.29482442699372768402099609375" lon="-7.033248245716094970703125">
        <ele>644.4000244140625</ele>
        <time>2019-07-11T07:32:44.000Z</time>
      </trkpt>
      <trkpt lat="43.295093066990375518798828125" lon="-7.03356516547501087188720703125">
        <ele>646</ele>
        <time>2019-07-11T07:32:46.000Z</time>
      </trkpt>
      <trkpt lat="43.295473270118236541748046875" lon="-7.0341057144105434417724609375">
        <ele>648.5999755859375</ele>
        <time>2019-07-11T07:32:49.000Z</time>
      </trkpt>
      <trkpt lat="43.29570301808416843414306640625" lon="-7.0344336144626140594482421875">
        <ele>649.5999755859375</ele>
        <time>2019-07-11T07:32:51.000Z</time>
      </trkpt>
      <trkpt lat="43.29588389955461025238037109375" lon="-7.034746594727039337158203125">
        <ele>651.4000244140625</ele>
        <time>2019-07-11T07:32:53.000Z</time>
      </trkpt>
      <trkpt lat="43.29594089649617671966552734375" lon="-7.03490316867828369140625">
        <ele>652.79998779296875</ele>
        <time>2019-07-11T07:32:54.000Z</time>
      </trkpt>
      <trkpt lat="43.29598716460168361663818359375" lon="-7.0350578986108303070068359375">
        <ele>654.5999755859375</ele>
        <time>2019-07-11T07:32:55.000Z</time>
      </trkpt>
      <trkpt lat="43.29603963531553745269775390625" lon="-7.03519075177609920501708984375">
        <ele>656.20001220703125</ele>
        <time>2019-07-11T07:32:56.000Z</time>
      </trkpt>
      <trkpt lat="43.29610803164541721343994140625" lon="-7.035281360149383544921875">
        <ele>658.20001220703125</ele>
        <time>2019-07-11T07:32:57.000Z</time>
      </trkpt>
      <trkpt lat="43.296194784343242645263671875" lon="-7.03533089719712734222412109375">
        <ele>660</ele>
        <time>2019-07-11T07:32:58.000Z</time>
      </trkpt>
      <trkpt lat="43.29629369080066680908203125" lon="-7.0353583060204982757568359375">
        <ele>661.5999755859375</ele>
        <time>2019-07-11T07:32:59.000Z</time>
      </trkpt>
      <trkpt lat="43.296401984989643096923828125" lon="-7.03536920249462127685546875">
        <ele>663</ele>
        <time>2019-07-11T07:33:00.000Z</time>
      </trkpt>
      <trkpt lat="43.2965188287198543548583984375" lon="-7.03537900932133197784423828125">
        <ele>664.4000244140625</ele>
        <time>2019-07-11T07:33:01.000Z</time>
      </trkpt>
      <trkpt lat="43.2967722974717617034912109375" lon="-7.035416476428508758544921875">
        <ele>666</ele>
        <time>2019-07-11T07:33:03.000Z</time>
      </trkpt>
      <trkpt lat="43.29717085696756839752197265625" lon="-7.0355428755283355712890625">
        <ele>667.4000244140625</ele>
        <time>2019-07-11T07:33:06.000Z</time>
      </trkpt>
      <trkpt lat="43.29757955856621265411376953125" lon="-7.03566835261881351470947265625">
        <ele>668.79998779296875</ele>
        <time>2019-07-11T07:33:09.000Z</time>
      </trkpt>
      <trkpt lat="43.29786102287471294403076171875" lon="-7.03561303205788135528564453125">
        <ele>671</ele>
        <time>2019-07-11T07:33:11.000Z</time>
      </trkpt>
      <trkpt lat="43.29799580387771129608154296875" lon="-7.03552284277975559234619140625">
        <ele>672.4000244140625</ele>
        <time>2019-07-11T07:33:12.000Z</time>
      </trkpt>
      <trkpt lat="43.29812035895884037017822265625" lon="-7.0353965274989604949951171875">
        <ele>674</ele>
        <time>2019-07-11T07:33:13.000Z</time>
      </trkpt>
      <trkpt lat="43.29824072308838367462158203125" lon="-7.0352208428084850311279296875">
        <ele>675</ele>
        <time>2019-07-11T07:33:14.000Z</time>
      </trkpt>
      <trkpt lat="43.29849603585898876190185546875" lon="-7.03491331078112125396728515625">
        <ele>675.79998779296875</ele>
        <time>2019-07-11T07:33:16.000Z</time>
      </trkpt>
      <trkpt lat="43.29895083792507648468017578125" lon="-7.03461843542754650115966796875">
        <ele>675.20001220703125</ele>
        <time>2019-07-11T07:33:19.000Z</time>
      </trkpt>
      <trkpt lat="43.2994048856198787689208984375" lon="-7.034375779330730438232421875">
        <ele>675.5999755859375</ele>
        <time>2019-07-11T07:33:22.000Z</time>
      </trkpt>
      <trkpt lat="43.29955718480050563812255859375" lon="-7.03431283123791217803955078125">
        <ele>678.79998779296875</ele>
        <time>2019-07-11T07:33:23.000Z</time>
      </trkpt>
      <trkpt lat="43.29971074126660823822021484375" lon="-7.03426857478916645050048828125">
        <ele>683</ele>
        <time>2019-07-11T07:33:24.000Z</time>
      </trkpt>
      <trkpt lat="43.29986647702753543853759765625" lon="-7.0342415012419223785400390625">
        <ele>685.5999755859375</ele>
        <time>2019-07-11T07:33:25.000Z</time>
      </trkpt>
      <trkpt lat="43.30002221278846263885498046875" lon="-7.03423135913908481597900390625">
        <ele>687.4000244140625</ele>
        <time>2019-07-11T07:33:26.000Z</time>
      </trkpt>
      <trkpt lat="43.30033703707158565521240234375" lon="-7.03425030224025249481201171875">
        <ele>688.79998779296875</ele>
        <time>2019-07-11T07:33:28.000Z</time>
      </trkpt>
      <trkpt lat="43.30082100816071033477783203125" lon="-7.03431232832372188568115234375">
        <ele>688</ele>
        <time>2019-07-11T07:33:31.000Z</time>
      </trkpt>
      <trkpt lat="43.30116265453398227691650390625" lon="-7.03438307158648967742919921875">
        <ele>689</ele>
        <time>2019-07-11T07:33:33.000Z</time>
      </trkpt>
      <trkpt lat="43.30147513188421726226806640625" lon="-7.03457015566527843475341796875">
        <ele>689.79998779296875</ele>
        <time>2019-07-11T07:33:35.000Z</time>
      </trkpt>
      <trkpt lat="43.30174435861408710479736328125" lon="-7.03485363163053989410400390625">
        <ele>691.4000244140625</ele>
        <time>2019-07-11T07:33:37.000Z</time>
      </trkpt>
      <trkpt lat="43.30187578685581684112548828125" lon="-7.03500517643988132476806640625">
        <ele>692.79998779296875</ele>
        <time>2019-07-11T07:33:38.000Z</time>
      </trkpt>
      <trkpt lat="43.30200788564980030059814453125" lon="-7.0351485908031463623046875">
        <ele>694.20001220703125</ele>
        <time>2019-07-11T07:33:39.000Z</time>
      </trkpt>
      <trkpt lat="43.30214316956698894500732421875" lon="-7.0352838747203350067138671875">
        <ele>695.4000244140625</ele>
        <time>2019-07-11T07:33:40.000Z</time>
      </trkpt>
      <trkpt lat="43.30228482373058795928955078125" lon="-7.0354032330214977264404296875">
        <ele>696.5999755859375</ele>
        <time>2019-07-11T07:33:41.000Z</time>
      </trkpt>
      <trkpt lat="43.302434943616390228271484375" lon="-7.0355053246021270751953125">
        <ele>698</ele>
        <time>2019-07-11T07:33:42.000Z</time>
      </trkpt>
      <trkpt lat="43.30259545706212520599365234375" lon="-7.0355849526822566986083984375">
        <ele>699.4000244140625</ele>
        <time>2019-07-11T07:33:43.000Z</time>
      </trkpt>
      <trkpt lat="43.3027640171349048614501953125" lon="-7.03563918359577655792236328125">
        <ele>701</ele>
        <time>2019-07-11T07:33:44.000Z</time>
      </trkpt>
      <trkpt lat="43.3029366843402385711669921875" lon="-7.03567002899944782257080078125">
        <ele>702.4000244140625</ele>
        <time>2019-07-11T07:33:45.000Z</time>
      </trkpt>
      <trkpt lat="43.3031100220978260040283203125" lon="-7.03568008728325366973876953125">
        <ele>703.4000244140625</ele>
        <time>2019-07-11T07:33:46.000Z</time>
      </trkpt>
      <trkpt lat="43.30345652997493743896484375" lon="-7.03564840368926525115966796875">
        <ele>705</ele>
        <time>2019-07-11T07:33:48.000Z</time>
      </trkpt>
      <trkpt lat="43.3036320470273494720458984375" lon="-7.03561621718108654022216796875">
        <ele>706.20001220703125</ele>
        <time>2019-07-11T07:33:49.000Z</time>
      </trkpt>
      <trkpt lat="43.30398215912282466888427734375" lon="-7.0355430431663990020751953125">
        <ele>707.4000244140625</ele>
        <time>2019-07-11T07:33:51.000Z</time>
      </trkpt>
      <trkpt lat="43.3042925409972667694091796875" lon="-7.03542695380747318267822265625">
        <ele>708.4000244140625</ele>
        <time>2019-07-11T07:33:53.000Z</time>
      </trkpt>
      <trkpt lat="43.304419778287410736083984375" lon="-7.03532100655138492584228515625">
        <ele>710.4000244140625</ele>
        <time>2019-07-11T07:33:54.000Z</time>
      </trkpt>
      <trkpt lat="43.3045218698680400848388671875" lon="-7.03515462577342987060546875">
        <ele>711.4000244140625</ele>
        <time>2019-07-11T07:33:55.000Z</time>
      </trkpt>
      <trkpt lat="43.30459856428205966949462890625" lon="-7.034960500895977020263671875">
        <ele>711.79998779296875</ele>
        <time>2019-07-11T07:33:56.000Z</time>
      </trkpt>
      <trkpt lat="43.304660506546497344970703125" lon="-7.03474734909832477569580078125">
        <ele>713.5999755859375</ele>
        <time>2019-07-11T07:33:57.000Z</time>
      </trkpt>
      <trkpt lat="43.3047136478126049041748046875" lon="-7.03453746624290943145751953125">
        <ele>715.5999755859375</ele>
        <time>2019-07-11T07:33:58.000Z</time>
      </trkpt>
      <trkpt lat="43.3047642745077610015869140625" lon="-7.03433227725327014923095703125">
        <ele>717.20001220703125</ele>
        <time>2019-07-11T07:33:59.000Z</time>
      </trkpt>
      <trkpt lat="43.304814063012599945068359375" lon="-7.03413127921521663665771484375">
        <ele>718.4000244140625</ele>
        <time>2019-07-11T07:34:00.000Z</time>
      </trkpt>
      <trkpt lat="43.30491456203162670135498046875" lon="-7.03376264311373233795166015625">
        <ele>719.79998779296875</ele>
        <time>2019-07-11T07:34:02.000Z</time>
      </trkpt>
      <trkpt lat="43.30497306771576404571533203125" lon="-7.03361160121858119964599609375">
        <ele>720.20001220703125</ele>
        <time>2019-07-11T07:34:03.000Z</time>
      </trkpt>
      <trkpt lat="43.30514791421592235565185546875" lon="-7.0334137044847011566162109375">
        <ele>721.20001220703125</ele>
        <time>2019-07-11T07:34:05.000Z</time>
      </trkpt>
      <trkpt lat="43.30537942238152027130126953125" lon="-7.03336969949305057525634765625">
        <ele>722.79998779296875</ele>
        <time>2019-07-11T07:34:07.000Z</time>
      </trkpt>
      <trkpt lat="43.3056440390646457672119140625" lon="-7.03340859152376651763916015625">
        <ele>724.4000244140625</ele>
        <time>2019-07-11T07:34:09.000Z</time>
      </trkpt>
      <trkpt lat="43.305934555828571319580078125" lon="-7.03346625901758670806884765625">
        <ele>725.5999755859375</ele>
        <time>2019-07-11T07:34:11.000Z</time>
      </trkpt>
      <trkpt lat="43.30623202957212924957275390625" lon="-7.03352375887334346771240234375">
        <ele>726.79998779296875</ele>
        <time>2019-07-11T07:34:13.000Z</time>
      </trkpt>
      <trkpt lat="43.3065392263233661651611328125" lon="-7.03357153572142124176025390625">
        <ele>729.5999755859375</ele>
        <time>2019-07-11T07:34:15.000Z</time>
      </trkpt>
      <trkpt lat="43.306690938770771026611328125" lon="-7.0335763134062290191650390625">
        <ele>732</ele>
        <time>2019-07-11T07:34:16.000Z</time>
      </trkpt>
      <trkpt lat="43.30683820880949497222900390625" lon="-7.0335572026669979095458984375">
        <ele>733</ele>
        <time>2019-07-11T07:34:17.000Z</time>
      </trkpt>
      <trkpt lat="43.30698053352534770965576171875" lon="-7.0335065759718418121337890625">
        <ele>734.79998779296875</ele>
        <time>2019-07-11T07:34:18.000Z</time>
      </trkpt>
      <trkpt lat="43.307116068899631500244140625" lon="-7.03342535533010959625244140625">
        <ele>735.5999755859375</ele>
        <time>2019-07-11T07:34:19.000Z</time>
      </trkpt>
      <trkpt lat="43.30724439583718776702880859375" lon="-7.03331538476049900054931640625">
        <ele>736.5999755859375</ele>
        <time>2019-07-11T07:34:20.000Z</time>
      </trkpt>
      <trkpt lat="43.30736358650028705596923828125" lon="-7.033178508281707763671875">
        <ele>736.5999755859375</ele>
        <time>2019-07-11T07:34:21.000Z</time>
      </trkpt>
      <trkpt lat="43.307563997805118560791015625" lon="-7.03283476643264293670654296875">
        <ele>736.5999755859375</ele>
        <time>2019-07-11T07:34:23.000Z</time>
      </trkpt>
      <trkpt lat="43.30773331224918365478515625" lon="-7.03243553638458251953125">
        <ele>737.79998779296875</ele>
        <time>2019-07-11T07:34:25.000Z</time>
      </trkpt>
      <trkpt lat="43.3079936541616916656494140625" lon="-7.031811587512493133544921875">
        <ele>739</ele>
        <time>2019-07-11T07:34:28.000Z</time>
      </trkpt>
      <trkpt lat="43.3082407526671886444091796875" lon="-7.03121236525475978851318359375">
        <ele>740.5999755859375</ele>
        <time>2019-07-11T07:34:31.000Z</time>
      </trkpt>
      <trkpt lat="43.30831308849155902862548828125" lon="-7.03101270832121372222900390625">
        <ele>741.5999755859375</ele>
        <time>2019-07-11T07:34:32.000Z</time>
      </trkpt>
      <trkpt lat="43.30837033689022064208984375" lon="-7.03080517239868640899658203125">
        <ele>742.79998779296875</ele>
        <time>2019-07-11T07:34:33.000Z</time>
      </trkpt>
      <trkpt lat="43.3084060437977313995361328125" lon="-7.03059076331555843353271484375">
        <ele>743.79998779296875</ele>
        <time>2019-07-11T07:34:34.000Z</time>
      </trkpt>
      <trkpt lat="43.30841870047152042388916015625" lon="-7.0303771086037158966064453125">
        <ele>744.5999755859375</ele>
        <time>2019-07-11T07:34:35.000Z</time>
      </trkpt>
      <trkpt lat="43.30841082148253917694091796875" lon="-7.030167393386363983154296875">
        <ele>745.5999755859375</ele>
        <time>2019-07-11T07:34:36.000Z</time>
      </trkpt>
      <trkpt lat="43.308387100696563720703125" lon="-7.029961533844470977783203125">
        <ele>746.5999755859375</ele>
        <time>2019-07-11T07:34:37.000Z</time>
      </trkpt>
      <trkpt lat="43.3083530701696872711181640625" lon="-7.02975978143513202667236328125">
        <ele>747.5999755859375</ele>
        <time>2019-07-11T07:34:38.000Z</time>
      </trkpt>
      <trkpt lat="43.3083239011466503143310546875" lon="-7.0295654051005840301513671875">
        <ele>748.5999755859375</ele>
        <time>2019-07-11T07:34:39.000Z</time>
      </trkpt>
      <trkpt lat="43.3083131723105907440185546875" lon="-7.02937823720276355743408203125">
        <ele>749.5999755859375</ele>
        <time>2019-07-11T07:34:40.000Z</time>
      </trkpt>
      <trkpt lat="43.308321721851825714111328125" lon="-7.0291969366371631622314453125">
        <ele>750.20001220703125</ele>
        <time>2019-07-11T07:34:41.000Z</time>
      </trkpt>
      <trkpt lat="43.3083547465503215789794921875" lon="-7.02902401797473430633544921875">
        <ele>750.79998779296875</ele>
        <time>2019-07-11T07:34:42.000Z</time>
      </trkpt>
      <trkpt lat="43.30841819755733013153076171875" lon="-7.028864510357379913330078125">
        <ele>751.4000244140625</ele>
        <time>2019-07-11T07:34:43.000Z</time>
      </trkpt>
      <trkpt lat="43.30850486643612384796142578125" lon="-7.02872461639344692230224609375">
        <ele>751.79998779296875</ele>
        <time>2019-07-11T07:34:44.000Z</time>
      </trkpt>
      <trkpt lat="43.30860863439738750457763671875" lon="-7.02860760502517223358154296875">
        <ele>752.5999755859375</ele>
        <time>2019-07-11T07:34:45.000Z</time>
      </trkpt>
      <trkpt lat="43.3087290823459625244140625" lon="-7.028506435453891754150390625">
        <ele>753.4000244140625</ele>
        <time>2019-07-11T07:34:46.000Z</time>
      </trkpt>
      <trkpt lat="43.3088647015392780303955078125" lon="-7.0284197665750980377197265625">
        <ele>754.5999755859375</ele>
        <time>2019-07-11T07:34:47.000Z</time>
      </trkpt>
      <trkpt lat="43.30929611809551715850830078125" lon="-7.02815674245357513427734375">
        <ele>756.79998779296875</ele>
        <time>2019-07-11T07:34:50.000Z</time>
      </trkpt>
      <trkpt lat="43.30943509005010128021240234375" lon="-7.028045095503330230712890625">
        <ele>758.79998779296875</ele>
        <time>2019-07-11T07:34:51.000Z</time>
      </trkpt>
      <trkpt lat="43.3095686137676239013671875" lon="-7.02792045660316944122314453125">
        <ele>760.79998779296875</ele>
        <time>2019-07-11T07:34:52.000Z</time>
      </trkpt>
      <trkpt lat="43.309692330658435821533203125" lon="-7.0277750305831432342529296875">
        <ele>763.20001220703125</ele>
        <time>2019-07-11T07:34:53.000Z</time>
      </trkpt>
      <trkpt lat="43.30980774946510791778564453125" lon="-7.02761627733707427978515625">
        <ele>765</ele>
        <time>2019-07-11T07:34:54.000Z</time>
      </trkpt>
      <trkpt lat="43.30991755239665508270263671875" lon="-7.0274506509304046630859375">
        <ele>766.4000244140625</ele>
        <time>2019-07-11T07:34:55.000Z</time>
      </trkpt>
      <trkpt lat="43.31002525985240936279296875" lon="-7.027275301516056060791015625">
        <ele>767.4000244140625</ele>
        <time>2019-07-11T07:34:56.000Z</time>
      </trkpt>
      <trkpt lat="43.3103089034557342529296875" lon="-7.02671010978519916534423828125">
        <ele>768.5999755859375</ele>
        <time>2019-07-11T07:34:59.000Z</time>
      </trkpt>
      <trkpt lat="43.31051384098827838897705078125" lon="-7.02611616812646389007568359375">
        <ele>769.79998779296875</ele>
        <time>2019-07-11T07:35:02.000Z</time>
      </trkpt>
      <trkpt lat="43.310544602572917938232421875" lon="-7.025934867560863494873046875">
        <ele>769.4000244140625</ele>
        <time>2019-07-11T07:35:03.000Z</time>
      </trkpt>
      <trkpt lat="43.31051534973084926605224609375" lon="-7.0256249047815799713134765625">
        <ele>770.5999755859375</ele>
        <time>2019-07-11T07:35:05.000Z</time>
      </trkpt>
      <trkpt lat="43.31045885570347309112548828125" lon="-7.02548534609377384185791015625">
        <ele>771.4000244140625</ele>
        <time>2019-07-11T07:35:06.000Z</time>
      </trkpt>
      <trkpt lat="43.310391046106815338134765625" lon="-7.02535375021398067474365234375">
        <ele>771.5999755859375</ele>
        <time>2019-07-11T07:35:07.000Z</time>
      </trkpt>
      <trkpt lat="43.31031384877860546112060546875" lon="-7.025224752724170684814453125">
        <ele>772.79998779296875</ele>
        <time>2019-07-11T07:35:08.000Z</time>
      </trkpt>
      <trkpt lat="43.31016146577894687652587890625" lon="-7.02495426870882511138916015625">
        <ele>774.4000244140625</ele>
        <time>2019-07-11T07:35:10.000Z</time>
      </trkpt>
      <trkpt lat="43.3100971765816211700439453125" lon="-7.02480121515691280364990234375">
        <ele>775.20001220703125</ele>
        <time>2019-07-11T07:35:11.000Z</time>
      </trkpt>
      <trkpt lat="43.3100514113903045654296875" lon="-7.02463491819798946380615234375">
        <ele>775.79998779296875</ele>
        <time>2019-07-11T07:35:12.000Z</time>
      </trkpt>
      <trkpt lat="43.3100294508039951324462890625" lon="-7.0244599878787994384765625">
        <ele>776</ele>
        <time>2019-07-11T07:35:13.000Z</time>
      </trkpt>
      <trkpt lat="43.3100728690624237060546875" lon="-7.0241005718708038330078125">
        <ele>776</ele>
        <time>2019-07-11T07:35:15.000Z</time>
      </trkpt>
      <trkpt lat="43.31023019738495349884033203125" lon="-7.0237845741212368011474609375">
        <ele>775.5999755859375</ele>
        <time>2019-07-11T07:35:17.000Z</time>
      </trkpt>
      <trkpt lat="43.31049255095422267913818359375" lon="-7.02359019778668880462646484375">
        <ele>775.79998779296875</ele>
        <time>2019-07-11T07:35:19.000Z</time>
      </trkpt>
      <trkpt lat="43.3108123205602169036865234375" lon="-7.023513503372669219970703125">
        <ele>776.79998779296875</ele>
        <time>2019-07-11T07:35:21.000Z</time>
      </trkpt>
      <trkpt lat="43.31097769550979137420654296875" lon="-7.02346966601908206939697265625">
        <ele>777.5999755859375</ele>
        <time>2019-07-11T07:35:22.000Z</time>
      </trkpt>
      <trkpt lat="43.31113963387906551361083984375" lon="-7.02339070849120616912841796875">
        <ele>778.5999755859375</ele>
        <time>2019-07-11T07:35:23.000Z</time>
      </trkpt>
      <trkpt lat="43.31129235215485095977783203125" lon="-7.0232690870761871337890625">
        <ele>779.5999755859375</ele>
        <time>2019-07-11T07:35:24.000Z</time>
      </trkpt>
      <trkpt lat="43.3115884847939014434814453125" lon="-7.0229587890207767486572265625">
        <ele>781</ele>
        <time>2019-07-11T07:35:26.000Z</time>
      </trkpt>
      <trkpt lat="43.31190037541091442108154296875" lon="-7.0226181484758853912353515625">
        <ele>782.4000244140625</ele>
        <time>2019-07-11T07:35:28.000Z</time>
      </trkpt>
      <trkpt lat="43.3123787306249141693115234375" lon="-7.0221159048378467559814453125">
        <ele>783.79998779296875</ele>
        <time>2019-07-11T07:35:31.000Z</time>
      </trkpt>
      <trkpt lat="43.31283562816679477691650390625" lon="-7.02169018797576427459716796875">
        <ele>784.4000244140625</ele>
        <time>2019-07-11T07:35:34.000Z</time>
      </trkpt>
      <trkpt lat="43.31298667006194591522216796875" lon="-7.02158440835773944854736328125">
        <ele>784.79998779296875</ele>
        <time>2019-07-11T07:35:35.000Z</time>
      </trkpt>
      <trkpt lat="43.31314659677445888519287109375" lon="-7.02150796540081501007080078125">
        <ele>785</ele>
        <time>2019-07-11T07:35:36.000Z</time>
      </trkpt>
      <trkpt lat="43.3134864829480648040771484375" lon="-7.0213947258889675140380859375">
        <ele>786</ele>
        <time>2019-07-11T07:35:38.000Z</time>
      </trkpt>
      <trkpt lat="43.31384313292801380157470703125" lon="-7.0213028602302074432373046875">
        <ele>787.20001220703125</ele>
        <time>2019-07-11T07:35:40.000Z</time>
      </trkpt>
      <trkpt lat="43.3142101764678955078125" lon="-7.02122566290199756622314453125">
        <ele>788.79998779296875</ele>
        <time>2019-07-11T07:35:42.000Z</time>
      </trkpt>
      <trkpt lat="43.31438929773867130279541015625" lon="-7.0212150178849697113037109375">
        <ele>789.79998779296875</ele>
        <time>2019-07-11T07:35:43.000Z</time>
      </trkpt>
      <trkpt lat="43.314557857811450958251953125" lon="-7.02123261988162994384765625">
        <ele>790.4000244140625</ele>
        <time>2019-07-11T07:35:44.000Z</time>
      </trkpt>
      <trkpt lat="43.31501944921910762786865234375" lon="-7.02139330096542835235595703125">
        <ele>791.4000244140625</ele>
        <time>2019-07-11T07:35:47.000Z</time>
      </trkpt>
      <trkpt lat="43.31532387994229793548583984375" lon="-7.02154509723186492919921875">
        <ele>792.5999755859375</ele>
        <time>2019-07-11T07:35:49.000Z</time>
      </trkpt>
      <trkpt lat="43.315801732242107391357421875" lon="-7.02180149964988231658935546875">
        <ele>793.4000244140625</ele>
        <time>2019-07-11T07:35:52.000Z</time>
      </trkpt>
      <trkpt lat="43.31629970110952854156494140625" lon="-7.0220729894936084747314453125">
        <ele>794</ele>
        <time>2019-07-11T07:35:55.000Z</time>
      </trkpt>
      <trkpt lat="43.3166415989398956298828125" lon="-7.02225479297339916229248046875">
        <ele>796</ele>
        <time>2019-07-11T07:35:57.000Z</time>
      </trkpt>
      <trkpt lat="43.31680848263204097747802734375" lon="-7.02234313823282718658447265625">
        <ele>798.4000244140625</ele>
        <time>2019-07-11T07:35:58.000Z</time>
      </trkpt>
      <trkpt lat="43.31696891225874423980712890625" lon="-7.02242997474968433380126953125">
        <ele>799.5999755859375</ele>
        <time>2019-07-11T07:35:59.000Z</time>
      </trkpt>
      <trkpt lat="43.3171265758574008941650390625" lon="-7.02251580543816089630126953125">
        <ele>800.79998779296875</ele>
        <time>2019-07-11T07:36:00.000Z</time>
      </trkpt>
      <trkpt lat="43.31743326969444751739501953125" lon="-7.0227237604558467864990234375">
        <ele>802</ele>
        <time>2019-07-11T07:36:02.000Z</time>
      </trkpt>
      <trkpt lat="43.31785823218524456024169921875" lon="-7.02315450645983219146728515625">
        <ele>801.4000244140625</ele>
        <time>2019-07-11T07:36:05.000Z</time>
      </trkpt>
      <trkpt lat="43.3179966174066066741943359375" lon="-7.023292221128940582275390625">
        <ele>801.5999755859375</ele>
        <time>2019-07-11T07:36:06.000Z</time>
      </trkpt>
      <trkpt lat="43.318297863006591796875" lon="-7.02350084669888019561767578125">
        <ele>803</ele>
        <time>2019-07-11T07:36:08.000Z</time>
      </trkpt>
      <trkpt lat="43.31862618215382099151611328125" lon="-7.02362506650388240814208984375">
        <ele>804.4000244140625</ele>
        <time>2019-07-11T07:36:10.000Z</time>
      </trkpt>
      <trkpt lat="43.3189809881150722503662109375" lon="-7.0236393995583057403564453125">
        <ele>805.4000244140625</ele>
        <time>2019-07-11T07:36:12.000Z</time>
      </trkpt>
      <trkpt lat="43.3193320222198963165283203125" lon="-7.02354677952826023101806640625">
        <ele>805.20001220703125</ele>
        <time>2019-07-11T07:36:14.000Z</time>
      </trkpt>
      <trkpt lat="43.31982244737446308135986328125" lon="-7.02322416007518768310546875">
        <ele>805.4000244140625</ele>
        <time>2019-07-11T07:36:17.000Z</time>
      </trkpt>
      <trkpt lat="43.3203173987567424774169921875" lon="-7.0228515006601810455322265625">
        <ele>805.79998779296875</ele>
        <time>2019-07-11T07:36:20.000Z</time>
      </trkpt>
      <trkpt lat="43.320494256913661956787109375" lon="-7.022745721042156219482421875">
        <ele>806.20001220703125</ele>
        <time>2019-07-11T07:36:21.000Z</time>
      </trkpt>
      <trkpt lat="43.32067991606891155242919921875" lon="-7.02265930362045764923095703125">
        <ele>806.4000244140625</ele>
        <time>2019-07-11T07:36:22.000Z</time>
      </trkpt>
      <trkpt lat="43.32126329652965068817138671875" lon="-7.02248613350093364715576171875">
        <ele>807.20001220703125</ele>
        <time>2019-07-11T07:36:25.000Z</time>
      </trkpt>
      <trkpt lat="43.321864865720272064208984375" lon="-7.02246350236237049102783203125">
        <ele>807.4000244140625</ele>
        <time>2019-07-11T07:36:28.000Z</time>
      </trkpt>
      <trkpt lat="43.322064690291881561279296875" lon="-7.0224682800471782684326171875">
        <ele>807.5999755859375</ele>
        <time>2019-07-11T07:36:29.000Z</time>
      </trkpt>
      <trkpt lat="43.3226596377789974212646484375" lon="-7.02238169498741626739501953125">
        <ele>809.4000244140625</ele>
        <time>2019-07-11T07:36:32.000Z</time>
      </trkpt>
      <trkpt lat="43.32301796413958072662353515625" lon="-7.02218656428158283233642578125">
        <ele>810.4000244140625</ele>
        <time>2019-07-11T07:36:34.000Z</time>
      </trkpt>
      <trkpt lat="43.32358709536492824554443359375" lon="-7.021969892084598541259765625">
        <ele>810.79998779296875</ele>
        <time>2019-07-11T07:36:37.000Z</time>
      </trkpt>
      <trkpt lat="43.32395958714187145233154296875" lon="-7.02200702391564846038818359375">
        <ele>810.5999755859375</ele>
        <time>2019-07-11T07:36:39.000Z</time>
      </trkpt>
      <trkpt lat="43.32430341280996799468994140625" lon="-7.02219896949827671051025390625">
        <ele>810.79998779296875</ele>
        <time>2019-07-11T07:36:41.000Z</time>
      </trkpt>
      <trkpt lat="43.32457046024501323699951171875" lon="-7.02244372107088565826416015625">
        <ele>811.79998779296875</ele>
        <time>2019-07-11T07:36:43.000Z</time>
      </trkpt>
      <trkpt lat="43.32468395121395587921142578125" lon="-7.0225242711603641510009765625">
        <ele>812.20001220703125</ele>
        <time>2019-07-11T07:36:44.000Z</time>
      </trkpt>
      <trkpt lat="43.32480029202997684478759765625" lon="-7.0225702039897441864013671875">
        <ele>813</ele>
        <time>2019-07-11T07:36:45.000Z</time>
      </trkpt>
      <trkpt lat="43.3249200694262981414794921875" lon="-7.0225832797586917877197265625">
        <ele>814.20001220703125</ele>
        <time>2019-07-11T07:36:46.000Z</time>
      </trkpt>
      <trkpt lat="43.3250357396900653839111328125" lon="-7.022543884813785552978515625">
        <ele>815.4000244140625</ele>
        <time>2019-07-11T07:36:47.000Z</time>
      </trkpt>
      <trkpt lat="43.32514579407870769500732421875" lon="-7.0224451459944248199462890625">
        <ele>816.4000244140625</ele>
        <time>2019-07-11T07:36:48.000Z</time>
      </trkpt>
      <trkpt lat="43.32537026144564151763916015625" lon="-7.02218757010996341705322265625">
        <ele>817.79998779296875</ele>
        <time>2019-07-11T07:36:50.000Z</time>
      </trkpt>
      <trkpt lat="43.3254902064800262451171875" lon="-7.022070474922657012939453125">
        <ele>818.4000244140625</ele>
        <time>2019-07-11T07:36:51.000Z</time>
      </trkpt>
      <trkpt lat="43.3257656358182430267333984375" lon="-7.02195086516439914703369140625">
        <ele>818.5999755859375</ele>
        <time>2019-07-11T07:36:53.000Z</time>
      </trkpt>
      <trkpt lat="43.326241560280323028564453125" lon="-7.02208665199577808380126953125">
        <ele>817.79998779296875</ele>
        <time>2019-07-11T07:36:56.000Z</time>
      </trkpt>
      <trkpt lat="43.32675327546894550323486328125" lon="-7.02225663699209690093994140625">
        <ele>819.20001220703125</ele>
        <time>2019-07-11T07:36:59.000Z</time>
      </trkpt>
      <trkpt lat="43.32728837616741657257080078125" lon="-7.022425197064876556396484375">
        <ele>819.79998779296875</ele>
        <time>2019-07-11T07:37:02.000Z</time>
      </trkpt>
      <trkpt lat="43.32780134864151477813720703125" lon="-7.02254614792764186859130859375">
        <ele>820.4000244140625</ele>
        <time>2019-07-11T07:37:05.000Z</time>
      </trkpt>
      <trkpt lat="43.32815187983214855194091796875" lon="-7.02258034609258174896240234375">
        <ele>821.5999755859375</ele>
        <time>2019-07-11T07:37:07.000Z</time>
      </trkpt>
      <trkpt lat="43.32850978709757328033447265625" lon="-7.02256106771528720855712890625">
        <ele>823</ele>
        <time>2019-07-11T07:37:09.000Z</time>
      </trkpt>
      <trkpt lat="43.3290199935436248779296875" lon="-7.02242209576070308685302734375">
        <ele>824.20001220703125</ele>
        <time>2019-07-11T07:37:12.000Z</time>
      </trkpt>
      <trkpt lat="43.3293276093900203704833984375" lon="-7.022315897047519683837890625">
        <ele>822.79998779296875</ele>
        <time>2019-07-11T07:37:14.000Z</time>
      </trkpt>
      <trkpt lat="43.32963799126446247100830078125" lon="-7.02222512103617191314697265625">
        <ele>823.4000244140625</ele>
        <time>2019-07-11T07:37:16.000Z</time>
      </trkpt>
      <trkpt lat="43.32979255355894565582275390625" lon="-7.0221822895109653472900390625">
        <ele>825.20001220703125</ele>
        <time>2019-07-11T07:37:17.000Z</time>
      </trkpt>
      <trkpt lat="43.33008340559899806976318359375" lon="-7.0221189223229885101318359375">
        <ele>826.4000244140625</ele>
        <time>2019-07-11T07:37:19.000Z</time>
      </trkpt>
      <trkpt lat="43.33056385628879070281982421875" lon="-7.0221162401139736175537109375">
        <ele>828</ele>
        <time>2019-07-11T07:37:22.000Z</time>
      </trkpt>
      <trkpt lat="43.3310666866600513458251953125" lon="-7.0221933536231517791748046875">
        <ele>830.20001220703125</ele>
        <time>2019-07-11T07:37:25.000Z</time>
      </trkpt>
      <trkpt lat="43.33144605159759521484375" lon="-7.02224708162248134613037109375">
        <ele>831.79998779296875</ele>
        <time>2019-07-11T07:37:27.000Z</time>
      </trkpt>
      <trkpt lat="43.3320627920329570770263671875" lon="-7.02230751514434814453125">
        <ele>831.5999755859375</ele>
        <time>2019-07-11T07:37:30.000Z</time>
      </trkpt>
      <trkpt lat="43.33273175172507762908935546875" lon="-7.02240197919309139251708984375">
        <ele>832</ele>
        <time>2019-07-11T07:37:33.000Z</time>
      </trkpt>
      <trkpt lat="43.33332267589867115020751953125" lon="-7.02246568165719509124755859375">
        <ele>832.5999755859375</ele>
        <time>2019-07-11T07:37:36.000Z</time>
      </trkpt>
      <trkpt lat="43.33349551074206829071044921875" lon="-7.02245176769793033599853515625">
        <ele>833</ele>
        <time>2019-07-11T07:37:37.000Z</time>
      </trkpt>
      <trkpt lat="43.33382450044155120849609375" lon="-7.0223029889166355133056640625">
        <ele>834</ele>
        <time>2019-07-11T07:37:39.000Z</time>
      </trkpt>
      <trkpt lat="43.33411711268126964569091796875" lon="-7.0220431499183177947998046875">
        <ele>835.5999755859375</ele>
        <time>2019-07-11T07:37:41.000Z</time>
      </trkpt>
      <trkpt lat="43.33439304493367671966552734375" lon="-7.0217910222709178924560546875">
        <ele>836.5999755859375</ele>
        <time>2019-07-11T07:37:43.000Z</time>
      </trkpt>
      <trkpt lat="43.334542997181415557861328125" lon="-7.02169018797576427459716796875">
        <ele>837.20001220703125</ele>
        <time>2019-07-11T07:37:44.000Z</time>
      </trkpt>
      <trkpt lat="43.3348693884909152984619140625" lon="-7.02155356295406818389892578125">
        <ele>838</ele>
        <time>2019-07-11T07:37:46.000Z</time>
      </trkpt>
      <trkpt lat="43.335380516946315765380859375" lon="-7.02153763733804225921630859375">
        <ele>839</ele>
        <time>2019-07-11T07:37:49.000Z</time>
      </trkpt>
      <trkpt lat="43.3359117619693279266357421875" lon="-7.0216817222535610198974609375">
        <ele>840.20001220703125</ele>
        <time>2019-07-11T07:37:52.000Z</time>
      </trkpt>
      <trkpt lat="43.3360968343913555145263671875" lon="-7.021716423332691192626953125">
        <ele>840.5999755859375</ele>
        <time>2019-07-11T07:37:53.000Z</time>
      </trkpt>
      <trkpt lat="43.33628500811755657196044921875" lon="-7.0217276550829410552978515625">
        <ele>841.20001220703125</ele>
        <time>2019-07-11T07:37:54.000Z</time>
      </trkpt>
      <trkpt lat="43.3364696614444255828857421875" lon="-7.02172053046524524688720703125">
        <ele>841.5999755859375</ele>
        <time>2019-07-11T07:37:55.000Z</time>
      </trkpt>
      <trkpt lat="43.3369767665863037109375" lon="-7.0216431654989719390869140625">
        <ele>842.5999755859375</ele>
        <time>2019-07-11T07:37:58.000Z</time>
      </trkpt>
      <trkpt lat="43.337265439331531524658203125" lon="-7.02143453992903232574462890625">
        <ele>843.4000244140625</ele>
        <time>2019-07-11T07:38:00.000Z</time>
      </trkpt>
      <trkpt lat="43.33739259280264377593994140625" lon="-7.0212896168231964111328125">
        <ele>844</ele>
        <time>2019-07-11T07:38:01.000Z</time>
      </trkpt>
      <trkpt lat="43.33778033964335918426513671875" lon="-7.02091201208531856536865234375">
        <ele>845.79998779296875</ele>
        <time>2019-07-11T07:38:04.000Z</time>
      </trkpt>
      <trkpt lat="43.3380702696740627288818359375" lon="-7.020794413983821868896484375">
        <ele>846</ele>
        <time>2019-07-11T07:38:06.000Z</time>
      </trkpt>
      <trkpt lat="43.33857997320592403411865234375" lon="-7.02080053277313709259033203125">
        <ele>846.5999755859375</ele>
        <time>2019-07-11T07:38:09.000Z</time>
      </trkpt>
      <trkpt lat="43.3387537300586700439453125" lon="-7.02080438844859600067138671875">
        <ele>846.79998779296875</ele>
        <time>2019-07-11T07:38:10.000Z</time>
      </trkpt>
      <trkpt lat="43.33909780718386173248291015625" lon="-7.02073833905160427093505859375">
        <ele>847.20001220703125</ele>
        <time>2019-07-11T07:38:12.000Z</time>
      </trkpt>
      <trkpt lat="43.33941514603793621063232421875" lon="-7.0205716229975223541259765625">
        <ele>848.4000244140625</ele>
        <time>2019-07-11T07:38:14.000Z</time>
      </trkpt>
      <trkpt lat="43.3396789245307445526123046875" lon="-7.0203080959618091583251953125">
        <ele>849.79998779296875</ele>
        <time>2019-07-11T07:38:16.000Z</time>
      </trkpt>
      <trkpt lat="43.33991705439984798431396484375" lon="-7.0200123824179172515869140625">
        <ele>851.4000244140625</ele>
        <time>2019-07-11T07:38:18.000Z</time>
      </trkpt>
      <trkpt lat="43.34017706103622913360595703125" lon="-7.0197528786957263946533203125">
        <ele>852.5999755859375</ele>
        <time>2019-07-11T07:38:20.000Z</time>
      </trkpt>
      <trkpt lat="43.34046573378145694732666015625" lon="-7.01958666555583477020263671875">
        <ele>854.20001220703125</ele>
        <time>2019-07-11T07:38:22.000Z</time>
      </trkpt>
      <trkpt lat="43.3407974056899547576904296875" lon="-7.0195622742176055908203125">
        <ele>855.20001220703125</ele>
        <time>2019-07-11T07:38:24.000Z</time>
      </trkpt>
      <trkpt lat="43.34114869125187397003173828125" lon="-7.01967023313045501708984375">
        <ele>856.79998779296875</ele>
        <time>2019-07-11T07:38:26.000Z</time>
      </trkpt>
      <trkpt lat="43.341469131410121917724609375" lon="-7.019799314439296722412109375">
        <ele>858.5999755859375</ele>
        <time>2019-07-11T07:38:28.000Z</time>
      </trkpt>
      <trkpt lat="43.3417526073753833770751953125" lon="-7.0199513621628284454345703125">
        <ele>860</ele>
        <time>2019-07-11T07:38:30.000Z</time>
      </trkpt>
      <trkpt lat="43.34207640029489994049072265625" lon="-7.02036417089402675628662109375">
        <ele>860.79998779296875</ele>
        <time>2019-07-11T07:38:33.000Z</time>
      </trkpt>
      <trkpt lat="43.3421901427209377288818359375" lon="-7.02066600322723388671875">
        <ele>861</ele>
        <time>2019-07-11T07:38:35.000Z</time>
      </trkpt>
      <trkpt lat="43.34224889986217021942138671875" lon="-7.0207724533975124359130859375">
        <ele>861.4000244140625</ele>
        <time>2019-07-11T07:38:36.000Z</time>
      </trkpt>
      <trkpt lat="43.342386446893215179443359375" lon="-7.0209114253520965576171875">
        <ele>862.4000244140625</ele>
        <time>2019-07-11T07:38:38.000Z</time>
      </trkpt>
      <trkpt lat="43.34256120957434177398681640625" lon="-7.0209516584873199462890625">
        <ele>863.79998779296875</ele>
        <time>2019-07-11T07:38:40.000Z</time>
      </trkpt>
      <trkpt lat="43.34285038523375988006591796875" lon="-7.02087052166461944580078125">
        <ele>865</ele>
        <time>2019-07-11T07:38:43.000Z</time>
      </trkpt>
      <trkpt lat="43.34292733110487461090087890625" lon="-7.0208438672125339508056640625">
        <ele>865.4000244140625</ele>
        <time>2019-07-11T07:38:44.000Z</time>
      </trkpt>
      <trkpt lat="43.34306496195495128631591796875" lon="-7.02080271206796169281005859375">
        <ele>866.20001220703125</ele>
        <time>2019-07-11T07:38:46.000Z</time>
      </trkpt>
      <trkpt lat="43.34327048622071743011474609375" lon="-7.02074303291738033294677734375">
        <ele>867.20001220703125</ele>
        <time>2019-07-11T07:38:49.000Z</time>
      </trkpt>
      <trkpt lat="43.34356301464140415191650390625" lon="-7.0206329785287380218505859375">
        <ele>868.4000244140625</ele>
        <time>2019-07-11T07:38:53.000Z</time>
      </trkpt>
      <trkpt lat="43.3437897451221942901611328125" lon="-7.020465172827243804931640625">
        <ele>869.5999755859375</ele>
        <time>2019-07-11T07:38:56.000Z</time>
      </trkpt>
      <trkpt lat="43.3439282141625881195068359375" lon="-7.02030851505696773529052734375">
        <ele>870.20001220703125</ele>
        <time>2019-07-11T07:38:58.000Z</time>
      </trkpt>
      <trkpt lat="43.34404866211116313934326171875" lon="-7.0201116241514682769775390625">
        <ele>870.5999755859375</ele>
        <time>2019-07-11T07:39:00.000Z</time>
      </trkpt>
      <trkpt lat="43.3440965227782726287841796875" lon="-7.019997797906398773193359375">
        <ele>871.20001220703125</ele>
        <time>2019-07-11T07:39:01.000Z</time>
      </trkpt>
      <trkpt lat="43.344134576618671417236328125" lon="-7.01987433247268199920654296875">
        <ele>871.79998779296875</ele>
        <time>2019-07-11T07:39:02.000Z</time>
      </trkpt>
      <trkpt lat="43.3441625721752643585205078125" lon="-7.01974508352577686309814453125">
        <ele>872.4000244140625</ele>
        <time>2019-07-11T07:39:03.000Z</time>
      </trkpt>
      <trkpt lat="43.34418118000030517578125" lon="-7.0196120627224445343017578125">
        <ele>872.5999755859375</ele>
        <time>2019-07-11T07:39:04.000Z</time>
      </trkpt>
      <trkpt lat="43.34418159909546375274658203125" lon="-7.0193401537835597991943359375">
        <ele>873</ele>
        <time>2019-07-11T07:39:06.000Z</time>
      </trkpt>
      <trkpt lat="43.34410599432885646820068359375" lon="-7.01893673278391361236572265625">
        <ele>873</ele>
        <time>2019-07-11T07:39:09.000Z</time>
      </trkpt>
      <trkpt lat="43.343956209719181060791015625" lon="-7.018520571291446685791015625">
        <ele>873.5999755859375</ele>
        <time>2019-07-11T07:39:12.000Z</time>
      </trkpt>
      <trkpt lat="43.34378966130316257476806640625" lon="-7.01810893602669239044189453125">
        <ele>874.79998779296875</ele>
        <time>2019-07-11T07:39:15.000Z</time>
      </trkpt>
      <trkpt lat="43.34360509179532527923583984375" lon="-7.017671652138233184814453125">
        <ele>876</ele>
        <time>2019-07-11T07:39:18.000Z</time>
      </trkpt>
      <trkpt lat="43.3433542214334011077880859375" lon="-7.01704443432390689849853515625">
        <ele>876.5999755859375</ele>
        <time>2019-07-11T07:39:22.000Z</time>
      </trkpt>
      <trkpt lat="43.343162946403026580810546875" lon="-7.01656465418636798858642578125">
        <ele>877.20001220703125</ele>
        <time>2019-07-11T07:39:25.000Z</time>
      </trkpt>
      <trkpt lat="43.34304132498800754547119140625" lon="-7.016266845166683197021484375">
        <ele>878.79998779296875</ele>
        <time>2019-07-11T07:39:27.000Z</time>
      </trkpt>
      <trkpt lat="43.34288827143609523773193359375" lon="-7.01585135422646999359130859375">
        <ele>880.20001220703125</ele>
        <time>2019-07-11T07:39:30.000Z</time>
      </trkpt>
      <trkpt lat="43.342826664447784423828125" lon="-7.01554541476070880889892578125">
        <ele>882.20001220703125</ele>
        <time>2019-07-11T07:39:32.000Z</time>
      </trkpt>
      <trkpt lat="43.342825658619403839111328125" lon="-7.01521240174770355224609375">
        <ele>883.20001220703125</ele>
        <time>2019-07-11T07:39:34.000Z</time>
      </trkpt>
      <trkpt lat="43.34289581514894962310791015625" lon="-7.0148937217891216278076171875">
        <ele>883.5999755859375</ele>
        <time>2019-07-11T07:39:36.000Z</time>
      </trkpt>
      <trkpt lat="43.3430196158587932586669921875" lon="-7.014629356563091278076171875">
        <ele>884.4000244140625</ele>
        <time>2019-07-11T07:39:38.000Z</time>
      </trkpt>
      <trkpt lat="43.3431953005492687225341796875" lon="-7.0144075714051723480224609375">
        <ele>885.4000244140625</ele>
        <time>2019-07-11T07:39:40.000Z</time>
      </trkpt>
      <trkpt lat="43.34339688532054424285888671875" lon="-7.01424605213105678558349609375">
        <ele>885.4000244140625</ele>
        <time>2019-07-11T07:39:42.000Z</time>
      </trkpt>
      <trkpt lat="43.343677930533885955810546875" lon="-7.0141450501978397369384765625">
        <ele>884.79998779296875</ele>
        <time>2019-07-11T07:39:45.000Z</time>
      </trkpt>
      <trkpt lat="43.34394405595958232879638671875" lon="-7.0141520909965038299560546875">
        <ele>883</ele>
        <time>2019-07-11T07:39:48.000Z</time>
      </trkpt>
      <trkpt lat="43.3442192338407039642333984375" lon="-7.01420548371970653533935546875">
        <ele>881.79998779296875</ele>
        <time>2019-07-11T07:39:51.000Z</time>
      </trkpt>
      <trkpt lat="43.3443965949118137359619140625" lon="-7.01424437575042247772216796875">
        <ele>880.4000244140625</ele>
        <time>2019-07-11T07:39:53.000Z</time>
      </trkpt>
      <trkpt lat="43.34456565789878368377685546875" lon="-7.014279328286647796630859375">
        <ele>879.20001220703125</ele>
        <time>2019-07-11T07:39:55.000Z</time>
      </trkpt>
      <trkpt lat="43.34489556960761547088623046875" lon="-7.01433456502854824066162109375">
        <ele>877.79998779296875</ele>
        <time>2019-07-11T07:39:59.000Z</time>
      </trkpt>
      <trkpt lat="43.3449776284396648406982421875" lon="-7.01433137990534305572509765625">
        <ele>877.20001220703125</ele>
        <time>2019-07-11T07:40:00.000Z</time>
      </trkpt>
      <trkpt lat="43.3450580947101116180419921875" lon="-7.014313526451587677001953125">
        <ele>876.79998779296875</ele>
        <time>2019-07-11T07:40:01.000Z</time>
      </trkpt>
      <trkpt lat="43.3451385609805583953857421875" lon="-7.01428142376244068145751953125">
        <ele>876.20001220703125</ele>
        <time>2019-07-11T07:40:02.000Z</time>
      </trkpt>
      <trkpt lat="43.3452998287975788116455078125" lon="-7.0141779072582721710205078125">
        <ele>875.5999755859375</ele>
        <time>2019-07-11T07:40:04.000Z</time>
      </trkpt>
      <trkpt lat="43.3454439975321292877197265625" lon="-7.0140072517096996307373046875">
        <ele>875</ele>
        <time>2019-07-11T07:40:06.000Z</time>
      </trkpt>
      <trkpt lat="43.3455040119588375091552734375" lon="-7.01390214264392852783203125">
        <ele>874.5999755859375</ele>
        <time>2019-07-11T07:40:07.000Z</time>
      </trkpt>
      <trkpt lat="43.34555438719689846038818359375" lon="-7.01378840021789073944091796875">
        <ele>874.20001220703125</ele>
        <time>2019-07-11T07:40:08.000Z</time>
      </trkpt>
      <trkpt lat="43.34561708383262157440185546875" lon="-7.0135398767888545989990234375">
        <ele>873.4000244140625</ele>
        <time>2019-07-11T07:40:10.000Z</time>
      </trkpt>
      <trkpt lat="43.34562999196350574493408203125" lon="-7.0132740028202533721923828125">
        <ele>872.4000244140625</ele>
        <time>2019-07-11T07:40:12.000Z</time>
      </trkpt>
      <trkpt lat="43.34557802416384220123291015625" lon="-7.01287929899990558624267578125">
        <ele>871.20001220703125</ele>
        <time>2019-07-11T07:40:15.000Z</time>
      </trkpt>
      <trkpt lat="43.34549789316952228546142578125" lon="-7.01247361488640308380126953125">
        <ele>869.5999755859375</ele>
        <time>2019-07-11T07:40:18.000Z</time>
      </trkpt>
      <trkpt lat="43.34546864032745361328125" lon="-7.0123278535902500152587890625">
        <ele>868.4000244140625</ele>
        <time>2019-07-11T07:40:19.000Z</time>
      </trkpt>
      <trkpt lat="43.34543905220925807952880859375" lon="-7.01217538677155971527099609375">
        <ele>867.4000244140625</ele>
        <time>2019-07-11T07:40:20.000Z</time>
      </trkpt>
      <trkpt lat="43.3453605137765407562255859375" lon="-7.0118621550500392913818359375">
        <ele>866</ele>
        <time>2019-07-11T07:40:22.000Z</time>
      </trkpt>
      <trkpt lat="43.3452324382960796356201171875" lon="-7.01156518422067165374755859375">
        <ele>865.20001220703125</ele>
        <time>2019-07-11T07:40:24.000Z</time>
      </trkpt>
      <trkpt lat="43.34507234394550323486328125" lon="-7.01129243709146976470947265625">
        <ele>864.79998779296875</ele>
        <time>2019-07-11T07:40:26.000Z</time>
      </trkpt>
      <trkpt lat="43.3449340425431728363037109375" lon="-7.01100996695458889007568359375">
        <ele>863.4000244140625</ele>
        <time>2019-07-11T07:40:28.000Z</time>
      </trkpt>
      <trkpt lat="43.34487344138324260711669921875" lon="-7.01070687733590602874755859375">
        <ele>861.79998779296875</ele>
        <time>2019-07-11T07:40:30.000Z</time>
      </trkpt>
      <trkpt lat="43.34487863816320896148681640625" lon="-7.0102923922240734100341796875">
        <ele>860.5999755859375</ele>
        <time>2019-07-11T07:40:33.000Z</time>
      </trkpt>
      <trkpt lat="43.34488182328641414642333984375" lon="-7.01016875915229320526123046875">
        <ele>860.4000244140625</ele>
        <time>2019-07-11T07:40:34.000Z</time>
      </trkpt>
      <trkpt lat="43.344937227666378021240234375" lon="-7.00996357016265392303466796875">
        <ele>860</ele>
        <time>2019-07-11T07:40:36.000Z</time>
      </trkpt>
      <trkpt lat="43.34505432285368442535400390625" lon="-7.00986868701875209808349609375">
        <ele>860</ele>
        <time>2019-07-11T07:40:38.000Z</time>
      </trkpt>
      <trkpt lat="43.34516848437488079071044921875" lon="-7.00992844998836517333984375">
        <ele>860</ele>
        <time>2019-07-11T07:40:40.000Z</time>
      </trkpt>
      <trkpt lat="43.34521341137588024139404296875" lon="-7.01011746190488338470458984375">
        <ele>860</ele>
        <time>2019-07-11T07:40:42.000Z</time>
      </trkpt>
      <trkpt lat="43.3452344499528408050537109375" lon="-7.01035601086914539337158203125">
        <ele>860</ele>
        <time>2019-07-11T07:40:44.000Z</time>
      </trkpt>
      <trkpt lat="43.34531449712812900543212890625" lon="-7.01056924648582935333251953125">
        <ele>860.20001220703125</ele>
        <time>2019-07-11T07:40:46.000Z</time>
      </trkpt>
      <trkpt lat="43.34555505774915218353271484375" lon="-7.0107007585465908050537109375">
        <ele>860.79998779296875</ele>
        <time>2019-07-11T07:40:53.000Z</time>
      </trkpt>
      <trkpt lat="43.34565513767302036285400390625" lon="-7.010627500712871551513671875">
        <ele>860.5999755859375</ele>
        <time>2019-07-11T07:40:57.000Z</time>
      </trkpt>
      <trkpt lat="43.34569394588470458984375" lon="-7.0106524787843227386474609375">
        <ele>859.79998779296875</ele>
        <time>2019-07-11T07:41:32.000Z</time>
      </trkpt>
      <trkpt lat="43.3457152359187602996826171875" lon="-7.01078600250184535980224609375">
        <ele>859.79998779296875</ele>
        <time>2019-07-11T07:43:09.000Z</time>
      </trkpt>
      <trkpt lat="43.34572009742259979248046875" lon="-7.01090603135526180267333984375">
        <ele>859.5999755859375</ele>
        <time>2019-07-11T07:43:11.000Z</time>
      </trkpt>
      <trkpt lat="43.34576779045164585113525390625" lon="-7.01120543293654918670654296875">
        <ele>859</ele>
        <time>2019-07-11T07:43:19.000Z</time>
      </trkpt>
      <trkpt lat="43.3458919264376163482666015625" lon="-7.01137810014188289642333984375">
        <ele>858.5999755859375</ele>
        <time>2019-07-11T07:43:22.000Z</time>
      </trkpt>
      <trkpt lat="43.346048332750797271728515625" lon="-7.0116217620670795440673828125">
        <ele>857.4000244140625</ele>
        <time>2019-07-11T07:43:25.000Z</time>
      </trkpt>
      <trkpt lat="43.3461732231080532073974609375" lon="-7.01181496493518352508544921875">
        <ele>856.20001220703125</ele>
        <time>2019-07-11T07:43:27.000Z</time>
      </trkpt>
      <trkpt lat="43.34631018340587615966796875" lon="-7.01203892938792705535888671875">
        <ele>855</ele>
        <time>2019-07-11T07:43:29.000Z</time>
      </trkpt>
      <trkpt lat="43.34644504822790622711181640625" lon="-7.0122988522052764892578125">
        <ele>853.79998779296875</ele>
        <time>2019-07-11T07:43:31.000Z</time>
      </trkpt>
      <trkpt lat="43.34662995301187038421630859375" lon="-7.01274971477687358856201171875">
        <ele>852.4000244140625</ele>
        <time>2019-07-11T07:43:34.000Z</time>
      </trkpt>
      <trkpt lat="43.34673472680151462554931640625" lon="-7.013073675334453582763671875">
        <ele>851</ele>
        <time>2019-07-11T07:43:36.000Z</time>
      </trkpt>
      <trkpt lat="43.34684335626661777496337890625" lon="-7.01339361257851123809814453125">
        <ele>849.79998779296875</ele>
        <time>2019-07-11T07:43:38.000Z</time>
      </trkpt>
      <trkpt lat="43.34697143174707889556884765625" lon="-7.0137034915387630462646484375">
        <ele>848.5999755859375</ele>
        <time>2019-07-11T07:43:40.000Z</time>
      </trkpt>
      <trkpt lat="43.34713303484022617340087890625" lon="-7.0140196569263935089111328125">
        <ele>846.79998779296875</ele>
        <time>2019-07-11T07:43:42.000Z</time>
      </trkpt>
      <trkpt lat="43.34723395295441150665283203125" lon="-7.0141772367060184478759765625">
        <ele>845.5999755859375</ele>
        <time>2019-07-11T07:43:43.000Z</time>
      </trkpt>
      <trkpt lat="43.34746311418712139129638671875" lon="-7.0144853554666042327880859375">
        <ele>844.20001220703125</ele>
        <time>2019-07-11T07:43:45.000Z</time>
      </trkpt>
      <trkpt lat="43.347859494388103485107421875" lon="-7.01486463658511638641357421875">
        <ele>842.5999755859375</ele>
        <time>2019-07-11T07:43:48.000Z</time>
      </trkpt>
      <trkpt lat="43.34816065616905689239501953125" lon="-7.01498365961015224456787109375">
        <ele>841</ele>
        <time>2019-07-11T07:43:50.000Z</time>
      </trkpt>
      <trkpt lat="43.34831169806420803070068359375" lon="-7.0150234736502170562744140625">
        <ele>840</ele>
        <time>2019-07-11T07:43:51.000Z</time>
      </trkpt>
      <trkpt lat="43.34846072830259799957275390625" lon="-7.0150714181363582611083984375">
        <ele>838.79998779296875</ele>
        <time>2019-07-11T07:43:52.000Z</time>
      </trkpt>
      <trkpt lat="43.34860355593264102935791015625" lon="-7.01514224521815776824951171875">
        <ele>838</ele>
        <time>2019-07-11T07:43:53.000Z</time>
      </trkpt>
      <trkpt lat="43.34873263724148273468017578125" lon="-7.015245594084262847900390625">
        <ele>836.79998779296875</ele>
        <time>2019-07-11T07:43:54.000Z</time>
      </trkpt>
      <trkpt lat="43.348843194544315338134765625" lon="-7.01537861488759517669677734375">
        <ele>835.5999755859375</ele>
        <time>2019-07-11T07:43:55.000Z</time>
      </trkpt>
      <trkpt lat="43.34902617149055004119873046875" lon="-7.015666700899600982666015625">
        <ele>834.20001220703125</ele>
        <time>2019-07-11T07:43:57.000Z</time>
      </trkpt>
      <trkpt lat="43.3491159416735172271728515625" lon="-7.0157778449356555938720703125">
        <ele>833.5999755859375</ele>
        <time>2019-07-11T07:43:58.000Z</time>
      </trkpt>
      <trkpt lat="43.34932456724345684051513671875" lon="-7.01589443720877170562744140625">
        <ele>832.5999755859375</ele>
        <time>2019-07-11T07:44:00.000Z</time>
      </trkpt>
      <trkpt lat="43.34956848062574863433837890625" lon="-7.0158769190311431884765625">
        <ele>831.20001220703125</ele>
        <time>2019-07-11T07:44:02.000Z</time>
      </trkpt>
      <trkpt lat="43.34969622083008289337158203125" lon="-7.01584674417972564697265625">
        <ele>829.79998779296875</ele>
        <time>2019-07-11T07:44:03.000Z</time>
      </trkpt>
      <trkpt lat="43.34982362575829029083251953125" lon="-7.01582402922213077545166015625">
        <ele>827.79998779296875</ele>
        <time>2019-07-11T07:44:04.000Z</time>
      </trkpt>
      <trkpt lat="43.34995907731354236602783203125" lon="-7.0158120431005954742431640625">
        <ele>826.20001220703125</ele>
        <time>2019-07-11T07:44:05.000Z</time>
      </trkpt>
      <trkpt lat="43.3502401225268840789794921875" lon="-7.01580525375902652740478515625">
        <ele>824.79998779296875</ele>
        <time>2019-07-11T07:44:07.000Z</time>
      </trkpt>
      <trkpt lat="43.35067489184439182281494140625" lon="-7.01582260429859161376953125">
        <ele>824.4000244140625</ele>
        <time>2019-07-11T07:44:10.000Z</time>
      </trkpt>
      <trkpt lat="43.35111142136156558990478515625" lon="-7.016007006168365478515625">
        <ele>824.20001220703125</ele>
        <time>2019-07-11T07:44:13.000Z</time>
      </trkpt>
      <trkpt lat="43.351373188197612762451171875" lon="-7.01620255596935749053955078125">
        <ele>823.79998779296875</ele>
        <time>2019-07-11T07:44:15.000Z</time>
      </trkpt>
      <trkpt lat="43.3515906147658824920654296875" lon="-7.0163568668067455291748046875">
        <ele>823</ele>
        <time>2019-07-11T07:44:17.000Z</time>
      </trkpt>
      <trkpt lat="43.351796977221965789794921875" lon="-7.01637857593595981597900390625">
        <ele>822.20001220703125</ele>
        <time>2019-07-11T07:44:19.000Z</time>
      </trkpt>
      <trkpt lat="43.35189613513648509979248046875" lon="-7.01633356511592864990234375">
        <ele>821</ele>
        <time>2019-07-11T07:44:20.000Z</time>
      </trkpt>
      <trkpt lat="43.3519909344613552093505859375" lon="-7.0162639953196048736572265625">
        <ele>820</ele>
        <time>2019-07-11T07:44:21.000Z</time>
      </trkpt>
      <trkpt lat="43.35208120755851268768310546875" lon="-7.0161848701536655426025390625">
        <ele>818.79998779296875</ele>
        <time>2019-07-11T07:44:22.000Z</time>
      </trkpt>
      <trkpt lat="43.3522705547511577606201171875" lon="-7.01602754183113574981689453125">
        <ele>817.4000244140625</ele>
        <time>2019-07-11T07:44:24.000Z</time>
      </trkpt>
      <trkpt lat="43.3525039069354534149169921875" lon="-7.01591706834733486175537109375">
        <ele>816.5999755859375</ele>
        <time>2019-07-11T07:44:26.000Z</time>
      </trkpt>
      <trkpt lat="43.352617062628269195556640625" lon="-7.0158851332962512969970703125">
        <ele>815.79998779296875</ele>
        <time>2019-07-11T07:44:27.000Z</time>
      </trkpt>
      <trkpt lat="43.35272460244596004486083984375" lon="-7.0158583112061023712158203125">
        <ele>814.79998779296875</ele>
        <time>2019-07-11T07:44:28.000Z</time>
      </trkpt>
      <trkpt lat="43.35283038206398487091064453125" lon="-7.015824615955352783203125">
        <ele>813.5999755859375</ele>
        <time>2019-07-11T07:44:29.000Z</time>
      </trkpt>
      <trkpt lat="43.35293398238718509674072265625" lon="-7.01578564010560512542724609375">
        <ele>812.4000244140625</ele>
        <time>2019-07-11T07:44:30.000Z</time>
      </trkpt>
      <trkpt lat="43.3530433662235736846923828125" lon="-7.0157443173229694366455078125">
        <ele>811.20001220703125</ele>
        <time>2019-07-11T07:44:31.000Z</time>
      </trkpt>
      <trkpt lat="43.35316163487732410430908203125" lon="-7.01570953242480754852294921875">
        <ele>810</ele>
        <time>2019-07-11T07:44:32.000Z</time>
      </trkpt>
      <trkpt lat="43.35328803397715091705322265625" lon="-7.01568606309592723846435546875">
        <ele>809</ele>
        <time>2019-07-11T07:44:33.000Z</time>
      </trkpt>
      <trkpt lat="43.35341543890535831451416015625" lon="-7.01567642390727996826171875">
        <ele>808.20001220703125</ele>
        <time>2019-07-11T07:44:34.000Z</time>
      </trkpt>
      <trkpt lat="43.353677876293659210205078125" lon="-7.0156977139413356781005859375">
        <ele>807.5999755859375</ele>
        <time>2019-07-11T07:44:36.000Z</time>
      </trkpt>
      <trkpt lat="43.3538091368973255157470703125" lon="-7.0157342590391635894775390625">
        <ele>807.20001220703125</ele>
        <time>2019-07-11T07:44:37.000Z</time>
      </trkpt>
      <trkpt lat="43.35407844744622707366943359375" lon="-7.01585344970226287841796875">
        <ele>806.20001220703125</ele>
        <time>2019-07-11T07:44:39.000Z</time>
      </trkpt>
      <trkpt lat="43.35420660674571990966796875" lon="-7.0159421302378177642822265625">
        <ele>805.79998779296875</ele>
        <time>2019-07-11T07:44:40.000Z</time>
      </trkpt>
      <trkpt lat="43.35432454012334346771240234375" lon="-7.01605604030191898345947265625">
        <ele>805</ele>
        <time>2019-07-11T07:44:41.000Z</time>
      </trkpt>
      <trkpt lat="43.35443668998777866363525390625" lon="-7.01619300059974193572998046875">
        <ele>803.79998779296875</ele>
        <time>2019-07-11T07:44:42.000Z</time>
      </trkpt>
      <trkpt lat="43.35454531945288181304931640625" lon="-7.01634203083813190460205078125">
        <ele>802.5999755859375</ele>
        <time>2019-07-11T07:44:43.000Z</time>
      </trkpt>
      <trkpt lat="43.35477783344686031341552734375" lon="-7.01662047766149044036865234375">
        <ele>801.20001220703125</ele>
        <time>2019-07-11T07:44:45.000Z</time>
      </trkpt>
      <trkpt lat="43.35504387505352497100830078125" lon="-7.016832120716571807861328125">
        <ele>800</ele>
        <time>2019-07-11T07:44:47.000Z</time>
      </trkpt>
      <trkpt lat="43.3553242497146129608154296875" lon="-7.01700436882674694061279296875">
        <ele>798.5999755859375</ele>
        <time>2019-07-11T07:44:49.000Z</time>
      </trkpt>
      <trkpt lat="43.355619795620441436767578125" lon="-7.01715440489351749420166015625">
        <ele>797.4000244140625</ele>
        <time>2019-07-11T07:44:51.000Z</time>
      </trkpt>
      <trkpt lat="43.35592514835298061370849609375" lon="-7.01728038489818572998046875">
        <ele>796</ele>
        <time>2019-07-11T07:44:53.000Z</time>
      </trkpt>
      <trkpt lat="43.35620895959436893463134765625" lon="-7.01740368269383907318115234375">
        <ele>793.79998779296875</ele>
        <time>2019-07-11T07:44:55.000Z</time>
      </trkpt>
      <trkpt lat="43.35632697679102420806884765625" lon="-7.0175021700561046600341796875">
        <ele>792.20001220703125</ele>
        <time>2019-07-11T07:44:56.000Z</time>
      </trkpt>
      <trkpt lat="43.3564340136945247650146484375" lon="-7.01762228272855281829833984375">
        <ele>790</ele>
        <time>2019-07-11T07:44:57.000Z</time>
      </trkpt>
      <trkpt lat="43.35653903894126415252685546875" lon="-7.01774382032454013824462890625">
        <ele>788.4000244140625</ele>
        <time>2019-07-11T07:44:58.000Z</time>
      </trkpt>
      <trkpt lat="43.3566516079008579254150390625" lon="-7.0178414694964885711669921875">
        <ele>787.20001220703125</ele>
        <time>2019-07-11T07:44:59.000Z</time>
      </trkpt>
      <trkpt lat="43.35690080188214778900146484375" lon="-7.01791782863438129425048828125">
        <ele>786.5999755859375</ele>
        <time>2019-07-11T07:45:01.000Z</time>
      </trkpt>
      <trkpt lat="43.35733917541801929473876953125" lon="-7.0177717320621013641357421875">
        <ele>786.4000244140625</ele>
        <time>2019-07-11T07:45:04.000Z</time>
      </trkpt>
      <trkpt lat="43.35782247595489025115966796875" lon="-7.01762412674725055694580078125">
        <ele>787</ele>
        <time>2019-07-11T07:45:07.000Z</time>
      </trkpt>
      <trkpt lat="43.35828758776187896728515625" lon="-7.0174981467425823211669921875">
        <ele>787.4000244140625</ele>
        <time>2019-07-11T07:45:10.000Z</time>
      </trkpt>
      <trkpt lat="43.35843980312347412109375" lon="-7.01745665632188320159912109375">
        <ele>786.20001220703125</ele>
        <time>2019-07-11T07:45:11.000Z</time>
      </trkpt>
      <trkpt lat="43.35874892771244049072265625" lon="-7.01737702824175357818603515625">
        <ele>783.79998779296875</ele>
        <time>2019-07-11T07:45:13.000Z</time>
      </trkpt>
      <trkpt lat="43.3589006401598453521728515625" lon="-7.017337717115879058837890625">
        <ele>782.4000244140625</ele>
        <time>2019-07-11T07:45:14.000Z</time>
      </trkpt>
      <trkpt lat="43.35904933512210845947265625" lon="-7.017299495637416839599609375">
        <ele>781.20001220703125</ele>
        <time>2019-07-11T07:45:15.000Z</time>
      </trkpt>
      <trkpt lat="43.35933792404830455780029296875" lon="-7.01722464524209499359130859375">
        <ele>779.79998779296875</ele>
        <time>2019-07-11T07:45:17.000Z</time>
      </trkpt>
      <trkpt lat="43.35975936613976955413818359375" lon="-7.0171239785850048065185546875">
        <ele>778.79998779296875</ele>
        <time>2019-07-11T07:45:20.000Z</time>
      </trkpt>
      <trkpt lat="43.359905295073986053466796875" lon="-7.01711584813892841339111328125">
        <ele>777.20001220703125</ele>
        <time>2019-07-11T07:45:21.000Z</time>
      </trkpt>
      <trkpt lat="43.3600556664168834686279296875" lon="-7.01712842099368572235107421875">
        <ele>774.79998779296875</ele>
        <time>2019-07-11T07:45:22.000Z</time>
      </trkpt>
      <trkpt lat="43.36020939052104949951171875" lon="-7.017158679664134979248046875">
        <ele>771.5999755859375</ele>
        <time>2019-07-11T07:45:23.000Z</time>
      </trkpt>
      <trkpt lat="43.3603631146252155303955078125" lon="-7.01720972545444965362548828125">
        <ele>768.79998779296875</ele>
        <time>2019-07-11T07:45:24.000Z</time>
      </trkpt>
      <trkpt lat="43.36051382124423980712890625" lon="-7.01727761887013912200927734375">
        <ele>766.79998779296875</ele>
        <time>2019-07-11T07:45:25.000Z</time>
      </trkpt>
      <trkpt lat="43.360800482332706451416015625" lon="-7.01743955723941326141357421875">
        <ele>765.20001220703125</ele>
        <time>2019-07-11T07:45:27.000Z</time>
      </trkpt>
      <trkpt lat="43.36093568243086338043212890625" lon="-7.0175410620868206024169921875">
        <ele>764.5999755859375</ele>
        <time>2019-07-11T07:45:28.000Z</time>
      </trkpt>
      <trkpt lat="43.361062668263912200927734375" lon="-7.01766653917729854583740234375">
        <ele>764.20001220703125</ele>
        <time>2019-07-11T07:45:29.000Z</time>
      </trkpt>
      <trkpt lat="43.3611805178225040435791015625" lon="-7.017813809216022491455078125">
        <ele>763.79998779296875</ele>
        <time>2019-07-11T07:45:30.000Z</time>
      </trkpt>
      <trkpt lat="43.36140406318008899688720703125" lon="-7.0181435532867908477783203125">
        <ele>763</ele>
        <time>2019-07-11T07:45:32.000Z</time>
      </trkpt>
      <trkpt lat="43.3616411872208118438720703125" lon="-7.01845192350447177886962890625">
        <ele>761.5999755859375</ele>
        <time>2019-07-11T07:45:34.000Z</time>
      </trkpt>
      <trkpt lat="43.3617603778839111328125" lon="-7.01859198510646820068359375">
        <ele>760.20001220703125</ele>
        <time>2019-07-11T07:45:35.000Z</time>
      </trkpt>
      <trkpt lat="43.36187982000410556793212890625" lon="-7.01872316189110279083251953125">
        <ele>759</ele>
        <time>2019-07-11T07:45:36.000Z</time>
      </trkpt>
      <trkpt lat="43.36212624795734882354736328125" lon="-7.0189659856259822845458984375">
        <ele>757.79998779296875</ele>
        <time>2019-07-11T07:45:38.000Z</time>
      </trkpt>
      <trkpt lat="43.36255623959004878997802734375" lon="-7.01932883821427822113037109375">
        <ele>756.20001220703125</ele>
        <time>2019-07-11T07:45:41.000Z</time>
      </trkpt>
      <trkpt lat="43.36285027675330638885498046875" lon="-7.019586078822612762451171875">
        <ele>754.20001220703125</ele>
        <time>2019-07-11T07:45:43.000Z</time>
      </trkpt>
      <trkpt lat="43.3632166497409343719482421875" lon="-7.01997759751975536346435546875">
        <ele>753.20001220703125</ele>
        <time>2019-07-11T07:45:46.000Z</time>
      </trkpt>
      <trkpt lat="43.36341328918933868408203125" lon="-7.02027079649269580841064453125">
        <ele>753.4000244140625</ele>
        <time>2019-07-11T07:45:48.000Z</time>
      </trkpt>
      <trkpt lat="43.36354278959333896636962890625" lon="-7.020588554441928863525390625">
        <ele>752.20001220703125</ele>
        <time>2019-07-11T07:45:50.000Z</time>
      </trkpt>
      <trkpt lat="43.36358838714659214019775390625" lon="-7.02074311673641204833984375">
        <ele>750</ele>
        <time>2019-07-11T07:45:51.000Z</time>
      </trkpt>
      <trkpt lat="43.3636411093175411224365234375" lon="-7.0208830945193767547607421875">
        <ele>747.5999755859375</ele>
        <time>2019-07-11T07:45:52.000Z</time>
      </trkpt>
      <trkpt lat="43.36371327750384807586669921875" lon="-7.02099918387830257415771484375">
        <ele>746.20001220703125</ele>
        <time>2019-07-11T07:45:53.000Z</time>
      </trkpt>
      <trkpt lat="43.3638064004480838775634765625" lon="-7.02108887024223804473876953125">
        <ele>745</ele>
        <time>2019-07-11T07:45:54.000Z</time>
      </trkpt>
      <trkpt lat="43.3640317060053348541259765625" lon="-7.02118677087128162384033203125">
        <ele>744.20001220703125</ele>
        <time>2019-07-11T07:45:56.000Z</time>
      </trkpt>
      <trkpt lat="43.3641584403812885284423828125" lon="-7.0211979188024997711181640625">
        <ele>744</ele>
        <time>2019-07-11T07:45:57.000Z</time>
      </trkpt>
      <trkpt lat="43.3642955683171749114990234375" lon="-7.02117897570133209228515625">
        <ele>743.79998779296875</ele>
        <time>2019-07-11T07:45:58.000Z</time>
      </trkpt>
      <trkpt lat="43.364590108394622802734375" lon="-7.021090127527713775634765625">
        <ele>743</ele>
        <time>2019-07-11T07:46:00.000Z</time>
      </trkpt>
      <trkpt lat="43.364904932677745819091796875" lon="-7.0209704339504241943359375">
        <ele>740.79998779296875</ele>
        <time>2019-07-11T07:46:02.000Z</time>
      </trkpt>
      <trkpt lat="43.365063183009624481201171875" lon="-7.0208961702883243560791015625">
        <ele>738.79998779296875</ele>
        <time>2019-07-11T07:46:03.000Z</time>
      </trkpt>
      <trkpt lat="43.36521749384701251983642578125" lon="-7.0208140276372432708740234375">
        <ele>737.5999755859375</ele>
        <time>2019-07-11T07:46:04.000Z</time>
      </trkpt>
      <trkpt lat="43.36553349159657955169677734375" lon="-7.02063188888132572174072265625">
        <ele>735.79998779296875</ele>
        <time>2019-07-11T07:46:06.000Z</time>
      </trkpt>
      <trkpt lat="43.36585342884063720703125" lon="-7.02045754529535770416259765625">
        <ele>734.79998779296875</ele>
        <time>2019-07-11T07:46:08.000Z</time>
      </trkpt>
      <trkpt lat="43.36600136943161487579345703125" lon="-7.020386047661304473876953125">
        <ele>733.5999755859375</ele>
        <time>2019-07-11T07:46:09.000Z</time>
      </trkpt>
      <trkpt lat="43.36615157313644886016845703125" lon="-7.0203342474997043609619140625">
        <ele>732</ele>
        <time>2019-07-11T07:46:10.000Z</time>
      </trkpt>
      <trkpt lat="43.3663053810596466064453125" lon="-7.02031153254210948944091796875">
        <ele>730.5999755859375</ele>
        <time>2019-07-11T07:46:11.000Z</time>
      </trkpt>
      <trkpt lat="43.36645466275513172149658203125" lon="-7.02032427303493022918701171875">
        <ele>729.79998779296875</ele>
        <time>2019-07-11T07:46:12.000Z</time>
      </trkpt>
      <trkpt lat="43.36660235188901424407958984375" lon="-7.02037272043526172637939453125">
        <ele>729.4000244140625</ele>
        <time>2019-07-11T07:46:13.000Z</time>
      </trkpt>
      <trkpt lat="43.36674165911972522735595703125" lon="-7.02045653946697711944580078125">
        <ele>729</ele>
        <time>2019-07-11T07:46:14.000Z</time>
      </trkpt>
      <trkpt lat="43.3668657951056957244873046875" lon="-7.0205681025981903076171875">
        <ele>728.4000244140625</ele>
        <time>2019-07-11T07:46:15.000Z</time>
      </trkpt>
      <trkpt lat="43.36697434075176715850830078125" lon="-7.02070598490536212921142578125">
        <ele>727.5999755859375</ele>
        <time>2019-07-11T07:46:16.000Z</time>
      </trkpt>
      <trkpt lat="43.36706704460084438323974609375" lon="-7.02085451222956180572509765625">
        <ele>726.79998779296875</ele>
        <time>2019-07-11T07:46:17.000Z</time>
      </trkpt>
      <trkpt lat="43.3672280609607696533203125" lon="-7.0211392454802989959716796875">
        <ele>726</ele>
        <time>2019-07-11T07:46:19.000Z</time>
      </trkpt>
      <trkpt lat="43.3673147298395633697509765625" lon="-7.02123253606259822845458984375">
        <ele>725.5999755859375</ele>
        <time>2019-07-11T07:46:20.000Z</time>
      </trkpt>
      <trkpt lat="43.3674042485654354095458984375" lon="-7.02128886245191097259521484375">
        <ele>724.79998779296875</ele>
        <time>2019-07-11T07:46:21.000Z</time>
      </trkpt>
      <trkpt lat="43.36760298348963260650634765625" lon="-7.02132239006459712982177734375">
        <ele>724</ele>
        <time>2019-07-11T07:46:23.000Z</time>
      </trkpt>
      <trkpt lat="43.36782778613269329071044921875" lon="-7.02121409587562084197998046875">
        <ele>723.4000244140625</ele>
        <time>2019-07-11T07:46:25.000Z</time>
      </trkpt>
      <trkpt lat="43.367945216596126556396484375" lon="-7.02112801373004913330078125">
        <ele>722.79998779296875</ele>
        <time>2019-07-11T07:46:26.000Z</time>
      </trkpt>
      <trkpt lat="43.368073962628841400146484375" lon="-7.02104880474507808685302734375">
        <ele>721.79998779296875</ele>
        <time>2019-07-11T07:46:27.000Z</time>
      </trkpt>
      <trkpt lat="43.3682082407176494598388671875" lon="-7.02100086025893688201904296875">
        <ele>720.4000244140625</ele>
        <time>2019-07-11T07:46:28.000Z</time>
      </trkpt>
      <trkpt lat="43.36835467256605625152587890625" lon="-7.0209923945367336273193359375">
        <ele>719.20001220703125</ele>
        <time>2019-07-11T07:46:29.000Z</time>
      </trkpt>
      <trkpt lat="43.36865625344216823577880859375" lon="-7.02109138481318950653076171875">
        <ele>717.5999755859375</ele>
        <time>2019-07-11T07:46:31.000Z</time>
      </trkpt>
      <trkpt lat="43.36893327534198760986328125" lon="-7.0213102363049983978271484375">
        <ele>716</ele>
        <time>2019-07-11T07:46:33.000Z</time>
      </trkpt>
      <trkpt lat="43.36906780488789081573486328125" lon="-7.02142833732068538665771484375">
        <ele>714.5999755859375</ele>
        <time>2019-07-11T07:46:34.000Z</time>
      </trkpt>
      <trkpt lat="43.36919906549155712127685546875" lon="-7.02153143472969532012939453125">
        <ele>713.4000244140625</ele>
        <time>2019-07-11T07:46:35.000Z</time>
      </trkpt>
      <trkpt lat="43.369476757943630218505859375" lon="-7.02166889794170856475830078125">
        <ele>712.20001220703125</ele>
        <time>2019-07-11T07:46:37.000Z</time>
      </trkpt>
      <trkpt lat="43.36990364827215671539306640625" lon="-7.02185765840113162994384765625">
        <ele>711.20001220703125</ele>
        <time>2019-07-11T07:46:40.000Z</time>
      </trkpt>
      <trkpt lat="43.37003859691321849822998046875" lon="-7.02194985933601856231689453125">
        <ele>710.4000244140625</ele>
        <time>2019-07-11T07:46:41.000Z</time>
      </trkpt>
      <trkpt lat="43.37017237208783626556396484375" lon="-7.0220351032912731170654296875">
        <ele>709.20001220703125</ele>
        <time>2019-07-11T07:46:42.000Z</time>
      </trkpt>
      <trkpt lat="43.37030514143407344818115234375" lon="-7.022091262042522430419921875">
        <ele>708.4000244140625</ele>
        <time>2019-07-11T07:46:43.000Z</time>
      </trkpt>
      <trkpt lat="43.37044059298932552337646484375" lon="-7.02211883850395679473876953125">
        <ele>707.5999755859375</ele>
        <time>2019-07-11T07:46:44.000Z</time>
      </trkpt>
      <trkpt lat="43.370582498610019683837890625" lon="-7.02211967669427394866943359375">
        <ele>707</ele>
        <time>2019-07-11T07:46:45.000Z</time>
      </trkpt>
      <trkpt lat="43.37072901427745819091796875" lon="-7.02210341580212116241455078125">
        <ele>706.20001220703125</ele>
        <time>2019-07-11T07:46:46.000Z</time>
      </trkpt>
      <trkpt lat="43.37101844139397144317626953125" lon="-7.02203501947224140167236328125">
        <ele>705</ele>
        <time>2019-07-11T07:46:48.000Z</time>
      </trkpt>
      <trkpt lat="43.3712964691221714019775390625" lon="-7.021923959255218505859375">
        <ele>703.20001220703125</ele>
        <time>2019-07-11T07:46:50.000Z</time>
      </trkpt>
      <trkpt lat="43.37159939110279083251953125" lon="-7.02178792096674442291259765625">
        <ele>701.5999755859375</ele>
        <time>2019-07-11T07:46:52.000Z</time>
      </trkpt>
      <trkpt lat="43.37192452512681484222412109375" lon="-7.02165146358311176300048828125">
        <ele>700</ele>
        <time>2019-07-11T07:46:54.000Z</time>
      </trkpt>
      <trkpt lat="43.37226700969040393829345703125" lon="-7.021503187716007232666015625">
        <ele>699</ele>
        <time>2019-07-11T07:46:56.000Z</time>
      </trkpt>
      <trkpt lat="43.37244185619056224822998046875" lon="-7.0214262418448925018310546875">
        <ele>697.79998779296875</ele>
        <time>2019-07-11T07:46:57.000Z</time>
      </trkpt>
      <trkpt lat="43.37260982953011989593505859375" lon="-7.0213538222014904022216796875">
        <ele>696.20001220703125</ele>
        <time>2019-07-11T07:46:58.000Z</time>
      </trkpt>
      <trkpt lat="43.37277688086032867431640625" lon="-7.0212931372225284576416015625">
        <ele>694.4000244140625</ele>
        <time>2019-07-11T07:46:59.000Z</time>
      </trkpt>
      <trkpt lat="43.3729406632483005523681640625" lon="-7.02125550247728824615478515625">
        <ele>693</ele>
        <time>2019-07-11T07:47:00.000Z</time>
      </trkpt>
      <trkpt lat="43.3731089718639850616455078125" lon="-7.0212502218782901763916015625">
        <ele>691.79998779296875</ele>
        <time>2019-07-11T07:47:01.000Z</time>
      </trkpt>
      <trkpt lat="43.37327853776514530181884765625" lon="-7.02127595432102680206298828125">
        <ele>690.79998779296875</ele>
        <time>2019-07-11T07:47:02.000Z</time>
      </trkpt>
      <trkpt lat="43.3734481036663055419921875" lon="-7.0213213004171848297119140625">
        <ele>689.79998779296875</ele>
        <time>2019-07-11T07:47:03.000Z</time>
      </trkpt>
      <trkpt lat="43.37361817248165607452392578125" lon="-7.0213652215898036956787109375">
        <ele>688.79998779296875</ele>
        <time>2019-07-11T07:47:04.000Z</time>
      </trkpt>
      <trkpt lat="43.37378941476345062255859375" lon="-7.0213861763477325439453125">
        <ele>687</ele>
        <time>2019-07-11T07:47:05.000Z</time>
      </trkpt>
      <trkpt lat="43.3739604055881500244140625" lon="-7.02136781997978687286376953125">
        <ele>685.20001220703125</ele>
        <time>2019-07-11T07:47:06.000Z</time>
      </trkpt>
      <trkpt lat="43.37412863038480281829833984375" lon="-7.02132775448262691497802734375">
        <ele>683.5999755859375</ele>
        <time>2019-07-11T07:47:07.000Z</time>
      </trkpt>
      <trkpt lat="43.3742975257337093353271484375" lon="-7.02126882970333099365234375">
        <ele>682</ele>
        <time>2019-07-11T07:47:08.000Z</time>
      </trkpt>
      <trkpt lat="43.37447069585323333740234375" lon="-7.021204121410846710205078125">
        <ele>680.4000244140625</ele>
        <time>2019-07-11T07:47:09.000Z</time>
      </trkpt>
      <trkpt lat="43.37464478798210620880126953125" lon="-7.02113899402320384979248046875">
        <ele>679</ele>
        <time>2019-07-11T07:47:10.000Z</time>
      </trkpt>
      <trkpt lat="43.37481644935905933380126953125" lon="-7.02107545919716358184814453125">
        <ele>677.4000244140625</ele>
        <time>2019-07-11T07:47:11.000Z</time>
      </trkpt>
      <trkpt lat="43.37498576380312442779541015625" lon="-7.021000944077968597412109375">
        <ele>675.4000244140625</ele>
        <time>2019-07-11T07:47:12.000Z</time>
      </trkpt>
      <trkpt lat="43.37515273131430149078369140625" lon="-7.0209181308746337890625">
        <ele>673.4000244140625</ele>
        <time>2019-07-11T07:47:13.000Z</time>
      </trkpt>
      <trkpt lat="43.37531751953065395355224609375" lon="-7.0208351500332355499267578125">
        <ele>671.20001220703125</ele>
        <time>2019-07-11T07:47:14.000Z</time>
      </trkpt>
      <trkpt lat="43.3754844032227993011474609375" lon="-7.02075376175343990325927734375">
        <ele>669.20001220703125</ele>
        <time>2019-07-11T07:47:15.000Z</time>
      </trkpt>
      <trkpt lat="43.37564885616302490234375" lon="-7.020677737891674041748046875">
        <ele>667</ele>
        <time>2019-07-11T07:47:16.000Z</time>
      </trkpt>
      <trkpt lat="43.37581180036067962646484375" lon="-7.02060925774276256561279296875">
        <ele>665.20001220703125</ele>
        <time>2019-07-11T07:47:17.000Z</time>
      </trkpt>
      <trkpt lat="43.37597616948187351226806640625" lon="-7.02054622583091259002685546875">
        <ele>663.5999755859375</ele>
        <time>2019-07-11T07:47:18.000Z</time>
      </trkpt>
      <trkpt lat="43.37614481337368488311767578125" lon="-7.02049224637448787689208984375">
        <ele>662.20001220703125</ele>
        <time>2019-07-11T07:47:19.000Z</time>
      </trkpt>
      <trkpt lat="43.3763209171593189239501953125" lon="-7.02044681645929813385009765625">
        <ele>660.4000244140625</ele>
        <time>2019-07-11T07:47:20.000Z</time>
      </trkpt>
      <trkpt lat="43.376509845256805419921875" lon="-7.02040876261889934539794921875">
        <ele>658.4000244140625</ele>
        <time>2019-07-11T07:47:21.000Z</time>
      </trkpt>
      <trkpt lat="43.3767001144587993621826171875" lon="-7.02038059942424297332763671875">
        <ele>655.79998779296875</ele>
        <time>2019-07-11T07:47:22.000Z</time>
      </trkpt>
      <trkpt lat="43.3768939040601253509521484375" lon="-7.02035595662891864776611328125">
        <ele>653.4000244140625</ele>
        <time>2019-07-11T07:47:23.000Z</time>
      </trkpt>
      <trkpt lat="43.37709565646946430206298828125" lon="-7.02032930217683315277099609375">
        <ele>651</ele>
        <time>2019-07-11T07:47:24.000Z</time>
      </trkpt>
      <trkpt lat="43.3772945590317249298095703125" lon="-7.02030549757182598114013671875">
        <ele>648.79998779296875</ele>
        <time>2019-07-11T07:47:25.000Z</time>
      </trkpt>
      <trkpt lat="43.37748575024306774139404296875" lon="-7.0202775858342647552490234375">
        <ele>646.79998779296875</ele>
        <time>2019-07-11T07:47:26.000Z</time>
      </trkpt>
      <trkpt lat="43.37767350487411022186279296875" lon="-7.02024414204061031341552734375">
        <ele>644.5999755859375</ele>
        <time>2019-07-11T07:47:27.000Z</time>
      </trkpt>
      <trkpt lat="43.37785354815423488616943359375" lon="-7.02020172961056232452392578125">
        <ele>642.20001220703125</ele>
        <time>2019-07-11T07:47:28.000Z</time>
      </trkpt>
      <trkpt lat="43.37802998721599578857421875" lon="-7.02014959417283535003662109375">
        <ele>639.5999755859375</ele>
        <time>2019-07-11T07:47:29.000Z</time>
      </trkpt>
      <trkpt lat="43.37820324115455150604248046875" lon="-7.0200826227664947509765625">
        <ele>636.79998779296875</ele>
        <time>2019-07-11T07:47:30.000Z</time>
      </trkpt>
      <trkpt lat="43.3783724717795848846435546875" lon="-7.01999746263027191162109375">
        <ele>634.4000244140625</ele>
        <time>2019-07-11T07:47:31.000Z</time>
      </trkpt>
      <trkpt lat="43.3785347454249858856201171875" lon="-7.0198963768780231475830078125">
        <ele>632.4000244140625</ele>
        <time>2019-07-11T07:47:32.000Z</time>
      </trkpt>
      <trkpt lat="43.37869249284267425537109375" lon="-7.01977752149105072021484375">
        <ele>630.5999755859375</ele>
        <time>2019-07-11T07:47:33.000Z</time>
      </trkpt>
      <trkpt lat="43.378843702375888824462890625" lon="-7.01964064501225948333740234375">
        <ele>629.20001220703125</ele>
        <time>2019-07-11T07:47:34.000Z</time>
      </trkpt>
      <trkpt lat="43.37899114005267620086669921875" lon="-7.01948289759457111358642578125">
        <ele>627.79998779296875</ele>
        <time>2019-07-11T07:47:35.000Z</time>
      </trkpt>
      <trkpt lat="43.3791355602443218231201171875" lon="-7.01931081712245941162109375">
        <ele>626.5999755859375</ele>
        <time>2019-07-11T07:47:36.000Z</time>
      </trkpt>
      <trkpt lat="43.3792770467698574066162109375" lon="-7.0191259123384952545166015625">
        <ele>624.5999755859375</ele>
        <time>2019-07-11T07:47:37.000Z</time>
      </trkpt>
      <trkpt lat="43.37941342033445835113525390625" lon="-7.01893270947039127349853515625">
        <ele>622.20001220703125</ele>
        <time>2019-07-11T07:47:38.000Z</time>
      </trkpt>
      <trkpt lat="43.37954451330006122589111328125" lon="-7.0187413506209850311279296875">
        <ele>619.20001220703125</ele>
        <time>2019-07-11T07:47:39.000Z</time>
      </trkpt>
      <trkpt lat="43.37967376224696636199951171875" lon="-7.018558122217655181884765625">
        <ele>617</ele>
        <time>2019-07-11T07:47:40.000Z</time>
      </trkpt>
      <trkpt lat="43.37980351410806179046630859375" lon="-7.01837816275656223297119140625">
        <ele>615</ele>
        <time>2019-07-11T07:47:41.000Z</time>
      </trkpt>
      <trkpt lat="43.3799301646649837493896484375" lon="-7.01819929294288158416748046875">
        <ele>612.5999755859375</ele>
        <time>2019-07-11T07:47:42.000Z</time>
      </trkpt>
      <trkpt lat="43.3800548873841762542724609375" lon="-7.018021680414676666259765625">
        <ele>609.79998779296875</ele>
        <time>2019-07-11T07:47:43.000Z</time>
      </trkpt>
      <trkpt lat="43.38017751462757587432861328125" lon="-7.01784473843872547149658203125">
        <ele>607.20001220703125</ele>
        <time>2019-07-11T07:47:44.000Z</time>
      </trkpt>
      <trkpt lat="43.380299471318721771240234375" lon="-7.01767290942370891571044921875">
        <ele>605.4000244140625</ele>
        <time>2019-07-11T07:47:45.000Z</time>
      </trkpt>
      <trkpt lat="43.3804246969521045684814453125" lon="-7.0175118930637836456298828125">
        <ele>603.5999755859375</ele>
        <time>2019-07-11T07:47:46.000Z</time>
      </trkpt>
      <trkpt lat="43.380558304488658905029296875" lon="-7.01737132854759693145751953125">
        <ele>601.79998779296875</ele>
        <time>2019-07-11T07:47:47.000Z</time>
      </trkpt>
      <trkpt lat="43.38070146739482879638671875" lon="-7.01725850813090801239013671875">
        <ele>600.5999755859375</ele>
        <time>2019-07-11T07:47:48.000Z</time>
      </trkpt>
      <trkpt lat="43.38085359893739223480224609375" lon="-7.01717443764209747314453125">
        <ele>599</ele>
        <time>2019-07-11T07:47:49.000Z</time>
      </trkpt>
      <trkpt lat="43.38101469911634922027587890625" lon="-7.01712473295629024505615234375">
        <ele>597.4000244140625</ele>
        <time>2019-07-11T07:47:50.000Z</time>
      </trkpt>
      <trkpt lat="43.38118334300816059112548828125" lon="-7.01711165718734264373779296875">
        <ele>596</ele>
        <time>2019-07-11T07:47:51.000Z</time>
      </trkpt>
      <trkpt lat="43.38134762831032276153564453125" lon="-7.01714091002941131591796875">
        <ele>594.4000244140625</ele>
        <time>2019-07-11T07:47:52.000Z</time>
      </trkpt>
      <trkpt lat="43.38150017894804477691650390625" lon="-7.01720855198800563812255859375">
        <ele>592.5999755859375</ele>
        <time>2019-07-11T07:47:53.000Z</time>
      </trkpt>
      <trkpt lat="43.38164292275905609130859375" lon="-7.01730041764676570892333984375">
        <ele>590.4000244140625</ele>
        <time>2019-07-11T07:47:54.000Z</time>
      </trkpt>
      <trkpt lat="43.381778039038181304931640625" lon="-7.01741474680602550506591796875">
        <ele>588.20001220703125</ele>
        <time>2019-07-11T07:47:55.000Z</time>
      </trkpt>
      <trkpt lat="43.38189932517707347869873046875" lon="-7.01755874790251255035400390625">
        <ele>586.5999755859375</ele>
        <time>2019-07-11T07:47:56.000Z</time>
      </trkpt>
      <trkpt lat="43.3820041827857494354248046875" lon="-7.01771733351051807403564453125">
        <ele>584.79998779296875</ele>
        <time>2019-07-11T07:47:57.000Z</time>
      </trkpt>
      <trkpt lat="43.38209244422614574432373046875" lon="-7.01789150945842266082763671875">
        <ele>582.79998779296875</ele>
        <time>2019-07-11T07:47:58.000Z</time>
      </trkpt>
      <trkpt lat="43.3821706473827362060546875" lon="-7.01807188801467418670654296875">
        <ele>580.79998779296875</ele>
        <time>2019-07-11T07:47:59.000Z</time>
      </trkpt>
      <trkpt lat="43.38226561434566974639892578125" lon="-7.01825612224638462066650390625">
        <ele>578.79998779296875</ele>
        <time>2019-07-11T07:48:00.000Z</time>
      </trkpt>
      <trkpt lat="43.3823572285473346710205078125" lon="-7.01842476613819599151611328125">
        <ele>577.79998779296875</ele>
        <time>2019-07-11T07:48:01.000Z</time>
      </trkpt>
      <trkpt lat="43.38247382082045078277587890625" lon="-7.018559463322162628173828125">
        <ele>576.79998779296875</ele>
        <time>2019-07-11T07:48:02.000Z</time>
      </trkpt>
      <trkpt lat="43.38271136395633220672607421875" lon="-7.01872852630913257598876953125">
        <ele>575.5999755859375</ele>
        <time>2019-07-11T07:48:04.000Z</time>
      </trkpt>
      <trkpt lat="43.38301948271691799163818359375" lon="-7.01875367201864719390869140625">
        <ele>574.5999755859375</ele>
        <time>2019-07-11T07:48:06.000Z</time>
      </trkpt>
      <trkpt lat="43.38317337445914745330810546875" lon="-7.018741182982921600341796875">
        <ele>574</ele>
        <time>2019-07-11T07:48:07.000Z</time>
      </trkpt>
      <trkpt lat="43.38348333723843097686767578125" lon="-7.0186521671712398529052734375">
        <ele>573</ele>
        <time>2019-07-11T07:48:09.000Z</time>
      </trkpt>
      <trkpt lat="43.383636139333248138427734375" lon="-7.01857723295688629150390625">
        <ele>572.20001220703125</ele>
        <time>2019-07-11T07:48:10.000Z</time>
      </trkpt>
      <trkpt lat="43.38379112072288990020751953125" lon="-7.018480002880096435546875">
        <ele>571.5999755859375</ele>
        <time>2019-07-11T07:48:11.000Z</time>
      </trkpt>
      <trkpt lat="43.38409119285643100738525390625" lon="-7.01825846917927265167236328125">
        <ele>569.79998779296875</ele>
        <time>2019-07-11T07:48:13.000Z</time>
      </trkpt>
      <trkpt lat="43.3842411451041698455810546875" lon="-7.0181500911712646484375">
        <ele>568.4000244140625</ele>
        <time>2019-07-11T07:48:14.000Z</time>
      </trkpt>
      <trkpt lat="43.38438388891518115997314453125" lon="-7.01804213225841522216796875">
        <ele>566.5999755859375</ele>
        <time>2019-07-11T07:48:15.000Z</time>
      </trkpt>
      <trkpt lat="43.38451833464205265045166015625" lon="-7.01793626882135868072509765625">
        <ele>565.20001220703125</ele>
        <time>2019-07-11T07:48:16.000Z</time>
      </trkpt>
      <trkpt lat="43.38465043343603610992431640625" lon="-7.0178418047726154327392578125">
        <ele>564.20001220703125</ele>
        <time>2019-07-11T07:48:17.000Z</time>
      </trkpt>
      <trkpt lat="43.384916223585605621337890625" lon="-7.01770015060901641845703125">
        <ele>562.4000244140625</ele>
        <time>2019-07-11T07:48:19.000Z</time>
      </trkpt>
      <trkpt lat="43.38519123382866382598876953125" lon="-7.01762638986110687255859375">
        <ele>560.79998779296875</ele>
        <time>2019-07-11T07:48:21.000Z</time>
      </trkpt>
      <trkpt lat="43.3854910545051097869873046875" lon="-7.0176335982978343963623046875">
        <ele>559.5999755859375</ele>
        <time>2019-07-11T07:48:23.000Z</time>
      </trkpt>
      <trkpt lat="43.38577394373714923858642578125" lon="-7.0176235400140285491943359375">
        <ele>558</ele>
        <time>2019-07-11T07:48:25.000Z</time>
      </trkpt>
      <trkpt lat="43.386001847684383392333984375" lon="-7.01744391582906246185302734375">
        <ele>557</ele>
        <time>2019-07-11T07:48:27.000Z</time>
      </trkpt>
      <trkpt lat="43.386199660599231719970703125" lon="-7.01712506823241710662841796875">
        <ele>556</ele>
        <time>2019-07-11T07:48:29.000Z</time>
      </trkpt>
      <trkpt lat="43.38653267361223697662353515625" lon="-7.0166361518204212188720703125">
        <ele>553.79998779296875</ele>
        <time>2019-07-11T07:48:32.000Z</time>
      </trkpt>
      <trkpt lat="43.38661749847233295440673828125" lon="-7.01647681184113025665283203125">
        <ele>552.4000244140625</ele>
        <time>2019-07-11T07:48:33.000Z</time>
      </trkpt>
      <trkpt lat="43.3866967074573040008544921875" lon="-7.016295678913593292236328125">
        <ele>551.20001220703125</ele>
        <time>2019-07-11T07:48:34.000Z</time>
      </trkpt>
      <trkpt lat="43.38675655424594879150390625" lon="-7.016107924282550811767578125">
        <ele>549.79998779296875</ele>
        <time>2019-07-11T07:48:35.000Z</time>
      </trkpt>
      <trkpt lat="43.38680349290370941162109375" lon="-7.0159171521663665771484375">
        <ele>548.79998779296875</ele>
        <time>2019-07-11T07:48:36.000Z</time>
      </trkpt>
      <trkpt lat="43.3869206719100475311279296875" lon="-7.01554424129426479339599609375">
        <ele>547.5999755859375</ele>
        <time>2019-07-11T07:48:38.000Z</time>
      </trkpt>
      <trkpt lat="43.38711253367364406585693359375" lon="-7.0152305066585540771484375">
        <ele>546.4000244140625</ele>
        <time>2019-07-11T07:48:40.000Z</time>
      </trkpt>
      <trkpt lat="43.38723474182188510894775390625" lon="-7.01510913670063018798828125">
        <ele>545.20001220703125</ele>
        <time>2019-07-11T07:48:41.000Z</time>
      </trkpt>
      <trkpt lat="43.38737723417580127716064453125" lon="-7.0150298438966274261474609375">
        <ele>543.79998779296875</ele>
        <time>2019-07-11T07:48:42.000Z</time>
      </trkpt>
      <trkpt lat="43.38752609677612781524658203125" lon="-7.01497770845890045166015625">
        <ele>542</ele>
        <time>2019-07-11T07:48:43.000Z</time>
      </trkpt>
      <trkpt lat="43.387680239975452423095703125" lon="-7.01495616696774959564208984375">
        <ele>540.4000244140625</ele>
        <time>2019-07-11T07:48:44.000Z</time>
      </trkpt>
      <trkpt lat="43.38783790357410907745361328125" lon="-7.01495968736708164215087890625">
        <ele>538.79998779296875</ele>
        <time>2019-07-11T07:48:45.000Z</time>
      </trkpt>
      <trkpt lat="43.38799615390598773956298828125" lon="-7.0149805583059787750244140625">
        <ele>537.4000244140625</ele>
        <time>2019-07-11T07:48:46.000Z</time>
      </trkpt>
      <trkpt lat="43.38815121911466121673583984375" lon="-7.01502255164086818695068359375">
        <ele>536</ele>
        <time>2019-07-11T07:48:47.000Z</time>
      </trkpt>
      <trkpt lat="43.38830024935305118560791015625" lon="-7.01508977450430393218994140625">
        <ele>534.79998779296875</ele>
        <time>2019-07-11T07:48:48.000Z</time>
      </trkpt>
      <trkpt lat="43.38844073005020618438720703125" lon="-7.01517728157341480255126953125">
        <ele>533.79998779296875</ele>
        <time>2019-07-11T07:48:49.000Z</time>
      </trkpt>
      <trkpt lat="43.38869051076471805572509765625" lon="-7.01541415415704250335693359375">
        <ele>532</ele>
        <time>2019-07-11T07:48:51.000Z</time>
      </trkpt>
      <trkpt lat="43.3887988887727260589599609375" lon="-7.0155558921396732330322265625">
        <ele>531</ele>
        <time>2019-07-11T07:48:52.000Z</time>
      </trkpt>
      <trkpt lat="43.3888967894017696380615234375" lon="-7.01571523211896419525146484375">
        <ele>529.79998779296875</ele>
        <time>2019-07-11T07:48:53.000Z</time>
      </trkpt>
      <trkpt lat="43.38898018933832645416259765625" lon="-7.015888988971710205078125">
        <ele>528.79998779296875</ele>
        <time>2019-07-11T07:48:54.000Z</time>
      </trkpt>
      <trkpt lat="43.38905076496303081512451171875" lon="-7.01607615686953067779541015625">
        <ele>528.20001220703125</ele>
        <time>2019-07-11T07:48:55.000Z</time>
      </trkpt>
      <trkpt lat="43.389146067202091217041015625" lon="-7.01646457426249980926513671875">
        <ele>528.20001220703125</ele>
        <time>2019-07-11T07:48:57.000Z</time>
      </trkpt>
      <trkpt lat="43.38917934335768222808837890625" lon="-7.0172609388828277587890625">
        <ele>527.20001220703125</ele>
        <time>2019-07-11T07:49:01.000Z</time>
      </trkpt>
      <trkpt lat="43.38916844688355922698974609375" lon="-7.01746369712054729461669921875">
        <ele>526</ele>
        <time>2019-07-11T07:49:02.000Z</time>
      </trkpt>
      <trkpt lat="43.3891552872955799102783203125" lon="-7.0176627673208713531494140625">
        <ele>525</ele>
        <time>2019-07-11T07:49:03.000Z</time>
      </trkpt>
      <trkpt lat="43.3891458995640277862548828125" lon="-7.0178538747131824493408203125">
        <ele>523.79998779296875</ele>
        <time>2019-07-11T07:49:04.000Z</time>
      </trkpt>
      <trkpt lat="43.3891475759446620941162109375" lon="-7.01803618110716342926025390625">
        <ele>523.79998779296875</ele>
        <time>2019-07-11T07:49:05.000Z</time>
      </trkpt>
      <trkpt lat="43.38919912464916706085205078125" lon="-7.018367014825344085693359375">
        <ele>523.4000244140625</ele>
        <time>2019-07-11T07:49:07.000Z</time>
      </trkpt>
      <trkpt lat="43.3893450535833835601806640625" lon="-7.01862123794853687286376953125">
        <ele>523.20001220703125</ele>
        <time>2019-07-11T07:49:09.000Z</time>
      </trkpt>
      <trkpt lat="43.38958821259438991546630859375" lon="-7.01876356266438961029052734375">
        <ele>523.20001220703125</ele>
        <time>2019-07-11T07:49:11.000Z</time>
      </trkpt>
      <trkpt lat="43.38972165249288082122802734375" lon="-7.01879139058291912078857421875">
        <ele>522.5999755859375</ele>
        <time>2019-07-11T07:49:12.000Z</time>
      </trkpt>
      <trkpt lat="43.38986028917133808135986328125" lon="-7.01879180967807769775390625">
        <ele>521.79998779296875</ele>
        <time>2019-07-11T07:49:13.000Z</time>
      </trkpt>
      <trkpt lat="43.39001518674194812774658203125" lon="-7.018770687282085418701171875">
        <ele>520.79998779296875</ele>
        <time>2019-07-11T07:49:14.000Z</time>
      </trkpt>
      <trkpt lat="43.39017746038734912872314453125" lon="-7.018749229609966278076171875">
        <ele>519.79998779296875</ele>
        <time>2019-07-11T07:49:15.000Z</time>
      </trkpt>
      <trkpt lat="43.39034073986113071441650390625" lon="-7.01872986741364002227783203125">
        <ele>518.20001220703125</ele>
        <time>2019-07-11T07:49:16.000Z</time>
      </trkpt>
      <trkpt lat="43.39049949310719966888427734375" lon="-7.01871402561664581298828125">
        <ele>516.5999755859375</ele>
        <time>2019-07-11T07:49:17.000Z</time>
      </trkpt>
      <trkpt lat="43.39065791107714176177978515625" lon="-7.01870891265571117401123046875">
        <ele>515</ele>
        <time>2019-07-11T07:49:18.000Z</time>
      </trkpt>
      <trkpt lat="43.39081029407680034637451171875" lon="-7.01871679164469242095947265625">
        <ele>513.79998779296875</ele>
        <time>2019-07-11T07:49:19.000Z</time>
      </trkpt>
      <trkpt lat="43.39096963405609130859375" lon="-7.01874210499227046966552734375">
        <ele>512.79998779296875</ele>
        <time>2019-07-11T07:49:20.000Z</time>
      </trkpt>
      <trkpt lat="43.3911196701228618621826171875" lon="-7.01879440806806087493896484375">
        <ele>512.20001220703125</ele>
        <time>2019-07-11T07:49:21.000Z</time>
      </trkpt>
      <trkpt lat="43.39123827405273914337158203125" lon="-7.0188915543258190155029296875">
        <ele>511.20001220703125</ele>
        <time>2019-07-11T07:49:22.000Z</time>
      </trkpt>
      <trkpt lat="43.391330055892467498779296875" lon="-7.019018791615962982177734375">
        <ele>510.399993896484375</ele>
        <time>2019-07-11T07:49:23.000Z</time>
      </trkpt>
      <trkpt lat="43.3913920819759368896484375" lon="-7.019167654216289520263671875">
        <ele>509.600006103515625</ele>
        <time>2019-07-11T07:49:24.000Z</time>
      </trkpt>
      <trkpt lat="43.3914274536073207855224609375" lon="-7.01933638192713260650634765625">
        <ele>509</ele>
        <time>2019-07-11T07:49:25.000Z</time>
      </trkpt>
      <trkpt lat="43.39143172837793827056884765625" lon="-7.0195155031979084014892578125">
        <ele>508.20001220703125</ele>
        <time>2019-07-11T07:49:26.000Z</time>
      </trkpt>
      <trkpt lat="43.39142686687409877777099609375" lon="-7.0196911878883838653564453125">
        <ele>507.20001220703125</ele>
        <time>2019-07-11T07:49:27.000Z</time>
      </trkpt>
      <trkpt lat="43.39143508113920688629150390625" lon="-7.01985538937151432037353515625">
        <ele>506</ele>
        <time>2019-07-11T07:49:28.000Z</time>
      </trkpt>
      <trkpt lat="43.3914686925709247589111328125" lon="-7.02000877819955348968505859375">
        <ele>505</ele>
        <time>2019-07-11T07:49:29.000Z</time>
      </trkpt>
      <trkpt lat="43.39153381995856761932373046875" lon="-7.02014540322124958038330078125">
        <ele>504.20001220703125</ele>
        <time>2019-07-11T07:49:30.000Z</time>
      </trkpt>
      <trkpt lat="43.39162400923669338226318359375" lon="-7.0202604867517948150634765625">
        <ele>503.600006103515625</ele>
        <time>2019-07-11T07:49:31.000Z</time>
      </trkpt>
      <trkpt lat="43.39172936975955963134765625" lon="-7.02034891583025455474853515625">
        <ele>503.20001220703125</ele>
        <time>2019-07-11T07:49:32.000Z</time>
      </trkpt>
      <trkpt lat="43.39198627509176731109619140625" lon="-7.02041982673108577728271484375">
        <ele>502.20001220703125</ele>
        <time>2019-07-11T07:49:34.000Z</time>
      </trkpt>
      <trkpt lat="43.392265476286411285400390625" lon="-7.020337767899036407470703125">
        <ele>501</ele>
        <time>2019-07-11T07:49:36.000Z</time>
      </trkpt>
      <trkpt lat="43.3925211243331432342529296875" lon="-7.02016350813210010528564453125">
        <ele>499.600006103515625</ele>
        <time>2019-07-11T07:49:38.000Z</time>
      </trkpt>
      <trkpt lat="43.3927665464580059051513671875" lon="-7.02000492252409458160400390625">
        <ele>497.20001220703125</ele>
        <time>2019-07-11T07:49:40.000Z</time>
      </trkpt>
      <trkpt lat="43.39290124364197254180908203125" lon="-7.0199503563344478607177734375">
        <ele>495.399993896484375</ele>
        <time>2019-07-11T07:49:41.000Z</time>
      </trkpt>
      <trkpt lat="43.39304960332810878753662109375" lon="-7.01994759030640125274658203125">
        <ele>493.600006103515625</ele>
        <time>2019-07-11T07:49:42.000Z</time>
      </trkpt>
      <trkpt lat="43.3931936882436275482177734375" lon="-7.0199744962155818939208984375">
        <ele>492.399993896484375</ele>
        <time>2019-07-11T07:49:43.000Z</time>
      </trkpt>
      <trkpt lat="43.3933274634182453155517578125" lon="-7.0200247876346111297607421875">
        <ele>491.600006103515625</ele>
        <time>2019-07-11T07:49:44.000Z</time>
      </trkpt>
      <trkpt lat="43.39345126412808895111083984375" lon="-7.02008195221424102783203125">
        <ele>490.79998779296875</ele>
        <time>2019-07-11T07:49:45.000Z</time>
      </trkpt>
      <trkpt lat="43.3935655094683170318603515625" lon="-7.02010064385831356048583984375">
        <ele>489.79998779296875</ele>
        <time>2019-07-11T07:49:46.000Z</time>
      </trkpt>
      <trkpt lat="43.39367656968533992767333984375" lon="-7.02009142376482486724853515625">
        <ele>488.600006103515625</ele>
        <time>2019-07-11T07:49:47.000Z</time>
      </trkpt>
      <trkpt lat="43.39375703595578670501708984375" lon="-7.0200495980679988861083984375">
        <ele>487.79998779296875</ele>
        <time>2019-07-11T07:49:48.000Z</time>
      </trkpt>
      <trkpt lat="43.39384739287197589874267578125" lon="-7.01995496638119220733642578125">
        <ele>487.20001220703125</ele>
        <time>2019-07-11T07:49:49.000Z</time>
      </trkpt>
      <trkpt lat="43.39393339119851589202880859375" lon="-7.01981951482594013214111328125">
        <ele>486.79998779296875</ele>
        <time>2019-07-11T07:49:50.000Z</time>
      </trkpt>
      <trkpt lat="43.39403850026428699493408203125" lon="-7.0194766111671924591064453125">
        <ele>486.20001220703125</ele>
        <time>2019-07-11T07:49:52.000Z</time>
      </trkpt>
      <trkpt lat="43.39404973201453685760498046875" lon="-7.01928826980292797088623046875">
        <ele>485.79998779296875</ele>
        <time>2019-07-11T07:49:53.000Z</time>
      </trkpt>
      <trkpt lat="43.39404067955911159515380859375" lon="-7.01910437084734439849853515625">
        <ele>485.20001220703125</ele>
        <time>2019-07-11T07:49:54.000Z</time>
      </trkpt>
      <trkpt lat="43.3940288610756397247314453125" lon="-7.01892768032848834991455078125">
        <ele>484.600006103515625</ele>
        <time>2019-07-11T07:49:55.000Z</time>
      </trkpt>
      <trkpt lat="43.394047133624553680419921875" lon="-7.0187547616660594940185546875">
        <ele>483.79998779296875</ele>
        <time>2019-07-11T07:49:56.000Z</time>
      </trkpt>
      <trkpt lat="43.394090719521045684814453125" lon="-7.01859575696289539337158203125">
        <ele>482.79998779296875</ele>
        <time>2019-07-11T07:49:57.000Z</time>
      </trkpt>
      <trkpt lat="43.39416121132671833038330078125" lon="-7.01845519244670867919921875">
        <ele>481.399993896484375</ele>
        <time>2019-07-11T07:49:58.000Z</time>
      </trkpt>
      <trkpt lat="43.394255675375461578369140625" lon="-7.01833575032651424407958984375">
        <ele>480.20001220703125</ele>
        <time>2019-07-11T07:49:59.000Z</time>
      </trkpt>
      <trkpt lat="43.39436254464089870452880859375" lon="-7.01823533512651920318603515625">
        <ele>479</ele>
        <time>2019-07-11T07:50:00.000Z</time>
      </trkpt>
      <trkpt lat="43.39460595510900020599365234375" lon="-7.01807909645140171051025390625">
        <ele>477.399993896484375</ele>
        <time>2019-07-11T07:50:02.000Z</time>
      </trkpt>
      <trkpt lat="43.394841067492961883544921875" lon="-7.01791900210082530975341796875">
        <ele>476.20001220703125</ele>
        <time>2019-07-11T07:50:04.000Z</time>
      </trkpt>
      <trkpt lat="43.3950828015804290771484375" lon="-7.01778329908847808837890625">
        <ele>474.79998779296875</ele>
        <time>2019-07-11T07:50:06.000Z</time>
      </trkpt>
      <trkpt lat="43.3953505195677280426025390625" lon="-7.01767676509916782379150390625">
        <ele>473.399993896484375</ele>
        <time>2019-07-11T07:50:08.000Z</time>
      </trkpt>
      <trkpt lat="43.39549276046454906463623046875" lon="-7.01762898825109004974365234375">
        <ele>472.20001220703125</ele>
        <time>2019-07-11T07:50:09.000Z</time>
      </trkpt>
      <trkpt lat="43.3956371806561946868896484375" lon="-7.0175801217555999755859375">
        <ele>470.79998779296875</ele>
        <time>2019-07-11T07:50:10.000Z</time>
      </trkpt>
      <trkpt lat="43.39577958919107913970947265625" lon="-7.017530500888824462890625">
        <ele>469.399993896484375</ele>
        <time>2019-07-11T07:50:11.000Z</time>
      </trkpt>
      <trkpt lat="43.3959211595356464385986328125" lon="-7.01748264022171497344970703125">
        <ele>468.20001220703125</ele>
        <time>2019-07-11T07:50:12.000Z</time>
      </trkpt>
      <trkpt lat="43.39605786837637424468994140625" lon="-7.0174391381442546844482421875">
        <ele>467</ele>
        <time>2019-07-11T07:50:13.000Z</time>
      </trkpt>
      <trkpt lat="43.39619197882711887359619140625" lon="-7.0174076221883296966552734375">
        <ele>466.20001220703125</ele>
        <time>2019-07-11T07:50:14.000Z</time>
      </trkpt>
      <trkpt lat="43.39632424525916576385498046875" lon="-7.017399407923221588134765625">
        <ele>465.20001220703125</ele>
        <time>2019-07-11T07:50:15.000Z</time>
      </trkpt>
      <trkpt lat="43.39645366184413433074951171875" lon="-7.017418853938579559326171875">
        <ele>464</ele>
        <time>2019-07-11T07:50:16.000Z</time>
      </trkpt>
      <trkpt lat="43.3965789712965488433837890625" lon="-7.0174646191298961639404296875">
        <ele>462.79998779296875</ele>
        <time>2019-07-11T07:50:17.000Z</time>
      </trkpt>
      <trkpt lat="43.3967001736164093017578125" lon="-7.01753343455493450164794921875">
        <ele>461.600006103515625</ele>
        <time>2019-07-11T07:50:18.000Z</time>
      </trkpt>
      <trkpt lat="43.39681441895663738250732421875" lon="-7.01762429438531398773193359375">
        <ele>460.79998779296875</ele>
        <time>2019-07-11T07:50:19.000Z</time>
      </trkpt>
      <trkpt lat="43.39691885747015476226806640625" lon="-7.017737366259098052978515625">
        <ele>460</ele>
        <time>2019-07-11T07:50:20.000Z</time>
      </trkpt>
      <trkpt lat="43.39701591990888118743896484375" lon="-7.01787290163338184356689453125">
        <ele>459.399993896484375</ele>
        <time>2019-07-11T07:50:21.000Z</time>
      </trkpt>
      <trkpt lat="43.3971077017486095428466796875" lon="-7.01802763156592845916748046875">
        <ele>458.600006103515625</ele>
        <time>2019-07-11T07:50:22.000Z</time>
      </trkpt>
      <trkpt lat="43.39719378389418125152587890625" lon="-7.01819258742034435272216796875">
        <ele>457.600006103515625</ele>
        <time>2019-07-11T07:50:23.000Z</time>
      </trkpt>
      <trkpt lat="43.39727425016462802886962890625" lon="-7.018362320959568023681640625">
        <ele>456.399993896484375</ele>
        <time>2019-07-11T07:50:24.000Z</time>
      </trkpt>
      <trkpt lat="43.39740769006311893463134765625" lon="-7.01871863566339015960693359375">
        <ele>454.20001220703125</ele>
        <time>2019-07-11T07:50:26.000Z</time>
      </trkpt>
      <trkpt lat="43.3974664472043514251708984375" lon="-7.01910252682864665985107421875">
        <ele>452.600006103515625</ele>
        <time>2019-07-11T07:50:28.000Z</time>
      </trkpt>
      <trkpt lat="43.3974681235849857330322265625" lon="-7.019490860402584075927734375">
        <ele>451.600006103515625</ele>
        <time>2019-07-11T07:50:30.000Z</time>
      </trkpt>
      <trkpt lat="43.39748932980000972747802734375" lon="-7.0200935192406177520751953125">
        <ele>450.20001220703125</ele>
        <time>2019-07-11T07:50:33.000Z</time>
      </trkpt>
      <trkpt lat="43.39753895066678524017333984375" lon="-7.0204985328018665313720703125">
        <ele>449.20001220703125</ele>
        <time>2019-07-11T07:50:35.000Z</time>
      </trkpt>
      <trkpt lat="43.3975858055055141448974609375" lon="-7.02090731821954250335693359375">
        <ele>448</ele>
        <time>2019-07-11T07:50:37.000Z</time>
      </trkpt>
      <trkpt lat="43.397629894316196441650390625" lon="-7.021299339830875396728515625">
        <ele>446.79998779296875</ele>
        <time>2019-07-11T07:50:39.000Z</time>
      </trkpt>
      <trkpt lat="43.397717066109180450439453125" lon="-7.02186184935271739959716796875">
        <ele>445.20001220703125</ele>
        <time>2019-07-11T07:50:42.000Z</time>
      </trkpt>
      <trkpt lat="43.3978379331529140472412109375" lon="-7.02248462475836277008056640625">
        <ele>444.600006103515625</ele>
        <time>2019-07-11T07:50:45.000Z</time>
      </trkpt>
      <trkpt lat="43.3978937566280364990234375" lon="-7.02296574600040912628173828125">
        <ele>444</ele>
        <time>2019-07-11T07:50:47.000Z</time>
      </trkpt>
      <trkpt lat="43.39790406636893749237060546875" lon="-7.0235203765332698822021484375">
        <ele>442.79998779296875</ele>
        <time>2019-07-11T07:50:49.000Z</time>
      </trkpt>
      <trkpt lat="43.39789635501801967620849609375" lon="-7.0237921178340911865234375">
        <ele>441</ele>
        <time>2019-07-11T07:50:50.000Z</time>
      </trkpt>
      <trkpt lat="43.39789367280900478363037109375" lon="-7.02405941672623157501220703125">
        <ele>439.20001220703125</ele>
        <time>2019-07-11T07:50:51.000Z</time>
      </trkpt>
      <trkpt lat="43.3979187346994876861572265625" lon="-7.02458797954022884368896484375">
        <ele>436.20001220703125</ele>
        <time>2019-07-11T07:50:53.000Z</time>
      </trkpt>
      <trkpt lat="43.39794295839965343475341796875" lon="-7.02484211884438991546630859375">
        <ele>434.79998779296875</ele>
        <time>2019-07-11T07:50:54.000Z</time>
      </trkpt>
      <trkpt lat="43.39796776883304119110107421875" lon="-7.025083601474761962890625">
        <ele>433.600006103515625</ele>
        <time>2019-07-11T07:50:55.000Z</time>
      </trkpt>
      <trkpt lat="43.3979780785739421844482421875" lon="-7.02530966140329837799072265625">
        <ele>432.79998779296875</ele>
        <time>2019-07-11T07:50:56.000Z</time>
      </trkpt>
      <trkpt lat="43.397965840995311737060546875" lon="-7.0255236513912677764892578125">
        <ele>432.399993896484375</ele>
        <time>2019-07-11T07:50:57.000Z</time>
      </trkpt>
      <trkpt lat="43.39792502112686634063720703125" lon="-7.02572339214384555816650390625">
        <ele>432.600006103515625</ele>
        <time>2019-07-11T07:50:58.000Z</time>
      </trkpt>
      <trkpt lat="43.39767239056527614593505859375" lon="-7.026242315769195556640625">
        <ele>432.79998779296875</ele>
        <time>2019-07-11T07:51:01.000Z</time>
      </trkpt>
      <trkpt lat="43.39760583825409412384033203125" lon="-7.0264040865004062652587890625">
        <ele>432.79998779296875</ele>
        <time>2019-07-11T07:51:02.000Z</time>
      </trkpt>
      <trkpt lat="43.3975677005946636199951171875" lon="-7.02672502957284450531005859375">
        <ele>433</ele>
        <time>2019-07-11T07:51:04.000Z</time>
      </trkpt>
      <trkpt lat="43.39764422737061977386474609375" lon="-7.02703683637082576751708984375">
        <ele>433.399993896484375</ele>
        <time>2019-07-11T07:51:06.000Z</time>
      </trkpt>
      <trkpt lat="43.39794161729514598846435546875" lon="-7.02737546525895595550537109375">
        <ele>434</ele>
        <time>2019-07-11T07:51:09.000Z</time>
      </trkpt>
      <trkpt lat="43.39821889065206050872802734375" lon="-7.02739725820720195770263671875">
        <ele>434.20001220703125</ele>
        <time>2019-07-11T07:51:11.000Z</time>
      </trkpt>
      <trkpt lat="43.3986811526119709014892578125" lon="-7.02721059322357177734375">
        <ele>433.399993896484375</ele>
        <time>2019-07-11T07:51:14.000Z</time>
      </trkpt>
      <trkpt lat="43.3990068733692169189453125" lon="-7.02704488299787044525146484375">
        <ele>432.20001220703125</ele>
        <time>2019-07-11T07:51:16.000Z</time>
      </trkpt>
      <trkpt lat="43.39931792579591274261474609375" lon="-7.02687372453510761260986328125">
        <ele>430.600006103515625</ele>
        <time>2019-07-11T07:51:18.000Z</time>
      </trkpt>
      <trkpt lat="43.39946997351944446563720703125" lon="-7.02680549584329128265380859375">
        <ele>429.399993896484375</ele>
        <time>2019-07-11T07:51:19.000Z</time>
      </trkpt>
      <trkpt lat="43.39962788857519626617431640625" lon="-7.02676895074546337127685546875">
        <ele>428</ele>
        <time>2019-07-11T07:51:20.000Z</time>
      </trkpt>
      <trkpt lat="43.399789743125438690185546875" lon="-7.02677280642092227935791015625">
        <ele>427</ele>
        <time>2019-07-11T07:51:21.000Z</time>
      </trkpt>
      <trkpt lat="43.40009325183928012847900390625" lon="-7.026866264641284942626953125">
        <ele>425.20001220703125</ele>
        <time>2019-07-11T07:51:23.000Z</time>
      </trkpt>
      <trkpt lat="43.40023155324161052703857421875" lon="-7.0269579626619815826416015625">
        <ele>425.399993896484375</ele>
        <time>2019-07-11T07:51:24.000Z</time>
      </trkpt>
      <trkpt lat="43.40065517462790012359619140625" lon="-7.027352415025234222412109375">
        <ele>424.600006103515625</ele>
        <time>2019-07-11T07:51:27.000Z</time>
      </trkpt>
      <trkpt lat="43.4008024446666240692138671875" lon="-7.02748828567564487457275390625">
        <ele>424.20001220703125</ele>
        <time>2019-07-11T07:51:28.000Z</time>
      </trkpt>
      <trkpt lat="43.401110060513019561767578125" lon="-7.02776555903255939483642578125">
        <ele>422.399993896484375</ele>
        <time>2019-07-11T07:51:30.000Z</time>
      </trkpt>
      <trkpt lat="43.40126353316009044647216796875" lon="-7.02791190706193447113037109375">
        <ele>421.20001220703125</ele>
        <time>2019-07-11T07:51:31.000Z</time>
      </trkpt>
      <trkpt lat="43.4015603363513946533203125" lon="-7.02823293395340442657470703125">
        <ele>419.79998779296875</ele>
        <time>2019-07-11T07:51:33.000Z</time>
      </trkpt>
      <trkpt lat="43.4016942791640758514404296875" lon="-7.02841046266257762908935546875">
        <ele>418.79998779296875</ele>
        <time>2019-07-11T07:51:34.000Z</time>
      </trkpt>
      <trkpt lat="43.401812799274921417236328125" lon="-7.0285870693624019622802734375">
        <ele>416.79998779296875</ele>
        <time>2019-07-11T07:51:35.000Z</time>
      </trkpt>
      <trkpt lat="43.40191346593201160430908203125" lon="-7.02875998802483081817626953125">
        <ele>414.600006103515625</ele>
        <time>2019-07-11T07:51:36.000Z</time>
      </trkpt>
      <trkpt lat="43.40200214646756649017333984375" lon="-7.0289263688027858734130859375">
        <ele>413.20001220703125</ele>
        <time>2019-07-11T07:51:37.000Z</time>
      </trkpt>
      <trkpt lat="43.40218193829059600830078125" lon="-7.02923323027789592742919921875">
        <ele>412</ele>
        <time>2019-07-11T07:51:39.000Z</time>
      </trkpt>
      <trkpt lat="43.4023608081042766571044921875" lon="-7.02954478561878204345703125">
        <ele>411.600006103515625</ele>
        <time>2019-07-11T07:51:41.000Z</time>
      </trkpt>
      <trkpt lat="43.4025393426418304443359375" lon="-7.03004904091358184814453125">
        <ele>411</ele>
        <time>2019-07-11T07:51:44.000Z</time>
      </trkpt>
      <trkpt lat="43.40271058492362499237060546875" lon="-7.03026956878602504730224609375">
        <ele>410.20001220703125</ele>
        <time>2019-07-11T07:51:46.000Z</time>
      </trkpt>
      <trkpt lat="43.40295047499239444732666015625" lon="-7.03035925514996051788330078125">
        <ele>410</ele>
        <time>2019-07-11T07:51:48.000Z</time>
      </trkpt>
      <trkpt lat="43.4030757844448089599609375" lon="-7.030343748629093170166015625">
        <ele>410</ele>
        <time>2019-07-11T07:51:49.000Z</time>
      </trkpt>
      <trkpt lat="43.4031956456601619720458984375" lon="-7.03028373420238494873046875">
        <ele>409.79998779296875</ele>
        <time>2019-07-11T07:51:50.000Z</time>
      </trkpt>
      <trkpt lat="43.4034142456948757171630859375" lon="-7.030048370361328125">
        <ele>409.79998779296875</ele>
        <time>2019-07-11T07:51:52.000Z</time>
      </trkpt>
      <trkpt lat="43.4035842306911945343017578125" lon="-7.02967328019440174102783203125">
        <ele>409.399993896484375</ele>
        <time>2019-07-11T07:51:54.000Z</time>
      </trkpt>
      <trkpt lat="43.4037703089416027069091796875" lon="-7.02927983365952968597412109375">
        <ele>408.399993896484375</ele>
        <time>2019-07-11T07:51:56.000Z</time>
      </trkpt>
      <trkpt lat="43.404037021100521087646484375" lon="-7.0289726369082927703857421875">
        <ele>406.79998779296875</ele>
        <time>2019-07-11T07:51:58.000Z</time>
      </trkpt>
      <trkpt lat="43.4041944332420825958251953125" lon="-7.02884011901915073394775390625">
        <ele>405.600006103515625</ele>
        <time>2019-07-11T07:51:59.000Z</time>
      </trkpt>
      <trkpt lat="43.40437690727412700653076171875" lon="-7.02873266302049160003662109375">
        <ele>404.20001220703125</ele>
        <time>2019-07-11T07:52:00.000Z</time>
      </trkpt>
      <trkpt lat="43.40455141849815845489501953125" lon="-7.02862051315605640411376953125">
        <ele>403.20001220703125</ele>
        <time>2019-07-11T07:52:01.000Z</time>
      </trkpt>
      <trkpt lat="43.404729366302490234375" lon="-7.02850542962551116943359375">
        <ele>401.79998779296875</ele>
        <time>2019-07-11T07:52:02.000Z</time>
      </trkpt>
      <trkpt lat="43.40491100214421749114990234375" lon="-7.028407864272594451904296875">
        <ele>400.399993896484375</ele>
        <time>2019-07-11T07:52:03.000Z</time>
      </trkpt>
      <trkpt lat="43.40510143898427486419677734375" lon="-7.02833804301917552947998046875">
        <ele>398.79998779296875</ele>
        <time>2019-07-11T07:52:04.000Z</time>
      </trkpt>
      <trkpt lat="43.4054939635097980499267578125" lon="-7.02828884124755859375">
        <ele>397.600006103515625</ele>
        <time>2019-07-11T07:52:06.000Z</time>
      </trkpt>
      <trkpt lat="43.405897803604602813720703125" lon="-7.02834994532167911529541015625">
        <ele>396.600006103515625</ele>
        <time>2019-07-11T07:52:08.000Z</time>
      </trkpt>
      <trkpt lat="43.4060887433588504791259765625" lon="-7.02841850928962230682373046875">
        <ele>395.600006103515625</ele>
        <time>2019-07-11T07:52:09.000Z</time>
      </trkpt>
      <trkpt lat="43.4062751568853855133056640625" lon="-7.02850718982517719268798828125">
        <ele>394.20001220703125</ele>
        <time>2019-07-11T07:52:10.000Z</time>
      </trkpt>
      <trkpt lat="43.406459726393222808837890625" lon="-7.02861405909061431884765625">
        <ele>392.600006103515625</ele>
        <time>2019-07-11T07:52:11.000Z</time>
      </trkpt>
      <trkpt lat="43.40663331560790538787841796875" lon="-7.028739787638187408447265625">
        <ele>391.600006103515625</ele>
        <time>2019-07-11T07:52:12.000Z</time>
      </trkpt>
      <trkpt lat="43.40692953206598758697509765625" lon="-7.02901412732899188995361328125">
        <ele>390</ele>
        <time>2019-07-11T07:52:14.000Z</time>
      </trkpt>
      <trkpt lat="43.4071696735918521881103515625" lon="-7.02933020889759063720703125">
        <ele>388.600006103515625</ele>
        <time>2019-07-11T07:52:16.000Z</time>
      </trkpt>
      <trkpt lat="43.40728106908500194549560546875" lon="-7.02946431934833526611328125">
        <ele>388.20001220703125</ele>
        <time>2019-07-11T07:52:17.000Z</time>
      </trkpt>
      <trkpt lat="43.40752758085727691650390625" lon="-7.02966573648154735565185546875">
        <ele>387.600006103515625</ele>
        <time>2019-07-11T07:52:19.000Z</time>
      </trkpt>
      <trkpt lat="43.4078278206288814544677734375" lon="-7.02977009117603302001953125">
        <ele>387.600006103515625</ele>
        <time>2019-07-11T07:52:21.000Z</time>
      </trkpt>
      <trkpt lat="43.40839393436908721923828125" lon="-7.02979481779038906097412109375">
        <ele>387.79998779296875</ele>
        <time>2019-07-11T07:52:24.000Z</time>
      </trkpt>
      <trkpt lat="43.40859870426356792449951171875" lon="-7.0298004336655139923095703125">
        <ele>387.600006103515625</ele>
        <time>2019-07-11T07:52:25.000Z</time>
      </trkpt>
      <trkpt lat="43.40901897288858890533447265625" lon="-7.0297769643366336822509765625">
        <ele>386.20001220703125</ele>
        <time>2019-07-11T07:52:27.000Z</time>
      </trkpt>
      <trkpt lat="43.40922416187822818756103515625" lon="-7.02974553219974040985107421875">
        <ele>384.79998779296875</ele>
        <time>2019-07-11T07:52:28.000Z</time>
      </trkpt>
      <trkpt lat="43.409422896802425384521484375" lon="-7.02970798127353191375732421875">
        <ele>383.399993896484375</ele>
        <time>2019-07-11T07:52:29.000Z</time>
      </trkpt>
      <trkpt lat="43.40961526148021221160888671875" lon="-7.02967260964214801788330078125">
        <ele>382</ele>
        <time>2019-07-11T07:52:30.000Z</time>
      </trkpt>
      <trkpt lat="43.40980536304414272308349609375" lon="-7.0296405069530010223388671875">
        <ele>381</ele>
        <time>2019-07-11T07:52:31.000Z</time>
      </trkpt>
      <trkpt lat="43.4101804532110691070556640625" lon="-7.02958166599273681640625">
        <ele>379.20001220703125</ele>
        <time>2019-07-11T07:52:33.000Z</time>
      </trkpt>
      <trkpt lat="43.41053391806781291961669921875" lon="-7.02954746782779693603515625">
        <ele>377.20001220703125</ele>
        <time>2019-07-11T07:52:35.000Z</time>
      </trkpt>
      <trkpt lat="43.410697281360626220703125" lon="-7.0295586995780467987060546875">
        <ele>376</ele>
        <time>2019-07-11T07:52:36.000Z</time>
      </trkpt>
      <trkpt lat="43.41084874235093593597412109375" lon="-7.029595077037811279296875">
        <ele>375</ele>
        <time>2019-07-11T07:52:37.000Z</time>
      </trkpt>
      <trkpt lat="43.410985954105854034423828125" lon="-7.02966355718672275543212890625">
        <ele>374.399993896484375</ele>
        <time>2019-07-11T07:52:38.000Z</time>
      </trkpt>
      <trkpt lat="43.41121293604373931884765625" lon="-7.02990478835999965667724609375">
        <ele>373.399993896484375</ele>
        <time>2019-07-11T07:52:40.000Z</time>
      </trkpt>
      <trkpt lat="43.4113545902073383331298828125" lon="-7.03025481663644313812255859375">
        <ele>372</ele>
        <time>2019-07-11T07:52:42.000Z</time>
      </trkpt>
      <trkpt lat="43.4113807417452335357666015625" lon="-7.03065094538033008575439453125">
        <ele>370.20001220703125</ele>
        <time>2019-07-11T07:52:44.000Z</time>
      </trkpt>
      <trkpt lat="43.411346375942230224609375" lon="-7.0310463197529315948486328125">
        <ele>368.79998779296875</ele>
        <time>2019-07-11T07:52:46.000Z</time>
      </trkpt>
      <trkpt lat="43.4112694300711154937744140625" lon="-7.03161972574889659881591796875">
        <ele>367.600006103515625</ele>
        <time>2019-07-11T07:52:49.000Z</time>
      </trkpt>
      <trkpt lat="43.41123129241168498992919921875" lon="-7.0317953266203403472900390625">
        <ele>367.20001220703125</ele>
        <time>2019-07-11T07:52:50.000Z</time>
      </trkpt>
      <trkpt lat="43.41114722192287445068359375" lon="-7.03212649561464786529541015625">
        <ele>366.399993896484375</ele>
        <time>2019-07-11T07:52:52.000Z</time>
      </trkpt>
      <trkpt lat="43.41113783419132232666015625" lon="-7.03245364129543304443359375">
        <ele>365.600006103515625</ele>
        <time>2019-07-11T07:52:54.000Z</time>
      </trkpt>
      <trkpt lat="43.41117211617529392242431640625" lon="-7.03261298127472400665283203125">
        <ele>365.20001220703125</ele>
        <time>2019-07-11T07:52:55.000Z</time>
      </trkpt>
      <trkpt lat="43.4112359024584293365478515625" lon="-7.03275941312313079833984375">
        <ele>365</ele>
        <time>2019-07-11T07:52:56.000Z</time>
      </trkpt>
      <trkpt lat="43.41152817942202091217041015625" lon="-7.03304632566869258880615234375">
        <ele>364.20001220703125</ele>
        <time>2019-07-11T07:52:59.000Z</time>
      </trkpt>
      <trkpt lat="43.41178852133452892303466796875" lon="-7.03301782719790935516357421875">
        <ele>363.600006103515625</ele>
        <time>2019-07-11T07:53:01.000Z</time>
      </trkpt>
      <trkpt lat="43.41222203336656093597412109375" lon="-7.0328098721802234649658203125">
        <ele>362.399993896484375</ele>
        <time>2019-07-11T07:53:04.000Z</time>
      </trkpt>
      <trkpt lat="43.41240475885570049285888671875" lon="-7.03278564848005771636962890625">
        <ele>361.399993896484375</ele>
        <time>2019-07-11T07:53:05.000Z</time>
      </trkpt>
      <trkpt lat="43.41259636916220188140869140625" lon="-7.0327693037688732147216796875">
        <ele>360</ele>
        <time>2019-07-11T07:53:06.000Z</time>
      </trkpt>
      <trkpt lat="43.4129704535007476806640625" lon="-7.03272026963531970977783203125">
        <ele>358.600006103515625</ele>
        <time>2019-07-11T07:53:08.000Z</time>
      </trkpt>
      <trkpt lat="43.41315594501793384552001953125" lon="-7.0327123068273067474365234375">
        <ele>357.79998779296875</ele>
        <time>2019-07-11T07:53:09.000Z</time>
      </trkpt>
      <trkpt lat="43.41333783231675624847412109375" lon="-7.03274005092680454254150390625">
        <ele>357</ele>
        <time>2019-07-11T07:53:10.000Z</time>
      </trkpt>
      <trkpt lat="43.41350379399955272674560546875" lon="-7.0328088663518428802490234375">
        <ele>355.399993896484375</ele>
        <time>2019-07-11T07:53:11.000Z</time>
      </trkpt>
      <trkpt lat="43.413674868643283843994140625" lon="-7.0328769274055957794189453125">
        <ele>353</ele>
        <time>2019-07-11T07:53:12.000Z</time>
      </trkpt>
      <trkpt lat="43.41381811536848545074462890625" lon="-7.03292596153914928436279296875">
        <ele>351.600006103515625</ele>
        <time>2019-07-11T07:53:13.000Z</time>
      </trkpt>
      <trkpt lat="43.4141122363507747650146484375" lon="-7.03290349803864955902099609375">
        <ele>350.399993896484375</ele>
        <time>2019-07-11T07:53:15.000Z</time>
      </trkpt>
      <trkpt lat="43.4145517833530902862548828125" lon="-7.03264005482196807861328125">
        <ele>351</ele>
        <time>2019-07-11T07:53:18.000Z</time>
      </trkpt>
      <trkpt lat="43.4148997999727725982666015625" lon="-7.0325548946857452392578125">
        <ele>350.79998779296875</ele>
        <time>2019-07-11T07:53:20.000Z</time>
      </trkpt>
      <trkpt lat="43.41523666866123676300048828125" lon="-7.03259822912514209747314453125">
        <ele>348.20001220703125</ele>
        <time>2019-07-11T07:53:22.000Z</time>
      </trkpt>
      <trkpt lat="43.41537840664386749267578125" lon="-7.03260795213282108306884765625">
        <ele>346.399993896484375</ele>
        <time>2019-07-11T07:53:23.000Z</time>
      </trkpt>
      <trkpt lat="43.415504805743694305419921875" lon="-7.032582722604274749755859375">
        <ele>345.399993896484375</ele>
        <time>2019-07-11T07:53:24.000Z</time>
      </trkpt>
      <trkpt lat="43.4156209789216518402099609375" lon="-7.0325081236660480499267578125">
        <ele>344.600006103515625</ele>
        <time>2019-07-11T07:53:25.000Z</time>
      </trkpt>
      <trkpt lat="43.41572717763483524322509765625" lon="-7.03238314948976039886474609375">
        <ele>344</ele>
        <time>2019-07-11T07:53:26.000Z</time>
      </trkpt>
      <trkpt lat="43.4158248268067836761474609375" lon="-7.03221358358860015869140625">
        <ele>344</ele>
        <time>2019-07-11T07:53:27.000Z</time>
      </trkpt>
      <trkpt lat="43.41611375100910663604736328125" lon="-7.03163447789847850799560546875">
        <ele>344</ele>
        <time>2019-07-11T07:53:30.000Z</time>
      </trkpt>
      <trkpt lat="43.416375182569026947021484375" lon="-7.03131747432053089141845703125">
        <ele>342.79998779296875</ele>
        <time>2019-07-11T07:53:32.000Z</time>
      </trkpt>
      <trkpt lat="43.4165255539119243621826171875" lon="-7.03118101693689823150634765625">
        <ele>341.399993896484375</ele>
        <time>2019-07-11T07:53:33.000Z</time>
      </trkpt>
      <trkpt lat="43.416670896112918853759765625" lon="-7.03105696476995944976806640625">
        <ele>340</ele>
        <time>2019-07-11T07:53:34.000Z</time>
      </trkpt>
      <trkpt lat="43.4168001450598239898681640625" lon="-7.03094883821904659271240234375">
        <ele>338.399993896484375</ele>
        <time>2019-07-11T07:53:35.000Z</time>
      </trkpt>
      <trkpt lat="43.41691271401941776275634765625" lon="-7.03085378743708133697509765625">
        <ele>336.79998779296875</ele>
        <time>2019-07-11T07:53:36.000Z</time>
      </trkpt>
      <trkpt lat="43.417017571628093719482421875" lon="-7.03076384961605072021484375">
        <ele>335.20001220703125</ele>
        <time>2019-07-11T07:53:37.000Z</time>
      </trkpt>
      <trkpt lat="43.4172363393008708953857421875" lon="-7.03059596009552478790283203125">
        <ele>333.600006103515625</ele>
        <time>2019-07-11T07:53:39.000Z</time>
      </trkpt>
      <trkpt lat="43.41758930124342441558837890625" lon="-7.0303663797676563262939453125">
        <ele>332.399993896484375</ele>
        <time>2019-07-11T07:53:42.000Z</time>
      </trkpt>
      <trkpt lat="43.4181181155145168304443359375" lon="-7.03003286384046077728271484375">
        <ele>331.600006103515625</ele>
        <time>2019-07-11T07:53:46.000Z</time>
      </trkpt>
      <trkpt lat="43.41825046576559543609619140625" lon="-7.029928676784038543701171875">
        <ele>331.20001220703125</ele>
        <time>2019-07-11T07:53:47.000Z</time>
      </trkpt>
      <trkpt lat="43.41838155873119831085205078125" lon="-7.02982482500374317169189453125">
        <ele>330.20001220703125</ele>
        <time>2019-07-11T07:53:48.000Z</time>
      </trkpt>
      <trkpt lat="43.41850862838327884674072265625" lon="-7.0297209732234477996826171875">
        <ele>329</ele>
        <time>2019-07-11T07:53:49.000Z</time>
      </trkpt>
      <trkpt lat="43.41863351874053478240966796875" lon="-7.02961678616702556610107421875">
        <ele>327.79998779296875</ele>
        <time>2019-07-11T07:53:50.000Z</time>
      </trkpt>
      <trkpt lat="43.41903249733150005340576171875" lon="-7.0292988605797290802001953125">
        <ele>326.600006103515625</ele>
        <time>2019-07-11T07:53:53.000Z</time>
      </trkpt>
      <trkpt lat="43.41930859722197055816650390625" lon="-7.0290785841643810272216796875">
        <ele>325.399993896484375</ele>
        <time>2019-07-11T07:53:55.000Z</time>
      </trkpt>
      <trkpt lat="43.41943524777889251708984375" lon="-7.02895545400679111480712890625">
        <ele>324</ele>
        <time>2019-07-11T07:53:56.000Z</time>
      </trkpt>
      <trkpt lat="43.41954446397721767425537109375" lon="-7.028807513415813446044921875">
        <ele>322</ele>
        <time>2019-07-11T07:53:57.000Z</time>
      </trkpt>
      <trkpt lat="43.41963213868439197540283203125" lon="-7.028637193143367767333984375">
        <ele>319.79998779296875</ele>
        <time>2019-07-11T07:53:58.000Z</time>
      </trkpt>
      <trkpt lat="43.419703803956508636474609375" lon="-7.02845857478678226470947265625">
        <ele>318.20001220703125</ele>
        <time>2019-07-11T07:53:59.000Z</time>
      </trkpt>
      <trkpt lat="43.41977898962795734405517578125" lon="-7.02829294838011264801025390625">
        <ele>317</ele>
        <time>2019-07-11T07:54:00.000Z</time>
      </trkpt>
      <trkpt lat="43.41999054886400699615478515625" lon="-7.02806445769965648651123046875">
        <ele>315.399993896484375</ele>
        <time>2019-07-11T07:54:02.000Z</time>
      </trkpt>
      <trkpt lat="43.42029732652008533477783203125" lon="-7.028004191815853118896484375">
        <ele>313.600006103515625</ele>
        <time>2019-07-11T07:54:04.000Z</time>
      </trkpt>
      <trkpt lat="43.42045641504228115081787109375" lon="-7.02798717655241489410400390625">
        <ele>313</ele>
        <time>2019-07-11T07:54:05.000Z</time>
      </trkpt>
      <trkpt lat="43.420612402260303497314453125" lon="-7.02793654985725879669189453125">
        <ele>312.600006103515625</ele>
        <time>2019-07-11T07:54:06.000Z</time>
      </trkpt>
      <trkpt lat="43.4207667969167232513427734375" lon="-7.0278489589691162109375">
        <ele>312</ele>
        <time>2019-07-11T07:54:07.000Z</time>
      </trkpt>
      <trkpt lat="43.421086482703685760498046875" lon="-7.027619294822216033935546875">
        <ele>311.20001220703125</ele>
        <time>2019-07-11T07:54:09.000Z</time>
      </trkpt>
      <trkpt lat="43.421431817114353179931640625" lon="-7.02740379609167575836181640625">
        <ele>309.79998779296875</ele>
        <time>2019-07-11T07:54:11.000Z</time>
      </trkpt>
      <trkpt lat="43.42161630280315876007080078125" lon="-7.0273183844983577728271484375">
        <ele>308.399993896484375</ele>
        <time>2019-07-11T07:54:12.000Z</time>
      </trkpt>
      <trkpt lat="43.4218098409473896026611328125" lon="-7.02726029790937900543212890625">
        <ele>307.20001220703125</ele>
        <time>2019-07-11T07:54:13.000Z</time>
      </trkpt>
      <trkpt lat="43.42200748622417449951171875" lon="-7.02721956185996532440185546875">
        <ele>305.79998779296875</ele>
        <time>2019-07-11T07:54:14.000Z</time>
      </trkpt>
      <trkpt lat="43.42220865190029144287109375" lon="-7.0271851122379302978515625">
        <ele>304.399993896484375</ele>
        <time>2019-07-11T07:54:15.000Z</time>
      </trkpt>
      <trkpt lat="43.42240847647190093994140625" lon="-7.027147896587848663330078125">
        <ele>303</ele>
        <time>2019-07-11T07:54:16.000Z</time>
      </trkpt>
      <trkpt lat="43.42280318029224872589111328125" lon="-7.02706818468868732452392578125">
        <ele>301.600006103515625</ele>
        <time>2019-07-11T07:54:18.000Z</time>
      </trkpt>
      <trkpt lat="43.423210792243480682373046875" lon="-7.0269797556102275848388671875">
        <ele>300</ele>
        <time>2019-07-11T07:54:20.000Z</time>
      </trkpt>
      <trkpt lat="43.42363097704946994781494140625" lon="-7.02686123549938201904296875">
        <ele>299</ele>
        <time>2019-07-11T07:54:22.000Z</time>
      </trkpt>
      <trkpt lat="43.42405401170253753662109375" lon="-7.02673961408436298370361328125">
        <ele>296.79998779296875</ele>
        <time>2019-07-11T07:54:24.000Z</time>
      </trkpt>
      <trkpt lat="43.42425878159701824188232421875" lon="-7.02668043784797191619873046875">
        <ele>295</ele>
        <time>2019-07-11T07:54:25.000Z</time>
      </trkpt>
      <trkpt lat="43.42445055954158306121826171875" lon="-7.0266218483448028564453125">
        <ele>292.399993896484375</ele>
        <time>2019-07-11T07:54:26.000Z</time>
      </trkpt>
      <trkpt lat="43.42463647015392780303955078125" lon="-7.026569880545139312744140625">
        <ele>289.399993896484375</ele>
        <time>2019-07-11T07:54:27.000Z</time>
      </trkpt>
      <trkpt lat="43.4248139150440692901611328125" lon="-7.0265133865177631378173828125">
        <ele>287.399993896484375</ele>
        <time>2019-07-11T07:54:28.000Z</time>
      </trkpt>
      <trkpt lat="43.4249828942120075225830078125" lon="-7.02645345591008663177490234375">
        <ele>286.20001220703125</ele>
        <time>2019-07-11T07:54:29.000Z</time>
      </trkpt>
      <trkpt lat="43.4254848025739192962646484375" lon="-7.0262032561004161834716796875">
        <ele>285.399993896484375</ele>
        <time>2019-07-11T07:54:32.000Z</time>
      </trkpt>
      <trkpt lat="43.42600456438958644866943359375" lon="-7.0258143357932567596435546875">
        <ele>285</ele>
        <time>2019-07-11T07:54:35.000Z</time>
      </trkpt>
      <trkpt lat="43.426171950995922088623046875" lon="-7.0256574265658855438232421875">
        <ele>283.79998779296875</ele>
        <time>2019-07-11T07:54:36.000Z</time>
      </trkpt>
      <trkpt lat="43.4263397566974163055419921875" lon="-7.0254837535321712493896484375">
        <ele>282</ele>
        <time>2019-07-11T07:54:37.000Z</time>
      </trkpt>
      <trkpt lat="43.42650546692311763763427734375" lon="-7.02528887428343296051025390625">
        <ele>280.20001220703125</ele>
        <time>2019-07-11T07:54:38.000Z</time>
      </trkpt>
      <trkpt lat="43.42667411081492900848388671875" lon="-7.02508234418928623199462890625">
        <ele>278.399993896484375</ele>
        <time>2019-07-11T07:54:39.000Z</time>
      </trkpt>
      <trkpt lat="43.42684241943061351776123046875" lon="-7.0248703658580780029296875">
        <ele>276.79998779296875</ele>
        <time>2019-07-11T07:54:40.000Z</time>
      </trkpt>
      <trkpt lat="43.4270156733691692352294921875" lon="-7.0246653445065021514892578125">
        <ele>275.399993896484375</ele>
        <time>2019-07-11T07:54:41.000Z</time>
      </trkpt>
      <trkpt lat="43.4271903522312641143798828125" lon="-7.02446602284908294677734375">
        <ele>273.79998779296875</ele>
        <time>2019-07-11T07:54:42.000Z</time>
      </trkpt>
      <trkpt lat="43.4273663721978664398193359375" lon="-7.0242724008858203887939453125">
        <ele>271.79998779296875</ele>
        <time>2019-07-11T07:54:43.000Z</time>
      </trkpt>
      <trkpt lat="43.42754348181188106536865234375" lon="-7.024088837206363677978515625">
        <ele>269.399993896484375</ele>
        <time>2019-07-11T07:54:44.000Z</time>
      </trkpt>
      <trkpt lat="43.42771715484559535980224609375" lon="-7.023916505277156829833984375">
        <ele>267.20001220703125</ele>
        <time>2019-07-11T07:54:45.000Z</time>
      </trkpt>
      <trkpt lat="43.42788747511804103851318359375" lon="-7.023758254945278167724609375">
        <ele>266</ele>
        <time>2019-07-11T07:54:46.000Z</time>
      </trkpt>
      <trkpt lat="43.4280429594218730926513671875" lon="-7.02360595576465129852294921875">
        <ele>264.399993896484375</ele>
        <time>2019-07-11T07:54:47.000Z</time>
      </trkpt>
      <trkpt lat="43.428180925548076629638671875" lon="-7.02344854362308979034423828125">
        <ele>263.399993896484375</ele>
        <time>2019-07-11T07:54:48.000Z</time>
      </trkpt>
      <trkpt lat="43.42855668626725673675537109375" lon="-7.02288595028221607208251953125">
        <ele>263</ele>
        <time>2019-07-11T07:54:51.000Z</time>
      </trkpt>
      <trkpt lat="43.4288301877677440643310546875" lon="-7.02245344407856464385986328125">
        <ele>262.399993896484375</ele>
        <time>2019-07-11T07:54:53.000Z</time>
      </trkpt>
      <trkpt lat="43.4291549026966094970703125" lon="-7.02204423956573009490966796875">
        <ele>261</ele>
        <time>2019-07-11T07:54:55.000Z</time>
      </trkpt>
      <trkpt lat="43.42933586798608303070068359375" lon="-7.02186000533401966094970703125">
        <ele>258.20001220703125</ele>
        <time>2019-07-11T07:54:56.000Z</time>
      </trkpt>
      <trkpt lat="43.4295282326638698577880859375" lon="-7.02168985269963741302490234375">
        <ele>255</ele>
        <time>2019-07-11T07:54:57.000Z</time>
      </trkpt>
      <trkpt lat="43.42972948215901851654052734375" lon="-7.02153981663286685943603515625">
        <ele>252.8000030517578125</ele>
        <time>2019-07-11T07:54:58.000Z</time>
      </trkpt>
      <trkpt lat="43.429935090243816375732421875" lon="-7.02140696346759796142578125">
        <ele>250.399993896484375</ele>
        <time>2019-07-11T07:54:59.000Z</time>
      </trkpt>
      <trkpt lat="43.43014606274664402008056640625" lon="-7.02129104174673557281494140625">
        <ele>247.8000030517578125</ele>
        <time>2019-07-11T07:55:00.000Z</time>
      </trkpt>
      <trkpt lat="43.430360890924930572509765625" lon="-7.02119129709899425506591796875">
        <ele>245.600006103515625</ele>
        <time>2019-07-11T07:55:01.000Z</time>
      </trkpt>
      <trkpt lat="43.43057555146515369415283203125" lon="-7.02110253274440765380859375">
        <ele>244.600006103515625</ele>
        <time>2019-07-11T07:55:02.000Z</time>
      </trkpt>
      <trkpt lat="43.43098886311054229736328125" lon="-7.02093799598515033721923828125">
        <ele>243.1999969482421875</ele>
        <time>2019-07-11T07:55:04.000Z</time>
      </trkpt>
      <trkpt lat="43.43118005432188510894775390625" lon="-7.02086842618882656097412109375">
        <ele>241.1999969482421875</ele>
        <time>2019-07-11T07:55:05.000Z</time>
      </trkpt>
      <trkpt lat="43.43136579729616641998291015625" lon="-7.02081729657948017120361328125">
        <ele>239.600006103515625</ele>
        <time>2019-07-11T07:55:06.000Z</time>
      </trkpt>
      <trkpt lat="43.4315439127385616302490234375" lon="-7.02080614864826202392578125">
        <ele>239.399993896484375</ele>
        <time>2019-07-11T07:55:07.000Z</time>
      </trkpt>
      <trkpt lat="43.43171666376292705535888671875" lon="-7.020840346813201904296875">
        <ele>238.399993896484375</ele>
        <time>2019-07-11T07:55:08.000Z</time>
      </trkpt>
      <trkpt lat="43.4318902529776096343994140625" lon="-7.020910084247589111328125">
        <ele>237.399993896484375</ele>
        <time>2019-07-11T07:55:09.000Z</time>
      </trkpt>
      <trkpt lat="43.43205814249813556671142578125" lon="-7.02101443894207477569580078125">
        <ele>236.1999969482421875</ele>
        <time>2019-07-11T07:55:10.000Z</time>
      </trkpt>
      <trkpt lat="43.43239492736756801605224609375" lon="-7.02124980278313159942626953125">
        <ele>234.399993896484375</ele>
        <time>2019-07-11T07:55:12.000Z</time>
      </trkpt>
      <trkpt lat="43.4325668402016162872314453125" lon="-7.02135105617344379425048828125">
        <ele>232.600006103515625</ele>
        <time>2019-07-11T07:55:13.000Z</time>
      </trkpt>
      <trkpt lat="43.43273657374083995819091796875" lon="-7.02143286354839801788330078125">
        <ele>230.8000030517578125</ele>
        <time>2019-07-11T07:55:14.000Z</time>
      </trkpt>
      <trkpt lat="43.433053828775882720947265625" lon="-7.0215489529073238372802734375">
        <ele>229.399993896484375</ele>
        <time>2019-07-11T07:55:16.000Z</time>
      </trkpt>
      <trkpt lat="43.43319305218756198883056640625" lon="-7.02156722545623779296875">
        <ele>229.399993896484375</ele>
        <time>2019-07-11T07:55:17.000Z</time>
      </trkpt>
      <trkpt lat="43.43331861309707164764404296875" lon="-7.02154652215540409088134765625">
        <ele>229.600006103515625</ele>
        <time>2019-07-11T07:55:18.000Z</time>
      </trkpt>
      <trkpt lat="43.43343327753245830535888671875" lon="-7.02148667536675930023193359375">
        <ele>230</ele>
        <time>2019-07-11T07:55:19.000Z</time>
      </trkpt>
      <trkpt lat="43.43360804021358489990234375" lon="-7.021254412829875946044921875">
        <ele>230.8000030517578125</ele>
        <time>2019-07-11T07:55:21.000Z</time>
      </trkpt>
      <trkpt lat="43.4336859919130802154541015625" lon="-7.02092777006328105926513671875">
        <ele>230.8000030517578125</ele>
        <time>2019-07-11T07:55:23.000Z</time>
      </trkpt>
      <trkpt lat="43.43368808738887310028076171875" lon="-7.02007164247334003448486328125">
        <ele>229.600006103515625</ele>
        <time>2019-07-11T07:55:27.000Z</time>
      </trkpt>
      <trkpt lat="43.4336876682937145233154296875" lon="-7.01956453733146190643310546875">
        <ele>228</ele>
        <time>2019-07-11T07:55:29.000Z</time>
      </trkpt>
      <trkpt lat="43.43369144015014171600341796875" lon="-7.01930872164666652679443359375">
        <ele>226.8000030517578125</ele>
        <time>2019-07-11T07:55:30.000Z</time>
      </trkpt>
      <trkpt lat="43.43369546346366405487060546875" lon="-7.01906279660761356353759765625">
        <ele>225.399993896484375</ele>
        <time>2019-07-11T07:55:31.000Z</time>
      </trkpt>
      <trkpt lat="43.4337034262716770172119140625" lon="-7.01883145608007907867431640625">
        <ele>223.399993896484375</ele>
        <time>2019-07-11T07:55:32.000Z</time>
      </trkpt>
      <trkpt lat="43.4337027557194232940673828125" lon="-7.018619477748870849609375">
        <ele>221.399993896484375</ele>
        <time>2019-07-11T07:55:33.000Z</time>
      </trkpt>
      <trkpt lat="43.43371239490807056427001953125" lon="-7.01842392794787883758544921875">
        <ele>219.600006103515625</ele>
        <time>2019-07-11T07:55:34.000Z</time>
      </trkpt>
      <trkpt lat="43.43374240212142467498779296875" lon="-7.01824656687676906585693359375">
        <ele>218.399993896484375</ele>
        <time>2019-07-11T07:55:35.000Z</time>
      </trkpt>
      <trkpt lat="43.43378732912242412567138671875" lon="-7.0180976204574108123779296875">
        <ele>217.600006103515625</ele>
        <time>2019-07-11T07:55:36.000Z</time>
      </trkpt>
      <trkpt lat="43.433837704360485076904296875" lon="-7.01796971261501312255859375">
        <ele>217.1999969482421875</ele>
        <time>2019-07-11T07:55:37.000Z</time>
      </trkpt>
      <trkpt lat="43.43393485061824321746826171875" lon="-7.017876170575618743896484375">
        <ele>216.8000030517578125</ele>
        <time>2019-07-11T07:55:38.000Z</time>
      </trkpt>
      <trkpt lat="43.43419183976948261260986328125" lon="-7.01777433045208454132080078125">
        <ele>216.1999969482421875</ele>
        <time>2019-07-11T07:55:40.000Z</time>
      </trkpt>
      <trkpt lat="43.43450012616813182830810546875" lon="-7.0178421400487422943115234375">
        <ele>215</ele>
        <time>2019-07-11T07:55:42.000Z</time>
      </trkpt>
      <trkpt lat="43.43477723188698291778564453125" lon="-7.0181515999138355255126953125">
        <ele>213.1999969482421875</ele>
        <time>2019-07-11T07:55:44.000Z</time>
      </trkpt>
      <trkpt lat="43.4350260905921459197998046875" lon="-7.0186226628720760345458984375">
        <ele>211.8000030517578125</ele>
        <time>2019-07-11T07:55:46.000Z</time>
      </trkpt>
      <trkpt lat="43.4352899529039859771728515625" lon="-7.019123733043670654296875">
        <ele>209.8000030517578125</ele>
        <time>2019-07-11T07:55:48.000Z</time>
      </trkpt>
      <trkpt lat="43.435564376413822174072265625" lon="-7.0196271501481533050537109375">
        <ele>207.600006103515625</ele>
        <time>2019-07-11T07:55:50.000Z</time>
      </trkpt>
      <trkpt lat="43.43570376746356487274169921875" lon="-7.0198782719671726226806640625">
        <ele>206.1999969482421875</ele>
        <time>2019-07-11T07:55:51.000Z</time>
      </trkpt>
      <trkpt lat="43.43584944494068622589111328125" lon="-7.02012780122458934783935546875">
        <ele>205.1999969482421875</ele>
        <time>2019-07-11T07:55:52.000Z</time>
      </trkpt>
      <trkpt lat="43.435990512371063232421875" lon="-7.0203795097768306732177734375">
        <ele>203</ele>
        <time>2019-07-11T07:55:53.000Z</time>
      </trkpt>
      <trkpt lat="43.43612571246922016143798828125" lon="-7.0206239260733127593994140625">
        <ele>200.8000030517578125</ele>
        <time>2019-07-11T07:55:54.000Z</time>
      </trkpt>
      <trkpt lat="43.4362501837313175201416015625" lon="-7.0208509080111980438232421875">
        <ele>199</ele>
        <time>2019-07-11T07:55:55.000Z</time>
      </trkpt>
      <trkpt lat="43.43635772354900836944580078125" lon="-7.02104595489799976348876953125">
        <ele>197</ele>
        <time>2019-07-11T07:55:56.000Z</time>
      </trkpt>
      <trkpt lat="43.43644774518907070159912109375" lon="-7.02120906673371791839599609375">
        <ele>195.8000030517578125</ele>
        <time>2019-07-11T07:55:57.000Z</time>
      </trkpt>
      <trkpt lat="43.43658185563981533050537109375" lon="-7.0215068757534027099609375">
        <ele>195</ele>
        <time>2019-07-11T07:55:59.000Z</time>
      </trkpt>
      <trkpt lat="43.43661538325250148773193359375" lon="-7.021674178540706634521484375">
        <ele>194.8000030517578125</ele>
        <time>2019-07-11T07:56:00.000Z</time>
      </trkpt>
      <trkpt lat="43.43662292696535587310791015625" lon="-7.021859250962734222412109375">
        <ele>194.600006103515625</ele>
        <time>2019-07-11T07:56:01.000Z</time>
      </trkpt>
      <trkpt lat="43.4366007149219512939453125" lon="-7.02239996753633022308349609375">
        <ele>193.1999969482421875</ele>
        <time>2019-07-11T07:56:04.000Z</time>
      </trkpt>
      <trkpt lat="43.43667640350759029388427734375" lon="-7.0227163843810558319091796875">
        <ele>192.399993896484375</ele>
        <time>2019-07-11T07:56:06.000Z</time>
      </trkpt>
      <trkpt lat="43.4367514215409755706787109375" lon="-7.02286298386752605438232421875">
        <ele>192</ele>
        <time>2019-07-11T07:56:07.000Z</time>
      </trkpt>
      <trkpt lat="43.43694797717034816741943359375" lon="-7.023125924170017242431640625">
        <ele>190.600006103515625</ele>
        <time>2019-07-11T07:56:09.000Z</time>
      </trkpt>
      <trkpt lat="43.43716238625347614288330078125" lon="-7.02334108762443065643310546875">
        <ele>188.8000030517578125</ele>
        <time>2019-07-11T07:56:11.000Z</time>
      </trkpt>
      <trkpt lat="43.4372747875750064849853515625" lon="-7.02343043871223926544189453125">
        <ele>187.600006103515625</ele>
        <time>2019-07-11T07:56:12.000Z</time>
      </trkpt>
      <trkpt lat="43.43769170343875885009765625" lon="-7.02355147339403629302978515625">
        <ele>186.399993896484375</ele>
        <time>2019-07-11T07:56:15.000Z</time>
      </trkpt>
      <trkpt lat="43.43784182332456111907958984375" lon="-7.02358818612992763519287109375">
        <ele>185.8000030517578125</ele>
        <time>2019-07-11T07:56:16.000Z</time>
      </trkpt>
      <trkpt lat="43.43797895126044750213623046875" lon="-7.023667395114898681640625">
        <ele>184.8000030517578125</ele>
        <time>2019-07-11T07:56:17.000Z</time>
      </trkpt>
      <trkpt lat="43.4381089545786380767822265625" lon="-7.0237745158374309539794921875">
        <ele>183.600006103515625</ele>
        <time>2019-07-11T07:56:18.000Z</time>
      </trkpt>
      <trkpt lat="43.43823074363172054290771484375" lon="-7.02388758771121501922607421875">
        <ele>182</ele>
        <time>2019-07-11T07:56:19.000Z</time>
      </trkpt>
      <trkpt lat="43.43834440223872661590576171875" lon="-7.02400007285177707672119140625">
        <ele>180.8000030517578125</ele>
        <time>2019-07-11T07:56:20.000Z</time>
      </trkpt>
      <trkpt lat="43.43845202587544918060302734375" lon="-7.02409629710018634796142578125">
        <ele>179.600006103515625</ele>
        <time>2019-07-11T07:56:21.000Z</time>
      </trkpt>
      <trkpt lat="43.43856601975858211517333984375" lon="-7.02417626045644283294677734375">
        <ele>178.8000030517578125</ele>
        <time>2019-07-11T07:56:22.000Z</time>
      </trkpt>
      <trkpt lat="43.43870264478027820587158203125" lon="-7.0242257975041866302490234375">
        <ele>178</ele>
        <time>2019-07-11T07:56:23.000Z</time>
      </trkpt>
      <trkpt lat="43.43901277519762516021728515625" lon="-7.0243109576404094696044921875">
        <ele>176.8000030517578125</ele>
        <time>2019-07-11T07:56:25.000Z</time>
      </trkpt>
      <trkpt lat="43.4393213130533695220947265625" lon="-7.02442553825676441192626953125">
        <ele>175.8000030517578125</ele>
        <time>2019-07-11T07:56:27.000Z</time>
      </trkpt>
      <trkpt lat="43.439625911414623260498046875" lon="-7.02454053796827793121337890625">
        <ele>173.600006103515625</ele>
        <time>2019-07-11T07:56:29.000Z</time>
      </trkpt>
      <trkpt lat="43.4398917853832244873046875" lon="-7.02461446635425090789794921875">
        <ele>171.600006103515625</ele>
        <time>2019-07-11T07:56:31.000Z</time>
      </trkpt>
      <trkpt lat="43.44011834822595119476318359375" lon="-7.024581693112850189208984375">
        <ele>169.600006103515625</ele>
        <time>2019-07-11T07:56:33.000Z</time>
      </trkpt>
      <trkpt lat="43.44031800515949726104736328125" lon="-7.02441908419132232666015625">
        <ele>168.1999969482421875</ele>
        <time>2019-07-11T07:56:35.000Z</time>
      </trkpt>
      <trkpt lat="43.4404877386987209320068359375" lon="-7.02416636981070041656494140625">
        <ele>167.600006103515625</ele>
        <time>2019-07-11T07:56:37.000Z</time>
      </trkpt>
      <trkpt lat="43.44056761823594570159912109375" lon="-7.02380561269819736480712890625">
        <ele>167.399993896484375</ele>
        <time>2019-07-11T07:56:39.000Z</time>
      </trkpt>
      <trkpt lat="43.44060298986732959747314453125" lon="-7.02360981144011020660400390625">
        <ele>167.1999969482421875</ele>
        <time>2019-07-11T07:56:40.000Z</time>
      </trkpt>
      <trkpt lat="43.4406510181725025177001953125" lon="-7.02342641539871692657470703125">
        <ele>166.8000030517578125</ele>
        <time>2019-07-11T07:56:41.000Z</time>
      </trkpt>
      <trkpt lat="43.4408337436616420745849609375" lon="-7.02315132133662700653076171875">
        <ele>165</ele>
        <time>2019-07-11T07:56:43.000Z</time>
      </trkpt>
      <trkpt lat="43.4409524314105510711669921875" lon="-7.023065574467182159423828125">
        <ele>163.1999969482421875</ele>
        <time>2019-07-11T07:56:44.000Z</time>
      </trkpt>
      <trkpt lat="43.44109199009835720062255859375" lon="-7.02302726916968822479248046875">
        <ele>161.1999969482421875</ele>
        <time>2019-07-11T07:56:45.000Z</time>
      </trkpt>
      <trkpt lat="43.44123414717614650726318359375" lon="-7.0230228267610073089599609375">
        <ele>159.600006103515625</ele>
        <time>2019-07-11T07:56:46.000Z</time>
      </trkpt>
      <trkpt lat="43.4413792379200458526611328125" lon="-7.02306465245783329010009765625">
        <ele>158.600006103515625</ele>
        <time>2019-07-11T07:56:47.000Z</time>
      </trkpt>
      <trkpt lat="43.4416203014552593231201171875" lon="-7.0233066380023956298828125">
        <ele>157</ele>
        <time>2019-07-11T07:56:49.000Z</time>
      </trkpt>
      <trkpt lat="43.44176338054239749908447265625" lon="-7.0236849971115589141845703125">
        <ele>154.600006103515625</ele>
        <time>2019-07-11T07:56:51.000Z</time>
      </trkpt>
      <trkpt lat="43.44180746935307979583740234375" lon="-7.02389244921505451202392578125">
        <ele>152.399993896484375</ele>
        <time>2019-07-11T07:56:52.000Z</time>
      </trkpt>
      <trkpt lat="43.44186253845691680908203125" lon="-7.02407701872289180755615234375">
        <ele>150.1999969482421875</ele>
        <time>2019-07-11T07:56:53.000Z</time>
      </trkpt>
      <trkpt lat="43.44194241799414157867431640625" lon="-7.02424163930118083953857421875">
        <ele>148.600006103515625</ele>
        <time>2019-07-11T07:56:54.000Z</time>
      </trkpt>
      <trkpt lat="43.44204249791800975799560546875" lon="-7.02438748441636562347412109375">
        <ele>147.8000030517578125</ele>
        <time>2019-07-11T07:56:55.000Z</time>
      </trkpt>
      <trkpt lat="43.44215900637209415435791015625" lon="-7.02450131066143512725830078125">
        <ele>147.1999969482421875</ele>
        <time>2019-07-11T07:56:56.000Z</time>
      </trkpt>
      <trkpt lat="43.44229680486023426055908203125" lon="-7.02458462677896022796630859375">
        <ele>146.8000030517578125</ele>
        <time>2019-07-11T07:56:57.000Z</time>
      </trkpt>
      <trkpt lat="43.442589081823825836181640625" lon="-7.024659812450408935546875">
        <ele>146.399993896484375</ele>
        <time>2019-07-11T07:56:59.000Z</time>
      </trkpt>
      <trkpt lat="43.442882113158702850341796875" lon="-7.02463567256927490234375">
        <ele>146</ele>
        <time>2019-07-11T07:57:01.000Z</time>
      </trkpt>
      <trkpt lat="43.4430116973817348480224609375" lon="-7.024597115814685821533203125">
        <ele>144.8000030517578125</ele>
        <time>2019-07-11T07:57:02.000Z</time>
      </trkpt>
      <trkpt lat="43.44313650391995906829833984375" lon="-7.02455964870750904083251953125">
        <ele>143</ele>
        <time>2019-07-11T07:57:03.000Z</time>
      </trkpt>
      <trkpt lat="43.44326533377170562744140625" lon="-7.0245453156530857086181640625">
        <ele>140.8000030517578125</ele>
        <time>2019-07-11T07:57:04.000Z</time>
      </trkpt>
      <trkpt lat="43.4433892183005809783935546875" lon="-7.024558223783969879150390625">
        <ele>139.1999969482421875</ele>
        <time>2019-07-11T07:57:05.000Z</time>
      </trkpt>
      <trkpt lat="43.44352525658905506134033203125" lon="-7.02461429871618747711181640625">
        <ele>138.1999969482421875</ele>
        <time>2019-07-11T07:57:06.000Z</time>
      </trkpt>
      <trkpt lat="43.4437482990324497222900390625" lon="-7.02485024929046630859375">
        <ele>136.399993896484375</ele>
        <time>2019-07-11T07:57:08.000Z</time>
      </trkpt>
      <trkpt lat="43.44382784329354763031005859375" lon="-7.02501830644905567169189453125">
        <ele>135.1999969482421875</ele>
        <time>2019-07-11T07:57:09.000Z</time>
      </trkpt>
      <trkpt lat="43.44389674253761768341064453125" lon="-7.025179155170917510986328125">
        <ele>134</ele>
        <time>2019-07-11T07:57:10.000Z</time>
      </trkpt>
      <trkpt lat="43.44396782107651233673095703125" lon="-7.02531921677291393280029296875">
        <ele>132.600006103515625</ele>
        <time>2019-07-11T07:57:11.000Z</time>
      </trkpt>
      <trkpt lat="43.44416345469653606414794921875" lon="-7.0255176164209842681884765625">
        <ele>131.600006103515625</ele>
        <time>2019-07-11T07:57:13.000Z</time>
      </trkpt>
      <trkpt lat="43.44455455429852008819580078125" lon="-7.02566086314618587493896484375">
        <ele>130.600006103515625</ele>
        <time>2019-07-11T07:57:16.000Z</time>
      </trkpt>
      <trkpt lat="43.4447092004120349884033203125" lon="-7.025678046047687530517578125">
        <ele>130.1999969482421875</ele>
        <time>2019-07-11T07:57:17.000Z</time>
      </trkpt>
      <trkpt lat="43.44503550790250301361083984375" lon="-7.025679387152194976806640625">
        <ele>128.8000030517578125</ele>
        <time>2019-07-11T07:57:19.000Z</time>
      </trkpt>
      <trkpt lat="43.44519074074923992156982421875" lon="-7.025649882853031158447265625">
        <ele>127.59999847412109375</ele>
        <time>2019-07-11T07:57:20.000Z</time>
      </trkpt>
      <trkpt lat="43.44533222727477550506591796875" lon="-7.0255890302360057830810546875">
        <ele>126.1999969482421875</ele>
        <time>2019-07-11T07:57:21.000Z</time>
      </trkpt>
      <trkpt lat="43.4454615600407123565673828125" lon="-7.025495655834674835205078125">
        <ele>124.59999847412109375</ele>
        <time>2019-07-11T07:57:22.000Z</time>
      </trkpt>
      <trkpt lat="43.44557245261967182159423828125" lon="-7.0253647305071353912353515625">
        <ele>123.59999847412109375</ele>
        <time>2019-07-11T07:57:23.000Z</time>
      </trkpt>
      <trkpt lat="43.44576112926006317138671875" lon="-7.025056444108486175537109375">
        <ele>122</ele>
        <time>2019-07-11T07:57:25.000Z</time>
      </trkpt>
      <trkpt lat="43.44585525803267955780029296875" lon="-7.02491931617259979248046875">
        <ele>121</ele>
        <time>2019-07-11T07:57:26.000Z</time>
      </trkpt>
      <trkpt lat="43.44595869071781635284423828125" lon="-7.02481563203036785125732421875">
        <ele>119.59999847412109375</ele>
        <time>2019-07-11T07:57:27.000Z</time>
      </trkpt>
      <trkpt lat="43.44608492217957973480224609375" lon="-7.02476198785006999969482421875">
        <ele>118.40000152587890625</ele>
        <time>2019-07-11T07:57:28.000Z</time>
      </trkpt>
      <trkpt lat="43.44622422941029071807861328125" lon="-7.02475075609982013702392578125">
        <ele>117.1999969482421875</ele>
        <time>2019-07-11T07:57:29.000Z</time>
      </trkpt>
      <trkpt lat="43.4463708288967609405517578125" lon="-7.02478294260799884796142578125">
        <ele>116.59999847412109375</ele>
        <time>2019-07-11T07:57:30.000Z</time>
      </trkpt>
      <trkpt lat="43.4465061128139495849609375" lon="-7.024868018925189971923828125">
        <ele>115.8000030517578125</ele>
        <time>2019-07-11T07:57:31.000Z</time>
      </trkpt>
      <trkpt lat="43.4466160833835601806640625" lon="-7.02500154264271259307861328125">
        <ele>114.8000030517578125</ele>
        <time>2019-07-11T07:57:32.000Z</time>
      </trkpt>
      <trkpt lat="43.44669143669307231903076171875" lon="-7.0251766405999660491943359375">
        <ele>113.8000030517578125</ele>
        <time>2019-07-11T07:57:33.000Z</time>
      </trkpt>
      <trkpt lat="43.4467329271137714385986328125" lon="-7.02536833472549915313720703125">
        <ele>112.1999969482421875</ele>
        <time>2019-07-11T07:57:34.000Z</time>
      </trkpt>
      <trkpt lat="43.4467413090169429779052734375" lon="-7.02555273659527301788330078125">
        <ele>110.40000152587890625</ele>
        <time>2019-07-11T07:57:35.000Z</time>
      </trkpt>
      <trkpt lat="43.44672362320125102996826171875" lon="-7.025870494544506072998046875">
        <ele>108.8000030517578125</ele>
        <time>2019-07-11T07:57:37.000Z</time>
      </trkpt>
      <trkpt lat="43.4467956237494945526123046875" lon="-7.02615438960492610931396484375">
        <ele>108.1999969482421875</ele>
        <time>2019-07-11T07:57:39.000Z</time>
      </trkpt>
      <trkpt lat="43.4469890780746936798095703125" lon="-7.0264305733144283294677734375">
        <ele>108.59999847412109375</ele>
        <time>2019-07-11T07:57:41.000Z</time>
      </trkpt>
      <trkpt lat="43.44740130007266998291015625" lon="-7.0268741436302661895751953125">
        <ele>108.1999969482421875</ele>
        <time>2019-07-11T07:57:44.000Z</time>
      </trkpt>
      <trkpt lat="43.4475379250943660736083984375" lon="-7.0270350761711597442626953125">
        <ele>107.1999969482421875</ele>
        <time>2019-07-11T07:57:45.000Z</time>
      </trkpt>
      <trkpt lat="43.44767128117382526397705078125" lon="-7.027195505797863006591796875">
        <ele>105.40000152587890625</ele>
        <time>2019-07-11T07:57:46.000Z</time>
      </trkpt>
      <trkpt lat="43.4478084929287433624267578125" lon="-7.02736012637615203857421875">
        <ele>103.59999847412109375</ele>
        <time>2019-07-11T07:57:47.000Z</time>
      </trkpt>
      <trkpt lat="43.44794922508299350738525390625" lon="-7.027526758611202239990234375">
        <ele>101.59999847412109375</ele>
        <time>2019-07-11T07:57:48.000Z</time>
      </trkpt>
      <trkpt lat="43.448092304170131683349609375" lon="-7.02769900672137737274169921875">
        <ele>100</ele>
        <time>2019-07-11T07:57:49.000Z</time>
      </trkpt>
      <trkpt lat="43.4482379816472530364990234375" lon="-7.027872763574123382568359375">
        <ele>98.59999847412109375</ele>
        <time>2019-07-11T07:57:50.000Z</time>
      </trkpt>
      <trkpt lat="43.44838324002921581268310546875" lon="-7.028045766055583953857421875">
        <ele>96.40000152587890625</ele>
        <time>2019-07-11T07:57:51.000Z</time>
      </trkpt>
      <trkpt lat="43.448518104851245880126953125" lon="-7.02822471968829631805419921875">
        <ele>93.59999847412109375</ele>
        <time>2019-07-11T07:57:52.000Z</time>
      </trkpt>
      <trkpt lat="43.44863771460950374603271484375" lon="-7.028414569795131683349609375">
        <ele>91.1999969482421875</ele>
        <time>2019-07-11T07:57:53.000Z</time>
      </trkpt>
      <trkpt lat="43.44874106347560882568359375" lon="-7.02861271798610687255859375">
        <ele>88.8000030517578125</ele>
        <time>2019-07-11T07:57:54.000Z</time>
      </trkpt>
      <trkpt lat="43.44883100129663944244384765625" lon="-7.02880525030195713043212890625">
        <ele>87.1999969482421875</ele>
        <time>2019-07-11T07:57:55.000Z</time>
      </trkpt>
      <trkpt lat="43.44891062937676906585693359375" lon="-7.0289768278598785400390625">
        <ele>86.1999969482421875</ele>
        <time>2019-07-11T07:57:56.000Z</time>
      </trkpt>
      <trkpt lat="43.44905664213001728057861328125" lon="-7.02924747951328754425048828125">
        <ele>85.59999847412109375</ele>
        <time>2019-07-11T07:57:58.000Z</time>
      </trkpt>
      <trkpt lat="43.44924774952232837677001953125" lon="-7.02941201627254486083984375">
        <ele>86</ele>
        <time>2019-07-11T07:58:00.000Z</time>
      </trkpt>
      <trkpt lat="43.449509851634502410888671875" lon="-7.02946356497704982757568359375">
        <ele>87</ele>
        <time>2019-07-11T07:58:02.000Z</time>
      </trkpt>
      <trkpt lat="43.44965980388224124908447265625" lon="-7.0294644869863986968994140625">
        <ele>87.1999969482421875</ele>
        <time>2019-07-11T07:58:03.000Z</time>
      </trkpt>
      <trkpt lat="43.449991643428802490234375" lon="-7.02948368154466152191162109375">
        <ele>86.8000030517578125</ele>
        <time>2019-07-11T07:58:05.000Z</time>
      </trkpt>
      <trkpt lat="43.45018400810658931732177734375" lon="-7.029541097581386566162109375">
        <ele>86</ele>
        <time>2019-07-11T07:58:06.000Z</time>
      </trkpt>
      <trkpt lat="43.45038299448788166046142578125" lon="-7.02963086776435375213623046875">
        <ele>84.8000030517578125</ele>
        <time>2019-07-11T07:58:07.000Z</time>
      </trkpt>
      <trkpt lat="43.45057980157434940338134765625" lon="-7.029732875525951385498046875">
        <ele>83</ele>
        <time>2019-07-11T07:58:08.000Z</time>
      </trkpt>
      <trkpt lat="43.45076856203377246856689453125" lon="-7.029831111431121826171875">
        <ele>80.8000030517578125</ele>
        <time>2019-07-11T07:58:09.000Z</time>
      </trkpt>
      <trkpt lat="43.45094659365713596343994140625" lon="-7.02992297708988189697265625">
        <ele>78.1999969482421875</ele>
        <time>2019-07-11T07:58:10.000Z</time>
      </trkpt>
      <trkpt lat="43.451107442378997802734375" lon="-7.03000972978770732879638671875">
        <ele>76</ele>
        <time>2019-07-11T07:58:11.000Z</time>
      </trkpt>
      <trkpt lat="43.451241888105869293212890625" lon="-7.03009891323745250701904296875">
        <ele>74.40000152587890625</ele>
        <time>2019-07-11T07:58:12.000Z</time>
      </trkpt>
      <trkpt lat="43.45143827609717845916748046875" lon="-7.03035322017967700958251953125">
        <ele>72.8000030517578125</ele>
        <time>2019-07-11T07:58:14.000Z</time>
      </trkpt>
      <trkpt lat="43.4515461511909961700439453125" lon="-7.03070056624710559844970703125">
        <ele>71.59999847412109375</ele>
        <time>2019-07-11T07:58:16.000Z</time>
      </trkpt>
      <trkpt lat="43.45163541845977306365966796875" lon="-7.0310251973569393157958984375">
        <ele>71</ele>
        <time>2019-07-11T07:58:18.000Z</time>
      </trkpt>
      <trkpt lat="43.45180255360901355743408203125" lon="-7.03126139938831329345703125">
        <ele>70.59999847412109375</ele>
        <time>2019-07-11T07:58:20.000Z</time>
      </trkpt>
      <trkpt lat="43.45190866850316524505615234375" lon="-7.031344212591648101806640625">
        <ele>70.59999847412109375</ele>
        <time>2019-07-11T07:58:21.000Z</time>
      </trkpt>
      <trkpt lat="43.45203422941267490386962890625" lon="-7.0313839428126811981201171875">
        <ele>70.40000152587890625</ele>
        <time>2019-07-11T07:58:22.000Z</time>
      </trkpt>
      <trkpt lat="43.45248140394687652587890625" lon="-7.0314040593802928924560546875">
        <ele>70</ele>
        <time>2019-07-11T07:58:25.000Z</time>
      </trkpt>
      <trkpt lat="43.45263898372650146484375" lon="-7.0314573682844638824462890625">
        <ele>68.59999847412109375</ele>
        <time>2019-07-11T07:58:26.000Z</time>
      </trkpt>
      <trkpt lat="43.45278793014585971832275390625" lon="-7.03153557144105434417724609375">
        <ele>66.40000152587890625</ele>
        <time>2019-07-11T07:58:27.000Z</time>
      </trkpt>
      <trkpt lat="43.4529358707368373870849609375" lon="-7.03161084093153476715087890625">
        <ele>63.799999237060546875</ele>
        <time>2019-07-11T07:58:28.000Z</time>
      </trkpt>
      <trkpt lat="43.45308624207973480224609375" lon="-7.0316595397889614105224609375">
        <ele>62.40000152587890625</ele>
        <time>2019-07-11T07:58:29.000Z</time>
      </trkpt>
      <trkpt lat="43.45338120125234127044677734375" lon="-7.03160296194255352020263671875">
        <ele>61.40000152587890625</ele>
        <time>2019-07-11T07:58:31.000Z</time>
      </trkpt>
      <trkpt lat="43.45369887538254261016845703125" lon="-7.03146482817828655242919921875">
        <ele>60.200000762939453125</ele>
        <time>2019-07-11T07:58:33.000Z</time>
      </trkpt>
      <trkpt lat="43.45405963249504566192626953125" lon="-7.031460218131542205810546875">
        <ele>59.200000762939453125</ele>
        <time>2019-07-11T07:58:35.000Z</time>
      </trkpt>
      <trkpt lat="43.4542360715568065643310546875" lon="-7.0314712822437286376953125">
        <ele>57.799999237060546875</ele>
        <time>2019-07-11T07:58:36.000Z</time>
      </trkpt>
      <trkpt lat="43.45440060831606388092041015625" lon="-7.03144638799130916595458984375">
        <ele>56.40000152587890625</ele>
        <time>2019-07-11T07:58:37.000Z</time>
      </trkpt>
      <trkpt lat="43.45455114729702472686767578125" lon="-7.031389139592647552490234375">
        <ele>55.200000762939453125</ele>
        <time>2019-07-11T07:58:38.000Z</time>
      </trkpt>
      <trkpt lat="43.4548504650592803955078125" lon="-7.03128880821168422698974609375">
        <ele>53.799999237060546875</ele>
        <time>2019-07-11T07:58:40.000Z</time>
      </trkpt>
      <trkpt lat="43.4551895968616008758544921875" lon="-7.03136206604540348052978515625">
        <ele>52.40000152587890625</ele>
        <time>2019-07-11T07:58:42.000Z</time>
      </trkpt>
      <trkpt lat="43.45536922104656696319580078125" lon="-7.031432054936885833740234375">
        <ele>51.200000762939453125</ele>
        <time>2019-07-11T07:58:43.000Z</time>
      </trkpt>
      <trkpt lat="43.45554859377443790435791015625" lon="-7.03150522895157337188720703125">
        <ele>49.200000762939453125</ele>
        <time>2019-07-11T07:58:44.000Z</time>
      </trkpt>
      <trkpt lat="43.455723188817501068115234375" lon="-7.03158670105040073394775390625">
        <ele>46.40000152587890625</ele>
        <time>2019-07-11T07:58:45.000Z</time>
      </trkpt>
      <trkpt lat="43.4558876417577266693115234375" lon="-7.0316977612674236297607421875">
        <ele>43.59999847412109375</ele>
        <time>2019-07-11T07:58:46.000Z</time>
      </trkpt>
      <trkpt lat="43.4560360014438629150390625" lon="-7.03183312900364398956298828125">
        <ele>41.200000762939453125</ele>
        <time>2019-07-11T07:58:47.000Z</time>
      </trkpt>
      <trkpt lat="43.45617405138909816741943359375" lon="-7.03197947703301906585693359375">
        <ele>39.40000152587890625</ele>
        <time>2019-07-11T07:58:48.000Z</time>
      </trkpt>
      <trkpt lat="43.4563198126852512359619140625" lon="-7.03211174346506595611572265625">
        <ele>38.40000152587890625</ele>
        <time>2019-07-11T07:58:49.000Z</time>
      </trkpt>
      <trkpt lat="43.4566443599760532379150390625" lon="-7.03228960745036602020263671875">
        <ele>36.59999847412109375</ele>
        <time>2019-07-11T07:58:51.000Z</time>
      </trkpt>
      <trkpt lat="43.456983827054500579833984375" lon="-7.0324196107685565948486328125">
        <ele>35.200000762939453125</ele>
        <time>2019-07-11T07:58:53.000Z</time>
      </trkpt>
      <trkpt lat="43.45733008347451686859130859375" lon="-7.032537125051021575927734375">
        <ele>34.200000762939453125</ele>
        <time>2019-07-11T07:58:55.000Z</time>
      </trkpt>
      <trkpt lat="43.45750476233661174774169921875" lon="-7.03255799598991870880126953125">
        <ele>33.799999237060546875</ele>
        <time>2019-07-11T07:58:56.000Z</time>
      </trkpt>
      <trkpt lat="43.45767105929553508758544921875" lon="-7.03254911117255687713623046875">
        <ele>33.200000762939453125</ele>
        <time>2019-07-11T07:58:57.000Z</time>
      </trkpt>
      <trkpt lat="43.45783266238868236541748046875" lon="-7.03252379782497882843017578125">
        <ele>32.40000152587890625</ele>
        <time>2019-07-11T07:58:58.000Z</time>
      </trkpt>
      <trkpt lat="43.45817732624709606170654296875" lon="-7.03246881254017353057861328125">
        <ele>31.3999996185302734375</ele>
        <time>2019-07-11T07:59:00.000Z</time>
      </trkpt>
      <trkpt lat="43.45854126848280429840087890625" lon="-7.0324642024934291839599609375">
        <ele>29.799999237060546875</ele>
        <time>2019-07-11T07:59:02.000Z</time>
      </trkpt>
      <trkpt lat="43.4589094854891300201416015625" lon="-7.032534442842006683349609375">
        <ele>28.3999996185302734375</ele>
        <time>2019-07-11T07:59:04.000Z</time>
      </trkpt>
      <trkpt lat="43.4594258107244968414306640625" lon="-7.0326191000640392303466796875">
        <ele>26.6000003814697265625</ele>
        <time>2019-07-11T07:59:07.000Z</time>
      </trkpt>
      <trkpt lat="43.45958121120929718017578125" lon="-7.032665871083736419677734375">
        <ele>25.200000762939453125</ele>
        <time>2019-07-11T07:59:08.000Z</time>
      </trkpt>
      <trkpt lat="43.45986879430711269378662109375" lon="-7.0328008197247982025146484375">
        <ele>24.200000762939453125</ele>
        <time>2019-07-11T07:59:10.000Z</time>
      </trkpt>
      <trkpt lat="43.4599099494516849517822265625" lon="-7.03294406644999980926513671875">
        <ele>24.6000003814697265625</ele>
        <time>2019-07-11T07:59:11.000Z</time>
      </trkpt>
      <trkpt lat="43.45993853174149990081787109375" lon="-7.03322636894881725311279296875">
        <ele>25</ele>
        <time>2019-07-11T07:59:13.000Z</time>
      </trkpt>
      <trkpt lat="43.45993333496153354644775390625" lon="-7.03337640501558780670166015625">
        <ele>25.3999996185302734375</ele>
        <time>2019-07-11T07:59:14.000Z</time>
      </trkpt>
      <trkpt lat="43.45990165136754512786865234375" lon="-7.03406221233308315277099609375">
        <ele>26.6000003814697265625</ele>
        <time>2019-07-11T07:59:18.000Z</time>
      </trkpt>
      <trkpt lat="43.45993333496153354644775390625" lon="-7.03443847596645355224609375">
        <ele>26.6000003814697265625</ele>
        <time>2019-07-11T07:59:20.000Z</time>
      </trkpt>
      <trkpt lat="43.46004950813949108123779296875" lon="-7.035224698483943939208984375">
        <ele>27</ele>
        <time>2019-07-11T07:59:24.000Z</time>
      </trkpt>
      <trkpt lat="43.46018026582896709442138671875" lon="-7.03585258685052394866943359375">
        <ele>25.6000003814697265625</ele>
        <time>2019-07-11T07:59:27.000Z</time>
      </trkpt>
      <trkpt lat="43.46022787503898143768310546875" lon="-7.03607822768390178680419921875">
        <ele>25.200000762939453125</ele>
        <time>2019-07-11T07:59:28.000Z</time>
      </trkpt>
      <trkpt lat="43.46037036739289760589599609375" lon="-7.03678498975932598114013671875">
        <ele>24.3999996185302734375</ele>
        <time>2019-07-11T07:59:31.000Z</time>
      </trkpt>
      <trkpt lat="43.46040599048137664794921875" lon="-7.0370283164083957672119140625">
        <ele>24</ele>
        <time>2019-07-11T07:59:32.000Z</time>
      </trkpt>
      <trkpt lat="43.46051000989973545074462890625" lon="-7.03754086978733539581298828125">
        <ele>23.6000003814697265625</ele>
        <time>2019-07-11T07:59:34.000Z</time>
      </trkpt>
      <trkpt lat="43.460569269955158233642578125" lon="-7.03781001269817352294921875">
        <ele>22.6000003814697265625</ele>
        <time>2019-07-11T07:59:35.000Z</time>
      </trkpt>
      <trkpt lat="43.46063506789505481719970703125" lon="-7.03806214034557342529296875">
        <ele>21.200000762939453125</ele>
        <time>2019-07-11T07:59:36.000Z</time>
      </trkpt>
      <trkpt lat="43.4607478044927120208740234375" lon="-7.03854636289179325103759765625">
        <ele>19.6000003814697265625</ele>
        <time>2019-07-11T07:59:38.000Z</time>
      </trkpt>
      <trkpt lat="43.46086733043193817138671875" lon="-7.039299644529819488525390625">
        <ele>18.799999237060546875</ele>
        <time>2019-07-11T07:59:41.000Z</time>
      </trkpt>
      <trkpt lat="43.4610267542302608489990234375" lon="-7.0400488190352916717529296875">
        <ele>19.200000762939453125</ele>
        <time>2019-07-11T07:59:44.000Z</time>
      </trkpt>
      <trkpt lat="43.4612111561000347137451171875" lon="-7.0404078997671604156494140625">
        <ele>18</ele>
        <time>2019-07-11T07:59:46.000Z</time>
      </trkpt>
      <trkpt lat="43.46145029179751873016357421875" lon="-7.04062876291573047637939453125">
        <ele>16.799999237060546875</ele>
        <time>2019-07-11T07:59:48.000Z</time>
      </trkpt>
      <trkpt lat="43.46194960176944732666015625" lon="-7.0410043559968471527099609375">
        <ele>16.200000762939453125</ele>
        <time>2019-07-11T07:59:52.000Z</time>
      </trkpt>
      <trkpt lat="43.46211992204189300537109375" lon="-7.04122446477413177490234375">
        <ele>16.799999237060546875</ele>
        <time>2019-07-11T07:59:54.000Z</time>
      </trkpt>
      <trkpt lat="43.46223802305757999420166015625" lon="-7.04150433652102947235107421875">
        <ele>18</ele>
        <time>2019-07-11T07:59:56.000Z</time>
      </trkpt>
      <trkpt lat="43.46239216625690460205078125" lon="-7.0421567000448703765869140625">
        <ele>18.6000003814697265625</ele>
        <time>2019-07-11T08:00:00.000Z</time>
      </trkpt>
      <trkpt lat="43.462533317506313323974609375" lon="-7.0427833311259746551513671875">
        <ele>17.799999237060546875</ele>
        <time>2019-07-11T08:00:04.000Z</time>
      </trkpt>
      <trkpt lat="43.4626568667590618133544921875" lon="-7.0434049330651760101318359375">
        <ele>18.3999996185302734375</ele>
        <time>2019-07-11T08:00:09.000Z</time>
      </trkpt>
      <trkpt lat="43.46282157115638256072998046875" lon="-7.04410607926547527313232421875">
        <ele>18</ele>
        <time>2019-07-11T08:00:15.000Z</time>
      </trkpt>
      <trkpt lat="43.46295048482716083526611328125" lon="-7.04460094682872295379638671875">
        <ele>16.6000003814697265625</ele>
        <time>2019-07-11T08:00:19.000Z</time>
      </trkpt>
      <trkpt lat="43.46298183314502239227294921875" lon="-7.0447306148707866668701171875">
        <ele>15.3999996185302734375</ele>
        <time>2019-07-11T08:00:20.000Z</time>
      </trkpt>
      <trkpt lat="43.46304754726588726043701171875" lon="-7.04499405808746814727783203125">
        <ele>13.6000003814697265625</ele>
        <time>2019-07-11T08:00:22.000Z</time>
      </trkpt>
      <trkpt lat="43.46320780925452709197998046875" lon="-7.0453860796988010406494140625">
        <ele>12.3999996185302734375</ele>
        <time>2019-07-11T08:00:25.000Z</time>
      </trkpt>
      <trkpt lat="43.46328492276370525360107421875" lon="-7.04550384543836116790771484375">
        <ele>12.19999980926513671875</ele>
        <time>2019-07-11T08:00:26.000Z</time>
      </trkpt>
      <trkpt lat="43.4635419957339763641357421875" lon="-7.04584130086004734039306640625">
        <ele>10.6000003814697265625</ele>
        <time>2019-07-11T08:00:29.000Z</time>
      </trkpt>
      <trkpt lat="43.46361600793898105621337890625" lon="-7.04596350900828838348388671875">
        <ele>9.3999996185302734375</ele>
        <time>2019-07-11T08:00:30.000Z</time>
      </trkpt>
      <trkpt lat="43.46367937512695789337158203125" lon="-7.046086303889751434326171875">
        <ele>8.19999980926513671875</ele>
        <time>2019-07-11T08:00:31.000Z</time>
      </trkpt>
      <trkpt lat="43.46380158327519893646240234375" lon="-7.046331055462360382080078125">
        <ele>6.599999904632568359375</ele>
        <time>2019-07-11T08:00:33.000Z</time>
      </trkpt>
      <trkpt lat="43.46407667733728885650634765625" lon="-7.0468348078429698944091796875">
        <ele>7</ele>
        <time>2019-07-11T08:00:38.000Z</time>
      </trkpt>
      <trkpt lat="43.4641699679195880889892578125" lon="-7.04705080948770046234130859375">
        <ele>7.599999904632568359375</ele>
        <time>2019-07-11T08:00:40.000Z</time>
      </trkpt>
      <trkpt lat="43.46438362263143062591552734375" lon="-7.0475385524332523345947265625">
        <ele>6.400000095367431640625</ele>
        <time>2019-07-11T08:00:45.000Z</time>
      </trkpt>
      <trkpt lat="43.464588560163974761962890625" lon="-7.0479534566402435302734375">
        <ele>6</ele>
        <time>2019-07-11T08:00:50.000Z</time>
      </trkpt>
      <trkpt lat="43.4646014682948589324951171875" lon="-7.04816979356110095977783203125">
        <ele>7.19999980926513671875</ele>
        <time>2019-07-11T08:01:05.000Z</time>
      </trkpt>
      <trkpt lat="43.4646708704531192779541015625" lon="-7.04824070446193218231201171875">
        <ele>7</ele>
        <time>2019-07-11T08:01:43.000Z</time>
      </trkpt>
      <trkpt lat="43.4647451341152191162109375" lon="-7.04834329895675182342529296875">
        <ele>6.80000019073486328125</ele>
        <time>2019-07-11T08:02:04.000Z</time>
      </trkpt>
      <trkpt lat="43.464759886264801025390625" lon="-7.04837322235107421875">
        <ele>6.80000019073486328125</ele>
        <time>2019-07-11T08:02:05.000Z</time>
      </trkpt>
      <trkpt lat="43.46478008665144443511962890625" lon="-7.04842619597911834716796875">
        <ele>6.80000019073486328125</ele>
        <time>2019-07-11T08:02:06.000Z</time>
      </trkpt>
      <trkpt lat="43.46484839916229248046875" lon="-7.048593498766422271728515625">
        <ele>6.80000019073486328125</ele>
        <time>2019-07-11T08:02:08.000Z</time>
      </trkpt>
      <trkpt lat="43.46504881046712398529052734375" lon="-7.04895467497408390045166015625">
        <ele>7.400000095367431640625</ele>
        <time>2019-07-11T08:02:12.000Z</time>
      </trkpt>
      <trkpt lat="43.4652488864958286285400390625" lon="-7.0491891168057918548583984375">
        <ele>8.80000019073486328125</ele>
        <time>2019-07-11T08:02:15.000Z</time>
      </trkpt>
      <trkpt lat="43.46552657894790172576904296875" lon="-7.0494181104004383087158203125">
        <ele>9.6000003814697265625</ele>
        <time>2019-07-11T08:02:19.000Z</time>
      </trkpt>
      <trkpt lat="43.46598959527909755706787109375" lon="-7.04961382783949375152587890625">
        <ele>8.80000019073486328125</ele>
        <time>2019-07-11T08:02:24.000Z</time>
      </trkpt>
      <trkpt lat="43.46621557138860225677490234375" lon="-7.0496942102909088134765625">
        <ele>7</ele>
        <time>2019-07-11T08:02:26.000Z</time>
      </trkpt>
      <trkpt lat="43.466445319354534149169921875" lon="-7.04977258108556270599365234375">
        <ele>5.80000019073486328125</ele>
        <time>2019-07-11T08:02:28.000Z</time>
      </trkpt>
      <trkpt lat="43.46689433790743350982666015625" lon="-7.049928568303585052490234375">
        <ele>5.400000095367431640625</ele>
        <time>2019-07-11T08:02:32.000Z</time>
      </trkpt>
      <trkpt lat="43.46742340363562107086181640625" lon="-7.0501020736992359161376953125">
        <ele>6</ele>
        <time>2019-07-11T08:02:37.000Z</time>
      </trkpt>
      <trkpt lat="43.467917852103710174560546875" lon="-7.05026493407785892486572265625">
        <ele>6.599999904632568359375</ele>
        <time>2019-07-11T08:02:41.000Z</time>
      </trkpt>
      <trkpt lat="43.46847248263657093048095703125" lon="-7.05047230236232280731201171875">
        <ele>6.400000095367431640625</ele>
        <time>2019-07-11T08:02:45.000Z</time>
      </trkpt>
      <trkpt lat="43.469002135097980499267578125" lon="-7.05066106282174587249755859375">
        <ele>4.80000019073486328125</ele>
        <time>2019-07-11T08:02:49.000Z</time>
      </trkpt>
      <trkpt lat="43.469126857817173004150390625" lon="-7.050704061985015869140625">
        <ele>4.400000095367431640625</ele>
        <time>2019-07-11T08:02:50.000Z</time>
      </trkpt>
      <trkpt lat="43.46962298266589641571044921875" lon="-7.0508822612464427947998046875">
        <ele>3.7999999523162841796875</ele>
        <time>2019-07-11T08:02:54.000Z</time>
      </trkpt>
      <trkpt lat="43.47010142169892787933349609375" lon="-7.0510656572878360748291015625">
        <ele>4.599999904632568359375</ele>
        <time>2019-07-11T08:02:58.000Z</time>
      </trkpt>
      <trkpt lat="43.47048749215900897979736328125" lon="-7.05121208913624286651611328125">
        <ele>5.400000095367431640625</ele>
        <time>2019-07-11T08:03:01.000Z</time>
      </trkpt>
      <trkpt lat="43.47105226479470729827880859375" lon="-7.05143320374190807342529296875">
        <ele>5.80000019073486328125</ele>
        <time>2019-07-11T08:03:05.000Z</time>
      </trkpt>
      <trkpt lat="43.4715292789041996002197265625" lon="-7.05161869525909423828125">
        <ele>6.400000095367431640625</ele>
        <time>2019-07-11T08:03:08.000Z</time>
      </trkpt>
      <trkpt lat="43.4716861881315708160400390625" lon="-7.05167611129581928253173828125">
        <ele>6.400000095367431640625</ele>
        <time>2019-07-11T08:03:09.000Z</time>
      </trkpt>
      <trkpt lat="43.47200528718531131744384765625" lon="-7.051729671657085418701171875">
        <ele>6.19999980926513671875</ele>
        <time>2019-07-11T08:03:11.000Z</time>
      </trkpt>
      <trkpt lat="43.47232111729681491851806640625" lon="-7.051664628088474273681640625">
        <ele>5.80000019073486328125</ele>
        <time>2019-07-11T08:03:13.000Z</time>
      </trkpt>
      <trkpt lat="43.47263795323669910430908203125" lon="-7.0515149272978305816650390625">
        <ele>5.400000095367431640625</ele>
        <time>2019-07-11T08:03:15.000Z</time>
      </trkpt>
      <trkpt lat="43.4730879776179790496826171875" lon="-7.05126623623073101043701171875">
        <ele>5.400000095367431640625</ele>
        <time>2019-07-11T08:03:18.000Z</time>
      </trkpt>
      <trkpt lat="43.47359600476920604705810546875" lon="-7.050914280116558074951171875">
        <ele>5.19999980926513671875</ele>
        <time>2019-07-11T08:03:22.000Z</time>
      </trkpt>
      <trkpt lat="43.4738192148506641387939453125" lon="-7.05067950300872325897216796875">
        <ele>5.400000095367431640625</ele>
        <time>2019-07-11T08:03:24.000Z</time>
      </trkpt>
      <trkpt lat="43.47401023842394351959228515625" lon="-7.05038932152092456817626953125">
        <ele>5.599999904632568359375</ele>
        <time>2019-07-11T08:03:26.000Z</time>
      </trkpt>
      <trkpt lat="43.47428617067635059356689453125" lon="-7.04977744258940219879150390625">
        <ele>6.599999904632568359375</ele>
        <time>2019-07-11T08:03:30.000Z</time>
      </trkpt>
      <trkpt lat="43.47445179708302021026611328125" lon="-7.04933035187423229217529296875">
        <ele>8</ele>
        <time>2019-07-11T08:03:34.000Z</time>
      </trkpt>
      <trkpt lat="43.47466972656548023223876953125" lon="-7.04877563752233982086181640625">
        <ele>8.80000019073486328125</ele>
        <time>2019-07-11T08:03:38.000Z</time>
      </trkpt>
      <trkpt lat="43.4747382067143917083740234375" lon="-7.04861638136208057403564453125">
        <ele>9</ele>
        <time>2019-07-11T08:03:39.000Z</time>
      </trkpt>
      <trkpt lat="43.47500399686396121978759765625" lon="-7.0481256209313869476318359375">
        <ele>10.19999980926513671875</ele>
        <time>2019-07-11T08:03:42.000Z</time>
      </trkpt>
      <trkpt lat="43.47532804124057292938232421875" lon="-7.0476371236145496368408203125">
        <ele>11.3999996185302734375</ele>
        <time>2019-07-11T08:03:45.000Z</time>
      </trkpt>
      <trkpt lat="43.47556390799582004547119140625" lon="-7.0472961477935314178466796875">
        <ele>12.6000003814697265625</ele>
        <time>2019-07-11T08:03:47.000Z</time>
      </trkpt>
      <trkpt lat="43.47581352107226848602294921875" lon="-7.04692793078720569610595703125">
        <ele>13.6000003814697265625</ele>
        <time>2019-07-11T08:03:49.000Z</time>
      </trkpt>
      <trkpt lat="43.476075790822505950927734375" lon="-7.046552002429962158203125">
        <ele>15</ele>
        <time>2019-07-11T08:03:51.000Z</time>
      </trkpt>
      <trkpt lat="43.4763636253774166107177734375" lon="-7.04618311487138271331787109375">
        <ele>16.6000003814697265625</ele>
        <time>2019-07-11T08:03:53.000Z</time>
      </trkpt>
      <trkpt lat="43.4765255637466907501220703125" lon="-7.04601212404668331146240234375">
        <ele>18</ele>
        <time>2019-07-11T08:03:54.000Z</time>
      </trkpt>
      <trkpt lat="43.47687014378607273101806640625" lon="-7.0457216911017894744873046875">
        <ele>19.799999237060546875</ele>
        <time>2019-07-11T08:03:56.000Z</time>
      </trkpt>
      <trkpt lat="43.47741513513028621673583984375" lon="-7.04543142579495906829833984375">
        <ele>20</ele>
        <time>2019-07-11T08:03:59.000Z</time>
      </trkpt>
      <trkpt lat="43.4778059832751750946044921875" lon="-7.0453247241675853729248046875">
        <ele>18.6000003814697265625</ele>
        <time>2019-07-11T08:04:01.000Z</time>
      </trkpt>
      <trkpt lat="43.47801527939736843109130859375" lon="-7.04530519433319568634033203125">
        <ele>19.6000003814697265625</ele>
        <time>2019-07-11T08:04:02.000Z</time>
      </trkpt>
      <trkpt lat="43.4784728474915027618408203125" lon="-7.04531659372150897979736328125">
        <ele>20.200000762939453125</ele>
        <time>2019-07-11T08:04:04.000Z</time>
      </trkpt>
      <trkpt lat="43.47871785052120685577392578125" lon="-7.0453253947198390960693359375">
        <ele>21.200000762939453125</ele>
        <time>2019-07-11T08:04:05.000Z</time>
      </trkpt>
      <trkpt lat="43.47922327928245067596435546875" lon="-7.04532966949045658111572265625">
        <ele>22</ele>
        <time>2019-07-11T08:04:07.000Z</time>
      </trkpt>
      <trkpt lat="43.47974731586873531341552734375" lon="-7.04533084295690059661865234375">
        <ele>20.799999237060546875</ele>
        <time>2019-07-11T08:04:09.000Z</time>
      </trkpt>
      <trkpt lat="43.48001201637089252471923828125" lon="-7.04533302225172519683837890625">
        <ele>19</ele>
        <time>2019-07-11T08:04:10.000Z</time>
      </trkpt>
      <trkpt lat="43.480278141796588897705078125" lon="-7.04533520154654979705810546875">
        <ele>17</ele>
        <time>2019-07-11T08:04:11.000Z</time>
      </trkpt>
      <trkpt lat="43.4805445186793804168701171875" lon="-7.04533654265105724334716796875">
        <ele>16</ele>
        <time>2019-07-11T08:04:12.000Z</time>
      </trkpt>
      <trkpt lat="43.4808115661144256591796875" lon="-7.04533872194588184356689453125">
        <ele>13.80000019073486328125</ele>
        <time>2019-07-11T08:04:13.000Z</time>
      </trkpt>
      <trkpt lat="43.481075763702392578125" lon="-7.04534106887876987457275390625">
        <ele>12</ele>
        <time>2019-07-11T08:04:14.000Z</time>
      </trkpt>
      <trkpt lat="43.4813372790813446044921875" lon="-7.04534190706908702850341796875">
        <ele>10.3999996185302734375</ele>
        <time>2019-07-11T08:04:15.000Z</time>
      </trkpt>
      <trkpt lat="43.48185117356479167938232421875" lon="-7.04534123651683330535888671875">
        <ele>11</ele>
        <time>2019-07-11T08:04:17.000Z</time>
      </trkpt>
      <trkpt lat="43.4821012057363986968994140625" lon="-7.04535582102835178375244140625">
        <ele>13.19999980926513671875</ele>
        <time>2019-07-11T08:04:18.000Z</time>
      </trkpt>
      <trkpt lat="43.4825829975306987762451171875" lon="-7.04544986598193645477294921875">
        <ele>12.6000003814697265625</ele>
        <time>2019-07-11T08:04:20.000Z</time>
      </trkpt>
      <trkpt lat="43.48303578794002532958984375" lon="-7.0456251315772533416748046875">
        <ele>12</ele>
        <time>2019-07-11T08:04:22.000Z</time>
      </trkpt>
      <trkpt lat="43.483449518680572509765625" lon="-7.04580173827707767486572265625">
        <ele>10.6000003814697265625</ele>
        <time>2019-07-11T08:04:24.000Z</time>
      </trkpt>
      <trkpt lat="43.48385193385183811187744140625" lon="-7.04591003246605396270751953125">
        <ele>12</ele>
        <time>2019-07-11T08:04:26.000Z</time>
      </trkpt>
      <trkpt lat="43.484058715403079986572265625" lon="-7.04593316651880741119384765625">
        <ele>15.3999996185302734375</ele>
        <time>2019-07-11T08:04:27.000Z</time>
      </trkpt>
      <trkpt lat="43.484270274639129638671875" lon="-7.04593199305236339569091796875">
        <ele>18.799999237060546875</ele>
        <time>2019-07-11T08:04:28.000Z</time>
      </trkpt>
      <trkpt lat="43.48448954522609710693359375" lon="-7.04589947126805782318115234375">
        <ele>22</ele>
        <time>2019-07-11T08:04:29.000Z</time>
      </trkpt>
      <trkpt lat="43.48471476696431636810302734375" lon="-7.04583191312849521636962890625">
        <ele>24.200000762939453125</ele>
        <time>2019-07-11T08:04:30.000Z</time>
      </trkpt>
      <trkpt lat="43.484939821064472198486328125" lon="-7.045729570090770721435546875">
        <ele>26</ele>
        <time>2019-07-11T08:04:31.000Z</time>
      </trkpt>
      <trkpt lat="43.48516236059367656707763671875" lon="-7.04559956677258014678955078125">
        <ele>27.200000762939453125</ele>
        <time>2019-07-11T08:04:32.000Z</time>
      </trkpt>
      <trkpt lat="43.4856068529188632965087890625" lon="-7.0452734269201755523681640625">
        <ele>28.799999237060546875</ele>
        <time>2019-07-11T08:04:34.000Z</time>
      </trkpt>
      <trkpt lat="43.4860614873468875885009765625" lon="-7.0449198782444000244140625">
        <ele>29.6000003814697265625</ele>
        <time>2019-07-11T08:04:36.000Z</time>
      </trkpt>
      <trkpt lat="43.486292324960231781005859375" lon="-7.04474327154457569122314453125">
        <ele>29.799999237060546875</ele>
        <time>2019-07-11T08:04:37.000Z</time>
      </trkpt>
      <trkpt lat="43.48674125969409942626953125" lon="-7.0443936623632907867431640625">
        <ele>29.200000762939453125</ele>
        <time>2019-07-11T08:04:39.000Z</time>
      </trkpt>
      <trkpt lat="43.48695524968206882476806640625" lon="-7.0442163012921810150146484375">
        <ele>28.200000762939453125</ele>
        <time>2019-07-11T08:04:40.000Z</time>
      </trkpt>
      <trkpt lat="43.48736244253814220428466796875" lon="-7.04382981173694133758544921875">
        <ele>27.3999996185302734375</ele>
        <time>2019-07-11T08:04:42.000Z</time>
      </trkpt>
      <trkpt lat="43.4875531308352947235107421875" lon="-7.04361204989254474639892578125">
        <ele>26.3999996185302734375</ele>
        <time>2019-07-11T08:04:43.000Z</time>
      </trkpt>
      <trkpt lat="43.48792604170739650726318359375" lon="-7.043142579495906829833984375">
        <ele>27.3999996185302734375</ele>
        <time>2019-07-11T08:04:45.000Z</time>
      </trkpt>
      <trkpt lat="43.48811245523393154144287109375" lon="-7.04289891757071018218994140625">
        <ele>27.799999237060546875</ele>
        <time>2019-07-11T08:04:46.000Z</time>
      </trkpt>
      <trkpt lat="43.48848846741020679473876953125" lon="-7.0424024574458599090576171875">
        <ele>27.3999996185302734375</ele>
        <time>2019-07-11T08:04:48.000Z</time>
      </trkpt>
      <trkpt lat="43.48867538385093212127685546875" lon="-7.042155526578426361083984375">
        <ele>26.3999996185302734375</ele>
        <time>2019-07-11T08:04:49.000Z</time>
      </trkpt>
      <trkpt lat="43.48904318176209926605224609375" lon="-7.0416698791086673736572265625">
        <ele>24.6000003814697265625</ele>
        <time>2019-07-11T08:04:51.000Z</time>
      </trkpt>
      <trkpt lat="43.48922624252736568450927734375" lon="-7.0414304919540882110595703125">
        <ele>23.3999996185302734375</ele>
        <time>2019-07-11T08:04:52.000Z</time>
      </trkpt>
      <trkpt lat="43.4895952977240085601806640625" lon="-7.04095448367297649383544921875">
        <ele>22</ele>
        <time>2019-07-11T08:04:54.000Z</time>
      </trkpt>
      <trkpt lat="43.48995865322649478912353515625" lon="-7.04047881066799163818359375">
        <ele>21.3999996185302734375</ele>
        <time>2019-07-11T08:04:56.000Z</time>
      </trkpt>
      <trkpt lat="43.4903137944638729095458984375" lon="-7.04001453705132007598876953125">
        <ele>21</ele>
        <time>2019-07-11T08:04:58.000Z</time>
      </trkpt>
      <trkpt lat="43.49048906005918979644775390625" lon="-7.0397852919995784759521484375">
        <ele>20.6000003814697265625</ele>
        <time>2019-07-11T08:04:59.000Z</time>
      </trkpt>
      <trkpt lat="43.4908281080424785614013671875" lon="-7.03934767283499240875244140625">
        <ele>19.799999237060546875</ele>
        <time>2019-07-11T08:05:01.000Z</time>
      </trkpt>
      <trkpt lat="43.49098644219338893890380859375" lon="-7.03914265148341655731201171875">
        <ele>19</ele>
        <time>2019-07-11T08:05:02.000Z</time>
      </trkpt>
      <trkpt lat="43.49128634668886661529541015625" lon="-7.03875356353819370269775390625">
        <ele>17.799999237060546875</ele>
        <time>2019-07-11T08:05:04.000Z</time>
      </trkpt>
      <trkpt lat="43.4917093813419342041015625" lon="-7.03820337541401386260986328125">
        <ele>17.799999237060546875</ele>
        <time>2019-07-11T08:05:07.000Z</time>
      </trkpt>
      <trkpt lat="43.492120765149593353271484375" lon="-7.0376693643629550933837890625">
        <ele>17.799999237060546875</ele>
        <time>2019-07-11T08:05:10.000Z</time>
      </trkpt>
      <trkpt lat="43.49254715256392955780029296875" lon="-7.03711657784879207611083984375">
        <ele>17.3999996185302734375</ele>
        <time>2019-07-11T08:05:13.000Z</time>
      </trkpt>
      <trkpt lat="43.49284001626074314117431640625" lon="-7.03674492426216602325439453125">
        <ele>16.3999996185302734375</ele>
        <time>2019-07-11T08:05:15.000Z</time>
      </trkpt>
      <trkpt lat="43.49313824437558650970458984375" lon="-7.03636229038238525390625">
        <ele>15</ele>
        <time>2019-07-11T08:05:17.000Z</time>
      </trkpt>
      <trkpt lat="43.49345055408775806427001953125" lon="-7.03595836646854877471923828125">
        <ele>12.3999996185302734375</ele>
        <time>2019-07-11T08:05:19.000Z</time>
      </trkpt>
      <trkpt lat="43.49361450411379337310791015625" lon="-7.0357515849173069000244140625">
        <ele>10.3999996185302734375</ele>
        <time>2019-07-11T08:05:20.000Z</time>
      </trkpt>
      <trkpt lat="43.4937800467014312744140625" lon="-7.03554111532866954803466796875">
        <ele>9.19999980926513671875</ele>
        <time>2019-07-11T08:05:21.000Z</time>
      </trkpt>
      <trkpt lat="43.494104258716106414794921875" lon="-7.03511749394237995147705078125">
        <ele>8</ele>
        <time>2019-07-11T08:05:23.000Z</time>
      </trkpt>
      <trkpt lat="43.4944128803908824920654296875" lon="-7.034712396562099456787109375">
        <ele>6.80000019073486328125</ele>
        <time>2019-07-11T08:05:25.000Z</time>
      </trkpt>
      <trkpt lat="43.4947055764496326446533203125" lon="-7.03433630056679248809814453125">
        <ele>5.599999904632568359375</ele>
        <time>2019-07-11T08:05:27.000Z</time>
      </trkpt>
      <trkpt lat="43.49512810818850994110107421875" lon="-7.0337922312319278717041015625">
        <ele>5.400000095367431640625</ele>
        <time>2019-07-11T08:05:30.000Z</time>
      </trkpt>
      <trkpt lat="43.49554837681353092193603515625" lon="-7.03324564732611179351806640625">
        <ele>6.80000019073486328125</ele>
        <time>2019-07-11T08:05:33.000Z</time>
      </trkpt>
      <trkpt lat="43.495999909937381744384765625" lon="-7.03269378282129764556884765625">
        <ele>6.19999980926513671875</ele>
        <time>2019-07-11T08:05:36.000Z</time>
      </trkpt>
      <trkpt lat="43.49633443169295787811279296875" lon="-7.032337971031665802001953125">
        <ele>5.599999904632568359375</ele>
        <time>2019-07-11T08:05:38.000Z</time>
      </trkpt>
      <trkpt lat="43.4965197555720806121826171875" lon="-7.032166309654712677001953125">
        <ele>4.400000095367431640625</ele>
        <time>2019-07-11T08:05:39.000Z</time>
      </trkpt>
      <trkpt lat="43.4969348274171352386474609375" lon="-7.0318077318370342254638671875">
        <ele>3.599999904632568359375</ele>
        <time>2019-07-11T08:05:41.000Z</time>
      </trkpt>
      <trkpt lat="43.4973941557109355926513671875" lon="-7.03141990117728710174560546875">
        <ele>3.599999904632568359375</ele>
        <time>2019-07-11T08:05:43.000Z</time>
      </trkpt>
      <trkpt lat="43.49762708880007266998291015625" lon="-7.03122192062437534332275390625">
        <ele>3.2000000476837158203125</ele>
        <time>2019-07-11T08:05:44.000Z</time>
      </trkpt>
      <trkpt lat="43.49808524362742900848388671875" lon="-7.030817829072475433349609375">
        <ele>2.7999999523162841796875</ele>
        <time>2019-07-11T08:05:46.000Z</time>
      </trkpt>
      <trkpt lat="43.4985304065048694610595703125" lon="-7.0304052717983722686767578125">
        <ele>2.7999999523162841796875</ele>
        <time>2019-07-11T08:05:48.000Z</time>
      </trkpt>
      <trkpt lat="43.49875353276729583740234375" lon="-7.030202932655811309814453125">
        <ele>1.60000002384185791015625</ele>
        <time>2019-07-11T08:05:49.000Z</time>
      </trkpt>
      <trkpt lat="43.49897724576294422149658203125" lon="-7.0300056226551532745361328125">
        <ele>0</ele>
        <time>2019-07-11T08:05:50.000Z</time>
      </trkpt>
      <trkpt lat="43.499406985938549041748046875" lon="-7.029632963240146636962890625">
        <ele>1</ele>
        <time>2019-07-11T08:05:52.000Z</time>
      </trkpt>
      <trkpt lat="43.499612174928188323974609375" lon="-7.029454596340656280517578125">
        <ele>-0.20000000298023223876953125</ele>
        <time>2019-07-11T08:05:53.000Z</time>
      </trkpt>
      <trkpt lat="43.50001358427107334136962890625" lon="-7.02910582534968852996826171875">
        <ele>-0.800000011920928955078125</ele>
        <time>2019-07-11T08:05:55.000Z</time>
      </trkpt>
      <trkpt lat="43.500212989747524261474609375" lon="-7.02893315814435482025146484375">
        <ele>1</ele>
        <time>2019-07-11T08:05:56.000Z</time>
      </trkpt>
      <trkpt lat="43.500411808490753173828125" lon="-7.02876183204352855682373046875">
        <ele>3.599999904632568359375</ele>
        <time>2019-07-11T08:05:57.000Z</time>
      </trkpt>
      <trkpt lat="43.50060953758656978607177734375" lon="-7.0285914279520511627197265625">
        <ele>6.19999980926513671875</ele>
        <time>2019-07-11T08:05:58.000Z</time>
      </trkpt>
      <trkpt lat="43.50080517120659351348876953125" lon="-7.02842102386057376861572265625">
        <ele>9.3999996185302734375</ele>
        <time>2019-07-11T08:05:59.000Z</time>
      </trkpt>
      <trkpt lat="43.50099720060825347900390625" lon="-7.02825204469263553619384765625">
        <ele>12.3999996185302734375</ele>
        <time>2019-07-11T08:06:00.000Z</time>
      </trkpt>
      <trkpt lat="43.5011854581534862518310546875" lon="-7.0280849933624267578125">
        <ele>14.80000019073486328125</ele>
        <time>2019-07-11T08:06:01.000Z</time>
      </trkpt>
      <trkpt lat="43.501372039318084716796875" lon="-7.0279215462505817413330078125">
        <ele>16.3999996185302734375</ele>
        <time>2019-07-11T08:06:02.000Z</time>
      </trkpt>
      <trkpt lat="43.5015542618930339813232421875" lon="-7.02776203863322734832763671875">
        <ele>17.799999237060546875</ele>
        <time>2019-07-11T08:06:03.000Z</time>
      </trkpt>
      <trkpt lat="43.50190940313041210174560546875" lon="-7.02745576389133930206298828125">
        <ele>19</ele>
        <time>2019-07-11T08:06:05.000Z</time>
      </trkpt>
      <trkpt lat="43.50225708447396755218505859375" lon="-7.027153931558132171630859375">
        <ele>21.6000003814697265625</ele>
        <time>2019-07-11T08:06:07.000Z</time>
      </trkpt>
      <trkpt lat="43.5024274885654449462890625" lon="-7.0270045660436153411865234375">
        <ele>23.3999996185302734375</ele>
        <time>2019-07-11T08:06:08.000Z</time>
      </trkpt>
      <trkpt lat="43.5025966353714466094970703125" lon="-7.02685612253844738006591796875">
        <ele>25</ele>
        <time>2019-07-11T08:06:09.000Z</time>
      </trkpt>
      <trkpt lat="43.50276410579681396484375" lon="-7.026708684861660003662109375">
        <ele>26</ele>
        <time>2019-07-11T08:06:10.000Z</time>
      </trkpt>
      <trkpt lat="43.50309544242918491363525390625" lon="-7.02641825191676616668701171875">
        <ele>27.3999996185302734375</ele>
        <time>2019-07-11T08:06:12.000Z</time>
      </trkpt>
      <trkpt lat="43.5034167207777500152587890625" lon="-7.0261375419795513153076171875">
        <ele>28.6000003814697265625</ele>
        <time>2019-07-11T08:06:14.000Z</time>
      </trkpt>
      <trkpt lat="43.50373380817472934722900390625" lon="-7.0258602686226367950439453125">
        <ele>30.3999996185302734375</ele>
        <time>2019-07-11T08:06:16.000Z</time>
      </trkpt>
      <trkpt lat="43.503893651068210601806640625" lon="-7.02571936883032321929931640625">
        <ele>32.799999237060546875</ele>
        <time>2019-07-11T08:06:17.000Z</time>
      </trkpt>
      <trkpt lat="43.50405366159975528717041015625" lon="-7.02557989396154880523681640625">
        <ele>35.200000762939453125</ele>
        <time>2019-07-11T08:06:18.000Z</time>
      </trkpt>
      <trkpt lat="43.504211492836475372314453125" lon="-7.025443017482757568359375">
        <ele>36.799999237060546875</ele>
        <time>2019-07-11T08:06:19.000Z</time>
      </trkpt>
      <trkpt lat="43.50451181642711162567138671875" lon="-7.02517974190413951873779296875">
        <ele>38.200000762939453125</ele>
        <time>2019-07-11T08:06:21.000Z</time>
      </trkpt>
      <trkpt lat="43.50478691048920154571533203125" lon="-7.02493867836892604827880859375">
        <ele>39.59999847412109375</ele>
        <time>2019-07-11T08:06:23.000Z</time>
      </trkpt>
      <trkpt lat="43.50505747832357883453369140625" lon="-7.02470348216593265533447265625">
        <ele>41.59999847412109375</ele>
        <time>2019-07-11T08:06:25.000Z</time>
      </trkpt>
      <trkpt lat="43.50519276224076747894287109375" lon="-7.024584375321865081787109375">
        <ele>42.59999847412109375</ele>
        <time>2019-07-11T08:06:26.000Z</time>
      </trkpt>
      <trkpt lat="43.505325615406036376953125" lon="-7.0244665257632732391357421875">
        <ele>43.799999237060546875</ele>
        <time>2019-07-11T08:06:27.000Z</time>
      </trkpt>
      <trkpt lat="43.50559442304074764251708984375" lon="-7.02423258684575557708740234375">
        <ele>45.200000762939453125</ele>
        <time>2019-07-11T08:06:29.000Z</time>
      </trkpt>
      <trkpt lat="43.50587488152086734771728515625" lon="-7.02400468289852142333984375">
        <ele>46.59999847412109375</ele>
        <time>2019-07-11T08:06:31.000Z</time>
      </trkpt>
      <trkpt lat="43.5061716847121715545654296875" lon="-7.02380158938467502593994140625">
        <ele>47.59999847412109375</ele>
        <time>2019-07-11T08:06:33.000Z</time>
      </trkpt>
      <trkpt lat="43.50662740878760814666748046875" lon="-7.02356706373393535614013671875">
        <ele>48.40000152587890625</ele>
        <time>2019-07-11T08:06:36.000Z</time>
      </trkpt>
      <trkpt lat="43.50711456499993801116943359375" lon="-7.02344167046248912811279296875">
        <ele>48.200000762939453125</ele>
        <time>2019-07-11T08:06:39.000Z</time>
      </trkpt>
      <trkpt lat="43.50763122551143169403076171875" lon="-7.0234273374080657958984375">
        <ele>48.40000152587890625</ele>
        <time>2019-07-11T08:06:42.000Z</time>
      </trkpt>
      <trkpt lat="43.5081441141664981842041015625" lon="-7.02352381311357021331787109375">
        <ele>48.40000152587890625</ele>
        <time>2019-07-11T08:06:45.000Z</time>
      </trkpt>
      <trkpt lat="43.50831049494445323944091796875" lon="-7.02358064241707324981689453125">
        <ele>49</ele>
        <time>2019-07-11T08:06:46.000Z</time>
      </trkpt>
      <trkpt lat="43.508863113820552825927734375" lon="-7.023849450051784515380859375">
        <ele>50.40000152587890625</ele>
        <time>2019-07-11T08:06:49.000Z</time>
      </trkpt>
      <trkpt lat="43.50937885232269763946533203125" lon="-7.024100907146930694580078125">
        <ele>49.40000152587890625</ele>
        <time>2019-07-11T08:06:52.000Z</time>
      </trkpt>
      <trkpt lat="43.50953995250165462493896484375" lon="-7.02417843975126743316650390625">
        <ele>49</ele>
        <time>2019-07-11T08:06:53.000Z</time>
      </trkpt>
      <trkpt lat="43.510031215846538543701171875" lon="-7.0244172401726245880126953125">
        <ele>47.799999237060546875</ele>
        <time>2019-07-11T08:06:56.000Z</time>
      </trkpt>
      <trkpt lat="43.51066228933632373809814453125" lon="-7.02473550103604793548583984375">
        <ele>47.200000762939453125</ele>
        <time>2019-07-11T08:06:59.000Z</time>
      </trkpt>
      <trkpt lat="43.51110099814832210540771484375" lon="-7.0249293744564056396484375">
        <ele>46.59999847412109375</ele>
        <time>2019-07-11T08:07:01.000Z</time>
      </trkpt>
      <trkpt lat="43.511501066386699676513671875" lon="-7.0251172967255115509033203125">
        <ele>44.799999237060546875</ele>
        <time>2019-07-11T08:07:03.000Z</time>
      </trkpt>
      <trkpt lat="43.511692844331264495849609375" lon="-7.025209330022335052490234375">
        <ele>43</ele>
        <time>2019-07-11T08:07:04.000Z</time>
      </trkpt>
      <trkpt lat="43.5118841193616390228271484375" lon="-7.02529759146273136138916015625">
        <ele>41.799999237060546875</ele>
        <time>2019-07-11T08:07:05.000Z</time>
      </trkpt>
      <trkpt lat="43.5124768875539302825927734375" lon="-7.02557469718158245086669921875">
        <ele>39.799999237060546875</ele>
        <time>2019-07-11T08:07:08.000Z</time>
      </trkpt>
      <trkpt lat="43.5130297578871250152587890625" lon="-7.02588080428540706634521484375">
        <ele>40.200000762939453125</ele>
        <time>2019-07-11T08:07:11.000Z</time>
      </trkpt>
      <trkpt lat="43.5131893493235111236572265625" lon="-7.02600896358489990234375">
        <ele>40.200000762939453125</ele>
        <time>2019-07-11T08:07:12.000Z</time>
      </trkpt>
      <trkpt lat="43.51347475312650203704833984375" lon="-7.02634222805500030517578125">
        <ele>40.40000152587890625</ele>
        <time>2019-07-11T08:07:14.000Z</time>
      </trkpt>
      <trkpt lat="43.51359763182699680328369140625" lon="-7.0265449024736881256103515625">
        <ele>41.59999847412109375</ele>
        <time>2019-07-11T08:07:15.000Z</time>
      </trkpt>
      <trkpt lat="43.51370123215019702911376953125" lon="-7.02677045948803424835205078125">
        <ele>42</ele>
        <time>2019-07-11T08:07:16.000Z</time>
      </trkpt>
      <trkpt lat="43.5138491727411746978759765625" lon="-7.02726281248033046722412109375">
        <ele>41</ele>
        <time>2019-07-11T08:07:18.000Z</time>
      </trkpt>
      <trkpt lat="43.5138873942196369171142578125" lon="-7.0275104977190494537353515625">
        <ele>40.200000762939453125</ele>
        <time>2019-07-11T08:07:19.000Z</time>
      </trkpt>
      <trkpt lat="43.5139256156980991363525390625" lon="-7.02798164449632167816162109375">
        <ele>42</ele>
        <time>2019-07-11T08:07:21.000Z</time>
      </trkpt>
      <trkpt lat="43.513948917388916015625" lon="-7.0284375362098217010498046875">
        <ele>43.799999237060546875</ele>
        <time>2019-07-11T08:07:23.000Z</time>
      </trkpt>
      <trkpt lat="43.51396090351045131683349609375" lon="-7.02866141684353351593017578125">
        <ele>45.40000152587890625</ele>
        <time>2019-07-11T08:07:24.000Z</time>
      </trkpt>
      <trkpt lat="43.51397649385035037994384765625" lon="-7.02888370491564273834228515625">
        <ele>46.40000152587890625</ele>
        <time>2019-07-11T08:07:25.000Z</time>
      </trkpt>
      <trkpt lat="43.51399728097021579742431640625" lon="-7.02910414896905422210693359375">
        <ele>48</ele>
        <time>2019-07-11T08:07:26.000Z</time>
      </trkpt>
      <trkpt lat="43.514025025069713592529296875" lon="-7.029322497546672821044921875">
        <ele>49.40000152587890625</ele>
        <time>2019-07-11T08:07:27.000Z</time>
      </trkpt>
      <trkpt lat="43.51406198926270008087158203125" lon="-7.02954319305717945098876953125">
        <ele>50.799999237060546875</ele>
        <time>2019-07-11T08:07:28.000Z</time>
      </trkpt>
      <trkpt lat="43.51416592486202716827392578125" lon="-7.0299826562404632568359375">
        <ele>52.200000762939453125</ele>
        <time>2019-07-11T08:07:30.000Z</time>
      </trkpt>
      <trkpt lat="43.514393158257007598876953125" lon="-7.030572406947612762451171875">
        <ele>52.59999847412109375</ele>
        <time>2019-07-11T08:07:33.000Z</time>
      </trkpt>
      <trkpt lat="43.51459608413279056549072265625" lon="-7.030915059149265289306640625">
        <ele>53.200000762939453125</ele>
        <time>2019-07-11T08:07:35.000Z</time>
      </trkpt>
      <trkpt lat="43.51498383097350597381591796875" lon="-7.031378410756587982177734375">
        <ele>53.200000762939453125</ele>
        <time>2019-07-11T08:07:38.000Z</time>
      </trkpt>
      <trkpt lat="43.5154947079718112945556640625" lon="-7.03173774294555187225341796875">
        <ele>51.40000152587890625</ele>
        <time>2019-07-11T08:07:41.000Z</time>
      </trkpt>
      <trkpt lat="43.51568640209734439849853515625" lon="-7.03182198107242584228515625">
        <ele>50.59999847412109375</ele>
        <time>2019-07-11T08:07:42.000Z</time>
      </trkpt>
      <trkpt lat="43.5158866457641124725341796875" lon="-7.031879313290119171142578125">
        <ele>49.40000152587890625</ele>
        <time>2019-07-11T08:07:43.000Z</time>
      </trkpt>
      <trkpt lat="43.5164438746869564056396484375" lon="-7.03191812150180339813232421875">
        <ele>48.200000762939453125</ele>
        <time>2019-07-11T08:07:46.000Z</time>
      </trkpt>
      <trkpt lat="43.51694301702082157135009765625" lon="-7.03181854449212551116943359375">
        <ele>47.200000762939453125</ele>
        <time>2019-07-11T08:07:49.000Z</time>
      </trkpt>
      <trkpt lat="43.517105542123317718505859375" lon="-7.03177546150982379913330078125">
        <ele>46.200000762939453125</ele>
        <time>2019-07-11T08:07:50.000Z</time>
      </trkpt>
      <trkpt lat="43.5174183547496795654296875" lon="-7.0316927321255207061767578125">
        <ele>44.59999847412109375</ele>
        <time>2019-07-11T08:07:52.000Z</time>
      </trkpt>
      <trkpt lat="43.51786158978939056396484375" lon="-7.03158033080399036407470703125">
        <ele>43.799999237060546875</ele>
        <time>2019-07-11T08:07:55.000Z</time>
      </trkpt>
      <trkpt lat="43.51830415427684783935546875" lon="-7.0314607210457324981689453125">
        <ele>43.59999847412109375</ele>
        <time>2019-07-11T08:07:58.000Z</time>
      </trkpt>
      <trkpt lat="43.51870355196297168731689453125" lon="-7.0313500799238681793212890625">
        <ele>42.40000152587890625</ele>
        <time>2019-07-11T08:08:01.000Z</time>
      </trkpt>
      <trkpt lat="43.51920831017196178436279296875" lon="-7.0312129519879817962646484375">
        <ele>41.40000152587890625</ele>
        <time>2019-07-11T08:08:05.000Z</time>
      </trkpt>
      <trkpt lat="43.51948021911084651947021484375" lon="-7.03113642521202564239501953125">
        <ele>40</ele>
        <time>2019-07-11T08:08:07.000Z</time>
      </trkpt>
      <trkpt lat="43.51987115107476711273193359375" lon="-7.0309594832360744476318359375">
        <ele>39</ele>
        <time>2019-07-11T08:08:10.000Z</time>
      </trkpt>
      <trkpt lat="43.52038764394819736480712890625" lon="-7.0306399650871753692626953125">
        <ele>37.40000152587890625</ele>
        <time>2019-07-11T08:08:14.000Z</time>
      </trkpt>
      <trkpt lat="43.52068461477756500244140625" lon="-7.03044198453426361083984375">
        <ele>35.799999237060546875</ele>
        <time>2019-07-11T08:08:16.000Z</time>
      </trkpt>
      <trkpt lat="43.521069847047328948974609375" lon="-7.03021156601607799530029296875">
        <ele>34</ele>
        <time>2019-07-11T08:08:18.000Z</time>
      </trkpt>
      <trkpt lat="43.52128618396818637847900390625" lon="-7.03008449636399745941162109375">
        <ele>32.40000152587890625</ele>
        <time>2019-07-11T08:08:19.000Z</time>
      </trkpt>
      <trkpt lat="43.52150444872677326202392578125" lon="-7.029953487217426300048828125">
        <ele>29</ele>
        <time>2019-07-11T08:08:20.000Z</time>
      </trkpt>
      <trkpt lat="43.5217184387147426605224609375" lon="-7.0298282615840435028076171875">
        <ele>24.6000003814697265625</ele>
        <time>2019-07-11T08:08:21.000Z</time>
      </trkpt>
      <trkpt lat="43.5219219513237476348876953125" lon="-7.02970630489289760589599609375">
        <ele>20</ele>
        <time>2019-07-11T08:08:22.000Z</time>
      </trkpt>
      <trkpt lat="43.52211548946797847747802734375" lon="-7.0295908860862255096435546875">
        <ele>17.200000762939453125</ele>
        <time>2019-07-11T08:08:23.000Z</time>
      </trkpt>
      <trkpt lat="43.52229888550937175750732421875" lon="-7.0294839330017566680908203125">
        <ele>15.6000003814697265625</ele>
        <time>2019-07-11T08:08:24.000Z</time>
      </trkpt>
      <trkpt lat="43.52264933288097381591796875" lon="-7.02929441817104816436767578125">
        <ele>14</ele>
        <time>2019-07-11T08:08:26.000Z</time>
      </trkpt>
      <trkpt lat="43.523135818541049957275390625" lon="-7.02904187142848968505859375">
        <ele>13.3999996185302734375</ele>
        <time>2019-07-11T08:08:29.000Z</time>
      </trkpt>
      <trkpt lat="43.523564301431179046630859375" lon="-7.02878781594336032867431640625">
        <ele>13.80000019073486328125</ele>
        <time>2019-07-11T08:08:32.000Z</time>
      </trkpt>
      <trkpt lat="43.5240284912288188934326171875" lon="-7.02832027338445186614990234375">
        <ele>14</ele>
        <time>2019-07-11T08:08:36.000Z</time>
      </trkpt>
      <trkpt lat="43.52437424473464488983154296875" lon="-7.02767134644091129302978515625">
        <ele>13</ele>
        <time>2019-07-11T08:08:40.000Z</time>
      </trkpt>
      <trkpt lat="43.524439036846160888671875" lon="-7.02748929150402545928955078125">
        <ele>12.6000003814697265625</ele>
        <time>2019-07-11T08:08:41.000Z</time>
      </trkpt>
      <trkpt lat="43.52461396716535091400146484375" lon="-7.026734165847301483154296875">
        <ele>11.80000019073486328125</ele>
        <time>2019-07-11T08:08:45.000Z</time>
      </trkpt>
      <trkpt lat="43.5246933437883853912353515625" lon="-7.02611667104065418243408203125">
        <ele>12.80000019073486328125</ele>
        <time>2019-07-11T08:08:48.000Z</time>
      </trkpt>
      <trkpt lat="43.52472410537302494049072265625" lon="-7.02566790394484996795654296875">
        <ele>13.80000019073486328125</ele>
        <time>2019-07-11T08:08:50.000Z</time>
      </trkpt>
      <trkpt lat="43.5247637517750263214111328125" lon="-7.0249830186367034912109375">
        <ele>15.6000003814697265625</ele>
        <time>2019-07-11T08:08:53.000Z</time>
      </trkpt>
      <trkpt lat="43.524774648249149322509765625" lon="-7.02475092373788356781005859375">
        <ele>16.6000003814697265625</ele>
        <time>2019-07-11T08:08:54.000Z</time>
      </trkpt>
      <trkpt lat="43.52479501627385616302490234375" lon="-7.0242673717439174652099609375">
        <ele>18.3999996185302734375</ele>
        <time>2019-07-11T08:08:56.000Z</time>
      </trkpt>
      <trkpt lat="43.5247922502458095550537109375" lon="-7.023491375148296356201171875">
        <ele>19.6000003814697265625</ele>
        <time>2019-07-11T08:08:59.000Z</time>
      </trkpt>
      <trkpt lat="43.5247345827519893646240234375" lon="-7.0227254368364810943603515625">
        <ele>20</ele>
        <time>2019-07-11T08:09:02.000Z</time>
      </trkpt>
      <trkpt lat="43.5246608220040798187255859375" lon="-7.02200316824018955230712890625">
        <ele>19.799999237060546875</ele>
        <time>2019-07-11T08:09:05.000Z</time>
      </trkpt>
      <trkpt lat="43.52460893802344799041748046875" lon="-7.02151601202785968780517578125">
        <ele>21.200000762939453125</ele>
        <time>2019-07-11T08:09:07.000Z</time>
      </trkpt>
      <trkpt lat="43.52455361746251583099365234375" lon="-7.02101024799048900604248046875">
        <ele>22.6000003814697265625</ele>
        <time>2019-07-11T08:09:09.000Z</time>
      </trkpt>
      <trkpt lat="43.52449427358806133270263671875" lon="-7.02049098908901214599609375">
        <ele>24.3999996185302734375</ele>
        <time>2019-07-11T08:09:11.000Z</time>
      </trkpt>
      <trkpt lat="43.52440710179507732391357421875" lon="-7.01968942768871784210205078125">
        <ele>24</ele>
        <time>2019-07-11T08:09:14.000Z</time>
      </trkpt>
      <trkpt lat="43.52438312955200672149658203125" lon="-7.01943277381360530853271484375">
        <ele>23.200000762939453125</ele>
        <time>2019-07-11T08:09:15.000Z</time>
      </trkpt>
      <trkpt lat="43.5243590734899044036865234375" lon="-7.01918835751712322235107421875">
        <ele>22</ele>
        <time>2019-07-11T08:09:16.000Z</time>
      </trkpt>
      <trkpt lat="43.5243335925042629241943359375" lon="-7.0189560949802398681640625">
        <ele>20.6000003814697265625</ele>
        <time>2019-07-11T08:09:17.000Z</time>
      </trkpt>
      <trkpt lat="43.52430601604282855987548828125" lon="-7.018741182982921600341796875">
        <ele>19</ele>
        <time>2019-07-11T08:09:18.000Z</time>
      </trkpt>
      <trkpt lat="43.5242591612040996551513671875" lon="-7.018369697034358978271484375">
        <ele>17.3999996185302734375</ele>
        <time>2019-07-11T08:09:20.000Z</time>
      </trkpt>
      <trkpt lat="43.52421482093632221221923828125" lon="-7.0180366002023220062255859375">
        <ele>16.3999996185302734375</ele>
        <time>2019-07-11T08:09:22.000Z</time>
      </trkpt>
      <trkpt lat="43.52411247789859771728515625" lon="-7.01729572378098964691162109375">
        <ele>16.3999996185302734375</ele>
        <time>2019-07-11T08:09:27.000Z</time>
      </trkpt>
      <trkpt lat="43.52406394667923450469970703125" lon="-7.01693496666848659515380859375">
        <ele>15</ele>
        <time>2019-07-11T08:09:30.000Z</time>
      </trkpt>
      <trkpt lat="43.524012900888919830322265625" lon="-7.0165446214377880096435546875">
        <ele>14</ele>
        <time>2019-07-11T08:09:34.000Z</time>
      </trkpt>
      <trkpt lat="43.52394106797873973846435546875" lon="-7.01599426567554473876953125">
        <ele>12.80000019073486328125</ele>
        <time>2019-07-11T08:09:39.000Z</time>
      </trkpt>
      <trkpt lat="43.523900918662548065185546875" lon="-7.015519849956035614013671875">
        <ele>11.3999996185302734375</ele>
        <time>2019-07-11T08:09:43.000Z</time>
      </trkpt>
      <trkpt lat="43.52391139604151248931884765625" lon="-7.01485407538712024688720703125">
        <ele>10.80000019073486328125</ele>
        <time>2019-07-11T08:09:50.000Z</time>
      </trkpt>
      <trkpt lat="43.52401633746922016143798828125" lon="-7.014252506196498870849609375">
        <ele>11.6000003814697265625</ele>
        <time>2019-07-11T08:09:58.000Z</time>
      </trkpt>
      <trkpt lat="43.52410317398607730865478515625" lon="-7.013830058276653289794921875">
        <ele>12.3999996185302734375</ele>
        <time>2019-07-11T08:10:03.000Z</time>
      </trkpt>
      <trkpt lat="43.52419319562613964080810546875" lon="-7.013381458818912506103515625">
        <ele>13.6000003814697265625</ele>
        <time>2019-07-11T08:10:08.000Z</time>
      </trkpt>
      <trkpt lat="43.52424717508256435394287109375" lon="-7.01313260011374950408935546875">
        <ele>15</ele>
        <time>2019-07-11T08:10:11.000Z</time>
      </trkpt>
      <trkpt lat="43.52428204379975795745849609375" lon="-7.0129618607461452484130859375">
        <ele>16</ele>
        <time>2019-07-11T08:10:13.000Z</time>
      </trkpt>
      <trkpt lat="43.52433434687554836273193359375" lon="-7.012698836624622344970703125">
        <ele>17.200000762939453125</ele>
        <time>2019-07-11T08:10:16.000Z</time>
      </trkpt>
      <trkpt lat="43.52439519949257373809814453125" lon="-7.01241678558290004730224609375">
        <ele>18.200000762939453125</ele>
        <time>2019-07-11T08:10:19.000Z</time>
      </trkpt>
      <trkpt lat="43.52448262274265289306640625" lon="-7.0120039768517017364501953125">
        <ele>19.3999996185302734375</ele>
        <time>2019-07-11T08:10:23.000Z</time>
      </trkpt>
      <trkpt lat="43.5245347581803798675537109375" lon="-7.01175947673618793487548828125">
        <ele>20.3999996185302734375</ele>
        <time>2019-07-11T08:10:26.000Z</time>
      </trkpt>
      <trkpt lat="43.52460868656635284423828125" lon="-7.01138430275022983551025390625">
        <ele>21.799999237060546875</ele>
        <time>2019-07-11T08:10:30.000Z</time>
      </trkpt>
      <trkpt lat="43.52467616088688373565673828125" lon="-7.011098898947238922119140625">
        <ele>23.200000762939453125</ele>
        <time>2019-07-11T08:10:33.000Z</time>
      </trkpt>
      <trkpt lat="43.5247622430324554443359375" lon="-7.01083193533122539520263671875">
        <ele>24.6000003814697265625</ele>
        <time>2019-07-11T08:10:36.000Z</time>
      </trkpt>
      <trkpt lat="43.52488704957067966461181640625" lon="-7.01055382378399372100830078125">
        <ele>25.6000003814697265625</ele>
        <time>2019-07-11T08:10:39.000Z</time>
      </trkpt>
      <trkpt lat="43.5250438749790191650390625" lon="-7.0102769695222377777099609375">
        <ele>26.6000003814697265625</ele>
        <time>2019-07-11T08:10:42.000Z</time>
      </trkpt>
      <trkpt lat="43.52520053274929523468017578125" lon="-7.01006432063877582550048828125">
        <ele>28</ele>
        <time>2019-07-11T08:10:45.000Z</time>
      </trkpt>
      <trkpt lat="43.5252884589135646820068359375" lon="-7.00996600091457366943359375">
        <ele>29.200000762939453125</ele>
        <time>2019-07-11T08:10:47.000Z</time>
      </trkpt>
      <trkpt lat="43.5254467092454433441162109375" lon="-7.00979408808052539825439453125">
        <ele>30.3999996185302734375</ele>
        <time>2019-07-11T08:10:50.000Z</time>
      </trkpt>
      <trkpt lat="43.5256183706223964691162109375" lon="-7.00960650108754634857177734375">
        <ele>31.6000003814697265625</ele>
        <time>2019-07-11T08:10:53.000Z</time>
      </trkpt>
      <trkpt lat="43.5258007608354091644287109375" lon="-7.00940516777336597442626953125">
        <ele>32.59999847412109375</ele>
        <time>2019-07-11T08:10:56.000Z</time>
      </trkpt>
      <trkpt lat="43.526166379451751708984375" lon="-7.00897064991295337677001953125">
        <ele>33.40000152587890625</ele>
        <time>2019-07-11T08:11:02.000Z</time>
      </trkpt>
      <trkpt lat="43.52621608413755893707275390625" lon="-7.00890426523983478546142578125">
        <ele>33.59999847412109375</ele>
        <time>2019-07-11T08:11:03.000Z</time>
      </trkpt>
      <trkpt lat="43.52655353955924510955810546875" lon="-7.00843906961381435394287109375">
        <ele>33.799999237060546875</ele>
        <time>2019-07-11T08:11:10.000Z</time>
      </trkpt>
      <trkpt lat="43.52669720537960529327392578125" lon="-7.00825584121048450469970703125">
        <ele>33.799999237060546875</ele>
        <time>2019-07-11T08:11:13.000Z</time>
      </trkpt>
      <trkpt lat="43.52698512375354766845703125" lon="-7.00793213210999965667724609375">
        <ele>32.59999847412109375</ele>
        <time>2019-07-11T08:11:18.000Z</time>
      </trkpt>
      <trkpt lat="43.52722744457423686981201171875" lon="-7.00772308744490146636962890625">
        <ele>31.3999996185302734375</ele>
        <time>2019-07-11T08:11:22.000Z</time>
      </trkpt>
      <trkpt lat="43.5274090804159641265869140625" lon="-7.00758595950901508331298828125">
        <ele>30</ele>
        <time>2019-07-11T08:11:25.000Z</time>
      </trkpt>
      <trkpt lat="43.5278429277241230010986328125" lon="-7.0073754899203777313232421875">
        <ele>29.200000762939453125</ele>
        <time>2019-07-11T08:11:32.000Z</time>
      </trkpt>
      <trkpt lat="43.52790486998856067657470703125" lon="-7.00735696591436862945556640625">
        <ele>28.799999237060546875</ele>
        <time>2019-07-11T08:11:33.000Z</time>
      </trkpt>
      <trkpt lat="43.52806563489139080047607421875" lon="-7.00731874443590641021728515625">
        <ele>27.799999237060546875</ele>
        <time>2019-07-11T08:11:36.000Z</time>
      </trkpt>
      <trkpt lat="43.52835129015147686004638671875" lon="-7.007261998951435089111328125">
        <ele>26.6000003814697265625</ele>
        <time>2019-07-11T08:11:41.000Z</time>
      </trkpt>
      <trkpt lat="43.5286382026970386505126953125" lon="-7.007211707532405853271484375">
        <ele>25.6000003814697265625</ele>
        <time>2019-07-11T08:11:45.000Z</time>
      </trkpt>
      <trkpt lat="43.52908235974609851837158203125" lon="-7.00701599009335041046142578125">
        <ele>24.799999237060546875</ele>
        <time>2019-07-11T08:11:53.000Z</time>
      </trkpt>
      <trkpt lat="43.52939249016344547271728515625" lon="-7.00677693821489810943603515625">
        <ele>24.3999996185302734375</ele>
        <time>2019-07-11T08:11:59.000Z</time>
      </trkpt>
      <trkpt lat="43.52946055121719837188720703125" lon="-7.00670787133276462554931640625">
        <ele>24.200000762939453125</ele>
        <time>2019-07-11T08:12:00.000Z</time>
      </trkpt>
      <trkpt lat="43.5297888703644275665283203125" lon="-7.00627251528203487396240234375">
        <ele>23.799999237060546875</ele>
        <time>2019-07-11T08:12:04.000Z</time>
      </trkpt>
      <trkpt lat="43.53014049120247364044189453125" lon="-7.00575971044600009918212890625">
        <ele>23.799999237060546875</ele>
        <time>2019-07-11T08:12:08.000Z</time>
      </trkpt>
      <trkpt lat="43.530361019074916839599609375" lon="-7.00546952895820140838623046875">
        <ele>23.200000762939453125</ele>
        <time>2019-07-11T08:12:10.000Z</time>
      </trkpt>
      <trkpt lat="43.530703671276569366455078125" lon="-7.004970051348209381103515625">
        <ele>22.799999237060546875</ele>
        <time>2019-07-11T08:12:13.000Z</time>
      </trkpt>
      <trkpt lat="43.531047664582729339599609375" lon="-7.0045145787298679351806640625">
        <ele>23</ele>
        <time>2019-07-11T08:12:16.000Z</time>
      </trkpt>
      <trkpt lat="43.53127288632094860076904296875" lon="-7.00423805974423885345458984375">
        <ele>24.799999237060546875</ele>
        <time>2019-07-11T08:12:18.000Z</time>
      </trkpt>
      <trkpt lat="43.53161738254129886627197265625" lon="-7.00382650829851627349853515625">
        <ele>25.200000762939453125</ele>
        <time>2019-07-11T08:12:21.000Z</time>
      </trkpt>
      <trkpt lat="43.53198031894862651824951171875" lon="-7.0034256018698215484619140625">
        <ele>25.6000003814697265625</ele>
        <time>2019-07-11T08:12:24.000Z</time>
      </trkpt>
      <trkpt lat="43.53233747184276580810546875" lon="-7.00299016200006008148193359375">
        <ele>25.6000003814697265625</ele>
        <time>2019-07-11T08:12:27.000Z</time>
      </trkpt>
      <trkpt lat="43.53258029557764530181884765625" lon="-7.002687491476535797119140625">
        <ele>25.799999237060546875</ele>
        <time>2019-07-11T08:12:29.000Z</time>
      </trkpt>
      <trkpt lat="43.53298388421535491943359375" lon="-7.00228339992463588714599609375">
        <ele>25.6000003814697265625</ele>
        <time>2019-07-11T08:12:32.000Z</time>
      </trkpt>
      <trkpt lat="43.533494174480438232421875" lon="-7.00201182626187801361083984375">
        <ele>25.6000003814697265625</ele>
        <time>2019-07-11T08:12:35.000Z</time>
      </trkpt>
      <trkpt lat="43.53401997126638889312744140625" lon="-7.00183195061981678009033203125">
        <ele>24.799999237060546875</ele>
        <time>2019-07-11T08:12:38.000Z</time>
      </trkpt>
      <trkpt lat="43.5344475321471691131591796875" lon="-7.00161368586122989654541015625">
        <ele>25.6000003814697265625</ele>
        <time>2019-07-11T08:12:41.000Z</time>
      </trkpt>
      <trkpt lat="43.5345818102359771728515625" lon="-7.00151779688894748687744140625">
        <ele>26.6000003814697265625</ele>
        <time>2019-07-11T08:12:42.000Z</time>
      </trkpt>
      <trkpt lat="43.53471885435283184051513671875" lon="-7.00140648521482944488525390625">
        <ele>27.799999237060546875</ele>
        <time>2019-07-11T08:12:43.000Z</time>
      </trkpt>
      <trkpt lat="43.53485749103128910064697265625" lon="-7.0012784935534000396728515625">
        <ele>29.200000762939453125</ele>
        <time>2019-07-11T08:12:44.000Z</time>
      </trkpt>
      <trkpt lat="43.53512520901858806610107421875" lon="-7.00097657740116119384765625">
        <ele>31</ele>
        <time>2019-07-11T08:12:46.000Z</time>
      </trkpt>
      <trkpt lat="43.53546467609703540802001953125" lon="-7.0004530437290668487548828125">
        <ele>32</ele>
        <time>2019-07-11T08:12:49.000Z</time>
      </trkpt>
      <trkpt lat="43.5357577912509441375732421875" lon="-6.999945938587188720703125">
        <ele>33.59999847412109375</ele>
        <time>2019-07-11T08:12:52.000Z</time>
      </trkpt>
      <trkpt lat="43.5359566099941730499267578125" lon="-6.99961326085031032562255859375">
        <ele>34.59999847412109375</ele>
        <time>2019-07-11T08:12:54.000Z</time>
      </trkpt>
      <trkpt lat="43.5360511578619480133056640625" lon="-6.999450735747814178466796875">
        <ele>35.59999847412109375</ele>
        <time>2019-07-11T08:12:55.000Z</time>
      </trkpt>
      <trkpt lat="43.536143191158771514892578125" lon="-6.9992943294346332550048828125">
        <ele>36.799999237060546875</ele>
        <time>2019-07-11T08:12:56.000Z</time>
      </trkpt>
      <trkpt lat="43.5362322069704532623291015625" lon="-6.99914018623530864715576171875">
        <ele>38.200000762939453125</ele>
        <time>2019-07-11T08:12:57.000Z</time>
      </trkpt>
      <trkpt lat="43.5363230668008327484130859375" lon="-6.9989895634353160858154296875">
        <ele>39.40000152587890625</ele>
        <time>2019-07-11T08:12:58.000Z</time>
      </trkpt>
      <trkpt lat="43.5364110767841339111328125" lon="-6.99883961118757724761962890625">
        <ele>40.799999237060546875</ele>
        <time>2019-07-11T08:12:59.000Z</time>
      </trkpt>
      <trkpt lat="43.53658215142786502838134765625" lon="-6.9985525310039520263671875">
        <ele>42</ele>
        <time>2019-07-11T08:13:01.000Z</time>
      </trkpt>
      <trkpt lat="43.5368893481791019439697265625" lon="-6.998053304851055145263671875">
        <ele>42</ele>
        <time>2019-07-11T08:13:05.000Z</time>
      </trkpt>
      <trkpt lat="43.537175841629505157470703125" lon="-6.99757578782737255096435546875">
        <ele>42.40000152587890625</ele>
        <time>2019-07-11T08:13:09.000Z</time>
      </trkpt>
      <trkpt lat="43.5373874008655548095703125" lon="-6.9972263462841510772705078125">
        <ele>43</ele>
        <time>2019-07-11T08:13:12.000Z</time>
      </trkpt>
      <trkpt lat="43.53773851878941059112548828125" lon="-6.99664120562374591827392578125">
        <ele>43.200000762939453125</ele>
        <time>2019-07-11T08:13:17.000Z</time>
      </trkpt>
      <trkpt lat="43.5380349867045879364013671875" lon="-6.9961568154394626617431640625">
        <ele>43.59999847412109375</ele>
        <time>2019-07-11T08:13:21.000Z</time>
      </trkpt>
      <trkpt lat="43.53837336413562297821044921875" lon="-6.995579302310943603515625">
        <ele>44.40000152587890625</ele>
        <time>2019-07-11T08:13:26.000Z</time>
      </trkpt>
      <trkpt lat="43.53858022950589656829833984375" lon="-6.99522231705486774444580078125">
        <ele>45.40000152587890625</ele>
        <time>2019-07-11T08:13:29.000Z</time>
      </trkpt>
      <trkpt lat="43.53888767771422863006591796875" lon="-6.99465050362050533294677734375">
        <ele>46</ele>
        <time>2019-07-11T08:13:33.000Z</time>
      </trkpt>
      <trkpt lat="43.5391075350344181060791015625" lon="-6.99410618282854557037353515625">
        <ele>46.200000762939453125</ele>
        <time>2019-07-11T08:13:36.000Z</time>
      </trkpt>
      <trkpt lat="43.53930643759667873382568359375" lon="-6.99350352399051189422607421875">
        <ele>46</ele>
        <time>2019-07-11T08:13:39.000Z</time>
      </trkpt>
      <trkpt lat="43.53948916308581829071044921875" lon="-6.992924921214580535888671875">
        <ele>44.799999237060546875</ele>
        <time>2019-07-11T08:13:42.000Z</time>
      </trkpt>
      <trkpt lat="43.539544902741909027099609375" lon="-6.99274714104831218719482421875">
        <ele>44.200000762939453125</ele>
        <time>2019-07-11T08:13:43.000Z</time>
      </trkpt>
      <trkpt lat="43.53973994962871074676513671875" lon="-6.99215688742697238922119140625">
        <ele>43.799999237060546875</ele>
        <time>2019-07-11T08:13:47.000Z</time>
      </trkpt>
      <trkpt lat="43.539976738393306732177734375" lon="-6.991456411778926849365234375">
        <ele>44.40000152587890625</ele>
        <time>2019-07-11T08:13:52.000Z</time>
      </trkpt>
      <trkpt lat="43.54012635536491870880126953125" lon="-6.99079491198062896728515625">
        <ele>43.799999237060546875</ele>
        <time>2019-07-11T08:13:56.000Z</time>
      </trkpt>
      <trkpt lat="43.5401634871959686279296875" lon="-6.9904147088527679443359375">
        <ele>44.200000762939453125</ele>
        <time>2019-07-11T08:13:58.000Z</time>
      </trkpt>
      <trkpt lat="43.54008729569613933563232421875" lon="-6.98960526846349239349365234375">
        <ele>43.40000152587890625</ele>
        <time>2019-07-11T08:14:02.000Z</time>
      </trkpt>
      <trkpt lat="43.54004211723804473876953125" lon="-6.98941801674664020538330078125">
        <ele>43</ele>
        <time>2019-07-11T08:14:03.000Z</time>
      </trkpt>
      <trkpt lat="43.53993994183838367462158203125" lon="-6.989088021218776702880859375">
        <ele>41.799999237060546875</ele>
        <time>2019-07-11T08:14:05.000Z</time>
      </trkpt>
      <trkpt lat="43.5397231020033359527587890625" lon="-6.98843012563884258270263671875">
        <ele>41.40000152587890625</ele>
        <time>2019-07-11T08:14:10.000Z</time>
      </trkpt>
      <trkpt lat="43.5395923443138599395751953125" lon="-6.98799393139779567718505859375">
        <ele>43.200000762939453125</ele>
        <time>2019-07-11T08:14:14.000Z</time>
      </trkpt>
      <trkpt lat="43.53952713310718536376953125" lon="-6.98773945681750774383544921875">
        <ele>44.200000762939453125</ele>
        <time>2019-07-11T08:14:16.000Z</time>
      </trkpt>
      <trkpt lat="43.53946544229984283447265625" lon="-6.9874382950365543365478515625">
        <ele>43.799999237060546875</ele>
        <time>2019-07-11T08:14:18.000Z</time>
      </trkpt>
      <trkpt lat="43.53937382809817790985107421875" lon="-6.9867347180843353271484375">
        <ele>43.200000762939453125</ele>
        <time>2019-07-11T08:14:22.000Z</time>
      </trkpt>
      <trkpt lat="43.5393589921295642852783203125" lon="-6.986556686460971832275390625">
        <ele>43</ele>
        <time>2019-07-11T08:14:23.000Z</time>
      </trkpt>
      <trkpt lat="43.5393346846103668212890625" lon="-6.98587213642895221710205078125">
        <ele>42</ele>
        <time>2019-07-11T08:14:27.000Z</time>
      </trkpt>
      <trkpt lat="43.539375923573970794677734375" lon="-6.98542588390409946441650390625">
        <ele>43.40000152587890625</ele>
        <time>2019-07-11T08:14:31.000Z</time>
      </trkpt>
      <trkpt lat="43.539405763149261474609375" lon="-6.98533267714083194732666015625">
        <ele>44.200000762939453125</ele>
        <time>2019-07-11T08:14:33.000Z</time>
      </trkpt>
      <trkpt lat="43.53943652473390102386474609375" lon="-6.9852563180029392242431640625">
        <ele>45.200000762939453125</ele>
        <time>2019-07-11T08:14:36.000Z</time>
      </trkpt>
      <trkpt lat="43.53952906094491481781005859375" lon="-6.984951384365558624267578125">
        <ele>45.59999847412109375</ele>
        <time>2019-07-11T08:14:46.000Z</time>
      </trkpt>
      <trkpt lat="43.5395661927759647369384765625" lon="-6.984768323600292205810546875">
        <ele>45.40000152587890625</ele>
        <time>2019-07-11T08:14:48.000Z</time>
      </trkpt>
      <trkpt lat="43.5396637581288814544677734375" lon="-6.98462423868477344512939453125">
        <ele>45.200000762939453125</ele>
        <time>2019-07-11T08:14:50.000Z</time>
      </trkpt>
      <trkpt lat="43.53980918414890766143798828125" lon="-6.9845743663609027862548828125">
        <ele>44.40000152587890625</ele>
        <time>2019-07-11T08:14:52.000Z</time>
      </trkpt>
      <trkpt lat="43.53988981805741786956787109375" lon="-6.9845995120704174041748046875">
        <ele>44.200000762939453125</ele>
        <time>2019-07-11T08:14:53.000Z</time>
      </trkpt>
      <trkpt lat="43.540060222148895263671875" lon="-6.98468442074954509735107421875">
        <ele>43.59999847412109375</ele>
        <time>2019-07-11T08:14:55.000Z</time>
      </trkpt>
      <trkpt lat="43.54025644250214099884033203125" lon="-6.9846746139228343963623046875">
        <ele>43.200000762939453125</ele>
        <time>2019-07-11T08:14:57.000Z</time>
      </trkpt>
      <trkpt lat="43.54035417549312114715576171875" lon="-6.98460973799228668212890625">
        <ele>42.59999847412109375</ele>
        <time>2019-07-11T08:14:58.000Z</time>
      </trkpt>
      <trkpt lat="43.54043765924870967864990234375" lon="-6.984502784907817840576171875">
        <ele>42</ele>
        <time>2019-07-11T08:14:59.000Z</time>
      </trkpt>
      <trkpt lat="43.54049918241798877716064453125" lon="-6.98435668833553791046142578125">
        <ele>41.40000152587890625</ele>
        <time>2019-07-11T08:15:00.000Z</time>
      </trkpt>
      <trkpt lat="43.540600351989269256591796875" lon="-6.98397413827478885650634765625">
        <ele>40</ele>
        <time>2019-07-11T08:15:02.000Z</time>
      </trkpt>
      <trkpt lat="43.54065366089344024658203125" lon="-6.983768530189990997314453125">
        <ele>38.799999237060546875</ele>
        <time>2019-07-11T08:15:03.000Z</time>
      </trkpt>
      <trkpt lat="43.54070705361664295196533203125" lon="-6.9835670292377471923828125">
        <ele>37.59999847412109375</ele>
        <time>2019-07-11T08:15:04.000Z</time>
      </trkpt>
      <trkpt lat="43.5407602787017822265625" lon="-6.98336795903742313385009765625">
        <ele>36.59999847412109375</ele>
        <time>2019-07-11T08:15:05.000Z</time>
      </trkpt>
      <trkpt lat="43.5408154316246509552001953125" lon="-6.98315623216331005096435546875">
        <ele>35.40000152587890625</ele>
        <time>2019-07-11T08:15:06.000Z</time>
      </trkpt>
      <trkpt lat="43.54087552987039089202880859375" lon="-6.9829291664063930511474609375">
        <ele>34.40000152587890625</ele>
        <time>2019-07-11T08:15:07.000Z</time>
      </trkpt>
      <trkpt lat="43.54100913740694522857666015625" lon="-6.98243086226284503936767578125">
        <ele>32.799999237060546875</ele>
        <time>2019-07-11T08:15:09.000Z</time>
      </trkpt>
      <trkpt lat="43.541135452687740325927734375" lon="-6.9818831048905849456787109375">
        <ele>31.6000003814697265625</ele>
        <time>2019-07-11T08:15:11.000Z</time>
      </trkpt>
      <trkpt lat="43.54124031029641628265380859375" lon="-6.9812799431383609771728515625">
        <ele>30.6000003814697265625</ele>
        <time>2019-07-11T08:15:13.000Z</time>
      </trkpt>
      <trkpt lat="43.54129009880125522613525390625" lon="-6.9809510372579097747802734375">
        <ele>30.6000003814697265625</ele>
        <time>2019-07-11T08:15:14.000Z</time>
      </trkpt>
      <trkpt lat="43.5413790307939052581787109375" lon="-6.98026782833039760589599609375">
        <ele>29.200000762939453125</ele>
        <time>2019-07-11T08:15:16.000Z</time>
      </trkpt>
      <trkpt lat="43.54144751094281673431396484375" lon="-6.97957917116582393646240234375">
        <ele>28.799999237060546875</ele>
        <time>2019-07-11T08:15:18.000Z</time>
      </trkpt>
      <trkpt lat="43.5414719022810459136962890625" lon="-6.97923316620290279388427734375">
        <ele>28.200000762939453125</ele>
        <time>2019-07-11T08:15:19.000Z</time>
      </trkpt>
      <trkpt lat="43.54150417260825634002685546875" lon="-6.978535540401935577392578125">
        <ele>28.200000762939453125</ele>
        <time>2019-07-11T08:15:21.000Z</time>
      </trkpt>
      <trkpt lat="43.5415101237595081329345703125" lon="-6.97818542830646038055419921875">
        <ele>29.200000762939453125</ele>
        <time>2019-07-11T08:15:22.000Z</time>
      </trkpt>
      <trkpt lat="43.541500903666019439697265625" lon="-6.97747631929814815521240234375">
        <ele>30</ele>
        <time>2019-07-11T08:15:24.000Z</time>
      </trkpt>
      <trkpt lat="43.5414883308112621307373046875" lon="-6.9771164841949939727783203125">
        <ele>32.40000152587890625</ele>
        <time>2019-07-11T08:15:25.000Z</time>
      </trkpt>
      <trkpt lat="43.5414697229862213134765625" lon="-6.97674709372222423553466796875">
        <ele>36.40000152587890625</ele>
        <time>2019-07-11T08:15:26.000Z</time>
      </trkpt>
      <trkpt lat="43.541424460709095001220703125" lon="-6.976004540920257568359375">
        <ele>36.40000152587890625</ele>
        <time>2019-07-11T08:15:28.000Z</time>
      </trkpt>
      <trkpt lat="43.541398979723453521728515625" lon="-6.9756384193897247314453125">
        <ele>34.799999237060546875</ele>
        <time>2019-07-11T08:15:29.000Z</time>
      </trkpt>
      <trkpt lat="43.541343994438648223876953125" lon="-6.97493609972298145294189453125">
        <ele>33.200000762939453125</ele>
        <time>2019-07-11T08:15:31.000Z</time>
      </trkpt>
      <trkpt lat="43.54131893254816532135009765625" lon="-6.9745898433029651641845703125">
        <ele>32</ele>
        <time>2019-07-11T08:15:32.000Z</time>
      </trkpt>
      <trkpt lat="43.5412801243364810943603515625" lon="-6.9738938100636005401611328125">
        <ele>31.3999996185302734375</ele>
        <time>2019-07-11T08:15:34.000Z</time>
      </trkpt>
      <trkpt lat="43.5412408970296382904052734375" lon="-6.97318763472139835357666015625">
        <ele>30.6000003814697265625</ele>
        <time>2019-07-11T08:15:36.000Z</time>
      </trkpt>
      <trkpt lat="43.5412123985588550567626953125" lon="-6.97247014380991458892822265625">
        <ele>30.6000003814697265625</ele>
        <time>2019-07-11T08:15:38.000Z</time>
      </trkpt>
      <trkpt lat="43.5412036813795566558837890625" lon="-6.97174158878624439239501953125">
        <ele>31</ele>
        <time>2019-07-11T08:15:40.000Z</time>
      </trkpt>
      <trkpt lat="43.54120695032179355621337890625" lon="-6.97100481949746608734130859375">
        <ele>31</ele>
        <time>2019-07-11T08:15:42.000Z</time>
      </trkpt>
      <trkpt lat="43.5412261448800563812255859375" lon="-6.970266290009021759033203125">
        <ele>30.6000003814697265625</ele>
        <time>2019-07-11T08:15:44.000Z</time>
      </trkpt>
      <trkpt lat="43.54126495309174060821533203125" lon="-6.96954301558434963226318359375">
        <ele>30</ele>
        <time>2019-07-11T08:15:46.000Z</time>
      </trkpt>
      <trkpt lat="43.54128976352512836456298828125" lon="-6.96919231675565242767333984375">
        <ele>29.200000762939453125</ele>
        <time>2019-07-11T08:15:47.000Z</time>
      </trkpt>
      <trkpt lat="43.54135128669440746307373046875" lon="-6.96850986219942569732666015625">
        <ele>28.799999237060546875</ele>
        <time>2019-07-11T08:15:49.000Z</time>
      </trkpt>
      <trkpt lat="43.54141834191977977752685546875" lon="-6.96783344261348247528076171875">
        <ele>28.799999237060546875</ele>
        <time>2019-07-11T08:15:51.000Z</time>
      </trkpt>
      <trkpt lat="43.5414987243711948394775390625" lon="-6.96715618483722209930419921875">
        <ele>29</ele>
        <time>2019-07-11T08:15:53.000Z</time>
      </trkpt>
      <trkpt lat="43.5415872372686862945556640625" lon="-6.966479681432247161865234375">
        <ele>29.3999996185302734375</ele>
        <time>2019-07-11T08:15:55.000Z</time>
      </trkpt>
      <trkpt lat="43.541683293879032135009765625" lon="-6.96579814888536930084228515625">
        <ele>29</ele>
        <time>2019-07-11T08:15:57.000Z</time>
      </trkpt>
      <trkpt lat="43.54177951812744140625" lon="-6.9651273451745510101318359375">
        <ele>29.200000762939453125</ele>
        <time>2019-07-11T08:15:59.000Z</time>
      </trkpt>
      <trkpt lat="43.5418774187564849853515625" lon="-6.96446810849010944366455078125">
        <ele>29.799999237060546875</ele>
        <time>2019-07-11T08:16:01.000Z</time>
      </trkpt>
      <trkpt lat="43.5419262014329433441162109375" lon="-6.9641382806003093719482421875">
        <ele>31.200000762939453125</ele>
        <time>2019-07-11T08:16:02.000Z</time>
      </trkpt>
      <trkpt lat="43.54197406210005283355712890625" lon="-6.963808871805667877197265625">
        <ele>32.799999237060546875</ele>
        <time>2019-07-11T08:16:03.000Z</time>
      </trkpt>
      <trkpt lat="43.54201999492943286895751953125" lon="-6.9634794630110263824462890625">
        <ele>34</ele>
        <time>2019-07-11T08:16:04.000Z</time>
      </trkpt>
      <trkpt lat="43.542109429836273193359375" lon="-6.962819136679172515869140625">
        <ele>35</ele>
        <time>2019-07-11T08:16:06.000Z</time>
      </trkpt>
      <trkpt lat="43.54218092747032642364501953125" lon="-6.96250590495765209197998046875">
        <ele>35.40000152587890625</ele>
        <time>2019-07-11T08:16:07.000Z</time>
      </trkpt>
      <trkpt lat="43.5424468852579593658447265625" lon="-6.9621500931680202484130859375">
        <ele>37.40000152587890625</ele>
        <time>2019-07-11T08:16:09.000Z</time>
      </trkpt>
      <trkpt lat="43.5424193926155567169189453125" lon="-6.9614775292575359344482421875">
        <ele>37.799999237060546875</ele>
        <time>2019-07-11T08:16:11.000Z</time>
      </trkpt>
      <trkpt lat="43.542465828359127044677734375" lon="-6.9608002714812755584716796875">
        <ele>38.200000762939453125</ele>
        <time>2019-07-11T08:16:13.000Z</time>
      </trkpt>
      <trkpt lat="43.54248234070837497711181640625" lon="-6.96045150049030780792236328125">
        <ele>38.40000152587890625</ele>
        <time>2019-07-11T08:16:14.000Z</time>
      </trkpt>
      <trkpt lat="43.54251083917915821075439453125" lon="-6.9597169943153858184814453125">
        <ele>39.40000152587890625</ele>
        <time>2019-07-11T08:16:16.000Z</time>
      </trkpt>
      <trkpt lat="43.54252106510102748870849609375" lon="-6.95892984978854656219482421875">
        <ele>40.200000762939453125</ele>
        <time>2019-07-11T08:16:18.000Z</time>
      </trkpt>
      <trkpt lat="43.542506061494350433349609375" lon="-6.9581395201385021209716796875">
        <ele>40.200000762939453125</ele>
        <time>2019-07-11T08:16:20.000Z</time>
      </trkpt>
      <trkpt lat="43.5424680076539516448974609375" lon="-6.9573589973151683807373046875">
        <ele>38.799999237060546875</ele>
        <time>2019-07-11T08:16:22.000Z</time>
      </trkpt>
      <trkpt lat="43.5424472205340862274169921875" lon="-6.95697091519832611083984375">
        <ele>38.40000152587890625</ele>
        <time>2019-07-11T08:16:23.000Z</time>
      </trkpt>
      <trkpt lat="43.542409837245941162109375" lon="-6.95620019920170307159423828125">
        <ele>37.799999237060546875</ele>
        <time>2019-07-11T08:16:25.000Z</time>
      </trkpt>
      <trkpt lat="43.54237002320587635040283203125" lon="-6.955438368022441864013671875">
        <ele>38.799999237060546875</ele>
        <time>2019-07-11T08:16:27.000Z</time>
      </trkpt>
      <trkpt lat="43.5423335619270801544189453125" lon="-6.9546828232705593109130859375">
        <ele>39.799999237060546875</ele>
        <time>2019-07-11T08:16:29.000Z</time>
      </trkpt>
      <trkpt lat="43.5422963462769985198974609375" lon="-6.95393457077443599700927734375">
        <ele>40.40000152587890625</ele>
        <time>2019-07-11T08:16:31.000Z</time>
      </trkpt>
      <trkpt lat="43.542279414832592010498046875" lon="-6.9535640068352222442626953125">
        <ele>41.40000152587890625</ele>
        <time>2019-07-11T08:16:32.000Z</time>
      </trkpt>
      <trkpt lat="43.54226340539753437042236328125" lon="-6.95319495163857936859130859375">
        <ele>42.799999237060546875</ele>
        <time>2019-07-11T08:16:33.000Z</time>
      </trkpt>
      <trkpt lat="43.54225032962858676910400390625" lon="-6.95282815955579280853271484375">
        <ele>44.200000762939453125</ele>
        <time>2019-07-11T08:16:34.000Z</time>
      </trkpt>
      <trkpt lat="43.54224152863025665283203125" lon="-6.9524622894823551177978515625">
        <ele>45.40000152587890625</ele>
        <time>2019-07-11T08:16:35.000Z</time>
      </trkpt>
      <trkpt lat="43.54223373346030712127685546875" lon="-6.95173381827771663665771484375">
        <ele>45.40000152587890625</ele>
        <time>2019-07-11T08:16:37.000Z</time>
      </trkpt>
      <trkpt lat="43.542235828936100006103515625" lon="-6.95100425742566585540771484375">
        <ele>44.40000152587890625</ele>
        <time>2019-07-11T08:16:39.000Z</time>
      </trkpt>
      <trkpt lat="43.54223976843059062957763671875" lon="-6.95063662715256214141845703125">
        <ele>43.200000762939453125</ele>
        <time>2019-07-11T08:16:40.000Z</time>
      </trkpt>
      <trkpt lat="43.542256616055965423583984375" lon="-6.94989818148314952850341796875">
        <ele>42.200000762939453125</ele>
        <time>2019-07-11T08:16:42.000Z</time>
      </trkpt>
      <trkpt lat="43.542286790907382965087890625" lon="-6.94915629923343658447265625">
        <ele>42.59999847412109375</ele>
        <time>2019-07-11T08:16:44.000Z</time>
      </trkpt>
      <trkpt lat="43.542307913303375244140625" lon="-6.94878456182777881622314453125">
        <ele>43.40000152587890625</ele>
        <time>2019-07-11T08:16:45.000Z</time>
      </trkpt>
      <trkpt lat="43.54235812090337276458740234375" lon="-6.94804318249225616455078125">
        <ele>44.59999847412109375</ele>
        <time>2019-07-11T08:16:47.000Z</time>
      </trkpt>
      <trkpt lat="43.542425930500030517578125" lon="-6.94730750285089015960693359375">
        <ele>44.200000762939453125</ele>
        <time>2019-07-11T08:16:49.000Z</time>
      </trkpt>
      <trkpt lat="43.5424670018255710601806640625" lon="-6.946939788758754730224609375">
        <ele>43.59999847412109375</ele>
        <time>2019-07-11T08:16:50.000Z</time>
      </trkpt>
      <trkpt lat="43.542559035122394561767578125" lon="-6.946199499070644378662109375">
        <ele>42.59999847412109375</ele>
        <time>2019-07-11T08:16:52.000Z</time>
      </trkpt>
      <trkpt lat="43.54260840453207492828369140625" lon="-6.94582893513143062591552734375">
        <ele>43.59999847412109375</ele>
        <time>2019-07-11T08:16:53.000Z</time>
      </trkpt>
      <trkpt lat="43.5427134297788143157958984375" lon="-6.94509468041360378265380859375">
        <ele>44.799999237060546875</ele>
        <time>2019-07-11T08:16:55.000Z</time>
      </trkpt>
      <trkpt lat="43.54282717220485210418701171875" lon="-6.944366879761219024658203125">
        <ele>45</ele>
        <time>2019-07-11T08:16:57.000Z</time>
      </trkpt>
      <trkpt lat="43.54288634844124317169189453125" lon="-6.9440062902867794036865234375">
        <ele>45.799999237060546875</ele>
        <time>2019-07-11T08:16:58.000Z</time>
      </trkpt>
      <trkpt lat="43.543017022311687469482421875" lon="-6.9432894699275493621826171875">
        <ele>45.59999847412109375</ele>
        <time>2019-07-11T08:17:00.000Z</time>
      </trkpt>
      <trkpt lat="43.54315741918981075286865234375" lon="-6.942572481930255889892578125">
        <ele>46.40000152587890625</ele>
        <time>2019-07-11T08:17:02.000Z</time>
      </trkpt>
      <trkpt lat="43.543307371437549591064453125" lon="-6.941847614943981170654296875">
        <ele>46.40000152587890625</ele>
        <time>2019-07-11T08:17:04.000Z</time>
      </trkpt>
      <trkpt lat="43.54338540695607662200927734375" lon="-6.9414826668798923492431640625">
        <ele>46.799999237060546875</ele>
        <time>2019-07-11T08:17:05.000Z</time>
      </trkpt>
      <trkpt lat="43.5435439087450504302978515625" lon="-6.94074346683919429779052734375">
        <ele>47.200000762939453125</ele>
        <time>2019-07-11T08:17:07.000Z</time>
      </trkpt>
      <trkpt lat="43.5437112115323543548583984375" lon="-6.93999613635241985321044921875">
        <ele>46.200000762939453125</ele>
        <time>2019-07-11T08:17:09.000Z</time>
      </trkpt>
      <trkpt lat="43.5438810288906097412109375" lon="-6.93923656828701496124267578125">
        <ele>45.40000152587890625</ele>
        <time>2019-07-11T08:17:11.000Z</time>
      </trkpt>
      <trkpt lat="43.5440471582114696502685546875" lon="-6.93847331218421459197998046875">
        <ele>44</ele>
        <time>2019-07-11T08:17:13.000Z</time>
      </trkpt>
      <trkpt lat="43.54412653483450412750244140625" lon="-6.93809084594249725341796875">
        <ele>42.799999237060546875</ele>
        <time>2019-07-11T08:17:14.000Z</time>
      </trkpt>
      <trkpt lat="43.5442801751196384429931640625" lon="-6.93732633255422115325927734375">
        <ele>42.40000152587890625</ele>
        <time>2019-07-11T08:17:16.000Z</time>
      </trkpt>
      <trkpt lat="43.54443213902413845062255859375" lon="-6.93656408227980136871337890625">
        <ele>43.40000152587890625</ele>
        <time>2019-07-11T08:17:18.000Z</time>
      </trkpt>
      <trkpt lat="43.54458334855735301971435546875" lon="-6.93580166436731815338134765625">
        <ele>44.59999847412109375</ele>
        <time>2019-07-11T08:17:20.000Z</time>
      </trkpt>
      <trkpt lat="43.54472634382545948028564453125" lon="-6.9350389949977397918701171875">
        <ele>45.40000152587890625</ele>
        <time>2019-07-11T08:17:22.000Z</time>
      </trkpt>
      <trkpt lat="43.54479230940341949462890625" lon="-6.93465636111795902252197265625">
        <ele>46</ele>
        <time>2019-07-11T08:17:23.000Z</time>
      </trkpt>
      <trkpt lat="43.54492130689322948455810546875" lon="-6.93389746360480785369873046875">
        <ele>46.200000762939453125</ele>
        <time>2019-07-11T08:17:25.000Z</time>
      </trkpt>
      <trkpt lat="43.54504569433629512786865234375" lon="-6.9331460259854793548583984375">
        <ele>45.799999237060546875</ele>
        <time>2019-07-11T08:17:27.000Z</time>
      </trkpt>
      <trkpt lat="43.545158766210079193115234375" lon="-6.93239877931773662567138671875">
        <ele>46.200000762939453125</ele>
        <time>2019-07-11T08:17:29.000Z</time>
      </trkpt>
      <trkpt lat="43.54527032934129238128662109375" lon="-6.9316550530493259429931640625">
        <ele>46.799999237060546875</ele>
        <time>2019-07-11T08:17:31.000Z</time>
      </trkpt>
      <trkpt lat="43.54532648809254169464111328125" lon="-6.93128281272947788238525390625">
        <ele>47.799999237060546875</ele>
        <time>2019-07-11T08:17:32.000Z</time>
      </trkpt>
      <trkpt lat="43.5454341955482959747314453125" lon="-6.93053615279495716094970703125">
        <ele>49.40000152587890625</ele>
        <time>2019-07-11T08:17:34.000Z</time>
      </trkpt>
      <trkpt lat="43.54553402401506900787353515625" lon="-6.92978295497596263885498046875">
        <ele>50</ele>
        <time>2019-07-11T08:17:36.000Z</time>
      </trkpt>
      <trkpt lat="43.5456353612244129180908203125" lon="-6.9290241412818431854248046875">
        <ele>49.40000152587890625</ele>
        <time>2019-07-11T08:17:38.000Z</time>
      </trkpt>
      <trkpt lat="43.5457332618534564971923828125" lon="-6.92826113663613796234130859375">
        <ele>48.799999237060546875</ele>
        <time>2019-07-11T08:17:40.000Z</time>
      </trkpt>
      <trkpt lat="43.54582353495061397552490234375" lon="-6.92749586887657642364501953125">
        <ele>48.200000762939453125</ele>
        <time>2019-07-11T08:17:42.000Z</time>
      </trkpt>
      <trkpt lat="43.54591087438166141510009765625" lon="-6.92672364413738250732421875">
        <ele>48.799999237060546875</ele>
        <time>2019-07-11T08:17:44.000Z</time>
      </trkpt>
      <trkpt lat="43.5459890775382518768310546875" lon="-6.9259446300566196441650390625">
        <ele>49.40000152587890625</ele>
        <time>2019-07-11T08:17:46.000Z</time>
      </trkpt>
      <trkpt lat="43.54605923406779766082763671875" lon="-6.92516930401325225830078125">
        <ele>49.40000152587890625</ele>
        <time>2019-07-11T08:17:48.000Z</time>
      </trkpt>
      <trkpt lat="43.546129725873470306396484375" lon="-6.9243966601788997650146484375">
        <ele>49.59999847412109375</ele>
        <time>2019-07-11T08:17:50.000Z</time>
      </trkpt>
      <trkpt lat="43.54619082994759082794189453125" lon="-6.92361940629780292510986328125">
        <ele>50.59999847412109375</ele>
        <time>2019-07-11T08:17:52.000Z</time>
      </trkpt>
      <trkpt lat="43.54624799452722072601318359375" lon="-6.9228406436741352081298828125">
        <ele>51.200000762939453125</ele>
        <time>2019-07-11T08:17:54.000Z</time>
      </trkpt>
      <trkpt lat="43.54630398564040660858154296875" lon="-6.92205852828919887542724609375">
        <ele>49.799999237060546875</ele>
        <time>2019-07-11T08:17:56.000Z</time>
      </trkpt>
      <trkpt lat="43.54632913134992122650146484375" lon="-6.92166692577302455902099609375">
        <ele>48.799999237060546875</ele>
        <time>2019-07-11T08:17:57.000Z</time>
      </trkpt>
      <trkpt lat="43.546375818550586700439453125" lon="-6.92088849842548370361328125">
        <ele>48</ele>
        <time>2019-07-11T08:17:59.000Z</time>
      </trkpt>
      <trkpt lat="43.54639853350818157196044921875" lon="-6.920498572289943695068359375">
        <ele>47</ele>
        <time>2019-07-11T08:18:00.000Z</time>
      </trkpt>
      <trkpt lat="43.54644044302403926849365234375" lon="-6.9197155348956584930419921875">
        <ele>46.40000152587890625</ele>
        <time>2019-07-11T08:18:02.000Z</time>
      </trkpt>
      <trkpt lat="43.54645653627812862396240234375" lon="-6.9193219207227230072021484375">
        <ele>45.200000762939453125</ele>
        <time>2019-07-11T08:18:03.000Z</time>
      </trkpt>
      <trkpt lat="43.54646743275225162506103515625" lon="-6.9189266301691532135009765625">
        <ele>43.40000152587890625</ele>
        <time>2019-07-11T08:18:04.000Z</time>
      </trkpt>
      <trkpt lat="43.546478748321533203125" lon="-6.918530166149139404296875">
        <ele>41.59999847412109375</ele>
        <time>2019-07-11T08:18:05.000Z</time>
      </trkpt>
      <trkpt lat="43.546499870717525482177734375" lon="-6.917733214795589447021484375">
        <ele>40</ele>
        <time>2019-07-11T08:18:07.000Z</time>
      </trkpt>
      <trkpt lat="43.54652476496994495391845703125" lon="-6.91693115048110485076904296875">
        <ele>40.200000762939453125</ele>
        <time>2019-07-11T08:18:09.000Z</time>
      </trkpt>
      <trkpt lat="43.54653700254857540130615234375" lon="-6.9165278971195220947265625">
        <ele>43</ele>
        <time>2019-07-11T08:18:10.000Z</time>
      </trkpt>
      <trkpt lat="43.54654856957495212554931640625" lon="-6.91612296737730503082275390625">
        <ele>46</ele>
        <time>2019-07-11T08:18:11.000Z</time>
      </trkpt>
      <trkpt lat="43.54655711911618709564208984375" lon="-6.91571577452123165130615234375">
        <ele>47.40000152587890625</ele>
        <time>2019-07-11T08:18:12.000Z</time>
      </trkpt>
      <trkpt lat="43.54656164534389972686767578125" lon="-6.9153069891035556793212890625">
        <ele>48.799999237060546875</ele>
        <time>2019-07-11T08:18:13.000Z</time>
      </trkpt>
      <trkpt lat="43.54656432755291461944580078125" lon="-6.914898790419101715087890625">
        <ele>51.200000762939453125</ele>
        <time>2019-07-11T08:18:14.000Z</time>
      </trkpt>
      <trkpt lat="43.5465660877525806427001953125" lon="-6.9144909270107746124267578125">
        <ele>53.200000762939453125</ele>
        <time>2019-07-11T08:18:15.000Z</time>
      </trkpt>
      <trkpt lat="43.5465657524764537811279296875" lon="-6.91368006169795989990234375">
        <ele>51.799999237060546875</ele>
        <time>2019-07-11T08:18:17.000Z</time>
      </trkpt>
      <trkpt lat="43.54655376635491847991943359375" lon="-6.9128611497581005096435546875">
        <ele>54.59999847412109375</ele>
        <time>2019-07-11T08:18:19.000Z</time>
      </trkpt>
      <trkpt lat="43.54653599672019481658935546875" lon="-6.91204047761857509613037109375">
        <ele>56.40000152587890625</ele>
        <time>2019-07-11T08:18:21.000Z</time>
      </trkpt>
      <trkpt lat="43.54652426205575466156005859375" lon="-6.91162909381091594696044921875">
        <ele>55</ele>
        <time>2019-07-11T08:18:22.000Z</time>
      </trkpt>
      <trkpt lat="43.54650758206844329833984375" lon="-6.91121653653681278228759765625">
        <ele>56.200000762939453125</ele>
        <time>2019-07-11T08:18:23.000Z</time>
      </trkpt>
      <trkpt lat="43.54645930230617523193359375" lon="-6.91039209254086017608642578125">
        <ele>56.40000152587890625</ele>
        <time>2019-07-11T08:18:25.000Z</time>
      </trkpt>
      <trkpt lat="43.54639627039432525634765625" lon="-6.90956421196460723876953125">
        <ele>57.799999237060546875</ele>
        <time>2019-07-11T08:18:27.000Z</time>
      </trkpt>
      <trkpt lat="43.5463149659335613250732421875" lon="-6.90873415209352970123291015625">
        <ele>58</ele>
        <time>2019-07-11T08:18:29.000Z</time>
      </trkpt>
      <trkpt lat="43.54621228761970996856689453125" lon="-6.90790534950792789459228515625">
        <ele>58</ele>
        <time>2019-07-11T08:18:31.000Z</time>
      </trkpt>
      <trkpt lat="43.54615428484976291656494140625" lon="-6.90749011002480983734130859375">
        <ele>59.40000152587890625</ele>
        <time>2019-07-11T08:18:32.000Z</time>
      </trkpt>
      <trkpt lat="43.54602210223674774169921875" lon="-6.90665979869663715362548828125">
        <ele>61.40000152587890625</ele>
        <time>2019-07-11T08:18:34.000Z</time>
      </trkpt>
      <trkpt lat="43.54594876058399677276611328125" lon="-6.90624841488897800445556640625">
        <ele>63.200000762939453125</ele>
        <time>2019-07-11T08:18:35.000Z</time>
      </trkpt>
      <trkpt lat="43.545871563255786895751953125" lon="-6.905841641128063201904296875">
        <ele>65.1999969482421875</ele>
        <time>2019-07-11T08:18:36.000Z</time>
      </trkpt>
      <trkpt lat="43.5457907617092132568359375" lon="-6.90543855540454387664794921875">
        <ele>67.1999969482421875</ele>
        <time>2019-07-11T08:18:37.000Z</time>
      </trkpt>
      <trkpt lat="43.545620441436767578125" lon="-6.90463741309940814971923828125">
        <ele>67.59999847412109375</ele>
        <time>2019-07-11T08:18:39.000Z</time>
      </trkpt>
      <trkpt lat="43.54553016833961009979248046875" lon="-6.90423843450844287872314453125">
        <ele>68.40000152587890625</ele>
        <time>2019-07-11T08:18:40.000Z</time>
      </trkpt>
      <trkpt lat="43.5453440062701702117919921875" lon="-6.9034408964216709136962890625">
        <ele>69.40000152587890625</ele>
        <time>2019-07-11T08:18:42.000Z</time>
      </trkpt>
      <trkpt lat="43.54514543898403644561767578125" lon="-6.90265618264675140380859375">
        <ele>66.59999847412109375</ele>
        <time>2019-07-11T08:18:44.000Z</time>
      </trkpt>
      <trkpt lat="43.54504385031759738922119140625" lon="-6.9022674299776554107666015625">
        <ele>65.1999969482421875</ele>
        <time>2019-07-11T08:18:45.000Z</time>
      </trkpt>
      <trkpt lat="43.54494460858404636383056640625" lon="-6.90187926404178142547607421875">
        <ele>63.40000152587890625</ele>
        <time>2019-07-11T08:18:46.000Z</time>
      </trkpt>
      <trkpt lat="43.54484838433563709259033203125" lon="-6.90149168483912944793701171875">
        <ele>62.200000762939453125</ele>
        <time>2019-07-11T08:18:47.000Z</time>
      </trkpt>
      <trkpt lat="43.5447581112384796142578125" lon="-6.9011050276458263397216796875">
        <ele>61.200000762939453125</ele>
        <time>2019-07-11T08:18:48.000Z</time>
      </trkpt>
      <trkpt lat="43.54459156282246112823486328125" lon="-6.90033934079110622406005859375">
        <ele>61</ele>
        <time>2019-07-11T08:18:50.000Z</time>
      </trkpt>
      <trkpt lat="43.54451629333198070526123046875" lon="-6.8999614007771015167236328125">
        <ele>62.200000762939453125</ele>
        <time>2019-07-11T08:18:51.000Z</time>
      </trkpt>
      <trkpt lat="43.54444655589759349822998046875" lon="-6.89958513714373111724853515625">
        <ele>65.40000152587890625</ele>
        <time>2019-07-11T08:18:52.000Z</time>
      </trkpt>
      <trkpt lat="43.54438000358641147613525390625" lon="-6.89921063371002674102783203125">
        <ele>69</ele>
        <time>2019-07-11T08:18:53.000Z</time>
      </trkpt>
      <trkpt lat="43.54431931860744953155517578125" lon="-6.89883730374276638031005859375">
        <ele>70.8000030517578125</ele>
        <time>2019-07-11T08:18:54.000Z</time>
      </trkpt>
      <trkpt lat="43.5442627407610416412353515625" lon="-6.89846481196582317352294921875">
        <ele>72.40000152587890625</ele>
        <time>2019-07-11T08:18:55.000Z</time>
      </trkpt>
      <trkpt lat="43.544211946427822113037109375" lon="-6.89809248782694339752197265625">
        <ele>73.40000152587890625</ele>
        <time>2019-07-11T08:18:56.000Z</time>
      </trkpt>
      <trkpt lat="43.5441651754081249237060546875" lon="-6.8977197445929050445556640625">
        <ele>74.8000030517578125</ele>
        <time>2019-07-11T08:18:57.000Z</time>
      </trkpt>
      <trkpt lat="43.5440848767757415771484375" lon="-6.8969673849642276763916015625">
        <ele>75</ele>
        <time>2019-07-11T08:18:59.000Z</time>
      </trkpt>
      <trkpt lat="43.54405093006789684295654296875" lon="-6.89658860675990581512451171875">
        <ele>76</ele>
        <time>2019-07-11T08:19:00.000Z</time>
      </trkpt>
      <trkpt lat="43.5439908318221569061279296875" lon="-6.89582350663840770721435546875">
        <ele>76.8000030517578125</ele>
        <time>2019-07-11T08:19:02.000Z</time>
      </trkpt>
      <trkpt lat="43.54396887123584747314453125" lon="-6.89543860964477062225341796875">
        <ele>77.59999847412109375</ele>
        <time>2019-07-11T08:19:03.000Z</time>
      </trkpt>
      <trkpt lat="43.54394146241247653961181640625" lon="-6.89466194249689579010009765625">
        <ele>79.59999847412109375</ele>
        <time>2019-07-11T08:19:05.000Z</time>
      </trkpt>
      <trkpt lat="43.543935008347034454345703125" lon="-6.894269920885562896728515625">
        <ele>80.59999847412109375</ele>
        <time>2019-07-11T08:19:06.000Z</time>
      </trkpt>
      <trkpt lat="43.54393425397574901580810546875" lon="-6.89387555234134197235107421875">
        <ele>82.40000152587890625</ele>
        <time>2019-07-11T08:19:07.000Z</time>
      </trkpt>
      <trkpt lat="43.5439475812017917633056640625" lon="-6.89308078028261661529541015625">
        <ele>83.59999847412109375</ele>
        <time>2019-07-11T08:19:09.000Z</time>
      </trkpt>
      <trkpt lat="43.54395939968526363372802734375" lon="-6.89268129877746105194091796875">
        <ele>80.8000030517578125</ele>
        <time>2019-07-11T08:19:10.000Z</time>
      </trkpt>
      <trkpt lat="43.543975912034511566162109375" lon="-6.89228005707263946533203125">
        <ele>79.40000152587890625</ele>
        <time>2019-07-11T08:19:11.000Z</time>
      </trkpt>
      <trkpt lat="43.5439982078969478607177734375" lon="-6.89187772572040557861328125">
        <ele>76.1999969482421875</ele>
        <time>2019-07-11T08:19:12.000Z</time>
      </trkpt>
      <trkpt lat="43.54402662254869937896728515625" lon="-6.89147430472075939178466796875">
        <ele>74.8000030517578125</ele>
        <time>2019-07-11T08:19:13.000Z</time>
      </trkpt>
      <trkpt lat="43.5441009700298309326171875" lon="-6.89066394232213497161865234375">
        <ele>74.59999847412109375</ele>
        <time>2019-07-11T08:19:15.000Z</time>
      </trkpt>
      <trkpt lat="43.5441950149834156036376953125" lon="-6.88984754495322704315185546875">
        <ele>75.59999847412109375</ele>
        <time>2019-07-11T08:19:17.000Z</time>
      </trkpt>
      <trkpt lat="43.54430892504751682281494140625" lon="-6.889026872813701629638671875">
        <ele>74.8000030517578125</ele>
        <time>2019-07-11T08:19:19.000Z</time>
      </trkpt>
      <trkpt lat="43.54437463916838169097900390625" lon="-6.88861607573926448822021484375">
        <ele>72.59999847412109375</ele>
        <time>2019-07-11T08:19:20.000Z</time>
      </trkpt>
      <trkpt lat="43.54444487951695919036865234375" lon="-6.8882086314260959625244140625">
        <ele>71</ele>
        <time>2019-07-11T08:19:21.000Z</time>
      </trkpt>
      <trkpt lat="43.544519059360027313232421875" lon="-6.88780604861676692962646484375">
        <ele>68.8000030517578125</ele>
        <time>2019-07-11T08:19:22.000Z</time>
      </trkpt>
      <trkpt lat="43.54459776543080806732177734375" lon="-6.88740623183548450469970703125">
        <ele>66.59999847412109375</ele>
        <time>2019-07-11T08:19:23.000Z</time>
      </trkpt>
      <trkpt lat="43.54477177374064922332763671875" lon="-6.88663090579211711883544921875">
        <ele>65</ele>
        <time>2019-07-11T08:19:25.000Z</time>
      </trkpt>
      <trkpt lat="43.5449646413326263427734375" lon="-6.88587653450667858123779296875">
        <ele>65.59999847412109375</ele>
        <time>2019-07-11T08:19:27.000Z</time>
      </trkpt>
      <trkpt lat="43.54506053030490875244140625" lon="-6.88550203107297420501708984375">
        <ele>63.799999237060546875</ele>
        <time>2019-07-11T08:19:28.000Z</time>
      </trkpt>
      <trkpt lat="43.54515784420073032379150390625" lon="-6.88512853346765041351318359375">
        <ele>65.8000030517578125</ele>
        <time>2019-07-11T08:19:29.000Z</time>
      </trkpt>
      <trkpt lat="43.5452551580965518951416015625" lon="-6.8847546167671680450439453125">
        <ele>68.8000030517578125</ele>
        <time>2019-07-11T08:19:30.000Z</time>
      </trkpt>
      <trkpt lat="43.54535465128719806671142578125" lon="-6.88438070006668567657470703125">
        <ele>70.1999969482421875</ele>
        <time>2019-07-11T08:19:31.000Z</time>
      </trkpt>
      <trkpt lat="43.54555196128785610198974609375" lon="-6.883631609380245208740234375">
        <ele>68.1999969482421875</ele>
        <time>2019-07-11T08:19:33.000Z</time>
      </trkpt>
      <trkpt lat="43.54564516805112361907958984375" lon="-6.883255429565906524658203125">
        <ele>66.1999969482421875</ele>
        <time>2019-07-11T08:19:34.000Z</time>
      </trkpt>
      <trkpt lat="43.54573108255863189697265625" lon="-6.88287891447544097900390625">
        <ele>65</ele>
        <time>2019-07-11T08:19:35.000Z</time>
      </trkpt>
      <trkpt lat="43.5458107106387615203857421875" lon="-6.8824978731572628021240234375">
        <ele>61</ele>
        <time>2019-07-11T08:19:36.000Z</time>
      </trkpt>
      <trkpt lat="43.54588262736797332763671875" lon="-6.882112808525562286376953125">
        <ele>57.40000152587890625</ele>
        <time>2019-07-11T08:19:37.000Z</time>
      </trkpt>
      <trkpt lat="43.54594473727047443389892578125" lon="-6.8817227147519588470458984375">
        <ele>54.40000152587890625</ele>
        <time>2019-07-11T08:19:38.000Z</time>
      </trkpt>
      <trkpt lat="43.54599586687982082366943359375" lon="-6.881326250731945037841796875">
        <ele>51.799999237060546875</ele>
        <time>2019-07-11T08:19:39.000Z</time>
      </trkpt>
      <trkpt lat="43.54603677056729793548583984375" lon="-6.88093020580708980560302734375">
        <ele>49.40000152587890625</ele>
        <time>2019-07-11T08:19:40.000Z</time>
      </trkpt>
      <trkpt lat="43.5460742376744747161865234375" lon="-6.8805341608822345733642578125">
        <ele>47.59999847412109375</ele>
        <time>2019-07-11T08:19:41.000Z</time>
      </trkpt>
      <trkpt lat="43.54610650800168514251708984375" lon="-6.88013593666255474090576171875">
        <ele>46.59999847412109375</ele>
        <time>2019-07-11T08:19:42.000Z</time>
      </trkpt>
      <trkpt lat="43.54615897871553897857666015625" lon="-6.87933948822319507598876953125">
        <ele>45.799999237060546875</ele>
        <time>2019-07-11T08:19:44.000Z</time>
      </trkpt>
      <trkpt lat="43.546187393367290496826171875" lon="-6.87894000671803951263427734375">
        <ele>45</ele>
        <time>2019-07-11T08:19:45.000Z</time>
      </trkpt>
      <trkpt lat="43.5462368465960025787353515625" lon="-6.8781392835080623626708984375">
        <ele>42.799999237060546875</ele>
        <time>2019-07-11T08:19:47.000Z</time>
      </trkpt>
      <trkpt lat="43.5462609864771366119384765625" lon="-6.87773988582193851470947265625">
        <ele>41</ele>
        <time>2019-07-11T08:19:48.000Z</time>
      </trkpt>
      <trkpt lat="43.54628336615860462188720703125" lon="-6.87734258361160755157470703125">
        <ele>39.799999237060546875</ele>
        <time>2019-07-11T08:19:49.000Z</time>
      </trkpt>
      <trkpt lat="43.546326197683811187744140625" lon="-6.87655015848577022552490234375">
        <ele>38.40000152587890625</ele>
        <time>2019-07-11T08:19:51.000Z</time>
      </trkpt>
      <trkpt lat="43.54637791402637958526611328125" lon="-6.875753961503505706787109375">
        <ele>38</ele>
        <time>2019-07-11T08:19:53.000Z</time>
      </trkpt>
      <trkpt lat="43.5464319773018360137939453125" lon="-6.87495223246514797210693359375">
        <ele>38</ele>
        <time>2019-07-11T08:19:55.000Z</time>
      </trkpt>
      <trkpt lat="43.54648612439632415771484375" lon="-6.87414052896201610565185546875">
        <ele>38.799999237060546875</ele>
        <time>2019-07-11T08:19:57.000Z</time>
      </trkpt>
      <trkpt lat="43.5465365834534168243408203125" lon="-6.873327232897281646728515625">
        <ele>40</ele>
        <time>2019-07-11T08:19:59.000Z</time>
      </trkpt>
      <trkpt lat="43.546583354473114013671875" lon="-6.8725197203457355499267578125">
        <ele>39.40000152587890625</ele>
        <time>2019-07-11T08:20:01.000Z</time>
      </trkpt>
      <trkpt lat="43.54663859121501445770263671875" lon="-6.87172000296413898468017578125">
        <ele>39.59999847412109375</ele>
        <time>2019-07-11T08:20:03.000Z</time>
      </trkpt>
      <trkpt lat="43.54671335779130458831787109375" lon="-6.87093076296150684356689453125">
        <ele>39.799999237060546875</ele>
        <time>2019-07-11T08:20:05.000Z</time>
      </trkpt>
      <trkpt lat="43.54681846685707569122314453125" lon="-6.87016231007874011993408203125">
        <ele>40.200000762939453125</ele>
        <time>2019-07-11T08:20:07.000Z</time>
      </trkpt>
      <trkpt lat="43.5468909703195095062255859375" lon="-6.86978034675121307373046875">
        <ele>42.200000762939453125</ele>
        <time>2019-07-11T08:20:08.000Z</time>
      </trkpt>
      <trkpt lat="43.54697353206574916839599609375" lon="-6.86939452774822711944580078125">
        <ele>45.200000762939453125</ele>
        <time>2019-07-11T08:20:09.000Z</time>
      </trkpt>
      <trkpt lat="43.5470688343048095703125" lon="-6.86900443397462368011474609375">
        <ele>48.40000152587890625</ele>
        <time>2019-07-11T08:20:10.000Z</time>
      </trkpt>
      <trkpt lat="43.54727108962833881378173828125" lon="-6.868218965828418731689453125">
        <ele>50.40000152587890625</ele>
        <time>2019-07-11T08:20:12.000Z</time>
      </trkpt>
      <trkpt lat="43.5473730973899364471435546875" lon="-6.8678238429129123687744140625">
        <ele>52</ele>
        <time>2019-07-11T08:20:13.000Z</time>
      </trkpt>
      <trkpt lat="43.5475712455809116363525390625" lon="-6.86701825819909572601318359375">
        <ele>52.59999847412109375</ele>
        <time>2019-07-11T08:20:15.000Z</time>
      </trkpt>
      <trkpt lat="43.5476548969745635986328125" lon="-6.86660536564886569976806640625">
        <ele>53.59999847412109375</ele>
        <time>2019-07-11T08:20:16.000Z</time>
      </trkpt>
      <trkpt lat="43.5477864928543567657470703125" lon="-6.86576097272336483001708984375">
        <ele>54.40000152587890625</ele>
        <time>2019-07-11T08:20:18.000Z</time>
      </trkpt>
      <trkpt lat="43.5478860698640346527099609375" lon="-6.8649002350866794586181640625">
        <ele>53.200000762939453125</ele>
        <time>2019-07-11T08:20:20.000Z</time>
      </trkpt>
      <trkpt lat="43.547917418181896209716796875" lon="-6.8644663877785205841064453125">
        <ele>55.200000762939453125</ele>
        <time>2019-07-11T08:20:21.000Z</time>
      </trkpt>
      <trkpt lat="43.5479366965591907501220703125" lon="-6.86402927152812480926513671875">
        <ele>56.200000762939453125</ele>
        <time>2019-07-11T08:20:22.000Z</time>
      </trkpt>
      <trkpt lat="43.547952957451343536376953125" lon="-6.86315034516155719757080078125">
        <ele>56.40000152587890625</ele>
        <time>2019-07-11T08:20:24.000Z</time>
      </trkpt>
      <trkpt lat="43.5479474253952503204345703125" lon="-6.86227644793689250946044921875">
        <ele>57</ele>
        <time>2019-07-11T08:20:26.000Z</time>
      </trkpt>
      <trkpt lat="43.54794398881494998931884765625" lon="-6.86184762977063655853271484375">
        <ele>58</ele>
        <time>2019-07-11T08:20:27.000Z</time>
      </trkpt>
      <trkpt lat="43.547937534749507904052734375" lon="-6.86142392456531524658203125">
        <ele>59.200000762939453125</ele>
        <time>2019-07-11T08:20:28.000Z</time>
      </trkpt>
      <trkpt lat="43.54792957194149494171142578125" lon="-6.86100591905415058135986328125">
        <ele>60.59999847412109375</ele>
        <time>2019-07-11T08:20:29.000Z</time>
      </trkpt>
      <trkpt lat="43.547915406525135040283203125" lon="-6.86018264852464199066162109375">
        <ele>61.59999847412109375</ele>
        <time>2019-07-11T08:20:31.000Z</time>
      </trkpt>
      <trkpt lat="43.54790559969842433929443359375" lon="-6.8597765453159809112548828125">
        <ele>63</ele>
        <time>2019-07-11T08:20:32.000Z</time>
      </trkpt>
      <trkpt lat="43.547890596091747283935546875" lon="-6.85937379486858844757080078125">
        <ele>65.1999969482421875</ele>
        <time>2019-07-11T08:20:33.000Z</time>
      </trkpt>
      <trkpt lat="43.5478776879608631134033203125" lon="-6.85897816903889179229736328125">
        <ele>67.1999969482421875</ele>
        <time>2019-07-11T08:20:34.000Z</time>
      </trkpt>
      <trkpt lat="43.54786452837288379669189453125" lon="-6.858585141599178314208984375">
        <ele>68.40000152587890625</ele>
        <time>2019-07-11T08:20:35.000Z</time>
      </trkpt>
      <trkpt lat="43.54785078205168247222900390625" lon="-6.85819311998784542083740234375">
        <ele>70</ele>
        <time>2019-07-11T08:20:36.000Z</time>
      </trkpt>
      <trkpt lat="43.5478364489972591400146484375" lon="-6.857801266014575958251953125">
        <ele>72.40000152587890625</ele>
        <time>2019-07-11T08:20:37.000Z</time>
      </trkpt>
      <trkpt lat="43.54782043956220149993896484375" lon="-6.85740907676517963409423828125">
        <ele>75.40000152587890625</ele>
        <time>2019-07-11T08:20:38.000Z</time>
      </trkpt>
      <trkpt lat="43.5478024184703826904296875" lon="-6.8570165522396564483642578125">
        <ele>76.59999847412109375</ele>
        <time>2019-07-11T08:20:39.000Z</time>
      </trkpt>
      <trkpt lat="43.5477596707642078399658203125" lon="-6.85623125173151493072509765625">
        <ele>77.8000030517578125</ele>
        <time>2019-07-11T08:20:41.000Z</time>
      </trkpt>
      <trkpt lat="43.5477351956069469451904296875" lon="-6.85583780519664287567138671875">
        <ele>79.40000152587890625</ele>
        <time>2019-07-11T08:20:42.000Z</time>
      </trkpt>
      <trkpt lat="43.5477033443748950958251953125" lon="-6.8554464541375637054443359375">
        <ele>81.40000152587890625</ele>
        <time>2019-07-11T08:20:43.000Z</time>
      </trkpt>
      <trkpt lat="43.547614999115467071533203125" lon="-6.85467272065579891204833984375">
        <ele>81.1999969482421875</ele>
        <time>2019-07-11T08:20:45.000Z</time>
      </trkpt>
      <trkpt lat="43.54749002493917942047119140625" lon="-6.85390996746718883514404296875">
        <ele>80.1999969482421875</ele>
        <time>2019-07-11T08:20:47.000Z</time>
      </trkpt>
      <trkpt lat="43.5474166832864284515380859375" lon="-6.85352892614901065826416015625">
        <ele>81.1999969482421875</ele>
        <time>2019-07-11T08:20:48.000Z</time>
      </trkpt>
      <trkpt lat="43.5472490452229976654052734375" lon="-6.852764748036861419677734375">
        <ele>77.1999969482421875</ele>
        <time>2019-07-11T08:20:50.000Z</time>
      </trkpt>
      <trkpt lat="43.54715273715555667877197265625" lon="-6.8523840419948101043701171875">
        <ele>73.1999969482421875</ele>
        <time>2019-07-11T08:20:51.000Z</time>
      </trkpt>
      <trkpt lat="43.5470482148230075836181640625" lon="-6.8520075269043445587158203125">
        <ele>70.1999969482421875</ele>
        <time>2019-07-11T08:20:52.000Z</time>
      </trkpt>
      <trkpt lat="43.54693765752017498016357421875" lon="-6.85163813643157482147216796875">
        <ele>68.59999847412109375</ele>
        <time>2019-07-11T08:20:53.000Z</time>
      </trkpt>
      <trkpt lat="43.5466928221285343170166015625" lon="-6.850917376577854156494140625">
        <ele>69</ele>
        <time>2019-07-11T08:20:55.000Z</time>
      </trkpt>
      <trkpt lat="43.5464249365031719207763671875" lon="-6.850220002233982086181640625">
        <ele>69.59999847412109375</ele>
        <time>2019-07-11T08:20:57.000Z</time>
      </trkpt>
      <trkpt lat="43.5462827794253826141357421875" lon="-6.84988439083099365234375">
        <ele>70.59999847412109375</ele>
        <time>2019-07-11T08:20:58.000Z</time>
      </trkpt>
      <trkpt lat="43.54598329402506351470947265625" lon="-6.84923705644905567169189453125">
        <ele>70.40000152587890625</ele>
        <time>2019-07-11T08:21:00.000Z</time>
      </trkpt>
      <trkpt lat="43.54582923464477062225341796875" lon="-6.84892055578529834747314453125">
        <ele>69.40000152587890625</ele>
        <time>2019-07-11T08:21:01.000Z</time>
      </trkpt>
      <trkpt lat="43.54567416943609714508056640625" lon="-6.84860564768314361572265625">
        <ele>68.1999969482421875</ele>
        <time>2019-07-11T08:21:02.000Z</time>
      </trkpt>
      <trkpt lat="43.545359931886196136474609375" lon="-6.84797038324177265167236328125">
        <ele>68.40000152587890625</ele>
        <time>2019-07-11T08:21:04.000Z</time>
      </trkpt>
      <trkpt lat="43.5450429283082485198974609375" lon="-6.847299747169017791748046875">
        <ele>68</ele>
        <time>2019-07-11T08:21:06.000Z</time>
      </trkpt>
      <trkpt lat="43.5448833368718624114990234375" lon="-6.8469492159783840179443359375">
        <ele>67</ele>
        <time>2019-07-11T08:21:07.000Z</time>
      </trkpt>
      <trkpt lat="43.5447227396070957183837890625" lon="-6.8465918116271495819091796875">
        <ele>64.1999969482421875</ele>
        <time>2019-07-11T08:21:08.000Z</time>
      </trkpt>
      <trkpt lat="43.5444067418575286865234375" lon="-6.84585344977676868438720703125">
        <ele>63.40000152587890625</ele>
        <time>2019-07-11T08:21:10.000Z</time>
      </trkpt>
      <trkpt lat="43.54410340078175067901611328125" lon="-6.84509488753974437713623046875">
        <ele>63.799999237060546875</ele>
        <time>2019-07-11T08:21:12.000Z</time>
      </trkpt>
      <trkpt lat="43.54395814239978790283203125" lon="-6.84471032582223415374755859375">
        <ele>60</ele>
        <time>2019-07-11T08:21:13.000Z</time>
      </trkpt>
      <trkpt lat="43.54368883185088634490966796875" lon="-6.8439223431050777435302734375">
        <ele>63.40000152587890625</ele>
        <time>2019-07-11T08:21:15.000Z</time>
      </trkpt>
      <trkpt lat="43.543564863502979278564453125" lon="-6.84351774863898754119873046875">
        <ele>65.40000152587890625</ele>
        <time>2019-07-11T08:21:16.000Z</time>
      </trkpt>
      <trkpt lat="43.54333343915641307830810546875" lon="-6.84270034544169902801513671875">
        <ele>65</ele>
        <time>2019-07-11T08:21:18.000Z</time>
      </trkpt>
      <trkpt lat="43.54312397539615631103515625" lon="-6.84187925420701503753662109375">
        <ele>64.1999969482421875</ele>
        <time>2019-07-11T08:21:20.000Z</time>
      </trkpt>
      <trkpt lat="43.543023727834224700927734375" lon="-6.84147231280803680419921875">
        <ele>62.200000762939453125</ele>
        <time>2019-07-11T08:21:21.000Z</time>
      </trkpt>
      <trkpt lat="43.54292809031903743743896484375" lon="-6.84107157401740550994873046875">
        <ele>60</ele>
        <time>2019-07-11T08:21:22.000Z</time>
      </trkpt>
      <trkpt lat="43.54283790104091167449951171875" lon="-6.84067779220640659332275390625">
        <ele>57.40000152587890625</ele>
        <time>2019-07-11T08:21:23.000Z</time>
      </trkpt>
      <trkpt lat="43.54275257326662540435791015625" lon="-6.84028367511928081512451171875">
        <ele>56</ele>
        <time>2019-07-11T08:21:24.000Z</time>
      </trkpt>
      <trkpt lat="43.54261712171137332916259765625" lon="-6.83949158526957035064697265625">
        <ele>55.40000152587890625</ele>
        <time>2019-07-11T08:21:26.000Z</time>
      </trkpt>
      <trkpt lat="43.542569093406200408935546875" lon="-6.8390963785350322723388671875">
        <ele>57</ele>
        <time>2019-07-11T08:21:27.000Z</time>
      </trkpt>
      <trkpt lat="43.5424862802028656005859375" lon="-6.8383093178272247314453125">
        <ele>58.59999847412109375</ele>
        <time>2019-07-11T08:21:29.000Z</time>
      </trkpt>
      <trkpt lat="43.54241997934877872467041015625" lon="-6.83752938173711299896240234375">
        <ele>59.59999847412109375</ele>
        <time>2019-07-11T08:21:31.000Z</time>
      </trkpt>
      <trkpt lat="43.54239215143024921417236328125" lon="-6.837138868868350982666015625">
        <ele>59.799999237060546875</ele>
        <time>2019-07-11T08:21:32.000Z</time>
      </trkpt>
      <trkpt lat="43.5423709452152252197265625" lon="-6.83674500323832035064697265625">
        <ele>62.59999847412109375</ele>
        <time>2019-07-11T08:21:33.000Z</time>
      </trkpt>
      <trkpt lat="43.5423566959798336029052734375" lon="-6.83635004796087741851806640625">
        <ele>65.59999847412109375</ele>
        <time>2019-07-11T08:21:34.000Z</time>
      </trkpt>
      <trkpt lat="43.5423456318676471710205078125" lon="-6.83595324866473674774169921875">
        <ele>67.1999969482421875</ele>
        <time>2019-07-11T08:21:35.000Z</time>
      </trkpt>
      <trkpt lat="43.542338423430919647216796875" lon="-6.83515705168247222900390625">
        <ele>69.40000152587890625</ele>
        <time>2019-07-11T08:21:37.000Z</time>
      </trkpt>
      <trkpt lat="43.54235124774277210235595703125" lon="-6.8343572504818439483642578125">
        <ele>69.40000152587890625</ele>
        <time>2019-07-11T08:21:39.000Z</time>
      </trkpt>
      <trkpt lat="43.5423855297267436981201171875" lon="-6.8335542641580104827880859375">
        <ele>67</ele>
        <time>2019-07-11T08:21:41.000Z</time>
      </trkpt>
      <trkpt lat="43.542440347373485565185546875" lon="-6.832748763263225555419921875">
        <ele>66</ele>
        <time>2019-07-11T08:21:43.000Z</time>
      </trkpt>
      <trkpt lat="43.54247513227164745330810546875" lon="-6.83234567753970623016357421875">
        <ele>66</ele>
        <time>2019-07-11T08:21:44.000Z</time>
      </trkpt>
      <trkpt lat="43.54255735874176025390625" lon="-6.8315367400646209716796875">
        <ele>67</ele>
        <time>2019-07-11T08:21:46.000Z</time>
      </trkpt>
      <trkpt lat="43.5426034592092037200927734375" lon="-6.83113130740821361541748046875">
        <ele>69.59999847412109375</ele>
        <time>2019-07-11T08:21:47.000Z</time>
      </trkpt>
      <trkpt lat="43.54264997877180576324462890625" lon="-6.83072461746633052825927734375">
        <ele>73</ele>
        <time>2019-07-11T08:21:48.000Z</time>
      </trkpt>
      <trkpt lat="43.54269658215343952178955078125" lon="-6.83031692169606685638427734375">
        <ele>74.59999847412109375</ele>
        <time>2019-07-11T08:21:49.000Z</time>
      </trkpt>
      <trkpt lat="43.54278677143156528472900390625" lon="-6.8294944055378437042236328125">
        <ele>75.59999847412109375</ele>
        <time>2019-07-11T08:21:51.000Z</time>
      </trkpt>
      <trkpt lat="43.54286975227296352386474609375" lon="-6.82866476476192474365234375">
        <ele>74.1999969482421875</ele>
        <time>2019-07-11T08:21:53.000Z</time>
      </trkpt>
      <trkpt lat="43.54294988326728343963623046875" lon="-6.82782682590186595916748046875">
        <ele>73</ele>
        <time>2019-07-11T08:21:55.000Z</time>
      </trkpt>
      <trkpt lat="43.5430279187858104705810546875" lon="-6.8269865401089191436767578125">
        <ele>75.1999969482421875</ele>
        <time>2019-07-11T08:21:57.000Z</time>
      </trkpt>
      <trkpt lat="43.54306303896009922027587890625" lon="-6.82656819932162761688232421875">
        <ele>76.1999969482421875</ele>
        <time>2019-07-11T08:21:58.000Z</time>
      </trkpt>
      <trkpt lat="43.54311735369265079498291015625" lon="-6.82574920356273651123046875">
        <ele>79.59999847412109375</ele>
        <time>2019-07-11T08:22:00.000Z</time>
      </trkpt>
      <trkpt lat="43.54314015246927738189697265625" lon="-6.8253530748188495635986328125">
        <ele>82</ele>
        <time>2019-07-11T08:22:01.000Z</time>
      </trkpt>
      <trkpt lat="43.5431590117514133453369140625" lon="-6.8249641545116901397705078125">
        <ele>84.8000030517578125</ele>
        <time>2019-07-11T08:22:02.000Z</time>
      </trkpt>
      <trkpt lat="43.54317485354840755462646484375" lon="-6.82457682676613330841064453125">
        <ele>87.40000152587890625</ele>
        <time>2019-07-11T08:22:03.000Z</time>
      </trkpt>
      <trkpt lat="43.543206788599491119384765625" lon="-6.8238030932843685150146484375">
        <ele>87.40000152587890625</ele>
        <time>2019-07-11T08:22:05.000Z</time>
      </trkpt>
      <trkpt lat="43.54322145693004131317138671875" lon="-6.82341299951076507568359375">
        <ele>85.1999969482421875</ele>
        <time>2019-07-11T08:22:06.000Z</time>
      </trkpt>
      <trkpt lat="43.543234281241893768310546875" lon="-6.82301997207105159759521484375">
        <ele>82.40000152587890625</ele>
        <time>2019-07-11T08:22:07.000Z</time>
      </trkpt>
      <trkpt lat="43.54324459098279476165771484375" lon="-6.82262568734586238861083984375">
        <ele>79.40000152587890625</ele>
        <time>2019-07-11T08:22:08.000Z</time>
      </trkpt>
      <trkpt lat="43.5432533919811248779296875" lon="-6.822228133678436279296875">
        <ele>78</ele>
        <time>2019-07-11T08:22:09.000Z</time>
      </trkpt>
      <trkpt lat="43.5432612709701061248779296875" lon="-6.82182705961167812347412109375">
        <ele>76.40000152587890625</ele>
        <time>2019-07-11T08:22:10.000Z</time>
      </trkpt>
      <trkpt lat="43.5432693175971508026123046875" lon="-6.8210270069539546966552734375">
        <ele>75.8000030517578125</ele>
        <time>2019-07-11T08:22:12.000Z</time>
      </trkpt>
      <trkpt lat="43.54326973669230937957763671875" lon="-6.8202367611229419708251953125">
        <ele>76</ele>
        <time>2019-07-11T08:22:14.000Z</time>
      </trkpt>
      <trkpt lat="43.54326479136943817138671875" lon="-6.81945933960378170013427734375">
        <ele>77</ele>
        <time>2019-07-11T08:22:16.000Z</time>
      </trkpt>
      <trkpt lat="43.54326135478913784027099609375" lon="-6.81866775266826152801513671875">
        <ele>77.40000152587890625</ele>
        <time>2019-07-11T08:22:18.000Z</time>
      </trkpt>
      <trkpt lat="43.54325045831501483917236328125" lon="-6.8178395368158817291259765625">
        <ele>78.59999847412109375</ele>
        <time>2019-07-11T08:22:20.000Z</time>
      </trkpt>
      <trkpt lat="43.54322464205324649810791015625" lon="-6.81699288077652454376220703125">
        <ele>77</ele>
        <time>2019-07-11T08:22:22.000Z</time>
      </trkpt>
      <trkpt lat="43.5432143323123455047607421875" lon="-6.81656925939023494720458984375">
        <ele>75.40000152587890625</ele>
        <time>2019-07-11T08:22:23.000Z</time>
      </trkpt>
      <trkpt lat="43.5432086326181888580322265625" lon="-6.8161450512707233428955078125">
        <ele>74.1999969482421875</ele>
        <time>2019-07-11T08:22:24.000Z</time>
      </trkpt>
      <trkpt lat="43.5432166792452335357666015625" lon="-6.81530090980231761932373046875">
        <ele>73.40000152587890625</ele>
        <time>2019-07-11T08:22:26.000Z</time>
      </trkpt>
      <trkpt lat="43.543230928480625152587890625" lon="-6.81488080881536006927490234375">
        <ele>72.8000030517578125</ele>
        <time>2019-07-11T08:22:27.000Z</time>
      </trkpt>
      <trkpt lat="43.543277196586132049560546875" lon="-6.81404144503176212310791015625">
        <ele>71.40000152587890625</ele>
        <time>2019-07-11T08:22:29.000Z</time>
      </trkpt>
      <trkpt lat="43.543345592916011810302734375" lon="-6.813211552798748016357421875">
        <ele>71</ele>
        <time>2019-07-11T08:22:31.000Z</time>
      </trkpt>
      <trkpt lat="43.54344910942018032073974609375" lon="-6.81240144185721874237060546875">
        <ele>70</ele>
        <time>2019-07-11T08:22:33.000Z</time>
      </trkpt>
      <trkpt lat="43.54357450269162654876708984375" lon="-6.81160968728363513946533203125">
        <ele>69.40000152587890625</ele>
        <time>2019-07-11T08:22:35.000Z</time>
      </trkpt>
      <trkpt lat="43.54371833615005016326904296875" lon="-6.8108332715928554534912109375">
        <ele>69.40000152587890625</ele>
        <time>2019-07-11T08:22:37.000Z</time>
      </trkpt>
      <trkpt lat="43.54379578493535518646240234375" lon="-6.81045013479888439178466796875">
        <ele>68.8000030517578125</ele>
        <time>2019-07-11T08:22:38.000Z</time>
      </trkpt>
      <trkpt lat="43.5439507663249969482421875" lon="-6.80968889035284519195556640625">
        <ele>68.59999847412109375</ele>
        <time>2019-07-11T08:22:40.000Z</time>
      </trkpt>
      <trkpt lat="43.54410222731530666351318359375" lon="-6.80892496369779109954833984375">
        <ele>68.40000152587890625</ele>
        <time>2019-07-11T08:22:42.000Z</time>
      </trkpt>
      <trkpt lat="43.54417414404451847076416015625" lon="-6.80854023434221744537353515625">
        <ele>70.59999847412109375</ele>
        <time>2019-07-11T08:22:43.000Z</time>
      </trkpt>
      <trkpt lat="43.5442432947456836700439453125" lon="-6.80815215222537517547607421875">
        <ele>72</ele>
        <time>2019-07-11T08:22:44.000Z</time>
      </trkpt>
      <trkpt lat="43.54430808685719966888427734375" lon="-6.807759962975978851318359375">
        <ele>73.59999847412109375</ele>
        <time>2019-07-11T08:22:45.000Z</time>
      </trkpt>
      <trkpt lat="43.54442191310226917266845703125" lon="-6.8069688789546489715576171875">
        <ele>72</ele>
        <time>2019-07-11T08:22:47.000Z</time>
      </trkpt>
      <trkpt lat="43.54446968995034694671630859375" lon="-6.80657099001109600067138671875">
        <ele>70.1999969482421875</ele>
        <time>2019-07-11T08:22:48.000Z</time>
      </trkpt>
      <trkpt lat="43.544513694941997528076171875" lon="-6.8061764538288116455078125">
        <ele>68</ele>
        <time>2019-07-11T08:22:49.000Z</time>
      </trkpt>
      <trkpt lat="43.54454931803047657012939453125" lon="-6.8057794868946075439453125">
        <ele>67</ele>
        <time>2019-07-11T08:22:50.000Z</time>
      </trkpt>
      <trkpt lat="43.544578738510608673095703125" lon="-6.805380843579769134521484375">
        <ele>64.8000030517578125</ele>
        <time>2019-07-11T08:22:51.000Z</time>
      </trkpt>
      <trkpt lat="43.54460312984883785247802734375" lon="-6.804981194436550140380859375">
        <ele>63.59999847412109375</ele>
        <time>2019-07-11T08:22:52.000Z</time>
      </trkpt>
      <trkpt lat="43.54461872018873691558837890625" lon="-6.8045790307223796844482421875">
        <ele>62.59999847412109375</ele>
        <time>2019-07-11T08:22:53.000Z</time>
      </trkpt>
      <trkpt lat="43.54462877847254276275634765625" lon="-6.8037733621895313262939453125">
        <ele>61.40000152587890625</ele>
        <time>2019-07-11T08:22:55.000Z</time>
      </trkpt>
      <trkpt lat="43.5446240007877349853515625" lon="-6.80337312631309032440185546875">
        <ele>59.200000762939453125</ele>
        <time>2019-07-11T08:22:56.000Z</time>
      </trkpt>
      <trkpt lat="43.54461218230426311492919921875" lon="-6.80297850631177425384521484375">
        <ele>57.799999237060546875</ele>
        <time>2019-07-11T08:22:57.000Z</time>
      </trkpt>
      <trkpt lat="43.54456976987421512603759765625" lon="-6.802216507494449615478515625">
        <ele>58</ele>
        <time>2019-07-11T08:22:59.000Z</time>
      </trkpt>
      <trkpt lat="43.54454093612730503082275390625" lon="-6.80184401571750640869140625">
        <ele>59</ele>
        <time>2019-07-11T08:23:00.000Z</time>
      </trkpt>
      <trkpt lat="43.54450657032430171966552734375" lon="-6.8014737032353878021240234375">
        <ele>60.799999237060546875</ele>
        <time>2019-07-11T08:23:01.000Z</time>
      </trkpt>
      <trkpt lat="43.544421494007110595703125" lon="-6.8007350899279117584228515625">
        <ele>64.1999969482421875</ele>
        <time>2019-07-11T08:23:03.000Z</time>
      </trkpt>
      <trkpt lat="43.54437053203582763671875" lon="-6.80036670528352260589599609375">
        <ele>65.1999969482421875</ele>
        <time>2019-07-11T08:23:04.000Z</time>
      </trkpt>
      <trkpt lat="43.54425226338207721710205078125" lon="-6.79962985217571258544921875">
        <ele>65.59999847412109375</ele>
        <time>2019-07-11T08:23:06.000Z</time>
      </trkpt>
      <trkpt lat="43.54418470524251461029052734375" lon="-6.79926213808357715606689453125">
        <ele>67</ele>
        <time>2019-07-11T08:23:07.000Z</time>
      </trkpt>
      <trkpt lat="43.5440360940992832183837890625" lon="-6.79853609763085842132568359375">
        <ele>69</ele>
        <time>2019-07-11T08:23:09.000Z</time>
      </trkpt>
      <trkpt lat="43.54386602528393268585205078125" lon="-6.79780787788331508636474609375">
        <ele>68.40000152587890625</ele>
        <time>2019-07-11T08:23:11.000Z</time>
      </trkpt>
      <trkpt lat="43.54376795701682567596435546875" lon="-6.797444522380828857421875">
        <ele>67.8000030517578125</ele>
        <time>2019-07-11T08:23:12.000Z</time>
      </trkpt>
      <trkpt lat="43.54356511496007442474365234375" lon="-6.79672233760356903076171875">
        <ele>68</ele>
        <time>2019-07-11T08:23:14.000Z</time>
      </trkpt>
      <trkpt lat="43.54335841722786426544189453125" lon="-6.79601180367171764373779296875">
        <ele>68.59999847412109375</ele>
        <time>2019-07-11T08:23:16.000Z</time>
      </trkpt>
      <trkpt lat="43.54325833730399608612060546875" lon="-6.79566177539527416229248046875">
        <ele>70</ele>
        <time>2019-07-11T08:23:17.000Z</time>
      </trkpt>
      <trkpt lat="43.54316144250333309173583984375" lon="-6.79531308822333812713623046875">
        <ele>71.59999847412109375</ele>
        <time>2019-07-11T08:23:18.000Z</time>
      </trkpt>
      <trkpt lat="43.5430641286075115203857421875" lon="-6.79496792145073413848876953125">
        <ele>73.1999969482421875</ele>
        <time>2019-07-11T08:23:19.000Z</time>
      </trkpt>
      <trkpt lat="43.5429682396352291107177734375" lon="-6.79462728090584278106689453125">
        <ele>74.40000152587890625</ele>
        <time>2019-07-11T08:23:20.000Z</time>
      </trkpt>
      <trkpt lat="43.54287184774875640869140625" lon="-6.79428999312222003936767578125">
        <ele>76</ele>
        <time>2019-07-11T08:23:21.000Z</time>
      </trkpt>
      <trkpt lat="43.54277654550969600677490234375" lon="-6.7939554713666439056396484375">
        <ele>78.1999969482421875</ele>
        <time>2019-07-11T08:23:22.000Z</time>
      </trkpt>
      <trkpt lat="43.5426825843751430511474609375" lon="-6.793619692325592041015625">
        <ele>82.1999969482421875</ele>
        <time>2019-07-11T08:23:23.000Z</time>
      </trkpt>
      <trkpt lat="43.54258946143090724945068359375" lon="-6.79328248836100101470947265625">
        <ele>87.40000152587890625</ele>
        <time>2019-07-11T08:23:24.000Z</time>
      </trkpt>
      <trkpt lat="43.54249306954443454742431640625" lon="-6.79294100962579250335693359375">
        <ele>91.40000152587890625</ele>
        <time>2019-07-11T08:23:25.000Z</time>
      </trkpt>
      <trkpt lat="43.54239441454410552978515625" lon="-6.792596764862537384033203125">
        <ele>94.1999969482421875</ele>
        <time>2019-07-11T08:23:26.000Z</time>
      </trkpt>
      <trkpt lat="43.54229383170604705810546875" lon="-6.79225050844252109527587890625">
        <ele>95.40000152587890625</ele>
        <time>2019-07-11T08:23:27.000Z</time>
      </trkpt>
      <trkpt lat="43.5420924983918666839599609375" lon="-6.7915518768131732940673828125">
        <ele>94.59999847412109375</ele>
        <time>2019-07-11T08:23:29.000Z</time>
      </trkpt>
      <trkpt lat="43.5419945977628231048583984375" lon="-6.7912011779844760894775390625">
        <ele>93.8000030517578125</ele>
        <time>2019-07-11T08:23:30.000Z</time>
      </trkpt>
      <trkpt lat="43.541899211704730987548828125" lon="-6.79085391573607921600341796875">
        <ele>92.1999969482421875</ele>
        <time>2019-07-11T08:23:31.000Z</time>
      </trkpt>
      <trkpt lat="43.54180608876049518585205078125" lon="-6.79051101207733154296875">
        <ele>91</ele>
        <time>2019-07-11T08:23:32.000Z</time>
      </trkpt>
      <trkpt lat="43.541615903377532958984375" lon="-6.7898268811404705047607421875">
        <ele>90.59999847412109375</ele>
        <time>2019-07-11T08:23:34.000Z</time>
      </trkpt>
      <trkpt lat="43.541422449052333831787109375" lon="-6.78913562558591365814208984375">
        <ele>93.59999847412109375</ele>
        <time>2019-07-11T08:23:36.000Z</time>
      </trkpt>
      <trkpt lat="43.54122363030910491943359375" lon="-6.78842936642467975616455078125">
        <ele>95.40000152587890625</ele>
        <time>2019-07-11T08:23:38.000Z</time>
      </trkpt>
      <trkpt lat="43.541024141013622283935546875" lon="-6.78771589882671833038330078125">
        <ele>97</ele>
        <time>2019-07-11T08:23:40.000Z</time>
      </trkpt>
      <trkpt lat="43.54092246852815151214599609375" lon="-6.78736008703708648681640625">
        <ele>98.40000152587890625</ele>
        <time>2019-07-11T08:23:41.000Z</time>
      </trkpt>
      <trkpt lat="43.5408197902143001556396484375" lon="-6.787006370723247528076171875">
        <ele>100</ele>
        <time>2019-07-11T08:23:42.000Z</time>
      </trkpt>
      <trkpt lat="43.540716357529163360595703125" lon="-6.78665474988520145416259765625">
        <ele>101.8000030517578125</ele>
        <time>2019-07-11T08:23:43.000Z</time>
      </trkpt>
      <trkpt lat="43.5406172834336757659912109375" lon="-6.786308325827121734619140625">
        <ele>103.8000030517578125</ele>
        <time>2019-07-11T08:23:44.000Z</time>
      </trkpt>
      <trkpt lat="43.5404258407652378082275390625" lon="-6.78562494926154613494873046875">
        <ele>106.1999969482421875</ele>
        <time>2019-07-11T08:23:46.000Z</time>
      </trkpt>
      <trkpt lat="43.54032802395522594451904296875" lon="-6.78528531454503536224365234375">
        <ele>107.40000152587890625</ele>
        <time>2019-07-11T08:23:47.000Z</time>
      </trkpt>
      <trkpt lat="43.540229536592960357666015625" lon="-6.78494584746658802032470703125">
        <ele>108.59999847412109375</ele>
        <time>2019-07-11T08:23:48.000Z</time>
      </trkpt>
      <trkpt lat="43.54003784246742725372314453125" lon="-6.7842686735093593597412109375">
        <ele>109.40000152587890625</ele>
        <time>2019-07-11T08:23:50.000Z</time>
      </trkpt>
      <trkpt lat="43.5399440489709377288818359375" lon="-6.7839347384870052337646484375">
        <ele>110.59999847412109375</ele>
        <time>2019-07-11T08:23:51.000Z</time>
      </trkpt>
      <trkpt lat="43.53985612280666828155517578125" lon="-6.78360457532107830047607421875">
        <ele>112</ele>
        <time>2019-07-11T08:23:52.000Z</time>
      </trkpt>
      <trkpt lat="43.5396873950958251953125" lon="-6.78294072858989238739013671875">
        <ele>113.8000030517578125</ele>
        <time>2019-07-11T08:23:54.000Z</time>
      </trkpt>
      <trkpt lat="43.5395293124020099639892578125" lon="-6.7822623811662197113037109375">
        <ele>115</ele>
        <time>2019-07-11T08:23:56.000Z</time>
      </trkpt>
      <trkpt lat="43.539455719292163848876953125" lon="-6.781914532184600830078125">
        <ele>116</ele>
        <time>2019-07-11T08:23:57.000Z</time>
      </trkpt>
      <trkpt lat="43.53938388638198375701904296875" lon="-6.78155922330915927886962890625">
        <ele>117</ele>
        <time>2019-07-11T08:23:58.000Z</time>
      </trkpt>
      <trkpt lat="43.53932051919400691986083984375" lon="-6.78119595162570476531982421875">
        <ele>118.1999969482421875</ele>
        <time>2019-07-11T08:23:59.000Z</time>
      </trkpt>
      <trkpt lat="43.53920619003474712371826171875" lon="-6.78045096807181835174560546875">
        <ele>118.1999969482421875</ele>
        <time>2019-07-11T08:24:01.000Z</time>
      </trkpt>
      <trkpt lat="43.53911197744309902191162109375" lon="-6.779684610664844512939453125">
        <ele>117.8000030517578125</ele>
        <time>2019-07-11T08:24:03.000Z</time>
      </trkpt>
      <trkpt lat="43.53904726915061473846435546875" lon="-6.77890769205987453460693359375">
        <ele>117.1999969482421875</ele>
        <time>2019-07-11T08:24:05.000Z</time>
      </trkpt>
      <trkpt lat="43.53900854475796222686767578125" lon="-6.77814066410064697265625">
        <ele>116.1999969482421875</ele>
        <time>2019-07-11T08:24:07.000Z</time>
      </trkpt>
      <trkpt lat="43.53899605572223663330078125" lon="-6.77737288177013397216796875">
        <ele>116</ele>
        <time>2019-07-11T08:24:09.000Z</time>
      </trkpt>
      <trkpt lat="43.5390160046517848968505859375" lon="-6.77659914828836917877197265625">
        <ele>114.1999969482421875</ele>
        <time>2019-07-11T08:24:11.000Z</time>
      </trkpt>
      <trkpt lat="43.5390612669289112091064453125" lon="-6.77581594325602054595947265625">
        <ele>113.59999847412109375</ele>
        <time>2019-07-11T08:24:13.000Z</time>
      </trkpt>
      <trkpt lat="43.53909336961805820465087890625" lon="-6.7754209041595458984375">
        <ele>112.40000152587890625</ele>
        <time>2019-07-11T08:24:14.000Z</time>
      </trkpt>
      <trkpt lat="43.539130501449108123779296875" lon="-6.775026284158229827880859375">
        <ele>111.1999969482421875</ele>
        <time>2019-07-11T08:24:15.000Z</time>
      </trkpt>
      <trkpt lat="43.53918121196329593658447265625" lon="-6.77463023923337459564208984375">
        <ele>109.59999847412109375</ele>
        <time>2019-07-11T08:24:16.000Z</time>
      </trkpt>
      <trkpt lat="43.53930492885410785675048828125" lon="-6.773839406669139862060546875">
        <ele>108.1999969482421875</ele>
        <time>2019-07-11T08:24:18.000Z</time>
      </trkpt>
      <trkpt lat="43.53944725356996059417724609375" lon="-6.7730645835399627685546875">
        <ele>106.1999969482421875</ele>
        <time>2019-07-11T08:24:20.000Z</time>
      </trkpt>
      <trkpt lat="43.53962075896561145782470703125" lon="-6.77231063134968280792236328125">
        <ele>105.40000152587890625</ele>
        <time>2019-07-11T08:24:22.000Z</time>
      </trkpt>
      <trkpt lat="43.53971379809081554412841796875" lon="-6.7719372175633907318115234375">
        <ele>105</ele>
        <time>2019-07-11T08:24:23.000Z</time>
      </trkpt>
      <trkpt lat="43.53990188799798488616943359375" lon="-6.77119215019047260284423828125">
        <ele>103.59999847412109375</ele>
        <time>2019-07-11T08:24:25.000Z</time>
      </trkpt>
      <trkpt lat="43.53999375365674495697021484375" lon="-6.770817227661609649658203125">
        <ele>101.8000030517578125</ele>
        <time>2019-07-11T08:24:26.000Z</time>
      </trkpt>
      <trkpt lat="43.54008226655423641204833984375" lon="-6.7704358510673046112060546875">
        <ele>99.1999969482421875</ele>
        <time>2019-07-11T08:24:27.000Z</time>
      </trkpt>
      <trkpt lat="43.5401656664907932281494140625" lon="-6.77004734985530376434326171875">
        <ele>96.59999847412109375</ele>
        <time>2019-07-11T08:24:28.000Z</time>
      </trkpt>
      <trkpt lat="43.5402412712574005126953125" lon="-6.7696523107588291168212890625">
        <ele>95.1999969482421875</ele>
        <time>2019-07-11T08:24:29.000Z</time>
      </trkpt>
      <trkpt lat="43.54030924849212169647216796875" lon="-6.76924821920692920684814453125">
        <ele>94</ele>
        <time>2019-07-11T08:24:30.000Z</time>
      </trkpt>
      <trkpt lat="43.5404209792613983154296875" lon="-6.76841706968843936920166015625">
        <ele>91.40000152587890625</ele>
        <time>2019-07-11T08:24:32.000Z</time>
      </trkpt>
      <trkpt lat="43.540487028658390045166015625" lon="-6.76757066510617733001708984375">
        <ele>88</ele>
        <time>2019-07-11T08:24:34.000Z</time>
      </trkpt>
      <trkpt lat="43.54050069116055965423583984375" lon="-6.7671538330614566802978515625">
        <ele>86</ele>
        <time>2019-07-11T08:24:35.000Z</time>
      </trkpt>
      <trkpt lat="43.540498428046703338623046875" lon="-6.76634606905281543731689453125">
        <ele>84.8000030517578125</ele>
        <time>2019-07-11T08:24:37.000Z</time>
      </trkpt>
      <trkpt lat="43.5404540039598941802978515625" lon="-6.7655626125633716583251953125">
        <ele>84.1999969482421875</ele>
        <time>2019-07-11T08:24:39.000Z</time>
      </trkpt>
      <trkpt lat="43.54041519574820995330810546875" lon="-6.76517411135137081146240234375">
        <ele>82.1999969482421875</ele>
        <time>2019-07-11T08:24:40.000Z</time>
      </trkpt>
      <trkpt lat="43.540326096117496490478515625" lon="-6.76439392380416393280029296875">
        <ele>82.8000030517578125</ele>
        <time>2019-07-11T08:24:42.000Z</time>
      </trkpt>
      <trkpt lat="43.54024806059896945953369140625" lon="-6.76360501907765865325927734375">
        <ele>82</ele>
        <time>2019-07-11T08:24:44.000Z</time>
      </trkpt>
      <trkpt lat="43.54021134786307811737060546875" lon="-6.76320922560989856719970703125">
        <ele>80.8000030517578125</ele>
        <time>2019-07-11T08:24:45.000Z</time>
      </trkpt>
      <trkpt lat="43.5401753894984722137451171875" lon="-6.76281577907502651214599609375">
        <ele>79</ele>
        <time>2019-07-11T08:24:46.000Z</time>
      </trkpt>
      <trkpt lat="43.54010271839797496795654296875" lon="-6.76204112358391284942626953125">
        <ele>78.8000030517578125</ele>
        <time>2019-07-11T08:24:48.000Z</time>
      </trkpt>
      <trkpt lat="43.54003264568746089935302734375" lon="-6.76127828657627105712890625">
        <ele>78.8000030517578125</ele>
        <time>2019-07-11T08:24:50.000Z</time>
      </trkpt>
      <trkpt lat="43.539961315691471099853515625" lon="-6.7605247534811496734619140625">
        <ele>78.59999847412109375</ele>
        <time>2019-07-11T08:24:52.000Z</time>
      </trkpt>
      <trkpt lat="43.53987305425107479095458984375" lon="-6.75978370942175388336181640625">
        <ele>80.59999847412109375</ele>
        <time>2019-07-11T08:24:54.000Z</time>
      </trkpt>
      <trkpt lat="43.5398166440427303314208984375" lon="-6.75942043773829936981201171875">
        <ele>82.40000152587890625</ele>
        <time>2019-07-11T08:24:55.000Z</time>
      </trkpt>
      <trkpt lat="43.5396741516888141632080078125" lon="-6.758706383407115936279296875">
        <ele>81.1999969482421875</ele>
        <time>2019-07-11T08:24:57.000Z</time>
      </trkpt>
      <trkpt lat="43.5394910909235477447509765625" lon="-6.75801630131900310516357421875">
        <ele>83.1999969482421875</ele>
        <time>2019-07-11T08:24:59.000Z</time>
      </trkpt>
      <trkpt lat="43.5392775200307369232177734375" lon="-6.75733870826661586761474609375">
        <ele>81.1999969482421875</ele>
        <time>2019-07-11T08:25:01.000Z</time>
      </trkpt>
      <trkpt lat="43.53916327469050884246826171875" lon="-6.75700661726295948028564453125">
        <ele>78.8000030517578125</ele>
        <time>2019-07-11T08:25:02.000Z</time>
      </trkpt>
      <trkpt lat="43.53892170824110507965087890625" lon="-6.75637386739253997802734375">
        <ele>78.8000030517578125</ele>
        <time>2019-07-11T08:25:04.000Z</time>
      </trkpt>
      <trkpt lat="43.53866857476532459259033203125" lon="-6.7557742260396480560302734375">
        <ele>78.1999969482421875</ele>
        <time>2019-07-11T08:25:06.000Z</time>
      </trkpt>
      <trkpt lat="43.53841644711792469024658203125" lon="-6.75518305040895938873291015625">
        <ele>78</ele>
        <time>2019-07-11T08:25:08.000Z</time>
      </trkpt>
      <trkpt lat="43.53817052207887172698974609375" lon="-6.75459313206374645233154296875">
        <ele>78</ele>
        <time>2019-07-11T08:25:10.000Z</time>
      </trkpt>
      <trkpt lat="43.5380467213690280914306640625" lon="-6.7543006874620914459228515625">
        <ele>77.8000030517578125</ele>
        <time>2019-07-11T08:25:11.000Z</time>
      </trkpt>
      <trkpt lat="43.53780104778707027435302734375" lon="-6.75370599143207073211669921875">
        <ele>77.59999847412109375</ele>
        <time>2019-07-11T08:25:13.000Z</time>
      </trkpt>
      <trkpt lat="43.53755612857639789581298828125" lon="-6.75309310667216777801513671875">
        <ele>77</ele>
        <time>2019-07-11T08:25:15.000Z</time>
      </trkpt>
      <trkpt lat="43.53743023239076137542724609375" lon="-6.75277769565582275390625">
        <ele>76.59999847412109375</ele>
        <time>2019-07-11T08:25:16.000Z</time>
      </trkpt>
      <trkpt lat="43.5371830500662326812744140625" lon="-6.752163469791412353515625">
        <ele>75.1999969482421875</ele>
        <time>2019-07-11T08:25:18.000Z</time>
      </trkpt>
      <trkpt lat="43.5350404679775238037109375" lon="-6.746752448379993438720703125">
        <ele>69.59999847412109375</ele>
        <time>2019-07-11T08:25:36.000Z</time>
      </trkpt>
      <trkpt lat="43.53490644134581089019775390625" lon="-6.74640803597867488861083984375">
        <ele>69.1999969482421875</ele>
        <time>2019-07-11T08:25:37.000Z</time>
      </trkpt>
      <trkpt lat="43.53465213440358638763427734375" lon="-6.74574083648622035980224609375">
        <ele>68</ele>
        <time>2019-07-11T08:25:39.000Z</time>
      </trkpt>
      <trkpt lat="43.53439749218523502349853515625" lon="-6.74507849849760532379150390625">
        <ele>65.59999847412109375</ele>
        <time>2019-07-11T08:25:41.000Z</time>
      </trkpt>
      <trkpt lat="43.53427134454250335693359375" lon="-6.74474808387458324432373046875">
        <ele>64.1999969482421875</ele>
        <time>2019-07-11T08:25:42.000Z</time>
      </trkpt>
      <trkpt lat="43.53414553217589855194091796875" lon="-6.7444145679473876953125">
        <ele>62.799999237060546875</ele>
        <time>2019-07-11T08:25:43.000Z</time>
      </trkpt>
      <trkpt lat="43.5338929854333400726318359375" lon="-6.74373454414308071136474609375">
        <ele>61.40000152587890625</ele>
        <time>2019-07-11T08:25:45.000Z</time>
      </trkpt>
      <trkpt lat="43.53365032933652400970458984375" lon="-6.74303934909403324127197265625">
        <ele>60.59999847412109375</ele>
        <time>2019-07-11T08:25:47.000Z</time>
      </trkpt>
      <trkpt lat="43.5335345752537250518798828125" lon="-6.74268395639955997467041015625">
        <ele>59.40000152587890625</ele>
        <time>2019-07-11T08:25:48.000Z</time>
      </trkpt>
      <trkpt lat="43.53342753835022449493408203125" lon="-6.74232386983931064605712890625">
        <ele>58.200000762939453125</ele>
        <time>2019-07-11T08:25:49.000Z</time>
      </trkpt>
      <trkpt lat="43.5333287157118320465087890625" lon="-6.7419598437845706939697265625">
        <ele>56.59999847412109375</ele>
        <time>2019-07-11T08:25:50.000Z</time>
      </trkpt>
      <trkpt lat="43.53323911316692829132080078125" lon="-6.74158844165503978729248046875">
        <ele>55</ele>
        <time>2019-07-11T08:25:51.000Z</time>
      </trkpt>
      <trkpt lat="43.53315898217260837554931640625" lon="-6.7412111721932888031005859375">
        <ele>52.799999237060546875</ele>
        <time>2019-07-11T08:25:52.000Z</time>
      </trkpt>
      <trkpt lat="43.53308136574923992156982421875" lon="-6.74082778394222259521484375">
        <ele>50.40000152587890625</ele>
        <time>2019-07-11T08:25:53.000Z</time>
      </trkpt>
      <trkpt lat="43.5330081917345523834228515625" lon="-6.740442551672458648681640625">
        <ele>48.200000762939453125</ele>
        <time>2019-07-11T08:25:54.000Z</time>
      </trkpt>
      <trkpt lat="43.53293769992887973785400390625" lon="-6.74005421809852123260498046875">
        <ele>46.799999237060546875</ele>
        <time>2019-07-11T08:25:55.000Z</time>
      </trkpt>
      <trkpt lat="43.53280945681035518646240234375" lon="-6.7392712645232677459716796875">
        <ele>45.59999847412109375</ele>
        <time>2019-07-11T08:25:57.000Z</time>
      </trkpt>
      <trkpt lat="43.5327118076384067535400390625" lon="-6.73847858794033527374267578125">
        <ele>43.59999847412109375</ele>
        <time>2019-07-11T08:25:59.000Z</time>
      </trkpt>
      <trkpt lat="43.5326816327869892120361328125" lon="-6.738076508045196533203125">
        <ele>42</ele>
        <time>2019-07-11T08:26:00.000Z</time>
      </trkpt>
      <trkpt lat="43.53265539743006229400634765625" lon="-6.73767442815005779266357421875">
        <ele>40.200000762939453125</ele>
        <time>2019-07-11T08:26:01.000Z</time>
      </trkpt>
      <trkpt lat="43.53263561613857746124267578125" lon="-6.73727259971201419830322265625">
        <ele>38.59999847412109375</ele>
        <time>2019-07-11T08:26:02.000Z</time>
      </trkpt>
      <trkpt lat="43.532615415751934051513671875" lon="-6.73687077127397060394287109375">
        <ele>37.59999847412109375</ele>
        <time>2019-07-11T08:26:03.000Z</time>
      </trkpt>
      <trkpt lat="43.532596640288829803466796875" lon="-6.736065857112407684326171875">
        <ele>35</ele>
        <time>2019-07-11T08:26:05.000Z</time>
      </trkpt>
      <trkpt lat="43.53254157118499279022216796875" lon="-6.73526111058890819549560546875">
        <ele>33.40000152587890625</ele>
        <time>2019-07-11T08:26:07.000Z</time>
      </trkpt>
      <trkpt lat="43.5324459336698055267333984375" lon="-6.7344841919839382171630859375">
        <ele>31.3999996185302734375</ele>
        <time>2019-07-11T08:26:09.000Z</time>
      </trkpt>
      <trkpt lat="43.532314002513885498046875" lon="-6.733730994164943695068359375">
        <ele>30</ele>
        <time>2019-07-11T08:26:11.000Z</time>
      </trkpt>
      <trkpt lat="43.53214745409786701202392578125" lon="-6.733000092208385467529296875">
        <ele>29.3999996185302734375</ele>
        <time>2019-07-11T08:26:13.000Z</time>
      </trkpt>
      <trkpt lat="43.53205357678234577178955078125" lon="-6.7326428554952144622802734375">
        <ele>28.3999996185302734375</ele>
        <time>2019-07-11T08:26:14.000Z</time>
      </trkpt>
      <trkpt lat="43.531951569020748138427734375" lon="-6.73228804953396320343017578125">
        <ele>27.3999996185302734375</ele>
        <time>2019-07-11T08:26:15.000Z</time>
      </trkpt>
      <trkpt lat="43.53172601200640201568603515625" lon="-6.73158749006688594818115234375">
        <ele>26.6000003814697265625</ele>
        <time>2019-07-11T08:26:17.000Z</time>
      </trkpt>
      <trkpt lat="43.5314659215509891510009765625" lon="-6.7308964021503925323486328125">
        <ele>28.200000762939453125</ele>
        <time>2019-07-11T08:26:19.000Z</time>
      </trkpt>
      <trkpt lat="43.53117163293063640594482421875" lon="-6.73021017573773860931396484375">
        <ele>27.3999996185302734375</ele>
        <time>2019-07-11T08:26:21.000Z</time>
      </trkpt>
      <trkpt lat="43.53086502291262149810791015625" lon="-6.729536354541778564453125">
        <ele>24.6000003814697265625</ele>
        <time>2019-07-11T08:26:23.000Z</time>
      </trkpt>
      <trkpt lat="43.53056679479777812957763671875" lon="-6.7288803867995738983154296875">
        <ele>23.3999996185302734375</ele>
        <time>2019-07-11T08:26:25.000Z</time>
      </trkpt>
      <trkpt lat="43.5304217040538787841796875" lon="-6.72855407930910587310791015625">
        <ele>25</ele>
        <time>2019-07-11T08:26:26.000Z</time>
      </trkpt>
      <trkpt lat="43.53027577511966228485107421875" lon="-6.72822684980928897857666015625">
        <ele>28.200000762939453125</ele>
        <time>2019-07-11T08:26:27.000Z</time>
      </trkpt>
      <trkpt lat="43.5301402397453784942626953125" lon="-6.72789861448109149932861328125">
        <ele>33.200000762939453125</ele>
        <time>2019-07-11T08:26:28.000Z</time>
      </trkpt>
      <trkpt lat="43.53001191280782222747802734375" lon="-6.72757004387676715850830078125">
        <ele>35.799999237060546875</ele>
        <time>2019-07-11T08:26:29.000Z</time>
      </trkpt>
      <trkpt lat="43.52989003993570804595947265625" lon="-6.72724306583404541015625">
        <ele>37</ele>
        <time>2019-07-11T08:26:30.000Z</time>
      </trkpt>
      <trkpt lat="43.529774956405162811279296875" lon="-6.72691692598164081573486328125">
        <ele>33.40000152587890625</ele>
        <time>2019-07-11T08:26:31.000Z</time>
      </trkpt>
      <trkpt lat="43.529661633074283599853515625" lon="-6.7265941388905048370361328125">
        <ele>27.200000762939453125</ele>
        <time>2019-07-11T08:26:32.000Z</time>
      </trkpt>
      <trkpt lat="43.52955308742821216583251953125" lon="-6.72627252526581287384033203125">
        <ele>22.799999237060546875</ele>
        <time>2019-07-11T08:26:33.000Z</time>
      </trkpt>
      <trkpt lat="43.52944630198180675506591796875" lon="-6.7259500734508037567138671875">
        <ele>18.6000003814697265625</ele>
        <time>2019-07-11T08:26:34.000Z</time>
      </trkpt>
      <trkpt lat="43.52934337221086025238037109375" lon="-6.725620664656162261962890625">
        <ele>16.200000762939453125</ele>
        <time>2019-07-11T08:26:35.000Z</time>
      </trkpt>
      <trkpt lat="43.5291528515517711639404296875" lon="-6.72494449652731418609619140625">
        <ele>15</ele>
        <time>2019-07-11T08:26:37.000Z</time>
      </trkpt>
      <trkpt lat="43.5289919190108776092529296875" lon="-6.72423438169062137603759765625">
        <ele>16.3999996185302734375</ele>
        <time>2019-07-11T08:26:39.000Z</time>
      </trkpt>
      <trkpt lat="43.5288467444479465484619140625" lon="-6.72350314445793628692626953125">
        <ele>15.80000019073486328125</ele>
        <time>2019-07-11T08:26:41.000Z</time>
      </trkpt>
      <trkpt lat="43.528714478015899658203125" lon="-6.7227558977901935577392578125">
        <ele>15.80000019073486328125</ele>
        <time>2019-07-11T08:26:43.000Z</time>
      </trkpt>
      <trkpt lat="43.5286553017795085906982421875" lon="-6.72237686812877655029296875">
        <ele>15.3999996185302734375</ele>
        <time>2019-07-11T08:26:44.000Z</time>
      </trkpt>
      <trkpt lat="43.52855555713176727294921875" lon="-6.72161386348307132720947265625">
        <ele>15.6000003814697265625</ele>
        <time>2019-07-11T08:26:46.000Z</time>
      </trkpt>
      <trkpt lat="43.52851859293878078460693359375" lon="-6.721231900155544281005859375">
        <ele>16.6000003814697265625</ele>
        <time>2019-07-11T08:26:47.000Z</time>
      </trkpt>
      <trkpt lat="43.5284672118723392486572265625" lon="-6.720470823347568511962890625">
        <ele>17.6000003814697265625</ele>
        <time>2019-07-11T08:26:49.000Z</time>
      </trkpt>
      <trkpt lat="43.52844600565731525421142578125" lon="-6.72009028494358062744140625">
        <ele>19.3999996185302734375</ele>
        <time>2019-07-11T08:26:50.000Z</time>
      </trkpt>
      <trkpt lat="43.52842488326132297515869140625" lon="-6.71971083618700504302978515625">
        <ele>20.799999237060546875</ele>
        <time>2019-07-11T08:26:51.000Z</time>
      </trkpt>
      <trkpt lat="43.5283951275050640106201171875" lon="-6.7189538665115833282470703125">
        <ele>23.200000762939453125</ele>
        <time>2019-07-11T08:26:53.000Z</time>
      </trkpt>
      <trkpt lat="43.528392948210239410400390625" lon="-6.7185753397643566131591796875">
        <ele>24.799999237060546875</ele>
        <time>2019-07-11T08:26:54.000Z</time>
      </trkpt>
      <trkpt lat="43.52839873172342777252197265625" lon="-6.71819639392197132110595703125">
        <ele>26.200000762939453125</ele>
        <time>2019-07-11T08:26:55.000Z</time>
      </trkpt>
      <trkpt lat="43.52842681109905242919921875" lon="-6.7174409329891204833984375">
        <ele>27.799999237060546875</ele>
        <time>2019-07-11T08:26:57.000Z</time>
      </trkpt>
      <trkpt lat="43.52845338173210620880126953125" lon="-6.71706466935575008392333984375">
        <ele>29.200000762939453125</ele>
        <time>2019-07-11T08:26:58.000Z</time>
      </trkpt>
      <trkpt lat="43.52852228097617626190185546875" lon="-6.716302335262298583984375">
        <ele>31.200000762939453125</ele>
        <time>2019-07-11T08:27:00.000Z</time>
      </trkpt>
      <trkpt lat="43.52859981358051300048828125" lon="-6.71552055515348911285400390625">
        <ele>31.3999996185302734375</ele>
        <time>2019-07-11T08:27:02.000Z</time>
      </trkpt>
      <trkpt lat="43.52864767424762248992919921875" lon="-6.7151266895234584808349609375">
        <ele>32.40000152587890625</ele>
        <time>2019-07-11T08:27:03.000Z</time>
      </trkpt>
      <trkpt lat="43.5287662781774997711181640625" lon="-6.71434474177658557891845703125">
        <ele>33.59999847412109375</ele>
        <time>2019-07-11T08:27:05.000Z</time>
      </trkpt>
      <trkpt lat="43.5288326628506183624267578125" lon="-6.71395749785006046295166015625">
        <ele>35.59999847412109375</ele>
        <time>2019-07-11T08:27:06.000Z</time>
      </trkpt>
      <trkpt lat="43.528985045850276947021484375" lon="-6.71318854205310344696044921875">
        <ele>36</ele>
        <time>2019-07-11T08:27:08.000Z</time>
      </trkpt>
      <trkpt lat="43.52906794287264347076416015625" lon="-6.71281076967716217041015625">
        <ele>36.59999847412109375</ele>
        <time>2019-07-11T08:27:09.000Z</time>
      </trkpt>
      <trkpt lat="43.529253937304019927978515625" lon="-6.7120602540671825408935546875">
        <ele>37</ele>
        <time>2019-07-11T08:27:11.000Z</time>
      </trkpt>
      <trkpt lat="43.52946356870234012603759765625" lon="-6.7113213054835796356201171875">
        <ele>37</ele>
        <time>2019-07-11T08:27:13.000Z</time>
      </trkpt>
      <trkpt lat="43.52957773022353649139404296875" lon="-6.7109535075724124908447265625">
        <ele>37.799999237060546875</ele>
        <time>2019-07-11T08:27:14.000Z</time>
      </trkpt>
      <trkpt lat="43.5297000221908092498779296875" lon="-6.71058478765189647674560546875">
        <ele>41.40000152587890625</ele>
        <time>2019-07-11T08:27:15.000Z</time>
      </trkpt>
      <trkpt lat="43.52982952259480953216552734375" lon="-6.7102150619029998779296875">
        <ele>43.200000762939453125</ele>
        <time>2019-07-11T08:27:16.000Z</time>
      </trkpt>
      <trkpt lat="43.52996413595974445343017578125" lon="-6.70984826982021331787109375">
        <ele>44.200000762939453125</ele>
        <time>2019-07-11T08:27:17.000Z</time>
      </trkpt>
      <trkpt lat="43.530105538666248321533203125" lon="-6.709484495222568511962890625">
        <ele>47.200000762939453125</ele>
        <time>2019-07-11T08:27:18.000Z</time>
      </trkpt>
      <trkpt lat="43.5302518866956233978271484375" lon="-6.70912273228168487548828125">
        <ele>49.200000762939453125</ele>
        <time>2019-07-11T08:27:19.000Z</time>
      </trkpt>
      <trkpt lat="43.53040502406656742095947265625" lon="-6.7087621428072452545166015625">
        <ele>46.59999847412109375</ele>
        <time>2019-07-11T08:27:20.000Z</time>
      </trkpt>
      <trkpt lat="43.53056310676038265228271484375" lon="-6.70840448699891567230224609375">
        <ele>43.40000152587890625</ele>
        <time>2019-07-11T08:27:21.000Z</time>
      </trkpt>
      <trkpt lat="43.530726134777069091796875" lon="-6.70805110596120357513427734375">
        <ele>41.200000762939453125</ele>
        <time>2019-07-11T08:27:22.000Z</time>
      </trkpt>
      <trkpt lat="43.5310645960271358489990234375" lon="-6.70735490508377552032470703125">
        <ele>42.200000762939453125</ele>
        <time>2019-07-11T08:27:24.000Z</time>
      </trkpt>
      <trkpt lat="43.531397022306919097900390625" lon="-6.7066659964621067047119140625">
        <ele>42.200000762939453125</ele>
        <time>2019-07-11T08:27:26.000Z</time>
      </trkpt>
      <trkpt lat="43.5315537638962268829345703125" lon="-6.70631588436663150787353515625">
        <ele>43.200000762939453125</ele>
        <time>2019-07-11T08:27:27.000Z</time>
      </trkpt>
      <trkpt lat="43.53184671141207218170166015625" lon="-6.705594621598720550537109375">
        <ele>45.200000762939453125</ele>
        <time>2019-07-11T08:27:29.000Z</time>
      </trkpt>
      <trkpt lat="43.53211241774260997772216796875" lon="-6.704861037433147430419921875">
        <ele>45.799999237060546875</ele>
        <time>2019-07-11T08:27:31.000Z</time>
      </trkpt>
      <trkpt lat="43.53223294951021671295166015625" lon="-6.704489551484584808349609375">
        <ele>46.59999847412109375</ele>
        <time>2019-07-11T08:27:32.000Z</time>
      </trkpt>
      <trkpt lat="43.53244476020336151123046875" lon="-6.703739874064922332763671875">
        <ele>49.40000152587890625</ele>
        <time>2019-07-11T08:27:34.000Z</time>
      </trkpt>
      <trkpt lat="43.5325357876718044281005859375" lon="-6.7033618502318859100341796875">
        <ele>50.59999847412109375</ele>
        <time>2019-07-11T08:27:35.000Z</time>
      </trkpt>
      <trkpt lat="43.5326908528804779052734375" lon="-6.702598594129085540771484375">
        <ele>53</ele>
        <time>2019-07-11T08:27:37.000Z</time>
      </trkpt>
      <trkpt lat="43.532756231725215911865234375" lon="-6.7022142000496387481689453125">
        <ele>55</ele>
        <time>2019-07-11T08:27:38.000Z</time>
      </trkpt>
      <trkpt lat="43.53281096555292606353759765625" lon="-6.70182670466601848602294921875">
        <ele>56</ele>
        <time>2019-07-11T08:27:39.000Z</time>
      </trkpt>
      <trkpt lat="43.532889001071453094482421875" lon="-6.70104551129043102264404296875">
        <ele>58.200000762939453125</ele>
        <time>2019-07-11T08:27:41.000Z</time>
      </trkpt>
      <trkpt lat="43.5329156555235385894775390625" lon="-6.70065340586006641387939453125">
        <ele>60</ele>
        <time>2019-07-11T08:27:42.000Z</time>
      </trkpt>
      <trkpt lat="43.53293024003505706787109375" lon="-6.7002587020397186279296875">
        <ele>62.200000762939453125</ele>
        <time>2019-07-11T08:27:43.000Z</time>
      </trkpt>
      <trkpt lat="43.53293485008180141448974609375" lon="-6.69986307621002197265625">
        <ele>64.1999969482421875</ele>
        <time>2019-07-11T08:27:44.000Z</time>
      </trkpt>
      <trkpt lat="43.5329282283782958984375" lon="-6.69946501962840557098388671875">
        <ele>65.1999969482421875</ele>
        <time>2019-07-11T08:27:45.000Z</time>
      </trkpt>
      <trkpt lat="43.53291020728647708892822265625" lon="-6.69906578958034515380859375">
        <ele>66.59999847412109375</ele>
        <time>2019-07-11T08:27:46.000Z</time>
      </trkpt>
      <trkpt lat="43.5328506119549274444580078125" lon="-6.698272526264190673828125">
        <ele>67.8000030517578125</ele>
        <time>2019-07-11T08:27:48.000Z</time>
      </trkpt>
      <trkpt lat="43.5327654518187046051025390625" lon="-6.69748823158442974090576171875">
        <ele>69.1999969482421875</ele>
        <time>2019-07-11T08:27:50.000Z</time>
      </trkpt>
      <trkpt lat="43.532716669142246246337890625" lon="-6.6971015743911266326904296875">
        <ele>70.59999847412109375</ele>
        <time>2019-07-11T08:27:51.000Z</time>
      </trkpt>
      <trkpt lat="43.53266830556094646453857421875" lon="-6.696713156998157501220703125">
        <ele>72.1999969482421875</ele>
        <time>2019-07-11T08:27:52.000Z</time>
      </trkpt>
      <trkpt lat="43.5326209478080272674560546875" lon="-6.69632465578615665435791015625">
        <ele>73.8000030517578125</ele>
        <time>2019-07-11T08:27:53.000Z</time>
      </trkpt>
      <trkpt lat="43.53257711045444011688232421875" lon="-6.69593657366931438446044921875">
        <ele>79.40000152587890625</ele>
        <time>2019-07-11T08:27:54.000Z</time>
      </trkpt>
      <trkpt lat="43.5325371287763118743896484375" lon="-6.69554865919053554534912109375">
        <ele>86.8000030517578125</ele>
        <time>2019-07-11T08:27:55.000Z</time>
      </trkpt>
      <trkpt lat="43.53249999694526195526123046875" lon="-6.6951589845120906829833984375">
        <ele>95</ele>
        <time>2019-07-11T08:27:56.000Z</time>
      </trkpt>
      <trkpt lat="43.53246890008449554443359375" lon="-6.69476511888206005096435546875">
        <ele>100.40000152587890625</ele>
        <time>2019-07-11T08:27:57.000Z</time>
      </trkpt>
      <trkpt lat="43.5324439220130443572998046875" lon="-6.69437066651880741119384765625">
        <ele>103</ele>
        <time>2019-07-11T08:27:58.000Z</time>
      </trkpt>
      <trkpt lat="43.53241265751421451568603515625" lon="-6.69358477927744388580322265625">
        <ele>99.8000030517578125</ele>
        <time>2019-07-11T08:28:00.000Z</time>
      </trkpt>
      <trkpt lat="43.53240846656262874603271484375" lon="-6.69319619424641132354736328125">
        <ele>95</ele>
        <time>2019-07-11T08:28:01.000Z</time>
      </trkpt>
      <trkpt lat="43.53241165168583393096923828125" lon="-6.69280911795794963836669921875">
        <ele>87.40000152587890625</ele>
        <time>2019-07-11T08:28:02.000Z</time>
      </trkpt>
      <trkpt lat="43.532419614493846893310546875" lon="-6.69242237694561481475830078125">
        <ele>83.8000030517578125</ele>
        <time>2019-07-11T08:28:03.000Z</time>
      </trkpt>
      <trkpt lat="43.53243227116763591766357421875" lon="-6.69203429482877254486083984375">
        <ele>81.8000030517578125</ele>
        <time>2019-07-11T08:28:04.000Z</time>
      </trkpt>
      <trkpt lat="43.53247686289250850677490234375" lon="-6.69125712476670742034912109375">
        <ele>81.59999847412109375</ele>
        <time>2019-07-11T08:28:06.000Z</time>
      </trkpt>
      <trkpt lat="43.53255045600235462188720703125" lon="-6.69047869741916656494140625">
        <ele>82.1999969482421875</ele>
        <time>2019-07-11T08:28:08.000Z</time>
      </trkpt>
      <trkpt lat="43.53259705938398838043212890625" lon="-6.690088100731372833251953125">
        <ele>84</ele>
        <time>2019-07-11T08:28:09.000Z</time>
      </trkpt>
      <trkpt lat="43.5327108018100261688232421875" lon="-6.689304225146770477294921875">
        <ele>83.40000152587890625</ele>
        <time>2019-07-11T08:28:11.000Z</time>
      </trkpt>
      <trkpt lat="43.53284851647913455963134765625" lon="-6.6885186731815338134765625">
        <ele>84.8000030517578125</ele>
        <time>2019-07-11T08:28:13.000Z</time>
      </trkpt>
      <trkpt lat="43.5329243727028369903564453125" lon="-6.68812531046569347381591796875">
        <ele>85.1999969482421875</ele>
        <time>2019-07-11T08:28:14.000Z</time>
      </trkpt>
      <trkpt lat="43.53308287449181079864501953125" lon="-6.6873376630246639251708984375">
        <ele>85.59999847412109375</ele>
        <time>2019-07-11T08:28:16.000Z</time>
      </trkpt>
      <trkpt lat="43.533163256943225860595703125" lon="-6.68694019317626953125">
        <ele>86.59999847412109375</ele>
        <time>2019-07-11T08:28:17.000Z</time>
      </trkpt>
      <trkpt lat="43.53331237100064754486083984375" lon="-6.686135865747928619384765625">
        <ele>88.1999969482421875</ele>
        <time>2019-07-11T08:28:19.000Z</time>
      </trkpt>
      <trkpt lat="43.5334349982440471649169921875" lon="-6.68531485833227634429931640625">
        <ele>89.59999847412109375</ele>
        <time>2019-07-11T08:28:21.000Z</time>
      </trkpt>
      <trkpt lat="43.53351806290447711944580078125" lon="-6.68447448872029781341552734375">
        <ele>89</ele>
        <time>2019-07-11T08:28:23.000Z</time>
      </trkpt>
      <trkpt lat="43.5335432924330234527587890625" lon="-6.68404852040112018585205078125">
        <ele>87.59999847412109375</ele>
        <time>2019-07-11T08:28:24.000Z</time>
      </trkpt>
      <trkpt lat="43.53355661965906620025634765625" lon="-6.6836204566061496734619140625">
        <ele>85.8000030517578125</ele>
        <time>2019-07-11T08:28:25.000Z</time>
      </trkpt>
      <trkpt lat="43.53355787694454193115234375" lon="-6.68319113552570343017578125">
        <ele>83.40000152587890625</ele>
        <time>2019-07-11T08:28:26.000Z</time>
      </trkpt>
      <trkpt lat="43.53354605846107006072998046875" lon="-6.682763658463954925537109375">
        <ele>80.59999847412109375</ele>
        <time>2019-07-11T08:28:27.000Z</time>
      </trkpt>
      <trkpt lat="43.53352359496057033538818359375" lon="-6.68234062381088733673095703125">
        <ele>77.8000030517578125</ele>
        <time>2019-07-11T08:28:28.000Z</time>
      </trkpt>
      <trkpt lat="43.53349727578461170196533203125" lon="-6.681919097900390625">
        <ele>76.59999847412109375</ele>
        <time>2019-07-11T08:28:29.000Z</time>
      </trkpt>
      <trkpt lat="43.53346726857125759124755859375" lon="-6.6815015114843845367431640625">
        <ele>74.59999847412109375</ele>
        <time>2019-07-11T08:28:30.000Z</time>
      </trkpt>
      <trkpt lat="43.53339954279363155364990234375" lon="-6.68067614547908306121826171875">
        <ele>72.59999847412109375</ele>
        <time>2019-07-11T08:28:32.000Z</time>
      </trkpt>
      <trkpt lat="43.53333466686308383941650390625" lon="-6.67988120578229427337646484375">
        <ele>70.8000030517578125</ele>
        <time>2019-07-11T08:28:34.000Z</time>
      </trkpt>
      <trkpt lat="43.53329326026141643524169921875" lon="-6.67909749783575534820556640625">
        <ele>70</ele>
        <time>2019-07-11T08:28:36.000Z</time>
      </trkpt>
      <trkpt lat="43.53328563272953033447265625" lon="-6.67870321311056613922119140625">
        <ele>69</ele>
        <time>2019-07-11T08:28:37.000Z</time>
      </trkpt>
      <trkpt lat="43.53328831493854522705078125" lon="-6.67791078798472881317138671875">
        <ele>67.8000030517578125</ele>
        <time>2019-07-11T08:28:39.000Z</time>
      </trkpt>
      <trkpt lat="43.53331740014255046844482421875" lon="-6.6771154291927814483642578125">
        <ele>70.1999969482421875</ele>
        <time>2019-07-11T08:28:41.000Z</time>
      </trkpt>
      <trkpt lat="43.533375151455402374267578125" lon="-6.67633750475943088531494140625">
        <ele>72.40000152587890625</ele>
        <time>2019-07-11T08:28:43.000Z</time>
      </trkpt>
      <trkpt lat="43.533409349620342254638671875" lon="-6.67595445178449153900146484375">
        <ele>73.59999847412109375</ele>
        <time>2019-07-11T08:28:44.000Z</time>
      </trkpt>
      <trkpt lat="43.533488474786281585693359375" lon="-6.67519656009972095489501953125">
        <ele>75.8000030517578125</ele>
        <time>2019-07-11T08:28:46.000Z</time>
      </trkpt>
      <trkpt lat="43.5335305519402027130126953125" lon="-6.67481987737119197845458984375">
        <ele>77</ele>
        <time>2019-07-11T08:28:47.000Z</time>
      </trkpt>
      <trkpt lat="43.5335741378366947174072265625" lon="-6.6744412668049335479736328125">
        <ele>78.8000030517578125</ele>
        <time>2019-07-11T08:28:48.000Z</time>
      </trkpt>
      <trkpt lat="43.53361881338059902191162109375" lon="-6.674062572419643402099609375">
        <ele>80</ele>
        <time>2019-07-11T08:28:49.000Z</time>
      </trkpt>
      <trkpt lat="43.53366441093385219573974609375" lon="-6.67368329130113124847412109375">
        <ele>81.1999969482421875</ele>
        <time>2019-07-11T08:28:50.000Z</time>
      </trkpt>
      <trkpt lat="43.53374705649912357330322265625" lon="-6.67292087338864803314208984375">
        <ele>83</ele>
        <time>2019-07-11T08:28:52.000Z</time>
      </trkpt>
      <trkpt lat="43.533782176673412322998046875" lon="-6.6725392453372478485107421875">
        <ele>87.59999847412109375</ele>
        <time>2019-07-11T08:28:53.000Z</time>
      </trkpt>
      <trkpt lat="43.53381578810513019561767578125" lon="-6.672155521810054779052734375">
        <ele>94.59999847412109375</ele>
        <time>2019-07-11T08:28:54.000Z</time>
      </trkpt>
      <trkpt lat="43.53384998627007007598876953125" lon="-6.67177070863544940948486328125">
        <ele>102.8000030517578125</ele>
        <time>2019-07-11T08:28:55.000Z</time>
      </trkpt>
      <trkpt lat="43.5338790714740753173828125" lon="-6.67138405144214630126953125">
        <ele>107.59999847412109375</ele>
        <time>2019-07-11T08:28:56.000Z</time>
      </trkpt>
      <trkpt lat="43.53390815667808055877685546875" lon="-6.67099244892597198486328125">
        <ele>110.59999847412109375</ele>
        <time>2019-07-11T08:28:57.000Z</time>
      </trkpt>
      <trkpt lat="43.53393330238759517669677734375" lon="-6.67059992440044879913330078125">
        <ele>112.8000030517578125</ele>
        <time>2019-07-11T08:28:58.000Z</time>
      </trkpt>
      <trkpt lat="43.5339509882032871246337890625" lon="-6.67020178399980068206787109375">
        <ele>113.8000030517578125</ele>
        <time>2019-07-11T08:28:59.000Z</time>
      </trkpt>
      <trkpt lat="43.53396733291447162628173828125" lon="-6.66939460672438144683837890625">
        <ele>111.8000030517578125</ele>
        <time>2019-07-11T08:29:01.000Z</time>
      </trkpt>
      <trkpt lat="43.53397353552281856536865234375" lon="-6.6689859889447689056396484375">
        <ele>108</ele>
        <time>2019-07-11T08:29:02.000Z</time>
      </trkpt>
      <trkpt lat="43.53396582417190074920654296875" lon="-6.66857250966131687164306640625">
        <ele>103.40000152587890625</ele>
        <time>2019-07-11T08:29:03.000Z</time>
      </trkpt>
      <trkpt lat="43.533955179154872894287109375" lon="-6.66815542615950107574462890625">
        <ele>98.1999969482421875</ele>
        <time>2019-07-11T08:29:04.000Z</time>
      </trkpt>
      <trkpt lat="43.53394235484302043914794921875" lon="-6.66773901320993900299072265625">
        <ele>94</ele>
        <time>2019-07-11T08:29:05.000Z</time>
      </trkpt>
      <trkpt lat="43.53388468734920024871826171875" lon="-6.6669230349361896514892578125">
        <ele>95.40000152587890625</ele>
        <time>2019-07-11T08:29:07.000Z</time>
      </trkpt>
      <trkpt lat="43.5338034667074680328369140625" lon="-6.66613136418163776397705078125">
        <ele>97</ele>
        <time>2019-07-11T08:29:09.000Z</time>
      </trkpt>
      <trkpt lat="43.53370078839361667633056640625" lon="-6.66535620577633380889892578125">
        <ele>97.1999969482421875</ele>
        <time>2019-07-11T08:29:11.000Z</time>
      </trkpt>
      <trkpt lat="43.53359333239495754241943359375" lon="-6.6645942069590091705322265625">
        <ele>97.8000030517578125</ele>
        <time>2019-07-11T08:29:13.000Z</time>
      </trkpt>
      <trkpt lat="43.5334836132824420928955078125" lon="-6.66384662501513957977294921875">
        <ele>97.8000030517578125</ele>
        <time>2019-07-11T08:29:15.000Z</time>
      </trkpt>
      <trkpt lat="43.53336517699062824249267578125" lon="-6.663107760250568389892578125">
        <ele>98.40000152587890625</ele>
        <time>2019-07-11T08:29:17.000Z</time>
      </trkpt>
      <trkpt lat="43.533246405422687530517578125" lon="-6.662370152771472930908203125">
        <ele>98.40000152587890625</ele>
        <time>2019-07-11T08:29:19.000Z</time>
      </trkpt>
      <trkpt lat="43.53314288891851902008056640625" lon="-6.6616293601691722869873046875">
        <ele>97.40000152587890625</ele>
        <time>2019-07-11T08:29:21.000Z</time>
      </trkpt>
      <trkpt lat="43.5331050865352153778076171875" lon="-6.66125510819256305694580078125">
        <ele>95.59999847412109375</ele>
        <time>2019-07-11T08:29:22.000Z</time>
      </trkpt>
      <trkpt lat="43.53306108154356479644775390625" lon="-6.66049587540328502655029296875">
        <ele>94.40000152587890625</ele>
        <time>2019-07-11T08:29:24.000Z</time>
      </trkpt>
      <trkpt lat="43.5330502688884735107421875" lon="-6.66011164896190166473388671875">
        <ele>93</ele>
        <time>2019-07-11T08:29:25.000Z</time>
      </trkpt>
      <trkpt lat="43.53305571712553501129150390625" lon="-6.65932794101536273956298828125">
        <ele>92.8000030517578125</ele>
        <time>2019-07-11T08:29:27.000Z</time>
      </trkpt>
      <trkpt lat="43.53307365439832210540771484375" lon="-6.65892963297665119171142578125">
        <ele>91.8000030517578125</ele>
        <time>2019-07-11T08:29:28.000Z</time>
      </trkpt>
      <trkpt lat="43.53314238600432872772216796875" lon="-6.65812815539538860321044921875">
        <ele>92.1999969482421875</ele>
        <time>2019-07-11T08:29:30.000Z</time>
      </trkpt>
      <trkpt lat="43.53326140902936458587646484375" lon="-6.65733153931796550750732421875">
        <ele>92.1999969482421875</ele>
        <time>2019-07-11T08:29:32.000Z</time>
      </trkpt>
      <trkpt lat="43.53333634324371814727783203125" lon="-6.65693633258342742919921875">
        <ele>92.1999969482421875</ele>
        <time>2019-07-11T08:29:33.000Z</time>
      </trkpt>
      <trkpt lat="43.53351806290447711944580078125" lon="-6.65615178644657135009765625">
        <ele>91.1999969482421875</ele>
        <time>2019-07-11T08:29:35.000Z</time>
      </trkpt>
      <trkpt lat="43.533744625747203826904296875" lon="-6.655380986630916595458984375">
        <ele>91</ele>
        <time>2019-07-11T08:29:37.000Z</time>
      </trkpt>
      <trkpt lat="43.5338752157986164093017578125" lon="-6.6550063155591487884521484375">
        <ele>90.40000152587890625</ele>
        <time>2019-07-11T08:29:38.000Z</time>
      </trkpt>
      <trkpt lat="43.5341591946780681610107421875" lon="-6.65427817963063716888427734375">
        <ele>89.8000030517578125</ele>
        <time>2019-07-11T08:29:40.000Z</time>
      </trkpt>
      <trkpt lat="43.53444996289908885955810546875" lon="-6.65356622077524662017822265625">
        <ele>92.8000030517578125</ele>
        <time>2019-07-11T08:29:42.000Z</time>
      </trkpt>
      <trkpt lat="43.53459530510008335113525390625" lon="-6.65321066044270992279052734375">
        <ele>94.59999847412109375</ele>
        <time>2019-07-11T08:29:43.000Z</time>
      </trkpt>
      <trkpt lat="43.53474014438688755035400390625" lon="-6.6528535075485706329345703125">
        <ele>97.8000030517578125</ele>
        <time>2019-07-11T08:29:44.000Z</time>
      </trkpt>
      <trkpt lat="43.53488280437886714935302734375" lon="-6.6524957679212093353271484375">
        <ele>100.8000030517578125</ele>
        <time>2019-07-11T08:29:45.000Z</time>
      </trkpt>
      <trkpt lat="43.5350242070853710174560546875" lon="-6.65213626809418201446533203125">
        <ele>102</ele>
        <time>2019-07-11T08:29:46.000Z</time>
      </trkpt>
      <trkpt lat="43.53516661562025547027587890625" lon="-6.6517762653529644012451171875">
        <ele>103.8000030517578125</ele>
        <time>2019-07-11T08:29:47.000Z</time>
      </trkpt>
      <trkpt lat="43.53544724173843860626220703125" lon="-6.65105366148054599761962890625">
        <ele>105.8000030517578125</ele>
        <time>2019-07-11T08:29:49.000Z</time>
      </trkpt>
      <trkpt lat="43.53571663610637187957763671875" lon="-6.650327034294605255126953125">
        <ele>104.8000030517578125</ele>
        <time>2019-07-11T08:29:51.000Z</time>
      </trkpt>
      <trkpt lat="43.5358469747006893157958984375" lon="-6.6499597392976284027099609375">
        <ele>103.1999969482421875</ele>
        <time>2019-07-11T08:29:52.000Z</time>
      </trkpt>
      <trkpt lat="43.53609616868197917938232421875" lon="-6.64921366609632968902587890625">
        <ele>101.40000152587890625</ele>
        <time>2019-07-11T08:29:54.000Z</time>
      </trkpt>
      <trkpt lat="43.53633371181786060333251953125" lon="-6.64846281521022319793701171875">
        <ele>100.8000030517578125</ele>
        <time>2019-07-11T08:29:56.000Z</time>
      </trkpt>
      <trkpt lat="43.5365591011941432952880859375" lon="-6.6477147303521633148193359375">
        <ele>101.8000030517578125</ele>
        <time>2019-07-11T08:29:58.000Z</time>
      </trkpt>
      <trkpt lat="43.53666513226926326751708984375" lon="-6.64733896963298320770263671875">
        <ele>103</ele>
        <time>2019-07-11T08:29:59.000Z</time>
      </trkpt>
      <trkpt lat="43.536767475306987762451171875" lon="-6.6469627059996128082275390625">
        <ele>104.59999847412109375</ele>
        <time>2019-07-11T08:30:00.000Z</time>
      </trkpt>
      <trkpt lat="43.53686663322150707244873046875" lon="-6.64658778347074985504150390625">
        <ele>106.59999847412109375</ele>
        <time>2019-07-11T08:30:01.000Z</time>
      </trkpt>
      <trkpt lat="43.5370549745857715606689453125" lon="-6.64584464393556118011474609375">
        <ele>108.1999969482421875</ele>
        <time>2019-07-11T08:30:03.000Z</time>
      </trkpt>
      <trkpt lat="43.537140972912311553955078125" lon="-6.645481288433074951171875">
        <ele>109.59999847412109375</ele>
        <time>2019-07-11T08:30:04.000Z</time>
      </trkpt>
      <trkpt lat="43.53722286410629749298095703125" lon="-6.64512078277766704559326171875">
        <ele>111.59999847412109375</ele>
        <time>2019-07-11T08:30:05.000Z</time>
      </trkpt>
      <trkpt lat="43.5373791866004467010498046875" lon="-6.64440178312361240386962890625">
        <ele>113.8000030517578125</ele>
        <time>2019-07-11T08:30:07.000Z</time>
      </trkpt>
      <trkpt lat="43.53752276860177516937255859375" lon="-6.643677167594432830810546875">
        <ele>115.8000030517578125</ele>
        <time>2019-07-11T08:30:09.000Z</time>
      </trkpt>
      <trkpt lat="43.537656627595424652099609375" lon="-6.6429454274475574493408203125">
        <ele>116.59999847412109375</ele>
        <time>2019-07-11T08:30:11.000Z</time>
      </trkpt>
      <trkpt lat="43.53778126649558544158935546875" lon="-6.64220220409333705902099609375">
        <ele>112.40000152587890625</ele>
        <time>2019-07-11T08:30:13.000Z</time>
      </trkpt>
      <trkpt lat="43.537838347256183624267578125" lon="-6.6418276168406009674072265625">
        <ele>109</ele>
        <time>2019-07-11T08:30:14.000Z</time>
      </trkpt>
      <trkpt lat="43.537893332540988922119140625" lon="-6.64145059883594512939453125">
        <ele>108</ele>
        <time>2019-07-11T08:30:15.000Z</time>
      </trkpt>
      <trkpt lat="43.5379960946738719940185546875" lon="-6.640690863132476806640625">
        <ele>107.8000030517578125</ele>
        <time>2019-07-11T08:30:17.000Z</time>
      </trkpt>
      <trkpt lat="43.53809257037937641143798828125" lon="-6.6399235837161540985107421875">
        <ele>107.1999969482421875</ele>
        <time>2019-07-11T08:30:19.000Z</time>
      </trkpt>
      <trkpt lat="43.53818192146718502044677734375" lon="-6.6391541250050067901611328125">
        <ele>108</ele>
        <time>2019-07-11T08:30:21.000Z</time>
      </trkpt>
      <trkpt lat="43.538265489041805267333984375" lon="-6.638389527797698974609375">
        <ele>108.40000152587890625</ele>
        <time>2019-07-11T08:30:23.000Z</time>
      </trkpt>
      <trkpt lat="43.5383441112935543060302734375" lon="-6.637633480131626129150390625">
        <ele>107</ele>
        <time>2019-07-11T08:30:25.000Z</time>
      </trkpt>
      <trkpt lat="43.53838224895298480987548828125" lon="-6.6372601501643657684326171875">
        <ele>106.8000030517578125</ele>
        <time>2019-07-11T08:30:26.000Z</time>
      </trkpt>
      <trkpt lat="43.5384239070117473602294921875" lon="-6.63688757456839084625244140625">
        <ele>105.40000152587890625</ele>
        <time>2019-07-11T08:30:27.000Z</time>
      </trkpt>
      <trkpt lat="43.5384681634604930877685546875" lon="-6.63651592098176479339599609375">
        <ele>103.59999847412109375</ele>
        <time>2019-07-11T08:30:28.000Z</time>
      </trkpt>
      <trkpt lat="43.538563884794712066650390625" lon="-6.63577772676944732666015625">
        <ele>102</ele>
        <time>2019-07-11T08:30:30.000Z</time>
      </trkpt>
      <trkpt lat="43.53867662139236927032470703125" lon="-6.63505093194544315338134765625">
        <ele>101</ele>
        <time>2019-07-11T08:30:32.000Z</time>
      </trkpt>
      <trkpt lat="43.53874283842742443084716796875" lon="-6.634690761566162109375">
        <ele>99.1999969482421875</ele>
        <time>2019-07-11T08:30:33.000Z</time>
      </trkpt>
      <trkpt lat="43.5388979874551296234130859375" lon="-6.63397519849240779876708984375">
        <ele>99.8000030517578125</ele>
        <time>2019-07-11T08:30:35.000Z</time>
      </trkpt>
      <trkpt lat="43.53908247314393520355224609375" lon="-6.63327212445437908172607421875">
        <ele>99.8000030517578125</ele>
        <time>2019-07-11T08:30:37.000Z</time>
      </trkpt>
      <trkpt lat="43.53918137960135936737060546875" lon="-6.63292628712952136993408203125">
        <ele>104</ele>
        <time>2019-07-11T08:30:38.000Z</time>
      </trkpt>
      <trkpt lat="43.5392842255532741546630859375" lon="-6.63258313201367855072021484375">
        <ele>108.8000030517578125</ele>
        <time>2019-07-11T08:30:39.000Z</time>
      </trkpt>
      <trkpt lat="43.5393915139138698577880859375" lon="-6.632242910563945770263671875">
        <ele>111.1999969482421875</ele>
        <time>2019-07-11T08:30:40.000Z</time>
      </trkpt>
      <trkpt lat="43.53950508870184421539306640625" lon="-6.6319064609706401824951171875">
        <ele>112.8000030517578125</ele>
        <time>2019-07-11T08:30:41.000Z</time>
      </trkpt>
      <trkpt lat="43.53975185193121433258056640625" lon="-6.63124320097267627716064453125">
        <ele>114</ele>
        <time>2019-07-11T08:30:43.000Z</time>
      </trkpt>
      <trkpt lat="43.53988260962069034576416015625" lon="-6.630916893482208251953125">
        <ele>116.40000152587890625</ele>
        <time>2019-07-11T08:30:44.000Z</time>
      </trkpt>
      <trkpt lat="43.54001395404338836669921875" lon="-6.6305905021727085113525390625">
        <ele>118.1999969482421875</ele>
        <time>2019-07-11T08:30:45.000Z</time>
      </trkpt>
      <trkpt lat="43.5401465557515621185302734375" lon="-6.63026888854801654815673828125">
        <ele>120.59999847412109375</ele>
        <time>2019-07-11T08:30:46.000Z</time>
      </trkpt>
      <trkpt lat="43.540277816355228424072265625" lon="-6.62994635291397571563720703125">
        <ele>123.40000152587890625</ele>
        <time>2019-07-11T08:30:47.000Z</time>
      </trkpt>
      <trkpt lat="43.5404074005782604217529296875" lon="-6.629619710147380828857421875">
        <ele>124.8000030517578125</ele>
        <time>2019-07-11T08:30:48.000Z</time>
      </trkpt>
      <trkpt lat="43.54053287766873836517333984375" lon="-6.6292899660766124725341796875">
        <ele>126.8000030517578125</ele>
        <time>2019-07-11T08:30:49.000Z</time>
      </trkpt>
      <trkpt lat="43.540653996169567108154296875" lon="-6.62895829416811466217041015625">
        <ele>129.8000030517578125</ele>
        <time>2019-07-11T08:30:50.000Z</time>
      </trkpt>
      <trkpt lat="43.54077167809009552001953125" lon="-6.62862301804125308990478515625">
        <ele>133</ele>
        <time>2019-07-11T08:30:51.000Z</time>
      </trkpt>
      <trkpt lat="43.5408848337829113006591796875" lon="-6.62828422151505947113037109375">
        <ele>135.600006103515625</ele>
        <time>2019-07-11T08:30:52.000Z</time>
      </trkpt>
      <trkpt lat="43.540992625057697296142578125" lon="-6.62794056348502635955810546875">
        <ele>138</ele>
        <time>2019-07-11T08:30:53.000Z</time>
      </trkpt>
      <trkpt lat="43.541095890104770660400390625" lon="-6.62759254686534404754638671875">
        <ele>139.600006103515625</ele>
        <time>2019-07-11T08:30:54.000Z</time>
      </trkpt>
      <trkpt lat="43.541190437972545623779296875" lon="-6.62724067457020282745361328125">
        <ele>140.600006103515625</ele>
        <time>2019-07-11T08:30:55.000Z</time>
      </trkpt>
      <trkpt lat="43.54128071106970310211181640625" lon="-6.62688612006604671478271484375">
        <ele>141.8000030517578125</ele>
        <time>2019-07-11T08:30:56.000Z</time>
      </trkpt>
      <trkpt lat="43.5413619317114353179931640625" lon="-6.62652888335287570953369140625">
        <ele>142.8000030517578125</ele>
        <time>2019-07-11T08:30:57.000Z</time>
      </trkpt>
      <trkpt lat="43.54143460281193256378173828125" lon="-6.62616795860230922698974609375">
        <ele>144.1999969482421875</ele>
        <time>2019-07-11T08:30:58.000Z</time>
      </trkpt>
      <trkpt lat="43.54150392115116119384765625" lon="-6.62580904550850391387939453125">
        <ele>145.600006103515625</ele>
        <time>2019-07-11T08:30:59.000Z</time>
      </trkpt>
      <trkpt lat="43.54157106019556522369384765625" lon="-6.62544577382504940032958984375">
        <ele>147.1999969482421875</ele>
        <time>2019-07-11T08:31:00.000Z</time>
      </trkpt>
      <trkpt lat="43.54163375683128833770751953125" lon="-6.6250809095799922943115234375">
        <ele>148.600006103515625</ele>
        <time>2019-07-11T08:31:01.000Z</time>
      </trkpt>
      <trkpt lat="43.541691340506076812744140625" lon="-6.624715961515903472900390625">
        <ele>149.600006103515625</ele>
        <time>2019-07-11T08:31:02.000Z</time>
      </trkpt>
      <trkpt lat="43.541791923344135284423828125" lon="-6.62397894077003002166748046875">
        <ele>151.1999969482421875</ele>
        <time>2019-07-11T08:31:04.000Z</time>
      </trkpt>
      <trkpt lat="43.5418286360800266265869140625" lon="-6.6236090473830699920654296875">
        <ele>152.399993896484375</ele>
        <time>2019-07-11T08:31:05.000Z</time>
      </trkpt>
      <trkpt lat="43.5418702103197574615478515625" lon="-6.6228640638291835784912109375">
        <ele>153</ele>
        <time>2019-07-11T08:31:07.000Z</time>
      </trkpt>
      <trkpt lat="43.5418795980513095855712890625" lon="-6.62249299697577953338623046875">
        <ele>150</ele>
        <time>2019-07-11T08:31:08.000Z</time>
      </trkpt>
      <trkpt lat="43.541883118450641632080078125" lon="-6.622124277055263519287109375">
        <ele>143.8000030517578125</ele>
        <time>2019-07-11T08:31:09.000Z</time>
      </trkpt>
      <trkpt lat="43.541881777346134185791015625" lon="-6.6217599995434284210205078125">
        <ele>137.399993896484375</ele>
        <time>2019-07-11T08:31:10.000Z</time>
      </trkpt>
      <trkpt lat="43.5418809391558170318603515625" lon="-6.62139932624995708465576171875">
        <ele>134</ele>
        <time>2019-07-11T08:31:11.000Z</time>
      </trkpt>
      <trkpt lat="43.54188152588903903961181640625" lon="-6.621039323508739471435546875">
        <ele>132.1999969482421875</ele>
        <time>2019-07-11T08:31:12.000Z</time>
      </trkpt>
      <trkpt lat="43.54187582619488239288330078125" lon="-6.620344631373882293701171875">
        <ele>133.600006103515625</ele>
        <time>2019-07-11T08:31:14.000Z</time>
      </trkpt>
      <trkpt lat="43.5418531112372875213623046875" lon="-6.62003810517489910125732421875">
        <ele>135</ele>
        <time>2019-07-11T08:31:15.000Z</time>
      </trkpt>
      <trkpt lat="43.54185386560857295989990234375" lon="-6.619721353054046630859375">
        <ele>137</ele>
        <time>2019-07-11T08:31:16.000Z</time>
      </trkpt>
      <trkpt lat="43.54170667938888072967529296875" lon="-6.61938498727977275848388671875">
        <ele>139</ele>
        <time>2019-07-11T08:31:17.000Z</time>
      </trkpt>
      <trkpt lat="43.54161791503429412841796875" lon="-6.61907485686242580413818359375">
        <ele>140.399993896484375</ele>
        <time>2019-07-11T08:31:18.000Z</time>
      </trkpt>
      <trkpt lat="43.54152739048004150390625" lon="-6.61877478472888469696044921875">
        <ele>141.399993896484375</ele>
        <time>2019-07-11T08:31:19.000Z</time>
      </trkpt>
      <trkpt lat="43.5413180105388164520263671875" lon="-6.61819173954427242279052734375">
        <ele>143.8000030517578125</ele>
        <time>2019-07-11T08:31:21.000Z</time>
      </trkpt>
      <trkpt lat="43.541209213435649871826171875" lon="-6.61790080368518829345703125">
        <ele>146.1999969482421875</ele>
        <time>2019-07-11T08:31:22.000Z</time>
      </trkpt>
      <trkpt lat="43.5411081276834011077880859375" lon="-6.617610454559326171875">
        <ele>151.399993896484375</ele>
        <time>2019-07-11T08:31:23.000Z</time>
      </trkpt>
      <trkpt lat="43.540984578430652618408203125" lon="-6.61731499247252941131591796875">
        <ele>154</ele>
        <time>2019-07-11T08:31:24.000Z</time>
      </trkpt>
      <trkpt lat="43.54086245410144329071044921875" lon="-6.6170165129005908966064453125">
        <ele>155.399993896484375</ele>
        <time>2019-07-11T08:31:25.000Z</time>
      </trkpt>
      <trkpt lat="43.540615774691104888916015625" lon="-6.6164046339690685272216796875">
        <ele>154.600006103515625</ele>
        <time>2019-07-11T08:31:27.000Z</time>
      </trkpt>
      <trkpt lat="43.54049147106707096099853515625" lon="-6.61608469672501087188720703125">
        <ele>151.8000030517578125</ele>
        <time>2019-07-11T08:31:28.000Z</time>
      </trkpt>
      <trkpt lat="43.54037110693752765655517578125" lon="-6.61575662903487682342529296875">
        <ele>149.399993896484375</ele>
        <time>2019-07-11T08:31:29.000Z</time>
      </trkpt>
      <trkpt lat="43.54025811888277530670166015625" lon="-6.61541632376611232757568359375">
        <ele>148.1999969482421875</ele>
        <time>2019-07-11T08:31:30.000Z</time>
      </trkpt>
      <trkpt lat="43.5400561988353729248046875" lon="-6.61469346843659877777099609375">
        <ele>152.1999969482421875</ele>
        <time>2019-07-11T08:31:32.000Z</time>
      </trkpt>
      <trkpt lat="43.53997061960399150848388671875" lon="-6.614316366612911224365234375">
        <ele>157.600006103515625</ele>
        <time>2019-07-11T08:31:33.000Z</time>
      </trkpt>
      <trkpt lat="43.5398934222757816314697265625" lon="-6.613927446305751800537109375">
        <ele>163.600006103515625</ele>
        <time>2019-07-11T08:31:34.000Z</time>
      </trkpt>
      <trkpt lat="43.53982829488813877105712890625" lon="-6.61353550851345062255859375">
        <ele>167.399993896484375</ele>
        <time>2019-07-11T08:31:35.000Z</time>
      </trkpt>
      <trkpt lat="43.539772890508174896240234375" lon="-6.61313761956989765167236328125">
        <ele>169.399993896484375</ele>
        <time>2019-07-11T08:31:36.000Z</time>
      </trkpt>
      <trkpt lat="43.539671637117862701416015625" lon="-6.61230462603271007537841796875">
        <ele>171.600006103515625</ele>
        <time>2019-07-11T08:31:38.000Z</time>
      </trkpt>
      <trkpt lat="43.5395380295813083648681640625" lon="-6.61147196777164936065673828125">
        <ele>171.8000030517578125</ele>
        <time>2019-07-11T08:31:40.000Z</time>
      </trkpt>
      <trkpt lat="43.53946066461503505706787109375" lon="-6.61107265390455722808837890625">
        <ele>164</ele>
        <time>2019-07-11T08:31:41.000Z</time>
      </trkpt>
      <trkpt lat="43.5393797792494297027587890625" lon="-6.61067971028387546539306640625">
        <ele>154.8000030517578125</ele>
        <time>2019-07-11T08:31:42.000Z</time>
      </trkpt>
      <trkpt lat="43.53929520584642887115478515625" lon="-6.61029674112796783447265625">
        <ele>145.1999969482421875</ele>
        <time>2019-07-11T08:31:43.000Z</time>
      </trkpt>
      <trkpt lat="43.53920132853090763092041015625" lon="-6.609922908246517181396484375">
        <ele>140.600006103515625</ele>
        <time>2019-07-11T08:31:44.000Z</time>
      </trkpt>
      <trkpt lat="43.53910175152122974395751953125" lon="-6.60955871455371379852294921875">
        <ele>138.1999969482421875</ele>
        <time>2019-07-11T08:31:45.000Z</time>
      </trkpt>
      <trkpt lat="43.53899094276130199432373046875" lon="-6.6092045791447162628173828125">
        <ele>143.399993896484375</ele>
        <time>2019-07-11T08:31:46.000Z</time>
      </trkpt>
      <trkpt lat="43.5388490371406078338623046875" lon="-6.6088532097637653350830078125">
        <ele>146</ele>
        <time>2019-07-11T08:31:47.000Z</time>
      </trkpt>
      <trkpt lat="43.53871718980371952056884765625" lon="-6.6085098870098590850830078125">
        <ele>148</ele>
        <time>2019-07-11T08:31:48.000Z</time>
      </trkpt>
      <trkpt lat="43.53857704438269138336181640625" lon="-6.6081756167113780975341796875">
        <ele>149.8000030517578125</ele>
        <time>2019-07-11T08:31:49.000Z</time>
      </trkpt>
      <trkpt lat="43.53827655315399169921875" lon="-6.60752325318753719329833984375">
        <ele>147</ele>
        <time>2019-07-11T08:31:51.000Z</time>
      </trkpt>
      <trkpt lat="43.53811989538371562957763671875" lon="-6.6072076745331287384033203125">
        <ele>144</ele>
        <time>2019-07-11T08:31:52.000Z</time>
      </trkpt>
      <trkpt lat="43.53796265088021755218505859375" lon="-6.606900058686733245849609375">
        <ele>140.8000030517578125</ele>
        <time>2019-07-11T08:31:53.000Z</time>
      </trkpt>
      <trkpt lat="43.537807501852512359619140625" lon="-6.60660627298057079315185546875">
        <ele>139.8000030517578125</ele>
        <time>2019-07-11T08:31:54.000Z</time>
      </trkpt>
      <trkpt lat="43.5375193320214748382568359375" lon="-6.606063880026340484619140625">
        <ele>139</ele>
        <time>2019-07-11T08:31:56.000Z</time>
      </trkpt>
      <trkpt lat="43.537381030619144439697265625" lon="-6.605802364647388458251953125">
        <ele>138.600006103515625</ele>
        <time>2019-07-11T08:31:57.000Z</time>
      </trkpt>
      <trkpt lat="43.53710484690964221954345703125" lon="-6.60526818595826625823974609375">
        <ele>139.1999969482421875</ele>
        <time>2019-07-11T08:31:59.000Z</time>
      </trkpt>
      <trkpt lat="43.53696537204086780548095703125" lon="-6.60500013269484043121337890625">
        <ele>141</ele>
        <time>2019-07-11T08:32:00.000Z</time>
      </trkpt>
      <trkpt lat="43.53683008812367916107177734375" lon="-6.60474029369652271270751953125">
        <ele>143.600006103515625</ele>
        <time>2019-07-11T08:32:01.000Z</time>
      </trkpt>
      <trkpt lat="43.53669882752001285552978515625" lon="-6.6044889204204082489013671875">
        <ele>146.600006103515625</ele>
        <time>2019-07-11T08:32:02.000Z</time>
      </trkpt>
      <trkpt lat="43.53657066822052001953125" lon="-6.6042445041239261627197265625">
        <ele>151.399993896484375</ele>
        <time>2019-07-11T08:32:03.000Z</time>
      </trkpt>
      <trkpt lat="43.53644032962620258331298828125" lon="-6.60400067456066608428955078125">
        <ele>156.399993896484375</ele>
        <time>2019-07-11T08:32:04.000Z</time>
      </trkpt>
      <trkpt lat="43.53630923666059970855712890625" lon="-6.6037586890161037445068359375">
        <ele>159</ele>
        <time>2019-07-11T08:32:05.000Z</time>
      </trkpt>
      <trkpt lat="43.5361772216856479644775390625" lon="-6.6035162843763828277587890625">
        <ele>160.399993896484375</ele>
        <time>2019-07-11T08:32:06.000Z</time>
      </trkpt>
      <trkpt lat="43.53577581234276294708251953125" lon="-6.60277775488793849945068359375">
        <ele>160.8000030517578125</ele>
        <time>2019-07-11T08:32:09.000Z</time>
      </trkpt>
      <trkpt lat="43.535504154860973358154296875" lon="-6.60226545296609401702880859375">
        <ele>157.399993896484375</ele>
        <time>2019-07-11T08:32:11.000Z</time>
      </trkpt>
      <trkpt lat="43.53536258451640605926513671875" lon="-6.60199186764657497406005859375">
        <ele>152.600006103515625</ele>
        <time>2019-07-11T08:32:12.000Z</time>
      </trkpt>
      <trkpt lat="43.53522847406566143035888671875" lon="-6.6004555486142635345458984375">
        <ele>139.1999969482421875</ele>
        <time>2019-07-11T08:32:17.000Z</time>
      </trkpt>
      <trkpt lat="43.53514096699655055999755859375" lon="-6.59971802495419979095458984375">
        <ele>139.1999969482421875</ele>
        <time>2019-07-11T08:32:19.000Z</time>
      </trkpt>
      <trkpt lat="43.5350726544857025146484375" lon="-6.5990326367318630218505859375">
        <ele>139.1999969482421875</ele>
        <time>2019-07-11T08:32:21.000Z</time>
      </trkpt>
      <trkpt lat="43.5350523702800273895263671875" lon="-6.59867598675191402435302734375">
        <ele>138.1999969482421875</ele>
        <time>2019-07-11T08:32:22.000Z</time>
      </trkpt>
      <trkpt lat="43.53504222817718982696533203125" lon="-6.598311960697174072265625">
        <ele>137.1999969482421875</ele>
        <time>2019-07-11T08:32:23.000Z</time>
      </trkpt>
      <trkpt lat="43.5350423119962215423583984375" lon="-6.597944162786006927490234375">
        <ele>135.399993896484375</ele>
        <time>2019-07-11T08:32:24.000Z</time>
      </trkpt>
      <trkpt lat="43.535051532089710235595703125" lon="-6.5975668095052242279052734375">
        <ele>134</ele>
        <time>2019-07-11T08:32:25.000Z</time>
      </trkpt>
      <trkpt lat="43.53510819375514984130859375" lon="-6.5967909805476665496826171875">
        <ele>132</ele>
        <time>2019-07-11T08:32:27.000Z</time>
      </trkpt>
      <trkpt lat="43.5351598262786865234375" lon="-6.59600182436406612396240234375">
        <ele>131.399993896484375</ele>
        <time>2019-07-11T08:32:29.000Z</time>
      </trkpt>
      <trkpt lat="43.5352014005184173583984375" lon="-6.5951893664896488189697265625">
        <ele>131.399993896484375</ele>
        <time>2019-07-11T08:32:31.000Z</time>
      </trkpt>
      <trkpt lat="43.53525378741323947906494140625" lon="-6.59436282701790332794189453125">
        <ele>131.1999969482421875</ele>
        <time>2019-07-11T08:32:33.000Z</time>
      </trkpt>
      <trkpt lat="43.53527717292308807373046875" lon="-6.5935381315648555755615234375">
        <ele>132.1999969482421875</ele>
        <time>2019-07-11T08:32:35.000Z</time>
      </trkpt>
      <trkpt lat="43.53529904969036579132080078125" lon="-6.5927314572036266326904296875">
        <ele>133.1999969482421875</ele>
        <time>2019-07-11T08:32:37.000Z</time>
      </trkpt>
      <trkpt lat="43.53527641855180263519287109375" lon="-6.5919428877532482147216796875">
        <ele>138.399993896484375</ele>
        <time>2019-07-11T08:32:39.000Z</time>
      </trkpt>
      <trkpt lat="43.5352456569671630859375" lon="-6.59155656583607196807861328125">
        <ele>146.600006103515625</ele>
        <time>2019-07-11T08:32:40.000Z</time>
      </trkpt>
      <trkpt lat="43.53520114906132221221923828125" lon="-6.59117485396564006805419921875">
        <ele>155.399993896484375</ele>
        <time>2019-07-11T08:32:41.000Z</time>
      </trkpt>
      <trkpt lat="43.5351479239761829376220703125" lon="-6.59079951234161853790283203125">
        <ele>160.8000030517578125</ele>
        <time>2019-07-11T08:32:42.000Z</time>
      </trkpt>
      <trkpt lat="43.53508430533111095428466796875" lon="-6.59042894840240478515625">
        <ele>163.399993896484375</ele>
        <time>2019-07-11T08:32:43.000Z</time>
      </trkpt>
      <trkpt lat="43.53492672555148601531982421875" lon="-6.5897047519683837890625">
        <ele>159.399993896484375</ele>
        <time>2019-07-11T08:32:45.000Z</time>
      </trkpt>
      <trkpt lat="43.5348324291408061981201171875" lon="-6.58934877254068851470947265625">
        <ele>153</ele>
        <time>2019-07-11T08:32:46.000Z</time>
      </trkpt>
      <trkpt lat="43.534727990627288818359375" lon="-6.58899463713169097900390625">
        <ele>145</ele>
        <time>2019-07-11T08:32:47.000Z</time>
      </trkpt>
      <trkpt lat="43.53461709804832935333251953125" lon="-6.58864083699882030487060546875">
        <ele>140.600006103515625</ele>
        <time>2019-07-11T08:32:48.000Z</time>
      </trkpt>
      <trkpt lat="43.53450092487037181854248046875" lon="-6.588290221989154815673828125">
        <ele>138.1999969482421875</ele>
        <time>2019-07-11T08:32:49.000Z</time>
      </trkpt>
      <trkpt lat="43.53437385521829128265380859375" lon="-6.5879438817501068115234375">
        <ele>137</ele>
        <time>2019-07-11T08:32:50.000Z</time>
      </trkpt>
      <trkpt lat="43.5340824164450168609619140625" lon="-6.5872617624700069427490234375">
        <ele>136.1999969482421875</ele>
        <time>2019-07-11T08:32:52.000Z</time>
      </trkpt>
      <trkpt lat="43.53368771262466907501220703125" lon="-6.58661241643130779266357421875">
        <ele>135.600006103515625</ele>
        <time>2019-07-11T08:32:54.000Z</time>
      </trkpt>
      <trkpt lat="43.53326107375323772430419921875" lon="-6.58598947338759899139404296875">
        <ele>134.399993896484375</ele>
        <time>2019-07-11T08:32:56.000Z</time>
      </trkpt>
      <trkpt lat="43.53282672353088855743408203125" lon="-6.58537474460899829864501953125">
        <ele>133</ele>
        <time>2019-07-11T08:32:58.000Z</time>
      </trkpt>
      <trkpt lat="43.53239388205111026763916015625" lon="-6.58474593423306941986083984375">
        <ele>130.8000030517578125</ele>
        <time>2019-07-11T08:33:00.000Z</time>
      </trkpt>
      <trkpt lat="43.53197847492992877960205078125" lon="-6.58410362899303436279296875">
        <ele>130.1999969482421875</ele>
        <time>2019-07-11T08:33:02.000Z</time>
      </trkpt>
      <trkpt lat="43.53159391321241855621337890625" lon="-6.58344070427119731903076171875">
        <ele>130</ele>
        <time>2019-07-11T08:33:04.000Z</time>
      </trkpt>
      <trkpt lat="43.531235754489898681640625" lon="-6.58276378177106380462646484375">
        <ele>130.1999969482421875</ele>
        <time>2019-07-11T08:33:06.000Z</time>
      </trkpt>
      <trkpt lat="43.5308999754488468170166015625" lon="-6.58207319676876068115234375">
        <ele>130.399993896484375</ele>
        <time>2019-07-11T08:33:08.000Z</time>
      </trkpt>
      <trkpt lat="43.53059562854468822479248046875" lon="-6.5813837014138698577880859375">
        <ele>130.600006103515625</ele>
        <time>2019-07-11T08:33:10.000Z</time>
      </trkpt>
      <trkpt lat="43.53032103739678859710693359375" lon="-6.5806980617344379425048828125">
        <ele>130.8000030517578125</ele>
        <time>2019-07-11T08:33:12.000Z</time>
      </trkpt>
      <trkpt lat="43.53006840683519840240478515625" lon="-6.5800099074840545654296875">
        <ele>131.1999969482421875</ele>
        <time>2019-07-11T08:33:14.000Z</time>
      </trkpt>
      <trkpt lat="43.5298378206789493560791015625" lon="-6.57931261695921421051025390625">
        <ele>132.1999969482421875</ele>
        <time>2019-07-11T08:33:16.000Z</time>
      </trkpt>
      <trkpt lat="43.5296212323009967803955078125" lon="-6.578593365848064422607421875">
        <ele>132</ele>
        <time>2019-07-11T08:33:18.000Z</time>
      </trkpt>
      <trkpt lat="43.529422245919704437255859375" lon="-6.577847041189670562744140625">
        <ele>130.8000030517578125</ele>
        <time>2019-07-11T08:33:20.000Z</time>
      </trkpt>
      <trkpt lat="43.5293302126228809356689453125" lon="-6.5774623118340969085693359375">
        <ele>129</ele>
        <time>2019-07-11T08:33:21.000Z</time>
      </trkpt>
      <trkpt lat="43.529243208467960357666015625" lon="-6.5770702064037322998046875">
        <ele>127.1999969482421875</ele>
        <time>2019-07-11T08:33:22.000Z</time>
      </trkpt>
      <trkpt lat="43.529163412749767303466796875" lon="-6.57666913233697414398193359375">
        <ele>125.40000152587890625</ele>
        <time>2019-07-11T08:33:23.000Z</time>
      </trkpt>
      <trkpt lat="43.5290214233100414276123046875" lon="-6.575845442712306976318359375">
        <ele>123.8000030517578125</ele>
        <time>2019-07-11T08:33:25.000Z</time>
      </trkpt>
      <trkpt lat="43.52889980189502239227294921875" lon="-6.57501907087862491607666015625">
        <ele>123.40000152587890625</ele>
        <time>2019-07-11T08:33:27.000Z</time>
      </trkpt>
      <trkpt lat="43.52880156598985195159912109375" lon="-6.57417886890470981597900390625">
        <ele>123.1999969482421875</ele>
        <time>2019-07-11T08:33:29.000Z</time>
      </trkpt>
      <trkpt lat="43.52875999175012111663818359375" lon="-6.573761366307735443115234375">
        <ele>122.8000030517578125</ele>
        <time>2019-07-11T08:33:30.000Z</time>
      </trkpt>
      <trkpt lat="43.528725206851959228515625" lon="-6.5733488090336322784423828125">
        <ele>121.59999847412109375</ele>
        <time>2019-07-11T08:33:31.000Z</time>
      </trkpt>
      <trkpt lat="43.528697378933429718017578125" lon="-6.5729411132633686065673828125">
        <ele>120</ele>
        <time>2019-07-11T08:33:32.000Z</time>
      </trkpt>
      <trkpt lat="43.52867499925196170806884765625" lon="-6.5725364349782466888427734375">
        <ele>118.40000152587890625</ele>
        <time>2019-07-11T08:33:33.000Z</time>
      </trkpt>
      <trkpt lat="43.52864717133343219757080078125" lon="-6.57173152081668376922607421875">
        <ele>117</ele>
        <time>2019-07-11T08:33:35.000Z</time>
      </trkpt>
      <trkpt lat="43.52864901535212993621826171875" lon="-6.57092752866446971893310546875">
        <ele>115</ele>
        <time>2019-07-11T08:33:37.000Z</time>
      </trkpt>
      <trkpt lat="43.528675250709056854248046875" lon="-6.57011951319873332977294921875">
        <ele>112.59999847412109375</ele>
        <time>2019-07-11T08:33:39.000Z</time>
      </trkpt>
      <trkpt lat="43.52869980968534946441650390625" lon="-6.569713912904262542724609375">
        <ele>110.8000030517578125</ele>
        <time>2019-07-11T08:33:40.000Z</time>
      </trkpt>
      <trkpt lat="43.52873115800321102142333984375" lon="-6.569308899343013763427734375">
        <ele>109.40000152587890625</ele>
        <time>2019-07-11T08:33:41.000Z</time>
      </trkpt>
      <trkpt lat="43.52880760096013545989990234375" lon="-6.56849493272602558135986328125">
        <ele>107.59999847412109375</ele>
        <time>2019-07-11T08:33:43.000Z</time>
      </trkpt>
      <trkpt lat="43.52890617214143276214599609375" lon="-6.56767836771905422210693359375">
        <ele>104.59999847412109375</ele>
        <time>2019-07-11T08:33:45.000Z</time>
      </trkpt>
      <trkpt lat="43.528963588178157806396484375" lon="-6.5672679059207439422607421875">
        <ele>103.1999969482421875</ele>
        <time>2019-07-11T08:33:46.000Z</time>
      </trkpt>
      <trkpt lat="43.52902569808065891265869140625" lon="-6.566857360303401947021484375">
        <ele>101.1999969482421875</ele>
        <time>2019-07-11T08:33:47.000Z</time>
      </trkpt>
      <trkpt lat="43.5290854610502719879150390625" lon="-6.56645058654248714447021484375">
        <ele>99</ele>
        <time>2019-07-11T08:33:48.000Z</time>
      </trkpt>
      <trkpt lat="43.5291468165814876556396484375" lon="-6.56604339368641376495361328125">
        <ele>97</ele>
        <time>2019-07-11T08:33:49.000Z</time>
      </trkpt>
      <trkpt lat="43.52925854735076427459716796875" lon="-6.56522900797426700592041015625">
        <ele>95</ele>
        <time>2019-07-11T08:33:51.000Z</time>
      </trkpt>
      <trkpt lat="43.529340438544750213623046875" lon="-6.56440741382539272308349609375">
        <ele>93.1999969482421875</ele>
        <time>2019-07-11T08:33:53.000Z</time>
      </trkpt>
      <trkpt lat="43.52936424314975738525390625" lon="-6.56399569474160671234130859375">
        <ele>91.59999847412109375</ele>
        <time>2019-07-11T08:33:54.000Z</time>
      </trkpt>
      <trkpt lat="43.5293691046535968780517578125" lon="-6.56317711807787418365478515625">
        <ele>89.8000030517578125</ele>
        <time>2019-07-11T08:33:56.000Z</time>
      </trkpt>
      <trkpt lat="43.52935343049466609954833984375" lon="-6.56276724301278591156005859375">
        <ele>87.59999847412109375</ele>
        <time>2019-07-11T08:33:57.000Z</time>
      </trkpt>
      <trkpt lat="43.52932543493807315826416015625" lon="-6.562357284128665924072265625">
        <ele>86.59999847412109375</ele>
        <time>2019-07-11T08:33:58.000Z</time>
      </trkpt>
      <trkpt lat="43.52923038415610790252685546875" lon="-6.5615440718829631805419921875">
        <ele>84.8000030517578125</ele>
        <time>2019-07-11T08:34:00.000Z</time>
      </trkpt>
      <trkpt lat="43.52909426204860210418701171875" lon="-6.5607679076492786407470703125">
        <ele>81.40000152587890625</ele>
        <time>2019-07-11T08:34:02.000Z</time>
      </trkpt>
      <trkpt lat="43.52901278994977474212646484375" lon="-6.5603984333574771881103515625">
        <ele>78</ele>
        <time>2019-07-11T08:34:03.000Z</time>
      </trkpt>
      <trkpt lat="43.52892779745161533355712890625" lon="-6.56003625132143497467041015625">
        <ele>76.1999969482421875</ele>
        <time>2019-07-11T08:34:04.000Z</time>
      </trkpt>
      <trkpt lat="43.5288420505821704864501953125" lon="-6.55968219973146915435791015625">
        <ele>73.40000152587890625</ele>
        <time>2019-07-11T08:34:05.000Z</time>
      </trkpt>
      <trkpt lat="43.5287595726549625396728515625" lon="-6.55933518894016742706298828125">
        <ele>71.8000030517578125</ele>
        <time>2019-07-11T08:34:06.000Z</time>
      </trkpt>
      <trkpt lat="43.5286167450249195098876953125" lon="-6.55865910463035106658935546875">
        <ele>71</ele>
        <time>2019-07-11T08:34:08.000Z</time>
      </trkpt>
      <trkpt lat="43.528505265712738037109375" lon="-6.5579871274530887603759765625">
        <ele>71.8000030517578125</ele>
        <time>2019-07-11T08:34:10.000Z</time>
      </trkpt>
      <trkpt lat="43.5284216143190860748291015625" lon="-6.5573130548000335693359375">
        <ele>72.59999847412109375</ele>
        <time>2019-07-11T08:34:12.000Z</time>
      </trkpt>
      <trkpt lat="43.52836252190172672271728515625" lon="-6.556662954390048980712890625">
        <ele>71.40000152587890625</ele>
        <time>2019-07-11T08:34:14.000Z</time>
      </trkpt>
      <trkpt lat="43.528337962925434112548828125" lon="-6.556353829801082611083984375">
        <ele>70.40000152587890625</ele>
        <time>2019-07-11T08:34:15.000Z</time>
      </trkpt>
      <trkpt lat="43.52828859351575374603271484375" lon="-6.55577003024518489837646484375">
        <ele>68.1999969482421875</ele>
        <time>2019-07-11T08:34:17.000Z</time>
      </trkpt>
      <trkpt lat="43.52818868122994899749755859375" lon="-6.555026471614837646484375">
        <ele>68.40000152587890625</ele>
        <time>2019-07-11T08:34:20.000Z</time>
      </trkpt>
      <trkpt lat="43.52814006619155406951904296875" lon="-6.554824300110340118408203125">
        <ele>70</ele>
        <time>2019-07-11T08:34:21.000Z</time>
      </trkpt>
      <trkpt lat="43.52798558771610260009765625" lon="-6.55449598096311092376708984375">
        <ele>71.40000152587890625</ele>
        <time>2019-07-11T08:34:23.000Z</time>
      </trkpt>
      <trkpt lat="43.5277701728045940399169921875" lon="-6.5543208830058574676513671875">
        <ele>72.8000030517578125</ele>
        <time>2019-07-11T08:34:25.000Z</time>
      </trkpt>
      <trkpt lat="43.52752466686069965362548828125" lon="-6.55425474978983402252197265625">
        <ele>74.59999847412109375</ele>
        <time>2019-07-11T08:34:27.000Z</time>
      </trkpt>
      <trkpt lat="43.52726968936622142791748046875" lon="-6.55415768735110759735107421875">
        <ele>75.59999847412109375</ele>
        <time>2019-07-11T08:34:29.000Z</time>
      </trkpt>
      <trkpt lat="43.5271666757762432098388671875" lon="-6.5540704317390918731689453125">
        <ele>76</ele>
        <time>2019-07-11T08:34:30.000Z</time>
      </trkpt>
      <trkpt lat="43.5270917415618896484375" lon="-6.553955264389514923095703125">
        <ele>76.59999847412109375</ele>
        <time>2019-07-11T08:34:31.000Z</time>
      </trkpt>
      <trkpt lat="43.52699308656156063079833984375" lon="-6.553640775382518768310546875">
        <ele>76.59999847412109375</ele>
        <time>2019-07-11T08:34:33.000Z</time>
      </trkpt>
      <trkpt lat="43.52699643932282924652099609375" lon="-6.55327809043228626251220703125">
        <ele>76.59999847412109375</ele>
        <time>2019-07-11T08:34:35.000Z</time>
      </trkpt>
      <trkpt lat="43.527118228375911712646484375" lon="-6.5529439039528369903564453125">
        <ele>77.1999969482421875</ele>
        <time>2019-07-11T08:34:37.000Z</time>
      </trkpt>
      <trkpt lat="43.5273282788693904876708984375" lon="-6.55268046073615550994873046875">
        <ele>78.59999847412109375</ele>
        <time>2019-07-11T08:34:39.000Z</time>
      </trkpt>
      <trkpt lat="43.527680821716785430908203125" lon="-6.5523501299321651458740234375">
        <ele>79.8000030517578125</ele>
        <time>2019-07-11T08:34:42.000Z</time>
      </trkpt>
      <trkpt lat="43.52813872508704662322998046875" lon="-6.551925502717494964599609375">
        <ele>80.1999969482421875</ele>
        <time>2019-07-11T08:34:46.000Z</time>
      </trkpt>
      <trkpt lat="43.52842823602259159088134765625" lon="-6.55165887437760829925537109375">
        <ele>80.40000152587890625</ele>
        <time>2019-07-11T08:34:49.000Z</time>
      </trkpt>
      <trkpt lat="43.52855161763727664947509765625" lon="-6.55146139673888683319091796875">
        <ele>80.1999969482421875</ele>
        <time>2019-07-11T08:34:51.000Z</time>
      </trkpt>
      <trkpt lat="43.5286299884319305419921875" lon="-6.55122385360300540924072265625">
        <ele>80.1999969482421875</ele>
        <time>2019-07-11T08:34:53.000Z</time>
      </trkpt>
      <trkpt lat="43.5286581516265869140625" lon="-6.5509490109980106353759765625">
        <ele>80</ele>
        <time>2019-07-11T08:34:55.000Z</time>
      </trkpt>
      <trkpt lat="43.52860517799854278564453125" lon="-6.55058850534260272979736328125">
        <ele>80.8000030517578125</ele>
        <time>2019-07-11T08:34:58.000Z</time>
      </trkpt>
      <trkpt lat="43.5285745002329349517822265625" lon="-6.55049077235162258148193359375">
        <ele>81.1999969482421875</ele>
        <time>2019-07-11T08:34:59.000Z</time>
      </trkpt>
      <trkpt lat="43.52850459516048431396484375" lon="-6.55031156726181507110595703125">
        <ele>82</ele>
        <time>2019-07-11T08:35:01.000Z</time>
      </trkpt>
      <trkpt lat="43.52849663235247135162353515625" lon="-6.55012800358235836029052734375">
        <ele>82</ele>
        <time>2019-07-11T08:35:03.000Z</time>
      </trkpt>
      <trkpt lat="43.5285848937928676605224609375" lon="-6.5498466230928897857666015625">
        <ele>82.40000152587890625</ele>
        <time>2019-07-11T08:35:06.000Z</time>
      </trkpt>
      <trkpt lat="43.5286133922636508941650390625" lon="-6.54972533695399761199951171875">
        <ele>82.59999847412109375</ele>
        <time>2019-07-11T08:35:07.000Z</time>
      </trkpt>
      <trkpt lat="43.52871389128267765045166015625" lon="-6.54910842888057231903076171875">
        <ele>83.40000152587890625</ele>
        <time>2019-07-11T08:35:11.000Z</time>
      </trkpt>
      <trkpt lat="43.5287937708199024200439453125" lon="-6.54878522269427776336669921875">
        <ele>82.40000152587890625</ele>
        <time>2019-07-11T08:35:13.000Z</time>
      </trkpt>
      <trkpt lat="43.52884917519986629486083984375" lon="-6.54863619245588779449462890625">
        <ele>80.59999847412109375</ele>
        <time>2019-07-11T08:35:14.000Z</time>
      </trkpt>
      <trkpt lat="43.52891354821622371673583984375" lon="-6.54849705286324024200439453125">
        <ele>78.40000152587890625</ele>
        <time>2019-07-11T08:35:15.000Z</time>
      </trkpt>
      <trkpt lat="43.5289788432419300079345703125" lon="-6.54836118221282958984375">
        <ele>77.40000152587890625</ele>
        <time>2019-07-11T08:35:16.000Z</time>
      </trkpt>
      <trkpt lat="43.529325015842914581298828125" lon="-6.54782499186694622039794921875">
        <ele>77.59999847412109375</ele>
        <time>2019-07-11T08:35:20.000Z</time>
      </trkpt>
      <trkpt lat="43.52953724563121795654296875" lon="-6.5475737862288951873779296875">
        <ele>79</ele>
        <time>2019-07-11T08:35:22.000Z</time>
      </trkpt>
      <trkpt lat="43.52988459169864654541015625" lon="-6.54718729667365550994873046875">
        <ele>76.8000030517578125</ele>
        <time>2019-07-11T08:35:25.000Z</time>
      </trkpt>
      <trkpt lat="43.530102185904979705810546875" lon="-6.54687800444662570953369140625">
        <ele>75.1999969482421875</ele>
        <time>2019-07-11T08:35:27.000Z</time>
      </trkpt>
      <trkpt lat="43.53020779788494110107421875" lon="-6.54671589843928813934326171875">
        <ele>74.1999969482421875</ele>
        <time>2019-07-11T08:35:28.000Z</time>
      </trkpt>
      <trkpt lat="43.53041441179811954498291015625" lon="-6.5463781915605068206787109375">
        <ele>72.8000030517578125</ele>
        <time>2019-07-11T08:35:30.000Z</time>
      </trkpt>
      <trkpt lat="43.5306434892117977142333984375" lon="-6.54608557932078838348388671875">
        <ele>71.40000152587890625</ele>
        <time>2019-07-11T08:35:32.000Z</time>
      </trkpt>
      <trkpt lat="43.531051017343997955322265625" lon="-6.54574695043265819549560546875">
        <ele>69.8000030517578125</ele>
        <time>2019-07-11T08:35:35.000Z</time>
      </trkpt>
      <trkpt lat="43.5313559509813785552978515625" lon="-6.54560697264969348907470703125">
        <ele>68.40000152587890625</ele>
        <time>2019-07-11T08:35:37.000Z</time>
      </trkpt>
      <trkpt lat="43.53151931427419185638427734375" lon="-6.54556690715253353118896484375">
        <ele>67</ele>
        <time>2019-07-11T08:35:38.000Z</time>
      </trkpt>
      <trkpt lat="43.53167840279638767242431640625" lon="-6.54552550055086612701416015625">
        <ele>63.799999237060546875</ele>
        <time>2019-07-11T08:35:39.000Z</time>
      </trkpt>
      <trkpt lat="43.53182894177734851837158203125" lon="-6.54546213336288928985595703125">
        <ele>60.59999847412109375</ele>
        <time>2019-07-11T08:35:40.000Z</time>
      </trkpt>
      <trkpt lat="43.5319758765399456024169921875" lon="-6.54539926908910274505615234375">
        <ele>57.799999237060546875</ele>
        <time>2019-07-11T08:35:41.000Z</time>
      </trkpt>
      <trkpt lat="43.532125242054462432861328125" lon="-6.54535031877458095550537109375">
        <ele>56.200000762939453125</ele>
        <time>2019-07-11T08:35:42.000Z</time>
      </trkpt>
      <trkpt lat="43.53263494558632373809814453125" lon="-6.54521419666707515716552734375">
        <ele>56.799999237060546875</ele>
        <time>2019-07-11T08:35:45.000Z</time>
      </trkpt>
      <trkpt lat="43.5328160785138607025146484375" lon="-6.54516189359128475189208984375">
        <ele>58.200000762939453125</ele>
        <time>2019-07-11T08:35:46.000Z</time>
      </trkpt>
      <trkpt lat="43.533198125660419464111328125" lon="-6.5449804253876209259033203125">
        <ele>58.59999847412109375</ele>
        <time>2019-07-11T08:35:48.000Z</time>
      </trkpt>
      <trkpt lat="43.53336475789546966552734375" lon="-6.54484975151717662811279296875">
        <ele>55.40000152587890625</ele>
        <time>2019-07-11T08:35:49.000Z</time>
      </trkpt>
      <trkpt lat="43.5335164703428745269775390625" lon="-6.54466384090483188629150390625">
        <ele>50.59999847412109375</ele>
        <time>2019-07-11T08:35:50.000Z</time>
      </trkpt>
      <trkpt lat="43.533670194447040557861328125" lon="-6.544447503983974456787109375">
        <ele>45.59999847412109375</ele>
        <time>2019-07-11T08:35:51.000Z</time>
      </trkpt>
      <trkpt lat="43.5338245891034603118896484375" lon="-6.54421926476061344146728515625">
        <ele>43.200000762939453125</ele>
        <time>2019-07-11T08:35:52.000Z</time>
      </trkpt>
      <trkpt lat="43.5339687578380107879638671875" lon="-6.543990187346935272216796875">
        <ele>42</ele>
        <time>2019-07-11T08:35:53.000Z</time>
      </trkpt>
      <trkpt lat="43.53410412557423114776611328125" lon="-6.543770246207714080810546875">
        <ele>40.59999847412109375</ele>
        <time>2019-07-11T08:35:54.000Z</time>
      </trkpt>
      <trkpt lat="43.53423555381596088409423828125" lon="-6.543560363352298736572265625">
        <ele>39.200000762939453125</ele>
        <time>2019-07-11T08:35:55.000Z</time>
      </trkpt>
      <trkpt lat="43.5343596898019313812255859375" lon="-6.54337403364479541778564453125">
        <ele>36.799999237060546875</ele>
        <time>2019-07-11T08:35:56.000Z</time>
      </trkpt>
      <trkpt lat="43.53448265232145786285400390625" lon="-6.54320773668587207794189453125">
        <ele>34.40000152587890625</ele>
        <time>2019-07-11T08:35:57.000Z</time>
      </trkpt>
      <trkpt lat="43.534612990915775299072265625" lon="-6.5430556051433086395263671875">
        <ele>33</ele>
        <time>2019-07-11T08:35:58.000Z</time>
      </trkpt>
      <trkpt lat="43.5347521305084228515625" lon="-6.542905233800411224365234375">
        <ele>31.799999237060546875</ele>
        <time>2019-07-11T08:35:59.000Z</time>
      </trkpt>
      <trkpt lat="43.53490711189806461334228515625" lon="-6.54275997541844844818115234375">
        <ele>30.3999996185302734375</ele>
        <time>2019-07-11T08:36:00.000Z</time>
      </trkpt>
      <trkpt lat="43.5350739955902099609375" lon="-6.54263072647154331207275390625">
        <ele>29.200000762939453125</ele>
        <time>2019-07-11T08:36:01.000Z</time>
      </trkpt>
      <trkpt lat="43.5355811007320880889892578125" lon="-6.54230014421045780181884765625">
        <ele>30</ele>
        <time>2019-07-11T08:36:04.000Z</time>
      </trkpt>
      <trkpt lat="43.53573717176914215087890625" lon="-6.54218045063316822052001953125">
        <ele>32.40000152587890625</ele>
        <time>2019-07-11T08:36:05.000Z</time>
      </trkpt>
      <trkpt lat="43.5358986072242259979248046875" lon="-6.542076766490936279296875">
        <ele>34.799999237060546875</ele>
        <time>2019-07-11T08:36:06.000Z</time>
      </trkpt>
      <trkpt lat="43.536058701574802398681640625" lon="-6.5419729985296726226806640625">
        <ele>36</ele>
        <time>2019-07-11T08:36:07.000Z</time>
      </trkpt>
      <trkpt lat="43.53638065047562122344970703125" lon="-6.5417644567787647247314453125">
        <ele>34</ele>
        <time>2019-07-11T08:36:09.000Z</time>
      </trkpt>
      <trkpt lat="43.5365403257310390472412109375" lon="-6.54165490530431270599365234375">
        <ele>29.799999237060546875</ele>
        <time>2019-07-11T08:36:10.000Z</time>
      </trkpt>
      <trkpt lat="43.5367047786712646484375" lon="-6.5415498800575733184814453125">
        <ele>25.3999996185302734375</ele>
        <time>2019-07-11T08:36:11.000Z</time>
      </trkpt>
      <trkpt lat="43.5368682257831096649169921875" lon="-6.54144871048629283905029296875">
        <ele>22.3999996185302734375</ele>
        <time>2019-07-11T08:36:12.000Z</time>
      </trkpt>
      <trkpt lat="43.53702454827725887298583984375" lon="-6.54135952703654766082763671875">
        <ele>20.799999237060546875</ele>
        <time>2019-07-11T08:36:13.000Z</time>
      </trkpt>
      <trkpt lat="43.53716586716473102569580078125" lon="-6.54128459282219409942626953125">
        <ele>19.3999996185302734375</ele>
        <time>2019-07-11T08:36:14.000Z</time>
      </trkpt>
      <trkpt lat="43.537311293184757232666015625" lon="-6.54123614542186260223388671875">
        <ele>19</ele>
        <time>2019-07-11T08:36:15.000Z</time>
      </trkpt>
      <trkpt lat="43.537855446338653564453125" lon="-6.5411931462585926055908203125">
        <ele>19.6000003814697265625</ele>
        <time>2019-07-11T08:36:19.000Z</time>
      </trkpt>
      <trkpt lat="43.53836548514664173126220703125" lon="-6.54121644794940948486328125">
        <ele>20.799999237060546875</ele>
        <time>2019-07-11T08:36:23.000Z</time>
      </trkpt>
      <trkpt lat="43.538837470114231109619140625" lon="-6.5412960760295391082763671875">
        <ele>21.200000762939453125</ele>
        <time>2019-07-11T08:36:27.000Z</time>
      </trkpt>
      <trkpt lat="43.53905045427381992340087890625" lon="-6.54134175740182399749755859375">
        <ele>19.6000003814697265625</ele>
        <time>2019-07-11T08:36:29.000Z</time>
      </trkpt>
      <trkpt lat="43.53915296494960784912109375" lon="-6.54134343378245830535888671875">
        <ele>19</ele>
        <time>2019-07-11T08:36:30.000Z</time>
      </trkpt>
      <trkpt lat="43.5392582416534423828125" lon="-6.541341505944728851318359375">
        <ele>18.3999996185302734375</ele>
        <time>2019-07-11T08:36:31.000Z</time>
      </trkpt>
      <trkpt lat="43.539363853633403778076171875" lon="-6.54132197611033916473388671875">
        <ele>18</ele>
        <time>2019-07-11T08:36:32.000Z</time>
      </trkpt>
      <trkpt lat="43.53956292383372783660888671875" lon="-6.54115266166627407073974609375">
        <ele>17.200000762939453125</ele>
        <time>2019-07-11T08:36:34.000Z</time>
      </trkpt>
      <trkpt lat="43.5396117903292179107666015625" lon="-6.5408967621624469757080078125">
        <ele>16.3999996185302734375</ele>
        <time>2019-07-11T08:36:36.000Z</time>
      </trkpt>
      <trkpt lat="43.53964121080935001373291015625" lon="-6.54077933169901371002197265625">
        <ele>16</ele>
        <time>2019-07-11T08:36:37.000Z</time>
      </trkpt>
      <trkpt lat="43.539683036506175994873046875" lon="-6.54068277217447757720947265625">
        <ele>15.80000019073486328125</ele>
        <time>2019-07-11T08:36:38.000Z</time>
      </trkpt>
      <trkpt lat="43.5398013889789581298828125" lon="-6.540558636188507080078125">
        <ele>15.3999996185302734375</ele>
        <time>2019-07-11T08:36:40.000Z</time>
      </trkpt>
      <trkpt lat="43.53996978141367435455322265625" lon="-6.54045159928500652313232421875">
        <ele>14.80000019073486328125</ele>
        <time>2019-07-11T08:36:42.000Z</time>
      </trkpt>
      <trkpt lat="43.5402394272387027740478515625" lon="-6.5403532795608043670654296875">
        <ele>13.6000003814697265625</ele>
        <time>2019-07-11T08:36:45.000Z</time>
      </trkpt>
      <trkpt lat="43.54033204726874828338623046875" lon="-6.540285050868988037109375">
        <ele>12.6000003814697265625</ele>
        <time>2019-07-11T08:36:46.000Z</time>
      </trkpt>
      <trkpt lat="43.54041050188243389129638671875" lon="-6.54020114801824092864990234375">
        <ele>11.6000003814697265625</ele>
        <time>2019-07-11T08:36:47.000Z</time>
      </trkpt>
      <trkpt lat="43.54047638364136219024658203125" lon="-6.5400874055922031402587890625">
        <ele>10.80000019073486328125</ele>
        <time>2019-07-11T08:36:48.000Z</time>
      </trkpt>
      <trkpt lat="43.5405110009014606475830078125" lon="-6.53995488770306110382080078125">
        <ele>10</ele>
        <time>2019-07-11T08:36:49.000Z</time>
      </trkpt>
      <trkpt lat="43.54059775359928607940673828125" lon="-6.539533697068691253662109375">
        <ele>9.19999980926513671875</ele>
        <time>2019-07-11T08:36:52.000Z</time>
      </trkpt>
      <trkpt lat="43.54064201004803180694580078125" lon="-6.53939749114215373992919921875">
        <ele>9</ele>
        <time>2019-07-11T08:36:53.000Z</time>
      </trkpt>
      <trkpt lat="43.540776707231998443603515625" lon="-6.539271175861358642578125">
        <ele>9.19999980926513671875</ele>
        <time>2019-07-11T08:36:55.000Z</time>
      </trkpt>
      <trkpt lat="43.54095499031245708465576171875" lon="-6.53915508650243282318115234375">
        <ele>10</ele>
        <time>2019-07-11T08:36:58.000Z</time>
      </trkpt>
      <trkpt lat="43.54111122898757457733154296875" lon="-6.5390329621732234954833984375">
        <ele>11.19999980926513671875</ele>
        <time>2019-07-11T08:37:01.000Z</time>
      </trkpt>
      <trkpt lat="43.54135078378021717071533203125" lon="-6.53880706988275051116943359375">
        <ele>11.19999980926513671875</ele>
        <time>2019-07-11T08:37:05.000Z</time>
      </trkpt>
      <trkpt lat="43.54162462055683135986328125" lon="-6.538576148450374603271484375">
        <ele>10</ele>
        <time>2019-07-11T08:37:09.000Z</time>
      </trkpt>
      <trkpt lat="43.541692681610584259033203125" lon="-6.53849668800830841064453125">
        <ele>9.80000019073486328125</ele>
        <time>2019-07-11T08:37:10.000Z</time>
      </trkpt>
      <trkpt lat="43.54179888032376766204833984375" lon="-6.53832226060330867767333984375">
        <ele>9.6000003814697265625</ele>
        <time>2019-07-11T08:37:12.000Z</time>
      </trkpt>
      <trkpt lat="43.541872389614582061767578125" lon="-6.537933088839054107666015625">
        <ele>8.80000019073486328125</ele>
        <time>2019-07-11T08:37:15.000Z</time>
      </trkpt>
      <trkpt lat="43.54182821698486804962158203125" lon="-6.537787578999996185302734375">
        <ele>8.6000003814697265625</ele>
        <time>2019-07-11T08:37:16.000Z</time>
      </trkpt>
      <trkpt lat="43.5419345833361148834228515625" lon="-6.53719137422740459442138671875">
        <ele>7.80000019073486328125</ele>
        <time>2019-07-11T08:37:21.000Z</time>
      </trkpt>
      <trkpt lat="43.54197590611875057220458984375" lon="-6.5367125160992145538330078125">
        <ele>7.400000095367431640625</ele>
        <time>2019-07-11T08:37:25.000Z</time>
      </trkpt>
      <trkpt lat="43.5420222580432891845703125" lon="-6.536524929106235504150390625">
        <ele>7</ele>
        <time>2019-07-11T08:37:27.000Z</time>
      </trkpt>
      <trkpt lat="43.54202418588101863861083984375" lon="-6.53633189387619495391845703125">
        <ele>9</ele>
        <time>2019-07-11T08:37:35.000Z</time>
      </trkpt>
      <trkpt lat="43.5420294664800167083740234375" lon="-6.53633348643779754638671875">
        <ele>9</ele>
        <time>2019-07-11T08:37:38.000Z</time>
      </trkpt>
      <trkpt lat="43.5420294664800167083740234375" lon="-6.53633348643779754638671875">
        <ele>9</ele>
        <time>2019-07-11T08:37:39.000Z</time>
      </trkpt>
      <trkpt lat="43.542064167559146881103515625" lon="-6.53608538210391998291015625">
        <ele>8.80000019073486328125</ele>
        <time>2019-07-11T08:37:46.000Z</time>
      </trkpt>
      <trkpt lat="43.54207816533744335174560546875" lon="-6.53589502908289432525634765625">
        <ele>8.19999980926513671875</ele>
        <time>2019-07-11T08:37:48.000Z</time>
      </trkpt>
      <trkpt lat="43.54200658388435840606689453125" lon="-6.53576024807989597320556640625">
        <ele>8</ele>
        <time>2019-07-11T08:37:50.000Z</time>
      </trkpt>
      <trkpt lat="43.5419728048145771026611328125" lon="-6.53550828807055950164794921875">
        <ele>8.80000019073486328125</ele>
        <time>2019-07-11T08:37:55.000Z</time>
      </trkpt>
      <trkpt lat="43.54219718836247920989990234375" lon="-6.53493043966591358184814453125">
        <ele>8.19999980926513671875</ele>
        <time>2019-07-11T08:38:03.000Z</time>
      </trkpt>
      <trkpt lat="43.54224848560988903045654296875" lon="-6.5347655676305294036865234375">
        <ele>8</ele>
        <time>2019-07-11T08:38:05.000Z</time>
      </trkpt>
      <trkpt lat="43.54230590164661407470703125" lon="-6.53460036031901836395263671875">
        <ele>7.80000019073486328125</ele>
        <time>2019-07-11T08:38:07.000Z</time>
      </trkpt>
      <trkpt lat="43.5425581969320774078369140625" lon="-6.53407238423824310302734375">
        <ele>7.19999980926513671875</ele>
        <time>2019-07-11T08:38:16.000Z</time>
      </trkpt>
      <trkpt lat="43.54259851388633251190185546875" lon="-6.53403659351170063018798828125">
        <ele>7.19999980926513671875</ele>
        <time>2019-07-11T08:38:17.000Z</time>
      </trkpt>
      <trkpt lat="43.5427402518689632415771484375" lon="-6.53391036204993724822998046875">
        <ele>7.400000095367431640625</ele>
        <time>2019-07-11T08:38:21.000Z</time>
      </trkpt>
      <trkpt lat="43.5431580059230327606201171875" lon="-6.5339179895818233489990234375">
        <ele>8</ele>
        <time>2019-07-11T08:38:31.000Z</time>
      </trkpt>
      <trkpt lat="43.54307862929999828338623046875" lon="-6.53410482220351696014404296875">
        <ele>8</ele>
        <time>2019-07-11T08:38:34.000Z</time>
      </trkpt>
      <trkpt lat="43.54300118051469326019287109375" lon="-6.53421278111636638641357421875">
        <ele>8.19999980926513671875</ele>
        <time>2019-07-11T08:38:36.000Z</time>
      </trkpt>
      <trkpt lat="43.54295239783823490142822265625" lon="-6.5343276970088481903076171875">
        <ele>8.3999996185302734375</ele>
        <time>2019-07-11T08:38:38.000Z</time>
      </trkpt>
      <trkpt lat="43.5428897850215435028076171875" lon="-6.53443154878914356231689453125">
        <ele>9</ele>
        <time>2019-07-11T08:38:41.000Z</time>
      </trkpt>
      <trkpt lat="43.5428859293460845947265625" lon="-6.534450910985469818115234375">
        <ele>9</ele>
        <time>2019-07-11T08:38:42.000Z</time>
      </trkpt>
      <trkpt lat="43.54310511611402034759521484375" lon="-6.53482130728662014007568359375">
        <ele>7.80000019073486328125</ele>
        <time>2019-07-11T08:38:52.000Z</time>
      </trkpt>
      <trkpt lat="43.5431928746402263641357421875" lon="-6.534902192652225494384765625">
        <ele>7.19999980926513671875</ele>
        <time>2019-07-11T08:38:54.000Z</time>
      </trkpt>
      <trkpt lat="43.54326990433037281036376953125" lon="-6.5349863469600677490234375">
        <ele>6.80000019073486328125</ele>
        <time>2019-07-11T08:38:56.000Z</time>
      </trkpt>
      <trkpt lat="43.5433437488973140716552734375" lon="-6.5350770391523838043212890625">
        <ele>6.80000019073486328125</ele>
        <time>2019-07-11T08:38:58.000Z</time>
      </trkpt>
      <trkpt lat="43.54375219903886318206787109375" lon="-6.53521810658276081085205078125">
        <ele>6.599999904632568359375</ele>
        <time>2019-07-11T08:39:09.000Z</time>
      </trkpt>
      <trkpt lat="43.54379729367792606353759765625" lon="-6.5352114848792552947998046875">
        <ele>6.599999904632568359375</ele>
        <time>2019-07-11T08:39:10.000Z</time>
      </trkpt>
      <trkpt lat="43.54394607245922088623046875" lon="-6.53529186733067035675048828125">
        <ele>6.400000095367431640625</ele>
        <time>2019-07-11T08:39:12.000Z</time>
      </trkpt>
      <trkpt lat="43.544051013886928558349609375" lon="-6.535545252263545989990234375">
        <ele>7</ele>
        <time>2019-07-11T08:39:19.000Z</time>
      </trkpt>
      <trkpt lat="43.54408965446054935455322265625" lon="-6.53556427918374538421630859375">
        <ele>7.400000095367431640625</ele>
        <time>2019-07-11T08:39:21.000Z</time>
      </trkpt>
      <trkpt lat="43.5441626608371734619140625" lon="-6.5355420671403408050537109375">
        <ele>7.599999904632568359375</ele>
        <time>2019-07-11T08:39:23.000Z</time>
      </trkpt>
      <trkpt lat="43.54427891783416271209716796875" lon="-6.53549605049192905426025390625">
        <ele>7.599999904632568359375</ele>
        <time>2019-07-11T08:39:27.000Z</time>
      </trkpt>
      <trkpt lat="43.544340021908283233642578125" lon="-6.53555405326187610626220703125">
        <ele>7.400000095367431640625</ele>
        <time>2019-07-11T08:39:29.000Z</time>
      </trkpt>
      <trkpt lat="43.5444521717727184295654296875" lon="-6.535714566707611083984375">
        <ele>7.19999980926513671875</ele>
        <time>2019-07-11T08:39:32.000Z</time>
      </trkpt>
      <trkpt lat="43.54453842155635356903076171875" lon="-6.53576846234500408172607421875">
        <ele>6.599999904632568359375</ele>
        <time>2019-07-11T08:39:34.000Z</time>
      </trkpt>
      <trkpt lat="43.54461972601711750030517578125" lon="-6.53576427139341831207275390625">
        <ele>6.19999980926513671875</ele>
        <time>2019-07-11T08:39:36.000Z</time>
      </trkpt>
      <trkpt lat="43.54474411346018314361572265625" lon="-6.535605601966381072998046875">
        <ele>6</ele>
        <time>2019-07-11T08:39:38.000Z</time>
      </trkpt>
      <trkpt lat="43.54484117589890956878662109375" lon="-6.53545782901346683502197265625">
        <ele>5.599999904632568359375</ele>
        <time>2019-07-11T08:39:40.000Z</time>
      </trkpt>
      <trkpt lat="43.54512465186417102813720703125" lon="-6.53501576744019985198974609375">
        <ele>5</ele>
        <time>2019-07-11T08:39:47.000Z</time>
      </trkpt>
      <trkpt lat="43.54515281505882740020751953125" lon="-6.53485617600381374359130859375">
        <ele>5.19999980926513671875</ele>
        <time>2019-07-11T08:39:49.000Z</time>
      </trkpt>
      <trkpt lat="43.5452424176037311553955078125" lon="-6.5342348255217075347900390625">
        <ele>5.80000019073486328125</ele>
        <time>2019-07-11T08:39:58.000Z</time>
      </trkpt>
      <trkpt lat="43.545287512242794036865234375" lon="-6.53416869230568408966064453125">
        <ele>5.80000019073486328125</ele>
        <time>2019-07-11T08:40:00.000Z</time>
      </trkpt>
      <trkpt lat="43.54534761048853397369384765625" lon="-6.5341563709080219268798828125">
        <ele>5.80000019073486328125</ele>
        <time>2019-07-11T08:40:02.000Z</time>
      </trkpt>
      <trkpt lat="43.54549094103276729583740234375" lon="-6.534018404781818389892578125">
        <ele>5.80000019073486328125</ele>
        <time>2019-07-11T08:40:05.000Z</time>
      </trkpt>
      <trkpt lat="43.54561247862875461578369140625" lon="-6.533966772258281707763671875">
        <ele>5.599999904632568359375</ele>
        <time>2019-07-11T08:40:07.000Z</time>
      </trkpt>
      <trkpt lat="43.54577156715095043182373046875" lon="-6.53391388244926929473876953125">
        <ele>6.19999980926513671875</ele>
        <time>2019-07-11T08:40:11.000Z</time>
      </trkpt>
      <trkpt lat="43.54580073617398738861083984375" lon="-6.5338410437107086181640625">
        <ele>6.80000019073486328125</ele>
        <time>2019-07-11T08:40:13.000Z</time>
      </trkpt>
      <trkpt lat="43.54584448970854282379150390625" lon="-6.53379837982356548309326171875">
        <ele>7</ele>
        <time>2019-07-11T08:40:15.000Z</time>
      </trkpt>
      <trkpt lat="43.54593350552022457122802734375" lon="-6.5338169038295745849609375">
        <ele>7</ele>
        <time>2019-07-11T08:40:17.000Z</time>
      </trkpt>
      <trkpt lat="43.546090833842754364013671875" lon="-6.533856801688671112060546875">
        <ele>7.400000095367431640625</ele>
        <time>2019-07-11T08:40:35.000Z</time>
      </trkpt>
      <trkpt lat="43.546090833842754364013671875" lon="-6.533856801688671112060546875">
        <ele>7.400000095367431640625</ele>
        <time>2019-07-11T08:40:36.000Z</time>
      </trkpt>
      <trkpt lat="43.546173311769962310791015625" lon="-6.53396308422088623046875">
        <ele>7.19999980926513671875</ele>
        <time>2019-07-11T08:40:45.000Z</time>
      </trkpt>
      <trkpt lat="43.546188734471797943115234375" lon="-6.53402385301887989044189453125">
        <ele>7.19999980926513671875</ele>
        <time>2019-07-11T08:40:47.000Z</time>
      </trkpt>
      <trkpt lat="43.5461976192891597747802734375" lon="-6.53423273004591464996337890625">
        <ele>7.599999904632568359375</ele>
        <time>2019-07-11T08:40:59.000Z</time>
      </trkpt>
      <trkpt lat="43.54624615050852298736572265625" lon="-6.5343421138823032379150390625">
        <ele>7.400000095367431640625</ele>
        <time>2019-07-11T08:41:02.000Z</time>
      </trkpt>
      <trkpt lat="43.54628303088247776031494140625" lon="-6.53434772975742816925048828125">
        <ele>7.80000019073486328125</ele>
        <time>2019-07-11T08:41:08.000Z</time>
      </trkpt>
      <trkpt lat="43.546286635100841522216796875" lon="-6.5343511663377285003662109375">
        <ele>7.80000019073486328125</ele>
        <time>2019-07-11T08:41:20.000Z</time>
      </trkpt>
      <trkpt lat="43.54628336615860462188720703125" lon="-6.53435242362320423126220703125">
        <ele>7.80000019073486328125</ele>
        <time>2019-07-11T08:41:24.000Z</time>
      </trkpt>
      <trkpt lat="43.54627783410251140594482421875" lon="-6.53436851687729358673095703125">
        <ele>8</ele>
        <time>2019-07-11T08:41:30.000Z</time>
      </trkpt>
      <trkpt lat="43.54628956876695156097412109375" lon="-6.53435175307095050811767578125">
        <ele>7.19999980926513671875</ele>
        <time>2019-07-11T08:42:09.000Z</time>
      </trkpt>
      <trkpt lat="43.54628822766244411468505859375" lon="-6.5343464724719524383544921875">
        <ele>7.400000095367431640625</ele>
        <time>2019-07-11T08:42:10.000Z</time>
      </trkpt>
      <trkpt lat="43.54826116003096103668212890625" lon="-6.53214161284267902374267578125">
        <ele>45</ele>
        <time>2019-07-11T09:45:26.000Z</time>
      </trkpt>
      <trkpt lat="43.54830994270741939544677734375" lon="-6.53213188983500003814697265625">
        <ele>45</ele>
        <time>2019-07-11T09:46:23.000Z</time>
      </trkpt>
      <trkpt lat="43.5483393631875514984130859375" lon="-6.53218838386237621307373046875">
        <ele>45</ele>
        <time>2019-07-11T09:47:14.000Z</time>
      </trkpt>
      <trkpt lat="43.54845620691776275634765625" lon="-6.53220145963132381439208984375">
        <ele>44.799999237060546875</ele>
        <time>2019-07-11T09:47:17.000Z</time>
      </trkpt>
      <trkpt lat="43.54863516055047512054443359375" lon="-6.53221218846738338470458984375">
        <ele>43.59999847412109375</ele>
        <time>2019-07-11T09:47:20.000Z</time>
      </trkpt>
      <trkpt lat="43.54894529096782207489013671875" lon="-6.53220062144100666046142578125">
        <ele>42.59999847412109375</ele>
        <time>2019-07-11T09:47:25.000Z</time>
      </trkpt>
      <trkpt lat="43.54914394207298755645751953125" lon="-6.53218989260494709014892578125">
        <ele>41.40000152587890625</ele>
        <time>2019-07-11T09:47:28.000Z</time>
      </trkpt>
      <trkpt lat="43.54934125207364559173583984375" lon="-6.5321256034076213836669921875">
        <ele>40.40000152587890625</ele>
        <time>2019-07-11T09:47:31.000Z</time>
      </trkpt>
      <trkpt lat="43.5494707524776458740234375" lon="-6.53211034834384918212890625">
        <ele>40</ele>
        <time>2019-07-11T09:47:33.000Z</time>
      </trkpt>
      <trkpt lat="43.54959790594875812530517578125" lon="-6.53213985264301300048828125">
        <ele>40</ele>
        <time>2019-07-11T09:47:35.000Z</time>
      </trkpt>
      <trkpt lat="43.54971148073673248291015625" lon="-6.53221939690411090850830078125">
        <ele>40.200000762939453125</ele>
        <time>2019-07-11T09:47:37.000Z</time>
      </trkpt>
      <trkpt lat="43.5497877560555934906005859375" lon="-6.5323425270617008209228515625">
        <ele>40.40000152587890625</ele>
        <time>2019-07-11T09:47:39.000Z</time>
      </trkpt>
      <trkpt lat="43.549813069403171539306640625" lon="-6.53247051872313022613525390625">
        <ele>40.40000152587890625</ele>
        <time>2019-07-11T09:47:41.000Z</time>
      </trkpt>
      <trkpt lat="43.54975598864257335662841796875" lon="-6.532557271420955657958984375">
        <ele>40.40000152587890625</ele>
        <time>2019-07-11T09:47:43.000Z</time>
      </trkpt>
      <trkpt lat="43.5496603511273860931396484375" lon="-6.5325896255671977996826171875">
        <ele>40.40000152587890625</ele>
        <time>2019-07-11T09:47:45.000Z</time>
      </trkpt>
      <trkpt lat="43.549440912902355194091796875" lon="-6.53256020508706569671630859375">
        <ele>40.59999847412109375</ele>
        <time>2019-07-11T09:47:49.000Z</time>
      </trkpt>
      <trkpt lat="43.5492534935474395751953125" lon="-6.53260110877454280853271484375">
        <ele>40</ele>
        <time>2019-07-11T09:47:52.000Z</time>
      </trkpt>
      <trkpt lat="43.54911309666931629180908203125" lon="-6.53265508823096752166748046875">
        <ele>39.200000762939453125</ele>
        <time>2019-07-11T09:47:54.000Z</time>
      </trkpt>
      <trkpt lat="43.5488996095955371856689453125" lon="-6.53272926807403564453125">
        <ele>38</ele>
        <time>2019-07-11T09:47:57.000Z</time>
      </trkpt>
      <trkpt lat="43.5487557761371135711669921875" lon="-6.53278199024498462677001953125">
        <ele>37</ele>
        <time>2019-07-11T09:47:59.000Z</time>
      </trkpt>
      <trkpt lat="43.54862476699054241180419921875" lon="-6.53280965052545070648193359375">
        <ele>35.799999237060546875</ele>
        <time>2019-07-11T09:48:01.000Z</time>
      </trkpt>
      <trkpt lat="43.5483817756175994873046875" lon="-6.53279389254748821258544921875">
        <ele>34.59999847412109375</ele>
        <time>2019-07-11T09:48:05.000Z</time>
      </trkpt>
      <trkpt lat="43.548321425914764404296875" lon="-6.53279724530875682830810546875">
        <ele>34.200000762939453125</ele>
        <time>2019-07-11T09:48:06.000Z</time>
      </trkpt>
      <trkpt lat="43.54819997213780879974365234375" lon="-6.53284259140491485595703125">
        <ele>33.200000762939453125</ele>
        <time>2019-07-11T09:48:08.000Z</time>
      </trkpt>
      <trkpt lat="43.5481023229658603668212890625" lon="-6.532958932220935821533203125">
        <ele>32.40000152587890625</ele>
        <time>2019-07-11T09:48:10.000Z</time>
      </trkpt>
      <trkpt lat="43.54807491414248943328857421875" lon="-6.5330442599952220916748046875">
        <ele>31.799999237060546875</ele>
        <time>2019-07-11T09:48:11.000Z</time>
      </trkpt>
      <trkpt lat="43.5480625927448272705078125" lon="-6.53314811177551746368408203125">
        <ele>31.200000762939453125</ele>
        <time>2019-07-11T09:48:12.000Z</time>
      </trkpt>
      <trkpt lat="43.5480545461177825927734375" lon="-6.53324919752776622772216796875">
        <ele>30.6000003814697265625</ele>
        <time>2019-07-11T09:48:13.000Z</time>
      </trkpt>
      <trkpt lat="43.5480429790914058685302734375" lon="-6.53334961272776126861572265625">
        <ele>30.200000762939453125</ele>
        <time>2019-07-11T09:48:14.000Z</time>
      </trkpt>
      <trkpt lat="43.548020012676715850830078125" lon="-6.53344516642391681671142578125">
        <ele>29.6000003814697265625</ele>
        <time>2019-07-11T09:48:15.000Z</time>
      </trkpt>
      <trkpt lat="43.54798405431210994720458984375" lon="-6.53352965600788593292236328125">
        <ele>29.200000762939453125</ele>
        <time>2019-07-11T09:48:16.000Z</time>
      </trkpt>
      <trkpt lat="43.54793627746403217315673828125" lon="-6.53360702097415924072265625">
        <ele>28.6000003814697265625</ele>
        <time>2019-07-11T09:48:17.000Z</time>
      </trkpt>
      <trkpt lat="43.54788213036954402923583984375" lon="-6.53367952443659305572509765625">
        <ele>28</ele>
        <time>2019-07-11T09:48:18.000Z</time>
      </trkpt>
      <trkpt lat="43.547821529209613800048828125" lon="-6.53374381363391876220703125">
        <ele>27.3999996185302734375</ele>
        <time>2019-07-11T09:48:19.000Z</time>
      </trkpt>
      <trkpt lat="43.54775539599359035491943359375" lon="-6.53379879891872406005859375">
        <ele>26.799999237060546875</ele>
        <time>2019-07-11T09:48:20.000Z</time>
      </trkpt>
      <trkpt lat="43.54768364690244197845458984375" lon="-6.53384230099618434906005859375">
        <ele>26.3999996185302734375</ele>
        <time>2019-07-11T09:48:21.000Z</time>
      </trkpt>
      <trkpt lat="43.54753394611179828643798828125" lon="-6.5339002199470996856689453125">
        <ele>25.799999237060546875</ele>
        <time>2019-07-11T09:48:23.000Z</time>
      </trkpt>
      <trkpt lat="43.54745716787874698638916015625" lon="-6.5339153073728084564208984375">
        <ele>25.3999996185302734375</ele>
        <time>2019-07-11T09:48:24.000Z</time>
      </trkpt>
      <trkpt lat="43.5473150946199893951416015625" lon="-6.5339025668799877166748046875">
        <ele>24.6000003814697265625</ele>
        <time>2019-07-11T09:48:26.000Z</time>
      </trkpt>
      <trkpt lat="43.54719565249979496002197265625" lon="-6.53382855467498302459716796875">
        <ele>23.6000003814697265625</ele>
        <time>2019-07-11T09:48:28.000Z</time>
      </trkpt>
      <trkpt lat="43.54714167304337024688720703125" lon="-6.5337761677801609039306640625">
        <ele>23.200000762939453125</ele>
        <time>2019-07-11T09:48:29.000Z</time>
      </trkpt>
      <trkpt lat="43.5470934771001338958740234375" lon="-6.533720009028911590576171875">
        <ele>22.799999237060546875</ele>
        <time>2019-07-11T09:48:30.000Z</time>
      </trkpt>
      <trkpt lat="43.54703572578728199005126953125" lon="-6.53358564712107181549072265625">
        <ele>21.799999237060546875</ele>
        <time>2019-07-11T09:48:32.000Z</time>
      </trkpt>
      <trkpt lat="43.5470353066921234130859375" lon="-6.5334405563771724700927734375">
        <ele>21.200000762939453125</ele>
        <time>2019-07-11T09:48:34.000Z</time>
      </trkpt>
      <trkpt lat="43.54704477824270725250244140625" lon="-6.5333024226129055023193359375">
        <ele>20.6000003814697265625</ele>
        <time>2019-07-11T09:48:36.000Z</time>
      </trkpt>
      <trkpt lat="43.54703354649245738983154296875" lon="-6.53315532021224498748779296875">
        <ele>19.799999237060546875</ele>
        <time>2019-07-11T09:48:38.000Z</time>
      </trkpt>
      <trkpt lat="43.54702122509479522705078125" lon="-6.533076949417591094970703125">
        <ele>19.3999996185302734375</ele>
        <time>2019-07-11T09:48:39.000Z</time>
      </trkpt>
      <trkpt lat="43.547010831534862518310546875" lon="-6.532789282500743865966796875">
        <ele>18.200000762939453125</ele>
        <time>2019-07-11T09:48:42.000Z</time>
      </trkpt>
      <trkpt lat="43.5470334626734256744384765625" lon="-6.532597839832305908203125">
        <ele>17</ele>
        <time>2019-07-11T09:48:44.000Z</time>
      </trkpt>
      <trkpt lat="43.54704427532851696014404296875" lon="-6.532502286136150360107421875">
        <ele>16.3999996185302734375</ele>
        <time>2019-07-11T09:48:45.000Z</time>
      </trkpt>
      <trkpt lat="43.5470421798527240753173828125" lon="-6.532403714954853057861328125">
        <ele>15.80000019073486328125</ele>
        <time>2019-07-11T09:48:46.000Z</time>
      </trkpt>
      <trkpt lat="43.54702834971249103546142578125" lon="-6.53230170719325542449951171875">
        <ele>15.19999980926513671875</ele>
        <time>2019-07-11T09:48:47.000Z</time>
      </trkpt>
      <trkpt lat="43.54696682654321193695068359375" lon="-6.53213473968207836151123046875">
        <ele>14.6000003814697265625</ele>
        <time>2019-07-11T09:48:49.000Z</time>
      </trkpt>
      <trkpt lat="43.5469291917979717254638671875" lon="-6.5320598892867565155029296875">
        <ele>14.3999996185302734375</ele>
        <time>2019-07-11T09:48:50.000Z</time>
      </trkpt>
      <trkpt lat="43.5467286966741085052490234375" lon="-6.53182393871247768402099609375">
        <ele>13.19999980926513671875</ele>
        <time>2019-07-11T09:48:54.000Z</time>
      </trkpt>
      <trkpt lat="43.54667111299932003021240234375" lon="-6.53178387321531772613525390625">
        <ele>12.3999996185302734375</ele>
        <time>2019-07-11T09:48:55.000Z</time>
      </trkpt>
      <trkpt lat="43.5466133616864681243896484375" lon="-6.5317541174590587615966796875">
        <ele>11.3999996185302734375</ele>
        <time>2019-07-11T09:48:56.000Z</time>
      </trkpt>
      <trkpt lat="43.546560220420360565185546875" lon="-6.5317276306450366973876953125">
        <ele>10.6000003814697265625</ele>
        <time>2019-07-11T09:48:57.000Z</time>
      </trkpt>
      <trkpt lat="43.546507917344570159912109375" lon="-6.5317272953689098358154296875">
        <ele>10</ele>
        <time>2019-07-11T09:48:58.000Z</time>
      </trkpt>
      <trkpt lat="43.54634975083172321319580078125" lon="-6.53178454376757144927978515625">
        <ele>8.80000019073486328125</ele>
        <time>2019-07-11T09:49:02.000Z</time>
      </trkpt>
      <trkpt lat="43.54618345387279987335205078125" lon="-6.53183944523334503173828125">
        <ele>7.80000019073486328125</ele>
        <time>2019-07-11T09:49:06.000Z</time>
      </trkpt>
      <trkpt lat="43.5461367666721343994140625" lon="-6.531842462718486785888671875">
        <ele>7.599999904632568359375</ele>
        <time>2019-07-11T09:49:07.000Z</time>
      </trkpt>
      <trkpt lat="43.54562639258801937103271484375" lon="-6.53187221847474575042724609375">
        <ele>6.80000019073486328125</ele>
        <time>2019-07-11T09:49:15.000Z</time>
      </trkpt>
      <trkpt lat="43.5455652885138988494873046875" lon="-6.5318788401782512664794921875">
        <ele>6.80000019073486328125</ele>
        <time>2019-07-11T09:49:16.000Z</time>
      </trkpt>
      <trkpt lat="43.5455072857439517974853515625" lon="-6.53189308941364288330078125">
        <ele>6.80000019073486328125</ele>
        <time>2019-07-11T09:49:17.000Z</time>
      </trkpt>
      <trkpt lat="43.545411564409732818603515625" lon="-6.531938351690769195556640625">
        <ele>6.80000019073486328125</ele>
        <time>2019-07-11T09:49:19.000Z</time>
      </trkpt>
      <trkpt lat="43.545329757034778594970703125" lon="-6.53200850822031497955322265625">
        <ele>6.80000019073486328125</ele>
        <time>2019-07-11T09:49:21.000Z</time>
      </trkpt>
      <trkpt lat="43.54525658302009105682373046875" lon="-6.53211177326738834381103515625">
        <ele>7</ele>
        <time>2019-07-11T09:49:23.000Z</time>
      </trkpt>
      <trkpt lat="43.54520360939204692840576171875" lon="-6.53225510381162166595458984375">
        <ele>6.80000019073486328125</ele>
        <time>2019-07-11T09:49:25.000Z</time>
      </trkpt>
      <trkpt lat="43.5451086424291133880615234375" lon="-6.53283982537686824798583984375">
        <ele>6.599999904632568359375</ele>
        <time>2019-07-11T09:49:32.000Z</time>
      </trkpt>
      <trkpt lat="43.54515298269689083099365234375" lon="-6.53345815837383270263671875">
        <ele>6.599999904632568359375</ele>
        <time>2019-07-11T09:49:40.000Z</time>
      </trkpt>
      <trkpt lat="43.54514258913695812225341796875" lon="-6.53408554382622241973876953125">
        <ele>6.599999904632568359375</ele>
        <time>2019-07-11T09:49:48.000Z</time>
      </trkpt>
      <trkpt lat="43.54515516199171543121337890625" lon="-6.5342784114181995391845703125">
        <ele>7</ele>
        <time>2019-07-11T09:49:52.000Z</time>
      </trkpt>
      <trkpt lat="43.54507016949355602264404296875" lon="-6.53494200669229030609130859375">
        <ele>7</ele>
        <time>2019-07-11T09:50:00.000Z</time>
      </trkpt>
      <trkpt lat="43.54505055584013462066650390625" lon="-6.53504342772066593170166015625">
        <ele>7</ele>
        <time>2019-07-11T09:50:01.000Z</time>
      </trkpt>
      <trkpt lat="43.54494578205049037933349609375" lon="-6.5353398956358432769775390625">
        <ele>6.19999980926513671875</ele>
        <time>2019-07-11T09:50:04.000Z</time>
      </trkpt>
      <trkpt lat="43.54484721086919307708740234375" lon="-6.53554047457873821258544921875">
        <ele>5.599999904632568359375</ele>
        <time>2019-07-11T09:50:06.000Z</time>
      </trkpt>
      <trkpt lat="43.5447928123176097869873046875" lon="-6.5356302447617053985595703125">
        <ele>5.400000095367431640625</ele>
        <time>2019-07-11T09:50:07.000Z</time>
      </trkpt>
      <trkpt lat="43.54465140961110591888427734375" lon="-6.53579427860677242279052734375">
        <ele>5.80000019073486328125</ele>
        <time>2019-07-11T09:50:10.000Z</time>
      </trkpt>
      <trkpt lat="43.54456407018005847930908203125" lon="-6.53582797385752201080322265625">
        <ele>6.80000019073486328125</ele>
        <time>2019-07-11T09:50:13.000Z</time>
      </trkpt>
      <trkpt lat="43.54444253258407115936279296875" lon="-6.53574767522513866424560546875">
        <ele>7.599999904632568359375</ele>
        <time>2019-07-11T09:50:19.000Z</time>
      </trkpt>
      <trkpt lat="43.54438302107155323028564453125" lon="-6.53566117398440837860107421875">
        <ele>7.400000095367431640625</ele>
        <time>2019-07-11T09:50:28.000Z</time>
      </trkpt>
      <trkpt lat="43.5443576239049434661865234375" lon="-6.53561322949826717376708984375">
        <ele>7.400000095367431640625</ele>
        <time>2019-07-11T09:50:29.000Z</time>
      </trkpt>
      <trkpt lat="43.54424924589693546295166015625" lon="-6.53541122563183307647705078125">
        <ele>7</ele>
        <time>2019-07-11T09:50:33.000Z</time>
      </trkpt>
      <trkpt lat="43.54409359395503997802734375" lon="-6.5348121710121631622314453125">
        <ele>7.400000095367431640625</ele>
        <time>2019-07-11T09:50:41.000Z</time>
      </trkpt>
      <trkpt lat="43.54395118542015552520751953125" lon="-6.53417523019015789031982421875">
        <ele>7.19999980926513671875</ele>
        <time>2019-07-11T09:50:50.000Z</time>
      </trkpt>
      <trkpt lat="43.54387641884386539459228515625" lon="-6.53395730070769786834716796875">
        <ele>7</ele>
        <time>2019-07-11T09:50:53.000Z</time>
      </trkpt>
      <trkpt lat="43.5437708906829357147216796875" lon="-6.53375227935612201690673828125">
        <ele>7.19999980926513671875</ele>
        <time>2019-07-11T09:50:56.000Z</time>
      </trkpt>
      <trkpt lat="43.54367827065289020538330078125" lon="-6.5336397103965282440185546875">
        <ele>7.400000095367431640625</ele>
        <time>2019-07-11T09:50:58.000Z</time>
      </trkpt>
      <trkpt lat="43.54351029731333255767822265625" lon="-6.53354524634778499603271484375">
        <ele>7.80000019073486328125</ele>
        <time>2019-07-11T09:51:01.000Z</time>
      </trkpt>
      <trkpt lat="43.5430238954722881317138671875" lon="-6.53350434266030788421630859375">
        <ele>7.80000019073486328125</ele>
        <time>2019-07-11T09:51:10.000Z</time>
      </trkpt>
      <trkpt lat="43.5429020226001739501953125" lon="-6.533568464219570159912109375">
        <ele>7.80000019073486328125</ele>
        <time>2019-07-11T09:51:13.000Z</time>
      </trkpt>
      <trkpt lat="43.54271887801587581634521484375" lon="-6.5334777720272541046142578125">
        <ele>8.3999996185302734375</ele>
        <time>2019-07-11T09:51:19.000Z</time>
      </trkpt>
      <trkpt lat="43.54253849945962429046630859375" lon="-6.53350786305963993072509765625">
        <ele>9</ele>
        <time>2019-07-11T09:51:23.000Z</time>
      </trkpt>
      <trkpt lat="43.54244411922991275787353515625" lon="-6.53353753499686717987060546875">
        <ele>10.19999980926513671875</ele>
        <time>2019-07-11T09:51:27.000Z</time>
      </trkpt>
      <trkpt lat="43.5424405150115489959716796875" lon="-6.53354088775813579559326171875">
        <ele>11</ele>
        <time>2019-07-11T09:51:37.000Z</time>
      </trkpt>
      <trkpt lat="43.54244009591639041900634765625" lon="-6.53353996574878692626953125">
        <ele>11</ele>
        <time>2019-07-11T09:51:38.000Z</time>
      </trkpt>
      <trkpt lat="43.54235141538083553314208984375" lon="-6.53355874121189117431640625">
        <ele>11.19999980926513671875</ele>
        <time>2019-07-11T09:51:42.000Z</time>
      </trkpt>
      <trkpt lat="43.54217254556715488433837890625" lon="-6.53359721414744853973388671875">
        <ele>11.19999980926513671875</ele>
        <time>2019-07-11T09:51:46.000Z</time>
      </trkpt>
      <trkpt lat="43.54204463772475719451904296875" lon="-6.53363007120788097381591796875">
        <ele>11.19999980926513671875</ele>
        <time>2019-07-11T09:51:48.000Z</time>
      </trkpt>
      <trkpt lat="43.541616909205913543701171875" lon="-6.533841378986835479736328125">
        <ele>11.6000003814697265625</ele>
        <time>2019-07-11T09:51:55.000Z</time>
      </trkpt>
      <trkpt lat="43.54147902689874172210693359375" lon="-6.5339699573814868927001953125">
        <ele>12.3999996185302734375</ele>
        <time>2019-07-11T09:51:57.000Z</time>
      </trkpt>
      <trkpt lat="43.541137464344501495361328125" lon="-6.53440573252737522125244140625">
        <ele>12.6000003814697265625</ele>
        <time>2019-07-11T09:52:02.000Z</time>
      </trkpt>
      <trkpt lat="43.54079858399927616119384765625" lon="-6.5349107421934604644775390625">
        <ele>13.80000019073486328125</ele>
        <time>2019-07-11T09:52:07.000Z</time>
      </trkpt>
      <trkpt lat="43.54061610996723175048828125" lon="-6.535065807402133941650390625">
        <ele>14.6000003814697265625</ele>
        <time>2019-07-11T09:52:09.000Z</time>
      </trkpt>
      <trkpt lat="43.54051108472049236297607421875" lon="-6.53511668555438518524169921875">
        <ele>15</ele>
        <time>2019-07-11T09:52:10.000Z</time>
      </trkpt>
      <trkpt lat="43.5403990186750888824462890625" lon="-6.53513680212199687957763671875">
        <ele>15.6000003814697265625</ele>
        <time>2019-07-11T09:52:11.000Z</time>
      </trkpt>
      <trkpt lat="43.5402850247919559478759765625" lon="-6.5351310186088085174560546875">
        <ele>16.200000762939453125</ele>
        <time>2019-07-11T09:52:12.000Z</time>
      </trkpt>
      <trkpt lat="43.53993994183838367462158203125" lon="-6.53504845686256885528564453125">
        <ele>17.3999996185302734375</ele>
        <time>2019-07-11T09:52:15.000Z</time>
      </trkpt>
      <trkpt lat="43.5397257842123508453369140625" lon="-6.53495617210865020751953125">
        <ele>17.799999237060546875</ele>
        <time>2019-07-11T09:52:17.000Z</time>
      </trkpt>
      <trkpt lat="43.53957918472588062286376953125" lon="-6.53476246632635593414306640625">
        <ele>18.6000003814697265625</ele>
        <time>2019-07-11T09:52:19.000Z</time>
      </trkpt>
      <trkpt lat="43.53950676508247852325439453125" lon="-6.53451000340282917022705078125">
        <ele>20</ele>
        <time>2019-07-11T09:52:21.000Z</time>
      </trkpt>
      <trkpt lat="43.539487235248088836669921875" lon="-6.5342177264392375946044921875">
        <ele>21.6000003814697265625</ele>
        <time>2019-07-11T09:52:23.000Z</time>
      </trkpt>
      <trkpt lat="43.53939293883740901947021484375" lon="-6.5340135432779788970947265625">
        <ele>22.6000003814697265625</ele>
        <time>2019-07-11T09:52:25.000Z</time>
      </trkpt>
      <trkpt lat="43.5392396338284015655517578125" lon="-6.53387046419084072113037109375">
        <ele>23.6000003814697265625</ele>
        <time>2019-07-11T09:52:27.000Z</time>
      </trkpt>
      <trkpt lat="43.53914785198867321014404296875" lon="-6.533819250762462615966796875">
        <ele>24.200000762939453125</ele>
        <time>2019-07-11T09:52:28.000Z</time>
      </trkpt>
      <trkpt lat="43.5389549843966960906982421875" lon="-6.53371791355311870574951171875">
        <ele>25.6000003814697265625</ele>
        <time>2019-07-11T09:52:30.000Z</time>
      </trkpt>
      <trkpt lat="43.53886060416698455810546875" lon="-6.5336450748145580291748046875">
        <ele>25.799999237060546875</ele>
        <time>2019-07-11T09:52:31.000Z</time>
      </trkpt>
      <trkpt lat="43.53869204409420490264892578125" lon="-6.5334204398095607757568359375">
        <ele>26.799999237060546875</ele>
        <time>2019-07-11T09:52:33.000Z</time>
      </trkpt>
      <trkpt lat="43.5384386591613292694091796875" lon="-6.53298608958721160888671875">
        <ele>27.6000003814697265625</ele>
        <time>2019-07-11T09:52:36.000Z</time>
      </trkpt>
      <trkpt lat="43.53833296336233615875244140625" lon="-6.53287452645599842071533203125">
        <ele>28</ele>
        <time>2019-07-11T09:52:37.000Z</time>
      </trkpt>
      <trkpt lat="43.538225255906581878662109375" lon="-6.5327817387878894805908203125">
        <ele>28.3999996185302734375</ele>
        <time>2019-07-11T09:52:38.000Z</time>
      </trkpt>
      <trkpt lat="43.53800497949123382568359375" lon="-6.53262692503631114959716796875">
        <ele>29.799999237060546875</ele>
        <time>2019-07-11T09:52:40.000Z</time>
      </trkpt>
      <trkpt lat="43.5378955118358135223388671875" lon="-6.532553248107433319091796875">
        <ele>31.3999996185302734375</ele>
        <time>2019-07-11T09:52:41.000Z</time>
      </trkpt>
      <trkpt lat="43.5377892293035984039306640625" lon="-6.5324766375124454498291015625">
        <ele>33.59999847412109375</ele>
        <time>2019-07-11T09:52:42.000Z</time>
      </trkpt>
      <trkpt lat="43.53768713772296905517578125" lon="-6.5324008651077747344970703125">
        <ele>35.40000152587890625</ele>
        <time>2019-07-11T09:52:43.000Z</time>
      </trkpt>
      <trkpt lat="43.53747314773499965667724609375" lon="-6.53225007466971874237060546875">
        <ele>37</ele>
        <time>2019-07-11T09:52:45.000Z</time>
      </trkpt>
      <trkpt lat="43.53700309060513973236083984375" lon="-6.53192661702632904052734375">
        <ele>36.59999847412109375</ele>
        <time>2019-07-11T09:52:49.000Z</time>
      </trkpt>
      <trkpt lat="43.5368697345256805419921875" lon="-6.5318349190056324005126953125">
        <ele>36.40000152587890625</ele>
        <time>2019-07-11T09:52:50.000Z</time>
      </trkpt>
      <trkpt lat="43.53644569404423236846923828125" lon="-6.531496457755565643310546875">
        <ele>37.40000152587890625</ele>
        <time>2019-07-11T09:52:53.000Z</time>
      </trkpt>
      <trkpt lat="43.5360302031040191650390625" lon="-6.53111793100833892822265625">
        <ele>38.200000762939453125</ele>
        <time>2019-07-11T09:52:57.000Z</time>
      </trkpt>
      <trkpt lat="43.535929284989833831787109375" lon="-6.5310201980173587799072265625">
        <ele>40.799999237060546875</ele>
        <time>2019-07-11T09:52:59.000Z</time>
      </trkpt>
      <trkpt lat="43.5358898900449275970458984375" lon="-6.530987508594989776611328125">
        <ele>43</ele>
        <time>2019-07-11T09:53:00.000Z</time>
      </trkpt>
      <trkpt lat="43.53584655560553073883056640625" lon="-6.53095875866711139678955078125">
        <ele>45</ele>
        <time>2019-07-11T09:53:01.000Z</time>
      </trkpt>
      <trkpt lat="43.5357936657965183258056640625" lon="-6.53092640452086925506591796875">
        <ele>46.799999237060546875</ele>
        <time>2019-07-11T09:53:02.000Z</time>
      </trkpt>
      <trkpt lat="43.535659052431583404541015625" lon="-6.530847363173961639404296875">
        <ele>48.40000152587890625</ele>
        <time>2019-07-11T09:53:04.000Z</time>
      </trkpt>
      <trkpt lat="43.53548009879887104034423828125" lon="-6.53077670373022556304931640625">
        <ele>49.200000762939453125</ele>
        <time>2019-07-11T09:53:06.000Z</time>
      </trkpt>
      <trkpt lat="43.53537498973309993743896484375" lon="-6.53076119720935821533203125">
        <ele>49.59999847412109375</ele>
        <time>2019-07-11T09:53:07.000Z</time>
      </trkpt>
      <trkpt lat="43.53489822708070278167724609375" lon="-6.5307700820267200469970703125">
        <ele>48.799999237060546875</ele>
        <time>2019-07-11T09:53:11.000Z</time>
      </trkpt>
      <trkpt lat="43.5346755199134349822998046875" lon="-6.53078374452888965606689453125">
        <ele>48.799999237060546875</ele>
        <time>2019-07-11T09:53:13.000Z</time>
      </trkpt>
      <trkpt lat="43.53449287824332714080810546875" lon="-6.53069858439266681671142578125">
        <ele>49.200000762939453125</ele>
        <time>2019-07-11T09:53:15.000Z</time>
      </trkpt>
      <trkpt lat="43.53440101258456707000732421875" lon="-6.5305015258491039276123046875">
        <ele>51</ele>
        <time>2019-07-11T09:53:17.000Z</time>
      </trkpt>
      <trkpt lat="43.53439070284366607666015625" lon="-6.5303674153983592987060546875">
        <ele>52.40000152587890625</ele>
        <time>2019-07-11T09:53:18.000Z</time>
      </trkpt>
      <trkpt lat="43.5343913733959197998046875" lon="-6.53022877871990203857421875">
        <ele>53.40000152587890625</ele>
        <time>2019-07-11T09:53:19.000Z</time>
      </trkpt>
      <trkpt lat="43.5343881882727146148681640625" lon="-6.52995024807751178741455078125">
        <ele>55.200000762939453125</ele>
        <time>2019-07-11T09:53:21.000Z</time>
      </trkpt>
      <trkpt lat="43.5343177802860736846923828125" lon="-6.52975813485682010650634765625">
        <ele>56.59999847412109375</ele>
        <time>2019-07-11T09:53:23.000Z</time>
      </trkpt>
      <trkpt lat="43.5341903753578662872314453125" lon="-6.52968269772827625274658203125">
        <ele>58</ele>
        <time>2019-07-11T09:53:25.000Z</time>
      </trkpt>
      <trkpt lat="43.53405584581196308135986328125" lon="-6.52976341545581817626953125">
        <ele>59.200000762939453125</ele>
        <time>2019-07-11T09:53:27.000Z</time>
      </trkpt>
      <trkpt lat="43.53391729295253753662109375" lon="-6.52992434799671173095703125">
        <ele>60.59999847412109375</ele>
        <time>2019-07-11T09:53:29.000Z</time>
      </trkpt>
      <trkpt lat="43.53375627659261226654052734375" lon="-6.5300945006310939788818359375">
        <ele>62</ele>
        <time>2019-07-11T09:53:31.000Z</time>
      </trkpt>
      <trkpt lat="43.533365763723850250244140625" lon="-6.53050764463841915130615234375">
        <ele>62.799999237060546875</ele>
        <time>2019-07-11T09:53:35.000Z</time>
      </trkpt>
      <trkpt lat="43.53316468186676502227783203125" lon="-6.5306906215846538543701171875">
        <ele>63.200000762939453125</ele>
        <time>2019-07-11T09:53:37.000Z</time>
      </trkpt>
      <trkpt lat="43.53306208737194538116455078125" lon="-6.53075717389583587646484375">
        <ele>63.40000152587890625</ele>
        <time>2019-07-11T09:53:38.000Z</time>
      </trkpt>
      <trkpt lat="43.532951362431049346923828125" lon="-6.5308047831058502197265625">
        <ele>64</ele>
        <time>2019-07-11T09:53:39.000Z</time>
      </trkpt>
      <trkpt lat="43.532831668853759765625" lon="-6.53083001263439655303955078125">
        <ele>64.8000030517578125</ele>
        <time>2019-07-11T09:53:40.000Z</time>
      </trkpt>
      <trkpt lat="43.532575853168964385986328125" lon="-6.53079480864107608795166015625">
        <ele>66</ele>
        <time>2019-07-11T09:53:42.000Z</time>
      </trkpt>
      <trkpt lat="43.53234292007982730865478515625" lon="-6.53066572733223438262939453125">
        <ele>67.1999969482421875</ele>
        <time>2019-07-11T09:53:44.000Z</time>
      </trkpt>
      <trkpt lat="43.53226027451455593109130859375" lon="-6.53057268820703029632568359375">
        <ele>67.8000030517578125</ele>
        <time>2019-07-11T09:53:45.000Z</time>
      </trkpt>
      <trkpt lat="43.532217107713222503662109375" lon="-6.53045349754393100738525390625">
        <ele>68.1999969482421875</ele>
        <time>2019-07-11T09:53:46.000Z</time>
      </trkpt>
      <trkpt lat="43.5322080552577972412109375" lon="-6.53032676316797733306884765625">
        <ele>68.8000030517578125</ele>
        <time>2019-07-11T09:53:47.000Z</time>
      </trkpt>
      <trkpt lat="43.5322199575603008270263671875" lon="-6.53020606376230716705322265625">
        <ele>69.59999847412109375</ele>
        <time>2019-07-11T09:53:48.000Z</time>
      </trkpt>
      <trkpt lat="43.5322751104831695556640625" lon="-6.530060805380344390869140625">
        <ele>70.8000030517578125</ele>
        <time>2019-07-11T09:53:49.000Z</time>
      </trkpt>
      <trkpt lat="43.5323419980704784393310546875" lon="-6.52990967966616153717041015625">
        <ele>72</ele>
        <time>2019-07-11T09:53:50.000Z</time>
      </trkpt>
      <trkpt lat="43.53247837163507938385009765625" lon="-6.5295530296862125396728515625">
        <ele>73.1999969482421875</ele>
        <time>2019-07-11T09:53:52.000Z</time>
      </trkpt>
      <trkpt lat="43.5326222889125347137451171875" lon="-6.52914105914533138275146484375">
        <ele>74.40000152587890625</ele>
        <time>2019-07-11T09:53:54.000Z</time>
      </trkpt>
      <trkpt lat="43.5328697226941585540771484375" lon="-6.52851275168359279632568359375">
        <ele>75.40000152587890625</ele>
        <time>2019-07-11T09:53:57.000Z</time>
      </trkpt>
      <trkpt lat="43.533033840358257293701171875" lon="-6.52809751220047473907470703125">
        <ele>76.8000030517578125</ele>
        <time>2019-07-11T09:53:59.000Z</time>
      </trkpt>
      <trkpt lat="43.53318681009113788604736328125" lon="-6.52769367210566997528076171875">
        <ele>78.1999969482421875</ele>
        <time>2019-07-11T09:54:01.000Z</time>
      </trkpt>
      <trkpt lat="43.53333550505340099334716796875" lon="-6.52729955501854419708251953125">
        <ele>79.8000030517578125</ele>
        <time>2019-07-11T09:54:03.000Z</time>
      </trkpt>
      <trkpt lat="43.53348218835890293121337890625" lon="-6.526921279728412628173828125">
        <ele>81.40000152587890625</ele>
        <time>2019-07-11T09:54:05.000Z</time>
      </trkpt>
      <trkpt lat="43.53368368931114673614501953125" lon="-6.52638508938252925872802734375">
        <ele>82.8000030517578125</ele>
        <time>2019-07-11T09:54:08.000Z</time>
      </trkpt>
      <trkpt lat="43.5338074900209903717041015625" lon="-6.52605526149272918701171875">
        <ele>83.8000030517578125</ele>
        <time>2019-07-11T09:54:10.000Z</time>
      </trkpt>
      <trkpt lat="43.534048385918140411376953125" lon="-6.52541547082364559173583984375">
        <ele>83.8000030517578125</ele>
        <time>2019-07-11T09:54:14.000Z</time>
      </trkpt>
      <trkpt lat="43.53427561931312084197998046875" lon="-6.52481281198561191558837890625">
        <ele>83.59999847412109375</ele>
        <time>2019-07-11T09:54:18.000Z</time>
      </trkpt>
      <trkpt lat="43.534376621246337890625" lon="-6.5244997479021549224853515625">
        <ele>84.8000030517578125</ele>
        <time>2019-07-11T09:54:20.000Z</time>
      </trkpt>
      <trkpt lat="43.53441140614449977874755859375" lon="-6.52432121336460113525390625">
        <ele>85.40000152587890625</ele>
        <time>2019-07-11T09:54:21.000Z</time>
      </trkpt>
      <trkpt lat="43.534484915435314178466796875" lon="-6.52351847849786281585693359375">
        <ele>86.1999969482421875</ele>
        <time>2019-07-11T09:54:25.000Z</time>
      </trkpt>
      <trkpt lat="43.53455708362162113189697265625" lon="-6.52271415106952190399169921875">
        <ele>84.1999969482421875</ele>
        <time>2019-07-11T09:54:29.000Z</time>
      </trkpt>
      <trkpt lat="43.53462447412312030792236328125" lon="-6.52189088054001331329345703125">
        <ele>84.59999847412109375</ele>
        <time>2019-07-11T09:54:33.000Z</time>
      </trkpt>
      <trkpt lat="43.5346783697605133056640625" lon="-6.521269865334033966064453125">
        <ele>85</ele>
        <time>2019-07-11T09:54:36.000Z</time>
      </trkpt>
      <trkpt lat="43.53471248410642147064208984375" lon="-6.52086795307695865631103515625">
        <ele>84.40000152587890625</ele>
        <time>2019-07-11T09:54:38.000Z</time>
      </trkpt>
      <trkpt lat="43.53477836586534976959228515625" lon="-6.5200905315577983856201171875">
        <ele>84.8000030517578125</ele>
        <time>2019-07-11T09:54:42.000Z</time>
      </trkpt>
      <trkpt lat="43.5348431579768657684326171875" lon="-6.5193378366529941558837890625">
        <ele>85.40000152587890625</ele>
        <time>2019-07-11T09:54:46.000Z</time>
      </trkpt>
      <trkpt lat="43.53490845300257205963134765625" lon="-6.51856116950511932373046875">
        <ele>84.59999847412109375</ele>
        <time>2019-07-11T09:54:50.000Z</time>
      </trkpt>
      <trkpt lat="43.53496201336383819580078125" lon="-6.51797787286341190338134765625">
        <ele>84.1999969482421875</ele>
        <time>2019-07-11T09:54:53.000Z</time>
      </trkpt>
      <trkpt lat="43.53501674719154834747314453125" lon="-6.517357192933559417724609375">
        <ele>84.59999847412109375</ele>
        <time>2019-07-11T09:54:56.000Z</time>
      </trkpt>
      <trkpt lat="43.53505211882293224334716796875" lon="-6.5169446356594562530517578125">
        <ele>83.1999969482421875</ele>
        <time>2019-07-11T09:54:58.000Z</time>
      </trkpt>
      <trkpt lat="43.53509880602359771728515625" lon="-6.51630853302776813507080078125">
        <ele>83</ele>
        <time>2019-07-11T09:55:01.000Z</time>
      </trkpt>
      <trkpt lat="43.53513577021658420562744140625" lon="-6.5156417526304721832275390625">
        <ele>84.1999969482421875</ele>
        <time>2019-07-11T09:55:04.000Z</time>
      </trkpt>
      <trkpt lat="43.53518539108335971832275390625" lon="-6.5149440430104732513427734375">
        <ele>84.59999847412109375</ele>
        <time>2019-07-11T09:55:07.000Z</time>
      </trkpt>
      <trkpt lat="43.5352468304336071014404296875" lon="-6.514222361147403717041015625">
        <ele>84.1999969482421875</ele>
        <time>2019-07-11T09:55:10.000Z</time>
      </trkpt>
      <trkpt lat="43.53530860505998134613037109375" lon="-6.51353211142122745513916015625">
        <ele>85</ele>
        <time>2019-07-11T09:55:13.000Z</time>
      </trkpt>
      <trkpt lat="43.53532805107533931732177734375" lon="-6.51331267319619655609130859375">
        <ele>85.59999847412109375</ele>
        <time>2019-07-11T09:55:14.000Z</time>
      </trkpt>
      <trkpt lat="43.5353722237050533294677734375" lon="-6.5128747187554836273193359375">
        <ele>86.8000030517578125</ele>
        <time>2019-07-11T09:55:16.000Z</time>
      </trkpt>
      <trkpt lat="43.53543835692107677459716796875" lon="-6.51244732551276683807373046875">
        <ele>88.8000030517578125</ele>
        <time>2019-07-11T09:55:18.000Z</time>
      </trkpt>
      <trkpt lat="43.5355190746486186981201171875" lon="-6.51179119013249874114990234375">
        <ele>88.40000152587890625</ele>
        <time>2019-07-11T09:55:21.000Z</time>
      </trkpt>
      <trkpt lat="43.53557062335312366485595703125" lon="-6.51113103143870830535888671875">
        <ele>89.59999847412109375</ele>
        <time>2019-07-11T09:55:24.000Z</time>
      </trkpt>
      <trkpt lat="43.5356307215988636016845703125" lon="-6.51047833263874053955078125">
        <ele>89</ele>
        <time>2019-07-11T09:55:27.000Z</time>
      </trkpt>
      <trkpt lat="43.53570624254643917083740234375" lon="-6.509685404598712921142578125">
        <ele>89</ele>
        <time>2019-07-11T09:55:31.000Z</time>
      </trkpt>
      <trkpt lat="43.53572501800954341888427734375" lon="-6.5094978176057338714599609375">
        <ele>90.8000030517578125</ele>
        <time>2019-07-11T09:55:32.000Z</time>
      </trkpt>
      <trkpt lat="43.53574312292039394378662109375" lon="-6.50930427946150302886962890625">
        <ele>92</ele>
        <time>2019-07-11T09:55:33.000Z</time>
      </trkpt>
      <trkpt lat="43.53576055727899074554443359375" lon="-6.509106047451496124267578125">
        <ele>94</ele>
        <time>2019-07-11T09:55:34.000Z</time>
      </trkpt>
      <trkpt lat="43.53582409210503101348876953125" lon="-6.50846022181212902069091796875">
        <ele>93.1999969482421875</ele>
        <time>2019-07-11T09:55:37.000Z</time>
      </trkpt>
      <trkpt lat="43.53583985008299350738525390625" lon="-6.5082200802862644195556640625">
        <ele>92.1999969482421875</ele>
        <time>2019-07-11T09:55:38.000Z</time>
      </trkpt>
      <trkpt lat="43.5358593799173831939697265625" lon="-6.5079729817807674407958984375">
        <ele>90.8000030517578125</ele>
        <time>2019-07-11T09:55:39.000Z</time>
      </trkpt>
      <trkpt lat="43.535882346332073211669921875" lon="-6.50772663764655590057373046875">
        <ele>89.59999847412109375</ele>
        <time>2019-07-11T09:55:40.000Z</time>
      </trkpt>
      <trkpt lat="43.53590288199484348297119140625" lon="-6.50748775340616703033447265625">
        <ele>88.40000152587890625</ele>
        <time>2019-07-11T09:55:41.000Z</time>
      </trkpt>
      <trkpt lat="43.53595619089901447296142578125" lon="-6.5068306960165500640869140625">
        <ele>88.8000030517578125</ele>
        <time>2019-07-11T09:55:44.000Z</time>
      </trkpt>
      <trkpt lat="43.53601771406829357147216796875" lon="-6.50617347098886966705322265625">
        <ele>89.59999847412109375</ele>
        <time>2019-07-11T09:55:47.000Z</time>
      </trkpt>
      <trkpt lat="43.53607974015176296234130859375" lon="-6.50552068836987018585205078125">
        <ele>90.1999969482421875</ele>
        <time>2019-07-11T09:55:50.000Z</time>
      </trkpt>
      <trkpt lat="43.5361188836395740509033203125" lon="-6.50510452687740325927734375">
        <ele>91</ele>
        <time>2019-07-11T09:55:52.000Z</time>
      </trkpt>
      <trkpt lat="43.5361550934612751007080078125" lon="-6.50470353662967681884765625">
        <ele>92.8000030517578125</ele>
        <time>2019-07-11T09:55:54.000Z</time>
      </trkpt>
      <trkpt lat="43.53618702851235866546630859375" lon="-6.50432760827243328094482421875">
        <ele>93.8000030517578125</ele>
        <time>2019-07-11T09:55:56.000Z</time>
      </trkpt>
      <trkpt lat="43.53623782284557819366455078125" lon="-6.50378278456628322601318359375">
        <ele>95.1999969482421875</ele>
        <time>2019-07-11T09:55:59.000Z</time>
      </trkpt>
      <trkpt lat="43.53626556694507598876953125" lon="-6.50343996472656726837158203125">
        <ele>96.59999847412109375</ele>
        <time>2019-07-11T09:56:01.000Z</time>
      </trkpt>
      <trkpt lat="43.5362690873444080352783203125" lon="-6.50328707881271839141845703125">
        <ele>97.40000152587890625</ele>
        <time>2019-07-11T09:56:02.000Z</time>
      </trkpt>
      <trkpt lat="43.5362617112696170806884765625" lon="-6.5031517110764980316162109375">
        <ele>98.1999969482421875</ele>
        <time>2019-07-11T09:56:03.000Z</time>
      </trkpt>
      <trkpt lat="43.53624369017779827117919921875" lon="-6.5030336938798427581787109375">
        <ele>98.59999847412109375</ele>
        <time>2019-07-11T09:56:04.000Z</time>
      </trkpt>
      <trkpt lat="43.53619717061519622802734375" lon="-6.502824313938617706298828125">
        <ele>99.8000030517578125</ele>
        <time>2019-07-11T09:56:06.000Z</time>
      </trkpt>
      <trkpt lat="43.5361991822719573974609375" lon="-6.50259800255298614501953125">
        <ele>101.40000152587890625</ele>
        <time>2019-07-11T09:56:08.000Z</time>
      </trkpt>
      <trkpt lat="43.53632298298180103302001953125" lon="-6.5021901391446590423583984375">
        <ele>102</ele>
        <time>2019-07-11T09:56:11.000Z</time>
      </trkpt>
      <trkpt lat="43.536423146724700927734375" lon="-6.50143484584987163543701171875">
        <ele>101.1999969482421875</ele>
        <time>2019-07-11T09:56:15.000Z</time>
      </trkpt>
      <trkpt lat="43.53650805540382862091064453125" lon="-6.5006354637444019317626953125">
        <ele>101.59999847412109375</ele>
        <time>2019-07-11T09:56:19.000Z</time>
      </trkpt>
      <trkpt lat="43.5365597717463970184326171875" lon="-6.5002106688916683197021484375">
        <ele>103.1999969482421875</ele>
        <time>2019-07-11T09:56:21.000Z</time>
      </trkpt>
      <trkpt lat="43.53662230074405670166015625" lon="-6.49956400506198406219482421875">
        <ele>104.1999969482421875</ele>
        <time>2019-07-11T09:56:24.000Z</time>
      </trkpt>
      <trkpt lat="43.5366573370993137359619140625" lon="-6.4991252124309539794921875">
        <ele>105.59999847412109375</ele>
        <time>2019-07-11T09:56:26.000Z</time>
      </trkpt>
      <trkpt lat="43.53670804761350154876708984375" lon="-6.4984622038900852203369140625">
        <ele>106.40000152587890625</ele>
        <time>2019-07-11T09:56:29.000Z</time>
      </trkpt>
      <trkpt lat="43.53674006648361682891845703125" lon="-6.49802525527775287628173828125">
        <ele>106.8000030517578125</ele>
        <time>2019-07-11T09:56:31.000Z</time>
      </trkpt>
      <trkpt lat="43.53680142201483249664306640625" lon="-6.497390829026699066162109375">
        <ele>108.59999847412109375</ele>
        <time>2019-07-11T09:56:34.000Z</time>
      </trkpt>
      <trkpt lat="43.536825813353061676025390625" lon="-6.4971848018467426300048828125">
        <ele>109.8000030517578125</ele>
        <time>2019-07-11T09:56:35.000Z</time>
      </trkpt>
      <trkpt lat="43.5368514619767665863037109375" lon="-6.4969786070287227630615234375">
        <ele>111</ele>
        <time>2019-07-11T09:56:36.000Z</time>
      </trkpt>
      <trkpt lat="43.53689244948327541351318359375" lon="-6.49656160734593868255615234375">
        <ele>112.40000152587890625</ele>
        <time>2019-07-11T09:56:38.000Z</time>
      </trkpt>
      <trkpt lat="43.5369158349931240081787109375" lon="-6.49614335037767887115478515625">
        <ele>114</ele>
        <time>2019-07-11T09:56:40.000Z</time>
      </trkpt>
      <trkpt lat="43.536951877176761627197265625" lon="-6.49551160633563995361328125">
        <ele>115.59999847412109375</ele>
        <time>2019-07-11T09:56:43.000Z</time>
      </trkpt>
      <trkpt lat="43.53698180057108402252197265625" lon="-6.49508035741746425628662109375">
        <ele>117</ele>
        <time>2019-07-11T09:56:45.000Z</time>
      </trkpt>
      <trkpt lat="43.537015579640865325927734375" lon="-6.4943899400532245635986328125">
        <ele>117.8000030517578125</ele>
        <time>2019-07-11T09:56:48.000Z</time>
      </trkpt>
      <trkpt lat="43.53703477419912815093994140625" lon="-6.49415298365056514739990234375">
        <ele>118.1999969482421875</ele>
        <time>2019-07-11T09:56:49.000Z</time>
      </trkpt>
      <trkpt lat="43.5371030867099761962890625" lon="-6.493423841893672943115234375">
        <ele>118.59999847412109375</ele>
        <time>2019-07-11T09:56:52.000Z</time>
      </trkpt>
      <trkpt lat="43.537167124450206756591796875" lon="-6.492684893310070037841796875">
        <ele>119</ele>
        <time>2019-07-11T09:56:55.000Z</time>
      </trkpt>
      <trkpt lat="43.53724080137908458709716796875" lon="-6.49194753728806972503662109375">
        <ele>119.1999969482421875</ele>
        <time>2019-07-11T09:56:58.000Z</time>
      </trkpt>
      <trkpt lat="43.53726795874536037445068359375" lon="-6.49172491393983364105224609375">
        <ele>119.1999969482421875</ele>
        <time>2019-07-11T09:56:59.000Z</time>
      </trkpt>
      <trkpt lat="43.537334091961383819580078125" lon="-6.4910214208066463470458984375">
        <ele>120</ele>
        <time>2019-07-11T09:57:02.000Z</time>
      </trkpt>
      <trkpt lat="43.53736686520278453826904296875" lon="-6.49030669592320919036865234375">
        <ele>120</ele>
        <time>2019-07-11T09:57:05.000Z</time>
      </trkpt>
      <trkpt lat="43.5373278893530368804931640625" lon="-6.48985776118934154510498046875">
        <ele>119.8000030517578125</ele>
        <time>2019-07-11T09:57:07.000Z</time>
      </trkpt>
      <trkpt lat="43.53716352023184299468994140625" lon="-6.48919994942843914031982421875">
        <ele>118.59999847412109375</ele>
        <time>2019-07-11T09:57:10.000Z</time>
      </trkpt>
      <trkpt lat="43.53708858601748943328857421875" lon="-6.488989479839801788330078125">
        <ele>118</ele>
        <time>2019-07-11T09:57:11.000Z</time>
      </trkpt>
      <trkpt lat="43.5369386337697505950927734375" lon="-6.48861036635935306549072265625">
        <ele>117</ele>
        <time>2019-07-11T09:57:13.000Z</time>
      </trkpt>
      <trkpt lat="43.53685221634805202484130859375" lon="-6.4884354360401630401611328125">
        <ele>116.8000030517578125</ele>
        <time>2019-07-11T09:57:14.000Z</time>
      </trkpt>
      <trkpt lat="43.53662456385791301727294921875" lon="-6.48815539665520191192626953125">
        <ele>117.1999969482421875</ele>
        <time>2019-07-11T09:57:16.000Z</time>
      </trkpt>
      <trkpt lat="43.536312840878963470458984375" lon="-6.48800821043550968170166015625">
        <ele>117.59999847412109375</ele>
        <time>2019-07-11T09:57:18.000Z</time>
      </trkpt>
      <trkpt lat="43.53614059276878833770751953125" lon="-6.4879687316715717315673828125">
        <ele>117.59999847412109375</ele>
        <time>2019-07-11T09:57:19.000Z</time>
      </trkpt>
      <trkpt lat="43.5356761515140533447265625" lon="-6.48784308694303035736083984375">
        <ele>115.8000030517578125</ele>
        <time>2019-07-11T09:57:22.000Z</time>
      </trkpt>
      <trkpt lat="43.5353993810713291168212890625" lon="-6.48772087879478931427001953125">
        <ele>114.1999969482421875</ele>
        <time>2019-07-11T09:57:24.000Z</time>
      </trkpt>
      <trkpt lat="43.535164184868335723876953125" lon="-6.4874966628849506378173828125">
        <ele>112.59999847412109375</ele>
        <time>2019-07-11T09:57:26.000Z</time>
      </trkpt>
      <trkpt lat="43.53498883545398712158203125" lon="-6.4871925674378871917724609375">
        <ele>111.8000030517578125</ele>
        <time>2019-07-11T09:57:28.000Z</time>
      </trkpt>
      <trkpt lat="43.53490744717419147491455078125" lon="-6.4867842011153697967529296875">
        <ele>111.59999847412109375</ele>
        <time>2019-07-11T09:57:30.000Z</time>
      </trkpt>
      <trkpt lat="43.534903340041637420654296875" lon="-6.4865548722445964813232421875">
        <ele>111.40000152587890625</ele>
        <time>2019-07-11T09:57:31.000Z</time>
      </trkpt>
      <trkpt lat="43.53492823429405689239501953125" lon="-6.48632638156414031982421875">
        <ele>111.59999847412109375</ele>
        <time>2019-07-11T09:57:32.000Z</time>
      </trkpt>
      <trkpt lat="43.535044156014919281005859375" lon="-6.48589630611240863800048828125">
        <ele>111.59999847412109375</ele>
        <time>2019-07-11T09:57:34.000Z</time>
      </trkpt>
      <trkpt lat="43.53526988066732883453369140625" lon="-6.4855346269905567169189453125">
        <ele>111</ele>
        <time>2019-07-11T09:57:36.000Z</time>
      </trkpt>
      <trkpt lat="43.535663746297359466552734375" lon="-6.48506574332714080810546875">
        <ele>112.1999969482421875</ele>
        <time>2019-07-11T09:57:39.000Z</time>
      </trkpt>
      <trkpt lat="43.5357820987701416015625" lon="-6.48491729982197284698486328125">
        <ele>112.59999847412109375</ele>
        <time>2019-07-11T09:57:40.000Z</time>
      </trkpt>
      <trkpt lat="43.53589181788265705108642578125" lon="-6.484777741134166717529296875">
        <ele>113.8000030517578125</ele>
        <time>2019-07-11T09:57:41.000Z</time>
      </trkpt>
      <trkpt lat="43.5359924845397472381591796875" lon="-6.48464597761631011962890625">
        <ele>115.1999969482421875</ele>
        <time>2019-07-11T09:57:42.000Z</time>
      </trkpt>
      <trkpt lat="43.536189459264278411865234375" lon="-6.48439460434019565582275390625">
        <ele>117.1999969482421875</ele>
        <time>2019-07-11T09:57:44.000Z</time>
      </trkpt>
      <trkpt lat="43.53628476150333881378173828125" lon="-6.48426686413586139678955078125">
        <ele>118.8000030517578125</ele>
        <time>2019-07-11T09:57:45.000Z</time>
      </trkpt>
      <trkpt lat="43.53637880645692348480224609375" lon="-6.484144739806652069091796875">
        <ele>120.40000152587890625</ele>
        <time>2019-07-11T09:57:46.000Z</time>
      </trkpt>
      <trkpt lat="43.5365644656121730804443359375" lon="-6.48391247726976871490478515625">
        <ele>121.59999847412109375</ele>
        <time>2019-07-11T09:57:48.000Z</time>
      </trkpt>
      <trkpt lat="43.5367998294532299041748046875" lon="-6.4837616868317127227783203125">
        <ele>120.8000030517578125</ele>
        <time>2019-07-11T09:57:50.000Z</time>
      </trkpt>
      <trkpt lat="43.5369356162846088409423828125" lon="-6.4837204478681087493896484375">
        <ele>120.1999969482421875</ele>
        <time>2019-07-11T09:57:51.000Z</time>
      </trkpt>
      <trkpt lat="43.53708623908460140228271484375" lon="-6.4837070368230342864990234375">
        <ele>119.8000030517578125</ele>
        <time>2019-07-11T09:57:52.000Z</time>
      </trkpt>
      <trkpt lat="43.53740408085286617279052734375" lon="-6.48373092524707317352294921875">
        <ele>118.8000030517578125</ele>
        <time>2019-07-11T09:57:54.000Z</time>
      </trkpt>
      <trkpt lat="43.537707589566707611083984375" lon="-6.48381977342069149017333984375">
        <ele>117</ele>
        <time>2019-07-11T09:57:56.000Z</time>
      </trkpt>
      <trkpt lat="43.53798259980976581573486328125" lon="-6.48388096131384372711181640625">
        <ele>116.1999969482421875</ele>
        <time>2019-07-11T09:57:58.000Z</time>
      </trkpt>
      <trkpt lat="43.53825383819639682769775390625" lon="-6.48384290747344493865966796875">
        <ele>116.1999969482421875</ele>
        <time>2019-07-11T09:58:00.000Z</time>
      </trkpt>
      <trkpt lat="43.53852591477334499359130859375" lon="-6.48364291526377201080322265625">
        <ele>116.1999969482421875</ele>
        <time>2019-07-11T09:58:02.000Z</time>
      </trkpt>
      <trkpt lat="43.53881098330020904541015625" lon="-6.4833109080791473388671875">
        <ele>115.8000030517578125</ele>
        <time>2019-07-11T09:58:04.000Z</time>
      </trkpt>
      <trkpt lat="43.53909973986446857452392578125" lon="-6.48295928724110126495361328125">
        <ele>113.59999847412109375</ele>
        <time>2019-07-11T09:58:06.000Z</time>
      </trkpt>
      <trkpt lat="43.53924860246479511260986328125" lon="-6.482776142656803131103515625">
        <ele>112.59999847412109375</ele>
        <time>2019-07-11T09:58:07.000Z</time>
      </trkpt>
      <trkpt lat="43.53952637873589992523193359375" lon="-6.4824262820184230804443359375">
        <ele>111</ele>
        <time>2019-07-11T09:58:09.000Z</time>
      </trkpt>
      <trkpt lat="43.53991731069982051849365234375" lon="-6.48194457404315471649169921875">
        <ele>110.40000152587890625</ele>
        <time>2019-07-11T09:58:12.000Z</time>
      </trkpt>
      <trkpt lat="43.5400580428540706634521484375" lon="-6.48181951604783535003662109375">
        <ele>111</ele>
        <time>2019-07-11T09:58:13.000Z</time>
      </trkpt>
      <trkpt lat="43.54037295095622539520263671875" lon="-6.48168481886386871337890625">
        <ele>109.8000030517578125</ele>
        <time>2019-07-11T09:58:15.000Z</time>
      </trkpt>
      <trkpt lat="43.54070370085537433624267578125" lon="-6.481638215482234954833984375">
        <ele>108.59999847412109375</ele>
        <time>2019-07-11T09:58:17.000Z</time>
      </trkpt>
      <trkpt lat="43.5410253144800662994384765625" lon="-6.4815864153206348419189453125">
        <ele>107.1999969482421875</ele>
        <time>2019-07-11T09:58:19.000Z</time>
      </trkpt>
      <trkpt lat="43.54130786843597888946533203125" lon="-6.48141886107623577117919921875">
        <ele>106.59999847412109375</ele>
        <time>2019-07-11T09:58:21.000Z</time>
      </trkpt>
      <trkpt lat="43.541688658297061920166015625" lon="-6.48100647144019603729248046875">
        <ele>106.40000152587890625</ele>
        <time>2019-07-11T09:58:24.000Z</time>
      </trkpt>
      <trkpt lat="43.5420463979244232177734375" lon="-6.4805792458355426788330078125">
        <ele>105.8000030517578125</ele>
        <time>2019-07-11T09:58:27.000Z</time>
      </trkpt>
      <trkpt lat="43.54226005263626575469970703125" lon="-6.4803160540759563446044921875">
        <ele>103.8000030517578125</ele>
        <time>2019-07-11T09:58:29.000Z</time>
      </trkpt>
      <trkpt lat="43.5425667464733123779296875" lon="-6.47993995808064937591552734375">
        <ele>102.8000030517578125</ele>
        <time>2019-07-11T09:58:32.000Z</time>
      </trkpt>
      <trkpt lat="43.54297368787229061126708984375" lon="-6.479418016970157623291015625">
        <ele>102.40000152587890625</ele>
        <time>2019-07-11T09:58:36.000Z</time>
      </trkpt>
      <trkpt lat="43.54311265982687473297119140625" lon="-6.47910377942025661468505859375">
        <ele>102.59999847412109375</ele>
        <time>2019-07-11T09:58:38.000Z</time>
      </trkpt>
      <trkpt lat="43.54316999204456806182861328125" lon="-6.478760540485382080078125">
        <ele>102.40000152587890625</ele>
        <time>2019-07-11T09:58:40.000Z</time>
      </trkpt>
      <trkpt lat="43.5431702435016632080078125" lon="-6.4785786531865596771240234375">
        <ele>101.8000030517578125</ele>
        <time>2019-07-11T09:58:41.000Z</time>
      </trkpt>
      <trkpt lat="43.54315373115241527557373046875" lon="-6.4783917367458343505859375">
        <ele>101.40000152587890625</ele>
        <time>2019-07-11T09:58:42.000Z</time>
      </trkpt>
      <trkpt lat="43.543092124164104461669921875" lon="-6.4780060015618801116943359375">
        <ele>100.59999847412109375</ele>
        <time>2019-07-11T09:58:44.000Z</time>
      </trkpt>
      <trkpt lat="43.54305583052337169647216796875" lon="-6.477810703217983245849609375">
        <ele>99.8000030517578125</ele>
        <time>2019-07-11T09:58:45.000Z</time>
      </trkpt>
      <trkpt lat="43.54301911778748035430908203125" lon="-6.47761599160730838775634765625">
        <ele>99.1999969482421875</ele>
        <time>2019-07-11T09:58:46.000Z</time>
      </trkpt>
      <trkpt lat="43.54296312667429447174072265625" lon="-6.47722807712852954864501953125">
        <ele>97.40000152587890625</ele>
        <time>2019-07-11T09:58:48.000Z</time>
      </trkpt>
      <trkpt lat="43.54295457713305950164794921875" lon="-6.47703076712787151336669921875">
        <ele>97</ele>
        <time>2019-07-11T09:58:49.000Z</time>
      </trkpt>
      <trkpt lat="43.54295994155108928680419921875" lon="-6.47682993672788143157958984375">
        <ele>96.40000152587890625</ele>
        <time>2019-07-11T09:58:50.000Z</time>
      </trkpt>
      <trkpt lat="43.54298986494541168212890625" lon="-6.47661854512989521026611328125">
        <ele>95.8000030517578125</ele>
        <time>2019-07-11T09:58:51.000Z</time>
      </trkpt>
      <trkpt lat="43.543042503297328948974609375" lon="-6.47641520015895366668701171875">
        <ele>95</ele>
        <time>2019-07-11T09:58:52.000Z</time>
      </trkpt>
      <trkpt lat="43.5431174375116825103759765625" lon="-6.476230211555957794189453125">
        <ele>93.8000030517578125</ele>
        <time>2019-07-11T09:58:53.000Z</time>
      </trkpt>
      <trkpt lat="43.54322497732937335968017578125" lon="-6.476073302328586578369140625">
        <ele>92.1999969482421875</ele>
        <time>2019-07-11T09:58:54.000Z</time>
      </trkpt>
      <trkpt lat="43.54334634728729724884033203125" lon="-6.475942544639110565185546875">
        <ele>90.1999969482421875</ele>
        <time>2019-07-11T09:58:55.000Z</time>
      </trkpt>
      <trkpt lat="43.54347978718578815460205078125" lon="-6.4758448116481304168701171875">
        <ele>89</ele>
        <time>2019-07-11T09:58:56.000Z</time>
      </trkpt>
      <trkpt lat="43.54363887570798397064208984375" lon="-6.475766859948635101318359375">
        <ele>87.8000030517578125</ele>
        <time>2019-07-11T09:58:57.000Z</time>
      </trkpt>
      <trkpt lat="43.54396442882716655731201171875" lon="-6.475654877722263336181640625">
        <ele>86</ele>
        <time>2019-07-11T09:58:59.000Z</time>
      </trkpt>
      <trkpt lat="43.54427321814000606536865234375" lon="-6.47553023882210254669189453125">
        <ele>84.1999969482421875</ele>
        <time>2019-07-11T09:59:01.000Z</time>
      </trkpt>
      <trkpt lat="43.54450992308557033538818359375" lon="-6.475278027355670928955078125">
        <ele>83</ele>
        <time>2019-07-11T09:59:03.000Z</time>
      </trkpt>
      <trkpt lat="43.54476138018071651458740234375" lon="-6.4747410826385021209716796875">
        <ele>82.1999969482421875</ele>
        <time>2019-07-11T09:59:06.000Z</time>
      </trkpt>
      <trkpt lat="43.54484117589890956878662109375" lon="-6.47456891834735870361328125">
        <ele>81.40000152587890625</ele>
        <time>2019-07-11T09:59:07.000Z</time>
      </trkpt>
      <trkpt lat="43.5450047068297863006591796875" lon="-6.47427010349929332733154296875">
        <ele>80.1999969482421875</ele>
        <time>2019-07-11T09:59:09.000Z</time>
      </trkpt>
      <trkpt lat="43.545218445360660552978515625" lon="-6.47386341355741024017333984375">
        <ele>79.1999969482421875</ele>
        <time>2019-07-11T09:59:12.000Z</time>
      </trkpt>
      <trkpt lat="43.54548339731991291046142578125" lon="-6.47336368449032306671142578125">
        <ele>78.1999969482421875</ele>
        <time>2019-07-11T09:59:16.000Z</time>
      </trkpt>
      <trkpt lat="43.5457433201372623443603515625" lon="-6.47300862707197666168212890625">
        <ele>76.8000030517578125</ele>
        <time>2019-07-11T09:59:19.000Z</time>
      </trkpt>
      <trkpt lat="43.54593358933925628662109375" lon="-6.47277443669736385345458984375">
        <ele>75.1999969482421875</ele>
        <time>2019-07-11T09:59:21.000Z</time>
      </trkpt>
      <trkpt lat="43.54620172642171382904052734375" lon="-6.472440250217914581298828125">
        <ele>74</ele>
        <time>2019-07-11T09:59:24.000Z</time>
      </trkpt>
      <trkpt lat="43.54650481604039669036865234375" lon="-6.4719240926206111907958984375">
        <ele>74.40000152587890625</ele>
        <time>2019-07-11T09:59:28.000Z</time>
      </trkpt>
      <trkpt lat="43.54672123678028583526611328125" lon="-6.47126577794551849365234375">
        <ele>73.59999847412109375</ele>
        <time>2019-07-11T09:59:32.000Z</time>
      </trkpt>
      <trkpt lat="43.5468155331909656524658203125" lon="-6.47091482765972614288330078125">
        <ele>72.40000152587890625</ele>
        <time>2019-07-11T09:59:34.000Z</time>
      </trkpt>
      <trkpt lat="43.54690798558294773101806640625" lon="-6.47058206610381603240966796875">
        <ele>71</ele>
        <time>2019-07-11T09:59:36.000Z</time>
      </trkpt>
      <trkpt lat="43.54699037969112396240234375" lon="-6.4702812395989894866943359375">
        <ele>70</ele>
        <time>2019-07-11T09:59:38.000Z</time>
      </trkpt>
      <trkpt lat="43.54718483984470367431640625" lon="-6.4695798419415950775146484375">
        <ele>69</ele>
        <time>2019-07-11T09:59:43.000Z</time>
      </trkpt>
      <trkpt lat="43.54733848012983798980712890625" lon="-6.46903158165514469146728515625">
        <ele>67.59999847412109375</ele>
        <time>2019-07-11T09:59:47.000Z</time>
      </trkpt>
      <trkpt lat="43.547388352453708648681640625" lon="-6.4687741734087467193603515625">
        <ele>66.8000030517578125</ele>
        <time>2019-07-11T09:59:49.000Z</time>
      </trkpt>
      <trkpt lat="43.547385670244693756103515625" lon="-6.468651629984378814697265625">
        <ele>66.1999969482421875</ele>
        <time>2019-07-11T09:59:50.000Z</time>
      </trkpt>
      <trkpt lat="43.54735742323100566864013671875" lon="-6.4685378037393093109130859375">
        <ele>65.59999847412109375</ele>
        <time>2019-07-11T09:59:51.000Z</time>
      </trkpt>
      <trkpt lat="43.547305874526500701904296875" lon="-6.468439064919948577880859375">
        <ele>65.1999969482421875</ele>
        <time>2019-07-11T09:59:52.000Z</time>
      </trkpt>
      <trkpt lat="43.5472366400063037872314453125" lon="-6.46836337633430957794189453125">
        <ele>64.8000030517578125</ele>
        <time>2019-07-11T09:59:53.000Z</time>
      </trkpt>
      <trkpt lat="43.54705533944070339202880859375" lon="-6.468337476253509521484375">
        <ele>64.40000152587890625</ele>
        <time>2019-07-11T09:59:55.000Z</time>
      </trkpt>
      <trkpt lat="43.54688501916825771331787109375" lon="-6.468509472906589508056640625">
        <ele>64</ele>
        <time>2019-07-11T09:59:57.000Z</time>
      </trkpt>
      <trkpt lat="43.54664932005107402801513671875" lon="-6.4687104709446430206298828125">
        <ele>62.799999237060546875</ele>
        <time>2019-07-11T09:59:59.000Z</time>
      </trkpt>
      <trkpt lat="43.54651068337261676788330078125" lon="-6.46880694665014743804931640625">
        <ele>61.59999847412109375</ele>
        <time>2019-07-11T10:00:00.000Z</time>
      </trkpt>
      <trkpt lat="43.5463726334273815155029296875" lon="-6.46887995302677154541015625">
        <ele>60.200000762939453125</ele>
        <time>2019-07-11T10:00:01.000Z</time>
      </trkpt>
      <trkpt lat="43.54623156599700450897216796875" lon="-6.46892915479838848114013671875">
        <ele>59</ele>
        <time>2019-07-11T10:00:02.000Z</time>
      </trkpt>
      <trkpt lat="43.54610315524041652679443359375" lon="-6.46896502934396266937255859375">
        <ele>57.799999237060546875</ele>
        <time>2019-07-11T10:00:03.000Z</time>
      </trkpt>
      <trkpt lat="43.5458475910127162933349609375" lon="-6.46903057582676410675048828125">
        <ele>56.40000152587890625</ele>
        <time>2019-07-11T10:00:05.000Z</time>
      </trkpt>
      <trkpt lat="43.5457289032638072967529296875" lon="-6.4690926857292652130126953125">
        <ele>56.200000762939453125</ele>
        <time>2019-07-11T10:00:06.000Z</time>
      </trkpt>
      <trkpt lat="43.5455099679529666900634765625" lon="-6.4692774228751659393310546875">
        <ele>55.59999847412109375</ele>
        <time>2019-07-11T10:00:08.000Z</time>
      </trkpt>
      <trkpt lat="43.54518382810056209564208984375" lon="-6.4696676842868328094482421875">
        <ele>55.200000762939453125</ele>
        <time>2019-07-11T10:00:11.000Z</time>
      </trkpt>
      <trkpt lat="43.54472064413130283355712890625" lon="-6.47006976418197154998779296875">
        <ele>54.40000152587890625</ele>
        <time>2019-07-11T10:00:15.000Z</time>
      </trkpt>
      <trkpt lat="43.544592820107936859130859375" lon="-6.47016330622136592864990234375">
        <ele>54</ele>
        <time>2019-07-11T10:00:16.000Z</time>
      </trkpt>
      <trkpt lat="43.544186465442180633544921875" lon="-6.47045306861400604248046875">
        <ele>52.59999847412109375</ele>
        <time>2019-07-11T10:00:19.000Z</time>
      </trkpt>
      <trkpt lat="43.5439050011336803436279296875" lon="-6.47061936557292938232421875">
        <ele>51.200000762939453125</ele>
        <time>2019-07-11T10:00:21.000Z</time>
      </trkpt>
      <trkpt lat="43.5436270572245121002197265625" lon="-6.47080871276557445526123046875">
        <ele>50.200000762939453125</ele>
        <time>2019-07-11T10:00:23.000Z</time>
      </trkpt>
      <trkpt lat="43.54349990375339984893798828125" lon="-6.47092807106673717498779296875">
        <ele>49.59999847412109375</ele>
        <time>2019-07-11T10:00:24.000Z</time>
      </trkpt>
      <trkpt lat="43.54338146746158599853515625" lon="-6.47106721065938472747802734375">
        <ele>48.59999847412109375</ele>
        <time>2019-07-11T10:00:25.000Z</time>
      </trkpt>
      <trkpt lat="43.5431526415050029754638671875" lon="-6.47138488478958606719970703125">
        <ele>47.59999847412109375</ele>
        <time>2019-07-11T10:00:27.000Z</time>
      </trkpt>
      <trkpt lat="43.54278744198381900787353515625" lon="-6.47185091860592365264892578125">
        <ele>46.59999847412109375</ele>
        <time>2019-07-11T10:00:30.000Z</time>
      </trkpt>
      <trkpt lat="43.54265215806663036346435546875" lon="-6.4719918183982372283935546875">
        <ele>45.40000152587890625</ele>
        <time>2019-07-11T10:00:31.000Z</time>
      </trkpt>
      <trkpt lat="43.54250815697014331817626953125" lon="-6.47213154472410678863525390625">
        <ele>43.40000152587890625</ele>
        <time>2019-07-11T10:00:32.000Z</time>
      </trkpt>
      <trkpt lat="43.54236180894076824188232421875" lon="-6.472273953258991241455078125">
        <ele>40.799999237060546875</ele>
        <time>2019-07-11T10:00:33.000Z</time>
      </trkpt>
      <trkpt lat="43.54221872985363006591796875" lon="-6.47241870872676372528076171875">
        <ele>39</ele>
        <time>2019-07-11T10:00:34.000Z</time>
      </trkpt>
      <trkpt lat="43.5419409535825252532958984375" lon="-6.47268206812441349029541015625">
        <ele>37.200000762939453125</ele>
        <time>2019-07-11T10:00:36.000Z</time>
      </trkpt>
      <trkpt lat="43.54180189780890941619873046875" lon="-6.47279354743659496307373046875">
        <ele>37</ele>
        <time>2019-07-11T10:00:37.000Z</time>
      </trkpt>
      <trkpt lat="43.54151892475783824920654296875" lon="-6.472969315946102142333984375">
        <ele>36.59999847412109375</ele>
        <time>2019-07-11T10:00:39.000Z</time>
      </trkpt>
      <trkpt lat="43.5412365384399890899658203125" lon="-6.47306830622255802154541015625">
        <ele>37.200000762939453125</ele>
        <time>2019-07-11T10:00:41.000Z</time>
      </trkpt>
      <trkpt lat="43.54097954928874969482421875" lon="-6.4730621874332427978515625">
        <ele>37.40000152587890625</ele>
        <time>2019-07-11T10:00:43.000Z</time>
      </trkpt>
      <trkpt lat="43.5407490469515323638916015625" lon="-6.47296001203358173370361328125">
        <ele>38</ele>
        <time>2019-07-11T10:00:45.000Z</time>
      </trkpt>
      <trkpt lat="43.54060471057891845703125" lon="-6.4727290906012058258056640625">
        <ele>37.59999847412109375</ele>
        <time>2019-07-11T10:00:47.000Z</time>
      </trkpt>
      <trkpt lat="43.5405177064239978790283203125" lon="-6.4723549224436283111572265625">
        <ele>36.59999847412109375</ele>
        <time>2019-07-11T10:00:49.000Z</time>
      </trkpt>
      <trkpt lat="43.5404985956847667694091796875" lon="-6.47216037847101688385009765625">
        <ele>36</ele>
        <time>2019-07-11T10:00:50.000Z</time>
      </trkpt>
      <trkpt lat="43.54049138724803924560546875" lon="-6.47199760191142559051513671875">
        <ele>35.40000152587890625</ele>
        <time>2019-07-11T10:00:51.000Z</time>
      </trkpt>
      <trkpt lat="43.54050622321665287017822265625" lon="-6.471856199204921722412109375">
        <ele>35</ele>
        <time>2019-07-11T10:00:52.000Z</time>
      </trkpt>
      <trkpt lat="43.54055710136890411376953125" lon="-6.47175729274749755859375">
        <ele>35.200000762939453125</ele>
        <time>2019-07-11T10:00:53.000Z</time>
      </trkpt>
      <trkpt lat="43.5407275892794132232666015625" lon="-6.47161505185067653656005859375">
        <ele>34.799999237060546875</ele>
        <time>2019-07-11T10:00:55.000Z</time>
      </trkpt>
      <trkpt lat="43.54130200110375881195068359375" lon="-6.47138379514217376708984375">
        <ele>34.200000762939453125</ele>
        <time>2019-07-11T10:00:59.000Z</time>
      </trkpt>
      <trkpt lat="43.541454635560512542724609375" lon="-6.47127541713416576385498046875">
        <ele>33.799999237060546875</ele>
        <time>2019-07-11T10:01:00.000Z</time>
      </trkpt>
      <trkpt lat="43.5416050069034099578857421875" lon="-6.4711405523121356964111328125">
        <ele>33.40000152587890625</ele>
        <time>2019-07-11T10:01:01.000Z</time>
      </trkpt>
      <trkpt lat="43.54188940487802028656005859375" lon="-6.47082748822867870330810546875">
        <ele>32.59999847412109375</ele>
        <time>2019-07-11T10:01:03.000Z</time>
      </trkpt>
      <trkpt lat="43.542157709598541259765625" lon="-6.4705112390220165252685546875">
        <ele>30</ele>
        <time>2019-07-11T10:01:05.000Z</time>
      </trkpt>
      <trkpt lat="43.54229450225830078125" lon="-6.4703546650707721710205078125">
        <ele>29</ele>
        <time>2019-07-11T10:01:06.000Z</time>
      </trkpt>
      <trkpt lat="43.54243339039385318756103515625" lon="-6.47019431926310062408447265625">
        <ele>27.200000762939453125</ele>
        <time>2019-07-11T10:01:07.000Z</time>
      </trkpt>
      <trkpt lat="43.5425712727010250091552734375" lon="-6.47002031095325946807861328125">
        <ele>26</ele>
        <time>2019-07-11T10:01:08.000Z</time>
      </trkpt>
      <trkpt lat="43.54282650165259838104248046875" lon="-6.46964329294860363006591796875">
        <ele>24.200000762939453125</ele>
        <time>2019-07-11T10:01:10.000Z</time>
      </trkpt>
      <trkpt lat="43.54294720105826854705810546875" lon="-6.46945604123175144195556640625">
        <ele>23</ele>
        <time>2019-07-11T10:01:11.000Z</time>
      </trkpt>
      <trkpt lat="43.54307142086327075958251953125" lon="-6.469281949102878570556640625">
        <ele>21.799999237060546875</ele>
        <time>2019-07-11T10:01:12.000Z</time>
      </trkpt>
      <trkpt lat="43.543333522975444793701171875" lon="-6.46898430772125720977783203125">
        <ele>20.6000003814697265625</ele>
        <time>2019-07-11T10:01:14.000Z</time>
      </trkpt>
      <trkpt lat="43.54361758567392826080322265625" lon="-6.468782387673854827880859375">
        <ele>19.3999996185302734375</ele>
        <time>2019-07-11T10:01:16.000Z</time>
      </trkpt>
      <trkpt lat="43.54413659311830997467041015625" lon="-6.46848591975867748260498046875">
        <ele>19.200000762939453125</ele>
        <time>2019-07-11T10:01:20.000Z</time>
      </trkpt>
      <trkpt lat="43.54456105269491672515869140625" lon="-6.46791167557239532470703125">
        <ele>19.799999237060546875</ele>
        <time>2019-07-11T10:01:24.000Z</time>
      </trkpt>
      <trkpt lat="43.54487118311226367950439453125" lon="-6.467450000345706939697265625">
        <ele>17.200000762939453125</ele>
        <time>2019-07-11T10:01:27.000Z</time>
      </trkpt>
      <trkpt lat="43.54497143067419528961181640625" lon="-6.46731848828494548797607421875">
        <ele>16</ele>
        <time>2019-07-11T10:01:28.000Z</time>
      </trkpt>
      <trkpt lat="43.54508056305348873138427734375" lon="-6.4672070927917957305908203125">
        <ele>15.3999996185302734375</ele>
        <time>2019-07-11T10:01:29.000Z</time>
      </trkpt>
      <trkpt lat="43.5453188605606555938720703125" lon="-6.46703283302485942840576171875">
        <ele>15.19999980926513671875</ele>
        <time>2019-07-11T10:01:31.000Z</time>
      </trkpt>
      <trkpt lat="43.5454474389553070068359375" lon="-6.4669677056372165679931640625">
        <ele>15</ele>
        <time>2019-07-11T10:01:32.000Z</time>
      </trkpt>
      <trkpt lat="43.545699231326580047607421875" lon="-6.46681490354239940643310546875">
        <ele>14.19999980926513671875</ele>
        <time>2019-07-11T10:01:34.000Z</time>
      </trkpt>
      <trkpt lat="43.54580618441104888916015625" lon="-6.46671163849532604217529296875">
        <ele>13.80000019073486328125</ele>
        <time>2019-07-11T10:01:35.000Z</time>
      </trkpt>
      <trkpt lat="43.54589729569852352142333984375" lon="-6.46659739315509796142578125">
        <ele>13.3999996185302734375</ele>
        <time>2019-07-11T10:01:36.000Z</time>
      </trkpt>
      <trkpt lat="43.546096198260784149169921875" lon="-6.46628617309033870697021484375">
        <ele>12.80000019073486328125</ele>
        <time>2019-07-11T10:01:39.000Z</time>
      </trkpt>
      <trkpt lat="43.54615042917430400848388671875" lon="-6.46606656722724437713623046875">
        <ele>13.19999980926513671875</ele>
        <time>2019-07-11T10:01:41.000Z</time>
      </trkpt>
      <trkpt lat="43.54611271061003208160400390625" lon="-6.46582298912107944488525390625">
        <ele>13.3999996185302734375</ele>
        <time>2019-07-11T10:01:43.000Z</time>
      </trkpt>
      <trkpt lat="43.5459220223128795623779296875" lon="-6.4654232561588287353515625">
        <ele>12.6000003814697265625</ele>
        <time>2019-07-11T10:01:46.000Z</time>
      </trkpt>
      <trkpt lat="43.5456259734928607940673828125" lon="-6.464989744126796722412109375">
        <ele>10.80000019073486328125</ele>
        <time>2019-07-11T10:01:49.000Z</time>
      </trkpt>
      <trkpt lat="43.5455064475536346435546875" lon="-6.4648447372019290924072265625">
        <ele>9.80000019073486328125</ele>
        <time>2019-07-11T10:01:50.000Z</time>
      </trkpt>
      <trkpt lat="43.5452538169920444488525390625" lon="-6.4645496942102909088134765625">
        <ele>8</ele>
        <time>2019-07-11T10:01:52.000Z</time>
      </trkpt>
      <trkpt lat="43.5451314412057399749755859375" lon="-6.46440560929477214813232421875">
        <ele>6.599999904632568359375</ele>
        <time>2019-07-11T10:01:53.000Z</time>
      </trkpt>
      <trkpt lat="43.5448975861072540283203125" lon="-6.46412448026239871978759765625">
        <ele>5</ele>
        <time>2019-07-11T10:01:55.000Z</time>
      </trkpt>
      <trkpt lat="43.54467454366385936737060546875" lon="-6.4638509787619113922119140625">
        <ele>3.7999999523162841796875</ele>
        <time>2019-07-11T10:01:57.000Z</time>
      </trkpt>
      <trkpt lat="43.5443730466067790985107421875" lon="-6.46347790025174617767333984375">
        <ele>5.19999980926513671875</ele>
        <time>2019-07-11T10:02:00.000Z</time>
      </trkpt>
      <trkpt lat="43.544186465442180633544921875" lon="-6.4632454700767993927001953125">
        <ele>6.400000095367431640625</ele>
        <time>2019-07-11T10:02:02.000Z</time>
      </trkpt>
      <trkpt lat="43.54392620734870433807373046875" lon="-6.4629222638905048370361328125">
        <ele>7.400000095367431640625</ele>
        <time>2019-07-11T10:02:05.000Z</time>
      </trkpt>
      <trkpt lat="43.54361305944621562957763671875" lon="-6.4625504426658153533935546875">
        <ele>8</ele>
        <time>2019-07-11T10:02:09.000Z</time>
      </trkpt>
      <trkpt lat="43.5434151627123355865478515625" lon="-6.4624191820621490478515625">
        <ele>8.3999996185302734375</ele>
        <time>2019-07-11T10:02:11.000Z</time>
      </trkpt>
      <trkpt lat="43.5429327003657817840576171875" lon="-6.46231449209153652191162109375">
        <ele>8.19999980926513671875</ele>
        <time>2019-07-11T10:02:15.000Z</time>
      </trkpt>
      <trkpt lat="43.542823903262615203857421875" lon="-6.4622875861823558807373046875">
        <ele>8.19999980926513671875</ele>
        <time>2019-07-11T10:02:16.000Z</time>
      </trkpt>
      <trkpt lat="43.5426668263971805572509765625" lon="-6.46217468194663524627685546875">
        <ele>8.6000003814697265625</ele>
        <time>2019-07-11T10:02:18.000Z</time>
      </trkpt>
      <trkpt lat="43.54259767569601535797119140625" lon="-6.46200151182711124420166015625">
        <ele>8.80000019073486328125</ele>
        <time>2019-07-11T10:02:20.000Z</time>
      </trkpt>
      <trkpt lat="43.54263992048799991607666015625" lon="-6.46178978495299816131591796875">
        <ele>9.80000019073486328125</ele>
        <time>2019-07-11T10:02:22.000Z</time>
      </trkpt>
      <trkpt lat="43.5427697561681270599365234375" lon="-6.4614192210137844085693359375">
        <ele>11</ele>
        <time>2019-07-11T10:02:25.000Z</time>
      </trkpt>
      <trkpt lat="43.542954660952091217041015625" lon="-6.4607347548007965087890625">
        <ele>11.19999980926513671875</ele>
        <time>2019-07-11T10:02:30.000Z</time>
      </trkpt>
      <trkpt lat="43.54294334538280963897705078125" lon="-6.46052327938377857208251953125">
        <ele>10.80000019073486328125</ele>
        <time>2019-07-11T10:02:32.000Z</time>
      </trkpt>
      <trkpt lat="43.5428656451404094696044921875" lon="-6.46038732491433620452880859375">
        <ele>10.6000003814697265625</ele>
        <time>2019-07-11T10:02:34.000Z</time>
      </trkpt>
      <trkpt lat="43.54279917664825916290283203125" lon="-6.46023980341851711273193359375">
        <ele>10.80000019073486328125</ele>
        <time>2019-07-11T10:02:36.000Z</time>
      </trkpt>
      <trkpt lat="43.5428193770349025726318359375" lon="-6.4600771106779575347900390625">
        <ele>10.80000019073486328125</ele>
        <time>2019-07-11T10:02:38.000Z</time>
      </trkpt>
      <trkpt lat="43.54291518218815326690673828125" lon="-6.45999513566493988037109375">
        <ele>11</ele>
        <time>2019-07-11T10:02:40.000Z</time>
      </trkpt>
      <trkpt lat="43.54305692017078399658203125" lon="-6.4599435031414031982421875">
        <ele>10.80000019073486328125</ele>
        <time>2019-07-11T10:02:42.000Z</time>
      </trkpt>
      <trkpt lat="43.54317887686192989349365234375" lon="-6.4598075486719608306884765625">
        <ele>10.6000003814697265625</ele>
        <time>2019-07-11T10:02:44.000Z</time>
      </trkpt>
      <trkpt lat="43.54318692348897457122802734375" lon="-6.4595912955701351165771484375">
        <ele>10.3999996185302734375</ele>
        <time>2019-07-11T10:02:46.000Z</time>
      </trkpt>
      <trkpt lat="43.5430557467043399810791015625" lon="-6.45941250957548618316650390625">
        <ele>10.19999980926513671875</ele>
        <time>2019-07-11T10:02:48.000Z</time>
      </trkpt>
      <trkpt lat="43.54284175671637058258056640625" lon="-6.459360457956790924072265625">
        <ele>10</ele>
        <time>2019-07-11T10:02:50.000Z</time>
      </trkpt>
      <trkpt lat="43.542581163346767425537109375" lon="-6.45930706523358821868896484375">
        <ele>9.80000019073486328125</ele>
        <time>2019-07-11T10:02:52.000Z</time>
      </trkpt>
      <trkpt lat="43.5423164628446102142333984375" lon="-6.4591111801564693450927734375">
        <ele>9.6000003814697265625</ele>
        <time>2019-07-11T10:02:54.000Z</time>
      </trkpt>
      <trkpt lat="43.5418695397675037384033203125" lon="-6.4586491696536540985107421875">
        <ele>10</ele>
        <time>2019-07-11T10:02:58.000Z</time>
      </trkpt>
      <trkpt lat="43.54179225862026214599609375" lon="-6.45852972753345966339111328125">
        <ele>10.3999996185302734375</ele>
        <time>2019-07-11T10:02:59.000Z</time>
      </trkpt>
      <trkpt lat="43.54175127111375331878662109375" lon="-6.45836812444031238555908203125">
        <ele>11.19999980926513671875</ele>
        <time>2019-07-11T10:03:00.000Z</time>
      </trkpt>
      <trkpt lat="43.5417283885180950164794921875" lon="-6.45820878446102142333984375">
        <ele>12.19999980926513671875</ele>
        <time>2019-07-11T10:03:01.000Z</time>
      </trkpt>
      <trkpt lat="43.54175202548503875732421875" lon="-6.45802312530577182769775390625">
        <ele>13.19999980926513671875</ele>
        <time>2019-07-11T10:03:02.000Z</time>
      </trkpt>
      <trkpt lat="43.5418112017214298248291015625" lon="-6.45782900042831897735595703125">
        <ele>14</ele>
        <time>2019-07-11T10:03:03.000Z</time>
      </trkpt>
      <trkpt lat="43.54189694859087467193603515625" lon="-6.4576530642807483673095703125">
        <ele>14.80000019073486328125</ele>
        <time>2019-07-11T10:03:04.000Z</time>
      </trkpt>
      <trkpt lat="43.54200624860823154449462890625" lon="-6.45749053917825222015380859375">
        <ele>15.6000003814697265625</ele>
        <time>2019-07-11T10:03:05.000Z</time>
      </trkpt>
      <trkpt lat="43.54212728329002857208251953125" lon="-6.4573429338634014129638671875">
        <ele>16</ele>
        <time>2019-07-11T10:03:06.000Z</time>
      </trkpt>
      <trkpt lat="43.54234571568667888641357421875" lon="-6.457059793174266815185546875">
        <ele>17</ele>
        <time>2019-07-11T10:03:08.000Z</time>
      </trkpt>
      <trkpt lat="43.5424405150115489959716796875" lon="-6.4569064043462276458740234375">
        <ele>17.3999996185302734375</ele>
        <time>2019-07-11T10:03:09.000Z</time>
      </trkpt>
      <trkpt lat="43.5426916368305683135986328125" lon="-6.45640843547880649566650390625">
        <ele>18.6000003814697265625</ele>
        <time>2019-07-11T10:03:12.000Z</time>
      </trkpt>
      <trkpt lat="43.5428485460579395294189453125" lon="-6.45603946410119533538818359375">
        <ele>20</ele>
        <time>2019-07-11T10:03:14.000Z</time>
      </trkpt>
      <trkpt lat="43.543000258505344390869140625" lon="-6.45563076250255107879638671875">
        <ele>21.6000003814697265625</ele>
        <time>2019-07-11T10:03:16.000Z</time>
      </trkpt>
      <trkpt lat="43.54307678528130054473876953125" lon="-6.455186270177364349365234375">
        <ele>23.200000762939453125</ele>
        <time>2019-07-11T10:03:18.000Z</time>
      </trkpt>
      <trkpt lat="43.54306899011135101318359375" lon="-6.4547623135149478912353515625">
        <ele>24.799999237060546875</ele>
        <time>2019-07-11T10:03:20.000Z</time>
      </trkpt>
      <trkpt lat="43.543008305132389068603515625" lon="-6.45440549589693546295166015625">
        <ele>26.6000003814697265625</ele>
        <time>2019-07-11T10:03:22.000Z</time>
      </trkpt>
      <trkpt lat="43.54293496347963809967041015625" lon="-6.4542510174214839935302734375">
        <ele>27.799999237060546875</ele>
        <time>2019-07-11T10:03:23.000Z</time>
      </trkpt>
      <trkpt lat="43.5428358055651187896728515625" lon="-6.454099304974079132080078125">
        <ele>28.799999237060546875</ele>
        <time>2019-07-11T10:03:24.000Z</time>
      </trkpt>
      <trkpt lat="43.54271284304559230804443359375" lon="-6.45397449843585491180419921875">
        <ele>30.200000762939453125</ele>
        <time>2019-07-11T10:03:25.000Z</time>
      </trkpt>
      <trkpt lat="43.542427606880664825439453125" lon="-6.453764028847217559814453125">
        <ele>31.799999237060546875</ele>
        <time>2019-07-11T10:03:27.000Z</time>
      </trkpt>
      <trkpt lat="43.54212979786098003387451171875" lon="-6.453572250902652740478515625">
        <ele>33.200000762939453125</ele>
        <time>2019-07-11T10:03:29.000Z</time>
      </trkpt>
      <trkpt lat="43.5418373532593250274658203125" lon="-6.4534108154475688934326171875">
        <ele>34.59999847412109375</ele>
        <time>2019-07-11T10:03:31.000Z</time>
      </trkpt>
      <trkpt lat="43.54170064441859722137451171875" lon="-6.45334652625024318695068359375">
        <ele>35.59999847412109375</ele>
        <time>2019-07-11T10:03:32.000Z</time>
      </trkpt>
      <trkpt lat="43.54157365858554840087890625" lon="-6.45330495201051235198974609375">
        <ele>36.40000152587890625</ele>
        <time>2019-07-11T10:03:33.000Z</time>
      </trkpt>
      <trkpt lat="43.5413324274122714996337890625" lon="-6.45322398282587528228759765625">
        <ele>37.59999847412109375</ele>
        <time>2019-07-11T10:03:35.000Z</time>
      </trkpt>
      <trkpt lat="43.54110200889408588409423828125" lon="-6.4530634693801403045654296875">
        <ele>38.799999237060546875</ele>
        <time>2019-07-11T10:03:37.000Z</time>
      </trkpt>
      <trkpt lat="43.54091383516788482666015625" lon="-6.452835313975811004638671875">
        <ele>40</ele>
        <time>2019-07-11T10:03:39.000Z</time>
      </trkpt>
      <trkpt lat="43.5408576764166355133056640625" lon="-6.45241211168467998504638671875">
        <ele>41.200000762939453125</ele>
        <time>2019-07-11T10:03:41.000Z</time>
      </trkpt>
      <trkpt lat="43.54083932004868984222412109375" lon="-6.45222418941557407379150390625">
        <ele>41.59999847412109375</ele>
        <time>2019-07-11T10:03:42.000Z</time>
      </trkpt>
      <trkpt lat="43.54086689651012420654296875" lon="-6.45189084112644195556640625">
        <ele>42.40000152587890625</ele>
        <time>2019-07-11T10:03:44.000Z</time>
      </trkpt>
      <trkpt lat="43.5410176031291484832763671875" lon="-6.45156486891210079193115234375">
        <ele>44.200000762939453125</ele>
        <time>2019-07-11T10:03:46.000Z</time>
      </trkpt>
      <trkpt lat="43.541116677224636077880859375" lon="-6.4514336921274662017822265625">
        <ele>45.40000152587890625</ele>
        <time>2019-07-11T10:03:47.000Z</time>
      </trkpt>
      <trkpt lat="43.5412419028580188751220703125" lon="-6.45131374709308147430419921875">
        <ele>46.200000762939453125</ele>
        <time>2019-07-11T10:03:48.000Z</time>
      </trkpt>
      <trkpt lat="43.541385233402252197265625" lon="-6.45122255198657512664794921875">
        <ele>46.799999237060546875</ele>
        <time>2019-07-11T10:03:49.000Z</time>
      </trkpt>
      <trkpt lat="43.54169041849672794342041015625" lon="-6.45109422504901885986328125">
        <ele>48.799999237060546875</ele>
        <time>2019-07-11T10:03:51.000Z</time>
      </trkpt>
      <trkpt lat="43.5418397001922130584716796875" lon="-6.45107167772948741912841796875">
        <ele>50</ele>
        <time>2019-07-11T10:03:52.000Z</time>
      </trkpt>
      <trkpt lat="43.54214907623827457427978515625" lon="-6.4510868489742279052734375">
        <ele>51.40000152587890625</ele>
        <time>2019-07-11T10:03:54.000Z</time>
      </trkpt>
      <trkpt lat="43.54230682365596294403076171875" lon="-6.45113638602197170257568359375">
        <ele>51.799999237060546875</ele>
        <time>2019-07-11T10:03:55.000Z</time>
      </trkpt>
      <trkpt lat="43.54262667708098888397216796875" lon="-6.45122523419559001922607421875">
        <ele>52.799999237060546875</ele>
        <time>2019-07-11T10:03:57.000Z</time>
      </trkpt>
      <trkpt lat="43.5429524816572666168212890625" lon="-6.451380886137485504150390625">
        <ele>54.200000762939453125</ele>
        <time>2019-07-11T10:03:59.000Z</time>
      </trkpt>
      <trkpt lat="43.5432435013353824615478515625" lon="-6.45163544453680515289306640625">
        <ele>55.40000152587890625</ele>
        <time>2019-07-11T10:04:01.000Z</time>
      </trkpt>
      <trkpt lat="43.54351700283586978912353515625" lon="-6.4519225247204303741455078125">
        <ele>57.200000762939453125</ele>
        <time>2019-07-11T10:04:03.000Z</time>
      </trkpt>
      <trkpt lat="43.543780781328678131103515625" lon="-6.45220038481056690216064453125">
        <ele>58.799999237060546875</ele>
        <time>2019-07-11T10:04:05.000Z</time>
      </trkpt>
      <trkpt lat="43.54392528533935546875" lon="-6.45229543559253215789794921875">
        <ele>58.799999237060546875</ele>
        <time>2019-07-11T10:04:06.000Z</time>
      </trkpt>
      <trkpt lat="43.54422342963516712188720703125" lon="-6.4524227567017078399658203125">
        <ele>60.200000762939453125</ele>
        <time>2019-07-11T10:04:08.000Z</time>
      </trkpt>
      <trkpt lat="43.54447857476770877838134765625" lon="-6.45248495042324066162109375">
        <ele>61.40000152587890625</ele>
        <time>2019-07-11T10:04:10.000Z</time>
      </trkpt>
      <trkpt lat="43.5445856116712093353271484375" lon="-6.45248939283192157745361328125">
        <ele>62.799999237060546875</ele>
        <time>2019-07-11T10:04:11.000Z</time>
      </trkpt>
      <trkpt lat="43.54467286728322505950927734375" lon="-6.45244681276381015777587890625">
        <ele>64.59999847412109375</ele>
        <time>2019-07-11T10:04:12.000Z</time>
      </trkpt>
      <trkpt lat="43.54473170824348926544189453125" lon="-6.45236559212207794189453125">
        <ele>66.40000152587890625</ele>
        <time>2019-07-11T10:04:13.000Z</time>
      </trkpt>
      <trkpt lat="43.5447532497346401214599609375" lon="-6.4522537775337696075439453125">
        <ele>68.1999969482421875</ele>
        <time>2019-07-11T10:04:14.000Z</time>
      </trkpt>
      <trkpt lat="43.544736318290233612060546875" lon="-6.4521428011357784271240234375">
        <ele>69.40000152587890625</ele>
        <time>2019-07-11T10:04:15.000Z</time>
      </trkpt>
      <trkpt lat="43.5446828417479991912841796875" lon="-6.4520348422229290008544921875">
        <ele>70.8000030517578125</ele>
        <time>2019-07-11T10:04:16.000Z</time>
      </trkpt>
      <trkpt lat="43.5446074046194553375244140625" lon="-6.4519486762583255767822265625">
        <ele>72</ele>
        <time>2019-07-11T10:04:17.000Z</time>
      </trkpt>
      <trkpt lat="43.5445141978561878204345703125" lon="-6.451870389282703399658203125">
        <ele>73</ele>
        <time>2019-07-11T10:04:18.000Z</time>
      </trkpt>
      <trkpt lat="43.54441235773265361785888671875" lon="-6.451782546937465667724609375">
        <ele>73.40000152587890625</ele>
        <time>2019-07-11T10:04:19.000Z</time>
      </trkpt>
      <trkpt lat="43.5443155467510223388671875" lon="-6.4516740851104259490966796875">
        <ele>73.8000030517578125</ele>
        <time>2019-07-11T10:04:20.000Z</time>
      </trkpt>
      <trkpt lat="43.54418520815670490264892578125" lon="-6.4513609372079372406005859375">
        <ele>73.8000030517578125</ele>
        <time>2019-07-11T10:04:22.000Z</time>
      </trkpt>
      <trkpt lat="43.5441614873707294464111328125" lon="-6.450983248651027679443359375">
        <ele>73.8000030517578125</ele>
        <time>2019-07-11T10:04:24.000Z</time>
      </trkpt>
      <trkpt lat="43.54422426782548427581787109375" lon="-6.45057882182300090789794921875">
        <ele>74.8000030517578125</ele>
        <time>2019-07-11T10:04:26.000Z</time>
      </trkpt>
      <trkpt lat="43.54429082013666629791259765625" lon="-6.45019300282001495361328125">
        <ele>76.59999847412109375</ele>
        <time>2019-07-11T10:04:28.000Z</time>
      </trkpt>
      <trkpt lat="43.54430691339075565338134765625" lon="-6.45000751130282878875732421875">
        <ele>77.8000030517578125</ele>
        <time>2019-07-11T10:04:29.000Z</time>
      </trkpt>
      <trkpt lat="43.544300459325313568115234375" lon="-6.449819840490818023681640625">
        <ele>78.8000030517578125</ele>
        <time>2019-07-11T10:04:30.000Z</time>
      </trkpt>
      <trkpt lat="43.54427598416805267333984375" lon="-6.4496439881622791290283203125">
        <ele>79.1999969482421875</ele>
        <time>2019-07-11T10:04:31.000Z</time>
      </trkpt>
      <trkpt lat="43.54423306882381439208984375" lon="-6.449457071721553802490234375">
        <ele>79.8000030517578125</ele>
        <time>2019-07-11T10:04:32.000Z</time>
      </trkpt>
      <trkpt lat="43.5440417937934398651123046875" lon="-6.44886690191924571990966796875">
        <ele>80.59999847412109375</ele>
        <time>2019-07-11T10:04:35.000Z</time>
      </trkpt>
      <trkpt lat="43.5439660213887691497802734375" lon="-6.44868182949721813201904296875">
        <ele>81</ele>
        <time>2019-07-11T10:04:36.000Z</time>
      </trkpt>
      <trkpt lat="43.543798886239528656005859375" lon="-6.44836046732962131500244140625">
        <ele>83</ele>
        <time>2019-07-11T10:04:38.000Z</time>
      </trkpt>
      <trkpt lat="43.54373878799378871917724609375" lon="-6.44819316454231739044189453125">
        <ele>83.8000030517578125</ele>
        <time>2019-07-11T10:04:39.000Z</time>
      </trkpt>
      <trkpt lat="43.54370425455272197723388671875" lon="-6.448009349405765533447265625">
        <ele>84.1999969482421875</ele>
        <time>2019-07-11T10:04:40.000Z</time>
      </trkpt>
      <trkpt lat="43.543703667819499969482421875" lon="-6.44780256785452365875244140625">
        <ele>84.40000152587890625</ele>
        <time>2019-07-11T10:04:41.000Z</time>
      </trkpt>
      <trkpt lat="43.54373392648994922637939453125" lon="-6.4474328421056270599365234375">
        <ele>85.40000152587890625</ele>
        <time>2019-07-11T10:04:43.000Z</time>
      </trkpt>
      <trkpt lat="43.543834425508975982666015625" lon="-6.44716353155672550201416015625">
        <ele>87.59999847412109375</ele>
        <time>2019-07-11T10:04:45.000Z</time>
      </trkpt>
      <trkpt lat="43.54391648434102535247802734375" lon="-6.44706864841282367706298828125">
        <ele>88.8000030517578125</ele>
        <time>2019-07-11T10:04:46.000Z</time>
      </trkpt>
      <trkpt lat="43.54401438497006893157958984375" lon="-6.44699002616107463836669921875">
        <ele>90.1999969482421875</ele>
        <time>2019-07-11T10:04:47.000Z</time>
      </trkpt>
      <trkpt lat="43.54411748237907886505126953125" lon="-6.44691978581249713897705078125">
        <ele>91.59999847412109375</ele>
        <time>2019-07-11T10:04:48.000Z</time>
      </trkpt>
      <trkpt lat="43.544217646121978759765625" lon="-6.4468528144061565399169921875">
        <ele>92.8000030517578125</ele>
        <time>2019-07-11T10:04:49.000Z</time>
      </trkpt>
      <trkpt lat="43.5443026386201381683349609375" lon="-6.4467810653150081634521484375">
        <ele>93.59999847412109375</ele>
        <time>2019-07-11T10:04:50.000Z</time>
      </trkpt>
      <trkpt lat="43.5443750582635402679443359375" lon="-6.44671644084155559539794921875">
        <ele>94.40000152587890625</ele>
        <time>2019-07-11T10:04:51.000Z</time>
      </trkpt>
      <trkpt lat="43.54449584148824214935302734375" lon="-6.44663915969431400299072265625">
        <ele>96.40000152587890625</ele>
        <time>2019-07-11T10:04:53.000Z</time>
      </trkpt>
      <trkpt lat="43.54459005407989025115966796875" lon="-6.44669272005558013916015625">
        <ele>97.59999847412109375</ele>
        <time>2019-07-11T10:04:55.000Z</time>
      </trkpt>
      <trkpt lat="43.54467571713030338287353515625" lon="-6.446970663964748382568359375">
        <ele>98.40000152587890625</ele>
        <time>2019-07-11T10:04:58.000Z</time>
      </trkpt>
      <trkpt lat="43.544798009097576141357421875" lon="-6.447108127176761627197265625">
        <ele>98.1999969482421875</ele>
        <time>2019-07-11T10:05:00.000Z</time>
      </trkpt>
      <trkpt lat="43.54495081119239330291748046875" lon="-6.4471485279500484466552734375">
        <ele>97.8000030517578125</ele>
        <time>2019-07-11T10:05:02.000Z</time>
      </trkpt>
      <trkpt lat="43.5450875200331211090087890625" lon="-6.4470647089183330535888671875">
        <ele>97.40000152587890625</ele>
        <time>2019-07-11T10:05:04.000Z</time>
      </trkpt>
      <trkpt lat="43.545221127569675445556640625" lon="-6.44690704531967639923095703125">
        <ele>97.1999969482421875</ele>
        <time>2019-07-11T10:05:06.000Z</time>
      </trkpt>
      <trkpt lat="43.54539982974529266357421875" lon="-6.44682808779180049896240234375">
        <ele>96.8000030517578125</ele>
        <time>2019-07-11T10:05:08.000Z</time>
      </trkpt>
      <trkpt lat="43.5454972274601459503173828125" lon="-6.4468420855700969696044921875">
        <ele>96.40000152587890625</ele>
        <time>2019-07-11T10:05:09.000Z</time>
      </trkpt>
      <trkpt lat="43.54559387080371379852294921875" lon="-6.4468813128769397735595703125">
        <ele>96.1999969482421875</ele>
        <time>2019-07-11T10:05:10.000Z</time>
      </trkpt>
      <trkpt lat="43.54579973034560680389404296875" lon="-6.44691676832735538482666015625">
        <ele>95.40000152587890625</ele>
        <time>2019-07-11T10:05:12.000Z</time>
      </trkpt>
      <trkpt lat="43.545905761420726776123046875" lon="-6.44690721295773983001708984375">
        <ele>95</ele>
        <time>2019-07-11T10:05:13.000Z</time>
      </trkpt>
      <trkpt lat="43.54608739726245403289794921875" lon="-6.44685876555740833282470703125">
        <ele>94.1999969482421875</ele>
        <time>2019-07-11T10:05:15.000Z</time>
      </trkpt>
      <trkpt lat="43.54616048745810985565185546875" lon="-6.44678785465657711029052734375">
        <ele>94</ele>
        <time>2019-07-11T10:05:16.000Z</time>
      </trkpt>
      <trkpt lat="43.54621849022805690765380859375" lon="-6.44668408669531345367431640625">
        <ele>94</ele>
        <time>2019-07-11T10:05:17.000Z</time>
      </trkpt>
      <trkpt lat="43.54632527567446231842041015625" lon="-6.446468420326709747314453125">
        <ele>94.1999969482421875</ele>
        <time>2019-07-11T10:05:19.000Z</time>
      </trkpt>
      <trkpt lat="43.54649257846176624298095703125" lon="-6.446326263248920440673828125">
        <ele>94.40000152587890625</ele>
        <time>2019-07-11T10:05:21.000Z</time>
      </trkpt>
      <trkpt lat="43.54667664505541324615478515625" lon="-6.4462184719741344451904296875">
        <ele>94.40000152587890625</ele>
        <time>2019-07-11T10:05:23.000Z</time>
      </trkpt>
      <trkpt lat="43.54675023816525936126708984375" lon="-6.4460347406566143035888671875">
        <ele>94.40000152587890625</ele>
        <time>2019-07-11T10:05:25.000Z</time>
      </trkpt>
      <trkpt lat="43.5467132739722728729248046875" lon="-6.445797868072986602783203125">
        <ele>94.8000030517578125</ele>
        <time>2019-07-11T10:05:27.000Z</time>
      </trkpt>
      <trkpt lat="43.54666524566709995269775390625" lon="-6.44567012786865234375">
        <ele>95.40000152587890625</ele>
        <time>2019-07-11T10:05:28.000Z</time>
      </trkpt>
      <trkpt lat="43.5465469770133495330810546875" lon="-6.44540282897651195526123046875">
        <ele>96.8000030517578125</ele>
        <time>2019-07-11T10:05:30.000Z</time>
      </trkpt>
      <trkpt lat="43.5463984496891498565673828125" lon="-6.4449303410947322845458984375">
        <ele>98</ele>
        <time>2019-07-11T10:05:33.000Z</time>
      </trkpt>
      <trkpt lat="43.546366430819034576416015625" lon="-6.44476094283163547515869140625">
        <ele>99</ele>
        <time>2019-07-11T10:05:34.000Z</time>
      </trkpt>
      <trkpt lat="43.54633726179599761962890625" lon="-6.44440236501395702362060546875">
        <ele>100.8000030517578125</ele>
        <time>2019-07-11T10:05:36.000Z</time>
      </trkpt>
      <trkpt lat="43.54633416049182415008544921875" lon="-6.44404127262532711029052734375">
        <ele>102.40000152587890625</ele>
        <time>2019-07-11T10:05:38.000Z</time>
      </trkpt>
      <trkpt lat="43.54633784852921962738037109375" lon="-6.44386324100196361541748046875">
        <ele>103.8000030517578125</ele>
        <time>2019-07-11T10:05:39.000Z</time>
      </trkpt>
      <trkpt lat="43.54634799063205718994140625" lon="-6.44350131042301654815673828125">
        <ele>105</ele>
        <time>2019-07-11T10:05:41.000Z</time>
      </trkpt>
      <trkpt lat="43.54635662399232387542724609375" lon="-6.44276537932455539703369140625">
        <ele>104</ele>
        <time>2019-07-11T10:05:45.000Z</time>
      </trkpt>
      <trkpt lat="43.54637657292187213897705078125" lon="-6.44195451401174068450927734375">
        <ele>103.40000152587890625</ele>
        <time>2019-07-11T10:05:49.000Z</time>
      </trkpt>
      <trkpt lat="43.54636768810451030731201171875" lon="-6.44133098423480987548828125">
        <ele>103.59999847412109375</ele>
        <time>2019-07-11T10:05:52.000Z</time>
      </trkpt>
      <trkpt lat="43.546357043087482452392578125" lon="-6.440914236009120941162109375">
        <ele>102.8000030517578125</ele>
        <time>2019-07-11T10:05:54.000Z</time>
      </trkpt>
      <trkpt lat="43.54633667506277561187744140625" lon="-6.44008769653737545013427734375">
        <ele>102</ele>
        <time>2019-07-11T10:05:58.000Z</time>
      </trkpt>
      <trkpt lat="43.5463253594934940338134765625" lon="-6.4394412003457546234130859375">
        <ele>102.59999847412109375</ele>
        <time>2019-07-11T10:06:01.000Z</time>
      </trkpt>
      <trkpt lat="43.5463149659335613250732421875" lon="-6.43898748792707920074462890625">
        <ele>101.40000152587890625</ele>
        <time>2019-07-11T10:06:03.000Z</time>
      </trkpt>
      <trkpt lat="43.5463015548884868621826171875" lon="-6.43851659260690212249755859375">
        <ele>100.1999969482421875</ele>
        <time>2019-07-11T10:06:05.000Z</time>
      </trkpt>
      <trkpt lat="43.54628118686378002166748046875" lon="-6.4378110878169536590576171875">
        <ele>99.40000152587890625</ele>
        <time>2019-07-11T10:06:08.000Z</time>
      </trkpt>
      <trkpt lat="43.54626408778131008148193359375" lon="-6.4370669424533843994140625">
        <ele>100.59999847412109375</ele>
        <time>2019-07-11T10:06:11.000Z</time>
      </trkpt>
      <trkpt lat="43.54625855572521686553955078125" lon="-6.43680584616959095001220703125">
        <ele>101.59999847412109375</ele>
        <time>2019-07-11T10:06:12.000Z</time>
      </trkpt>
      <trkpt lat="43.5462401993572711944580078125" lon="-6.43627108074724674224853515625">
        <ele>102.59999847412109375</ele>
        <time>2019-07-11T10:06:14.000Z</time>
      </trkpt>
      <trkpt lat="43.5461506806313991546630859375" lon="-6.43546323291957378387451171875">
        <ele>103.59999847412109375</ele>
        <time>2019-07-11T10:06:17.000Z</time>
      </trkpt>
      <trkpt lat="43.54609125293791294097900390625" lon="-6.43520674668252468109130859375">
        <ele>103.40000152587890625</ele>
        <time>2019-07-11T10:06:18.000Z</time>
      </trkpt>
      <trkpt lat="43.54583610780537128448486328125" lon="-6.434503085911273956298828125">
        <ele>103.59999847412109375</ele>
        <time>2019-07-11T10:06:21.000Z</time>
      </trkpt>
      <trkpt lat="43.5456118918955326080322265625" lon="-6.43408474512398242950439453125">
        <ele>103.8000030517578125</ele>
        <time>2019-07-11T10:06:23.000Z</time>
      </trkpt>
      <trkpt lat="43.54520645923912525177001953125" lon="-6.433558277785778045654296875">
        <ele>105.1999969482421875</ele>
        <time>2019-07-11T10:06:26.000Z</time>
      </trkpt>
      <trkpt lat="43.54506321251392364501953125" lon="-6.4334003627300262451171875">
        <ele>106.1999969482421875</ele>
        <time>2019-07-11T10:06:27.000Z</time>
      </trkpt>
      <trkpt lat="43.54491912759840488433837890625" lon="-6.4332452975213527679443359375">
        <ele>107.59999847412109375</ele>
        <time>2019-07-11T10:06:28.000Z</time>
      </trkpt>
      <trkpt lat="43.54463816620409488677978515625" lon="-6.43293038941919803619384765625">
        <ele>108.59999847412109375</ele>
        <time>2019-07-11T10:06:30.000Z</time>
      </trkpt>
      <trkpt lat="43.544236086308956146240234375" lon="-6.4324077777564525604248046875">
        <ele>106.59999847412109375</ele>
        <time>2019-07-11T10:06:33.000Z</time>
      </trkpt>
      <trkpt lat="43.5440089367330074310302734375" lon="-6.43198574893176555633544921875">
        <ele>105</ele>
        <time>2019-07-11T10:06:35.000Z</time>
      </trkpt>
      <trkpt lat="43.54366519488394260406494140625" lon="-6.43127060495316982269287109375">
        <ele>105.40000152587890625</ele>
        <time>2019-07-11T10:06:38.000Z</time>
      </trkpt>
      <trkpt lat="43.5434188507497310638427734375" lon="-6.4307773299515247344970703125">
        <ele>103.40000152587890625</ele>
        <time>2019-07-11T10:06:40.000Z</time>
      </trkpt>
      <trkpt lat="43.54329806752502918243408203125" lon="-6.43052981235086917877197265625">
        <ele>101.40000152587890625</ele>
        <time>2019-07-11T10:06:41.000Z</time>
      </trkpt>
      <trkpt lat="43.54318005032837390899658203125" lon="-6.43028740771114826202392578125">
        <ele>99</ele>
        <time>2019-07-11T10:06:42.000Z</time>
      </trkpt>
      <trkpt lat="43.54306572116911411285400390625" lon="-6.43005237914621829986572265625">
        <ele>97.40000152587890625</ele>
        <time>2019-07-11T10:06:43.000Z</time>
      </trkpt>
      <trkpt lat="43.54273396544158458709716796875" lon="-6.42935936339199542999267578125">
        <ele>96.59999847412109375</ele>
        <time>2019-07-11T10:06:46.000Z</time>
      </trkpt>
      <trkpt lat="43.54238091967999935150146484375" lon="-6.4286233484745025634765625">
        <ele>99.1999969482421875</ele>
        <time>2019-07-11T10:06:49.000Z</time>
      </trkpt>
      <trkpt lat="43.54225871153175830841064453125" lon="-6.42837298102676868438720703125">
        <ele>100.8000030517578125</ele>
        <time>2019-07-11T10:06:50.000Z</time>
      </trkpt>
      <trkpt lat="43.54201546870172023773193359375" lon="-6.42787165939807891845703125">
        <ele>99.59999847412109375</ele>
        <time>2019-07-11T10:06:52.000Z</time>
      </trkpt>
      <trkpt lat="43.54167290031909942626953125" lon="-6.42713983543217182159423828125">
        <ele>99.1999969482421875</ele>
        <time>2019-07-11T10:06:55.000Z</time>
      </trkpt>
      <trkpt lat="43.5414501093327999114990234375" lon="-6.4266534335911273956298828125">
        <ele>97.59999847412109375</ele>
        <time>2019-07-11T10:06:57.000Z</time>
      </trkpt>
      <trkpt lat="43.5411594249308109283447265625" lon="-6.42589009366929531097412109375">
        <ele>97</ele>
        <time>2019-07-11T10:07:00.000Z</time>
      </trkpt>
      <trkpt lat="43.54094543494284152984619140625" lon="-6.42508492805063724517822265625">
        <ele>97</ele>
        <time>2019-07-11T10:07:03.000Z</time>
      </trkpt>
      <trkpt lat="43.5408278368413448333740234375" lon="-6.424202732741832733154296875">
        <ele>97.8000030517578125</ele>
        <time>2019-07-11T10:07:06.000Z</time>
      </trkpt>
      <trkpt lat="43.5407936386764049530029296875" lon="-6.4232949726283550262451171875">
        <ele>98.1999969482421875</ele>
        <time>2019-07-11T10:07:09.000Z</time>
      </trkpt>
      <trkpt lat="43.54084066115319728851318359375" lon="-6.42240590415894985198974609375">
        <ele>98.40000152587890625</ele>
        <time>2019-07-11T10:07:12.000Z</time>
      </trkpt>
      <trkpt lat="43.54088055901229381561279296875" lon="-6.42211438156664371490478515625">
        <ele>99.40000152587890625</ele>
        <time>2019-07-11T10:07:13.000Z</time>
      </trkpt>
      <trkpt lat="43.5410781204700469970703125" lon="-6.4212204515933990478515625">
        <ele>99.8000030517578125</ele>
        <time>2019-07-11T10:07:16.000Z</time>
      </trkpt>
      <trkpt lat="43.54128289036452770233154296875" lon="-6.4205794036388397216796875">
        <ele>99.40000152587890625</ele>
        <time>2019-07-11T10:07:18.000Z</time>
      </trkpt>
      <trkpt lat="43.5413937829434871673583984375" lon="-6.4202620647847652435302734375">
        <ele>98.40000152587890625</ele>
        <time>2019-07-11T10:07:19.000Z</time>
      </trkpt>
      <trkpt lat="43.5415050946176052093505859375" lon="-6.4199596457183361053466796875">
        <ele>97.40000152587890625</ele>
        <time>2019-07-11T10:07:20.000Z</time>
      </trkpt>
      <trkpt lat="43.54170374572277069091796875" lon="-6.419386826455593109130859375">
        <ele>97.40000152587890625</ele>
        <time>2019-07-11T10:07:22.000Z</time>
      </trkpt>
      <trkpt lat="43.54179837740957736968994140625" lon="-6.41910846345126628875732421875">
        <ele>98.40000152587890625</ele>
        <time>2019-07-11T10:07:23.000Z</time>
      </trkpt>
      <trkpt lat="43.54189510457217693328857421875" lon="-6.41883085481822490692138671875">
        <ele>99.59999847412109375</ele>
        <time>2019-07-11T10:07:24.000Z</time>
      </trkpt>
      <trkpt lat="43.5419954359531402587890625" lon="-6.41855358146131038665771484375">
        <ele>101.59999847412109375</ele>
        <time>2019-07-11T10:07:25.000Z</time>
      </trkpt>
      <trkpt lat="43.54209668934345245361328125" lon="-6.41827580519020557403564453125">
        <ele>103.59999847412109375</ele>
        <time>2019-07-11T10:07:26.000Z</time>
      </trkpt>
      <trkpt lat="43.54219995439052581787109375" lon="-6.4180018007755279541015625">
        <ele>105.59999847412109375</ele>
        <time>2019-07-11T10:07:27.000Z</time>
      </trkpt>
      <trkpt lat="43.54229927994310855865478515625" lon="-6.41772109083831310272216796875">
        <ele>107.1999969482421875</ele>
        <time>2019-07-11T10:07:28.000Z</time>
      </trkpt>
      <trkpt lat="43.54250128380954265594482421875" lon="-6.41716754995286464691162109375">
        <ele>107.40000152587890625</ele>
        <time>2019-07-11T10:07:30.000Z</time>
      </trkpt>
      <trkpt lat="43.5426963306963443756103515625" lon="-6.4166070520877838134765625">
        <ele>107.59999847412109375</ele>
        <time>2019-07-11T10:07:32.000Z</time>
      </trkpt>
      <trkpt lat="43.54284930042922496795654296875" lon="-6.41601637937128543853759765625">
        <ele>107.40000152587890625</ele>
        <time>2019-07-11T10:07:34.000Z</time>
      </trkpt>
      <trkpt lat="43.54295021854341030120849609375" lon="-6.4153992198407649993896484375">
        <ele>107.1999969482421875</ele>
        <time>2019-07-11T10:07:36.000Z</time>
      </trkpt>
      <trkpt lat="43.5430024378001689910888671875" lon="-6.41478189267218112945556640625">
        <ele>111.8000030517578125</ele>
        <time>2019-07-11T10:07:38.000Z</time>
      </trkpt>
      <trkpt lat="43.543008305132389068603515625" lon="-6.4144849218428134918212890625">
        <ele>114.8000030517578125</ele>
        <time>2019-07-11T10:07:39.000Z</time>
      </trkpt>
      <trkpt lat="43.54300067760050296783447265625" lon="-6.4141935668885707855224609375">
        <ele>118.40000152587890625</ele>
        <time>2019-07-11T10:07:40.000Z</time>
      </trkpt>
      <trkpt lat="43.5429839976131916046142578125" lon="-6.41390514560043811798095703125">
        <ele>120.1999969482421875</ele>
        <time>2019-07-11T10:07:41.000Z</time>
      </trkpt>
      <trkpt lat="43.54289305396378040313720703125" lon="-6.41305471770465373992919921875">
        <ele>117.8000030517578125</ele>
        <time>2019-07-11T10:07:44.000Z</time>
      </trkpt>
      <trkpt lat="43.54279364459216594696044921875" lon="-6.4121980033814907073974609375">
        <ele>117.1999969482421875</ele>
        <time>2019-07-11T10:07:47.000Z</time>
      </trkpt>
      <trkpt lat="43.54274268262088298797607421875" lon="-6.4112937636673450469970703125">
        <ele>118.40000152587890625</ele>
        <time>2019-07-11T10:07:50.000Z</time>
      </trkpt>
      <trkpt lat="43.54274016804993152618408203125" lon="-6.41065950505435466766357421875">
        <ele>118.59999847412109375</ele>
        <time>2019-07-11T10:07:52.000Z</time>
      </trkpt>
      <trkpt lat="43.54274570010602474212646484375" lon="-6.41001124866306781768798828125">
        <ele>118.1999969482421875</ele>
        <time>2019-07-11T10:07:54.000Z</time>
      </trkpt>
      <trkpt lat="43.5427479632198810577392578125" lon="-6.40934840776026248931884765625">
        <ele>117.59999847412109375</ele>
        <time>2019-07-11T10:07:56.000Z</time>
      </trkpt>
      <trkpt lat="43.5427479632198810577392578125" lon="-6.40868523158133029937744140625">
        <ele>117.1999969482421875</ele>
        <time>2019-07-11T10:07:58.000Z</time>
      </trkpt>
      <trkpt lat="43.54274603538215160369873046875" lon="-6.408359594643115997314453125">
        <ele>114.8000030517578125</ele>
        <time>2019-07-11T10:07:59.000Z</time>
      </trkpt>
      <trkpt lat="43.542744107544422149658203125" lon="-6.4080427587032318115234375">
        <ele>110.59999847412109375</ele>
        <time>2019-07-11T10:08:00.000Z</time>
      </trkpt>
      <trkpt lat="43.5427425988018512725830078125" lon="-6.407735310494899749755859375">
        <ele>107.59999847412109375</ele>
        <time>2019-07-11T10:08:01.000Z</time>
      </trkpt>
      <trkpt lat="43.5427419282495975494384765625" lon="-6.40743012540042400360107421875">
        <ele>104.59999847412109375</ele>
        <time>2019-07-11T10:08:02.000Z</time>
      </trkpt>
      <trkpt lat="43.54274712502956390380859375" lon="-6.40712343156337738037109375">
        <ele>103.1999969482421875</ele>
        <time>2019-07-11T10:08:03.000Z</time>
      </trkpt>
      <trkpt lat="43.54280051775276660919189453125" lon="-6.40650392509996891021728515625">
        <ele>102.1999969482421875</ele>
        <time>2019-07-11T10:08:05.000Z</time>
      </trkpt>
      <trkpt lat="43.54292792268097400665283203125" lon="-6.40591333620250225067138671875">
        <ele>101.8000030517578125</ele>
        <time>2019-07-11T10:08:07.000Z</time>
      </trkpt>
      <trkpt lat="43.543133027851581573486328125" lon="-6.40540757216513156890869140625">
        <ele>101.1999969482421875</ele>
        <time>2019-07-11T10:08:09.000Z</time>
      </trkpt>
      <trkpt lat="43.54352890513837337493896484375" lon="-6.4048041589558124542236328125">
        <ele>101.40000152587890625</ele>
        <time>2019-07-11T10:08:12.000Z</time>
      </trkpt>
      <trkpt lat="43.54368053376674652099609375" lon="-6.40463040210306644439697265625">
        <ele>103</ele>
        <time>2019-07-11T10:08:13.000Z</time>
      </trkpt>
      <trkpt lat="43.54383182711899280548095703125" lon="-6.4044608362019062042236328125">
        <ele>105.1999969482421875</ele>
        <time>2019-07-11T10:08:14.000Z</time>
      </trkpt>
      <trkpt lat="43.54397968389093875885009765625" lon="-6.40429479070007801055908203125">
        <ele>107.1999969482421875</ele>
        <time>2019-07-11T10:08:15.000Z</time>
      </trkpt>
      <trkpt lat="43.54413592256605625152587890625" lon="-6.404123045504093170166015625">
        <ele>109</ele>
        <time>2019-07-11T10:08:16.000Z</time>
      </trkpt>
      <trkpt lat="43.54443817399442195892333984375" lon="-6.403756253421306610107421875">
        <ele>110.1999969482421875</ele>
        <time>2019-07-11T10:08:18.000Z</time>
      </trkpt>
      <trkpt lat="43.544815443456172943115234375" lon="-6.4031066559255123138427734375">
        <ele>109</ele>
        <time>2019-07-11T10:08:21.000Z</time>
      </trkpt>
      <trkpt lat="43.5449876077473163604736328125" lon="-6.40257733874022960662841796875">
        <ele>108.8000030517578125</ele>
        <time>2019-07-11T10:08:23.000Z</time>
      </trkpt>
      <trkpt lat="43.54508458636701107025146484375" lon="-6.401990354061126708984375">
        <ele>110.59999847412109375</ele>
        <time>2019-07-11T10:08:25.000Z</time>
      </trkpt>
      <trkpt lat="43.54510352946817874908447265625" lon="-6.40138576738536357879638671875">
        <ele>112</ele>
        <time>2019-07-11T10:08:27.000Z</time>
      </trkpt>
      <trkpt lat="43.5450814850628376007080078125" lon="-6.40080993063747882843017578125">
        <ele>110.59999847412109375</ele>
        <time>2019-07-11T10:08:29.000Z</time>
      </trkpt>
      <trkpt lat="43.5450694151222705841064453125" lon="-6.400537602603435516357421875">
        <ele>109</ele>
        <time>2019-07-11T10:08:30.000Z</time>
      </trkpt>
      <trkpt lat="43.54505877010524272918701171875" lon="-6.40027466230094432830810546875">
        <ele>106.40000152587890625</ele>
        <time>2019-07-11T10:08:31.000Z</time>
      </trkpt>
      <trkpt lat="43.54504854418337345123291015625" lon="-6.4000202715396881103515625">
        <ele>104.1999969482421875</ele>
        <time>2019-07-11T10:08:32.000Z</time>
      </trkpt>
      <trkpt lat="43.545033372938632965087890625" lon="-6.399771831929683685302734375">
        <ele>103</ele>
        <time>2019-07-11T10:08:33.000Z</time>
      </trkpt>
      <trkpt lat="43.545012585818767547607421875" lon="-6.39953370206058025360107421875">
        <ele>102</ele>
        <time>2019-07-11T10:08:34.000Z</time>
      </trkpt>
      <trkpt lat="43.54491862468421459197998046875" lon="-6.3989029638469219207763671875">
        <ele>101.59999847412109375</ele>
        <time>2019-07-11T10:08:37.000Z</time>
      </trkpt>
      <trkpt lat="43.5447716899216175079345703125" lon="-6.39823316596448421478271484375">
        <ele>102.8000030517578125</ele>
        <time>2019-07-11T10:08:41.000Z</time>
      </trkpt>
      <trkpt lat="43.54473321698606014251708984375" lon="-6.398096121847629547119140625">
        <ele>103.40000152587890625</ele>
        <time>2019-07-11T10:08:42.000Z</time>
      </trkpt>
      <trkpt lat="43.5446935705840587615966796875" lon="-6.39798087067902088165283203125">
        <ele>104.1999969482421875</ele>
        <time>2019-07-11T10:08:43.000Z</time>
      </trkpt>
      <trkpt lat="43.5446439497172832489013671875" lon="-6.39789252541959285736083984375">
        <ele>105.1999969482421875</ele>
        <time>2019-07-11T10:08:44.000Z</time>
      </trkpt>
      <trkpt lat="43.54458334855735301971435546875" lon="-6.397827230393886566162109375">
        <ele>106.1999969482421875</ele>
        <time>2019-07-11T10:08:45.000Z</time>
      </trkpt>
      <trkpt lat="43.54451595805585384368896484375" lon="-6.3977767713367938995361328125">
        <ele>107.1999969482421875</ele>
        <time>2019-07-11T10:08:46.000Z</time>
      </trkpt>
      <trkpt lat="43.5444531776010990142822265625" lon="-6.3977207802236080169677734375">
        <ele>108</ele>
        <time>2019-07-11T10:08:47.000Z</time>
      </trkpt>
      <trkpt lat="43.5444072447717189788818359375" lon="-6.3976470194756984710693359375">
        <ele>108.59999847412109375</ele>
        <time>2019-07-11T10:08:48.000Z</time>
      </trkpt>
      <trkpt lat="43.5443852841854095458984375" lon="-6.397561691701412200927734375">
        <ele>109</ele>
        <time>2019-07-11T10:08:49.000Z</time>
      </trkpt>
      <trkpt lat="43.544403053820133209228515625" lon="-6.39738441444933414459228515625">
        <ele>109.1999969482421875</ele>
        <time>2019-07-11T10:08:51.000Z</time>
      </trkpt>
      <trkpt lat="43.5445059835910797119140625" lon="-6.3972710072994232177734375">
        <ele>109.1999969482421875</ele>
        <time>2019-07-11T10:08:53.000Z</time>
      </trkpt>
      <trkpt lat="43.54465509764850139617919921875" lon="-6.39725265093147754669189453125">
        <ele>108.8000030517578125</ele>
        <time>2019-07-11T10:08:55.000Z</time>
      </trkpt>
      <trkpt lat="43.544806055724620819091796875" lon="-6.39724217355251312255859375">
        <ele>109</ele>
        <time>2019-07-11T10:08:57.000Z</time>
      </trkpt>
      <trkpt lat="43.5449302755296230316162109375" lon="-6.39710110612213611602783203125">
        <ele>109.1999969482421875</ele>
        <time>2019-07-11T10:08:59.000Z</time>
      </trkpt>
      <trkpt lat="43.54499205015599727630615234375" lon="-6.396834142506122589111328125">
        <ele>109.59999847412109375</ele>
        <time>2019-07-11T10:09:01.000Z</time>
      </trkpt>
      <trkpt lat="43.5450456105172634124755859375" lon="-6.3965333998203277587890625">
        <ele>109</ele>
        <time>2019-07-11T10:09:03.000Z</time>
      </trkpt>
      <trkpt lat="43.54513890109956264495849609375" lon="-6.3962143845856189727783203125">
        <ele>107.1999969482421875</ele>
        <time>2019-07-11T10:09:05.000Z</time>
      </trkpt>
      <trkpt lat="43.54524384252727031707763671875" lon="-6.39591221697628498077392578125">
        <ele>106</ele>
        <time>2019-07-11T10:09:07.000Z</time>
      </trkpt>
      <trkpt lat="43.54529128409922122955322265625" lon="-6.3957617618143558502197265625">
        <ele>104.59999847412109375</ele>
        <time>2019-07-11T10:09:08.000Z</time>
      </trkpt>
      <trkpt lat="43.545335792005062103271484375" lon="-6.39560946263372898101806640625">
        <ele>102.8000030517578125</ele>
        <time>2019-07-11T10:09:09.000Z</time>
      </trkpt>
      <trkpt lat="43.54537024162709712982177734375" lon="-6.3954462669789791107177734375">
        <ele>101.8000030517578125</ele>
        <time>2019-07-11T10:09:10.000Z</time>
      </trkpt>
      <trkpt lat="43.54539438150823116302490234375" lon="-6.3952729292213916778564453125">
        <ele>101.1999969482421875</ele>
        <time>2019-07-11T10:09:11.000Z</time>
      </trkpt>
      <trkpt lat="43.54540276341140270233154296875" lon="-6.3950930535793304443359375">
        <ele>100.59999847412109375</ele>
        <time>2019-07-11T10:09:12.000Z</time>
      </trkpt>
      <trkpt lat="43.54539086110889911651611328125" lon="-6.39490873552858829498291015625">
        <ele>100.1999969482421875</ele>
        <time>2019-07-11T10:09:13.000Z</time>
      </trkpt>
      <trkpt lat="43.54536001570522785186767578125" lon="-6.39473430812358856201171875">
        <ele>99.59999847412109375</ele>
        <time>2019-07-11T10:09:14.000Z</time>
      </trkpt>
      <trkpt lat="43.54531592689454555511474609375" lon="-6.39458418823778629302978515625">
        <ele>98.1999969482421875</ele>
        <time>2019-07-11T10:09:15.000Z</time>
      </trkpt>
      <trkpt lat="43.54526228271424770355224609375" lon="-6.39445644803345203399658203125">
        <ele>97</ele>
        <time>2019-07-11T10:09:16.000Z</time>
      </trkpt>
      <trkpt lat="43.54520159773528575897216796875" lon="-6.39433776028454303741455078125">
        <ele>95.8000030517578125</ele>
        <time>2019-07-11T10:09:17.000Z</time>
      </trkpt>
      <trkpt lat="43.54513923637568950653076171875" lon="-6.39422225765883922576904296875">
        <ele>94.59999847412109375</ele>
        <time>2019-07-11T10:09:18.000Z</time>
      </trkpt>
      <trkpt lat="43.5450761206448078155517578125" lon="-6.394104659557342529296875">
        <ele>93.59999847412109375</ele>
        <time>2019-07-11T10:09:19.000Z</time>
      </trkpt>
      <trkpt lat="43.5449493862688541412353515625" lon="-6.393847167491912841796875">
        <ele>92.40000152587890625</ele>
        <time>2019-07-11T10:09:21.000Z</time>
      </trkpt>
      <trkpt lat="43.5448907129466533660888671875" lon="-6.39369101263582706451416015625">
        <ele>92.1999969482421875</ele>
        <time>2019-07-11T10:09:22.000Z</time>
      </trkpt>
      <trkpt lat="43.5448125936090946197509765625" lon="-6.39331013895571231842041015625">
        <ele>91</ele>
        <time>2019-07-11T10:09:24.000Z</time>
      </trkpt>
      <trkpt lat="43.54478116147220134735107421875" lon="-6.3929005153477191925048828125">
        <ele>89</ele>
        <time>2019-07-11T10:09:26.000Z</time>
      </trkpt>
      <trkpt lat="43.5447639785706996917724609375" lon="-6.392521820962429046630859375">
        <ele>86.8000030517578125</ele>
        <time>2019-07-11T10:09:28.000Z</time>
      </trkpt>
      <trkpt lat="43.5447522439062595367431640625" lon="-6.3920344971120357513427734375">
        <ele>85.40000152587890625</ele>
        <time>2019-07-11T10:09:31.000Z</time>
      </trkpt>
      <trkpt lat="43.54472952894866466522216796875" lon="-6.39147676527500152587890625">
        <ele>86.40000152587890625</ele>
        <time>2019-07-11T10:09:35.000Z</time>
      </trkpt>
      <trkpt lat="43.5447039641439914703369140625" lon="-6.39084468595683574676513671875">
        <ele>86.8000030517578125</ele>
        <time>2019-07-11T10:09:39.000Z</time>
      </trkpt>
      <trkpt lat="43.54468778707087039947509765625" lon="-6.3901673443615436553955078125">
        <ele>85.8000030517578125</ele>
        <time>2019-07-11T10:09:43.000Z</time>
      </trkpt>
      <trkpt lat="43.54465484619140625" lon="-6.3894952833652496337890625">
        <ele>87.1999969482421875</ele>
        <time>2019-07-11T10:09:47.000Z</time>
      </trkpt>
      <trkpt lat="43.54464688338339328765869140625" lon="-6.38932722620666027069091796875">
        <ele>88</ele>
        <time>2019-07-11T10:09:48.000Z</time>
      </trkpt>
      <trkpt lat="43.54463079012930393218994140625" lon="-6.389002092182636260986328125">
        <ele>89.59999847412109375</ele>
        <time>2019-07-11T10:09:50.000Z</time>
      </trkpt>
      <trkpt lat="43.54461670853197574615478515625" lon="-6.38868995010852813720703125">
        <ele>91.40000152587890625</ele>
        <time>2019-07-11T10:09:52.000Z</time>
      </trkpt>
      <trkpt lat="43.54461796581745147705078125" lon="-6.38825098983943462371826171875">
        <ele>92.59999847412109375</ele>
        <time>2019-07-11T10:09:55.000Z</time>
      </trkpt>
      <trkpt lat="43.5446778126060962677001953125" lon="-6.38797237537801265716552734375">
        <ele>92.1999969482421875</ele>
        <time>2019-07-11T10:09:57.000Z</time>
      </trkpt>
      <trkpt lat="43.5447388328611850738525390625" lon="-6.3878425396978855133056640625">
        <ele>91.59999847412109375</ele>
        <time>2019-07-11T10:09:58.000Z</time>
      </trkpt>
      <trkpt lat="43.54482240043580532073974609375" lon="-6.387727372348308563232421875">
        <ele>91.40000152587890625</ele>
        <time>2019-07-11T10:09:59.000Z</time>
      </trkpt>
      <trkpt lat="43.545252643525600433349609375" lon="-6.3873493485152721405029296875">
        <ele>90.8000030517578125</ele>
        <time>2019-07-11T10:10:03.000Z</time>
      </trkpt>
      <trkpt lat="43.54557040147483348846435546875" lon="-6.3870928622782230377197265625">
        <ele>89.8000030517578125</ele>
        <time>2019-07-11T10:10:06.000Z</time>
      </trkpt>
      <trkpt lat="43.5457604192197322845458984375" lon="-6.38693436048924922943115234375">
        <ele>88</ele>
        <time>2019-07-11T10:10:08.000Z</time>
      </trkpt>
      <trkpt lat="43.54598312638700008392333984375" lon="-6.38673327863216400146484375">
        <ele>87</ele>
        <time>2019-07-11T10:10:11.000Z</time>
      </trkpt>
      <trkpt lat="43.54600709863007068634033203125" lon="-6.38652867637574672698974609375">
        <ele>87.40000152587890625</ele>
        <time>2019-07-11T10:10:13.000Z</time>
      </trkpt>
      <trkpt lat="43.545920848846435546875" lon="-6.3863411732017993927001953125">
        <ele>88</ele>
        <time>2019-07-11T10:10:15.000Z</time>
      </trkpt>
      <trkpt lat="43.54570182971656322479248046875" lon="-6.38608820736408233642578125">
        <ele>87.59999847412109375</ele>
        <time>2019-07-11T10:10:18.000Z</time>
      </trkpt>
      <trkpt lat="43.54557878337800502777099609375" lon="-6.3858426176011562347412109375">
        <ele>86.1999969482421875</ele>
        <time>2019-07-11T10:10:20.000Z</time>
      </trkpt>
      <trkpt lat="43.54553469456732273101806640625" lon="-6.385536007583141326904296875">
        <ele>84.8000030517578125</ele>
        <time>2019-07-11T10:10:22.000Z</time>
      </trkpt>
      <trkpt lat="43.54554492048919200897216796875" lon="-6.38504072092473506927490234375">
        <ele>83.59999847412109375</ele>
        <time>2019-07-11T10:10:25.000Z</time>
      </trkpt>
      <trkpt lat="43.54555682279169559478759765625" lon="-6.38470058329403400421142578125">
        <ele>81.8000030517578125</ele>
        <time>2019-07-11T10:10:27.000Z</time>
      </trkpt>
      <trkpt lat="43.54557677172124385833740234375" lon="-6.38416062109172344207763671875">
        <ele>79.8000030517578125</ele>
        <time>2019-07-11T10:10:30.000Z</time>
      </trkpt>
      <trkpt lat="43.5455810464918613433837890625" lon="-6.3839687593281269073486328125">
        <ele>78</ele>
        <time>2019-07-11T10:10:31.000Z</time>
      </trkpt>
      <trkpt lat="43.54557744227349758148193359375" lon="-6.38377438299357891082763671875">
        <ele>76.59999847412109375</ele>
        <time>2019-07-11T10:10:32.000Z</time>
      </trkpt>
      <trkpt lat="43.54555414058268070220947265625" lon="-6.383581347763538360595703125">
        <ele>75.1999969482421875</ele>
        <time>2019-07-11T10:10:33.000Z</time>
      </trkpt>
      <trkpt lat="43.54550703428685665130615234375" lon="-6.38339753262698650360107421875">
        <ele>74.1999969482421875</ele>
        <time>2019-07-11T10:10:34.000Z</time>
      </trkpt>
      <trkpt lat="43.54544601403176784515380859375" lon="-6.38321866281330585479736328125">
        <ele>73</ele>
        <time>2019-07-11T10:10:35.000Z</time>
      </trkpt>
      <trkpt lat="43.54538901709020137786865234375" lon="-6.38303987681865692138671875">
        <ele>72</ele>
        <time>2019-07-11T10:10:36.000Z</time>
      </trkpt>
      <trkpt lat="43.545348532497882843017578125" lon="-6.38285958208143711090087890625">
        <ele>71.1999969482421875</ele>
        <time>2019-07-11T10:10:37.000Z</time>
      </trkpt>
      <trkpt lat="43.54532950557768344879150390625" lon="-6.38268657959997653961181640625">
        <ele>70.40000152587890625</ele>
        <time>2019-07-11T10:10:38.000Z</time>
      </trkpt>
      <trkpt lat="43.54532816447317600250244140625" lon="-6.38253159821033477783203125">
        <ele>69.59999847412109375</ele>
        <time>2019-07-11T10:10:39.000Z</time>
      </trkpt>
      <trkpt lat="43.54540997184813022613525390625" lon="-6.38225105591118335723876953125">
        <ele>68.8000030517578125</ele>
        <time>2019-07-11T10:10:41.000Z</time>
      </trkpt>
      <trkpt lat="43.5455998219549655914306640625" lon="-6.38202407397329807281494140625">
        <ele>67.8000030517578125</ele>
        <time>2019-07-11T10:10:43.000Z</time>
      </trkpt>
      <trkpt lat="43.545817919075489044189453125" lon="-6.381889879703521728515625">
        <ele>66.59999847412109375</ele>
        <time>2019-07-11T10:10:45.000Z</time>
      </trkpt>
      <trkpt lat="43.54600374586880207061767578125" lon="-6.3819068111479282379150390625">
        <ele>65.8000030517578125</ele>
        <time>2019-07-11T10:10:47.000Z</time>
      </trkpt>
      <trkpt lat="43.5460839606821537017822265625" lon="-6.3819899596273899078369140625">
        <ele>65.40000152587890625</ele>
        <time>2019-07-11T10:10:48.000Z</time>
      </trkpt>
      <trkpt lat="43.546155206859111785888671875" lon="-6.38211912475526332855224609375">
        <ele>65</ele>
        <time>2019-07-11T10:10:49.000Z</time>
      </trkpt>
      <trkpt lat="43.54628537781536579132080078125" lon="-6.38243009336292743682861328125">
        <ele>63.799999237060546875</ele>
        <time>2019-07-11T10:10:51.000Z</time>
      </trkpt>
      <trkpt lat="43.54640842415392398834228515625" lon="-6.38272630982100963592529296875">
        <ele>62.40000152587890625</ele>
        <time>2019-07-11T10:10:53.000Z</time>
      </trkpt>
      <trkpt lat="43.5464752279222011566162109375" lon="-6.382854469120502471923828125">
        <ele>61.40000152587890625</ele>
        <time>2019-07-11T10:10:54.000Z</time>
      </trkpt>
      <trkpt lat="43.54655410163104534149169921875" lon="-6.38294910080730915069580078125">
        <ele>60.40000152587890625</ele>
        <time>2019-07-11T10:10:55.000Z</time>
      </trkpt>
      <trkpt lat="43.5466458834707736968994140625" lon="-6.38299318961799144744873046875">
        <ele>59.40000152587890625</ele>
        <time>2019-07-11T10:10:56.000Z</time>
      </trkpt>
      <trkpt lat="43.5467375814914703369140625" lon="-6.38298279605805873870849609375">
        <ele>58.799999237060546875</ele>
        <time>2019-07-11T10:10:57.000Z</time>
      </trkpt>
      <trkpt lat="43.54681042023003101348876953125" lon="-6.38291456736624240875244140625">
        <ele>58.59999847412109375</ele>
        <time>2019-07-11T10:10:58.000Z</time>
      </trkpt>
      <trkpt lat="43.5468822531402111053466796875" lon="-6.38263075612485408782958984375">
        <ele>58.200000762939453125</ele>
        <time>2019-07-11T10:11:00.000Z</time>
      </trkpt>
      <trkpt lat="43.54689625091850757598876953125" lon="-6.38224736787378787994384765625">
        <ele>56.799999237060546875</ele>
        <time>2019-07-11T10:11:02.000Z</time>
      </trkpt>
      <trkpt lat="43.54690245352685451507568359375" lon="-6.38205349445343017578125">
        <ele>55</ele>
        <time>2019-07-11T10:11:03.000Z</time>
      </trkpt>
      <trkpt lat="43.546912260353565216064453125" lon="-6.38186230324208736419677734375">
        <ele>53</ele>
        <time>2019-07-11T10:11:04.000Z</time>
      </trkpt>
      <trkpt lat="43.5469224862754344940185546875" lon="-6.38167538680136203765869140625">
        <ele>51.799999237060546875</ele>
        <time>2019-07-11T10:11:05.000Z</time>
      </trkpt>
      <trkpt lat="43.54693145491182804107666015625" lon="-6.38149316422641277313232421875">
        <ele>50.40000152587890625</ele>
        <time>2019-07-11T10:11:06.000Z</time>
      </trkpt>
      <trkpt lat="43.5469499789178371429443359375" lon="-6.381130479276180267333984375">
        <ele>48.799999237060546875</ele>
        <time>2019-07-11T10:11:08.000Z</time>
      </trkpt>
      <trkpt lat="43.54702181182801723480224609375" lon="-6.3803712464869022369384765625">
        <ele>47.799999237060546875</ele>
        <time>2019-07-11T10:11:12.000Z</time>
      </trkpt>
      <trkpt lat="43.54706992395222187042236328125" lon="-6.380176953971385955810546875">
        <ele>46.799999237060546875</ele>
        <time>2019-07-11T10:11:13.000Z</time>
      </trkpt>
      <trkpt lat="43.5471373982727527618408203125" lon="-6.37999397702515125274658203125">
        <ele>45.200000762939453125</ele>
        <time>2019-07-11T10:11:14.000Z</time>
      </trkpt>
      <trkpt lat="43.54722582735121250152587890625" lon="-6.37982784770429134368896484375">
        <ele>43.200000762939453125</ele>
        <time>2019-07-11T10:11:15.000Z</time>
      </trkpt>
      <trkpt lat="43.54732775129377841949462890625" lon="-6.3796846009790897369384765625">
        <ele>41.40000152587890625</ele>
        <time>2019-07-11T10:11:16.000Z</time>
      </trkpt>
      <trkpt lat="43.54743587784469127655029296875" lon="-6.37956365011632442474365234375">
        <ele>40.40000152587890625</ele>
        <time>2019-07-11T10:11:17.000Z</time>
      </trkpt>
      <trkpt lat="43.5475457645952701568603515625" lon="-6.37946390546858310699462890625">
        <ele>39.200000762939453125</ele>
        <time>2019-07-11T10:11:18.000Z</time>
      </trkpt>
      <trkpt lat="43.547649867832660675048828125" lon="-6.37938804924488067626953125">
        <ele>38.59999847412109375</ele>
        <time>2019-07-11T10:11:19.000Z</time>
      </trkpt>
      <trkpt lat="43.54783250950276851654052734375" lon="-6.3792618177831172943115234375">
        <ele>38.40000152587890625</ele>
        <time>2019-07-11T10:11:21.000Z</time>
      </trkpt>
      <trkpt lat="43.54793946258723735809326171875" lon="-6.3790619932115077972412109375">
        <ele>39</ele>
        <time>2019-07-11T10:11:23.000Z</time>
      </trkpt>
      <trkpt lat="43.54794700630009174346923828125" lon="-6.378740631043910980224609375">
        <ele>39</ele>
        <time>2019-07-11T10:11:25.000Z</time>
      </trkpt>
      <trkpt lat="43.5478780232369899749755859375" lon="-6.37818365357816219329833984375">
        <ele>37.799999237060546875</ele>
        <time>2019-07-11T10:11:28.000Z</time>
      </trkpt>
      <trkpt lat="43.5478431545197963714599609375" lon="-6.37778945267200469970703125">
        <ele>36.59999847412109375</ele>
        <time>2019-07-11T10:11:30.000Z</time>
      </trkpt>
      <trkpt lat="43.54778657667338848114013671875" lon="-6.3773956708610057830810546875">
        <ele>36.40000152587890625</ele>
        <time>2019-07-11T10:11:32.000Z</time>
      </trkpt>
      <trkpt lat="43.54755892418324947357177734375" lon="-6.3766925968229770660400390625">
        <ele>38.799999237060546875</ele>
        <time>2019-07-11T10:11:36.000Z</time>
      </trkpt>
      <trkpt lat="43.547478877007961273193359375" lon="-6.37637701816856861114501953125">
        <ele>40.59999847412109375</ele>
        <time>2019-07-11T10:11:38.000Z</time>
      </trkpt>
      <trkpt lat="43.5474760271608829498291015625" lon="-6.3762087933719158172607421875">
        <ele>42.200000762939453125</ele>
        <time>2019-07-11T10:11:39.000Z</time>
      </trkpt>
      <trkpt lat="43.54749488644301891326904296875" lon="-6.37602531351149082183837890625">
        <ele>43.799999237060546875</ele>
        <time>2019-07-11T10:11:40.000Z</time>
      </trkpt>
      <trkpt lat="43.547522462904453277587890625" lon="-6.37584594078361988067626953125">
        <ele>45.40000152587890625</ele>
        <time>2019-07-11T10:11:41.000Z</time>
      </trkpt>
      <trkpt lat="43.54756177403032779693603515625" lon="-6.37566556222736835479736328125">
        <ele>46.59999847412109375</ele>
        <time>2019-07-11T10:11:42.000Z</time>
      </trkpt>
      <trkpt lat="43.5476688109338283538818359375" lon="-6.37533531524240970611572265625">
        <ele>48.200000762939453125</ele>
        <time>2019-07-11T10:11:44.000Z</time>
      </trkpt>
      <trkpt lat="43.5477566532790660858154296875" lon="-6.37508352287113666534423828125">
        <ele>48.59999847412109375</ele>
        <time>2019-07-11T10:11:46.000Z</time>
      </trkpt>
      <trkpt lat="43.54776763357222080230712890625" lon="-6.3749679364264011383056640625">
        <ele>49.200000762939453125</ele>
        <time>2019-07-11T10:11:47.000Z</time>
      </trkpt>
      <trkpt lat="43.5477345250546932220458984375" lon="-6.3748529367148876190185546875">
        <ele>50.200000762939453125</ele>
        <time>2019-07-11T10:11:48.000Z</time>
      </trkpt>
      <trkpt lat="43.54767794720828533172607421875" lon="-6.37473575770854949951171875">
        <ele>51</ele>
        <time>2019-07-11T10:11:49.000Z</time>
      </trkpt>
      <trkpt lat="43.54759446345269680023193359375" lon="-6.37462721206247806549072265625">
        <ele>51.799999237060546875</ele>
        <time>2019-07-11T10:11:50.000Z</time>
      </trkpt>
      <trkpt lat="43.54749840684235095977783203125" lon="-6.3745193369686603546142578125">
        <ele>52.59999847412109375</ele>
        <time>2019-07-11T10:11:51.000Z</time>
      </trkpt>
      <trkpt lat="43.54730981402099132537841796875" lon="-6.37431892566382884979248046875">
        <ele>54.40000152587890625</ele>
        <time>2019-07-11T10:11:53.000Z</time>
      </trkpt>
      <trkpt lat="43.54722096584737300872802734375" lon="-6.37420861981809139251708984375">
        <ele>55.200000762939453125</ele>
        <time>2019-07-11T10:11:54.000Z</time>
      </trkpt>
      <trkpt lat="43.54715935885906219482421875" lon="-6.3740704022347927093505859375">
        <ele>55.59999847412109375</ele>
        <time>2019-07-11T10:11:55.000Z</time>
      </trkpt>
      <trkpt lat="43.54712759144604206085205078125" lon="-6.373910643160343170166015625">
        <ele>56</ele>
        <time>2019-07-11T10:11:56.000Z</time>
      </trkpt>
      <trkpt lat="43.5470814071595668792724609375" lon="-6.3736067153513431549072265625">
        <ele>56.799999237060546875</ele>
        <time>2019-07-11T10:11:58.000Z</time>
      </trkpt>
      <trkpt lat="43.54701929725706577301025390625" lon="-6.37351778335869312286376953125">
        <ele>57.40000152587890625</ele>
        <time>2019-07-11T10:11:59.000Z</time>
      </trkpt>
      <trkpt lat="43.54692206718027591705322265625" lon="-6.37347872368991374969482421875">
        <ele>58.59999847412109375</ele>
        <time>2019-07-11T10:12:00.000Z</time>
      </trkpt>
      <trkpt lat="43.54680530726909637451171875" lon="-6.373469419777393341064453125">
        <ele>59.40000152587890625</ele>
        <time>2019-07-11T10:12:01.000Z</time>
      </trkpt>
      <trkpt lat="43.5466723702847957611083984375" lon="-6.37348911724984645843505859375">
        <ele>60.200000762939453125</ele>
        <time>2019-07-11T10:12:02.000Z</time>
      </trkpt>
      <trkpt lat="43.546532727777957916259765625" lon="-6.3735383190214633941650390625">
        <ele>60.799999237060546875</ele>
        <time>2019-07-11T10:12:03.000Z</time>
      </trkpt>
      <trkpt lat="43.5463937558233737945556640625" lon="-6.37361015193164348602294921875">
        <ele>61.59999847412109375</ele>
        <time>2019-07-11T10:12:04.000Z</time>
      </trkpt>
      <trkpt lat="43.54625017382204532623291015625" lon="-6.37367217801511287689208984375">
        <ele>62.40000152587890625</ele>
        <time>2019-07-11T10:12:05.000Z</time>
      </trkpt>
      <trkpt lat="43.5460950247943401336669921875" lon="-6.373697407543659210205078125">
        <ele>63.200000762939453125</ele>
        <time>2019-07-11T10:12:06.000Z</time>
      </trkpt>
      <trkpt lat="43.54593216441571712493896484375" lon="-6.37367494404315948486328125">
        <ele>64</ele>
        <time>2019-07-11T10:12:07.000Z</time>
      </trkpt>
      <trkpt lat="43.54576771147549152374267578125" lon="-6.37361970730125904083251953125">
        <ele>65.1999969482421875</ele>
        <time>2019-07-11T10:12:08.000Z</time>
      </trkpt>
      <trkpt lat="43.54560728184878826141357421875" lon="-6.3735550828278064727783203125">
        <ele>66.1999969482421875</ele>
        <time>2019-07-11T10:12:09.000Z</time>
      </trkpt>
      <trkpt lat="43.545453138649463653564453125" lon="-6.37349364347755908966064453125">
        <ele>67.40000152587890625</ele>
        <time>2019-07-11T10:12:10.000Z</time>
      </trkpt>
      <trkpt lat="43.5451743565499782562255859375" lon="-6.373380236327648162841796875">
        <ele>69</ele>
        <time>2019-07-11T10:12:12.000Z</time>
      </trkpt>
      <trkpt lat="43.54495366103947162628173828125" lon="-6.3731899671256542205810546875">
        <ele>70.1999969482421875</ele>
        <time>2019-07-11T10:12:14.000Z</time>
      </trkpt>
      <trkpt lat="43.5448437742888927459716796875" lon="-6.37295653112232685089111328125">
        <ele>71.8000030517578125</ele>
        <time>2019-07-11T10:12:16.000Z</time>
      </trkpt>
      <trkpt lat="43.54485089890658855438232421875" lon="-6.37271446175873279571533203125">
        <ele>73</ele>
        <time>2019-07-11T10:12:18.000Z</time>
      </trkpt>
      <trkpt lat="43.544980399310588836669921875" lon="-6.37255537323653697967529296875">
        <ele>73.8000030517578125</ele>
        <time>2019-07-11T10:12:20.000Z</time>
      </trkpt>
      <trkpt lat="43.54509514756500720977783203125" lon="-6.37254145927727222442626953125">
        <ele>74.40000152587890625</ele>
        <time>2019-07-11T10:12:21.000Z</time>
      </trkpt>
      <trkpt lat="43.54522992856800556182861328125" lon="-6.37256945483386516571044921875">
        <ele>75</ele>
        <time>2019-07-11T10:12:22.000Z</time>
      </trkpt>
      <trkpt lat="43.5453694872558116912841796875" lon="-6.37262695468962192535400390625">
        <ele>75.59999847412109375</ele>
        <time>2019-07-11T10:12:23.000Z</time>
      </trkpt>
      <trkpt lat="43.54564189910888671875" lon="-6.37273759581148624420166015625">
        <ele>76.8000030517578125</ele>
        <time>2019-07-11T10:12:25.000Z</time>
      </trkpt>
      <trkpt lat="43.5459196753799915313720703125" lon="-6.37268227525055408477783203125">
        <ele>77.8000030517578125</ele>
        <time>2019-07-11T10:12:27.000Z</time>
      </trkpt>
      <trkpt lat="43.54639702476561069488525390625" lon="-6.3724282197654247283935546875">
        <ele>78.8000030517578125</ele>
        <time>2019-07-11T10:12:30.000Z</time>
      </trkpt>
      <trkpt lat="43.54657254181802272796630859375" lon="-6.3723479211330413818359375">
        <ele>79</ele>
        <time>2019-07-11T10:12:31.000Z</time>
      </trkpt>
      <trkpt lat="43.547022901475429534912109375" lon="-6.37216477654874324798583984375">
        <ele>80.59999847412109375</ele>
        <time>2019-07-11T10:12:34.000Z</time>
      </trkpt>
      <trkpt lat="43.54712775908410549163818359375" lon="-6.37211146764457225799560546875">
        <ele>81.40000152587890625</ele>
        <time>2019-07-11T10:12:35.000Z</time>
      </trkpt>
      <trkpt lat="43.54721157811582088470458984375" lon="-6.372027061879634857177734375">
        <ele>82.1999969482421875</ele>
        <time>2019-07-11T10:12:36.000Z</time>
      </trkpt>
      <trkpt lat="43.54726773686707019805908203125" lon="-6.3719132356345653533935546875">
        <ele>83.1999969482421875</ele>
        <time>2019-07-11T10:12:37.000Z</time>
      </trkpt>
      <trkpt lat="43.54729237966239452362060546875" lon="-6.37178373523056507110595703125">
        <ele>84.40000152587890625</ele>
        <time>2019-07-11T10:12:38.000Z</time>
      </trkpt>
      <trkpt lat="43.547285087406635284423828125" lon="-6.37165524065494537353515625">
        <ele>84.40000152587890625</ele>
        <time>2019-07-11T10:12:39.000Z</time>
      </trkpt>
      <trkpt lat="43.547243513166904449462890625" lon="-6.37153831310570240020751953125">
        <ele>85.59999847412109375</ele>
        <time>2019-07-11T10:12:40.000Z</time>
      </trkpt>
      <trkpt lat="43.54717469774186611175537109375" lon="-6.37143303640186786651611328125">
        <ele>86.1999969482421875</ele>
        <time>2019-07-11T10:12:41.000Z</time>
      </trkpt>
      <trkpt lat="43.547089956700801849365234375" lon="-6.37132625095546245574951171875">
        <ele>87</ele>
        <time>2019-07-11T10:12:42.000Z</time>
      </trkpt>
      <trkpt lat="43.5467898845672607421875" lon="-6.3709861971437931060791015625">
        <ele>88</ele>
        <time>2019-07-11T10:12:45.000Z</time>
      </trkpt>
      <trkpt lat="43.54655745439231395721435546875" lon="-6.3708579540252685546875">
        <ele>89.1999969482421875</ele>
        <time>2019-07-11T10:12:47.000Z</time>
      </trkpt>
      <trkpt lat="43.5462914966046810150146484375" lon="-6.37070448137819766998291015625">
        <ele>90.59999847412109375</ele>
        <time>2019-07-11T10:12:50.000Z</time>
      </trkpt>
      <trkpt lat="43.54626006446778774261474609375" lon="-6.370480097830295562744140625">
        <ele>92</ele>
        <time>2019-07-11T10:12:52.000Z</time>
      </trkpt>
      <trkpt lat="43.5463605634868144989013671875" lon="-6.3702397048473358154296875">
        <ele>93.40000152587890625</ele>
        <time>2019-07-11T10:12:54.000Z</time>
      </trkpt>
      <trkpt lat="43.54656315408647060394287109375" lon="-6.3701060973107814788818359375">
        <ele>94.40000152587890625</ele>
        <time>2019-07-11T10:12:56.000Z</time>
      </trkpt>
      <trkpt lat="43.54670916683971881866455078125" lon="-6.37008480727672576904296875">
        <ele>94.8000030517578125</ele>
        <time>2019-07-11T10:12:57.000Z</time>
      </trkpt>
      <trkpt lat="43.54702952317893505096435546875" lon="-6.37006795965135097503662109375">
        <ele>95.8000030517578125</ele>
        <time>2019-07-11T10:12:59.000Z</time>
      </trkpt>
      <trkpt lat="43.54752841405570507049560546875" lon="-6.37004935182631015777587890625">
        <ele>97.59999847412109375</ele>
        <time>2019-07-11T10:13:02.000Z</time>
      </trkpt>
      <trkpt lat="43.54768414981663227081298828125" lon="-6.37005471624433994293212890625">
        <ele>98.8000030517578125</ele>
        <time>2019-07-11T10:13:03.000Z</time>
      </trkpt>
      <trkpt lat="43.5478270612657070159912109375" lon="-6.37004331685602664947509765625">
        <ele>100</ele>
        <time>2019-07-11T10:13:04.000Z</time>
      </trkpt>
      <trkpt lat="43.54806988500058650970458984375" lon="-6.36999838985502719879150390625">
        <ele>101.59999847412109375</ele>
        <time>2019-07-11T10:13:06.000Z</time>
      </trkpt>
      <trkpt lat="43.54822830297052860260009765625" lon="-6.36985204182565212249755859375">
        <ele>103.1999969482421875</ele>
        <time>2019-07-11T10:13:08.000Z</time>
      </trkpt>
      <trkpt lat="43.54828764684498310089111328125" lon="-6.36958214454352855682373046875">
        <ele>104.8000030517578125</ele>
        <time>2019-07-11T10:13:10.000Z</time>
      </trkpt>
      <trkpt lat="43.5482702963054180145263671875" lon="-6.36922138743102550506591796875">
        <ele>106</ele>
        <time>2019-07-11T10:13:12.000Z</time>
      </trkpt>
      <trkpt lat="43.5482476651668548583984375" lon="-6.36884487234055995941162109375">
        <ele>107</ele>
        <time>2019-07-11T10:13:14.000Z</time>
      </trkpt>
      <trkpt lat="43.5482173226773738861083984375" lon="-6.36866868473589420318603515625">
        <ele>107.40000152587890625</ele>
        <time>2019-07-11T10:13:15.000Z</time>
      </trkpt>
      <trkpt lat="43.548056893050670623779296875" lon="-6.368369869887828826904296875">
        <ele>108.40000152587890625</ele>
        <time>2019-07-11T10:13:17.000Z</time>
      </trkpt>
      <trkpt lat="43.54778657667338848114013671875" lon="-6.368137858808040618896484375">
        <ele>109.40000152587890625</ele>
        <time>2019-07-11T10:13:19.000Z</time>
      </trkpt>
      <trkpt lat="43.54733638465404510498046875" lon="-6.36779998429119586944580078125">
        <ele>110.40000152587890625</ele>
        <time>2019-07-11T10:13:22.000Z</time>
      </trkpt>
      <trkpt lat="43.54718073271214962005615234375" lon="-6.36768917553126811981201171875">
        <ele>110.8000030517578125</ele>
        <time>2019-07-11T10:13:23.000Z</time>
      </trkpt>
      <trkpt lat="43.54687227867543697357177734375" lon="-6.36748784221708774566650390625">
        <ele>112.1999969482421875</ele>
        <time>2019-07-11T10:13:25.000Z</time>
      </trkpt>
      <trkpt lat="43.54645653627812862396240234375" lon="-6.367217190563678741455078125">
        <ele>113.40000152587890625</ele>
        <time>2019-07-11T10:13:28.000Z</time>
      </trkpt>
      <trkpt lat="43.5459210164844989776611328125" lon="-6.366878561675548553466796875">
        <ele>113.1999969482421875</ele>
        <time>2019-07-11T10:13:32.000Z</time>
      </trkpt>
      <trkpt lat="43.545381389558315277099609375" lon="-6.36652878485620021820068359375">
        <ele>113</ele>
        <time>2019-07-11T10:13:36.000Z</time>
      </trkpt>
      <trkpt lat="43.5452501289546489715576171875" lon="-6.36642116121947765350341796875">
        <ele>112.59999847412109375</ele>
        <time>2019-07-11T10:13:37.000Z</time>
      </trkpt>
      <trkpt lat="43.54512901045382022857666015625" lon="-6.36629057116806507110595703125">
        <ele>112.40000152587890625</ele>
        <time>2019-07-11T10:13:38.000Z</time>
      </trkpt>
      <trkpt lat="43.54478250257670879364013671875" lon="-6.365847252309322357177734375">
        <ele>111</ele>
        <time>2019-07-11T10:13:41.000Z</time>
      </trkpt>
      <trkpt lat="43.544492907822132110595703125" lon="-6.36563426814973354339599609375">
        <ele>110</ele>
        <time>2019-07-11T10:13:43.000Z</time>
      </trkpt>
      <trkpt lat="43.5440263710916042327880859375" lon="-6.36533888988196849822998046875">
        <ele>108.40000152587890625</ele>
        <time>2019-07-11T10:13:46.000Z</time>
      </trkpt>
      <trkpt lat="43.54389787651598453521728515625" lon="-6.36522640474140644073486328125">
        <ele>106.59999847412109375</ele>
        <time>2019-07-11T10:13:47.000Z</time>
      </trkpt>
      <trkpt lat="43.54377835057675838470458984375" lon="-6.36511609889566898345947265625">
        <ele>105</ele>
        <time>2019-07-11T10:13:48.000Z</time>
      </trkpt>
      <trkpt lat="43.5436656139791011810302734375" lon="-6.3650099001824855804443359375">
        <ele>103.59999847412109375</ele>
        <time>2019-07-11T10:13:49.000Z</time>
      </trkpt>
      <trkpt lat="43.54349101893603801727294921875" lon="-6.36480621993541717529296875">
        <ele>102.59999847412109375</ele>
        <time>2019-07-11T10:13:51.000Z</time>
      </trkpt>
      <trkpt lat="43.5434325970709323883056640625" lon="-6.3645582832396030426025390625">
        <ele>102.40000152587890625</ele>
        <time>2019-07-11T10:13:53.000Z</time>
      </trkpt>
      <trkpt lat="43.54344894178211688995361328125" lon="-6.364343874156475067138671875">
        <ele>102.59999847412109375</ele>
        <time>2019-07-11T10:13:55.000Z</time>
      </trkpt>
      <trkpt lat="43.5437534563243389129638671875" lon="-6.36423901654779911041259765625">
        <ele>102.59999847412109375</ele>
        <time>2019-07-11T10:13:58.000Z</time>
      </trkpt>
      <trkpt lat="43.5443140380084514617919921875" lon="-6.3642449676990509033203125">
        <ele>104</ele>
        <time>2019-07-11T10:14:01.000Z</time>
      </trkpt>
      <trkpt lat="43.54449751786887645721435546875" lon="-6.364284195005893707275390625">
        <ele>105.1999969482421875</ele>
        <time>2019-07-11T10:14:02.000Z</time>
      </trkpt>
      <trkpt lat="43.544664569199085235595703125" lon="-6.36433507315814495086669921875">
        <ele>106.1999969482421875</ele>
        <time>2019-07-11T10:14:03.000Z</time>
      </trkpt>
      <trkpt lat="43.54482055641710758209228515625" lon="-6.3643871247768402099609375">
        <ele>107.40000152587890625</ele>
        <time>2019-07-11T10:14:04.000Z</time>
      </trkpt>
      <trkpt lat="43.545123897492885589599609375" lon="-6.36449650861322879791259765625">
        <ele>108.59999847412109375</ele>
        <time>2019-07-11T10:14:06.000Z</time>
      </trkpt>
      <trkpt lat="43.54542665183544158935546875" lon="-6.36460681445896625518798828125">
        <ele>109.59999847412109375</ele>
        <time>2019-07-11T10:14:08.000Z</time>
      </trkpt>
      <trkpt lat="43.54557551443576812744140625" lon="-6.364630199968814849853515625">
        <ele>110</ele>
        <time>2019-07-11T10:14:09.000Z</time>
      </trkpt>
      <trkpt lat="43.5457201860845088958740234375" lon="-6.3646246679127216339111328125">
        <ele>110.59999847412109375</ele>
        <time>2019-07-11T10:14:10.000Z</time>
      </trkpt>
      <trkpt lat="43.545862846076488494873046875" lon="-6.3645874522626399993896484375">
        <ele>111.59999847412109375</ele>
        <time>2019-07-11T10:14:11.000Z</time>
      </trkpt>
      <trkpt lat="43.5460045002400875091552734375" lon="-6.364530287683010101318359375">
        <ele>112.59999847412109375</ele>
        <time>2019-07-11T10:14:12.000Z</time>
      </trkpt>
      <trkpt lat="43.546142466366291046142578125" lon="-6.36446314863860607147216796875">
        <ele>113.8000030517578125</ele>
        <time>2019-07-11T10:14:13.000Z</time>
      </trkpt>
      <trkpt lat="43.546268530189990997314453125" lon="-6.36437832377851009368896484375">
        <ele>115</ele>
        <time>2019-07-11T10:14:14.000Z</time>
      </trkpt>
      <trkpt lat="43.54639350436627864837646484375" lon="-6.364270783960819244384765625">
        <ele>116</ele>
        <time>2019-07-11T10:14:15.000Z</time>
      </trkpt>
      <trkpt lat="43.54664077050983905792236328125" lon="-6.364067606627941131591796875">
        <ele>117</ele>
        <time>2019-07-11T10:14:17.000Z</time>
      </trkpt>
      <trkpt lat="43.54690647684037685394287109375" lon="-6.36392913758754730224609375">
        <ele>118.59999847412109375</ele>
        <time>2019-07-11T10:14:20.000Z</time>
      </trkpt>
      <trkpt lat="43.54697856120765209197998046875" lon="-6.3637100346386432647705078125">
        <ele>119.8000030517578125</ele>
        <time>2019-07-11T10:14:22.000Z</time>
      </trkpt>
      <trkpt lat="43.54698610492050647735595703125" lon="-6.36356427334249019622802734375">
        <ele>121.1999969482421875</ele>
        <time>2019-07-11T10:14:23.000Z</time>
      </trkpt>
      <trkpt lat="43.5469734482467174530029296875" lon="-6.36341549456119537353515625">
        <ele>122.59999847412109375</ele>
        <time>2019-07-11T10:14:24.000Z</time>
      </trkpt>
      <trkpt lat="43.546888120472431182861328125" lon="-6.363127492368221282958984375">
        <ele>124.1999969482421875</ele>
        <time>2019-07-11T10:14:26.000Z</time>
      </trkpt>
      <trkpt lat="43.54673950932919979095458984375" lon="-6.36284351348876953125">
        <ele>125.59999847412109375</ele>
        <time>2019-07-11T10:14:28.000Z</time>
      </trkpt>
      <trkpt lat="43.546467684209346771240234375" lon="-6.3623808324337005615234375">
        <ele>126.59999847412109375</ele>
        <time>2019-07-11T10:14:31.000Z</time>
      </trkpt>
      <trkpt lat="43.54623734951019287109375" lon="-6.36194556020200252532958984375">
        <ele>127.1999969482421875</ele>
        <time>2019-07-11T10:14:34.000Z</time>
      </trkpt>
      <trkpt lat="43.54614757932722568511962890625" lon="-6.36165068484842777252197265625">
        <ele>127</ele>
        <time>2019-07-11T10:14:36.000Z</time>
      </trkpt>
      <trkpt lat="43.54619032703340053558349609375" lon="-6.361331753432750701904296875">
        <ele>127</ele>
        <time>2019-07-11T10:14:38.000Z</time>
      </trkpt>
      <trkpt lat="43.54634623043239116668701171875" lon="-6.36108574457466602325439453125">
        <ele>127</ele>
        <time>2019-07-11T10:14:40.000Z</time>
      </trkpt>
      <trkpt lat="43.54672349989414215087890625" lon="-6.36066329665482044219970703125">
        <ele>127.59999847412109375</ele>
        <time>2019-07-11T10:14:43.000Z</time>
      </trkpt>
      <trkpt lat="43.547159023582935333251953125" lon="-6.360132806003093719482421875">
        <ele>126.40000152587890625</ele>
        <time>2019-07-11T10:14:47.000Z</time>
      </trkpt>
      <trkpt lat="43.54735122062265872955322265625" lon="-6.35985352098941802978515625">
        <ele>124.8000030517578125</ele>
        <time>2019-07-11T10:14:49.000Z</time>
      </trkpt>
      <trkpt lat="43.54742749594151973724365234375" lon="-6.359711699187755584716796875">
        <ele>123.8000030517578125</ele>
        <time>2019-07-11T10:14:50.000Z</time>
      </trkpt>
      <trkpt lat="43.54749304242432117462158203125" lon="-6.35956895537674427032470703125">
        <ele>122.8000030517578125</ele>
        <time>2019-07-11T10:14:51.000Z</time>
      </trkpt>
      <trkpt lat="43.547543585300445556640625" lon="-6.3594148121774196624755859375">
        <ele>122.40000152587890625</ele>
        <time>2019-07-11T10:14:52.000Z</time>
      </trkpt>
      <trkpt lat="43.54757367633283138275146484375" lon="-6.3592426478862762451171875">
        <ele>121.8000030517578125</ele>
        <time>2019-07-11T10:14:53.000Z</time>
      </trkpt>
      <trkpt lat="43.54760318063199520111083984375" lon="-6.35890175588428974151611328125">
        <ele>120.8000030517578125</ele>
        <time>2019-07-11T10:14:55.000Z</time>
      </trkpt>
      <trkpt lat="43.54757753200829029083251953125" lon="-6.35862062685191631317138671875">
        <ele>119.1999969482421875</ele>
        <time>2019-07-11T10:14:57.000Z</time>
      </trkpt>
      <trkpt lat="43.5474713332951068878173828125" lon="-6.3584019429981708526611328125">
        <ele>117.8000030517578125</ele>
        <time>2019-07-11T10:14:59.000Z</time>
      </trkpt>
      <trkpt lat="43.547175787389278411865234375" lon="-6.35813782922923564910888671875">
        <ele>116.40000152587890625</ele>
        <time>2019-07-11T10:15:02.000Z</time>
      </trkpt>
      <trkpt lat="43.5469067282974720001220703125" lon="-6.35798092000186443328857421875">
        <ele>114.40000152587890625</ele>
        <time>2019-07-11T10:15:04.000Z</time>
      </trkpt>
      <trkpt lat="43.546769432723522186279296875" lon="-6.35791026055812835693359375">
        <ele>113.1999969482421875</ele>
        <time>2019-07-11T10:15:05.000Z</time>
      </trkpt>
      <trkpt lat="43.54662803001701831817626953125" lon="-6.35783909820020198822021484375">
        <ele>112.1999969482421875</ele>
        <time>2019-07-11T10:15:06.000Z</time>
      </trkpt>
      <trkpt lat="43.54634522460401058197021484375" lon="-6.35770641267299652099609375">
        <ele>110.40000152587890625</ele>
        <time>2019-07-11T10:15:08.000Z</time>
      </trkpt>
      <trkpt lat="43.54608924128115177154541015625" lon="-6.3575982861220836639404296875">
        <ele>109</ele>
        <time>2019-07-11T10:15:10.000Z</time>
      </trkpt>
      <trkpt lat="43.5458901710808277130126953125" lon="-6.35751807130873203277587890625">
        <ele>108.40000152587890625</ele>
        <time>2019-07-11T10:15:12.000Z</time>
      </trkpt>
      <trkpt lat="43.54580693878233432769775390625" lon="-6.35746677406132221221923828125">
        <ele>108.1999969482421875</ele>
        <time>2019-07-11T10:15:13.000Z</time>
      </trkpt>
      <trkpt lat="43.54574449360370635986328125" lon="-6.357411704957485198974609375">
        <ele>108.40000152587890625</ele>
        <time>2019-07-11T10:15:14.000Z</time>
      </trkpt>
      <trkpt lat="43.54567743837833404541015625" lon="-6.3572819530963897705078125">
        <ele>109.40000152587890625</ele>
        <time>2019-07-11T10:15:16.000Z</time>
      </trkpt>
      <trkpt lat="43.54570702649652957916259765625" lon="-6.35717038996517658233642578125">
        <ele>110</ele>
        <time>2019-07-11T10:15:18.000Z</time>
      </trkpt>
      <trkpt lat="43.54589880444109439849853515625" lon="-6.35709931142628192901611328125">
        <ele>110.40000152587890625</ele>
        <time>2019-07-11T10:15:20.000Z</time>
      </trkpt>
      <trkpt lat="43.54648000560700893402099609375" lon="-6.35702588595449924468994140625">
        <ele>111</ele>
        <time>2019-07-11T10:15:24.000Z</time>
      </trkpt>
      <trkpt lat="43.54699096642434597015380859375" lon="-6.35690401308238506317138671875">
        <ele>111.8000030517578125</ele>
        <time>2019-07-11T10:15:27.000Z</time>
      </trkpt>
      <trkpt lat="43.547172434628009796142578125" lon="-6.35684701614081859588623046875">
        <ele>112</ele>
        <time>2019-07-11T10:15:28.000Z</time>
      </trkpt>
      <trkpt lat="43.54736161418259143829345703125" lon="-6.35680711828172206878662109375">
        <ele>112</ele>
        <time>2019-07-11T10:15:29.000Z</time>
      </trkpt>
      <trkpt lat="43.54788087308406829833984375" lon="-6.35684165172278881072998046875">
        <ele>112</ele>
        <time>2019-07-11T10:15:32.000Z</time>
      </trkpt>
      <trkpt lat="43.54812897741794586181640625" lon="-6.3568452559411525726318359375">
        <ele>113</ele>
        <time>2019-07-11T10:15:34.000Z</time>
      </trkpt>
      <trkpt lat="43.548233918845653533935546875" lon="-6.356810890138149261474609375">
        <ele>114.40000152587890625</ele>
        <time>2019-07-11T10:15:35.000Z</time>
      </trkpt>
      <trkpt lat="43.5483388602733612060546875" lon="-6.3567252270877361297607421875">
        <ele>116.1999969482421875</ele>
        <time>2019-07-11T10:15:36.000Z</time>
      </trkpt>
      <trkpt lat="43.54843986220657825469970703125" lon="-6.35660930536687374114990234375">
        <ele>117.59999847412109375</ele>
        <time>2019-07-11T10:15:37.000Z</time>
      </trkpt>
      <trkpt lat="43.54852602817118167877197265625" lon="-6.35647636838257312774658203125">
        <ele>118.59999847412109375</ele>
        <time>2019-07-11T10:15:38.000Z</time>
      </trkpt>
      <trkpt lat="43.5486142896115779876708984375" lon="-6.35617177002131938934326171875">
        <ele>120.1999969482421875</ele>
        <time>2019-07-11T10:15:40.000Z</time>
      </trkpt>
      <trkpt lat="43.54860263876616954803466796875" lon="-6.35581411421298980712890625">
        <ele>121.40000152587890625</ele>
        <time>2019-07-11T10:15:42.000Z</time>
      </trkpt>
      <trkpt lat="43.54857028461992740631103515625" lon="-6.35540633462369441986083984375">
        <ele>122.40000152587890625</ele>
        <time>2019-07-11T10:15:44.000Z</time>
      </trkpt>
      <trkpt lat="43.5485264472663402557373046875" lon="-6.354751624166965484619140625">
        <ele>123.40000152587890625</ele>
        <time>2019-07-11T10:15:47.000Z</time>
      </trkpt>
      <trkpt lat="43.5484942607581615447998046875" lon="-6.35454501025378704071044921875">
        <ele>123.59999847412109375</ele>
        <time>2019-07-11T10:15:48.000Z</time>
      </trkpt>
      <trkpt lat="43.54837574064731597900390625" lon="-6.35415608994662761688232421875">
        <ele>125.40000152587890625</ele>
        <time>2019-07-11T10:15:50.000Z</time>
      </trkpt>
      <trkpt lat="43.5482994653284549713134765625" lon="-6.3539828360080718994140625">
        <ele>126.59999847412109375</ele>
        <time>2019-07-11T10:15:51.000Z</time>
      </trkpt>
      <trkpt lat="43.54814565740525722503662109375" lon="-6.3536567799746990203857421875">
        <ele>127.8000030517578125</ele>
        <time>2019-07-11T10:15:53.000Z</time>
      </trkpt>
      <trkpt lat="43.54793325997889041900634765625" lon="-6.353386379778385162353515625">
        <ele>128.8000030517578125</ele>
        <time>2019-07-11T10:15:55.000Z</time>
      </trkpt>
      <trkpt lat="43.54750134050846099853515625" lon="-6.35293878614902496337890625">
        <ele>127.40000152587890625</ele>
        <time>2019-07-11T10:15:59.000Z</time>
      </trkpt>
      <trkpt lat="43.54716195724904537200927734375" lon="-6.35277123190462589263916015625">
        <ele>126.1999969482421875</ele>
        <time>2019-07-11T10:16:02.000Z</time>
      </trkpt>
      <trkpt lat="43.54683154262602329254150390625" lon="-6.3526828028261661529541015625">
        <ele>126</ele>
        <time>2019-07-11T10:16:05.000Z</time>
      </trkpt>
      <trkpt lat="43.54664328508079051971435546875" lon="-6.35254827328026294708251953125">
        <ele>125.40000152587890625</ele>
        <time>2019-07-11T10:16:07.000Z</time>
      </trkpt>
      <trkpt lat="43.54659433476626873016357421875" lon="-6.3524202816188335418701171875">
        <ele>125</ele>
        <time>2019-07-11T10:16:08.000Z</time>
      </trkpt>
      <trkpt lat="43.54657555930316448211669921875" lon="-6.3522603549063205718994140625">
        <ele>124.8000030517578125</ele>
        <time>2019-07-11T10:16:09.000Z</time>
      </trkpt>
      <trkpt lat="43.54664563201367855072021484375" lon="-6.35187260806560516357421875">
        <ele>124.1999969482421875</ele>
        <time>2019-07-11T10:16:11.000Z</time>
      </trkpt>
      <trkpt lat="43.54671402834355831146240234375" lon="-6.35170103050768375396728515625">
        <ele>124</ele>
        <time>2019-07-11T10:16:12.000Z</time>
      </trkpt>
      <trkpt lat="43.54681042023003101348876953125" lon="-6.35154194198548793792724609375">
        <ele>123.59999847412109375</ele>
        <time>2019-07-11T10:16:13.000Z</time>
      </trkpt>
      <trkpt lat="43.54693262837827205657958984375" lon="-6.35138285346329212188720703125">
        <ele>123</ele>
        <time>2019-07-11T10:16:14.000Z</time>
      </trkpt>
      <trkpt lat="43.5472245700657367706298828125" lon="-6.3510386087000370025634765625">
        <ele>121.59999847412109375</ele>
        <time>2019-07-11T10:16:16.000Z</time>
      </trkpt>
      <trkpt lat="43.5475410707294940948486328125" lon="-6.3506971299648284912109375">
        <ele>119.8000030517578125</ele>
        <time>2019-07-11T10:16:18.000Z</time>
      </trkpt>
      <trkpt lat="43.54782815091311931610107421875" lon="-6.35040585882961750030517578125">
        <ele>118.40000152587890625</ele>
        <time>2019-07-11T10:16:20.000Z</time>
      </trkpt>
      <trkpt lat="43.54806150309741497039794921875" lon="-6.3501633703708648681640625">
        <ele>118.59999847412109375</ele>
        <time>2019-07-11T10:16:22.000Z</time>
      </trkpt>
      <trkpt lat="43.548154793679714202880859375" lon="-6.35002951137721538543701171875">
        <ele>119.59999847412109375</ele>
        <time>2019-07-11T10:16:23.000Z</time>
      </trkpt>
      <trkpt lat="43.54823534376919269561767578125" lon="-6.34986908175051212310791015625">
        <ele>121.59999847412109375</ele>
        <time>2019-07-11T10:16:24.000Z</time>
      </trkpt>
      <trkpt lat="43.548305667936801910400390625" lon="-6.34967856109142303466796875">
        <ele>123.40000152587890625</ele>
        <time>2019-07-11T10:16:25.000Z</time>
      </trkpt>
      <trkpt lat="43.5483665205538272857666015625" lon="-6.34946390055119991302490234375">
        <ele>124.8000030517578125</ele>
        <time>2019-07-11T10:16:26.000Z</time>
      </trkpt>
      <trkpt lat="43.5484788380563259124755859375" lon="-6.34902083314955234527587890625">
        <ele>126.40000152587890625</ele>
        <time>2019-07-11T10:16:28.000Z</time>
      </trkpt>
      <trkpt lat="43.548620827496051788330078125" lon="-6.3484526239335536956787109375">
        <ele>127.59999847412109375</ele>
        <time>2019-07-11T10:16:31.000Z</time>
      </trkpt>
      <trkpt lat="43.548653684556484222412109375" lon="-6.34827970527112483978271484375">
        <ele>128.1999969482421875</ele>
        <time>2019-07-11T10:16:32.000Z</time>
      </trkpt>
      <trkpt lat="43.5486669279634952545166015625" lon="-6.34811458177864551544189453125">
        <ele>129.1999969482421875</ele>
        <time>2019-07-11T10:16:33.000Z</time>
      </trkpt>
      <trkpt lat="43.54865142144262790679931640625" lon="-6.34795247577130794525146484375">
        <ele>130.399993896484375</ele>
        <time>2019-07-11T10:16:34.000Z</time>
      </trkpt>
      <trkpt lat="43.54860842227935791015625" lon="-6.34779523126780986785888671875">
        <ele>131.399993896484375</ele>
        <time>2019-07-11T10:16:35.000Z</time>
      </trkpt>
      <trkpt lat="43.54854463599622249603271484375" lon="-6.3476412557065486907958984375">
        <ele>132.399993896484375</ele>
        <time>2019-07-11T10:16:36.000Z</time>
      </trkpt>
      <trkpt lat="43.5484724678099155426025390625" lon="-6.34748694486916065216064453125">
        <ele>133.399993896484375</ele>
        <time>2019-07-11T10:16:37.000Z</time>
      </trkpt>
      <trkpt lat="43.54832821525633335113525390625" lon="-6.34717899374663829803466796875">
        <ele>134.8000030517578125</ele>
        <time>2019-07-11T10:16:39.000Z</time>
      </trkpt>
      <trkpt lat="43.54818304069340229034423828125" lon="-6.34686626493930816650390625">
        <ele>136</ele>
        <time>2019-07-11T10:16:41.000Z</time>
      </trkpt>
      <trkpt lat="43.547982461750507354736328125" lon="-6.3464530371129512786865234375">
        <ele>135.8000030517578125</ele>
        <time>2019-07-11T10:16:44.000Z</time>
      </trkpt>
      <trkpt lat="43.54780845344066619873046875" lon="-6.3462860696017742156982421875">
        <ele>135.1999969482421875</ele>
        <time>2019-07-11T10:16:46.000Z</time>
      </trkpt>
      <trkpt lat="43.5476983152329921722412109375" lon="-6.34624826721847057342529296875">
        <ele>134.8000030517578125</ele>
        <time>2019-07-11T10:16:47.000Z</time>
      </trkpt>
      <trkpt lat="43.5475744307041168212890625" lon="-6.34623862802982330322265625">
        <ele>134.399993896484375</ele>
        <time>2019-07-11T10:16:48.000Z</time>
      </trkpt>
      <trkpt lat="43.54730294086039066314697265625" lon="-6.34629084728658199310302734375">
        <ele>133.8000030517578125</ele>
        <time>2019-07-11T10:16:50.000Z</time>
      </trkpt>
      <trkpt lat="43.54717033915221691131591796875" lon="-6.3463608361780643463134765625">
        <ele>133.1999969482421875</ele>
        <time>2019-07-11T10:16:51.000Z</time>
      </trkpt>
      <trkpt lat="43.54691452346742153167724609375" lon="-6.3465450704097747802734375">
        <ele>132.1999969482421875</ele>
        <time>2019-07-11T10:16:53.000Z</time>
      </trkpt>
      <trkpt lat="43.5466705262660980224609375" lon="-6.346731483936309814453125">
        <ele>131</ele>
        <time>2019-07-11T10:16:55.000Z</time>
      </trkpt>
      <trkpt lat="43.546444214880466461181640625" lon="-6.34690859355032444000244140625">
        <ele>129.399993896484375</ele>
        <time>2019-07-11T10:16:57.000Z</time>
      </trkpt>
      <trkpt lat="43.546331226825714111328125" lon="-6.3469703681766986846923828125">
        <ele>128.399993896484375</ele>
        <time>2019-07-11T10:16:58.000Z</time>
      </trkpt>
      <trkpt lat="43.54621832258999347686767578125" lon="-6.34701018221676349639892578125">
        <ele>127.8000030517578125</ele>
        <time>2019-07-11T10:16:59.000Z</time>
      </trkpt>
      <trkpt lat="43.54610483162105083465576171875" lon="-6.3470225036144256591796875">
        <ele>127.40000152587890625</ele>
        <time>2019-07-11T10:17:00.000Z</time>
      </trkpt>
      <trkpt lat="43.54588371701538562774658203125" lon="-6.3469522632658481597900390625">
        <ele>127.59999847412109375</ele>
        <time>2019-07-11T10:17:02.000Z</time>
      </trkpt>
      <trkpt lat="43.54569747112691402435302734375" lon="-6.3467732258141040802001953125">
        <ele>127.59999847412109375</ele>
        <time>2019-07-11T10:17:04.000Z</time>
      </trkpt>
      <trkpt lat="43.54559135623276233673095703125" lon="-6.3464775122702121734619140625">
        <ele>127.40000152587890625</ele>
        <time>2019-07-11T10:17:06.000Z</time>
      </trkpt>
      <trkpt lat="43.54560007341206073760986328125" lon="-6.34605615399777889251708984375">
        <ele>127.40000152587890625</ele>
        <time>2019-07-11T10:17:08.000Z</time>
      </trkpt>
      <trkpt lat="43.5455934517085552215576171875" lon="-6.345390379428863525390625">
        <ele>126.8000030517578125</ele>
        <time>2019-07-11T10:17:11.000Z</time>
      </trkpt>
      <trkpt lat="43.5455867461860179901123046875" lon="-6.34518720209598541259765625">
        <ele>126</ele>
        <time>2019-07-11T10:17:12.000Z</time>
      </trkpt>
      <trkpt lat="43.54559856466948986053466796875" lon="-6.3448433764278888702392578125">
        <ele>125</ele>
        <time>2019-07-11T10:17:14.000Z</time>
      </trkpt>
      <trkpt lat="43.54571473784744739532470703125" lon="-6.3445956073701381683349609375">
        <ele>125.1999969482421875</ele>
        <time>2019-07-11T10:17:16.000Z</time>
      </trkpt>
      <trkpt lat="43.545788414776325225830078125" lon="-6.34449644945561885833740234375">
        <ele>126.1999969482421875</ele>
        <time>2019-07-11T10:17:17.000Z</time>
      </trkpt>
      <trkpt lat="43.545870892703533172607421875" lon="-6.34438396431505680084228515625">
        <ele>127.1999969482421875</ele>
        <time>2019-07-11T10:17:18.000Z</time>
      </trkpt>
      <trkpt lat="43.545943312346935272216796875" lon="-6.3442435674369335174560546875">
        <ele>127.8000030517578125</ele>
        <time>2019-07-11T10:17:19.000Z</time>
      </trkpt>
      <trkpt lat="43.5459850542247295379638671875" lon="-6.34407400153577327728271484375">
        <ele>128.399993896484375</ele>
        <time>2019-07-11T10:17:20.000Z</time>
      </trkpt>
      <trkpt lat="43.5459785163402557373046875" lon="-6.34368541650474071502685546875">
        <ele>127.8000030517578125</ele>
        <time>2019-07-11T10:17:22.000Z</time>
      </trkpt>
      <trkpt lat="43.54593970812857151031494140625" lon="-6.34304923005402088165283203125">
        <ele>126.40000152587890625</ele>
        <time>2019-07-11T10:17:25.000Z</time>
      </trkpt>
      <trkpt lat="43.5459287278354167938232421875" lon="-6.3424632512032985687255859375">
        <ele>125.40000152587890625</ele>
        <time>2019-07-11T10:17:28.000Z</time>
      </trkpt>
      <trkpt lat="43.5459293983876705169677734375" lon="-6.34229938499629497528076171875">
        <ele>125.1999969482421875</ele>
        <time>2019-07-11T10:17:29.000Z</time>
      </trkpt>
      <trkpt lat="43.54600458405911922454833984375" lon="-6.34202127344906330108642578125">
        <ele>126.1999969482421875</ele>
        <time>2019-07-11T10:17:31.000Z</time>
      </trkpt>
      <trkpt lat="43.54605806060135364532470703125" lon="-6.34190929122269153594970703125">
        <ele>126.59999847412109375</ele>
        <time>2019-07-11T10:17:32.000Z</time>
      </trkpt>
      <trkpt lat="43.5463183186948299407958984375" lon="-6.3415103964507579803466796875">
        <ele>125.40000152587890625</ele>
        <time>2019-07-11T10:17:42.000Z</time>
      </trkpt>
      <trkpt lat="43.54636810719966888427734375" lon="-6.34134091436862945556640625">
        <ele>124.59999847412109375</ele>
        <time>2019-07-11T10:17:44.000Z</time>
      </trkpt>
      <trkpt lat="43.5463930852711200714111328125" lon="-6.34122532792389392852783203125">
        <ele>124</ele>
        <time>2019-07-11T10:17:45.000Z</time>
      </trkpt>
      <trkpt lat="43.5464064963161945343017578125" lon="-6.34109205566346645355224609375">
        <ele>123.40000152587890625</ele>
        <time>2019-07-11T10:17:46.000Z</time>
      </trkpt>
      <trkpt lat="43.5463927499949932098388671875" lon="-6.34094151668250560760498046875">
        <ele>122.8000030517578125</ele>
        <time>2019-07-11T10:17:47.000Z</time>
      </trkpt>
      <trkpt lat="43.546351678669452667236328125" lon="-6.34078544564545154571533203125">
        <ele>121.8000030517578125</ele>
        <time>2019-07-11T10:17:48.000Z</time>
      </trkpt>
      <trkpt lat="43.5463084280490875244140625" lon="-6.34064018726348876953125">
        <ele>120.59999847412109375</ele>
        <time>2019-07-11T10:17:49.000Z</time>
      </trkpt>
      <trkpt lat="43.54626224376261234283447265625" lon="-6.34050917811691761016845703125">
        <ele>119.1999969482421875</ele>
        <time>2019-07-11T10:17:50.000Z</time>
      </trkpt>
      <trkpt lat="43.5462130419909954071044921875" lon="-6.3403925858438014984130859375">
        <ele>118</ele>
        <time>2019-07-11T10:17:51.000Z</time>
      </trkpt>
      <trkpt lat="43.54615109972655773162841796875" lon="-6.34029862470924854278564453125">
        <ele>117.1999969482421875</ele>
        <time>2019-07-11T10:17:52.000Z</time>
      </trkpt>
      <trkpt lat="43.546074740588665008544921875" lon="-6.34023961611092090606689453125">
        <ele>116.8000030517578125</ele>
        <time>2019-07-11T10:17:53.000Z</time>
      </trkpt>
      <trkpt lat="43.54599083773791790008544921875" lon="-6.34022033773362636566162109375">
        <ele>116.40000152587890625</ele>
        <time>2019-07-11T10:17:54.000Z</time>
      </trkpt>
      <trkpt lat="43.54583594016730785369873046875" lon="-6.34022486396133899688720703125">
        <ele>115.59999847412109375</ele>
        <time>2019-07-11T10:17:56.000Z</time>
      </trkpt>
      <trkpt lat="43.54576461017131805419921875" lon="-6.3402075134217739105224609375">
        <ele>115</ele>
        <time>2019-07-11T10:17:57.000Z</time>
      </trkpt>
      <trkpt lat="43.54568791575729846954345703125" lon="-6.3401713036000728607177734375">
        <ele>114</ele>
        <time>2019-07-11T10:17:58.000Z</time>
      </trkpt>
      <trkpt lat="43.54561314918100833892822265625" lon="-6.34010550566017627716064453125">
        <ele>113.1999969482421875</ele>
        <time>2019-07-11T10:17:59.000Z</time>
      </trkpt>
      <trkpt lat="43.54555808007717132568359375" lon="-6.3400264643132686614990234375">
        <ele>112.40000152587890625</ele>
        <time>2019-07-11T10:18:00.000Z</time>
      </trkpt>
      <trkpt lat="43.54552245698869228363037109375" lon="-6.3399379514157772064208984375">
        <ele>111.59999847412109375</ele>
        <time>2019-07-11T10:18:01.000Z</time>
      </trkpt>
      <trkpt lat="43.54553352110087871551513671875" lon="-6.3398273102939128875732421875">
        <ele>111</ele>
        <time>2019-07-11T10:18:02.000Z</time>
      </trkpt>
      <trkpt lat="43.5456202737987041473388671875" lon="-6.33965246379375457763671875">
        <ele>110</ele>
        <time>2019-07-11T10:18:05.000Z</time>
      </trkpt>
      <trkpt lat="43.5457094572484493255615234375" lon="-6.33963578380644321441650390625">
        <ele>109.8000030517578125</ele>
        <time>2019-07-11T10:18:06.000Z</time>
      </trkpt>
      <trkpt lat="43.5461060889065265655517578125" lon="-6.3394906930625438690185546875">
        <ele>108.40000152587890625</ele>
        <time>2019-07-11T10:18:08.000Z</time>
      </trkpt>
      <trkpt lat="43.5462603159248828887939453125" lon="-6.33942221291363239288330078125">
        <ele>107.40000152587890625</ele>
        <time>2019-07-11T10:18:09.000Z</time>
      </trkpt>
      <trkpt lat="43.54638009332120418548583984375" lon="-6.33934308774769306182861328125">
        <ele>106</ele>
        <time>2019-07-11T10:18:10.000Z</time>
      </trkpt>
      <trkpt lat="43.54650498367846012115478515625" lon="-6.33924401365220546722412109375">
        <ele>104.40000152587890625</ele>
        <time>2019-07-11T10:18:11.000Z</time>
      </trkpt>
      <trkpt lat="43.54661679826676845550537109375" lon="-6.3391332887113094329833984375">
        <ele>102.59999847412109375</ele>
        <time>2019-07-11T10:18:12.000Z</time>
      </trkpt>
      <trkpt lat="43.54670648463070392608642578125" lon="-6.3389995135366916656494140625">
        <ele>100.8000030517578125</ele>
        <time>2019-07-11T10:18:13.000Z</time>
      </trkpt>
      <trkpt lat="43.54679147712886333465576171875" lon="-6.3388375751674175262451171875">
        <ele>99.1999969482421875</ele>
        <time>2019-07-11T10:18:14.000Z</time>
      </trkpt>
      <trkpt lat="43.54687211103737354278564453125" lon="-6.3386632315814495086669921875">
        <ele>98</ele>
        <time>2019-07-11T10:18:15.000Z</time>
      </trkpt>
      <trkpt lat="43.546948470175266265869140625" lon="-6.33849064819514751434326171875">
        <ele>97.1999969482421875</ele>
        <time>2019-07-11T10:18:16.000Z</time>
      </trkpt>
      <trkpt lat="43.54701845906674861907958984375" lon="-6.33833575062453746795654296875">
        <ele>96.59999847412109375</ele>
        <time>2019-07-11T10:18:17.000Z</time>
      </trkpt>
      <trkpt lat="43.54711510241031646728515625" lon="-6.338075660169124603271484375">
        <ele>95.1999969482421875</ele>
        <time>2019-07-11T10:18:19.000Z</time>
      </trkpt>
      <trkpt lat="43.54713262058794498443603515625" lon="-6.337964348495006561279296875">
        <ele>94.59999847412109375</ele>
        <time>2019-07-11T10:18:20.000Z</time>
      </trkpt>
      <trkpt lat="43.5471404157578945159912109375" lon="-6.33785747922956943511962890625">
        <ele>93.8000030517578125</ele>
        <time>2019-07-11T10:18:21.000Z</time>
      </trkpt>
      <trkpt lat="43.5471316985785961151123046875" lon="-6.33775639347732067108154296875">
        <ele>93.1999969482421875</ele>
        <time>2019-07-11T10:18:22.000Z</time>
      </trkpt>
      <trkpt lat="43.5470445267856121063232421875" lon="-6.33755187503993511199951171875">
        <ele>92.59999847412109375</ele>
        <time>2019-07-11T10:18:24.000Z</time>
      </trkpt>
      <trkpt lat="43.5468239150941371917724609375" lon="-6.33725683204829692840576171875">
        <ele>91.1999969482421875</ele>
        <time>2019-07-11T10:18:27.000Z</time>
      </trkpt>
      <trkpt lat="43.5466700233519077301025390625" lon="-6.337122805416584014892578125">
        <ele>89.59999847412109375</ele>
        <time>2019-07-11T10:18:29.000Z</time>
      </trkpt>
      <trkpt lat="43.546509929001331329345703125" lon="-6.33699883706867694854736328125">
        <ele>88</ele>
        <time>2019-07-11T10:18:31.000Z</time>
      </trkpt>
      <trkpt lat="43.54643516242504119873046875" lon="-6.3369251601397991180419921875">
        <ele>87.40000152587890625</ele>
        <time>2019-07-11T10:18:32.000Z</time>
      </trkpt>
      <trkpt lat="43.5463820211589336395263671875" lon="-6.33682432584464550018310546875">
        <ele>86.59999847412109375</ele>
        <time>2019-07-11T10:18:33.000Z</time>
      </trkpt>
      <trkpt lat="43.5462963581085205078125" lon="-6.33661486208438873291015625">
        <ele>84.8000030517578125</ele>
        <time>2019-07-11T10:18:35.000Z</time>
      </trkpt>
      <trkpt lat="43.54615621268749237060546875" lon="-6.33647681213915348052978515625">
        <ele>83.1999969482421875</ele>
        <time>2019-07-11T10:18:37.000Z</time>
      </trkpt>
      <trkpt lat="43.54596904478967189788818359375" lon="-6.336399279534816741943359375">
        <ele>82</ele>
        <time>2019-07-11T10:18:39.000Z</time>
      </trkpt>
      <trkpt lat="43.5457681305706501007080078125" lon="-6.3363813422620296478271484375">
        <ele>80.1999969482421875</ele>
        <time>2019-07-11T10:18:41.000Z</time>
      </trkpt>
      <trkpt lat="43.54568121023476123809814453125" lon="-6.33637036196887493133544921875">
        <ele>79.1999969482421875</ele>
        <time>2019-07-11T10:18:42.000Z</time>
      </trkpt>
      <trkpt lat="43.54553067125380039215087890625" lon="-6.33630045689642429351806640625">
        <ele>77.59999847412109375</ele>
        <time>2019-07-11T10:18:44.000Z</time>
      </trkpt>
      <trkpt lat="43.54542824439704418182373046875" lon="-6.33609660901129245758056640625">
        <ele>76.1999969482421875</ele>
        <time>2019-07-11T10:18:46.000Z</time>
      </trkpt>
      <trkpt lat="43.5452628694474697113037109375" lon="-6.33552186191082000732421875">
        <ele>75.40000152587890625</ele>
        <time>2019-07-11T10:18:50.000Z</time>
      </trkpt>
      <trkpt lat="43.545221798121929168701171875" lon="-6.3353557325899600982666015625">
        <ele>74.1999969482421875</ele>
        <time>2019-07-11T10:18:51.000Z</time>
      </trkpt>
      <trkpt lat="43.54519003070890903472900390625" lon="-6.335187256336212158203125">
        <ele>72</ele>
        <time>2019-07-11T10:18:52.000Z</time>
      </trkpt>
      <trkpt lat="43.54516119696199893951416015625" lon="-6.33502104319632053375244140625">
        <ele>69.1999969482421875</ele>
        <time>2019-07-11T10:18:53.000Z</time>
      </trkpt>
      <trkpt lat="43.54512800462543964385986328125" lon="-6.3348588533699512481689453125">
        <ele>67.1999969482421875</ele>
        <time>2019-07-11T10:18:54.000Z</time>
      </trkpt>
      <trkpt lat="43.54508458636701107025146484375" lon="-6.33469549007713794708251953125">
        <ele>65.8000030517578125</ele>
        <time>2019-07-11T10:18:55.000Z</time>
      </trkpt>
      <trkpt lat="43.545027337968349456787109375" lon="-6.33454981260001659393310546875">
        <ele>64.59999847412109375</ele>
        <time>2019-07-11T10:18:56.000Z</time>
      </trkpt>
      <trkpt lat="43.54490102268755435943603515625" lon="-6.33430690504610538482666015625">
        <ele>63.200000762939453125</ele>
        <time>2019-07-11T10:18:58.000Z</time>
      </trkpt>
      <trkpt lat="43.54480563662946224212646484375" lon="-6.33408092893660068511962890625">
        <ele>63.200000762939453125</ele>
        <time>2019-07-11T10:19:01.000Z</time>
      </trkpt>
      <trkpt lat="43.544848971068859100341796875" lon="-6.3339046575129032135009765625">
        <ele>64.1999969482421875</ele>
        <time>2019-07-11T10:19:04.000Z</time>
      </trkpt>
      <trkpt lat="43.54490119032561779022216796875" lon="-6.33382326923310756683349609375">
        <ele>64.59999847412109375</ele>
        <time>2019-07-11T10:19:05.000Z</time>
      </trkpt>
      <trkpt lat="43.54497511871159076690673828125" lon="-6.33376660756766796112060546875">
        <ele>64.8000030517578125</ele>
        <time>2019-07-11T10:19:06.000Z</time>
      </trkpt>
      <trkpt lat="43.54520671069622039794921875" lon="-6.33371816016733646392822265625">
        <ele>65</ele>
        <time>2019-07-11T10:19:08.000Z</time>
      </trkpt>
      <trkpt lat="43.54543469846248626708984375" lon="-6.333799548447132110595703125">
        <ele>65.40000152587890625</ele>
        <time>2019-07-11T10:19:10.000Z</time>
      </trkpt>
      <trkpt lat="43.54554039426147937774658203125" lon="-6.333899796009063720703125">
        <ele>65.8000030517578125</ele>
        <time>2019-07-11T10:19:11.000Z</time>
      </trkpt>
      <trkpt lat="43.545958064496517181396484375" lon="-6.33440480567514896392822265625">
        <ele>67</ele>
        <time>2019-07-11T10:19:15.000Z</time>
      </trkpt>
      <trkpt lat="43.5461473278701305389404296875" lon="-6.33464251644909381866455078125">
        <ele>68.8000030517578125</ele>
        <time>2019-07-11T10:19:17.000Z</time>
      </trkpt>
      <trkpt lat="43.54622653685510158538818359375" lon="-6.3347498886287212371826171875">
        <ele>70.1999969482421875</ele>
        <time>2019-07-11T10:19:18.000Z</time>
      </trkpt>
      <trkpt lat="43.54630784131586551666259765625" lon="-6.3348068855702877044677734375">
        <ele>72.40000152587890625</ele>
        <time>2019-07-11T10:19:19.000Z</time>
      </trkpt>
      <trkpt lat="43.54639501310884952545166015625" lon="-6.334842257201671600341796875">
        <ele>74.40000152587890625</ele>
        <time>2019-07-11T10:19:20.000Z</time>
      </trkpt>
      <trkpt lat="43.5464926622807979583740234375" lon="-6.33485457859933376312255859375">
        <ele>76</ele>
        <time>2019-07-11T10:19:21.000Z</time>
      </trkpt>
      <trkpt lat="43.5465986095368862152099609375" lon="-6.3348441012203693389892578125">
        <ele>76.8000030517578125</ele>
        <time>2019-07-11T10:19:22.000Z</time>
      </trkpt>
      <trkpt lat="43.546710424125194549560546875" lon="-6.334818117320537567138671875">
        <ele>77.40000152587890625</ele>
        <time>2019-07-11T10:19:23.000Z</time>
      </trkpt>
      <trkpt lat="43.54681561700999736785888671875" lon="-6.33480462245643138885498046875">
        <ele>78</ele>
        <time>2019-07-11T10:19:24.000Z</time>
      </trkpt>
      <trkpt lat="43.54691527783870697021484375" lon="-6.3348202966153621673583984375">
        <ele>78.8000030517578125</ele>
        <time>2019-07-11T10:19:25.000Z</time>
      </trkpt>
      <trkpt lat="43.5470140166580677032470703125" lon="-6.33487368933856487274169921875">
        <ele>79.59999847412109375</ele>
        <time>2019-07-11T10:19:26.000Z</time>
      </trkpt>
      <trkpt lat="43.547100014984607696533203125" lon="-6.33495449088513851165771484375">
        <ele>80.1999969482421875</ele>
        <time>2019-07-11T10:19:27.000Z</time>
      </trkpt>
      <trkpt lat="43.54718324728310108184814453125" lon="-6.33505515754222869873046875">
        <ele>80.8000030517578125</ele>
        <time>2019-07-11T10:19:28.000Z</time>
      </trkpt>
      <trkpt lat="43.54726857505738735198974609375" lon="-6.33515515364706516265869140625">
        <ele>81.40000152587890625</ele>
        <time>2019-07-11T10:19:29.000Z</time>
      </trkpt>
      <trkpt lat="43.54736647568643093109130859375" lon="-6.33523025549948215484619140625">
        <ele>82.1999969482421875</ele>
        <time>2019-07-11T10:19:30.000Z</time>
      </trkpt>
      <trkpt lat="43.54748097248375415802001953125" lon="-6.33528540842235088348388671875">
        <ele>83.1999969482421875</ele>
        <time>2019-07-11T10:19:31.000Z</time>
      </trkpt>
      <trkpt lat="43.54773796163499355316162109375" lon="-6.33540560491383075714111328125">
        <ele>84.40000152587890625</ele>
        <time>2019-07-11T10:19:33.000Z</time>
      </trkpt>
      <trkpt lat="43.547876514494419097900390625" lon="-6.33545958437025547027587890625">
        <ele>84.59999847412109375</ele>
        <time>2019-07-11T10:19:34.000Z</time>
      </trkpt>
      <trkpt lat="43.54833173565566539764404296875" lon="-6.335601992905139923095703125">
        <ele>85.40000152587890625</ele>
        <time>2019-07-11T10:19:37.000Z</time>
      </trkpt>
      <trkpt lat="43.5484805144369602203369140625" lon="-6.33564432151615619659423828125">
        <ele>85.59999847412109375</ele>
        <time>2019-07-11T10:19:38.000Z</time>
      </trkpt>
      <trkpt lat="43.54863566346466541290283203125" lon="-6.33566946722567081451416015625">
        <ele>86.40000152587890625</ele>
        <time>2019-07-11T10:19:39.000Z</time>
      </trkpt>
      <trkpt lat="43.5487869568169116973876953125" lon="-6.33570584468543529510498046875">
        <ele>87.1999969482421875</ele>
        <time>2019-07-11T10:19:40.000Z</time>
      </trkpt>
      <trkpt lat="43.5489381663501262664794921875" lon="-6.33575764484703540802001953125">
        <ele>88.8000030517578125</ele>
        <time>2019-07-11T10:19:41.000Z</time>
      </trkpt>
      <trkpt lat="43.549092896282672882080078125" lon="-6.33580349385738372802734375">
        <ele>90.59999847412109375</ele>
        <time>2019-07-11T10:19:42.000Z</time>
      </trkpt>
      <trkpt lat="43.54925257153809070587158203125" lon="-6.33584079332649707794189453125">
        <ele>92.1999969482421875</ele>
        <time>2019-07-11T10:19:43.000Z</time>
      </trkpt>
      <trkpt lat="43.5497099719941616058349609375" lon="-6.3359897397458553314208984375">
        <ele>93.1999969482421875</ele>
        <time>2019-07-11T10:19:46.000Z</time>
      </trkpt>
      <trkpt lat="43.5498462617397308349609375" lon="-6.33603089489042758941650390625">
        <ele>93.59999847412109375</ele>
        <time>2019-07-11T10:19:47.000Z</time>
      </trkpt>
      <trkpt lat="43.5499768517911434173583984375" lon="-6.33604531176388263702392578125">
        <ele>94.59999847412109375</ele>
        <time>2019-07-11T10:19:48.000Z</time>
      </trkpt>
      <trkpt lat="43.55022110044956207275390625" lon="-6.33603684604167938232421875">
        <ele>97</ele>
        <time>2019-07-11T10:19:50.000Z</time>
      </trkpt>
      <trkpt lat="43.55034121312201023101806640625" lon="-6.33605696260929107666015625">
        <ele>99</ele>
        <time>2019-07-11T10:19:51.000Z</time>
      </trkpt>
      <trkpt lat="43.55045906268060207366943359375" lon="-6.3361241854727268218994140625">
        <ele>100.59999847412109375</ele>
        <time>2019-07-11T10:19:52.000Z</time>
      </trkpt>
      <trkpt lat="43.5505763255059719085693359375" lon="-6.33621429093182086944580078125">
        <ele>101.8000030517578125</ele>
        <time>2019-07-11T10:19:53.000Z</time>
      </trkpt>
      <trkpt lat="43.55069140903651714324951171875" lon="-6.336294673383235931396484375">
        <ele>102.59999847412109375</ele>
        <time>2019-07-11T10:19:54.000Z</time>
      </trkpt>
      <trkpt lat="43.55080372653901576995849609375" lon="-6.33635577745735645294189453125">
        <ele>103.40000152587890625</ele>
        <time>2019-07-11T10:19:55.000Z</time>
      </trkpt>
      <trkpt lat="43.5509122721850872039794921875" lon="-6.3364215753972530364990234375">
        <ele>104.59999847412109375</ele>
        <time>2019-07-11T10:19:56.000Z</time>
      </trkpt>
      <trkpt lat="43.5510076582431793212890625" lon="-6.336517296731472015380859375">
        <ele>106</ele>
        <time>2019-07-11T10:19:57.000Z</time>
      </trkpt>
      <trkpt lat="43.551088459789752960205078125" lon="-6.336666159331798553466796875">
        <ele>107.40000152587890625</ele>
        <time>2019-07-11T10:19:58.000Z</time>
      </trkpt>
      <trkpt lat="43.5511694289743900299072265625" lon="-6.3368118368089199066162109375">
        <ele>108.59999847412109375</ele>
        <time>2019-07-11T10:19:59.000Z</time>
      </trkpt>
      <trkpt lat="43.55123765766620635986328125" lon="-6.33696145378053188323974609375">
        <ele>109.1999969482421875</ele>
        <time>2019-07-11T10:20:00.000Z</time>
      </trkpt>
      <trkpt lat="43.551298677921295166015625" lon="-6.337099336087703704833984375">
        <ele>109.8000030517578125</ele>
        <time>2019-07-11T10:20:01.000Z</time>
      </trkpt>
      <trkpt lat="43.5513612069189548492431640625" lon="-6.33721970021724700927734375">
        <ele>110.59999847412109375</ele>
        <time>2019-07-11T10:20:02.000Z</time>
      </trkpt>
      <trkpt lat="43.55142918415367603302001953125" lon="-6.3373238034546375274658203125">
        <ele>111.40000152587890625</ele>
        <time>2019-07-11T10:20:03.000Z</time>
      </trkpt>
      <trkpt lat="43.55150562711060047149658203125" lon="-6.3374062813818454742431640625">
        <ele>111.8000030517578125</ele>
        <time>2019-07-11T10:20:04.000Z</time>
      </trkpt>
      <trkpt lat="43.5515596903860569000244140625" lon="-6.337526142597198486328125">
        <ele>112.59999847412109375</ele>
        <time>2019-07-11T10:20:05.000Z</time>
      </trkpt>
      <trkpt lat="43.55163806118071079254150390625" lon="-6.33758523501455783843994140625">
        <ele>113.59999847412109375</ele>
        <time>2019-07-11T10:20:06.000Z</time>
      </trkpt>
      <trkpt lat="43.551724143326282501220703125" lon="-6.33760585449635982513427734375">
        <ele>114.59999847412109375</ele>
        <time>2019-07-11T10:20:07.000Z</time>
      </trkpt>
      <trkpt lat="43.55180838145315647125244140625" lon="-6.33759328164160251617431640625">
        <ele>115.59999847412109375</ele>
        <time>2019-07-11T10:20:08.000Z</time>
      </trkpt>
      <trkpt lat="43.5518889315426349639892578125" lon="-6.3375598378479480743408203125">
        <ele>116.40000152587890625</ele>
        <time>2019-07-11T10:20:09.000Z</time>
      </trkpt>
      <trkpt lat="43.55195808224380016326904296875" lon="-6.33748649619519710540771484375">
        <ele>117</ele>
        <time>2019-07-11T10:20:10.000Z</time>
      </trkpt>
      <trkpt lat="43.55201742611825466156005859375" lon="-6.337389014661312103271484375">
        <ele>117.8000030517578125</ele>
        <time>2019-07-11T10:20:11.000Z</time>
      </trkpt>
      <trkpt lat="43.55205975472927093505859375" lon="-6.3372651301324367523193359375">
        <ele>118.8000030517578125</ele>
        <time>2019-07-11T10:20:12.000Z</time>
      </trkpt>
      <trkpt lat="43.55208951048552989959716796875" lon="-6.3371229730546474456787109375">
        <ele>119.40000152587890625</ele>
        <time>2019-07-11T10:20:13.000Z</time>
      </trkpt>
      <trkpt lat="43.5521082021296024322509765625" lon="-6.33696296252310276031494140625">
        <ele>119.59999847412109375</ele>
        <time>2019-07-11T10:20:14.000Z</time>
      </trkpt>
      <trkpt lat="43.55213544331490993499755859375" lon="-6.33624094538390636444091796875">
        <ele>119.59999847412109375</ele>
        <time>2019-07-11T10:20:18.000Z</time>
      </trkpt>
      <trkpt lat="43.55217131786048412322998046875" lon="-6.33557424880564212799072265625">
        <ele>118.8000030517578125</ele>
        <time>2019-07-11T10:20:22.000Z</time>
      </trkpt>
      <trkpt lat="43.5521851480007171630859375" lon="-6.3352658785879611968994140625">
        <ele>119</ele>
        <time>2019-07-11T10:20:24.000Z</time>
      </trkpt>
      <trkpt lat="43.55224524624645709991455078125" lon="-6.33457428775727748870849609375">
        <ele>119.1999969482421875</ele>
        <time>2019-07-11T10:20:28.000Z</time>
      </trkpt>
      <trkpt lat="43.552342392504215240478515625" lon="-6.33385361172258853912353515625">
        <ele>118.59999847412109375</ele>
        <time>2019-07-11T10:20:32.000Z</time>
      </trkpt>
      <trkpt lat="43.55236954987049102783203125" lon="-6.3335254602134227752685546875">
        <ele>118.40000152587890625</ele>
        <time>2019-07-11T10:20:34.000Z</time>
      </trkpt>
      <trkpt lat="43.55230023153126239776611328125" lon="-6.33284258656203746795654296875">
        <ele>119.1999969482421875</ele>
        <time>2019-07-11T10:20:38.000Z</time>
      </trkpt>
      <trkpt lat="43.552231080830097198486328125" lon="-6.3324904628098011016845703125">
        <ele>121.1999969482421875</ele>
        <time>2019-07-11T10:20:40.000Z</time>
      </trkpt>
      <trkpt lat="43.55218984186649322509765625" lon="-6.332317627966403961181640625">
        <ele>122.59999847412109375</ele>
        <time>2019-07-11T10:20:41.000Z</time>
      </trkpt>
      <trkpt lat="43.55215203948318958282470703125" lon="-6.332146637141704559326171875">
        <ele>124.40000152587890625</ele>
        <time>2019-07-11T10:20:42.000Z</time>
      </trkpt>
      <trkpt lat="43.552060425281524658203125" lon="-6.33178948424756526947021484375">
        <ele>125.40000152587890625</ele>
        <time>2019-07-11T10:20:44.000Z</time>
      </trkpt>
      <trkpt lat="43.5519680567085742950439453125" lon="-6.33143819868564605712890625">
        <ele>124</ele>
        <time>2019-07-11T10:20:46.000Z</time>
      </trkpt>
      <trkpt lat="43.5519231297075748443603515625" lon="-6.33126997388899326324462890625">
        <ele>123</ele>
        <time>2019-07-11T10:20:47.000Z</time>
      </trkpt>
      <trkpt lat="43.55183268897235393524169921875" lon="-6.33094944991171360015869140625">
        <ele>120.8000030517578125</ele>
        <time>2019-07-11T10:20:49.000Z</time>
      </trkpt>
      <trkpt lat="43.5517906956374645233154296875" lon="-6.3307953067123889923095703125">
        <ele>119.40000152587890625</ele>
        <time>2019-07-11T10:20:50.000Z</time>
      </trkpt>
      <trkpt lat="43.55162867344915866851806640625" lon="-6.3302038796246051788330078125">
        <ele>119.1999969482421875</ele>
        <time>2019-07-11T10:20:54.000Z</time>
      </trkpt>
      <trkpt lat="43.55158274061977863311767578125" lon="-6.33007429540157318115234375">
        <ele>119.40000152587890625</ele>
        <time>2019-07-11T10:20:55.000Z</time>
      </trkpt>
      <trkpt lat="43.55143555440008640289306640625" lon="-6.32986181415617465972900390625">
        <ele>120.1999969482421875</ele>
        <time>2019-07-11T10:20:57.000Z</time>
      </trkpt>
      <trkpt lat="43.55133480392396450042724609375" lon="-6.32977330125868320465087890625">
        <ele>120.8000030517578125</ele>
        <time>2019-07-11T10:20:58.000Z</time>
      </trkpt>
      <trkpt lat="43.5510021261870861053466796875" lon="-6.32952502928674221038818359375">
        <ele>121.8000030517578125</ele>
        <time>2019-07-11T10:21:01.000Z</time>
      </trkpt>
      <trkpt lat="43.5505840368568897247314453125" lon="-6.32916175760328769683837890625">
        <ele>122.40000152587890625</ele>
        <time>2019-07-11T10:21:05.000Z</time>
      </trkpt>
      <trkpt lat="43.550179190933704376220703125" lon="-6.32877635769546031951904296875">
        <ele>121.8000030517578125</ele>
        <time>2019-07-11T10:21:09.000Z</time>
      </trkpt>
      <trkpt lat="43.55010467581450939178466796875" lon="-6.32868315093219280242919921875">
        <ele>121.59999847412109375</ele>
        <time>2019-07-11T10:21:10.000Z</time>
      </trkpt>
      <trkpt lat="43.55007215403020381927490234375" lon="-6.328404955565929412841796875">
        <ele>121</ele>
        <time>2019-07-11T10:21:12.000Z</time>
      </trkpt>
      <trkpt lat="43.55017240159213542938232421875" lon="-6.32789541967213153839111328125">
        <ele>120.40000152587890625</ele>
        <time>2019-07-11T10:21:15.000Z</time>
      </trkpt>
      <trkpt lat="43.55028756894171237945556640625" lon="-6.32752343080937862396240234375">
        <ele>119.40000152587890625</ele>
        <time>2019-07-11T10:21:17.000Z</time>
      </trkpt>
      <trkpt lat="43.55042503215372562408447265625" lon="-6.327117495238780975341796875">
        <ele>118.1999969482421875</ele>
        <time>2019-07-11T10:21:19.000Z</time>
      </trkpt>
      <trkpt lat="43.55050466023385524749755859375" lon="-6.32691775448620319366455078125">
        <ele>117.59999847412109375</ele>
        <time>2019-07-11T10:21:20.000Z</time>
      </trkpt>
      <trkpt lat="43.5505940951406955718994140625" lon="-6.32672983221709728240966796875">
        <ele>117</ele>
        <time>2019-07-11T10:21:21.000Z</time>
      </trkpt>
      <trkpt lat="43.55092358775436878204345703125" lon="-6.32607352919876575469970703125">
        <ele>117.59999847412109375</ele>
        <time>2019-07-11T10:21:25.000Z</time>
      </trkpt>
      <trkpt lat="43.5509810037910938262939453125" lon="-6.325894407927989959716796875">
        <ele>119</ele>
        <time>2019-07-11T10:21:26.000Z</time>
      </trkpt>
      <trkpt lat="43.5510235838592052459716796875" lon="-6.32571344263851642608642578125">
        <ele>120</ele>
        <time>2019-07-11T10:21:27.000Z</time>
      </trkpt>
      <trkpt lat="43.5510276071727275848388671875" lon="-6.32536760531365871429443359375">
        <ele>121.1999969482421875</ele>
        <time>2019-07-11T10:21:29.000Z</time>
      </trkpt>
      <trkpt lat="43.5509146191179752349853515625" lon="-6.32505294866859912872314453125">
        <ele>122.1999969482421875</ele>
        <time>2019-07-11T10:21:31.000Z</time>
      </trkpt>
      <trkpt lat="43.5508354939520359039306640625" lon="-6.3249048404395580291748046875">
        <ele>122.8000030517578125</ele>
        <time>2019-07-11T10:21:32.000Z</time>
      </trkpt>
      <trkpt lat="43.5506846196949481964111328125" lon="-6.3246734999120235443115234375">
        <ele>124.1999969482421875</ele>
        <time>2019-07-11T10:21:34.000Z</time>
      </trkpt>
      <trkpt lat="43.55052712373435497283935546875" lon="-6.32455967366695404052734375">
        <ele>125.40000152587890625</ele>
        <time>2019-07-11T10:21:36.000Z</time>
      </trkpt>
      <trkpt lat="43.55044506490230560302734375" lon="-6.3245239667594432830810546875">
        <ele>125.8000030517578125</ele>
        <time>2019-07-11T10:21:37.000Z</time>
      </trkpt>
      <trkpt lat="43.54994743131101131439208984375" lon="-6.3243605196475982666015625">
        <ele>126.40000152587890625</ele>
        <time>2019-07-11T10:21:42.000Z</time>
      </trkpt>
      <trkpt lat="43.54982958175241947174072265625" lon="-6.3243417441844940185546875">
        <ele>126.8000030517578125</ele>
        <time>2019-07-11T10:21:43.000Z</time>
      </trkpt>
      <trkpt lat="43.54974593035876750946044921875" lon="-6.32428198121488094329833984375">
        <ele>127.59999847412109375</ele>
        <time>2019-07-11T10:21:44.000Z</time>
      </trkpt>
      <trkpt lat="43.549715168774127960205078125" lon="-6.3241674005985260009765625">
        <ele>128.1999969482421875</ele>
        <time>2019-07-11T10:21:45.000Z</time>
      </trkpt>
      <trkpt lat="43.54971273802220821380615234375" lon="-6.3240475393831729888916015625">
        <ele>128.399993896484375</ele>
        <time>2019-07-11T10:21:46.000Z</time>
      </trkpt>
      <trkpt lat="43.5498548112809658050537109375" lon="-6.3237260095775127410888671875">
        <ele>128.600006103515625</ele>
        <time>2019-07-11T10:21:48.000Z</time>
      </trkpt>
      <trkpt lat="43.550132922828197479248046875" lon="-6.32312678731977939605712890625">
        <ele>128.1999969482421875</ele>
        <time>2019-07-11T10:21:51.000Z</time>
      </trkpt>
      <trkpt lat="43.55019989423453807830810546875" lon="-6.32285990752279758453369140625">
        <ele>127.59999847412109375</ele>
        <time>2019-07-11T10:21:52.000Z</time>
      </trkpt>
      <trkpt lat="43.5502638481557369232177734375" lon="-6.322566457092761993408203125">
        <ele>126.59999847412109375</ele>
        <time>2019-07-11T10:21:53.000Z</time>
      </trkpt>
      <trkpt lat="43.550317995250225067138671875" lon="-6.32226697169244289398193359375">
        <ele>124.59999847412109375</ele>
        <time>2019-07-11T10:21:54.000Z</time>
      </trkpt>
      <trkpt lat="43.55038362555205821990966796875" lon="-6.321981735527515411376953125">
        <ele>122.1999969482421875</ele>
        <time>2019-07-11T10:21:55.000Z</time>
      </trkpt>
      <trkpt lat="43.55044305324554443359375" lon="-6.32172198034822940826416015625">
        <ele>119.8000030517578125</ele>
        <time>2019-07-11T10:21:56.000Z</time>
      </trkpt>
      <trkpt lat="43.55050139129161834716796875" lon="-6.32148024626076221466064453125">
        <ele>118.1999969482421875</ele>
        <time>2019-07-11T10:21:57.000Z</time>
      </trkpt>
      <trkpt lat="43.550600968301296234130859375" lon="-6.32104438729584217071533203125">
        <ele>116.8000030517578125</ele>
        <time>2019-07-11T10:21:59.000Z</time>
      </trkpt>
      <trkpt lat="43.55067062191665172576904296875" lon="-6.32057080976665019989013671875">
        <ele>119.1999969482421875</ele>
        <time>2019-07-11T10:22:02.000Z</time>
      </trkpt>
      <trkpt lat="43.55065561830997467041015625" lon="-6.32045446895062923431396484375">
        <ele>121.1999969482421875</ele>
        <time>2019-07-11T10:22:03.000Z</time>
      </trkpt>
      <trkpt lat="43.55062267743051052093505859375" lon="-6.320354640483856201171875">
        <ele>122.59999847412109375</ele>
        <time>2019-07-11T10:22:04.000Z</time>
      </trkpt>
      <trkpt lat="43.55055964551866054534912109375" lon="-6.3202763535082340240478515625">
        <ele>124</ele>
        <time>2019-07-11T10:22:05.000Z</time>
      </trkpt>
      <trkpt lat="43.55045202188193798065185546875" lon="-6.32023804821074008941650390625">
        <ele>124.8000030517578125</ele>
        <time>2019-07-11T10:22:06.000Z</time>
      </trkpt>
      <trkpt lat="43.5503466613590717315673828125" lon="-6.32020636461675167083740234375">
        <ele>125.40000152587890625</ele>
        <time>2019-07-11T10:22:07.000Z</time>
      </trkpt>
      <trkpt lat="43.550113141536712646484375" lon="-6.32017132826149463653564453125">
        <ele>126.1999969482421875</ele>
        <time>2019-07-11T10:22:09.000Z</time>
      </trkpt>
      <trkpt lat="43.550023622810840606689453125" lon="-6.320099495351314544677734375">
        <ele>126.40000152587890625</ele>
        <time>2019-07-11T10:22:10.000Z</time>
      </trkpt>
      <trkpt lat="43.549971319735050201416015625" lon="-6.3199965655803680419921875">
        <ele>126.40000152587890625</ele>
        <time>2019-07-11T10:22:11.000Z</time>
      </trkpt>
      <trkpt lat="43.5499530471861362457275390625" lon="-6.31971049122512340545654296875">
        <ele>126.40000152587890625</ele>
        <time>2019-07-11T10:22:13.000Z</time>
      </trkpt>
      <trkpt lat="43.55005539022386074066162109375" lon="-6.31944512017071247100830078125">
        <ele>126.40000152587890625</ele>
        <time>2019-07-11T10:22:15.000Z</time>
      </trkpt>
      <trkpt lat="43.55027650482952594757080078125" lon="-6.319301538169384002685546875">
        <ele>126</ele>
        <time>2019-07-11T10:22:17.000Z</time>
      </trkpt>
      <trkpt lat="43.55087631382048130035400390625" lon="-6.31928401999175548553466796875">
        <ele>126</ele>
        <time>2019-07-11T10:22:21.000Z</time>
      </trkpt>
      <trkpt lat="43.5512475483119487762451171875" lon="-6.31924219429492950439453125">
        <ele>125.8000030517578125</ele>
        <time>2019-07-11T10:22:24.000Z</time>
      </trkpt>
      <trkpt lat="43.55139263905584812164306640625" lon="-6.3190867938101291656494140625">
        <ele>125.40000152587890625</ele>
        <time>2019-07-11T10:22:26.000Z</time>
      </trkpt>
      <trkpt lat="43.5514249093830585479736328125" lon="-6.31879032589495182037353515625">
        <ele>126</ele>
        <time>2019-07-11T10:22:28.000Z</time>
      </trkpt>
      <trkpt lat="43.551321811974048614501953125" lon="-6.31848036311566829681396484375">
        <ele>126.40000152587890625</ele>
        <time>2019-07-11T10:22:30.000Z</time>
      </trkpt>
      <trkpt lat="43.5509406030178070068359375" lon="-6.31793922744691371917724609375">
        <ele>126.59999847412109375</ele>
        <time>2019-07-11T10:22:34.000Z</time>
      </trkpt>
      <trkpt lat="43.5506732203066349029541015625" lon="-6.31748341955244541168212890625">
        <ele>125.40000152587890625</ele>
        <time>2019-07-11T10:22:37.000Z</time>
      </trkpt>
      <trkpt lat="43.5505635850131511688232421875" lon="-6.317173540592193603515625">
        <ele>124.8000030517578125</ele>
        <time>2019-07-11T10:22:39.000Z</time>
      </trkpt>
      <trkpt lat="43.55055126361548900604248046875" lon="-6.316875480115413665771484375">
        <ele>124.8000030517578125</ele>
        <time>2019-07-11T10:22:41.000Z</time>
      </trkpt>
      <trkpt lat="43.550681434571743011474609375" lon="-6.31666190922260284423828125">
        <ele>125</ele>
        <time>2019-07-11T10:22:43.000Z</time>
      </trkpt>
      <trkpt lat="43.55086659081280231475830078125" lon="-6.316591836512088775634765625">
        <ele>125</ele>
        <time>2019-07-11T10:22:45.000Z</time>
      </trkpt>
      <trkpt lat="43.55112525634467601776123046875" lon="-6.31664489395916461944580078125">
        <ele>125.1999969482421875</ele>
        <time>2019-07-11T10:22:47.000Z</time>
      </trkpt>
      <trkpt lat="43.55165465734899044036865234375" lon="-6.31677146069705486297607421875">
        <ele>125.40000152587890625</ele>
        <time>2019-07-11T10:22:51.000Z</time>
      </trkpt>
      <trkpt lat="43.5521682165563106536865234375" lon="-6.3168005459010601043701171875">
        <ele>124.8000030517578125</ele>
        <time>2019-07-11T10:22:55.000Z</time>
      </trkpt>
      <trkpt lat="43.55235370807349681854248046875" lon="-6.316637098789215087890625">
        <ele>124.8000030517578125</ele>
        <time>2019-07-11T10:22:57.000Z</time>
      </trkpt>
      <trkpt lat="43.5524223558604717254638671875" lon="-6.31635286845266819000244140625">
        <ele>125.59999847412109375</ele>
        <time>2019-07-11T10:22:59.000Z</time>
      </trkpt>
      <trkpt lat="43.5523568093776702880859375" lon="-6.31603854708373546600341796875">
        <ele>126.1999969482421875</ele>
        <time>2019-07-11T10:23:01.000Z</time>
      </trkpt>
      <trkpt lat="43.5520857386291027069091796875" lon="-6.31549037061631679534912109375">
        <ele>124.59999847412109375</ele>
        <time>2019-07-11T10:23:04.000Z</time>
      </trkpt>
      <trkpt lat="43.55197886936366558074951171875" lon="-6.31527344696223735809326171875">
        <ele>123.1999969482421875</ele>
        <time>2019-07-11T10:23:05.000Z</time>
      </trkpt>
      <trkpt lat="43.55188650079071521759033203125" lon="-6.3150398433208465576171875">
        <ele>121.8000030517578125</ele>
        <time>2019-07-11T10:23:06.000Z</time>
      </trkpt>
      <trkpt lat="43.5518071241676807403564453125" lon="-6.3148073293268680572509765625">
        <ele>120.59999847412109375</ele>
        <time>2019-07-11T10:23:07.000Z</time>
      </trkpt>
      <trkpt lat="43.5517249815165996551513671875" lon="-6.31459903903305530548095703125">
        <ele>119.59999847412109375</ele>
        <time>2019-07-11T10:23:08.000Z</time>
      </trkpt>
      <trkpt lat="43.55154904536902904510498046875" lon="-6.31429494358599185943603515625">
        <ele>118.8000030517578125</ele>
        <time>2019-07-11T10:23:10.000Z</time>
      </trkpt>
      <trkpt lat="43.55141946114599704742431640625" lon="-6.31411054171621799468994140625">
        <ele>118.8000030517578125</ele>
        <time>2019-07-11T10:23:12.000Z</time>
      </trkpt>
      <trkpt lat="43.55140370316803455352783203125" lon="-6.3138997368514537811279296875">
        <ele>121</ele>
        <time>2019-07-11T10:23:14.000Z</time>
      </trkpt>
      <trkpt lat="43.5514507256448268890380859375" lon="-6.31379060447216033935546875">
        <ele>122.1999969482421875</ele>
        <time>2019-07-11T10:23:15.000Z</time>
      </trkpt>
      <trkpt lat="43.55150143615901470184326171875" lon="-6.31373503245413303375244140625">
        <ele>122.8000030517578125</ele>
        <time>2019-07-11T10:23:16.000Z</time>
      </trkpt>
      <trkpt lat="43.55169606395065784454345703125" lon="-6.31379320286214351654052734375">
        <ele>123.1999969482421875</ele>
        <time>2019-07-11T10:23:18.000Z</time>
      </trkpt>
      <trkpt lat="43.5522064380347728729248046875" lon="-6.31415697745978832244873046875">
        <ele>123.1999969482421875</ele>
        <time>2019-07-11T10:23:22.000Z</time>
      </trkpt>
      <trkpt lat="43.5526194982230663299560546875" lon="-6.314447410404682159423828125">
        <ele>124.59999847412109375</ele>
        <time>2019-07-11T10:23:26.000Z</time>
      </trkpt>
      <trkpt lat="43.55278822593390941619873046875" lon="-6.31451119668781757354736328125">
        <ele>126</ele>
        <time>2019-07-11T10:23:28.000Z</time>
      </trkpt>
      <trkpt lat="43.552945889532566070556640625" lon="-6.31439686752855777740478515625">
        <ele>127.8000030517578125</ele>
        <time>2019-07-11T10:23:30.000Z</time>
      </trkpt>
      <trkpt lat="43.55308293364942073822021484375" lon="-6.31411791779100894927978515625">
        <ele>129</ele>
        <time>2019-07-11T10:23:32.000Z</time>
      </trkpt>
      <trkpt lat="43.5533983446657657623291015625" lon="-6.313512660562992095947265625">
        <ele>129.399993896484375</ele>
        <time>2019-07-11T10:23:36.000Z</time>
      </trkpt>
      <trkpt lat="43.55371878482401371002197265625" lon="-6.31293070502579212188720703125">
        <ele>128.1999969482421875</ele>
        <time>2019-07-11T10:23:40.000Z</time>
      </trkpt>
      <trkpt lat="43.55395666323602199554443359375" lon="-6.312498785555362701416015625">
        <ele>129.1999969482421875</ele>
        <time>2019-07-11T10:23:43.000Z</time>
      </trkpt>
      <trkpt lat="43.55410133488476276397705078125" lon="-6.31218773312866687774658203125">
        <ele>130.1999969482421875</ele>
        <time>2019-07-11T10:23:45.000Z</time>
      </trkpt>
      <trkpt lat="43.55438648723065853118896484375" lon="-6.31153780035674571990966796875">
        <ele>131.399993896484375</ele>
        <time>2019-07-11T10:23:49.000Z</time>
      </trkpt>
      <trkpt lat="43.554689325392246246337890625" lon="-6.3108403421938419342041015625">
        <ele>131</ele>
        <time>2019-07-11T10:23:53.000Z</time>
      </trkpt>
      <trkpt lat="43.554991744458675384521484375" lon="-6.31033516488969326019287109375">
        <ele>130.1999969482421875</ele>
        <time>2019-07-11T10:23:56.000Z</time>
      </trkpt>
      <trkpt lat="43.5553100891411304473876953125" lon="-6.30988555960357189178466796875">
        <ele>130.1999969482421875</ele>
        <time>2019-07-11T10:23:59.000Z</time>
      </trkpt>
      <trkpt lat="43.555682413280010223388671875" lon="-6.30935096181929111480712890625">
        <ele>131</ele>
        <time>2019-07-11T10:24:03.000Z</time>
      </trkpt>
      <trkpt lat="43.55577151291072368621826171875" lon="-6.30922690965235233306884765625">
        <ele>131.399993896484375</ele>
        <time>2019-07-11T10:24:04.000Z</time>
      </trkpt>
      <trkpt lat="43.55607108213007450103759765625" lon="-6.30867068655788898468017578125">
        <ele>131.600006103515625</ele>
        <time>2019-07-11T10:24:08.000Z</time>
      </trkpt>
      <trkpt lat="43.55633318424224853515625" lon="-6.30802913568913936614990234375">
        <ele>131.399993896484375</ele>
        <time>2019-07-11T10:24:12.000Z</time>
      </trkpt>
      <trkpt lat="43.55659930966794490814208984375" lon="-6.3073715753853321075439453125">
        <ele>130.399993896484375</ele>
        <time>2019-07-11T10:24:16.000Z</time>
      </trkpt>
      <trkpt lat="43.5568453185260295867919921875" lon="-6.3067684136331081390380859375">
        <ele>130.399993896484375</ele>
        <time>2019-07-11T10:24:20.000Z</time>
      </trkpt>
      <trkpt lat="43.55702511034905910491943359375" lon="-6.3065431080758571624755859375">
        <ele>130.399993896484375</ele>
        <time>2019-07-11T10:24:22.000Z</time>
      </trkpt>
      <trkpt lat="43.5571360029280185699462890625" lon="-6.30647898651659488677978515625">
        <ele>130.1999969482421875</ele>
        <time>2019-07-11T10:24:23.000Z</time>
      </trkpt>
      <trkpt lat="43.5572510026395320892333984375" lon="-6.3064374960958957672119140625">
        <ele>130</ele>
        <time>2019-07-11T10:24:24.000Z</time>
      </trkpt>
      <trkpt lat="43.55757898651063442230224609375" lon="-6.30630916915833950042724609375">
        <ele>129.600006103515625</ele>
        <time>2019-07-11T10:24:27.000Z</time>
      </trkpt>
      <trkpt lat="43.5580337047576904296875" lon="-6.30595377646386623382568359375">
        <ele>128.8000030517578125</ele>
        <time>2019-07-11T10:24:31.000Z</time>
      </trkpt>
      <trkpt lat="43.55816756375133991241455078125" lon="-6.30587666295468807220458984375">
        <ele>127.59999847412109375</ele>
        <time>2019-07-11T10:24:32.000Z</time>
      </trkpt>
      <trkpt lat="43.55830519460141658782958984375" lon="-6.3058049976825714111328125">
        <ele>126.1999969482421875</ele>
        <time>2019-07-11T10:24:33.000Z</time>
      </trkpt>
      <trkpt lat="43.5584459267556667327880859375" lon="-6.30573551170527935028076171875">
        <ele>125</ele>
        <time>2019-07-11T10:24:34.000Z</time>
      </trkpt>
      <trkpt lat="43.5587359406054019927978515625" lon="-6.305596120655536651611328125">
        <ele>123.40000152587890625</ele>
        <time>2019-07-11T10:24:36.000Z</time>
      </trkpt>
      <trkpt lat="43.5590366832911968231201171875" lon="-6.305433176457881927490234375">
        <ele>121.8000030517578125</ele>
        <time>2019-07-11T10:24:38.000Z</time>
      </trkpt>
      <trkpt lat="43.55918579734861850738525390625" lon="-6.3053275644779205322265625">
        <ele>120.59999847412109375</ele>
        <time>2019-07-11T10:24:39.000Z</time>
      </trkpt>
      <trkpt lat="43.559323512017726898193359375" lon="-6.30520879290997982025146484375">
        <ele>119.1999969482421875</ele>
        <time>2019-07-11T10:24:40.000Z</time>
      </trkpt>
      <trkpt lat="43.55955443345010280609130859375" lon="-6.3049911148846149444580078125">
        <ele>118.1999969482421875</ele>
        <time>2019-07-11T10:24:42.000Z</time>
      </trkpt>
      <trkpt lat="43.55964495800435543060302734375" lon="-6.3048901967704296112060546875">
        <ele>118.1999969482421875</ele>
        <time>2019-07-11T10:24:43.000Z</time>
      </trkpt>
      <trkpt lat="43.55978057719767093658447265625" lon="-6.3046514801681041717529296875">
        <ele>119</ele>
        <time>2019-07-11T10:24:45.000Z</time>
      </trkpt>
      <trkpt lat="43.5598187148571014404296875" lon="-6.30451192148029804229736328125">
        <ele>119.40000152587890625</ele>
        <time>2019-07-11T10:24:46.000Z</time>
      </trkpt>
      <trkpt lat="43.5598312877118587493896484375" lon="-6.30436909385025501251220703125">
        <ele>119.59999847412109375</ele>
        <time>2019-07-11T10:24:47.000Z</time>
      </trkpt>
      <trkpt lat="43.559772782027721405029296875" lon="-6.30411428399384021759033203125">
        <ele>120</ele>
        <time>2019-07-11T10:24:49.000Z</time>
      </trkpt>
      <trkpt lat="43.5596150346100330352783203125" lon="-6.3039128668606281280517578125">
        <ele>120.1999969482421875</ele>
        <time>2019-07-11T10:24:51.000Z</time>
      </trkpt>
      <trkpt lat="43.55917967855930328369140625" lon="-6.30353928543627262115478515625">
        <ele>119.1999969482421875</ele>
        <time>2019-07-11T10:24:55.000Z</time>
      </trkpt>
      <trkpt lat="43.55906140990555286407470703125" lon="-6.3034756667912006378173828125">
        <ele>118.1999969482421875</ele>
        <time>2019-07-11T10:24:56.000Z</time>
      </trkpt>
      <trkpt lat="43.558945991098880767822265625" lon="-6.30343258380889892578125">
        <ele>117.40000152587890625</ele>
        <time>2019-07-11T10:24:57.000Z</time>
      </trkpt>
      <trkpt lat="43.55883677490055561065673828125" lon="-6.30340500734746456146240234375">
        <ele>116.40000152587890625</ele>
        <time>2019-07-11T10:24:58.000Z</time>
      </trkpt>
      <trkpt lat="43.5587342642247676849365234375" lon="-6.30340048111975193023681640625">
        <ele>115.40000152587890625</ele>
        <time>2019-07-11T10:24:59.000Z</time>
      </trkpt>
      <trkpt lat="43.55863611213862895965576171875" lon="-6.30342680029571056365966796875">
        <ele>114.40000152587890625</ele>
        <time>2019-07-11T10:25:00.000Z</time>
      </trkpt>
      <trkpt lat="43.55854399502277374267578125" lon="-6.3034853897988796234130859375">
        <ele>114</ele>
        <time>2019-07-11T10:25:01.000Z</time>
      </trkpt>
      <trkpt lat="43.5583828948438167572021484375" lon="-6.303683035075664520263671875">
        <ele>113.40000152587890625</ele>
        <time>2019-07-11T10:25:03.000Z</time>
      </trkpt>
      <trkpt lat="43.55829262174665927886962890625" lon="-6.303788311779499053955078125">
        <ele>113.40000152587890625</ele>
        <time>2019-07-11T10:25:04.000Z</time>
      </trkpt>
      <trkpt lat="43.55806899257004261016845703125" lon="-6.3039247691631317138671875">
        <ele>112.1999969482421875</ele>
        <time>2019-07-11T10:25:06.000Z</time>
      </trkpt>
      <trkpt lat="43.5579550825059413909912109375" lon="-6.30398436449468135833740234375">
        <ele>111</ele>
        <time>2019-07-11T10:25:07.000Z</time>
      </trkpt>
      <trkpt lat="43.557852990925312042236328125" lon="-6.30405745469033718109130859375">
        <ele>109.59999847412109375</ele>
        <time>2019-07-11T10:25:08.000Z</time>
      </trkpt>
      <trkpt lat="43.55769968591630458831787109375" lon="-6.3042659126222133636474609375">
        <ele>108</ele>
        <time>2019-07-11T10:25:10.000Z</time>
      </trkpt>
      <trkpt lat="43.5576218180358409881591796875" lon="-6.30435836501419544219970703125">
        <ele>107.59999847412109375</ele>
        <time>2019-07-11T10:25:11.000Z</time>
      </trkpt>
      <trkpt lat="43.5574330575764179229736328125" lon="-6.3044312037527561187744140625">
        <ele>106.40000152587890625</ele>
        <time>2019-07-11T10:25:13.000Z</time>
      </trkpt>
      <trkpt lat="43.557186126708984375" lon="-6.304318048059940338134765625">
        <ele>104.40000152587890625</ele>
        <time>2019-07-11T10:25:15.000Z</time>
      </trkpt>
      <trkpt lat="43.55704187415540218353271484375" lon="-6.3042385876178741455078125">
        <ele>103.1999969482421875</ele>
        <time>2019-07-11T10:25:16.000Z</time>
      </trkpt>
      <trkpt lat="43.5568951070308685302734375" lon="-6.3041675090789794921875">
        <ele>102</ele>
        <time>2019-07-11T10:25:17.000Z</time>
      </trkpt>
      <trkpt lat="43.55675068683922290802001953125" lon="-6.3041029684245586395263671875">
        <ele>100.59999847412109375</ele>
        <time>2019-07-11T10:25:18.000Z</time>
      </trkpt>
      <trkpt lat="43.55661003850400447845458984375" lon="-6.30403080023825168609619140625">
        <ele>98.8000030517578125</ele>
        <time>2019-07-11T10:25:19.000Z</time>
      </trkpt>
      <trkpt lat="43.55647676624357700347900390625" lon="-6.3039480708539485931396484375">
        <ele>96.8000030517578125</ele>
        <time>2019-07-11T10:25:20.000Z</time>
      </trkpt>
      <trkpt lat="43.5563521273434162139892578125" lon="-6.30386131815612316131591796875">
        <ele>95.1999969482421875</ele>
        <time>2019-07-11T10:25:21.000Z</time>
      </trkpt>
      <trkpt lat="43.556230925023555755615234375" lon="-6.30376853048801422119140625">
        <ele>94</ele>
        <time>2019-07-11T10:25:22.000Z</time>
      </trkpt>
      <trkpt lat="43.55597737245261669158935546875" lon="-6.3035457395017147064208984375">
        <ele>92.40000152587890625</ele>
        <time>2019-07-11T10:25:24.000Z</time>
      </trkpt>
      <trkpt lat="43.55587117373943328857421875" lon="-6.3034796901047229766845703125">
        <ele>92</ele>
        <time>2019-07-11T10:25:25.000Z</time>
      </trkpt>
      <trkpt lat="43.5555283538997173309326171875" lon="-6.30340819247066974639892578125">
        <ele>91.1999969482421875</ele>
        <time>2019-07-11T10:25:28.000Z</time>
      </trkpt>
      <trkpt lat="43.555194251239299774169921875" lon="-6.30363014526665210723876953125">
        <ele>90.1999969482421875</ele>
        <time>2019-07-11T10:25:31.000Z</time>
      </trkpt>
      <trkpt lat="43.55496047995984554290771484375" lon="-6.3037790916860103607177734375">
        <ele>88.1999969482421875</ele>
        <time>2019-07-11T10:25:33.000Z</time>
      </trkpt>
      <trkpt lat="43.5548360086977481842041015625" lon="-6.30383022129535675048828125">
        <ele>87</ele>
        <time>2019-07-11T10:25:34.000Z</time>
      </trkpt>
      <trkpt lat="43.554711453616619110107421875" lon="-6.30385193042457103729248046875">
        <ele>85.8000030517578125</ele>
        <time>2019-07-11T10:25:35.000Z</time>
      </trkpt>
      <trkpt lat="43.55458597652614116668701171875" lon="-6.303831897675991058349609375">
        <ele>84.8000030517578125</ele>
        <time>2019-07-11T10:25:36.000Z</time>
      </trkpt>
      <trkpt lat="43.55446427129209041595458984375" lon="-6.303760819137096405029296875">
        <ele>84.1999969482421875</ele>
        <time>2019-07-11T10:25:37.000Z</time>
      </trkpt>
      <trkpt lat="43.55437542311847209930419921875" lon="-6.3037003017961978912353515625">
        <ele>83.40000152587890625</ele>
        <time>2019-07-11T10:25:38.000Z</time>
      </trkpt>
      <trkpt lat="43.5542777739465236663818359375" lon="-6.30360567010939121246337890625">
        <ele>83.1999969482421875</ele>
        <time>2019-07-11T10:25:39.000Z</time>
      </trkpt>
      <trkpt lat="43.55417526327073574066162109375" lon="-6.30352788604795932769775390625">
        <ele>83</ele>
        <time>2019-07-11T10:25:40.000Z</time>
      </trkpt>
      <trkpt lat="43.5539424978196620941162109375" lon="-6.30349100567400455474853515625">
        <ele>82</ele>
        <time>2019-07-11T10:25:42.000Z</time>
      </trkpt>
      <trkpt lat="43.553710989654064178466796875" lon="-6.30353559739887714385986328125">
        <ele>80.1999969482421875</ele>
        <time>2019-07-11T10:25:44.000Z</time>
      </trkpt>
      <trkpt lat="43.55360998772084712982177734375" lon="-6.30354397930204868316650390625">
        <ele>79.40000152587890625</ele>
        <time>2019-07-11T10:25:45.000Z</time>
      </trkpt>
      <trkpt lat="43.55352164246141910552978515625" lon="-6.30351095460355281829833984375">
        <ele>79</ele>
        <time>2019-07-11T10:25:46.000Z</time>
      </trkpt>
      <trkpt lat="43.55343581177294254302978515625" lon="-6.303427219390869140625">
        <ele>78.59999847412109375</ele>
        <time>2019-07-11T10:25:47.000Z</time>
      </trkpt>
      <trkpt lat="43.55323095805943012237548828125" lon="-6.30299747921526432037353515625">
        <ele>78.40000152587890625</ele>
        <time>2019-07-11T10:25:51.000Z</time>
      </trkpt>
      <trkpt lat="43.55323799885809421539306640625" lon="-6.30289002321660518646240234375">
        <ele>78.40000152587890625</ele>
        <time>2019-07-11T10:25:52.000Z</time>
      </trkpt>
      <trkpt lat="43.5532897152006626129150390625" lon="-6.30278759635984897613525390625">
        <ele>78.40000152587890625</ele>
        <time>2019-07-11T10:25:53.000Z</time>
      </trkpt>
      <trkpt lat="43.55348744429647922515869140625" lon="-6.30257385782897472381591796875">
        <ele>79</ele>
        <time>2019-07-11T10:25:55.000Z</time>
      </trkpt>
      <trkpt lat="43.55373085476458072662353515625" lon="-6.302398256957530975341796875">
        <ele>79.40000152587890625</ele>
        <time>2019-07-11T10:25:57.000Z</time>
      </trkpt>
      <trkpt lat="43.5540481097996234893798828125" lon="-6.302323825657367706298828125">
        <ele>79.8000030517578125</ele>
        <time>2019-07-11T10:25:59.000Z</time>
      </trkpt>
      <trkpt lat="43.55433468706905841827392578125" lon="-6.302397251129150390625">
        <ele>79.8000030517578125</ele>
        <time>2019-07-11T10:26:01.000Z</time>
      </trkpt>
      <trkpt lat="43.5545615851879119873046875" lon="-6.3025147654116153717041015625">
        <ele>80.1999969482421875</ele>
        <time>2019-07-11T10:26:03.000Z</time>
      </trkpt>
      <trkpt lat="43.55475059710443019866943359375" lon="-6.30250847898423671722412109375">
        <ele>81.1999969482421875</ele>
        <time>2019-07-11T10:26:05.000Z</time>
      </trkpt>
      <trkpt lat="43.55482100509107112884521484375" lon="-6.3024617917835712432861328125">
        <ele>82.8000030517578125</ele>
        <time>2019-07-11T10:26:06.000Z</time>
      </trkpt>
      <trkpt lat="43.55488135479390621185302734375" lon="-6.30237889476120471954345703125">
        <ele>84.40000152587890625</ele>
        <time>2019-07-11T10:26:07.000Z</time>
      </trkpt>
      <trkpt lat="43.55494505725800991058349609375" lon="-6.30225702188909053802490234375">
        <ele>85.59999847412109375</ele>
        <time>2019-07-11T10:26:08.000Z</time>
      </trkpt>
      <trkpt lat="43.5550874657928943634033203125" lon="-6.30196784622967243194580078125">
        <ele>86.8000030517578125</ele>
        <time>2019-07-11T10:26:10.000Z</time>
      </trkpt>
      <trkpt lat="43.555166088044643402099609375" lon="-6.301832310855388641357421875">
        <ele>87.1999969482421875</ele>
        <time>2019-07-11T10:26:11.000Z</time>
      </trkpt>
      <trkpt lat="43.55536163784563541412353515625" lon="-6.301666013896465301513671875">
        <ele>88.40000152587890625</ele>
        <time>2019-07-11T10:26:13.000Z</time>
      </trkpt>
      <trkpt lat="43.555626757442951202392578125" lon="-6.30167347379028797149658203125">
        <ele>89.8000030517578125</ele>
        <time>2019-07-11T10:26:15.000Z</time>
      </trkpt>
      <trkpt lat="43.556058593094348907470703125" lon="-6.30178227089345455169677734375">
        <ele>90.59999847412109375</ele>
        <time>2019-07-11T10:26:18.000Z</time>
      </trkpt>
      <trkpt lat="43.55618876405060291290283203125" lon="-6.30184136331081390380859375">
        <ele>91</ele>
        <time>2019-07-11T10:26:19.000Z</time>
      </trkpt>
      <trkpt lat="43.55631415732204914093017578125" lon="-6.30188955925405025482177734375">
        <ele>91.59999847412109375</ele>
        <time>2019-07-11T10:26:20.000Z</time>
      </trkpt>
      <trkpt lat="43.55643804185092449188232421875" lon="-6.30190179683268070220947265625">
        <ele>92.8000030517578125</ele>
        <time>2019-07-11T10:26:21.000Z</time>
      </trkpt>
      <trkpt lat="43.5565579868853092193603515625" lon="-6.3018862903118133544921875">
        <ele>94.59999847412109375</ele>
        <time>2019-07-11T10:26:22.000Z</time>
      </trkpt>
      <trkpt lat="43.55666871182620525360107421875" lon="-6.30183910019695758819580078125">
        <ele>96.40000152587890625</ele>
        <time>2019-07-11T10:26:23.000Z</time>
      </trkpt>
      <trkpt lat="43.55676862411201000213623046875" lon="-6.3017563708126544952392578125">
        <ele>97.59999847412109375</ele>
        <time>2019-07-11T10:26:24.000Z</time>
      </trkpt>
      <trkpt lat="43.556913547217845916748046875" lon="-6.3015215098857879638671875">
        <ele>99</ele>
        <time>2019-07-11T10:26:26.000Z</time>
      </trkpt>
      <trkpt lat="43.556957133114337921142578125" lon="-6.30123275332152843475341796875">
        <ele>100.59999847412109375</ele>
        <time>2019-07-11T10:26:28.000Z</time>
      </trkpt>
      <trkpt lat="43.5569425486028194427490234375" lon="-6.30107919685542583465576171875">
        <ele>101.59999847412109375</ele>
        <time>2019-07-11T10:26:29.000Z</time>
      </trkpt>
      <trkpt lat="43.55691312812268733978271484375" lon="-6.30092002451419830322265625">
        <ele>102.59999847412109375</ele>
        <time>2019-07-11T10:26:30.000Z</time>
      </trkpt>
      <trkpt lat="43.5568483360111713409423828125" lon="-6.300617270171642303466796875">
        <ele>103.8000030517578125</ele>
        <time>2019-07-11T10:26:32.000Z</time>
      </trkpt>
      <trkpt lat="43.55688597075641155242919921875" lon="-6.300347037613391876220703125">
        <ele>104.8000030517578125</ele>
        <time>2019-07-11T10:26:34.000Z</time>
      </trkpt>
      <trkpt lat="43.5569566302001476287841796875" lon="-6.300238408148288726806640625">
        <ele>105.1999969482421875</ele>
        <time>2019-07-11T10:26:35.000Z</time>
      </trkpt>
      <trkpt lat="43.5570699535310268402099609375" lon="-6.30018333904445171356201171875">
        <ele>105.59999847412109375</ele>
        <time>2019-07-11T10:26:36.000Z</time>
      </trkpt>
      <trkpt lat="43.55716676451265811920166015625" lon="-6.300170011818408966064453125">
        <ele>106.1999969482421875</ele>
        <time>2019-07-11T10:26:37.000Z</time>
      </trkpt>
      <trkpt lat="43.55729081667959690093994140625" lon="-6.30018920637667179107666015625">
        <ele>107</ele>
        <time>2019-07-11T10:26:38.000Z</time>
      </trkpt>
      <trkpt lat="43.55743951164186000823974609375" lon="-6.3002322055399417877197265625">
        <ele>107.1999969482421875</ele>
        <time>2019-07-11T10:26:39.000Z</time>
      </trkpt>
      <trkpt lat="43.55758803896605968475341796875" lon="-6.30025885999202728271484375">
        <ele>107.8000030517578125</ele>
        <time>2019-07-11T10:26:40.000Z</time>
      </trkpt>
      <trkpt lat="43.55771762318909168243408203125" lon="-6.300248801708221435546875">
        <ele>108.40000152587890625</ele>
        <time>2019-07-11T10:26:41.000Z</time>
      </trkpt>
      <trkpt lat="43.557822816073894500732421875" lon="-6.3001802377402782440185546875">
        <ele>109</ele>
        <time>2019-07-11T10:26:42.000Z</time>
      </trkpt>
      <trkpt lat="43.55789816938340663909912109375" lon="-6.30009331740438938140869140625">
        <ele>110</ele>
        <time>2019-07-11T10:26:43.000Z</time>
      </trkpt>
      <trkpt lat="43.5579708404839038848876953125" lon="-6.29995015449821949005126953125">
        <ele>111</ele>
        <time>2019-07-11T10:26:44.000Z</time>
      </trkpt>
      <trkpt lat="43.55805206112563610076904296875" lon="-6.29977530799806118011474609375">
        <ele>111.40000152587890625</ele>
        <time>2019-07-11T10:26:45.000Z</time>
      </trkpt>
      <trkpt lat="43.55836026370525360107421875" lon="-6.2992444820702075958251953125">
        <ele>112.1999969482421875</ele>
        <time>2019-07-11T10:26:48.000Z</time>
      </trkpt>
      <trkpt lat="43.55858112685382366180419921875" lon="-6.299017332494258880615234375">
        <ele>112.59999847412109375</ele>
        <time>2019-07-11T10:26:50.000Z</time>
      </trkpt>
      <trkpt lat="43.55868556536734104156494140625" lon="-6.29891348071396350860595703125">
        <ele>113.1999969482421875</ele>
        <time>2019-07-11T10:26:51.000Z</time>
      </trkpt>
      <trkpt lat="43.55876368470489978790283203125" lon="-6.29878607578575611114501953125">
        <ele>114.40000152587890625</ele>
        <time>2019-07-11T10:26:52.000Z</time>
      </trkpt>
      <trkpt lat="43.55880375020205974578857421875" lon="-6.29862698726356029510498046875">
        <ele>116.1999969482421875</ele>
        <time>2019-07-11T10:26:53.000Z</time>
      </trkpt>
      <trkpt lat="43.5588147304952144622802734375" lon="-6.298441998660564422607421875">
        <ele>118</ele>
        <time>2019-07-11T10:26:54.000Z</time>
      </trkpt>
      <trkpt lat="43.55881347320973873138427734375" lon="-6.29823806695640087127685546875">
        <ele>119.40000152587890625</ele>
        <time>2019-07-11T10:26:55.000Z</time>
      </trkpt>
      <trkpt lat="43.55880877934396266937255859375" lon="-6.2978031300008296966552734375">
        <ele>120.59999847412109375</ele>
        <time>2019-07-11T10:26:57.000Z</time>
      </trkpt>
      <trkpt lat="43.55884666554629802703857421875" lon="-6.2974088452756404876708984375">
        <ele>120.8000030517578125</ele>
        <time>2019-07-11T10:26:59.000Z</time>
      </trkpt>
      <trkpt lat="43.55897658504545688629150390625" lon="-6.2971426360309123992919921875">
        <ele>120.8000030517578125</ele>
        <time>2019-07-11T10:27:01.000Z</time>
      </trkpt>
      <trkpt lat="43.5593783296644687652587890625" lon="-6.2967114709317684173583984375">
        <ele>121</ele>
        <time>2019-07-11T10:27:05.000Z</time>
      </trkpt>
      <trkpt lat="43.5597823373973369598388671875" lon="-6.2962762825191020965576171875">
        <ele>121</ele>
        <time>2019-07-11T10:27:09.000Z</time>
      </trkpt>
      <trkpt lat="43.55988509953022003173828125" lon="-6.2961901165544986724853515625">
        <ele>120.40000152587890625</ele>
        <time>2019-07-11T10:27:10.000Z</time>
      </trkpt>
      <trkpt lat="43.5601038672029972076416015625" lon="-6.29611928947269916534423828125">
        <ele>120.59999847412109375</ele>
        <time>2019-07-11T10:27:12.000Z</time>
      </trkpt>
      <trkpt lat="43.560217358171939849853515625" lon="-6.296131275594234466552734375">
        <ele>120.59999847412109375</ele>
        <time>2019-07-11T10:27:13.000Z</time>
      </trkpt>
      <trkpt lat="43.560322634875774383544921875" lon="-6.2961423397064208984375">
        <ele>120.40000152587890625</ele>
        <time>2019-07-11T10:27:14.000Z</time>
      </trkpt>
      <trkpt lat="43.56060820631682872772216796875" lon="-6.29615667276084423065185546875">
        <ele>121.8000030517578125</ele>
        <time>2019-07-11T10:27:19.000Z</time>
      </trkpt>
      <trkpt lat="43.56069403700530529022216796875" lon="-6.29622003994882106781005859375">
        <ele>123.1999969482421875</ele>
        <time>2019-07-11T10:27:22.000Z</time>
      </trkpt>
      <trkpt lat="43.56075011193752288818359375" lon="-6.296288855373859405517578125">
        <ele>123.59999847412109375</ele>
        <time>2019-07-11T10:27:24.000Z</time>
      </trkpt>
      <trkpt lat="43.5608622618019580841064453125" lon="-6.2964601814746856689453125">
        <ele>123.40000152587890625</ele>
        <time>2019-07-11T10:27:27.000Z</time>
      </trkpt>
      <trkpt lat="43.5609152354300022125244140625" lon="-6.29661130718886852264404296875">
        <ele>122.8000030517578125</ele>
        <time>2019-07-11T10:27:29.000Z</time>
      </trkpt>
      <trkpt lat="43.5610412992537021636962890625" lon="-6.29683770239353179931640625">
        <ele>121.8000030517578125</ele>
        <time>2019-07-11T10:27:32.000Z</time>
      </trkpt>
      <trkpt lat="43.5611026547849178314208984375" lon="-6.2969947792589664459228515625">
        <ele>120.1999969482421875</ele>
        <time>2019-07-11T10:27:34.000Z</time>
      </trkpt>
      <trkpt lat="43.5611703805625438690185546875" lon="-6.297158561646938323974609375">
        <ele>119</ele>
        <time>2019-07-11T10:27:36.000Z</time>
      </trkpt>
      <trkpt lat="43.5613296367228031158447265625" lon="-6.29738713614642620086669921875">
        <ele>117.8000030517578125</ele>
        <time>2019-07-11T10:27:39.000Z</time>
      </trkpt>
      <trkpt lat="43.56148864142596721649169921875" lon="-6.29758260212838649749755859375">
        <ele>116.59999847412109375</ele>
        <time>2019-07-11T10:27:42.000Z</time>
      </trkpt>
      <trkpt lat="43.561543710529804229736328125" lon="-6.2976376712322235107421875">
        <ele>116.59999847412109375</ele>
        <time>2019-07-11T10:27:43.000Z</time>
      </trkpt>
      <trkpt lat="43.561666421592235565185546875" lon="-6.29773833788931369781494140625">
        <ele>116.1999969482421875</ele>
        <time>2019-07-11T10:27:45.000Z</time>
      </trkpt>
      <trkpt lat="43.56180799193680286407470703125" lon="-6.29782634787261486053466796875">
        <ele>116</ele>
        <time>2019-07-11T10:27:47.000Z</time>
      </trkpt>
      <trkpt lat="43.56187772937119007110595703125" lon="-6.29786054603755474090576171875">
        <ele>115.59999847412109375</ele>
        <time>2019-07-11T10:27:48.000Z</time>
      </trkpt>
      <trkpt lat="43.56194361113011837005615234375" lon="-6.297884099185466766357421875">
        <ele>115</ele>
        <time>2019-07-11T10:27:49.000Z</time>
      </trkpt>
      <trkpt lat="43.5620045475661754608154296875" lon="-6.29789072088897228240966796875">
        <ele>114.59999847412109375</ele>
        <time>2019-07-11T10:27:50.000Z</time>
      </trkpt>
      <trkpt lat="43.562065400183200836181640625" lon="-6.2978829257190227508544921875">
        <ele>114.1999969482421875</ele>
        <time>2019-07-11T10:27:51.000Z</time>
      </trkpt>
      <trkpt lat="43.5623559169471263885498046875" lon="-6.297817714512348175048828125">
        <ele>113.1999969482421875</ele>
        <time>2019-07-11T10:27:55.000Z</time>
      </trkpt>
      <trkpt lat="43.5626645386219024658203125" lon="-6.29779080860316753387451171875">
        <ele>112.1999969482421875</ele>
        <time>2019-07-11T10:27:59.000Z</time>
      </trkpt>
      <trkpt lat="43.5629783570766448974609375" lon="-6.2978581152856349945068359375">
        <ele>112</ele>
        <time>2019-07-11T10:28:04.000Z</time>
      </trkpt>
      <trkpt lat="43.5632283054292201995849609375" lon="-6.29794813692569732666015625">
        <ele>111.1999969482421875</ele>
        <time>2019-07-11T10:28:09.000Z</time>
      </trkpt>
      <trkpt lat="43.563273735344409942626953125" lon="-6.29795224405825138092041015625">
        <ele>111</ele>
        <time>2019-07-11T10:28:10.000Z</time>
      </trkpt>
      <trkpt lat="43.56340390630066394805908203125" lon="-6.2979543395340442657470703125">
        <ele>110.40000152587890625</ele>
        <time>2019-07-11T10:28:13.000Z</time>
      </trkpt>
      <trkpt lat="43.56344749219715595245361328125" lon="-6.29796280525624752044677734375">
        <ele>110</ele>
        <time>2019-07-11T10:28:14.000Z</time>
      </trkpt>
      <trkpt lat="43.563637845218181610107421875" lon="-6.297985352575778961181640625">
        <ele>109</ele>
        <time>2019-07-11T10:28:18.000Z</time>
      </trkpt>
      <trkpt lat="43.56379039585590362548828125" lon="-6.29800873808562755584716796875">
        <ele>107.59999847412109375</ele>
        <time>2019-07-11T10:28:21.000Z</time>
      </trkpt>
      <trkpt lat="43.56389206834137439727783203125" lon="-6.298024915158748626708984375">
        <ele>106.59999847412109375</ele>
        <time>2019-07-11T10:28:23.000Z</time>
      </trkpt>
      <trkpt lat="43.56404788792133331298828125" lon="-6.29806749522686004638671875">
        <ele>105.40000152587890625</ele>
        <time>2019-07-11T10:28:26.000Z</time>
      </trkpt>
      <trkpt lat="43.56420320458710193634033203125" lon="-6.298134215176105499267578125">
        <ele>104</ele>
        <time>2019-07-11T10:28:29.000Z</time>
      </trkpt>
      <trkpt lat="43.56437419541180133819580078125" lon="-6.29821359179913997650146484375">
        <ele>102.8000030517578125</ele>
        <time>2019-07-11T10:28:33.000Z</time>
      </trkpt>
      <trkpt lat="43.564483411610126495361328125" lon="-6.2981715984642505645751953125">
        <ele>102</ele>
        <time>2019-07-11T10:28:36.000Z</time>
      </trkpt>
      <trkpt lat="43.564509563148021697998046875" lon="-6.2981273420155048370361328125">
        <ele>101.8000030517578125</ele>
        <time>2019-07-11T10:28:37.000Z</time>
      </trkpt>
      <trkpt lat="43.56457921676337718963623046875" lon="-6.29796431399881839752197265625">
        <ele>101</ele>
        <time>2019-07-11T10:28:41.000Z</time>
      </trkpt>
      <trkpt lat="43.5646042786538600921630859375" lon="-6.2978306226432323455810546875">
        <ele>100.59999847412109375</ele>
        <time>2019-07-11T10:28:43.000Z</time>
      </trkpt>
      <trkpt lat="43.5646368004381656646728515625" lon="-6.29747346974909305572509765625">
        <ele>99.59999847412109375</ele>
        <time>2019-07-11T10:28:48.000Z</time>
      </trkpt>
      <trkpt lat="43.56464711017906665802001953125" lon="-6.2973974458873271942138671875">
        <ele>99.1999969482421875</ele>
        <time>2019-07-11T10:28:49.000Z</time>
      </trkpt>
      <trkpt lat="43.564683236181735992431640625" lon="-6.2972516007721424102783203125">
        <ele>98.40000152587890625</ele>
        <time>2019-07-11T10:28:51.000Z</time>
      </trkpt>
      <trkpt lat="43.56473411433398723602294921875" lon="-6.29710818640887737274169921875">
        <ele>97.1999969482421875</ele>
        <time>2019-07-11T10:28:53.000Z</time>
      </trkpt>
      <trkpt lat="43.56479245238006114959716796875" lon="-6.29695043899118900299072265625">
        <ele>96</ele>
        <time>2019-07-11T10:28:55.000Z</time>
      </trkpt>
      <trkpt lat="43.56481391005218029022216796875" lon="-6.29686142317950725555419921875">
        <ele>95.1999969482421875</ele>
        <time>2019-07-11T10:28:56.000Z</time>
      </trkpt>
      <trkpt lat="43.56482933275401592254638671875" lon="-6.29676838405430316925048828125">
        <ele>94.1999969482421875</ele>
        <time>2019-07-11T10:28:57.000Z</time>
      </trkpt>
      <trkpt lat="43.56484048068523406982421875" lon="-6.2966772727668285369873046875">
        <ele>93</ele>
        <time>2019-07-11T10:28:58.000Z</time>
      </trkpt>
      <trkpt lat="43.56484961695969104766845703125" lon="-6.29659119062125682830810546875">
        <ele>92</ele>
        <time>2019-07-11T10:28:59.000Z</time>
      </trkpt>
      <trkpt lat="43.564864285290241241455078125" lon="-6.2964284978806972503662109375">
        <ele>90.40000152587890625</ele>
        <time>2019-07-11T10:29:01.000Z</time>
      </trkpt>
      <trkpt lat="43.5648719966411590576171875" lon="-6.29628919064998626708984375">
        <ele>89.40000152587890625</ele>
        <time>2019-07-11T10:29:03.000Z</time>
      </trkpt>
      <trkpt lat="43.5648678056895732879638671875" lon="-6.29622641019523143768310546875">
        <ele>88.8000030517578125</ele>
        <time>2019-07-11T10:29:04.000Z</time>
      </trkpt>
      <trkpt lat="43.56485330499708652496337890625" lon="-6.29616673104465007781982421875">
        <ele>88.1999969482421875</ele>
        <time>2019-07-11T10:29:05.000Z</time>
      </trkpt>
      <trkpt lat="43.56483067385852336883544921875" lon="-6.29611325450241565704345703125">
        <ele>87.8000030517578125</ele>
        <time>2019-07-11T10:29:06.000Z</time>
      </trkpt>
      <trkpt lat="43.564804606139659881591796875" lon="-6.29607033915817737579345703125">
        <ele>87.1999969482421875</ele>
        <time>2019-07-11T10:29:07.000Z</time>
      </trkpt>
      <trkpt lat="43.56476915068924427032470703125" lon="-6.2959899567067623138427734375">
        <ele>85.59999847412109375</ele>
        <time>2019-07-11T10:29:09.000Z</time>
      </trkpt>
      <trkpt lat="43.56476898305118083953857421875" lon="-6.2959480471909046173095703125">
        <ele>84.8000030517578125</ele>
        <time>2019-07-11T10:29:10.000Z</time>
      </trkpt>
      <trkpt lat="43.56478055007755756378173828125" lon="-6.29590571857988834381103515625">
        <ele>84</ele>
        <time>2019-07-11T10:29:11.000Z</time>
      </trkpt>
      <trkpt lat="43.5648047737777233123779296875" lon="-6.2958672456443309783935546875">
        <ele>83.40000152587890625</ele>
        <time>2019-07-11T10:29:12.000Z</time>
      </trkpt>
      <trkpt lat="43.56484425254166126251220703125" lon="-6.29584000445902347564697265625">
        <ele>82.59999847412109375</ele>
        <time>2019-07-11T10:29:13.000Z</time>
      </trkpt>
      <trkpt lat="43.564897477626800537109375" lon="-6.29581200890243053436279296875">
        <ele>81.8000030517578125</ele>
        <time>2019-07-11T10:29:14.000Z</time>
      </trkpt>
      <trkpt lat="43.56494802050292491912841796875" lon="-6.2957897968590259552001953125">
        <ele>81</ele>
        <time>2019-07-11T10:29:15.000Z</time>
      </trkpt>
      <trkpt lat="43.56503938324749469757080078125" lon="-6.295745037496089935302734375">
        <ele>79.40000152587890625</ele>
        <time>2019-07-11T10:29:17.000Z</time>
      </trkpt>
      <trkpt lat="43.565138541162014007568359375" lon="-6.29564923234283924102783203125">
        <ele>78.1999969482421875</ele>
        <time>2019-07-11T10:29:20.000Z</time>
      </trkpt>
      <trkpt lat="43.56546501629054546356201171875" lon="-6.2951675243675708770751953125">
        <ele>78.8000030517578125</ele>
        <time>2019-07-11T10:29:31.000Z</time>
      </trkpt>
      <trkpt lat="43.56571647338569164276123046875" lon="-6.29482227377593517303466796875">
        <ele>77.1999969482421875</ele>
        <time>2019-07-11T10:29:45.000Z</time>
      </trkpt>
      <trkpt lat="43.56571513228118419647216796875" lon="-6.29482160322368144989013671875">
        <ele>76.8000030517578125</ele>
        <time>2019-07-11T10:30:34.000Z</time>
      </trkpt>
      <trkpt lat="43.56571496464312076568603515625" lon="-6.2947993911802768707275390625">
        <ele>76.1999969482421875</ele>
        <time>2019-07-11T10:31:01.000Z</time>
      </trkpt>
      <trkpt lat="43.56571496464312076568603515625" lon="-6.2947993911802768707275390625">
        <ele>76.1999969482421875</ele>
        <time>2019-07-11T10:31:03.000Z</time>
      </trkpt>
      <trkpt lat="43.56571496464312076568603515625" lon="-6.2947993911802768707275390625">
        <ele>76</ele>
        <time>2019-07-11T10:31:17.000Z</time>
      </trkpt>
      <trkpt lat="43.56571496464312076568603515625" lon="-6.2947993911802768707275390625">
        <ele>75.59999847412109375</ele>
        <time>2019-07-11T10:31:42.000Z</time>
      </trkpt>
      <trkpt lat="43.56571496464312076568603515625" lon="-6.2947993911802768707275390625">
        <ele>75.59999847412109375</ele>
        <time>2019-07-11T10:31:46.000Z</time>
      </trkpt>
      <trkpt lat="43.56571496464312076568603515625" lon="-6.2947993911802768707275390625">
        <ele>75.8000030517578125</ele>
        <time>2019-07-11T10:31:58.000Z</time>
      </trkpt>
      <trkpt lat="43.56572099961340427398681640625" lon="-6.2948074378073215484619140625">
        <ele>75.8000030517578125</ele>
        <time>2019-07-11T10:32:47.000Z</time>
      </trkpt>
      <trkpt lat="43.5657214187085628509521484375" lon="-6.29480517469346523284912109375">
        <ele>75.59999847412109375</ele>
        <time>2019-07-11T10:33:19.000Z</time>
      </trkpt>
      <trkpt lat="43.5657214187085628509521484375" lon="-6.29480517469346523284912109375">
        <ele>75.59999847412109375</ele>
        <time>2019-07-11T10:33:28.000Z</time>
      </trkpt>
      <trkpt lat="43.565753437578678131103515625" lon="-6.29479947499930858612060546875">
        <ele>75.59999847412109375</ele>
        <time>2019-07-11T10:34:09.000Z</time>
      </trkpt>
      <trkpt lat="43.56575385667383670806884765625" lon="-6.29479897208511829376220703125">
        <ele>75.59999847412109375</ele>
        <time>2019-07-11T10:34:14.000Z</time>
      </trkpt>
      <trkpt lat="43.5657542757689952850341796875" lon="-6.2947987206280231475830078125">
        <ele>75.59999847412109375</ele>
        <time>2019-07-11T10:34:15.000Z</time>
      </trkpt>
      <trkpt lat="43.56575637124478816986083984375" lon="-6.29479922354221343994140625">
        <ele>75.59999847412109375</ele>
        <time>2019-07-11T10:34:16.000Z</time>
      </trkpt>
      <trkpt lat="43.56575972400605678558349609375" lon="-6.2947970442473888397216796875">
        <ele>75.59999847412109375</ele>
        <time>2019-07-11T10:34:17.000Z</time>
      </trkpt>
      <trkpt lat="43.565766848623752593994140625" lon="-6.29479251801967620849609375">
        <ele>75.59999847412109375</ele>
        <time>2019-07-11T10:34:22.000Z</time>
      </trkpt>
      <trkpt lat="43.56576626189053058624267578125" lon="-6.2947936914861202239990234375">
        <ele>75.59999847412109375</ele>
        <time>2019-07-11T10:34:24.000Z</time>
      </trkpt>
      <trkpt lat="43.56579266488552093505859375" lon="-6.29479913972318172454833984375">
        <ele>75.59999847412109375</ele>
        <time>2019-07-11T10:34:30.000Z</time>
      </trkpt>
      <trkpt lat="43.56580096296966075897216796875" lon="-6.29482897929847240447998046875">
        <ele>75.59999847412109375</ele>
        <time>2019-07-11T10:36:53.000Z</time>
      </trkpt>
      <trkpt lat="43.565788306295871734619140625" lon="-6.2948181666433811187744140625">
        <ele>75.59999847412109375</ele>
        <time>2019-07-11T10:37:26.000Z</time>
      </trkpt>
      <trkpt lat="43.565770201385021209716796875" lon="-6.29480232484638690948486328125">
        <ele>75.59999847412109375</ele>
        <time>2019-07-11T10:37:35.000Z</time>
      </trkpt>
      <trkpt lat="43.5657730512320995330810546875" lon="-6.2947516143321990966796875">
        <ele>75.59999847412109375</ele>
        <time>2019-07-11T10:38:12.000Z</time>
      </trkpt>
      <trkpt lat="43.56580129824578762054443359375" lon="-6.29472102038562297821044921875">
        <ele>75.1999969482421875</ele>
        <time>2019-07-11T10:38:16.000Z</time>
      </trkpt>
      <trkpt lat="43.56581403873860836029052734375" lon="-6.2947149015963077545166015625">
        <ele>74.8000030517578125</ele>
        <time>2019-07-11T10:38:17.000Z</time>
      </trkpt>
      <trkpt lat="43.56587287969887256622314453125" lon="-6.2946341000497341156005859375">
        <ele>74.40000152587890625</ele>
        <time>2019-07-11T10:38:27.000Z</time>
      </trkpt>
      <trkpt lat="43.56588847003877162933349609375" lon="-6.29464457742869853973388671875">
        <ele>74.1999969482421875</ele>
        <time>2019-07-11T10:38:30.000Z</time>
      </trkpt>
      <trkpt lat="43.56587690301239490509033203125" lon="-6.29470727406442165374755859375">
        <ele>74.40000152587890625</ele>
        <time>2019-07-11T10:39:23.000Z</time>
      </trkpt>
      <trkpt lat="43.5657463967800140380859375" lon="-6.29474851302802562713623046875">
        <ele>75.1999969482421875</ele>
        <time>2019-07-11T10:39:40.000Z</time>
      </trkpt>
      <trkpt lat="43.56577481143176555633544921875" lon="-6.29478857852518558502197265625">
        <ele>75.1999969482421875</ele>
        <time>2019-07-11T10:40:06.000Z</time>
      </trkpt>
      <trkpt lat="43.5657790862023830413818359375" lon="-6.29480668343603610992431640625">
        <ele>75</ele>
        <time>2019-07-11T10:40:14.000Z</time>
      </trkpt>
      <trkpt lat="43.565786294639110565185546875" lon="-6.294789500534534454345703125">
        <ele>75</ele>
        <time>2019-07-11T10:40:34.000Z</time>
      </trkpt>
      <trkpt lat="43.5657871328294277191162109375" lon="-6.2948454916477203369140625">
        <ele>75</ele>
        <time>2019-07-11T10:40:56.000Z</time>
      </trkpt>
      <trkpt lat="43.56576240621507167816162109375" lon="-6.2948278896510601043701171875">
        <ele>75</ele>
        <time>2019-07-11T10:41:39.000Z</time>
      </trkpt>
      <trkpt lat="43.5658107697963714599609375" lon="-6.29481397569179534912109375">
        <ele>75</ele>
        <time>2019-07-11T10:42:33.000Z</time>
      </trkpt>
      <trkpt lat="43.56578302569687366485595703125" lon="-6.29476427100598812103271484375">
        <ele>75</ele>
        <time>2019-07-11T10:43:07.000Z</time>
      </trkpt>
      <trkpt lat="43.56576005928218364715576171875" lon="-6.29479176364839076995849609375">
        <ele>75</ele>
        <time>2019-07-11T10:44:01.000Z</time>
      </trkpt>
      <trkpt lat="43.5658317245543003082275390625" lon="-6.2947839684784412384033203125">
        <ele>75</ele>
        <time>2019-07-11T10:44:24.000Z</time>
      </trkpt>
      <trkpt lat="43.56580096296966075897216796875" lon="-6.2947048433125019073486328125">
        <ele>75</ele>
        <time>2019-07-11T10:44:37.000Z</time>
      </trkpt>
      <trkpt lat="43.56577816419303417205810546875" lon="-6.294723786413669586181640625">
        <ele>75</ele>
        <time>2019-07-11T10:44:57.000Z</time>
      </trkpt>
      <trkpt lat="43.56576156802475452423095703125" lon="-6.29474692046642303466796875">
        <ele>75</ele>
        <time>2019-07-11T10:45:04.000Z</time>
      </trkpt>
      <trkpt lat="43.56576072983443737030029296875" lon="-6.2947460822761058807373046875">
        <ele>75</ele>
        <time>2019-07-11T10:45:14.000Z</time>
      </trkpt>
      <trkpt lat="43.5657743923366069793701171875" lon="-6.294772736728191375732421875">
        <ele>75</ele>
        <time>2019-07-11T10:45:38.000Z</time>
      </trkpt>
      <trkpt lat="43.5657747276127338409423828125" lon="-6.294773407280445098876953125">
        <ele>75</ele>
        <time>2019-07-11T10:45:39.000Z</time>
      </trkpt>
      <trkpt lat="43.565862737596035003662109375" lon="-6.29472152329981327056884765625">
        <ele>75</ele>
        <time>2019-07-11T11:14:53.000Z</time>
      </trkpt>
      <trkpt lat="43.56583549641072750091552734375" lon="-6.29477650858461856842041015625">
        <ele>75</ele>
        <time>2019-07-11T11:15:31.000Z</time>
      </trkpt>
      <trkpt lat="43.56588511727750301361083984375" lon="-6.2947102077305316925048828125">
        <ele>74.59999847412109375</ele>
        <time>2019-07-11T11:15:49.000Z</time>
      </trkpt>
      <trkpt lat="43.5659256018698215484619140625" lon="-6.2946636043488979339599609375">
        <ele>74</ele>
        <time>2019-07-11T11:15:52.000Z</time>
      </trkpt>
      <trkpt lat="43.56592568568885326385498046875" lon="-6.29465010948479175567626953125">
        <ele>73</ele>
        <time>2019-07-11T11:15:55.000Z</time>
      </trkpt>
      <trkpt lat="43.5660211555659770965576171875" lon="-6.294468976557254791259765625">
        <ele>71.59999847412109375</ele>
        <time>2019-07-11T11:16:05.000Z</time>
      </trkpt>
      <trkpt lat="43.56602643616497516632080078125" lon="-6.29441306926310062408447265625">
        <ele>71.1999969482421875</ele>
        <time>2019-07-11T11:16:06.000Z</time>
      </trkpt>
      <trkpt lat="43.5660476423799991607666015625" lon="-6.2942326068878173828125">
        <ele>70.8000030517578125</ele>
        <time>2019-07-11T11:16:09.000Z</time>
      </trkpt>
      <trkpt lat="43.566092066466808319091796875" lon="-6.2939658947288990020751953125">
        <ele>72.8000030517578125</ele>
        <time>2019-07-11T11:16:13.000Z</time>
      </trkpt>
      <trkpt lat="43.56610036455094814300537109375" lon="-6.29383765161037445068359375">
        <ele>73.8000030517578125</ele>
        <time>2019-07-11T11:16:15.000Z</time>
      </trkpt>
      <trkpt lat="43.56608628295361995697021484375" lon="-6.29372994415462017059326171875">
        <ele>75</ele>
        <time>2019-07-11T11:16:17.000Z</time>
      </trkpt>
      <trkpt lat="43.5660509951412677764892578125" lon="-6.293620727956295013427734375">
        <ele>76</ele>
        <time>2019-07-11T11:16:19.000Z</time>
      </trkpt>
      <trkpt lat="43.56597094796597957611083984375" lon="-6.29352240823209285736083984375">
        <ele>77.1999969482421875</ele>
        <time>2019-07-11T11:16:21.000Z</time>
      </trkpt>
      <trkpt lat="43.56587623246014118194580078125" lon="-6.29343154840171337127685546875">
        <ele>78.1999969482421875</ele>
        <time>2019-07-11T11:16:23.000Z</time>
      </trkpt>
      <trkpt lat="43.56570071540772914886474609375" lon="-6.29331537522375583648681640625">
        <ele>80</ele>
        <time>2019-07-11T11:16:26.000Z</time>
      </trkpt>
      <trkpt lat="43.5656432993710041046142578125" lon="-6.29327975213527679443359375">
        <ele>80.59999847412109375</ele>
        <time>2019-07-11T11:16:27.000Z</time>
      </trkpt>
      <trkpt lat="43.56559007428586483001708984375" lon="-6.29325158894062042236328125">
        <ele>81.59999847412109375</ele>
        <time>2019-07-11T11:16:28.000Z</time>
      </trkpt>
      <trkpt lat="43.5655049979686737060546875" lon="-6.29320624284446239471435546875">
        <ele>83.59999847412109375</ele>
        <time>2019-07-11T11:16:30.000Z</time>
      </trkpt>
      <trkpt lat="43.5654682852327823638916015625" lon="-6.293188221752643585205078125">
        <ele>84.8000030517578125</ele>
        <time>2019-07-11T11:16:31.000Z</time>
      </trkpt>
      <trkpt lat="43.5654347576200962066650390625" lon="-6.29317137412726879119873046875">
        <ele>86</ele>
        <time>2019-07-11T11:16:32.000Z</time>
      </trkpt>
      <trkpt lat="43.565401732921600341796875" lon="-6.29315578378736972808837890625">
        <ele>87.1999969482421875</ele>
        <time>2019-07-11T11:16:33.000Z</time>
      </trkpt>
      <trkpt lat="43.56534079648554325103759765625" lon="-6.29311387427151203155517578125">
        <ele>89.1999969482421875</ele>
        <time>2019-07-11T11:16:35.000Z</time>
      </trkpt>
      <trkpt lat="43.565231077373027801513671875" lon="-6.293117813766002655029296875">
        <ele>91</ele>
        <time>2019-07-11T11:16:37.000Z</time>
      </trkpt>
      <trkpt lat="43.5651266388595104217529296875" lon="-6.29316173493862152099609375">
        <ele>92.40000152587890625</ele>
        <time>2019-07-11T11:16:39.000Z</time>
      </trkpt>
      <trkpt lat="43.56502982787787914276123046875" lon="-6.2932168878614902496337890625">
        <ele>94</ele>
        <time>2019-07-11T11:16:41.000Z</time>
      </trkpt>
      <trkpt lat="43.5649355314671993255615234375" lon="-6.29329727031290531158447265625">
        <ele>95.59999847412109375</ele>
        <time>2019-07-11T11:16:43.000Z</time>
      </trkpt>
      <trkpt lat="43.56484944932162761688232421875" lon="-6.29337220452725887298583984375">
        <ele>96.8000030517578125</ele>
        <time>2019-07-11T11:16:45.000Z</time>
      </trkpt>
      <trkpt lat="43.5648081265389919281005859375" lon="-6.29340154118835926055908203125">
        <ele>97.40000152587890625</ele>
        <time>2019-07-11T11:16:46.000Z</time>
      </trkpt>
      <trkpt lat="43.564766384661197662353515625" lon="-6.293429620563983917236328125">
        <ele>97.8000030517578125</ele>
        <time>2019-07-11T11:16:47.000Z</time>
      </trkpt>
      <trkpt lat="43.5646864213049411773681640625" lon="-6.29349072463810443878173828125">
        <ele>98.8000030517578125</ele>
        <time>2019-07-11T11:16:49.000Z</time>
      </trkpt>
      <trkpt lat="43.56463730335235595703125" lon="-6.293522156774997711181640625">
        <ele>99.40000152587890625</ele>
        <time>2019-07-11T11:16:50.000Z</time>
      </trkpt>
      <trkpt lat="43.56447142548859119415283203125" lon="-6.29362902604043483734130859375">
        <ele>100.40000152587890625</ele>
        <time>2019-07-11T11:16:53.000Z</time>
      </trkpt>
      <trkpt lat="43.56404696591198444366455078125" lon="-6.29394401796162128448486328125">
        <ele>101</ele>
        <time>2019-07-11T11:17:01.000Z</time>
      </trkpt>
      <trkpt lat="43.56396767310798168182373046875" lon="-6.29402062855660915374755859375">
        <ele>101.59999847412109375</ele>
        <time>2019-07-11T11:17:03.000Z</time>
      </trkpt>
      <trkpt lat="43.56355913914740085601806640625" lon="-6.294406615197658538818359375">
        <ele>102.1999969482421875</ele>
        <time>2019-07-11T11:17:11.000Z</time>
      </trkpt>
      <trkpt lat="43.56350717134773731231689453125" lon="-6.2944513745605945587158203125">
        <ele>102.40000152587890625</ele>
        <time>2019-07-11T11:17:12.000Z</time>
      </trkpt>
      <trkpt lat="43.563456125557422637939453125" lon="-6.29449336789548397064208984375">
        <ele>102.59999847412109375</ele>
        <time>2019-07-11T11:17:13.000Z</time>
      </trkpt>
      <trkpt lat="43.5632987134158611297607421875" lon="-6.294600404798984527587890625">
        <ele>103.8000030517578125</ele>
        <time>2019-07-11T11:17:16.000Z</time>
      </trkpt>
      <trkpt lat="43.563132584095001220703125" lon="-6.29469470120966434478759765625">
        <ele>105</ele>
        <time>2019-07-11T11:17:19.000Z</time>
      </trkpt>
      <trkpt lat="43.5629168339073657989501953125" lon="-6.29484239034354686737060546875">
        <ele>106.1999969482421875</ele>
        <time>2019-07-11T11:17:23.000Z</time>
      </trkpt>
      <trkpt lat="43.562762103974819183349609375" lon="-6.29496359266340732574462890625">
        <ele>107.1999969482421875</ele>
        <time>2019-07-11T11:17:26.000Z</time>
      </trkpt>
      <trkpt lat="43.56261483393609523773193359375" lon="-6.295093260705471038818359375">
        <ele>108.40000152587890625</ele>
        <time>2019-07-11T11:17:29.000Z</time>
      </trkpt>
      <trkpt lat="43.56247452087700366973876953125" lon="-6.29522963427007198333740234375">
        <ele>109.40000152587890625</ele>
        <time>2019-07-11T11:17:32.000Z</time>
      </trkpt>
      <trkpt lat="43.56237879954278469085693359375" lon="-6.29531412385404109954833984375">
        <ele>110.1999969482421875</ele>
        <time>2019-07-11T11:17:34.000Z</time>
      </trkpt>
      <trkpt lat="43.56232599355280399322509765625" lon="-6.29534102976322174072265625">
        <ele>110.8000030517578125</ele>
        <time>2019-07-11T11:17:35.000Z</time>
      </trkpt>
      <trkpt lat="43.5622687451541423797607421875" lon="-6.29535586573183536529541015625">
        <ele>111.59999847412109375</ele>
        <time>2019-07-11T11:17:36.000Z</time>
      </trkpt>
      <trkpt lat="43.5622080601751804351806640625" lon="-6.29535754211246967315673828125">
        <ele>112.40000152587890625</ele>
        <time>2019-07-11T11:17:37.000Z</time>
      </trkpt>
      <trkpt lat="43.56207906268537044525146484375" lon="-6.295346729457378387451171875">
        <ele>113.59999847412109375</ele>
        <time>2019-07-11T11:17:39.000Z</time>
      </trkpt>
      <trkpt lat="43.561891056597232818603515625" lon="-6.29535318352282047271728515625">
        <ele>115</ele>
        <time>2019-07-11T11:17:42.000Z</time>
      </trkpt>
      <trkpt lat="43.561714030802249908447265625" lon="-6.29539894871413707733154296875">
        <ele>116.40000152587890625</ele>
        <time>2019-07-11T11:17:45.000Z</time>
      </trkpt>
      <trkpt lat="43.5614590533077716827392578125" lon="-6.29547782242298126220703125">
        <ele>117.59999847412109375</ele>
        <time>2019-07-11T11:17:49.000Z</time>
      </trkpt>
      <trkpt lat="43.5612682811915874481201171875" lon="-6.29549928009510040283203125">
        <ele>118.8000030517578125</ele>
        <time>2019-07-11T11:17:52.000Z</time>
      </trkpt>
      <trkpt lat="43.5611016489565372467041015625" lon="-6.29549718461930751800537109375">
        <ele>120.1999969482421875</ele>
        <time>2019-07-11T11:17:55.000Z</time>
      </trkpt>
      <trkpt lat="43.56104557402431964874267578125" lon="-6.29549969919025897979736328125">
        <ele>121.40000152587890625</ele>
        <time>2019-07-11T11:17:58.000Z</time>
      </trkpt>
      <trkpt lat="43.56104104779660701751708984375" lon="-6.29549525678157806396484375">
        <ele>122.59999847412109375</ele>
        <time>2019-07-11T11:18:01.000Z</time>
      </trkpt>
      <trkpt lat="43.5609910078346729278564453125" lon="-6.29547136835753917694091796875">
        <ele>122.8000030517578125</ele>
        <time>2019-07-11T11:18:04.000Z</time>
      </trkpt>
      <trkpt lat="43.56097281910479068756103515625" lon="-6.295441277325153350830078125">
        <ele>122.8000030517578125</ele>
        <time>2019-07-11T11:18:05.000Z</time>
      </trkpt>
      <trkpt lat="43.56097600422799587249755859375" lon="-6.29532158374786376953125">
        <ele>123</ele>
        <time>2019-07-11T11:18:07.000Z</time>
      </trkpt>
      <trkpt lat="43.5610389523208141326904296875" lon="-6.29464373923838138580322265625">
        <ele>121.40000152587890625</ele>
        <time>2019-07-11T11:18:13.000Z</time>
      </trkpt>
      <trkpt lat="43.56102897785604000091552734375" lon="-6.2943652085959911346435546875">
        <ele>120.1999969482421875</ele>
        <time>2019-07-11T11:18:15.000Z</time>
      </trkpt>
      <trkpt lat="43.56101028621196746826171875" lon="-6.29407368600368499755859375">
        <ele>119.1999969482421875</ele>
        <time>2019-07-11T11:18:17.000Z</time>
      </trkpt>
      <trkpt lat="43.56096862815320491790771484375" lon="-6.29365182481706142425537109375">
        <ele>118</ele>
        <time>2019-07-11T11:18:20.000Z</time>
      </trkpt>
      <trkpt lat="43.56088497675955295562744140625" lon="-6.29341042600572109222412109375">
        <ele>116.59999847412109375</ele>
        <time>2019-07-11T11:18:22.000Z</time>
      </trkpt>
      <trkpt lat="43.560714907944202423095703125" lon="-6.29326164722442626953125">
        <ele>115.40000152587890625</ele>
        <time>2019-07-11T11:18:24.000Z</time>
      </trkpt>
      <trkpt lat="43.56039044447243213653564453125" lon="-6.2932075001299381256103515625">
        <ele>114</ele>
        <time>2019-07-11T11:18:27.000Z</time>
      </trkpt>
      <trkpt lat="43.56015826575458049774169921875" lon="-6.29318729974329471588134765625">
        <ele>112.8000030517578125</ele>
        <time>2019-07-11T11:18:29.000Z</time>
      </trkpt>
      <trkpt lat="43.55990345589816570281982421875" lon="-6.29319752566516399383544921875">
        <ele>111</ele>
        <time>2019-07-11T11:18:31.000Z</time>
      </trkpt>
      <trkpt lat="43.5596309602260589599609375" lon="-6.29326860420405864715576171875">
        <ele>109.1999969482421875</ele>
        <time>2019-07-11T11:18:33.000Z</time>
      </trkpt>
      <trkpt lat="43.55950112454593181610107421875" lon="-6.2933047302067279815673828125">
        <ele>108.59999847412109375</ele>
        <time>2019-07-11T11:18:34.000Z</time>
      </trkpt>
      <trkpt lat="43.5593734681606292724609375" lon="-6.29333817400038242340087890625">
        <ele>107.8000030517578125</ele>
        <time>2019-07-11T11:18:35.000Z</time>
      </trkpt>
      <trkpt lat="43.55914137326180934906005859375" lon="-6.29339751787483692169189453125">
        <ele>106.1999969482421875</ele>
        <time>2019-07-11T11:18:37.000Z</time>
      </trkpt>
      <trkpt lat="43.55894540436565876007080078125" lon="-6.2934673391282558441162109375">
        <ele>105.1999969482421875</ele>
        <time>2019-07-11T11:18:39.000Z</time>
      </trkpt>
      <trkpt lat="43.55877810157835483551025390625" lon="-6.29362768493592739105224609375">
        <ele>104.59999847412109375</ele>
        <time>2019-07-11T11:18:41.000Z</time>
      </trkpt>
      <trkpt lat="43.5586474277079105377197265625" lon="-6.2938850931823253631591796875">
        <ele>104</ele>
        <time>2019-07-11T11:18:43.000Z</time>
      </trkpt>
      <trkpt lat="43.55853033252060413360595703125" lon="-6.2941754423081874847412109375">
        <ele>102.40000152587890625</ele>
        <time>2019-07-11T11:18:45.000Z</time>
      </trkpt>
      <trkpt lat="43.55845606885850429534912109375" lon="-6.29429823718965053558349609375">
        <ele>101.8000030517578125</ele>
        <time>2019-07-11T11:18:46.000Z</time>
      </trkpt>
      <trkpt lat="43.5583577491343021392822265625" lon="-6.2943973951041698455810546875">
        <ele>101.1999969482421875</ele>
        <time>2019-07-11T11:18:47.000Z</time>
      </trkpt>
      <trkpt lat="43.55823629535734653472900390625" lon="-6.29446134902536869049072265625">
        <ele>100.8000030517578125</ele>
        <time>2019-07-11T11:18:48.000Z</time>
      </trkpt>
      <trkpt lat="43.55810017324984073638916015625" lon="-6.2945050187408924102783203125">
        <ele>100</ele>
        <time>2019-07-11T11:18:49.000Z</time>
      </trkpt>
      <trkpt lat="43.55780898593366146087646484375" lon="-6.29458238370716571807861328125">
        <ele>98.8000030517578125</ele>
        <time>2019-07-11T11:18:51.000Z</time>
      </trkpt>
      <trkpt lat="43.55750924907624721527099609375" lon="-6.29466854967176914215087890625">
        <ele>97.40000152587890625</ele>
        <time>2019-07-11T11:18:53.000Z</time>
      </trkpt>
      <trkpt lat="43.55736625380814075469970703125" lon="-6.2947095371782779693603515625">
        <ele>96.8000030517578125</ele>
        <time>2019-07-11T11:18:54.000Z</time>
      </trkpt>
      <trkpt lat="43.55722778476774692535400390625" lon="-6.29475203342735767364501953125">
        <ele>96</ele>
        <time>2019-07-11T11:18:55.000Z</time>
      </trkpt>
      <trkpt lat="43.55709115974605083465576171875" lon="-6.2948074378073215484619140625">
        <ele>94.59999847412109375</ele>
        <time>2019-07-11T11:18:56.000Z</time>
      </trkpt>
      <trkpt lat="43.5569541156291961669921875" lon="-6.29487088881433010101318359375">
        <ele>93.1999969482421875</ele>
        <time>2019-07-11T11:18:57.000Z</time>
      </trkpt>
      <trkpt lat="43.55682813562452793121337890625" lon="-6.29494263790547847747802734375">
        <ele>91.8000030517578125</ele>
        <time>2019-07-11T11:18:58.000Z</time>
      </trkpt>
      <trkpt lat="43.55663023889064788818359375" lon="-6.2950743176043033599853515625">
        <ele>90.59999847412109375</ele>
        <time>2019-07-11T11:19:00.000Z</time>
      </trkpt>
      <trkpt lat="43.55655237101018428802490234375" lon="-6.29509803839027881622314453125">
        <ele>90.59999847412109375</ele>
        <time>2019-07-11T11:19:01.000Z</time>
      </trkpt>
      <trkpt lat="43.55641943402588367462158203125" lon="-6.29500198177993297576904296875">
        <ele>90.8000030517578125</ele>
        <time>2019-07-11T11:19:03.000Z</time>
      </trkpt>
      <trkpt lat="43.5563306696712970733642578125" lon="-6.2947789393365383148193359375">
        <ele>91.1999969482421875</ele>
        <time>2019-07-11T11:19:05.000Z</time>
      </trkpt>
      <trkpt lat="43.55637165717780590057373046875" lon="-6.2945066951215267181396484375">
        <ele>91.1999969482421875</ele>
        <time>2019-07-11T11:19:07.000Z</time>
      </trkpt>
      <trkpt lat="43.55655488558113574981689453125" lon="-6.29427292384207248687744140625">
        <ele>90.8000030517578125</ele>
        <time>2019-07-11T11:19:09.000Z</time>
      </trkpt>
      <trkpt lat="43.55686686001718044281005859375" lon="-6.2940269149839878082275390625">
        <ele>90.8000030517578125</ele>
        <time>2019-07-11T11:19:12.000Z</time>
      </trkpt>
      <trkpt lat="43.55698697268962860107421875" lon="-6.2937928922474384307861328125">
        <ele>91.40000152587890625</ele>
        <time>2019-07-11T11:19:14.000Z</time>
      </trkpt>
      <trkpt lat="43.5570045746862888336181640625" lon="-6.29365702159702777862548828125">
        <ele>92.1999969482421875</ele>
        <time>2019-07-11T11:19:15.000Z</time>
      </trkpt>
      <trkpt lat="43.55698420666158199310302734375" lon="-6.29352190531790256500244140625">
        <ele>93.40000152587890625</ele>
        <time>2019-07-11T11:19:16.000Z</time>
      </trkpt>
      <trkpt lat="43.55694095604121685028076171875" lon="-6.29342031665146350860595703125">
        <ele>94.40000152587890625</ele>
        <time>2019-07-11T11:19:17.000Z</time>
      </trkpt>
      <trkpt lat="43.5568962804973125457763671875" lon="-6.2933154590427875518798828125">
        <ele>95.59999847412109375</ele>
        <time>2019-07-11T11:19:18.000Z</time>
      </trkpt>
      <trkpt lat="43.556907176971435546875" lon="-6.2930542789399623870849609375">
        <ele>97.40000152587890625</ele>
        <time>2019-07-11T11:19:20.000Z</time>
      </trkpt>
      <trkpt lat="43.55705645866692066192626953125" lon="-6.2927736528217792510986328125">
        <ele>98.1999969482421875</ele>
        <time>2019-07-11T11:19:22.000Z</time>
      </trkpt>
      <trkpt lat="43.55714329518377780914306640625" lon="-6.29263342358171939849853515625">
        <ele>98.59999847412109375</ele>
        <time>2019-07-11T11:19:23.000Z</time>
      </trkpt>
      <trkpt lat="43.5572168044745922088623046875" lon="-6.29248447716236114501953125">
        <ele>99</ele>
        <time>2019-07-11T11:19:24.000Z</time>
      </trkpt>
      <trkpt lat="43.55727002955973148345947265625" lon="-6.2923376262187957763671875">
        <ele>99.59999847412109375</ele>
        <time>2019-07-11T11:19:25.000Z</time>
      </trkpt>
      <trkpt lat="43.55735133402049541473388671875" lon="-6.29221013747155666351318359375">
        <ele>100.1999969482421875</ele>
        <time>2019-07-11T11:19:26.000Z</time>
      </trkpt>
      <trkpt lat="43.557580076158046722412109375" lon="-6.2920648790895938873291015625">
        <ele>100.8000030517578125</ele>
        <time>2019-07-11T11:19:28.000Z</time>
      </trkpt>
      <trkpt lat="43.5579580999910831451416015625" lon="-6.29195331595838069915771484375">
        <ele>101.40000152587890625</ele>
        <time>2019-07-11T11:19:31.000Z</time>
      </trkpt>
      <trkpt lat="43.55807452462613582611083984375" lon="-6.2918828241527080535888671875">
        <ele>102</ele>
        <time>2019-07-11T11:19:32.000Z</time>
      </trkpt>
      <trkpt lat="43.55829580686986446380615234375" lon="-6.2917175330221652984619140625">
        <ele>103.40000152587890625</ele>
        <time>2019-07-11T11:19:34.000Z</time>
      </trkpt>
      <trkpt lat="43.55850401334464550018310546875" lon="-6.29154394380748271942138671875">
        <ele>104.1999969482421875</ele>
        <time>2019-07-11T11:19:36.000Z</time>
      </trkpt>
      <trkpt lat="43.558583222329616546630859375" lon="-6.29144235514104366302490234375">
        <ele>104.59999847412109375</ele>
        <time>2019-07-11T11:19:37.000Z</time>
      </trkpt>
      <trkpt lat="43.55863912962377071380615234375" lon="-6.291328780353069305419921875">
        <ele>105.1999969482421875</ele>
        <time>2019-07-11T11:19:38.000Z</time>
      </trkpt>
      <trkpt lat="43.55866025201976299285888671875" lon="-6.291197352111339569091796875">
        <ele>105.8000030517578125</ele>
        <time>2019-07-11T11:19:39.000Z</time>
      </trkpt>
      <trkpt lat="43.55864063836634159088134765625" lon="-6.29106734879314899444580078125">
        <ele>106.40000152587890625</ele>
        <time>2019-07-11T11:19:40.000Z</time>
      </trkpt>
      <trkpt lat="43.55859017930924892425537109375" lon="-6.29095695912837982177734375">
        <ele>107.1999969482421875</ele>
        <time>2019-07-11T11:19:41.000Z</time>
      </trkpt>
      <trkpt lat="43.55851843021810054779052734375" lon="-6.2908637523651123046875">
        <ele>107.8000030517578125</ele>
        <time>2019-07-11T11:19:42.000Z</time>
      </trkpt>
      <trkpt lat="43.55835095979273319244384765625" lon="-6.29066719673573970794677734375">
        <ele>108.59999847412109375</ele>
        <time>2019-07-11T11:19:44.000Z</time>
      </trkpt>
      <trkpt lat="43.55827569030225276947021484375" lon="-6.2903633527457714080810546875">
        <ele>109</ele>
        <time>2019-07-11T11:19:46.000Z</time>
      </trkpt>
      <trkpt lat="43.5582105629146099090576171875" lon="-6.28981760703027248382568359375">
        <ele>109.59999847412109375</ele>
        <time>2019-07-11T11:19:49.000Z</time>
      </trkpt>
      <trkpt lat="43.55813034810125827789306640625" lon="-6.28945634700357913970947265625">
        <ele>110.8000030517578125</ele>
        <time>2019-07-11T11:19:51.000Z</time>
      </trkpt>
      <trkpt lat="43.55798232369124889373779296875" lon="-6.28913716413080692291259765625">
        <ele>111.8000030517578125</ele>
        <time>2019-07-11T11:19:53.000Z</time>
      </trkpt>
      <trkpt lat="43.55781787075102329254150390625" lon="-6.2888381816446781158447265625">
        <ele>113.1999969482421875</ele>
        <time>2019-07-11T11:19:55.000Z</time>
      </trkpt>
      <trkpt lat="43.55764721520245075225830078125" lon="-6.28854372538626194000244140625">
        <ele>114.59999847412109375</ele>
        <time>2019-07-11T11:19:57.000Z</time>
      </trkpt>
      <trkpt lat="43.5573948360979557037353515625" lon="-6.28822303377091884613037109375">
        <ele>115.1999969482421875</ele>
        <time>2019-07-11T11:19:59.000Z</time>
      </trkpt>
      <trkpt lat="43.55726449750363826751708984375" lon="-6.28808104433119297027587890625">
        <ele>115.59999847412109375</ele>
        <time>2019-07-11T11:20:00.000Z</time>
      </trkpt>
      <trkpt lat="43.55701773427426815032958984375" lon="-6.28781148232519626617431640625">
        <ele>117.1999969482421875</ele>
        <time>2019-07-11T11:20:02.000Z</time>
      </trkpt>
      <trkpt lat="43.556912206113338470458984375" lon="-6.2876885198056697845458984375">
        <ele>118.59999847412109375</ele>
        <time>2019-07-11T11:20:03.000Z</time>
      </trkpt>
      <trkpt lat="43.55681137181818485260009765625" lon="-6.28755633719265460968017578125">
        <ele>119.59999847412109375</ele>
        <time>2019-07-11T11:20:04.000Z</time>
      </trkpt>
      <trkpt lat="43.556718416512012481689453125" lon="-6.28742390312254428863525390625">
        <ele>120.8000030517578125</ele>
        <time>2019-07-11T11:20:05.000Z</time>
      </trkpt>
      <trkpt lat="43.5566349327564239501953125" lon="-6.28728643991053104400634765625">
        <ele>121.40000152587890625</ele>
        <time>2019-07-11T11:20:06.000Z</time>
      </trkpt>
      <trkpt lat="43.556545078754425048828125" lon="-6.286962144076824188232421875">
        <ele>120.1999969482421875</ele>
        <time>2019-07-11T11:20:08.000Z</time>
      </trkpt>
      <trkpt lat="43.55655790306627750396728515625" lon="-6.28677447326481342315673828125">
        <ele>119.1999969482421875</ele>
        <time>2019-07-11T11:20:09.000Z</time>
      </trkpt>
      <trkpt lat="43.5566076077520847320556640625" lon="-6.2865821085870265960693359375">
        <ele>118.59999847412109375</ele>
        <time>2019-07-11T11:20:10.000Z</time>
      </trkpt>
      <trkpt lat="43.55681153945624828338623046875" lon="-6.2862972915172576904296875">
        <ele>118</ele>
        <time>2019-07-11T11:20:12.000Z</time>
      </trkpt>
      <trkpt lat="43.55709350667893886566162109375" lon="-6.28620031289756298065185546875">
        <ele>118.1999969482421875</ele>
        <time>2019-07-11T11:20:14.000Z</time>
      </trkpt>
      <trkpt lat="43.557567335665225982666015625" lon="-6.28609671257436275482177734375">
        <ele>118.59999847412109375</ele>
        <time>2019-07-11T11:20:17.000Z</time>
      </trkpt>
      <trkpt lat="43.55790085159242153167724609375" lon="-6.28598573617637157440185546875">
        <ele>119.1999969482421875</ele>
        <time>2019-07-11T11:20:19.000Z</time>
      </trkpt>
      <trkpt lat="43.558225817978382110595703125" lon="-6.2858575768768787384033203125">
        <ele>120.40000152587890625</ele>
        <time>2019-07-11T11:20:21.000Z</time>
      </trkpt>
      <trkpt lat="43.5583751834928989410400390625" lon="-6.2857911922037601470947265625">
        <ele>121.40000152587890625</ele>
        <time>2019-07-11T11:20:22.000Z</time>
      </trkpt>
      <trkpt lat="43.55864323675632476806640625" lon="-6.28567568957805633544921875">
        <ele>122.40000152587890625</ele>
        <time>2019-07-11T11:20:24.000Z</time>
      </trkpt>
      <trkpt lat="43.55887063778936862945556640625" lon="-6.28560989163815975189208984375">
        <ele>123.40000152587890625</ele>
        <time>2019-07-11T11:20:26.000Z</time>
      </trkpt>
      <trkpt lat="43.55910197831690311431884765625" lon="-6.28571215085685253143310546875">
        <ele>124.40000152587890625</ele>
        <time>2019-07-11T11:20:28.000Z</time>
      </trkpt>
      <trkpt lat="43.5593075864017009735107421875" lon="-6.28597073256969451904296875">
        <ele>125.8000030517578125</ele>
        <time>2019-07-11T11:20:30.000Z</time>
      </trkpt>
      <trkpt lat="43.55965442955493927001953125" lon="-6.2864474952220916748046875">
        <ele>126.59999847412109375</ele>
        <time>2019-07-11T11:20:33.000Z</time>
      </trkpt>
      <trkpt lat="43.55999330990016460418701171875" lon="-6.28679710440337657928466796875">
        <ele>127</ele>
        <time>2019-07-11T11:20:36.000Z</time>
      </trkpt>
      <trkpt lat="43.5600995086133480072021484375" lon="-6.2868680991232395172119140625">
        <ele>127.1999969482421875</ele>
        <time>2019-07-11T11:20:37.000Z</time>
      </trkpt>
      <trkpt lat="43.56020671315491199493408203125" lon="-6.2868976034224033355712890625">
        <ele>127.59999847412109375</ele>
        <time>2019-07-11T11:20:38.000Z</time>
      </trkpt>
      <trkpt lat="43.5604468546807765960693359375" lon="-6.28686550073325634002685546875">
        <ele>128.1999969482421875</ele>
        <time>2019-07-11T11:20:40.000Z</time>
      </trkpt>
      <trkpt lat="43.5606983117759227752685546875" lon="-6.2867480702698230743408203125">
        <ele>128.399993896484375</ele>
        <time>2019-07-11T11:20:42.000Z</time>
      </trkpt>
      <trkpt lat="43.56092713773250579833984375" lon="-6.28653558902442455291748046875">
        <ele>128.399993896484375</ele>
        <time>2019-07-11T11:20:44.000Z</time>
      </trkpt>
      <trkpt lat="43.561336509883403778076171875" lon="-6.28600300289690494537353515625">
        <ele>127.1999969482421875</ele>
        <time>2019-07-11T11:20:48.000Z</time>
      </trkpt>
      <trkpt lat="43.56144287623465061187744140625" lon="-6.28588364459574222564697265625">
        <ele>126.59999847412109375</ele>
        <time>2019-07-11T11:20:49.000Z</time>
      </trkpt>
      <trkpt lat="43.5616893880069255828857421875" lon="-6.285745762288570404052734375">
        <ele>125</ele>
        <time>2019-07-11T11:20:51.000Z</time>
      </trkpt>
      <trkpt lat="43.56195576488971710205078125" lon="-6.285725645720958709716796875">
        <ele>123.8000030517578125</ele>
        <time>2019-07-11T11:20:53.000Z</time>
      </trkpt>
      <trkpt lat="43.5624122433364391326904296875" lon="-6.28572572953999042510986328125">
        <ele>123.8000030517578125</ele>
        <time>2019-07-11T11:20:57.000Z</time>
      </trkpt>
      <trkpt lat="43.5625071264803409576416015625" lon="-6.285705529153347015380859375">
        <ele>124.1999969482421875</ele>
        <time>2019-07-11T11:20:58.000Z</time>
      </trkpt>
      <trkpt lat="43.56267468072474002838134765625" lon="-6.285598576068878173828125">
        <ele>124.8000030517578125</ele>
        <time>2019-07-11T11:21:00.000Z</time>
      </trkpt>
      <trkpt lat="43.5627468489110469818115234375" lon="-6.28551886416971683502197265625">
        <ele>125</ele>
        <time>2019-07-11T11:21:01.000Z</time>
      </trkpt>
      <trkpt lat="43.5628051869571208953857421875" lon="-6.28542096354067325592041015625">
        <ele>125.1999969482421875</ele>
        <time>2019-07-11T11:21:02.000Z</time>
      </trkpt>
      <trkpt lat="43.56287182308733463287353515625" lon="-6.28517855890095233917236328125">
        <ele>125.8000030517578125</ele>
        <time>2019-07-11T11:21:04.000Z</time>
      </trkpt>
      <trkpt lat="43.56290970928966999053955078125" lon="-6.28493414260447025299072265625">
        <ele>126.1999969482421875</ele>
        <time>2019-07-11T11:21:06.000Z</time>
      </trkpt>
      <trkpt lat="43.5629949532449245452880859375" lon="-6.28428085707128047943115234375">
        <ele>126.59999847412109375</ele>
        <time>2019-07-11T11:21:11.000Z</time>
      </trkpt>
      <trkpt lat="43.56312948279082775115966796875" lon="-6.2836108915507793426513671875">
        <ele>126.8000030517578125</ele>
        <time>2019-07-11T11:21:16.000Z</time>
      </trkpt>
      <trkpt lat="43.56322285719215869903564453125" lon="-6.28331693820655345916748046875">
        <ele>127.40000152587890625</ele>
        <time>2019-07-11T11:21:18.000Z</time>
      </trkpt>
      <trkpt lat="43.56341128237545490264892578125" lon="-6.28270405344665050506591796875">
        <ele>128.1999969482421875</ele>
        <time>2019-07-11T11:21:22.000Z</time>
      </trkpt>
      <trkpt lat="43.5635800100862979888916015625" lon="-6.28206619061529636383056640625">
        <ele>127.59999847412109375</ele>
        <time>2019-07-11T11:21:26.000Z</time>
      </trkpt>
      <trkpt lat="43.5638535954058170318603515625" lon="-6.28147677518427371978759765625">
        <ele>126.59999847412109375</ele>
        <time>2019-07-11T11:21:30.000Z</time>
      </trkpt>
      <trkpt lat="43.56391780078411102294921875" lon="-6.28132640384137630462646484375">
        <ele>126.40000152587890625</ele>
        <time>2019-07-11T11:21:31.000Z</time>
      </trkpt>
      <trkpt lat="43.56395996175706386566162109375" lon="-6.28117217682301998138427734375">
        <ele>126.1999969482421875</ele>
        <time>2019-07-11T11:21:32.000Z</time>
      </trkpt>
      <trkpt lat="43.5639806650578975677490234375" lon="-6.28102012909948825836181640625">
        <ele>126.1999969482421875</ele>
        <time>2019-07-11T11:21:33.000Z</time>
      </trkpt>
      <trkpt lat="43.56399164535105228424072265625" lon="-6.28023440949618816375732421875">
        <ele>127.40000152587890625</ele>
        <time>2019-07-11T11:21:38.000Z</time>
      </trkpt>
      <trkpt lat="43.563997261226177215576171875" lon="-6.279498897492885589599609375">
        <ele>127.59999847412109375</ele>
        <time>2019-07-11T11:21:42.000Z</time>
      </trkpt>
      <trkpt lat="43.56400094926357269287109375" lon="-6.278773359954357147216796875">
        <ele>127.40000152587890625</ele>
        <time>2019-07-11T11:21:46.000Z</time>
      </trkpt>
      <trkpt lat="43.56397974304854869842529296875" lon="-6.278100125491619110107421875">
        <ele>126.8000030517578125</ele>
        <time>2019-07-11T11:21:50.000Z</time>
      </trkpt>
      <trkpt lat="43.56388754211366176605224609375" lon="-6.2777938507497310638427734375">
        <ele>125.8000030517578125</ele>
        <time>2019-07-11T11:21:52.000Z</time>
      </trkpt>
      <trkpt lat="43.5637023858726024627685546875" lon="-6.27755991183221340179443359375">
        <ele>124.40000152587890625</ele>
        <time>2019-07-11T11:21:54.000Z</time>
      </trkpt>
      <trkpt lat="43.56346794404089450836181640625" lon="-6.27739294432103633880615234375">
        <ele>123.40000152587890625</ele>
        <time>2019-07-11T11:21:56.000Z</time>
      </trkpt>
      <trkpt lat="43.56293150223791599273681640625" lon="-6.27718985080718994140625">
        <ele>122.1999969482421875</ele>
        <time>2019-07-11T11:22:00.000Z</time>
      </trkpt>
      <trkpt lat="43.56280024163424968719482421875" lon="-6.2771437503397464752197265625">
        <ele>121.59999847412109375</ele>
        <time>2019-07-11T11:22:01.000Z</time>
      </trkpt>
      <trkpt lat="43.56266864575445652008056640625" lon="-6.277096979320049285888671875">
        <ele>120.59999847412109375</ele>
        <time>2019-07-11T11:22:02.000Z</time>
      </trkpt>
      <trkpt lat="43.562536798417568206787109375" lon="-6.27705263905227184295654296875">
        <ele>119.40000152587890625</ele>
        <time>2019-07-11T11:22:03.000Z</time>
      </trkpt>
      <trkpt lat="43.56240612454712390899658203125" lon="-6.2770093046128749847412109375">
        <ele>118.1999969482421875</ele>
        <time>2019-07-11T11:22:04.000Z</time>
      </trkpt>
      <trkpt lat="43.5622741095721721649169921875" lon="-6.27697334624826908111572265625">
        <ele>117.1999969482421875</ele>
        <time>2019-07-11T11:22:05.000Z</time>
      </trkpt>
      <trkpt lat="43.562138490378856658935546875" lon="-6.2769539840519428253173828125">
        <ele>116.40000152587890625</ele>
        <time>2019-07-11T11:22:06.000Z</time>
      </trkpt>
      <trkpt lat="43.56200077570974826812744140625" lon="-6.2769506312906742095947265625">
        <ele>115.8000030517578125</ele>
        <time>2019-07-11T11:22:07.000Z</time>
      </trkpt>
      <trkpt lat="43.5618607141077518463134765625" lon="-6.27696747891604900360107421875">
        <ele>115.1999969482421875</ele>
        <time>2019-07-11T11:22:08.000Z</time>
      </trkpt>
      <trkpt lat="43.56171838939189910888671875" lon="-6.2770119868218898773193359375">
        <ele>114.40000152587890625</ele>
        <time>2019-07-11T11:22:09.000Z</time>
      </trkpt>
      <trkpt lat="43.56158436276018619537353515625" lon="-6.27708801068365573883056640625">
        <ele>113.8000030517578125</ele>
        <time>2019-07-11T11:22:10.000Z</time>
      </trkpt>
      <trkpt lat="43.56145276688039302825927734375" lon="-6.27718172036111354827880859375">
        <ele>113</ele>
        <time>2019-07-11T11:22:11.000Z</time>
      </trkpt>
      <trkpt lat="43.56131714768707752227783203125" lon="-6.27728196792304515838623046875">
        <ele>112</ele>
        <time>2019-07-11T11:22:12.000Z</time>
      </trkpt>
      <trkpt lat="43.561174906790256500244140625" lon="-6.27737115137279033660888671875">
        <ele>111</ele>
        <time>2019-07-11T11:22:13.000Z</time>
      </trkpt>
      <trkpt lat="43.56087910942733287811279296875" lon="-6.27754733897745609283447265625">
        <ele>109.1999969482421875</ele>
        <time>2019-07-11T11:22:15.000Z</time>
      </trkpt>
      <trkpt lat="43.560586161911487579345703125" lon="-6.2777787633240222930908203125">
        <ele>107.40000152587890625</ele>
        <time>2019-07-11T11:22:17.000Z</time>
      </trkpt>
      <trkpt lat="43.56044568121433258056640625" lon="-6.27789451740682125091552734375">
        <ele>106.1999969482421875</ele>
        <time>2019-07-11T11:22:18.000Z</time>
      </trkpt>
      <trkpt lat="43.5603070445358753204345703125" lon="-6.2779852934181690216064453125">
        <ele>104.59999847412109375</ele>
        <time>2019-07-11T11:22:19.000Z</time>
      </trkpt>
      <trkpt lat="43.56016597710549831390380859375" lon="-6.278053186833858489990234375">
        <ele>103.1999969482421875</ele>
        <time>2019-07-11T11:22:20.000Z</time>
      </trkpt>
      <trkpt lat="43.560015521943569183349609375" lon="-6.2780939228832721710205078125">
        <ele>102.1999969482421875</ele>
        <time>2019-07-11T11:22:21.000Z</time>
      </trkpt>
      <trkpt lat="43.55969600379467010498046875" lon="-6.27814781852066516876220703125">
        <ele>101</ele>
        <time>2019-07-11T11:22:23.000Z</time>
      </trkpt>
      <trkpt lat="43.5593736357986927032470703125" lon="-6.27819810993969440460205078125">
        <ele>99.59999847412109375</ele>
        <time>2019-07-11T11:22:25.000Z</time>
      </trkpt>
      <trkpt lat="43.55922150425612926483154296875" lon="-6.27822509966790676116943359375">
        <ele>98.40000152587890625</ele>
        <time>2019-07-11T11:22:26.000Z</time>
      </trkpt>
      <trkpt lat="43.5590765811502933502197265625" lon="-6.27825678326189517974853515625">
        <ele>97.1999969482421875</ele>
        <time>2019-07-11T11:22:27.000Z</time>
      </trkpt>
      <trkpt lat="43.558945991098880767822265625" lon="-6.27830388955771923065185546875">
        <ele>96.1999969482421875</ele>
        <time>2019-07-11T11:22:28.000Z</time>
      </trkpt>
      <trkpt lat="43.5585837252438068389892578125" lon="-6.27852031029760837554931640625">
        <ele>95.40000152587890625</ele>
        <time>2019-07-11T11:22:32.000Z</time>
      </trkpt>
      <trkpt lat="43.55845372192561626434326171875" lon="-6.2784352339804172515869140625">
        <ele>95.8000030517578125</ele>
        <time>2019-07-11T11:22:34.000Z</time>
      </trkpt>
      <trkpt lat="43.55839907191693782806396484375" lon="-6.278192996978759765625">
        <ele>96.1999969482421875</ele>
        <time>2019-07-11T11:22:36.000Z</time>
      </trkpt>
      <trkpt lat="43.55848842300474643707275390625" lon="-6.27793391235172748565673828125">
        <ele>96.1999969482421875</ele>
        <time>2019-07-11T11:22:38.000Z</time>
      </trkpt>
      <trkpt lat="43.5586849786341190338134765625" lon="-6.27775370143353939056396484375">
        <ele>96</ele>
        <time>2019-07-11T11:22:40.000Z</time>
      </trkpt>
      <trkpt lat="43.5590638406574726104736328125" lon="-6.27751171588897705078125">
        <ele>97.1999969482421875</ele>
        <time>2019-07-11T11:22:43.000Z</time>
      </trkpt>
      <trkpt lat="43.55918504297733306884765625" lon="-6.27741046249866485595703125">
        <ele>98.59999847412109375</ele>
        <time>2019-07-11T11:22:44.000Z</time>
      </trkpt>
      <trkpt lat="43.55930549092590808868408203125" lon="-6.2773234583437442779541015625">
        <ele>100.59999847412109375</ele>
        <time>2019-07-11T11:22:45.000Z</time>
      </trkpt>
      <trkpt lat="43.55942484922707080841064453125" lon="-6.2772409804165363311767578125">
        <ele>102.40000152587890625</ele>
        <time>2019-07-11T11:22:46.000Z</time>
      </trkpt>
      <trkpt lat="43.55964395217597484588623046875" lon="-6.27708256244659423828125">
        <ele>103.59999847412109375</ele>
        <time>2019-07-11T11:22:48.000Z</time>
      </trkpt>
      <trkpt lat="43.5598696768283843994140625" lon="-6.276930682361125946044921875">
        <ele>104</ele>
        <time>2019-07-11T11:22:50.000Z</time>
      </trkpt>
      <trkpt lat="43.56007360853254795074462890625" lon="-6.27668450586497783660888671875">
        <ele>104.1999969482421875</ele>
        <time>2019-07-11T11:22:52.000Z</time>
      </trkpt>
      <trkpt lat="43.56047962792217731475830078125" lon="-6.27616130746901035308837890625">
        <ele>104.8000030517578125</ele>
        <time>2019-07-11T11:22:56.000Z</time>
      </trkpt>
      <trkpt lat="43.56054215691983699798583984375" lon="-6.27604253590106964111328125">
        <ele>105.1999969482421875</ele>
        <time>2019-07-11T11:22:57.000Z</time>
      </trkpt>
      <trkpt lat="43.560605943202972412109375" lon="-6.2757339142262935638427734375">
        <ele>106.1999969482421875</ele>
        <time>2019-07-11T11:22:59.000Z</time>
      </trkpt>
      <trkpt lat="43.56065195985138416290283203125" lon="-6.27539075911045074462890625">
        <ele>107.40000152587890625</ele>
        <time>2019-07-11T11:23:01.000Z</time>
      </trkpt>
      <trkpt lat="43.56066855601966381072998046875" lon="-6.2752400524914264678955078125">
        <ele>108</ele>
        <time>2019-07-11T11:23:02.000Z</time>
      </trkpt>
      <trkpt lat="43.56069353409111499786376953125" lon="-6.2751136533915996551513671875">
        <ele>108.8000030517578125</ele>
        <time>2019-07-11T11:23:03.000Z</time>
      </trkpt>
      <trkpt lat="43.5606664605438709259033203125" lon="-6.274987757205963134765625">
        <ele>109.40000152587890625</ele>
        <time>2019-07-11T11:23:04.000Z</time>
      </trkpt>
      <trkpt lat="43.56059077195823192596435546875" lon="-6.27487602643668651580810546875">
        <ele>110.1999969482421875</ele>
        <time>2019-07-11T11:23:05.000Z</time>
      </trkpt>
      <trkpt lat="43.56049873866140842437744140625" lon="-6.27479505725204944610595703125">
        <ele>111.1999969482421875</ele>
        <time>2019-07-11T11:23:06.000Z</time>
      </trkpt>
      <trkpt lat="43.56041659601032733917236328125" lon="-6.27471811138093471527099609375">
        <ele>112.59999847412109375</ele>
        <time>2019-07-11T11:23:07.000Z</time>
      </trkpt>
      <trkpt lat="43.56036412529647350311279296875" lon="-6.2746323645114898681640625">
        <ele>113.8000030517578125</ele>
        <time>2019-07-11T11:23:08.000Z</time>
      </trkpt>
      <trkpt lat="43.560344092547893524169921875" lon="-6.2745182029902935028076171875">
        <ele>115</ele>
        <time>2019-07-11T11:23:09.000Z</time>
      </trkpt>
      <trkpt lat="43.5603523068130016326904296875" lon="-6.27438853494822978973388671875">
        <ele>116.1999969482421875</ele>
        <time>2019-07-11T11:23:10.000Z</time>
      </trkpt>
      <trkpt lat="43.56038457714021205902099609375" lon="-6.2742724455893039703369140625">
        <ele>117.40000152587890625</ele>
        <time>2019-07-11T11:23:11.000Z</time>
      </trkpt>
      <trkpt lat="43.56044526211917400360107421875" lon="-6.27420128323137760162353515625">
        <ele>118.1999969482421875</ele>
        <time>2019-07-11T11:23:12.000Z</time>
      </trkpt>
      <trkpt lat="43.56053427793085575103759765625" lon="-6.27418644726276397705078125">
        <ele>118.8000030517578125</ele>
        <time>2019-07-11T11:23:13.000Z</time>
      </trkpt>
      <trkpt lat="43.5606450028717517852783203125" lon="-6.2742291949689388275146484375">
        <ele>119.40000152587890625</ele>
        <time>2019-07-11T11:23:14.000Z</time>
      </trkpt>
      <trkpt lat="43.560759164392948150634765625" lon="-6.27428309060633182525634765625">
        <ele>119.59999847412109375</ele>
        <time>2019-07-11T11:23:15.000Z</time>
      </trkpt>
      <trkpt lat="43.56087542138993740081787109375" lon="-6.274361796677112579345703125">
        <ele>120</ele>
        <time>2019-07-11T11:23:16.000Z</time>
      </trkpt>
      <trkpt lat="43.56119845993816852569580078125" lon="-6.27460378222167491912841796875">
        <ele>121.40000152587890625</ele>
        <time>2019-07-11T11:23:19.000Z</time>
      </trkpt>
      <trkpt lat="43.5613906569778919219970703125" lon="-6.2746553309261798858642578125">
        <ele>123</ele>
        <time>2019-07-11T11:23:21.000Z</time>
      </trkpt>
      <trkpt lat="43.561587966978549957275390625" lon="-6.2745621241629123687744140625">
        <ele>124.59999847412109375</ele>
        <time>2019-07-11T11:23:23.000Z</time>
      </trkpt>
      <trkpt lat="43.5617866180837154388427734375" lon="-6.2743301130831241607666015625">
        <ele>126.1999969482421875</ele>
        <time>2019-07-11T11:23:25.000Z</time>
      </trkpt>
      <trkpt lat="43.5618679225444793701171875" lon="-6.274199523031711578369140625">
        <ele>127.40000152587890625</ele>
        <time>2019-07-11T11:23:26.000Z</time>
      </trkpt>
      <trkpt lat="43.56193841435015201568603515625" lon="-6.27404839731752872467041015625">
        <ele>128.399993896484375</ele>
        <time>2019-07-11T11:23:27.000Z</time>
      </trkpt>
      <trkpt lat="43.562054336071014404296875" lon="-6.273732818663120269775390625">
        <ele>130.1999969482421875</ele>
        <time>2019-07-11T11:23:29.000Z</time>
      </trkpt>
      <trkpt lat="43.56214477680623531341552734375" lon="-6.2734339199960231781005859375">
        <ele>132</ele>
        <time>2019-07-11T11:23:31.000Z</time>
      </trkpt>
      <trkpt lat="43.562145866453647613525390625" lon="-6.27314977347850799560546875">
        <ele>133.600006103515625</ele>
        <time>2019-07-11T11:23:33.000Z</time>
      </trkpt>
      <trkpt lat="43.5620394162833690643310546875" lon="-6.2728612683713436126708984375">
        <ele>135.399993896484375</ele>
        <time>2019-07-11T11:23:35.000Z</time>
      </trkpt>
      <trkpt lat="43.56186498887836933135986328125" lon="-6.272562034428119659423828125">
        <ele>137</ele>
        <time>2019-07-11T11:23:37.000Z</time>
      </trkpt>
      <trkpt lat="43.56168620288372039794921875" lon="-6.272261627018451690673828125">
        <ele>138.600006103515625</ele>
        <time>2019-07-11T11:23:39.000Z</time>
      </trkpt>
      <trkpt lat="43.56157983653247356414794921875" lon="-6.27213598228991031646728515625">
        <ele>139.399993896484375</ele>
        <time>2019-07-11T11:23:40.000Z</time>
      </trkpt>
      <trkpt lat="43.561464585363864898681640625" lon="-6.2720374949276447296142578125">
        <ele>140.399993896484375</ele>
        <time>2019-07-11T11:23:41.000Z</time>
      </trkpt>
      <trkpt lat="43.56134380213916301727294921875" lon="-6.27196365036070346832275390625">
        <ele>141.600006103515625</ele>
        <time>2019-07-11T11:23:42.000Z</time>
      </trkpt>
      <trkpt lat="43.56122695840895175933837890625" lon="-6.27190413884818553924560546875">
        <ele>142.8000030517578125</ele>
        <time>2019-07-11T11:23:43.000Z</time>
      </trkpt>
      <trkpt lat="43.560960330069065093994140625" lon="-6.27174538560211658477783203125">
        <ele>144.1999969482421875</ele>
        <time>2019-07-11T11:23:45.000Z</time>
      </trkpt>
      <trkpt lat="43.560599572956562042236328125" lon="-6.2714445590972900390625">
        <ele>145.1999969482421875</ele>
        <time>2019-07-11T11:23:48.000Z</time>
      </trkpt>
      <trkpt lat="43.56041483581066131591796875" lon="-6.27123760990798473358154296875">
        <ele>146.600006103515625</ele>
        <time>2019-07-11T11:23:50.000Z</time>
      </trkpt>
      <trkpt lat="43.56027578003704547882080078125" lon="-6.27102144062519073486328125">
        <ele>147.600006103515625</ele>
        <time>2019-07-11T11:23:52.000Z</time>
      </trkpt>
      <trkpt lat="43.56024795211851596832275390625" lon="-6.27069463022053241729736328125">
        <ele>148</ele>
        <time>2019-07-11T11:23:54.000Z</time>
      </trkpt>
      <trkpt lat="43.5603285022079944610595703125" lon="-6.270037405192852020263671875">
        <ele>148</ele>
        <time>2019-07-11T11:23:57.000Z</time>
      </trkpt>
      <trkpt lat="43.56040117330849170684814453125" lon="-6.26940901391208171844482421875">
        <ele>147.600006103515625</ele>
        <time>2019-07-11T11:24:00.000Z</time>
      </trkpt>
      <trkpt lat="43.56051810085773468017578125" lon="-6.2688225321471691131591796875">
        <ele>147.600006103515625</ele>
        <time>2019-07-11T11:24:04.000Z</time>
      </trkpt>
      <trkpt lat="43.5604267381131649017333984375" lon="-6.2686327658593654632568359375">
        <ele>148.1999969482421875</ele>
        <time>2019-07-11T11:24:06.000Z</time>
      </trkpt>
      <trkpt lat="43.56033177115023136138916015625" lon="-6.26857954077422618865966796875">
        <ele>148.600006103515625</ele>
        <time>2019-07-11T11:24:07.000Z</time>
      </trkpt>
      <trkpt lat="43.56021073646843433380126953125" lon="-6.2685625255107879638671875">
        <ele>148.8000030517578125</ele>
        <time>2019-07-11T11:24:08.000Z</time>
      </trkpt>
      <trkpt lat="43.55961528606712818145751953125" lon="-6.2685303390026092529296875">
        <ele>148.600006103515625</ele>
        <time>2019-07-11T11:24:12.000Z</time>
      </trkpt>
      <trkpt lat="43.559182696044445037841796875" lon="-6.26850728876888751983642578125">
        <ele>147.600006103515625</ele>
        <time>2019-07-11T11:24:15.000Z</time>
      </trkpt>
      <trkpt lat="43.55892512015998363494873046875" lon="-6.26848197542130947113037109375">
        <ele>147.600006103515625</ele>
        <time>2019-07-11T11:24:17.000Z</time>
      </trkpt>
      <trkpt lat="43.55881716124713420867919921875" lon="-6.26845766790211200714111328125">
        <ele>147.8000030517578125</ele>
        <time>2019-07-11T11:24:18.000Z</time>
      </trkpt>
      <trkpt lat="43.55864600278437137603759765625" lon="-6.26835004426538944244384765625">
        <ele>148</ele>
        <time>2019-07-11T11:24:20.000Z</time>
      </trkpt>
      <trkpt lat="43.55866947211325168609619140625" lon="-6.267969422042369842529296875">
        <ele>148.8000030517578125</ele>
        <time>2019-07-11T11:24:23.000Z</time>
      </trkpt>
      <trkpt lat="43.55882839299738407135009765625" lon="-6.26777169294655323028564453125">
        <ele>149.1999969482421875</ele>
        <time>2019-07-11T11:24:25.000Z</time>
      </trkpt>
      <trkpt lat="43.559409342706203460693359375" lon="-6.267638504505157470703125">
        <ele>149.1999969482421875</ele>
        <time>2019-07-11T11:24:29.000Z</time>
      </trkpt>
      <trkpt lat="43.5598383285105228424072265625" lon="-6.2674941681325435638427734375">
        <ele>149.1999969482421875</ele>
        <time>2019-07-11T11:24:32.000Z</time>
      </trkpt>
      <trkpt lat="43.5600869357585906982421875" lon="-6.26732728444039821624755859375">
        <ele>150</ele>
        <time>2019-07-11T11:24:34.000Z</time>
      </trkpt>
      <trkpt lat="43.56033395044505596160888671875" lon="-6.26709259115159511566162109375">
        <ele>151.1999969482421875</ele>
        <time>2019-07-11T11:24:36.000Z</time>
      </trkpt>
      <trkpt lat="43.56054550968110561370849609375" lon="-6.26687080599367618560791015625">
        <ele>152</ele>
        <time>2019-07-11T11:24:38.000Z</time>
      </trkpt>
      <trkpt lat="43.5606171749532222747802734375" lon="-6.26673585735261440277099609375">
        <ele>152.399993896484375</ele>
        <time>2019-07-11T11:24:39.000Z</time>
      </trkpt>
      <trkpt lat="43.56066294014453887939453125" lon="-6.266574002802371978759765625">
        <ele>153</ele>
        <time>2019-07-11T11:24:40.000Z</time>
      </trkpt>
      <trkpt lat="43.56068984605371952056884765625" lon="-6.2663917802274227142333984375">
        <ele>153.399993896484375</ele>
        <time>2019-07-11T11:24:41.000Z</time>
      </trkpt>
      <trkpt lat="43.56076427735388278961181640625" lon="-6.265873275697231292724609375">
        <ele>155</ele>
        <time>2019-07-11T11:24:44.000Z</time>
      </trkpt>
      <trkpt lat="43.56087173335254192352294921875" lon="-6.26566096208989620208740234375">
        <ele>156</ele>
        <time>2019-07-11T11:24:46.000Z</time>
      </trkpt>
      <trkpt lat="43.5610667802393436431884765625" lon="-6.26563749276101589202880859375">
        <ele>156.600006103515625</ele>
        <time>2019-07-11T11:24:48.000Z</time>
      </trkpt>
      <trkpt lat="43.561288230121135711669921875" lon="-6.265824995934963226318359375">
        <ele>156.8000030517578125</ele>
        <time>2019-07-11T11:24:50.000Z</time>
      </trkpt>
      <trkpt lat="43.5614882223308086395263671875" lon="-6.26614191569387912750244140625">
        <ele>157</ele>
        <time>2019-07-11T11:24:52.000Z</time>
      </trkpt>
      <trkpt lat="43.5617928206920623779296875" lon="-6.26680240966379642486572265625">
        <ele>156.600006103515625</ele>
        <time>2019-07-11T11:24:56.000Z</time>
      </trkpt>
      <trkpt lat="43.56192684732377529144287109375" lon="-6.26706275157630443572998046875">
        <ele>156.399993896484375</ele>
        <time>2019-07-11T11:24:58.000Z</time>
      </trkpt>
      <trkpt lat="43.5620249994099140167236328125" lon="-6.26718328334391117095947265625">
        <ele>156.399993896484375</ele>
        <time>2019-07-11T11:25:00.000Z</time>
      </trkpt>
      <trkpt lat="43.562204539775848388671875" lon="-6.267090998589992523193359375">
        <ele>156.399993896484375</ele>
        <time>2019-07-11T11:25:02.000Z</time>
      </trkpt>
      <trkpt lat="43.562452979385852813720703125" lon="-6.266716830432415008544921875">
        <ele>156</ele>
        <time>2019-07-11T11:25:05.000Z</time>
      </trkpt>
      <trkpt lat="43.56253956444561481475830078125" lon="-6.26642103306949138641357421875">
        <ele>155.399993896484375</ele>
        <time>2019-07-11T11:25:07.000Z</time>
      </trkpt>
      <trkpt lat="43.56254844926297664642333984375" lon="-6.2662504613399505615234375">
        <ele>155</ele>
        <time>2019-07-11T11:25:08.000Z</time>
      </trkpt>
      <trkpt lat="43.562541492283344268798828125" lon="-6.2656873650848865509033203125">
        <ele>153.8000030517578125</ele>
        <time>2019-07-11T11:25:11.000Z</time>
      </trkpt>
      <trkpt lat="43.562565632164478302001953125" lon="-6.2650764919817447662353515625">
        <ele>152.8000030517578125</ele>
        <time>2019-07-11T11:25:14.000Z</time>
      </trkpt>
      <trkpt lat="43.562645427882671356201171875" lon="-6.2644575722515583038330078125">
        <ele>152</ele>
        <time>2019-07-11T11:25:17.000Z</time>
      </trkpt>
      <trkpt lat="43.5627089627087116241455078125" lon="-6.2642594240605831146240234375">
        <ele>151.8000030517578125</ele>
        <time>2019-07-11T11:25:18.000Z</time>
      </trkpt>
      <trkpt lat="43.56293477118015289306640625" lon="-6.2636405043303966522216796875">
        <ele>151</ele>
        <time>2019-07-11T11:25:21.000Z</time>
      </trkpt>
      <trkpt lat="43.5630090348422527313232421875" lon="-6.26343489624559879302978515625">
        <ele>150.1999969482421875</ele>
        <time>2019-07-11T11:25:22.000Z</time>
      </trkpt>
      <trkpt lat="43.56315110810101032257080078125" lon="-6.2630396895110607147216796875">
        <ele>149.1999969482421875</ele>
        <time>2019-07-11T11:25:24.000Z</time>
      </trkpt>
      <trkpt lat="43.563289828598499298095703125" lon="-6.26267566345632076263427734375">
        <ele>148.1999969482421875</ele>
        <time>2019-07-11T11:25:26.000Z</time>
      </trkpt>
      <trkpt lat="43.563409186899662017822265625" lon="-6.2623560614883899688720703125">
        <ele>148.1999969482421875</ele>
        <time>2019-07-11T11:25:28.000Z</time>
      </trkpt>
      <trkpt lat="43.5634579695761203765869140625" lon="-6.2621911056339740753173828125">
        <ele>148</ele>
        <time>2019-07-11T11:25:29.000Z</time>
      </trkpt>
      <trkpt lat="43.563508428633213043212890625" lon="-6.2618082202970981597900390625">
        <ele>147.8000030517578125</ele>
        <time>2019-07-11T11:25:31.000Z</time>
      </trkpt>
      <trkpt lat="43.563476912677288055419921875" lon="-6.26136926002800464630126953125">
        <ele>147.600006103515625</ele>
        <time>2019-07-11T11:25:33.000Z</time>
      </trkpt>
      <trkpt lat="43.56340424157679080963134765625" lon="-6.2608753144741058349609375">
        <ele>146.8000030517578125</ele>
        <time>2019-07-11T11:25:35.000Z</time>
      </trkpt>
      <trkpt lat="43.5632873140275478363037109375" lon="-6.260075010359287261962890625">
        <ele>145.399993896484375</ele>
        <time>2019-07-11T11:25:38.000Z</time>
      </trkpt>
      <trkpt lat="43.56317591853439807891845703125" lon="-6.25931150279939174652099609375">
        <ele>145.1999969482421875</ele>
        <time>2019-07-11T11:25:41.000Z</time>
      </trkpt>
      <trkpt lat="43.56311305426061153411865234375" lon="-6.258862316608428955078125">
        <ele>146.600006103515625</ele>
        <time>2019-07-11T11:25:43.000Z</time>
      </trkpt>
      <trkpt lat="43.5630492679774761199951171875" lon="-6.258444897830486297607421875">
        <ele>148.1999969482421875</ele>
        <time>2019-07-11T11:25:45.000Z</time>
      </trkpt>
      <trkpt lat="43.56299470178782939910888671875" lon="-6.258052624762058258056640625">
        <ele>149.8000030517578125</ele>
        <time>2019-07-11T11:25:47.000Z</time>
      </trkpt>
      <trkpt lat="43.56293879449367523193359375" lon="-6.25765808857977390289306640625">
        <ele>151.399993896484375</ele>
        <time>2019-07-11T11:25:49.000Z</time>
      </trkpt>
      <trkpt lat="43.56282806955277919769287109375" lon="-6.25703916884958744049072265625">
        <ele>152</ele>
        <time>2019-07-11T11:25:52.000Z</time>
      </trkpt>
      <trkpt lat="43.56272019445896148681640625" lon="-6.2563827820122241973876953125">
        <ele>150.8000030517578125</ele>
        <time>2019-07-11T11:25:55.000Z</time>
      </trkpt>
      <trkpt lat="43.56268675066530704498291015625" lon="-6.25616091303527355194091796875">
        <ele>150.399993896484375</ele>
        <time>2019-07-11T11:25:56.000Z</time>
      </trkpt>
      <trkpt lat="43.56262153945863246917724609375" lon="-6.25569420866668224334716796875">
        <ele>148.8000030517578125</ele>
        <time>2019-07-11T11:25:58.000Z</time>
      </trkpt>
      <trkpt lat="43.56258918531239032745361328125" lon="-6.25545951537787914276123046875">
        <ele>147.600006103515625</ele>
        <time>2019-07-11T11:25:59.000Z</time>
      </trkpt>
      <trkpt lat="43.56256068684160709381103515625" lon="-6.25522783957421779632568359375">
        <ele>146.600006103515625</ele>
        <time>2019-07-11T11:26:00.000Z</time>
      </trkpt>
      <trkpt lat="43.5624957270920276641845703125" lon="-6.2547610513865947723388671875">
        <ele>145.1999969482421875</ele>
        <time>2019-07-11T11:26:02.000Z</time>
      </trkpt>
      <trkpt lat="43.56244367547333240509033203125" lon="-6.25432577915489673614501953125">
        <ele>143.399993896484375</ele>
        <time>2019-07-11T11:26:04.000Z</time>
      </trkpt>
      <trkpt lat="43.5624383948743343353271484375" lon="-6.2541277147829532623291015625">
        <ele>142.1999969482421875</ele>
        <time>2019-07-11T11:26:05.000Z</time>
      </trkpt>
      <trkpt lat="43.56245121918618679046630859375" lon="-6.25374860130250453948974609375">
        <ele>140.399993896484375</ele>
        <time>2019-07-11T11:26:07.000Z</time>
      </trkpt>
      <trkpt lat="43.56243294663727283477783203125" lon="-6.25356369651854038238525390625">
        <ele>139.399993896484375</ele>
        <time>2019-07-11T11:26:08.000Z</time>
      </trkpt>
      <trkpt lat="43.562385253608226776123046875" lon="-6.2533961422741413116455078125">
        <ele>138.1999969482421875</ele>
        <time>2019-07-11T11:26:09.000Z</time>
      </trkpt>
      <trkpt lat="43.5623113252222537994384765625" lon="-6.25326379202306270599365234375">
        <ele>136.600006103515625</ele>
        <time>2019-07-11T11:26:10.000Z</time>
      </trkpt>
      <trkpt lat="43.56221996247768402099609375" lon="-6.25315667130053043365478515625">
        <ele>135.399993896484375</ele>
        <time>2019-07-11T11:26:11.000Z</time>
      </trkpt>
      <trkpt lat="43.562097586691379547119140625" lon="-6.2530561722815036773681640625">
        <ele>134.1999969482421875</ele>
        <time>2019-07-11T11:26:12.000Z</time>
      </trkpt>
      <trkpt lat="43.5619384981691837310791015625" lon="-6.252963133156299591064453125">
        <ele>133.1999969482421875</ele>
        <time>2019-07-11T11:26:13.000Z</time>
      </trkpt>
      <trkpt lat="43.56178804300725460052490234375" lon="-6.25284813344478607177734375">
        <ele>132</ele>
        <time>2019-07-11T11:26:14.000Z</time>
      </trkpt>
      <trkpt lat="43.5616380907595157623291015625" lon="-6.252736151218414306640625">
        <ele>130.600006103515625</ele>
        <time>2019-07-11T11:26:15.000Z</time>
      </trkpt>
      <trkpt lat="43.56151680462062358856201171875" lon="-6.25260195694863796234130859375">
        <ele>129.399993896484375</ele>
        <time>2019-07-11T11:26:16.000Z</time>
      </trkpt>
      <trkpt lat="43.56132402084767818450927734375" lon="-6.25225938856601715087890625">
        <ele>128.600006103515625</ele>
        <time>2019-07-11T11:26:18.000Z</time>
      </trkpt>
      <trkpt lat="43.561229892075061798095703125" lon="-6.2518280558288097381591796875">
        <ele>129.600006103515625</ele>
        <time>2019-07-11T11:26:20.000Z</time>
      </trkpt>
      <trkpt lat="43.5612263716757297515869140625" lon="-6.2513828091323375701904296875">
        <ele>131.1999969482421875</ele>
        <time>2019-07-11T11:26:22.000Z</time>
      </trkpt>
      <trkpt lat="43.5612505115568637847900390625" lon="-6.25115373171865940093994140625">
        <ele>131.600006103515625</ele>
        <time>2019-07-11T11:26:23.000Z</time>
      </trkpt>
      <trkpt lat="43.56134765781462192535400390625" lon="-6.2506773881614208221435546875">
        <ele>132.399993896484375</ele>
        <time>2019-07-11T11:26:25.000Z</time>
      </trkpt>
      <trkpt lat="43.56158654205501079559326171875" lon="-6.2499562092125415802001953125">
        <ele>133.1999969482421875</ele>
        <time>2019-07-11T11:26:28.000Z</time>
      </trkpt>
      <trkpt lat="43.5616615600883960723876953125" lon="-6.24974540434777736663818359375">
        <ele>133.600006103515625</ele>
        <time>2019-07-11T11:26:29.000Z</time>
      </trkpt>
      <trkpt lat="43.561837412416934967041015625" lon="-6.24936268664896488189697265625">
        <ele>134.399993896484375</ele>
        <time>2019-07-11T11:26:31.000Z</time>
      </trkpt>
      <trkpt lat="43.561960794031620025634765625" lon="-6.24917929060757160186767578125">
        <ele>134.8000030517578125</ele>
        <time>2019-07-11T11:26:32.000Z</time>
      </trkpt>
      <trkpt lat="43.56236438266932964324951171875" lon="-6.24855928122997283935546875">
        <ele>134.1999969482421875</ele>
        <time>2019-07-11T11:26:35.000Z</time>
      </trkpt>
      <trkpt lat="43.56260561384260654449462890625" lon="-6.2481158785521984100341796875">
        <ele>133.600006103515625</ele>
        <time>2019-07-11T11:26:37.000Z</time>
      </trkpt>
      <trkpt lat="43.56291742064058780670166015625" lon="-6.24742780812084674835205078125">
        <ele>133.600006103515625</ele>
        <time>2019-07-11T11:26:40.000Z</time>
      </trkpt>
      <trkpt lat="43.56321380473673343658447265625" lon="-6.24678223393857479095458984375">
        <ele>133.399993896484375</ele>
        <time>2019-07-11T11:26:43.000Z</time>
      </trkpt>
      <trkpt lat="43.5634764097630977630615234375" lon="-6.24614437110722064971923828125">
        <ele>133.1999969482421875</ele>
        <time>2019-07-11T11:26:46.000Z</time>
      </trkpt>
      <trkpt lat="43.5636779107153415679931640625" lon="-6.245434172451496124267578125">
        <ele>133</ele>
        <time>2019-07-11T11:26:49.000Z</time>
      </trkpt>
      <trkpt lat="43.56378712691366672515869140625" lon="-6.24496646225452423095703125">
        <ele>132</ele>
        <time>2019-07-11T11:26:51.000Z</time>
      </trkpt>
      <trkpt lat="43.56388217769563198089599609375" lon="-6.24453705735504627227783203125">
        <ele>130.1999969482421875</ele>
        <time>2019-07-11T11:26:53.000Z</time>
      </trkpt>
      <trkpt lat="43.5640061460435390472412109375" lon="-6.2439551018178462982177734375">
        <ele>128.8000030517578125</ele>
        <time>2019-07-11T11:26:56.000Z</time>
      </trkpt>
      <trkpt lat="43.5641664080321788787841796875" lon="-6.24331514351069927215576171875">
        <ele>128.399993896484375</ele>
        <time>2019-07-11T11:27:00.000Z</time>
      </trkpt>
      <trkpt lat="43.564189039170742034912109375" lon="-6.2430853955447673797607421875">
        <ele>128.399993896484375</ele>
        <time>2019-07-11T11:27:02.000Z</time>
      </trkpt>
      <trkpt lat="43.56418660841882228851318359375" lon="-6.24297534115612506866455078125">
        <ele>128.399993896484375</ele>
        <time>2019-07-11T11:27:03.000Z</time>
      </trkpt>
      <trkpt lat="43.56413371860980987548828125" lon="-6.2427517957985401153564453125">
        <ele>128.1999969482421875</ele>
        <time>2019-07-11T11:27:05.000Z</time>
      </trkpt>
      <trkpt lat="43.56407965533435344696044921875" lon="-6.24264727346599102020263671875">
        <ele>127.8000030517578125</ele>
        <time>2019-07-11T11:27:06.000Z</time>
      </trkpt>
      <trkpt lat="43.56401897035539150238037109375" lon="-6.24255247414112091064453125">
        <ele>127.1999969482421875</ele>
        <time>2019-07-11T11:27:07.000Z</time>
      </trkpt>
      <trkpt lat="43.5639541782438755035400390625" lon="-6.242459602653980255126953125">
        <ele>126.40000152587890625</ele>
        <time>2019-07-11T11:27:08.000Z</time>
      </trkpt>
      <trkpt lat="43.56381428427994251251220703125" lon="-6.2422871030867099761962890625">
        <ele>126</ele>
        <time>2019-07-11T11:27:10.000Z</time>
      </trkpt>
      <trkpt lat="43.563626110553741455078125" lon="-6.24219615943729877471923828125">
        <ele>125.40000152587890625</ele>
        <time>2019-07-11T11:27:12.000Z</time>
      </trkpt>
      <trkpt lat="43.56338278390467166900634765625" lon="-6.242202781140804290771484375">
        <ele>124.8000030517578125</ele>
        <time>2019-07-11T11:27:14.000Z</time>
      </trkpt>
      <trkpt lat="43.5632479190826416015625" lon="-6.2422378174960613250732421875">
        <ele>124.1999969482421875</ele>
        <time>2019-07-11T11:27:15.000Z</time>
      </trkpt>
      <trkpt lat="43.56295664794743061065673828125" lon="-6.2423370592296123504638671875">
        <ele>123</ele>
        <time>2019-07-11T11:27:17.000Z</time>
      </trkpt>
      <trkpt lat="43.56264886446297168731689453125" lon="-6.2423953972756862640380859375">
        <ele>121.1999969482421875</ele>
        <time>2019-07-11T11:27:19.000Z</time>
      </trkpt>
      <trkpt lat="43.56249145232141017913818359375" lon="-6.2424322776496410369873046875">
        <ele>119.8000030517578125</ele>
        <time>2019-07-11T11:27:20.000Z</time>
      </trkpt>
      <trkpt lat="43.56233085505664348602294921875" lon="-6.24248935841023921966552734375">
        <ele>118.59999847412109375</ele>
        <time>2019-07-11T11:27:21.000Z</time>
      </trkpt>
      <trkpt lat="43.562169335782527923583984375" lon="-6.24255674891173839569091796875">
        <ele>117.59999847412109375</ele>
        <time>2019-07-11T11:27:22.000Z</time>
      </trkpt>
      <trkpt lat="43.5617088340222835540771484375" lon="-6.24278104864060878753662109375">
        <ele>116.59999847412109375</ele>
        <time>2019-07-11T11:27:25.000Z</time>
      </trkpt>
      <trkpt lat="43.56144052930176258087158203125" lon="-6.24294918961822986602783203125">
        <ele>115.1999969482421875</ele>
        <time>2019-07-11T11:27:27.000Z</time>
      </trkpt>
      <trkpt lat="43.5612189956009387969970703125" lon="-6.24310006387531757354736328125">
        <ele>113.40000152587890625</ele>
        <time>2019-07-11T11:27:29.000Z</time>
      </trkpt>
      <trkpt lat="43.56112687848508358001708984375" lon="-6.24316133558750152587890625">
        <ele>111.8000030517578125</ele>
        <time>2019-07-11T11:27:30.000Z</time>
      </trkpt>
      <trkpt lat="43.56104289181530475616455078125" lon="-6.2432010658085346221923828125">
        <ele>109.8000030517578125</ele>
        <time>2019-07-11T11:27:31.000Z</time>
      </trkpt>
      <trkpt lat="43.56096468865871429443359375" lon="-6.24319980852305889129638671875">
        <ele>108.59999847412109375</ele>
        <time>2019-07-11T11:27:32.000Z</time>
      </trkpt>
      <trkpt lat="43.56089520268142223358154296875" lon="-6.2431521154940128326416015625">
        <ele>107.40000152587890625</ele>
        <time>2019-07-11T11:27:33.000Z</time>
      </trkpt>
      <trkpt lat="43.5608109645545482635498046875" lon="-6.24292798340320587158203125">
        <ele>105.8000030517578125</ele>
        <time>2019-07-11T11:27:35.000Z</time>
      </trkpt>
      <trkpt lat="43.56086142361164093017578125" lon="-6.242623887956142425537109375">
        <ele>104.59999847412109375</ele>
        <time>2019-07-11T11:27:37.000Z</time>
      </trkpt>
      <trkpt lat="43.56103844940662384033203125" lon="-6.242318451404571533203125">
        <ele>102.59999847412109375</ele>
        <time>2019-07-11T11:27:39.000Z</time>
      </trkpt>
      <trkpt lat="43.56130742467939853668212890625" lon="-6.24207830987870693206787109375">
        <ele>101</ele>
        <time>2019-07-11T11:27:41.000Z</time>
      </trkpt>
      <trkpt lat="43.5615904815495014190673828125" lon="-6.2419072352349758148193359375">
        <ele>99.8000030517578125</ele>
        <time>2019-07-11T11:27:43.000Z</time>
      </trkpt>
      <trkpt lat="43.56186046265065670013427734375" lon="-6.2418016232550144195556640625">
        <ele>98.59999847412109375</ele>
        <time>2019-07-11T11:27:45.000Z</time>
      </trkpt>
      <trkpt lat="43.56214008294045925140380859375" lon="-6.2417511641979217529296875">
        <ele>96.8000030517578125</ele>
        <time>2019-07-11T11:27:47.000Z</time>
      </trkpt>
      <trkpt lat="43.56228240765631198883056640625" lon="-6.241708584129810333251953125">
        <ele>95.40000152587890625</ele>
        <time>2019-07-11T11:27:48.000Z</time>
      </trkpt>
      <trkpt lat="43.56241920031607151031494140625" lon="-6.2416168861091136932373046875">
        <ele>94.40000152587890625</ele>
        <time>2019-07-11T11:27:49.000Z</time>
      </trkpt>
      <trkpt lat="43.56255783699452877044677734375" lon="-6.24149593524634838104248046875">
        <ele>93</ele>
        <time>2019-07-11T11:27:50.000Z</time>
      </trkpt>
      <trkpt lat="43.5626948811113834381103515625" lon="-6.24134656973183155059814453125">
        <ele>91.59999847412109375</ele>
        <time>2019-07-11T11:27:51.000Z</time>
      </trkpt>
      <trkpt lat="43.5628323443233966827392578125" lon="-6.2412013113498687744140625">
        <ele>90.1999969482421875</ele>
        <time>2019-07-11T11:27:52.000Z</time>
      </trkpt>
      <trkpt lat="43.56296368874609470367431640625" lon="-6.24104700051248073577880859375">
        <ele>89.1999969482421875</ele>
        <time>2019-07-11T11:27:53.000Z</time>
      </trkpt>
      <trkpt lat="43.56309277005493640899658203125" lon="-6.240885145962238311767578125">
        <ele>88.1999969482421875</ele>
        <time>2019-07-11T11:27:54.000Z</time>
      </trkpt>
      <trkpt lat="43.56322084553539752960205078125" lon="-6.24072748236358165740966796875">
        <ele>87</ele>
        <time>2019-07-11T11:27:55.000Z</time>
      </trkpt>
      <trkpt lat="43.56334741227328777313232421875" lon="-6.2405812181532382965087890625">
        <ele>85.8000030517578125</ele>
        <time>2019-07-11T11:27:56.000Z</time>
      </trkpt>
      <trkpt lat="43.563475906848907470703125" lon="-6.24045590870082378387451171875">
        <ele>84.59999847412109375</ele>
        <time>2019-07-11T11:27:57.000Z</time>
      </trkpt>
      <trkpt lat="43.56359987519681453704833984375" lon="-6.24033889733254909515380859375">
        <ele>83.40000152587890625</ele>
        <time>2019-07-11T11:27:58.000Z</time>
      </trkpt>
      <trkpt lat="43.56371118687093257904052734375" lon="-6.24020545743405818939208984375">
        <ele>82.1999969482421875</ele>
        <time>2019-07-11T11:27:59.000Z</time>
      </trkpt>
      <trkpt lat="43.56389726512134075164794921875" lon="-6.23984687961637973785400390625">
        <ele>81.1999969482421875</ele>
        <time>2019-07-11T11:28:01.000Z</time>
      </trkpt>
      <trkpt lat="43.56407932005822658538818359375" lon="-6.2394095957279205322265625">
        <ele>79.8000030517578125</ele>
        <time>2019-07-11T11:28:03.000Z</time>
      </trkpt>
      <trkpt lat="43.56416917406022548675537109375" lon="-6.2391904927790164947509765625">
        <ele>78.1999969482421875</ele>
        <time>2019-07-11T11:28:04.000Z</time>
      </trkpt>
      <trkpt lat="43.56426070444285869598388671875" lon="-6.23898220248520374298095703125">
        <ele>76</ele>
        <time>2019-07-11T11:28:05.000Z</time>
      </trkpt>
      <trkpt lat="43.564357347786426544189453125" lon="-6.23879461549222469329833984375">
        <ele>73.8000030517578125</ele>
        <time>2019-07-11T11:28:06.000Z</time>
      </trkpt>
      <trkpt lat="43.56445734389126300811767578125" lon="-6.2386201880872249603271484375">
        <ele>72.1999969482421875</ele>
        <time>2019-07-11T11:28:07.000Z</time>
      </trkpt>
      <trkpt lat="43.56456018984317779541015625" lon="-6.23845833353698253631591796875">
        <ele>70.8000030517578125</ele>
        <time>2019-07-11T11:28:08.000Z</time>
      </trkpt>
      <trkpt lat="43.5647561587393283843994140625" lon="-6.23816396109759807586669921875">
        <ele>69.1999969482421875</ele>
        <time>2019-07-11T11:28:10.000Z</time>
      </trkpt>
      <trkpt lat="43.56490552425384521484375" lon="-6.23790026642382144927978515625">
        <ele>68</ele>
        <time>2019-07-11T11:28:12.000Z</time>
      </trkpt>
      <trkpt lat="43.5649667121469974517822265625" lon="-6.23776246793568134307861328125">
        <ele>67.1999969482421875</ele>
        <time>2019-07-11T11:28:13.000Z</time>
      </trkpt>
      <trkpt lat="43.5650034248828887939453125" lon="-6.23760220594704151153564453125">
        <ele>66.59999847412109375</ele>
        <time>2019-07-11T11:28:14.000Z</time>
      </trkpt>
      <trkpt lat="43.565006442368030548095703125" lon="-6.23742300085723400115966796875">
        <ele>65.8000030517578125</ele>
        <time>2019-07-11T11:28:15.000Z</time>
      </trkpt>
      <trkpt lat="43.56498540379106998443603515625" lon="-6.23722703196108341217041015625">
        <ele>65</ele>
        <time>2019-07-11T11:28:16.000Z</time>
      </trkpt>
      <trkpt lat="43.56489705853164196014404296875" lon="-6.23660945333540439605712890625">
        <ele>63.799999237060546875</ele>
        <time>2019-07-11T11:28:19.000Z</time>
      </trkpt>
      <trkpt lat="43.5648453421890735626220703125" lon="-6.236202679574489593505859375">
        <ele>62</ele>
        <time>2019-07-11T11:28:21.000Z</time>
      </trkpt>
      <trkpt lat="43.56482178904116153717041015625" lon="-6.2360117398202419281005859375">
        <ele>60.40000152587890625</ele>
        <time>2019-07-11T11:28:22.000Z</time>
      </trkpt>
      <trkpt lat="43.5648010857403278350830078125" lon="-6.2358303554356098175048828125">
        <ele>59.200000762939453125</ele>
        <time>2019-07-11T11:28:23.000Z</time>
      </trkpt>
      <trkpt lat="43.56476001441478729248046875" lon="-6.23550656251609325408935546875">
        <ele>57.200000762939453125</ele>
        <time>2019-07-11T11:28:25.000Z</time>
      </trkpt>
      <trkpt lat="43.5646850802004337310791015625" lon="-6.23521386645734310150146484375">
        <ele>55.799999237060546875</ele>
        <time>2019-07-11T11:28:27.000Z</time>
      </trkpt>
      <trkpt lat="43.5645526461303234100341796875" lon="-6.2349526025354862213134765625">
        <ele>54</ele>
        <time>2019-07-11T11:28:29.000Z</time>
      </trkpt>
      <trkpt lat="43.56447276659309864044189453125" lon="-6.234830729663372039794921875">
        <ele>52.799999237060546875</ele>
        <time>2019-07-11T11:28:30.000Z</time>
      </trkpt>
      <trkpt lat="43.5643099062144756317138671875" lon="-6.23458371497690677642822265625">
        <ele>51</ele>
        <time>2019-07-11T11:28:32.000Z</time>
      </trkpt>
      <trkpt lat="43.56422784738242626190185546875" lon="-6.23445664532482624053955078125">
        <ele>50</ele>
        <time>2019-07-11T11:28:33.000Z</time>
      </trkpt>
      <trkpt lat="43.56414335779845714569091796875" lon="-6.2343294918537139892578125">
        <ele>48.799999237060546875</ele>
        <time>2019-07-11T11:28:34.000Z</time>
      </trkpt>
      <trkpt lat="43.5640554316341876983642578125" lon="-6.23420267365872859954833984375">
        <ele>47.799999237060546875</ele>
        <time>2019-07-11T11:28:35.000Z</time>
      </trkpt>
      <trkpt lat="43.5638887993991374969482421875" lon="-6.23394124209880828857421875">
        <ele>46</ele>
        <time>2019-07-11T11:28:37.000Z</time>
      </trkpt>
      <trkpt lat="43.56381897814571857452392578125" lon="-6.23379564844071865081787109375">
        <ele>45.200000762939453125</ele>
        <time>2019-07-11T11:28:38.000Z</time>
      </trkpt>
      <trkpt lat="43.56376332230865955352783203125" lon="-6.23364091850817203521728515625">
        <ele>44</ele>
        <time>2019-07-11T11:28:39.000Z</time>
      </trkpt>
      <trkpt lat="43.56372141279280185699462890625" lon="-6.2334837578237056732177734375">
        <ele>43</ele>
        <time>2019-07-11T11:28:40.000Z</time>
      </trkpt>
      <trkpt lat="43.56368721462786197662353515625" lon="-6.23333397321403026580810546875">
        <ele>41.799999237060546875</ele>
        <time>2019-07-11T11:28:41.000Z</time>
      </trkpt>
      <trkpt lat="43.563614375889301300048828125" lon="-6.23305133543908596038818359375">
        <ele>40.200000762939453125</ele>
        <time>2019-07-11T11:28:43.000Z</time>
      </trkpt>
      <trkpt lat="43.56356634758412837982177734375" lon="-6.232921667397022247314453125">
        <ele>39.59999847412109375</ele>
        <time>2019-07-11T11:28:44.000Z</time>
      </trkpt>
      <trkpt lat="43.5635069198906421661376953125" lon="-6.2328004650771617889404296875">
        <ele>38.799999237060546875</ele>
        <time>2019-07-11T11:28:45.000Z</time>
      </trkpt>
      <trkpt lat="43.56343575753271579742431640625" lon="-6.2326888181269168853759765625">
        <ele>37.799999237060546875</ele>
        <time>2019-07-11T11:28:46.000Z</time>
      </trkpt>
      <trkpt lat="43.56335763819515705108642578125" lon="-6.23258664272725582122802734375">
        <ele>36.799999237060546875</ele>
        <time>2019-07-11T11:28:47.000Z</time>
      </trkpt>
      <trkpt lat="43.563203327357769012451171875" lon="-6.2323941104114055633544921875">
        <ele>35.40000152587890625</ele>
        <time>2019-07-11T11:28:49.000Z</time>
      </trkpt>
      <trkpt lat="43.563056476414203643798828125" lon="-6.23221431858837604522705078125">
        <ele>34</ele>
        <time>2019-07-11T11:28:51.000Z</time>
      </trkpt>
      <trkpt lat="43.5629113018512725830078125" lon="-6.23203611932694911956787109375">
        <ele>32.40000152587890625</ele>
        <time>2019-07-11T11:28:53.000Z</time>
      </trkpt>
      <trkpt lat="43.5627679713070392608642578125" lon="-6.23185741715133190155029296875">
        <ele>31.200000762939453125</ele>
        <time>2019-07-11T11:28:55.000Z</time>
      </trkpt>
      <trkpt lat="43.56269580312073230743408203125" lon="-6.231766976416110992431640625">
        <ele>30.799999237060546875</ele>
        <time>2019-07-11T11:28:56.000Z</time>
      </trkpt>
      <trkpt lat="43.56254626996815204620361328125" lon="-6.231579221785068511962890625">
        <ele>29.6000003814697265625</ele>
        <time>2019-07-11T11:28:58.000Z</time>
      </trkpt>
      <trkpt lat="43.56239271350204944610595703125" lon="-6.23138434253633022308349609375">
        <ele>28.200000762939453125</ele>
        <time>2019-07-11T11:29:00.000Z</time>
      </trkpt>
      <trkpt lat="43.5622429288923740386962890625" lon="-6.23119021765887737274169921875">
        <ele>26.6000003814697265625</ele>
        <time>2019-07-11T11:29:02.000Z</time>
      </trkpt>
      <trkpt lat="43.56210596859455108642578125" lon="-6.23101252131164073944091796875">
        <ele>25.200000762939453125</ele>
        <time>2019-07-11T11:29:04.000Z</time>
      </trkpt>
      <trkpt lat="43.561976216733455657958984375" lon="-6.23085192404687404632568359375">
        <ele>24</ele>
        <time>2019-07-11T11:29:06.000Z</time>
      </trkpt>
      <trkpt lat="43.5619096644222736358642578125" lon="-6.23078369535505771636962890625">
        <ele>23.3999996185302734375</ele>
        <time>2019-07-11T11:29:07.000Z</time>
      </trkpt>
      <trkpt lat="43.5617631487548351287841796875" lon="-6.230688393115997314453125">
        <ele>22.799999237060546875</ele>
        <time>2019-07-11T11:29:09.000Z</time>
      </trkpt>
      <trkpt lat="43.561305999755859375" lon="-6.23057548888027667999267578125">
        <ele>22.3999996185302734375</ele>
        <time>2019-07-11T11:29:14.000Z</time>
      </trkpt>
      <trkpt lat="43.5607878305017948150634765625" lon="-6.23046887107193470001220703125">
        <ele>23.3999996185302734375</ele>
        <time>2019-07-11T11:29:19.000Z</time>
      </trkpt>
      <trkpt lat="43.5602849163115024566650390625" lon="-6.23038354329764842987060546875">
        <ele>23.3999996185302734375</ele>
        <time>2019-07-11T11:29:25.000Z</time>
      </trkpt>
      <trkpt lat="43.560215346515178680419921875" lon="-6.2303603254258632659912109375">
        <ele>23.200000762939453125</ele>
        <time>2019-07-11T11:29:26.000Z</time>
      </trkpt>
      <trkpt lat="43.55996430851519107818603515625" lon="-6.230213642120361328125">
        <ele>22.6000003814697265625</ele>
        <time>2019-07-11T11:29:29.000Z</time>
      </trkpt>
      <trkpt lat="43.5597880370914936065673828125" lon="-6.230004094541072845458984375">
        <ele>21.6000003814697265625</ele>
        <time>2019-07-11T11:29:31.000Z</time>
      </trkpt>
      <trkpt lat="43.55950514785945415496826171875" lon="-6.229625232517719268798828125">
        <ele>20</ele>
        <time>2019-07-11T11:29:34.000Z</time>
      </trkpt>
      <trkpt lat="43.55939987115561962127685546875" lon="-6.229495145380496978759765625">
        <ele>19.200000762939453125</ele>
        <time>2019-07-11T11:29:35.000Z</time>
      </trkpt>
      <trkpt lat="43.5592924989759922027587890625" lon="-6.2293660640716552734375">
        <ele>18.3999996185302734375</ele>
        <time>2019-07-11T11:29:36.000Z</time>
      </trkpt>
      <trkpt lat="43.558951355516910552978515625" lon="-6.2289498187601566314697265625">
        <ele>17.200000762939453125</ele>
        <time>2019-07-11T11:29:39.000Z</time>
      </trkpt>
      <trkpt lat="43.558626808226108551025390625" lon="-6.2285394407808780670166015625">
        <ele>16</ele>
        <time>2019-07-11T11:29:42.000Z</time>
      </trkpt>
      <trkpt lat="43.5583362914621829986572265625" lon="-6.228197626769542694091796875">
        <ele>15.80000019073486328125</ele>
        <time>2019-07-11T11:29:45.000Z</time>
      </trkpt>
      <trkpt lat="43.5581213794648647308349609375" lon="-6.2280633486807346343994140625">
        <ele>16.200000762939453125</ele>
        <time>2019-07-11T11:29:47.000Z</time>
      </trkpt>
      <trkpt lat="43.5578766278922557830810546875" lon="-6.22805186547338962554931640625">
        <ele>16.799999237060546875</ele>
        <time>2019-07-11T11:29:49.000Z</time>
      </trkpt>
      <trkpt lat="43.55758837424218654632568359375" lon="-6.2281240336596965789794921875">
        <ele>17.3999996185302734375</ele>
        <time>2019-07-11T11:29:51.000Z</time>
      </trkpt>
      <trkpt lat="43.557039611041545867919921875" lon="-6.228280104696750640869140625">
        <ele>18</ele>
        <time>2019-07-11T11:29:54.000Z</time>
      </trkpt>
      <trkpt lat="43.5568342544138431549072265625" lon="-6.22833819128572940826416015625">
        <ele>18.3999996185302734375</ele>
        <time>2019-07-11T11:29:55.000Z</time>
      </trkpt>
      <trkpt lat="43.55640836991369724273681640625" lon="-6.228461153805255889892578125">
        <ele>19.799999237060546875</ele>
        <time>2019-07-11T11:29:57.000Z</time>
      </trkpt>
      <trkpt lat="43.556193374097347259521484375" lon="-6.22852577827870845794677734375">
        <ele>21.200000762939453125</ele>
        <time>2019-07-11T11:29:58.000Z</time>
      </trkpt>
      <trkpt lat="43.55598122812807559967041015625" lon="-6.22859383933246135711669921875">
        <ele>22.799999237060546875</ele>
        <time>2019-07-11T11:29:59.000Z</time>
      </trkpt>
      <trkpt lat="43.55577620677649974822998046875" lon="-6.22866307385265827178955078125">
        <ele>24</ele>
        <time>2019-07-11T11:30:00.000Z</time>
      </trkpt>
      <trkpt lat="43.5553865320980548858642578125" lon="-6.22878729365766048431396484375">
        <ele>25.6000003814697265625</ele>
        <time>2019-07-11T11:30:02.000Z</time>
      </trkpt>
      <trkpt lat="43.5551994480192661285400390625" lon="-6.228843033313751220703125">
        <ele>26.799999237060546875</ele>
        <time>2019-07-11T11:30:03.000Z</time>
      </trkpt>
      <trkpt lat="43.55502367950975894927978515625" lon="-6.2288939952850341796875">
        <ele>28</ele>
        <time>2019-07-11T11:30:04.000Z</time>
      </trkpt>
      <trkpt lat="43.55470064096152782440185546875" lon="-6.2289897166192531585693359375">
        <ele>29.6000003814697265625</ele>
        <time>2019-07-11T11:30:06.000Z</time>
      </trkpt>
      <trkpt lat="43.55440526269376277923583984375" lon="-6.22907596640288829803466796875">
        <ele>30.799999237060546875</ele>
        <time>2019-07-11T11:30:08.000Z</time>
      </trkpt>
      <trkpt lat="43.55427819304168224334716796875" lon="-6.2291013635694980621337890625">
        <ele>31.799999237060546875</ele>
        <time>2019-07-11T11:30:09.000Z</time>
      </trkpt>
      <trkpt lat="43.5541597567498683929443359375" lon="-6.22910027392208576202392578125">
        <ele>33</ele>
        <time>2019-07-11T11:30:10.000Z</time>
      </trkpt>
      <trkpt lat="43.5540437512099742889404296875" lon="-6.229062974452972412109375">
        <ele>34.59999847412109375</ele>
        <time>2019-07-11T11:30:11.000Z</time>
      </trkpt>
      <trkpt lat="43.55392749421298503875732421875" lon="-6.228979490697383880615234375">
        <ele>35.59999847412109375</ele>
        <time>2019-07-11T11:30:12.000Z</time>
      </trkpt>
      <trkpt lat="43.55382355861365795135498046875" lon="-6.2288666702806949615478515625">
        <ele>36.59999847412109375</ele>
        <time>2019-07-11T11:30:13.000Z</time>
      </trkpt>
      <trkpt lat="43.55374191887676715850830078125" lon="-6.2287077493965625762939453125">
        <ele>37.200000762939453125</ele>
        <time>2019-07-11T11:30:14.000Z</time>
      </trkpt>
      <trkpt lat="43.55369866825640201568603515625" lon="-6.2284941785037517547607421875">
        <ele>37.799999237060546875</ele>
        <time>2019-07-11T11:30:15.000Z</time>
      </trkpt>
      <trkpt lat="43.5536930523812770843505859375" lon="-6.2282631732523441314697265625">
        <ele>38.40000152587890625</ele>
        <time>2019-07-11T11:30:16.000Z</time>
      </trkpt>
      <trkpt lat="43.5536400787532329559326171875" lon="-6.22786528430879116058349609375">
        <ele>40.200000762939453125</ele>
        <time>2019-07-11T11:30:18.000Z</time>
      </trkpt>
      <trkpt lat="43.5535584390163421630859375" lon="-6.2277039326727390289306640625">
        <ele>41.200000762939453125</ele>
        <time>2019-07-11T11:30:19.000Z</time>
      </trkpt>
      <trkpt lat="43.553460538387298583984375" lon="-6.22755615971982479095458984375">
        <ele>42.200000762939453125</ele>
        <time>2019-07-11T11:30:20.000Z</time>
      </trkpt>
      <trkpt lat="43.55334746651351451873779296875" lon="-6.2274129129946231842041015625">
        <ele>43</ele>
        <time>2019-07-11T11:30:21.000Z</time>
      </trkpt>
      <trkpt lat="43.55310623534023761749267578125" lon="-6.2271322868764400482177734375">
        <ele>44.799999237060546875</ele>
        <time>2019-07-11T11:30:23.000Z</time>
      </trkpt>
      <trkpt lat="43.55298402719199657440185546875" lon="-6.22699809260666370391845703125">
        <ele>46</ele>
        <time>2019-07-11T11:30:24.000Z</time>
      </trkpt>
      <trkpt lat="43.55286248959600925445556640625" lon="-6.22686917893588542938232421875">
        <ele>47</ele>
        <time>2019-07-11T11:30:25.000Z</time>
      </trkpt>
      <trkpt lat="43.5527351684868335723876953125" lon="-6.22674881480634212493896484375">
        <ele>47.799999237060546875</ele>
        <time>2019-07-11T11:30:26.000Z</time>
      </trkpt>
      <trkpt lat="43.55259359814226627349853515625" lon="-6.226643286645412445068359375">
        <ele>48.799999237060546875</ele>
        <time>2019-07-11T11:30:27.000Z</time>
      </trkpt>
      <trkpt lat="43.55229034088551998138427734375" lon="-6.2264473177492618560791015625">
        <ele>50.59999847412109375</ele>
        <time>2019-07-11T11:30:29.000Z</time>
      </trkpt>
      <trkpt lat="43.5519818030297756195068359375" lon="-6.22625629417598247528076171875">
        <ele>52.40000152587890625</ele>
        <time>2019-07-11T11:30:31.000Z</time>
      </trkpt>
      <trkpt lat="43.55167024768888950347900390625" lon="-6.226059906184673309326171875">
        <ele>54</ele>
        <time>2019-07-11T11:30:33.000Z</time>
      </trkpt>
      <trkpt lat="43.5512190498411655426025390625" lon="-6.22573460452258586883544921875">
        <ele>55.40000152587890625</ele>
        <time>2019-07-11T11:30:36.000Z</time>
      </trkpt>
      <trkpt lat="43.5509243421256542205810546875" lon="-6.22546118684113025665283203125">
        <ele>55.59999847412109375</ele>
        <time>2019-07-11T11:30:38.000Z</time>
      </trkpt>
      <trkpt lat="43.5505002178251743316650390625" lon="-6.22495676390826702117919921875">
        <ele>56</ele>
        <time>2019-07-11T11:30:41.000Z</time>
      </trkpt>
      <trkpt lat="43.550066538155078887939453125" lon="-6.2244185619056224822998046875">
        <ele>56.799999237060546875</ele>
        <time>2019-07-11T11:30:44.000Z</time>
      </trkpt>
      <trkpt lat="43.54977560229599475860595703125" lon="-6.2240581400692462921142578125">
        <ele>58</ele>
        <time>2019-07-11T11:30:46.000Z</time>
      </trkpt>
      <trkpt lat="43.5496311821043491363525390625" lon="-6.2238777615129947662353515625">
        <ele>59.200000762939453125</ele>
        <time>2019-07-11T11:30:47.000Z</time>
      </trkpt>
      <trkpt lat="43.54948525317013263702392578125" lon="-6.22370115481317043304443359375">
        <ele>60.40000152587890625</ele>
        <time>2019-07-11T11:30:48.000Z</time>
      </trkpt>
      <trkpt lat="43.54934024624526500701904296875" lon="-6.22352731414139270782470703125">
        <ele>62</ele>
        <time>2019-07-11T11:30:49.000Z</time>
      </trkpt>
      <trkpt lat="43.54920127429068088531494140625" lon="-6.22335330583155155181884765625">
        <ele>63.200000762939453125</ele>
        <time>2019-07-11T11:30:50.000Z</time>
      </trkpt>
      <trkpt lat="43.5489398427307605743408203125" lon="-6.22302641160786151885986328125">
        <ele>65.40000152587890625</ele>
        <time>2019-07-11T11:30:52.000Z</time>
      </trkpt>
      <trkpt lat="43.54881486855447292327880859375" lon="-6.222873441874980926513671875">
        <ele>67.1999969482421875</ele>
        <time>2019-07-11T11:30:53.000Z</time>
      </trkpt>
      <trkpt lat="43.54869232513010501861572265625" lon="-6.2227227352559566497802734375">
        <ele>68.40000152587890625</ele>
        <time>2019-07-11T11:30:54.000Z</time>
      </trkpt>
      <trkpt lat="43.5485713742673397064208984375" lon="-6.2225706875324249267578125">
        <ele>69.8000030517578125</ele>
        <time>2019-07-11T11:30:55.000Z</time>
      </trkpt>
      <trkpt lat="43.5483286343514919281005859375" lon="-6.222255527973175048828125">
        <ele>71.59999847412109375</ele>
        <time>2019-07-11T11:30:57.000Z</time>
      </trkpt>
      <trkpt lat="43.54807608760893344879150390625" lon="-6.22193475253880023956298828125">
        <ele>73.1999969482421875</ele>
        <time>2019-07-11T11:30:59.000Z</time>
      </trkpt>
      <trkpt lat="43.5479454137384891510009765625" lon="-6.22177742421627044677734375">
        <ele>74.40000152587890625</ele>
        <time>2019-07-11T11:31:00.000Z</time>
      </trkpt>
      <trkpt lat="43.54781373403966426849365234375" lon="-6.221620179712772369384765625">
        <ele>75.59999847412109375</ele>
        <time>2019-07-11T11:31:01.000Z</time>
      </trkpt>
      <trkpt lat="43.547681383788585662841796875" lon="-6.22146184556186199188232421875">
        <ele>76.59999847412109375</ele>
        <time>2019-07-11T11:31:02.000Z</time>
      </trkpt>
      <trkpt lat="43.54742263443768024444580078125" lon="-6.22114802710711956024169921875">
        <ele>78.8000030517578125</ele>
        <time>2019-07-11T11:31:04.000Z</time>
      </trkpt>
      <trkpt lat="43.54729891754686832427978515625" lon="-6.22098575346171855926513671875">
        <ele>80</ele>
        <time>2019-07-11T11:31:05.000Z</time>
      </trkpt>
      <trkpt lat="43.5471799783408641815185546875" lon="-6.22081275098025798797607421875">
        <ele>81</ele>
        <time>2019-07-11T11:31:06.000Z</time>
      </trkpt>
      <trkpt lat="43.5470693372189998626708984375" lon="-6.22062566690146923065185546875">
        <ele>82.1999969482421875</ele>
        <time>2019-07-11T11:31:07.000Z</time>
      </trkpt>
      <trkpt lat="43.54688309133052825927734375" lon="-6.22020305134356021881103515625">
        <ele>84</ele>
        <time>2019-07-11T11:31:09.000Z</time>
      </trkpt>
      <trkpt lat="43.54675702750682830810546875" lon="-6.21969393454492092132568359375">
        <ele>85.59999847412109375</ele>
        <time>2019-07-11T11:31:11.000Z</time>
      </trkpt>
      <trkpt lat="43.5467179678380489349365234375" lon="-6.2194175831973552703857421875">
        <ele>86.8000030517578125</ele>
        <time>2019-07-11T11:31:12.000Z</time>
      </trkpt>
      <trkpt lat="43.5467012040317058563232421875" lon="-6.219154894351959228515625">
        <ele>87.8000030517578125</ele>
        <time>2019-07-11T11:31:13.000Z</time>
      </trkpt>
      <trkpt lat="43.54669801890850067138671875" lon="-6.21890653856098651885986328125">
        <ele>89</ele>
        <time>2019-07-11T11:31:14.000Z</time>
      </trkpt>
      <trkpt lat="43.5467119328677654266357421875" lon="-6.218679808080196380615234375">
        <ele>90.1999969482421875</ele>
        <time>2019-07-11T11:31:15.000Z</time>
      </trkpt>
      <trkpt lat="43.54673548601567745208740234375" lon="-6.218473948538303375244140625">
        <ele>91.40000152587890625</ele>
        <time>2019-07-11T11:31:16.000Z</time>
      </trkpt>
      <trkpt lat="43.54681779630482196807861328125" lon="-6.21812366880476474761962890625">
        <ele>93.40000152587890625</ele>
        <time>2019-07-11T11:31:18.000Z</time>
      </trkpt>
      <trkpt lat="43.54687127284705638885498046875" lon="-6.2179728783667087554931640625">
        <ele>94.40000152587890625</ele>
        <time>2019-07-11T11:31:19.000Z</time>
      </trkpt>
      <trkpt lat="43.5469187982380390167236328125" lon="-6.21784287504851818084716796875">
        <ele>95.59999847412109375</ele>
        <time>2019-07-11T11:31:20.000Z</time>
      </trkpt>
      <trkpt lat="43.546959869563579559326171875" lon="-6.217746734619140625">
        <ele>96.59999847412109375</ele>
        <time>2019-07-11T11:31:21.000Z</time>
      </trkpt>
      <trkpt lat="43.54699599556624889373779296875" lon="-6.2176795117557048797607421875">
        <ele>97.8000030517578125</ele>
        <time>2019-07-11T11:31:22.000Z</time>
      </trkpt>
      <trkpt lat="43.54704779572784900665283203125" lon="-6.21757582761347293853759765625">
        <ele>99.59999847412109375</ele>
        <time>2019-07-11T11:31:24.000Z</time>
      </trkpt>
      <trkpt lat="43.5470567643642425537109375" lon="-6.21753525920212268829345703125">
        <ele>100.1999969482421875</ele>
        <time>2019-07-11T11:31:25.000Z</time>
      </trkpt>
      <trkpt lat="43.547055758535861968994140625" lon="-6.217511706054210662841796875">
        <ele>101</ele>
        <time>2019-07-11T11:31:26.000Z</time>
      </trkpt>
      <trkpt lat="43.54704394005239009857177734375" lon="-6.21751061640679836273193359375">
        <ele>102.1999969482421875</ele>
        <time>2019-07-11T11:31:29.000Z</time>
      </trkpt>
      <trkpt lat="43.54698929004371166229248046875" lon="-6.21750709600746631622314453125">
        <ele>102.59999847412109375</ele>
        <time>2019-07-11T11:31:40.000Z</time>
      </trkpt>
      <trkpt lat="43.546967916190624237060546875" lon="-6.21754531748592853546142578125">
        <ele>102.8000030517578125</ele>
        <time>2019-07-11T11:31:42.000Z</time>
      </trkpt>
      <trkpt lat="43.54697805829346179962158203125" lon="-6.21755822561681270599365234375">
        <ele>102.8000030517578125</ele>
        <time>2019-07-11T11:31:48.000Z</time>
      </trkpt>
      <trkpt lat="43.546975292265415191650390625" lon="-6.21761555783450603485107421875">
        <ele>102.8000030517578125</ele>
        <time>2019-07-11T11:31:52.000Z</time>
      </trkpt>
      <trkpt lat="43.54697034694254398345947265625" lon="-6.21760063804686069488525390625">
        <ele>102.8000030517578125</ele>
        <time>2019-07-11T11:32:01.000Z</time>
      </trkpt>
      <trkpt lat="43.54701510630548000335693359375" lon="-6.21748681180179119110107421875">
        <ele>102.59999847412109375</ele>
        <time>2019-07-11T11:32:04.000Z</time>
      </trkpt>
      <trkpt lat="43.54725851677358150482177734375" lon="-6.217146255075931549072265625">
        <ele>102</ele>
        <time>2019-07-11T11:32:09.000Z</time>
      </trkpt>
      <trkpt lat="43.54741307906806468963623046875" lon="-6.21676504611968994140625">
        <ele>101</ele>
        <time>2019-07-11T11:32:12.000Z</time>
      </trkpt>
      <trkpt lat="43.547602258622646331787109375" lon="-6.2162854336202144622802734375">
        <ele>99.59999847412109375</ele>
        <time>2019-07-11T11:32:15.000Z</time>
      </trkpt>
      <trkpt lat="43.54768574237823486328125" lon="-6.21612332761287689208984375">
        <ele>98.8000030517578125</ele>
        <time>2019-07-11T11:32:16.000Z</time>
      </trkpt>
      <trkpt lat="43.547785319387912750244140625" lon="-6.21596935205161571502685546875">
        <ele>97.8000030517578125</ele>
        <time>2019-07-11T11:32:17.000Z</time>
      </trkpt>
      <trkpt lat="43.54789235629141330718994140625" lon="-6.21582317166030406951904296875">
        <ele>96.59999847412109375</ele>
        <time>2019-07-11T11:32:18.000Z</time>
      </trkpt>
      <trkpt lat="43.5479993931949138641357421875" lon="-6.21568151749670505523681640625">
        <ele>95.59999847412109375</ele>
        <time>2019-07-11T11:32:19.000Z</time>
      </trkpt>
      <trkpt lat="43.54831136763095855712890625" lon="-6.2152648530900478363037109375">
        <ele>94.59999847412109375</ele>
        <time>2019-07-11T11:32:23.000Z</time>
      </trkpt>
      <trkpt lat="43.5486310534179210662841796875" lon="-6.21476554311811923980712890625">
        <ele>94.59999847412109375</ele>
        <time>2019-07-11T11:32:29.000Z</time>
      </trkpt>
      <trkpt lat="43.54872384108603000640869140625" lon="-6.21457024477422237396240234375">
        <ele>94</ele>
        <time>2019-07-11T11:32:31.000Z</time>
      </trkpt>
      <trkpt lat="43.54875837452709674835205078125" lon="-6.214449964463710784912109375">
        <ele>93.40000152587890625</ele>
        <time>2019-07-11T11:32:32.000Z</time>
      </trkpt>
      <trkpt lat="43.54880883358418941497802734375" lon="-6.2141762115061283111572265625">
        <ele>92.1999969482421875</ele>
        <time>2019-07-11T11:32:34.000Z</time>
      </trkpt>
      <trkpt lat="43.548860885202884674072265625" lon="-6.2138791568577289581298828125">
        <ele>91.1999969482421875</ele>
        <time>2019-07-11T11:32:36.000Z</time>
      </trkpt>
      <trkpt lat="43.5489317961037158966064453125" lon="-6.21346802450716495513916015625">
        <ele>89.59999847412109375</ele>
        <time>2019-07-11T11:32:39.000Z</time>
      </trkpt>
      <trkpt lat="43.5489965043962001800537109375" lon="-6.21312922798097133636474609375">
        <ele>89.1999969482421875</ele>
        <time>2019-07-11T11:32:42.000Z</time>
      </trkpt>
      <trkpt lat="43.54907738976180553436279296875" lon="-6.21291817165911197662353515625">
        <ele>89</ele>
        <time>2019-07-11T11:32:44.000Z</time>
      </trkpt>
      <trkpt lat="43.5491730272769927978515625" lon="-6.21276025660336017608642578125">
        <ele>88.8000030517578125</ele>
        <time>2019-07-11T11:32:46.000Z</time>
      </trkpt>
      <trkpt lat="43.5492211394011974334716796875" lon="-6.212706863880157470703125">
        <ele>88.40000152587890625</ele>
        <time>2019-07-11T11:32:47.000Z</time>
      </trkpt>
      <trkpt lat="43.54942305944859981536865234375" lon="-6.2125481106340885162353515625">
        <ele>87.8000030517578125</ele>
        <time>2019-07-11T11:32:51.000Z</time>
      </trkpt>
      <trkpt lat="43.549523390829563140869140625" lon="-6.212510727345943450927734375">
        <ele>87.59999847412109375</ele>
        <time>2019-07-11T11:32:53.000Z</time>
      </trkpt>
      <trkpt lat="43.54962891899049282073974609375" lon="-6.21251030825078487396240234375">
        <ele>87.40000152587890625</ele>
        <time>2019-07-11T11:32:55.000Z</time>
      </trkpt>
      <trkpt lat="43.54975732974708080291748046875" lon="-6.2125591747462749481201171875">
        <ele>87.1999969482421875</ele>
        <time>2019-07-11T11:32:57.000Z</time>
      </trkpt>
      <trkpt lat="43.5501967929303646087646484375" lon="-6.212857402861118316650390625">
        <ele>86.40000152587890625</ele>
        <time>2019-07-11T11:33:02.000Z</time>
      </trkpt>
      <trkpt lat="43.55028723366558551788330078125" lon="-6.2129360251128673553466796875">
        <ele>86.1999969482421875</ele>
        <time>2019-07-11T11:33:03.000Z</time>
      </trkpt>
      <trkpt lat="43.55043307878077030181884765625" lon="-6.21314381249248981475830078125">
        <ele>86</ele>
        <time>2019-07-11T11:33:05.000Z</time>
      </trkpt>
      <trkpt lat="43.55055578984320163726806640625" lon="-6.2134868837893009185791015625">
        <ele>85.40000152587890625</ele>
        <time>2019-07-11T11:33:08.000Z</time>
      </trkpt>
      <trkpt lat="43.550689481198787689208984375" lon="-6.21359325014054775238037109375">
        <ele>85</ele>
        <time>2019-07-11T11:33:10.000Z</time>
      </trkpt>
      <trkpt lat="43.55084739625453948974609375" lon="-6.21349618770182132720947265625">
        <ele>85</ele>
        <time>2019-07-11T11:33:12.000Z</time>
      </trkpt>
      <trkpt lat="43.55091989971697330474853515625" lon="-6.21326518245041370391845703125">
        <ele>84.40000152587890625</ele>
        <time>2019-07-11T11:33:14.000Z</time>
      </trkpt>
      <trkpt lat="43.5509340651333332061767578125" lon="-6.2131080217659473419189453125">
        <ele>83.59999847412109375</ele>
        <time>2019-07-11T11:33:15.000Z</time>
      </trkpt>
      <trkpt lat="43.55094504542648792266845703125" lon="-6.21275891549885272979736328125">
        <ele>82.1999969482421875</ele>
        <time>2019-07-11T11:33:17.000Z</time>
      </trkpt>
      <trkpt lat="43.5509514994919300079345703125" lon="-6.2124052830040454864501953125">
        <ele>81.1999969482421875</ele>
        <time>2019-07-11T11:33:19.000Z</time>
      </trkpt>
      <trkpt lat="43.55093029327690601348876953125" lon="-6.21190496720373630523681640625">
        <ele>80</ele>
        <time>2019-07-11T11:33:22.000Z</time>
      </trkpt>
      <trkpt lat="43.5508123598992824554443359375" lon="-6.2115741334855556488037109375">
        <ele>79.59999847412109375</ele>
        <time>2019-07-11T11:33:24.000Z</time>
      </trkpt>
      <trkpt lat="43.55073180980980396270751953125" lon="-6.21141764335334300994873046875">
        <ele>79</ele>
        <time>2019-07-11T11:33:25.000Z</time>
      </trkpt>
      <trkpt lat="43.5505934245884418487548828125" lon="-6.21109175495803356170654296875">
        <ele>78</ele>
        <time>2019-07-11T11:33:27.000Z</time>
      </trkpt>
      <trkpt lat="43.55056081898510456085205078125" lon="-6.2107211910188198089599609375">
        <ele>77</ele>
        <time>2019-07-11T11:33:29.000Z</time>
      </trkpt>
      <trkpt lat="43.550570122897624969482421875" lon="-6.21053201146423816680908203125">
        <ele>76.40000152587890625</ele>
        <time>2019-07-11T11:33:30.000Z</time>
      </trkpt>
      <trkpt lat="43.5505867190659046173095703125" lon="-6.21017091907560825347900390625">
        <ele>74.8000030517578125</ele>
        <time>2019-07-11T11:33:32.000Z</time>
      </trkpt>
      <trkpt lat="43.55057992972433567047119140625" lon="-6.2099976651370525360107421875">
        <ele>74</ele>
        <time>2019-07-11T11:33:33.000Z</time>
      </trkpt>
      <trkpt lat="43.55055964551866054534912109375" lon="-6.20982575230300426483154296875">
        <ele>73.59999847412109375</ele>
        <time>2019-07-11T11:33:34.000Z</time>
      </trkpt>
      <trkpt lat="43.5505189932882785797119140625" lon="-6.20945342816412448883056640625">
        <ele>72.8000030517578125</ele>
        <time>2019-07-11T11:33:36.000Z</time>
      </trkpt>
      <trkpt lat="43.55052796192467212677001953125" lon="-6.20925125665962696075439453125">
        <ele>72.40000152587890625</ele>
        <time>2019-07-11T11:33:37.000Z</time>
      </trkpt>
      <trkpt lat="43.55055545456707477569580078125" lon="-6.2090515159070491790771484375">
        <ele>72.1999969482421875</ele>
        <time>2019-07-11T11:33:38.000Z</time>
      </trkpt>
      <trkpt lat="43.5506348311901092529296875" lon="-6.20866008102893829345703125">
        <ele>71.1999969482421875</ele>
        <time>2019-07-11T11:33:40.000Z</time>
      </trkpt>
      <trkpt lat="43.550672717392444610595703125" lon="-6.2084594182670116424560546875">
        <ele>70</ele>
        <time>2019-07-11T11:33:41.000Z</time>
      </trkpt>
      <trkpt lat="43.55070247314870357513427734375" lon="-6.20824970304965972900390625">
        <ele>68.8000030517578125</ele>
        <time>2019-07-11T11:33:42.000Z</time>
      </trkpt>
      <trkpt lat="43.5507188178598880767822265625" lon="-6.20802934281527996063232421875">
        <ele>67.8000030517578125</ele>
        <time>2019-07-11T11:33:43.000Z</time>
      </trkpt>
      <trkpt lat="43.55069425888359546661376953125" lon="-6.20756708085536956787109375">
        <ele>66.40000152587890625</ele>
        <time>2019-07-11T11:33:45.000Z</time>
      </trkpt>
      <trkpt lat="43.55066073127090930938720703125" lon="-6.20734236203134059906005859375">
        <ele>65.8000030517578125</ele>
        <time>2019-07-11T11:33:46.000Z</time>
      </trkpt>
      <trkpt lat="43.55062569491565227508544921875" lon="-6.20712853968143463134765625">
        <ele>65.1999969482421875</ele>
        <time>2019-07-11T11:33:47.000Z</time>
      </trkpt>
      <trkpt lat="43.55056886561214923858642578125" lon="-6.20674473233520984649658203125">
        <ele>63.59999847412109375</ele>
        <time>2019-07-11T11:33:49.000Z</time>
      </trkpt>
      <trkpt lat="43.55060591362416744232177734375" lon="-6.20639017783105373382568359375">
        <ele>61.799999237060546875</ele>
        <time>2019-07-11T11:33:51.000Z</time>
      </trkpt>
      <trkpt lat="43.5507590509951114654541015625" lon="-6.2060467712581157684326171875">
        <ele>60.200000762939453125</ele>
        <time>2019-07-11T11:33:53.000Z</time>
      </trkpt>
      <trkpt lat="43.5509266890585422515869140625" lon="-6.2057103216648101806640625">
        <ele>58.59999847412109375</ele>
        <time>2019-07-11T11:33:55.000Z</time>
      </trkpt>
      <trkpt lat="43.55126741342246532440185546875" lon="-6.2050545215606689453125">
        <ele>58.200000762939453125</ele>
        <time>2019-07-11T11:33:59.000Z</time>
      </trkpt>
      <trkpt lat="43.55143639259040355682373046875" lon="-6.20473709888756275177001953125">
        <ele>57.40000152587890625</ele>
        <time>2019-07-11T11:34:01.000Z</time>
      </trkpt>
      <trkpt lat="43.55159447528421878814697265625" lon="-6.2044255435466766357421875">
        <ele>54.799999237060546875</ele>
        <time>2019-07-11T11:34:03.000Z</time>
      </trkpt>
      <trkpt lat="43.55167393572628498077392578125" lon="-6.204275675117969512939453125">
        <ele>53.59999847412109375</ele>
        <time>2019-07-11T11:34:04.000Z</time>
      </trkpt>
      <trkpt lat="43.55183436535298824310302734375" lon="-6.20399999432265758514404296875">
        <ele>52.200000762939453125</ele>
        <time>2019-07-11T11:34:06.000Z</time>
      </trkpt>
      <trkpt lat="43.5520255565643310546875" lon="-6.2037933804094791412353515625">
        <ele>51.200000762939453125</ele>
        <time>2019-07-11T11:34:08.000Z</time>
      </trkpt>
      <trkpt lat="43.5522429831326007843017578125" lon="-6.2036787159740924835205078125">
        <ele>50.40000152587890625</ele>
        <time>2019-07-11T11:34:10.000Z</time>
      </trkpt>
      <trkpt lat="43.552350103855133056640625" lon="-6.20364342816174030303955078125">
        <ele>50</ele>
        <time>2019-07-11T11:34:11.000Z</time>
      </trkpt>
      <trkpt lat="43.55253777466714382171630859375" lon="-6.20355122722685337066650390625">
        <ele>49.40000152587890625</ele>
        <time>2019-07-11T11:34:13.000Z</time>
      </trkpt>
      <trkpt lat="43.55261891148984432220458984375" lon="-6.2034765444695949554443359375">
        <ele>49</ele>
        <time>2019-07-11T11:34:14.000Z</time>
      </trkpt>
      <trkpt lat="43.55269351042807102203369140625" lon="-6.20338358916342258453369140625">
        <ele>48.59999847412109375</ele>
        <time>2019-07-11T11:34:15.000Z</time>
      </trkpt>
      <trkpt lat="43.5528401099145412445068359375" lon="-6.2031556852161884307861328125">
        <ele>47.59999847412109375</ele>
        <time>2019-07-11T11:34:17.000Z</time>
      </trkpt>
      <trkpt lat="43.5530010424554347991943359375" lon="-6.20291344821453094482421875">
        <ele>46.40000152587890625</ele>
        <time>2019-07-11T11:34:19.000Z</time>
      </trkpt>
      <trkpt lat="43.5531415231525897979736328125" lon="-6.20268939994275569915771484375">
        <ele>45.799999237060546875</ele>
        <time>2019-07-11T11:34:21.000Z</time>
      </trkpt>
      <trkpt lat="43.553203381597995758056640625" lon="-6.2024648487567901611328125">
        <ele>46</ele>
        <time>2019-07-11T11:34:23.000Z</time>
      </trkpt>
      <trkpt lat="43.55316105298697948455810546875" lon="-6.20222453959286212921142578125">
        <ele>46.200000762939453125</ele>
        <time>2019-07-11T11:34:25.000Z</time>
      </trkpt>
      <trkpt lat="43.553023673593997955322265625" lon="-6.2019912712275981903076171875">
        <ele>46.200000762939453125</ele>
        <time>2019-07-11T11:34:27.000Z</time>
      </trkpt>
      <trkpt lat="43.5527378506958484649658203125" lon="-6.20165322907269001007080078125">
        <ele>45.59999847412109375</ele>
        <time>2019-07-11T11:34:30.000Z</time>
      </trkpt>
      <trkpt lat="43.55266568250954151153564453125" lon="-6.20152716524899005889892578125">
        <ele>45.40000152587890625</ele>
        <time>2019-07-11T11:34:31.000Z</time>
      </trkpt>
      <trkpt lat="43.552617318928241729736328125" lon="-6.20137930847704410552978515625">
        <ele>45</ele>
        <time>2019-07-11T11:34:32.000Z</time>
      </trkpt>
      <trkpt lat="43.55256459675729274749755859375" lon="-6.2010209821164608001708984375">
        <ele>43.799999237060546875</ele>
        <time>2019-07-11T11:34:34.000Z</time>
      </trkpt>
      <trkpt lat="43.55254598893225193023681640625" lon="-6.2008184753358364105224609375">
        <ele>42.799999237060546875</ele>
        <time>2019-07-11T11:34:35.000Z</time>
      </trkpt>
      <trkpt lat="43.55253140442073345184326171875" lon="-6.20060683228075504302978515625">
        <ele>41.59999847412109375</ele>
        <time>2019-07-11T11:34:36.000Z</time>
      </trkpt>
      <trkpt lat="43.55254347436130046844482421875" lon="-6.19995069690048694610595703125">
        <ele>39.59999847412109375</ele>
        <time>2019-07-11T11:34:39.000Z</time>
      </trkpt>
      <trkpt lat="43.55257079936563968658447265625" lon="-6.19972421787679195404052734375">
        <ele>38</ele>
        <time>2019-07-11T11:34:40.000Z</time>
      </trkpt>
      <trkpt lat="43.5526091046631336212158203125" lon="-6.1994971521198749542236328125">
        <ele>36</ele>
        <time>2019-07-11T11:34:41.000Z</time>
      </trkpt>
      <trkpt lat="43.55265461839735507965087890625" lon="-6.19927142746746540069580078125">
        <ele>34.59999847412109375</ele>
        <time>2019-07-11T11:34:42.000Z</time>
      </trkpt>
      <trkpt lat="43.552749417722225189208984375" lon="-6.19882668368518352508544921875">
        <ele>32.799999237060546875</ele>
        <time>2019-07-11T11:34:44.000Z</time>
      </trkpt>
      <trkpt lat="43.5528095997869968414306640625" lon="-6.19861328043043613433837890625">
        <ele>31.6000003814697265625</ele>
        <time>2019-07-11T11:34:45.000Z</time>
      </trkpt>
      <trkpt lat="43.55297296307981014251708984375" lon="-6.1982291378080844879150390625">
        <ele>29.799999237060546875</ele>
        <time>2019-07-11T11:34:47.000Z</time>
      </trkpt>
      <trkpt lat="43.55314680375158786773681640625" lon="-6.1978730745613574981689453125">
        <ele>28.3999996185302734375</ele>
        <time>2019-07-11T11:34:49.000Z</time>
      </trkpt>
      <trkpt lat="43.5532900504767894744873046875" lon="-6.19752095080912113189697265625">
        <ele>27.200000762939453125</ele>
        <time>2019-07-11T11:34:51.000Z</time>
      </trkpt>
      <trkpt lat="43.55336624197661876678466796875" lon="-6.197148375213146209716796875">
        <ele>25.3999996185302734375</ele>
        <time>2019-07-11T11:34:53.000Z</time>
      </trkpt>
      <trkpt lat="43.55337001383304595947265625" lon="-6.19675618596374988555908203125">
        <ele>24.3999996185302734375</ele>
        <time>2019-07-11T11:34:55.000Z</time>
      </trkpt>
      <trkpt lat="43.55329868383705615997314453125" lon="-6.19614631868898868560791015625">
        <ele>23.200000762939453125</ele>
        <time>2019-07-11T11:34:58.000Z</time>
      </trkpt>
      <trkpt lat="43.5532199777662754058837890625" lon="-6.19552664458751678466796875">
        <ele>22.799999237060546875</ele>
        <time>2019-07-11T11:35:01.000Z</time>
      </trkpt>
      <trkpt lat="43.55311763472855091094970703125" lon="-6.19473296217620372772216796875">
        <ele>22.3999996185302734375</ele>
        <time>2019-07-11T11:35:05.000Z</time>
      </trkpt>
      <trkpt lat="43.5530112683773040771484375" lon="-6.1939382739365100860595703125">
        <ele>22.3999996185302734375</ele>
        <time>2019-07-11T11:35:09.000Z</time>
      </trkpt>
      <trkpt lat="43.552984111011028289794921875" lon="-6.19373166002333164215087890625">
        <ele>22.200000762939453125</ele>
        <time>2019-07-11T11:35:10.000Z</time>
      </trkpt>
      <trkpt lat="43.552956283092498779296875" lon="-6.19352160952985286712646484375">
        <ele>22.200000762939453125</ele>
        <time>2019-07-11T11:35:11.000Z</time>
      </trkpt>
      <trkpt lat="43.552875816822052001953125" lon="-6.19290486909449100494384765625">
        <ele>21.6000003814697265625</ele>
        <time>2019-07-11T11:35:14.000Z</time>
      </trkpt>
      <trkpt lat="43.552773892879486083984375" lon="-6.192158795893192291259765625">
        <ele>21.200000762939453125</ele>
        <time>2019-07-11T11:35:18.000Z</time>
      </trkpt>
      <trkpt lat="43.5527495853602886199951171875" lon="-6.19198403321206569671630859375">
        <ele>21</ele>
        <time>2019-07-11T11:35:19.000Z</time>
      </trkpt>
      <trkpt lat="43.5527080111205577850341796875" lon="-6.1915229447185993194580078125">
        <ele>21.6000003814697265625</ele>
        <time>2019-07-11T11:35:22.000Z</time>
      </trkpt>
      <trkpt lat="43.55273030698299407958984375" lon="-6.19139746762812137603759765625">
        <ele>22.200000762939453125</ele>
        <time>2019-07-11T11:35:23.000Z</time>
      </trkpt>
      <trkpt lat="43.55277850292623043060302734375" lon="-6.19129478931427001953125">
        <ele>22.6000003814697265625</ele>
        <time>2019-07-11T11:35:24.000Z</time>
      </trkpt>
      <trkpt lat="43.55285628698766231536865234375" lon="-6.191219352185726165771484375">
        <ele>23.200000762939453125</ele>
        <time>2019-07-11T11:35:25.000Z</time>
      </trkpt>
      <trkpt lat="43.55296189896762371063232421875" lon="-6.19116478599607944488525390625">
        <ele>23.6000003814697265625</ele>
        <time>2019-07-11T11:35:26.000Z</time>
      </trkpt>
      <trkpt lat="43.55308142490684986114501953125" lon="-6.19110359810292720794677734375">
        <ele>24.200000762939453125</ele>
        <time>2019-07-11T11:35:27.000Z</time>
      </trkpt>
      <trkpt lat="43.5534791462123394012451171875" lon="-6.1908761970698833465576171875">
        <ele>25.799999237060546875</ele>
        <time>2019-07-11T11:35:30.000Z</time>
      </trkpt>
      <trkpt lat="43.55374393053352832794189453125" lon="-6.19072775356471538543701171875">
        <ele>27.3999996185302734375</ele>
        <time>2019-07-11T11:35:32.000Z</time>
      </trkpt>
      <trkpt lat="43.55388340540230274200439453125" lon="-6.1906465329229831695556640625">
        <ele>28.6000003814697265625</ele>
        <time>2019-07-11T11:35:33.000Z</time>
      </trkpt>
      <trkpt lat="43.554022796452045440673828125" lon="-6.19054301641881465911865234375">
        <ele>29.6000003814697265625</ele>
        <time>2019-07-11T11:35:34.000Z</time>
      </trkpt>
      <trkpt lat="43.554151542484760284423828125" lon="-6.1904188804328441619873046875">
        <ele>30.3999996185302734375</ele>
        <time>2019-07-11T11:35:35.000Z</time>
      </trkpt>
      <trkpt lat="43.5542670451104640960693359375" lon="-6.19028015993535518646240234375">
        <ele>31.6000003814697265625</ele>
        <time>2019-07-11T11:35:36.000Z</time>
      </trkpt>
      <trkpt lat="43.55437508784234523773193359375" lon="-6.19014571420848369598388671875">
        <ele>33</ele>
        <time>2019-07-11T11:35:37.000Z</time>
      </trkpt>
      <trkpt lat="43.5544869862496852874755859375" lon="-6.19001948274672031402587890625">
        <ele>34.200000762939453125</ele>
        <time>2019-07-11T11:35:38.000Z</time>
      </trkpt>
      <trkpt lat="43.55460374616086483001708984375" lon="-6.18989191018044948577880859375">
        <ele>35.200000762939453125</ele>
        <time>2019-07-11T11:35:39.000Z</time>
      </trkpt>
      <trkpt lat="43.55483877472579479217529296875" lon="-6.1896246112883090972900390625">
        <ele>37</ele>
        <time>2019-07-11T11:35:41.000Z</time>
      </trkpt>
      <trkpt lat="43.55495251715183258056640625" lon="-6.18949301540851593017578125">
        <ele>38.200000762939453125</ele>
        <time>2019-07-11T11:35:42.000Z</time>
      </trkpt>
      <trkpt lat="43.55516248382627964019775390625" lon="-6.18922001682221889495849609375">
        <ele>39.59999847412109375</ele>
        <time>2019-07-11T11:35:44.000Z</time>
      </trkpt>
      <trkpt lat="43.555359542369842529296875" lon="-6.1889718286693096160888671875">
        <ele>40.799999237060546875</ele>
        <time>2019-07-11T11:35:46.000Z</time>
      </trkpt>
      <trkpt lat="43.5554452054202556610107421875" lon="-6.188839562237262725830078125">
        <ele>41.799999237060546875</ele>
        <time>2019-07-11T11:35:47.000Z</time>
      </trkpt>
      <trkpt lat="43.5555243305861949920654296875" lon="-6.188702769577503204345703125">
        <ele>43</ele>
        <time>2019-07-11T11:35:48.000Z</time>
      </trkpt>
      <trkpt lat="43.55559398420155048370361328125" lon="-6.18855692446231842041015625">
        <ele>44</ele>
        <time>2019-07-11T11:35:49.000Z</time>
      </trkpt>
      <trkpt lat="43.5556701757013797760009765625" lon="-6.18841736577451229095458984375">
        <ele>45.40000152587890625</ele>
        <time>2019-07-11T11:35:50.000Z</time>
      </trkpt>
      <trkpt lat="43.55575877241790294647216796875" lon="-6.18830756284296512603759765625">
        <ele>46.59999847412109375</ele>
        <time>2019-07-11T11:35:51.000Z</time>
      </trkpt>
      <trkpt lat="43.55585549958050251007080078125" lon="-6.188238076865673065185546875">
        <ele>47.40000152587890625</ele>
        <time>2019-07-11T11:35:52.000Z</time>
      </trkpt>
      <trkpt lat="43.55596496723592281341552734375" lon="-6.18819960393011569976806640625">
        <ele>48.200000762939453125</ele>
        <time>2019-07-11T11:35:53.000Z</time>
      </trkpt>
      <trkpt lat="43.55608315207064151763916015625" lon="-6.18818837217986583709716796875">
        <ele>49.200000762939453125</ele>
        <time>2019-07-11T11:35:54.000Z</time>
      </trkpt>
      <trkpt lat="43.55620971880853176116943359375" lon="-6.18819239549338817596435546875">
        <ele>50.200000762939453125</ele>
        <time>2019-07-11T11:35:55.000Z</time>
      </trkpt>
      <trkpt lat="43.55645782314240932464599609375" lon="-6.188149563968181610107421875">
        <ele>52</ele>
        <time>2019-07-11T11:35:57.000Z</time>
      </trkpt>
      <trkpt lat="43.556689582765102386474609375" lon="-6.18798066861927509307861328125">
        <ele>53.59999847412109375</ele>
        <time>2019-07-11T11:35:59.000Z</time>
      </trkpt>
      <trkpt lat="43.55692486278712749481201171875" lon="-6.18774279020726680755615234375">
        <ele>55.200000762939453125</ele>
        <time>2019-07-11T11:36:01.000Z</time>
      </trkpt>
      <trkpt lat="43.55715955607593059539794921875" lon="-6.18741036392748355865478515625">
        <ele>56.799999237060546875</ele>
        <time>2019-07-11T11:36:03.000Z</time>
      </trkpt>
      <trkpt lat="43.55755819939076900482177734375" lon="-6.18675984442234039306640625">
        <ele>57.200000762939453125</ele>
        <time>2019-07-11T11:36:06.000Z</time>
      </trkpt>
      <trkpt lat="43.5578756220638751983642578125" lon="-6.18627830408513545989990234375">
        <ele>58</ele>
        <time>2019-07-11T11:36:08.000Z</time>
      </trkpt>
      <trkpt lat="43.5580375604331493377685546875" lon="-6.18604294024407863616943359375">
        <ele>59</ele>
        <time>2019-07-11T11:36:09.000Z</time>
      </trkpt>
      <trkpt lat="43.55819941498339176177978515625" lon="-6.185831464827060699462890625">
        <ele>61.200000762939453125</ele>
        <time>2019-07-11T11:36:10.000Z</time>
      </trkpt>
      <trkpt lat="43.558358252048492431640625" lon="-6.185626946389675140380859375">
        <ele>64</ele>
        <time>2019-07-11T11:36:11.000Z</time>
      </trkpt>
      <trkpt lat="43.5585170052945613861083984375" lon="-6.1854269541800022125244140625">
        <ele>66</ele>
        <time>2019-07-11T11:36:12.000Z</time>
      </trkpt>
      <trkpt lat="43.558678440749645233154296875" lon="-6.18522738106548786163330078125">
        <ele>67.40000152587890625</ele>
        <time>2019-07-11T11:36:13.000Z</time>
      </trkpt>
      <trkpt lat="43.5588378645479679107666015625" lon="-6.18503543548285961151123046875">
        <ele>69</ele>
        <time>2019-07-11T11:36:14.000Z</time>
      </trkpt>
      <trkpt lat="43.558985553681850433349609375" lon="-6.1848553083837032318115234375">
        <ele>71</ele>
        <time>2019-07-11T11:36:15.000Z</time>
      </trkpt>
      <trkpt lat="43.5591132938861846923828125" lon="-6.18469580076634883880615234375">
        <ele>73.40000152587890625</ele>
        <time>2019-07-11T11:36:16.000Z</time>
      </trkpt>
      <trkpt lat="43.55922653339803218841552734375" lon="-6.18455900810658931732177734375">
        <ele>75.40000152587890625</ele>
        <time>2019-07-11T11:36:17.000Z</time>
      </trkpt>
      <trkpt lat="43.55932225473225116729736328125" lon="-6.18444149382412433624267578125">
        <ele>77</ele>
        <time>2019-07-11T11:36:18.000Z</time>
      </trkpt>
      <trkpt lat="43.559404648840427398681640625" lon="-6.1843379773199558258056640625">
        <ele>79.1999969482421875</ele>
        <time>2019-07-11T11:36:19.000Z</time>
      </trkpt>
      <trkpt lat="43.55948067270219326019287109375" lon="-6.184242926537990570068359375">
        <ele>82</ele>
        <time>2019-07-11T11:36:20.000Z</time>
      </trkpt>
      <trkpt lat="43.559551499783992767333984375" lon="-6.1841614544391632080078125">
        <ele>84.59999847412109375</ele>
        <time>2019-07-11T11:36:21.000Z</time>
      </trkpt>
      <trkpt lat="43.559613525867462158203125" lon="-6.1840905435383319854736328125">
        <ele>86.8000030517578125</ele>
        <time>2019-07-11T11:36:22.000Z</time>
      </trkpt>
      <trkpt lat="43.5596757195889949798583984375" lon="-6.18403363041579723358154296875">
        <ele>88.40000152587890625</ele>
        <time>2019-07-11T11:36:23.000Z</time>
      </trkpt>
      <trkpt lat="43.55974168516695499420166015625" lon="-6.1839856021106243133544921875">
        <ele>89.8000030517578125</ele>
        <time>2019-07-11T11:36:24.000Z</time>
      </trkpt>
      <trkpt lat="43.55980731546878814697265625" lon="-6.1839369870722293853759765625">
        <ele>91</ele>
        <time>2019-07-11T11:36:25.000Z</time>
      </trkpt>
      <trkpt lat="43.55992491357028484344482421875" lon="-6.1838605441153049468994140625">
        <ele>92.59999847412109375</ele>
        <time>2019-07-11T11:36:27.000Z</time>
      </trkpt>
      <trkpt lat="43.56002868153154850006103515625" lon="-6.1837934888899326324462890625">
        <ele>94</ele>
        <time>2019-07-11T11:36:29.000Z</time>
      </trkpt>
      <trkpt lat="43.5601531527936458587646484375" lon="-6.18372894823551177978515625">
        <ele>95.1999969482421875</ele>
        <time>2019-07-11T11:36:31.000Z</time>
      </trkpt>
      <trkpt lat="43.5602879337966442108154296875" lon="-6.183646135032176971435546875">
        <ele>96.40000152587890625</ele>
        <time>2019-07-11T11:36:33.000Z</time>
      </trkpt>
      <trkpt lat="43.5605092160403728485107421875" lon="-6.18353758938610553741455078125">
        <ele>97.59999847412109375</ele>
        <time>2019-07-11T11:36:36.000Z</time>
      </trkpt>
      <trkpt lat="43.560809791088104248046875" lon="-6.1833613179624080657958984375">
        <ele>99</ele>
        <time>2019-07-11T11:36:40.000Z</time>
      </trkpt>
      <trkpt lat="43.5610275529325008392333984375" lon="-6.183191500604152679443359375">
        <ele>100.1999969482421875</ele>
        <time>2019-07-11T11:36:43.000Z</time>
      </trkpt>
      <trkpt lat="43.561249673366546630859375" lon="-6.18301589973270893096923828125">
        <ele>101.40000152587890625</ele>
        <time>2019-07-11T11:36:46.000Z</time>
      </trkpt>
      <trkpt lat="43.56138118542730808258056640625" lon="-6.18289503268897533416748046875">
        <ele>102.8000030517578125</ele>
        <time>2019-07-11T11:36:48.000Z</time>
      </trkpt>
      <trkpt lat="43.56151864863932132720947265625" lon="-6.1827571503818035125732421875">
        <ele>104</ele>
        <time>2019-07-11T11:36:50.000Z</time>
      </trkpt>
      <trkpt lat="43.56191310100257396697998046875" lon="-6.182288937270641326904296875">
        <ele>105.40000152587890625</ele>
        <time>2019-07-11T11:36:55.000Z</time>
      </trkpt>
      <trkpt lat="43.56212482787668704986572265625" lon="-6.1820344626903533935546875">
        <ele>107</ele>
        <time>2019-07-11T11:36:57.000Z</time>
      </trkpt>
      <trkpt lat="43.5624058730900287628173828125" lon="-6.18167437613010406494140625">
        <ele>108.40000152587890625</ele>
        <time>2019-07-11T11:36:59.000Z</time>
      </trkpt>
      <trkpt lat="43.56263327412307262420654296875" lon="-6.1813567019999027252197265625">
        <ele>109.40000152587890625</ele>
        <time>2019-07-11T11:37:01.000Z</time>
      </trkpt>
      <trkpt lat="43.56282421387732028961181640625" lon="-6.1811220087110996246337890625">
        <ele>110.40000152587890625</ele>
        <time>2019-07-11T11:37:03.000Z</time>
      </trkpt>
      <trkpt lat="43.56297274120151996612548828125" lon="-6.1809161491692066192626953125">
        <ele>112.59999847412109375</ele>
        <time>2019-07-11T11:37:05.000Z</time>
      </trkpt>
      <trkpt lat="43.56304415501654148101806640625" lon="-6.1806734092533588409423828125">
        <ele>114.40000152587890625</ele>
        <time>2019-07-11T11:37:07.000Z</time>
      </trkpt>
      <trkpt lat="43.56302906759083271026611328125" lon="-6.18054575286805629730224609375">
        <ele>115.59999847412109375</ele>
        <time>2019-07-11T11:37:08.000Z</time>
      </trkpt>
      <trkpt lat="43.56298347003757953643798828125" lon="-6.1804172582924365997314453125">
        <ele>116.40000152587890625</ele>
        <time>2019-07-11T11:37:09.000Z</time>
      </trkpt>
      <trkpt lat="43.56291792355477809906005859375" lon="-6.1802828125655651092529296875">
        <ele>117.1999969482421875</ele>
        <time>2019-07-11T11:37:10.000Z</time>
      </trkpt>
      <trkpt lat="43.56275774538516998291015625" lon="-6.1799736879765987396240234375">
        <ele>118.1999969482421875</ele>
        <time>2019-07-11T11:37:12.000Z</time>
      </trkpt>
      <trkpt lat="43.562563620507717132568359375" lon="-6.1796541698276996612548828125">
        <ele>119.1999969482421875</ele>
        <time>2019-07-11T11:37:14.000Z</time>
      </trkpt>
      <trkpt lat="43.56231962330639362335205078125" lon="-6.179372370243072509765625">
        <ele>121</ele>
        <time>2019-07-11T11:37:16.000Z</time>
      </trkpt>
      <trkpt lat="43.562062717974185943603515625" lon="-6.1791214160621166229248046875">
        <ele>122.40000152587890625</ele>
        <time>2019-07-11T11:37:18.000Z</time>
      </trkpt>
      <trkpt lat="43.561832718551158905029296875" lon="-6.178883202373981475830078125">
        <ele>123.59999847412109375</ele>
        <time>2019-07-11T11:37:20.000Z</time>
      </trkpt>
      <trkpt lat="43.56173825450241565704345703125" lon="-6.1787675321102142333984375">
        <ele>124.59999847412109375</ele>
        <time>2019-07-11T11:37:21.000Z</time>
      </trkpt>
      <trkpt lat="43.56165745295584201812744140625" lon="-6.17864859290421009063720703125">
        <ele>125.1999969482421875</ele>
        <time>2019-07-11T11:37:22.000Z</time>
      </trkpt>
      <trkpt lat="43.5615945048630237579345703125" lon="-6.17852034978568553924560546875">
        <ele>125.59999847412109375</ele>
        <time>2019-07-11T11:37:23.000Z</time>
      </trkpt>
      <trkpt lat="43.5615267790853977203369140625" lon="-6.1782191880047321319580078125">
        <ele>125.8000030517578125</ele>
        <time>2019-07-11T11:37:25.000Z</time>
      </trkpt>
      <trkpt lat="43.561514876782894134521484375" lon="-6.1776405014097690582275390625">
        <ele>126</ele>
        <time>2019-07-11T11:37:29.000Z</time>
      </trkpt>
      <trkpt lat="43.5614835284650325775146484375" lon="-6.1775177903473377227783203125">
        <ele>126.40000152587890625</ele>
        <time>2019-07-11T11:37:30.000Z</time>
      </trkpt>
      <trkpt lat="43.56143566779792308807373046875" lon="-6.17741896770894527435302734375">
        <ele>126.8000030517578125</ele>
        <time>2019-07-11T11:37:31.000Z</time>
      </trkpt>
      <trkpt lat="43.5613158904016017913818359375" lon="-6.17731134407222270965576171875">
        <ele>127.59999847412109375</ele>
        <time>2019-07-11T11:37:33.000Z</time>
      </trkpt>
      <trkpt lat="43.561189658939838409423828125" lon="-6.1773109249770641326904296875">
        <ele>128</ele>
        <time>2019-07-11T11:37:35.000Z</time>
      </trkpt>
      <trkpt lat="43.56102964840829372406005859375" lon="-6.17742634378373622894287109375">
        <ele>128.600006103515625</ele>
        <time>2019-07-11T11:37:40.000Z</time>
      </trkpt>
      <trkpt lat="43.5609410516917705535888671875" lon="-6.17740035988390445709228515625">
        <ele>128.8000030517578125</ele>
        <time>2019-07-11T11:37:43.000Z</time>
      </trkpt>
      <trkpt lat="43.5608562268316745758056640625" lon="-6.1772797442972660064697265625">
        <ele>128.600006103515625</ele>
        <time>2019-07-11T11:37:45.000Z</time>
      </trkpt>
      <trkpt lat="43.56057107448577880859375" lon="-6.176695190370082855224609375">
        <ele>128.399993896484375</ele>
        <time>2019-07-11T11:37:50.000Z</time>
      </trkpt>
      <trkpt lat="43.5602497123181819915771484375" lon="-6.17606663145124912261962890625">
        <ele>128.399993896484375</ele>
        <time>2019-07-11T11:37:54.000Z</time>
      </trkpt>
      <trkpt lat="43.55998978950083255767822265625" lon="-6.17554427124559879302978515625">
        <ele>129.399993896484375</ele>
        <time>2019-07-11T11:37:57.000Z</time>
      </trkpt>
      <trkpt lat="43.55989809148013591766357421875" lon="-6.17536506615579128265380859375">
        <ele>130.600006103515625</ele>
        <time>2019-07-11T11:37:58.000Z</time>
      </trkpt>
      <trkpt lat="43.559806309640407562255859375" lon="-6.1751832626760005950927734375">
        <ele>131.600006103515625</ele>
        <time>2019-07-11T11:37:59.000Z</time>
      </trkpt>
      <trkpt lat="43.5596220754086971282958984375" lon="-6.17481454275548458099365234375">
        <ele>133</ele>
        <time>2019-07-11T11:38:01.000Z</time>
      </trkpt>
      <trkpt lat="43.55943826027214527130126953125" lon="-6.1744439788162708282470703125">
        <ele>134</ele>
        <time>2019-07-11T11:38:03.000Z</time>
      </trkpt>
      <trkpt lat="43.55926391668617725372314453125" lon="-6.17409185506403446197509765625">
        <ele>135.399993896484375</ele>
        <time>2019-07-11T11:38:05.000Z</time>
      </trkpt>
      <trkpt lat="43.559181354939937591552734375" lon="-6.17392606101930141448974609375">
        <ele>136.600006103515625</ele>
        <time>2019-07-11T11:38:06.000Z</time>
      </trkpt>
      <trkpt lat="43.55909946374595165252685546875" lon="-6.17376261390745639801025390625">
        <ele>137.8000030517578125</ele>
        <time>2019-07-11T11:38:07.000Z</time>
      </trkpt>
      <trkpt lat="43.5590199194848537445068359375" lon="-6.17360168136656284332275390625">
        <ele>139</ele>
        <time>2019-07-11T11:38:08.000Z</time>
      </trkpt>
      <trkpt lat="43.55886359699070453643798828125" lon="-6.17329557426273822784423828125">
        <ele>140.600006103515625</ele>
        <time>2019-07-11T11:38:10.000Z</time>
      </trkpt>
      <trkpt lat="43.55878212489187717437744140625" lon="-6.17314092814922332763671875">
        <ele>142</ele>
        <time>2019-07-11T11:38:11.000Z</time>
      </trkpt>
      <trkpt lat="43.5587000660598278045654296875" lon="-6.17298175580799579620361328125">
        <ele>143.1999969482421875</ele>
        <time>2019-07-11T11:38:12.000Z</time>
      </trkpt>
      <trkpt lat="43.55853251181542873382568359375" lon="-6.1726576276123523712158203125">
        <ele>145</ele>
        <time>2019-07-11T11:38:14.000Z</time>
      </trkpt>
      <trkpt lat="43.55844902805984020233154296875" lon="-6.1724980361759662628173828125">
        <ele>146</ele>
        <time>2019-07-11T11:38:15.000Z</time>
      </trkpt>
      <trkpt lat="43.55836638249456882476806640625" lon="-6.17234137840569019317626953125">
        <ele>147</ele>
        <time>2019-07-11T11:38:16.000Z</time>
      </trkpt>
      <trkpt lat="43.5581981576979160308837890625" lon="-6.172031499445438385009765625">
        <ele>148.399993896484375</ele>
        <time>2019-07-11T11:38:18.000Z</time>
      </trkpt>
      <trkpt lat="43.5580271668732166290283203125" lon="-6.17172472178936004638671875">
        <ele>149.600006103515625</ele>
        <time>2019-07-11T11:38:20.000Z</time>
      </trkpt>
      <trkpt lat="43.55779943056404590606689453125" lon="-6.1713014356791973114013671875">
        <ele>150.8000030517578125</ele>
        <time>2019-07-11T11:38:23.000Z</time>
      </trkpt>
      <trkpt lat="43.5576697625219821929931640625" lon="-6.17106112651526927947998046875">
        <ele>151.8000030517578125</ele>
        <time>2019-07-11T11:38:25.000Z</time>
      </trkpt>
      <trkpt lat="43.55755886994302272796630859375" lon="-6.17085593752562999725341796875">
        <ele>152.8000030517578125</ele>
        <time>2019-07-11T11:38:27.000Z</time>
      </trkpt>
      <trkpt lat="43.55746314860880374908447265625" lon="-6.17069466970860958099365234375">
        <ele>153.600006103515625</ele>
        <time>2019-07-11T11:38:29.000Z</time>
      </trkpt>
      <trkpt lat="43.55741838924586772918701171875" lon="-6.1706499941647052764892578125">
        <ele>154</ele>
        <time>2019-07-11T11:38:30.000Z</time>
      </trkpt>
      <trkpt lat="43.55737362988293170928955078125" lon="-6.170624010264873504638671875">
        <ele>154.600006103515625</ele>
        <time>2019-07-11T11:38:31.000Z</time>
      </trkpt>
      <trkpt lat="43.55732233263552188873291015625" lon="-6.170608587563037872314453125">
        <ele>155.1999969482421875</ele>
        <time>2019-07-11T11:38:32.000Z</time>
      </trkpt>
      <trkpt lat="43.55719123966991901397705078125" lon="-6.17057807743549346923828125">
        <ele>156</ele>
        <time>2019-07-11T11:38:34.000Z</time>
      </trkpt>
      <trkpt lat="43.5571212507784366607666015625" lon="-6.17053993977606296539306640625">
        <ele>156.1999969482421875</ele>
        <time>2019-07-11T11:38:35.000Z</time>
      </trkpt>
      <trkpt lat="43.55705805122852325439453125" lon="-6.1704768240451812744140625">
        <ele>156.399993896484375</ele>
        <time>2019-07-11T11:38:36.000Z</time>
      </trkpt>
      <trkpt lat="43.556974567472934722900390625" lon="-6.17030189372599124908447265625">
        <ele>156.8000030517578125</ele>
        <time>2019-07-11T11:38:38.000Z</time>
      </trkpt>
      <trkpt lat="43.556970544159412384033203125" lon="-6.17000970058143138885498046875">
        <ele>157.1999969482421875</ele>
        <time>2019-07-11T11:38:41.000Z</time>
      </trkpt>
      <trkpt lat="43.556937016546726226806640625" lon="-6.169777102768421173095703125">
        <ele>157.1999969482421875</ele>
        <time>2019-07-11T11:38:43.000Z</time>
      </trkpt>
      <trkpt lat="43.55663417838513851165771484375" lon="-6.16917720995843410491943359375">
        <ele>157</ele>
        <time>2019-07-11T11:38:48.000Z</time>
      </trkpt>
      <trkpt lat="43.55631331913173198699951171875" lon="-6.16858293302357196807861328125">
        <ele>156.1999969482421875</ele>
        <time>2019-07-11T11:38:53.000Z</time>
      </trkpt>
      <trkpt lat="43.55609773658215999603271484375" lon="-6.16822871379554271697998046875">
        <ele>156.1999969482421875</ele>
        <time>2019-07-11T11:38:57.000Z</time>
      </trkpt>
      <trkpt lat="43.55580084957182407379150390625" lon="-6.16769394837319850921630859375">
        <ele>155.600006103515625</ele>
        <time>2019-07-11T11:39:02.000Z</time>
      </trkpt>
      <trkpt lat="43.55572993867099285125732421875" lon="-6.1675771884620189666748046875">
        <ele>155.1999969482421875</ele>
        <time>2019-07-11T11:39:03.000Z</time>
      </trkpt>
      <trkpt lat="43.5555337183177471160888671875" lon="-6.16724350489675998687744140625">
        <ele>154</ele>
        <time>2019-07-11T11:39:06.000Z</time>
      </trkpt>
      <trkpt lat="43.55543154291808605194091796875" lon="-6.16709522902965545654296875">
        <ele>153.600006103515625</ele>
        <time>2019-07-11T11:39:08.000Z</time>
      </trkpt>
      <trkpt lat="43.55532626621425151824951171875" lon="-6.16703831590712070465087890625">
        <ele>153.399993896484375</ele>
        <time>2019-07-11T11:39:10.000Z</time>
      </trkpt>
      <trkpt lat="43.5549137927591800689697265625" lon="-6.1669425107538700103759765625">
        <ele>153.8000030517578125</ele>
        <time>2019-07-11T11:40:12.000Z</time>
      </trkpt>
      <trkpt lat="43.5549137927591800689697265625" lon="-6.1669425107538700103759765625">
        <ele>153.600006103515625</ele>
        <time>2019-07-11T11:40:54.000Z</time>
      </trkpt>
      <trkpt lat="43.55485905893146991729736328125" lon="-6.166827678680419921875">
        <ele>153.8000030517578125</ele>
        <time>2019-07-11T11:46:12.000Z</time>
      </trkpt>
      <trkpt lat="43.55487347580492496490478515625" lon="-6.16683832369744777679443359375">
        <ele>154.1999969482421875</ele>
        <time>2019-07-11T11:46:21.000Z</time>
      </trkpt>
      <trkpt lat="43.55486492626368999481201171875" lon="-6.16675701923668384552001953125">
        <ele>154.1999969482421875</ele>
        <time>2019-07-11T11:47:02.000Z</time>
      </trkpt>
      <trkpt lat="43.5548614896833896636962890625" lon="-6.1664856970310211181640625">
        <ele>153.8000030517578125</ele>
        <time>2019-07-11T11:47:06.000Z</time>
      </trkpt>
      <trkpt lat="43.55486660264432430267333984375" lon="-6.1662823520600795745849609375">
        <ele>153</ele>
        <time>2019-07-11T11:47:08.000Z</time>
      </trkpt>
      <trkpt lat="43.55486677028238773345947265625" lon="-6.16619342006742954254150390625">
        <ele>152.600006103515625</ele>
        <time>2019-07-11T11:47:09.000Z</time>
      </trkpt>
      <trkpt lat="43.5548477433621883392333984375" lon="-6.16604153998196125030517578125">
        <ele>151.8000030517578125</ele>
        <time>2019-07-11T11:47:11.000Z</time>
      </trkpt>
      <trkpt lat="43.5545991361141204833984375" lon="-6.16552705876529216766357421875">
        <ele>151.1999969482421875</ele>
        <time>2019-07-11T11:47:17.000Z</time>
      </trkpt>
      <trkpt lat="43.554377853870391845703125" lon="-6.165128834545612335205078125">
        <ele>153.1999969482421875</ele>
        <time>2019-07-11T11:47:20.000Z</time>
      </trkpt>
      <trkpt lat="43.5542102158069610595703125" lon="-6.16481401026248931884765625">
        <ele>154.399993896484375</ele>
        <time>2019-07-11T11:47:22.000Z</time>
      </trkpt>
      <trkpt lat="43.55396144092082977294921875" lon="-6.1643278598785400390625">
        <ele>153.399993896484375</ele>
        <time>2019-07-11T11:47:25.000Z</time>
      </trkpt>
      <trkpt lat="43.55387737043201923370361328125" lon="-6.1641681008040904998779296875">
        <ele>152.399993896484375</ele>
        <time>2019-07-11T11:47:26.000Z</time>
      </trkpt>
      <trkpt lat="43.55379438959062099456787109375" lon="-6.16401110775768756866455078125">
        <ele>151</ele>
        <time>2019-07-11T11:47:27.000Z</time>
      </trkpt>
      <trkpt lat="43.55348995886743068695068359375" lon="-6.16345287300646305084228515625">
        <ele>151.399993896484375</ele>
        <time>2019-07-11T11:47:31.000Z</time>
      </trkpt>
      <trkpt lat="43.55321033857762813568115234375" lon="-6.1629369668662548065185546875">
        <ele>150.600006103515625</ele>
        <time>2019-07-11T11:47:35.000Z</time>
      </trkpt>
      <trkpt lat="43.55313758365809917449951171875" lon="-6.1628072150051593780517578125">
        <ele>149.8000030517578125</ele>
        <time>2019-07-11T11:47:36.000Z</time>
      </trkpt>
      <trkpt lat="43.55298511683940887451171875" lon="-6.16253807209432125091552734375">
        <ele>148.8000030517578125</ele>
        <time>2019-07-11T11:47:38.000Z</time>
      </trkpt>
      <trkpt lat="43.5527135431766510009765625" lon="-6.1621152050793170928955078125">
        <ele>147.399993896484375</ele>
        <time>2019-07-11T11:47:41.000Z</time>
      </trkpt>
      <trkpt lat="43.552366197109222412109375" lon="-6.1616873927414417266845703125">
        <ele>146.1999969482421875</ele>
        <time>2019-07-11T11:47:44.000Z</time>
      </trkpt>
      <trkpt lat="43.55195707641541957855224609375" lon="-6.1613045074045658111572265625">
        <ele>145.399993896484375</ele>
        <time>2019-07-11T11:47:47.000Z</time>
      </trkpt>
      <trkpt lat="43.55180821381509304046630859375" lon="-6.1611921899020671844482421875">
        <ele>144.8000030517578125</ele>
        <time>2019-07-11T11:47:48.000Z</time>
      </trkpt>
      <trkpt lat="43.55165398679673671722412109375" lon="-6.1610864102840423583984375">
        <ele>143.600006103515625</ele>
        <time>2019-07-11T11:47:49.000Z</time>
      </trkpt>
      <trkpt lat="43.55133019387722015380859375" lon="-6.16089538671076297760009765625">
        <ele>141.8000030517578125</ele>
        <time>2019-07-11T11:47:51.000Z</time>
      </trkpt>
      <trkpt lat="43.55083608068525791168212890625" lon="-6.16064745001494884490966796875">
        <ele>140.399993896484375</ele>
        <time>2019-07-11T11:47:54.000Z</time>
      </trkpt>
      <trkpt lat="43.55036057531833648681640625" lon="-6.16041426546871662139892578125">
        <ele>138.600006103515625</ele>
        <time>2019-07-11T11:47:57.000Z</time>
      </trkpt>
      <trkpt lat="43.5498918592929840087890625" lon="-6.1601806618273258209228515625">
        <ele>138.1999969482421875</ele>
        <time>2019-07-11T11:48:00.000Z</time>
      </trkpt>
      <trkpt lat="43.54942892678081989288330078125" lon="-6.159932054579257965087890625">
        <ele>138.8000030517578125</ele>
        <time>2019-07-11T11:48:03.000Z</time>
      </trkpt>
      <trkpt lat="43.5489961691200733184814453125" lon="-6.1596103571355342864990234375">
        <ele>136.8000030517578125</ele>
        <time>2019-07-11T11:48:06.000Z</time>
      </trkpt>
      <trkpt lat="43.548860885202884674072265625" lon="-6.15947834216058254241943359375">
        <ele>136</ele>
        <time>2019-07-11T11:48:07.000Z</time>
      </trkpt>
      <trkpt lat="43.5487304627895355224609375" lon="-6.15933266468346118927001953125">
        <ele>135.600006103515625</ele>
        <time>2019-07-11T11:48:08.000Z</time>
      </trkpt>
      <trkpt lat="43.54836744256317615509033203125" lon="-6.1588408984243869781494140625">
        <ele>135.1999969482421875</ele>
        <time>2019-07-11T11:48:11.000Z</time>
      </trkpt>
      <trkpt lat="43.5480369441211223602294921875" lon="-6.1583155207335948944091796875">
        <ele>135.8000030517578125</ele>
        <time>2019-07-11T11:48:14.000Z</time>
      </trkpt>
      <trkpt lat="43.54769605211913585662841796875" lon="-6.15779408253729343414306640625">
        <ele>136.8000030517578125</ele>
        <time>2019-07-11T11:48:17.000Z</time>
      </trkpt>
      <trkpt lat="43.54747141711413860321044921875" lon="-6.1574454791843891143798828125">
        <ele>134.1999969482421875</ele>
        <time>2019-07-11T11:48:19.000Z</time>
      </trkpt>
      <trkpt lat="43.54736295528709888458251953125" lon="-6.1572714708745479583740234375">
        <ele>132.8000030517578125</ele>
        <time>2019-07-11T11:48:20.000Z</time>
      </trkpt>
      <trkpt lat="43.547255583107471466064453125" lon="-6.15709788165986537933349609375">
        <ele>129.399993896484375</ele>
        <time>2019-07-11T11:48:21.000Z</time>
      </trkpt>
      <trkpt lat="43.54715039022266864776611328125" lon="-6.156923957169055938720703125">
        <ele>127.1999969482421875</ele>
        <time>2019-07-11T11:48:22.000Z</time>
      </trkpt>
      <trkpt lat="43.5470485500991344451904296875" lon="-6.15675724111497402191162109375">
        <ele>124.8000030517578125</ele>
        <time>2019-07-11T11:48:23.000Z</time>
      </trkpt>
      <trkpt lat="43.54695274494588375091552734375" lon="-6.15659379400312900543212890625">
        <ele>123.1999969482421875</ele>
        <time>2019-07-11T11:48:24.000Z</time>
      </trkpt>
      <trkpt lat="43.54664160870015621185302734375" lon="-6.1559454537928104400634765625">
        <ele>123.8000030517578125</ele>
        <time>2019-07-11T11:48:28.000Z</time>
      </trkpt>
      <trkpt lat="43.54645787738263607025146484375" lon="-6.15536148659884929656982421875">
        <ele>124</ele>
        <time>2019-07-11T11:48:31.000Z</time>
      </trkpt>
      <trkpt lat="43.54636944830417633056640625" lon="-6.15491540171205997467041015625">
        <ele>121.8000030517578125</ele>
        <time>2019-07-11T11:48:33.000Z</time>
      </trkpt>
      <trkpt lat="43.5463384352624416351318359375" lon="-6.15467618219554424285888671875">
        <ele>120.40000152587890625</ele>
        <time>2019-07-11T11:48:34.000Z</time>
      </trkpt>
      <trkpt lat="43.54631756432354450225830078125" lon="-6.154426150023937225341796875">
        <ele>119</ele>
        <time>2019-07-11T11:48:35.000Z</time>
      </trkpt>
      <trkpt lat="43.54630515910685062408447265625" lon="-6.15416974760591983795166015625">
        <ele>117.8000030517578125</ele>
        <time>2019-07-11T11:48:36.000Z</time>
      </trkpt>
      <trkpt lat="43.54629610665142536163330078125" lon="-6.153912842273712158203125">
        <ele>115.8000030517578125</ele>
        <time>2019-07-11T11:48:37.000Z</time>
      </trkpt>
      <trkpt lat="43.54628822766244411468505859375" lon="-6.153655350208282470703125">
        <ele>113.8000030517578125</ele>
        <time>2019-07-11T11:48:38.000Z</time>
      </trkpt>
      <trkpt lat="43.546277582645416259765625" lon="-6.153139360249042510986328125">
        <ele>112.40000152587890625</ele>
        <time>2019-07-11T11:48:40.000Z</time>
      </trkpt>
      <trkpt lat="43.5462628304958343505859375" lon="-6.1526235379278659820556640625">
        <ele>111.59999847412109375</ele>
        <time>2019-07-11T11:48:42.000Z</time>
      </trkpt>
      <trkpt lat="43.54626676999032497406005859375" lon="-6.1518829129636287689208984375">
        <ele>112.8000030517578125</ele>
        <time>2019-07-11T11:48:45.000Z</time>
      </trkpt>
      <trkpt lat="43.54637439362704753875732421875" lon="-6.1511634103953838348388671875">
        <ele>113.40000152587890625</ele>
        <time>2019-07-11T11:48:48.000Z</time>
      </trkpt>
      <trkpt lat="43.54642082937061786651611328125" lon="-6.15093165077269077301025390625">
        <ele>114</ele>
        <time>2019-07-11T11:48:49.000Z</time>
      </trkpt>
      <trkpt lat="43.54650313965976238250732421875" lon="-6.15047751925885677337646484375">
        <ele>115.1999969482421875</ele>
        <time>2019-07-11T11:48:51.000Z</time>
      </trkpt>
      <trkpt lat="43.54655577801167964935302734375" lon="-6.15002690814435482025146484375">
        <ele>117.1999969482421875</ele>
        <time>2019-07-11T11:48:53.000Z</time>
      </trkpt>
      <trkpt lat="43.54657019488513469696044921875" lon="-6.14959289319813251495361328125">
        <ele>119.1999969482421875</ele>
        <time>2019-07-11T11:48:55.000Z</time>
      </trkpt>
      <trkpt lat="43.54656432755291461944580078125" lon="-6.14937722682952880859375">
        <ele>120.40000152587890625</ele>
        <time>2019-07-11T11:48:56.000Z</time>
      </trkpt>
      <trkpt lat="43.54649375192821025848388671875" lon="-6.14872905425727367401123046875">
        <ele>121.8000030517578125</ele>
        <time>2019-07-11T11:48:59.000Z</time>
      </trkpt>
      <trkpt lat="43.54634455405175685882568359375" lon="-6.1480802111327648162841796875">
        <ele>121.59999847412109375</ele>
        <time>2019-07-11T11:49:02.000Z</time>
      </trkpt>
      <trkpt lat="43.54622284881770610809326171875" lon="-6.147639490664005279541015625">
        <ele>120.40000152587890625</ele>
        <time>2019-07-11T11:49:04.000Z</time>
      </trkpt>
      <trkpt lat="43.5460346750915050506591796875" lon="-6.14696390926837921142578125">
        <ele>120.1999969482421875</ele>
        <time>2019-07-11T11:49:07.000Z</time>
      </trkpt>
      <trkpt lat="43.5458516143262386322021484375" lon="-6.14631590433418750762939453125">
        <ele>120</ele>
        <time>2019-07-11T11:49:10.000Z</time>
      </trkpt>
      <trkpt lat="43.54569780640304088592529296875" lon="-6.14589110948145389556884765625">
        <ele>118.40000152587890625</ele>
        <time>2019-07-11T11:49:12.000Z</time>
      </trkpt>
      <trkpt lat="43.54549278505146503448486328125" lon="-6.145472936332225799560546875">
        <ele>116.40000152587890625</ele>
        <time>2019-07-11T11:49:14.000Z</time>
      </trkpt>
      <trkpt lat="43.54537862353026866912841796875" lon="-6.14526682533323764801025390625">
        <ele>115</ele>
        <time>2019-07-11T11:49:15.000Z</time>
      </trkpt>
      <trkpt lat="43.5452650487422943115234375" lon="-6.14505928941071033477783203125">
        <ele>113.8000030517578125</ele>
        <time>2019-07-11T11:49:16.000Z</time>
      </trkpt>
      <trkpt lat="43.54515784420073032379150390625" lon="-6.14484823308885097503662109375">
        <ele>112.40000152587890625</ele>
        <time>2019-07-11T11:49:17.000Z</time>
      </trkpt>
      <trkpt lat="43.54506379924714565277099609375" lon="-6.1446297168731689453125">
        <ele>111.8000030517578125</ele>
        <time>2019-07-11T11:49:18.000Z</time>
      </trkpt>
      <trkpt lat="43.5449872724711894989013671875" lon="-6.14440298639237880706787109375">
        <ele>111.40000152587890625</ele>
        <time>2019-07-11T11:49:19.000Z</time>
      </trkpt>
      <trkpt lat="43.54484100826084613800048828125" lon="-6.14370242692530155181884765625">
        <ele>111.59999847412109375</ele>
        <time>2019-07-11T11:49:22.000Z</time>
      </trkpt>
      <trkpt lat="43.54480714537203311920166015625" lon="-6.1434735171496868133544921875">
        <ele>112.59999847412109375</ele>
        <time>2019-07-11T11:49:23.000Z</time>
      </trkpt>
      <trkpt lat="43.54477613233029842376708984375" lon="-6.14324913360178470611572265625">
        <ele>115.40000152587890625</ele>
        <time>2019-07-11T11:49:24.000Z</time>
      </trkpt>
      <trkpt lat="43.544755093753337860107421875" lon="-6.1430244147777557373046875">
        <ele>117.40000152587890625</ele>
        <time>2019-07-11T11:49:25.000Z</time>
      </trkpt>
      <trkpt lat="43.5447519086301326751708984375" lon="-6.14280112087726593017578125">
        <ele>119.8000030517578125</ele>
        <time>2019-07-11T11:49:26.000Z</time>
      </trkpt>
      <trkpt lat="43.5447636432945728302001953125" lon="-6.1425738036632537841796875">
        <ele>121.1999969482421875</ele>
        <time>2019-07-11T11:49:27.000Z</time>
      </trkpt>
      <trkpt lat="43.54484771378338336944580078125" lon="-6.142114810645580291748046875">
        <ele>121.1999969482421875</ele>
        <time>2019-07-11T11:49:29.000Z</time>
      </trkpt>
      <trkpt lat="43.54506631381809711456298828125" lon="-6.14141349680721759796142578125">
        <ele>122.1999969482421875</ele>
        <time>2019-07-11T11:49:32.000Z</time>
      </trkpt>
      <trkpt lat="43.5451421700417995452880859375" lon="-6.14118316210806369781494140625">
        <ele>122.8000030517578125</ele>
        <time>2019-07-11T11:49:33.000Z</time>
      </trkpt>
      <trkpt lat="43.54528248310089111328125" lon="-6.14075283519923686981201171875">
        <ele>124.59999847412109375</ele>
        <time>2019-07-11T11:49:35.000Z</time>
      </trkpt>
      <trkpt lat="43.5454165935516357421875" lon="-6.14036433398723602294921875">
        <ele>126</ele>
        <time>2019-07-11T11:49:37.000Z</time>
      </trkpt>
      <trkpt lat="43.5454742610454559326171875" lon="-6.14019309170544147491455078125">
        <ele>127.40000152587890625</ele>
        <time>2019-07-11T11:49:38.000Z</time>
      </trkpt>
      <trkpt lat="43.54552547447383403778076171875" lon="-6.14003886468708515167236328125">
        <ele>129.399993896484375</ele>
        <time>2019-07-11T11:49:39.000Z</time>
      </trkpt>
      <trkpt lat="43.5455689765512943267822265625" lon="-6.139897964894771575927734375">
        <ele>132.1999969482421875</ele>
        <time>2019-07-11T11:49:40.000Z</time>
      </trkpt>
      <trkpt lat="43.54560929350554943084716796875" lon="-6.13976527936756610870361328125">
        <ele>135.1999969482421875</ele>
        <time>2019-07-11T11:49:41.000Z</time>
      </trkpt>
      <trkpt lat="43.54565061628818511962890625" lon="-6.1396342702209949493408203125">
        <ele>138.1999969482421875</ele>
        <time>2019-07-11T11:49:42.000Z</time>
      </trkpt>
      <trkpt lat="43.54569562710821628570556640625" lon="-6.13949638791382312774658203125">
        <ele>140.1999969482421875</ele>
        <time>2019-07-11T11:49:43.000Z</time>
      </trkpt>
      <trkpt lat="43.54574591852724552154541015625" lon="-6.1393524706363677978515625">
        <ele>141.600006103515625</ele>
        <time>2019-07-11T11:49:44.000Z</time>
      </trkpt>
      <trkpt lat="43.54586158879101276397705078125" lon="-6.139031611382961273193359375">
        <ele>142.8000030517578125</ele>
        <time>2019-07-11T11:49:46.000Z</time>
      </trkpt>
      <trkpt lat="43.5461121238768100738525390625" lon="-6.138366423547267913818359375">
        <ele>142.399993896484375</ele>
        <time>2019-07-11T11:49:50.000Z</time>
      </trkpt>
      <trkpt lat="43.5461654327809810638427734375" lon="-6.13820875994861125946044921875">
        <ele>141.600006103515625</ele>
        <time>2019-07-11T11:49:51.000Z</time>
      </trkpt>
      <trkpt lat="43.54621245525777339935302734375" lon="-6.13805604167282581329345703125">
        <ele>141</ele>
        <time>2019-07-11T11:49:52.000Z</time>
      </trkpt>
      <trkpt lat="43.54632091708481311798095703125" lon="-6.137515492737293243408203125">
        <ele>143.8000030517578125</ele>
        <time>2019-07-11T11:49:56.000Z</time>
      </trkpt>
      <trkpt lat="43.54633114300668239593505859375" lon="-6.1374301649630069732666015625">
        <ele>145</ele>
        <time>2019-07-11T11:49:57.000Z</time>
      </trkpt>
      <trkpt lat="43.5463392734527587890625" lon="-6.13736369647085666656494140625">
        <ele>146.600006103515625</ele>
        <time>2019-07-11T11:49:58.000Z</time>
      </trkpt>
      <trkpt lat="43.54634572751820087432861328125" lon="-6.13730435259640216827392578125">
        <ele>147.8000030517578125</ele>
        <time>2019-07-11T11:49:59.000Z</time>
      </trkpt>
      <trkpt lat="43.5463513433933258056640625" lon="-6.1371887661516666412353515625">
        <ele>149.1999969482421875</ele>
        <time>2019-07-11T11:50:01.000Z</time>
      </trkpt>
      <trkpt lat="43.54635545052587985992431640625" lon="-6.13712514750659465789794921875">
        <ele>149.600006103515625</ele>
        <time>2019-07-11T11:50:02.000Z</time>
      </trkpt>
      <trkpt lat="43.5463981144130229949951171875" lon="-6.13699103705585002899169921875">
        <ele>150</ele>
        <time>2019-07-11T11:50:04.000Z</time>
      </trkpt>
      <trkpt lat="43.54647061787545680999755859375" lon="-6.13691627047955989837646484375">
        <ele>150.399993896484375</ele>
        <time>2019-07-11T11:50:06.000Z</time>
      </trkpt>
      <trkpt lat="43.54656063951551914215087890625" lon="-6.13692197017371654510498046875">
        <ele>151.1999969482421875</ele>
        <time>2019-07-11T11:50:08.000Z</time>
      </trkpt>
      <trkpt lat="43.546667508780956268310546875" lon="-6.1369758658111095428466796875">
        <ele>151.399993896484375</ele>
        <time>2019-07-11T11:50:10.000Z</time>
      </trkpt>
      <trkpt lat="43.54672308079898357391357421875" lon="-6.1369986645877361297607421875">
        <ele>151.1999969482421875</ele>
        <time>2019-07-11T11:50:11.000Z</time>
      </trkpt>
      <trkpt lat="43.54684017598628997802734375" lon="-6.1369993351399898529052734375">
        <ele>150</ele>
        <time>2019-07-11T11:50:13.000Z</time>
      </trkpt>
      <trkpt lat="43.5469387471675872802734375" lon="-6.13692582584917545318603515625">
        <ele>148.8000030517578125</ele>
        <time>2019-07-11T11:50:15.000Z</time>
      </trkpt>
      <trkpt lat="43.546997420489788055419921875" lon="-6.13678769208490848541259765625">
        <ele>147.600006103515625</ele>
        <time>2019-07-11T11:50:17.000Z</time>
      </trkpt>
      <trkpt lat="43.54704444296658039093017578125" lon="-6.13647337071597576141357421875">
        <ele>146.1999969482421875</ele>
        <time>2019-07-11T11:50:20.000Z</time>
      </trkpt>
      <trkpt lat="43.54707243852317333221435546875" lon="-6.1362399347126483917236328125">
        <ele>145</ele>
        <time>2019-07-11T11:50:22.000Z</time>
      </trkpt>
      <trkpt lat="43.5471149347722530364990234375" lon="-6.13591513596475124359130859375">
        <ele>143.8000030517578125</ele>
        <time>2019-07-11T11:50:25.000Z</time>
      </trkpt>
      <trkpt lat="43.5471736080944538116455078125" lon="-6.135445497930049896240234375">
        <ele>145</ele>
        <time>2019-07-11T11:50:32.000Z</time>
      </trkpt>
      <trkpt lat="43.547227419912815093994140625" lon="-6.13498239777982234954833984375">
        <ele>144.8000030517578125</ele>
        <time>2019-07-11T11:50:41.000Z</time>
      </trkpt>
      <trkpt lat="43.54721275158226490020751953125" lon="-6.1348347924649715423583984375">
        <ele>144.8000030517578125</ele>
        <time>2019-07-11T11:50:43.000Z</time>
      </trkpt>
      <trkpt lat="43.5471774637699127197265625" lon="-6.13469104282557964324951171875">
        <ele>144.8000030517578125</ele>
        <time>2019-07-11T11:50:45.000Z</time>
      </trkpt>
      <trkpt lat="43.54720101691782474517822265625" lon="-6.1345835030078887939453125">
        <ele>145</ele>
        <time>2019-07-11T11:50:47.000Z</time>
      </trkpt>
      <trkpt lat="43.54727863334119319915771484375" lon="-6.13455944694578647613525390625">
        <ele>145.399993896484375</ele>
        <time>2019-07-11T11:50:49.000Z</time>
      </trkpt>
      <trkpt lat="43.5476453416049480438232421875" lon="-6.1349196173250675201416015625">
        <ele>144.399993896484375</ele>
        <time>2019-07-11T11:50:55.000Z</time>
      </trkpt>
      <trkpt lat="43.54771952144801616668701171875" lon="-6.1350046098232269287109375">
        <ele>143.8000030517578125</ele>
        <time>2019-07-11T11:50:56.000Z</time>
      </trkpt>
      <trkpt lat="43.54787307791411876678466796875" lon="-6.13519378937780857086181640625">
        <ele>142.600006103515625</ele>
        <time>2019-07-11T11:50:58.000Z</time>
      </trkpt>
      <trkpt lat="43.548042476177215576171875" lon="-6.1354071088135242462158203125">
        <ele>141.600006103515625</ele>
        <time>2019-07-11T11:51:00.000Z</time>
      </trkpt>
      <trkpt lat="43.548132665455341339111328125" lon="-6.13552001304924488067626953125">
        <ele>140.399993896484375</ele>
        <time>2019-07-11T11:51:01.000Z</time>
      </trkpt>
      <trkpt lat="43.54822394438087940216064453125" lon="-6.13563115708529949188232421875">
        <ele>139.1999969482421875</ele>
        <time>2019-07-11T11:51:02.000Z</time>
      </trkpt>
      <trkpt lat="43.54831404983997344970703125" lon="-6.13573978655040264129638671875">
        <ele>137.8000030517578125</ele>
        <time>2019-07-11T11:51:03.000Z</time>
      </trkpt>
      <trkpt lat="43.54848663322627544403076171875" lon="-6.1359515972435474395751953125">
        <ele>136</ele>
        <time>2019-07-11T11:51:05.000Z</time>
      </trkpt>
      <trkpt lat="43.54879223741590976715087890625" lon="-6.13632802851498126983642578125">
        <ele>135</ele>
        <time>2019-07-11T11:51:09.000Z</time>
      </trkpt>
      <trkpt lat="43.5491839237511157989501953125" lon="-6.136812753975391387939453125">
        <ele>134.8000030517578125</ele>
        <time>2019-07-11T11:51:15.000Z</time>
      </trkpt>
      <trkpt lat="43.54931878857314586639404296875" lon="-6.1369733512401580810546875">
        <ele>133.8000030517578125</ele>
        <time>2019-07-11T11:51:17.000Z</time>
      </trkpt>
      <trkpt lat="43.54945122264325618743896484375" lon="-6.137135960161685943603515625">
        <ele>132.8000030517578125</ele>
        <time>2019-07-11T11:51:19.000Z</time>
      </trkpt>
      <trkpt lat="43.54963411577045917510986328125" lon="-6.1373765207827091217041015625">
        <ele>131.8000030517578125</ele>
        <time>2019-07-11T11:51:22.000Z</time>
      </trkpt>
      <trkpt lat="43.5498102195560932159423828125" lon="-6.1376155726611614227294921875">
        <ele>131.399993896484375</ele>
        <time>2019-07-11T11:51:25.000Z</time>
      </trkpt>
      <trkpt lat="43.5501367785036563873291015625" lon="-6.13800189457833766937255859375">
        <ele>130.399993896484375</ele>
        <time>2019-07-11T11:51:30.000Z</time>
      </trkpt>
      <trkpt lat="43.55021171271800994873046875" lon="-6.13808169029653072357177734375">
        <ele>129.399993896484375</ele>
        <time>2019-07-11T11:51:31.000Z</time>
      </trkpt>
      <trkpt lat="43.55036258697509765625" lon="-6.13824983127415180206298828125">
        <ele>128.1999969482421875</ele>
        <time>2019-07-11T11:51:33.000Z</time>
      </trkpt>
      <trkpt lat="43.5507432930171489715576171875" lon="-6.13867194391787052154541015625">
        <ele>127.1999969482421875</ele>
        <time>2019-07-11T11:51:38.000Z</time>
      </trkpt>
      <trkpt lat="43.550820909440517425537109375" lon="-6.1387516558170318603515625">
        <ele>127.1999969482421875</ele>
        <time>2019-07-11T11:51:39.000Z</time>
      </trkpt>
      <trkpt lat="43.55112190358340740203857421875" lon="-6.13907326944172382354736328125">
        <ele>126</ele>
        <time>2019-07-11T11:51:43.000Z</time>
      </trkpt>
      <trkpt lat="43.55126992799341678619384765625" lon="-6.139238812029361724853515625">
        <ele>126</ele>
        <time>2019-07-11T11:51:45.000Z</time>
      </trkpt>
      <trkpt lat="43.55161475948989391326904296875" lon="-6.1397848092019557952880859375">
        <ele>125.59999847412109375</ele>
        <time>2019-07-11T11:51:50.000Z</time>
      </trkpt>
      <trkpt lat="43.55178616940975189208984375" lon="-6.140047498047351837158203125">
        <ele>124.59999847412109375</ele>
        <time>2019-07-11T11:51:52.000Z</time>
      </trkpt>
      <trkpt lat="43.551961518824100494384765625" lon="-6.1403175629675388336181640625">
        <ele>122.8000030517578125</ele>
        <time>2019-07-11T11:51:54.000Z</time>
      </trkpt>
      <trkpt lat="43.55228782631456851959228515625" lon="-6.14084084518253803253173828125">
        <ele>121.8000030517578125</ele>
        <time>2019-07-11T11:51:58.000Z</time>
      </trkpt>
      <trkpt lat="43.5525490902364253997802734375" lon="-6.14128961227834224700927734375">
        <ele>124</ele>
        <time>2019-07-11T11:52:02.000Z</time>
      </trkpt>
      <trkpt lat="43.552747070789337158203125" lon="-6.1416579969227313995361328125">
        <ele>124.8000030517578125</ele>
        <time>2019-07-11T11:52:05.000Z</time>
      </trkpt>
      <trkpt lat="43.55287556536495685577392578125" lon="-6.1419272236526012420654296875">
        <ele>125</ele>
        <time>2019-07-11T11:52:07.000Z</time>
      </trkpt>
      <trkpt lat="43.55308259837329387664794921875" lon="-6.142333410680294036865234375">
        <ele>123.8000030517578125</ele>
        <time>2019-07-11T11:52:10.000Z</time>
      </trkpt>
      <trkpt lat="43.5533688403666019439697265625" lon="-6.142899356782436370849609375">
        <ele>122.59999847412109375</ele>
        <time>2019-07-11T11:52:14.000Z</time>
      </trkpt>
      <trkpt lat="43.55362256057560443878173828125" lon="-6.14341677166521549224853515625">
        <ele>122.1999969482421875</ele>
        <time>2019-07-11T11:52:18.000Z</time>
      </trkpt>
      <trkpt lat="43.553869239985942840576171875" lon="-6.14394801668822765350341796875">
        <ele>121.8000030517578125</ele>
        <time>2019-07-11T11:52:23.000Z</time>
      </trkpt>
      <trkpt lat="43.55404500849545001983642578125" lon="-6.144402734935283660888671875">
        <ele>121.1999969482421875</ele>
        <time>2019-07-11T11:52:27.000Z</time>
      </trkpt>
      <trkpt lat="43.55418615974485874176025390625" lon="-6.1449658311903476715087890625">
        <ele>120</ele>
        <time>2019-07-11T11:52:31.000Z</time>
      </trkpt>
      <trkpt lat="43.55424701236188411712646484375" lon="-6.145321391522884368896484375">
        <ele>117.8000030517578125</ele>
        <time>2019-07-11T11:52:33.000Z</time>
      </trkpt>
      <trkpt lat="43.554281294345855712890625" lon="-6.14551140926778316497802734375">
        <ele>116</ele>
        <time>2019-07-11T11:52:34.000Z</time>
      </trkpt>
      <trkpt lat="43.55431892909109592437744140625" lon="-6.145708970725536346435546875">
        <ele>114.1999969482421875</ele>
        <time>2019-07-11T11:52:35.000Z</time>
      </trkpt>
      <trkpt lat="43.55435882695019245147705078125" lon="-6.14591156132519245147705078125">
        <ele>113</ele>
        <time>2019-07-11T11:52:36.000Z</time>
      </trkpt>
      <trkpt lat="43.5544246248900890350341796875" lon="-6.14630945026874542236328125">
        <ele>111</ele>
        <time>2019-07-11T11:52:38.000Z</time>
      </trkpt>
      <trkpt lat="43.55445521883666515350341796875" lon="-6.14649611525237560272216796875">
        <ele>109.40000152587890625</ele>
        <time>2019-07-11T11:52:39.000Z</time>
      </trkpt>
      <trkpt lat="43.55448623187839984893798828125" lon="-6.14666727371513843536376953125">
        <ele>107.40000152587890625</ele>
        <time>2019-07-11T11:52:40.000Z</time>
      </trkpt>
      <trkpt lat="43.5545221902430057525634765625" lon="-6.1468195728957653045654296875">
        <ele>106</ele>
        <time>2019-07-11T11:52:41.000Z</time>
      </trkpt>
      <trkpt lat="43.55457088910043239593505859375" lon="-6.1469560302793979644775390625">
        <ele>105.1999969482421875</ele>
        <time>2019-07-11T11:52:42.000Z</time>
      </trkpt>
      <trkpt lat="43.55463475920259952545166015625" lon="-6.1470864526927471160888671875">
        <ele>104.8000030517578125</ele>
        <time>2019-07-11T11:52:43.000Z</time>
      </trkpt>
      <trkpt lat="43.5547166503965854644775390625" lon="-6.14720304496586322784423828125">
        <ele>105</ele>
        <time>2019-07-11T11:52:44.000Z</time>
      </trkpt>
      <trkpt lat="43.55509509332478046417236328125" lon="-6.14768265746533870697021484375">
        <ele>103.40000152587890625</ele>
        <time>2019-07-11T11:52:48.000Z</time>
      </trkpt>
      <trkpt lat="43.55518528260290622711181640625" lon="-6.1478052847087383270263671875">
        <ele>101.1999969482421875</ele>
        <time>2019-07-11T11:52:49.000Z</time>
      </trkpt>
      <trkpt lat="43.5552696883678436279296875" lon="-6.14792187698185443878173828125">
        <ele>99.59999847412109375</ele>
        <time>2019-07-11T11:52:50.000Z</time>
      </trkpt>
      <trkpt lat="43.5553543455898761749267578125" lon="-6.14802874624729156494140625">
        <ele>98.59999847412109375</ele>
        <time>2019-07-11T11:52:51.000Z</time>
      </trkpt>
      <trkpt lat="43.5554445348680019378662109375" lon="-6.14812438376247882843017578125">
        <ele>97.59999847412109375</ele>
        <time>2019-07-11T11:52:52.000Z</time>
      </trkpt>
      <trkpt lat="43.5555444471538066864013671875" lon="-6.1482066102325916290283203125">
        <ele>96.8000030517578125</ele>
        <time>2019-07-11T11:52:53.000Z</time>
      </trkpt>
      <trkpt lat="43.5557583533227443695068359375" lon="-6.14834667183458805084228515625">
        <ele>95</ele>
        <time>2019-07-11T11:52:55.000Z</time>
      </trkpt>
      <trkpt lat="43.5559595189988613128662109375" lon="-6.14848480559885501861572265625">
        <ele>92.1999969482421875</ele>
        <time>2019-07-11T11:52:57.000Z</time>
      </trkpt>
      <trkpt lat="43.55605624616146087646484375" lon="-6.14854867570102214813232421875">
        <ele>90.59999847412109375</ele>
        <time>2019-07-11T11:52:58.000Z</time>
      </trkpt>
      <trkpt lat="43.55615682899951934814453125" lon="-6.1486012302339076995849609375">
        <ele>89.1999969482421875</ele>
        <time>2019-07-11T11:52:59.000Z</time>
      </trkpt>
      <trkpt lat="43.5562632791697978973388671875" lon="-6.14863836206495761871337890625">
        <ele>88.40000152587890625</ele>
        <time>2019-07-11T11:53:00.000Z</time>
      </trkpt>
      <trkpt lat="43.5563747584819793701171875" lon="-6.148662753403186798095703125">
        <ele>88</ele>
        <time>2019-07-11T11:53:01.000Z</time>
      </trkpt>
      <trkpt lat="43.55672319419682025909423828125" lon="-6.1487160623073577880859375">
        <ele>86.59999847412109375</ele>
        <time>2019-07-11T11:53:04.000Z</time>
      </trkpt>
      <trkpt lat="43.556838445365428924560546875" lon="-6.1487272940576076507568359375">
        <ele>85.40000152587890625</ele>
        <time>2019-07-11T11:53:05.000Z</time>
      </trkpt>
      <trkpt lat="43.55695344507694244384765625" lon="-6.14872603677213191986083984375">
        <ele>83.8000030517578125</ele>
        <time>2019-07-11T11:53:06.000Z</time>
      </trkpt>
      <trkpt lat="43.5570672713220119476318359375" lon="-6.14871212281286716461181640625">
        <ele>82.40000152587890625</ele>
        <time>2019-07-11T11:53:07.000Z</time>
      </trkpt>
      <trkpt lat="43.5571809299290180206298828125" lon="-6.14869485609233379364013671875">
        <ele>81.40000152587890625</ele>
        <time>2019-07-11T11:53:08.000Z</time>
      </trkpt>
      <trkpt lat="43.55741067789494991302490234375" lon="-6.14866174757480621337890625">
        <ele>79.40000152587890625</ele>
        <time>2019-07-11T11:53:10.000Z</time>
      </trkpt>
      <trkpt lat="43.55752550996840000152587890625" lon="-6.1486597359180450439453125">
        <ele>78.40000152587890625</ele>
        <time>2019-07-11T11:53:11.000Z</time>
      </trkpt>
      <trkpt lat="43.557767830789089202880859375" lon="-6.1486853845417499542236328125">
        <ele>76.59999847412109375</ele>
        <time>2019-07-11T11:53:13.000Z</time>
      </trkpt>
      <trkpt lat="43.55789934284985065460205078125" lon="-6.14871044643223285675048828125">
        <ele>75.1999969482421875</ele>
        <time>2019-07-11T11:53:14.000Z</time>
      </trkpt>
      <trkpt lat="43.5580308549106121063232421875" lon="-6.148751266300678253173828125">
        <ele>73.8000030517578125</ele>
        <time>2019-07-11T11:53:15.000Z</time>
      </trkpt>
      <trkpt lat="43.5581569187343120574951171875" lon="-6.1488094367086887359619140625">
        <ele>72.40000152587890625</ele>
        <time>2019-07-11T11:53:16.000Z</time>
      </trkpt>
      <trkpt lat="43.55827183462679386138916015625" lon="-6.148875989019870758056640625">
        <ele>71.40000152587890625</ele>
        <time>2019-07-11T11:53:17.000Z</time>
      </trkpt>
      <trkpt lat="43.55837191455066204071044921875" lon="-6.14894078113138675689697265625">
        <ele>70.1999969482421875</ele>
        <time>2019-07-11T11:53:18.000Z</time>
      </trkpt>
      <trkpt lat="43.55845556594431400299072265625" lon="-6.149002723395824432373046875">
        <ele>69</ele>
        <time>2019-07-11T11:53:19.000Z</time>
      </trkpt>
      <trkpt lat="43.5585941188037395477294921875" lon="-6.14910037256777286529541015625">
        <ele>67.8000030517578125</ele>
        <time>2019-07-11T11:53:21.000Z</time>
      </trkpt>
      <trkpt lat="43.55871574021875858306884765625" lon="-6.1491634882986545562744140625">
        <ele>67.40000152587890625</ele>
        <time>2019-07-11T11:53:23.000Z</time>
      </trkpt>
      <trkpt lat="43.5588519461452960968017578125" lon="-6.1491172201931476593017578125">
        <ele>67.1999969482421875</ele>
        <time>2019-07-11T11:53:26.000Z</time>
      </trkpt>
      <trkpt lat="43.55889997445046901702880859375" lon="-6.14908419549465179443359375">
        <ele>66.8000030517578125</ele>
        <time>2019-07-11T11:53:27.000Z</time>
      </trkpt>
      <trkpt lat="43.55896065942943096160888671875" lon="-6.1490602232515811920166015625">
        <ele>66.1999969482421875</ele>
        <time>2019-07-11T11:53:28.000Z</time>
      </trkpt>
      <trkpt lat="43.5590289719402790069580078125" lon="-6.14903147332370281219482421875">
        <ele>65.59999847412109375</ele>
        <time>2019-07-11T11:53:29.000Z</time>
      </trkpt>
      <trkpt lat="43.559091500937938690185546875" lon="-6.14899710752069950103759765625">
        <ele>64.40000152587890625</ele>
        <time>2019-07-11T11:53:30.000Z</time>
      </trkpt>
      <trkpt lat="43.55914271436631679534912109375" lon="-6.14896073006093502044677734375">
        <ele>63</ele>
        <time>2019-07-11T11:53:31.000Z</time>
      </trkpt>
      <trkpt lat="43.55918965302407741546630859375" lon="-6.148929633200168609619140625">
        <ele>61.799999237060546875</ele>
        <time>2019-07-11T11:53:32.000Z</time>
      </trkpt>
      <trkpt lat="43.5593198239803314208984375" lon="-6.1488436348736286163330078125">
        <ele>60.59999847412109375</ele>
        <time>2019-07-11T11:53:34.000Z</time>
      </trkpt>
      <trkpt lat="43.5594735480844974517822265625" lon="-6.14881999790668487548828125">
        <ele>59</ele>
        <time>2019-07-11T11:53:36.000Z</time>
      </trkpt>
      <trkpt lat="43.5595788247883319854736328125" lon="-6.14882343448698520660400390625">
        <ele>57.200000762939453125</ele>
        <time>2019-07-11T11:53:38.000Z</time>
      </trkpt>
      <trkpt lat="43.55962869711220264434814453125" lon="-6.14883181639015674591064453125">
        <ele>56.200000762939453125</ele>
        <time>2019-07-11T11:53:39.000Z</time>
      </trkpt>
      <trkpt lat="43.55968904681503772735595703125" lon="-6.148847155272960662841796875">
        <ele>55</ele>
        <time>2019-07-11T11:53:40.000Z</time>
      </trkpt>
      <trkpt lat="43.55981309898197650909423828125" lon="-6.1488751508295536041259765625">
        <ele>53.799999237060546875</ele>
        <time>2019-07-11T11:53:42.000Z</time>
      </trkpt>
      <trkpt lat="43.559969253838062286376953125" lon="-6.14890473894774913787841796875">
        <ele>52.59999847412109375</ele>
        <time>2019-07-11T11:53:45.000Z</time>
      </trkpt>
      <trkpt lat="43.5600150190293788909912109375" lon="-6.14889836870133876800537109375">
        <ele>52.200000762939453125</ele>
        <time>2019-07-11T11:53:46.000Z</time>
      </trkpt>
      <trkpt lat="43.56009003706276416778564453125" lon="-6.14885754883289337158203125">
        <ele>51.40000152587890625</ele>
        <time>2019-07-11T11:53:48.000Z</time>
      </trkpt>
      <trkpt lat="43.5601156018674373626708984375" lon="-6.14884036593139171600341796875">
        <ele>51</ele>
        <time>2019-07-11T11:53:49.000Z</time>
      </trkpt>
      <trkpt lat="43.56025549583137035369873046875" lon="-6.14872436039149761199951171875">
        <ele>50.40000152587890625</ele>
        <time>2019-07-11T11:53:53.000Z</time>
      </trkpt>
      <trkpt lat="43.56029639951884746551513671875" lon="-6.14869217388331890106201171875">
        <ele>50.200000762939453125</ele>
        <time>2019-07-11T11:53:54.000Z</time>
      </trkpt>
      <trkpt lat="43.56040804646909236907958984375" lon="-6.14859544672071933746337890625">
        <ele>49</ele>
        <time>2019-07-11T11:53:56.000Z</time>
      </trkpt>
      <trkpt lat="43.56054232455790042877197265625" lon="-6.14849721081554889678955078125">
        <ele>47.200000762939453125</ele>
        <time>2019-07-11T11:53:58.000Z</time>
      </trkpt>
      <trkpt lat="43.56069923378527164459228515625" lon="-6.1483970470726490020751953125">
        <ele>45.40000152587890625</ele>
        <time>2019-07-11T11:54:00.000Z</time>
      </trkpt>
      <trkpt lat="43.560781292617321014404296875" lon="-6.14832487888634204864501953125">
        <ele>44.40000152587890625</ele>
        <time>2019-07-11T11:54:01.000Z</time>
      </trkpt>
      <trkpt lat="43.5608592443168163299560546875" lon="-6.14827819168567657470703125">
        <ele>43.40000152587890625</ele>
        <time>2019-07-11T11:54:02.000Z</time>
      </trkpt>
      <trkpt lat="43.5609370283782482147216796875" lon="-6.14822127856314182281494140625">
        <ele>42.200000762939453125</ele>
        <time>2019-07-11T11:54:03.000Z</time>
      </trkpt>
      <trkpt lat="43.56108547188341617584228515625" lon="-6.1481690593063831329345703125">
        <ele>40.799999237060546875</ele>
        <time>2019-07-11T11:54:05.000Z</time>
      </trkpt>
      <trkpt lat="43.561233580112457275390625" lon="-6.14815103821456432342529296875">
        <ele>39.40000152587890625</ele>
        <time>2019-07-11T11:54:07.000Z</time>
      </trkpt>
      <trkpt lat="43.56130155734717845916748046875" lon="-6.1481385491788387298583984375">
        <ele>38.59999847412109375</ele>
        <time>2019-07-11T11:54:08.000Z</time>
      </trkpt>
      <trkpt lat="43.56136727146804332733154296875" lon="-6.14811382256448268890380859375">
        <ele>38</ele>
        <time>2019-07-11T11:54:09.000Z</time>
      </trkpt>
      <trkpt lat="43.56142326258122920989990234375" lon="-6.1480718292295932769775390625">
        <ele>37.59999847412109375</ele>
        <time>2019-07-11T11:54:10.000Z</time>
      </trkpt>
      <trkpt lat="43.56149383820593357086181640625" lon="-6.14798055030405521392822265625">
        <ele>36.799999237060546875</ele>
        <time>2019-07-11T11:54:12.000Z</time>
      </trkpt>
      <trkpt lat="43.5615388490259647369384765625" lon="-6.1477804742753505706787109375">
        <ele>35.59999847412109375</ele>
        <time>2019-07-11T11:54:16.000Z</time>
      </trkpt>
      <trkpt lat="43.5614805109798908233642578125" lon="-6.14764443598687648773193359375">
        <ele>35.200000762939453125</ele>
        <time>2019-07-11T11:54:18.000Z</time>
      </trkpt>
      <trkpt lat="43.561400212347507476806640625" lon="-6.147487275302410125732421875">
        <ele>34.200000762939453125</ele>
        <time>2019-07-11T11:54:20.000Z</time>
      </trkpt>
      <trkpt lat="43.56133240275084972381591796875" lon="-6.14734419621527194976806640625">
        <ele>32.799999237060546875</ele>
        <time>2019-07-11T11:54:22.000Z</time>
      </trkpt>
      <trkpt lat="43.56129862368106842041015625" lon="-6.14727227948606014251708984375">
        <ele>32.200000762939453125</ele>
        <time>2019-07-11T11:54:23.000Z</time>
      </trkpt>
      <trkpt lat="43.56127205304801464080810546875" lon="-6.14718854427337646484375">
        <ele>31.200000762939453125</ele>
        <time>2019-07-11T11:54:24.000Z</time>
      </trkpt>
      <trkpt lat="43.56121690012514591217041015625" lon="-6.14699483849108219146728515625">
        <ele>29.200000762939453125</ele>
        <time>2019-07-11T11:54:26.000Z</time>
      </trkpt>
      <trkpt lat="43.56119711883366107940673828125" lon="-6.14689995534718036651611328125">
        <ele>28</ele>
        <time>2019-07-11T11:54:27.000Z</time>
      </trkpt>
      <trkpt lat="43.56118085794150829315185546875" lon="-6.1468197405338287353515625">
        <ele>27</ele>
        <time>2019-07-11T11:54:28.000Z</time>
      </trkpt>
      <trkpt lat="43.56117683462798595428466796875" lon="-6.146744973957538604736328125">
        <ele>26</ele>
        <time>2019-07-11T11:54:29.000Z</time>
      </trkpt>
      <trkpt lat="43.56117792427539825439453125" lon="-6.14668068476021289825439453125">
        <ele>25.3999996185302734375</ele>
        <time>2019-07-11T11:54:30.000Z</time>
      </trkpt>
      <trkpt lat="43.5611941851675510406494140625" lon="-6.1466257832944393157958984375">
        <ele>25</ele>
        <time>2019-07-11T11:54:31.000Z</time>
      </trkpt>
      <trkpt lat="43.56124506331980228424072265625" lon="-6.14653333090245723724365234375">
        <ele>24.200000762939453125</ele>
        <time>2019-07-11T11:54:33.000Z</time>
      </trkpt>
      <trkpt lat="43.5613031499087810516357421875" lon="-6.1464869789779186248779296875">
        <ele>23.3999996185302734375</ele>
        <time>2019-07-11T11:54:35.000Z</time>
      </trkpt>
      <trkpt lat="43.5613931715488433837890625" lon="-6.14645428955554962158203125">
        <ele>23.200000762939453125</ele>
        <time>2019-07-11T11:54:37.000Z</time>
      </trkpt>
      <trkpt lat="43.561453856527805328369140625" lon="-6.14643760956823825836181640625">
        <ele>23</ele>
        <time>2019-07-11T11:54:38.000Z</time>
      </trkpt>
      <trkpt lat="43.5615138709545135498046875" lon="-6.14642738364636898040771484375">
        <ele>22.799999237060546875</ele>
        <time>2019-07-11T11:54:39.000Z</time>
      </trkpt>
      <trkpt lat="43.56175904162228107452392578125" lon="-6.14645051769912242889404296875">
        <ele>22.200000762939453125</ele>
        <time>2019-07-11T11:54:43.000Z</time>
      </trkpt>
      <trkpt lat="43.56191913597285747528076171875" lon="-6.14642520435154438018798828125">
        <ele>22</ele>
        <time>2019-07-11T11:54:46.000Z</time>
      </trkpt>
      <trkpt lat="43.56208727695047855377197265625" lon="-6.14636535756289958953857421875">
        <ele>21.3999996185302734375</ele>
        <time>2019-07-11T11:54:49.000Z</time>
      </trkpt>
      <trkpt lat="43.56219892390072345733642578125" lon="-6.1463528685271739959716796875">
        <ele>20.799999237060546875</ele>
        <time>2019-07-11T11:54:51.000Z</time>
      </trkpt>
      <trkpt lat="43.5624521411955356597900390625" lon="-6.146429814398288726806640625">
        <ele>19.799999237060546875</ele>
        <time>2019-07-11T11:54:55.000Z</time>
      </trkpt>
      <trkpt lat="43.56259941123425960540771484375" lon="-6.146433167159557342529296875">
        <ele>19</ele>
        <time>2019-07-11T11:54:57.000Z</time>
      </trkpt>
      <trkpt lat="43.56266948394477367401123046875" lon="-6.14641296677291393280029296875">
        <ele>18.6000003814697265625</ele>
        <time>2019-07-11T11:54:58.000Z</time>
      </trkpt>
      <trkpt lat="43.56280200183391571044921875" lon="-6.1463481746613979339599609375">
        <ele>17.799999237060546875</ele>
        <time>2019-07-11T11:55:00.000Z</time>
      </trkpt>
      <trkpt lat="43.56289722025394439697265625" lon="-6.14624834619462490081787109375">
        <ele>17.6000003814697265625</ele>
        <time>2019-07-11T11:55:02.000Z</time>
      </trkpt>
      <trkpt lat="43.56294658966362476348876953125" lon="-6.14613711833953857421875">
        <ele>17.3999996185302734375</ele>
        <time>2019-07-11T11:55:04.000Z</time>
      </trkpt>
      <trkpt lat="43.56299034319818019866943359375" lon="-6.14599253050982952117919921875">
        <ele>17.3999996185302734375</ele>
        <time>2019-07-11T11:55:07.000Z</time>
      </trkpt>
      <trkpt lat="43.56293032877147197723388671875" lon="-6.1456293426454067230224609375">
        <ele>16.3999996185302734375</ele>
        <time>2019-07-11T11:55:13.000Z</time>
      </trkpt>
      <trkpt lat="43.56292395852506160736083984375" lon="-6.1455778777599334716796875">
        <ele>16.200000762939453125</ele>
        <time>2019-07-11T11:55:14.000Z</time>
      </trkpt>
      <trkpt lat="43.56295086443424224853515625" lon="-6.1455026082694530487060546875">
        <ele>15.6000003814697265625</ele>
        <time>2019-07-11T11:55:18.000Z</time>
      </trkpt>
      <trkpt lat="43.56299235485494136810302734375" lon="-6.145460195839405059814453125">
        <ele>15.6000003814697265625</ele>
        <time>2019-07-11T11:55:21.000Z</time>
      </trkpt>
      <trkpt lat="43.5629986412823200225830078125" lon="-6.145362295210361480712890625">
        <ele>15.6000003814697265625</ele>
        <time>2019-07-11T11:55:24.000Z</time>
      </trkpt>
      <trkpt lat="43.56300258077681064605712890625" lon="-6.1451911367475986480712890625">
        <ele>15.19999980926513671875</ele>
        <time>2019-07-11T11:55:27.000Z</time>
      </trkpt>
      <trkpt lat="43.56305723078548908233642578125" lon="-6.14513757638633251190185546875">
        <ele>14.6000003814697265625</ele>
        <time>2019-07-11T11:55:29.000Z</time>
      </trkpt>
      <trkpt lat="43.56312227435410022735595703125" lon="-6.145155094563961029052734375">
        <ele>14</ele>
        <time>2019-07-11T11:55:31.000Z</time>
      </trkpt>
      <trkpt lat="43.56317692436277866363525390625" lon="-6.1453257501125335693359375">
        <ele>13.6000003814697265625</ele>
        <time>2019-07-11T11:55:33.000Z</time>
      </trkpt>
      <trkpt lat="43.56323794461786746978759765625" lon="-6.14552431739866733551025390625">
        <ele>12.80000019073486328125</ele>
        <time>2019-07-11T11:55:36.000Z</time>
      </trkpt>
      <trkpt lat="43.56337071396410465240478515625" lon="-6.145814247429370880126953125">
        <ele>11.6000003814697265625</ele>
        <time>2019-07-11T11:55:43.000Z</time>
      </trkpt>
      <trkpt lat="43.56343072839081287384033203125" lon="-6.1459149979054927825927734375">
        <ele>11.19999980926513671875</ele>
        <time>2019-07-11T11:55:45.000Z</time>
      </trkpt>
      <trkpt lat="43.56349593959748744964599609375" lon="-6.146013401448726654052734375">
        <ele>11</ele>
        <time>2019-07-11T11:55:47.000Z</time>
      </trkpt>
      <trkpt lat="43.56369291432201862335205078125" lon="-6.146614886820316314697265625">
        <ele>10.6000003814697265625</ele>
        <time>2019-07-11T11:55:56.000Z</time>
      </trkpt>
      <trkpt lat="43.5637607239186763763427734375" lon="-6.14690112881362438201904296875">
        <ele>10.80000019073486328125</ele>
        <time>2019-07-11T11:56:00.000Z</time>
      </trkpt>
      <trkpt lat="43.56371973641216754913330078125" lon="-6.147133223712444305419921875">
        <ele>11</ele>
        <time>2019-07-11T11:56:03.000Z</time>
      </trkpt>
      <trkpt lat="43.56368352659046649932861328125" lon="-6.14729071967303752899169921875">
        <ele>11.19999980926513671875</ele>
        <time>2019-07-11T11:56:05.000Z</time>
      </trkpt>
      <trkpt lat="43.56374052353203296661376953125" lon="-6.14743824116885662078857421875">
        <ele>11.19999980926513671875</ele>
        <time>2019-07-11T11:56:07.000Z</time>
      </trkpt>
      <trkpt lat="43.56387144885957241058349609375" lon="-6.147509403526782989501953125">
        <ele>11.19999980926513671875</ele>
        <time>2019-07-11T11:56:09.000Z</time>
      </trkpt>
      <trkpt lat="43.56423430144786834716796875" lon="-6.1475394107401371002197265625">
        <ele>10.6000003814697265625</ele>
        <time>2019-07-11T11:56:14.000Z</time>
      </trkpt>
      <trkpt lat="43.564368076622486114501953125" lon="-6.147596575319766998291015625">
        <ele>11.6000003814697265625</ele>
        <time>2019-07-11T11:56:20.000Z</time>
      </trkpt>
      <trkpt lat="43.56442498974502086639404296875" lon="-6.14761828444898128509521484375">
        <ele>12.19999980926513671875</ele>
        <time>2019-07-11T11:56:26.000Z</time>
      </trkpt>
      <trkpt lat="43.5645258240401744842529296875" lon="-6.147647537291049957275390625">
        <ele>12.19999980926513671875</ele>
        <time>2019-07-11T11:56:28.000Z</time>
      </trkpt>
      <trkpt lat="43.564695306122303009033203125" lon="-6.1476882733404636383056640625">
        <ele>12.6000003814697265625</ele>
        <time>2019-07-11T11:56:35.000Z</time>
      </trkpt>
      <trkpt lat="43.564693294465541839599609375" lon="-6.1476892791688442230224609375">
        <ele>12.6000003814697265625</ele>
        <time>2019-07-11T11:56:37.000Z</time>
      </trkpt>
      <trkpt lat="43.56469337828457355499267578125" lon="-6.14768852479755878448486328125">
        <ele>12.6000003814697265625</ele>
        <time>2019-07-11T11:56:45.000Z</time>
      </trkpt>
      <trkpt lat="43.564693294465541839599609375" lon="-6.14768852479755878448486328125">
        <ele>12.6000003814697265625</ele>
        <time>2019-07-11T11:56:46.000Z</time>
      </trkpt>
      <trkpt lat="43.56469321064651012420654296875" lon="-6.147688440978527069091796875">
        <ele>12.6000003814697265625</ele>
        <time>2019-07-11T11:56:47.000Z</time>
      </trkpt>
      <trkpt lat="43.56469304300844669342041015625" lon="-6.147687435150146484375">
        <ele>12.80000019073486328125</ele>
        <time>2019-07-11T11:56:52.000Z</time>
      </trkpt>
      <trkpt lat="43.56469295918941497802734375" lon="-6.147687435150146484375">
        <ele>12.80000019073486328125</ele>
        <time>2019-07-11T11:56:54.000Z</time>
      </trkpt>
      <trkpt lat="43.564706034958362579345703125" lon="-6.14768550731241703033447265625">
        <ele>12.6000003814697265625</ele>
        <time>2019-07-11T11:57:05.000Z</time>
      </trkpt>
      <trkpt lat="43.56475691311061382293701171875" lon="-6.14767310209572315216064453125">
        <ele>12.80000019073486328125</ele>
        <time>2019-07-11T11:57:20.000Z</time>
      </trkpt>
      <trkpt lat="43.564757667481899261474609375" lon="-6.14767528139054775238037109375">
        <ele>12.6000003814697265625</ele>
        <time>2019-07-11T11:57:28.000Z</time>
      </trkpt>
      <trkpt lat="43.564735539257526397705078125" lon="-6.14766287617385387420654296875">
        <ele>12.6000003814697265625</ele>
        <time>2019-07-11T11:58:06.000Z</time>
      </trkpt>
      <trkpt lat="43.5647410713136196136474609375" lon="-6.14767343737185001373291015625">
        <ele>12.3999996185302734375</ele>
        <time>2019-07-11T11:58:29.000Z</time>
      </trkpt>
      <trkpt lat="43.56474199332296848297119140625" lon="-6.1476634629070758819580078125">
        <ele>12.3999996185302734375</ele>
        <time>2019-07-11T11:58:54.000Z</time>
      </trkpt>
      <trkpt lat="43.56473780237138271331787109375" lon="-6.147658266127109527587890625">
        <ele>12.3999996185302734375</ele>
        <time>2019-07-11T11:59:02.000Z</time>
      </trkpt>
      <trkpt lat="43.56472782790660858154296875" lon="-6.14765114150941371917724609375">
        <ele>12.3999996185302734375</ele>
        <time>2019-07-11T11:59:52.000Z</time>
      </trkpt>
      <trkpt lat="43.5647290013730525970458984375" lon="-6.14766052924096584320068359375">
        <ele>12.3999996185302734375</ele>
        <time>2019-07-11T12:00:08.000Z</time>
      </trkpt>
      <trkpt lat="43.56472916901111602783203125" lon="-6.14765197969973087310791015625">
        <ele>12.3999996185302734375</ele>
        <time>2019-07-11T12:00:26.000Z</time>
      </trkpt>
      <trkpt lat="43.5647202841937541961669921875" lon="-6.14749557338654994964599609375">
        <ele>12.3999996185302734375</ele>
        <time>2019-07-11T12:01:12.000Z</time>
      </trkpt>
      <trkpt lat="43.56474434025585651397705078125" lon="-6.14766555838286876678466796875">
        <ele>12.3999996185302734375</ele>
        <time>2019-07-11T12:02:27.000Z</time>
      </trkpt>
      <trkpt lat="43.56474526226520538330078125" lon="-6.147670336067676544189453125">
        <ele>12.3999996185302734375</ele>
        <time>2019-07-11T12:03:18.000Z</time>
      </trkpt>
      <trkpt lat="43.564744926989078521728515625" lon="-6.14767058752477169036865234375">
        <ele>12.3999996185302734375</ele>
        <time>2019-07-11T12:03:26.000Z</time>
      </trkpt>
      <trkpt lat="43.56481357477605342864990234375" lon="-6.14767997525632381439208984375">
        <ele>12.19999980926513671875</ele>
        <time>2019-07-11T12:03:34.000Z</time>
      </trkpt>
      <trkpt lat="43.56485984288156032562255859375" lon="-6.14776513539254665374755859375">
        <ele>12.19999980926513671875</ele>
        <time>2019-07-11T12:03:39.000Z</time>
      </trkpt>
      <trkpt lat="43.564841486513614654541015625" lon="-6.14803821779787540435791015625">
        <ele>12</ele>
        <time>2019-07-11T12:03:46.000Z</time>
      </trkpt>
      <trkpt lat="43.56483235023915767669677734375" lon="-6.148178279399871826171875">
        <ele>11.6000003814697265625</ele>
        <time>2019-07-11T12:03:48.000Z</time>
      </trkpt>
      <trkpt lat="43.56474719010293483734130859375" lon="-6.14882511086761951446533203125">
        <ele>10.6000003814697265625</ele>
        <time>2019-07-11T12:03:57.000Z</time>
      </trkpt>
      <trkpt lat="43.5647417418658733367919921875" lon="-6.148910187184810638427734375">
        <ele>10.6000003814697265625</ele>
        <time>2019-07-11T12:03:58.000Z</time>
      </trkpt>
      <trkpt lat="43.56476940214633941650390625" lon="-6.1491695232689380645751953125">
        <ele>10.3999996185302734375</ele>
        <time>2019-07-11T12:04:01.000Z</time>
      </trkpt>
      <trkpt lat="43.564823381602764129638671875" lon="-6.149335987865924835205078125">
        <ele>10.19999980926513671875</ele>
        <time>2019-07-11T12:04:03.000Z</time>
      </trkpt>
      <trkpt lat="43.56512772850692272186279296875" lon="-6.1498216353356838226318359375">
        <ele>9.6000003814697265625</ele>
        <time>2019-07-11T12:04:10.000Z</time>
      </trkpt>
      <trkpt lat="43.56542243622243404388427734375" lon="-6.15029831416904926300048828125">
        <ele>10</ele>
        <time>2019-07-11T12:04:17.000Z</time>
      </trkpt>
      <trkpt lat="43.5654780082404613494873046875" lon="-6.15050367079675197601318359375">
        <ele>10</ele>
        <time>2019-07-11T12:04:19.000Z</time>
      </trkpt>
      <trkpt lat="43.56549586169421672821044921875" lon="-6.15084866993129253387451171875">
        <ele>9.6000003814697265625</ele>
        <time>2019-07-11T12:04:22.000Z</time>
      </trkpt>
      <trkpt lat="43.56549083255231380462646484375" lon="-6.15096517838537693023681640625">
        <ele>9.3999996185302734375</ele>
        <time>2019-07-11T12:04:23.000Z</time>
      </trkpt>
      <trkpt lat="43.56548245064914226531982421875" lon="-6.1515565216541290283203125">
        <ele>9</ele>
        <time>2019-07-11T12:04:28.000Z</time>
      </trkpt>
      <trkpt lat="43.5655457340180873870849609375" lon="-6.15180806256830692291259765625">
        <ele>9.19999980926513671875</ele>
        <time>2019-07-11T12:04:30.000Z</time>
      </trkpt>
      <trkpt lat="43.56560599990189075469970703125" lon="-6.1519253253936767578125">
        <ele>9.3999996185302734375</ele>
        <time>2019-07-11T12:04:31.000Z</time>
      </trkpt>
      <trkpt lat="43.56593943201005458831787109375" lon="-6.15240284241735935211181640625">
        <ele>10.3999996185302734375</ele>
        <time>2019-07-11T12:04:36.000Z</time>
      </trkpt>
      <trkpt lat="43.56636875309050083160400390625" lon="-6.15275421179831027984619140625">
        <ele>10</ele>
        <time>2019-07-11T12:04:41.000Z</time>
      </trkpt>
      <trkpt lat="43.566895388066768646240234375" lon="-6.15300902165472507476806640625">
        <ele>9.3999996185302734375</ele>
        <time>2019-07-11T12:04:46.000Z</time>
      </trkpt>
      <trkpt lat="43.56731423176825046539306640625" lon="-6.153285205364227294921875">
        <ele>8.80000019073486328125</ele>
        <time>2019-07-11T12:04:50.000Z</time>
      </trkpt>
      <trkpt lat="43.5675300657749176025390625" lon="-6.1534241773188114166259765625">
        <ele>9</ele>
        <time>2019-07-11T12:04:52.000Z</time>
      </trkpt>
      <trkpt lat="43.5676311515271663665771484375" lon="-6.1534680984914302825927734375">
        <ele>9.19999980926513671875</ele>
        <time>2019-07-11T12:04:53.000Z</time>
      </trkpt>
      <trkpt lat="43.567814044654369354248046875" lon="-6.15345493890345096588134765625">
        <ele>9.80000019073486328125</ele>
        <time>2019-07-11T12:04:55.000Z</time>
      </trkpt>
      <trkpt lat="43.56797992251813411712646484375" lon="-6.1534214951097965240478515625">
        <ele>11.19999980926513671875</ele>
        <time>2019-07-11T12:04:57.000Z</time>
      </trkpt>
      <trkpt lat="43.568122498691082000732421875" lon="-6.15352861583232879638671875">
        <ele>12.80000019073486328125</ele>
        <time>2019-07-11T12:04:59.000Z</time>
      </trkpt>
      <trkpt lat="43.5681414417922496795654296875" lon="-6.15375928580760955810546875">
        <ele>13.80000019073486328125</ele>
        <time>2019-07-11T12:05:01.000Z</time>
      </trkpt>
      <trkpt lat="43.56802937574684619903564453125" lon="-6.15394645370543003082275390625">
        <ele>14.19999980926513671875</ele>
        <time>2019-07-11T12:05:03.000Z</time>
      </trkpt>
      <trkpt lat="43.5678423754870891571044921875" lon="-6.15397528745234012603759765625">
        <ele>15.19999980926513671875</ele>
        <time>2019-07-11T12:05:05.000Z</time>
      </trkpt>
      <trkpt lat="43.56764548458158969879150390625" lon="-6.1538590304553508758544921875">
        <ele>16.200000762939453125</ele>
        <time>2019-07-11T12:05:07.000Z</time>
      </trkpt>
      <trkpt lat="43.56743417680263519287109375" lon="-6.15371410734951496124267578125">
        <ele>17.6000003814697265625</ele>
        <time>2019-07-11T12:05:09.000Z</time>
      </trkpt>
      <trkpt lat="43.56720560230314731597900390625" lon="-6.153557114303112030029296875">
        <ele>19.200000762939453125</ele>
        <time>2019-07-11T12:05:11.000Z</time>
      </trkpt>
      <trkpt lat="43.5670823045074939727783203125" lon="-6.15348033607006072998046875">
        <ele>20.200000762939453125</ele>
        <time>2019-07-11T12:05:12.000Z</time>
      </trkpt>
      <trkpt lat="43.5669515468180179595947265625" lon="-6.1534245125949382781982421875">
        <ele>21.6000003814697265625</ele>
        <time>2019-07-11T12:05:13.000Z</time>
      </trkpt>
      <trkpt lat="43.566814921796321868896484375" lon="-6.153395511209964752197265625">
        <ele>23.200000762939453125</ele>
        <time>2019-07-11T12:05:14.000Z</time>
      </trkpt>
      <trkpt lat="43.5666798055171966552734375" lon="-6.15338268689811229705810546875">
        <ele>24.6000003814697265625</ele>
        <time>2019-07-11T12:05:15.000Z</time>
      </trkpt>
      <trkpt lat="43.56654879637062549591064453125" lon="-6.15336793474853038787841796875">
        <ele>26.200000762939453125</ele>
        <time>2019-07-11T12:05:16.000Z</time>
      </trkpt>
      <trkpt lat="43.5664254985749721527099609375" lon="-6.1533500812947750091552734375">
        <ele>27.799999237060546875</ele>
        <time>2019-07-11T12:05:17.000Z</time>
      </trkpt>
      <trkpt lat="43.566312678158283233642578125" lon="-6.15332879126071929931640625">
        <ele>29.799999237060546875</ele>
        <time>2019-07-11T12:05:18.000Z</time>
      </trkpt>
      <trkpt lat="43.56620865873992443084716796875" lon="-6.15330842323601245880126953125">
        <ele>31.6000003814697265625</ele>
        <time>2019-07-11T12:05:19.000Z</time>
      </trkpt>
      <trkpt lat="43.56611075811088085174560546875" lon="-6.15328855812549591064453125">
        <ele>33.59999847412109375</ele>
        <time>2019-07-11T12:05:20.000Z</time>
      </trkpt>
      <trkpt lat="43.5660159587860107421875" lon="-6.15326575934886932373046875">
        <ele>35.59999847412109375</ele>
        <time>2019-07-11T12:05:21.000Z</time>
      </trkpt>
      <trkpt lat="43.565922081470489501953125" lon="-6.1532448045909404754638671875">
        <ele>37.799999237060546875</ele>
        <time>2019-07-11T12:05:22.000Z</time>
      </trkpt>
      <trkpt lat="43.56582711450755596160888671875" lon="-6.15322058089077472686767578125">
        <ele>40.200000762939453125</ele>
        <time>2019-07-11T12:05:23.000Z</time>
      </trkpt>
      <trkpt lat="43.5657287947833538055419921875" lon="-6.15319610573351383209228515625">
        <ele>42</ele>
        <time>2019-07-11T12:05:24.000Z</time>
      </trkpt>
      <trkpt lat="43.56562460772693157196044921875" lon="-6.1531819403171539306640625">
        <ele>43.40000152587890625</ele>
        <time>2019-07-11T12:05:25.000Z</time>
      </trkpt>
      <trkpt lat="43.565516732633113861083984375" lon="-6.1531914956867694854736328125">
        <ele>44.59999847412109375</ele>
        <time>2019-07-11T12:05:26.000Z</time>
      </trkpt>
      <trkpt lat="43.56541371904313564300537109375" lon="-6.15323650650680065155029296875">
        <ele>45.59999847412109375</ele>
        <time>2019-07-11T12:05:27.000Z</time>
      </trkpt>
      <trkpt lat="43.56532461941242218017578125" lon="-6.1533160507678985595703125">
        <ele>46.59999847412109375</ele>
        <time>2019-07-11T12:05:28.000Z</time>
      </trkpt>
      <trkpt lat="43.56525630690157413482666015625" lon="-6.153425686061382293701171875">
        <ele>47.799999237060546875</ele>
        <time>2019-07-11T12:05:29.000Z</time>
      </trkpt>
      <trkpt lat="43.56521657668054103851318359375" lon="-6.15356214344501495361328125">
        <ele>49</ele>
        <time>2019-07-11T12:05:30.000Z</time>
      </trkpt>
      <trkpt lat="43.565194867551326751708984375" lon="-6.1537108384072780609130859375">
        <ele>50.59999847412109375</ele>
        <time>2019-07-11T12:05:31.000Z</time>
      </trkpt>
      <trkpt lat="43.5651762597262859344482421875" lon="-6.15385760553181171417236328125">
        <ele>52.200000762939453125</ele>
        <time>2019-07-11T12:05:32.000Z</time>
      </trkpt>
      <trkpt lat="43.56513527221977710723876953125" lon="-6.15400093607604503631591796875">
        <ele>54</ele>
        <time>2019-07-11T12:05:33.000Z</time>
      </trkpt>
      <trkpt lat="43.56506939046084880828857421875" lon="-6.15413420833647251129150390625">
        <ele>55.799999237060546875</ele>
        <time>2019-07-11T12:05:34.000Z</time>
      </trkpt>
      <trkpt lat="43.56498020701110363006591796875" lon="-6.15423940122127532958984375">
        <ele>57.40000152587890625</ele>
        <time>2019-07-11T12:05:35.000Z</time>
      </trkpt>
      <trkpt lat="43.56487677432596683502197265625" lon="-6.154314838349819183349609375">
        <ele>59</ele>
        <time>2019-07-11T12:05:36.000Z</time>
      </trkpt>
      <trkpt lat="43.56475842185318470001220703125" lon="-6.1543508805334568023681640625">
        <ele>60.59999847412109375</ele>
        <time>2019-07-11T12:05:37.000Z</time>
      </trkpt>
      <trkpt lat="43.56462917290627956390380859375" lon="-6.15436144173145294189453125">
        <ele>62.59999847412109375</ele>
        <time>2019-07-11T12:05:38.000Z</time>
      </trkpt>
      <trkpt lat="43.5644946433603763580322265625" lon="-6.15436890162527561187744140625">
        <ele>64.40000152587890625</ele>
        <time>2019-07-11T12:05:39.000Z</time>
      </trkpt>
      <trkpt lat="43.5643581859767436981201171875" lon="-6.15438298322260379791259765625">
        <ele>66.40000152587890625</ele>
        <time>2019-07-11T12:05:40.000Z</time>
      </trkpt>
      <trkpt lat="43.5642240755259990692138671875" lon="-6.15442715585231781005859375">
        <ele>67.8000030517578125</ele>
        <time>2019-07-11T12:05:41.000Z</time>
      </trkpt>
      <trkpt lat="43.56410647742450237274169921875" lon="-6.15451675839722156524658203125">
        <ele>69.1999969482421875</ele>
        <time>2019-07-11T12:05:42.000Z</time>
      </trkpt>
      <trkpt lat="43.56401343829929828643798828125" lon="-6.1546305008232593536376953125">
        <ele>70.40000152587890625</ele>
        <time>2019-07-11T12:05:43.000Z</time>
      </trkpt>
      <trkpt lat="43.56396147049963474273681640625" lon="-6.1547429859638214111328125">
        <ele>72.1999969482421875</ele>
        <time>2019-07-11T12:05:44.000Z</time>
      </trkpt>
      <trkpt lat="43.56395208276808261871337890625" lon="-6.1548470892012119293212890625">
        <ele>74.40000152587890625</ele>
        <time>2019-07-11T12:05:45.000Z</time>
      </trkpt>
      <trkpt lat="43.56398276053369045257568359375" lon="-6.1549409665167331695556640625">
        <ele>76.8000030517578125</ele>
        <time>2019-07-11T12:05:46.000Z</time>
      </trkpt>
      <trkpt lat="43.56404193677008152008056640625" lon="-6.15503341890871524810791015625">
        <ele>78.8000030517578125</ele>
        <time>2019-07-11T12:05:47.000Z</time>
      </trkpt>
      <trkpt lat="43.5641177929937839508056640625" lon="-6.155108101665973663330078125">
        <ele>80.1999969482421875</ele>
        <time>2019-07-11T12:05:48.000Z</time>
      </trkpt>
      <trkpt lat="43.564204461872577667236328125" lon="-6.155141294002532958984375">
        <ele>81.1999969482421875</ele>
        <time>2019-07-11T12:05:49.000Z</time>
      </trkpt>
      <trkpt lat="43.56437788344919681549072265625" lon="-6.15506552159786224365234375">
        <ele>82.8000030517578125</ele>
        <time>2019-07-11T12:05:51.000Z</time>
      </trkpt>
      <trkpt lat="43.56453143991529941558837890625" lon="-6.1549195088446140289306640625">
        <ele>83.8000030517578125</ele>
        <time>2019-07-11T12:05:53.000Z</time>
      </trkpt>
      <trkpt lat="43.56463151983916759490966796875" lon="-6.15486167371273040771484375">
        <ele>84</ele>
        <time>2019-07-11T12:05:54.000Z</time>
      </trkpt>
      <trkpt lat="43.56488113291561603546142578125" lon="-6.154799647629261016845703125">
        <ele>84.59999847412109375</ele>
        <time>2019-07-11T12:05:56.000Z</time>
      </trkpt>
      <trkpt lat="43.56519411318004131317138671875" lon="-6.1547773517668247222900390625">
        <ele>85.8000030517578125</ele>
        <time>2019-07-11T12:05:58.000Z</time>
      </trkpt>
      <trkpt lat="43.5653547942638397216796875" lon="-6.1547676287591457366943359375">
        <ele>87.1999969482421875</ele>
        <time>2019-07-11T12:05:59.000Z</time>
      </trkpt>
      <trkpt lat="43.56551044620573520660400390625" lon="-6.1547522060573101043701171875">
        <ele>88.8000030517578125</ele>
        <time>2019-07-11T12:06:00.000Z</time>
      </trkpt>
      <trkpt lat="43.56565746478736400604248046875" lon="-6.15473418496549129486083984375">
        <ele>90.1999969482421875</ele>
        <time>2019-07-11T12:06:01.000Z</time>
      </trkpt>
      <trkpt lat="43.5658002085983753204345703125" lon="-6.154726557433605194091796875">
        <ele>91.59999847412109375</ele>
        <time>2019-07-11T12:06:02.000Z</time>
      </trkpt>
      <trkpt lat="43.56594328768551349639892578125" lon="-6.15474089048802852630615234375">
        <ele>93.40000152587890625</ele>
        <time>2019-07-11T12:06:03.000Z</time>
      </trkpt>
      <trkpt lat="43.56607505120337009429931640625" lon="-6.154785566031932830810546875">
        <ele>95.1999969482421875</ele>
        <time>2019-07-11T12:06:04.000Z</time>
      </trkpt>
      <trkpt lat="43.56615702621638774871826171875" lon="-6.154926717281341552734375">
        <ele>97.1999969482421875</ele>
        <time>2019-07-11T12:06:05.000Z</time>
      </trkpt>
      <trkpt lat="43.56622592546045780181884765625" lon="-6.15506560541689395904541015625">
        <ele>98.59999847412109375</ele>
        <time>2019-07-11T12:06:06.000Z</time>
      </trkpt>
      <trkpt lat="43.56624335981905460357666015625" lon="-6.15522586740553379058837890625">
        <ele>99.8000030517578125</ele>
        <time>2019-07-11T12:06:07.000Z</time>
      </trkpt>
      <trkpt lat="43.5662407614290714263916015625" lon="-6.15537757985293865203857421875">
        <ele>100.8000030517578125</ele>
        <time>2019-07-11T12:06:08.000Z</time>
      </trkpt>
      <trkpt lat="43.56621108949184417724609375" lon="-6.15553147159516811370849609375">
        <ele>101.8000030517578125</ele>
        <time>2019-07-11T12:06:09.000Z</time>
      </trkpt>
      <trkpt lat="43.5661353170871734619140625" lon="-6.1556913144886493682861328125">
        <ele>102.40000152587890625</ele>
        <time>2019-07-11T12:06:10.000Z</time>
      </trkpt>
      <trkpt lat="43.56605124659836292266845703125" lon="-6.15583640523254871368408203125">
        <ele>103.40000152587890625</ele>
        <time>2019-07-11T12:06:11.000Z</time>
      </trkpt>
      <trkpt lat="43.5659608058631420135498046875" lon="-6.1559741199016571044921875">
        <ele>104.8000030517578125</ele>
        <time>2019-07-11T12:06:12.000Z</time>
      </trkpt>
      <trkpt lat="43.56586935929954051971435546875" lon="-6.15610487759113311767578125">
        <ele>106.59999847412109375</ele>
        <time>2019-07-11T12:06:13.000Z</time>
      </trkpt>
      <trkpt lat="43.565777577459812164306640625" lon="-6.1562337912619113922119140625">
        <ele>108</ele>
        <time>2019-07-11T12:06:14.000Z</time>
      </trkpt>
      <trkpt lat="43.56559292413294315338134765625" lon="-6.1564916186034679412841796875">
        <ele>109.40000152587890625</ele>
        <time>2019-07-11T12:06:16.000Z</time>
      </trkpt>
      <trkpt lat="43.56538756750524044036865234375" lon="-6.1567439138889312744140625">
        <ele>110.59999847412109375</ele>
        <time>2019-07-11T12:06:18.000Z</time>
      </trkpt>
      <trkpt lat="43.5650436580181121826171875" lon="-6.15706452168524265289306640625">
        <ele>111.59999847412109375</ele>
        <time>2019-07-11T12:06:21.000Z</time>
      </trkpt>
      <trkpt lat="43.5645332001149654388427734375" lon="-6.15739963017404079437255859375">
        <ele>112.8000030517578125</ele>
        <time>2019-07-11T12:06:25.000Z</time>
      </trkpt>
      <trkpt lat="43.5641248337924480438232421875" lon="-6.157645471394062042236328125">
        <ele>114</ele>
        <time>2019-07-11T12:06:28.000Z</time>
      </trkpt>
      <trkpt lat="43.5636846162378787994384765625" lon="-6.1579051427543163299560546875">
        <ele>114.59999847412109375</ele>
        <time>2019-07-11T12:06:31.000Z</time>
      </trkpt>
      <trkpt lat="43.563218414783477783203125" lon="-6.15823027677834033966064453125">
        <ele>114</ele>
        <time>2019-07-11T12:06:34.000Z</time>
      </trkpt>
      <trkpt lat="43.56275481171905994415283203125" lon="-6.15867518819868564605712890625">
        <ele>113.8000030517578125</ele>
        <time>2019-07-11T12:06:37.000Z</time>
      </trkpt>
      <trkpt lat="43.56232649646699428558349609375" lon="-6.15926024504005908966064453125">
        <ele>113.1999969482421875</ele>
        <time>2019-07-11T12:06:40.000Z</time>
      </trkpt>
      <trkpt lat="43.56220043264329433441162109375" lon="-6.1594728939235210418701171875">
        <ele>115.59999847412109375</ele>
        <time>2019-07-11T12:06:41.000Z</time>
      </trkpt>
      <trkpt lat="43.56208057142794132232666015625" lon="-6.15969459526240825653076171875">
        <ele>118.8000030517578125</ele>
        <time>2019-07-11T12:06:42.000Z</time>
      </trkpt>
      <trkpt lat="43.561968505382537841796875" lon="-6.1599218286573886871337890625">
        <ele>122.8000030517578125</ele>
        <time>2019-07-11T12:06:43.000Z</time>
      </trkpt>
      <trkpt lat="43.5618620552122592926025390625" lon="-6.1601548455655574798583984375">
        <ele>124.8000030517578125</ele>
        <time>2019-07-11T12:06:44.000Z</time>
      </trkpt>
      <trkpt lat="43.56176071800291538238525390625" lon="-6.1603902094066143035888671875">
        <ele>126</ele>
        <time>2019-07-11T12:06:45.000Z</time>
      </trkpt>
      <trkpt lat="43.56145813129842281341552734375" lon="-6.16111046634614467620849609375">
        <ele>127</ele>
        <time>2019-07-11T12:06:48.000Z</time>
      </trkpt>
      <trkpt lat="43.561243973672389984130859375" lon="-6.1616042442619800567626953125">
        <ele>122.59999847412109375</ele>
        <time>2019-07-11T12:06:50.000Z</time>
      </trkpt>
      <trkpt lat="43.5611329972743988037109375" lon="-6.16186165250837802886962890625">
        <ele>119</ele>
        <time>2019-07-11T12:06:51.000Z</time>
      </trkpt>
      <trkpt lat="43.5610205121338367462158203125" lon="-6.1621242575347423553466796875">
        <ele>117.1999969482421875</ele>
        <time>2019-07-11T12:06:52.000Z</time>
      </trkpt>
      <trkpt lat="43.56090626679360866546630859375" lon="-6.16239205934107303619384765625">
        <ele>115.8000030517578125</ele>
        <time>2019-07-11T12:06:53.000Z</time>
      </trkpt>
      <trkpt lat="43.56067609973251819610595703125" lon="-6.16292917169630527496337890625">
        <ele>115.59999847412109375</ele>
        <time>2019-07-11T12:06:55.000Z</time>
      </trkpt>
      <trkpt lat="43.560446016490459442138671875" lon="-6.1634707264602184295654296875">
        <ele>115</ele>
        <time>2019-07-11T12:06:57.000Z</time>
      </trkpt>
      <trkpt lat="43.56020830571651458740234375" lon="-6.164024434983730316162109375">
        <ele>116.1999969482421875</ele>
        <time>2019-07-11T12:06:59.000Z</time>
      </trkpt>
      <trkpt lat="43.56008634902536869049072265625" lon="-6.1643055640161037445068359375">
        <ele>117.59999847412109375</ele>
        <time>2019-07-11T12:07:00.000Z</time>
      </trkpt>
      <trkpt lat="43.5599653981626033782958984375" lon="-6.16458375938236713409423828125">
        <ele>118.8000030517578125</ele>
        <time>2019-07-11T12:07:01.000Z</time>
      </trkpt>
      <trkpt lat="43.55973179452121257781982421875" lon="-6.165124811232089996337890625">
        <ele>121.40000152587890625</ele>
        <time>2019-07-11T12:07:03.000Z</time>
      </trkpt>
      <trkpt lat="43.55962065048515796661376953125" lon="-6.1653838120400905609130859375">
        <ele>124.40000152587890625</ele>
        <time>2019-07-11T12:07:04.000Z</time>
      </trkpt>
      <trkpt lat="43.55951017700135707855224609375" lon="-6.16564004682004451751708984375">
        <ele>128.8000030517578125</ele>
        <time>2019-07-11T12:07:05.000Z</time>
      </trkpt>
      <trkpt lat="43.55940272100269794464111328125" lon="-6.16588865406811237335205078125">
        <ele>131</ele>
        <time>2019-07-11T12:07:06.000Z</time>
      </trkpt>
      <trkpt lat="43.5592995397746562957763671875" lon="-6.1661308072507381439208984375">
        <ele>132.600006103515625</ele>
        <time>2019-07-11T12:07:07.000Z</time>
      </trkpt>
      <trkpt lat="43.55898681096732616424560546875" lon="-6.16682625375688076019287109375">
        <ele>132.399993896484375</ele>
        <time>2019-07-11T12:07:10.000Z</time>
      </trkpt>
      <trkpt lat="43.55888597667217254638671875" lon="-6.16704300977289676666259765625">
        <ele>131.399993896484375</ele>
        <time>2019-07-11T12:07:11.000Z</time>
      </trkpt>
      <trkpt lat="43.558599650859832763671875" lon="-6.16766796447336673736572265625">
        <ele>131.8000030517578125</ele>
        <time>2019-07-11T12:07:14.000Z</time>
      </trkpt>
      <trkpt lat="43.5585059411823749542236328125" lon="-6.16787013597786426544189453125">
        <ele>133.8000030517578125</ele>
        <time>2019-07-11T12:07:15.000Z</time>
      </trkpt>
      <trkpt lat="43.55841147713363170623779296875" lon="-6.16806928999722003936767578125">
        <ele>136</ele>
        <time>2019-07-11T12:07:16.000Z</time>
      </trkpt>
      <trkpt lat="43.55831743218004703521728515625" lon="-6.16826676763594150543212890625">
        <ele>137.600006103515625</ele>
        <time>2019-07-11T12:07:17.000Z</time>
      </trkpt>
      <trkpt lat="43.55822657234966754913330078125" lon="-6.1684656701982021331787109375">
        <ele>139</ele>
        <time>2019-07-11T12:07:18.000Z</time>
      </trkpt>
      <trkpt lat="43.55804317630827426910400390625" lon="-6.16885031573474407196044921875">
        <ele>140.399993896484375</ele>
        <time>2019-07-11T12:07:20.000Z</time>
      </trkpt>
      <trkpt lat="43.5578702576458454132080078125" lon="-6.16919900290668010711669921875">
        <ele>142.1999969482421875</ele>
        <time>2019-07-11T12:07:22.000Z</time>
      </trkpt>
      <trkpt lat="43.5577156953513622283935546875" lon="-6.16950251162052154541015625">
        <ele>143.600006103515625</ele>
        <time>2019-07-11T12:07:24.000Z</time>
      </trkpt>
      <trkpt lat="43.55764704756438732147216796875" lon="-6.16962983272969722747802734375">
        <ele>144.600006103515625</ele>
        <time>2019-07-11T12:07:25.000Z</time>
      </trkpt>
      <trkpt lat="43.557585775852203369140625" lon="-6.16974164731800556182861328125">
        <ele>145.8000030517578125</ele>
        <time>2019-07-11T12:07:26.000Z</time>
      </trkpt>
      <trkpt lat="43.5575366578996181488037109375" lon="-6.16984449326992034912109375">
        <ele>148.1999969482421875</ele>
        <time>2019-07-11T12:07:27.000Z</time>
      </trkpt>
      <trkpt lat="43.55750438757240772247314453125" lon="-6.16994633339345455169677734375">
        <ele>150.8000030517578125</ele>
        <time>2019-07-11T12:07:28.000Z</time>
      </trkpt>
      <trkpt lat="43.55748896487057209014892578125" lon="-6.170053370296955108642578125">
        <ele>153.399993896484375</ele>
        <time>2019-07-11T12:07:29.000Z</time>
      </trkpt>
      <trkpt lat="43.55748678557574748992919921875" lon="-6.17016728036105632781982421875">
        <ele>155</ele>
        <time>2019-07-11T12:07:30.000Z</time>
      </trkpt>
      <trkpt lat="43.5574669204652309417724609375" lon="-6.1703945137560367584228515625">
        <ele>156.600006103515625</ele>
        <time>2019-07-11T12:07:32.000Z</time>
      </trkpt>
      <trkpt lat="43.5573663376271724700927734375" lon="-6.1705775745213031768798828125">
        <ele>157.399993896484375</ele>
        <time>2019-07-11T12:07:34.000Z</time>
      </trkpt>
      <trkpt lat="43.55728796683251857757568359375" lon="-6.1706255190074443817138671875">
        <ele>157.600006103515625</ele>
        <time>2019-07-11T12:07:35.000Z</time>
      </trkpt>
      <trkpt lat="43.55720213614404201507568359375" lon="-6.17063264362514019012451171875">
        <ele>157.8000030517578125</ele>
        <time>2019-07-11T12:07:36.000Z</time>
      </trkpt>
      <trkpt lat="43.5570434667170047760009765625" lon="-6.170520074665546417236328125">
        <ele>158</ele>
        <time>2019-07-11T12:07:38.000Z</time>
      </trkpt>
      <trkpt lat="43.5569579713046550750732421875" lon="-6.17027498781681060791015625">
        <ele>158.600006103515625</ele>
        <time>2019-07-11T12:07:40.000Z</time>
      </trkpt>
      <trkpt lat="43.556928969919681549072265625" lon="-6.1698144860565662384033203125">
        <ele>158</ele>
        <time>2019-07-11T12:07:43.000Z</time>
      </trkpt>
      <trkpt lat="43.55681556276977062225341796875" lon="-6.1695341952145099639892578125">
        <ele>157.600006103515625</ele>
        <time>2019-07-11T12:07:45.000Z</time>
      </trkpt>
      <trkpt lat="43.55673643760383129119873046875" lon="-6.1693913675844669342041015625">
        <ele>157</ele>
        <time>2019-07-11T12:07:46.000Z</time>
      </trkpt>
      <trkpt lat="43.5564136505126953125" lon="-6.16878828965127468109130859375">
        <ele>155.600006103515625</ele>
        <time>2019-07-11T12:07:50.000Z</time>
      </trkpt>
      <trkpt lat="43.55609354563057422637939453125" lon="-6.1682487465441226959228515625">
        <ele>155.1999969482421875</ele>
        <time>2019-07-11T12:07:54.000Z</time>
      </trkpt>
      <trkpt lat="43.555795736610889434814453125" lon="-6.16770199500024318695068359375">
        <ele>155.8000030517578125</ele>
        <time>2019-07-11T12:07:58.000Z</time>
      </trkpt>
      <trkpt lat="43.55572205968201160430908203125" lon="-6.1675721593201160430908203125">
        <ele>157.1999969482421875</ele>
        <time>2019-07-11T12:07:59.000Z</time>
      </trkpt>
      <trkpt lat="43.555583171546459197998046875" lon="-6.1673198640346527099609375">
        <ele>158.8000030517578125</ele>
        <time>2019-07-11T12:08:01.000Z</time>
      </trkpt>
      <trkpt lat="43.55524353682994842529296875" lon="-6.16685139946639537811279296875">
        <ele>157.600006103515625</ele>
        <time>2019-07-11T12:08:08.000Z</time>
      </trkpt>
      <trkpt lat="43.55524160899221897125244140625" lon="-6.166846789419651031494140625">
        <ele>156.600006103515625</ele>
        <time>2019-07-11T12:08:21.000Z</time>
      </trkpt>
      <trkpt lat="43.5551437921822071075439453125" lon="-6.16673941724002361297607421875">
        <ele>156</ele>
        <time>2019-07-11T12:09:08.000Z</time>
      </trkpt>
      <trkpt lat="43.5550425387918949127197265625" lon="-6.16662709973752498626708984375">
        <ele>155.399993896484375</ele>
        <time>2019-07-11T12:09:10.000Z</time>
      </trkpt>
      <trkpt lat="43.55495452880859375" lon="-6.1664959229528903961181640625">
        <ele>155</ele>
        <time>2019-07-11T12:09:12.000Z</time>
      </trkpt>
      <trkpt lat="43.55490147136151790618896484375" lon="-6.16632116027176380157470703125">
        <ele>154.8000030517578125</ele>
        <time>2019-07-11T12:09:14.000Z</time>
      </trkpt>
      <trkpt lat="43.55482737533748149871826171875" lon="-6.165987811982631683349609375">
        <ele>154.1999969482421875</ele>
        <time>2019-07-11T12:09:17.000Z</time>
      </trkpt>
      <trkpt lat="43.55471455492079257965087890625" lon="-6.1657415516674518585205078125">
        <ele>153</ele>
        <time>2019-07-11T12:09:19.000Z</time>
      </trkpt>
      <trkpt lat="43.5546405427157878875732421875" lon="-6.16559528745710849761962890625">
        <ele>152.1999969482421875</ele>
        <time>2019-07-11T12:09:20.000Z</time>
      </trkpt>
      <trkpt lat="43.5545562207698822021484375" lon="-6.165431253612041473388671875">
        <ele>151.399993896484375</ele>
        <time>2019-07-11T12:09:21.000Z</time>
      </trkpt>
      <trkpt lat="43.5543656162917613983154296875" lon="-6.16507108323276042938232421875">
        <ele>150</ele>
        <time>2019-07-11T12:09:23.000Z</time>
      </trkpt>
      <trkpt lat="43.554160259664058685302734375" lon="-6.164684928953647613525390625">
        <ele>151.1999969482421875</ele>
        <time>2019-07-11T12:09:25.000Z</time>
      </trkpt>
      <trkpt lat="43.55383059941232204437255859375" lon="-6.164067350327968597412109375">
        <ele>150.8000030517578125</ele>
        <time>2019-07-11T12:09:28.000Z</time>
      </trkpt>
      <trkpt lat="43.5536045394837856292724609375" lon="-6.16364884190261363983154296875">
        <ele>147.600006103515625</ele>
        <time>2019-07-11T12:09:30.000Z</time>
      </trkpt>
      <trkpt lat="43.5534908808767795562744140625" lon="-6.16344281472265720367431640625">
        <ele>146</ele>
        <time>2019-07-11T12:09:31.000Z</time>
      </trkpt>
      <trkpt lat="43.5533782280981540679931640625" lon="-6.163239218294620513916015625">
        <ele>145</ele>
        <time>2019-07-11T12:09:32.000Z</time>
      </trkpt>
      <trkpt lat="43.55304353870451450347900390625" lon="-6.16263614036142826080322265625">
        <ele>145.1999969482421875</ele>
        <time>2019-07-11T12:09:35.000Z</time>
      </trkpt>
      <trkpt lat="43.55292518623173236846923828125" lon="-6.16243430413305759429931640625">
        <ele>147</ele>
        <time>2019-07-11T12:09:36.000Z</time>
      </trkpt>
      <trkpt lat="43.5527975298464298248291015625" lon="-6.1622315458953380584716796875">
        <ele>149.399993896484375</ele>
        <time>2019-07-11T12:09:37.000Z</time>
      </trkpt>
      <trkpt lat="43.55236259289085865020751953125" lon="-6.16167708300054073333740234375">
        <ele>147</ele>
        <time>2019-07-11T12:09:40.000Z</time>
      </trkpt>
      <trkpt lat="43.5522007383406162261962890625" lon="-6.161511875689029693603515625">
        <ele>145.1999969482421875</ele>
        <time>2019-07-11T12:09:41.000Z</time>
      </trkpt>
      <trkpt lat="43.55203100480139255523681640625" lon="-6.16135873831808567047119140625">
        <ele>141.8000030517578125</ele>
        <time>2019-07-11T12:09:42.000Z</time>
      </trkpt>
      <trkpt lat="43.55185749940574169158935546875" lon="-6.16122110746800899505615234375">
        <ele>139.600006103515625</ele>
        <time>2019-07-11T12:09:43.000Z</time>
      </trkpt>
      <trkpt lat="43.55168080888688564300537109375" lon="-6.16109646856784820556640625">
        <ele>138.600006103515625</ele>
        <time>2019-07-11T12:09:44.000Z</time>
      </trkpt>
      <trkpt lat="43.55111469514667987823486328125" lon="-6.160776279866695404052734375">
        <ele>138.399993896484375</ele>
        <time>2019-07-11T12:09:47.000Z</time>
      </trkpt>
      <trkpt lat="43.550518490374088287353515625" lon="-6.16048215888440608978271484375">
        <ele>136.8000030517578125</ele>
        <time>2019-07-11T12:09:50.000Z</time>
      </trkpt>
      <trkpt lat="43.55031908489763736724853515625" lon="-6.1603861860930919647216796875">
        <ele>135.1999969482421875</ele>
        <time>2019-07-11T12:09:51.000Z</time>
      </trkpt>
      <trkpt lat="43.55012319982051849365234375" lon="-6.160291470587253570556640625">
        <ele>133.8000030517578125</ele>
        <time>2019-07-11T12:09:52.000Z</time>
      </trkpt>
      <trkpt lat="43.54993100278079509735107421875" lon="-6.1601967550814151763916015625">
        <ele>132.399993896484375</ele>
        <time>2019-07-11T12:09:53.000Z</time>
      </trkpt>
      <trkpt lat="43.54936405085027217864990234375" lon="-6.15989215672016143798828125">
        <ele>133</ele>
        <time>2019-07-11T12:09:56.000Z</time>
      </trkpt>
      <trkpt lat="43.54917847551405429840087890625" lon="-6.159767769277095794677734375">
        <ele>133.600006103515625</ele>
        <time>2019-07-11T12:09:57.000Z</time>
      </trkpt>
      <trkpt lat="43.5486553609371185302734375" lon="-6.15926996804773807525634765625">
        <ele>133.600006103515625</ele>
        <time>2019-07-11T12:10:00.000Z</time>
      </trkpt>
      <trkpt lat="43.54849652387201786041259765625" lon="-6.15906469523906707763671875">
        <ele>132.399993896484375</ele>
        <time>2019-07-11T12:10:01.000Z</time>
      </trkpt>
      <trkpt lat="43.54834330268204212188720703125" lon="-6.15884467028081417083740234375">
        <ele>130.8000030517578125</ele>
        <time>2019-07-11T12:10:02.000Z</time>
      </trkpt>
      <trkpt lat="43.54819376952946186065673828125" lon="-6.1586162634193897247314453125">
        <ele>129</ele>
        <time>2019-07-11T12:10:03.000Z</time>
      </trkpt>
      <trkpt lat="43.5480473376810550689697265625" lon="-6.1583832465112209320068359375">
        <ele>127.8000030517578125</ele>
        <time>2019-07-11T12:10:04.000Z</time>
      </trkpt>
      <trkpt lat="43.547899983823299407958984375" lon="-6.1581515707075595855712890625">
        <ele>126.1999969482421875</ele>
        <time>2019-07-11T12:10:05.000Z</time>
      </trkpt>
      <trkpt lat="43.54775288142263889312744140625" lon="-6.1579205654561519622802734375">
        <ele>124.1999969482421875</ele>
        <time>2019-07-11T12:10:06.000Z</time>
      </trkpt>
      <trkpt lat="43.54760703630745410919189453125" lon="-6.1576892249286174774169921875">
        <ele>121.8000030517578125</ele>
        <time>2019-07-11T12:10:07.000Z</time>
      </trkpt>
      <trkpt lat="43.54746337048709392547607421875" lon="-6.15746031515300273895263671875">
        <ele>120.1999969482421875</ele>
        <time>2019-07-11T12:10:08.000Z</time>
      </trkpt>
      <trkpt lat="43.54732272215187549591064453125" lon="-6.1572359316051006317138671875">
        <ele>118.40000152587890625</ele>
        <time>2019-07-11T12:10:09.000Z</time>
      </trkpt>
      <trkpt lat="43.54718752205371856689453125" lon="-6.15701858885586261749267578125">
        <ele>116.1999969482421875</ele>
        <time>2019-07-11T12:10:10.000Z</time>
      </trkpt>
      <trkpt lat="43.5470576025545597076416015625" lon="-6.156804598867893218994140625">
        <ele>114.40000152587890625</ele>
        <time>2019-07-11T12:10:11.000Z</time>
      </trkpt>
      <trkpt lat="43.54681628756225109100341796875" lon="-6.15637184120714664459228515625">
        <ele>113</ele>
        <time>2019-07-11T12:10:13.000Z</time>
      </trkpt>
      <trkpt lat="43.5467107594013214111328125" lon="-6.1561439372599124908447265625">
        <ele>112.59999847412109375</ele>
        <time>2019-07-11T12:10:14.000Z</time>
      </trkpt>
      <trkpt lat="43.546459637582302093505859375" lon="-6.15539677441120147705078125">
        <ele>114.59999847412109375</ele>
        <time>2019-07-11T12:10:17.000Z</time>
      </trkpt>
      <trkpt lat="43.5463981144130229949951171875" lon="-6.1551238596439361572265625">
        <ele>114.8000030517578125</ele>
        <time>2019-07-11T12:10:18.000Z</time>
      </trkpt>
      <trkpt lat="43.54629862122237682342529296875" lon="-6.15421517752110958099365234375">
        <ele>114.40000152587890625</ele>
        <time>2019-07-11T12:10:21.000Z</time>
      </trkpt>
      <trkpt lat="43.54628227651119232177734375" lon="-6.153889708220958709716796875">
        <ele>113.1999969482421875</ele>
        <time>2019-07-11T12:10:22.000Z</time>
      </trkpt>
      <trkpt lat="43.54625956155359745025634765625" lon="-6.1531978659331798553466796875">
        <ele>111.59999847412109375</ele>
        <time>2019-07-11T12:10:24.000Z</time>
      </trkpt>
      <trkpt lat="43.5462452284991741180419921875" lon="-6.1525216139853000640869140625">
        <ele>111.1999969482421875</ele>
        <time>2019-07-11T12:10:26.000Z</time>
      </trkpt>
      <trkpt lat="43.54626056738197803497314453125" lon="-6.1518872715532779693603515625">
        <ele>111.1999969482421875</ele>
        <time>2019-07-11T12:10:28.000Z</time>
      </trkpt>
      <trkpt lat="43.54629359208047389984130859375" lon="-6.151581667363643646240234375">
        <ele>111.8000030517578125</ele>
        <time>2019-07-11T12:10:29.000Z</time>
      </trkpt>
      <trkpt lat="43.5464004613459110260009765625" lon="-6.15099929273128509521484375">
        <ele>112.8000030517578125</ele>
        <time>2019-07-11T12:10:31.000Z</time>
      </trkpt>
      <trkpt lat="43.5464541055262088775634765625" lon="-6.15071908570826053619384765625">
        <ele>113.8000030517578125</ele>
        <time>2019-07-11T12:10:32.000Z</time>
      </trkpt>
      <trkpt lat="43.54650087654590606689453125" lon="-6.15044248290359973907470703125">
        <ele>115</ele>
        <time>2019-07-11T12:10:33.000Z</time>
      </trkpt>
      <trkpt lat="43.54653574526309967041015625" lon="-6.1501632817089557647705078125">
        <ele>116.8000030517578125</ele>
        <time>2019-07-11T12:10:34.000Z</time>
      </trkpt>
      <trkpt lat="43.546558208763599395751953125" lon="-6.1498806439340114593505859375">
        <ele>118.40000152587890625</ele>
        <time>2019-07-11T12:10:35.000Z</time>
      </trkpt>
      <trkpt lat="43.54656633920967578887939453125" lon="-6.14959515631198883056640625">
        <ele>119.40000152587890625</ele>
        <time>2019-07-11T12:10:36.000Z</time>
      </trkpt>
      <trkpt lat="43.54655854403972625732421875" lon="-6.149309165775775909423828125">
        <ele>120.59999847412109375</ele>
        <time>2019-07-11T12:10:37.000Z</time>
      </trkpt>
      <trkpt lat="43.54645100422203540802001953125" lon="-6.1484865657985210418701171875">
        <ele>121.8000030517578125</ele>
        <time>2019-07-11T12:10:40.000Z</time>
      </trkpt>
      <trkpt lat="43.5462576337158679962158203125" lon="-6.14772775210440158843994140625">
        <ele>123</ele>
        <time>2019-07-11T12:10:43.000Z</time>
      </trkpt>
      <trkpt lat="43.54605286382138729095458984375" lon="-6.1469922401010990142822265625">
        <ele>123.59999847412109375</ele>
        <time>2019-07-11T12:10:46.000Z</time>
      </trkpt>
      <trkpt lat="43.54592612944543361663818359375" lon="-6.1465220153331756591796875">
        <ele>120.59999847412109375</ele>
        <time>2019-07-11T12:10:48.000Z</time>
      </trkpt>
      <trkpt lat="43.545860163867473602294921875" lon="-6.1463002301752567291259765625">
        <ele>117.40000152587890625</ele>
        <time>2019-07-11T12:10:49.000Z</time>
      </trkpt>
      <trkpt lat="43.54578916914761066436767578125" lon="-6.146089173853397369384765625">
        <ele>115.1999969482421875</ele>
        <time>2019-07-11T12:10:50.000Z</time>
      </trkpt>
      <trkpt lat="43.54570970870554447174072265625" lon="-6.1458878405392169952392578125">
        <ele>114</ele>
        <time>2019-07-11T12:10:51.000Z</time>
      </trkpt>
      <trkpt lat="43.5455260612070560455322265625" lon="-6.1455089785158634185791015625">
        <ele>112.8000030517578125</ele>
        <time>2019-07-11T12:10:53.000Z</time>
      </trkpt>
      <trkpt lat="43.54521249420940876007080078125" lon="-6.14493808709084987640380859375">
        <ele>112</ele>
        <time>2019-07-11T12:10:56.000Z</time>
      </trkpt>
      <trkpt lat="43.54511543177068233489990234375" lon="-6.1447338201105594635009765625">
        <ele>111.59999847412109375</ele>
        <time>2019-07-11T12:10:57.000Z</time>
      </trkpt>
      <trkpt lat="43.545032031834125518798828125" lon="-6.14452083595097064971923828125">
        <ele>111.40000152587890625</ele>
        <time>2019-07-11T12:10:58.000Z</time>
      </trkpt>
      <trkpt lat="43.5448707640171051025390625" lon="-6.1438258923590183258056640625">
        <ele>111.40000152587890625</ele>
        <time>2019-07-11T12:11:01.000Z</time>
      </trkpt>
      <trkpt lat="43.54479675181210041046142578125" lon="-6.14334435202181339263916015625">
        <ele>112.59999847412109375</ele>
        <time>2019-07-11T12:11:03.000Z</time>
      </trkpt>
      <trkpt lat="43.54476942680776119232177734375" lon="-6.14311317913234233856201171875">
        <ele>114.40000152587890625</ele>
        <time>2019-07-11T12:11:04.000Z</time>
      </trkpt>
      <trkpt lat="43.5447542555630207061767578125" lon="-6.1428824253380298614501953125">
        <ele>116.1999969482421875</ele>
        <time>2019-07-11T12:11:05.000Z</time>
      </trkpt>
      <trkpt lat="43.5447572730481624603271484375" lon="-6.14265284501016139984130859375">
        <ele>117.8000030517578125</ele>
        <time>2019-07-11T12:11:06.000Z</time>
      </trkpt>
      <trkpt lat="43.54478116147220134735107421875" lon="-6.14242401905357837677001953125">
        <ele>119</ele>
        <time>2019-07-11T12:11:07.000Z</time>
      </trkpt>
      <trkpt lat="43.54482558555901050567626953125" lon="-6.1421947740018367767333984375">
        <ele>121</ele>
        <time>2019-07-11T12:11:08.000Z</time>
      </trkpt>
      <trkpt lat="43.5448903776705265045166015625" lon="-6.1419674567878246307373046875">
        <ele>123.40000152587890625</ele>
        <time>2019-07-11T12:11:09.000Z</time>
      </trkpt>
      <trkpt lat="43.54496522806584835052490234375" lon="-6.1417398042976856231689453125">
        <ele>126</ele>
        <time>2019-07-11T12:11:10.000Z</time>
      </trkpt>
      <trkpt lat="43.54504217393696308135986328125" lon="-6.14151106216013431549072265625">
        <ele>127.59999847412109375</ele>
        <time>2019-07-11T12:11:11.000Z</time>
      </trkpt>
      <trkpt lat="43.5451163537800312042236328125" lon="-6.141281314194202423095703125">
        <ele>129</ele>
        <time>2019-07-11T12:11:12.000Z</time>
      </trkpt>
      <trkpt lat="43.54526395909488201141357421875" lon="-6.1408302001655101776123046875">
        <ele>130.399993896484375</ele>
        <time>2019-07-11T12:11:14.000Z</time>
      </trkpt>
      <trkpt lat="43.5454864986240863800048828125" lon="-6.14017783664166927337646484375">
        <ele>131.600006103515625</ele>
        <time>2019-07-11T12:11:17.000Z</time>
      </trkpt>
      <trkpt lat="43.54555539786815643310546875" lon="-6.1399594880640506744384765625">
        <ele>132.8000030517578125</ele>
        <time>2019-07-11T12:11:18.000Z</time>
      </trkpt>
      <trkpt lat="43.54568623937666416168212890625" lon="-6.139525473117828369140625">
        <ele>135</ele>
        <time>2019-07-11T12:11:20.000Z</time>
      </trkpt>
      <trkpt lat="43.54575078003108501434326171875" lon="-6.13931215368211269378662109375">
        <ele>136.399993896484375</ele>
        <time>2019-07-11T12:11:21.000Z</time>
      </trkpt>
      <trkpt lat="43.5458164103329181671142578125" lon="-6.139100678265094757080078125">
        <ele>137.399993896484375</ele>
        <time>2019-07-11T12:11:22.000Z</time>
      </trkpt>
      <trkpt lat="43.54588438756763935089111328125" lon="-6.1388909630477428436279296875">
        <ele>138.600006103515625</ele>
        <time>2019-07-11T12:11:23.000Z</time>
      </trkpt>
      <trkpt lat="43.54595446027815341949462890625" lon="-6.13868049345910549163818359375">
        <ele>139.600006103515625</ele>
        <time>2019-07-11T12:11:24.000Z</time>
      </trkpt>
      <trkpt lat="43.54609594680368900299072265625" lon="-6.13824597559869289398193359375">
        <ele>141</ele>
        <time>2019-07-11T12:11:26.000Z</time>
      </trkpt>
      <trkpt lat="43.54621614329516887664794921875" lon="-6.13778262399137020111083984375">
        <ele>141.399993896484375</ele>
        <time>2019-07-11T12:11:28.000Z</time>
      </trkpt>
      <trkpt lat="43.54629577137529850006103515625" lon="-6.13728105090558528900146484375">
        <ele>142.399993896484375</ele>
        <time>2019-07-11T12:11:30.000Z</time>
      </trkpt>
      <trkpt lat="43.5463203303515911102294921875" lon="-6.13672918640077114105224609375">
        <ele>142.8000030517578125</ele>
        <time>2019-07-11T12:11:32.000Z</time>
      </trkpt>
      <trkpt lat="43.54626358486711978912353515625" lon="-6.136136166751384735107421875">
        <ele>142.1999969482421875</ele>
        <time>2019-07-11T12:11:34.000Z</time>
      </trkpt>
      <trkpt lat="43.5461265407502651214599609375" lon="-6.135553456842899322509765625">
        <ele>141.600006103515625</ele>
        <time>2019-07-11T12:11:36.000Z</time>
      </trkpt>
      <trkpt lat="43.54590970091521739959716796875" lon="-6.135013997554779052734375">
        <ele>141</ele>
        <time>2019-07-11T12:11:38.000Z</time>
      </trkpt>
      <trkpt lat="43.5456279851496219635009765625" lon="-6.13454536534845829010009765625">
        <ele>142.8000030517578125</ele>
        <time>2019-07-11T12:11:40.000Z</time>
      </trkpt>
      <trkpt lat="43.54531274177134037017822265625" lon="-6.13413046114146709442138671875">
        <ele>144.8000030517578125</ele>
        <time>2019-07-11T12:11:42.000Z</time>
      </trkpt>
      <trkpt lat="43.54485106654465198516845703125" lon="-6.13351975567638874053955078125">
        <ele>145</ele>
        <time>2019-07-11T12:11:45.000Z</time>
      </trkpt>
      <trkpt lat="43.5447096638381481170654296875" lon="-6.13330182619392871856689453125">
        <ele>143.1999969482421875</ele>
        <time>2019-07-11T12:11:46.000Z</time>
      </trkpt>
      <trkpt lat="43.54458217509090900421142578125" lon="-6.133071072399616241455078125">
        <ele>141.399993896484375</ele>
        <time>2019-07-11T12:11:47.000Z</time>
      </trkpt>
      <trkpt lat="43.544377572834491729736328125" lon="-6.13256623037159442901611328125">
        <ele>142.399993896484375</ele>
        <time>2019-07-11T12:11:49.000Z</time>
      </trkpt>
      <trkpt lat="43.54430473409593105316162109375" lon="-6.1322990991175174713134765625">
        <ele>143.600006103515625</ele>
        <time>2019-07-11T12:11:50.000Z</time>
      </trkpt>
      <trkpt lat="43.54425393976271152496337890625" lon="-6.13203205168247222900390625">
        <ele>144</ele>
        <time>2019-07-11T12:11:51.000Z</time>
      </trkpt>
      <trkpt lat="43.54421957395970821380615234375" lon="-6.13176927901804447174072265625">
        <ele>144.600006103515625</ele>
        <time>2019-07-11T12:11:52.000Z</time>
      </trkpt>
      <trkpt lat="43.54418621398508548736572265625" lon="-6.13125362433493137359619140625">
        <ele>146.600006103515625</ele>
        <time>2019-07-11T12:11:54.000Z</time>
      </trkpt>
      <trkpt lat="43.54417766444385051727294921875" lon="-6.13075506873428821563720703125">
        <ele>148.399993896484375</ele>
        <time>2019-07-11T12:11:56.000Z</time>
      </trkpt>
      <trkpt lat="43.54416743852198123931884765625" lon="-6.13051048479974269866943359375">
        <ele>149.8000030517578125</ele>
        <time>2019-07-11T12:11:57.000Z</time>
      </trkpt>
      <trkpt lat="43.544140867888927459716796875" lon="-6.13026740960776805877685546875">
        <ele>151.399993896484375</ele>
        <time>2019-07-11T12:11:58.000Z</time>
      </trkpt>
      <trkpt lat="43.54402561672031879425048828125" lon="-6.12979282625019550323486328125">
        <ele>152.600006103515625</ele>
        <time>2019-07-11T12:12:00.000Z</time>
      </trkpt>
      <trkpt lat="43.54382009245455265045166015625" lon="-6.12936786375939846038818359375">
        <ele>151.1999969482421875</ele>
        <time>2019-07-11T12:12:02.000Z</time>
      </trkpt>
      <trkpt lat="43.54352764785289764404296875" lon="-6.1290365271270275115966796875">
        <ele>150.399993896484375</ele>
        <time>2019-07-11T12:12:04.000Z</time>
      </trkpt>
      <trkpt lat="43.54336009360849857330322265625" lon="-6.128919683396816253662109375">
        <ele>150.1999969482421875</ele>
        <time>2019-07-11T12:12:05.000Z</time>
      </trkpt>
      <trkpt lat="43.54318700730800628662109375" lon="-6.128837876021862030029296875">
        <ele>150.1999969482421875</ele>
        <time>2019-07-11T12:12:06.000Z</time>
      </trkpt>
      <trkpt lat="43.54266573674976825714111328125" lon="-6.128699071705341339111328125">
        <ele>151.399993896484375</ele>
        <time>2019-07-11T12:12:09.000Z</time>
      </trkpt>
      <trkpt lat="43.5423191450536251068115234375" lon="-6.1285869218409061431884765625">
        <ele>153</ele>
        <time>2019-07-11T12:12:11.000Z</time>
      </trkpt>
      <trkpt lat="43.5421501658856868743896484375" lon="-6.1285024322569370269775390625">
        <ele>153.1999969482421875</ele>
        <time>2019-07-11T12:12:12.000Z</time>
      </trkpt>
      <trkpt lat="43.5418318212032318115234375" lon="-6.1282603628933429718017578125">
        <ele>152</ele>
        <time>2019-07-11T12:12:14.000Z</time>
      </trkpt>
      <trkpt lat="43.541687317192554473876953125" lon="-6.1280977539718151092529296875">
        <ele>151.399993896484375</ele>
        <time>2019-07-11T12:12:15.000Z</time>
      </trkpt>
      <trkpt lat="43.54155756533145904541015625" lon="-6.1279069818556308746337890625">
        <ele>150.600006103515625</ele>
        <time>2019-07-11T12:12:16.000Z</time>
      </trkpt>
      <trkpt lat="43.5414464212954044342041015625" lon="-6.1276930756866931915283203125">
        <ele>150</ele>
        <time>2019-07-11T12:12:17.000Z</time>
      </trkpt>
      <trkpt lat="43.5413552261888980865478515625" lon="-6.12746198661625385284423828125">
        <ele>149.399993896484375</ele>
        <time>2019-07-11T12:12:18.000Z</time>
      </trkpt>
      <trkpt lat="43.541284985840320587158203125" lon="-6.127220503985881805419921875">
        <ele>148.8000030517578125</ele>
        <time>2019-07-11T12:12:19.000Z</time>
      </trkpt>
      <trkpt lat="43.54123394005000591278076171875" lon="-6.12697650678455829620361328125">
        <ele>147.600006103515625</ele>
        <time>2019-07-11T12:12:20.000Z</time>
      </trkpt>
      <trkpt lat="43.5411983169615268707275390625" lon="-6.1267335154116153717041015625">
        <ele>146.600006103515625</ele>
        <time>2019-07-11T12:12:21.000Z</time>
      </trkpt>
      <trkpt lat="43.54116822592914104461669921875" lon="-6.12649404443800449371337890625">
        <ele>145.600006103515625</ele>
        <time>2019-07-11T12:12:22.000Z</time>
      </trkpt>
      <trkpt lat="43.5410420782864093780517578125" lon="-6.12578778527677059173583984375">
        <ele>145.1999969482421875</ele>
        <time>2019-07-11T12:12:25.000Z</time>
      </trkpt>
      <trkpt lat="43.540971837937831878662109375" lon="-6.12555854022502899169921875">
        <ele>146</ele>
        <time>2019-07-11T12:12:26.000Z</time>
      </trkpt>
      <trkpt lat="43.54065843857824802398681640625" lon="-6.12492176704108715057373046875">
        <ele>146.1999969482421875</ele>
        <time>2019-07-11T12:12:29.000Z</time>
      </trkpt>
      <trkpt lat="43.540407232940196990966796875" lon="-6.12455246038734912872314453125">
        <ele>144.1999969482421875</ele>
        <time>2019-07-11T12:12:31.000Z</time>
      </trkpt>
      <trkpt lat="43.54028896428644657135009765625" lon="-6.124357245862483978271484375">
        <ele>143.1999969482421875</ele>
        <time>2019-07-11T12:12:32.000Z</time>
      </trkpt>
      <trkpt lat="43.54018301703035831451416015625" lon="-6.124151051044464111328125">
        <ele>142.600006103515625</ele>
        <time>2019-07-11T12:12:33.000Z</time>
      </trkpt>
      <trkpt lat="43.5400902293622493743896484375" lon="-6.12393253482878208160400390625">
        <ele>141.8000030517578125</ele>
        <time>2019-07-11T12:12:34.000Z</time>
      </trkpt>
      <trkpt lat="43.53994949720799922943115234375" lon="-6.12345476634800434112548828125">
        <ele>140.600006103515625</ele>
        <time>2019-07-11T12:12:36.000Z</time>
      </trkpt>
      <trkpt lat="43.5398977808654308319091796875" lon="-6.12293994985520839691162109375">
        <ele>138.399993896484375</ele>
        <time>2019-07-11T12:12:38.000Z</time>
      </trkpt>
      <trkpt lat="43.53990708477795124053955078125" lon="-6.12267239950597286224365234375">
        <ele>136.8000030517578125</ele>
        <time>2019-07-11T12:12:39.000Z</time>
      </trkpt>
      <trkpt lat="43.53993876837193965911865234375" lon="-6.12240116111934185028076171875">
        <ele>134.8000030517578125</ele>
        <time>2019-07-11T12:12:40.000Z</time>
      </trkpt>
      <trkpt lat="43.53999249637126922607421875" lon="-6.12213143147528171539306640625">
        <ele>133.600006103515625</ele>
        <time>2019-07-11T12:12:41.000Z</time>
      </trkpt>
      <trkpt lat="43.54022861458361148834228515625" lon="-6.12139080651104450225830078125">
        <ele>132.399993896484375</ele>
        <time>2019-07-11T12:12:44.000Z</time>
      </trkpt>
      <trkpt lat="43.540403209626674652099609375" lon="-6.120681278407573699951171875">
        <ele>133.8000030517578125</ele>
        <time>2019-07-11T12:12:47.000Z</time>
      </trkpt>
      <trkpt lat="43.54042374528944492340087890625" lon="-6.12043610773980617523193359375">
        <ele>135.8000030517578125</ele>
        <time>2019-07-11T12:12:48.000Z</time>
      </trkpt>
      <trkpt lat="43.5404238291084766387939453125" lon="-6.12018632702529430389404296875">
        <ele>138.8000030517578125</ele>
        <time>2019-07-11T12:12:49.000Z</time>
      </trkpt>
      <trkpt lat="43.54040765203535556793212890625" lon="-6.11993470229208469390869140625">
        <ele>143.1999969482421875</ele>
        <time>2019-07-11T12:12:50.000Z</time>
      </trkpt>
      <trkpt lat="43.5403789021074771881103515625" lon="-6.11968374811112880706787109375">
        <ele>147.600006103515625</ele>
        <time>2019-07-11T12:12:51.000Z</time>
      </trkpt>
      <trkpt lat="43.5403430275619029998779296875" lon="-6.1194318719208240509033203125">
        <ele>151.600006103515625</ele>
        <time>2019-07-11T12:12:52.000Z</time>
      </trkpt>
      <trkpt lat="43.540309332311153411865234375" lon="-6.1191773973405361175537109375">
        <ele>153.8000030517578125</ele>
        <time>2019-07-11T12:12:53.000Z</time>
      </trkpt>
      <trkpt lat="43.5402897186577320098876953125" lon="-6.118919737637042999267578125">
        <ele>154.8000030517578125</ele>
        <time>2019-07-11T12:12:54.000Z</time>
      </trkpt>
      <trkpt lat="43.5402883775532245635986328125" lon="-6.1186620779335498809814453125">
        <ele>153</ele>
        <time>2019-07-11T12:12:55.000Z</time>
      </trkpt>
      <trkpt lat="43.54030975140631198883056640625" lon="-6.11840500496327877044677734375">
        <ele>150.600006103515625</ele>
        <time>2019-07-11T12:12:56.000Z</time>
      </trkpt>
      <trkpt lat="43.540357612073421478271484375" lon="-6.1181561462581157684326171875">
        <ele>148</ele>
        <time>2019-07-11T12:12:57.000Z</time>
      </trkpt>
      <trkpt lat="43.54043162427842617034912109375" lon="-6.1179201118648052215576171875">
        <ele>145.399993896484375</ele>
        <time>2019-07-11T12:12:58.000Z</time>
      </trkpt>
      <trkpt lat="43.5405287705361843109130859375" lon="-6.1176995001733303070068359375">
        <ele>143.399993896484375</ele>
        <time>2019-07-11T12:12:59.000Z</time>
      </trkpt>
      <trkpt lat="43.54064561426639556884765625" lon="-6.1175006814301013946533203125">
        <ele>142.399993896484375</ele>
        <time>2019-07-11T12:13:00.000Z</time>
      </trkpt>
      <trkpt lat="43.5410397313535213470458984375" lon="-6.1170150339603424072265625">
        <ele>142.1999969482421875</ele>
        <time>2019-07-11T12:13:03.000Z</time>
      </trkpt>
      <trkpt lat="43.54127735830843448638916015625" lon="-6.116694845259189605712890625">
        <ele>143</ele>
        <time>2019-07-11T12:13:05.000Z</time>
      </trkpt>
      <trkpt lat="43.5413793660700321197509765625" lon="-6.1165075935423374176025390625">
        <ele>144.8000030517578125</ele>
        <time>2019-07-11T12:13:06.000Z</time>
      </trkpt>
      <trkpt lat="43.5414670407772064208984375" lon="-6.1162977106869220733642578125">
        <ele>146.8000030517578125</ele>
        <time>2019-07-11T12:13:07.000Z</time>
      </trkpt>
      <trkpt lat="43.54153878986835479736328125" lon="-6.11606695689260959625244140625">
        <ele>148.1999969482421875</ele>
        <time>2019-07-11T12:13:08.000Z</time>
      </trkpt>
      <trkpt lat="43.54159377515316009521484375" lon="-6.11581432633101940155029296875">
        <ele>149</ele>
        <time>2019-07-11T12:13:09.000Z</time>
      </trkpt>
      <trkpt lat="43.54163308627903461456298828125" lon="-6.11554996110498905181884765625">
        <ele>149.399993896484375</ele>
        <time>2019-07-11T12:13:10.000Z</time>
      </trkpt>
      <trkpt lat="43.54169092141091823577880859375" lon="-6.11503866501152515411376953125">
        <ele>147.1999969482421875</ele>
        <time>2019-07-11T12:13:12.000Z</time>
      </trkpt>
      <trkpt lat="43.54171791113913059234619140625" lon="-6.11479324288666248321533203125">
        <ele>146</ele>
        <time>2019-07-11T12:13:13.000Z</time>
      </trkpt>
      <trkpt lat="43.5417676158249378204345703125" lon="-6.11432754434645175933837890625">
        <ele>144.399993896484375</ele>
        <time>2019-07-11T12:13:15.000Z</time>
      </trkpt>
      <trkpt lat="43.54184112511575222015380859375" lon="-6.11355808563530445098876953125">
        <ele>146.399993896484375</ele>
        <time>2019-07-11T12:13:19.000Z</time>
      </trkpt>
      <trkpt lat="43.541856296360492706298828125" lon="-6.1133844964206218719482421875">
        <ele>147.600006103515625</ele>
        <time>2019-07-11T12:13:20.000Z</time>
      </trkpt>
      <trkpt lat="43.5418631695210933685302734375" lon="-6.113046705722808837890625">
        <ele>148.600006103515625</ele>
        <time>2019-07-11T12:13:22.000Z</time>
      </trkpt>
      <trkpt lat="43.541740961372852325439453125" lon="-6.11230046488344669342041015625">
        <ele>148.399993896484375</ele>
        <time>2019-07-11T12:13:27.000Z</time>
      </trkpt>
      <trkpt lat="43.54163560084998607635498046875" lon="-6.1120266281068325042724609375">
        <ele>148</ele>
        <time>2019-07-11T12:13:29.000Z</time>
      </trkpt>
      <trkpt lat="43.5415698029100894927978515625" lon="-6.1119019053876399993896484375">
        <ele>147.600006103515625</ele>
        <time>2019-07-11T12:13:30.000Z</time>
      </trkpt>
      <trkpt lat="43.54118096642196178436279296875" lon="-6.111439727246761322021484375">
        <ele>147.600006103515625</ele>
        <time>2019-07-11T12:13:35.000Z</time>
      </trkpt>
      <trkpt lat="43.54103093035519123077392578125" lon="-6.11140192486345767974853515625">
        <ele>147.8000030517578125</ele>
        <time>2019-07-11T12:13:37.000Z</time>
      </trkpt>
      <trkpt lat="43.54089011438190937042236328125" lon="-6.1114848218858242034912109375">
        <ele>148.399993896484375</ele>
        <time>2019-07-11T12:13:39.000Z</time>
      </trkpt>
      <trkpt lat="43.54081434197723865509033203125" lon="-6.11154533922672271728515625">
        <ele>148.8000030517578125</ele>
        <time>2019-07-11T12:13:40.000Z</time>
      </trkpt>
      <trkpt lat="43.5407306067645549774169921875" lon="-6.11159286461770534515380859375">
        <ele>149</ele>
        <time>2019-07-11T12:13:41.000Z</time>
      </trkpt>
      <trkpt lat="43.54055383242666721343994140625" lon="-6.11160007305443286895751953125">
        <ele>149.1999969482421875</ele>
        <time>2019-07-11T12:13:43.000Z</time>
      </trkpt>
      <trkpt lat="43.540407232940196990966796875" lon="-6.11148641444742679595947265625">
        <ele>149</ele>
        <time>2019-07-11T12:13:45.000Z</time>
      </trkpt>
      <trkpt lat="43.5403271019458770751953125" lon="-6.11127954907715320587158203125">
        <ele>148.399993896484375</ele>
        <time>2019-07-11T12:13:47.000Z</time>
      </trkpt>
      <trkpt lat="43.5403081588447093963623046875" lon="-6.110881157219409942626953125">
        <ele>147.8000030517578125</ele>
        <time>2019-07-11T12:13:50.000Z</time>
      </trkpt>
      <trkpt lat="43.54027806781232357025146484375" lon="-6.11073824577033519744873046875">
        <ele>147.399993896484375</ele>
        <time>2019-07-11T12:13:51.000Z</time>
      </trkpt>
      <trkpt lat="43.5402226634323596954345703125" lon="-6.1105929873883724212646484375">
        <ele>146.8000030517578125</ele>
        <time>2019-07-11T12:13:52.000Z</time>
      </trkpt>
      <trkpt lat="43.540149070322513580322265625" lon="-6.11043800599873065948486328125">
        <ele>145.8000030517578125</ele>
        <time>2019-07-11T12:13:53.000Z</time>
      </trkpt>
      <trkpt lat="43.54006893932819366455078125" lon="-6.11026684753596782684326171875">
        <ele>144.600006103515625</ele>
        <time>2019-07-11T12:13:54.000Z</time>
      </trkpt>
      <trkpt lat="43.53999559767544269561767578125" lon="-6.1100813560187816619873046875">
        <ele>143.8000030517578125</ele>
        <time>2019-07-11T12:13:55.000Z</time>
      </trkpt>
      <trkpt lat="43.53993440978229045867919921875" lon="-6.10988211818039417266845703125">
        <ele>143.399993896484375</ele>
        <time>2019-07-11T12:13:56.000Z</time>
      </trkpt>
      <trkpt lat="43.539888560771942138671875" lon="-6.10966871492564678192138671875">
        <ele>142.399993896484375</ele>
        <time>2019-07-11T12:13:57.000Z</time>
      </trkpt>
      <trkpt lat="43.53985964320600032806396484375" lon="-6.10944407992064952850341796875">
        <ele>141.8000030517578125</ele>
        <time>2019-07-11T12:13:58.000Z</time>
      </trkpt>
      <trkpt lat="43.5398421250283718109130859375" lon="-6.108967401087284088134765625">
        <ele>139.399993896484375</ele>
        <time>2019-07-11T12:14:00.000Z</time>
      </trkpt>
      <trkpt lat="43.53984505869448184967041015625" lon="-6.1087224818766117095947265625">
        <ele>137.399993896484375</ele>
        <time>2019-07-11T12:14:01.000Z</time>
      </trkpt>
      <trkpt lat="43.5398484952747821807861328125" lon="-6.10847647301852703094482421875">
        <ele>135.399993896484375</ele>
        <time>2019-07-11T12:14:02.000Z</time>
      </trkpt>
      <trkpt lat="43.5398521833121776580810546875" lon="-6.10823172144591808319091796875">
        <ele>133.600006103515625</ele>
        <time>2019-07-11T12:14:03.000Z</time>
      </trkpt>
      <trkpt lat="43.5398572124540805816650390625" lon="-6.107987053692340850830078125">
        <ele>131.1999969482421875</ele>
        <time>2019-07-11T12:14:04.000Z</time>
      </trkpt>
      <trkpt lat="43.539862744510173797607421875" lon="-6.10774188302457332611083984375">
        <ele>129</ele>
        <time>2019-07-11T12:14:05.000Z</time>
      </trkpt>
      <trkpt lat="43.53986777365207672119140625" lon="-6.10749520361423492431640625">
        <ele>126.8000030517578125</ele>
        <time>2019-07-11T12:14:06.000Z</time>
      </trkpt>
      <trkpt lat="43.53987355716526508331298828125" lon="-6.1072459258139133453369140625">
        <ele>125.1999969482421875</ele>
        <time>2019-07-11T12:14:07.000Z</time>
      </trkpt>
      <trkpt lat="43.53988252580165863037109375" lon="-6.10699622891843318939208984375">
        <ele>123.59999847412109375</ele>
        <time>2019-07-11T12:14:08.000Z</time>
      </trkpt>
      <trkpt lat="43.53989937342703342437744140625" lon="-6.1067507229745388031005859375">
        <ele>122</ele>
        <time>2019-07-11T12:14:09.000Z</time>
      </trkpt>
      <trkpt lat="43.53993105702102184295654296875" lon="-6.10651225782930850982666015625">
        <ele>120.1999969482421875</ele>
        <time>2019-07-11T12:14:10.000Z</time>
      </trkpt>
      <trkpt lat="43.54005016386508941650390625" lon="-6.1060608923435211181640625">
        <ele>118.40000152587890625</ele>
        <time>2019-07-11T12:14:12.000Z</time>
      </trkpt>
      <trkpt lat="43.54025141336023807525634765625" lon="-6.10565696842968463897705078125">
        <ele>117.1999969482421875</ele>
        <time>2019-07-11T12:14:14.000Z</time>
      </trkpt>
      <trkpt lat="43.54050773195922374725341796875" lon="-6.105300486087799072265625">
        <ele>116.1999969482421875</ele>
        <time>2019-07-11T12:14:16.000Z</time>
      </trkpt>
      <trkpt lat="43.54077561758458614349365234375" lon="-6.10494769178330898284912109375">
        <ele>114.1999969482421875</ele>
        <time>2019-07-11T12:14:18.000Z</time>
      </trkpt>
      <trkpt lat="43.54090469889342784881591796875" lon="-6.10476781614124774932861328125">
        <ele>113</ele>
        <time>2019-07-11T12:14:19.000Z</time>
      </trkpt>
      <trkpt lat="43.54102271609008312225341796875" lon="-6.104584001004695892333984375">
        <ele>111.40000152587890625</ele>
        <time>2019-07-11T12:14:20.000Z</time>
      </trkpt>
      <trkpt lat="43.5411235503852367401123046875" lon="-6.104390881955623626708984375">
        <ele>110.1999969482421875</ele>
        <time>2019-07-11T12:14:21.000Z</time>
      </trkpt>
      <trkpt lat="43.541208207607269287109375" lon="-6.10419432632625102996826171875">
        <ele>108.8000030517578125</ele>
        <time>2019-07-11T12:14:22.000Z</time>
      </trkpt>
      <trkpt lat="43.541283309459686279296875" lon="-6.1039977706968784332275390625">
        <ele>107.8000030517578125</ele>
        <time>2019-07-11T12:14:23.000Z</time>
      </trkpt>
      <trkpt lat="43.5414831340312957763671875" lon="-6.1034381948411464691162109375">
        <ele>106.59999847412109375</ele>
        <time>2019-07-11T12:14:26.000Z</time>
      </trkpt>
      <trkpt lat="43.54161011986434459686279296875" lon="-6.10309814102947711944580078125">
        <ele>104</ele>
        <time>2019-07-11T12:14:28.000Z</time>
      </trkpt>
      <trkpt lat="43.5416737385094165802001953125" lon="-6.10293452627956867218017578125">
        <ele>102</ele>
        <time>2019-07-11T12:14:29.000Z</time>
      </trkpt>
      <trkpt lat="43.54173450730741024017333984375" lon="-6.102770157158374786376953125">
        <ele>100.1999969482421875</ele>
        <time>2019-07-11T12:14:30.000Z</time>
      </trkpt>
      <trkpt lat="43.5418319888412952423095703125" lon="-6.1024498008191585540771484375">
        <ele>98.8000030517578125</ele>
        <time>2019-07-11T12:14:32.000Z</time>
      </trkpt>
      <trkpt lat="43.5419278778135776519775390625" lon="-6.1018337309360504150390625">
        <ele>98.59999847412109375</ele>
        <time>2019-07-11T12:14:36.000Z</time>
      </trkpt>
      <trkpt lat="43.54191790334880352020263671875" lon="-6.10120969824492931365966796875">
        <ele>98.8000030517578125</ele>
        <time>2019-07-11T12:14:40.000Z</time>
      </trkpt>
      <trkpt lat="43.54182033799588680267333984375" lon="-6.10069521702826023101806640625">
        <ele>96.59999847412109375</ele>
        <time>2019-07-11T12:14:43.000Z</time>
      </trkpt>
      <trkpt lat="43.54176543653011322021484375" lon="-6.10051685012876987457275390625">
        <ele>95.40000152587890625</ele>
        <time>2019-07-11T12:14:44.000Z</time>
      </trkpt>
      <trkpt lat="43.54162730276584625244140625" lon="-6.10015961341559886932373046875">
        <ele>93.8000030517578125</ele>
        <time>2019-07-11T12:14:46.000Z</time>
      </trkpt>
      <trkpt lat="43.54147030971944332122802734375" lon="-6.09979433007538318634033203125">
        <ele>92.1999969482421875</ele>
        <time>2019-07-11T12:14:48.000Z</time>
      </trkpt>
      <trkpt lat="43.54138984344899654388427734375" lon="-6.0996069945394992828369140625">
        <ele>90.8000030517578125</ele>
        <time>2019-07-11T12:14:49.000Z</time>
      </trkpt>
      <trkpt lat="43.5413129813969135284423828125" lon="-6.09941446222364902496337890625">
        <ele>89.1999969482421875</ele>
        <time>2019-07-11T12:14:50.000Z</time>
      </trkpt>
      <trkpt lat="43.541240729391574859619140625" lon="-6.09921530820429325103759765625">
        <ele>87.1999969482421875</ele>
        <time>2019-07-11T12:14:51.000Z</time>
      </trkpt>
      <trkpt lat="43.5411746799945831298828125" lon="-6.09901179559528827667236328125">
        <ele>86</ele>
        <time>2019-07-11T12:14:52.000Z</time>
      </trkpt>
      <trkpt lat="43.541073761880397796630859375" lon="-6.098589599132537841796875">
        <ele>84.59999847412109375</ele>
        <time>2019-07-11T12:14:54.000Z</time>
      </trkpt>
      <trkpt lat="43.54100829921662807464599609375" lon="-6.097881495952606201171875">
        <ele>84.40000152587890625</ele>
        <time>2019-07-11T12:14:57.000Z</time>
      </trkpt>
      <trkpt lat="43.54101416654884815216064453125" lon="-6.09763246960937976837158203125">
        <ele>83.1999969482421875</ele>
        <time>2019-07-11T12:14:58.000Z</time>
      </trkpt>
      <trkpt lat="43.54103445075452327728271484375" lon="-6.09738671220839023590087890625">
        <ele>81.59999847412109375</ele>
        <time>2019-07-11T12:14:59.000Z</time>
      </trkpt>
      <trkpt lat="43.5410682298243045806884765625" lon="-6.09714313410222530364990234375">
        <ele>79.8000030517578125</ele>
        <time>2019-07-11T12:15:00.000Z</time>
      </trkpt>
      <trkpt lat="43.54111575521528720855712890625" lon="-6.09690316021442413330078125">
        <ele>78</ele>
        <time>2019-07-11T12:15:01.000Z</time>
      </trkpt>
      <trkpt lat="43.5411792062222957611083984375" lon="-6.09666955657303333282470703125">
        <ele>76.59999847412109375</ele>
        <time>2019-07-11T12:15:02.000Z</time>
      </trkpt>
      <trkpt lat="43.54144985787570476531982421875" lon="-6.096009649336338043212890625">
        <ele>75.1999969482421875</ele>
        <time>2019-07-11T12:15:05.000Z</time>
      </trkpt>
      <trkpt lat="43.5417977906763553619384765625" lon="-6.09540137462317943572998046875">
        <ele>74.59999847412109375</ele>
        <time>2019-07-11T12:15:08.000Z</time>
      </trkpt>
      <trkpt lat="43.54216315783560276031494140625" lon="-6.0948169045150279998779296875">
        <ele>74.1999969482421875</ele>
        <time>2019-07-11T12:15:11.000Z</time>
      </trkpt>
      <trkpt lat="43.54228419251739978790283203125" lon="-6.09461984597146511077880859375">
        <ele>74</ele>
        <time>2019-07-11T12:15:12.000Z</time>
      </trkpt>
      <trkpt lat="43.54263589717447757720947265625" lon="-6.0940419137477874755859375">
        <ele>73</ele>
        <time>2019-07-11T12:15:15.000Z</time>
      </trkpt>
      <trkpt lat="43.5429273359477519989013671875" lon="-6.0934248380362987518310546875">
        <ele>71.59999847412109375</ele>
        <time>2019-07-11T12:15:18.000Z</time>
      </trkpt>
      <trkpt lat="43.5429990850389003753662109375" lon="-6.0931921564042568206787109375">
        <ele>71.1999969482421875</ele>
        <time>2019-07-11T12:15:19.000Z</time>
      </trkpt>
      <trkpt lat="43.54305968619883060455322265625" lon="-6.09294413588941097259521484375">
        <ele>70.1999969482421875</ele>
        <time>2019-07-11T12:15:20.000Z</time>
      </trkpt>
      <trkpt lat="43.5431020148098468780517578125" lon="-6.0926825366914272308349609375">
        <ele>69</ele>
        <time>2019-07-11T12:15:21.000Z</time>
      </trkpt>
      <trkpt lat="43.5431300103664398193359375" lon="-6.09212740324437618255615234375">
        <ele>66.59999847412109375</ele>
        <time>2019-07-11T12:15:23.000Z</time>
      </trkpt>
      <trkpt lat="43.54311215691268444061279296875" lon="-6.09183990396559238433837890625">
        <ele>65.1999969482421875</ele>
        <time>2019-07-11T12:15:24.000Z</time>
      </trkpt>
      <trkpt lat="43.54307242669165134429931640625" lon="-6.09156413935124874114990234375">
        <ele>64.1999969482421875</ele>
        <time>2019-07-11T12:15:25.000Z</time>
      </trkpt>
      <trkpt lat="43.543010652065277099609375" lon="-6.09130161814391613006591796875">
        <ele>63.799999237060546875</ele>
        <time>2019-07-11T12:15:26.000Z</time>
      </trkpt>
      <trkpt lat="43.542932532727718353271484375" lon="-6.09104999341070652008056640625">
        <ele>63.59999847412109375</ele>
        <time>2019-07-11T12:15:27.000Z</time>
      </trkpt>
      <trkpt lat="43.54270546697080135345458984375" lon="-6.09057825990021228790283203125">
        <ele>62.59999847412109375</ele>
        <time>2019-07-11T12:15:29.000Z</time>
      </trkpt>
      <trkpt lat="43.54240103624761104583740234375" lon="-6.0901392996311187744140625">
        <ele>60.799999237060546875</ele>
        <time>2019-07-11T12:15:31.000Z</time>
      </trkpt>
      <trkpt lat="43.5420764051377773284912109375" lon="-6.0897059552371501922607421875">
        <ele>60</ele>
        <time>2019-07-11T12:15:33.000Z</time>
      </trkpt>
      <trkpt lat="43.5419161431491374969482421875" lon="-6.08949162997305393218994140625">
        <ele>59.40000152587890625</ele>
        <time>2019-07-11T12:15:34.000Z</time>
      </trkpt>
      <trkpt lat="43.54160182178020477294921875" lon="-6.08908141963183879852294921875">
        <ele>57</ele>
        <time>2019-07-11T12:15:36.000Z</time>
      </trkpt>
      <trkpt lat="43.54144901968538761138916015625" lon="-6.0888858698308467864990234375">
        <ele>54.799999237060546875</ele>
        <time>2019-07-11T12:15:37.000Z</time>
      </trkpt>
      <trkpt lat="43.541299737989902496337890625" lon="-6.0886935889720916748046875">
        <ele>52.40000152587890625</ele>
        <time>2019-07-11T12:15:38.000Z</time>
      </trkpt>
      <trkpt lat="43.54115313850343227386474609375" lon="-6.08849904499948024749755859375">
        <ele>50.799999237060546875</ele>
        <time>2019-07-11T12:15:39.000Z</time>
      </trkpt>
      <trkpt lat="43.5410062037408351898193359375" lon="-6.0883038304746150970458984375">
        <ele>48.799999237060546875</ele>
        <time>2019-07-11T12:15:40.000Z</time>
      </trkpt>
      <trkpt lat="43.54071426205337047576904296875" lon="-6.0879159159958362579345703125">
        <ele>46.799999237060546875</ele>
        <time>2019-07-11T12:15:42.000Z</time>
      </trkpt>
      <trkpt lat="43.5404343903064727783203125" lon="-6.08752858825027942657470703125">
        <ele>45.59999847412109375</ele>
        <time>2019-07-11T12:15:44.000Z</time>
      </trkpt>
      <trkpt lat="43.5403007827699184417724609375" lon="-6.08732943423092365264892578125">
        <ele>44.200000762939453125</ele>
        <time>2019-07-11T12:15:45.000Z</time>
      </trkpt>
      <trkpt lat="43.54017396457493305206298828125" lon="-6.08712173067033290863037109375">
        <ele>43</ele>
        <time>2019-07-11T12:15:46.000Z</time>
      </trkpt>
      <trkpt lat="43.54005728848278522491455078125" lon="-6.0868960060179233551025390625">
        <ele>41.59999847412109375</ele>
        <time>2019-07-11T12:15:47.000Z</time>
      </trkpt>
      <trkpt lat="43.53995251469314098358154296875" lon="-6.08665586449205875396728515625">
        <ele>39.799999237060546875</ele>
        <time>2019-07-11T12:15:48.000Z</time>
      </trkpt>
      <trkpt lat="43.53986031375825405120849609375" lon="-6.08640273101627826690673828125">
        <ele>37.200000762939453125</ele>
        <time>2019-07-11T12:15:49.000Z</time>
      </trkpt>
      <trkpt lat="43.5397811047732830047607421875" lon="-6.0861382819712162017822265625">
        <ele>35.200000762939453125</ele>
        <time>2019-07-11T12:15:50.000Z</time>
      </trkpt>
      <trkpt lat="43.53971597738564014434814453125" lon="-6.0858638584613800048828125">
        <ele>33</ele>
        <time>2019-07-11T12:15:51.000Z</time>
      </trkpt>
      <trkpt lat="43.5396650992333889007568359375" lon="-6.0855810530483722686767578125">
        <ele>31.6000003814697265625</ele>
        <time>2019-07-11T12:15:52.000Z</time>
      </trkpt>
      <trkpt lat="43.53962360881268978118896484375" lon="-6.08529212884604930877685546875">
        <ele>30.6000003814697265625</ele>
        <time>2019-07-11T12:15:53.000Z</time>
      </trkpt>
      <trkpt lat="43.53958547115325927734375" lon="-6.0850001871585845947265625">
        <ele>29.3999996185302734375</ele>
        <time>2019-07-11T12:15:54.000Z</time>
      </trkpt>
      <trkpt lat="43.53954716585576534271240234375" lon="-6.08470715582370758056640625">
        <ele>28</ele>
        <time>2019-07-11T12:15:55.000Z</time>
      </trkpt>
      <trkpt lat="43.53944708593189716339111328125" lon="-6.0838575661182403564453125">
        <ele>28.3999996185302734375</ele>
        <time>2019-07-11T12:15:58.000Z</time>
      </trkpt>
      <trkpt lat="43.53941624052822589874267578125" lon="-6.08358456753194332122802734375">
        <ele>30.200000762939453125</ele>
        <time>2019-07-11T12:15:59.000Z</time>
      </trkpt>
      <trkpt lat="43.53933024220168590545654296875" lon="-6.08307293616235256195068359375">
        <ele>30.200000762939453125</ele>
        <time>2019-07-11T12:16:01.000Z</time>
      </trkpt>
      <trkpt lat="43.5391786135733127593994140625" lon="-6.08265819959342479705810546875">
        <ele>25.6000003814697265625</ele>
        <time>2019-07-11T12:16:03.000Z</time>
      </trkpt>
      <trkpt lat="43.5390756838023662567138671875" lon="-6.08249123208224773406982421875">
        <ele>19.3999996185302734375</ele>
        <time>2019-07-11T12:16:04.000Z</time>
      </trkpt>
      <trkpt lat="43.5389549843966960906982421875" lon="-6.082347817718982696533203125">
        <ele>16.200000762939453125</ele>
        <time>2019-07-11T12:16:05.000Z</time>
      </trkpt>
      <trkpt lat="43.53881726972758769989013671875" lon="-6.08222787268459796905517578125">
        <ele>14.3999996185302734375</ele>
        <time>2019-07-11T12:16:06.000Z</time>
      </trkpt>
      <trkpt lat="43.53866279125213623046875" lon="-6.082134582102298736572265625">
        <ele>13.3999996185302734375</ele>
        <time>2019-07-11T12:16:07.000Z</time>
      </trkpt>
      <trkpt lat="43.5384963266551494598388671875" lon="-6.0820658504962921142578125">
        <ele>13.19999980926513671875</ele>
        <time>2019-07-11T12:16:08.000Z</time>
      </trkpt>
      <trkpt lat="43.537979833781719207763671875" lon="-6.08194045722484588623046875">
        <ele>13</ele>
        <time>2019-07-11T12:16:11.000Z</time>
      </trkpt>
      <trkpt lat="43.53748798370361328125" lon="-6.08184498734772205352783203125">
        <ele>16.3999996185302734375</ele>
        <time>2019-07-11T12:16:14.000Z</time>
      </trkpt>
      <trkpt lat="43.53732478804886341094970703125" lon="-6.08181196264922618865966796875">
        <ele>17.6000003814697265625</ele>
        <time>2019-07-11T12:16:15.000Z</time>
      </trkpt>
      <trkpt lat="43.5368226282298564910888671875" lon="-6.0817106254398822784423828125">
        <ele>19</ele>
        <time>2019-07-11T12:16:18.000Z</time>
      </trkpt>
      <trkpt lat="43.536649458110332489013671875" lon="-6.08167516998946666717529296875">
        <ele>17.3999996185302734375</ele>
        <time>2019-07-11T12:16:19.000Z</time>
      </trkpt>
      <trkpt lat="43.53647586889564990997314453125" lon="-6.081640720367431640625">
        <ele>16.3999996185302734375</ele>
        <time>2019-07-11T12:16:20.000Z</time>
      </trkpt>
      <trkpt lat="43.53630521334707736968994140625" lon="-6.08160476200282573699951171875">
        <ele>14.6000003814697265625</ele>
        <time>2019-07-11T12:16:21.000Z</time>
      </trkpt>
      <trkpt lat="43.5361373238265514373779296875" lon="-6.0815698094666004180908203125">
        <ele>13.3999996185302734375</ele>
        <time>2019-07-11T12:16:22.000Z</time>
      </trkpt>
      <trkpt lat="43.535801880061626434326171875" lon="-6.0814983956515789031982421875">
        <ele>11.80000019073486328125</ele>
        <time>2019-07-11T12:16:24.000Z</time>
      </trkpt>
      <trkpt lat="43.53530273772776126861572265625" lon="-6.08133872039616107940673828125">
        <ele>12</ele>
        <time>2019-07-11T12:16:27.000Z</time>
      </trkpt>
      <trkpt lat="43.53500803001224994659423828125" lon="-6.08108659274876117706298828125">
        <ele>12.6000003814697265625</ele>
        <time>2019-07-11T12:16:29.000Z</time>
      </trkpt>
      <trkpt lat="43.5348807089030742645263671875" lon="-6.08090621419250965118408203125">
        <ele>12.80000019073486328125</ele>
        <time>2019-07-11T12:16:30.000Z</time>
      </trkpt>
      <trkpt lat="43.5347724147140979766845703125" lon="-6.08068929053843021392822265625">
        <ele>13.19999980926513671875</ele>
        <time>2019-07-11T12:16:31.000Z</time>
      </trkpt>
      <trkpt lat="43.53463470004498958587646484375" lon="-6.08017799444496631622314453125">
        <ele>13.3999996185302734375</ele>
        <time>2019-07-11T12:16:33.000Z</time>
      </trkpt>
      <trkpt lat="43.53458424098789691925048828125" lon="-6.0796007327735424041748046875">
        <ele>14</ele>
        <time>2019-07-11T12:16:35.000Z</time>
      </trkpt>
      <trkpt lat="43.53457309305667877197265625" lon="-6.07901014387607574462890625">
        <ele>15.3999996185302734375</ele>
        <time>2019-07-11T12:16:37.000Z</time>
      </trkpt>
      <trkpt lat="43.53457250632345676422119140625" lon="-6.07871216721832752227783203125">
        <ele>16.799999237060546875</ele>
        <time>2019-07-11T12:16:38.000Z</time>
      </trkpt>
      <trkpt lat="43.534571416676044464111328125" lon="-6.0784126818180084228515625">
        <ele>18</ele>
        <time>2019-07-11T12:16:39.000Z</time>
      </trkpt>
      <trkpt lat="43.534584827721118927001953125" lon="-6.07781915925443172454833984375">
        <ele>19.6000003814697265625</ele>
        <time>2019-07-11T12:16:41.000Z</time>
      </trkpt>
      <trkpt lat="43.53461039252579212188720703125" lon="-6.07753685675561428070068359375">
        <ele>20.799999237060546875</ele>
        <time>2019-07-11T12:16:42.000Z</time>
      </trkpt>
      <trkpt lat="43.53465448133647441864013671875" lon="-6.07725690118968486785888671875">
        <ele>22</ele>
        <time>2019-07-11T12:16:43.000Z</time>
      </trkpt>
      <trkpt lat="43.53478540666401386260986328125" lon="-6.07671014964580535888671875">
        <ele>24.200000762939453125</ele>
        <time>2019-07-11T12:16:45.000Z</time>
      </trkpt>
      <trkpt lat="43.53486436419188976287841796875" lon="-6.07643865980207920074462890625">
        <ele>26.3999996185302734375</ele>
        <time>2019-07-11T12:16:46.000Z</time>
      </trkpt>
      <trkpt lat="43.5349571518599987030029296875" lon="-6.076169349253177642822265625">
        <ele>28.200000762939453125</ele>
        <time>2019-07-11T12:16:47.000Z</time>
      </trkpt>
      <trkpt lat="43.5350523702800273895263671875" lon="-6.0758942551910877227783203125">
        <ele>29.3999996185302734375</ele>
        <time>2019-07-11T12:16:48.000Z</time>
      </trkpt>
      <trkpt lat="43.5351450741291046142578125" lon="-6.075618825852870941162109375">
        <ele>30.6000003814697265625</ele>
        <time>2019-07-11T12:16:49.000Z</time>
      </trkpt>
      <trkpt lat="43.53523685596883296966552734375" lon="-6.07534867711365222930908203125">
        <ele>31.6000003814697265625</ele>
        <time>2019-07-11T12:16:50.000Z</time>
      </trkpt>
      <trkpt lat="43.53532738052308559417724609375" lon="-6.07508548535406589508056640625">
        <ele>33.200000762939453125</ele>
        <time>2019-07-11T12:16:51.000Z</time>
      </trkpt>
      <trkpt lat="43.5354184918105602264404296875" lon="-6.07482966966927051544189453125">
        <ele>35</ele>
        <time>2019-07-11T12:16:52.000Z</time>
      </trkpt>
      <trkpt lat="43.5355059988796710968017578125" lon="-6.07458558864891529083251953125">
        <ele>36.59999847412109375</ele>
        <time>2019-07-11T12:16:53.000Z</time>
      </trkpt>
      <trkpt lat="43.5355847887694835662841796875" lon="-6.0743523202836513519287109375">
        <ele>39.59999847412109375</ele>
        <time>2019-07-11T12:16:54.000Z</time>
      </trkpt>
      <trkpt lat="43.53565427474677562713623046875" lon="-6.0741290263831615447998046875">
        <ele>42.799999237060546875</ele>
        <time>2019-07-11T12:16:55.000Z</time>
      </trkpt>
      <trkpt lat="43.53571160696446895599365234375" lon="-6.07391059398651123046875">
        <ele>46.40000152587890625</ele>
        <time>2019-07-11T12:16:56.000Z</time>
      </trkpt>
      <trkpt lat="43.535754270851612091064453125" lon="-6.07369191013276576995849609375">
        <ele>48.799999237060546875</ele>
        <time>2019-07-11T12:16:57.000Z</time>
      </trkpt>
      <trkpt lat="43.53577044792473316192626953125" lon="-6.0734675265848636627197265625">
        <ele>50.799999237060546875</ele>
        <time>2019-07-11T12:16:58.000Z</time>
      </trkpt>
      <trkpt lat="43.5357121936976909637451171875" lon="-6.073010377585887908935546875">
        <ele>51.799999237060546875</ele>
        <time>2019-07-11T12:17:00.000Z</time>
      </trkpt>
      <trkpt lat="43.53564304299652576446533203125" lon="-6.07280158437788486480712890625">
        <ele>52.799999237060546875</ele>
        <time>2019-07-11T12:17:01.000Z</time>
      </trkpt>
      <trkpt lat="43.5355623252689838409423828125" lon="-6.07262405566871166229248046875">
        <ele>53.200000762939453125</ele>
        <time>2019-07-11T12:17:02.000Z</time>
      </trkpt>
      <trkpt lat="43.53546895086765289306640625" lon="-6.07247083447873592376708984375">
        <ele>53.799999237060546875</ele>
        <time>2019-07-11T12:17:03.000Z</time>
      </trkpt>
      <trkpt lat="43.535361997783184051513671875" lon="-6.0723423399031162261962890625">
        <ele>54.799999237060546875</ele>
        <time>2019-07-11T12:17:04.000Z</time>
      </trkpt>
      <trkpt lat="43.5351509414613246917724609375" lon="-6.0721150226891040802001953125">
        <ele>56.200000762939453125</ele>
        <time>2019-07-11T12:17:06.000Z</time>
      </trkpt>
      <trkpt lat="43.535050861537456512451171875" lon="-6.07201016508042812347412109375">
        <ele>57.59999847412109375</ele>
        <time>2019-07-11T12:17:07.000Z</time>
      </trkpt>
      <trkpt lat="43.53495589457452297210693359375" lon="-6.071901619434356689453125">
        <ele>59</ele>
        <time>2019-07-11T12:17:08.000Z</time>
      </trkpt>
      <trkpt lat="43.53477182798087596893310546875" lon="-6.071697771549224853515625">
        <ele>60.59999847412109375</ele>
        <time>2019-07-11T12:17:10.000Z</time>
      </trkpt>
      <trkpt lat="43.53455004282295703887939453125" lon="-6.0714612342417240142822265625">
        <ele>61.59999847412109375</ele>
        <time>2019-07-11T12:17:13.000Z</time>
      </trkpt>
      <trkpt lat="43.53437595069408416748046875" lon="-6.07129066251218318939208984375">
        <ele>63.40000152587890625</ele>
        <time>2019-07-11T12:17:16.000Z</time>
      </trkpt>
      <trkpt lat="43.53432557545602321624755859375" lon="-6.07124338857829570770263671875">
        <ele>64.40000152587890625</ele>
        <time>2019-07-11T12:17:17.000Z</time>
      </trkpt>
      <trkpt lat="43.53422096930444240570068359375" lon="-6.07115688733756542205810546875">
        <ele>66</ele>
        <time>2019-07-11T12:17:19.000Z</time>
      </trkpt>
      <trkpt lat="43.5341675765812397003173828125" lon="-6.071105338633060455322265625">
        <ele>66.40000152587890625</ele>
        <time>2019-07-11T12:17:20.000Z</time>
      </trkpt>
      <trkpt lat="43.53409037925302982330322265625" lon="-6.0709499381482601165771484375">
        <ele>66.8000030517578125</ele>
        <time>2019-07-11T12:17:22.000Z</time>
      </trkpt>
      <trkpt lat="43.5340743698179721832275390625" lon="-6.0708480142056941986083984375">
        <ele>67</ele>
        <time>2019-07-11T12:17:23.000Z</time>
      </trkpt>
      <trkpt lat="43.53407361544668674468994140625" lon="-6.0707340203225612640380859375">
        <ele>67</ele>
        <time>2019-07-11T12:17:24.000Z</time>
      </trkpt>
      <trkpt lat="43.53417520411312580108642578125" lon="-6.0700004361569881439208984375">
        <ele>67</ele>
        <time>2019-07-11T12:17:29.000Z</time>
      </trkpt>
      <trkpt lat="43.534242175519466400146484375" lon="-6.0692896507680416107177734375">
        <ele>66.1999969482421875</ele>
        <time>2019-07-11T12:17:33.000Z</time>
      </trkpt>
      <trkpt lat="43.5342607833445072174072265625" lon="-6.06909493915736675262451171875">
        <ele>65.8000030517578125</ele>
        <time>2019-07-11T12:17:34.000Z</time>
      </trkpt>
      <trkpt lat="43.53430797345936298370361328125" lon="-6.068470068275928497314453125">
        <ele>64.8000030517578125</ele>
        <time>2019-07-11T12:17:37.000Z</time>
      </trkpt>
      <trkpt lat="43.53432037867605686187744140625" lon="-6.0682472772896289825439453125">
        <ele>64.40000152587890625</ele>
        <time>2019-07-11T12:17:38.000Z</time>
      </trkpt>
      <trkpt lat="43.53432104922831058502197265625" lon="-6.06776741333305835723876953125">
        <ele>64</ele>
        <time>2019-07-11T12:17:40.000Z</time>
      </trkpt>
      <trkpt lat="43.5342572629451751708984375" lon="-6.067246980965137481689453125">
        <ele>63.200000762939453125</ele>
        <time>2019-07-11T12:17:42.000Z</time>
      </trkpt>
      <trkpt lat="43.53409565985202789306640625" lon="-6.06645732186734676361083984375">
        <ele>61.799999237060546875</ele>
        <time>2019-07-11T12:17:45.000Z</time>
      </trkpt>
      <trkpt lat="43.53404226712882518768310546875" lon="-6.0661893524229526519775390625">
        <ele>60.40000152587890625</ele>
        <time>2019-07-11T12:17:46.000Z</time>
      </trkpt>
      <trkpt lat="43.53396146558225154876708984375" lon="-6.06564335525035858154296875">
        <ele>59.59999847412109375</ele>
        <time>2019-07-11T12:17:48.000Z</time>
      </trkpt>
      <trkpt lat="43.53397588245570659637451171875" lon="-6.0650856234133243560791015625">
        <ele>60.200000762939453125</ele>
        <time>2019-07-11T12:17:50.000Z</time>
      </trkpt>
      <trkpt lat="43.53407294489443302154541015625" lon="-6.064558736979961395263671875">
        <ele>61.799999237060546875</ele>
        <time>2019-07-11T12:17:52.000Z</time>
      </trkpt>
      <trkpt lat="43.5341256670653820037841796875" lon="-6.06430853717029094696044921875">
        <ele>63.200000762939453125</ele>
        <time>2019-07-11T12:17:53.000Z</time>
      </trkpt>
      <trkpt lat="43.53416983969509601593017578125" lon="-6.06406755745410919189453125">
        <ele>64.40000152587890625</ele>
        <time>2019-07-11T12:17:54.000Z</time>
      </trkpt>
      <trkpt lat="43.53421493433415889739990234375" lon="-6.0635792277753353118896484375">
        <ele>66</ele>
        <time>2019-07-11T12:17:56.000Z</time>
      </trkpt>
      <trkpt lat="43.5342151857912540435791015625" lon="-6.0633279383182525634765625">
        <ele>67.59999847412109375</ele>
        <time>2019-07-11T12:17:57.000Z</time>
      </trkpt>
      <trkpt lat="43.534198589622974395751953125" lon="-6.06307203881442546844482421875">
        <ele>69.40000152587890625</ele>
        <time>2019-07-11T12:17:58.000Z</time>
      </trkpt>
      <trkpt lat="43.53416615165770053863525390625" lon="-6.06281152926385402679443359375">
        <ele>71.40000152587890625</ele>
        <time>2019-07-11T12:17:59.000Z</time>
      </trkpt>
      <trkpt lat="43.53411619551479816436767578125" lon="-6.0625474154949188232421875">
        <ele>73</ele>
        <time>2019-07-11T12:18:00.000Z</time>
      </trkpt>
      <trkpt lat="43.534046374261379241943359375" lon="-6.06228447519242763519287109375">
        <ele>74.40000152587890625</ele>
        <time>2019-07-11T12:18:01.000Z</time>
      </trkpt>
      <trkpt lat="43.5338450409471988677978515625" lon="-6.06177619658410549163818359375">
        <ele>76.1999969482421875</ele>
        <time>2019-07-11T12:18:03.000Z</time>
      </trkpt>
      <trkpt lat="43.5335640795528888702392578125" lon="-6.06131502427160739898681640625">
        <ele>77.40000152587890625</ele>
        <time>2019-07-11T12:18:05.000Z</time>
      </trkpt>
      <trkpt lat="43.53301883675158023834228515625" lon="-6.06078478507697582244873046875">
        <ele>78.59999847412109375</ele>
        <time>2019-07-11T12:18:08.000Z</time>
      </trkpt>
      <trkpt lat="43.532587252557277679443359375" lon="-6.060532741248607635498046875">
        <ele>78.8000030517578125</ele>
        <time>2019-07-11T12:18:10.000Z</time>
      </trkpt>
      <trkpt lat="43.5323554091155529022216796875" lon="-6.0604148916900157928466796875">
        <ele>80</ele>
        <time>2019-07-11T12:18:11.000Z</time>
      </trkpt>
      <trkpt lat="43.5318803228437900543212890625" lon="-6.060163937509059906005859375">
        <ele>81</ele>
        <time>2019-07-11T12:18:13.000Z</time>
      </trkpt>
      <trkpt lat="43.531423509120941162109375" lon="-6.05991013348102569580078125">
        <ele>80</ele>
        <time>2019-07-11T12:18:15.000Z</time>
      </trkpt>
      <trkpt lat="43.5310169868171215057373046875" lon="-6.05967703275382518768310546875">
        <ele>81.40000152587890625</ele>
        <time>2019-07-11T12:18:17.000Z</time>
      </trkpt>
      <trkpt lat="43.53083317168056964874267578125" lon="-6.05955448932945728302001953125">
        <ele>81.59999847412109375</ele>
        <time>2019-07-11T12:18:18.000Z</time>
      </trkpt>
      <trkpt lat="43.5306676290929317474365234375" lon="-6.0594060458242893218994140625">
        <ele>83.1999969482421875</ele>
        <time>2019-07-11T12:18:19.000Z</time>
      </trkpt>
      <trkpt lat="43.5305254720151424407958984375" lon="-6.05922558344900608062744140625">
        <ele>86</ele>
        <time>2019-07-11T12:18:20.000Z</time>
      </trkpt>
      <trkpt lat="43.530406616628170013427734375" lon="-6.059014610946178436279296875">
        <ele>89.1999969482421875</ele>
        <time>2019-07-11T12:18:21.000Z</time>
      </trkpt>
      <trkpt lat="43.53031282313168048858642578125" lon="-6.0587804205715656280517578125">
        <ele>92</ele>
        <time>2019-07-11T12:18:22.000Z</time>
      </trkpt>
      <trkpt lat="43.5302495397627353668212890625" lon="-6.0585267841815948486328125">
        <ele>94.40000152587890625</ele>
        <time>2019-07-11T12:18:23.000Z</time>
      </trkpt>
      <trkpt lat="43.5302210412919521331787109375" lon="-6.0582580603659152984619140625">
        <ele>96</ele>
        <time>2019-07-11T12:18:24.000Z</time>
      </trkpt>
      <trkpt lat="43.53022255003452301025390625" lon="-6.05797299183905124664306640625">
        <ele>97.1999969482421875</ele>
        <time>2019-07-11T12:18:25.000Z</time>
      </trkpt>
      <trkpt lat="43.53028583340346813201904296875" lon="-6.0573648847639560699462890625">
        <ele>98.59999847412109375</ele>
        <time>2019-07-11T12:18:27.000Z</time>
      </trkpt>
      <trkpt lat="43.5303300060331821441650390625" lon="-6.05705265887081623077392578125">
        <ele>99.59999847412109375</ele>
        <time>2019-07-11T12:18:28.000Z</time>
      </trkpt>
      <trkpt lat="43.5304054431617259979248046875" lon="-6.0564261116087436676025390625">
        <ele>101.1999969482421875</ele>
        <time>2019-07-11T12:18:30.000Z</time>
      </trkpt>
      <trkpt lat="43.53042245842516422271728515625" lon="-6.0561153106391429901123046875">
        <ele>102.59999847412109375</ele>
        <time>2019-07-11T12:18:31.000Z</time>
      </trkpt>
      <trkpt lat="43.530420698225498199462890625" lon="-6.05580694042146205902099609375">
        <ele>104</ele>
        <time>2019-07-11T12:18:32.000Z</time>
      </trkpt>
      <trkpt lat="43.53039982728660106658935546875" lon="-6.05550049804151058197021484375">
        <ele>105.40000152587890625</ele>
        <time>2019-07-11T12:18:33.000Z</time>
      </trkpt>
      <trkpt lat="43.5303611867129802703857421875" lon="-6.05519891716539859771728515625">
        <ele>106.40000152587890625</ele>
        <time>2019-07-11T12:18:34.000Z</time>
      </trkpt>
      <trkpt lat="43.53022950701415538787841796875" lon="-6.054614447057247161865234375">
        <ele>108.40000152587890625</ele>
        <time>2019-07-11T12:18:36.000Z</time>
      </trkpt>
      <trkpt lat="43.53013881482183933258056640625" lon="-6.05433373712003231048583984375">
        <ele>110</ele>
        <time>2019-07-11T12:18:37.000Z</time>
      </trkpt>
      <trkpt lat="43.530031777918338775634765625" lon="-6.054061912000179290771484375">
        <ele>112</ele>
        <time>2019-07-11T12:18:38.000Z</time>
      </trkpt>
      <trkpt lat="43.52991082705557346343994140625" lon="-6.053803749382495880126953125">
        <ele>114.40000152587890625</ele>
        <time>2019-07-11T12:18:39.000Z</time>
      </trkpt>
      <trkpt lat="43.52977789007127285003662109375" lon="-6.0535561479628086090087890625">
        <ele>116.59999847412109375</ele>
        <time>2019-07-11T12:18:40.000Z</time>
      </trkpt>
      <trkpt lat="43.5296312905848026275634765625" lon="-6.0533318482339382171630859375">
        <ele>118.40000152587890625</ele>
        <time>2019-07-11T12:18:41.000Z</time>
      </trkpt>
      <trkpt lat="43.52932007052004337310791015625" lon="-6.05294217355549335479736328125">
        <ele>120.1999969482421875</ele>
        <time>2019-07-11T12:18:43.000Z</time>
      </trkpt>
      <trkpt lat="43.5288943536579608917236328125" lon="-6.05244956910610198974609375">
        <ele>121.8000030517578125</ele>
        <time>2019-07-11T12:18:46.000Z</time>
      </trkpt>
      <trkpt lat="43.52876150049269199371337890625" lon="-6.05228788219392299652099609375">
        <ele>124.40000152587890625</ele>
        <time>2019-07-11T12:18:47.000Z</time>
      </trkpt>
      <trkpt lat="43.52862705476582050323486328125" lon="-6.05212678201496601104736328125">
        <ele>126</ele>
        <time>2019-07-11T12:18:48.000Z</time>
      </trkpt>
      <trkpt lat="43.5284900106489658355712890625" lon="-6.05196752585470676422119140625">
        <ele>129</ele>
        <time>2019-07-11T12:18:49.000Z</time>
      </trkpt>
      <trkpt lat="43.528352044522762298583984375" lon="-6.0518093593418598175048828125">
        <ele>131.600006103515625</ele>
        <time>2019-07-11T12:18:50.000Z</time>
      </trkpt>
      <trkpt lat="43.52822204120457172393798828125" lon="-6.05164700187742710113525390625">
        <ele>133</ele>
        <time>2019-07-11T12:18:51.000Z</time>
      </trkpt>
      <trkpt lat="43.5281108133494853973388671875" lon="-6.05147182010114192962646484375">
        <ele>133.600006103515625</ele>
        <time>2019-07-11T12:18:52.000Z</time>
      </trkpt>
      <trkpt lat="43.52794610895216464996337890625" lon="-6.05107652954757213592529296875">
        <ele>134.399993896484375</ele>
        <time>2019-07-11T12:18:54.000Z</time>
      </trkpt>
      <trkpt lat="43.5278737731277942657470703125" lon="-6.0506657324731349945068359375">
        <ele>135.1999969482421875</ele>
        <time>2019-07-11T12:18:56.000Z</time>
      </trkpt>
      <trkpt lat="43.5278682410717010498046875" lon="-6.05047806166112422943115234375">
        <ele>136</ele>
        <time>2019-07-11T12:18:57.000Z</time>
      </trkpt>
      <trkpt lat="43.5278791375458240509033203125" lon="-6.0503002814948558807373046875">
        <ele>137.1999969482421875</ele>
        <time>2019-07-11T12:18:58.000Z</time>
      </trkpt>
      <trkpt lat="43.527900762856006622314453125" lon="-6.05012719519436359405517578125">
        <ele>138.600006103515625</ele>
        <time>2019-07-11T12:18:59.000Z</time>
      </trkpt>
      <trkpt lat="43.52793303318321704864501953125" lon="-6.049956791102886199951171875">
        <ele>139.8000030517578125</ele>
        <time>2019-07-11T12:19:00.000Z</time>
      </trkpt>
      <trkpt lat="43.52797980420291423797607421875" lon="-6.04978923685848712921142578125">
        <ele>141.1999969482421875</ele>
        <time>2019-07-11T12:19:01.000Z</time>
      </trkpt>
      <trkpt lat="43.52804350666701793670654296875" lon="-6.049624867737293243408203125">
        <ele>142.600006103515625</ele>
        <time>2019-07-11T12:19:02.000Z</time>
      </trkpt>
      <trkpt lat="43.52812103927135467529296875" lon="-6.04946318082511425018310546875">
        <ele>144.600006103515625</ele>
        <time>2019-07-11T12:19:03.000Z</time>
      </trkpt>
      <trkpt lat="43.52821030654013156890869140625" lon="-6.04929923079907894134521484375">
        <ele>145.8000030517578125</ele>
        <time>2019-07-11T12:19:04.000Z</time>
      </trkpt>
      <trkpt lat="43.52841147221624851226806640625" lon="-6.04895523749291896820068359375">
        <ele>147</ele>
        <time>2019-07-11T12:19:06.000Z</time>
      </trkpt>
      <trkpt lat="43.5287116281688213348388671875" lon="-6.0484042949974536895751953125">
        <ele>147</ele>
        <time>2019-07-11T12:19:09.000Z</time>
      </trkpt>
      <trkpt lat="43.52898982353508472442626953125" lon="-6.04791638441383838653564453125">
        <ele>148.600006103515625</ele>
        <time>2019-07-11T12:19:12.000Z</time>
      </trkpt>
      <trkpt lat="43.52910281158983707427978515625" lon="-6.04778118431568145751953125">
        <ele>149.600006103515625</ele>
        <time>2019-07-11T12:19:13.000Z</time>
      </trkpt>
      <trkpt lat="43.52923138998448848724365234375" lon="-6.04766610078513622283935546875">
        <ele>151.1999969482421875</ele>
        <time>2019-07-11T12:19:14.000Z</time>
      </trkpt>
      <trkpt lat="43.52937689982354640960693359375" lon="-6.0475764982402324676513671875">
        <ele>152.8000030517578125</ele>
        <time>2019-07-11T12:19:15.000Z</time>
      </trkpt>
      <trkpt lat="43.5295377485454082489013671875" lon="-6.04752159677445888519287109375">
        <ele>155</ele>
        <time>2019-07-11T12:19:16.000Z</time>
      </trkpt>
      <trkpt lat="43.5297070629894733428955078125" lon="-6.04749443940818309783935546875">
        <ele>156.399993896484375</ele>
        <time>2019-07-11T12:19:17.000Z</time>
      </trkpt>
      <trkpt lat="43.5298763774335384368896484375" lon="-6.04747532866895198822021484375">
        <ele>157.600006103515625</ele>
        <time>2019-07-11T12:19:18.000Z</time>
      </trkpt>
      <trkpt lat="43.53020771406590938568115234375" lon="-6.04741866700351238250732421875">
        <ele>159</ele>
        <time>2019-07-11T12:19:20.000Z</time>
      </trkpt>
      <trkpt lat="43.53050711564719676971435546875" lon="-6.0472418926656246185302734375">
        <ele>159.600006103515625</ele>
        <time>2019-07-11T12:19:22.000Z</time>
      </trkpt>
      <trkpt lat="43.530735187232494354248046875" lon="-6.04692430235445499420166015625">
        <ele>160</ele>
        <time>2019-07-11T12:19:24.000Z</time>
      </trkpt>
      <trkpt lat="43.530933000147342681884765625" lon="-6.0465596057474613189697265625">
        <ele>162</ele>
        <time>2019-07-11T12:19:26.000Z</time>
      </trkpt>
      <trkpt lat="43.5310384444892406463623046875" lon="-6.046377383172512054443359375">
        <ele>163.399993896484375</ele>
        <time>2019-07-11T12:19:27.000Z</time>
      </trkpt>
      <trkpt lat="43.53115352801978588104248046875" lon="-6.046201027929782867431640625">
        <ele>164.8000030517578125</ele>
        <time>2019-07-11T12:19:28.000Z</time>
      </trkpt>
      <trkpt lat="43.531281016767024993896484375" lon="-6.04603531770408153533935546875">
        <ele>166</ele>
        <time>2019-07-11T12:19:29.000Z</time>
      </trkpt>
      <trkpt lat="43.531572706997394561767578125" lon="-6.0457472316920757293701171875">
        <ele>167.600006103515625</ele>
        <time>2019-07-11T12:19:31.000Z</time>
      </trkpt>
      <trkpt lat="43.5317334719002246856689453125" lon="-6.04563198052346706390380859375">
        <ele>168.600006103515625</ele>
        <time>2019-07-11T12:19:32.000Z</time>
      </trkpt>
      <trkpt lat="43.53218257427215576171875" lon="-6.04536158032715320587158203125">
        <ele>169.600006103515625</ele>
        <time>2019-07-11T12:19:35.000Z</time>
      </trkpt>
      <trkpt lat="43.53230771608650684356689453125" lon="-6.0452842153608798980712890625">
        <ele>170.600006103515625</ele>
        <time>2019-07-11T12:19:36.000Z</time>
      </trkpt>
      <trkpt lat="43.53241969831287860870361328125" lon="-6.0452107898890972137451171875">
        <ele>172.1999969482421875</ele>
        <time>2019-07-11T12:19:37.000Z</time>
      </trkpt>
      <trkpt lat="43.53252514265477657318115234375" lon="-6.0451371967792510986328125">
        <ele>173.600006103515625</ele>
        <time>2019-07-11T12:19:38.000Z</time>
      </trkpt>
      <trkpt lat="43.5327409766614437103271484375" lon="-6.0449650324881076812744140625">
        <ele>175</ele>
        <time>2019-07-11T12:19:40.000Z</time>
      </trkpt>
      <trkpt lat="43.53310936130583286285400390625" lon="-6.04465565644204616546630859375">
        <ele>176.1999969482421875</ele>
        <time>2019-07-11T12:19:43.000Z</time>
      </trkpt>
      <trkpt lat="43.53354773484170436859130859375" lon="-6.044271178543567657470703125">
        <ele>175</ele>
        <time>2019-07-11T12:19:46.000Z</time>
      </trkpt>
      <trkpt lat="43.5337008722126483917236328125" lon="-6.04413748718798160552978515625">
        <ele>173.399993896484375</ele>
        <time>2019-07-11T12:19:47.000Z</time>
      </trkpt>
      <trkpt lat="43.53401242755353450775146484375" lon="-6.043874211609363555908203125">
        <ele>171.399993896484375</ele>
        <time>2019-07-11T12:19:49.000Z</time>
      </trkpt>
      <trkpt lat="43.53417210280895233154296875" lon="-6.0437365807592868804931640625">
        <ele>170.1999969482421875</ele>
        <time>2019-07-11T12:19:50.000Z</time>
      </trkpt>
      <trkpt lat="43.5343377292156219482421875" lon="-6.043595932424068450927734375">
        <ele>169</ele>
        <time>2019-07-11T12:19:51.000Z</time>
      </trkpt>
      <trkpt lat="43.53487811051309108734130859375" lon="-6.04315294884145259857177734375">
        <ele>166.8000030517578125</ele>
        <time>2019-07-11T12:19:54.000Z</time>
      </trkpt>
      <trkpt lat="43.5350604169070720672607421875" lon="-6.0429972968995571136474609375">
        <ele>164.399993896484375</ele>
        <time>2019-07-11T12:19:55.000Z</time>
      </trkpt>
      <trkpt lat="43.53523635305464267730712890625" lon="-6.0428417287766933441162109375">
        <ele>161.600006103515625</ele>
        <time>2019-07-11T12:19:56.000Z</time>
      </trkpt>
      <trkpt lat="43.53540650568902492523193359375" lon="-6.0426948778331279754638671875">
        <ele>159.399993896484375</ele>
        <time>2019-07-11T12:19:57.000Z</time>
      </trkpt>
      <trkpt lat="43.53557330556213855743408203125" lon="-6.04256562888622283935546875">
        <ele>156.399993896484375</ele>
        <time>2019-07-11T12:19:58.000Z</time>
      </trkpt>
      <trkpt lat="43.5357406921684741973876953125" lon="-6.0424601845443248748779296875">
        <ele>154.600006103515625</ele>
        <time>2019-07-11T12:19:59.000Z</time>
      </trkpt>
      <trkpt lat="43.53591009043157100677490234375" lon="-6.04238851927220821380615234375">
        <ele>153.399993896484375</ele>
        <time>2019-07-11T12:20:00.000Z</time>
      </trkpt>
      <trkpt lat="43.5360843501985073089599609375" lon="-6.0423582606017589569091796875">
        <ele>153</ele>
        <time>2019-07-11T12:20:01.000Z</time>
      </trkpt>
      <trkpt lat="43.53644150309264659881591796875" lon="-6.04239396750926971435546875">
        <ele>152</ele>
        <time>2019-07-11T12:20:03.000Z</time>
      </trkpt>
      <trkpt lat="43.53677577339112758636474609375" lon="-6.04243394918739795684814453125">
        <ele>151.399993896484375</ele>
        <time>2019-07-11T12:20:05.000Z</time>
      </trkpt>
      <trkpt lat="43.537090681493282318115234375" lon="-6.04236773215234279632568359375">
        <ele>150.600006103515625</ele>
        <time>2019-07-11T12:20:07.000Z</time>
      </trkpt>
      <trkpt lat="43.53736351244151592254638671875" lon="-6.0421745292842388153076171875">
        <ele>150.1999969482421875</ele>
        <time>2019-07-11T12:20:09.000Z</time>
      </trkpt>
      <trkpt lat="43.53772209025919437408447265625" lon="-6.04171478189527988433837890625">
        <ele>149.600006103515625</ele>
        <time>2019-07-11T12:20:12.000Z</time>
      </trkpt>
      <trkpt lat="43.53783960454165935516357421875" lon="-6.041548065841197967529296875">
        <ele>148.399993896484375</ele>
        <time>2019-07-11T12:20:13.000Z</time>
      </trkpt>
      <trkpt lat="43.5379535146057605743408203125" lon="-6.04138118214905261993408203125">
        <ele>146.600006103515625</ele>
        <time>2019-07-11T12:20:14.000Z</time>
      </trkpt>
      <trkpt lat="43.538056947290897369384765625" lon="-6.0412102751433849334716796875">
        <ele>144.8000030517578125</ele>
        <time>2019-07-11T12:20:15.000Z</time>
      </trkpt>
      <trkpt lat="43.538144119083881378173828125" lon="-6.04103014804422855377197265625">
        <ele>143.600006103515625</ele>
        <time>2019-07-11T12:20:16.000Z</time>
      </trkpt>
      <trkpt lat="43.5382126830518245697021484375" lon="-6.04083384387195110321044921875">
        <ele>142.8000030517578125</ele>
        <time>2019-07-11T12:20:17.000Z</time>
      </trkpt>
      <trkpt lat="43.53826624341309070587158203125" lon="-6.0406201891601085662841796875">
        <ele>142.399993896484375</ele>
        <time>2019-07-11T12:20:18.000Z</time>
      </trkpt>
      <trkpt lat="43.5383417643606662750244140625" lon="-6.04016044177114963531494140625">
        <ele>141</ele>
        <time>2019-07-11T12:20:20.000Z</time>
      </trkpt>
      <trkpt lat="43.538366742432117462158203125" lon="-6.039892472326755523681640625">
        <ele>139.399993896484375</ele>
        <time>2019-07-11T12:20:21.000Z</time>
      </trkpt>
      <trkpt lat="43.538391552865505218505859375" lon="-6.03961410932242870330810546875">
        <ele>138</ele>
        <time>2019-07-11T12:20:22.000Z</time>
      </trkpt>
      <trkpt lat="43.538417033851146697998046875" lon="-6.039331890642642974853515625">
        <ele>136.1999969482421875</ele>
        <time>2019-07-11T12:20:23.000Z</time>
      </trkpt>
      <trkpt lat="43.538443185389041900634765625" lon="-6.039060987532138824462890625">
        <ele>134.399993896484375</ele>
        <time>2019-07-11T12:20:24.000Z</time>
      </trkpt>
      <trkpt lat="43.538473360240459442138671875" lon="-6.03880793787539005279541015625">
        <ele>132</ele>
        <time>2019-07-11T12:20:25.000Z</time>
      </trkpt>
      <trkpt lat="43.53851367719471454620361328125" lon="-6.0385669581592082977294921875">
        <ele>130.1999969482421875</ele>
        <time>2019-07-11T12:20:26.000Z</time>
      </trkpt>
      <trkpt lat="43.5385702550411224365234375" lon="-6.03834383189678192138671875">
        <ele>128</ele>
        <time>2019-07-11T12:20:27.000Z</time>
      </trkpt>
      <trkpt lat="43.5386480391025543212890625" lon="-6.0381438396871089935302734375">
        <ele>126.59999847412109375</ele>
        <time>2019-07-11T12:20:28.000Z</time>
      </trkpt>
      <trkpt lat="43.53874317370355129241943359375" lon="-6.03796890936791896820068359375">
        <ele>125.8000030517578125</ele>
        <time>2019-07-11T12:20:29.000Z</time>
      </trkpt>
      <trkpt lat="43.53885113261640071868896484375" lon="-6.03781543672084808349609375">
        <ele>124.8000030517578125</ele>
        <time>2019-07-11T12:20:30.000Z</time>
      </trkpt>
      <trkpt lat="43.5389724187552928924560546875" lon="-6.03769398294389247894287109375">
        <ele>124.1999969482421875</ele>
        <time>2019-07-11T12:20:31.000Z</time>
      </trkpt>
      <trkpt lat="43.539226055145263671875" lon="-6.03753204457461833953857421875">
        <ele>124.1999969482421875</ele>
        <time>2019-07-11T12:20:33.000Z</time>
      </trkpt>
      <trkpt lat="43.53951112367212772369384765625" lon="-6.03751427493989467620849609375">
        <ele>124.1999969482421875</ele>
        <time>2019-07-11T12:20:35.000Z</time>
      </trkpt>
      <trkpt lat="43.53967172093689441680908203125" lon="-6.03757680393755435943603515625">
        <ele>123.59999847412109375</ele>
        <time>2019-07-11T12:20:36.000Z</time>
      </trkpt>
      <trkpt lat="43.53982150554656982421875" lon="-6.0376591980457305908203125">
        <ele>123.59999847412109375</ele>
        <time>2019-07-11T12:20:37.000Z</time>
      </trkpt>
      <trkpt lat="43.540041446685791015625" lon="-6.0379322804510593414306640625">
        <ele>123.59999847412109375</ele>
        <time>2019-07-11T12:20:39.000Z</time>
      </trkpt>
      <trkpt lat="43.540234901010990142822265625" lon="-6.0382092185318470001220703125">
        <ele>121.8000030517578125</ele>
        <time>2019-07-11T12:20:41.000Z</time>
      </trkpt>
      <trkpt lat="43.5403430275619029998779296875" lon="-6.03831474669277667999267578125">
        <ele>121.1999969482421875</ele>
        <time>2019-07-11T12:20:42.000Z</time>
      </trkpt>
      <trkpt lat="43.54047185741364955902099609375" lon="-6.038370318710803985595703125">
        <ele>120.40000152587890625</ele>
        <time>2019-07-11T12:20:43.000Z</time>
      </trkpt>
      <trkpt lat="43.54060848243534564971923828125" lon="-6.038379371166229248046875">
        <ele>119.8000030517578125</ele>
        <time>2019-07-11T12:20:44.000Z</time>
      </trkpt>
      <trkpt lat="43.54074376635253429412841796875" lon="-6.03834492154419422149658203125">
        <ele>119</ele>
        <time>2019-07-11T12:20:45.000Z</time>
      </trkpt>
      <trkpt lat="43.5408687405288219451904296875" lon="-6.03826261125504970550537109375">
        <ele>118.40000152587890625</ele>
        <time>2019-07-11T12:20:46.000Z</time>
      </trkpt>
      <trkpt lat="43.54097611270844936370849609375" lon="-6.0381290875375270843505859375">
        <ele>117.8000030517578125</ele>
        <time>2019-07-11T12:20:47.000Z</time>
      </trkpt>
      <trkpt lat="43.54106211103498935699462890625" lon="-6.03795650415122509002685546875">
        <ele>116.8000030517578125</ele>
        <time>2019-07-11T12:20:48.000Z</time>
      </trkpt>
      <trkpt lat="43.54111491702497005462646484375" lon="-6.03776221163570880889892578125">
        <ele>115.59999847412109375</ele>
        <time>2019-07-11T12:20:49.000Z</time>
      </trkpt>
      <trkpt lat="43.54112380184233188629150390625" lon="-6.037553586065769195556640625">
        <ele>114.8000030517578125</ele>
        <time>2019-07-11T12:20:50.000Z</time>
      </trkpt>
      <trkpt lat="43.5410900227725505828857421875" lon="-6.0373495705425739288330078125">
        <ele>114.40000152587890625</ele>
        <time>2019-07-11T12:20:51.000Z</time>
      </trkpt>
      <trkpt lat="43.54102456010878086090087890625" lon="-6.03715502656996250152587890625">
        <ele>113.59999847412109375</ele>
        <time>2019-07-11T12:20:52.000Z</time>
      </trkpt>
      <trkpt lat="43.540939651429653167724609375" lon="-6.036968193948268890380859375">
        <ele>113.1999969482421875</ele>
        <time>2019-07-11T12:20:53.000Z</time>
      </trkpt>
      <trkpt lat="43.54075198061764240264892578125" lon="-6.0365889966487884521484375">
        <ele>112</ele>
        <time>2019-07-11T12:20:55.000Z</time>
      </trkpt>
      <trkpt lat="43.54056179523468017578125" lon="-6.036197058856487274169921875">
        <ele>111</ele>
        <time>2019-07-11T12:20:57.000Z</time>
      </trkpt>
      <trkpt lat="43.5402903892099857330322265625" lon="-6.03558425791561603546142578125">
        <ele>109.40000152587890625</ele>
        <time>2019-07-11T12:21:00.000Z</time>
      </trkpt>
      <trkpt lat="43.5402149520814418792724609375" lon="-6.0353731177747249603271484375">
        <ele>107.1999969482421875</ele>
        <time>2019-07-11T12:21:01.000Z</time>
      </trkpt>
      <trkpt lat="43.5401562787592411041259765625" lon="-6.0351575352251529693603515625">
        <ele>105</ele>
        <time>2019-07-11T12:21:02.000Z</time>
      </trkpt>
      <trkpt lat="43.54011679999530315399169921875" lon="-6.0349367558956146240234375">
        <ele>101.59999847412109375</ele>
        <time>2019-07-11T12:21:03.000Z</time>
      </trkpt>
      <trkpt lat="43.54009819217026233673095703125" lon="-6.03471287526190280914306640625">
        <ele>99.40000152587890625</ele>
        <time>2019-07-11T12:21:04.000Z</time>
      </trkpt>
      <trkpt lat="43.54010120965540409088134765625" lon="-6.0344920121133327484130859375">
        <ele>98</ele>
        <time>2019-07-11T12:21:05.000Z</time>
      </trkpt>
      <trkpt lat="43.540121577680110931396484375" lon="-6.034275591373443603515625">
        <ele>97.1999969482421875</ele>
        <time>2019-07-11T12:21:06.000Z</time>
      </trkpt>
      <trkpt lat="43.5401559434831142425537109375" lon="-6.03406428359448909759521484375">
        <ele>96.8000030517578125</ele>
        <time>2019-07-11T12:21:07.000Z</time>
      </trkpt>
      <trkpt lat="43.5402488149702548980712890625" lon="-6.0336578451097011566162109375">
        <ele>95.59999847412109375</ele>
        <time>2019-07-11T12:21:09.000Z</time>
      </trkpt>
      <trkpt lat="43.540301285684108734130859375" lon="-6.03345684707164764404296875">
        <ele>94.40000152587890625</ele>
        <time>2019-07-11T12:21:10.000Z</time>
      </trkpt>
      <trkpt lat="43.54035434313118457794189453125" lon="-6.03325056843459606170654296875">
        <ele>92.59999847412109375</ele>
        <time>2019-07-11T12:21:11.000Z</time>
      </trkpt>
      <trkpt lat="43.5404053889214992523193359375" lon="-6.0330308787524700164794921875">
        <ele>91.59999847412109375</ele>
        <time>2019-07-11T12:21:12.000Z</time>
      </trkpt>
      <trkpt lat="43.5404513217508792877197265625" lon="-6.0327965207397937774658203125">
        <ele>90.40000152587890625</ele>
        <time>2019-07-11T12:21:13.000Z</time>
      </trkpt>
      <trkpt lat="43.540487699210643768310546875" lon="-6.0325484164059162139892578125">
        <ele>88.40000152587890625</ele>
        <time>2019-07-11T12:21:14.000Z</time>
      </trkpt>
      <trkpt lat="43.5405096597969532012939453125" lon="-6.0322912596166133880615234375">
        <ele>86.1999969482421875</ele>
        <time>2019-07-11T12:21:15.000Z</time>
      </trkpt>
      <trkpt lat="43.54051711969077587127685546875" lon="-6.0320284031331539154052734375">
        <ele>84.40000152587890625</ele>
        <time>2019-07-11T12:21:16.000Z</time>
      </trkpt>
      <trkpt lat="43.54051477275788784027099609375" lon="-6.0317668877542018890380859375">
        <ele>83.1999969482421875</ele>
        <time>2019-07-11T12:21:17.000Z</time>
      </trkpt>
      <trkpt lat="43.5405126772820949554443359375" lon="-6.031261794269084930419921875">
        <ele>82.40000152587890625</ele>
        <time>2019-07-11T12:21:19.000Z</time>
      </trkpt>
      <trkpt lat="43.5405820794403553009033203125" lon="-6.03076902218163013458251953125">
        <ele>82.1999969482421875</ele>
        <time>2019-07-11T12:21:21.000Z</time>
      </trkpt>
      <trkpt lat="43.54080981574952602386474609375" lon="-6.03003426454961299896240234375">
        <ele>82.40000152587890625</ele>
        <time>2019-07-11T12:21:24.000Z</time>
      </trkpt>
      <trkpt lat="43.541077785193920135498046875" lon="-6.02929565124213695526123046875">
        <ele>82.8000030517578125</ele>
        <time>2019-07-11T12:21:27.000Z</time>
      </trkpt>
      <trkpt lat="43.541164286434650421142578125" lon="-6.029057689011096954345703125">
        <ele>83.59999847412109375</ele>
        <time>2019-07-11T12:21:28.000Z</time>
      </trkpt>
      <trkpt lat="43.5413114726543426513671875" lon="-6.02859224192798137664794921875">
        <ele>84.8000030517578125</ele>
        <time>2019-07-11T12:21:30.000Z</time>
      </trkpt>
      <trkpt lat="43.54142353869974613189697265625" lon="-6.02811497636139392852783203125">
        <ele>87.1999969482421875</ele>
        <time>2019-07-11T12:21:32.000Z</time>
      </trkpt>
      <trkpt lat="43.54146544821560382843017578125" lon="-6.0278639383614063262939453125">
        <ele>88.8000030517578125</ele>
        <time>2019-07-11T12:21:33.000Z</time>
      </trkpt>
      <trkpt lat="43.54149260558187961578369140625" lon="-6.02760703302919864654541015625">
        <ele>91</ele>
        <time>2019-07-11T12:21:34.000Z</time>
      </trkpt>
      <trkpt lat="43.5415007360279560089111328125" lon="-6.027345769107341766357421875">
        <ele>93.1999969482421875</ele>
        <time>2019-07-11T12:21:35.000Z</time>
      </trkpt>
      <trkpt lat="43.541489504277706146240234375" lon="-6.02708391845226287841796875">
        <ele>94.8000030517578125</ele>
        <time>2019-07-11T12:21:36.000Z</time>
      </trkpt>
      <trkpt lat="43.54147114790976047515869140625" lon="-6.026824079453945159912109375">
        <ele>96.40000152587890625</ele>
        <time>2019-07-11T12:21:37.000Z</time>
      </trkpt>
      <trkpt lat="43.54144952259957790374755859375" lon="-6.0265602171421051025390625">
        <ele>97.8000030517578125</ele>
        <time>2019-07-11T12:21:38.000Z</time>
      </trkpt>
      <trkpt lat="43.54142303578555583953857421875" lon="-6.02629400789737701416015625">
        <ele>99.1999969482421875</ele>
        <time>2019-07-11T12:21:39.000Z</time>
      </trkpt>
      <trkpt lat="43.54140023700892925262451171875" lon="-6.026021428406238555908203125">
        <ele>100.1999969482421875</ele>
        <time>2019-07-11T12:21:40.000Z</time>
      </trkpt>
      <trkpt lat="43.54137794114649295806884765625" lon="-6.025744490325450897216796875">
        <ele>101.40000152587890625</ele>
        <time>2019-07-11T12:21:41.000Z</time>
      </trkpt>
      <trkpt lat="43.54135572910308837890625" lon="-6.02546981535851955413818359375">
        <ele>103</ele>
        <time>2019-07-11T12:21:42.000Z</time>
      </trkpt>
      <trkpt lat="43.5413351096212863922119140625" lon="-6.02519857697188854217529296875">
        <ele>104.1999969482421875</ele>
        <time>2019-07-11T12:21:43.000Z</time>
      </trkpt>
      <trkpt lat="43.54131859727203845977783203125" lon="-6.0249302722513675689697265625">
        <ele>108.40000152587890625</ele>
        <time>2019-07-11T12:21:44.000Z</time>
      </trkpt>
      <trkpt lat="43.541311807930469512939453125" lon="-6.02466280572116374969482421875">
        <ele>113.8000030517578125</ele>
        <time>2019-07-11T12:21:45.000Z</time>
      </trkpt>
      <trkpt lat="43.54131977073848247528076171875" lon="-6.024391986429691314697265625">
        <ele>119.59999847412109375</ele>
        <time>2019-07-11T12:21:46.000Z</time>
      </trkpt>
      <trkpt lat="43.541342318058013916015625" lon="-6.02412016130983829498291015625">
        <ele>122.59999847412109375</ele>
        <time>2019-07-11T12:21:47.000Z</time>
      </trkpt>
      <trkpt lat="43.54137919843196868896484375" lon="-6.02384473197162151336669921875">
        <ele>124</ele>
        <time>2019-07-11T12:21:48.000Z</time>
      </trkpt>
      <trkpt lat="43.54142923839390277862548828125" lon="-6.0235615074634552001953125">
        <ele>122.8000030517578125</ele>
        <time>2019-07-11T12:21:49.000Z</time>
      </trkpt>
      <trkpt lat="43.54148841463029384613037109375" lon="-6.02326906286180019378662109375">
        <ele>120.40000152587890625</ele>
        <time>2019-07-11T12:21:50.000Z</time>
      </trkpt>
      <trkpt lat="43.54154809378087520599365234375" lon="-6.0229682363569736480712890625">
        <ele>115.8000030517578125</ele>
        <time>2019-07-11T12:21:51.000Z</time>
      </trkpt>
      <trkpt lat="43.5416086949408054351806640625" lon="-6.02266958914697170257568359375">
        <ele>113.59999847412109375</ele>
        <time>2019-07-11T12:21:52.000Z</time>
      </trkpt>
      <trkpt lat="43.54166996665298938751220703125" lon="-6.0223732888698577880859375">
        <ele>112.59999847412109375</ele>
        <time>2019-07-11T12:21:53.000Z</time>
      </trkpt>
      <trkpt lat="43.541734255850315093994140625" lon="-6.0220790840685367584228515625">
        <ele>115</ele>
        <time>2019-07-11T12:21:54.000Z</time>
      </trkpt>
      <trkpt lat="43.5417996346950531005859375" lon="-6.0217823646962642669677734375">
        <ele>119.1999969482421875</ele>
        <time>2019-07-11T12:21:55.000Z</time>
      </trkpt>
      <trkpt lat="43.54186534881591796875" lon="-6.0214843042194843292236328125">
        <ele>123.1999969482421875</ele>
        <time>2019-07-11T12:21:56.000Z</time>
      </trkpt>
      <trkpt lat="43.5419329069554805755615234375" lon="-6.0211885906755924224853515625">
        <ele>125</ele>
        <time>2019-07-11T12:21:57.000Z</time>
      </trkpt>
      <trkpt lat="43.54208327829837799072265625" lon="-6.0206005163490772247314453125">
        <ele>123.40000152587890625</ele>
        <time>2019-07-11T12:21:59.000Z</time>
      </trkpt>
      <trkpt lat="43.5421709530055522918701171875" lon="-6.02031142450869083404541015625">
        <ele>117.40000152587890625</ele>
        <time>2019-07-11T12:22:00.000Z</time>
      </trkpt>
      <trkpt lat="43.542270027101039886474609375" lon="-6.0200268588960170745849609375">
        <ele>111.1999969482421875</ele>
        <time>2019-07-11T12:22:01.000Z</time>
      </trkpt>
      <trkpt lat="43.542383350431919097900390625" lon="-6.0197505913674831390380859375">
        <ele>108.1999969482421875</ele>
        <time>2019-07-11T12:22:02.000Z</time>
      </trkpt>
      <trkpt lat="43.54250748641788959503173828125" lon="-6.01948027499020099639892578125">
        <ele>106.59999847412109375</ele>
        <time>2019-07-11T12:22:03.000Z</time>
      </trkpt>
      <trkpt lat="43.5427791438996791839599609375" lon="-6.0189603455364704132080078125">
        <ele>105.8000030517578125</ele>
        <time>2019-07-11T12:22:05.000Z</time>
      </trkpt>
      <trkpt lat="43.5430792160332202911376953125" lon="-6.01845265366137027740478515625">
        <ele>106</ele>
        <time>2019-07-11T12:22:07.000Z</time>
      </trkpt>
      <trkpt lat="43.54338951408863067626953125" lon="-6.01793649606406688690185546875">
        <ele>105.59999847412109375</ele>
        <time>2019-07-11T12:22:09.000Z</time>
      </trkpt>
      <trkpt lat="43.54354315437376499176025390625" lon="-6.017670370638370513916015625">
        <ele>104.59999847412109375</ele>
        <time>2019-07-11T12:22:10.000Z</time>
      </trkpt>
      <trkpt lat="43.54385144077241420745849609375" lon="-6.0171387903392314910888671875">
        <ele>103</ele>
        <time>2019-07-11T12:22:12.000Z</time>
      </trkpt>
      <trkpt lat="43.5440069250762462615966796875" lon="-6.01687450893223285675048828125">
        <ele>101.8000030517578125</ele>
        <time>2019-07-11T12:22:13.000Z</time>
      </trkpt>
      <trkpt lat="43.54416291229426860809326171875" lon="-6.01660880260169506072998046875">
        <ele>100.40000152587890625</ele>
        <time>2019-07-11T12:22:14.000Z</time>
      </trkpt>
      <trkpt lat="43.54432183317840099334716796875" lon="-6.01634326390922069549560546875">
        <ele>98.8000030517578125</ele>
        <time>2019-07-11T12:22:15.000Z</time>
      </trkpt>
      <trkpt lat="43.5444799996912479400634765625" lon="-6.0160796530544757843017578125">
        <ele>97.40000152587890625</ele>
        <time>2019-07-11T12:22:16.000Z</time>
      </trkpt>
      <trkpt lat="43.5446392558515071868896484375" lon="-6.015816628932952880859375">
        <ele>96</ele>
        <time>2019-07-11T12:22:17.000Z</time>
      </trkpt>
      <trkpt lat="43.54479809291660785675048828125" lon="-6.01555368863046169281005859375">
        <ele>94.8000030517578125</ele>
        <time>2019-07-11T12:22:18.000Z</time>
      </trkpt>
      <trkpt lat="43.5449564270675182342529296875" lon="-6.01528898812830448150634765625">
        <ele>93.40000152587890625</ele>
        <time>2019-07-11T12:22:19.000Z</time>
      </trkpt>
      <trkpt lat="43.5451146773993968963623046875" lon="-6.0150255449116230010986328125">
        <ele>91.8000030517578125</ele>
        <time>2019-07-11T12:22:20.000Z</time>
      </trkpt>
      <trkpt lat="43.54527167044579982757568359375" lon="-6.0147610120475292205810546875">
        <ele>90.1999969482421875</ele>
        <time>2019-07-11T12:22:21.000Z</time>
      </trkpt>
      <trkpt lat="43.5454281605780124664306640625" lon="-6.01449756883084774017333984375">
        <ele>88.59999847412109375</ele>
        <time>2019-07-11T12:22:22.000Z</time>
      </trkpt>
      <trkpt lat="43.54558180086314678192138671875" lon="-6.0142369754612445831298828125">
        <ele>87</ele>
        <time>2019-07-11T12:22:23.000Z</time>
      </trkpt>
      <trkpt lat="43.54573871009051799774169921875" lon="-6.0139825008809566497802734375">
        <ele>85.59999847412109375</ele>
        <time>2019-07-11T12:22:24.000Z</time>
      </trkpt>
      <trkpt lat="43.546050600707530975341796875" lon="-6.013461984694004058837890625">
        <ele>83.8000030517578125</ele>
        <time>2019-07-11T12:22:26.000Z</time>
      </trkpt>
      <trkpt lat="43.546340279281139373779296875" lon="-6.0129619203507900238037109375">
        <ele>83</ele>
        <time>2019-07-11T12:22:28.000Z</time>
      </trkpt>
      <trkpt lat="43.54674638248980045318603515625" lon="-6.01228709332644939422607421875">
        <ele>83</ele>
        <time>2019-07-11T12:22:31.000Z</time>
      </trkpt>
      <trkpt lat="43.5469700954854488372802734375" lon="-6.011846624314785003662109375">
        <ele>84.8000030517578125</ele>
        <time>2019-07-11T12:22:33.000Z</time>
      </trkpt>
      <trkpt lat="43.547142930328845977783203125" lon="-6.011369191110134124755859375">
        <ele>86.40000152587890625</ele>
        <time>2019-07-11T12:22:35.000Z</time>
      </trkpt>
      <trkpt lat="43.5472819022834300994873046875" lon="-6.010547764599323272705078125">
        <ele>86</ele>
        <time>2019-07-11T12:22:38.000Z</time>
      </trkpt>
      <trkpt lat="43.54731853120028972625732421875" lon="-6.00995742715895175933837890625">
        <ele>85.1999969482421875</ele>
        <time>2019-07-11T12:22:40.000Z</time>
      </trkpt>
      <trkpt lat="43.54734309017658233642578125" lon="-6.00936985574662685394287109375">
        <ele>83.1999969482421875</ele>
        <time>2019-07-11T12:22:42.000Z</time>
      </trkpt>
      <trkpt lat="43.5473734326660633087158203125" lon="-6.00878815166652202606201171875">
        <ele>82.1999969482421875</ele>
        <time>2019-07-11T12:22:44.000Z</time>
      </trkpt>
      <trkpt lat="43.54739430360496044158935546875" lon="-6.00849461741745471954345703125">
        <ele>81</ele>
        <time>2019-07-11T12:22:45.000Z</time>
      </trkpt>
      <trkpt lat="43.5474247299134731292724609375" lon="-6.00820376537740230560302734375">
        <ele>79.40000152587890625</ele>
        <time>2019-07-11T12:22:46.000Z</time>
      </trkpt>
      <trkpt lat="43.547470159828662872314453125" lon="-6.00791794247925281524658203125">
        <ele>78.1999969482421875</ele>
        <time>2019-07-11T12:22:47.000Z</time>
      </trkpt>
      <trkpt lat="43.54759815149009227752685546875" lon="-6.00739055313169956207275390625">
        <ele>79.1999969482421875</ele>
        <time>2019-07-11T12:22:49.000Z</time>
      </trkpt>
      <trkpt lat="43.5478548891842365264892578125" lon="-6.00666082464158535003662109375">
        <ele>80</ele>
        <time>2019-07-11T12:22:52.000Z</time>
      </trkpt>
      <trkpt lat="43.54795597493648529052734375" lon="-6.00641808472573757171630859375">
        <ele>80.59999847412109375</ele>
        <time>2019-07-11T12:22:53.000Z</time>
      </trkpt>
      <trkpt lat="43.54829485528171062469482421875" lon="-6.0056897811591625213623046875">
        <ele>80.40000152587890625</ele>
        <time>2019-07-11T12:22:56.000Z</time>
      </trkpt>
      <trkpt lat="43.5485375113785266876220703125" lon="-6.005193404853343963623046875">
        <ele>78.8000030517578125</ele>
        <time>2019-07-11T12:22:58.000Z</time>
      </trkpt>
      <trkpt lat="43.5487886331975460052490234375" lon="-6.0046909935772418975830078125">
        <ele>77</ele>
        <time>2019-07-11T12:23:00.000Z</time>
      </trkpt>
      <trkpt lat="43.54890874586999416351318359375" lon="-6.00444682873785495758056640625">
        <ele>75</ele>
        <time>2019-07-11T12:23:01.000Z</time>
      </trkpt>
      <trkpt lat="43.54902441613376140594482421875" lon="-6.0042095370590686798095703125">
        <ele>72.40000152587890625</ele>
        <time>2019-07-11T12:23:02.000Z</time>
      </trkpt>
      <trkpt lat="43.54914008639752864837646484375" lon="-6.003972999751567840576171875">
        <ele>70.8000030517578125</ele>
        <time>2019-07-11T12:23:03.000Z</time>
      </trkpt>
      <trkpt lat="43.54949313215911388397216796875" lon="-6.0032650642096996307373046875">
        <ele>70.1999969482421875</ele>
        <time>2019-07-11T12:23:06.000Z</time>
      </trkpt>
      <trkpt lat="43.54982673190534114837646484375" lon="-6.00260230712592601776123046875">
        <ele>68.8000030517578125</ele>
        <time>2019-07-11T12:23:09.000Z</time>
      </trkpt>
      <trkpt lat="43.55011247098445892333984375" lon="-6.00210048258304595947265625">
        <ele>68.8000030517578125</ele>
        <time>2019-07-11T12:23:12.000Z</time>
      </trkpt>
      <trkpt lat="43.550227470695972442626953125" lon="-6.00188917480409145355224609375">
        <ele>71.40000152587890625</ele>
        <time>2019-07-11T12:23:14.000Z</time>
      </trkpt>
      <trkpt lat="43.55025839991867542266845703125" lon="-6.00181893445551395416259765625">
        <ele>74.59999847412109375</ele>
        <time>2019-07-11T12:23:15.000Z</time>
      </trkpt>
      <trkpt lat="43.5502759180963039398193359375" lon="-6.00176579318940639495849609375">
        <ele>77.1999969482421875</ele>
        <time>2019-07-11T12:23:16.000Z</time>
      </trkpt>
      <trkpt lat="43.5502846352756023406982421875" lon="-6.001723296940326690673828125">
        <ele>78.8000030517578125</ele>
        <time>2019-07-11T12:23:17.000Z</time>
      </trkpt>
      <trkpt lat="43.55028706602752208709716796875" lon="-6.0016892664134502410888671875">
        <ele>80</ele>
        <time>2019-07-11T12:23:18.000Z</time>
      </trkpt>
      <trkpt lat="43.550284467637538909912109375" lon="-6.001677028834819793701171875">
        <ele>81.1999969482421875</ele>
        <time>2019-07-11T12:23:20.000Z</time>
      </trkpt>
      <trkpt lat="43.55027650482952594757080078125" lon="-6.00169144570827484130859375">
        <ele>82.40000152587890625</ele>
        <time>2019-07-11T12:23:25.000Z</time>
      </trkpt>
      <trkpt lat="43.5502403788268566131591796875" lon="-6.001471169292926788330078125">
        <ele>82.40000152587890625</ele>
        <time>2019-07-11T12:23:29.000Z</time>
      </trkpt>
      <trkpt lat="43.5502410493791103363037109375" lon="-6.00126924924552440643310546875">
        <ele>82</ele>
        <time>2019-07-11T12:23:31.000Z</time>
      </trkpt>
      <trkpt lat="43.55030634440481662750244140625" lon="-6.00106908939778804779052734375">
        <ele>81.59999847412109375</ele>
        <time>2019-07-11T12:23:33.000Z</time>
      </trkpt>
      <trkpt lat="43.550356887280941009521484375" lon="-6.00097395479679107666015625">
        <ele>81.1999969482421875</ele>
        <time>2019-07-11T12:23:34.000Z</time>
      </trkpt>
      <trkpt lat="43.55039955116808414459228515625" lon="-6.00086675025522708892822265625">
        <ele>80.8000030517578125</ele>
        <time>2019-07-11T12:23:35.000Z</time>
      </trkpt>
      <trkpt lat="43.5504160635173320770263671875" lon="-6.00060741417109966278076171875">
        <ele>80.1999969482421875</ele>
        <time>2019-07-11T12:23:37.000Z</time>
      </trkpt>
      <trkpt lat="43.55033350177109241485595703125" lon="-5.999822281301021575927734375">
        <ele>78.8000030517578125</ele>
        <time>2019-07-11T12:23:41.000Z</time>
      </trkpt>
      <trkpt lat="43.55032511986792087554931640625" lon="-5.99933587945997714996337890625">
        <ele>76.8000030517578125</ele>
        <time>2019-07-11T12:23:43.000Z</time>
      </trkpt>
      <trkpt lat="43.55035881511867046356201171875" lon="-5.9988273493945598602294921875">
        <ele>74.59999847412109375</ele>
        <time>2019-07-11T12:23:45.000Z</time>
      </trkpt>
      <trkpt lat="43.55043894611299037933349609375" lon="-5.99802813492715358734130859375">
        <ele>74.1999969482421875</ele>
        <time>2019-07-11T12:23:48.000Z</time>
      </trkpt>
      <trkpt lat="43.55051874183118343353271484375" lon="-5.99717670120298862457275390625">
        <ele>74.40000152587890625</ele>
        <time>2019-07-11T12:23:51.000Z</time>
      </trkpt>
      <trkpt lat="43.5505743138492107391357421875" lon="-5.99660354666411876678466796875">
        <ele>76.40000152587890625</ele>
        <time>2019-07-11T12:23:53.000Z</time>
      </trkpt>
      <trkpt lat="43.5506028123199939727783203125" lon="-5.9963178075850009918212890625">
        <ele>77.8000030517578125</ele>
        <time>2019-07-11T12:23:54.000Z</time>
      </trkpt>
      <trkpt lat="43.5506648384034633636474609375" lon="-5.99574674852192401885986328125">
        <ele>79.8000030517578125</ele>
        <time>2019-07-11T12:23:56.000Z</time>
      </trkpt>
      <trkpt lat="43.55080188252031803131103515625" lon="-5.99484435282647609710693359375">
        <ele>79.8000030517578125</ele>
        <time>2019-07-11T12:23:59.000Z</time>
      </trkpt>
      <trkpt lat="43.550875224173069000244140625" lon="-5.99452751688659191131591796875">
        <ele>78.1999969482421875</ele>
        <time>2019-07-11T12:24:00.000Z</time>
      </trkpt>
      <trkpt lat="43.55106339789927005767822265625" lon="-5.993909351527690887451171875">
        <ele>77.40000152587890625</ele>
        <time>2019-07-11T12:24:02.000Z</time>
      </trkpt>
      <trkpt lat="43.55117730796337127685546875" lon="-5.99361120723187923431396484375">
        <ele>77</ele>
        <time>2019-07-11T12:24:03.000Z</time>
      </trkpt>
      <trkpt lat="43.55130496434867382049560546875" lon="-5.99332253448665142059326171875">
        <ele>78.40000152587890625</ele>
        <time>2019-07-11T12:24:04.000Z</time>
      </trkpt>
      <trkpt lat="43.55144661851227283477783203125" lon="-5.9930471889674663543701171875">
        <ele>80.40000152587890625</ele>
        <time>2019-07-11T12:24:05.000Z</time>
      </trkpt>
      <trkpt lat="43.55159581638872623443603515625" lon="-5.99278072826564311981201171875">
        <ele>82.1999969482421875</ele>
        <time>2019-07-11T12:24:06.000Z</time>
      </trkpt>
      <trkpt lat="43.5517487861216068267822265625" lon="-5.99252407439053058624267578125">
        <ele>83.59999847412109375</ele>
        <time>2019-07-11T12:24:07.000Z</time>
      </trkpt>
      <trkpt lat="43.551903180778026580810546875" lon="-5.9922747127711772918701171875">
        <ele>85</ele>
        <time>2019-07-11T12:24:08.000Z</time>
      </trkpt>
      <trkpt lat="43.55205514468252658843994140625" lon="-5.99202618934214115142822265625">
        <ele>86.40000152587890625</ele>
        <time>2019-07-11T12:24:09.000Z</time>
      </trkpt>
      <trkpt lat="43.55233627371490001678466796875" lon="-5.99151388742029666900634765625">
        <ele>88</ele>
        <time>2019-07-11T12:24:11.000Z</time>
      </trkpt>
      <trkpt lat="43.55256945826113224029541015625" lon="-5.990964286029338836669921875">
        <ele>90.1999969482421875</ele>
        <time>2019-07-11T12:24:13.000Z</time>
      </trkpt>
      <trkpt lat="43.55276425369083881378173828125" lon="-5.99036187864840030670166015625">
        <ele>91.59999847412109375</ele>
        <time>2019-07-11T12:24:15.000Z</time>
      </trkpt>
      <trkpt lat="43.55284321121871471405029296875" lon="-5.9900427795946598052978515625">
        <ele>92.40000152587890625</ele>
        <time>2019-07-11T12:24:16.000Z</time>
      </trkpt>
      <trkpt lat="43.552911020815372467041015625" lon="-5.98971680738031864166259765625">
        <ele>93</ele>
        <time>2019-07-11T12:24:17.000Z</time>
      </trkpt>
      <trkpt lat="43.55295837856829166412353515625" lon="-5.98937097005546092987060546875">
        <ele>93.1999969482421875</ele>
        <time>2019-07-11T12:24:18.000Z</time>
      </trkpt>
      <trkpt lat="43.55300649069249629974365234375" lon="-5.9886554069817066192626953125">
        <ele>92</ele>
        <time>2019-07-11T12:24:20.000Z</time>
      </trkpt>
      <trkpt lat="43.55301135219633579254150390625" lon="-5.98830244503915309906005859375">
        <ele>92.1999969482421875</ele>
        <time>2019-07-11T12:24:21.000Z</time>
      </trkpt>
      <trkpt lat="43.5529696941375732421875" lon="-5.98761311732232570648193359375">
        <ele>92.59999847412109375</ele>
        <time>2019-07-11T12:24:23.000Z</time>
      </trkpt>
      <trkpt lat="43.552862741053104400634765625" lon="-5.98693124949932098388671875">
        <ele>93.1999969482421875</ele>
        <time>2019-07-11T12:24:25.000Z</time>
      </trkpt>
      <trkpt lat="43.5526905767619609832763671875" lon="-5.9862762875854969024658203125">
        <ele>94</ele>
        <time>2019-07-11T12:24:27.000Z</time>
      </trkpt>
      <trkpt lat="43.5525846295058727264404296875" lon="-5.98596389405429363250732421875">
        <ele>94.1999969482421875</ele>
        <time>2019-07-11T12:24:28.000Z</time>
      </trkpt>
      <trkpt lat="43.55233124457299709320068359375" lon="-5.98537364043295383453369140625">
        <ele>94.59999847412109375</ele>
        <time>2019-07-11T12:24:30.000Z</time>
      </trkpt>
      <trkpt lat="43.55201742611825466156005859375" lon="-5.98484306596219539642333984375">
        <ele>94.8000030517578125</ele>
        <time>2019-07-11T12:24:32.000Z</time>
      </trkpt>
      <trkpt lat="43.55167276225984096527099609375" lon="-5.984353311359882354736328125">
        <ele>94</ele>
        <time>2019-07-11T12:24:34.000Z</time>
      </trkpt>
      <trkpt lat="43.551498167216777801513671875" lon="-5.9841171093285083770751953125">
        <ele>92.1999969482421875</ele>
        <time>2019-07-11T12:24:35.000Z</time>
      </trkpt>
      <trkpt lat="43.5513219796121120452880859375" lon="-5.9838877804577350616455078125">
        <ele>89.8000030517578125</ele>
        <time>2019-07-11T12:24:36.000Z</time>
      </trkpt>
      <trkpt lat="43.551148809492588043212890625" lon="-5.9836582839488983154296875">
        <ele>87.40000152587890625</ele>
        <time>2019-07-11T12:24:37.000Z</time>
      </trkpt>
      <trkpt lat="43.5509856976568698883056640625" lon="-5.98341596312820911407470703125">
        <ele>85.40000152587890625</ele>
        <time>2019-07-11T12:24:38.000Z</time>
      </trkpt>
      <trkpt lat="43.55083373375236988067626953125" lon="-5.983163416385650634765625">
        <ele>83.40000152587890625</ele>
        <time>2019-07-11T12:24:39.000Z</time>
      </trkpt>
      <trkpt lat="43.55069308541715145111083984375" lon="-5.9828992187976837158203125">
        <ele>81.1999969482421875</ele>
        <time>2019-07-11T12:24:40.000Z</time>
      </trkpt>
      <trkpt lat="43.55056500993669033050537109375" lon="-5.982625968754291534423828125">
        <ele>80.1999969482421875</ele>
        <time>2019-07-11T12:24:41.000Z</time>
      </trkpt>
      <trkpt lat="43.55034708045423030853271484375" lon="-5.98206211812794208526611328125">
        <ele>79.8000030517578125</ele>
        <time>2019-07-11T12:24:43.000Z</time>
      </trkpt>
      <trkpt lat="43.550257980823516845703125" lon="-5.98176640458405017852783203125">
        <ele>78.40000152587890625</ele>
        <time>2019-07-11T12:24:44.000Z</time>
      </trkpt>
      <trkpt lat="43.55018111877143383026123046875" lon="-5.98146180622279644012451171875">
        <ele>77</ele>
        <time>2019-07-11T12:24:45.000Z</time>
      </trkpt>
      <trkpt lat="43.550060503184795379638671875" lon="-5.98083651624619960784912109375">
        <ele>76</ele>
        <time>2019-07-11T12:24:47.000Z</time>
      </trkpt>
      <trkpt lat="43.550019599497318267822265625" lon="-5.980515740811824798583984375">
        <ele>74.1999969482421875</ele>
        <time>2019-07-11T12:24:48.000Z</time>
      </trkpt>
      <trkpt lat="43.54998498223721981048583984375" lon="-5.97987301647663116455078125">
        <ele>73.40000152587890625</ele>
        <time>2019-07-11T12:24:50.000Z</time>
      </trkpt>
      <trkpt lat="43.5500133968889713287353515625" lon="-5.97922752611339092254638671875">
        <ele>74.8000030517578125</ele>
        <time>2019-07-11T12:24:52.000Z</time>
      </trkpt>
      <trkpt lat="43.55004130862653255462646484375" lon="-5.97890381701290607452392578125">
        <ele>75.40000152587890625</ele>
        <time>2019-07-11T12:24:53.000Z</time>
      </trkpt>
      <trkpt lat="43.55013686232268810272216796875" lon="-5.97825371660292148590087890625">
        <ele>76</ele>
        <time>2019-07-11T12:24:55.000Z</time>
      </trkpt>
      <trkpt lat="43.550298549234867095947265625" lon="-5.97761266864836215972900390625">
        <ele>74.8000030517578125</ele>
        <time>2019-07-11T12:24:57.000Z</time>
      </trkpt>
      <trkpt lat="43.5504003055393695831298828125" lon="-5.97729851491749286651611328125">
        <ele>72.8000030517578125</ele>
        <time>2019-07-11T12:24:58.000Z</time>
      </trkpt>
      <trkpt lat="43.550511784851551055908203125" lon="-5.9769908152520656585693359375">
        <ele>70.8000030517578125</ele>
        <time>2019-07-11T12:24:59.000Z</time>
      </trkpt>
      <trkpt lat="43.55062888003885746002197265625" lon="-5.9766907431185245513916015625">
        <ele>68.59999847412109375</ele>
        <time>2019-07-11T12:25:00.000Z</time>
      </trkpt>
      <trkpt lat="43.55085720308125019073486328125" lon="-5.976108871400356292724609375">
        <ele>68.40000152587890625</ele>
        <time>2019-07-11T12:25:02.000Z</time>
      </trkpt>
      <trkpt lat="43.5510675050318241119384765625" lon="-5.9755300171673297882080078125">
        <ele>68.59999847412109375</ele>
        <time>2019-07-11T12:25:04.000Z</time>
      </trkpt>
      <trkpt lat="43.55123355053365230560302734375" lon="-5.9749456308782100677490234375">
        <ele>68.8000030517578125</ele>
        <time>2019-07-11T12:25:06.000Z</time>
      </trkpt>
      <trkpt lat="43.55137176811695098876953125" lon="-5.974353365600109100341796875">
        <ele>68.1999969482421875</ele>
        <time>2019-07-11T12:25:08.000Z</time>
      </trkpt>
      <trkpt lat="43.55148031376302242279052734375" lon="-5.97374190576374530792236328125">
        <ele>66.8000030517578125</ele>
        <time>2019-07-11T12:25:10.000Z</time>
      </trkpt>
      <trkpt lat="43.551551811397075653076171875" lon="-5.97311108373105525970458984375">
        <ele>65.8000030517578125</ele>
        <time>2019-07-11T12:25:12.000Z</time>
      </trkpt>
      <trkpt lat="43.5515928827226161956787109375" lon="-5.972463078796863555908203125">
        <ele>63.200000762939453125</ele>
        <time>2019-07-11T12:25:14.000Z</time>
      </trkpt>
      <trkpt lat="43.55160084553062915802001953125" lon="-5.97213442437350749969482421875">
        <ele>60.799999237060546875</ele>
        <time>2019-07-11T12:25:15.000Z</time>
      </trkpt>
      <trkpt lat="43.55160084553062915802001953125" lon="-5.97180166281759738922119140625">
        <ele>59.200000762939453125</ele>
        <time>2019-07-11T12:25:16.000Z</time>
      </trkpt>
      <trkpt lat="43.551583997905254364013671875" lon="-5.97112960182130336761474609375">
        <ele>59.200000762939453125</ele>
        <time>2019-07-11T12:25:18.000Z</time>
      </trkpt>
      <trkpt lat="43.551574610173702239990234375" lon="-5.9704475663602352142333984375">
        <ele>58.40000152587890625</ele>
        <time>2019-07-11T12:25:20.000Z</time>
      </trkpt>
      <trkpt lat="43.55157536454498767852783203125" lon="-5.97010700963437557220458984375">
        <ele>58</ele>
        <time>2019-07-11T12:25:21.000Z</time>
      </trkpt>
      <trkpt lat="43.55158257298171520233154296875" lon="-5.9697682969272136688232421875">
        <ele>56.40000152587890625</ele>
        <time>2019-07-11T12:25:22.000Z</time>
      </trkpt>
      <trkpt lat="43.55159849859774112701416015625" lon="-5.9694310091435909271240234375">
        <ele>54.59999847412109375</ele>
        <time>2019-07-11T12:25:23.000Z</time>
      </trkpt>
      <trkpt lat="43.5516254045069217681884765625" lon="-5.96909531392157077789306640625">
        <ele>52.59999847412109375</ele>
        <time>2019-07-11T12:25:24.000Z</time>
      </trkpt>
      <trkpt lat="43.55166790075600147247314453125" lon="-5.96876305527985095977783203125">
        <ele>50.799999237060546875</ele>
        <time>2019-07-11T12:25:25.000Z</time>
      </trkpt>
      <trkpt lat="43.5518031008541584014892578125" lon="-5.9681080095469951629638671875">
        <ele>49.799999237060546875</ele>
        <time>2019-07-11T12:25:27.000Z</time>
      </trkpt>
      <trkpt lat="43.5519797913730144500732421875" lon="-5.96748498268425464630126953125">
        <ele>52</ele>
        <time>2019-07-11T12:25:29.000Z</time>
      </trkpt>
      <trkpt lat="43.552085570991039276123046875" lon="-5.9671886824071407318115234375">
        <ele>53</ele>
        <time>2019-07-11T12:25:30.000Z</time>
      </trkpt>
      <trkpt lat="43.552204258739948272705078125" lon="-5.966904200613498687744140625">
        <ele>54.799999237060546875</ele>
        <time>2019-07-11T12:25:31.000Z</time>
      </trkpt>
      <trkpt lat="43.55247423984110355377197265625" lon="-5.96637479960918426513671875">
        <ele>55.799999237060546875</ele>
        <time>2019-07-11T12:25:33.000Z</time>
      </trkpt>
      <trkpt lat="43.5526258684694766998291015625" lon="-5.9661352448165416717529296875">
        <ele>55.799999237060546875</ele>
        <time>2019-07-11T12:25:34.000Z</time>
      </trkpt>
      <trkpt lat="43.55294295586645603179931640625" lon="-5.96570952795445919036865234375">
        <ele>54.59999847412109375</ele>
        <time>2019-07-11T12:25:36.000Z</time>
      </trkpt>
      <trkpt lat="43.5534677468240261077880859375" lon="-5.9651787020266056060791015625">
        <ele>54.59999847412109375</ele>
        <time>2019-07-11T12:25:39.000Z</time>
      </trkpt>
      <trkpt lat="43.55404199101030826568603515625" lon="-5.96473253332078456878662109375">
        <ele>53.200000762939453125</ele>
        <time>2019-07-11T12:25:42.000Z</time>
      </trkpt>
      <trkpt lat="43.5544464178383350372314453125" lon="-5.96447202377021312713623046875">
        <ele>51.59999847412109375</ele>
        <time>2019-07-11T12:25:44.000Z</time>
      </trkpt>
      <trkpt lat="43.554648421704769134521484375" lon="-5.964350737631320953369140625">
        <ele>50</ele>
        <time>2019-07-11T12:25:45.000Z</time>
      </trkpt>
      <trkpt lat="43.55484656989574432373046875" lon="-5.96424319781363010406494140625">
        <ele>48.799999237060546875</ele>
        <time>2019-07-11T12:25:46.000Z</time>
      </trkpt>
      <trkpt lat="43.55548284016549587249755859375" lon="-5.96397698856890201568603515625">
        <ele>48.799999237060546875</ele>
        <time>2019-07-11T12:25:49.000Z</time>
      </trkpt>
      <trkpt lat="43.55593747459352016448974609375" lon="-5.96382594667375087738037109375">
        <ele>47.59999847412109375</ele>
        <time>2019-07-11T12:25:51.000Z</time>
      </trkpt>
      <trkpt lat="43.55637836270034313201904296875" lon="-5.96367691643536090850830078125">
        <ele>46.799999237060546875</ele>
        <time>2019-07-11T12:25:53.000Z</time>
      </trkpt>
      <trkpt lat="43.5565962083637714385986328125" lon="-5.96360810101032257080078125">
        <ele>46</ele>
        <time>2019-07-11T12:25:54.000Z</time>
      </trkpt>
      <trkpt lat="43.5568215139210224151611328125" lon="-5.9635361842811107635498046875">
        <ele>44.59999847412109375</ele>
        <time>2019-07-11T12:25:55.000Z</time>
      </trkpt>
      <trkpt lat="43.55705193243920803070068359375" lon="-5.96348128281533718109130859375">
        <ele>42</ele>
        <time>2019-07-11T12:25:56.000Z</time>
      </trkpt>
      <trkpt lat="43.5572862066328525543212890625" lon="-5.963445492088794708251953125">
        <ele>40.59999847412109375</ele>
        <time>2019-07-11T12:25:57.000Z</time>
      </trkpt>
      <trkpt lat="43.5575245879590511322021484375" lon="-5.96343434415757656097412109375">
        <ele>39.200000762939453125</ele>
        <time>2019-07-11T12:25:58.000Z</time>
      </trkpt>
      <trkpt lat="43.557765819132328033447265625" lon="-5.96344540826976299285888671875">
        <ele>37.200000762939453125</ele>
        <time>2019-07-11T12:25:59.000Z</time>
      </trkpt>
      <trkpt lat="43.55800378136336803436279296875" lon="-5.96347793005406856536865234375">
        <ele>35</ele>
        <time>2019-07-11T12:26:00.000Z</time>
      </trkpt>
      <trkpt lat="43.55823864229023456573486328125" lon="-5.9635217674076557159423828125">
        <ele>34</ele>
        <time>2019-07-11T12:26:01.000Z</time>
      </trkpt>
      <trkpt lat="43.55846243910491466522216796875" lon="-5.96357055008411407470703125">
        <ele>32.40000152587890625</ele>
        <time>2019-07-11T12:26:02.000Z</time>
      </trkpt>
      <trkpt lat="43.559072725474834442138671875" lon="-5.96374447457492351531982421875">
        <ele>32.59999847412109375</ele>
        <time>2019-07-11T12:26:05.000Z</time>
      </trkpt>
      <trkpt lat="43.55965820141136646270751953125" lon="-5.96386383287608623504638671875">
        <ele>32</ele>
        <time>2019-07-11T12:26:08.000Z</time>
      </trkpt>
      <trkpt lat="43.559859953820705413818359375" lon="-5.963869951665401458740234375">
        <ele>31.3999996185302734375</ele>
        <time>2019-07-11T12:26:09.000Z</time>
      </trkpt>
      <trkpt lat="43.56027401983737945556640625" lon="-5.96383768133819103240966796875">
        <ele>30.200000762939453125</ele>
        <time>2019-07-11T12:26:11.000Z</time>
      </trkpt>
      <trkpt lat="43.5604877583682537078857421875" lon="-5.9638027288019657135009765625">
        <ele>29</ele>
        <time>2019-07-11T12:26:12.000Z</time>
      </trkpt>
      <trkpt lat="43.56114163063466548919677734375" lon="-5.96361346542835235595703125">
        <ele>28.3999996185302734375</ele>
        <time>2019-07-11T12:26:15.000Z</time>
      </trkpt>
      <trkpt lat="43.56157983653247356414794921875" lon="-5.9633987210690975189208984375">
        <ele>28.200000762939453125</ele>
        <time>2019-07-11T12:26:17.000Z</time>
      </trkpt>
      <trkpt lat="43.56179349124431610107421875" lon="-5.96326570026576519012451171875">
        <ele>27.6000003814697265625</ele>
        <time>2019-07-11T12:26:18.000Z</time>
      </trkpt>
      <trkpt lat="43.56219925917685031890869140625" lon="-5.96295925788581371307373046875">
        <ele>25.799999237060546875</ele>
        <time>2019-07-11T12:26:20.000Z</time>
      </trkpt>
      <trkpt lat="43.56256940402090549468994140625" lon="-5.96258928067982196807861328125">
        <ele>24.799999237060546875</ele>
        <time>2019-07-11T12:26:22.000Z</time>
      </trkpt>
      <trkpt lat="43.5629111342132091522216796875" lon="-5.96215291880071163177490234375">
        <ele>25.200000762939453125</ele>
        <time>2019-07-11T12:26:24.000Z</time>
      </trkpt>
      <trkpt lat="43.5632209293544292449951171875" lon="-5.96165545284748077392578125">
        <ele>27</ele>
        <time>2019-07-11T12:26:26.000Z</time>
      </trkpt>
      <trkpt lat="43.5634844563901424407958984375" lon="-5.96111557446420192718505859375">
        <ele>28.799999237060546875</ele>
        <time>2019-07-11T12:26:28.000Z</time>
      </trkpt>
      <trkpt lat="43.5635964386165142059326171875" lon="-5.96083578653633594512939453125">
        <ele>30.200000762939453125</ele>
        <time>2019-07-11T12:26:29.000Z</time>
      </trkpt>
      <trkpt lat="43.56378880329430103302001953125" lon="-5.960246287286281585693359375">
        <ele>31.6000003814697265625</ele>
        <time>2019-07-11T12:26:31.000Z</time>
      </trkpt>
      <trkpt lat="43.5639320500195026397705078125" lon="-5.9596107713878154754638671875">
        <ele>32.200000762939453125</ele>
        <time>2019-07-11T12:26:33.000Z</time>
      </trkpt>
      <trkpt lat="43.5640286095440387725830078125" lon="-5.9589261375367641448974609375">
        <ele>32</ele>
        <time>2019-07-11T12:26:35.000Z</time>
      </trkpt>
      <trkpt lat="43.56407630257308483123779296875" lon="-5.95819808542728424072265625">
        <ele>31</ele>
        <time>2019-07-11T12:26:37.000Z</time>
      </trkpt>
      <trkpt lat="43.564049564301967620849609375" lon="-5.95747732557356357574462890625">
        <ele>30</ele>
        <time>2019-07-11T12:26:39.000Z</time>
      </trkpt>
      <trkpt lat="43.56401226483285427093505859375" lon="-5.9571300633251667022705078125">
        <ele>28.6000003814697265625</ele>
        <time>2019-07-11T12:26:40.000Z</time>
      </trkpt>
      <trkpt lat="43.56390179134905338287353515625" lon="-5.95646194182336330413818359375">
        <ele>28.799999237060546875</ele>
        <time>2019-07-11T12:26:42.000Z</time>
      </trkpt>
      <trkpt lat="43.56382702477276325225830078125" lon="-5.9561396576464176177978515625">
        <ele>31.6000003814697265625</ele>
        <time>2019-07-11T12:26:43.000Z</time>
      </trkpt>
      <trkpt lat="43.56374270282685756683349609375" lon="-5.95582257024943828582763671875">
        <ele>35.40000152587890625</ele>
        <time>2019-07-11T12:26:44.000Z</time>
      </trkpt>
      <trkpt lat="43.5636467300355434417724609375" lon="-5.95550908707082271575927734375">
        <ele>37.40000152587890625</ele>
        <time>2019-07-11T12:26:45.000Z</time>
      </trkpt>
      <trkpt lat="43.56354053132236003875732421875" lon="-5.955201052129268646240234375">
        <ele>39.59999847412109375</ele>
        <time>2019-07-11T12:26:46.000Z</time>
      </trkpt>
      <trkpt lat="43.56342871673405170440673828125" lon="-5.9548957832157611846923828125">
        <ele>41.40000152587890625</ele>
        <time>2019-07-11T12:26:47.000Z</time>
      </trkpt>
      <trkpt lat="43.56318262405693531036376953125" lon="-5.95429488457739353179931640625">
        <ele>43.40000152587890625</ele>
        <time>2019-07-11T12:26:49.000Z</time>
      </trkpt>
      <trkpt lat="43.56291976757347583770751953125" lon="-5.9536993503570556640625">
        <ele>45</ele>
        <time>2019-07-11T12:26:51.000Z</time>
      </trkpt>
      <trkpt lat="43.562786914408206939697265625" lon="-5.9533984400331974029541015625">
        <ele>46.200000762939453125</ele>
        <time>2019-07-11T12:26:52.000Z</time>
      </trkpt>
      <trkpt lat="43.5626564919948577880859375" lon="-5.95309593714773654937744140625">
        <ele>47.799999237060546875</ele>
        <time>2019-07-11T12:26:53.000Z</time>
      </trkpt>
      <trkpt lat="43.5625275783240795135498046875" lon="-5.95279209315776824951171875">
        <ele>49.40000152587890625</ele>
        <time>2019-07-11T12:26:54.000Z</time>
      </trkpt>
      <trkpt lat="43.5624035261571407318115234375" lon="-5.952489338815212249755859375">
        <ele>51</ele>
        <time>2019-07-11T12:26:55.000Z</time>
      </trkpt>
      <trkpt lat="43.56228944845497608184814453125" lon="-5.952183902263641357421875">
        <ele>52.59999847412109375</ele>
        <time>2019-07-11T12:26:56.000Z</time>
      </trkpt>
      <trkpt lat="43.5621896199882030487060546875" lon="-5.9518725983798503875732421875">
        <ele>54.200000762939453125</ele>
        <time>2019-07-11T12:26:57.000Z</time>
      </trkpt>
      <trkpt lat="43.56203346513211727142333984375" lon="-5.95122375525534152984619140625">
        <ele>56.200000762939453125</ele>
        <time>2019-07-11T12:26:59.000Z</time>
      </trkpt>
      <trkpt lat="43.56197143904864788055419921875" lon="-5.95088713802397251129150390625">
        <ele>57.200000762939453125</ele>
        <time>2019-07-11T12:27:00.000Z</time>
      </trkpt>
      <trkpt lat="43.56191460974514484405517578125" lon="-5.95054515637457370758056640625">
        <ele>58.40000152587890625</ele>
        <time>2019-07-11T12:27:01.000Z</time>
      </trkpt>
      <trkpt lat="43.56180128641426563262939453125" lon="-5.9498555772006511688232421875">
        <ele>59.799999237060546875</ele>
        <time>2019-07-11T12:27:03.000Z</time>
      </trkpt>
      <trkpt lat="43.561661057174205780029296875" lon="-5.94918108545243740081787109375">
        <ele>60.40000152587890625</ele>
        <time>2019-07-11T12:27:05.000Z</time>
      </trkpt>
      <trkpt lat="43.56145964004099369049072265625" lon="-5.94853634946048259735107421875">
        <ele>62</ele>
        <time>2019-07-11T12:27:07.000Z</time>
      </trkpt>
      <trkpt lat="43.5613309778273105621337890625" lon="-5.9482294879853725433349609375">
        <ele>67.1999969482421875</ele>
        <time>2019-07-11T12:27:08.000Z</time>
      </trkpt>
      <trkpt lat="43.561191000044345855712890625" lon="-5.94792656600475311279296875">
        <ele>70.40000152587890625</ele>
        <time>2019-07-11T12:27:09.000Z</time>
      </trkpt>
      <trkpt lat="43.5610406287014484405517578125" lon="-5.94763495959341526031494140625">
        <ele>72.59999847412109375</ele>
        <time>2019-07-11T12:27:10.000Z</time>
      </trkpt>
      <trkpt lat="43.5608800314366817474365234375" lon="-5.9473545849323272705078125">
        <ele>73.8000030517578125</ele>
        <time>2019-07-11T12:27:11.000Z</time>
      </trkpt>
      <trkpt lat="43.560706861317157745361328125" lon="-5.94708963297307491302490234375">
        <ele>75</ele>
        <time>2019-07-11T12:27:12.000Z</time>
      </trkpt>
      <trkpt lat="43.560523129999637603759765625" lon="-5.94684454612433910369873046875">
        <ele>73.8000030517578125</ele>
        <time>2019-07-11T12:27:13.000Z</time>
      </trkpt>
      <trkpt lat="43.56032892130315303802490234375" lon="-5.9466215036809444427490234375">
        <ele>72</ele>
        <time>2019-07-11T12:27:14.000Z</time>
      </trkpt>
      <trkpt lat="43.560123480856418609619140625" lon="-5.9464179910719394683837890625">
        <ele>70.59999847412109375</ele>
        <time>2019-07-11T12:27:15.000Z</time>
      </trkpt>
      <trkpt lat="43.5596874542534351348876953125" lon="-5.94605430029332637786865234375">
        <ele>69.1999969482421875</ele>
        <time>2019-07-11T12:27:17.000Z</time>
      </trkpt>
      <trkpt lat="43.559226281940937042236328125" lon="-5.94574433751404285430908203125">
        <ele>67.8000030517578125</ele>
        <time>2019-07-11T12:27:19.000Z</time>
      </trkpt>
      <trkpt lat="43.55875320732593536376953125" lon="-5.94546320848166942596435546875">
        <ele>66.59999847412109375</ele>
        <time>2019-07-11T12:27:21.000Z</time>
      </trkpt>
      <trkpt lat="43.55826864950358867645263671875" lon="-5.945187024772167205810546875">
        <ele>66.1999969482421875</ele>
        <time>2019-07-11T12:27:23.000Z</time>
      </trkpt>
      <trkpt lat="43.5580124147236347198486328125" lon="-5.94504562206566333770751953125">
        <ele>64.8000030517578125</ele>
        <time>2019-07-11T12:27:24.000Z</time>
      </trkpt>
      <trkpt lat="43.55748762376606464385986328125" lon="-5.94475351274013519287109375">
        <ele>64</ele>
        <time>2019-07-11T12:27:26.000Z</time>
      </trkpt>
      <trkpt lat="43.557225354015827178955078125" lon="-5.944606997072696685791015625">
        <ele>61.59999847412109375</ele>
        <time>2019-07-11T12:27:27.000Z</time>
      </trkpt>
      <trkpt lat="43.55696727521717548370361328125" lon="-5.94446559436619281768798828125">
        <ele>59.59999847412109375</ele>
        <time>2019-07-11T12:27:28.000Z</time>
      </trkpt>
      <trkpt lat="43.55671984143555164337158203125" lon="-5.94432746060192584991455078125">
        <ele>57.799999237060546875</ele>
        <time>2019-07-11T12:27:29.000Z</time>
      </trkpt>
      <trkpt lat="43.556485064327716827392578125" lon="-5.94419318251311779022216796875">
        <ele>56.59999847412109375</ele>
        <time>2019-07-11T12:27:30.000Z</time>
      </trkpt>
      <trkpt lat="43.5560416616499423980712890625" lon="-5.943947173655033111572265625">
        <ele>56</ele>
        <time>2019-07-11T12:27:32.000Z</time>
      </trkpt>
      <trkpt lat="43.55583286844193935394287109375" lon="-5.9438343532383441925048828125">
        <ele>57.799999237060546875</ele>
        <time>2019-07-11T12:27:33.000Z</time>
      </trkpt>
      <trkpt lat="43.55563153512775897979736328125" lon="-5.9437270648777484893798828125">
        <ele>61.200000762939453125</ele>
        <time>2019-07-11T12:27:34.000Z</time>
      </trkpt>
      <trkpt lat="43.55543623678386211395263671875" lon="-5.94362522475421428680419921875">
        <ele>66.8000030517578125</ele>
        <time>2019-07-11T12:27:35.000Z</time>
      </trkpt>
      <trkpt lat="43.555251918733119964599609375" lon="-5.943523384630680084228515625">
        <ele>71.59999847412109375</ele>
        <time>2019-07-11T12:27:36.000Z</time>
      </trkpt>
      <trkpt lat="43.55507229454815387725830078125" lon="-5.94342137686908245086669921875">
        <ele>73.8000030517578125</ele>
        <time>2019-07-11T12:27:37.000Z</time>
      </trkpt>
      <trkpt lat="43.554890491068363189697265625" lon="-5.94331509433686733245849609375">
        <ele>75.1999969482421875</ele>
        <time>2019-07-11T12:27:38.000Z</time>
      </trkpt>
      <trkpt lat="43.5545104555785655975341796875" lon="-5.94310437329113483428955078125">
        <ele>73.59999847412109375</ele>
        <time>2019-07-11T12:27:40.000Z</time>
      </trkpt>
      <trkpt lat="43.55410284362733364105224609375" lon="-5.94288744963705539703369140625">
        <ele>71.8000030517578125</ele>
        <time>2019-07-11T12:27:42.000Z</time>
      </trkpt>
      <trkpt lat="43.55389396660029888153076171875" lon="-5.942774377763271331787109375">
        <ele>70.59999847412109375</ele>
        <time>2019-07-11T12:27:43.000Z</time>
      </trkpt>
      <trkpt lat="43.55348962359130382537841796875" lon="-5.9425442107021808624267578125">
        <ele>69.40000152587890625</ele>
        <time>2019-07-11T12:27:45.000Z</time>
      </trkpt>
      <trkpt lat="43.55310321785509586334228515625" lon="-5.9423225931823253631591796875">
        <ele>68.40000152587890625</ele>
        <time>2019-07-11T12:27:47.000Z</time>
      </trkpt>
      <trkpt lat="43.55290624313056468963623046875" lon="-5.94221346080303192138671875">
        <ele>67.1999969482421875</ele>
        <time>2019-07-11T12:27:48.000Z</time>
      </trkpt>
      <trkpt lat="43.5527073405683040618896484375" lon="-5.94210357405245304107666015625">
        <ele>65</ele>
        <time>2019-07-11T12:27:49.000Z</time>
      </trkpt>
      <trkpt lat="43.55250692926347255706787109375" lon="-5.9419792704284191131591796875">
        <ele>64</ele>
        <time>2019-07-11T12:27:50.000Z</time>
      </trkpt>
      <trkpt lat="43.55210476554930210113525390625" lon="-5.9416996501386165618896484375">
        <ele>64.1999969482421875</ele>
        <time>2019-07-11T12:27:52.000Z</time>
      </trkpt>
      <trkpt lat="43.551903180778026580810546875" lon="-5.94154349528253078460693359375">
        <ele>66.8000030517578125</ele>
        <time>2019-07-11T12:27:53.000Z</time>
      </trkpt>
      <trkpt lat="43.55151417665183544158935546875" lon="-5.9412208758294582366943359375">
        <ele>71.40000152587890625</ele>
        <time>2019-07-11T12:27:55.000Z</time>
      </trkpt>
      <trkpt lat="43.55132281780242919921875" lon="-5.94105835072696208953857421875">
        <ele>75.1999969482421875</ele>
        <time>2019-07-11T12:27:56.000Z</time>
      </trkpt>
      <trkpt lat="43.55113430880010128021240234375" lon="-5.9408943168818950653076171875">
        <ele>77.59999847412109375</ele>
        <time>2019-07-11T12:27:57.000Z</time>
      </trkpt>
      <trkpt lat="43.5509545169770717620849609375" lon="-5.94071318395435810089111328125">
        <ele>78.8000030517578125</ele>
        <time>2019-07-11T12:27:58.000Z</time>
      </trkpt>
      <trkpt lat="43.55061245150864124298095703125" lon="-5.94032174907624721527099609375">
        <ele>79.40000152587890625</ele>
        <time>2019-07-11T12:28:00.000Z</time>
      </trkpt>
      <trkpt lat="43.55029192753136157989501953125" lon="-5.93990198336541652679443359375">
        <ele>80</ele>
        <time>2019-07-11T12:28:02.000Z</time>
      </trkpt>
      <trkpt lat="43.549836538732051849365234375" lon="-5.93923159874975681304931640625">
        <ele>78.59999847412109375</ele>
        <time>2019-07-11T12:28:05.000Z</time>
      </trkpt>
      <trkpt lat="43.5495443455874919891357421875" lon="-5.93876103870570659637451171875">
        <ele>77.59999847412109375</ele>
        <time>2019-07-11T12:28:07.000Z</time>
      </trkpt>
      <trkpt lat="43.54940302670001983642578125" lon="-5.9385118447244167327880859375">
        <ele>74.8000030517578125</ele>
        <time>2019-07-11T12:28:08.000Z</time>
      </trkpt>
      <trkpt lat="43.54926497675478458404541015625" lon="-5.93825041316449642181396484375">
        <ele>68</ele>
        <time>2019-07-11T12:28:09.000Z</time>
      </trkpt>
      <trkpt lat="43.54912935756146907806396484375" lon="-5.9379775822162628173828125">
        <ele>59.799999237060546875</ele>
        <time>2019-07-11T12:28:10.000Z</time>
      </trkpt>
      <trkpt lat="43.548997007310390472412109375" lon="-5.93769083730876445770263671875">
        <ele>52.200000762939453125</ele>
        <time>2019-07-11T12:28:11.000Z</time>
      </trkpt>
      <trkpt lat="43.5488731227815151214599609375" lon="-5.9373983927071094512939453125">
        <ele>48.40000152587890625</ele>
        <time>2019-07-11T12:28:12.000Z</time>
      </trkpt>
      <trkpt lat="43.54875938035547733306884765625" lon="-5.93710251152515411376953125">
        <ele>46.40000152587890625</ele>
        <time>2019-07-11T12:28:13.000Z</time>
      </trkpt>
      <trkpt lat="43.5485505871474742889404296875" lon="-5.93650261871516704559326171875">
        <ele>46.40000152587890625</ele>
        <time>2019-07-11T12:28:15.000Z</time>
      </trkpt>
      <trkpt lat="43.548353947699069976806640625" lon="-5.93587783165276050567626953125">
        <ele>46.799999237060546875</ele>
        <time>2019-07-11T12:28:17.000Z</time>
      </trkpt>
      <trkpt lat="43.54814733378589153289794921875" lon="-5.935180373489856719970703125">
        <ele>46.59999847412109375</ele>
        <time>2019-07-11T12:28:19.000Z</time>
      </trkpt>
      <trkpt lat="43.54803853668272495269775390625" lon="-5.93482154421508312225341796875">
        <ele>44.799999237060546875</ele>
        <time>2019-07-11T12:28:20.000Z</time>
      </trkpt>
      <trkpt lat="43.54792957194149494171142578125" lon="-5.93447671271860599517822265625">
        <ele>41.59999847412109375</ele>
        <time>2019-07-11T12:28:21.000Z</time>
      </trkpt>
      <trkpt lat="43.54782060720026493072509765625" lon="-5.93415233306586742401123046875">
        <ele>37.59999847412109375</ele>
        <time>2019-07-11T12:28:22.000Z</time>
      </trkpt>
      <trkpt lat="43.54770787060260772705078125" lon="-5.93384304083883762359619140625">
        <ele>35.59999847412109375</ele>
        <time>2019-07-11T12:28:23.000Z</time>
      </trkpt>
      <trkpt lat="43.54745917953550815582275390625" lon="-5.933246500790119171142578125">
        <ele>34.799999237060546875</ele>
        <time>2019-07-11T12:28:25.000Z</time>
      </trkpt>
      <trkpt lat="43.54716765694320201873779296875" lon="-5.93267108313739299774169921875">
        <ele>38</ele>
        <time>2019-07-11T12:28:27.000Z</time>
      </trkpt>
      <trkpt lat="43.54700722731649875640869140625" lon="-5.9323940612375736236572265625">
        <ele>39</ele>
        <time>2019-07-11T12:28:28.000Z</time>
      </trkpt>
      <trkpt lat="43.54683749377727508544921875" lon="-5.9321318753063678741455078125">
        <ele>40.200000762939453125</ele>
        <time>2019-07-11T12:28:29.000Z</time>
      </trkpt>
      <trkpt lat="43.5464883036911487579345703125" lon="-5.93166491948068141937255859375">
        <ele>41.40000152587890625</ele>
        <time>2019-07-11T12:28:31.000Z</time>
      </trkpt>
      <trkpt lat="43.54615076445043087005615234375" lon="-5.93125663697719573974609375">
        <ele>43</ele>
        <time>2019-07-11T12:28:33.000Z</time>
      </trkpt>
      <trkpt lat="43.54566880501806735992431640625" lon="-5.93070703558623790740966796875">
        <ele>44.40000152587890625</ele>
        <time>2019-07-11T12:28:36.000Z</time>
      </trkpt>
      <trkpt lat="43.5452020168304443359375" lon="-5.93016095459461212158203125">
        <ele>43.40000152587890625</ele>
        <time>2019-07-11T12:28:39.000Z</time>
      </trkpt>
      <trkpt lat="43.5447170399129390716552734375" lon="-5.92960682697594165802001953125">
        <ele>42.799999237060546875</ele>
        <time>2019-07-11T12:28:42.000Z</time>
      </trkpt>
      <trkpt lat="43.54456205852329730987548828125" lon="-5.9294241853058338165283203125">
        <ele>42.200000762939453125</ele>
        <time>2019-07-11T12:28:43.000Z</time>
      </trkpt>
      <trkpt lat="43.5441051609814167022705078125" lon="-5.92887885868549346923828125">
        <ele>43.200000762939453125</ele>
        <time>2019-07-11T12:28:46.000Z</time>
      </trkpt>
      <trkpt lat="43.5438030771911144256591796875" lon="-5.928505696356296539306640625">
        <ele>45.59999847412109375</ele>
        <time>2019-07-11T12:28:48.000Z</time>
      </trkpt>
      <trkpt lat="43.54365781880915164947509765625" lon="-5.92830486595630645751953125">
        <ele>47.59999847412109375</ele>
        <time>2019-07-11T12:28:49.000Z</time>
      </trkpt>
      <trkpt lat="43.543381132185459136962890625" lon="-5.92787680216133594512939453125">
        <ele>49</ele>
        <time>2019-07-11T12:28:51.000Z</time>
      </trkpt>
      <trkpt lat="43.54312690906226634979248046875" lon="-5.927413366734981536865234375">
        <ele>46.200000762939453125</ele>
        <time>2019-07-11T12:28:53.000Z</time>
      </trkpt>
      <trkpt lat="43.5430098138749599456787109375" lon="-5.92716316692531108856201171875">
        <ele>43.799999237060546875</ele>
        <time>2019-07-11T12:28:54.000Z</time>
      </trkpt>
      <trkpt lat="43.54290177114307880401611328125" lon="-5.9268958680331707000732421875">
        <ele>41.59999847412109375</ele>
        <time>2019-07-11T12:28:55.000Z</time>
      </trkpt>
      <trkpt lat="43.5428066365420818328857421875" lon="-5.92661499045789241790771484375">
        <ele>40.40000152587890625</ele>
        <time>2019-07-11T12:28:56.000Z</time>
      </trkpt>
      <trkpt lat="43.5426507331430912017822265625" lon="-5.92602909542620182037353515625">
        <ele>39.799999237060546875</ele>
        <time>2019-07-11T12:28:58.000Z</time>
      </trkpt>
      <trkpt lat="43.54250438511371612548828125" lon="-5.92514161951839923858642578125">
        <ele>38.40000152587890625</ele>
        <time>2019-07-11T12:29:01.000Z</time>
      </trkpt>
      <trkpt lat="43.54246976785361766815185546875" lon="-5.92454616911709308624267578125">
        <ele>35.799999237060546875</ele>
        <time>2019-07-11T12:29:03.000Z</time>
      </trkpt>
      <trkpt lat="43.5424670018255710601806640625" lon="-5.92424609698355197906494140625">
        <ele>34.799999237060546875</ele>
        <time>2019-07-11T12:29:04.000Z</time>
      </trkpt>
      <trkpt lat="43.54252726770937442779541015625" lon="-5.9233429469168186187744140625">
        <ele>36</ele>
        <time>2019-07-11T12:29:07.000Z</time>
      </trkpt>
      <trkpt lat="43.542702533304691314697265625" lon="-5.92246209271252155303955078125">
        <ele>36.59999847412109375</ele>
        <time>2019-07-11T12:29:10.000Z</time>
      </trkpt>
      <trkpt lat="43.54278006590902805328369140625" lon="-5.9221818856894969940185546875">
        <ele>37</ele>
        <time>2019-07-11T12:29:11.000Z</time>
      </trkpt>
      <trkpt lat="43.54296815581619739532470703125" lon="-5.92164284549653530120849609375">
        <ele>38.200000762939453125</ele>
        <time>2019-07-11T12:29:13.000Z</time>
      </trkpt>
      <trkpt lat="43.54307628236711025238037109375" lon="-5.92138250358402729034423828125">
        <ele>40.200000762939453125</ele>
        <time>2019-07-11T12:29:14.000Z</time>
      </trkpt>
      <trkpt lat="43.5431901924312114715576171875" lon="-5.9211250953376293182373046875">
        <ele>43.59999847412109375</ele>
        <time>2019-07-11T12:29:15.000Z</time>
      </trkpt>
      <trkpt lat="43.54330946691334247589111328125" lon="-5.92086785472929477691650390625">
        <ele>45.200000762939453125</ele>
        <time>2019-07-11T12:29:16.000Z</time>
      </trkpt>
      <trkpt lat="43.5435670427978038787841796875" lon="-5.9203402139246463775634765625">
        <ele>42.200000762939453125</ele>
        <time>2019-07-11T12:29:18.000Z</time>
      </trkpt>
      <trkpt lat="43.5436931066215038299560546875" lon="-5.92008280567824840545654296875">
        <ele>40.59999847412109375</ele>
        <time>2019-07-11T12:29:19.000Z</time>
      </trkpt>
      <trkpt lat="43.54381556622684001922607421875" lon="-5.91983553953468799591064453125">
        <ele>39.40000152587890625</ele>
        <time>2019-07-11T12:29:20.000Z</time>
      </trkpt>
      <trkpt lat="43.543930314481258392333984375" lon="-5.9195928834378719329833984375">
        <ele>37</ele>
        <time>2019-07-11T12:29:21.000Z</time>
      </trkpt>
      <trkpt lat="43.5440381057560443878173828125" lon="-5.9193511493504047393798828125">
        <ele>35.59999847412109375</ele>
        <time>2019-07-11T12:29:22.000Z</time>
      </trkpt>
      <trkpt lat="43.5442261956632137298583984375" lon="-5.91884882189333438873291015625">
        <ele>31.3999996185302734375</ele>
        <time>2019-07-11T12:29:24.000Z</time>
      </trkpt>
      <trkpt lat="43.5443794168531894683837890625" lon="-5.91831740923225879669189453125">
        <ele>34.200000762939453125</ele>
        <time>2019-07-11T12:29:26.000Z</time>
      </trkpt>
      <trkpt lat="43.5444974340498447418212890625" lon="-5.91775598935782909393310546875">
        <ele>31</ele>
        <time>2019-07-11T12:29:28.000Z</time>
      </trkpt>
      <trkpt lat="43.54454479180276393890380859375" lon="-5.91746748425066471099853515625">
        <ele>29.799999237060546875</ele>
        <time>2019-07-11T12:29:29.000Z</time>
      </trkpt>
      <trkpt lat="43.544588796794414520263671875" lon="-5.91718199662864208221435546875">
        <ele>27.3999996185302734375</ele>
        <time>2019-07-11T12:29:30.000Z</time>
      </trkpt>
      <trkpt lat="43.54463162831962108612060546875" lon="-5.91690271161496639251708984375">
        <ele>26</ele>
        <time>2019-07-11T12:29:31.000Z</time>
      </trkpt>
      <trkpt lat="43.5446697659790515899658203125" lon="-5.9166337363421916961669921875">
        <ele>22.799999237060546875</ele>
        <time>2019-07-11T12:29:32.000Z</time>
      </trkpt>
      <trkpt lat="43.544706813991069793701171875" lon="-5.916370712220668792724609375">
        <ele>21.200000762939453125</ele>
        <time>2019-07-11T12:29:33.000Z</time>
      </trkpt>
      <trkpt lat="43.544836230576038360595703125" lon="-5.9156081266701221466064453125">
        <ele>21.200000762939453125</ele>
        <time>2019-07-11T12:29:36.000Z</time>
      </trkpt>
      <trkpt lat="43.5450234822928905487060546875" lon="-5.9149010293185710906982421875">
        <ele>23</ele>
        <time>2019-07-11T12:29:39.000Z</time>
      </trkpt>
      <trkpt lat="43.54523814283311367034912109375" lon="-5.914273224771022796630859375">
        <ele>22.200000762939453125</ele>
        <time>2019-07-11T12:29:42.000Z</time>
      </trkpt>
      <trkpt lat="43.54545556940138339996337890625" lon="-5.9136826358735561370849609375">
        <ele>23.799999237060546875</ele>
        <time>2019-07-11T12:29:45.000Z</time>
      </trkpt>
      <trkpt lat="43.54568975977599620819091796875" lon="-5.9131301008164882659912109375">
        <ele>24.3999996185302734375</ele>
        <time>2019-07-11T12:29:48.000Z</time>
      </trkpt>
      <trkpt lat="43.5459629260003566741943359375" lon="-5.91257228516042232513427734375">
        <ele>25.3999996185302734375</ele>
        <time>2019-07-11T12:29:52.000Z</time>
      </trkpt>
      <trkpt lat="43.54600609280169010162353515625" lon="-5.9124800004065036773681640625">
        <ele>26.3999996185302734375</ele>
        <time>2019-07-11T12:29:53.000Z</time>
      </trkpt>
      <trkpt lat="43.5460682027041912078857421875" lon="-5.91236055828630924224853515625">
        <ele>27.200000762939453125</ele>
        <time>2019-07-11T12:29:55.000Z</time>
      </trkpt>
      <trkpt lat="43.54609125293791294097900390625" lon="-5.91233558021485805511474609375">
        <ele>27.799999237060546875</ele>
        <time>2019-07-11T12:29:56.000Z</time>
      </trkpt>
      <trkpt lat="43.5461231879889965057373046875" lon="-5.91231630183756351470947265625">
        <ele>29.200000762939453125</ele>
        <time>2019-07-11T12:29:58.000Z</time>
      </trkpt>
      <trkpt lat="43.5461158119142055511474609375" lon="-5.9123448841273784637451171875">
        <ele>29.6000003814697265625</ele>
        <time>2019-07-11T12:30:17.000Z</time>
      </trkpt>
      <trkpt lat="43.5461158119142055511474609375" lon="-5.9123448841273784637451171875">
        <ele>29.799999237060546875</ele>
        <time>2019-07-11T12:30:29.000Z</time>
      </trkpt>
      <trkpt lat="43.5461312346160411834716796875" lon="-5.912339352071285247802734375">
        <ele>29.799999237060546875</ele>
        <time>2019-07-11T12:30:45.000Z</time>
      </trkpt>
      <trkpt lat="43.54621010832488536834716796875" lon="-5.91232786886394023895263671875">
        <ele>29.6000003814697265625</ele>
        <time>2019-07-11T12:30:48.000Z</time>
      </trkpt>
      <trkpt lat="43.5462925024330615997314453125" lon="-5.91238955967128276824951171875">
        <ele>29.3999996185302734375</ele>
        <time>2019-07-11T12:30:50.000Z</time>
      </trkpt>
      <trkpt lat="43.5463639162480831146240234375" lon="-5.91252283193171024322509765625">
        <ele>28.200000762939453125</ele>
        <time>2019-07-11T12:30:52.000Z</time>
      </trkpt>
      <trkpt lat="43.546392582356929779052734375" lon="-5.912620984017848968505859375">
        <ele>27.3999996185302734375</ele>
        <time>2019-07-11T12:30:53.000Z</time>
      </trkpt>
      <trkpt lat="43.5464618168771266937255859375" lon="-5.9128404222428798675537109375">
        <ele>25.6000003814697265625</ele>
        <time>2019-07-11T12:30:55.000Z</time>
      </trkpt>
      <trkpt lat="43.546568267047405242919921875" lon="-5.91297461651265621185302734375">
        <ele>24.799999237060546875</ele>
        <time>2019-07-11T12:30:57.000Z</time>
      </trkpt>
      <trkpt lat="43.5467015393078327178955078125" lon="-5.91299171559512615203857421875">
        <ele>24.799999237060546875</ele>
        <time>2019-07-11T12:30:59.000Z</time>
      </trkpt>
      <trkpt lat="43.5468252561986446380615234375" lon="-5.91290303505957126617431640625">
        <ele>25</ele>
        <time>2019-07-11T12:31:01.000Z</time>
      </trkpt>
      <trkpt lat="43.5470029525458812713623046875" lon="-5.91265643946826457977294921875">
        <ele>24.200000762939453125</ele>
        <time>2019-07-11T12:31:04.000Z</time>
      </trkpt>
      <trkpt lat="43.54713697917759418487548828125" lon="-5.91246147640049457550048828125">
        <ele>23</ele>
        <time>2019-07-11T12:31:06.000Z</time>
      </trkpt>
      <trkpt lat="43.54729623533785343170166015625" lon="-5.912244804203510284423828125">
        <ele>21.799999237060546875</ele>
        <time>2019-07-11T12:31:08.000Z</time>
      </trkpt>
      <trkpt lat="43.54740184731781482696533203125" lon="-5.91213382780551910400390625">
        <ele>20</ele>
        <time>2019-07-11T12:31:09.000Z</time>
      </trkpt>
      <trkpt lat="43.547643832862377166748046875" lon="-5.9119217656552791595458984375">
        <ele>17.799999237060546875</ele>
        <time>2019-07-11T12:31:11.000Z</time>
      </trkpt>
      <trkpt lat="43.54778029024600982666015625" lon="-5.91182537376880645751953125">
        <ele>16</ele>
        <time>2019-07-11T12:31:12.000Z</time>
      </trkpt>
      <trkpt lat="43.547927476465702056884765625" lon="-5.9117460809648036956787109375">
        <ele>14.3999996185302734375</ele>
        <time>2019-07-11T12:31:13.000Z</time>
      </trkpt>
      <trkpt lat="43.54808874428272247314453125" lon="-5.9116880781948566436767578125">
        <ele>13</ele>
        <time>2019-07-11T12:31:14.000Z</time>
      </trkpt>
      <trkpt lat="43.54825898073613643646240234375" lon="-5.91165329329669475555419921875">
        <ele>11.6000003814697265625</ele>
        <time>2019-07-11T12:31:15.000Z</time>
      </trkpt>
      <trkpt lat="43.54842930100858211517333984375" lon="-5.91164155863225460052490234375">
        <ele>10.3999996185302734375</ele>
        <time>2019-07-11T12:31:16.000Z</time>
      </trkpt>
      <trkpt lat="43.5488992743194103240966796875" lon="-5.91167894192039966583251953125">
        <ele>10.19999980926513671875</ele>
        <time>2019-07-11T12:31:19.000Z</time>
      </trkpt>
      <trkpt lat="43.549318201839923858642578125" lon="-5.91173862107098102569580078125">
        <ele>11.6000003814697265625</ele>
        <time>2019-07-11T12:31:22.000Z</time>
      </trkpt>
      <trkpt lat="43.54944854043424129486083984375" lon="-5.9117390401661396026611328125">
        <ele>12</ele>
        <time>2019-07-11T12:31:23.000Z</time>
      </trkpt>
      <trkpt lat="43.54968926869332790374755859375" lon="-5.91168179176747798919677734375">
        <ele>12.19999980926513671875</ele>
        <time>2019-07-11T12:31:25.000Z</time>
      </trkpt>
      <trkpt lat="43.549895547330379486083984375" lon="-5.91157324612140655517578125">
        <ele>12.80000019073486328125</ele>
        <time>2019-07-11T12:31:27.000Z</time>
      </trkpt>
      <trkpt lat="43.55010450817644596099853515625" lon="-5.9113968908786773681640625">
        <ele>14</ele>
        <time>2019-07-11T12:31:29.000Z</time>
      </trkpt>
      <trkpt lat="43.55029578320682048797607421875" lon="-5.91117560863494873046875">
        <ele>15.6000003814697265625</ele>
        <time>2019-07-11T12:31:31.000Z</time>
      </trkpt>
      <trkpt lat="43.55046241544187068939208984375" lon="-5.91095306910574436187744140625">
        <ele>16.6000003814697265625</ele>
        <time>2019-07-11T12:31:33.000Z</time>
      </trkpt>
      <trkpt lat="43.55087614618241786956787109375" lon="-5.91049055568873882293701171875">
        <ele>17.3999996185302734375</ele>
        <time>2019-07-11T12:31:38.000Z</time>
      </trkpt>
      <trkpt lat="43.55097169987857341766357421875" lon="-5.9104294516146183013916015625">
        <ele>17.6000003814697265625</ele>
        <time>2019-07-11T12:31:39.000Z</time>
      </trkpt>
      <trkpt lat="43.5510718636214733123779296875" lon="-5.91038142330944538116455078125">
        <ele>17.799999237060546875</ele>
        <time>2019-07-11T12:31:40.000Z</time>
      </trkpt>
      <trkpt lat="43.55151903815567493438720703125" lon="-5.91029710136353969573974609375">
        <ele>18.799999237060546875</ele>
        <time>2019-07-11T12:31:44.000Z</time>
      </trkpt>
      <trkpt lat="43.55199915356934070587158203125" lon="-5.91035627759993076324462890625">
        <ele>19.200000762939453125</ele>
        <time>2019-07-11T12:31:48.000Z</time>
      </trkpt>
      <trkpt lat="43.5522359423339366912841796875" lon="-5.91041880659759044647216796875">
        <ele>20.200000762939453125</ele>
        <time>2019-07-11T12:31:50.000Z</time>
      </trkpt>
      <trkpt lat="43.55268781073391437530517578125" lon="-5.9105763025581836700439453125">
        <ele>20.799999237060546875</ele>
        <time>2019-07-11T12:31:54.000Z</time>
      </trkpt>
      <trkpt lat="43.55279157869517803192138671875" lon="-5.9106329642236232757568359375">
        <ele>21.6000003814697265625</ele>
        <time>2019-07-11T12:31:55.000Z</time>
      </trkpt>
      <trkpt lat="43.552983105182647705078125" lon="-5.91080286540091037750244140625">
        <ele>21.3999996185302734375</ele>
        <time>2019-07-11T12:31:57.000Z</time>
      </trkpt>
      <trkpt lat="43.5531428642570972442626953125" lon="-5.9110654704272747039794921875">
        <ele>20.799999237060546875</ele>
        <time>2019-07-11T12:31:59.000Z</time>
      </trkpt>
      <trkpt lat="43.553253673017024993896484375" lon="-5.91140284202992916107177734375">
        <ele>19.799999237060546875</ele>
        <time>2019-07-11T12:32:01.000Z</time>
      </trkpt>
      <trkpt lat="43.55329851619899272918701171875" lon="-5.91157970018684864044189453125">
        <ele>18.799999237060546875</ele>
        <time>2019-07-11T12:32:02.000Z</time>
      </trkpt>
      <trkpt lat="43.55334377847611904144287109375" lon="-5.91175940819084644317626953125">
        <ele>17.6000003814697265625</ele>
        <time>2019-07-11T12:32:03.000Z</time>
      </trkpt>
      <trkpt lat="43.55338920839130878448486328125" lon="-5.91194808483123779296875">
        <ele>16</ele>
        <time>2019-07-11T12:32:04.000Z</time>
      </trkpt>
      <trkpt lat="43.55343514122068881988525390625" lon="-5.91214464046061038970947265625">
        <ele>14.80000019073486328125</ele>
        <time>2019-07-11T12:32:05.000Z</time>
      </trkpt>
      <trkpt lat="43.55348409153521060943603515625" lon="-5.9123472310602664947509765625">
        <ele>13.6000003814697265625</ele>
        <time>2019-07-11T12:32:06.000Z</time>
      </trkpt>
      <trkpt lat="43.55364921502768993377685546875" lon="-5.91294393874704837799072265625">
        <ele>12.80000019073486328125</ele>
        <time>2019-07-11T12:32:09.000Z</time>
      </trkpt>
      <trkpt lat="43.55385926552116870880126953125" lon="-5.9136605076491832733154296875">
        <ele>13.80000019073486328125</ele>
        <time>2019-07-11T12:32:13.000Z</time>
      </trkpt>
      <trkpt lat="43.553955741226673126220703125" lon="-5.913980193436145782470703125">
        <ele>14.80000019073486328125</ele>
        <time>2019-07-11T12:32:15.000Z</time>
      </trkpt>
      <trkpt lat="43.55419739149510860443115234375" lon="-5.9146183915436267852783203125">
        <ele>14.6000003814697265625</ele>
        <time>2019-07-11T12:32:19.000Z</time>
      </trkpt>
      <trkpt lat="43.55436913669109344482421875" lon="-5.91492257080972194671630859375">
        <ele>14.3999996185302734375</ele>
        <time>2019-07-11T12:32:22.000Z</time>
      </trkpt>
      <trkpt lat="43.55448405258357524871826171875" lon="-5.91497135348618030548095703125">
        <ele>14.6000003814697265625</ele>
        <time>2019-07-11T12:32:24.000Z</time>
      </trkpt>
      <trkpt lat="43.5546365194022655487060546875" lon="-5.91490614227950572967529296875">
        <ele>15.19999980926513671875</ele>
        <time>2019-07-11T12:32:26.000Z</time>
      </trkpt>
      <trkpt lat="43.5548182390630245208740234375" lon="-5.9147461317479610443115234375">
        <ele>15.19999980926513671875</ele>
        <time>2019-07-11T12:32:28.000Z</time>
      </trkpt>
      <trkpt lat="43.55499132536351680755615234375" lon="-5.9145080856978893280029296875">
        <ele>14.6000003814697265625</ele>
        <time>2019-07-11T12:32:30.000Z</time>
      </trkpt>
      <trkpt lat="43.5551176406443119049072265625" lon="-5.9141895733773708343505859375">
        <ele>13.3999996185302734375</ele>
        <time>2019-07-11T12:32:32.000Z</time>
      </trkpt>
      <trkpt lat="43.5551463067531585693359375" lon="-5.9138120524585247039794921875">
        <ele>12.6000003814697265625</ele>
        <time>2019-07-11T12:32:34.000Z</time>
      </trkpt>
      <trkpt lat="43.55509174056351184844970703125" lon="-5.91347568668425083160400390625">
        <ele>12.6000003814697265625</ele>
        <time>2019-07-11T12:32:36.000Z</time>
      </trkpt>
      <trkpt lat="43.5550068318843841552734375" lon="-5.91323445551097393035888671875">
        <ele>14.19999980926513671875</ele>
        <time>2019-07-11T12:32:38.000Z</time>
      </trkpt>
      <trkpt lat="43.55495394207537174224853515625" lon="-5.9131376445293426513671875">
        <ele>15.6000003814697265625</ele>
        <time>2019-07-11T12:32:39.000Z</time>
      </trkpt>
      <trkpt lat="43.5548883117735385894775390625" lon="-5.91306597925722599029541015625">
        <ele>16.6000003814697265625</ele>
        <time>2019-07-11T12:32:40.000Z</time>
      </trkpt>
      <trkpt lat="43.55474087409675121307373046875" lon="-5.91297176666557788848876953125">
        <ele>17.6000003814697265625</ele>
        <time>2019-07-11T12:32:42.000Z</time>
      </trkpt>
      <trkpt lat="43.55467197485268115997314453125" lon="-5.91291745193302631378173828125">
        <ele>17.799999237060546875</ele>
        <time>2019-07-11T12:32:43.000Z</time>
      </trkpt>
      <trkpt lat="43.55458580888807773590087890625" lon="-5.912758447229862213134765625">
        <ele>18</ele>
        <time>2019-07-11T12:32:45.000Z</time>
      </trkpt>
      <trkpt lat="43.554604165256023406982421875" lon="-5.91258385218679904937744140625">
        <ele>18</ele>
        <time>2019-07-11T12:32:47.000Z</time>
      </trkpt>
      <trkpt lat="43.55471723712980747222900390625" lon="-5.91245057992637157440185546875">
        <ele>18</ele>
        <time>2019-07-11T12:32:49.000Z</time>
      </trkpt>
      <trkpt lat="43.554900549352169036865234375" lon="-5.91239123605191707611083984375">
        <ele>17.799999237060546875</ele>
        <time>2019-07-11T12:32:51.000Z</time>
      </trkpt>
      <trkpt lat="43.555244542658329010009765625" lon="-5.9123948402702808380126953125">
        <ele>17.200000762939453125</ele>
        <time>2019-07-11T12:32:54.000Z</time>
      </trkpt>
      <trkpt lat="43.5556011088192462921142578125" lon="-5.91224153526127338409423828125">
        <ele>17</ele>
        <time>2019-07-11T12:32:57.000Z</time>
      </trkpt>
      <trkpt lat="43.555847369134426116943359375" lon="-5.912105999886989593505859375">
        <ele>16.6000003814697265625</ele>
        <time>2019-07-11T12:32:59.000Z</time>
      </trkpt>
      <trkpt lat="43.5561199486255645751953125" lon="-5.91195420362055301666259765625">
        <ele>17.799999237060546875</ele>
        <time>2019-07-11T12:33:01.000Z</time>
      </trkpt>
      <trkpt lat="43.55653175152838230133056640625" lon="-5.91173426248133182525634765625">
        <ele>18.799999237060546875</ele>
        <time>2019-07-11T12:33:04.000Z</time>
      </trkpt>
      <trkpt lat="43.5569945164024829864501953125" lon="-5.91148582287132740020751953125">
        <ele>19</ele>
        <time>2019-07-11T12:33:08.000Z</time>
      </trkpt>
      <trkpt lat="43.5574005357921123504638671875" lon="-5.91125129722058773040771484375">
        <ele>18.200000762939453125</ele>
        <time>2019-07-11T12:33:12.000Z</time>
      </trkpt>
      <trkpt lat="43.55754814110696315765380859375" lon="-5.91108382679522037506103515625">
        <ele>18.799999237060546875</ele>
        <time>2019-07-11T12:33:14.000Z</time>
      </trkpt>
      <trkpt lat="43.55765861459076404571533203125" lon="-5.91087176464498043060302734375">
        <ele>19.6000003814697265625</ele>
        <time>2019-07-11T12:33:16.000Z</time>
      </trkpt>
      <trkpt lat="43.5577254183590412139892578125" lon="-5.91077604331076145172119140625">
        <ele>20</ele>
        <time>2019-07-11T12:33:17.000Z</time>
      </trkpt>
      <trkpt lat="43.5578043758869171142578125" lon="-5.91070027090609073638916015625">
        <ele>20.200000762939453125</ele>
        <time>2019-07-11T12:33:18.000Z</time>
      </trkpt>
      <trkpt lat="43.55799011886119842529296875" lon="-5.91064763255417346954345703125">
        <ele>20.200000762939453125</ele>
        <time>2019-07-11T12:33:20.000Z</time>
      </trkpt>
      <trkpt lat="43.55836621485650539398193359375" lon="-5.9108120016753673553466796875">
        <ele>19.3999996185302734375</ele>
        <time>2019-07-11T12:33:24.000Z</time>
      </trkpt>
      <trkpt lat="43.558578193187713623046875" lon="-5.9108026139438152313232421875">
        <ele>19.6000003814697265625</ele>
        <time>2019-07-11T12:33:26.000Z</time>
      </trkpt>
      <trkpt lat="43.55892696417868137359619140625" lon="-5.91067604720592498779296875">
        <ele>19.799999237060546875</ele>
        <time>2019-07-11T12:33:29.000Z</time>
      </trkpt>
      <trkpt lat="43.5593635775148868560791015625" lon="-5.91034873388707637786865234375">
        <ele>19.200000762939453125</ele>
        <time>2019-07-11T12:33:33.000Z</time>
      </trkpt>
      <trkpt lat="43.55971385724842548370361328125" lon="-5.910066850483417510986328125">
        <ele>20.6000003814697265625</ele>
        <time>2019-07-11T12:33:38.000Z</time>
      </trkpt>
      <trkpt lat="43.55975501239299774169921875" lon="-5.91000826098024845123291015625">
        <ele>21</ele>
        <time>2019-07-11T12:33:39.000Z</time>
      </trkpt>
      <trkpt lat="43.55978426523506641387939453125" lon="-5.90994019992649555206298828125">
        <ele>21.6000003814697265625</ele>
        <time>2019-07-11T12:33:40.000Z</time>
      </trkpt>
      <trkpt lat="43.559819720685482025146484375" lon="-5.90977926738560199737548828125">
        <ele>22.3999996185302734375</ele>
        <time>2019-07-11T12:33:42.000Z</time>
      </trkpt>
      <trkpt lat="43.559838831424713134765625" lon="-5.90968958102166652679443359375">
        <ele>22.6000003814697265625</ele>
        <time>2019-07-11T12:33:43.000Z</time>
      </trkpt>
      <trkpt lat="43.559920303523540496826171875" lon="-5.90950660407543182373046875">
        <ele>22.799999237060546875</ele>
        <time>2019-07-11T12:33:45.000Z</time>
      </trkpt>
      <trkpt lat="43.56005718000233173370361328125" lon="-5.909380204975605010986328125">
        <ele>22.3999996185302734375</ele>
        <time>2019-07-11T12:33:47.000Z</time>
      </trkpt>
      <trkpt lat="43.56021408922970294952392578125" lon="-5.9093766845762729644775390625">
        <ele>22</ele>
        <time>2019-07-11T12:33:49.000Z</time>
      </trkpt>
      <trkpt lat="43.56036119163036346435546875" lon="-5.90949176810681819915771484375">
        <ele>21.799999237060546875</ele>
        <time>2019-07-11T12:33:51.000Z</time>
      </trkpt>
      <trkpt lat="43.56045180000364780426025390625" lon="-5.90971724130213260650634765625">
        <ele>21.6000003814697265625</ele>
        <time>2019-07-11T12:33:53.000Z</time>
      </trkpt>
      <trkpt lat="43.56047778390347957611083984375" lon="-5.91011487878859043121337890625">
        <ele>21.200000762939453125</ele>
        <time>2019-07-11T12:33:56.000Z</time>
      </trkpt>
      <trkpt lat="43.56054651550948619842529296875" lon="-5.91034839861094951629638671875">
        <ele>20.799999237060546875</ele>
        <time>2019-07-11T12:33:58.000Z</time>
      </trkpt>
      <trkpt lat="43.5608703084290027618408203125" lon="-5.91083873994648456573486328125">
        <ele>20.799999237060546875</ele>
        <time>2019-07-11T12:34:02.000Z</time>
      </trkpt>
      <trkpt lat="43.561282865703105926513671875" lon="-5.9114185161888599395751953125">
        <ele>21.200000762939453125</ele>
        <time>2019-07-11T12:34:06.000Z</time>
      </trkpt>
      <trkpt lat="43.56160950846970081329345703125" lon="-5.911876671016216278076171875">
        <ele>23.200000762939453125</ele>
        <time>2019-07-11T12:34:09.000Z</time>
      </trkpt>
      <trkpt lat="43.56183313764631748199462890625" lon="-5.912192165851593017578125">
        <ele>24.3999996185302734375</ele>
        <time>2019-07-11T12:34:11.000Z</time>
      </trkpt>
      <trkpt lat="43.56217042542994022369384765625" lon="-5.9126731194555759429931640625">
        <ele>25.799999237060546875</ele>
        <time>2019-07-11T12:34:14.000Z</time>
      </trkpt>
      <trkpt lat="43.5624819807708263397216796875" lon="-5.9131176955997943878173828125">
        <ele>27</ele>
        <time>2019-07-11T12:34:17.000Z</time>
      </trkpt>
      <trkpt lat="43.5627867467701435089111328125" lon="-5.91354525648057460784912109375">
        <ele>28</ele>
        <time>2019-07-11T12:34:20.000Z</time>
      </trkpt>
      <trkpt lat="43.5629832185804843902587890625" lon="-5.91381481848657131195068359375">
        <ele>26</ele>
        <time>2019-07-11T12:34:22.000Z</time>
      </trkpt>
      <trkpt lat="43.56307986192405223846435546875" lon="-5.9139471687376499176025390625">
        <ele>24.200000762939453125</ele>
        <time>2019-07-11T12:34:23.000Z</time>
      </trkpt>
      <trkpt lat="43.5631766729056835174560546875" lon="-5.9140792675316333770751953125">
        <ele>22.3999996185302734375</ele>
        <time>2019-07-11T12:34:24.000Z</time>
      </trkpt>
      <trkpt lat="43.5632732324302196502685546875" lon="-5.914212875068187713623046875">
        <ele>21.200000762939453125</ele>
        <time>2019-07-11T12:34:25.000Z</time>
      </trkpt>
      <trkpt lat="43.5634583048522472381591796875" lon="-5.91448201797902584075927734375">
        <ele>19.6000003814697265625</ele>
        <time>2019-07-11T12:34:27.000Z</time>
      </trkpt>
      <trkpt lat="43.5636333189904689788818359375" lon="-5.9147364087402820587158203125">
        <ele>17.6000003814697265625</ele>
        <time>2019-07-11T12:34:29.000Z</time>
      </trkpt>
      <trkpt lat="43.56372040696442127227783203125" lon="-5.91485803015530109405517578125">
        <ele>16.6000003814697265625</ele>
        <time>2019-07-11T12:34:30.000Z</time>
      </trkpt>
      <trkpt lat="43.5638924874365329742431640625" lon="-5.9150867722928524017333984375">
        <ele>15.6000003814697265625</ele>
        <time>2019-07-11T12:34:32.000Z</time>
      </trkpt>
      <trkpt lat="43.56407831422984600067138671875" lon="-5.9152322821319103240966796875">
        <ele>14.80000019073486328125</ele>
        <time>2019-07-11T12:34:34.000Z</time>
      </trkpt>
      <trkpt lat="43.56424544937908649444580078125" lon="-5.915362201631069183349609375">
        <ele>14.80000019073486328125</ele>
        <time>2019-07-11T12:34:36.000Z</time>
      </trkpt>
      <trkpt lat="43.564414344727993011474609375" lon="-5.915687419474124908447265625">
        <ele>15.80000019073486328125</ele>
        <time>2019-07-11T12:34:39.000Z</time>
      </trkpt>
      <trkpt lat="43.56459246017038822174072265625" lon="-5.9158153273165225982666015625">
        <ele>16.200000762939453125</ele>
        <time>2019-07-11T12:34:41.000Z</time>
      </trkpt>
      <trkpt lat="43.56510727666318416595458984375" lon="-5.9159316681325435638427734375">
        <ele>14.6000003814697265625</ele>
        <time>2019-07-11T12:34:45.000Z</time>
      </trkpt>
      <trkpt lat="43.5652637667953968048095703125" lon="-5.915950275957584381103515625">
        <ele>13.6000003814697265625</ele>
        <time>2019-07-11T12:34:46.000Z</time>
      </trkpt>
      <trkpt lat="43.5656000487506389617919921875" lon="-5.916008614003658294677734375">
        <ele>11.3999996185302734375</ele>
        <time>2019-07-11T12:34:48.000Z</time>
      </trkpt>
      <trkpt lat="43.56577112339437007904052734375" lon="-5.91604222543537616729736328125">
        <ele>9.80000019073486328125</ele>
        <time>2019-07-11T12:34:49.000Z</time>
      </trkpt>
      <trkpt lat="43.5661120153963565826416015625" lon="-5.9161113761365413665771484375">
        <ele>7.400000095367431640625</ele>
        <time>2019-07-11T12:34:51.000Z</time>
      </trkpt>
      <trkpt lat="43.56664015911519527435302734375" lon="-5.916186980903148651123046875">
        <ele>8.3999996185302734375</ele>
        <time>2019-07-11T12:34:54.000Z</time>
      </trkpt>
      <trkpt lat="43.56681031174957752227783203125" lon="-5.91617683880031108856201171875">
        <ele>10.3999996185302734375</ele>
        <time>2019-07-11T12:34:55.000Z</time>
      </trkpt>
      <trkpt lat="43.56697141192853450775146484375" lon="-5.91614197008311748504638671875">
        <ele>11.6000003814697265625</ele>
        <time>2019-07-11T12:34:56.000Z</time>
      </trkpt>
      <trkpt lat="43.56725849211215972900390625" lon="-5.91602780856192111968994140625">
        <ele>12.80000019073486328125</ele>
        <time>2019-07-11T12:34:58.000Z</time>
      </trkpt>
      <trkpt lat="43.56738723814487457275390625" lon="-5.9159464202821254730224609375">
        <ele>13.80000019073486328125</ele>
        <time>2019-07-11T12:34:59.000Z</time>
      </trkpt>
      <trkpt lat="43.56751020066440105438232421875" lon="-5.91584994457662105560302734375">
        <ele>15</ele>
        <time>2019-07-11T12:35:00.000Z</time>
      </trkpt>
      <trkpt lat="43.56762972660362720489501953125" lon="-5.91575137339532375335693359375">
        <ele>16.3999996185302734375</ele>
        <time>2019-07-11T12:35:01.000Z</time>
      </trkpt>
      <trkpt lat="43.56800590641796588897705078125" lon="-5.91545850969851016998291015625">
        <ele>17.799999237060546875</ele>
        <time>2019-07-11T12:35:04.000Z</time>
      </trkpt>
      <trkpt lat="43.56813423335552215576171875" lon="-5.91537619940936565399169921875">
        <ele>17.3999996185302734375</ele>
        <time>2019-07-11T12:35:05.000Z</time>
      </trkpt>
      <trkpt lat="43.56839130632579326629638671875" lon="-5.91533998958766460418701171875">
        <ele>16.6000003814697265625</ele>
        <time>2019-07-11T12:35:07.000Z</time>
      </trkpt>
      <trkpt lat="43.56894685886800289154052734375" lon="-5.9154696576297283172607421875">
        <ele>17</ele>
        <time>2019-07-11T12:35:11.000Z</time>
      </trkpt>
      <trkpt lat="43.569519929587841033935546875" lon="-5.91555641032755374908447265625">
        <ele>15.80000019073486328125</ele>
        <time>2019-07-11T12:35:15.000Z</time>
      </trkpt>
      <trkpt lat="43.56966200284659862518310546875" lon="-5.91557317413389682769775390625">
        <ele>15.19999980926513671875</ele>
        <time>2019-07-11T12:35:16.000Z</time>
      </trkpt>
      <trkpt lat="43.56993910856544971466064453125" lon="-5.9156138263642787933349609375">
        <ele>14.19999980926513671875</ele>
        <time>2019-07-11T12:35:18.000Z</time>
      </trkpt>
      <trkpt lat="43.570071123540401458740234375" lon="-5.9156550653278827667236328125">
        <ele>13.6000003814697265625</ele>
        <time>2019-07-11T12:35:19.000Z</time>
      </trkpt>
      <trkpt lat="43.57031084597110748291015625" lon="-5.9158327616751194000244140625">
        <ele>12.80000019073486328125</ele>
        <time>2019-07-11T12:35:21.000Z</time>
      </trkpt>
      <trkpt lat="43.570524752140045166015625" lon="-5.91611556708812713623046875">
        <ele>12.19999980926513671875</ele>
        <time>2019-07-11T12:35:23.000Z</time>
      </trkpt>
      <trkpt lat="43.5708350501954555511474609375" lon="-5.91661990620195865631103515625">
        <ele>12.3999996185302734375</ele>
        <time>2019-07-11T12:35:26.000Z</time>
      </trkpt>
      <trkpt lat="43.571048118174076080322265625" lon="-5.91694596223533153533935546875">
        <ele>11.3999996185302734375</ele>
        <time>2019-07-11T12:35:28.000Z</time>
      </trkpt>
      <trkpt lat="43.5711652971804141998291015625" lon="-5.917094908654689788818359375">
        <ele>10.80000019073486328125</ele>
        <time>2019-07-11T12:35:29.000Z</time>
      </trkpt>
      <trkpt lat="43.57128985226154327392578125" lon="-5.917217619717121124267578125">
        <ele>9.19999980926513671875</ele>
        <time>2019-07-11T12:35:30.000Z</time>
      </trkpt>
      <trkpt lat="43.57142035849392414093017578125" lon="-5.917305462062358856201171875">
        <ele>8</ele>
        <time>2019-07-11T12:35:31.000Z</time>
      </trkpt>
      <trkpt lat="43.57155715115368366241455078125" lon="-5.91735583730041980743408203125">
        <ele>6.19999980926513671875</ele>
        <time>2019-07-11T12:35:32.000Z</time>
      </trkpt>
      <trkpt lat="43.57169930823147296905517578125" lon="-5.91737109236419200897216796875">
        <ele>5.400000095367431640625</ele>
        <time>2019-07-11T12:35:33.000Z</time>
      </trkpt>
      <trkpt lat="43.571844398975372314453125" lon="-5.91736547648906707763671875">
        <ele>5</ele>
        <time>2019-07-11T12:35:34.000Z</time>
      </trkpt>
      <trkpt lat="43.57228889130055904388427734375" lon="-5.9174005128443241119384765625">
        <ele>6.80000019073486328125</ele>
        <time>2019-07-11T12:35:37.000Z</time>
      </trkpt>
      <trkpt lat="43.5725707747042179107666015625" lon="-5.91745960526168346405029296875">
        <ele>8.3999996185302734375</ele>
        <time>2019-07-11T12:35:39.000Z</time>
      </trkpt>
      <trkpt lat="43.57310813851654529571533203125" lon="-5.91748994775116443634033203125">
        <ele>9.80000019073486328125</ele>
        <time>2019-07-11T12:35:43.000Z</time>
      </trkpt>
      <trkpt lat="43.57335356064140796661376953125" lon="-5.91738081537187099456787109375">
        <ele>10.19999980926513671875</ele>
        <time>2019-07-11T12:35:45.000Z</time>
      </trkpt>
      <trkpt lat="43.5735797882080078125" lon="-5.91724435798823833465576171875">
        <ele>10.80000019073486328125</ele>
        <time>2019-07-11T12:35:47.000Z</time>
      </trkpt>
      <trkpt lat="43.5738082788884639739990234375" lon="-5.91717797331511974334716796875">
        <ele>10.80000019073486328125</ele>
        <time>2019-07-11T12:35:49.000Z</time>
      </trkpt>
      <trkpt lat="43.57402428053319454193115234375" lon="-5.917186103761196136474609375">
        <ele>11</ele>
        <time>2019-07-11T12:35:51.000Z</time>
      </trkpt>
      <trkpt lat="43.5745690204203128814697265625" lon="-5.9173052944242954254150390625">
        <ele>12.19999980926513671875</ele>
        <time>2019-07-11T12:35:56.000Z</time>
      </trkpt>
      <trkpt lat="43.57468016445636749267578125" lon="-5.9173435159027576446533203125">
        <ele>12.6000003814697265625</ele>
        <time>2019-07-11T12:35:57.000Z</time>
      </trkpt>
      <trkpt lat="43.57488158158957958221435546875" lon="-5.917497240006923675537109375">
        <ele>13.6000003814697265625</ele>
        <time>2019-07-11T12:35:59.000Z</time>
      </trkpt>
      <trkpt lat="43.5751368105411529541015625" lon="-5.91785036958754062652587890625">
        <ele>13.6000003814697265625</ele>
        <time>2019-07-11T12:36:02.000Z</time>
      </trkpt>
      <trkpt lat="43.57533219270408153533935546875" lon="-5.918033681809902191162109375">
        <ele>14.3999996185302734375</ele>
        <time>2019-07-11T12:36:04.000Z</time>
      </trkpt>
      <trkpt lat="43.57584198005497455596923828125" lon="-5.9182967059314250946044921875">
        <ele>13</ele>
        <time>2019-07-11T12:36:08.000Z</time>
      </trkpt>
      <trkpt lat="43.5759932734072208404541015625" lon="-5.918365605175495147705078125">
        <ele>12</ele>
        <time>2019-07-11T12:36:09.000Z</time>
      </trkpt>
      <trkpt lat="43.5761453211307525634765625" lon="-5.918437354266643524169921875">
        <ele>11</ele>
        <time>2019-07-11T12:36:10.000Z</time>
      </trkpt>
      <trkpt lat="43.57644950039684772491455078125" lon="-5.91858378611505031585693359375">
        <ele>9.80000019073486328125</ele>
        <time>2019-07-11T12:36:12.000Z</time>
      </trkpt>
      <trkpt lat="43.57690296135842800140380859375" lon="-5.91880582273006439208984375">
        <ele>10.6000003814697265625</ele>
        <time>2019-07-11T12:36:15.000Z</time>
      </trkpt>
      <trkpt lat="43.57706129550933837890625" lon="-5.91885888017714023590087890625">
        <ele>11</ele>
        <time>2019-07-11T12:36:16.000Z</time>
      </trkpt>
      <trkpt lat="43.5775293409824371337890625" lon="-5.91891772113740444183349609375">
        <ele>11.19999980926513671875</ele>
        <time>2019-07-11T12:36:19.000Z</time>
      </trkpt>
      <trkpt lat="43.57798372395336627960205078125" lon="-5.9188680164515972137451171875">
        <ele>11.6000003814697265625</ele>
        <time>2019-07-11T12:36:22.000Z</time>
      </trkpt>
      <trkpt lat="43.5781263001263141632080078125" lon="-5.91879953630268573760986328125">
        <ele>12.19999980926513671875</ele>
        <time>2019-07-11T12:36:23.000Z</time>
      </trkpt>
      <trkpt lat="43.5782597400248050689697265625" lon="-5.91871135868132114410400390625">
        <ele>12.3999996185302734375</ele>
        <time>2019-07-11T12:36:24.000Z</time>
      </trkpt>
      <trkpt lat="43.57874513603746891021728515625" lon="-5.91834657825529575347900390625">
        <ele>12.80000019073486328125</ele>
        <time>2019-07-11T12:36:28.000Z</time>
      </trkpt>
      <trkpt lat="43.578879497945308685302734375" lon="-5.918251611292362213134765625">
        <ele>13.19999980926513671875</ele>
        <time>2019-07-11T12:36:29.000Z</time>
      </trkpt>
      <trkpt lat="43.5791735351085662841796875" lon="-5.91816955246031284332275390625">
        <ele>13.3999996185302734375</ele>
        <time>2019-07-11T12:36:31.000Z</time>
      </trkpt>
      <trkpt lat="43.5796229727566242218017578125" lon="-5.91809579171240329742431640625">
        <ele>12.80000019073486328125</ele>
        <time>2019-07-11T12:36:34.000Z</time>
      </trkpt>
      <trkpt lat="43.579906783998012542724609375" lon="-5.91792228631675243377685546875">
        <ele>11.80000019073486328125</ele>
        <time>2019-07-11T12:36:36.000Z</time>
      </trkpt>
      <trkpt lat="43.58029344119131565093994140625" lon="-5.9174491278827190399169921875">
        <ele>11.19999980926513671875</ele>
        <time>2019-07-11T12:36:39.000Z</time>
      </trkpt>
      <trkpt lat="43.5806809365749359130859375" lon="-5.91695643961429595947265625">
        <ele>11.6000003814697265625</ele>
        <time>2019-07-11T12:36:42.000Z</time>
      </trkpt>
      <trkpt lat="43.58091973699629306793212890625" lon="-5.91667120344936847686767578125">
        <ele>13</ele>
        <time>2019-07-11T12:36:44.000Z</time>
      </trkpt>
      <trkpt lat="43.58125702477991580963134765625" lon="-5.91621288098394870758056640625">
        <ele>13.6000003814697265625</ele>
        <time>2019-07-11T12:36:47.000Z</time>
      </trkpt>
      <trkpt lat="43.58156983740627765655517578125" lon="-5.91568666510283946990966796875">
        <ele>13.6000003814697265625</ele>
        <time>2019-07-11T12:36:50.000Z</time>
      </trkpt>
      <trkpt lat="43.5816906206309795379638671875" lon="-5.915522463619709014892578125">
        <ele>13.3999996185302734375</ele>
        <time>2019-07-11T12:36:51.000Z</time>
      </trkpt>
      <trkpt lat="43.58210988342761993408203125" lon="-5.9151089005172252655029296875">
        <ele>13.19999980926513671875</ele>
        <time>2019-07-11T12:36:54.000Z</time>
      </trkpt>
      <trkpt lat="43.582387827336788177490234375" lon="-5.9148896299302577972412109375">
        <ele>12.80000019073486328125</ele>
        <time>2019-07-11T12:36:56.000Z</time>
      </trkpt>
      <trkpt lat="43.58267909847199916839599609375" lon="-5.91478326357901096343994140625">
        <ele>12.80000019073486328125</ele>
        <time>2019-07-11T12:36:58.000Z</time>
      </trkpt>
      <trkpt lat="43.5829713754355907440185546875" lon="-5.91481746174395084381103515625">
        <ele>12</ele>
        <time>2019-07-11T12:37:00.000Z</time>
      </trkpt>
      <trkpt lat="43.58311629854142665863037109375" lon="-5.91486238874495029449462890625">
        <ele>11.80000019073486328125</ele>
        <time>2019-07-11T12:37:01.000Z</time>
      </trkpt>
      <trkpt lat="43.5833995230495929718017578125" lon="-5.914964564144611358642578125">
        <ele>13</ele>
        <time>2019-07-11T12:37:03.000Z</time>
      </trkpt>
      <trkpt lat="43.58397175557911396026611328125" lon="-5.91515055857598781585693359375">
        <ele>13.3999996185302734375</ele>
        <time>2019-07-11T12:37:07.000Z</time>
      </trkpt>
      <trkpt lat="43.58410838060081005096435546875" lon="-5.91517570428550243377685546875">
        <ele>13.3999996185302734375</ele>
        <time>2019-07-11T12:37:08.000Z</time>
      </trkpt>
      <trkpt lat="43.5843555629253387451171875" lon="-5.91510596685111522674560546875">
        <ele>12.80000019073486328125</ele>
        <time>2019-07-11T12:37:10.000Z</time>
      </trkpt>
      <trkpt lat="43.5845418088138103485107421875" lon="-5.914860628545284271240234375">
        <ele>13.3999996185302734375</ele>
        <time>2019-07-11T12:37:12.000Z</time>
      </trkpt>
      <trkpt lat="43.5848304815590381622314453125" lon="-5.91436986811459064483642578125">
        <ele>14.3999996185302734375</ele>
        <time>2019-07-11T12:37:15.000Z</time>
      </trkpt>
      <trkpt lat="43.5851365886628627777099609375" lon="-5.91386125423014163970947265625">
        <ele>16.200000762939453125</ele>
        <time>2019-07-11T12:37:18.000Z</time>
      </trkpt>
      <trkpt lat="43.58523993752896785736083984375" lon="-5.913696549832820892333984375">
        <ele>17.3999996185302734375</ele>
        <time>2019-07-11T12:37:19.000Z</time>
      </trkpt>
      <trkpt lat="43.58534328639507293701171875" lon="-5.913532935082912445068359375">
        <ele>18.6000003814697265625</ele>
        <time>2019-07-11T12:37:20.000Z</time>
      </trkpt>
      <trkpt lat="43.58544814400374889373779296875" lon="-5.91336973942816257476806640625">
        <ele>20</ele>
        <time>2019-07-11T12:37:21.000Z</time>
      </trkpt>
      <trkpt lat="43.58555316925048828125" lon="-5.9132052026689052581787109375">
        <ele>21.200000762939453125</ele>
        <time>2019-07-11T12:37:22.000Z</time>
      </trkpt>
      <trkpt lat="43.58565769158303737640380859375" lon="-5.9130372293293476104736328125">
        <ele>22.3999996185302734375</ele>
        <time>2019-07-11T12:37:23.000Z</time>
      </trkpt>
      <trkpt lat="43.5859710909426212310791015625" lon="-5.91257412917912006378173828125">
        <ele>23.200000762939453125</ele>
        <time>2019-07-11T12:37:26.000Z</time>
      </trkpt>
      <trkpt lat="43.58622095547616481781005859375" lon="-5.912398360669612884521484375">
        <ele>21.799999237060546875</ele>
        <time>2019-07-11T12:37:28.000Z</time>
      </trkpt>
      <trkpt lat="43.586362861096858978271484375" lon="-5.912339687347412109375">
        <ele>21.200000762939453125</ele>
        <time>2019-07-11T12:37:29.000Z</time>
      </trkpt>
      <trkpt lat="43.586741387844085693359375" lon="-5.9122295491397380828857421875">
        <ele>22</ele>
        <time>2019-07-11T12:37:32.000Z</time>
      </trkpt>
      <trkpt lat="43.5868414677679538726806640625" lon="-5.91226391494274139404296875">
        <ele>22.6000003814697265625</ele>
        <time>2019-07-11T12:37:33.000Z</time>
      </trkpt>
      <trkpt lat="43.58693140558898448944091796875" lon="-5.9123334847390651702880859375">
        <ele>23.6000003814697265625</ele>
        <time>2019-07-11T12:37:34.000Z</time>
      </trkpt>
      <trkpt lat="43.5870121233165264129638671875" lon="-5.912422500550746917724609375">
        <ele>24</ele>
        <time>2019-07-11T12:37:35.000Z</time>
      </trkpt>
      <trkpt lat="43.5872189886868000030517578125" lon="-5.913064219057559967041015625">
        <ele>24.200000762939453125</ele>
        <time>2019-07-11T12:37:39.000Z</time>
      </trkpt>
      <trkpt lat="43.5872900672256946563720703125" lon="-5.9132112376391887664794921875">
        <ele>23.6000003814697265625</ele>
        <time>2019-07-11T12:37:40.000Z</time>
      </trkpt>
      <trkpt lat="43.5874684341251850128173828125" lon="-5.91349462978541851043701171875">
        <ele>21.6000003814697265625</ele>
        <time>2019-07-11T12:37:42.000Z</time>
      </trkpt>
      <trkpt lat="43.58757295645773410797119140625" lon="-5.9136159159243106842041015625">
        <ele>20.200000762939453125</ele>
        <time>2019-07-11T12:37:43.000Z</time>
      </trkpt>
      <trkpt lat="43.58767504803836345672607421875" lon="-5.913715660572052001953125">
        <ele>19</ele>
        <time>2019-07-11T12:37:44.000Z</time>
      </trkpt>
      <trkpt lat="43.58777361921966075897216796875" lon="-5.91378212906420230865478515625">
        <ele>18.3999996185302734375</ele>
        <time>2019-07-11T12:37:45.000Z</time>
      </trkpt>
      <trkpt lat="43.58787151984870433807373046875" lon="-5.91381934471428394317626953125">
        <ele>17.799999237060546875</ele>
        <time>2019-07-11T12:37:46.000Z</time>
      </trkpt>
      <trkpt lat="43.58796506188809871673583984375" lon="-5.9138006530702114105224609375">
        <ele>17.3999996185302734375</ele>
        <time>2019-07-11T12:37:47.000Z</time>
      </trkpt>
      <trkpt lat="43.588109649717807769775390625" lon="-5.913680456578731536865234375">
        <ele>17</ele>
        <time>2019-07-11T12:37:49.000Z</time>
      </trkpt>
      <trkpt lat="43.5882821492850780487060546875" lon="-5.9134771116077899932861328125">
        <ele>16.6000003814697265625</ele>
        <time>2019-07-11T12:37:51.000Z</time>
      </trkpt>
      <trkpt lat="43.588487841188907623291015625" lon="-5.913320370018482208251953125">
        <ele>15.80000019073486328125</ele>
        <time>2019-07-11T12:37:53.000Z</time>
      </trkpt>
      <trkpt lat="43.58859772793948650360107421875" lon="-5.91328583657741546630859375">
        <ele>15.19999980926513671875</ele>
        <time>2019-07-11T12:37:54.000Z</time>
      </trkpt>
      <trkpt lat="43.58870769850909709930419921875" lon="-5.913275443017482757568359375">
        <ele>15</ele>
        <time>2019-07-11T12:37:55.000Z</time>
      </trkpt>
      <trkpt lat="43.58922989107668399810791015625" lon="-5.9132906980812549591064453125">
        <ele>14.6000003814697265625</ele>
        <time>2019-07-11T12:37:59.000Z</time>
      </trkpt>
      <trkpt lat="43.58945385552942752838134765625" lon="-5.91328659094870090484619140625">
        <ele>14.19999980926513671875</ele>
        <time>2019-07-11T12:38:01.000Z</time>
      </trkpt>
      <trkpt lat="43.58973397873342037200927734375" lon="-5.9133131615817546844482421875">
        <ele>13.3999996185302734375</ele>
        <time>2019-07-11T12:38:04.000Z</time>
      </trkpt>
      <trkpt lat="43.58988652937114238739013671875" lon="-5.91342606581747531890869140625">
        <ele>14</ele>
        <time>2019-07-11T12:38:06.000Z</time>
      </trkpt>
      <trkpt lat="43.589987866580486297607421875" lon="-5.9136484377086162567138671875">
        <ele>14.80000019073486328125</ele>
        <time>2019-07-11T12:38:08.000Z</time>
      </trkpt>
      <trkpt lat="43.59014536254107952117919921875" lon="-5.914269872009754180908203125">
        <ele>13.6000003814697265625</ele>
        <time>2019-07-11T12:38:12.000Z</time>
      </trkpt>
      <trkpt lat="43.5901878587901592254638671875" lon="-5.914434492588043212890625">
        <ele>12</ele>
        <time>2019-07-11T12:38:13.000Z</time>
      </trkpt>
      <trkpt lat="43.59026673249900341033935546875" lon="-5.91474973596632480621337890625">
        <ele>10.19999980926513671875</ele>
        <time>2019-07-11T12:38:15.000Z</time>
      </trkpt>
      <trkpt lat="43.59044895507395267486572265625" lon="-5.9153301827609539031982421875">
        <ele>10.80000019073486328125</ele>
        <time>2019-07-11T12:38:20.000Z</time>
      </trkpt>
      <trkpt lat="43.59051886014640331268310546875" lon="-5.91549186967313289642333984375">
        <ele>11.80000019073486328125</ele>
        <time>2019-07-11T12:38:22.000Z</time>
      </trkpt>
      <trkpt lat="43.59061357565224170684814453125" lon="-5.9156051091849803924560546875">
        <ele>13.19999980926513671875</ele>
        <time>2019-07-11T12:38:24.000Z</time>
      </trkpt>
      <trkpt lat="43.59074768610298633575439453125" lon="-5.9156235493719577789306640625">
        <ele>13.80000019073486328125</ele>
        <time>2019-07-11T12:38:26.000Z</time>
      </trkpt>
      <trkpt lat="43.59127943404018878936767578125" lon="-5.91534602455794811248779296875">
        <ele>12.19999980926513671875</ele>
        <time>2019-07-11T12:38:31.000Z</time>
      </trkpt>
      <trkpt lat="43.5915373452007770538330078125" lon="-5.9152208827435970306396484375">
        <ele>10.6000003814697265625</ele>
        <time>2019-07-11T12:38:33.000Z</time>
      </trkpt>
      <trkpt lat="43.5918290354311466217041015625" lon="-5.91513781808316707611083984375">
        <ele>9.6000003814697265625</ele>
        <time>2019-07-11T12:38:35.000Z</time>
      </trkpt>
      <trkpt lat="43.5919892974197864532470703125" lon="-5.91512273065745830535888671875">
        <ele>9.3999996185302734375</ele>
        <time>2019-07-11T12:38:36.000Z</time>
      </trkpt>
      <trkpt lat="43.59232834540307521820068359375" lon="-5.91515491716563701629638671875">
        <ele>8</ele>
        <time>2019-07-11T12:38:38.000Z</time>
      </trkpt>
      <trkpt lat="43.59266814775764942169189453125" lon="-5.91525214724242687225341796875">
        <ele>6.599999904632568359375</ele>
        <time>2019-07-11T12:38:40.000Z</time>
      </trkpt>
      <trkpt lat="43.593012727797031402587890625" lon="-5.91541291214525699615478515625">
        <ele>4.80000019073486328125</ele>
        <time>2019-07-11T12:38:42.000Z</time>
      </trkpt>
      <trkpt lat="43.59356014989316463470458984375" lon="-5.91565565206110477447509765625">
        <ele>4.19999980926513671875</ele>
        <time>2019-07-11T12:38:45.000Z</time>
      </trkpt>
      <trkpt lat="43.5941035486757755279541015625" lon="-5.915733687579631805419921875">
        <ele>4.400000095367431640625</ele>
        <time>2019-07-11T12:38:48.000Z</time>
      </trkpt>
      <trkpt lat="43.5946131683886051177978515625" lon="-5.91561307199299335479736328125">
        <ele>6</ele>
        <time>2019-07-11T12:38:51.000Z</time>
      </trkpt>
      <trkpt lat="43.5947700776159763336181640625" lon="-5.91553042642772197723388671875">
        <ele>7</ele>
        <time>2019-07-11T12:38:52.000Z</time>
      </trkpt>
      <trkpt lat="43.5952587425708770751953125" lon="-5.91515709646046161651611328125">
        <ele>7.599999904632568359375</ele>
        <time>2019-07-11T12:38:56.000Z</time>
      </trkpt>
      <trkpt lat="43.595356643199920654296875" lon="-5.91507461853325366973876953125">
        <ele>8.3999996185302734375</ele>
        <time>2019-07-11T12:38:57.000Z</time>
      </trkpt>
      <trkpt lat="43.595559485256671905517578125" lon="-5.9148944914340972900390625">
        <ele>9.6000003814697265625</ele>
        <time>2019-07-11T12:38:59.000Z</time>
      </trkpt>
      <trkpt lat="43.5958982817828655242919921875" lon="-5.9145999513566493988037109375">
        <ele>10.80000019073486328125</ele>
        <time>2019-07-11T12:39:02.000Z</time>
      </trkpt>
      <trkpt lat="43.59630136750638484954833984375" lon="-5.9143159724771976470947265625">
        <ele>10.19999980926513671875</ele>
        <time>2019-07-11T12:39:05.000Z</time>
      </trkpt>
      <trkpt lat="43.59672985039651393890380859375" lon="-5.91404330916702747344970703125">
        <ele>9.6000003814697265625</ele>
        <time>2019-07-11T12:39:08.000Z</time>
      </trkpt>
      <trkpt lat="43.59716637991368770599365234375" lon="-5.91377190314233303070068359375">
        <ele>9.19999980926513671875</ele>
        <time>2019-07-11T12:39:11.000Z</time>
      </trkpt>
      <trkpt lat="43.59746687114238739013671875" lon="-5.913592614233493804931640625">
        <ele>10.6000003814697265625</ele>
        <time>2019-07-11T12:39:13.000Z</time>
      </trkpt>
      <trkpt lat="43.59774875454604625701904296875" lon="-5.91338063590228557586669921875">
        <ele>10.3999996185302734375</ele>
        <time>2019-07-11T12:39:15.000Z</time>
      </trkpt>
      <trkpt lat="43.59812811948359012603759765625" lon="-5.91293589212000370025634765625">
        <ele>11.3999996185302734375</ele>
        <time>2019-07-11T12:39:18.000Z</time>
      </trkpt>
      <trkpt lat="43.59825049526989459991455078125" lon="-5.91277445666491985321044921875">
        <ele>12</ele>
        <time>2019-07-11T12:39:19.000Z</time>
      </trkpt>
      <trkpt lat="43.5986116714775562286376953125" lon="-5.9122912399470806121826171875">
        <ele>12.80000019073486328125</ele>
        <time>2019-07-11T12:39:22.000Z</time>
      </trkpt>
      <trkpt lat="43.59872776083648204803466796875" lon="-5.9121373482048511505126953125">
        <ele>13.19999980926513671875</ele>
        <time>2019-07-11T12:39:23.000Z</time>
      </trkpt>
      <trkpt lat="43.59895708970725536346435546875" lon="-5.91183417476713657379150390625">
        <ele>15</ele>
        <time>2019-07-11T12:39:25.000Z</time>
      </trkpt>
      <trkpt lat="43.59930460341274738311767578125" lon="-5.91141792945563793182373046875">
        <ele>15.19999980926513671875</ele>
        <time>2019-07-11T12:39:28.000Z</time>
      </trkpt>
      <trkpt lat="43.59956125728785991668701171875" lon="-5.9111823141574859619140625">
        <ele>14.80000019073486328125</ele>
        <time>2019-07-11T12:39:30.000Z</time>
      </trkpt>
      <trkpt lat="43.59983392059803009033203125" lon="-5.9109558351337909698486328125">
        <ele>13.6000003814697265625</ele>
        <time>2019-07-11T12:39:32.000Z</time>
      </trkpt>
      <trkpt lat="43.59996207989752292633056640625" lon="-5.910822562873363494873046875">
        <ele>13.80000019073486328125</ele>
        <time>2019-07-11T12:39:33.000Z</time>
      </trkpt>
      <trkpt lat="43.60018604435026645660400390625" lon="-5.91049793176352977752685546875">
        <ele>14.6000003814697265625</ele>
        <time>2019-07-11T12:39:35.000Z</time>
      </trkpt>
      <trkpt lat="43.600281178951263427734375" lon="-5.91031730175018310546875">
        <ele>15.3999996185302734375</ele>
        <time>2019-07-11T12:39:36.000Z</time>
      </trkpt>
      <trkpt lat="43.600367344915866851806640625" lon="-5.9101320616900920867919921875">
        <ele>16.6000003814697265625</ele>
        <time>2019-07-11T12:39:37.000Z</time>
      </trkpt>
      <trkpt lat="43.6005133576691150665283203125" lon="-5.90973786078393459320068359375">
        <ele>17.6000003814697265625</ele>
        <time>2019-07-11T12:39:39.000Z</time>
      </trkpt>
      <trkpt lat="43.60067957080900669097900390625" lon="-5.9091067872941493988037109375">
        <ele>16</ele>
        <time>2019-07-11T12:39:42.000Z</time>
      </trkpt>
      <trkpt lat="43.60073036514222621917724609375" lon="-5.9088943898677825927734375">
        <ele>13.3999996185302734375</ele>
        <time>2019-07-11T12:39:43.000Z</time>
      </trkpt>
      <trkpt lat="43.60077227465808391571044921875" lon="-5.9086823277175426483154296875">
        <ele>12</ele>
        <time>2019-07-11T12:39:44.000Z</time>
      </trkpt>
      <trkpt lat="43.60080664046108722686767578125" lon="-5.90846858918666839599609375">
        <ele>10.6000003814697265625</ele>
        <time>2019-07-11T12:39:45.000Z</time>
      </trkpt>
      <trkpt lat="43.6008868552744388580322265625" lon="-5.90804019011557102203369140625">
        <ele>10.80000019073486328125</ele>
        <time>2019-07-11T12:39:47.000Z</time>
      </trkpt>
      <trkpt lat="43.6009475402534008026123046875" lon="-5.9078384377062320709228515625">
        <ele>12.19999980926513671875</ele>
        <time>2019-07-11T12:39:48.000Z</time>
      </trkpt>
      <trkpt lat="43.60102373175323009490966796875" lon="-5.90765026398003101348876953125">
        <ele>13</ele>
        <time>2019-07-11T12:39:49.000Z</time>
      </trkpt>
      <trkpt lat="43.60111241228878498077392578125" lon="-5.9074701368808746337890625">
        <ele>14.19999980926513671875</ele>
        <time>2019-07-11T12:39:50.000Z</time>
      </trkpt>
      <trkpt lat="43.60140569508075714111328125" lon="-5.9069345332682132720947265625">
        <ele>14.3999996185302734375</ele>
        <time>2019-07-11T12:39:53.000Z</time>
      </trkpt>
      <trkpt lat="43.6015926115214824676513671875" lon="-5.90655961073935031890869140625">
        <ele>12.3999996185302734375</ele>
        <time>2019-07-11T12:39:55.000Z</time>
      </trkpt>
      <trkpt lat="43.6017780192196369171142578125" lon="-5.90619541704654693603515625">
        <ele>11.3999996185302734375</ele>
        <time>2019-07-11T12:39:57.000Z</time>
      </trkpt>
      <trkpt lat="43.60204816795885562896728515625" lon="-5.90567163191735744476318359375">
        <ele>11.6000003814697265625</ele>
        <time>2019-07-11T12:40:00.000Z</time>
      </trkpt>
      <trkpt lat="43.60219434835016727447509765625" lon="-5.90532395057380199432373046875">
        <ele>13</ele>
        <time>2019-07-11T12:40:02.000Z</time>
      </trkpt>
      <trkpt lat="43.6022752337157726287841796875" lon="-5.9049460105597972869873046875">
        <ele>14.6000003814697265625</ele>
        <time>2019-07-11T12:40:04.000Z</time>
      </trkpt>
      <trkpt lat="43.60230146907269954681396484375" lon="-5.9047512151300907135009765625">
        <ele>15.6000003814697265625</ele>
        <time>2019-07-11T12:40:05.000Z</time>
      </trkpt>
      <trkpt lat="43.6023867130279541015625" lon="-5.90402190573513507843017578125">
        <ele>16.6000003814697265625</ele>
        <time>2019-07-11T12:40:09.000Z</time>
      </trkpt>
      <trkpt lat="43.6024059914052486419677734375" lon="-5.9038607217371463775634765625">
        <ele>15.6000003814697265625</ele>
        <time>2019-07-11T12:40:10.000Z</time>
      </trkpt>
      <trkpt lat="43.60247128643095493316650390625" lon="-5.9032277204096317291259765625">
        <ele>16.200000762939453125</ele>
        <time>2019-07-11T12:40:15.000Z</time>
      </trkpt>
      <trkpt lat="43.60247983597218990325927734375" lon="-5.9031445719301700592041015625">
        <ele>17</ele>
        <time>2019-07-11T12:40:16.000Z</time>
      </trkpt>
      <trkpt lat="43.60248939134180545806884765625" lon="-5.9030510298907756805419921875">
        <ele>18</ele>
        <time>2019-07-11T12:40:20.000Z</time>
      </trkpt>
      <trkpt lat="43.60252526588737964630126953125" lon="-5.903002917766571044921875">
        <ele>18.200000762939453125</ele>
        <time>2019-07-11T12:40:23.000Z</time>
      </trkpt>
      <trkpt lat="43.60264085233211517333984375" lon="-5.9029407240450382232666015625">
        <ele>18</ele>
        <time>2019-07-11T12:40:25.000Z</time>
      </trkpt>
      <trkpt lat="43.6031419225037097930908203125" lon="-5.902931503951549530029296875">
        <ele>17.6000003814697265625</ele>
        <time>2019-07-11T12:40:30.000Z</time>
      </trkpt>
      <trkpt lat="43.60339815728366374969482421875" lon="-5.90293519198894500732421875">
        <ele>16.799999237060546875</ele>
        <time>2019-07-11T12:40:32.000Z</time>
      </trkpt>
      <trkpt lat="43.60368934459984302520751953125" lon="-5.90295455418527126312255859375">
        <ele>14.6000003814697265625</ele>
        <time>2019-07-11T12:40:34.000Z</time>
      </trkpt>
      <trkpt lat="43.6039861477911472320556640625" lon="-5.9030922688543796539306640625">
        <ele>12.6000003814697265625</ele>
        <time>2019-07-11T12:40:36.000Z</time>
      </trkpt>
      <trkpt lat="43.60442644916474819183349609375" lon="-5.903396196663379669189453125">
        <ele>13.6000003814697265625</ele>
        <time>2019-07-11T12:40:39.000Z</time>
      </trkpt>
      <trkpt lat="43.60456441529095172882080078125" lon="-5.90348881669342517852783203125">
        <ele>15</ele>
        <time>2019-07-11T12:40:40.000Z</time>
      </trkpt>
      <trkpt lat="43.60470137558877468109130859375" lon="-5.90357447974383831024169921875">
        <ele>16.6000003814697265625</ele>
        <time>2019-07-11T12:40:41.000Z</time>
      </trkpt>
      <trkpt lat="43.604840934276580810546875" lon="-5.90364933013916015625">
        <ele>17.799999237060546875</ele>
        <time>2019-07-11T12:40:42.000Z</time>
      </trkpt>
      <trkpt lat="43.60498568974435329437255859375" lon="-5.90371705591678619384765625">
        <ele>19</ele>
        <time>2019-07-11T12:40:43.000Z</time>
      </trkpt>
      <trkpt lat="43.60527855344116687774658203125" lon="-5.9038577042520046234130859375">
        <ele>20.3999996185302734375</ele>
        <time>2019-07-11T12:40:45.000Z</time>
      </trkpt>
      <trkpt lat="43.60558432526886463165283203125" lon="-5.90400212444365024566650390625">
        <ele>21.799999237060546875</ele>
        <time>2019-07-11T12:40:47.000Z</time>
      </trkpt>
      <trkpt lat="43.60588272102177143096923828125" lon="-5.90414294041693210601806640625">
        <ele>23.3999996185302734375</ele>
        <time>2019-07-11T12:40:49.000Z</time>
      </trkpt>
      <trkpt lat="43.60625387169420719146728515625" lon="-5.9043133445084095001220703125">
        <ele>24.799999237060546875</ele>
        <time>2019-07-11T12:40:52.000Z</time>
      </trkpt>
      <trkpt lat="43.606348000466823577880859375" lon="-5.90432457625865936279296875">
        <ele>26</ele>
        <time>2019-07-11T12:40:53.000Z</time>
      </trkpt>
      <trkpt lat="43.606433160603046417236328125" lon="-5.90430655516684055328369140625">
        <ele>27.200000762939453125</ele>
        <time>2019-07-11T12:40:54.000Z</time>
      </trkpt>
      <trkpt lat="43.6065171472728252410888671875" lon="-5.90424888767302036285400390625">
        <ele>28.3999996185302734375</ele>
        <time>2019-07-11T12:40:55.000Z</time>
      </trkpt>
      <trkpt lat="43.6067152954638004302978515625" lon="-5.90412969700992107391357421875">
        <ele>29.799999237060546875</ele>
        <time>2019-07-11T12:40:57.000Z</time>
      </trkpt>
      <trkpt lat="43.60700120218098163604736328125" lon="-5.90405945666134357452392578125">
        <ele>31.3999996185302734375</ele>
        <time>2019-07-11T12:40:59.000Z</time>
      </trkpt>
      <trkpt lat="43.607147969305515289306640625" lon="-5.90400807559490203857421875">
        <ele>32.200000762939453125</ele>
        <time>2019-07-11T12:41:00.000Z</time>
      </trkpt>
      <trkpt lat="43.60728350467979907989501953125" lon="-5.903923921287059783935546875">
        <ele>32.799999237060546875</ele>
        <time>2019-07-11T12:41:01.000Z</time>
      </trkpt>
      <trkpt lat="43.6073962412774562835693359375" lon="-5.9037815965712070465087890625">
        <ele>33.40000152587890625</ele>
        <time>2019-07-11T12:41:02.000Z</time>
      </trkpt>
      <trkpt lat="43.607600592076778411865234375" lon="-5.90344657190144062042236328125">
        <ele>34.200000762939453125</ele>
        <time>2019-07-11T12:41:04.000Z</time>
      </trkpt>
      <trkpt lat="43.60777183435857295989990234375" lon="-5.9031656943261623382568359375">
        <ele>35.59999847412109375</ele>
        <time>2019-07-11T12:41:06.000Z</time>
      </trkpt>
      <trkpt lat="43.6078461818397045135498046875" lon="-5.90307173319160938262939453125">
        <ele>37</ele>
        <time>2019-07-11T12:41:07.000Z</time>
      </trkpt>
      <trkpt lat="43.60791684128344058990478515625" lon="-5.90301490388810634613037109375">
        <ele>38.799999237060546875</ele>
        <time>2019-07-11T12:41:08.000Z</time>
      </trkpt>
      <trkpt lat="43.60799848102033138275146484375" lon="-5.9029977209866046905517578125">
        <ele>40.200000762939453125</ele>
        <time>2019-07-11T12:41:09.000Z</time>
      </trkpt>
      <trkpt lat="43.60807643271982669830322265625" lon="-5.90302906930446624755859375">
        <ele>41.200000762939453125</ele>
        <time>2019-07-11T12:41:10.000Z</time>
      </trkpt>
      <trkpt lat="43.60813225619494915008544921875" lon="-5.90312437154352664947509765625">
        <ele>42</ele>
        <time>2019-07-11T12:41:11.000Z</time>
      </trkpt>
      <trkpt lat="43.6081532947719097137451171875" lon="-5.90324498713016510009765625">
        <ele>42.799999237060546875</ele>
        <time>2019-07-11T12:41:12.000Z</time>
      </trkpt>
      <trkpt lat="43.608127646148204803466796875" lon="-5.903520248830318450927734375">
        <ele>43.799999237060546875</ele>
        <time>2019-07-11T12:41:14.000Z</time>
      </trkpt>
      <trkpt lat="43.608130998909473419189453125" lon="-5.90366031043231487274169921875">
        <ele>44</ele>
        <time>2019-07-11T12:41:15.000Z</time>
      </trkpt>
      <trkpt lat="43.608160503208637237548828125" lon="-5.9037839435040950775146484375">
        <ele>44</ele>
        <time>2019-07-11T12:41:16.000Z</time>
      </trkpt>
      <trkpt lat="43.608296625316143035888671875" lon="-5.90393967926502227783203125">
        <ele>44.40000152587890625</ele>
        <time>2019-07-11T12:41:18.000Z</time>
      </trkpt>
      <trkpt lat="43.60848815180361270904541015625" lon="-5.90398653410375118255615234375">
        <ele>45</ele>
        <time>2019-07-11T12:41:20.000Z</time>
      </trkpt>
      <trkpt lat="43.60892836935818195343017578125" lon="-5.904041267931461334228515625">
        <ele>46.40000152587890625</ele>
        <time>2019-07-11T12:41:24.000Z</time>
      </trkpt>
      <trkpt lat="43.60910355113446712493896484375" lon="-5.9039599634706974029541015625">
        <ele>47.59999847412109375</ele>
        <time>2019-07-11T12:41:26.000Z</time>
      </trkpt>
      <trkpt lat="43.609161637723445892333984375" lon="-5.903862901031970977783203125">
        <ele>48.799999237060546875</ele>
        <time>2019-07-11T12:41:27.000Z</time>
      </trkpt>
      <trkpt lat="43.60920145176351070404052734375" lon="-5.903736166656017303466796875">
        <ele>49.59999847412109375</ele>
        <time>2019-07-11T12:41:28.000Z</time>
      </trkpt>
      <trkpt lat="43.6092303693294525146484375" lon="-5.90358755551278591156005859375">
        <ele>50.40000152587890625</ele>
        <time>2019-07-11T12:41:29.000Z</time>
      </trkpt>
      <trkpt lat="43.60934863798320293426513671875" lon="-5.9030632674694061279296875">
        <ele>50.799999237060546875</ele>
        <time>2019-07-11T12:41:32.000Z</time>
      </trkpt>
      <trkpt lat="43.60966019332408905029296875" lon="-5.902414508163928985595703125">
        <ele>51.200000762939453125</ele>
        <time>2019-07-11T12:41:36.000Z</time>
      </trkpt>
      <trkpt lat="43.60972967930138111114501953125" lon="-5.90226137079298496246337890625">
        <ele>51.799999237060546875</ele>
        <time>2019-07-11T12:41:37.000Z</time>
      </trkpt>
      <trkpt lat="43.60980712808668613433837890625" lon="-5.90191100724041461944580078125">
        <ele>53.59999847412109375</ele>
        <time>2019-07-11T12:41:39.000Z</time>
      </trkpt>
      <trkpt lat="43.6098016798496246337890625" lon="-5.90151336975395679473876953125">
        <ele>55.40000152587890625</ele>
        <time>2019-07-11T12:41:41.000Z</time>
      </trkpt>
      <trkpt lat="43.60978265292942523956298828125" lon="-5.9011171571910381317138671875">
        <ele>56.799999237060546875</ele>
        <time>2019-07-11T12:41:43.000Z</time>
      </trkpt>
      <trkpt lat="43.60979069955646991729736328125" lon="-5.90076201595366001129150390625">
        <ele>57</ele>
        <time>2019-07-11T12:41:45.000Z</time>
      </trkpt>
      <trkpt lat="43.60990025103092193603515625" lon="-5.9004455991089344024658203125">
        <ele>57.799999237060546875</ele>
        <time>2019-07-11T12:41:47.000Z</time>
      </trkpt>
      <trkpt lat="43.61019420437514781951904296875" lon="-5.90002642013132572174072265625">
        <ele>58.799999237060546875</ele>
        <time>2019-07-11T12:41:50.000Z</time>
      </trkpt>
      <trkpt lat="43.6103783547878265380859375" lon="-5.89974227361381053924560546875">
        <ele>60.59999847412109375</ele>
        <time>2019-07-11T12:41:52.000Z</time>
      </trkpt>
      <trkpt lat="43.61045169644057750701904296875" lon="-5.89957128278911113739013671875">
        <ele>61.799999237060546875</ele>
        <time>2019-07-11T12:41:53.000Z</time>
      </trkpt>
      <trkpt lat="43.610501401126384735107421875" lon="-5.89937916956841945648193359375">
        <ele>63</ele>
        <time>2019-07-11T12:41:54.000Z</time>
      </trkpt>
      <trkpt lat="43.6105334199965000152587890625" lon="-5.89917297475039958953857421875">
        <ele>64.1999969482421875</ele>
        <time>2019-07-11T12:41:55.000Z</time>
      </trkpt>
      <trkpt lat="43.6105870641767978668212890625" lon="-5.89875572361052036285400390625">
        <ele>65.8000030517578125</ele>
        <time>2019-07-11T12:41:57.000Z</time>
      </trkpt>
      <trkpt lat="43.61063643358647823333740234375" lon="-5.89835397899150848388671875">
        <ele>67.1999969482421875</ele>
        <time>2019-07-11T12:41:59.000Z</time>
      </trkpt>
      <trkpt lat="43.61065722070634365081787109375" lon="-5.89816354215145111083984375">
        <ele>68.59999847412109375</ele>
        <time>2019-07-11T12:42:00.000Z</time>
      </trkpt>
      <trkpt lat="43.6106742359697818756103515625" lon="-5.89798207394778728485107421875">
        <ele>70.1999969482421875</ele>
        <time>2019-07-11T12:42:01.000Z</time>
      </trkpt>
      <trkpt lat="43.610693514347076416015625" lon="-5.89780756272375583648681640625">
        <ele>72</ele>
        <time>2019-07-11T12:42:02.000Z</time>
      </trkpt>
      <trkpt lat="43.61072880215942859649658203125" lon="-5.89764310978353023529052734375">
        <ele>73.1999969482421875</ele>
        <time>2019-07-11T12:42:03.000Z</time>
      </trkpt>
      <trkpt lat="43.6108609847724437713623046875" lon="-5.897333733737468719482421875">
        <ele>74.59999847412109375</ele>
        <time>2019-07-11T12:42:05.000Z</time>
      </trkpt>
      <trkpt lat="43.61102820374071598052978515625" lon="-5.89702234603464603424072265625">
        <ele>76</ele>
        <time>2019-07-11T12:42:07.000Z</time>
      </trkpt>
      <trkpt lat="43.6111855320632457733154296875" lon="-5.89670534245669841766357421875">
        <ele>78</ele>
        <time>2019-07-11T12:42:09.000Z</time>
      </trkpt>
      <trkpt lat="43.61128133721649646759033203125" lon="-5.89635011740028858184814453125">
        <ele>79.8000030517578125</ele>
        <time>2019-07-11T12:42:11.000Z</time>
      </trkpt>
      <trkpt lat="43.611317463219165802001953125" lon="-5.89595214463770389556884765625">
        <ele>81</ele>
        <time>2019-07-11T12:42:13.000Z</time>
      </trkpt>
      <trkpt lat="43.6113370768725872039794921875" lon="-5.8957622945308685302734375">
        <ele>81.8000030517578125</ele>
        <time>2019-07-11T12:42:14.000Z</time>
      </trkpt>
      <trkpt lat="43.6113816685974597930908203125" lon="-5.8955840952694416046142578125">
        <ele>82.1999969482421875</ele>
        <time>2019-07-11T12:42:15.000Z</time>
      </trkpt>
      <trkpt lat="43.6114530824124813079833984375" lon="-5.89542006142437458038330078125">
        <ele>82.40000152587890625</ele>
        <time>2019-07-11T12:42:16.000Z</time>
      </trkpt>
      <trkpt lat="43.61172826029360294342041015625" lon="-5.89499794878065586090087890625">
        <ele>83</ele>
        <time>2019-07-11T12:42:19.000Z</time>
      </trkpt>
      <trkpt lat="43.6118306033313274383544921875" lon="-5.894903652369976043701171875">
        <ele>83.40000152587890625</ele>
        <time>2019-07-11T12:42:20.000Z</time>
      </trkpt>
      <trkpt lat="43.61194585449993610382080078125" lon="-5.894854366779327392578125">
        <ele>84.1999969482421875</ele>
        <time>2019-07-11T12:42:21.000Z</time>
      </trkpt>
      <trkpt lat="43.61207007430493831634521484375" lon="-5.89484657160937786102294921875">
        <ele>85.1999969482421875</ele>
        <time>2019-07-11T12:42:22.000Z</time>
      </trkpt>
      <trkpt lat="43.6121937073767185211181640625" lon="-5.89486953802406787872314453125">
        <ele>86.59999847412109375</ele>
        <time>2019-07-11T12:42:23.000Z</time>
      </trkpt>
      <trkpt lat="43.61230828799307346343994140625" lon="-5.89489283971488475799560546875">
        <ele>88.59999847412109375</ele>
        <time>2019-07-11T12:42:24.000Z</time>
      </trkpt>
      <trkpt lat="43.61241138540208339691162109375" lon="-5.8948910795152187347412109375">
        <ele>90.40000152587890625</ele>
        <time>2019-07-11T12:42:25.000Z</time>
      </trkpt>
      <trkpt lat="43.612502329051494598388671875" lon="-5.89485093019902706146240234375">
        <ele>92</ele>
        <time>2019-07-11T12:42:26.000Z</time>
      </trkpt>
      <trkpt lat="43.612572066485881805419921875" lon="-5.89477012865245342254638671875">
        <ele>93</ele>
        <time>2019-07-11T12:42:27.000Z</time>
      </trkpt>
      <trkpt lat="43.61264138482511043548583984375" lon="-5.89451179839670658111572265625">
        <ele>94.1999969482421875</ele>
        <time>2019-07-11T12:42:29.000Z</time>
      </trkpt>
      <trkpt lat="43.612683713436126708984375" lon="-5.8941856585443019866943359375">
        <ele>95.40000152587890625</ele>
        <time>2019-07-11T12:42:31.000Z</time>
      </trkpt>
      <trkpt lat="43.61272671259939670562744140625" lon="-5.89382314123213291168212890625">
        <ele>96.59999847412109375</ele>
        <time>2019-07-11T12:42:33.000Z</time>
      </trkpt>
      <trkpt lat="43.61278857104480266571044921875" lon="-5.89323456399142742156982421875">
        <ele>97.59999847412109375</ele>
        <time>2019-07-11T12:42:36.000Z</time>
      </trkpt>
      <trkpt lat="43.61288295127451419830322265625" lon="-5.89246158488094806671142578125">
        <ele>96.8000030517578125</ele>
        <time>2019-07-11T12:42:40.000Z</time>
      </trkpt>
      <trkpt lat="43.61293315887451171875" lon="-5.89228824712336063385009765625">
        <ele>95.59999847412109375</ele>
        <time>2019-07-11T12:42:41.000Z</time>
      </trkpt>
      <trkpt lat="43.6130774952471256256103515625" lon="-5.891936123371124267578125">
        <ele>94.1999969482421875</ele>
        <time>2019-07-11T12:42:43.000Z</time>
      </trkpt>
      <trkpt lat="43.61324840225279331207275390625" lon="-5.8915512263774871826171875">
        <ele>92</ele>
        <time>2019-07-11T12:42:45.000Z</time>
      </trkpt>
      <trkpt lat="43.61342601478099822998046875" lon="-5.89113623835146427154541015625">
        <ele>90.40000152587890625</ele>
        <time>2019-07-11T12:42:47.000Z</time>
      </trkpt>
      <trkpt lat="43.61351997591555118560791015625" lon="-5.890918560326099395751953125">
        <ele>89</ele>
        <time>2019-07-11T12:42:48.000Z</time>
      </trkpt>
      <trkpt lat="43.61361670307815074920654296875" lon="-5.890696607530117034912109375">
        <ele>87.8000030517578125</ele>
        <time>2019-07-11T12:42:49.000Z</time>
      </trkpt>
      <trkpt lat="43.613917529582977294921875" lon="-5.890011973679065704345703125">
        <ele>87.8000030517578125</ele>
        <time>2019-07-11T12:42:52.000Z</time>
      </trkpt>
      <trkpt lat="43.614229671657085418701171875" lon="-5.88928945362567901611328125">
        <ele>87</ele>
        <time>2019-07-11T12:42:55.000Z</time>
      </trkpt>
      <trkpt lat="43.61444148235023021697998046875" lon="-5.88879198767244815826416015625">
        <ele>86.1999969482421875</ele>
        <time>2019-07-11T12:42:57.000Z</time>
      </trkpt>
      <trkpt lat="43.614549525082111358642578125" lon="-5.888542793691158294677734375">
        <ele>84</ele>
        <time>2019-07-11T12:42:58.000Z</time>
      </trkpt>
      <trkpt lat="43.61466008238494396209716796875" lon="-5.88829259388148784637451171875">
        <ele>81</ele>
        <time>2019-07-11T12:42:59.000Z</time>
      </trkpt>
      <trkpt lat="43.6147719807922840118408203125" lon="-5.8880420587956905364990234375">
        <ele>77.59999847412109375</ele>
        <time>2019-07-11T12:43:00.000Z</time>
      </trkpt>
      <trkpt lat="43.61488220281898975372314453125" lon="-5.8877892605960369110107421875">
        <ele>75.1999969482421875</ele>
        <time>2019-07-11T12:43:01.000Z</time>
      </trkpt>
      <trkpt lat="43.614992089569568634033203125" lon="-5.88753520511090755462646484375">
        <ele>73.1999969482421875</ele>
        <time>2019-07-11T12:43:02.000Z</time>
      </trkpt>
      <trkpt lat="43.61510164104402065277099609375" lon="-5.88728123344480991363525390625">
        <ele>72.1999969482421875</ele>
        <time>2019-07-11T12:43:03.000Z</time>
      </trkpt>
      <trkpt lat="43.61542266793549060821533203125" lon="-5.88653624989092350006103515625">
        <ele>76</ele>
        <time>2019-07-11T12:43:06.000Z</time>
      </trkpt>
      <trkpt lat="43.61552727408707141876220703125" lon="-5.88629367761313915252685546875">
        <ele>79.1999969482421875</ele>
        <time>2019-07-11T12:43:07.000Z</time>
      </trkpt>
      <trkpt lat="43.6156328022480010986328125" lon="-5.8860515244305133819580078125">
        <ele>81</ele>
        <time>2019-07-11T12:43:08.000Z</time>
      </trkpt>
      <trkpt lat="43.615737743675708770751953125" lon="-5.8858081139624118804931640625">
        <ele>82.1999969482421875</ele>
        <time>2019-07-11T12:43:09.000Z</time>
      </trkpt>
      <trkpt lat="43.61584042198956012725830078125" lon="-5.88556227274239063262939453125">
        <ele>83.59999847412109375</ele>
        <time>2019-07-11T12:43:10.000Z</time>
      </trkpt>
      <trkpt lat="43.615945279598236083984375" lon="-5.885316766798496246337890625">
        <ele>84.8000030517578125</ele>
        <time>2019-07-11T12:43:11.000Z</time>
      </trkpt>
      <trkpt lat="43.61626773141324520111083984375" lon="-5.8845803327858448028564453125">
        <ele>85.40000152587890625</ele>
        <time>2019-07-11T12:43:14.000Z</time>
      </trkpt>
      <trkpt lat="43.61647727899253368377685546875" lon="-5.88409611023962497711181640625">
        <ele>86.1999969482421875</ele>
        <time>2019-07-11T12:43:16.000Z</time>
      </trkpt>
      <trkpt lat="43.6166726611554622650146484375" lon="-5.88364633731544017791748046875">
        <ele>84.1999969482421875</ele>
        <time>2019-07-11T12:43:18.000Z</time>
      </trkpt>
      <trkpt lat="43.6167611740529537200927734375" lon="-5.88343913666903972625732421875">
        <ele>81.8000030517578125</ele>
        <time>2019-07-11T12:43:19.000Z</time>
      </trkpt>
      <trkpt lat="43.6170022375881671905517578125" lon="-5.88288978673517704010009765625">
        <ele>82.59999847412109375</ele>
        <time>2019-07-11T12:43:22.000Z</time>
      </trkpt>
      <trkpt lat="43.61713140271604061126708984375" lon="-5.88258217088878154754638671875">
        <ele>84.40000152587890625</ele>
        <time>2019-07-11T12:43:24.000Z</time>
      </trkpt>
      <trkpt lat="43.61725109629333019256591796875" lon="-5.88234261609613895416259765625">
        <ele>85.59999847412109375</ele>
        <time>2019-07-11T12:43:26.000Z</time>
      </trkpt>
      <trkpt lat="43.61740465275943279266357421875" lon="-5.882246308028697967529296875">
        <ele>86</ele>
        <time>2019-07-11T12:43:28.000Z</time>
      </trkpt>
      <trkpt lat="43.61756022088229656219482421875" lon="-5.88233758695423603057861328125">
        <ele>85.8000030517578125</ele>
        <time>2019-07-11T12:43:30.000Z</time>
      </trkpt>
      <trkpt lat="43.6177002824842929840087890625" lon="-5.882568173110485076904296875">
        <ele>85.1999969482421875</ele>
        <time>2019-07-11T12:43:32.000Z</time>
      </trkpt>
      <trkpt lat="43.6178377456963062286376953125" lon="-5.88287495076656341552734375">
        <ele>84</ele>
        <time>2019-07-11T12:43:34.000Z</time>
      </trkpt>
      <trkpt lat="43.61790237016975879669189453125" lon="-5.88303982280194759368896484375">
        <ele>83</ele>
        <time>2019-07-11T12:43:35.000Z</time>
      </trkpt>
      <trkpt lat="43.617959953844547271728515625" lon="-5.8832016773521900177001953125">
        <ele>82</ele>
        <time>2019-07-11T12:43:36.000Z</time>
      </trkpt>
      <trkpt lat="43.6180080659687519073486328125" lon="-5.88336302898824214935302734375">
        <ele>81.1999969482421875</ele>
        <time>2019-07-11T12:43:37.000Z</time>
      </trkpt>
      <trkpt lat="43.61804301850497722625732421875" lon="-5.8835233747959136962890625">
        <ele>80.40000152587890625</ele>
        <time>2019-07-11T12:43:38.000Z</time>
      </trkpt>
      <trkpt lat="43.6180897057056427001953125" lon="-5.88383342139422893524169921875">
        <ele>79.40000152587890625</ele>
        <time>2019-07-11T12:43:40.000Z</time>
      </trkpt>
      <trkpt lat="43.618128597736358642578125" lon="-5.88411320932209491729736328125">
        <ele>78.1999969482421875</ele>
        <time>2019-07-11T12:43:42.000Z</time>
      </trkpt>
      <trkpt lat="43.618157096207141876220703125" lon="-5.8842239342629909515380859375">
        <ele>77.8000030517578125</ele>
        <time>2019-07-11T12:43:43.000Z</time>
      </trkpt>
      <trkpt lat="43.6182601936161518096923828125" lon="-5.88434371165931224822998046875">
        <ele>77.1999969482421875</ele>
        <time>2019-07-11T12:43:45.000Z</time>
      </trkpt>
      <trkpt lat="43.61839220859110355377197265625" lon="-5.884273387491703033447265625">
        <ele>77</ele>
        <time>2019-07-11T12:43:47.000Z</time>
      </trkpt>
      <trkpt lat="43.61850704066455364227294921875" lon="-5.88405453599989414215087890625">
        <ele>75.8000030517578125</ele>
        <time>2019-07-11T12:43:49.000Z</time>
      </trkpt>
      <trkpt lat="43.6186514608561992645263671875" lon="-5.88379570282995700836181640625">
        <ele>74</ele>
        <time>2019-07-11T12:43:51.000Z</time>
      </trkpt>
      <trkpt lat="43.61872966401278972625732421875" lon="-5.883687995374202728271484375">
        <ele>73</ele>
        <time>2019-07-11T12:43:52.000Z</time>
      </trkpt>
      <trkpt lat="43.61880828626453876495361328125" lon="-5.88361331261694431304931640625">
        <ele>72.1999969482421875</ele>
        <time>2019-07-11T12:43:53.000Z</time>
      </trkpt>
      <trkpt lat="43.61889126710593700408935546875" lon="-5.8835815452039241790771484375">
        <ele>71.8000030517578125</ele>
        <time>2019-07-11T12:43:54.000Z</time>
      </trkpt>
      <trkpt lat="43.619030825793743133544921875" lon="-5.8836469240486621856689453125">
        <ele>71</ele>
        <time>2019-07-11T12:43:56.000Z</time>
      </trkpt>
      <trkpt lat="43.61910031177103519439697265625" lon="-5.88384381495416164398193359375">
        <ele>70.59999847412109375</ele>
        <time>2019-07-11T12:43:58.000Z</time>
      </trkpt>
      <trkpt lat="43.61916736699640750885009765625" lon="-5.88416215963661670684814453125">
        <ele>70.40000152587890625</ele>
        <time>2019-07-11T12:44:01.000Z</time>
      </trkpt>
      <trkpt lat="43.61924565397202968597412109375" lon="-5.88426106609404087066650390625">
        <ele>70</ele>
        <time>2019-07-11T12:44:03.000Z</time>
      </trkpt>
      <trkpt lat="43.61938479356467723846435546875" lon="-5.88411471806466579437255859375">
        <ele>68.8000030517578125</ele>
        <time>2019-07-11T12:44:05.000Z</time>
      </trkpt>
      <trkpt lat="43.6195134557783603668212890625" lon="-5.88381900452077388763427734375">
        <ele>67.59999847412109375</ele>
        <time>2019-07-11T12:44:07.000Z</time>
      </trkpt>
      <trkpt lat="43.6195810139179229736328125" lon="-5.88351038284599781036376953125">
        <ele>65.8000030517578125</ele>
        <time>2019-07-11T12:44:09.000Z</time>
      </trkpt>
      <trkpt lat="43.619606830179691314697265625" lon="-5.8833874203264713287353515625">
        <ele>64.8000030517578125</ele>
        <time>2019-07-11T12:44:10.000Z</time>
      </trkpt>
      <trkpt lat="43.6197216622531414031982421875" lon="-5.88325389660894870758056640625">
        <ele>63.40000152587890625</ele>
        <time>2019-07-11T12:44:12.000Z</time>
      </trkpt>
      <trkpt lat="43.61989525146782398223876953125" lon="-5.88329077698290348052978515625">
        <ele>63</ele>
        <time>2019-07-11T12:44:14.000Z</time>
      </trkpt>
      <trkpt lat="43.62005685456097126007080078125" lon="-5.88340309448540210723876953125">
        <ele>62.40000152587890625</ele>
        <time>2019-07-11T12:44:16.000Z</time>
      </trkpt>
      <trkpt lat="43.6202007718384265899658203125" lon="-5.883362777531147003173828125">
        <ele>61.200000762939453125</ele>
        <time>2019-07-11T12:44:18.000Z</time>
      </trkpt>
      <trkpt lat="43.6202299408614635467529296875" lon="-5.88314727880060672760009765625">
        <ele>60.59999847412109375</ele>
        <time>2019-07-11T12:44:20.000Z</time>
      </trkpt>
      <trkpt lat="43.62011133693158626556396484375" lon="-5.88288961909711360931396484375">
        <ele>60.200000762939453125</ele>
        <time>2019-07-11T12:44:22.000Z</time>
      </trkpt>
      <trkpt lat="43.61993305385112762451171875" lon="-5.8825944922864437103271484375">
        <ele>59</ele>
        <time>2019-07-11T12:44:24.000Z</time>
      </trkpt>
      <trkpt lat="43.6198403500020503997802734375" lon="-5.882432721555233001708984375">
        <ele>57.799999237060546875</ele>
        <time>2019-07-11T12:44:25.000Z</time>
      </trkpt>
      <trkpt lat="43.619669862091541290283203125" lon="-5.88210524059832096099853515625">
        <ele>56.200000762939453125</ele>
        <time>2019-07-11T12:44:27.000Z</time>
      </trkpt>
      <trkpt lat="43.6195922456681728363037109375" lon="-5.88194699026644229888916015625">
        <ele>54.799999237060546875</ele>
        <time>2019-07-11T12:44:28.000Z</time>
      </trkpt>
      <trkpt lat="43.61953181214630603790283203125" lon="-5.8817931823432445526123046875">
        <ele>53</ele>
        <time>2019-07-11T12:44:29.000Z</time>
      </trkpt>
      <trkpt lat="43.61949744634330272674560546875" lon="-5.88162847794592380523681640625">
        <ele>51.40000152587890625</ele>
        <time>2019-07-11T12:44:30.000Z</time>
      </trkpt>
      <trkpt lat="43.61948269419372081756591796875" lon="-5.881451033055782318115234375">
        <ele>50.40000152587890625</ele>
        <time>2019-07-11T12:44:31.000Z</time>
      </trkpt>
      <trkpt lat="43.61947841942310333251953125" lon="-5.881268978118896484375">
        <ele>49.59999847412109375</ele>
        <time>2019-07-11T12:44:32.000Z</time>
      </trkpt>
      <trkpt lat="43.619467355310916900634765625" lon="-5.8809281699359416961669921875">
        <ele>47.799999237060546875</ele>
        <time>2019-07-11T12:44:34.000Z</time>
      </trkpt>
      <trkpt lat="43.6194041557610034942626953125" lon="-5.880608148872852325439453125">
        <ele>46.59999847412109375</ele>
        <time>2019-07-11T12:44:36.000Z</time>
      </trkpt>
      <trkpt lat="43.6193216778337955474853515625" lon="-5.8802549354732036590576171875">
        <ele>45.799999237060546875</ele>
        <time>2019-07-11T12:44:38.000Z</time>
      </trkpt>
      <trkpt lat="43.619299046695232391357421875" lon="-5.8800606429576873779296875">
        <ele>44.799999237060546875</ele>
        <time>2019-07-11T12:44:39.000Z</time>
      </trkpt>
      <trkpt lat="43.61928639002144336700439453125" lon="-5.87984983809292316436767578125">
        <ele>43.40000152587890625</ele>
        <time>2019-07-11T12:44:40.000Z</time>
      </trkpt>
      <trkpt lat="43.6192807741463184356689453125" lon="-5.87962319143116474151611328125">
        <ele>42.200000762939453125</ele>
        <time>2019-07-11T12:44:41.000Z</time>
      </trkpt>
      <trkpt lat="43.61927968449890613555908203125" lon="-5.8793872408568859100341796875">
        <ele>41.200000762939453125</ele>
        <time>2019-07-11T12:44:42.000Z</time>
      </trkpt>
      <trkpt lat="43.61929393373429775238037109375" lon="-5.87891399860382080078125">
        <ele>39.799999237060546875</ele>
        <time>2019-07-11T12:44:44.000Z</time>
      </trkpt>
      <trkpt lat="43.619306422770023345947265625" lon="-5.878686346113681793212890625">
        <ele>38.200000762939453125</ele>
        <time>2019-07-11T12:44:45.000Z</time>
      </trkpt>
      <trkpt lat="43.61933534033596515655517578125" lon="-5.87825350463390350341796875">
        <ele>35.40000152587890625</ele>
        <time>2019-07-11T12:44:47.000Z</time>
      </trkpt>
      <trkpt lat="43.61934774555265903472900390625" lon="-5.8780489861965179443359375">
        <ele>33.40000152587890625</ele>
        <time>2019-07-11T12:44:48.000Z</time>
      </trkpt>
      <trkpt lat="43.61936165951192378997802734375" lon="-5.87785712443292140960693359375">
        <ele>32.200000762939453125</ele>
        <time>2019-07-11T12:44:49.000Z</time>
      </trkpt>
      <trkpt lat="43.6193867214024066925048828125" lon="-5.87768211029469966888427734375">
        <ele>32</ele>
        <time>2019-07-11T12:44:50.000Z</time>
      </trkpt>
      <trkpt lat="43.61950314603745937347412109375" lon="-5.87738790549337863922119140625">
        <ele>32.40000152587890625</ele>
        <time>2019-07-11T12:44:52.000Z</time>
      </trkpt>
      <trkpt lat="43.61970699392259120941162109375" lon="-5.87713477201759815216064453125">
        <ele>31.799999237060546875</ele>
        <time>2019-07-11T12:44:54.000Z</time>
      </trkpt>
      <trkpt lat="43.6198276095092296600341796875" lon="-5.87703284807503223419189453125">
        <ele>31</ele>
        <time>2019-07-11T12:44:55.000Z</time>
      </trkpt>
      <trkpt lat="43.61995208077132701873779296875" lon="-5.87694835849106311798095703125">
        <ele>29.3999996185302734375</ele>
        <time>2019-07-11T12:44:56.000Z</time>
      </trkpt>
      <trkpt lat="43.62007386982440948486328125" lon="-5.87687292136251926422119140625">
        <ele>27.799999237060546875</ele>
        <time>2019-07-11T12:44:57.000Z</time>
      </trkpt>
      <trkpt lat="43.620197586715221405029296875" lon="-5.87680335156619548797607421875">
        <ele>26.3999996185302734375</ele>
        <time>2019-07-11T12:44:58.000Z</time>
      </trkpt>
      <trkpt lat="43.62042498774826526641845703125" lon="-5.87672607041895389556884765625">
        <ele>25</ele>
        <time>2019-07-11T12:45:00.000Z</time>
      </trkpt>
      <trkpt lat="43.62084760330617427825927734375" lon="-5.87678072042763233184814453125">
        <ele>23.3999996185302734375</ele>
        <time>2019-07-11T12:45:03.000Z</time>
      </trkpt>
      <trkpt lat="43.62113527022302150726318359375" lon="-5.87667762301862239837646484375">
        <ele>23</ele>
        <time>2019-07-11T12:45:05.000Z</time>
      </trkpt>
      <trkpt lat="43.6212729848921298980712890625" lon="-5.87660302408039569854736328125">
        <ele>20.200000762939453125</ele>
        <time>2019-07-11T12:45:06.000Z</time>
      </trkpt>
      <trkpt lat="43.62139846198260784149169921875" lon="-5.87653278373181819915771484375">
        <ele>18.6000003814697265625</ele>
        <time>2019-07-11T12:45:07.000Z</time>
      </trkpt>
      <trkpt lat="43.621523939073085784912109375" lon="-5.8764753676950931549072265625">
        <ele>17.200000762939453125</ele>
        <time>2019-07-11T12:45:08.000Z</time>
      </trkpt>
      <trkpt lat="43.62163533456623554229736328125" lon="-5.87641216814517974853515625">
        <ele>16.6000003814697265625</ele>
        <time>2019-07-11T12:45:09.000Z</time>
      </trkpt>
      <trkpt lat="43.621721081435680389404296875" lon="-5.87633304297924041748046875">
        <ele>16.200000762939453125</ele>
        <time>2019-07-11T12:45:10.000Z</time>
      </trkpt>
      <trkpt lat="43.6217779107391834259033203125" lon="-5.87623790837824344635009765625">
        <ele>16.200000762939453125</ele>
        <time>2019-07-11T12:45:11.000Z</time>
      </trkpt>
      <trkpt lat="43.6218010447919368743896484375" lon="-5.87604177184402942657470703125">
        <ele>17.3999996185302734375</ele>
        <time>2019-07-11T12:45:13.000Z</time>
      </trkpt>
      <trkpt lat="43.62175033427774906158447265625" lon="-5.8758490718901157379150390625">
        <ele>18.6000003814697265625</ele>
        <time>2019-07-11T12:45:15.000Z</time>
      </trkpt>
      <trkpt lat="43.62173440866172313690185546875" lon="-5.8757394365966320037841796875">
        <ele>18.799999237060546875</ele>
        <time>2019-07-11T12:45:16.000Z</time>
      </trkpt>
      <trkpt lat="43.62179853022098541259765625" lon="-5.8755540288984775543212890625">
        <ele>19</ele>
        <time>2019-07-11T12:45:18.000Z</time>
      </trkpt>
      <trkpt lat="43.6219628155231475830078125" lon="-5.875462330877780914306640625">
        <ele>19.200000762939453125</ele>
        <time>2019-07-11T12:45:20.000Z</time>
      </trkpt>
      <trkpt lat="43.62218166701495647430419921875" lon="-5.8753528632223606109619140625">
        <ele>19.200000762939453125</ele>
        <time>2019-07-11T12:45:22.000Z</time>
      </trkpt>
      <trkpt lat="43.62262926064431667327880859375" lon="-5.874983556568622589111328125">
        <ele>19</ele>
        <time>2019-07-11T12:45:26.000Z</time>
      </trkpt>
      <trkpt lat="43.62303410656750202178955078125" lon="-5.87462657131254673004150390625">
        <ele>19.200000762939453125</ele>
        <time>2019-07-11T12:45:30.000Z</time>
      </trkpt>
      <trkpt lat="43.62331406213343143463134765625" lon="-5.8743768744170665740966796875">
        <ele>18.799999237060546875</ele>
        <time>2019-07-11T12:45:33.000Z</time>
      </trkpt>
      <trkpt lat="43.623415566980838775634765625" lon="-5.8741770498454570770263671875">
        <ele>19</ele>
        <time>2019-07-11T12:45:35.000Z</time>
      </trkpt>
      <trkpt lat="43.62352143041789531707763671875" lon="-5.87371227331459522247314453125">
        <ele>19</ele>
        <time>2019-07-11T12:45:38.000Z</time>
      </trkpt>
      <trkpt lat="43.62373374402523040771484375" lon="-5.8732342533767223358154296875">
        <ele>19.3999996185302734375</ele>
        <time>2019-07-11T12:45:41.000Z</time>
      </trkpt>
      <trkpt lat="43.6237801797688007354736328125" lon="-5.87306854315102100372314453125">
        <ele>19.6000003814697265625</ele>
        <time>2019-07-11T12:45:42.000Z</time>
      </trkpt>
      <trkpt lat="43.62380079925060272216796875" lon="-5.872889421880245208740234375">
        <ele>19.799999237060546875</ele>
        <time>2019-07-11T12:45:43.000Z</time>
      </trkpt>
      <trkpt lat="43.62376324832439422607421875" lon="-5.87251030839979648590087890625">
        <ele>21</ele>
        <time>2019-07-11T12:45:45.000Z</time>
      </trkpt>
      <trkpt lat="43.62356099300086498260498046875" lon="-5.87182047776877880096435546875">
        <ele>21.799999237060546875</ele>
        <time>2019-07-11T12:45:49.000Z</time>
      </trkpt>
      <trkpt lat="43.62348295748233795166015625" lon="-5.871663652360439300537109375">
        <ele>22.200000762939453125</ele>
        <time>2019-07-11T12:45:50.000Z</time>
      </trkpt>
      <trkpt lat="43.62308464944362640380859375" lon="-5.87112595327198505401611328125">
        <ele>23</ele>
        <time>2019-07-11T12:45:54.000Z</time>
      </trkpt>
      <trkpt lat="43.62297627143561840057373046875" lon="-5.87101019918918609619140625">
        <ele>23.200000762939453125</ele>
        <time>2019-07-11T12:45:55.000Z</time>
      </trkpt>
      <trkpt lat="43.62275540828704833984375" lon="-5.87077726610004901885986328125">
        <ele>23.200000762939453125</ele>
        <time>2019-07-11T12:45:57.000Z</time>
      </trkpt>
      <trkpt lat="43.6225996725261211395263671875" lon="-5.870456658303737640380859375">
        <ele>23</ele>
        <time>2019-07-11T12:45:59.000Z</time>
      </trkpt>
      <trkpt lat="43.62235953100025653839111328125" lon="-5.86972198449075222015380859375">
        <ele>22.200000762939453125</ele>
        <time>2019-07-11T12:46:03.000Z</time>
      </trkpt>
      <trkpt lat="43.62225358374416828155517578125" lon="-5.86911211721599102020263671875">
        <ele>22.200000762939453125</ele>
        <time>2019-07-11T12:46:06.000Z</time>
      </trkpt>
      <trkpt lat="43.622149564325809478759765625" lon="-5.868477523326873779296875">
        <ele>22.799999237060546875</ele>
        <time>2019-07-11T12:46:09.000Z</time>
      </trkpt>
      <trkpt lat="43.62207882106304168701171875" lon="-5.86796765215694904327392578125">
        <ele>24.6000003814697265625</ele>
        <time>2019-07-11T12:46:12.000Z</time>
      </trkpt>
      <trkpt lat="43.622076809406280517578125" lon="-5.86783169768750667572021484375">
        <ele>26.200000762939453125</ele>
        <time>2019-07-11T12:46:13.000Z</time>
      </trkpt>
      <trkpt lat="43.62210505641996860504150390625" lon="-5.86771200411021709442138671875">
        <ele>27.6000003814697265625</ele>
        <time>2019-07-11T12:46:14.000Z</time>
      </trkpt>
      <trkpt lat="43.62216708250343799591064453125" lon="-5.867615528404712677001953125">
        <ele>28.200000762939453125</ele>
        <time>2019-07-11T12:46:15.000Z</time>
      </trkpt>
      <trkpt lat="43.62225450575351715087890625" lon="-5.86754956282675266265869140625">
        <ele>29</ele>
        <time>2019-07-11T12:46:16.000Z</time>
      </trkpt>
      <trkpt lat="43.62235131673514842987060546875" lon="-5.86750513873994350433349609375">
        <ele>29.3999996185302734375</ele>
        <time>2019-07-11T12:46:17.000Z</time>
      </trkpt>
      <trkpt lat="43.622543513774871826171875" lon="-5.8674095012247562408447265625">
        <ele>29.799999237060546875</ele>
        <time>2019-07-11T12:46:19.000Z</time>
      </trkpt>
      <trkpt lat="43.62269966863095760345458984375" lon="-5.86723096668720245361328125">
        <ele>30.200000762939453125</ele>
        <time>2019-07-11T12:46:21.000Z</time>
      </trkpt>
      <trkpt lat="43.62277812324464321136474609375" lon="-5.8669337444007396697998046875">
        <ele>30.6000003814697265625</ele>
        <time>2019-07-11T12:46:23.000Z</time>
      </trkpt>
      <trkpt lat="43.622867725789546966552734375" lon="-5.86616738699376583099365234375">
        <ele>30.200000762939453125</ele>
        <time>2019-07-11T12:46:27.000Z</time>
      </trkpt>
      <trkpt lat="43.62295447848737239837646484375" lon="-5.8653726987540721893310546875">
        <ele>30.200000762939453125</ele>
        <time>2019-07-11T12:46:31.000Z</time>
      </trkpt>
      <trkpt lat="43.623034693300724029541015625" lon="-5.86465311236679553985595703125">
        <ele>30.6000003814697265625</ele>
        <time>2019-07-11T12:46:35.000Z</time>
      </trkpt>
      <trkpt lat="43.62308439798653125762939453125" lon="-5.86421607993543148040771484375">
        <ele>31.200000762939453125</ele>
        <time>2019-07-11T12:46:38.000Z</time>
      </trkpt>
      <trkpt lat="43.6231019161641597747802734375" lon="-5.8640934526920318603515625">
        <ele>31.6000003814697265625</ele>
        <time>2019-07-11T12:46:39.000Z</time>
      </trkpt>
      <trkpt lat="43.62317693419754505157470703125" lon="-5.86389455012977123260498046875">
        <ele>32.40000152587890625</ele>
        <time>2019-07-11T12:46:41.000Z</time>
      </trkpt>
      <trkpt lat="43.62332931719720363616943359375" lon="-5.86378290317952632904052734375">
        <ele>33.59999847412109375</ele>
        <time>2019-07-11T12:46:43.000Z</time>
      </trkpt>
      <trkpt lat="43.623627126216888427734375" lon="-5.863684080541133880615234375">
        <ele>34.799999237060546875</ele>
        <time>2019-07-11T12:46:46.000Z</time>
      </trkpt>
      <trkpt lat="43.6240577884018421173095703125" lon="-5.8635347150266170501708984375">
        <ele>33.200000762939453125</ele>
        <time>2019-07-11T12:46:50.000Z</time>
      </trkpt>
      <trkpt lat="43.62431268207728862762451171875" lon="-5.8634475432336330413818359375">
        <ele>32</ele>
        <time>2019-07-11T12:46:52.000Z</time>
      </trkpt>
      <trkpt lat="43.62459297291934490203857421875" lon="-5.86334553547203540802001953125">
        <ele>30.799999237060546875</ele>
        <time>2019-07-11T12:46:54.000Z</time>
      </trkpt>
      <trkpt lat="43.624889440834522247314453125" lon="-5.86323875002562999725341796875">
        <ele>29.200000762939453125</ele>
        <time>2019-07-11T12:46:56.000Z</time>
      </trkpt>
      <trkpt lat="43.62517551518976688385009765625" lon="-5.8631189726293087005615234375">
        <ele>28.200000762939453125</ele>
        <time>2019-07-11T12:46:58.000Z</time>
      </trkpt>
      <trkpt lat="43.6254069395363330841064453125" lon="-5.8629090897738933563232421875">
        <ele>29.200000762939453125</ele>
        <time>2019-07-11T12:47:00.000Z</time>
      </trkpt>
      <trkpt lat="43.6255946941673755645751953125" lon="-5.86259652860462665557861328125">
        <ele>31</ele>
        <time>2019-07-11T12:47:02.000Z</time>
      </trkpt>
      <trkpt lat="43.62581287510693073272705078125" lon="-5.86227533407509326934814453125">
        <ele>32.59999847412109375</ele>
        <time>2019-07-11T12:47:04.000Z</time>
      </trkpt>
      <trkpt lat="43.62624018453061580657958984375" lon="-5.8618807978928089141845703125">
        <ele>33.200000762939453125</ele>
        <time>2019-07-11T12:47:07.000Z</time>
      </trkpt>
      <trkpt lat="43.62638267688453197479248046875" lon="-5.86173688061535358428955078125">
        <ele>32.799999237060546875</ele>
        <time>2019-07-11T12:47:08.000Z</time>
      </trkpt>
      <trkpt lat="43.62676572985947132110595703125" lon="-5.8612545020878314971923828125">
        <ele>32.799999237060546875</ele>
        <time>2019-07-11T12:47:11.000Z</time>
      </trkpt>
      <trkpt lat="43.62687100656330585479736328125" lon="-5.86108242161571979522705078125">
        <ele>33.200000762939453125</ele>
        <time>2019-07-11T12:47:12.000Z</time>
      </trkpt>
      <trkpt lat="43.62695507705211639404296875" lon="-5.8609031327068805694580078125">
        <ele>34</ele>
        <time>2019-07-11T12:47:13.000Z</time>
      </trkpt>
      <trkpt lat="43.6270142532885074615478515625" lon="-5.86071847938001155853271484375">
        <ele>35</ele>
        <time>2019-07-11T12:47:14.000Z</time>
      </trkpt>
      <trkpt lat="43.6270504631102085113525390625" lon="-5.86052200756967067718505859375">
        <ele>36</ele>
        <time>2019-07-11T12:47:15.000Z</time>
      </trkpt>
      <trkpt lat="43.62706370651721954345703125" lon="-5.86030541919171810150146484375">
        <ele>36.59999847412109375</ele>
        <time>2019-07-11T12:47:16.000Z</time>
      </trkpt>
      <trkpt lat="43.62705557607114315032958984375" lon="-5.85957451723515987396240234375">
        <ele>36.200000762939453125</ele>
        <time>2019-07-11T12:47:19.000Z</time>
      </trkpt>
      <trkpt lat="43.6270521394908428192138671875" lon="-5.85910781286656856536865234375">
        <ele>34</ele>
        <time>2019-07-11T12:47:21.000Z</time>
      </trkpt>
      <trkpt lat="43.62705440260469913482666015625" lon="-5.8587312139570713043212890625">
        <ele>32.799999237060546875</ele>
        <time>2019-07-11T12:47:23.000Z</time>
      </trkpt>
      <trkpt lat="43.62706596963107585906982421875" lon="-5.858581848442554473876953125">
        <ele>32.59999847412109375</ele>
        <time>2019-07-11T12:47:24.000Z</time>
      </trkpt>
      <trkpt lat="43.62714794464409351348876953125" lon="-5.858356542885303497314453125">
        <ele>35.200000762939453125</ele>
        <time>2019-07-11T12:47:26.000Z</time>
      </trkpt>
      <trkpt lat="43.62722706981003284454345703125" lon="-5.8582799322903156280517578125">
        <ele>36.799999237060546875</ele>
        <time>2019-07-11T12:47:27.000Z</time>
      </trkpt>
      <trkpt lat="43.62744550220668315887451171875" lon="-5.8581263758242130279541015625">
        <ele>38</ele>
        <time>2019-07-11T12:47:29.000Z</time>
      </trkpt>
      <trkpt lat="43.6279456503689289093017578125" lon="-5.85776335559785366058349609375">
        <ele>36.799999237060546875</ele>
        <time>2019-07-11T12:47:33.000Z</time>
      </trkpt>
      <trkpt lat="43.62832509912550449371337890625" lon="-5.85745029151439666748046875">
        <ele>36.799999237060546875</ele>
        <time>2019-07-11T12:47:36.000Z</time>
      </trkpt>
      <trkpt lat="43.62849776633083820343017578125" lon="-5.85713571868836879730224609375">
        <ele>37.200000762939453125</ele>
        <time>2019-07-11T12:47:38.000Z</time>
      </trkpt>
      <trkpt lat="43.62854185514152050018310546875" lon="-5.8569368161261081695556640625">
        <ele>38</ele>
        <time>2019-07-11T12:47:39.000Z</time>
      </trkpt>
      <trkpt lat="43.62855694256722927093505859375" lon="-5.85671980865299701690673828125">
        <ele>39</ele>
        <time>2019-07-11T12:47:40.000Z</time>
      </trkpt>
      <trkpt lat="43.62855367362499237060546875" lon="-5.85649140179157257080078125">
        <ele>40.200000762939453125</ele>
        <time>2019-07-11T12:47:41.000Z</time>
      </trkpt>
      <trkpt lat="43.62854872830212116241455078125" lon="-5.8562535233795642852783203125">
        <ele>41.40000152587890625</ele>
        <time>2019-07-11T12:47:42.000Z</time>
      </trkpt>
      <trkpt lat="43.6285313777625560760498046875" lon="-5.85548733361065387725830078125">
        <ele>41.799999237060546875</ele>
        <time>2019-07-11T12:47:45.000Z</time>
      </trkpt>
      <trkpt lat="43.6285072378814220428466796875" lon="-5.8546733669936656951904296875">
        <ele>41.799999237060546875</ele>
        <time>2019-07-11T12:47:48.000Z</time>
      </trkpt>
      <trkpt lat="43.62848703749477863311767578125" lon="-5.853861831128597259521484375">
        <ele>41.799999237060546875</ele>
        <time>2019-07-11T12:47:51.000Z</time>
      </trkpt>
      <trkpt lat="43.62847664393484592437744140625" lon="-5.85362671874463558197021484375">
        <ele>42.59999847412109375</ele>
        <time>2019-07-11T12:47:52.000Z</time>
      </trkpt>
      <trkpt lat="43.62846842966973781585693359375" lon="-5.85342085920274257659912109375">
        <ele>44.40000152587890625</ele>
        <time>2019-07-11T12:47:53.000Z</time>
      </trkpt>
      <trkpt lat="43.62846490927040576934814453125" lon="-5.85324835963547229766845703125">
        <ele>46.40000152587890625</ele>
        <time>2019-07-11T12:47:54.000Z</time>
      </trkpt>
      <trkpt lat="43.628472872078418731689453125" lon="-5.8531129918992519378662109375">
        <ele>48</ele>
        <time>2019-07-11T12:47:55.000Z</time>
      </trkpt>
      <trkpt lat="43.6285005323588848114013671875" lon="-5.85301433689892292022705078125">
        <ele>50.200000762939453125</ele>
        <time>2019-07-11T12:47:56.000Z</time>
      </trkpt>
      <trkpt lat="43.6285508237779140472412109375" lon="-5.8529515564441680908203125">
        <ele>53.200000762939453125</ele>
        <time>2019-07-11T12:47:57.000Z</time>
      </trkpt>
      <trkpt lat="43.62862064503133296966552734375" lon="-5.85293537937104701995849609375">
        <ele>55.59999847412109375</ele>
        <time>2019-07-11T12:47:58.000Z</time>
      </trkpt>
      <trkpt lat="43.6287070624530315399169921875" lon="-5.85295750759541988372802734375">
        <ele>57.200000762939453125</ele>
        <time>2019-07-11T12:47:59.000Z</time>
      </trkpt>
      <trkpt lat="43.62880638800561428070068359375" lon="-5.85299539379775524139404296875">
        <ele>58.40000152587890625</ele>
        <time>2019-07-11T12:48:00.000Z</time>
      </trkpt>
      <trkpt lat="43.6291663907468318939208984375" lon="-5.85318298079073429107666015625">
        <ele>58.799999237060546875</ele>
        <time>2019-07-11T12:48:03.000Z</time>
      </trkpt>
      <trkpt lat="43.629557155072689056396484375" lon="-5.853545665740966796875">
        <ele>58.40000152587890625</ele>
        <time>2019-07-11T12:48:06.000Z</time>
      </trkpt>
      <trkpt lat="43.6298238672316074371337890625" lon="-5.8538023196160793304443359375">
        <ele>59.59999847412109375</ele>
        <time>2019-07-11T12:48:08.000Z</time>
      </trkpt>
      <trkpt lat="43.62995957024395465850830078125" lon="-5.8539364300668239593505859375">
        <ele>61</ele>
        <time>2019-07-11T12:48:09.000Z</time>
      </trkpt>
      <trkpt lat="43.63009317778050899505615234375" lon="-5.85407674312591552734375">
        <ele>62.200000762939453125</ele>
        <time>2019-07-11T12:48:10.000Z</time>
      </trkpt>
      <trkpt lat="43.630216978490352630615234375" lon="-5.85423625074326992034912109375">
        <ele>63.40000152587890625</ele>
        <time>2019-07-11T12:48:11.000Z</time>
      </trkpt>
      <trkpt lat="43.630493581295013427734375" lon="-5.85479565896093845367431640625">
        <ele>64.59999847412109375</ele>
        <time>2019-07-11T12:48:14.000Z</time>
      </trkpt>
      <trkpt lat="43.63069483079016208648681640625" lon="-5.85525196976959705352783203125">
        <ele>66.1999969482421875</ele>
        <time>2019-07-11T12:48:17.000Z</time>
      </trkpt>
      <trkpt lat="43.63077395595610141754150390625" lon="-5.85537333972752094268798828125">
        <ele>67.1999969482421875</ele>
        <time>2019-07-11T12:48:18.000Z</time>
      </trkpt>
      <trkpt lat="43.630862049758434295654296875" lon="-5.85547626949846744537353515625">
        <ele>69.40000152587890625</ele>
        <time>2019-07-11T12:48:19.000Z</time>
      </trkpt>
      <trkpt lat="43.63094712607562541961669921875" lon="-5.8555561490356922149658203125">
        <ele>71.1999969482421875</ele>
        <time>2019-07-11T12:48:20.000Z</time>
      </trkpt>
      <trkpt lat="43.63102675415575504302978515625" lon="-5.855607278645038604736328125">
        <ele>72.8000030517578125</ele>
        <time>2019-07-11T12:48:21.000Z</time>
      </trkpt>
      <trkpt lat="43.63110244274139404296875" lon="-5.85562295280396938323974609375">
        <ele>74.40000152587890625</ele>
        <time>2019-07-11T12:48:22.000Z</time>
      </trkpt>
      <trkpt lat="43.63117394037544727325439453125" lon="-5.8555987291038036346435546875">
        <ele>75.8000030517578125</ele>
        <time>2019-07-11T12:48:23.000Z</time>
      </trkpt>
      <trkpt lat="43.63124267198145389556884765625" lon="-5.85553712211549282073974609375">
        <ele>77.40000152587890625</ele>
        <time>2019-07-11T12:48:24.000Z</time>
      </trkpt>
      <trkpt lat="43.63131006248295307159423828125" lon="-5.8554491959512233734130859375">
        <ele>78.1999969482421875</ele>
        <time>2019-07-11T12:48:25.000Z</time>
      </trkpt>
      <trkpt lat="43.63138264976441860198974609375" lon="-5.85534819401800632476806640625">
        <ele>78.8000030517578125</ele>
        <time>2019-07-11T12:48:26.000Z</time>
      </trkpt>
      <trkpt lat="43.63178280182182788848876953125" lon="-5.8549543283879756927490234375">
        <ele>79.59999847412109375</ele>
        <time>2019-07-11T12:48:30.000Z</time>
      </trkpt>
      <trkpt lat="43.632036186754703521728515625" lon="-5.85481292568147182464599609375">
        <ele>80</ele>
        <time>2019-07-11T12:48:32.000Z</time>
      </trkpt>
      <trkpt lat="43.63216769881546497344970703125" lon="-5.8547689206898212432861328125">
        <ele>80.59999847412109375</ele>
        <time>2019-07-11T12:48:33.000Z</time>
      </trkpt>
      <trkpt lat="43.63230247981846332550048828125" lon="-5.854757688939571380615234375">
        <ele>81.59999847412109375</ele>
        <time>2019-07-11T12:48:34.000Z</time>
      </trkpt>
      <trkpt lat="43.6324406974017620086669921875" lon="-5.8547850139439105987548828125">
        <ele>82.40000152587890625</ele>
        <time>2019-07-11T12:48:35.000Z</time>
      </trkpt>
      <trkpt lat="43.63257824443280696868896484375" lon="-5.85484050214290618896484375">
        <ele>83.40000152587890625</ele>
        <time>2019-07-11T12:48:36.000Z</time>
      </trkpt>
      <trkpt lat="43.63284763880074024200439453125" lon="-5.85497285239398479461669921875">
        <ele>85.1999969482421875</ele>
        <time>2019-07-11T12:48:38.000Z</time>
      </trkpt>
      <trkpt lat="43.63297001458704471588134765625" lon="-5.8550451882183551788330078125">
        <ele>85.8000030517578125</ele>
        <time>2019-07-11T12:48:39.000Z</time>
      </trkpt>
      <trkpt lat="43.63307294435799121856689453125" lon="-5.855136215686798095703125">
        <ele>86.59999847412109375</ele>
        <time>2019-07-11T12:48:40.000Z</time>
      </trkpt>
      <trkpt lat="43.633154332637786865234375" lon="-5.85525146685540676116943359375">
        <ele>87.59999847412109375</ele>
        <time>2019-07-11T12:48:41.000Z</time>
      </trkpt>
      <trkpt lat="43.63321602344512939453125" lon="-5.85539144463837146759033203125">
        <ele>88.40000152587890625</ele>
        <time>2019-07-11T12:48:42.000Z</time>
      </trkpt>
      <trkpt lat="43.63331266678869724273681640625" lon="-5.85567559115588665008544921875">
        <ele>89.8000030517578125</ele>
        <time>2019-07-11T12:48:44.000Z</time>
      </trkpt>
      <trkpt lat="43.63336865790188312530517578125" lon="-5.85580148734152317047119140625">
        <ele>90.1999969482421875</ele>
        <time>2019-07-11T12:48:45.000Z</time>
      </trkpt>
      <trkpt lat="43.63352783024311065673828125" lon="-5.85601706989109516143798828125">
        <ele>91.40000152587890625</ele>
        <time>2019-07-11T12:48:47.000Z</time>
      </trkpt>
      <trkpt lat="43.6337294988334178924560546875" lon="-5.85619426332414150238037109375">
        <ele>92.8000030517578125</ele>
        <time>2019-07-11T12:48:49.000Z</time>
      </trkpt>
      <trkpt lat="43.63394214771687984466552734375" lon="-5.85637631826102733612060546875">
        <ele>95</ele>
        <time>2019-07-11T12:48:51.000Z</time>
      </trkpt>
      <trkpt lat="43.63404172472655773162841796875" lon="-5.85646181367337703704833984375">
        <ele>97</ele>
        <time>2019-07-11T12:48:52.000Z</time>
      </trkpt>
      <trkpt lat="43.634138368070125579833984375" lon="-5.85652937181293964385986328125">
        <ele>98.59999847412109375</ele>
        <time>2019-07-11T12:48:53.000Z</time>
      </trkpt>
      <trkpt lat="43.6343289725482463836669921875" lon="-5.85658268071711063385009765625">
        <ele>100.1999969482421875</ele>
        <time>2019-07-11T12:48:55.000Z</time>
      </trkpt>
      <trkpt lat="43.63453675992786884307861328125" lon="-5.856542028486728668212890625">
        <ele>99.59999847412109375</ele>
        <time>2019-07-11T12:48:57.000Z</time>
      </trkpt>
      <trkpt lat="43.63465226255357265472412109375" lon="-5.85649676620960235595703125">
        <ele>98.40000152587890625</ele>
        <time>2019-07-11T12:48:58.000Z</time>
      </trkpt>
      <trkpt lat="43.63477899692952632904052734375" lon="-5.85644421167671680450439453125">
        <ele>97</ele>
        <time>2019-07-11T12:48:59.000Z</time>
      </trkpt>
      <trkpt lat="43.63491595722734928131103515625" lon="-5.85639090277254581451416015625">
        <ele>95.8000030517578125</ele>
        <time>2019-07-11T12:49:00.000Z</time>
      </trkpt>
      <trkpt lat="43.63520831800997257232666015625" lon="-5.856272466480731964111328125">
        <ele>94.59999847412109375</ele>
        <time>2019-07-11T12:49:02.000Z</time>
      </trkpt>
      <trkpt lat="43.63551802933216094970703125" lon="-5.85614900104701519012451171875">
        <ele>92.8000030517578125</ele>
        <time>2019-07-11T12:49:04.000Z</time>
      </trkpt>
      <trkpt lat="43.63599889911711215972900390625" lon="-5.85596275515854358673095703125">
        <ele>92</ele>
        <time>2019-07-11T12:49:07.000Z</time>
      </trkpt>
      <trkpt lat="43.63616419024765491485595703125" lon="-5.85590056143701076507568359375">
        <ele>91</ele>
        <time>2019-07-11T12:49:08.000Z</time>
      </trkpt>
      <trkpt lat="43.6366774141788482666015625" lon="-5.85570442490279674530029296875">
        <ele>92.1999969482421875</ele>
        <time>2019-07-11T12:49:11.000Z</time>
      </trkpt>
      <trkpt lat="43.63722617737948894500732421875" lon="-5.85549621842801570892333984375">
        <ele>91.59999847412109375</ele>
        <time>2019-07-11T12:49:14.000Z</time>
      </trkpt>
      <trkpt lat="43.63760554231703281402587890625" lon="-5.85534584708511829376220703125">
        <ele>90.1999969482421875</ele>
        <time>2019-07-11T12:49:16.000Z</time>
      </trkpt>
      <trkpt lat="43.6377974040806293487548828125" lon="-5.85527007468044757843017578125">
        <ele>89</ele>
        <time>2019-07-11T12:49:17.000Z</time>
      </trkpt>
      <trkpt lat="43.6381641961634159088134765625" lon="-5.85512808524072170257568359375">
        <ele>87.59999847412109375</ele>
        <time>2019-07-11T12:49:19.000Z</time>
      </trkpt>
      <trkpt lat="43.6385093629360198974609375" lon="-5.85499615408480167388916015625">
        <ele>89</ele>
        <time>2019-07-11T12:49:21.000Z</time>
      </trkpt>
      <trkpt lat="43.6388511769473552703857421875" lon="-5.854863636195659637451171875">
        <ele>90.59999847412109375</ele>
        <time>2019-07-11T12:49:23.000Z</time>
      </trkpt>
      <trkpt lat="43.63934981636703014373779296875" lon="-5.85468250326812267303466796875">
        <ele>91.40000152587890625</ele>
        <time>2019-07-11T12:49:26.000Z</time>
      </trkpt>
      <trkpt lat="43.63950504921376705169677734375" lon="-5.854620225727558135986328125">
        <ele>91.59999847412109375</ele>
        <time>2019-07-11T12:49:27.000Z</time>
      </trkpt>
      <trkpt lat="43.63995918072760105133056640625" lon="-5.854421071708202362060546875">
        <ele>92.59999847412109375</ele>
        <time>2019-07-11T12:49:30.000Z</time>
      </trkpt>
      <trkpt lat="43.64011039026081562042236328125" lon="-5.854360722005367279052734375">
        <ele>93</ele>
        <time>2019-07-11T12:49:31.000Z</time>
      </trkpt>
      <trkpt lat="43.64057642407715320587158203125" lon="-5.85419316776096820831298828125">
        <ele>94.1999969482421875</ele>
        <time>2019-07-11T12:49:34.000Z</time>
      </trkpt>
      <trkpt lat="43.64109492860734462738037109375" lon="-5.85402335040271282196044921875">
        <ele>94.40000152587890625</ele>
        <time>2019-07-11T12:49:37.000Z</time>
      </trkpt>
      <trkpt lat="43.6416956596076488494873046875" lon="-5.85383039899170398712158203125">
        <ele>94</ele>
        <time>2019-07-11T12:49:40.000Z</time>
      </trkpt>
      <trkpt lat="43.64190244115889072418212890625" lon="-5.8537580631673336029052734375">
        <ele>92.1999969482421875</ele>
        <time>2019-07-11T12:49:41.000Z</time>
      </trkpt>
      <trkpt lat="43.6421050317585468292236328125" lon="-5.85368715226650238037109375">
        <ele>90.59999847412109375</ele>
        <time>2019-07-11T12:49:42.000Z</time>
      </trkpt>
      <trkpt lat="43.6424674652516841888427734375" lon="-5.85355899296700954437255859375">
        <ele>89</ele>
        <time>2019-07-11T12:49:44.000Z</time>
      </trkpt>
      <trkpt lat="43.6427712254226207733154296875" lon="-5.85344952531158924102783203125">
        <ele>87.8000030517578125</ele>
        <time>2019-07-11T12:49:46.000Z</time>
      </trkpt>
      <trkpt lat="43.64294112659990787506103515625" lon="-5.853384397923946380615234375">
        <ele>86.59999847412109375</ele>
        <time>2019-07-11T12:49:47.000Z</time>
      </trkpt>
      <trkpt lat="43.64353381097316741943359375" lon="-5.85312631912529468536376953125">
        <ele>85.59999847412109375</ele>
        <time>2019-07-11T12:49:50.000Z</time>
      </trkpt>
      <trkpt lat="43.643959276378154754638671875" lon="-5.8529542386531829833984375">
        <ele>83.59999847412109375</ele>
        <time>2019-07-11T12:49:52.000Z</time>
      </trkpt>
      <trkpt lat="43.6441740207374095916748046875" lon="-5.85287033580243587493896484375">
        <ele>82.40000152587890625</ele>
        <time>2019-07-11T12:49:53.000Z</time>
      </trkpt>
      <trkpt lat="43.64438918419182300567626953125" lon="-5.85279129445552825927734375">
        <ele>81.1999969482421875</ele>
        <time>2019-07-11T12:49:54.000Z</time>
      </trkpt>
      <trkpt lat="43.64503157325088977813720703125" lon="-5.85255634970963001251220703125">
        <ele>80.40000152587890625</ele>
        <time>2019-07-11T12:49:57.000Z</time>
      </trkpt>
      <trkpt lat="43.64565904252231121063232421875" lon="-5.85232098586857318878173828125">
        <ele>81.59999847412109375</ele>
        <time>2019-07-11T12:50:00.000Z</time>
      </trkpt>
      <trkpt lat="43.64586188457906246185302734375" lon="-5.8522434532642364501953125">
        <ele>82.40000152587890625</ele>
        <time>2019-07-11T12:50:01.000Z</time>
      </trkpt>
      <trkpt lat="43.6464123241603374481201171875" lon="-5.852057375013828277587890625">
        <ele>83</ele>
        <time>2019-07-11T12:50:04.000Z</time>
      </trkpt>
      <trkpt lat="43.6465774476528167724609375" lon="-5.8520431257784366607666015625">
        <ele>83.8000030517578125</ele>
        <time>2019-07-11T12:50:05.000Z</time>
      </trkpt>
      <trkpt lat="43.6467445828020572662353515625" lon="-5.85206449963152408599853515625">
        <ele>84.8000030517578125</ele>
        <time>2019-07-11T12:50:06.000Z</time>
      </trkpt>
      <trkpt lat="43.64692420698702335357666015625" lon="-5.85210674442350864410400390625">
        <ele>86.40000152587890625</ele>
        <time>2019-07-11T12:50:07.000Z</time>
      </trkpt>
      <trkpt lat="43.6471180804073810577392578125" lon="-5.85215820930898189544677734375">
        <ele>88</ele>
        <time>2019-07-11T12:50:08.000Z</time>
      </trkpt>
      <trkpt lat="43.6473209224641323089599609375" lon="-5.85221135057508945465087890625">
        <ele>89.40000152587890625</ele>
        <time>2019-07-11T12:50:09.000Z</time>
      </trkpt>
      <trkpt lat="43.64752870984375476837158203125" lon="-5.85226499475538730621337890625">
        <ele>90.59999847412109375</ele>
        <time>2019-07-11T12:50:10.000Z</time>
      </trkpt>
      <trkpt lat="43.64795082248747348785400390625" lon="-5.85237496532499790191650390625">
        <ele>91.8000030517578125</ele>
        <time>2019-07-11T12:50:12.000Z</time>
      </trkpt>
      <trkpt lat="43.64859472028911113739013671875" lon="-5.85253271274268627166748046875">
        <ele>92.1999969482421875</ele>
        <time>2019-07-11T12:50:15.000Z</time>
      </trkpt>
      <trkpt lat="43.64923476241528987884521484375" lon="-5.85268727503716945648193359375">
        <ele>91.1999969482421875</ele>
        <time>2019-07-11T12:50:18.000Z</time>
      </trkpt>
      <trkpt lat="43.64986575208604335784912109375" lon="-5.85284032858908176422119140625">
        <ele>91</ele>
        <time>2019-07-11T12:50:21.000Z</time>
      </trkpt>
      <trkpt lat="43.6500728689134120941162109375" lon="-5.85289011709392070770263671875">
        <ele>90.40000152587890625</ele>
        <time>2019-07-11T12:50:22.000Z</time>
      </trkpt>
      <trkpt lat="43.650465309619903564453125" lon="-5.85299036465585231781005859375">
        <ele>88.59999847412109375</ele>
        <time>2019-07-11T12:50:24.000Z</time>
      </trkpt>
      <trkpt lat="43.6509623564779758453369140625" lon="-5.85311693139374256134033203125">
        <ele>88.40000152587890625</ele>
        <time>2019-07-11T12:50:27.000Z</time>
      </trkpt>
      <trkpt lat="43.6511068604886531829833984375" lon="-5.853124558925628662109375">
        <ele>89</ele>
        <time>2019-07-11T12:50:28.000Z</time>
      </trkpt>
      <trkpt lat="43.65124306641519069671630859375" lon="-5.85309027694165706634521484375">
        <ele>90.59999847412109375</ele>
        <time>2019-07-11T12:50:29.000Z</time>
      </trkpt>
      <trkpt lat="43.6513754166662693023681640625" lon="-5.85300779901444911956787109375">
        <ele>93.40000152587890625</ele>
        <time>2019-07-11T12:50:30.000Z</time>
      </trkpt>
      <trkpt lat="43.65151061676442623138427734375" lon="-5.8528846688568592071533203125">
        <ele>96.8000030517578125</ele>
        <time>2019-07-11T12:50:31.000Z</time>
      </trkpt>
      <trkpt lat="43.65165092982351779937744140625" lon="-5.85273656062781810760498046875">
        <ele>98.8000030517578125</ele>
        <time>2019-07-11T12:50:32.000Z</time>
      </trkpt>
      <trkpt lat="43.65179660730063915252685546875" lon="-5.85257981903851032257080078125">
        <ele>100</ele>
        <time>2019-07-11T12:50:33.000Z</time>
      </trkpt>
      <trkpt lat="43.65220178849995136260986328125" lon="-5.8521504141390323638916015625">
        <ele>100</ele>
        <time>2019-07-11T12:50:36.000Z</time>
      </trkpt>
      <trkpt lat="43.6525810696184635162353515625" lon="-5.85175788961350917816162109375">
        <ele>101.8000030517578125</ele>
        <time>2019-07-11T12:50:40.000Z</time>
      </trkpt>
      <trkpt lat="43.6526601947844028472900390625" lon="-5.85167993791401386260986328125">
        <ele>103.40000152587890625</ele>
        <time>2019-07-11T12:50:41.000Z</time>
      </trkpt>
      <trkpt lat="43.65273320116102695465087890625" lon="-5.85160575807094573974609375">
        <ele>105.40000152587890625</ele>
        <time>2019-07-11T12:50:42.000Z</time>
      </trkpt>
      <trkpt lat="43.65280176512897014617919921875" lon="-5.8515358529984951019287109375">
        <ele>107.1999969482421875</ele>
        <time>2019-07-11T12:50:43.000Z</time>
      </trkpt>
      <trkpt lat="43.65286446176469326019287109375" lon="-5.85147072561085224151611328125">
        <ele>108.8000030517578125</ele>
        <time>2019-07-11T12:50:44.000Z</time>
      </trkpt>
      <trkpt lat="43.65297384560108184814453125" lon="-5.851354636251926422119140625">
        <ele>110</ele>
        <time>2019-07-11T12:50:46.000Z</time>
      </trkpt>
      <trkpt lat="43.65322136320173740386962890625" lon="-5.8511056937277317047119140625">
        <ele>108.8000030517578125</ele>
        <time>2019-07-11T12:50:50.000Z</time>
      </trkpt>
      <trkpt lat="43.6535547114908695220947265625" lon="-5.8507600240409374237060546875">
        <ele>107.59999847412109375</ele>
        <time>2019-07-11T12:50:54.000Z</time>
      </trkpt>
      <trkpt lat="43.6537330783903598785400390625" lon="-5.85058383643627166748046875">
        <ele>106.59999847412109375</ele>
        <time>2019-07-11T12:50:56.000Z</time>
      </trkpt>
      <trkpt lat="43.65417539142072200775146484375" lon="-5.85014772601425647735595703125">
        <ele>106.1999969482421875</ele>
        <time>2019-07-11T12:51:01.000Z</time>
      </trkpt>
      <trkpt lat="43.654600270092487335205078125" lon="-5.849731899797916412353515625">
        <ele>105.40000152587890625</ele>
        <time>2019-07-11T12:51:06.000Z</time>
      </trkpt>
      <trkpt lat="43.65471803583204746246337890625" lon="-5.849597454071044921875">
        <ele>106</ele>
        <time>2019-07-11T12:51:08.000Z</time>
      </trkpt>
      <trkpt lat="43.6547633819282054901123046875" lon="-5.84946267306804656982421875">
        <ele>107</ele>
        <time>2019-07-11T12:51:10.000Z</time>
      </trkpt>
      <trkpt lat="43.6547663994133472442626953125" lon="-5.84931238554418087005615234375">
        <ele>108.1999969482421875</ele>
        <time>2019-07-11T12:51:12.000Z</time>
      </trkpt>
      <trkpt lat="43.65477419458329677581787109375" lon="-5.84923141635954380035400390625">
        <ele>108.8000030517578125</ele>
        <time>2019-07-11T12:51:13.000Z</time>
      </trkpt>
      <trkpt lat="43.65481241606175899505615234375" lon="-5.84906226955354213714599609375">
        <ele>109.59999847412109375</ele>
        <time>2019-07-11T12:51:15.000Z</time>
      </trkpt>
      <trkpt lat="43.6548314429819583892822265625" lon="-5.848973505198955535888671875">
        <ele>109.59999847412109375</ele>
        <time>2019-07-11T12:51:16.000Z</time>
      </trkpt>
      <trkpt lat="43.6549105681478977203369140625" lon="-5.8485166914761066436767578125">
        <ele>108.40000152587890625</ele>
        <time>2019-07-11T12:51:21.000Z</time>
      </trkpt>
      <trkpt lat="43.654932864010334014892578125" lon="-5.848435722291469573974609375">
        <ele>108.1999969482421875</ele>
        <time>2019-07-11T12:51:22.000Z</time>
      </trkpt>
      <trkpt lat="43.65500352345407009124755859375" lon="-5.8482970856130123138427734375">
        <ele>108</ele>
        <time>2019-07-11T12:51:24.000Z</time>
      </trkpt>
      <trkpt lat="43.6551603488624095916748046875" lon="-5.84810145199298858642578125">
        <ele>107.1999969482421875</ele>
        <time>2019-07-11T12:51:27.000Z</time>
      </trkpt>
      <trkpt lat="43.65551632829010486602783203125" lon="-5.8476768247783184051513671875">
        <ele>106.59999847412109375</ele>
        <time>2019-07-11T12:51:33.000Z</time>
      </trkpt>
      <trkpt lat="43.65569628775119781494140625" lon="-5.84745294414460659027099609375">
        <ele>106.1999969482421875</ele>
        <time>2019-07-11T12:51:36.000Z</time>
      </trkpt>
      <trkpt lat="43.655917905271053314208984375" lon="-5.84717147983610630035400390625">
        <ele>105</ele>
        <time>2019-07-11T12:51:40.000Z</time>
      </trkpt>
      <trkpt lat="43.65608864463865756988525390625" lon="-5.84686956368386745452880859375">
        <ele>104.8000030517578125</ele>
        <time>2019-07-11T12:51:45.000Z</time>
      </trkpt>
      <trkpt lat="43.65630992688238620758056640625" lon="-5.84654174745082855224609375">
        <ele>105.40000152587890625</ele>
        <time>2019-07-11T12:52:24.000Z</time>
      </trkpt>
      <trkpt lat="43.65630255080759525299072265625" lon="-5.84654174745082855224609375">
        <ele>105.59999847412109375</ele>
        <time>2019-07-11T12:52:45.000Z</time>
      </trkpt>
      <trkpt lat="43.65628377534449100494384765625" lon="-5.84656613878905773162841796875">
        <ele>104.8000030517578125</ele>
        <time>2019-07-11T12:52:54.000Z</time>
      </trkpt>
      <trkpt lat="43.65627941675484180450439453125" lon="-5.8465737663209438323974609375">
        <ele>104.8000030517578125</ele>
        <time>2019-07-11T12:53:02.000Z</time>
      </trkpt>
      <trkpt lat="43.65628327243030071258544921875" lon="-5.84657636471092700958251953125">
        <ele>104.8000030517578125</ele>
        <time>2019-07-11T12:53:38.000Z</time>
      </trkpt>
      <trkpt lat="43.65629064850509166717529296875" lon="-5.84656345658004283905029296875">
        <ele>104.8000030517578125</ele>
        <time>2019-07-11T12:54:07.000Z</time>
      </trkpt>
      <trkpt lat="43.6562942527234554290771484375" lon="-5.84656563587486743927001953125">
        <ele>104.8000030517578125</ele>
        <time>2019-07-11T12:54:47.000Z</time>
      </trkpt>
      <trkpt lat="43.6563046462833881378173828125" lon="-5.8465663902461528778076171875">
        <ele>104.8000030517578125</ele>
        <time>2019-07-11T12:54:54.000Z</time>
      </trkpt>
      <trkpt lat="43.656325601041316986083984375" lon="-5.84655105136334896087646484375">
        <ele>103.40000152587890625</ele>
        <time>2019-07-11T14:55:54.000Z</time>
      </trkpt>
      <trkpt lat="43.65631126798689365386962890625" lon="-5.84656479768455028533935546875">
        <ele>103.1999969482421875</ele>
        <time>2019-07-11T14:56:20.000Z</time>
      </trkpt>
      <trkpt lat="43.6563106812536716461181640625" lon="-5.8465652167797088623046875">
        <ele>103.1999969482421875</ele>
        <time>2019-07-11T14:56:21.000Z</time>
      </trkpt>
      <trkpt lat="43.65622468292713165283203125" lon="-5.8467481099069118499755859375">
        <ele>103</ele>
        <time>2019-07-11T14:56:50.000Z</time>
      </trkpt>
      <trkpt lat="43.65604388527572154998779296875" lon="-5.84699545986950397491455078125">
        <ele>102.59999847412109375</ele>
        <time>2019-07-11T14:56:53.000Z</time>
      </trkpt>
      <trkpt lat="43.65569771267473697662353515625" lon="-5.8475031517446041107177734375">
        <ele>103.59999847412109375</ele>
        <time>2019-07-11T14:56:59.000Z</time>
      </trkpt>
      <trkpt lat="43.65540518425405025482177734375" lon="-5.8478501625359058380126953125">
        <ele>104.40000152587890625</ele>
        <time>2019-07-11T14:57:05.000Z</time>
      </trkpt>
      <trkpt lat="43.65526378154754638671875" lon="-5.848015956580638885498046875">
        <ele>104</ele>
        <time>2019-07-11T14:57:08.000Z</time>
      </trkpt>
      <trkpt lat="43.654932864010334014892578125" lon="-5.848399512469768524169921875">
        <ele>104.8000030517578125</ele>
        <time>2019-07-11T14:57:16.000Z</time>
      </trkpt>
      <trkpt lat="43.65489439107477664947509765625" lon="-5.84850487299263477325439453125">
        <ele>105</ele>
        <time>2019-07-11T14:57:18.000Z</time>
      </trkpt>
      <trkpt lat="43.6548478715121746063232421875" lon="-5.84877711720764636993408203125">
        <ele>105.40000152587890625</ele>
        <time>2019-07-11T14:57:22.000Z</time>
      </trkpt>
      <trkpt lat="43.65474100224673748016357421875" lon="-5.84940559230744838714599609375">
        <ele>105.59999847412109375</ele>
        <time>2019-07-11T14:57:31.000Z</time>
      </trkpt>
      <trkpt lat="43.65471619181334972381591796875" lon="-5.8495811931788921356201171875">
        <ele>106.1999969482421875</ele>
        <time>2019-07-11T14:57:34.000Z</time>
      </trkpt>
      <trkpt lat="43.65469339303672313690185546875" lon="-5.84963827393949031829833984375">
        <ele>106.40000152587890625</ele>
        <time>2019-07-11T14:57:35.000Z</time>
      </trkpt>
      <trkpt lat="43.65465735085308551788330078125" lon="-5.8496980369091033935546875">
        <ele>106.8000030517578125</ele>
        <time>2019-07-11T14:57:36.000Z</time>
      </trkpt>
      <trkpt lat="43.6544643156230449676513671875" lon="-5.84990029223263263702392578125">
        <ele>107.59999847412109375</ele>
        <time>2019-07-11T14:57:39.000Z</time>
      </trkpt>
      <trkpt lat="43.65407933481037616729736328125" lon="-5.8502691797912120819091796875">
        <ele>107.1999969482421875</ele>
        <time>2019-07-11T14:57:44.000Z</time>
      </trkpt>
      <trkpt lat="43.65383307449519634246826171875" lon="-5.85051401518285274505615234375">
        <ele>106.59999847412109375</ele>
        <time>2019-07-11T14:57:47.000Z</time>
      </trkpt>
      <trkpt lat="43.6534480936825275421142578125" lon="-5.85089136846363544464111328125">
        <ele>105.59999847412109375</ele>
        <time>2019-07-11T14:57:51.000Z</time>
      </trkpt>
      <trkpt lat="43.65334524773061275482177734375" lon="-5.85099287331104278564453125">
        <ele>105.40000152587890625</ele>
        <time>2019-07-11T14:57:52.000Z</time>
      </trkpt>
      <trkpt lat="43.65294761024415493011474609375" lon="-5.85139160044491291046142578125">
        <ele>105</ele>
        <time>2019-07-11T14:57:56.000Z</time>
      </trkpt>
      <trkpt lat="43.65275750868022441864013671875" lon="-5.85157516412436962127685546875">
        <ele>107.40000152587890625</ele>
        <time>2019-07-11T14:57:58.000Z</time>
      </trkpt>
      <trkpt lat="43.65266446955502033233642578125" lon="-5.85166485048830509185791015625">
        <ele>108.8000030517578125</ele>
        <time>2019-07-11T14:57:59.000Z</time>
      </trkpt>
      <trkpt lat="43.652482330799102783203125" lon="-5.8518429659307003021240234375">
        <ele>110.1999969482421875</ele>
        <time>2019-07-11T14:58:01.000Z</time>
      </trkpt>
      <trkpt lat="43.6523926444351673126220703125" lon="-5.85193273611366748809814453125">
        <ele>110.8000030517578125</ele>
        <time>2019-07-11T14:58:02.000Z</time>
      </trkpt>
      <trkpt lat="43.65229918621480464935302734375" lon="-5.8520263619720935821533203125">
        <ele>111.1999969482421875</ele>
        <time>2019-07-11T14:58:03.000Z</time>
      </trkpt>
      <trkpt lat="43.651892580091953277587890625" lon="-5.852427519857883453369140625">
        <ele>109.40000152587890625</ele>
        <time>2019-07-11T14:58:07.000Z</time>
      </trkpt>
      <trkpt lat="43.6517822742462158203125" lon="-5.8525369875133037567138671875">
        <ele>107.59999847412109375</ele>
        <time>2019-07-11T14:58:08.000Z</time>
      </trkpt>
      <trkpt lat="43.65167221985757350921630859375" lon="-5.85264503024518489837646484375">
        <ele>106</ele>
        <time>2019-07-11T14:58:09.000Z</time>
      </trkpt>
      <trkpt lat="43.65156493149697780609130859375" lon="-5.85275030694901943206787109375">
        <ele>104.59999847412109375</ele>
        <time>2019-07-11T14:58:10.000Z</time>
      </trkpt>
      <trkpt lat="43.6513660289347171783447265625" lon="-5.85294795222580432891845703125">
        <ele>103</ele>
        <time>2019-07-11T14:58:12.000Z</time>
      </trkpt>
      <trkpt lat="43.65117701701819896697998046875" lon="-5.85310687310993671417236328125">
        <ele>102.40000152587890625</ele>
        <time>2019-07-11T14:58:14.000Z</time>
      </trkpt>
      <trkpt lat="43.6510756798088550567626953125" lon="-5.85315498523414134979248046875">
        <ele>102.40000152587890625</ele>
        <time>2019-07-11T14:58:15.000Z</time>
      </trkpt>
      <trkpt lat="43.65096679888665676116943359375" lon="-5.85317057557404041290283203125">
        <ele>102.1999969482421875</ele>
        <time>2019-07-11T14:58:16.000Z</time>
      </trkpt>
      <trkpt lat="43.6508510448038578033447265625" lon="-5.85315649397671222686767578125">
        <ele>101.59999847412109375</ele>
        <time>2019-07-11T14:58:17.000Z</time>
      </trkpt>
      <trkpt lat="43.65033329464495182037353515625" lon="-5.8530130796134471893310546875">
        <ele>100.1999969482421875</ele>
        <time>2019-07-11T14:58:21.000Z</time>
      </trkpt>
      <trkpt lat="43.65004864521324634552001953125" lon="-5.85293353535234928131103515625">
        <ele>99.1999969482421875</ele>
        <time>2019-07-11T14:58:23.000Z</time>
      </trkpt>
      <trkpt lat="43.64960499107837677001953125" lon="-5.8528254926204681396484375">
        <ele>98.40000152587890625</ele>
        <time>2019-07-11T14:58:26.000Z</time>
      </trkpt>
      <trkpt lat="43.64929812960326671600341796875" lon="-5.852755419909954071044921875">
        <ele>101.8000030517578125</ele>
        <time>2019-07-11T14:58:28.000Z</time>
      </trkpt>
      <trkpt lat="43.64913904108107089996337890625" lon="-5.8527187071740627288818359375">
        <ele>104</ele>
        <time>2019-07-11T14:58:29.000Z</time>
      </trkpt>
      <trkpt lat="43.64897643215954303741455078125" lon="-5.85267755202949047088623046875">
        <ele>105.1999969482421875</ele>
        <time>2019-07-11T14:58:30.000Z</time>
      </trkpt>
      <trkpt lat="43.64864417351782321929931640625" lon="-5.852594487369060516357421875">
        <ele>106.40000152587890625</ele>
        <time>2019-07-11T14:58:32.000Z</time>
      </trkpt>
      <trkpt lat="43.6484732665121555328369140625" lon="-5.85255400277674198150634765625">
        <ele>106.1999969482421875</ele>
        <time>2019-07-11T14:58:33.000Z</time>
      </trkpt>
      <trkpt lat="43.64830009639263153076171875" lon="-5.85251309908926486968994140625">
        <ele>104.8000030517578125</ele>
        <time>2019-07-11T14:58:34.000Z</time>
      </trkpt>
      <trkpt lat="43.6481262557208538055419921875" lon="-5.852475129067897796630859375">
        <ele>102.40000152587890625</ele>
        <time>2019-07-11T14:58:35.000Z</time>
      </trkpt>
      <trkpt lat="43.64795115776360034942626953125" lon="-5.85243682377040386199951171875">
        <ele>98.8000030517578125</ele>
        <time>2019-07-11T14:58:36.000Z</time>
      </trkpt>
      <trkpt lat="43.64777714945375919342041015625" lon="-5.8523944951593875885009765625">
        <ele>96</ele>
        <time>2019-07-11T14:58:37.000Z</time>
      </trkpt>
      <trkpt lat="43.64760272204875946044921875" lon="-5.85234965197741985321044921875">
        <ele>93.59999847412109375</ele>
        <time>2019-07-11T14:58:38.000Z</time>
      </trkpt>
      <trkpt lat="43.64742745645344257354736328125" lon="-5.85230673663318157196044921875">
        <ele>92</ele>
        <time>2019-07-11T14:58:39.000Z</time>
      </trkpt>
      <trkpt lat="43.64708103239536285400390625" lon="-5.8522265218198299407958984375">
        <ele>91</ele>
        <time>2019-07-11T14:58:41.000Z</time>
      </trkpt>
      <trkpt lat="43.64673913456499576568603515625" lon="-5.85213909856975078582763671875">
        <ele>94.59999847412109375</ele>
        <time>2019-07-11T14:58:43.000Z</time>
      </trkpt>
      <trkpt lat="43.64657484926283359527587890625" lon="-5.85210590623319149017333984375">
        <ele>98.8000030517578125</ele>
        <time>2019-07-11T14:58:44.000Z</time>
      </trkpt>
      <trkpt lat="43.646416850388050079345703125" lon="-5.85208989679813385009765625">
        <ele>102.1999969482421875</ele>
        <time>2019-07-11T14:58:45.000Z</time>
      </trkpt>
      <trkpt lat="43.64626136608421802520751953125" lon="-5.85210674442350864410400390625">
        <ele>104</ele>
        <time>2019-07-11T14:58:46.000Z</time>
      </trkpt>
      <trkpt lat="43.64610604941844940185546875" lon="-5.8521564491093158721923828125">
        <ele>104.8000030517578125</ele>
        <time>2019-07-11T14:58:47.000Z</time>
      </trkpt>
      <trkpt lat="43.64579231478273868560791015625" lon="-5.8522828482091426849365234375">
        <ele>100.8000030517578125</ele>
        <time>2019-07-11T14:58:49.000Z</time>
      </trkpt>
      <trkpt lat="43.64563154987990856170654296875" lon="-5.85234646685421466827392578125">
        <ele>98</ele>
        <time>2019-07-11T14:58:50.000Z</time>
      </trkpt>
      <trkpt lat="43.6454698629677295684814453125" lon="-5.85241016931831836700439453125">
        <ele>95.59999847412109375</ele>
        <time>2019-07-11T14:58:51.000Z</time>
      </trkpt>
      <trkpt lat="43.64530784077942371368408203125" lon="-5.852473117411136627197265625">
        <ele>94.1999969482421875</ele>
        <time>2019-07-11T14:58:52.000Z</time>
      </trkpt>
      <trkpt lat="43.64514648914337158203125" lon="-5.85253505967557430267333984375">
        <ele>92.8000030517578125</ele>
        <time>2019-07-11T14:58:53.000Z</time>
      </trkpt>
      <trkpt lat="43.644666709005832672119140625" lon="-5.8527237363159656524658203125">
        <ele>92.1999969482421875</ele>
        <time>2019-07-11T14:58:56.000Z</time>
      </trkpt>
      <trkpt lat="43.64418156445026397705078125" lon="-5.8529081381857395172119140625">
        <ele>92.8000030517578125</ele>
        <time>2019-07-11T14:58:59.000Z</time>
      </trkpt>
      <trkpt lat="43.6437083221971988677978515625" lon="-5.8530878461897373199462890625">
        <ele>92</ele>
        <time>2019-07-11T14:59:02.000Z</time>
      </trkpt>
      <trkpt lat="43.64355258643627166748046875" lon="-5.8531481958925724029541015625">
        <ele>91.1999969482421875</ele>
        <time>2019-07-11T14:59:03.000Z</time>
      </trkpt>
      <trkpt lat="43.64309392869472503662109375" lon="-5.853316672146320343017578125">
        <ele>90.59999847412109375</ele>
        <time>2019-07-11T14:59:06.000Z</time>
      </trkpt>
      <trkpt lat="43.64264407195150852203369140625" lon="-5.853480957448482513427734375">
        <ele>90</ele>
        <time>2019-07-11T14:59:09.000Z</time>
      </trkpt>
      <trkpt lat="43.6421828158199787139892578125" lon="-5.8536584861576557159423828125">
        <ele>88.1999969482421875</ele>
        <time>2019-07-11T14:59:12.000Z</time>
      </trkpt>
      <trkpt lat="43.64171795547008514404296875" lon="-5.853837020695209503173828125">
        <ele>87.8000030517578125</ele>
        <time>2019-07-11T14:59:15.000Z</time>
      </trkpt>
      <trkpt lat="43.6414096690714359283447265625" lon="-5.85395294241607189178466796875">
        <ele>89.59999847412109375</ele>
        <time>2019-07-11T14:59:17.000Z</time>
      </trkpt>
      <trkpt lat="43.6411256901919841766357421875" lon="-5.85405863821506500244140625">
        <ele>90.8000030517578125</ele>
        <time>2019-07-11T14:59:19.000Z</time>
      </trkpt>
      <trkpt lat="43.64089208655059337615966796875" lon="-5.85414807312190532684326171875">
        <ele>92.1999969482421875</ele>
        <time>2019-07-11T14:59:21.000Z</time>
      </trkpt>
      <trkpt lat="43.640795610845088958740234375" lon="-5.8541853725910186767578125">
        <ele>93.59999847412109375</ele>
        <time>2019-07-11T14:59:22.000Z</time>
      </trkpt>
      <trkpt lat="43.64071019925177097320556640625" lon="-5.85421848110854625701904296875">
        <ele>95.1999969482421875</ele>
        <time>2019-07-11T14:59:23.000Z</time>
      </trkpt>
      <trkpt lat="43.64063107408583164215087890625" lon="-5.8542475663125514984130859375">
        <ele>96.59999847412109375</ele>
        <time>2019-07-11T14:59:24.000Z</time>
      </trkpt>
      <trkpt lat="43.64055630750954151153564453125" lon="-5.85427531041204929351806640625">
        <ele>97.8000030517578125</ele>
        <time>2019-07-11T14:59:25.000Z</time>
      </trkpt>
      <trkpt lat="43.64041163586080074310302734375" lon="-5.85431990213692188262939453125">
        <ele>99.40000152587890625</ele>
        <time>2019-07-11T14:59:27.000Z</time>
      </trkpt>
      <trkpt lat="43.6402167566120624542236328125" lon="-5.85437103174626827239990234375">
        <ele>100.40000152587890625</ele>
        <time>2019-07-11T14:59:30.000Z</time>
      </trkpt>
      <trkpt lat="43.6400900222361087799072265625" lon="-5.85441176779568195343017578125">
        <ele>101.40000152587890625</ele>
        <time>2019-07-11T14:59:33.000Z</time>
      </trkpt>
      <trkpt lat="43.640026152133941650390625" lon="-5.85439114831387996673583984375">
        <ele>101.59999847412109375</ele>
        <time>2019-07-11T14:59:35.000Z</time>
      </trkpt>
      <trkpt lat="43.6399773694574832916259765625" lon="-5.85427916608750820159912109375">
        <ele>101.59999847412109375</ele>
        <time>2019-07-11T14:59:37.000Z</time>
      </trkpt>
      <trkpt lat="43.639917187392711639404296875" lon="-5.85399334318935871124267578125">
        <ele>101.8000030517578125</ele>
        <time>2019-07-11T14:59:40.000Z</time>
      </trkpt>
      <trkpt lat="43.6397758685052394866943359375" lon="-5.8533765189349651336669921875">
        <ele>101.40000152587890625</ele>
        <time>2019-07-11T14:59:45.000Z</time>
      </trkpt>
      <trkpt lat="43.63973823375999927520751953125" lon="-5.852960608899593353271484375">
        <ele>100.8000030517578125</ele>
        <time>2019-07-11T14:59:48.000Z</time>
      </trkpt>
      <trkpt lat="43.63975767977535724639892578125" lon="-5.85267051123082637786865234375">
        <ele>100.59999847412109375</ele>
        <time>2019-07-11T14:59:50.000Z</time>
      </trkpt>
      <trkpt lat="43.6398187838494777679443359375" lon="-5.85239508189260959625244140625">
        <ele>100.40000152587890625</ele>
        <time>2019-07-11T14:59:52.000Z</time>
      </trkpt>
      <trkpt lat="43.6399180255830287933349609375" lon="-5.85215435363352298736572265625">
        <ele>100.1999969482421875</ele>
        <time>2019-07-11T14:59:54.000Z</time>
      </trkpt>
      <trkpt lat="43.64020376466214656829833984375" lon="-5.85167004726827144622802734375">
        <ele>101.8000030517578125</ele>
        <time>2019-07-11T14:59:59.000Z</time>
      </trkpt>
      <trkpt lat="43.64029881544411182403564453125" lon="-5.85144625045359134674072265625">
        <ele>102.40000152587890625</ele>
        <time>2019-07-11T15:00:01.000Z</time>
      </trkpt>
      <trkpt lat="43.6403520405292510986328125" lon="-5.85117853246629238128662109375">
        <ele>102</ele>
        <time>2019-07-11T15:00:03.000Z</time>
      </trkpt>
      <trkpt lat="43.64034625701606273651123046875" lon="-5.85089027881622314453125">
        <ele>102</ele>
        <time>2019-07-11T15:00:05.000Z</time>
      </trkpt>
      <trkpt lat="43.64021147601306438446044921875" lon="-5.8502970077097415924072265625">
        <ele>101.8000030517578125</ele>
        <time>2019-07-11T15:00:09.000Z</time>
      </trkpt>
      <trkpt lat="43.64009211771190166473388671875" lon="-5.84985352121293544769287109375">
        <ele>101.1999969482421875</ele>
        <time>2019-07-11T15:00:12.000Z</time>
      </trkpt>
      <trkpt lat="43.6399575881659984588623046875" lon="-5.84924809634685516357421875">
        <ele>101.40000152587890625</ele>
        <time>2019-07-11T15:00:16.000Z</time>
      </trkpt>
      <trkpt lat="43.63988466560840606689453125" lon="-5.848748199641704559326171875">
        <ele>103.1999969482421875</ele>
        <time>2019-07-11T15:00:19.000Z</time>
      </trkpt>
      <trkpt lat="43.63979372195899486541748046875" lon="-5.8480124361813068389892578125">
        <ele>103.59999847412109375</ele>
        <time>2019-07-11T15:00:24.000Z</time>
      </trkpt>
      <trkpt lat="43.63975868560373783111572265625" lon="-5.8478759787976741790771484375">
        <ele>102.59999847412109375</ele>
        <time>2019-07-11T15:00:25.000Z</time>
      </trkpt>
      <trkpt lat="43.6397101543843746185302734375" lon="-5.847745724022388458251953125">
        <ele>101.8000030517578125</ele>
        <time>2019-07-11T15:00:26.000Z</time>
      </trkpt>
      <trkpt lat="43.63964670337736606597900390625" lon="-5.84762376733124256134033203125">
        <ele>101</ele>
        <time>2019-07-11T15:00:27.000Z</time>
      </trkpt>
      <trkpt lat="43.63956858403980731964111328125" lon="-5.8475155569612979888916015625">
        <ele>100</ele>
        <time>2019-07-11T15:00:28.000Z</time>
      </trkpt>
      <trkpt lat="43.639473952353000640869140625" lon="-5.84742830134928226470947265625">
        <ele>99.59999847412109375</ele>
        <time>2019-07-11T15:00:29.000Z</time>
      </trkpt>
      <trkpt lat="43.63926080055534839630126953125" lon="-5.84729611873626708984375">
        <ele>98.59999847412109375</ele>
        <time>2019-07-11T15:00:31.000Z</time>
      </trkpt>
      <trkpt lat="43.638823516666889190673828125" lon="-5.8470538817346096038818359375">
        <ele>99.8000030517578125</ele>
        <time>2019-07-11T15:00:35.000Z</time>
      </trkpt>
      <trkpt lat="43.63871924579143524169921875" lon="-5.846977941691875457763671875">
        <ele>101.1999969482421875</ele>
        <time>2019-07-11T15:00:36.000Z</time>
      </trkpt>
      <trkpt lat="43.63853274844586849212646484375" lon="-5.84677501581609249114990234375">
        <ele>101.59999847412109375</ele>
        <time>2019-07-11T15:00:38.000Z</time>
      </trkpt>
      <trkpt lat="43.63840199075639247894287109375" lon="-5.84648919291794300079345703125">
        <ele>101</ele>
        <time>2019-07-11T15:00:40.000Z</time>
      </trkpt>
      <trkpt lat="43.63828984089195728302001953125" lon="-5.84597353823482990264892578125">
        <ele>100</ele>
        <time>2019-07-11T15:00:43.000Z</time>
      </trkpt>
      <trkpt lat="43.63823519088327884674072265625" lon="-5.84565988741815090179443359375">
        <ele>101.1999969482421875</ele>
        <time>2019-07-11T15:00:45.000Z</time>
      </trkpt>
      <trkpt lat="43.6381216160953044891357421875" lon="-5.8450068533420562744140625">
        <ele>101.8000030517578125</ele>
        <time>2019-07-11T15:00:50.000Z</time>
      </trkpt>
      <trkpt lat="43.63802413456141948699951171875" lon="-5.8446771092712879180908203125">
        <ele>101</ele>
        <time>2019-07-11T15:00:53.000Z</time>
      </trkpt>
      <trkpt lat="43.63791382871568202972412109375" lon="-5.84449161775410175323486328125">
        <ele>101.1999969482421875</ele>
        <time>2019-07-11T15:00:55.000Z</time>
      </trkpt>
      <trkpt lat="43.637752644717693328857421875" lon="-5.8443575911223888397216796875">
        <ele>101.1999969482421875</ele>
        <time>2019-07-11T15:00:57.000Z</time>
      </trkpt>
      <trkpt lat="43.6375384032726287841796875" lon="-5.84429983980953693389892578125">
        <ele>99.8000030517578125</ele>
        <time>2019-07-11T15:00:59.000Z</time>
      </trkpt>
      <trkpt lat="43.6374178715050220489501953125" lon="-5.844308473169803619384765625">
        <ele>98</ele>
        <time>2019-07-11T15:01:00.000Z</time>
      </trkpt>
      <trkpt lat="43.63729088567197322845458984375" lon="-5.84433563053607940673828125">
        <ele>95.8000030517578125</ele>
        <time>2019-07-11T15:01:01.000Z</time>
      </trkpt>
      <trkpt lat="43.63716088235378265380859375" lon="-5.84437854588031768798828125">
        <ele>94</ele>
        <time>2019-07-11T15:01:02.000Z</time>
      </trkpt>
      <trkpt lat="43.6370326392352581024169921875" lon="-5.8444256521761417388916015625">
        <ele>92.1999969482421875</ele>
        <time>2019-07-11T15:01:03.000Z</time>
      </trkpt>
      <trkpt lat="43.6369048990309238433837890625" lon="-5.84446546621620655059814453125">
        <ele>90.59999847412109375</ele>
        <time>2019-07-11T15:01:04.000Z</time>
      </trkpt>
      <trkpt lat="43.6367805115878582000732421875" lon="-5.84448776207864284515380859375">
        <ele>89</ele>
        <time>2019-07-11T15:01:05.000Z</time>
      </trkpt>
      <trkpt lat="43.636661656200885772705078125" lon="-5.84449010901153087615966796875">
        <ele>87.8000030517578125</ele>
        <time>2019-07-11T15:01:06.000Z</time>
      </trkpt>
      <trkpt lat="43.63655227236449718475341796875" lon="-5.84447016008198261260986328125">
        <ele>86.40000152587890625</ele>
        <time>2019-07-11T15:01:07.000Z</time>
      </trkpt>
      <trkpt lat="43.63645101897418498992919921875" lon="-5.8444256521761417388916015625">
        <ele>85.1999969482421875</ele>
        <time>2019-07-11T15:01:08.000Z</time>
      </trkpt>
      <trkpt lat="43.6363607458770275115966796875" lon="-5.8443559147417545318603515625">
        <ele>84</ele>
        <time>2019-07-11T15:01:09.000Z</time>
      </trkpt>
      <trkpt lat="43.63621951080858707427978515625" lon="-5.84416329860687255859375">
        <ele>82.1999969482421875</ele>
        <time>2019-07-11T15:01:11.000Z</time>
      </trkpt>
      <trkpt lat="43.6361669562757015228271484375" lon="-5.84404519759118556976318359375">
        <ele>81.1999969482421875</ele>
        <time>2019-07-11T15:01:12.000Z</time>
      </trkpt>
      <trkpt lat="43.63612563349306583404541015625" lon="-5.8439130149781703948974609375">
        <ele>79.8000030517578125</ele>
        <time>2019-07-11T15:01:13.000Z</time>
      </trkpt>
      <trkpt lat="43.63609394989907741546630859375" lon="-5.84377211518585681915283203125">
        <ele>78.40000152587890625</ele>
        <time>2019-07-11T15:01:14.000Z</time>
      </trkpt>
      <trkpt lat="43.6360425688326358795166015625" lon="-5.84346793591976165771484375">
        <ele>77</ele>
        <time>2019-07-11T15:01:16.000Z</time>
      </trkpt>
      <trkpt lat="43.63599604927003383636474609375" lon="-5.8429095335304737091064453125">
        <ele>76</ele>
        <time>2019-07-11T15:01:19.000Z</time>
      </trkpt>
      <trkpt lat="43.6360160820186138153076171875" lon="-5.84237032569944858551025390625">
        <ele>72.59999847412109375</ele>
        <time>2019-07-11T15:01:21.000Z</time>
      </trkpt>
      <trkpt lat="43.6360323429107666015625" lon="-5.84206958301365375518798828125">
        <ele>67.8000030517578125</ele>
        <time>2019-07-11T15:01:22.000Z</time>
      </trkpt>
      <trkpt lat="43.6360417306423187255859375" lon="-5.84178007207810878753662109375">
        <ele>61.799999237060546875</ele>
        <time>2019-07-11T15:01:23.000Z</time>
      </trkpt>
      <trkpt lat="43.636050783097743988037109375" lon="-5.8415121026337146759033203125">
        <ele>55</ele>
        <time>2019-07-11T15:01:24.000Z</time>
      </trkpt>
      <trkpt lat="43.63606343977153301239013671875" lon="-5.84127447567880153656005859375">
        <ele>50</ele>
        <time>2019-07-11T15:01:25.000Z</time>
      </trkpt>
      <trkpt lat="43.63607651554048061370849609375" lon="-5.8410604856908321380615234375">
        <ele>47.40000152587890625</ele>
        <time>2019-07-11T15:01:26.000Z</time>
      </trkpt>
      <trkpt lat="43.6360980570316314697265625" lon="-5.84085940383374691009521484375">
        <ele>45.59999847412109375</ele>
        <time>2019-07-11T15:01:27.000Z</time>
      </trkpt>
      <trkpt lat="43.63613870926201343536376953125" lon="-5.84067248739302158355712890625">
        <ele>44.59999847412109375</ele>
        <time>2019-07-11T15:01:28.000Z</time>
      </trkpt>
      <trkpt lat="43.63620065152645111083984375" lon="-5.8405025862157344818115234375">
        <ele>45.200000762939453125</ele>
        <time>2019-07-11T15:01:29.000Z</time>
      </trkpt>
      <trkpt lat="43.6363976262509822845458984375" lon="-5.84023143164813518524169921875">
        <ele>45.799999237060546875</ele>
        <time>2019-07-11T15:01:31.000Z</time>
      </trkpt>
      <trkpt lat="43.63679501228034496307373046875" lon="-5.83993521519005298614501953125">
        <ele>43.799999237060546875</ele>
        <time>2019-07-11T15:01:34.000Z</time>
      </trkpt>
      <trkpt lat="43.63692224957048892974853515625" lon="-5.8398194611072540283203125">
        <ele>42.200000762939453125</ele>
        <time>2019-07-11T15:01:35.000Z</time>
      </trkpt>
      <trkpt lat="43.6370376683771610260009765625" lon="-5.83967856131494045257568359375">
        <ele>40.799999237060546875</ele>
        <time>2019-07-11T15:01:36.000Z</time>
      </trkpt>
      <trkpt lat="43.63713816739618778228759765625" lon="-5.83950723521411418914794921875">
        <ele>39.59999847412109375</ele>
        <time>2019-07-11T15:01:37.000Z</time>
      </trkpt>
      <trkpt lat="43.63722517155110836029052734375" lon="-5.83930623717606067657470703125">
        <ele>38.200000762939453125</ele>
        <time>2019-07-11T15:01:38.000Z</time>
      </trkpt>
      <trkpt lat="43.6373052187263965606689453125" lon="-5.83908830769360065460205078125">
        <ele>36</ele>
        <time>2019-07-11T15:01:39.000Z</time>
      </trkpt>
      <trkpt lat="43.63737990148365497589111328125" lon="-5.8388637565076351165771484375">
        <ele>33.40000152587890625</ele>
        <time>2019-07-11T15:01:40.000Z</time>
      </trkpt>
      <trkpt lat="43.63745667971670627593994140625" lon="-5.8386327512562274932861328125">
        <ele>31</ele>
        <time>2019-07-11T15:01:41.000Z</time>
      </trkpt>
      <trkpt lat="43.6375342123210430145263671875" lon="-5.83840182982385158538818359375">
        <ele>29.799999237060546875</ele>
        <time>2019-07-11T15:01:42.000Z</time>
      </trkpt>
      <trkpt lat="43.63761551678180694580078125" lon="-5.8381683938205242156982421875">
        <ele>28.3999996185302734375</ele>
        <time>2019-07-11T15:01:43.000Z</time>
      </trkpt>
      <trkpt lat="43.6376966536045074462890625" lon="-5.83793562836945056915283203125">
        <ele>27</ele>
        <time>2019-07-11T15:01:44.000Z</time>
      </trkpt>
      <trkpt lat="43.637833110988140106201171875" lon="-5.83750404417514801025390625">
        <ele>27</ele>
        <time>2019-07-11T15:01:46.000Z</time>
      </trkpt>
      <trkpt lat="43.637884072959423065185546875" lon="-5.83709341473877429962158203125">
        <ele>30</ele>
        <time>2019-07-11T15:01:48.000Z</time>
      </trkpt>
      <trkpt lat="43.63787434995174407958984375" lon="-5.83688822574913501739501953125">
        <ele>32</ele>
        <time>2019-07-11T15:01:49.000Z</time>
      </trkpt>
      <trkpt lat="43.6378436721861362457275390625" lon="-5.8366851322352886199951171875">
        <ele>35</ele>
        <time>2019-07-11T15:01:50.000Z</time>
      </trkpt>
      <trkpt lat="43.6378074623644351959228515625" lon="-5.836475752294063568115234375">
        <ele>38.200000762939453125</ele>
        <time>2019-07-11T15:01:51.000Z</time>
      </trkpt>
      <trkpt lat="43.637773096561431884765625" lon="-5.83625522442162036895751953125">
        <ele>40.200000762939453125</ele>
        <time>2019-07-11T15:01:52.000Z</time>
      </trkpt>
      <trkpt lat="43.63775038160383701324462890625" lon="-5.83602069877088069915771484375">
        <ele>41.40000152587890625</ele>
        <time>2019-07-11T15:01:53.000Z</time>
      </trkpt>
      <trkpt lat="43.63776714541018009185791015625" lon="-5.83552180789411067962646484375">
        <ele>42.59999847412109375</ele>
        <time>2019-07-11T15:01:55.000Z</time>
      </trkpt>
      <trkpt lat="43.6379264853894710540771484375" lon="-5.8347686938941478729248046875">
        <ele>43.200000762939453125</ele>
        <time>2019-07-11T15:01:58.000Z</time>
      </trkpt>
      <trkpt lat="43.6380334384739398956298828125" lon="-5.83434683270752429962158203125">
        <ele>44.200000762939453125</ele>
        <time>2019-07-11T15:02:00.000Z</time>
      </trkpt>
      <trkpt lat="43.63807744346559047698974609375" lon="-5.83416276611387729644775390625">
        <ele>45.799999237060546875</ele>
        <time>2019-07-11T15:02:01.000Z</time>
      </trkpt>
      <trkpt lat="43.6381048522889614105224609375" lon="-5.83398389630019664764404296875">
        <ele>48.59999847412109375</ele>
        <time>2019-07-11T15:02:02.000Z</time>
      </trkpt>
      <trkpt lat="43.63810929469764232635498046875" lon="-5.83379991352558135986328125">
        <ele>51.40000152587890625</ele>
        <time>2019-07-11T15:02:03.000Z</time>
      </trkpt>
      <trkpt lat="43.63808465190231800079345703125" lon="-5.8336235582828521728515625">
        <ele>53.799999237060546875</ele>
        <time>2019-07-11T15:02:04.000Z</time>
      </trkpt>
      <trkpt lat="43.6380260623991489410400390625" lon="-5.83346874453127384185791015625">
        <ele>55.799999237060546875</ele>
        <time>2019-07-11T15:02:05.000Z</time>
      </trkpt>
      <trkpt lat="43.6379378847777843475341796875" lon="-5.83334662020206451416015625">
        <ele>57.40000152587890625</ele>
        <time>2019-07-11T15:02:06.000Z</time>
      </trkpt>
      <trkpt lat="43.63783277571201324462890625" lon="-5.8332606218755245208740234375">
        <ele>59.200000762939453125</ele>
        <time>2019-07-11T15:02:07.000Z</time>
      </trkpt>
      <trkpt lat="43.63770126365125179290771484375" lon="-5.83322667516767978668212890625">
        <ele>61</ele>
        <time>2019-07-11T15:02:08.000Z</time>
      </trkpt>
      <trkpt lat="43.63756447099149227142333984375" lon="-5.83323120139539241790771484375">
        <ele>62.59999847412109375</ele>
        <time>2019-07-11T15:02:09.000Z</time>
      </trkpt>
      <trkpt lat="43.6374316178262233734130859375" lon="-5.833249725401401519775390625">
        <ele>64.40000152587890625</ele>
        <time>2019-07-11T15:02:10.000Z</time>
      </trkpt>
      <trkpt lat="43.63730111159384250640869140625" lon="-5.8332612924277782440185546875">
        <ele>65.8000030517578125</ele>
        <time>2019-07-11T15:02:11.000Z</time>
      </trkpt>
      <trkpt lat="43.6371727846562862396240234375" lon="-5.83325064741075038909912109375">
        <ele>67.59999847412109375</ele>
        <time>2019-07-11T15:02:12.000Z</time>
      </trkpt>
      <trkpt lat="43.63705166615545749664306640625" lon="-5.83320538513362407684326171875">
        <ele>69</ele>
        <time>2019-07-11T15:02:13.000Z</time>
      </trkpt>
      <trkpt lat="43.63694362342357635498046875" lon="-5.83311921916902065277099609375">
        <ele>70.1999969482421875</ele>
        <time>2019-07-11T15:02:14.000Z</time>
      </trkpt>
      <trkpt lat="43.63685913383960723876953125" lon="-5.83299349062144756317138671875">
        <ele>71.1999969482421875</ele>
        <time>2019-07-11T15:02:15.000Z</time>
      </trkpt>
      <trkpt lat="43.63680121488869190216064453125" lon="-5.83283574320375919342041015625">
        <ele>72</ele>
        <time>2019-07-11T15:02:16.000Z</time>
      </trkpt>
      <trkpt lat="43.63677506335079669952392578125" lon="-5.83265217952430248260498046875">
        <ele>73.1999969482421875</ele>
        <time>2019-07-11T15:02:17.000Z</time>
      </trkpt>
      <trkpt lat="43.63676735199987888336181640625" lon="-5.83245989866554737091064453125">
        <ele>74.40000152587890625</ele>
        <time>2019-07-11T15:02:18.000Z</time>
      </trkpt>
      <trkpt lat="43.6367858760058879852294921875" lon="-5.8322645165026187896728515625">
        <ele>76</ele>
        <time>2019-07-11T15:02:19.000Z</time>
      </trkpt>
      <trkpt lat="43.63683491013944149017333984375" lon="-5.83206452429294586181640625">
        <ele>77.1999969482421875</ele>
        <time>2019-07-11T15:02:20.000Z</time>
      </trkpt>
      <trkpt lat="43.63694873638451099395751953125" lon="-5.831665880978107452392578125">
        <ele>78.59999847412109375</ele>
        <time>2019-07-11T15:02:22.000Z</time>
      </trkpt>
      <trkpt lat="43.6370448768138885498046875" lon="-5.8312620408833026885986328125">
        <ele>80.1999969482421875</ele>
        <time>2019-07-11T15:02:24.000Z</time>
      </trkpt>
      <trkpt lat="43.6370782367885112762451171875" lon="-5.83105324767529964447021484375">
        <ele>81.40000152587890625</ele>
        <time>2019-07-11T15:02:25.000Z</time>
      </trkpt>
      <trkpt lat="43.63709609024226665496826171875" lon="-5.8308436162769794464111328125">
        <ele>82.59999847412109375</ele>
        <time>2019-07-11T15:02:26.000Z</time>
      </trkpt>
      <trkpt lat="43.6370956711471080780029296875" lon="-5.83063490688800811767578125">
        <ele>83.59999847412109375</ele>
        <time>2019-07-11T15:02:27.000Z</time>
      </trkpt>
      <trkpt lat="43.63707773387432098388671875" lon="-5.83042946644127368927001953125">
        <ele>85</ele>
        <time>2019-07-11T15:02:28.000Z</time>
      </trkpt>
      <trkpt lat="43.63703808747231960296630859375" lon="-5.83022997714579105377197265625">
        <ele>86.1999969482421875</ele>
        <time>2019-07-11T15:02:29.000Z</time>
      </trkpt>
      <trkpt lat="43.6369749717414379119873046875" lon="-5.83003635518252849578857421875">
        <ele>87.1999969482421875</ele>
        <time>2019-07-11T15:02:30.000Z</time>
      </trkpt>
      <trkpt lat="43.6367225088179111480712890625" lon="-5.8294606022536754608154296875">
        <ele>88.1999969482421875</ele>
        <time>2019-07-11T15:02:33.000Z</time>
      </trkpt>
      <trkpt lat="43.63663692958652973175048828125" lon="-5.82903304137289524078369140625">
        <ele>87</ele>
        <time>2019-07-11T15:02:35.000Z</time>
      </trkpt>
      <trkpt lat="43.6366809345781803131103515625" lon="-5.82863020710647106170654296875">
        <ele>86.1999969482421875</ele>
        <time>2019-07-11T15:02:37.000Z</time>
      </trkpt>
      <trkpt lat="43.636901043355464935302734375" lon="-5.82801748998463153839111328125">
        <ele>86.59999847412109375</ele>
        <time>2019-07-11T15:02:41.000Z</time>
      </trkpt>
      <trkpt lat="43.6371758021414279937744140625" lon="-5.8274392224848270416259765625">
        <ele>87.8000030517578125</ele>
        <time>2019-07-11T15:02:45.000Z</time>
      </trkpt>
      <trkpt lat="43.637313432991504669189453125" lon="-5.8271401561796665191650390625">
        <ele>89</ele>
        <time>2019-07-11T15:02:47.000Z</time>
      </trkpt>
      <trkpt lat="43.63737219013273715972900390625" lon="-5.82697712816298007965087890625">
        <ele>88.59999847412109375</ele>
        <time>2019-07-11T15:02:48.000Z</time>
      </trkpt>
      <trkpt lat="43.6374525725841522216796875" lon="-5.8266379125416278839111328125">
        <ele>88.1999969482421875</ele>
        <time>2019-07-11T15:02:50.000Z</time>
      </trkpt>
      <trkpt lat="43.63747595809400081634521484375" lon="-5.82590759731829166412353515625">
        <ele>88.1999969482421875</ele>
        <time>2019-07-11T15:02:54.000Z</time>
      </trkpt>
      <trkpt lat="43.63734218291938304901123046875" lon="-5.82519832067191600799560546875">
        <ele>88.8000030517578125</ele>
        <time>2019-07-11T15:02:58.000Z</time>
      </trkpt>
      <trkpt lat="43.63716381601989269256591796875" lon="-5.82451905123889446258544921875">
        <ele>88.8000030517578125</ele>
        <time>2019-07-11T15:03:03.000Z</time>
      </trkpt>
      <trkpt lat="43.637115620076656341552734375" lon="-5.824405141174793243408203125">
        <ele>89</ele>
        <time>2019-07-11T15:03:04.000Z</time>
      </trkpt>
      <trkpt lat="43.63699332810938358306884765625" lon="-5.82420808263123035430908203125">
        <ele>89</ele>
        <time>2019-07-11T15:03:06.000Z</time>
      </trkpt>
      <trkpt lat="43.636744134128093719482421875" lon="-5.82398193888366222381591796875">
        <ele>88.8000030517578125</ele>
        <time>2019-07-11T15:03:09.000Z</time>
      </trkpt>
      <trkpt lat="43.636588566005229949951171875" lon="-5.82377423532307147979736328125">
        <ele>87.8000030517578125</ele>
        <time>2019-07-11T15:03:11.000Z</time>
      </trkpt>
      <trkpt lat="43.636458478868007659912109375" lon="-5.8234963752329349517822265625">
        <ele>86.59999847412109375</ele>
        <time>2019-07-11T15:03:13.000Z</time>
      </trkpt>
      <trkpt lat="43.636292852461338043212890625" lon="-5.82298457622528076171875">
        <ele>85.40000152587890625</ele>
        <time>2019-07-11T15:03:16.000Z</time>
      </trkpt>
      <trkpt lat="43.63618983887135982513427734375" lon="-5.82259104587137699127197265625">
        <ele>84.1999969482421875</ele>
        <time>2019-07-11T15:03:18.000Z</time>
      </trkpt>
      <trkpt lat="43.6361491866409778594970703125" lon="-5.82237906754016876220703125">
        <ele>83.1999969482421875</ele>
        <time>2019-07-11T15:03:19.000Z</time>
      </trkpt>
      <trkpt lat="43.6361263878643512725830078125" lon="-5.82215468399226665496826171875">
        <ele>81.59999847412109375</ele>
        <time>2019-07-11T15:03:20.000Z</time>
      </trkpt>
      <trkpt lat="43.63612026907503604888916015625" lon="-5.8219225890934467315673828125">
        <ele>77.59999847412109375</ele>
        <time>2019-07-11T15:03:21.000Z</time>
      </trkpt>
      <trkpt lat="43.63612177781760692596435546875" lon="-5.821691416203975677490234375">
        <ele>71.59999847412109375</ele>
        <time>2019-07-11T15:03:22.000Z</time>
      </trkpt>
      <trkpt lat="43.63612446002662181854248046875" lon="-5.82146183587610721588134765625">
        <ele>66.40000152587890625</ele>
        <time>2019-07-11T15:03:23.000Z</time>
      </trkpt>
      <trkpt lat="43.63612554967403411865234375" lon="-5.82123032771050930023193359375">
        <ele>62.799999237060546875</ele>
        <time>2019-07-11T15:03:24.000Z</time>
      </trkpt>
      <trkpt lat="43.63612689077854156494140625" lon="-5.82099546678364276885986328125">
        <ele>60.799999237060546875</ele>
        <time>2019-07-11T15:03:25.000Z</time>
      </trkpt>
      <trkpt lat="43.6361273936927318572998046875" lon="-5.8207578398287296295166015625">
        <ele>59</ele>
        <time>2019-07-11T15:03:26.000Z</time>
      </trkpt>
      <trkpt lat="43.636120855808258056640625" lon="-5.82051635719835758209228515625">
        <ele>57</ele>
        <time>2019-07-11T15:03:27.000Z</time>
      </trkpt>
      <trkpt lat="43.6361029185354709625244140625" lon="-5.820273198187351226806640625">
        <ele>54.799999237060546875</ele>
        <time>2019-07-11T15:03:28.000Z</time>
      </trkpt>
      <trkpt lat="43.636077605187892913818359375" lon="-5.820031464099884033203125">
        <ele>51.59999847412109375</ele>
        <time>2019-07-11T15:03:29.000Z</time>
      </trkpt>
      <trkpt lat="43.636050112545490264892578125" lon="-5.81979199312627315521240234375">
        <ele>48.59999847412109375</ele>
        <time>2019-07-11T15:03:30.000Z</time>
      </trkpt>
      <trkpt lat="43.63602438010275363922119140625" lon="-5.81955595873296260833740234375">
        <ele>46.40000152587890625</ele>
        <time>2019-07-11T15:03:31.000Z</time>
      </trkpt>
      <trkpt lat="43.63600040785968303680419921875" lon="-5.819328725337982177734375">
        <ele>45</ele>
        <time>2019-07-11T15:03:32.000Z</time>
      </trkpt>
      <trkpt lat="43.63598112948238849639892578125" lon="-5.81911054439842700958251953125">
        <ele>44</ele>
        <time>2019-07-11T15:03:33.000Z</time>
      </trkpt>
      <trkpt lat="43.6359808780252933502197265625" lon="-5.8189004100859165191650390625">
        <ele>43</ele>
        <time>2019-07-11T15:03:34.000Z</time>
      </trkpt>
      <trkpt lat="43.63603929989039897918701171875" lon="-5.8185084722936153411865234375">
        <ele>41</ele>
        <time>2019-07-11T15:03:36.000Z</time>
      </trkpt>
      <trkpt lat="43.6360605061054229736328125" lon="-5.818325243890285491943359375">
        <ele>40.40000152587890625</ele>
        <time>2019-07-11T15:03:37.000Z</time>
      </trkpt>
      <trkpt lat="43.6360583268105983734130859375" lon="-5.81814930774271488189697265625">
        <ele>39.799999237060546875</ele>
        <time>2019-07-11T15:03:38.000Z</time>
      </trkpt>
      <trkpt lat="43.63603041507303714752197265625" lon="-5.81798829138278961181640625">
        <ele>39.59999847412109375</ele>
        <time>2019-07-11T15:03:39.000Z</time>
      </trkpt>
      <trkpt lat="43.6359178461134433746337890625" lon="-5.8177336491644382476806640625">
        <ele>39.200000762939453125</ele>
        <time>2019-07-11T15:03:41.000Z</time>
      </trkpt>
      <trkpt lat="43.63550520502030849456787109375" lon="-5.81735000945627689361572265625">
        <ele>39.799999237060546875</ele>
        <time>2019-07-11T15:03:46.000Z</time>
      </trkpt>
      <trkpt lat="43.63514947704970836639404296875" lon="-5.81694633699953556060791015625">
        <ele>39</ele>
        <time>2019-07-11T15:03:50.000Z</time>
      </trkpt>
      <trkpt lat="43.63507001660764217376708984375" lon="-5.8168200217187404632568359375">
        <ele>37.799999237060546875</ele>
        <time>2019-07-11T15:03:51.000Z</time>
      </trkpt>
      <trkpt lat="43.63499860279262065887451171875" lon="-5.81668029539287090301513671875">
        <ele>35.799999237060546875</ele>
        <time>2019-07-11T15:03:52.000Z</time>
      </trkpt>
      <trkpt lat="43.63493557088077068328857421875" lon="-5.816526822745800018310546875">
        <ele>34</ele>
        <time>2019-07-11T15:03:53.000Z</time>
      </trkpt>
      <trkpt lat="43.63488242961466312408447265625" lon="-5.8163593523204326629638671875">
        <ele>32.40000152587890625</ele>
        <time>2019-07-11T15:03:54.000Z</time>
      </trkpt>
      <trkpt lat="43.6348399333655834197998046875" lon="-5.81617855466902256011962890625">
        <ele>31.3999996185302734375</ele>
        <time>2019-07-11T15:03:55.000Z</time>
      </trkpt>
      <trkpt lat="43.63478302024304866790771484375" lon="-5.81578619778156280517578125">
        <ele>29.200000762939453125</ele>
        <time>2019-07-11T15:03:57.000Z</time>
      </trkpt>
      <trkpt lat="43.634759970009326934814453125" lon="-5.8155831880867481231689453125">
        <ele>27.3999996185302734375</ele>
        <time>2019-07-11T15:03:58.000Z</time>
      </trkpt>
      <trkpt lat="43.63473071716725826263427734375" lon="-5.8153803460299968719482421875">
        <ele>25.200000762939453125</ele>
        <time>2019-07-11T15:03:59.000Z</time>
      </trkpt>
      <trkpt lat="43.6346873827278614044189453125" lon="-5.81517993472516536712646484375">
        <ele>23.6000003814697265625</ele>
        <time>2019-07-11T15:04:00.000Z</time>
      </trkpt>
      <trkpt lat="43.63462485373020172119140625" lon="-5.81498547457158565521240234375">
        <ele>22.200000762939453125</ele>
        <time>2019-07-11T15:04:01.000Z</time>
      </trkpt>
      <trkpt lat="43.63446392118930816650390625" lon="-5.8145968057215213775634765625">
        <ele>20</ele>
        <time>2019-07-11T15:04:03.000Z</time>
      </trkpt>
      <trkpt lat="43.63437616266310214996337890625" lon="-5.814393796026706695556640625">
        <ele>18.6000003814697265625</ele>
        <time>2019-07-11T15:04:04.000Z</time>
      </trkpt>
      <trkpt lat="43.634287230670452117919921875" lon="-5.81418382935225963592529296875">
        <ele>17</ele>
        <time>2019-07-11T15:04:05.000Z</time>
      </trkpt>
      <trkpt lat="43.63410961814224720001220703125" lon="-5.81376381218433380126953125">
        <ele>14.19999980926513671875</ele>
        <time>2019-07-11T15:04:07.000Z</time>
      </trkpt>
      <trkpt lat="43.6340228654444217681884765625" lon="-5.813560970127582550048828125">
        <ele>12.80000019073486328125</ele>
        <time>2019-07-11T15:04:08.000Z</time>
      </trkpt>
      <trkpt lat="43.63393946550786495208740234375" lon="-5.8133673481643199920654296875">
        <ele>11.80000019073486328125</ele>
        <time>2019-07-11T15:04:09.000Z</time>
      </trkpt>
      <trkpt lat="43.63386168144643306732177734375" lon="-5.81318981945514678955078125">
        <ele>10.6000003814697265625</ele>
        <time>2019-07-11T15:04:10.000Z</time>
      </trkpt>
      <trkpt lat="43.6336611025035381317138671875" lon="-5.81280760467052459716796875">
        <ele>10.3999996185302734375</ele>
        <time>2019-07-11T15:04:13.000Z</time>
      </trkpt>
      <trkpt lat="43.63352254964411258697509765625" lon="-5.812660418450832366943359375">
        <ele>12.3999996185302734375</ele>
        <time>2019-07-11T15:04:15.000Z</time>
      </trkpt>
      <trkpt lat="43.63335105590522289276123046875" lon="-5.81256159581243991851806640625">
        <ele>14</ele>
        <time>2019-07-11T15:04:17.000Z</time>
      </trkpt>
      <trkpt lat="43.63279785029590129852294921875" lon="-5.8125038444995880126953125">
        <ele>14.6000003814697265625</ele>
        <time>2019-07-11T15:04:22.000Z</time>
      </trkpt>
      <trkpt lat="43.63242435269057750701904296875" lon="-5.81251516006886959075927734375">
        <ele>15.6000003814697265625</ele>
        <time>2019-07-11T15:04:25.000Z</time>
      </trkpt>
      <trkpt lat="43.6322961933910846710205078125" lon="-5.812514908611774444580078125">
        <ele>16.6000003814697265625</ele>
        <time>2019-07-11T15:04:26.000Z</time>
      </trkpt>
      <trkpt lat="43.6321674473583698272705078125" lon="-5.81251549534499645233154296875">
        <ele>18</ele>
        <time>2019-07-11T15:04:27.000Z</time>
      </trkpt>
      <trkpt lat="43.63191439770162105560302734375" lon="-5.81251834519207477569580078125">
        <ele>19.200000762939453125</ele>
        <time>2019-07-11T15:04:29.000Z</time>
      </trkpt>
      <trkpt lat="43.63139203749597072601318359375" lon="-5.81252069212496280670166015625">
        <ele>18.799999237060546875</ele>
        <time>2019-07-11T15:04:33.000Z</time>
      </trkpt>
      <trkpt lat="43.63110386766493320465087890625" lon="-5.81252639181911945343017578125">
        <ele>17.3999996185302734375</ele>
        <time>2019-07-11T15:04:35.000Z</time>
      </trkpt>
      <trkpt lat="43.63095165230333805084228515625" lon="-5.8125234581530094146728515625">
        <ele>15.80000019073486328125</ele>
        <time>2019-07-11T15:04:36.000Z</time>
      </trkpt>
      <trkpt lat="43.6306464672088623046875" lon="-5.81251767463982105255126953125">
        <ele>13.3999996185302734375</ele>
        <time>2019-07-11T15:04:38.000Z</time>
      </trkpt>
      <trkpt lat="43.630496598780155181884765625" lon="-5.81251767463982105255126953125">
        <ele>12.3999996185302734375</ele>
        <time>2019-07-11T15:04:39.000Z</time>
      </trkpt>
      <trkpt lat="43.63005462102591991424560546875" lon="-5.8125130645930767059326171875">
        <ele>11.80000019073486328125</ele>
        <time>2019-07-11T15:04:42.000Z</time>
      </trkpt>
      <trkpt lat="43.62956763245165348052978515625" lon="-5.81251256167888641357421875">
        <ele>11.6000003814697265625</ele>
        <time>2019-07-11T15:04:45.000Z</time>
      </trkpt>
      <trkpt lat="43.629114925861358642578125" lon="-5.8125103823840618133544921875">
        <ele>11.19999980926513671875</ele>
        <time>2019-07-11T15:04:48.000Z</time>
      </trkpt>
      <trkpt lat="43.628583848476409912109375" lon="-5.812503509223461151123046875">
        <ele>13</ele>
        <time>2019-07-11T15:04:53.000Z</time>
      </trkpt>
      <trkpt lat="43.62840690650045871734619140625" lon="-5.81250325776636600494384765625">
        <ele>14.80000019073486328125</ele>
        <time>2019-07-11T15:04:55.000Z</time>
      </trkpt>
      <trkpt lat="43.62813281826674938201904296875" lon="-5.81249889917671680450439453125">
        <ele>16</ele>
        <time>2019-07-11T15:04:58.000Z</time>
      </trkpt>
      <trkpt lat="43.62770215608179569244384765625" lon="-5.812496133148670196533203125">
        <ele>17</ele>
        <time>2019-07-11T15:05:03.000Z</time>
      </trkpt>
      <trkpt lat="43.6271527223289012908935546875" lon="-5.81249755807220935821533203125">
        <ele>16.799999237060546875</ele>
        <time>2019-07-11T15:05:09.000Z</time>
      </trkpt>
      <trkpt lat="43.626679144799709320068359375" lon="-5.81246352754533290863037109375">
        <ele>16</ele>
        <time>2019-07-11T15:05:13.000Z</time>
      </trkpt>
      <trkpt lat="43.6264523304998874664306640625" lon="-5.81236101686954498291015625">
        <ele>15.3999996185302734375</ele>
        <time>2019-07-11T15:05:15.000Z</time>
      </trkpt>
      <trkpt lat="43.62626013346016407012939453125" lon="-5.81220217980444431304931640625">
        <ele>15</ele>
        <time>2019-07-11T15:05:17.000Z</time>
      </trkpt>
      <trkpt lat="43.6258806847035884857177734375" lon="-5.81170613877475261688232421875">
        <ele>15.19999980926513671875</ele>
        <time>2019-07-11T15:05:22.000Z</time>
      </trkpt>
      <trkpt lat="43.62573576159775257110595703125" lon="-5.81149826757609844207763671875">
        <ele>16.3999996185302734375</ele>
        <time>2019-07-11T15:05:24.000Z</time>
      </trkpt>
      <trkpt lat="43.62559779547154903411865234375" lon="-5.8112812601029872894287109375">
        <ele>18</ele>
        <time>2019-07-11T15:05:26.000Z</time>
      </trkpt>
      <trkpt lat="43.62548631615936756134033203125" lon="-5.81103734672069549560546875">
        <ele>18.6000003814697265625</ele>
        <time>2019-07-11T15:05:28.000Z</time>
      </trkpt>
      <trkpt lat="43.62542764283716678619384765625" lon="-5.8107330836355686187744140625">
        <ele>19.200000762939453125</ele>
        <time>2019-07-11T15:05:30.000Z</time>
      </trkpt>
      <trkpt lat="43.6254706420004367828369140625" lon="-5.8104063570499420166015625">
        <ele>18.6000003814697265625</ele>
        <time>2019-07-11T15:05:32.000Z</time>
      </trkpt>
      <trkpt lat="43.6255303211510181427001953125" lon="-5.8102516271173954010009765625">
        <ele>18</ele>
        <time>2019-07-11T15:05:33.000Z</time>
      </trkpt>
      <trkpt lat="43.6258153058588504791259765625" lon="-5.80962792970240116119384765625">
        <ele>17</ele>
        <time>2019-07-11T15:05:37.000Z</time>
      </trkpt>
      <trkpt lat="43.625881858170032501220703125" lon="-5.80947655253112316131591796875">
        <ele>16.799999237060546875</ele>
        <time>2019-07-11T15:05:38.000Z</time>
      </trkpt>
      <trkpt lat="43.62599744461476802825927734375" lon="-5.80917027778923511505126953125">
        <ele>18.799999237060546875</ele>
        <time>2019-07-11T15:05:40.000Z</time>
      </trkpt>
      <trkpt lat="43.62602443434298038482666015625" lon="-5.8090151287615299224853515625">
        <ele>19.799999237060546875</ele>
        <time>2019-07-11T15:05:41.000Z</time>
      </trkpt>
      <trkpt lat="43.6260245181620121002197265625" lon="-5.80886903218924999237060546875">
        <ele>21.200000762939453125</ele>
        <time>2019-07-11T15:05:42.000Z</time>
      </trkpt>
      <trkpt lat="43.62599928863346576690673828125" lon="-5.80873743630945682525634765625">
        <ele>22.3999996185302734375</ele>
        <time>2019-07-11T15:05:43.000Z</time>
      </trkpt>
      <trkpt lat="43.6259477399289608001708984375" lon="-5.80862796865403652191162109375">
        <ele>23</ele>
        <time>2019-07-11T15:05:44.000Z</time>
      </trkpt>
      <trkpt lat="43.62578689120709896087646484375" lon="-5.8084920980036258697509765625">
        <ele>24.3999996185302734375</ele>
        <time>2019-07-11T15:05:46.000Z</time>
      </trkpt>
      <trkpt lat="43.62568345852196216583251953125" lon="-5.80846510827541351318359375">
        <ele>25.6000003814697265625</ele>
        <time>2019-07-11T15:05:47.000Z</time>
      </trkpt>
      <trkpt lat="43.62556812353432178497314453125" lon="-5.80845479853451251983642578125">
        <ele>27.200000762939453125</ele>
        <time>2019-07-11T15:05:48.000Z</time>
      </trkpt>
      <trkpt lat="43.625341393053531646728515625" lon="-5.80844105221331119537353515625">
        <ele>28.6000003814697265625</ele>
        <time>2019-07-11T15:05:50.000Z</time>
      </trkpt>
      <trkpt lat="43.625040985643863677978515625" lon="-5.80841490067541599273681640625">
        <ele>30.200000762939453125</ele>
        <time>2019-07-11T15:05:53.000Z</time>
      </trkpt>
      <trkpt lat="43.62482381053268909454345703125" lon="-5.8084086142480373382568359375">
        <ele>32</ele>
        <time>2019-07-11T15:05:55.000Z</time>
      </trkpt>
      <trkpt lat="43.62470713444054126739501953125" lon="-5.80840115435421466827392578125">
        <ele>32.799999237060546875</ele>
        <time>2019-07-11T15:05:56.000Z</time>
      </trkpt>
      <trkpt lat="43.6245861835777759552001953125" lon="-5.80838439054787158966064453125">
        <ele>33.799999237060546875</ele>
        <time>2019-07-11T15:05:57.000Z</time>
      </trkpt>
      <trkpt lat="43.6240195669233798980712890625" lon="-5.80832269974052906036376953125">
        <ele>34.799999237060546875</ele>
        <time>2019-07-11T15:06:01.000Z</time>
      </trkpt>
      <trkpt lat="43.6236772499978542327880859375" lon="-5.808289088308811187744140625">
        <ele>33.59999847412109375</ele>
        <time>2019-07-11T15:06:03.000Z</time>
      </trkpt>
      <trkpt lat="43.62349896691739559173583984375" lon="-5.80827291123569011688232421875">
        <ele>32.200000762939453125</ele>
        <time>2019-07-11T15:06:04.000Z</time>
      </trkpt>
      <trkpt lat="43.62313385121524333953857421875" lon="-5.80824357457458972930908203125">
        <ele>30.799999237060546875</ele>
        <time>2019-07-11T15:06:06.000Z</time>
      </trkpt>
      <trkpt lat="43.62255332060158252716064453125" lon="-5.80825413577258586883544921875">
        <ele>31</ele>
        <time>2019-07-11T15:06:09.000Z</time>
      </trkpt>
      <trkpt lat="43.6223515681922435760498046875" lon="-5.808283053338527679443359375">
        <ele>32</ele>
        <time>2019-07-11T15:06:10.000Z</time>
      </trkpt>
      <trkpt lat="43.621939010918140411376953125" lon="-5.80839545466005802154541015625">
        <ele>33.40000152587890625</ele>
        <time>2019-07-11T15:06:12.000Z</time>
      </trkpt>
      <trkpt lat="43.6213105358183383941650390625" lon="-5.8086439780890941619873046875">
        <ele>34</ele>
        <time>2019-07-11T15:06:15.000Z</time>
      </trkpt>
      <trkpt lat="43.62110459245741367340087890625" lon="-5.80872905440628528594970703125">
        <ele>35.200000762939453125</ele>
        <time>2019-07-11T15:06:16.000Z</time>
      </trkpt>
      <trkpt lat="43.6209075339138507843017578125" lon="-5.8088116161525249481201171875">
        <ele>36.40000152587890625</ele>
        <time>2019-07-11T15:06:17.000Z</time>
      </trkpt>
      <trkpt lat="43.62072187475860118865966796875" lon="-5.80888998694717884063720703125">
        <ele>38.40000152587890625</ele>
        <time>2019-07-11T15:06:18.000Z</time>
      </trkpt>
      <trkpt lat="43.62054702825844287872314453125" lon="-5.8089638315141201019287109375">
        <ele>40.200000762939453125</ele>
        <time>2019-07-11T15:06:19.000Z</time>
      </trkpt>
      <trkpt lat="43.62038307823240756988525390625" lon="-5.8090315572917461395263671875">
        <ele>42.200000762939453125</ele>
        <time>2019-07-11T15:06:20.000Z</time>
      </trkpt>
      <trkpt lat="43.62022667191922664642333984375" lon="-5.80909668467938899993896484375">
        <ele>44.200000762939453125</ele>
        <time>2019-07-11T15:06:21.000Z</time>
      </trkpt>
      <trkpt lat="43.62007521092891693115234375" lon="-5.80916105769574642181396484375">
        <ele>46.200000762939453125</ele>
        <time>2019-07-11T15:06:22.000Z</time>
      </trkpt>
      <trkpt lat="43.61992634832859039306640625" lon="-5.809225179255008697509765625">
        <ele>48.200000762939453125</ele>
        <time>2019-07-11T15:06:23.000Z</time>
      </trkpt>
      <trkpt lat="43.61977882683277130126953125" lon="-5.80928779207170009613037109375">
        <ele>50</ele>
        <time>2019-07-11T15:06:24.000Z</time>
      </trkpt>
      <trkpt lat="43.619632311165332794189453125" lon="-5.8093490637838840484619140625">
        <ele>51.799999237060546875</ele>
        <time>2019-07-11T15:06:25.000Z</time>
      </trkpt>
      <trkpt lat="43.61948722042143344879150390625" lon="-5.80940899439156055450439453125">
        <ele>53.59999847412109375</ele>
        <time>2019-07-11T15:06:26.000Z</time>
      </trkpt>
      <trkpt lat="43.61934439279139041900634765625" lon="-5.8094684220850467681884765625">
        <ele>55</ele>
        <time>2019-07-11T15:06:27.000Z</time>
      </trkpt>
      <trkpt lat="43.61920642666518688201904296875" lon="-5.80952499993145465850830078125">
        <ele>56.200000762939453125</ele>
        <time>2019-07-11T15:06:28.000Z</time>
      </trkpt>
      <trkpt lat="43.619072400033473968505859375" lon="-5.80957881174981594085693359375">
        <ele>57.200000762939453125</ele>
        <time>2019-07-11T15:06:29.000Z</time>
      </trkpt>
      <trkpt lat="43.61880426295101642608642578125" lon="-5.80967470072209835052490234375">
        <ele>58.799999237060546875</ele>
        <time>2019-07-11T15:06:31.000Z</time>
      </trkpt>
      <trkpt lat="43.61866780556738376617431640625" lon="-5.80970336683094501495361328125">
        <ele>59.59999847412109375</ele>
        <time>2019-07-11T15:06:32.000Z</time>
      </trkpt>
      <trkpt lat="43.61853050999343395233154296875" lon="-5.8096994273364543914794921875">
        <ele>60.200000762939453125</ele>
        <time>2019-07-11T15:06:33.000Z</time>
      </trkpt>
      <trkpt lat="43.61839883029460906982421875" lon="-5.80966246314346790313720703125">
        <ele>61</ele>
        <time>2019-07-11T15:06:34.000Z</time>
      </trkpt>
      <trkpt lat="43.61827687360346317291259765625" lon="-5.80959926359355449676513671875">
        <ele>61.799999237060546875</ele>
        <time>2019-07-11T15:06:35.000Z</time>
      </trkpt>
      <trkpt lat="43.6181726865470409393310546875" lon="-5.809515528380870819091796875">
        <ele>63</ele>
        <time>2019-07-11T15:06:36.000Z</time>
      </trkpt>
      <trkpt lat="43.61800613813102245330810546875" lon="-5.80930371768772602081298828125">
        <ele>65</ele>
        <time>2019-07-11T15:06:38.000Z</time>
      </trkpt>
      <trkpt lat="43.61794092692434787750244140625" lon="-5.8091814257204532623291015625">
        <ele>66.1999969482421875</ele>
        <time>2019-07-11T15:06:39.000Z</time>
      </trkpt>
      <trkpt lat="43.6176758073270320892333984375" lon="-5.8086201734840869903564453125">
        <ele>66.8000030517578125</ele>
        <time>2019-07-11T15:06:43.000Z</time>
      </trkpt>
      <trkpt lat="43.61753306351602077484130859375" lon="-5.8083088696002960205078125">
        <ele>64.59999847412109375</ele>
        <time>2019-07-11T15:06:45.000Z</time>
      </trkpt>
      <trkpt lat="43.6173834465444087982177734375" lon="-5.80799572169780731201171875">
        <ele>62.59999847412109375</ele>
        <time>2019-07-11T15:06:47.000Z</time>
      </trkpt>
      <trkpt lat="43.6172382719814777374267578125" lon="-5.80767880193889141082763671875">
        <ele>61</ele>
        <time>2019-07-11T15:06:49.000Z</time>
      </trkpt>
      <trkpt lat="43.61710038967430591583251953125" lon="-5.8073781430721282958984375">
        <ele>59.200000762939453125</ele>
        <time>2019-07-11T15:06:51.000Z</time>
      </trkpt>
      <trkpt lat="43.61703467555344104766845703125" lon="-5.8072359859943389892578125">
        <ele>58.200000762939453125</ele>
        <time>2019-07-11T15:06:52.000Z</time>
      </trkpt>
      <trkpt lat="43.61689746379852294921875" lon="-5.8069677650928497314453125">
        <ele>57</ele>
        <time>2019-07-11T15:06:54.000Z</time>
      </trkpt>
      <trkpt lat="43.6168164946138858795166015625" lon="-5.8068452216684818267822265625">
        <ele>56.40000152587890625</ele>
        <time>2019-07-11T15:06:55.000Z</time>
      </trkpt>
      <trkpt lat="43.6167259700596332550048828125" lon="-5.80672980286180973052978515625">
        <ele>55.59999847412109375</ele>
        <time>2019-07-11T15:06:56.000Z</time>
      </trkpt>
      <trkpt lat="43.616528995335102081298828125" lon="-5.80651086755096912384033203125">
        <ele>54.200000762939453125</ele>
        <time>2019-07-11T15:06:58.000Z</time>
      </trkpt>
      <trkpt lat="43.616132698953151702880859375" lon="-5.8061032555997371673583984375">
        <ele>53.40000152587890625</ele>
        <time>2019-07-11T15:07:02.000Z</time>
      </trkpt>
      <trkpt lat="43.6160351336002349853515625" lon="-5.80600208602845668792724609375">
        <ele>53.200000762939453125</ele>
        <time>2019-07-11T15:07:03.000Z</time>
      </trkpt>
      <trkpt lat="43.61573464237153530120849609375" lon="-5.80566756427288055419921875">
        <ele>51.200000762939453125</ele>
        <time>2019-07-11T15:07:06.000Z</time>
      </trkpt>
      <trkpt lat="43.6156328022480010986328125" lon="-5.80554862506687641143798828125">
        <ele>50</ele>
        <time>2019-07-11T15:07:07.000Z</time>
      </trkpt>
      <trkpt lat="43.6155300401151180267333984375" lon="-5.80542406998574733734130859375">
        <ele>48.59999847412109375</ele>
        <time>2019-07-11T15:07:08.000Z</time>
      </trkpt>
      <trkpt lat="43.61542702652513980865478515625" lon="-5.80528962425887584686279296875">
        <ele>47.200000762939453125</ele>
        <time>2019-07-11T15:07:09.000Z</time>
      </trkpt>
      <trkpt lat="43.61532258801162242889404296875" lon="-5.80514344386756420135498046875">
        <ele>45.799999237060546875</ele>
        <time>2019-07-11T15:07:10.000Z</time>
      </trkpt>
      <trkpt lat="43.61522586084902286529541015625" lon="-5.80498150549829006195068359375">
        <ele>44.59999847412109375</ele>
        <time>2019-07-11T15:07:11.000Z</time>
      </trkpt>
      <trkpt lat="43.6151387728750705718994140625" lon="-5.80480481497943401336669921875">
        <ele>43.59999847412109375</ele>
        <time>2019-07-11T15:07:12.000Z</time>
      </trkpt>
      <trkpt lat="43.6150596477091312408447265625" lon="-5.80462158657610416412353515625">
        <ele>42.200000762939453125</ele>
        <time>2019-07-11T15:07:13.000Z</time>
      </trkpt>
      <trkpt lat="43.614986725151538848876953125" lon="-5.80444313585758209228515625">
        <ele>40.59999847412109375</ele>
        <time>2019-07-11T15:07:14.000Z</time>
      </trkpt>
      <trkpt lat="43.61491103656589984893798828125" lon="-5.804278850555419921875">
        <ele>39</ele>
        <time>2019-07-11T15:07:15.000Z</time>
      </trkpt>
      <trkpt lat="43.614733926951885223388671875" lon="-5.80401272512972354888916015625">
        <ele>37.59999847412109375</ele>
        <time>2019-07-11T15:07:17.000Z</time>
      </trkpt>
      <trkpt lat="43.61452245153486728668212890625" lon="-5.80383905209600925445556640625">
        <ele>37.59999847412109375</ele>
        <time>2019-07-11T15:07:19.000Z</time>
      </trkpt>
      <trkpt lat="43.61405323259532451629638671875" lon="-5.8037050254642963409423828125">
        <ele>38.40000152587890625</ele>
        <time>2019-07-11T15:07:23.000Z</time>
      </trkpt>
      <trkpt lat="43.6136092431843280792236328125" lon="-5.803526155650615692138671875">
        <ele>38.40000152587890625</ele>
        <time>2019-07-11T15:07:27.000Z</time>
      </trkpt>
      <trkpt lat="43.61316089518368244171142578125" lon="-5.80319783650338649749755859375">
        <ele>37.40000152587890625</ele>
        <time>2019-07-11T15:07:32.000Z</time>
      </trkpt>
      <trkpt lat="43.6130184866487979888916015625" lon="-5.80309993587434291839599609375">
        <ele>37.200000762939453125</ele>
        <time>2019-07-11T15:07:34.000Z</time>
      </trkpt>
      <trkpt lat="43.612812459468841552734375" lon="-5.80301376990973949432373046875">
        <ele>37.799999237060546875</ele>
        <time>2019-07-11T15:07:37.000Z</time>
      </trkpt>
      <trkpt lat="43.61269913613796234130859375" lon="-5.80287731252610683441162109375">
        <ele>38.59999847412109375</ele>
        <time>2019-07-11T15:07:39.000Z</time>
      </trkpt>
      <trkpt lat="43.61254717223346233367919921875" lon="-5.80256315879523754119873046875">
        <ele>38.799999237060546875</ele>
        <time>2019-07-11T15:07:42.000Z</time>
      </trkpt>
      <trkpt lat="43.6123807914555072784423828125" lon="-5.80237054266035556793212890625">
        <ele>38.200000762939453125</ele>
        <time>2019-07-11T15:07:44.000Z</time>
      </trkpt>
      <trkpt lat="43.61216671764850616455078125" lon="-5.80220726318657398223876953125">
        <ele>37.40000152587890625</ele>
        <time>2019-07-11T15:07:46.000Z</time>
      </trkpt>
      <trkpt lat="43.6119259893894195556640625" lon="-5.80207583494484424591064453125">
        <ele>36</ele>
        <time>2019-07-11T15:07:48.000Z</time>
      </trkpt>
      <trkpt lat="43.61167679540812969207763671875" lon="-5.80197684466838836669921875">
        <ele>35</ele>
        <time>2019-07-11T15:07:50.000Z</time>
      </trkpt>
      <trkpt lat="43.61141863279044628143310546875" lon="-5.80186025239527225494384765625">
        <ele>33.200000762939453125</ele>
        <time>2019-07-11T15:07:52.000Z</time>
      </trkpt>
      <trkpt lat="43.61106575466692447662353515625" lon="-5.801644586026668548583984375">
        <ele>31.799999237060546875</ele>
        <time>2019-07-11T15:07:55.000Z</time>
      </trkpt>
      <trkpt lat="43.61068169586360454559326171875" lon="-5.80130151472985744476318359375">
        <ele>30.799999237060546875</ele>
        <time>2019-07-11T15:07:59.000Z</time>
      </trkpt>
      <trkpt lat="43.61033468507230281829833984375" lon="-5.80081737600266933441162109375">
        <ele>31</ele>
        <time>2019-07-11T15:08:03.000Z</time>
      </trkpt>
      <trkpt lat="43.61010921187698841094970703125" lon="-5.80036156810820102691650390625">
        <ele>29.6000003814697265625</ele>
        <time>2019-07-11T15:08:06.000Z</time>
      </trkpt>
      <trkpt lat="43.609883151948451995849609375" lon="-5.79965178854763507843017578125">
        <ele>28.6000003814697265625</ele>
        <time>2019-07-11T15:08:10.000Z</time>
      </trkpt>
      <trkpt lat="43.60984367318451404571533203125" lon="-5.79945565201342105865478515625">
        <ele>28</ele>
        <time>2019-07-11T15:08:11.000Z</time>
      </trkpt>
      <trkpt lat="43.60976345837116241455078125" lon="-5.79879616387188434600830078125">
        <ele>26.6000003814697265625</ele>
        <time>2019-07-11T15:08:14.000Z</time>
      </trkpt>
      <trkpt lat="43.6097129993140697479248046875" lon="-5.79809912480413913726806640625">
        <ele>25.3999996185302734375</ele>
        <time>2019-07-11T15:08:17.000Z</time>
      </trkpt>
      <trkpt lat="43.609696067869663238525390625" lon="-5.7978658564388751983642578125">
        <ele>24</ele>
        <time>2019-07-11T15:08:18.000Z</time>
      </trkpt>
      <trkpt lat="43.6096435971558094024658203125" lon="-5.797117017209529876708984375">
        <ele>22.799999237060546875</ele>
        <time>2019-07-11T15:08:21.000Z</time>
      </trkpt>
      <trkpt lat="43.6096275039017200469970703125" lon="-5.7968424260616302490234375">
        <ele>21.799999237060546875</ele>
        <time>2019-07-11T15:08:22.000Z</time>
      </trkpt>
      <trkpt lat="43.60962742008268833160400390625" lon="-5.7960825227200984954833984375">
        <ele>20.799999237060546875</ele>
        <time>2019-07-11T15:08:25.000Z</time>
      </trkpt>
      <trkpt lat="43.6096932180225849151611328125" lon="-5.79539177007973194122314453125">
        <ele>22</ele>
        <time>2019-07-11T15:08:28.000Z</time>
      </trkpt>
      <trkpt lat="43.60972724854946136474609375" lon="-5.79516227357089519500732421875">
        <ele>23.200000762939453125</ele>
        <time>2019-07-11T15:08:29.000Z</time>
      </trkpt>
      <trkpt lat="43.60982389189302921295166015625" lon="-5.7944483868777751922607421875">
        <ele>23.200000762939453125</ele>
        <time>2019-07-11T15:08:32.000Z</time>
      </trkpt>
      <trkpt lat="43.6098477803170680999755859375" lon="-5.794199444353580474853515625">
        <ele>21.799999237060546875</ele>
        <time>2019-07-11T15:08:33.000Z</time>
      </trkpt>
      <trkpt lat="43.6098544858396053314208984375" lon="-5.793419592082500457763671875">
        <ele>21.3999996185302734375</ele>
        <time>2019-07-11T15:08:36.000Z</time>
      </trkpt>
      <trkpt lat="43.6097046174108982086181640625" lon="-5.7926345430314540863037109375">
        <ele>21.200000762939453125</ele>
        <time>2019-07-11T15:08:39.000Z</time>
      </trkpt>
      <trkpt lat="43.6094695888459682464599609375" lon="-5.7919232547283172607421875">
        <ele>21.799999237060546875</ele>
        <time>2019-07-11T15:08:42.000Z</time>
      </trkpt>
      <trkpt lat="43.60922391526401042938232421875" lon="-5.7915531098842620849609375">
        <ele>22.6000003814697265625</ele>
        <time>2019-07-11T15:08:44.000Z</time>
      </trkpt>
      <trkpt lat="43.60908142291009426116943359375" lon="-5.79139410518109798431396484375">
        <ele>23.6000003814697265625</ele>
        <time>2019-07-11T15:08:45.000Z</time>
      </trkpt>
      <trkpt lat="43.60894178040325641632080078125" lon="-5.79125764779746532440185546875">
        <ele>24</ele>
        <time>2019-07-11T15:08:46.000Z</time>
      </trkpt>
      <trkpt lat="43.60877900384366512298583984375" lon="-5.7911507785320281982421875">
        <ele>24.799999237060546875</ele>
        <time>2019-07-11T15:08:47.000Z</time>
      </trkpt>
      <trkpt lat="43.60848546959459781646728515625" lon="-5.790931172668933868408203125">
        <ele>26.200000762939453125</ele>
        <time>2019-07-11T15:08:49.000Z</time>
      </trkpt>
      <trkpt lat="43.60834012739360332489013671875" lon="-5.79081751406192779541015625">
        <ele>27.6000003814697265625</ele>
        <time>2019-07-11T15:08:50.000Z</time>
      </trkpt>
      <trkpt lat="43.608194701373577117919921875" lon="-5.79070360399782657623291015625">
        <ele>29.200000762939453125</ele>
        <time>2019-07-11T15:08:51.000Z</time>
      </trkpt>
      <trkpt lat="43.60805631615221500396728515625" lon="-5.79058961011469364166259765625">
        <ele>30.200000762939453125</ele>
        <time>2019-07-11T15:08:52.000Z</time>
      </trkpt>
      <trkpt lat="43.6076631210744380950927734375" lon="-5.79026841558516025543212890625">
        <ele>31.3999996185302734375</ele>
        <time>2019-07-11T15:08:55.000Z</time>
      </trkpt>
      <trkpt lat="43.60727478750050067901611328125" lon="-5.7899077422916889190673828125">
        <ele>32</ele>
        <time>2019-07-11T15:08:58.000Z</time>
      </trkpt>
      <trkpt lat="43.60697454772889614105224609375" lon="-5.78945972956717014312744140625">
        <ele>32.59999847412109375</ele>
        <time>2019-07-11T15:09:02.000Z</time>
      </trkpt>
      <trkpt lat="43.6068430356681346893310546875" lon="-5.7892690412700176239013671875">
        <ele>33.40000152587890625</ele>
        <time>2019-07-11T15:09:04.000Z</time>
      </trkpt>
      <trkpt lat="43.6067627370357513427734375" lon="-5.78919469378888607025146484375">
        <ele>33.799999237060546875</ele>
        <time>2019-07-11T15:09:05.000Z</time>
      </trkpt>
      <trkpt lat="43.60660004429519176483154296875" lon="-5.7890618406236171722412109375">
        <ele>33.799999237060546875</ele>
        <time>2019-07-11T15:09:07.000Z</time>
      </trkpt>
      <trkpt lat="43.60649862326681613922119140625" lon="-5.78886486589908599853515625">
        <ele>33.200000762939453125</ele>
        <time>2019-07-11T15:09:09.000Z</time>
      </trkpt>
      <trkpt lat="43.60651639290153980255126953125" lon="-5.78864467330276966094970703125">
        <ele>33.200000762939453125</ele>
        <time>2019-07-11T15:09:11.000Z</time>
      </trkpt>
      <trkpt lat="43.606735579669475555419921875" lon="-5.7884103991091251373291015625">
        <ele>33</ele>
        <time>2019-07-11T15:09:14.000Z</time>
      </trkpt>
      <trkpt lat="43.6068919859826564788818359375" lon="-5.788186602294445037841796875">
        <ele>33.200000762939453125</ele>
        <time>2019-07-11T15:09:16.000Z</time>
      </trkpt>
      <trkpt lat="43.60707077197730541229248046875" lon="-5.7877358235418796539306640625">
        <ele>33.200000762939453125</ele>
        <time>2019-07-11T15:09:19.000Z</time>
      </trkpt>
      <trkpt lat="43.6071999371051788330078125" lon="-5.7870791852474212646484375">
        <ele>34.799999237060546875</ele>
        <time>2019-07-11T15:09:23.000Z</time>
      </trkpt>
      <trkpt lat="43.60721846111118793487548828125" lon="-5.78690350055694580078125">
        <ele>35.59999847412109375</ele>
        <time>2019-07-11T15:09:24.000Z</time>
      </trkpt>
      <trkpt lat="43.60723187215626239776611328125" lon="-5.786719433963298797607421875">
        <ele>36.799999237060546875</ele>
        <time>2019-07-11T15:09:25.000Z</time>
      </trkpt>
      <trkpt lat="43.6072359792888164520263671875" lon="-5.7865301705896854400634765625">
        <ele>38.200000762939453125</ele>
        <time>2019-07-11T15:09:26.000Z</time>
      </trkpt>
      <trkpt lat="43.60723145306110382080078125" lon="-5.78634317032992839813232421875">
        <ele>39.799999237060546875</ele>
        <time>2019-07-11T15:09:27.000Z</time>
      </trkpt>
      <trkpt lat="43.60720069147646427154541015625" lon="-5.78598576597869396209716796875">
        <ele>41</ele>
        <time>2019-07-11T15:09:29.000Z</time>
      </trkpt>
      <trkpt lat="43.60703640617430210113525390625" lon="-5.7852732203900814056396484375">
        <ele>41.799999237060546875</ele>
        <time>2019-07-11T15:09:33.000Z</time>
      </trkpt>
      <trkpt lat="43.60689022578299045562744140625" lon="-5.7849017344415187835693359375">
        <ele>42</ele>
        <time>2019-07-11T15:09:35.000Z</time>
      </trkpt>
      <trkpt lat="43.606799282133579254150390625" lon="-5.78472546301782131195068359375">
        <ele>42</ele>
        <time>2019-07-11T15:09:36.000Z</time>
      </trkpt>
      <trkpt lat="43.606496192514896392822265625" lon="-5.78424652107059955596923828125">
        <ele>42</ele>
        <time>2019-07-11T15:09:39.000Z</time>
      </trkpt>
      <trkpt lat="43.60618229024112224578857421875" lon="-5.783738829195499420166015625">
        <ele>42</ele>
        <time>2019-07-11T15:09:42.000Z</time>
      </trkpt>
      <trkpt lat="43.6058858223259449005126953125" lon="-5.7832203246653079986572265625">
        <ele>43</ele>
        <time>2019-07-11T15:09:45.000Z</time>
      </trkpt>
      <trkpt lat="43.6049212329089641571044921875" lon="-5.78345141373574733734130859375">
        <ele>44.59999847412109375</ele>
        <time>2019-07-11T15:09:49.000Z</time>
      </trkpt>
      <trkpt lat="43.6043160594999790191650390625" lon="-5.78365660272538661956787109375">
        <ele>45.40000152587890625</ele>
        <time>2019-07-11T15:09:53.000Z</time>
      </trkpt>
      <trkpt lat="43.60398463904857635498046875" lon="-5.7838553376495838165283203125">
        <ele>46.799999237060546875</ele>
        <time>2019-07-11T15:09:55.000Z</time>
      </trkpt>
      <trkpt lat="43.60368582420051097869873046875" lon="-5.78411777503788471221923828125">
        <ele>48.40000152587890625</ele>
        <time>2019-07-11T15:09:57.000Z</time>
      </trkpt>
      <trkpt lat="43.60329723916947841644287109375" lon="-5.7846130616962909698486328125">
        <ele>49.200000762939453125</ele>
        <time>2019-07-11T15:10:00.000Z</time>
      </trkpt>
      <trkpt lat="43.6031777970492839813232421875" lon="-5.7848018221557140350341796875">
        <ele>49.59999847412109375</ele>
        <time>2019-07-11T15:10:01.000Z</time>
      </trkpt>
      <trkpt lat="43.6028331331908702850341796875" lon="-5.78536114655435085296630859375">
        <ele>50.59999847412109375</ele>
        <time>2019-07-11T15:10:04.000Z</time>
      </trkpt>
      <trkpt lat="43.6027110926806926727294921875" lon="-5.78554504550993442535400390625">
        <ele>51.40000152587890625</ele>
        <time>2019-07-11T15:10:05.000Z</time>
      </trkpt>
      <trkpt lat="43.60231001861393451690673828125" lon="-5.786094479262828826904296875">
        <ele>51.200000762939453125</ele>
        <time>2019-07-11T15:10:08.000Z</time>
      </trkpt>
      <trkpt lat="43.6018462479114532470703125" lon="-5.7865844853222370147705078125">
        <ele>50.200000762939453125</ele>
        <time>2019-07-11T15:10:11.000Z</time>
      </trkpt>
      <trkpt lat="43.6015020869672298431396484375" lon="-5.78686888329684734344482421875">
        <ele>49</ele>
        <time>2019-07-11T15:10:13.000Z</time>
      </trkpt>
      <trkpt lat="43.60131986439228057861328125" lon="-5.78699729405343532562255859375">
        <ele>47.799999237060546875</ele>
        <time>2019-07-11T15:10:14.000Z</time>
      </trkpt>
      <trkpt lat="43.6007343046367168426513671875" lon="-5.78731396235525608062744140625">
        <ele>49.40000152587890625</ele>
        <time>2019-07-11T15:10:17.000Z</time>
      </trkpt>
      <trkpt lat="43.6003118567168712615966796875" lon="-5.78745896928012371063232421875">
        <ele>50.799999237060546875</ele>
        <time>2019-07-11T15:10:19.000Z</time>
      </trkpt>
      <trkpt lat="43.600093089044094085693359375" lon="-5.7875128649175167083740234375">
        <ele>52.59999847412109375</ele>
        <time>2019-07-11T15:10:20.000Z</time>
      </trkpt>
      <trkpt lat="43.5996382869780063629150390625" lon="-5.78756994567811489105224609375">
        <ele>53</ele>
        <time>2019-07-11T15:10:22.000Z</time>
      </trkpt>
      <trkpt lat="43.599177114665508270263671875" lon="-5.787554271519184112548828125">
        <ele>51.200000762939453125</ele>
        <time>2019-07-11T15:10:24.000Z</time>
      </trkpt>
      <trkpt lat="43.59873061068356037139892578125" lon="-5.78746550716459751129150390625">
        <ele>49</ele>
        <time>2019-07-11T15:10:26.000Z</time>
      </trkpt>
      <trkpt lat="43.5983095876872539520263671875" lon="-5.7873287983238697052001953125">
        <ele>48.59999847412109375</ele>
        <time>2019-07-11T15:10:28.000Z</time>
      </trkpt>
      <trkpt lat="43.5977654345333576202392578125" lon="-5.78703962266445159912109375">
        <ele>49.40000152587890625</ele>
        <time>2019-07-11T15:10:31.000Z</time>
      </trkpt>
      <trkpt lat="43.59731943346560001373291015625" lon="-5.78670434653759002685546875">
        <ele>48</ele>
        <time>2019-07-11T15:10:34.000Z</time>
      </trkpt>
      <trkpt lat="43.5968836583197116851806640625" lon="-5.78628399409353733062744140625">
        <ele>47</ele>
        <time>2019-07-11T15:10:37.000Z</time>
      </trkpt>
      <trkpt lat="43.59673873521387577056884765625" lon="-5.78611752949655055999755859375">
        <ele>46.799999237060546875</ele>
        <time>2019-07-11T15:10:38.000Z</time>
      </trkpt>
      <trkpt lat="43.5964511521160602569580078125" lon="-5.7857452891767024993896484375">
        <ele>45.40000152587890625</ele>
        <time>2019-07-11T15:10:40.000Z</time>
      </trkpt>
      <trkpt lat="43.5963086597621440887451171875" lon="-5.78554018400609493255615234375">
        <ele>44.40000152587890625</ele>
        <time>2019-07-11T15:10:41.000Z</time>
      </trkpt>
      <trkpt lat="43.5961648263037204742431640625" lon="-5.78532711602747440338134765625">
        <ele>43</ele>
        <time>2019-07-11T15:10:42.000Z</time>
      </trkpt>
      <trkpt lat="43.5960186459124088287353515625" lon="-5.78510985709726810455322265625">
        <ele>41.799999237060546875</ele>
        <time>2019-07-11T15:10:43.000Z</time>
      </trkpt>
      <trkpt lat="43.59587120823562145233154296875" lon="-5.78488706611096858978271484375">
        <ele>40.200000762939453125</ele>
        <time>2019-07-11T15:10:44.000Z</time>
      </trkpt>
      <trkpt lat="43.5957219265401363372802734375" lon="-5.7846606709063053131103515625">
        <ele>39</ele>
        <time>2019-07-11T15:10:45.000Z</time>
      </trkpt>
      <trkpt lat="43.59557130374014377593994140625" lon="-5.7844383828341960906982421875">
        <ele>37.59999847412109375</ele>
        <time>2019-07-11T15:10:46.000Z</time>
      </trkpt>
      <trkpt lat="43.59542009420692920684814453125" lon="-5.7842261530458927154541015625">
        <ele>36.40000152587890625</ele>
        <time>2019-07-11T15:10:47.000Z</time>
      </trkpt>
      <trkpt lat="43.59511063434183597564697265625" lon="-5.7838368974626064300537109375">
        <ele>35.40000152587890625</ele>
        <time>2019-07-11T15:10:49.000Z</time>
      </trkpt>
      <trkpt lat="43.59463186003267765045166015625" lon="-5.7833158783614635467529296875">
        <ele>35.59999847412109375</ele>
        <time>2019-07-11T15:10:52.000Z</time>
      </trkpt>
      <trkpt lat="43.5941105894744396209716796875" lon="-5.7828645966947078704833984375">
        <ele>35.40000152587890625</ele>
        <time>2019-07-11T15:10:55.000Z</time>
      </trkpt>
      <trkpt lat="43.59354824759066104888916015625" lon="-5.78247249126434326171875">
        <ele>34.799999237060546875</ele>
        <time>2019-07-11T15:10:58.000Z</time>
      </trkpt>
      <trkpt lat="43.5929351113736629486083984375" lon="-5.782152973115444183349609375">
        <ele>35.200000762939453125</ele>
        <time>2019-07-11T15:11:01.000Z</time>
      </trkpt>
      <trkpt lat="43.5923029482364654541015625" lon="-5.78192959539592266082763671875">
        <ele>35.59999847412109375</ele>
        <time>2019-07-11T15:11:04.000Z</time>
      </trkpt>
      <trkpt lat="43.5918716154992580413818359375" lon="-5.78182951547205448150634765625">
        <ele>34</ele>
        <time>2019-07-11T15:11:06.000Z</time>
      </trkpt>
      <trkpt lat="43.591233082115650177001953125" lon="-5.78176011331379413604736328125">
        <ele>33.40000152587890625</ele>
        <time>2019-07-11T15:11:09.000Z</time>
      </trkpt>
      <trkpt lat="43.59061290509998798370361328125" lon="-5.7817850075662136077880859375">
        <ele>34.40000152587890625</ele>
        <time>2019-07-11T15:11:12.000Z</time>
      </trkpt>
      <trkpt lat="43.59040805138647556304931640625" lon="-5.78181090764701366424560546875">
        <ele>35.40000152587890625</ele>
        <time>2019-07-11T15:11:13.000Z</time>
      </trkpt>
      <trkpt lat="43.58999817632138729095458984375" lon="-5.781886093318462371826171875">
        <ele>37.200000762939453125</ele>
        <time>2019-07-11T15:11:15.000Z</time>
      </trkpt>
      <trkpt lat="43.5897939093410968780517578125" lon="-5.78193546272814273834228515625">
        <ele>39</ele>
        <time>2019-07-11T15:11:16.000Z</time>
      </trkpt>
      <trkpt lat="43.58958779834210872650146484375" lon="-5.78199380077421665191650390625">
        <ele>40.59999847412109375</ele>
        <time>2019-07-11T15:11:17.000Z</time>
      </trkpt>
      <trkpt lat="43.58938043005764484405517578125" lon="-5.7820609398186206817626953125">
        <ele>42.40000152587890625</ele>
        <time>2019-07-11T15:11:18.000Z</time>
      </trkpt>
      <trkpt lat="43.58917389996349811553955078125" lon="-5.78213444910943508148193359375">
        <ele>43.59999847412109375</ele>
        <time>2019-07-11T15:11:19.000Z</time>
      </trkpt>
      <trkpt lat="43.5887679643929004669189453125" lon="-5.7822855748236179351806640625">
        <ele>45.200000762939453125</ele>
        <time>2019-07-11T15:11:21.000Z</time>
      </trkpt>
      <trkpt lat="43.58839924447238445281982421875" lon="-5.78241205774247646331787109375">
        <ele>46.40000152587890625</ele>
        <time>2019-07-11T15:11:23.000Z</time>
      </trkpt>
      <trkpt lat="43.5878781415522098541259765625" lon="-5.7825749181210994720458984375">
        <ele>47.799999237060546875</ele>
        <time>2019-07-11T15:11:26.000Z</time>
      </trkpt>
      <trkpt lat="43.58770857565104961395263671875" lon="-5.782633759081363677978515625">
        <ele>48.799999237060546875</ele>
        <time>2019-07-11T15:11:27.000Z</time>
      </trkpt>
      <trkpt lat="43.58753733336925506591796875" lon="-5.78269570134580135345458984375">
        <ele>50</ele>
        <time>2019-07-11T15:11:28.000Z</time>
      </trkpt>
      <trkpt lat="43.5870433039963245391845703125" lon="-5.7829078473150730133056640625">
        <ele>51</ele>
        <time>2019-07-11T15:11:31.000Z</time>
      </trkpt>
      <trkpt lat="43.58359306119382381439208984375" lon="-5.78004467301070690155029296875">
        <ele>54.59999847412109375</ele>
        <time>2019-07-11T15:11:51.000Z</time>
      </trkpt>
      <trkpt lat="43.5834079049527645111083984375" lon="-5.77989212237298488616943359375">
        <ele>53.799999237060546875</ele>
        <time>2019-07-11T15:11:52.000Z</time>
      </trkpt>
      <trkpt lat="43.58323448337614536285400390625" lon="-5.779749043285846710205078125">
        <ele>52.799999237060546875</ele>
        <time>2019-07-11T15:11:53.000Z</time>
      </trkpt>
      <trkpt lat="43.58306751586496829986572265625" lon="-5.779624320566654205322265625">
        <ele>51.799999237060546875</ele>
        <time>2019-07-11T15:11:54.000Z</time>
      </trkpt>
      <trkpt lat="43.5827380232512950897216796875" lon="-5.77947235666215419769287109375">
        <ele>50.200000762939453125</ele>
        <time>2019-07-11T15:11:56.000Z</time>
      </trkpt>
      <trkpt lat="43.5821623541414737701416015625" lon="-5.77937562949955463409423828125">
        <ele>51.200000762939453125</ele>
        <time>2019-07-11T15:12:00.000Z</time>
      </trkpt>
      <trkpt lat="43.5820349492132663726806640625" lon="-5.7793760485947132110595703125">
        <ele>51.799999237060546875</ele>
        <time>2019-07-11T15:12:01.000Z</time>
      </trkpt>
      <trkpt lat="43.5818123258650302886962890625" lon="-5.7793866097927093505859375">
        <ele>53</ele>
        <time>2019-07-11T15:12:03.000Z</time>
      </trkpt>
      <trkpt lat="43.58164326287806034088134765625" lon="-5.7794219814240932464599609375">
        <ele>53.59999847412109375</ele>
        <time>2019-07-11T15:12:05.000Z</time>
      </trkpt>
      <trkpt lat="43.58158282935619354248046875" lon="-5.7794555090367794036865234375">
        <ele>54.40000152587890625</ele>
        <time>2019-07-11T15:12:06.000Z</time>
      </trkpt>
      <trkpt lat="43.58153865672647953033447265625" lon="-5.77949113212525844573974609375">
        <ele>55.40000152587890625</ele>
        <time>2019-07-11T15:12:07.000Z</time>
      </trkpt>
      <trkpt lat="43.58147151768207550048828125" lon="-5.77956967055797576904296875">
        <ele>56.799999237060546875</ele>
        <time>2019-07-11T15:12:09.000Z</time>
      </trkpt>
      <trkpt lat="43.581416197121143341064453125" lon="-5.7796965725719928741455078125">
        <ele>57.799999237060546875</ele>
        <time>2019-07-11T15:12:13.000Z</time>
      </trkpt>
      <trkpt lat="43.58139364980161190032958984375" lon="-5.779718197882175445556640625">
        <ele>58.200000762939453125</ele>
        <time>2019-07-11T15:12:31.000Z</time>
      </trkpt>
      <trkpt lat="43.58127529732882976531982421875" lon="-5.77981375157833099365234375">
        <ele>58</ele>
        <time>2019-07-11T15:12:37.000Z</time>
      </trkpt>
      <trkpt lat="43.58111486770212650299072265625" lon="-5.7798278331756591796875">
        <ele>57.59999847412109375</ele>
        <time>2019-07-11T15:12:39.000Z</time>
      </trkpt>
      <trkpt lat="43.58095385134220123291015625" lon="-5.77972515486180782318115234375">
        <ele>57.200000762939453125</ele>
        <time>2019-07-11T15:12:41.000Z</time>
      </trkpt>
      <trkpt lat="43.58089325018227100372314453125" lon="-5.7796372286975383758544921875">
        <ele>56.799999237060546875</ele>
        <time>2019-07-11T15:12:42.000Z</time>
      </trkpt>
      <trkpt lat="43.58085100539028644561767578125" lon="-5.7795341312885284423828125">
        <ele>56.40000152587890625</ele>
        <time>2019-07-11T15:12:43.000Z</time>
      </trkpt>
      <trkpt lat="43.5808343254029750823974609375" lon="-5.7793168723583221435546875">
        <ele>55.799999237060546875</ele>
        <time>2019-07-11T15:12:45.000Z</time>
      </trkpt>
      <trkpt lat="43.58085905201733112335205078125" lon="-5.77921134419739246368408203125">
        <ele>55.59999847412109375</ele>
        <time>2019-07-11T15:12:46.000Z</time>
      </trkpt>
      <trkpt lat="43.58090582303702831268310546875" lon="-5.779116041958332061767578125">
        <ele>55.59999847412109375</ele>
        <time>2019-07-11T15:12:47.000Z</time>
      </trkpt>
      <trkpt lat="43.58111101202666759490966796875" lon="-5.7788662612438201904296875">
        <ele>55.40000152587890625</ele>
        <time>2019-07-11T15:12:50.000Z</time>
      </trkpt>
      <trkpt lat="43.58132977969944477081298828125" lon="-5.77856124378740787506103515625">
        <ele>55.200000762939453125</ele>
        <time>2019-07-11T15:12:53.000Z</time>
      </trkpt>
      <trkpt lat="43.58155466616153717041015625" lon="-5.7783879898488521575927734375">
        <ele>54.200000762939453125</ele>
        <time>2019-07-11T15:12:55.000Z</time>
      </trkpt>
      <trkpt lat="43.581796400249004364013671875" lon="-5.7782112993299961090087890625">
        <ele>53</ele>
        <time>2019-07-11T15:12:57.000Z</time>
      </trkpt>
      <trkpt lat="43.58215807937085628509521484375" lon="-5.7779477722942829132080078125">
        <ele>51.200000762939453125</ele>
        <time>2019-07-11T15:13:00.000Z</time>
      </trkpt>
      <trkpt lat="43.58261405490338802337646484375" lon="-5.77752222307026386260986328125">
        <ele>50.59999847412109375</ele>
        <time>2019-07-11T15:13:04.000Z</time>
      </trkpt>
      <trkpt lat="43.5828781686723232269287109375" lon="-5.7770975120365619659423828125">
        <ele>52.200000762939453125</ele>
        <time>2019-07-11T15:13:07.000Z</time>
      </trkpt>
      <trkpt lat="43.5830743052065372467041015625" lon="-5.77664581127464771270751953125">
        <ele>53.40000152587890625</ele>
        <time>2019-07-11T15:13:10.000Z</time>
      </trkpt>
      <trkpt lat="43.5833401791751384735107421875" lon="-5.77601985074579715728759765625">
        <ele>54.799999237060546875</ele>
        <time>2019-07-11T15:13:14.000Z</time>
      </trkpt>
      <trkpt lat="43.583546541631221771240234375" lon="-5.77553302980959415435791015625">
        <ele>53.799999237060546875</ele>
        <time>2019-07-11T15:13:17.000Z</time>
      </trkpt>
      <trkpt lat="43.58361435122787952423095703125" lon="-5.77537377364933490753173828125">
        <ele>51.59999847412109375</ele>
        <time>2019-07-11T15:13:18.000Z</time>
      </trkpt>
      <trkpt lat="43.5836823284626007080078125" lon="-5.775217115879058837890625">
        <ele>49.200000762939453125</ele>
        <time>2019-07-11T15:13:19.000Z</time>
      </trkpt>
      <trkpt lat="43.58375097624957561492919921875" lon="-5.77506314031779766082763671875">
        <ele>47.200000762939453125</ele>
        <time>2019-07-11T15:13:20.000Z</time>
      </trkpt>
      <trkpt lat="43.5838172771036624908447265625" lon="-5.77491243369877338409423828125">
        <ele>45.799999237060546875</ele>
        <time>2019-07-11T15:13:21.000Z</time>
      </trkpt>
      <trkpt lat="43.58407250605523586273193359375" lon="-5.774385966360569000244140625">
        <ele>46</ele>
        <time>2019-07-11T15:13:25.000Z</time>
      </trkpt>
      <trkpt lat="43.58431105501949787139892578125" lon="-5.77391481958329677581787109375">
        <ele>44.59999847412109375</ele>
        <time>2019-07-11T15:13:29.000Z</time>
      </trkpt>
      <trkpt lat="43.5843694768846035003662109375" lon="-5.77380099333822727203369140625">
        <ele>43.200000762939453125</ele>
        <time>2019-07-11T15:13:30.000Z</time>
      </trkpt>
      <trkpt lat="43.5844274796545505523681640625" lon="-5.7736867479979991912841796875">
        <ele>42</ele>
        <time>2019-07-11T15:13:31.000Z</time>
      </trkpt>
      <trkpt lat="43.5845379531383514404296875" lon="-5.77346957288682460784912109375">
        <ele>40.200000762939453125</ele>
        <time>2019-07-11T15:13:33.000Z</time>
      </trkpt>
      <trkpt lat="43.58475856482982635498046875" lon="-5.7730631344020366668701171875">
        <ele>39</ele>
        <time>2019-07-11T15:13:38.000Z</time>
      </trkpt>
      <trkpt lat="43.585029803216457366943359375" lon="-5.772569440305233001708984375">
        <ele>37.59999847412109375</ele>
        <time>2019-07-11T15:13:43.000Z</time>
      </trkpt>
      <trkpt lat="43.58539986424148082733154296875" lon="-5.7721153087913990020751953125">
        <ele>38.200000762939453125</ele>
        <time>2019-07-11T15:13:49.000Z</time>
      </trkpt>
      <trkpt lat="43.5855040512979030609130859375" lon="-5.77198765240609645843505859375">
        <ele>38.799999237060546875</ele>
        <time>2019-07-11T15:13:51.000Z</time>
      </trkpt>
      <trkpt lat="43.58591191470623016357421875" lon="-5.7714772783219814300537109375">
        <ele>37.799999237060546875</ele>
        <time>2019-07-11T15:13:57.000Z</time>
      </trkpt>
      <trkpt lat="43.58597503043711185455322265625" lon="-5.77137040905654430389404296875">
        <ele>37.40000152587890625</ele>
        <time>2019-07-11T15:13:58.000Z</time>
      </trkpt>
      <trkpt lat="43.58607695437967777252197265625" lon="-5.771159939467906951904296875">
        <ele>36.59999847412109375</ele>
        <time>2019-07-11T15:14:00.000Z</time>
      </trkpt>
      <trkpt lat="43.586152978241443634033203125" lon="-5.77097587287425994873046875">
        <ele>35</ele>
        <time>2019-07-11T15:14:02.000Z</time>
      </trkpt>
      <trkpt lat="43.5863806307315826416015625" lon="-5.77044202946126461029052734375">
        <ele>36.200000762939453125</ele>
        <time>2019-07-11T15:14:09.000Z</time>
      </trkpt>
      <trkpt lat="43.58664415776729583740234375" lon="-5.76982386410236358642578125">
        <ele>35.40000152587890625</ele>
        <time>2019-07-11T15:14:16.000Z</time>
      </trkpt>
      <trkpt lat="43.586893267929553985595703125" lon="-5.76929672621190547943115234375">
        <ele>36</ele>
        <time>2019-07-11T15:14:23.000Z</time>
      </trkpt>
      <trkpt lat="43.58710189349949359893798828125" lon="-5.7687323726713657379150390625">
        <ele>35.799999237060546875</ele>
        <time>2019-07-11T15:14:30.000Z</time>
      </trkpt>
      <trkpt lat="43.58713927678763866424560546875" lon="-5.7686421833932399749755859375">
        <ele>35.799999237060546875</ele>
        <time>2019-07-11T15:14:31.000Z</time>
      </trkpt>
      <trkpt lat="43.58730842359364032745361328125" lon="-5.76829441823065280914306640625">
        <ele>35</ele>
        <time>2019-07-11T15:14:35.000Z</time>
      </trkpt>
      <trkpt lat="43.58759357593953609466552734375" lon="-5.767770297825336456298828125">
        <ele>34.59999847412109375</ele>
        <time>2019-07-11T15:14:43.000Z</time>
      </trkpt>
      <trkpt lat="43.58768912963569164276123046875" lon="-5.76758950017392635345458984375">
        <ele>34.40000152587890625</ele>
        <time>2019-07-11T15:14:46.000Z</time>
      </trkpt>
      <trkpt lat="43.5877726972103118896484375" lon="-5.76747550629079341888427734375">
        <ele>34</ele>
        <time>2019-07-11T15:14:48.000Z</time>
      </trkpt>
      <trkpt lat="43.587825000286102294921875" lon="-5.76742596924304962158203125">
        <ele>33.799999237060546875</ele>
        <time>2019-07-11T15:14:49.000Z</time>
      </trkpt>
      <trkpt lat="43.58788308687508106231689453125" lon="-5.76738397590816020965576171875">
        <ele>33.59999847412109375</ele>
        <time>2019-07-11T15:14:50.000Z</time>
      </trkpt>
      <trkpt lat="43.58800881542265415191650390625" lon="-5.7673255540430545806884765625">
        <ele>32.59999847412109375</ele>
        <time>2019-07-11T15:14:52.000Z</time>
      </trkpt>
      <trkpt lat="43.58818106353282928466796875" lon="-5.7672501169145107269287109375">
        <ele>31.3999996185302734375</ele>
        <time>2019-07-11T15:14:55.000Z</time>
      </trkpt>
      <trkpt lat="43.58823361806571483612060546875" lon="-5.7672219537198543548583984375">
        <ele>31.200000762939453125</ele>
        <time>2019-07-11T15:14:56.000Z</time>
      </trkpt>
      <trkpt lat="43.588378541171550750732421875" lon="-5.76707786880433559417724609375">
        <ele>30.6000003814697265625</ele>
        <time>2019-07-11T15:14:59.000Z</time>
      </trkpt>
      <trkpt lat="43.58842112123966217041015625" lon="-5.76702036894857883453369140625">
        <ele>30.3999996185302734375</ele>
        <time>2019-07-11T15:15:00.000Z</time>
      </trkpt>
      <trkpt lat="43.58861264772713184356689453125" lon="-5.76667637564241886138916015625">
        <ele>29.799999237060546875</ele>
        <time>2019-07-11T15:15:07.000Z</time>
      </trkpt>
      <trkpt lat="43.5885644517838954925537109375" lon="-5.76656053774058818817138671875">
        <ele>29.799999237060546875</ele>
        <time>2019-07-11T15:15:09.000Z</time>
      </trkpt>
      <trkpt lat="43.588472418487071990966796875" lon="-5.76648510061204433441162109375">
        <ele>29.200000762939453125</ele>
        <time>2019-07-11T15:15:11.000Z</time>
      </trkpt>
      <trkpt lat="43.5883800499141216278076171875" lon="-5.76640312559902667999267578125">
        <ele>28</ele>
        <time>2019-07-11T15:15:13.000Z</time>
      </trkpt>
      <trkpt lat="43.5883170180022716522216796875" lon="-5.76629147864878177642822265625">
        <ele>26.799999237060546875</ele>
        <time>2019-07-11T15:15:15.000Z</time>
      </trkpt>
      <trkpt lat="43.58834241516888141632080078125" lon="-5.76615057885646820068359375">
        <ele>26</ele>
        <time>2019-07-11T15:15:17.000Z</time>
      </trkpt>
      <trkpt lat="43.58838197775185108184814453125" lon="-5.7660880498588085174560546875">
        <ele>25.799999237060546875</ele>
        <time>2019-07-11T15:15:18.000Z</time>
      </trkpt>
      <trkpt lat="43.58857258222997188568115234375" lon="-5.765798874199390411376953125">
        <ele>24.6000003814697265625</ele>
        <time>2019-07-11T15:15:22.000Z</time>
      </trkpt>
      <trkpt lat="43.58867517672479152679443359375" lon="-5.76562310568988323211669921875">
        <ele>23.3999996185302734375</ele>
        <time>2019-07-11T15:15:24.000Z</time>
      </trkpt>
      <trkpt lat="43.5887758433818817138671875" lon="-5.76542898081243038177490234375">
        <ele>21.3999996185302734375</ele>
        <time>2019-07-11T15:15:26.000Z</time>
      </trkpt>
      <trkpt lat="43.5888544656336307525634765625" lon="-5.765226893126964569091796875">
        <ele>19.799999237060546875</ele>
        <time>2019-07-11T15:15:28.000Z</time>
      </trkpt>
      <trkpt lat="43.5889386199414730072021484375" lon="-5.76505883596837520599365234375">
        <ele>18.799999237060546875</ele>
        <time>2019-07-11T15:15:30.000Z</time>
      </trkpt>
      <trkpt lat="43.5890388675034046173095703125" lon="-5.7649581693112850189208984375">
        <ele>18.3999996185302734375</ele>
        <time>2019-07-11T15:15:32.000Z</time>
      </trkpt>
      <trkpt lat="43.58931421302258968353271484375" lon="-5.76481693424284458160400390625">
        <ele>18.200000762939453125</ele>
        <time>2019-07-11T15:15:37.000Z</time>
      </trkpt>
      <trkpt lat="43.5893900692462921142578125" lon="-5.76464585959911346435546875">
        <ele>17.6000003814697265625</ele>
        <time>2019-07-11T15:15:39.000Z</time>
      </trkpt>
      <trkpt lat="43.58939317055046558380126953125" lon="-5.764440335333347320556640625">
        <ele>17.3999996185302734375</ele>
        <time>2019-07-11T15:15:41.000Z</time>
      </trkpt>
      <trkpt lat="43.58931454829871654510498046875" lon="-5.764128528535366058349609375">
        <ele>17.200000762939453125</ele>
        <time>2019-07-11T15:15:44.000Z</time>
      </trkpt>
      <trkpt lat="43.5893198288977146148681640625" lon="-5.7639365829527378082275390625">
        <ele>16.799999237060546875</ele>
        <time>2019-07-11T15:15:46.000Z</time>
      </trkpt>
      <trkpt lat="43.58939015306532382965087890625" lon="-5.7636971957981586456298828125">
        <ele>16.799999237060546875</ele>
        <time>2019-07-11T15:15:49.000Z</time>
      </trkpt>
      <trkpt lat="43.589474894106388092041015625" lon="-5.7632938586175441741943359375">
        <ele>18</ele>
        <time>2019-07-11T15:16:02.000Z</time>
      </trkpt>
      <trkpt lat="43.5894995369017124176025390625" lon="-5.7633706368505954742431640625">
        <ele>17.799999237060546875</ele>
        <time>2019-07-11T15:16:14.000Z</time>
      </trkpt>
      <trkpt lat="43.5895028896629810333251953125" lon="-5.7633791863918304443359375">
        <ele>17.799999237060546875</ele>
        <time>2019-07-11T15:16:23.000Z</time>
      </trkpt>
      <trkpt lat="43.58948319219052791595458984375" lon="-5.7634755782783031463623046875">
        <ele>17.799999237060546875</ele>
        <time>2019-07-11T15:16:26.000Z</time>
      </trkpt>
      <trkpt lat="43.58942829072475433349609375" lon="-5.7634886540472507476806640625">
        <ele>17.799999237060546875</ele>
        <time>2019-07-11T15:16:28.000Z</time>
      </trkpt>
      <trkpt lat="43.58937238343060016632080078125" lon="-5.7634127140045166015625">
        <ele>17.6000003814697265625</ele>
        <time>2019-07-11T15:16:30.000Z</time>
      </trkpt>
      <trkpt lat="43.5893030650913715362548828125" lon="-5.76329830102622509002685546875">
        <ele>17.6000003814697265625</ele>
        <time>2019-07-11T15:16:32.000Z</time>
      </trkpt>
      <trkpt lat="43.58906191773712635040283203125" lon="-5.763084478676319122314453125">
        <ele>16.6000003814697265625</ele>
        <time>2019-07-11T15:16:37.000Z</time>
      </trkpt>
      <trkpt lat="43.5887813754379749298095703125" lon="-5.76283930800855159759521484375">
        <ele>16.3999996185302734375</ele>
        <time>2019-07-11T15:16:42.000Z</time>
      </trkpt>
      <trkpt lat="43.588451631367206573486328125" lon="-5.7623617909848690032958984375">
        <ele>17.3999996185302734375</ele>
        <time>2019-07-11T15:16:49.000Z</time>
      </trkpt>
      <trkpt lat="43.5883654654026031494140625" lon="-5.76215534470975399017333984375">
        <ele>17.6000003814697265625</ele>
        <time>2019-07-11T15:16:52.000Z</time>
      </trkpt>
      <trkpt lat="43.58827100135385990142822265625" lon="-5.76195552013814449310302734375">
        <ele>18</ele>
        <time>2019-07-11T15:16:55.000Z</time>
      </trkpt>
      <trkpt lat="43.588181398808956146240234375" lon="-5.761841274797916412353515625">
        <ele>18.200000762939453125</ele>
        <time>2019-07-11T15:16:57.000Z</time>
      </trkpt>
      <trkpt lat="43.58805743046104907989501953125" lon="-5.7617572881281375885009765625">
        <ele>18</ele>
        <time>2019-07-11T15:16:59.000Z</time>
      </trkpt>
      <trkpt lat="43.58763498254120349884033203125" lon="-5.76154564507305622100830078125">
        <ele>17.200000762939453125</ele>
        <time>2019-07-11T15:17:05.000Z</time>
      </trkpt>
      <trkpt lat="43.5872350819408893585205078125" lon="-5.7612295635044574737548828125">
        <ele>18</ele>
        <time>2019-07-11T15:17:11.000Z</time>
      </trkpt>
      <trkpt lat="43.58682596124708652496337890625" lon="-5.76093963347375392913818359375">
        <ele>18.3999996185302734375</ele>
        <time>2019-07-11T15:17:18.000Z</time>
      </trkpt>
      <trkpt lat="43.5866446606814861297607421875" lon="-5.76080418191850185394287109375">
        <ele>18.799999237060546875</ele>
        <time>2019-07-11T15:17:22.000Z</time>
      </trkpt>
      <trkpt lat="43.586209975183010101318359375" lon="-5.7604912854731082916259765625">
        <ele>19.6000003814697265625</ele>
        <time>2019-07-11T15:17:29.000Z</time>
      </trkpt>
      <trkpt lat="43.5858138464391231536865234375" lon="-5.76005148701369762420654296875">
        <ele>19.3999996185302734375</ele>
        <time>2019-07-11T15:17:35.000Z</time>
      </trkpt>
      <trkpt lat="43.58558141626417636871337890625" lon="-5.75948855839669704437255859375">
        <ele>17.799999237060546875</ele>
        <time>2019-07-11T15:17:40.000Z</time>
      </trkpt>
      <trkpt lat="43.5853935778141021728515625" lon="-5.7589091174304485321044921875">
        <ele>18.200000762939453125</ele>
        <time>2019-07-11T15:17:45.000Z</time>
      </trkpt>
      <trkpt lat="43.58524882234632968902587890625" lon="-5.758660174906253814697265625">
        <ele>18.799999237060546875</ele>
        <time>2019-07-11T15:17:48.000Z</time>
      </trkpt>
      <trkpt lat="43.58519802801311016082763671875" lon="-5.75859479606151580810546875">
        <ele>19.200000762939453125</ele>
        <time>2019-07-11T15:17:49.000Z</time>
      </trkpt>
      <trkpt lat="43.58501781709492206573486328125" lon="-5.75843227095901966094970703125">
        <ele>20</ele>
        <time>2019-07-11T15:17:52.000Z</time>
      </trkpt>
      <trkpt lat="43.58487934805452823638916015625" lon="-5.75835063122212886810302734375">
        <ele>20</ele>
        <time>2019-07-11T15:17:54.000Z</time>
      </trkpt>
      <trkpt lat="43.5845156572759151458740234375" lon="-5.758211575448513031005859375">
        <ele>20</ele>
        <time>2019-07-11T15:18:00.000Z</time>
      </trkpt>
      <trkpt lat="43.584391772747039794921875" lon="-5.75808324851095676422119140625">
        <ele>19.6000003814697265625</ele>
        <time>2019-07-11T15:18:04.000Z</time>
      </trkpt>
      <trkpt lat="43.58412128873169422149658203125" lon="-5.7575619779527187347412109375">
        <ele>19.3999996185302734375</ele>
        <time>2019-07-11T15:18:12.000Z</time>
      </trkpt>
      <trkpt lat="43.5840405710041522979736328125" lon="-5.75741403736174106597900390625">
        <ele>19.200000762939453125</ele>
        <time>2019-07-11T15:18:14.000Z</time>
      </trkpt>
      <trkpt lat="43.583933450281620025634765625" lon="-5.75729660689830780029296875">
        <ele>19</ele>
        <time>2019-07-11T15:18:16.000Z</time>
      </trkpt>
      <trkpt lat="43.58381920494139194488525390625" lon="-5.7572344131767749786376953125">
        <ele>19</ele>
        <time>2019-07-11T15:18:18.000Z</time>
      </trkpt>
      <trkpt lat="43.58369850553572177886962890625" lon="-5.757219493389129638671875">
        <ele>19.200000762939453125</ele>
        <time>2019-07-11T15:18:20.000Z</time>
      </trkpt>
      <trkpt lat="43.583403043448925018310546875" lon="-5.75719594024121761322021484375">
        <ele>19.799999237060546875</ele>
        <time>2019-07-11T15:18:40.000Z</time>
      </trkpt>
      <trkpt lat="43.58349935151636600494384765625" lon="-5.75721706263720989227294921875">
        <ele>19.799999237060546875</ele>
        <time>2019-07-11T15:18:43.000Z</time>
      </trkpt>
      <trkpt lat="43.58373555354773998260498046875" lon="-5.757197029888629913330078125">
        <ele>19.6000003814697265625</ele>
        <time>2019-07-11T15:18:47.000Z</time>
      </trkpt>
      <trkpt lat="43.5838514752686023712158203125" lon="-5.757214464247226715087890625">
        <ele>19</ele>
        <time>2019-07-11T15:18:49.000Z</time>
      </trkpt>
      <trkpt lat="43.58396739698946475982666015625" lon="-5.75727959163486957550048828125">
        <ele>19.200000762939453125</ele>
        <time>2019-07-11T15:18:51.000Z</time>
      </trkpt>
      <trkpt lat="43.58407166786491870880126953125" lon="-5.7574020512402057647705078125">
        <ele>19.6000003814697265625</ele>
        <time>2019-07-11T15:18:53.000Z</time>
      </trkpt>
      <trkpt lat="43.5843379609286785125732421875" lon="-5.75792432762682437896728515625">
        <ele>19.6000003814697265625</ele>
        <time>2019-07-11T15:19:00.000Z</time>
      </trkpt>
      <trkpt lat="43.5844626836478710174560546875" lon="-5.75812767259776592254638671875">
        <ele>19.6000003814697265625</ele>
        <time>2019-07-11T15:19:03.000Z</time>
      </trkpt>
      <trkpt lat="43.5845790244638919830322265625" lon="-5.758231021463871002197265625">
        <ele>19.6000003814697265625</ele>
        <time>2019-07-11T15:19:05.000Z</time>
      </trkpt>
      <trkpt lat="43.58471623621881008148193359375" lon="-5.7582942210137844085693359375">
        <ele>19.3999996185302734375</ele>
        <time>2019-07-11T15:19:07.000Z</time>
      </trkpt>
      <trkpt lat="43.58518327586352825164794921875" lon="-5.75856336392462253570556640625">
        <ele>19</ele>
        <time>2019-07-11T15:19:14.000Z</time>
      </trkpt>
      <trkpt lat="43.5853421129286289215087890625" lon="-5.75875950045883655548095703125">
        <ele>18.6000003814697265625</ele>
        <time>2019-07-11T15:19:17.000Z</time>
      </trkpt>
      <trkpt lat="43.58557152561843395233154296875" lon="-5.75930180959403514862060546875">
        <ele>18.200000762939453125</ele>
        <time>2019-07-11T15:19:23.000Z</time>
      </trkpt>
      <trkpt lat="43.5857799835503101348876953125" lon="-5.75994470156729221343994140625">
        <ele>18.200000762939453125</ele>
        <time>2019-07-11T15:19:30.000Z</time>
      </trkpt>
      <trkpt lat="43.58582784421741962432861328125" lon="-5.7600326277315616607666015625">
        <ele>17.799999237060546875</ele>
        <time>2019-07-11T15:19:31.000Z</time>
      </trkpt>
      <trkpt lat="43.58617770485579967498779296875" lon="-5.76044552028179168701171875">
        <ele>18.6000003814697265625</ele>
        <time>2019-07-11T15:19:38.000Z</time>
      </trkpt>
      <trkpt lat="43.5866215266287326812744140625" lon="-5.76077082194387912750244140625">
        <ele>18.6000003814697265625</ele>
        <time>2019-07-11T15:19:47.000Z</time>
      </trkpt>
      <trkpt lat="43.587043471634387969970703125" lon="-5.761075504124164581298828125">
        <ele>18.200000762939453125</ele>
        <time>2019-07-11T15:19:56.000Z</time>
      </trkpt>
      <trkpt lat="43.58749936334788799285888671875" lon="-5.76141052879393100738525390625">
        <ele>17.799999237060546875</ele>
        <time>2019-07-11T15:20:04.000Z</time>
      </trkpt>
      <trkpt lat="43.58780396170914173126220703125" lon="-5.7616580463945865631103515625">
        <ele>17.3999996185302734375</ele>
        <time>2019-07-11T15:20:09.000Z</time>
      </trkpt>
      <trkpt lat="43.58816890977323055267333984375" lon="-5.76181973330676555633544921875">
        <ele>18.3999996185302734375</ele>
        <time>2019-07-11T15:20:15.000Z</time>
      </trkpt>
      <trkpt lat="43.5882568359375" lon="-5.761914364993572235107421875">
        <ele>18.6000003814697265625</ele>
        <time>2019-07-11T15:20:17.000Z</time>
      </trkpt>
      <trkpt lat="43.5885332711040973663330078125" lon="-5.76248324476182460784912109375">
        <ele>18.6000003814697265625</ele>
        <time>2019-07-11T15:20:25.000Z</time>
      </trkpt>
      <trkpt lat="43.588755391538143157958984375" lon="-5.762822963297367095947265625">
        <ele>17.200000762939453125</ele>
        <time>2019-07-11T15:20:31.000Z</time>
      </trkpt>
      <trkpt lat="43.58889914117753505706787109375" lon="-5.76294978149235248565673828125">
        <ele>17.799999237060546875</ele>
        <time>2019-07-11T15:20:35.000Z</time>
      </trkpt>
      <trkpt lat="43.5892956890165805816650390625" lon="-5.7632693834602832794189453125">
        <ele>17.6000003814697265625</ele>
        <time>2019-07-11T15:20:45.000Z</time>
      </trkpt>
      <trkpt lat="43.5893748141825199127197265625" lon="-5.7633253745734691619873046875">
        <ele>17.6000003814697265625</ele>
        <time>2019-07-11T15:20:48.000Z</time>
      </trkpt>
      <trkpt lat="43.5895873792469501495361328125" lon="-5.76324708759784698486328125">
        <ele>17.200000762939453125</ele>
        <time>2019-07-11T15:20:57.000Z</time>
      </trkpt>
      <trkpt lat="43.58963490463793277740478515625" lon="-5.7632301561534404754638671875">
        <ele>16.799999237060546875</ele>
        <time>2019-07-11T15:20:58.000Z</time>
      </trkpt>
      <trkpt lat="43.5896842740476131439208984375" lon="-5.76322252862155437469482421875">
        <ele>16.3999996185302734375</ele>
        <time>2019-07-11T15:20:59.000Z</time>
      </trkpt>
      <trkpt lat="43.589800782501697540283203125" lon="-5.763236694037914276123046875">
        <ele>15.6000003814697265625</ele>
        <time>2019-07-11T15:21:02.000Z</time>
      </trkpt>
      <trkpt lat="43.589820563793182373046875" lon="-5.76323744840919971466064453125">
        <ele>15.6000003814697265625</ele>
        <time>2019-07-11T15:21:03.000Z</time>
      </trkpt>
      <trkpt lat="43.58984579332172870635986328125" lon="-5.7632395438849925994873046875">
        <ele>16</ele>
        <time>2019-07-11T15:21:31.000Z</time>
      </trkpt>
      <trkpt lat="43.5899618826806545257568359375" lon="-5.76313653029501438140869140625">
        <ele>15.80000019073486328125</ele>
        <time>2019-07-11T15:21:34.000Z</time>
      </trkpt>
      <trkpt lat="43.59028064645826816558837890625" lon="-5.76280410401523113250732421875">
        <ele>14.3999996185302734375</ele>
        <time>2019-07-11T15:21:40.000Z</time>
      </trkpt>
      <trkpt lat="43.5905863344669342041015625" lon="-5.762342177331447601318359375">
        <ele>13.80000019073486328125</ele>
        <time>2019-07-11T15:21:47.000Z</time>
      </trkpt>
      <trkpt lat="43.59079076908528804779052734375" lon="-5.76194998808205127716064453125">
        <ele>14</ele>
        <time>2019-07-11T15:21:55.000Z</time>
      </trkpt>
      <trkpt lat="43.59061223454773426055908203125" lon="-5.761651508510112762451171875">
        <ele>15.19999980926513671875</ele>
        <time>2019-07-11T15:22:02.000Z</time>
      </trkpt>
      <trkpt lat="43.590431101620197296142578125" lon="-5.7615244388580322265625">
        <ele>15.3999996185302734375</ele>
        <time>2019-07-11T15:22:08.000Z</time>
      </trkpt>
      <trkpt lat="43.59040084294974803924560546875" lon="-5.7615313120186328887939453125">
        <ele>15.6000003814697265625</ele>
        <time>2019-07-11T15:22:29.000Z</time>
      </trkpt>
      <trkpt lat="43.59042079187929630279541015625" lon="-5.76153223402798175811767578125">
        <ele>15.3999996185302734375</ele>
        <time>2019-07-11T15:29:10.000Z</time>
      </trkpt>
      <trkpt lat="43.59041911549866199493408203125" lon="-5.76153122819960117340087890625">
        <ele>15.19999980926513671875</ele>
        <time>2019-07-11T15:29:11.000Z</time>
      </trkpt>
      <trkpt lat="43.590408302843570709228515625" lon="-5.76153583824634552001953125">
        <ele>15.19999980926513671875</ele>
        <time>2019-07-11T15:29:54.000Z</time>
      </trkpt>
      <trkpt lat="43.59040017239749431610107421875" lon="-5.76153240166604518890380859375">
        <ele>15.19999980926513671875</ele>
        <time>2019-07-11T15:30:17.000Z</time>
      </trkpt>
      <trkpt lat="43.59041559509932994842529296875" lon="-5.76143366284668445587158203125">
        <ele>14.80000019073486328125</ele>
        <time>2019-07-11T15:30:29.000Z</time>
      </trkpt>
      <trkpt lat="43.59046068973839282989501953125" lon="-5.76144556514918804168701171875">
        <ele>15</ele>
        <time>2019-07-11T15:30:31.000Z</time>
      </trkpt>
      <trkpt lat="43.59049656428396701812744140625" lon="-5.76153240166604518890380859375">
        <ele>14.80000019073486328125</ele>
        <time>2019-07-11T15:30:34.000Z</time>
      </trkpt>
      <trkpt lat="43.59060200862586498260498046875" lon="-5.76161102391779422760009765625">
        <ele>14.6000003814697265625</ele>
        <time>2019-07-11T15:30:37.000Z</time>
      </trkpt>
      <trkpt lat="43.590710051357746124267578125" lon="-5.76176357455551624298095703125">
        <ele>14.3999996185302734375</ele>
        <time>2019-07-11T15:30:41.000Z</time>
      </trkpt>
      <trkpt lat="43.59081943519413471221923828125" lon="-5.76205140911042690277099609375">
        <ele>14.6000003814697265625</ele>
        <time>2019-07-11T15:30:52.000Z</time>
      </trkpt>
      <trkpt lat="43.59071566723287105560302734375" lon="-5.76220211572945117950439453125">
        <ele>14.6000003814697265625</ele>
        <time>2019-07-11T15:31:36.000Z</time>
      </trkpt>
      <trkpt lat="43.59060083515942096710205078125" lon="-5.76235868968069553375244140625">
        <ele>14.19999980926513671875</ele>
        <time>2019-07-11T15:31:39.000Z</time>
      </trkpt>
      <trkpt lat="43.5903548263013362884521484375" lon="-5.76269061304628849029541015625">
        <ele>13.19999980926513671875</ele>
        <time>2019-07-11T15:31:44.000Z</time>
      </trkpt>
      <trkpt lat="43.5903062112629413604736328125" lon="-5.7627480290830135345458984375">
        <ele>13.19999980926513671875</ele>
        <time>2019-07-11T15:31:45.000Z</time>
      </trkpt>
      <trkpt lat="43.58994184993207454681396484375" lon="-5.76313577592372894287109375">
        <ele>13.80000019073486328125</ele>
        <time>2019-07-11T15:31:54.000Z</time>
      </trkpt>
      <trkpt lat="43.58984805643558502197265625" lon="-5.763199813663959503173828125">
        <ele>13.80000019073486328125</ele>
        <time>2019-07-11T15:31:56.000Z</time>
      </trkpt>
      <trkpt lat="43.589743115007877349853515625" lon="-5.76320174150168895721435546875">
        <ele>13.80000019073486328125</ele>
        <time>2019-07-11T15:31:58.000Z</time>
      </trkpt>
      <trkpt lat="43.58962937258183956146240234375" lon="-5.76319905929267406463623046875">
        <ele>13.6000003814697265625</ele>
        <time>2019-07-11T15:32:00.000Z</time>
      </trkpt>
      <trkpt lat="43.58950800262391567230224609375" lon="-5.7632955349981784820556640625">
        <ele>14.3999996185302734375</ele>
        <time>2019-07-11T15:32:05.000Z</time>
      </trkpt>
      <trkpt lat="43.58947715722024440765380859375" lon="-5.763418413698673248291015625">
        <ele>15.19999980926513671875</ele>
        <time>2019-07-11T15:32:08.000Z</time>
      </trkpt>
      <trkpt lat="43.58943642117083072662353515625" lon="-5.7635265402495861053466796875">
        <ele>15.19999980926513671875</ele>
        <time>2019-07-11T15:32:10.000Z</time>
      </trkpt>
      <trkpt lat="43.5893322341144084930419921875" lon="-5.76391923241317272186279296875">
        <ele>15.19999980926513671875</ele>
        <time>2019-07-11T15:32:15.000Z</time>
      </trkpt>
      <trkpt lat="43.58932293020188808441162109375" lon="-5.76411402784287929534912109375">
        <ele>15.19999980926513671875</ele>
        <time>2019-07-11T15:32:17.000Z</time>
      </trkpt>
      <trkpt lat="43.589371629059314727783203125" lon="-5.7642758823931217193603515625">
        <ele>15</ele>
        <time>2019-07-11T15:32:19.000Z</time>
      </trkpt>
      <trkpt lat="43.58942435123026371002197265625" lon="-5.76444192789494991302490234375">
        <ele>14.80000019073486328125</ele>
        <time>2019-07-11T15:32:21.000Z</time>
      </trkpt>
      <trkpt lat="43.58943021856248378753662109375" lon="-5.76460688374936580657958984375">
        <ele>15</ele>
        <time>2019-07-11T15:32:23.000Z</time>
      </trkpt>
      <trkpt lat="43.58936718665063381195068359375" lon="-5.76475993730127811431884765625">
        <ele>15.19999980926513671875</ele>
        <time>2019-07-11T15:32:25.000Z</time>
      </trkpt>
      <trkpt lat="43.58924162574112415313720703125" lon="-5.76487518846988677978515625">
        <ele>15.19999980926513671875</ele>
        <time>2019-07-11T15:32:27.000Z</time>
      </trkpt>
      <trkpt lat="43.5890985466539859771728515625" lon="-5.7649481110274791717529296875">
        <ele>15.80000019073486328125</ele>
        <time>2019-07-11T15:32:29.000Z</time>
      </trkpt>
      <trkpt lat="43.58902604319155216217041015625" lon="-5.76498742215335369110107421875">
        <ele>16</ele>
        <time>2019-07-11T15:32:30.000Z</time>
      </trkpt>
      <trkpt lat="43.58890651725232601165771484375" lon="-5.76512589119374752044677734375">
        <ele>16.799999237060546875</ele>
        <time>2019-07-11T15:32:32.000Z</time>
      </trkpt>
      <trkpt lat="43.58869344927370548248291015625" lon="-5.7655898295342922210693359375">
        <ele>18.200000762939453125</ele>
        <time>2019-07-11T15:32:37.000Z</time>
      </trkpt>
      <trkpt lat="43.58855615369975566864013671875" lon="-5.76584656722843647003173828125">
        <ele>19.200000762939453125</ele>
        <time>2019-07-11T15:32:40.000Z</time>
      </trkpt>
      <trkpt lat="43.588414080440998077392578125" lon="-5.76609517447650432586669921875">
        <ele>20.3999996185302734375</ele>
        <time>2019-07-11T15:32:43.000Z</time>
      </trkpt>
      <trkpt lat="43.58834241516888141632080078125" lon="-5.76620514504611492156982421875">
        <ele>21.200000762939453125</ele>
        <time>2019-07-11T15:32:45.000Z</time>
      </trkpt>
      <trkpt lat="43.58833705075085163116455078125" lon="-5.76625644229352474212646484375">
        <ele>21.799999237060546875</ele>
        <time>2019-07-11T15:32:46.000Z</time>
      </trkpt>
      <trkpt lat="43.588361777365207672119140625" lon="-5.766320563852787017822265625">
        <ele>22.200000762939453125</ele>
        <time>2019-07-11T15:32:47.000Z</time>
      </trkpt>
      <trkpt lat="43.58846764080226421356201171875" lon="-5.76644025743007659912109375">
        <ele>23</ele>
        <time>2019-07-11T15:32:49.000Z</time>
      </trkpt>
      <trkpt lat="43.5885902680456638336181640625" lon="-5.7665416784584522247314453125">
        <ele>24</ele>
        <time>2019-07-11T15:32:51.000Z</time>
      </trkpt>
      <trkpt lat="43.588634692132472991943359375" lon="-5.76660010032355785369873046875">
        <ele>24.6000003814697265625</ele>
        <time>2019-07-11T15:32:52.000Z</time>
      </trkpt>
      <trkpt lat="43.58865179121494293212890625" lon="-5.7666677422821521759033203125">
        <ele>25</ele>
        <time>2019-07-11T15:32:53.000Z</time>
      </trkpt>
      <trkpt lat="43.58861298300325870513916015625" lon="-5.7667991705238819122314453125">
        <ele>26</ele>
        <time>2019-07-11T15:32:55.000Z</time>
      </trkpt>
      <trkpt lat="43.58851038850843906402587890625" lon="-5.7669379748404026031494140625">
        <ele>27.3999996185302734375</ele>
        <time>2019-07-11T15:32:57.000Z</time>
      </trkpt>
      <trkpt lat="43.58820863999426364898681640625" lon="-5.76724114827811717987060546875">
        <ele>28.200000762939453125</ele>
        <time>2019-07-11T15:33:02.000Z</time>
      </trkpt>
      <trkpt lat="43.5878995992243289947509765625" lon="-5.7674056850373744964599609375">
        <ele>28</ele>
        <time>2019-07-11T15:33:06.000Z</time>
      </trkpt>
      <trkpt lat="43.58776171691715717315673828125" lon="-5.76752445660531520843505859375">
        <ele>28.200000762939453125</ele>
        <time>2019-07-11T15:33:08.000Z</time>
      </trkpt>
      <trkpt lat="43.587705977261066436767578125" lon="-5.7676004804670810699462890625">
        <ele>28.6000003814697265625</ele>
        <time>2019-07-11T15:33:09.000Z</time>
      </trkpt>
      <trkpt lat="43.5876680910587310791015625" lon="-5.76766426675021648406982421875">
        <ele>29.3999996185302734375</ele>
        <time>2019-07-11T15:33:10.000Z</time>
      </trkpt>
      <trkpt lat="43.58764537610113620758056640625" lon="-5.7677077688276767730712890625">
        <ele>30.200000762939453125</ele>
        <time>2019-07-11T15:33:11.000Z</time>
      </trkpt>
      <trkpt lat="43.58760547824203968048095703125" lon="-5.76780307106673717498779296875">
        <ele>31.799999237060546875</ele>
        <time>2019-07-11T15:33:13.000Z</time>
      </trkpt>
      <trkpt lat="43.58752937056124210357666015625" lon="-5.76793433167040348052978515625">
        <ele>33</ele>
        <time>2019-07-11T15:33:15.000Z</time>
      </trkpt>
      <trkpt lat="43.587254025042057037353515625" lon="-5.76843037270009517669677734375">
        <ele>34</ele>
        <time>2019-07-11T15:33:21.000Z</time>
      </trkpt>
      <trkpt lat="43.58720834366977214813232421875" lon="-5.768509916961193084716796875">
        <ele>34.200000762939453125</ele>
        <time>2019-07-11T15:33:22.000Z</time>
      </trkpt>
      <trkpt lat="43.5870308987796306610107421875" lon="-5.7688654772937297821044921875">
        <ele>34.40000152587890625</ele>
        <time>2019-07-11T15:33:26.000Z</time>
      </trkpt>
      <trkpt lat="43.58685110695660114288330078125" lon="-5.76930594630539417266845703125">
        <ele>33.40000152587890625</ele>
        <time>2019-07-11T15:33:30.000Z</time>
      </trkpt>
      <trkpt lat="43.58659721910953521728515625" lon="-5.76990030705928802490234375">
        <ele>33.40000152587890625</ele>
        <time>2019-07-11T15:33:35.000Z</time>
      </trkpt>
      <trkpt lat="43.58636260963976383209228515625" lon="-5.7704945839941501617431640625">
        <ele>33.799999237060546875</ele>
        <time>2019-07-11T15:33:40.000Z</time>
      </trkpt>
      <trkpt lat="43.58613998629152774810791015625" lon="-5.77101635746657848358154296875">
        <ele>35.200000762939453125</ele>
        <time>2019-07-11T15:33:46.000Z</time>
      </trkpt>
      <trkpt lat="43.58582231216132640838623046875" lon="-5.77164634130895137786865234375">
        <ele>35</ele>
        <time>2019-07-11T15:33:51.000Z</time>
      </trkpt>
      <trkpt lat="43.58548343181610107421875" lon="-5.7720546238124370574951171875">
        <ele>35</ele>
        <time>2019-07-11T15:33:55.000Z</time>
      </trkpt>
      <trkpt lat="43.58526910655200481414794921875" lon="-5.7723272033035755157470703125">
        <ele>36.59999847412109375</ele>
        <time>2019-07-11T15:33:59.000Z</time>
      </trkpt>
      <trkpt lat="43.58494699001312255859375" lon="-5.77277035452425479888916015625">
        <ele>37.59999847412109375</ele>
        <time>2019-07-11T15:34:04.000Z</time>
      </trkpt>
      <trkpt lat="43.5846467502415180206298828125" lon="-5.77330713160336017608642578125">
        <ele>37.40000152587890625</ele>
        <time>2019-07-11T15:34:09.000Z</time>
      </trkpt>
      <trkpt lat="43.58454876579344272613525390625" lon="-5.77348449267446994781494140625">
        <ele>37.799999237060546875</ele>
        <time>2019-07-11T15:34:11.000Z</time>
      </trkpt>
      <trkpt lat="43.58445187099277973175048828125" lon="-5.77367149293422698974609375">
        <ele>39</ele>
        <time>2019-07-11T15:34:13.000Z</time>
      </trkpt>
      <trkpt lat="43.5842829756438732147216796875" lon="-5.77398925088346004486083984375">
        <ele>40.200000762939453125</ele>
        <time>2019-07-11T15:34:16.000Z</time>
      </trkpt>
      <trkpt lat="43.5840885154902935028076171875" lon="-5.77439124695956707000732421875">
        <ele>41.200000762939453125</ele>
        <time>2019-07-11T15:34:19.000Z</time>
      </trkpt>
      <trkpt lat="43.583789281547069549560546875" lon="-5.77503397129476070404052734375">
        <ele>42.200000762939453125</ele>
        <time>2019-07-11T15:34:23.000Z</time>
      </trkpt>
      <trkpt lat="43.58371376059949398040771484375" lon="-5.775201022624969482421875">
        <ele>42.40000152587890625</ele>
        <time>2019-07-11T15:34:24.000Z</time>
      </trkpt>
      <trkpt lat="43.58357126824557781219482421875" lon="-5.77553152106702327728271484375">
        <ele>43.40000152587890625</ele>
        <time>2019-07-11T15:34:26.000Z</time>
      </trkpt>
      <trkpt lat="43.58342760242521762847900390625" lon="-5.77587115578353404998779296875">
        <ele>45</ele>
        <time>2019-07-11T15:34:28.000Z</time>
      </trkpt>
      <trkpt lat="43.58328091911971569061279296875" lon="-5.776219926774501800537109375">
        <ele>46.59999847412109375</ele>
        <time>2019-07-11T15:34:30.000Z</time>
      </trkpt>
      <trkpt lat="43.58313046395778656005859375" lon="-5.776575990021228790283203125">
        <ele>48.799999237060546875</ele>
        <time>2019-07-11T15:34:32.000Z</time>
      </trkpt>
      <trkpt lat="43.58305360190570354461669921875" lon="-5.77675812877714633941650390625">
        <ele>49.799999237060546875</ele>
        <time>2019-07-11T15:34:33.000Z</time>
      </trkpt>
      <trkpt lat="43.58289711177349090576171875" lon="-5.7771025411784648895263671875">
        <ele>51.40000152587890625</ele>
        <time>2019-07-11T15:34:35.000Z</time>
      </trkpt>
      <trkpt lat="43.58273223973810672760009765625" lon="-5.7774052955210208892822265625">
        <ele>53.200000762939453125</ele>
        <time>2019-07-11T15:34:37.000Z</time>
      </trkpt>
      <trkpt lat="43.5825397074222564697265625" lon="-5.77767007984220981597900390625">
        <ele>54.200000762939453125</ele>
        <time>2019-07-11T15:34:39.000Z</time>
      </trkpt>
      <trkpt lat="43.58210728503763675689697265625" lon="-5.77807031571865081787109375">
        <ele>54.59999847412109375</ele>
        <time>2019-07-11T15:34:43.000Z</time>
      </trkpt>
      <trkpt lat="43.58167595230042934417724609375" lon="-5.77837516553699970245361328125">
        <ele>53.200000762939453125</ele>
        <time>2019-07-11T15:34:47.000Z</time>
      </trkpt>
      <trkpt lat="43.581339418888092041015625" lon="-5.77862553298473358154296875">
        <ele>53</ele>
        <time>2019-07-11T15:34:51.000Z</time>
      </trkpt>
      <trkpt lat="43.5812641493976116180419921875" lon="-5.77875754795968532562255859375">
        <ele>54.200000762939453125</ele>
        <time>2019-07-11T15:34:53.000Z</time>
      </trkpt>
      <trkpt lat="43.581251241266727447509765625" lon="-5.77881806530058383941650390625">
        <ele>54.59999847412109375</ele>
        <time>2019-07-11T15:34:54.000Z</time>
      </trkpt>
      <trkpt lat="43.58125098980963230133056640625" lon="-5.77887271530926227569580078125">
        <ele>55.200000762939453125</ele>
        <time>2019-07-11T15:34:55.000Z</time>
      </trkpt>
      <trkpt lat="43.581263311207294464111328125" lon="-5.77892485074698925018310546875">
        <ele>55.59999847412109375</ele>
        <time>2019-07-11T15:34:56.000Z</time>
      </trkpt>
      <trkpt lat="43.5812876187264919281005859375" lon="-5.77897983603179454803466796875">
        <ele>55.799999237060546875</ele>
        <time>2019-07-11T15:34:57.000Z</time>
      </trkpt>
      <trkpt lat="43.5814002715051174163818359375" lon="-5.77918636612594127655029296875">
        <ele>56.200000762939453125</ele>
        <time>2019-07-11T15:35:00.000Z</time>
      </trkpt>
      <trkpt lat="43.5814534127712249755859375" lon="-5.7793659903109073638916015625">
        <ele>56.200000762939453125</ele>
        <time>2019-07-11T15:35:02.000Z</time>
      </trkpt>
      <trkpt lat="43.58144494704902172088623046875" lon="-5.7795537449419498443603515625">
        <ele>56.200000762939453125</ele>
        <time>2019-07-11T15:35:04.000Z</time>
      </trkpt>
      <trkpt lat="43.581361882388591766357421875" lon="-5.77972632832825183868408203125">
        <ele>56.200000762939453125</ele>
        <time>2019-07-11T15:35:06.000Z</time>
      </trkpt>
      <trkpt lat="43.58120924793183803558349609375" lon="-5.7798370532691478729248046875">
        <ele>56.200000762939453125</ele>
        <time>2019-07-11T15:35:08.000Z</time>
      </trkpt>
      <trkpt lat="43.5810173861682415008544921875" lon="-5.77993235550820827484130859375">
        <ele>56.40000152587890625</ele>
        <time>2019-07-11T15:35:10.000Z</time>
      </trkpt>
      <trkpt lat="43.5808440484106540679931640625" lon="-5.78012295998632907867431640625">
        <ele>55.799999237060546875</ele>
        <time>2019-07-11T15:35:12.000Z</time>
      </trkpt>
      <trkpt lat="43.58047314919531345367431640625" lon="-5.7806370221078395843505859375">
        <ele>55.200000762939453125</ele>
        <time>2019-07-11T15:35:16.000Z</time>
      </trkpt>
      <trkpt lat="43.58009286224842071533203125" lon="-5.78117321245372295379638671875">
        <ele>54.799999237060546875</ele>
        <time>2019-07-11T15:35:20.000Z</time>
      </trkpt>
      <trkpt lat="43.57973990030586719512939453125" lon="-5.781849883496761322021484375">
        <ele>55.200000762939453125</ele>
        <time>2019-07-11T15:35:24.000Z</time>
      </trkpt>
      <trkpt lat="43.57956849038600921630859375" lon="-5.78228280879557132720947265625">
        <ele>54.40000152587890625</ele>
        <time>2019-07-11T15:35:26.000Z</time>
      </trkpt>
      <trkpt lat="43.57931141741573810577392578125" lon="-5.78299476765096187591552734375">
        <ele>56</ele>
        <time>2019-07-11T15:35:29.000Z</time>
      </trkpt>
      <trkpt lat="43.5792239941656589508056640625" lon="-5.7832424528896808624267578125">
        <ele>58.59999847412109375</ele>
        <time>2019-07-11T15:35:30.000Z</time>
      </trkpt>
      <trkpt lat="43.57913590036332607269287109375" lon="-5.7834925688803195953369140625">
        <ele>61.799999237060546875</ele>
        <time>2019-07-11T15:35:31.000Z</time>
      </trkpt>
      <trkpt lat="43.5790476389229297637939453125" lon="-5.78374695964157581329345703125">
        <ele>63.799999237060546875</ele>
        <time>2019-07-11T15:35:32.000Z</time>
      </trkpt>
      <trkpt lat="43.57896055094897747039794921875" lon="-5.7840053737163543701171875">
        <ele>65</ele>
        <time>2019-07-11T15:35:33.000Z</time>
      </trkpt>
      <trkpt lat="43.5788062401115894317626953125" lon="-5.78451273031532764434814453125">
        <ele>63.799999237060546875</ele>
        <time>2019-07-11T15:35:35.000Z</time>
      </trkpt>
      <trkpt lat="43.57859308831393718719482421875" lon="-5.785271711647510528564453125">
        <ele>62.59999847412109375</ele>
        <time>2019-07-11T15:35:38.000Z</time>
      </trkpt>
      <trkpt lat="43.57852553017437458038330078125" lon="-5.785522498190402984619140625">
        <ele>60</ele>
        <time>2019-07-11T15:35:39.000Z</time>
      </trkpt>
      <trkpt lat="43.578390665352344512939453125" lon="-5.786014683544635772705078125">
        <ele>58.799999237060546875</ele>
        <time>2019-07-11T15:35:41.000Z</time>
      </trkpt>
      <trkpt lat="43.57822177000343799591064453125" lon="-5.78648842871189117431640625">
        <ele>56.59999847412109375</ele>
        <time>2019-07-11T15:35:43.000Z</time>
      </trkpt>
      <trkpt lat="43.578113727271556854248046875" lon="-5.78671130351722240447998046875">
        <ele>54.59999847412109375</ele>
        <time>2019-07-11T15:35:44.000Z</time>
      </trkpt>
      <trkpt lat="43.5779898427426815032958984375" lon="-5.78692437149584293365478515625">
        <ele>53.40000152587890625</ele>
        <time>2019-07-11T15:35:45.000Z</time>
      </trkpt>
      <trkpt lat="43.57755105011165142059326171875" lon="-5.78753046691417694091796875">
        <ele>54.40000152587890625</ele>
        <time>2019-07-11T15:35:48.000Z</time>
      </trkpt>
      <trkpt lat="43.57706624083220958709716796875" lon="-5.7881562598049640655517578125">
        <ele>52.799999237060546875</ele>
        <time>2019-07-11T15:35:51.000Z</time>
      </trkpt>
      <trkpt lat="43.576904721558094024658203125" lon="-5.7883580960333347320556640625">
        <ele>50.40000152587890625</ele>
        <time>2019-07-11T15:35:52.000Z</time>
      </trkpt>
      <trkpt lat="43.576744459569454193115234375" lon="-5.788556076586246490478515625">
        <ele>48.200000762939453125</ele>
        <time>2019-07-11T15:35:53.000Z</time>
      </trkpt>
      <trkpt lat="43.57658562250435352325439453125" lon="-5.78875095583498477935791015625">
        <ele>47.200000762939453125</ele>
        <time>2019-07-11T15:35:54.000Z</time>
      </trkpt>
      <trkpt lat="43.5762728936970233917236328125" lon="-5.789144150912761688232421875">
        <ele>48.59999847412109375</ele>
        <time>2019-07-11T15:35:56.000Z</time>
      </trkpt>
      <trkpt lat="43.5761153139173984527587890625" lon="-5.78934405930340290069580078125">
        <ele>51.799999237060546875</ele>
        <time>2019-07-11T15:35:57.000Z</time>
      </trkpt>
      <trkpt lat="43.57595597393810749053955078125" lon="-5.78954924829304218292236328125">
        <ele>54.200000762939453125</ele>
        <time>2019-07-11T15:35:58.000Z</time>
      </trkpt>
      <trkpt lat="43.57579596340656280517578125" lon="-5.78975779004395008087158203125">
        <ele>55.40000152587890625</ele>
        <time>2019-07-11T15:35:59.000Z</time>
      </trkpt>
      <trkpt lat="43.57546714134514331817626953125" lon="-5.79018342308700084686279296875">
        <ele>56</ele>
        <time>2019-07-11T15:36:01.000Z</time>
      </trkpt>
      <trkpt lat="43.575128428637981414794921875" lon="-5.7906292565166950225830078125">
        <ele>54.59999847412109375</ele>
        <time>2019-07-11T15:36:03.000Z</time>
      </trkpt>
      <trkpt lat="43.57495936565101146697998046875" lon="-5.79086738638579845428466796875">
        <ele>53</ele>
        <time>2019-07-11T15:36:04.000Z</time>
      </trkpt>
      <trkpt lat="43.57479273341596126556396484375" lon="-5.79111792147159576416015625">
        <ele>50.799999237060546875</ele>
        <time>2019-07-11T15:36:05.000Z</time>
      </trkpt>
      <trkpt lat="43.5746297053992748260498046875" lon="-5.7913789339363574981689453125">
        <ele>49</ele>
        <time>2019-07-11T15:36:06.000Z</time>
      </trkpt>
      <trkpt lat="43.57431982643902301788330078125" lon="-5.791917555034160614013671875">
        <ele>48.59999847412109375</ele>
        <time>2019-07-11T15:36:08.000Z</time>
      </trkpt>
      <trkpt lat="43.57402763329446315765380859375" lon="-5.79249498434364795684814453125">
        <ele>48.799999237060546875</ele>
        <time>2019-07-11T15:36:10.000Z</time>
      </trkpt>
      <trkpt lat="43.57375622726976871490478515625" lon="-5.79310367815196514129638671875">
        <ele>48.40000152587890625</ele>
        <time>2019-07-11T15:36:12.000Z</time>
      </trkpt>
      <trkpt lat="43.57350929640233516693115234375" lon="-5.79372259788215160369873046875">
        <ele>48.200000762939453125</ele>
        <time>2019-07-11T15:36:14.000Z</time>
      </trkpt>
      <trkpt lat="43.57339681126177310943603515625" lon="-5.79403826035559177398681640625">
        <ele>45.59999847412109375</ele>
        <time>2019-07-11T15:36:15.000Z</time>
      </trkpt>
      <trkpt lat="43.5732909478247165679931640625" lon="-5.79435643739998340606689453125">
        <ele>44</ele>
        <time>2019-07-11T15:36:16.000Z</time>
      </trkpt>
      <trkpt lat="43.573093302547931671142578125" lon="-5.79499849118292331695556640625">
        <ele>45</ele>
        <time>2019-07-11T15:36:18.000Z</time>
      </trkpt>
      <trkpt lat="43.57300202362239360809326171875" lon="-5.79531826078891754150390625">
        <ele>45</ele>
        <time>2019-07-11T15:36:19.000Z</time>
      </trkpt>
      <trkpt lat="43.5728329606354236602783203125" lon="-5.79593441449105739593505859375">
        <ele>45.59999847412109375</ele>
        <time>2019-07-11T15:36:21.000Z</time>
      </trkpt>
      <trkpt lat="43.57274872250854969024658203125" lon="-5.79623046331107616424560546875">
        <ele>46.59999847412109375</ele>
        <time>2019-07-11T15:36:22.000Z</time>
      </trkpt>
      <trkpt lat="43.57255660928785800933837890625" lon="-5.7967980019748210906982421875">
        <ele>48.200000762939453125</ele>
        <time>2019-07-11T15:36:24.000Z</time>
      </trkpt>
      <trkpt lat="43.57231353409588336944580078125" lon="-5.797336958348751068115234375">
        <ele>49</ele>
        <time>2019-07-11T15:36:26.000Z</time>
      </trkpt>
      <trkpt lat="43.5720132105052471160888671875" lon="-5.797866694629192352294921875">
        <ele>47.59999847412109375</ele>
        <time>2019-07-11T15:36:28.000Z</time>
      </trkpt>
      <trkpt lat="43.571835346519947052001953125" lon="-5.798128880560398101806640625">
        <ele>45.799999237060546875</ele>
        <time>2019-07-11T15:36:29.000Z</time>
      </trkpt>
      <trkpt lat="43.57164683751761913299560546875" lon="-5.798380672931671142578125">
        <ele>44.799999237060546875</ele>
        <time>2019-07-11T15:36:30.000Z</time>
      </trkpt>
      <trkpt lat="43.57145472429692745208740234375" lon="-5.7986279390752315521240234375">
        <ele>42.59999847412109375</ele>
        <time>2019-07-11T15:36:31.000Z</time>
      </trkpt>
      <trkpt lat="43.5712621919810771942138671875" lon="-5.7988755404949188232421875">
        <ele>39.40000152587890625</ele>
        <time>2019-07-11T15:36:32.000Z</time>
      </trkpt>
      <trkpt lat="43.57107619754970073699951171875" lon="-5.79912691377103328704833984375">
        <ele>37.59999847412109375</ele>
        <time>2019-07-11T15:36:33.000Z</time>
      </trkpt>
      <trkpt lat="43.57090319506824016571044921875" lon="-5.79938775859773159027099609375">
        <ele>36.59999847412109375</ele>
        <time>2019-07-11T15:36:34.000Z</time>
      </trkpt>
      <trkpt lat="43.57059792615473270416259765625" lon="-5.799940042197704315185546875">
        <ele>38.40000152587890625</ele>
        <time>2019-07-11T15:36:36.000Z</time>
      </trkpt>
      <trkpt lat="43.5703401826322078704833984375" lon="-5.8005319721996784210205078125">
        <ele>41.59999847412109375</ele>
        <time>2019-07-11T15:36:38.000Z</time>
      </trkpt>
      <trkpt lat="43.5702283680438995361328125" lon="-5.8008427731692790985107421875">
        <ele>44.200000762939453125</ele>
        <time>2019-07-11T15:36:39.000Z</time>
      </trkpt>
      <trkpt lat="43.57012451626360416412353515625" lon="-5.8011616207659244537353515625">
        <ele>47.200000762939453125</ele>
        <time>2019-07-11T15:36:40.000Z</time>
      </trkpt>
      <trkpt lat="43.57002845965325832366943359375" lon="-5.80148625187575817108154296875">
        <ele>48.59999847412109375</ele>
        <time>2019-07-11T15:36:41.000Z</time>
      </trkpt>
      <trkpt lat="43.5699381865561008453369140625" lon="-5.8018160797655582427978515625">
        <ele>49.799999237060546875</ele>
        <time>2019-07-11T15:36:42.000Z</time>
      </trkpt>
      <trkpt lat="43.56978152878582477569580078125" lon="-5.80249585211277008056640625">
        <ele>50.40000152587890625</ele>
        <time>2019-07-11T15:36:44.000Z</time>
      </trkpt>
      <trkpt lat="43.56965647079050540924072265625" lon="-5.803197920322418212890625">
        <ele>51.799999237060546875</ele>
        <time>2019-07-11T15:36:46.000Z</time>
      </trkpt>
      <trkpt lat="43.56960651464760303497314453125" lon="-5.80355532467365264892578125">
        <ele>52.799999237060546875</ele>
        <time>2019-07-11T15:36:47.000Z</time>
      </trkpt>
      <trkpt lat="43.5695294849574565887451171875" lon="-5.80425328575074672698974609375">
        <ele>53.59999847412109375</ele>
        <time>2019-07-11T15:36:49.000Z</time>
      </trkpt>
      <trkpt lat="43.56945983134210109710693359375" lon="-5.804894752800464630126953125">
        <ele>53.799999237060546875</ele>
        <time>2019-07-11T15:36:51.000Z</time>
      </trkpt>
      <trkpt lat="43.569417335093021392822265625" lon="-5.80520295538008213043212890625">
        <ele>54</ele>
        <time>2019-07-11T15:36:52.000Z</time>
      </trkpt>
      <trkpt lat="43.56930057518184185028076171875" lon="-5.805806033313274383544921875">
        <ele>54</ele>
        <time>2019-07-11T15:36:54.000Z</time>
      </trkpt>
      <trkpt lat="43.56911667622625827789306640625" lon="-5.8063845522701740264892578125">
        <ele>54.200000762939453125</ele>
        <time>2019-07-11T15:36:56.000Z</time>
      </trkpt>
      <trkpt lat="43.5688569210469722747802734375" lon="-5.80692593939602375030517578125">
        <ele>53.799999237060546875</ele>
        <time>2019-07-11T15:36:58.000Z</time>
      </trkpt>
      <trkpt lat="43.568544276058673858642578125" lon="-5.80740421079099178314208984375">
        <ele>53.59999847412109375</ele>
        <time>2019-07-11T15:37:00.000Z</time>
      </trkpt>
      <trkpt lat="43.56809743680059909820556640625" lon="-5.8080491982400417327880859375">
        <ele>54.200000762939453125</ele>
        <time>2019-07-11T15:37:03.000Z</time>
      </trkpt>
      <trkpt lat="43.5679774917662143707275390625" lon="-5.8082691393792629241943359375">
        <ele>55.59999847412109375</ele>
        <time>2019-07-11T15:37:04.000Z</time>
      </trkpt>
      <trkpt lat="43.56787833385169506072998046875" lon="-5.80850374884903430938720703125">
        <ele>57.40000152587890625</ele>
        <time>2019-07-11T15:37:05.000Z</time>
      </trkpt>
      <trkpt lat="43.5677971132099628448486328125" lon="-5.8087596483528614044189453125">
        <ele>58</ele>
        <time>2019-07-11T15:37:06.000Z</time>
      </trkpt>
      <trkpt lat="43.56772762723267078399658203125" lon="-5.80903532914817333221435546875">
        <ele>58.40000152587890625</ele>
        <time>2019-07-11T15:37:07.000Z</time>
      </trkpt>
      <trkpt lat="43.56756485067307949066162109375" lon="-5.8099431730806827545166015625">
        <ele>58.799999237060546875</ele>
        <time>2019-07-11T15:37:10.000Z</time>
      </trkpt>
      <trkpt lat="43.56744130142033100128173828125" lon="-5.81056988798081874847412109375">
        <ele>58.799999237060546875</ele>
        <time>2019-07-11T15:37:12.000Z</time>
      </trkpt>
      <trkpt lat="43.5672667063772678375244140625" lon="-5.81118914298713207244873046875">
        <ele>59.200000762939453125</ele>
        <time>2019-07-11T15:37:14.000Z</time>
      </trkpt>
      <trkpt lat="43.567162938416004180908203125" lon="-5.81149558536708354949951171875">
        <ele>59.59999847412109375</ele>
        <time>2019-07-11T15:37:15.000Z</time>
      </trkpt>
      <trkpt lat="43.5669384710490703582763671875" lon="-5.8121083863079547882080078125">
        <ele>60</ele>
        <time>2019-07-11T15:37:17.000Z</time>
      </trkpt>
      <trkpt lat="43.566696234047412872314453125" lon="-5.81272236071527004241943359375">
        <ele>60.59999847412109375</ele>
        <time>2019-07-11T15:37:19.000Z</time>
      </trkpt>
      <trkpt lat="43.56641091406345367431640625" lon="-5.813310183584690093994140625">
        <ele>61.799999237060546875</ele>
        <time>2019-07-11T15:37:21.000Z</time>
      </trkpt>
      <trkpt lat="43.56606516055762767791748046875" lon="-5.81384100951254367828369140625">
        <ele>62.200000762939453125</ele>
        <time>2019-07-11T15:37:23.000Z</time>
      </trkpt>
      <trkpt lat="43.56568663381040096282958984375" lon="-5.81431861035525798797607421875">
        <ele>61.40000152587890625</ele>
        <time>2019-07-11T15:37:25.000Z</time>
      </trkpt>
      <trkpt lat="43.56531322002410888671875" lon="-5.814766623079776763916015625">
        <ele>61</ele>
        <time>2019-07-11T15:37:27.000Z</time>
      </trkpt>
      <trkpt lat="43.56497316621243953704833984375" lon="-5.815257132053375244140625">
        <ele>61.200000762939453125</ele>
        <time>2019-07-11T15:37:29.000Z</time>
      </trkpt>
      <trkpt lat="43.56467292644083499908447265625" lon="-5.815800614655017852783203125">
        <ele>64.1999969482421875</ele>
        <time>2019-07-11T15:37:31.000Z</time>
      </trkpt>
      <trkpt lat="43.564388193190097808837890625" lon="-5.81636614166200160980224609375">
        <ele>64.1999969482421875</ele>
        <time>2019-07-11T15:37:33.000Z</time>
      </trkpt>
      <trkpt lat="43.56409641914069652557373046875" lon="-5.8169189281761646270751953125">
        <ele>63.40000152587890625</ele>
        <time>2019-07-11T15:37:35.000Z</time>
      </trkpt>
      <trkpt lat="43.56393389403820037841796875" lon="-5.81716812215745449066162109375">
        <ele>63.200000762939453125</ele>
        <time>2019-07-11T15:37:36.000Z</time>
      </trkpt>
      <trkpt lat="43.563759215176105499267578125" lon="-5.81739309243857860565185546875">
        <ele>61.40000152587890625</ele>
        <time>2019-07-11T15:37:37.000Z</time>
      </trkpt>
      <trkpt lat="43.5633842088282108306884765625" lon="-5.81779056228697299957275390625">
        <ele>60.799999237060546875</ele>
        <time>2019-07-11T15:37:39.000Z</time>
      </trkpt>
      <trkpt lat="43.5630110464990139007568359375" lon="-5.8181591145694255828857421875">
        <ele>61.200000762939453125</ele>
        <time>2019-07-11T15:37:41.000Z</time>
      </trkpt>
      <trkpt lat="43.56267032213509082794189453125" lon="-5.81851257942616939544677734375">
        <ele>62.40000152587890625</ele>
        <time>2019-07-11T15:37:43.000Z</time>
      </trkpt>
      <trkpt lat="43.56251140125095844268798828125" lon="-5.81869513727724552154541015625">
        <ele>64.1999969482421875</ele>
        <time>2019-07-11T15:37:44.000Z</time>
      </trkpt>
      <trkpt lat="43.56236203573644161224365234375" lon="-5.8188920281827449798583984375">
        <ele>66.59999847412109375</ele>
        <time>2019-07-11T15:37:45.000Z</time>
      </trkpt>
      <trkpt lat="43.5622197948396205902099609375" lon="-5.81910517998039722442626953125">
        <ele>68</ele>
        <time>2019-07-11T15:37:46.000Z</time>
      </trkpt>
      <trkpt lat="43.56208459474146366119384765625" lon="-5.8193362690508365631103515625">
        <ele>70</ele>
        <time>2019-07-11T15:37:47.000Z</time>
      </trkpt>
      <trkpt lat="43.5619619674980640411376953125" lon="-5.8195847086608409881591796875">
        <ele>72.1999969482421875</ele>
        <time>2019-07-11T15:37:48.000Z</time>
      </trkpt>
      <trkpt lat="43.56185652315616607666015625" lon="-5.81985108554363250732421875">
        <ele>74.1999969482421875</ele>
        <time>2019-07-11T15:37:49.000Z</time>
      </trkpt>
      <trkpt lat="43.56169332750141620635986328125" lon="-5.8204228989779949188232421875">
        <ele>76.40000152587890625</ele>
        <time>2019-07-11T15:37:51.000Z</time>
      </trkpt>
      <trkpt lat="43.56157313100993633270263671875" lon="-5.8210223726928234100341796875">
        <ele>77.40000152587890625</ele>
        <time>2019-07-11T15:37:53.000Z</time>
      </trkpt>
      <trkpt lat="43.5614560358226299285888671875" lon="-5.82162939012050628662109375">
        <ele>78.8000030517578125</ele>
        <time>2019-07-11T15:37:55.000Z</time>
      </trkpt>
      <trkpt lat="43.56138453818857669830322265625" lon="-5.821929462254047393798828125">
        <ele>79.40000152587890625</ele>
        <time>2019-07-11T15:37:56.000Z</time>
      </trkpt>
      <trkpt lat="43.56129786930978298187255859375" lon="-5.822225511074066162109375">
        <ele>80.40000152587890625</ele>
        <time>2019-07-11T15:37:57.000Z</time>
      </trkpt>
      <trkpt lat="43.56107574887573719024658203125" lon="-5.82280964590609073638916015625">
        <ele>80.8000030517578125</ele>
        <time>2019-07-11T15:37:59.000Z</time>
      </trkpt>
      <trkpt lat="43.5609519481658935546875" lon="-5.82310318015515804290771484375">
        <ele>81.8000030517578125</ele>
        <time>2019-07-11T15:38:00.000Z</time>
      </trkpt>
      <trkpt lat="43.5606976412236690521240234375" lon="-5.82369762472808361053466796875">
        <ele>82.1999969482421875</ele>
        <time>2019-07-11T15:38:02.000Z</time>
      </trkpt>
      <trkpt lat="43.5605692304670810699462890625" lon="-5.82399375736713409423828125">
        <ele>83</ele>
        <time>2019-07-11T15:38:03.000Z</time>
      </trkpt>
      <trkpt lat="43.56031291186809539794921875" lon="-5.82458023913204669952392578125">
        <ele>82.1999969482421875</ele>
        <time>2019-07-11T15:38:05.000Z</time>
      </trkpt>
      <trkpt lat="43.56005810201168060302734375" lon="-5.82515892572700977325439453125">
        <ele>83</ele>
        <time>2019-07-11T15:38:07.000Z</time>
      </trkpt>
      <trkpt lat="43.5599315352737903594970703125" lon="-5.825448520481586456298828125">
        <ele>85.40000152587890625</ele>
        <time>2019-07-11T15:38:08.000Z</time>
      </trkpt>
      <trkpt lat="43.55980555526912212371826171875" lon="-5.82573987543582916259765625">
        <ele>86.59999847412109375</ele>
        <time>2019-07-11T15:38:09.000Z</time>
      </trkpt>
      <trkpt lat="43.55956130661070346832275390625" lon="-5.82632048986852169036865234375">
        <ele>87.8000030517578125</ele>
        <time>2019-07-11T15:38:11.000Z</time>
      </trkpt>
      <trkpt lat="43.55930968187749385833740234375" lon="-5.8268907107412815093994140625">
        <ele>88.8000030517578125</ele>
        <time>2019-07-11T15:38:13.000Z</time>
      </trkpt>
      <trkpt lat="43.55905520729720592498779296875" lon="-5.8274610154330730438232421875">
        <ele>87.8000030517578125</ele>
        <time>2019-07-11T15:38:15.000Z</time>
      </trkpt>
      <trkpt lat="43.55879955925047397613525390625" lon="-5.82803978584706783294677734375">
        <ele>89</ele>
        <time>2019-07-11T15:38:17.000Z</time>
      </trkpt>
      <trkpt lat="43.5585398040711879730224609375" lon="-5.8286287821829319000244140625">
        <ele>88</ele>
        <time>2019-07-11T15:38:19.000Z</time>
      </trkpt>
      <trkpt lat="43.558408878743648529052734375" lon="-5.82892390899360179901123046875">
        <ele>88</ele>
        <time>2019-07-11T15:38:20.000Z</time>
      </trkpt>
      <trkpt lat="43.55815432034432888031005859375" lon="-5.82951181568205356597900390625">
        <ele>88.40000152587890625</ele>
        <time>2019-07-11T15:38:22.000Z</time>
      </trkpt>
      <trkpt lat="43.55791367590427398681640625" lon="-5.83008698187768459320068359375">
        <ele>87.1999969482421875</ele>
        <time>2019-07-11T15:38:24.000Z</time>
      </trkpt>
      <trkpt lat="43.5578015260398387908935546875" lon="-5.83036073483526706695556640625">
        <ele>86.40000152587890625</ele>
        <time>2019-07-11T15:38:25.000Z</time>
      </trkpt>
      <trkpt lat="43.5575844347476959228515625" lon="-5.83088259212672710418701171875">
        <ele>87.8000030517578125</ele>
        <time>2019-07-11T15:38:27.000Z</time>
      </trkpt>
      <trkpt lat="43.55736390687525272369384765625" lon="-5.83139958791434764862060546875">
        <ele>86.59999847412109375</ele>
        <time>2019-07-11T15:38:29.000Z</time>
      </trkpt>
      <trkpt lat="43.55704572983086109161376953125" lon="-5.83217918872833251953125">
        <ele>87</ele>
        <time>2019-07-11T15:38:32.000Z</time>
      </trkpt>
      <trkpt lat="43.5567314922809600830078125" lon="-5.83296976983547210693359375">
        <ele>87.1999969482421875</ele>
        <time>2019-07-11T15:38:35.000Z</time>
      </trkpt>
      <trkpt lat="43.5564123094081878662109375" lon="-5.83376445807516574859619140625">
        <ele>85.8000030517578125</ele>
        <time>2019-07-11T15:38:38.000Z</time>
      </trkpt>
      <trkpt lat="43.55630611069500446319580078125" lon="-5.83402563817799091339111328125">
        <ele>83</ele>
        <time>2019-07-11T15:38:39.000Z</time>
      </trkpt>
      <trkpt lat="43.556202761828899383544921875" lon="-5.83428363315761089324951171875">
        <ele>79.40000152587890625</ele>
        <time>2019-07-11T15:38:40.000Z</time>
      </trkpt>
      <trkpt lat="43.55610427446663379669189453125" lon="-5.83453341387212276458740234375">
        <ele>77.59999847412109375</ele>
        <time>2019-07-11T15:38:41.000Z</time>
      </trkpt>
      <trkpt lat="43.5560054518282413482666015625" lon="-5.83477548323571681976318359375">
        <ele>75.59999847412109375</ele>
        <time>2019-07-11T15:38:42.000Z</time>
      </trkpt>
      <trkpt lat="43.55589799582958221435546875" lon="-5.8350067399442195892333984375">
        <ele>74.40000152587890625</ele>
        <time>2019-07-11T15:38:43.000Z</time>
      </trkpt>
      <trkpt lat="43.5557731054723262786865234375" lon="-5.83522642962634563446044921875">
        <ele>74.1999969482421875</ele>
        <time>2019-07-11T15:38:44.000Z</time>
      </trkpt>
      <trkpt lat="43.55546616017818450927734375" lon="-5.83559875376522541046142578125">
        <ele>74.40000152587890625</ele>
        <time>2019-07-11T15:38:46.000Z</time>
      </trkpt>
      <trkpt lat="43.55508184991776943206787109375" lon="-5.83582892082631587982177734375">
        <ele>75.40000152587890625</ele>
        <time>2019-07-11T15:38:48.000Z</time>
      </trkpt>
      <trkpt lat="43.55466283857822418212890625" lon="-5.83588935434818267822265625">
        <ele>74.8000030517578125</ele>
        <time>2019-07-11T15:38:50.000Z</time>
      </trkpt>
      <trkpt lat="43.5542610101401805877685546875" lon="-5.83575096912682056427001953125">
        <ele>75.1999969482421875</ele>
        <time>2019-07-11T15:38:52.000Z</time>
      </trkpt>
      <trkpt lat="43.55369632132351398468017578125" lon="-5.835382752120494842529296875">
        <ele>74.40000152587890625</ele>
        <time>2019-07-11T15:38:55.000Z</time>
      </trkpt>
      <trkpt lat="43.55312752537429332733154296875" lon="-5.83494119346141815185546875">
        <ele>74.40000152587890625</ele>
        <time>2019-07-11T15:38:58.000Z</time>
      </trkpt>
      <trkpt lat="43.55293725617229938507080078125" lon="-5.83478570915758609771728515625">
        <ele>72.59999847412109375</ele>
        <time>2019-07-11T15:38:59.000Z</time>
      </trkpt>
      <trkpt lat="43.552746735513210296630859375" lon="-5.83463810384273529052734375">
        <ele>71</ele>
        <time>2019-07-11T15:39:00.000Z</time>
      </trkpt>
      <trkpt lat="43.5523462481796741485595703125" lon="-5.83439561538398265838623046875">
        <ele>69.1999969482421875</ele>
        <time>2019-07-11T15:39:02.000Z</time>
      </trkpt>
      <trkpt lat="43.5521340183913707733154296875" lon="-5.834315903484821319580078125">
        <ele>67.59999847412109375</ele>
        <time>2019-07-11T15:39:03.000Z</time>
      </trkpt>
      <trkpt lat="43.55191919021308422088623046875" lon="-5.8342687971889972686767578125">
        <ele>65.8000030517578125</ele>
        <time>2019-07-11T15:39:04.000Z</time>
      </trkpt>
      <trkpt lat="43.5517072118818759918212890625" lon="-5.83426033146679401397705078125">
        <ele>63.59999847412109375</ele>
        <time>2019-07-11T15:39:05.000Z</time>
      </trkpt>
      <trkpt lat="43.5515010170638561248779296875" lon="-5.83428564481437206268310546875">
        <ele>61</ele>
        <time>2019-07-11T15:39:06.000Z</time>
      </trkpt>
      <trkpt lat="43.5513105802237987518310546875" lon="-5.83432705141603946685791015625">
        <ele>59.40000152587890625</ele>
        <time>2019-07-11T15:39:07.000Z</time>
      </trkpt>
      <trkpt lat="43.5508386790752410888671875" lon="-5.83450173027813434600830078125">
        <ele>59.40000152587890625</ele>
        <time>2019-07-11T15:39:10.000Z</time>
      </trkpt>
      <trkpt lat="43.5502896644175052642822265625" lon="-5.83472535945475101470947265625">
        <ele>59.40000152587890625</ele>
        <time>2019-07-11T15:39:14.000Z</time>
      </trkpt>
      <trkpt lat="43.5497726686298847198486328125" lon="-5.8349128626286983489990234375">
        <ele>59</ele>
        <time>2019-07-11T15:39:18.000Z</time>
      </trkpt>
      <trkpt lat="43.54929439723491668701171875" lon="-5.83500816486775875091552734375">
        <ele>59.40000152587890625</ele>
        <time>2019-07-11T15:39:23.000Z</time>
      </trkpt>
      <trkpt lat="43.54918099008500576019287109375" lon="-5.83504035137593746185302734375">
        <ele>61</ele>
        <time>2019-07-11T15:39:26.000Z</time>
      </trkpt>
      <trkpt lat="43.54915559291839599609375" lon="-5.83506683818995952606201171875">
        <ele>62</ele>
        <time>2019-07-11T15:39:40.000Z</time>
      </trkpt>
      <trkpt lat="43.5490643978118896484375" lon="-5.83505543880164623260498046875">
        <ele>62.200000762939453125</ele>
        <time>2019-07-11T15:40:33.000Z</time>
      </trkpt>
      <trkpt lat="43.5486307181417942047119140625" lon="-5.834982097148895263671875">
        <ele>60.40000152587890625</ele>
        <time>2019-07-11T15:40:39.000Z</time>
      </trkpt>
      <trkpt lat="43.548471629619598388671875" lon="-5.8349715359508991241455078125">
        <ele>59.200000762939453125</ele>
        <time>2019-07-11T15:40:41.000Z</time>
      </trkpt>
      <trkpt lat="43.54814783670008182525634765625" lon="-5.83499978296458721160888671875">
        <ele>59.200000762939453125</ele>
        <time>2019-07-11T15:40:45.000Z</time>
      </trkpt>
      <trkpt lat="43.54798673652112483978271484375" lon="-5.834974385797977447509765625">
        <ele>59.40000152587890625</ele>
        <time>2019-07-11T15:40:47.000Z</time>
      </trkpt>
      <trkpt lat="43.5478305816650390625" lon="-5.83486609160900115966796875">
        <ele>59.200000762939453125</ele>
        <time>2019-07-11T15:40:49.000Z</time>
      </trkpt>
      <trkpt lat="43.54767811484634876251220703125" lon="-5.83464673720300197601318359375">
        <ele>57.59999847412109375</ele>
        <time>2019-07-11T15:40:51.000Z</time>
      </trkpt>
      <trkpt lat="43.547494299709796905517578125" lon="-5.834342725574970245361328125">
        <ele>55.799999237060546875</ele>
        <time>2019-07-11T15:40:53.000Z</time>
      </trkpt>
      <trkpt lat="43.54717704467475414276123046875" lon="-5.8339620195329189300537109375">
        <ele>54.799999237060546875</ele>
        <time>2019-07-11T15:40:56.000Z</time>
      </trkpt>
      <trkpt lat="43.54694738052785396575927734375" lon="-5.83379563875496387481689453125">
        <ele>53.40000152587890625</ele>
        <time>2019-07-11T15:40:58.000Z</time>
      </trkpt>
      <trkpt lat="43.54670128785073757171630859375" lon="-5.83370578475296497344970703125">
        <ele>54</ele>
        <time>2019-07-11T15:41:00.000Z</time>
      </trkpt>
      <trkpt lat="43.54643910191953182220458984375" lon="-5.8336874283850193023681640625">
        <ele>52.799999237060546875</ele>
        <time>2019-07-11T15:41:02.000Z</time>
      </trkpt>
      <trkpt lat="43.54630381800234317779541015625" lon="-5.8337038569152355194091796875">
        <ele>52.200000762939453125</ele>
        <time>2019-07-11T15:41:03.000Z</time>
      </trkpt>
      <trkpt lat="43.545741476118564605712890625" lon="-5.83380837924778461456298828125">
        <ele>52.200000762939453125</ele>
        <time>2019-07-11T15:41:07.000Z</time>
      </trkpt>
      <trkpt lat="43.54559889994561672210693359375" lon="-5.8338144980370998382568359375">
        <ele>51</ele>
        <time>2019-07-11T15:41:08.000Z</time>
      </trkpt>
      <trkpt lat="43.5454610176384449005126953125" lon="-5.83380267955362796783447265625">
        <ele>49.59999847412109375</ele>
        <time>2019-07-11T15:41:09.000Z</time>
      </trkpt>
      <trkpt lat="43.54532741010189056396484375" lon="-5.8337769471108913421630859375">
        <ele>47.799999237060546875</ele>
        <time>2019-07-11T15:41:10.000Z</time>
      </trkpt>
      <trkpt lat="43.54519891552627086639404296875" lon="-5.8337410725653171539306640625">
        <ele>46.59999847412109375</ele>
        <time>2019-07-11T15:41:11.000Z</time>
      </trkpt>
      <trkpt lat="43.544825501739978790283203125" lon="-5.8336123265326023101806640625">
        <ele>45.200000762939453125</ele>
        <time>2019-07-11T15:41:14.000Z</time>
      </trkpt>
      <trkpt lat="43.54440598748624324798583984375" lon="-5.8334513939917087554931640625">
        <ele>43.40000152587890625</ele>
        <time>2019-07-11T15:41:17.000Z</time>
      </trkpt>
      <trkpt lat="43.54424639604985713958740234375" lon="-5.8333695866167545318603515625">
        <ele>42.200000762939453125</ele>
        <time>2019-07-11T15:41:18.000Z</time>
      </trkpt>
      <trkpt lat="43.5440716333687305450439453125" lon="-5.83326347172260284423828125">
        <ele>40.59999847412109375</ele>
        <time>2019-07-11T15:41:19.000Z</time>
      </trkpt>
      <trkpt lat="43.5438885726034641265869140625" lon="-5.83313606679439544677734375">
        <ele>38.200000762939453125</ele>
        <time>2019-07-11T15:41:20.000Z</time>
      </trkpt>
      <trkpt lat="43.54370660148561000823974609375" lon="-5.83300053142011165618896484375">
        <ele>35.59999847412109375</ele>
        <time>2019-07-11T15:41:21.000Z</time>
      </trkpt>
      <trkpt lat="43.54353359900414943695068359375" lon="-5.83286072127521038055419921875">
        <ele>33</ele>
        <time>2019-07-11T15:41:22.000Z</time>
      </trkpt>
      <trkpt lat="43.5433692298829555511474609375" lon="-5.83270967938005924224853515625">
        <ele>31.6000003814697265625</ele>
        <time>2019-07-11T15:41:23.000Z</time>
      </trkpt>
      <trkpt lat="43.5432180203497409820556640625" lon="-5.83253617398440837860107421875">
        <ele>31</ele>
        <time>2019-07-11T15:41:24.000Z</time>
      </trkpt>
      <trkpt lat="43.5430870950222015380859375" lon="-5.83233584649860858917236328125">
        <ele>30</ele>
        <time>2019-07-11T15:41:25.000Z</time>
      </trkpt>
      <trkpt lat="43.5429819859564304351806640625" lon="-5.832113809883594512939453125">
        <ele>29</ele>
        <time>2019-07-11T15:41:26.000Z</time>
      </trkpt>
      <trkpt lat="43.54285919107496738433837890625" lon="-5.8316308446228504180908203125">
        <ele>30.3999996185302734375</ele>
        <time>2019-07-11T15:41:28.000Z</time>
      </trkpt>
      <trkpt lat="43.5428257472813129425048828125" lon="-5.83112776279449462890625">
        <ele>28.3999996185302734375</ele>
        <time>2019-07-11T15:41:30.000Z</time>
      </trkpt>
      <trkpt lat="43.54281711392104625701904296875" lon="-5.83039325661957263946533203125">
        <ele>30.6000003814697265625</ele>
        <time>2019-07-11T15:41:33.000Z</time>
      </trkpt>
      <trkpt lat="43.54280504398047924041748046875" lon="-5.83015118725597858428955078125">
        <ele>32</ele>
        <time>2019-07-11T15:41:34.000Z</time>
      </trkpt>
      <trkpt lat="43.5427786409854888916015625" lon="-5.8299100399017333984375">
        <ele>32.59999847412109375</ele>
        <time>2019-07-11T15:41:35.000Z</time>
      </trkpt>
      <trkpt lat="43.542730025947093963623046875" lon="-5.829676352441310882568359375">
        <ele>33.40000152587890625</ele>
        <time>2019-07-11T15:41:36.000Z</time>
      </trkpt>
      <trkpt lat="43.54265567846596240997314453125" lon="-5.829454399645328521728515625">
        <ele>34</ele>
        <time>2019-07-11T15:41:37.000Z</time>
      </trkpt>
      <trkpt lat="43.54255341924726963043212890625" lon="-5.8292500488460063934326171875">
        <ele>34.799999237060546875</ele>
        <time>2019-07-11T15:41:38.000Z</time>
      </trkpt>
      <trkpt lat="43.542428947985172271728515625" lon="-5.82906153984367847442626953125">
        <ele>35.40000152587890625</ele>
        <time>2019-07-11T15:41:39.000Z</time>
      </trkpt>
      <trkpt lat="43.542291484773159027099609375" lon="-5.8288815803825855255126953125">
        <ele>36</ele>
        <time>2019-07-11T15:41:40.000Z</time>
      </trkpt>
      <trkpt lat="43.5418517701327800750732421875" lon="-5.8283637464046478271484375">
        <ele>36.59999847412109375</ele>
        <time>2019-07-11T15:41:43.000Z</time>
      </trkpt>
      <trkpt lat="43.5414276458323001861572265625" lon="-5.8278556354343891143798828125">
        <ele>37</ele>
        <time>2019-07-11T15:41:46.000Z</time>
      </trkpt>
      <trkpt lat="43.5411510430276393890380859375" lon="-5.82751088775694370269775390625">
        <ele>38.799999237060546875</ele>
        <time>2019-07-11T15:41:48.000Z</time>
      </trkpt>
      <trkpt lat="43.54101047851145267486572265625" lon="-5.82733989693224430084228515625">
        <ele>40.200000762939453125</ele>
        <time>2019-07-11T15:41:49.000Z</time>
      </trkpt>
      <trkpt lat="43.54086614213883876800537109375" lon="-5.82717619836330413818359375">
        <ele>41.59999847412109375</ele>
        <time>2019-07-11T15:41:50.000Z</time>
      </trkpt>
      <trkpt lat="43.5407161898910999298095703125" lon="-5.82702239044010639190673828125">
        <ele>43</ele>
        <time>2019-07-11T15:41:51.000Z</time>
      </trkpt>
      <trkpt lat="43.54055785574018955230712890625" lon="-5.826880820095539093017578125">
        <ele>44.59999847412109375</ele>
        <time>2019-07-11T15:41:52.000Z</time>
      </trkpt>
      <trkpt lat="43.540387786924839019775390625" lon="-5.82675777375698089599609375">
        <ele>45.799999237060546875</ele>
        <time>2019-07-11T15:41:53.000Z</time>
      </trkpt>
      <trkpt lat="43.540205396711826324462890625" lon="-5.82665911875665187835693359375">
        <ele>46.799999237060546875</ele>
        <time>2019-07-11T15:41:54.000Z</time>
      </trkpt>
      <trkpt lat="43.54001261293888092041015625" lon="-5.8265881240367889404296875">
        <ele>47.59999847412109375</ele>
        <time>2019-07-11T15:41:55.000Z</time>
      </trkpt>
      <trkpt lat="43.539808429777622222900390625" lon="-5.8265493996441364288330078125">
        <ele>48.200000762939453125</ele>
        <time>2019-07-11T15:41:56.000Z</time>
      </trkpt>
      <trkpt lat="43.5395950265228748321533203125" lon="-5.8265433646738529205322265625">
        <ele>48.59999847412109375</ele>
        <time>2019-07-11T15:41:57.000Z</time>
      </trkpt>
      <trkpt lat="43.5391625203192234039306640625" lon="-5.82663766108453273773193359375">
        <ele>48.59999847412109375</ele>
        <time>2019-07-11T15:41:59.000Z</time>
      </trkpt>
      <trkpt lat="43.5387561656534671783447265625" lon="-5.82685994915664196014404296875">
        <ele>49</ele>
        <time>2019-07-11T15:42:01.000Z</time>
      </trkpt>
      <trkpt lat="43.53820606134831905364990234375" lon="-5.82731944508850574493408203125">
        <ele>48.40000152587890625</ele>
        <time>2019-07-11T15:42:04.000Z</time>
      </trkpt>
      <trkpt lat="43.53770834393799304962158203125" lon="-5.827777683734893798828125">
        <ele>46.799999237060546875</ele>
        <time>2019-07-11T15:42:07.000Z</time>
      </trkpt>
      <trkpt lat="43.53757104836404323577880859375" lon="-5.82795529626309871673583984375">
        <ele>46.59999847412109375</ele>
        <time>2019-07-11T15:42:08.000Z</time>
      </trkpt>
      <trkpt lat="43.53735663928091526031494140625" lon="-5.82838118076324462890625">
        <ele>46.40000152587890625</ele>
        <time>2019-07-11T15:42:10.000Z</time>
      </trkpt>
      <trkpt lat="43.53713233955204486846923828125" lon="-5.8291055448353290557861328125">
        <ele>48.799999237060546875</ele>
        <time>2019-07-11T15:42:13.000Z</time>
      </trkpt>
      <trkpt lat="43.5370646975934505462646484375" lon="-5.82935339771211147308349609375">
        <ele>50</ele>
        <time>2019-07-11T15:42:14.000Z</time>
      </trkpt>
      <trkpt lat="43.5368682257831096649169921875" lon="-5.83004616200923919677734375">
        <ele>50</ele>
        <time>2019-07-11T15:42:17.000Z</time>
      </trkpt>
      <trkpt lat="43.53680980391800403594970703125" lon="-5.8302538655698299407958984375">
        <ele>49</ele>
        <time>2019-07-11T15:42:18.000Z</time>
      </trkpt>
      <trkpt lat="43.536613248288631439208984375" lon="-5.8309619687497615814208984375">
        <ele>49.59999847412109375</ele>
        <time>2019-07-11T15:42:22.000Z</time>
      </trkpt>
      <trkpt lat="43.53656639344990253448486328125" lon="-5.83111845888197422027587890625">
        <ele>50.40000152587890625</ele>
        <time>2019-07-11T15:42:23.000Z</time>
      </trkpt>
      <trkpt lat="43.5365024395287036895751953125" lon="-5.83142624236643314361572265625">
        <ele>52</ele>
        <time>2019-07-11T15:42:25.000Z</time>
      </trkpt>
      <trkpt lat="43.5365049540996551513671875" lon="-5.831710137426853179931640625">
        <ele>53.200000762939453125</ele>
        <time>2019-07-11T15:42:27.000Z</time>
      </trkpt>
      <trkpt lat="43.5365802235901355743408203125" lon="-5.83211322315037250518798828125">
        <ele>54.59999847412109375</ele>
        <time>2019-07-11T15:42:30.000Z</time>
      </trkpt>
      <trkpt lat="43.53658852167427539825439453125" lon="-5.83242134191095829010009765625">
        <ele>55.40000152587890625</ele>
        <time>2019-07-11T15:42:32.000Z</time>
      </trkpt>
      <trkpt lat="43.536560274660587310791015625" lon="-5.83257682621479034423828125">
        <ele>55.799999237060546875</ele>
        <time>2019-07-11T15:42:33.000Z</time>
      </trkpt>
      <trkpt lat="43.53650696575641632080078125" lon="-5.83271873183548450469970703125">
        <ele>55.799999237060546875</ele>
        <time>2019-07-11T15:42:34.000Z</time>
      </trkpt>
      <trkpt lat="43.5363287664949893951416015625" lon="-5.8329357393085956573486328125">
        <ele>55.799999237060546875</ele>
        <time>2019-07-11T15:42:36.000Z</time>
      </trkpt>
      <trkpt lat="43.5359859466552734375" lon="-5.8332508988678455352783203125">
        <ele>55.200000762939453125</ele>
        <time>2019-07-11T15:42:39.000Z</time>
      </trkpt>
      <trkpt lat="43.53581420145928859710693359375" lon="-5.83357586525380611419677734375">
        <ele>55.40000152587890625</ele>
        <time>2019-07-11T15:42:41.000Z</time>
      </trkpt>
      <trkpt lat="43.53569216094911098480224609375" lon="-5.833975262939929962158203125">
        <ele>54.40000152587890625</ele>
        <time>2019-07-11T15:42:43.000Z</time>
      </trkpt>
      <trkpt lat="43.5355331562459468841552734375" lon="-5.83455638028681278228759765625">
        <ele>55.200000762939453125</ele>
        <time>2019-07-11T15:42:46.000Z</time>
      </trkpt>
      <trkpt lat="43.5353650152683258056640625" lon="-5.83513607271015644073486328125">
        <ele>54.799999237060546875</ele>
        <time>2019-07-11T15:42:49.000Z</time>
      </trkpt>
      <trkpt lat="43.5353112034499645233154296875" lon="-5.8353188820183277130126953125">
        <ele>54.59999847412109375</ele>
        <time>2019-07-11T15:42:50.000Z</time>
      </trkpt>
      <trkpt lat="43.535114564001560211181640625" lon="-5.83600460551679134368896484375">
        <ele>54.40000152587890625</ele>
        <time>2019-07-11T15:42:54.000Z</time>
      </trkpt>
      <trkpt lat="43.535087406635284423828125" lon="-5.83616537041962146759033203125">
        <ele>55</ele>
        <time>2019-07-11T15:42:55.000Z</time>
      </trkpt>
      <trkpt lat="43.53507827036082744598388671875" lon="-5.8363250456750392913818359375">
        <ele>56</ele>
        <time>2019-07-11T15:42:56.000Z</time>
      </trkpt>
      <trkpt lat="43.53509075939655303955078125" lon="-5.8364762552082538604736328125">
        <ele>57.200000762939453125</ele>
        <time>2019-07-11T15:42:57.000Z</time>
      </trkpt>
      <trkpt lat="43.53512822650372982025146484375" lon="-5.8366157300770282745361328125">
        <ele>58.200000762939453125</ele>
        <time>2019-07-11T15:42:58.000Z</time>
      </trkpt>
      <trkpt lat="43.53518941439688205718994140625" lon="-5.83673969842493534088134765625">
        <ele>58.799999237060546875</ele>
        <time>2019-07-11T15:42:59.000Z</time>
      </trkpt>
      <trkpt lat="43.53527449071407318115234375" lon="-5.836840532720088958740234375">
        <ele>59.40000152587890625</ele>
        <time>2019-07-11T15:43:00.000Z</time>
      </trkpt>
      <trkpt lat="43.53537641465663909912109375" lon="-5.836915634572505950927734375">
        <ele>59.799999237060546875</ele>
        <time>2019-07-11T15:43:01.000Z</time>
      </trkpt>
      <trkpt lat="43.53548998944461345672607421875" lon="-5.83696114830672740936279296875">
        <ele>60.59999847412109375</ele>
        <time>2019-07-11T15:43:02.000Z</time>
      </trkpt>
      <trkpt lat="43.535614125430583953857421875" lon="-5.83696760237216949462890625">
        <ele>61.40000152587890625</ele>
        <time>2019-07-11T15:43:03.000Z</time>
      </trkpt>
      <trkpt lat="43.53573993779718875885009765625" lon="-5.836929045617580413818359375">
        <ele>62</ele>
        <time>2019-07-11T15:43:04.000Z</time>
      </trkpt>
      <trkpt lat="43.53585594333708286285400390625" lon="-5.83684514276683330535888671875">
        <ele>62.59999847412109375</ele>
        <time>2019-07-11T15:43:05.000Z</time>
      </trkpt>
      <trkpt lat="43.5360018722712993621826171875" lon="-5.83660290576517581939697265625">
        <ele>62.799999237060546875</ele>
        <time>2019-07-11T15:43:07.000Z</time>
      </trkpt>
      <trkpt lat="43.5360498167574405670166015625" lon="-5.836301743984222412109375">
        <ele>63</ele>
        <time>2019-07-11T15:43:09.000Z</time>
      </trkpt>
      <trkpt lat="43.5360390879213809967041015625" lon="-5.83614257164299488067626953125">
        <ele>63.200000762939453125</ele>
        <time>2019-07-11T15:43:10.000Z</time>
      </trkpt>
      <trkpt lat="43.536000363528728485107421875" lon="-5.83599538542330265045166015625">
        <ele>63</ele>
        <time>2019-07-11T15:43:11.000Z</time>
      </trkpt>
      <trkpt lat="43.53587689809501171112060546875" lon="-5.8357772044837474822998046875">
        <ele>63</ele>
        <time>2019-07-11T15:43:13.000Z</time>
      </trkpt>
      <trkpt lat="43.53541019372642040252685546875" lon="-5.8354419283568859100341796875">
        <ele>63.799999237060546875</ele>
        <time>2019-07-11T15:43:18.000Z</time>
      </trkpt>
      <trkpt lat="43.53529594838619232177734375" lon="-5.83537839353084564208984375">
        <ele>64.1999969482421875</ele>
        <time>2019-07-11T15:43:19.000Z</time>
      </trkpt>
      <trkpt lat="43.53485749103128910064697265625" lon="-5.83514126949012279510498046875">
        <ele>64.40000152587890625</ele>
        <time>2019-07-11T15:43:23.000Z</time>
      </trkpt>
      <trkpt lat="43.534408472478389739990234375" lon="-5.83488998003304004669189453125">
        <ele>64</ele>
        <time>2019-07-11T15:43:27.000Z</time>
      </trkpt>
      <trkpt lat="43.5339255072176456451416015625" lon="-5.8345930092036724090576171875">
        <ele>64</ele>
        <time>2019-07-11T15:43:31.000Z</time>
      </trkpt>
      <trkpt lat="43.5334031470119953155517578125" lon="-5.83425597287714481353759765625">
        <ele>64.1999969482421875</ele>
        <time>2019-07-11T15:43:35.000Z</time>
      </trkpt>
      <trkpt lat="43.532874584197998046875" lon="-5.833855569362640380859375">
        <ele>65.1999969482421875</ele>
        <time>2019-07-11T15:43:39.000Z</time>
      </trkpt>
      <trkpt lat="43.5324690677225589752197265625" lon="-5.83350352942943572998046875">
        <ele>66</ele>
        <time>2019-07-11T15:43:42.000Z</time>
      </trkpt>
      <trkpt lat="43.53232883848249912261962890625" lon="-5.83337704651057720184326171875">
        <ele>66.40000152587890625</ele>
        <time>2019-07-11T15:43:43.000Z</time>
      </trkpt>
      <trkpt lat="43.53189356625080108642578125" lon="-5.83296197466552257537841796875">
        <ele>65</ele>
        <time>2019-07-11T15:43:46.000Z</time>
      </trkpt>
      <trkpt lat="43.5314521752297878265380859375" lon="-5.8325028978288173675537109375">
        <ele>63.799999237060546875</ele>
        <time>2019-07-11T15:43:49.000Z</time>
      </trkpt>
      <trkpt lat="43.5310091078281402587890625" lon="-5.83199621178209781646728515625">
        <ele>64</ele>
        <time>2019-07-11T15:43:52.000Z</time>
      </trkpt>
      <trkpt lat="43.530855886638164520263671875" lon="-5.831811390817165374755859375">
        <ele>65.1999969482421875</ele>
        <time>2019-07-11T15:43:53.000Z</time>
      </trkpt>
      <trkpt lat="43.53039446286857128143310546875" lon="-5.8312432654201984405517578125">
        <ele>65.8000030517578125</ele>
        <time>2019-07-11T15:43:56.000Z</time>
      </trkpt>
      <trkpt lat="43.530243001878261566162109375" lon="-5.831046961247920989990234375">
        <ele>66.8000030517578125</ele>
        <time>2019-07-11T15:43:57.000Z</time>
      </trkpt>
      <trkpt lat="43.52994217537343502044677734375" lon="-5.83063465543091297149658203125">
        <ele>65.8000030517578125</ele>
        <time>2019-07-11T15:43:59.000Z</time>
      </trkpt>
      <trkpt lat="43.52947429753839969635009765625" lon="-5.8299708925187587738037109375">
        <ele>65.8000030517578125</ele>
        <time>2019-07-11T15:44:02.000Z</time>
      </trkpt>
      <trkpt lat="43.52915327064692974090576171875" lon="-5.8294964767992496490478515625">
        <ele>65.59999847412109375</ele>
        <time>2019-07-11T15:44:04.000Z</time>
      </trkpt>
      <trkpt lat="43.5288423858582973480224609375" lon="-5.82903337664902210235595703125">
        <ele>66</ele>
        <time>2019-07-11T15:44:06.000Z</time>
      </trkpt>
      <trkpt lat="43.528400994837284088134765625" lon="-5.828400291502475738525390625">
        <ele>66</ele>
        <time>2019-07-11T15:44:09.000Z</time>
      </trkpt>
      <trkpt lat="43.52793638594448566436767578125" lon="-5.82774214446544647216796875">
        <ele>65.59999847412109375</ele>
        <time>2019-07-11T15:44:12.000Z</time>
      </trkpt>
      <trkpt lat="43.52759390138089656829833984375" lon="-5.82727468572556972503662109375">
        <ele>65.8000030517578125</ele>
        <time>2019-07-11T15:44:14.000Z</time>
      </trkpt>
      <trkpt lat="43.52741167880594730377197265625" lon="-5.8270466141402721405029296875">
        <ele>67.40000152587890625</ele>
        <time>2019-07-11T15:44:15.000Z</time>
      </trkpt>
      <trkpt lat="43.5272203199565410614013671875" lon="-5.8268209733068943023681640625">
        <ele>69.40000152587890625</ele>
        <time>2019-07-11T15:44:16.000Z</time>
      </trkpt>
      <trkpt lat="43.5270201601088047027587890625" lon="-5.82659893669188022613525390625">
        <ele>68.40000152587890625</ele>
        <time>2019-07-11T15:44:17.000Z</time>
      </trkpt>
      <trkpt lat="43.5265968739986419677734375" lon="-5.82617598585784435272216796875">
        <ele>69</ele>
        <time>2019-07-11T15:44:19.000Z</time>
      </trkpt>
      <trkpt lat="43.52616109885275363922119140625" lon="-5.82577784545719623565673828125">
        <ele>67.1999969482421875</ele>
        <time>2019-07-11T15:44:21.000Z</time>
      </trkpt>
      <trkpt lat="43.5257273353636264801025390625" lon="-5.825398899614810943603515625">
        <ele>66.8000030517578125</ele>
        <time>2019-07-11T15:44:23.000Z</time>
      </trkpt>
      <trkpt lat="43.5254998505115509033203125" lon="-5.82520787604153156280517578125">
        <ele>68.8000030517578125</ele>
        <time>2019-07-11T15:44:24.000Z</time>
      </trkpt>
      <trkpt lat="43.52525769732892513275146484375" lon="-5.82500888966023921966552734375">
        <ele>69.8000030517578125</ele>
        <time>2019-07-11T15:44:25.000Z</time>
      </trkpt>
      <trkpt lat="43.52473835460841655731201171875" lon="-5.82461393438279628753662109375">
        <ele>70.1999969482421875</ele>
        <time>2019-07-11T15:44:27.000Z</time>
      </trkpt>
      <trkpt lat="43.52418950758874416351318359375" lon="-5.8242514170706272125244140625">
        <ele>68</ele>
        <time>2019-07-11T15:44:29.000Z</time>
      </trkpt>
      <trkpt lat="43.52390594780445098876953125" lon="-5.8240831084549427032470703125">
        <ele>66.40000152587890625</ele>
        <time>2019-07-11T15:44:30.000Z</time>
      </trkpt>
      <trkpt lat="43.52332248352468013763427734375" lon="-5.82377172075212001800537109375">
        <ele>65.40000152587890625</ele>
        <time>2019-07-11T15:44:32.000Z</time>
      </trkpt>
      <trkpt lat="43.52272267453372478485107421875" lon="-5.82349964417517185211181640625">
        <ele>65</ele>
        <time>2019-07-11T15:44:34.000Z</time>
      </trkpt>
      <trkpt lat="43.52211867459118366241455078125" lon="-5.82326495088636875152587890625">
        <ele>66.59999847412109375</ele>
        <time>2019-07-11T15:44:36.000Z</time>
      </trkpt>
      <trkpt lat="43.52151500992476940155029296875" lon="-5.82306864671409130096435546875">
        <ele>68.59999847412109375</ele>
        <time>2019-07-11T15:44:38.000Z</time>
      </trkpt>
      <trkpt lat="43.52091126143932342529296875" lon="-5.82291374914348125457763671875">
        <ele>70.59999847412109375</ele>
        <time>2019-07-11T15:44:40.000Z</time>
      </trkpt>
      <trkpt lat="43.52060909382998943328857421875" lon="-5.82285054959356784820556640625">
        <ele>71.8000030517578125</ele>
        <time>2019-07-11T15:44:41.000Z</time>
      </trkpt>
      <trkpt lat="43.5200041718780994415283203125" lon="-5.822741501033306121826171875">
        <ele>72.59999847412109375</ele>
        <time>2019-07-11T15:44:43.000Z</time>
      </trkpt>
      <trkpt lat="43.519701920449733734130859375" lon="-5.82269162870943546295166015625">
        <ele>72.8000030517578125</ele>
        <time>2019-07-11T15:44:44.000Z</time>
      </trkpt>
      <trkpt lat="43.519099764525890350341796875" lon="-5.822595655918121337890625">
        <ele>74.59999847412109375</ele>
        <time>2019-07-11T15:44:46.000Z</time>
      </trkpt>
      <trkpt lat="43.51850406266748905181884765625" lon="-5.82248711027204990386962890625">
        <ele>72</ele>
        <time>2019-07-11T15:44:48.000Z</time>
      </trkpt>
      <trkpt lat="43.517918251454830169677734375" lon="-5.8223527483642101287841796875">
        <ele>73</ele>
        <time>2019-07-11T15:44:50.000Z</time>
      </trkpt>
      <trkpt lat="43.517345599830150604248046875" lon="-5.8221730403602123260498046875">
        <ele>73.59999847412109375</ele>
        <time>2019-07-11T15:44:52.000Z</time>
      </trkpt>
      <trkpt lat="43.5167853534221649169921875" lon="-5.82195368595421314239501953125">
        <ele>74.40000152587890625</ele>
        <time>2019-07-11T15:44:54.000Z</time>
      </trkpt>
      <trkpt lat="43.51650984026491641998291015625" lon="-5.82182980142533779144287109375">
        <ele>75.59999847412109375</ele>
        <time>2019-07-11T15:44:55.000Z</time>
      </trkpt>
      <trkpt lat="43.51623726077377796173095703125" lon="-5.82169636152684688568115234375">
        <ele>76.8000030517578125</ele>
        <time>2019-07-11T15:44:56.000Z</time>
      </trkpt>
      <trkpt lat="43.5159671120345592498779296875" lon="-5.82155236043035984039306640625">
        <ele>78.59999847412109375</ele>
        <time>2019-07-11T15:44:57.000Z</time>
      </trkpt>
      <trkpt lat="43.51543662138283252716064453125" lon="-5.82123468630015850067138671875">
        <ele>79.59999847412109375</ele>
        <time>2019-07-11T15:44:59.000Z</time>
      </trkpt>
      <trkpt lat="43.51517611183226108551025390625" lon="-5.8210599236190319061279296875">
        <ele>79.59999847412109375</ele>
        <time>2019-07-11T15:45:00.000Z</time>
      </trkpt>
      <trkpt lat="43.5146662406623363494873046875" lon="-5.8206854201853275299072265625">
        <ele>80.8000030517578125</ele>
        <time>2019-07-11T15:45:02.000Z</time>
      </trkpt>
      <trkpt lat="43.5141750611364841461181640625" lon="-5.8202720247209072113037109375">
        <ele>81</ele>
        <time>2019-07-11T15:45:04.000Z</time>
      </trkpt>
      <trkpt lat="43.5137006454169750213623046875" lon="-5.81981898285448551177978515625">
        <ele>79</ele>
        <time>2019-07-11T15:45:06.000Z</time>
      </trkpt>
      <trkpt lat="43.513245843350887298583984375" lon="-5.81933819688856601715087890625">
        <ele>78.1999969482421875</ele>
        <time>2019-07-11T15:45:08.000Z</time>
      </trkpt>
      <trkpt lat="43.5130264051258563995361328125" lon="-5.8190878294408321380615234375">
        <ele>80.1999969482421875</ele>
        <time>2019-07-11T15:45:09.000Z</time>
      </trkpt>
      <trkpt lat="43.51281342096626758575439453125" lon="-5.81882673315703868865966796875">
        <ele>83.59999847412109375</ele>
        <time>2019-07-11T15:45:10.000Z</time>
      </trkpt>
      <trkpt lat="43.512606807053089141845703125" lon="-5.81856186501681804656982421875">
        <ele>85.1999969482421875</ele>
        <time>2019-07-11T15:45:11.000Z</time>
      </trkpt>
      <trkpt lat="43.51240731775760650634765625" lon="-5.8182959072291851043701171875">
        <ele>87</ele>
        <time>2019-07-11T15:45:12.000Z</time>
      </trkpt>
      <trkpt lat="43.51221545599400997161865234375" lon="-5.8180256746709346771240234375">
        <ele>89.40000152587890625</ele>
        <time>2019-07-11T15:45:13.000Z</time>
      </trkpt>
      <trkpt lat="43.5118512623012065887451171875" lon="-5.8174681104719638824462890625">
        <ele>86.40000152587890625</ele>
        <time>2019-07-11T15:45:15.000Z</time>
      </trkpt>
      <trkpt lat="43.51167641580104827880859375" lon="-5.81718237139284610748291015625">
        <ele>85</ele>
        <time>2019-07-11T15:45:16.000Z</time>
      </trkpt>
      <trkpt lat="43.511345498263835906982421875" lon="-5.8165913634002208709716796875">
        <ele>84.40000152587890625</ele>
        <time>2019-07-11T15:45:18.000Z</time>
      </trkpt>
      <trkpt lat="43.51103536784648895263671875" lon="-5.81597034819424152374267578125">
        <ele>85.40000152587890625</ele>
        <time>2019-07-11T15:45:20.000Z</time>
      </trkpt>
      <trkpt lat="43.51074158214032649993896484375" lon="-5.81531412899494171142578125">
        <ele>86.40000152587890625</ele>
        <time>2019-07-11T15:45:22.000Z</time>
      </trkpt>
      <trkpt lat="43.51060193963348865509033203125" lon="-5.81497172825038433074951171875">
        <ele>86.8000030517578125</ele>
        <time>2019-07-11T15:45:23.000Z</time>
      </trkpt>
      <trkpt lat="43.51033874787390232086181640625" lon="-5.8142591826617717742919921875">
        <ele>87</ele>
        <time>2019-07-11T15:45:25.000Z</time>
      </trkpt>
      <trkpt lat="43.51009030826389789581298828125" lon="-5.8135232515633106231689453125">
        <ele>86.59999847412109375</ele>
        <time>2019-07-11T15:45:27.000Z</time>
      </trkpt>
      <trkpt lat="43.50984673015773296356201171875" lon="-5.812784470617771148681640625">
        <ele>85.8000030517578125</ele>
        <time>2019-07-11T15:45:29.000Z</time>
      </trkpt>
      <trkpt lat="43.50959795527160167694091796875" lon="-5.81205817870795726776123046875">
        <ele>84.59999847412109375</ele>
        <time>2019-07-11T15:45:31.000Z</time>
      </trkpt>
      <trkpt lat="43.50947306491434574127197265625" lon="-5.81170077435672283172607421875">
        <ele>82.59999847412109375</ele>
        <time>2019-07-11T15:45:32.000Z</time>
      </trkpt>
      <trkpt lat="43.50934616290032863616943359375" lon="-5.81134890206158161163330078125">
        <ele>80.8000030517578125</ele>
        <time>2019-07-11T15:45:33.000Z</time>
      </trkpt>
      <trkpt lat="43.50907945074141025543212890625" lon="-5.81066661514341831207275390625">
        <ele>81.1999969482421875</ele>
        <time>2019-07-11T15:45:35.000Z</time>
      </trkpt>
      <trkpt lat="43.50893922150135040283203125" lon="-5.810337960720062255859375">
        <ele>82.8000030517578125</ele>
        <time>2019-07-11T15:45:36.000Z</time>
      </trkpt>
      <trkpt lat="43.50864895619451999664306640625" lon="-5.8097141794860363006591796875">
        <ele>83.8000030517578125</ele>
        <time>2019-07-11T15:45:38.000Z</time>
      </trkpt>
      <trkpt lat="43.50849674083292484283447265625" lon="-5.80942274071276187896728515625">
        <ele>85.40000152587890625</ele>
        <time>2019-07-11T15:45:39.000Z</time>
      </trkpt>
      <trkpt lat="43.50833999924361705780029296875" lon="-5.8091395162045955657958984375">
        <ele>87</ele>
        <time>2019-07-11T15:45:40.000Z</time>
      </trkpt>
      <trkpt lat="43.5081799887120723724365234375" lon="-5.8088609017431735992431640625">
        <ele>88.1999969482421875</ele>
        <time>2019-07-11T15:45:41.000Z</time>
      </trkpt>
      <trkpt lat="43.5080172121524810791015625" lon="-5.80858689732849597930908203125">
        <ele>90</ele>
        <time>2019-07-11T15:45:42.000Z</time>
      </trkpt>
      <trkpt lat="43.50767632015049457550048828125" lon="-5.80804777331650257110595703125">
        <ele>91.59999847412109375</ele>
        <time>2019-07-11T15:45:44.000Z</time>
      </trkpt>
      <trkpt lat="43.5073116235435009002685546875" lon="-5.80752038396894931793212890625">
        <ele>91.59999847412109375</ele>
        <time>2019-07-11T15:45:46.000Z</time>
      </trkpt>
      <trkpt lat="43.50692731328308582305908203125" lon="-5.80701881088316440582275390625">
        <ele>91.1999969482421875</ele>
        <time>2019-07-11T15:45:48.000Z</time>
      </trkpt>
      <trkpt lat="43.50673268549144268035888671875" lon="-5.80677925609052181243896484375">
        <ele>90.40000152587890625</ele>
        <time>2019-07-11T15:45:49.000Z</time>
      </trkpt>
      <trkpt lat="43.506341837346553802490234375" lon="-5.8063060976564884185791015625">
        <ele>90.59999847412109375</ele>
        <time>2019-07-11T15:45:51.000Z</time>
      </trkpt>
      <trkpt lat="43.5059490613639354705810546875" lon="-5.80582221038639545440673828125">
        <ele>90.40000152587890625</ele>
        <time>2019-07-11T15:45:53.000Z</time>
      </trkpt>
      <trkpt lat="43.50555955432355403900146484375" lon="-5.80530974082648754119873046875">
        <ele>89</ele>
        <time>2019-07-11T15:45:55.000Z</time>
      </trkpt>
      <trkpt lat="43.50517482496798038482666015625" lon="-5.8047571219503879547119140625">
        <ele>86.40000152587890625</ele>
        <time>2019-07-11T15:45:57.000Z</time>
      </trkpt>
      <trkpt lat="43.5049836337566375732421875" lon="-5.80446593463420867919921875">
        <ele>84.40000152587890625</ele>
        <time>2019-07-11T15:45:58.000Z</time>
      </trkpt>
      <trkpt lat="43.50479546003043651580810546875" lon="-5.80416577868163585662841796875">
        <ele>83.40000152587890625</ele>
        <time>2019-07-11T15:45:59.000Z</time>
      </trkpt>
      <trkpt lat="43.504611141979694366455078125" lon="-5.8038579113781452178955078125">
        <ele>81.1999969482421875</ele>
        <time>2019-07-11T15:46:00.000Z</time>
      </trkpt>
      <trkpt lat="43.504432775080204010009765625" lon="-5.8035427518188953399658203125">
        <ele>78.59999847412109375</ele>
        <time>2019-07-11T15:46:01.000Z</time>
      </trkpt>
      <trkpt lat="43.50426102988421916961669921875" lon="-5.80322130583226680755615234375">
        <ele>75.59999847412109375</ele>
        <time>2019-07-11T15:46:02.000Z</time>
      </trkpt>
      <trkpt lat="43.50409741513431072235107421875" lon="-5.80289508216083049774169921875">
        <ele>74</ele>
        <time>2019-07-11T15:46:03.000Z</time>
      </trkpt>
      <trkpt lat="43.50379466079175472259521484375" lon="-5.8022298105061054229736328125">
        <ele>72.1999969482421875</ele>
        <time>2019-07-11T15:46:05.000Z</time>
      </trkpt>
      <trkpt lat="43.5036534257233142852783203125" lon="-5.80189093016088008880615234375">
        <ele>70.40000152587890625</ele>
        <time>2019-07-11T15:46:06.000Z</time>
      </trkpt>
      <trkpt lat="43.50338461808860301971435546875" lon="-5.80120344646275043487548828125">
        <ele>69</ele>
        <time>2019-07-11T15:46:08.000Z</time>
      </trkpt>
      <trkpt lat="43.50313047878444194793701171875" lon="-5.800498612225055694580078125">
        <ele>66.59999847412109375</ele>
        <time>2019-07-11T15:46:10.000Z</time>
      </trkpt>
      <trkpt lat="43.50301288068294525146484375" lon="-5.800138525664806365966796875">
        <ele>64.59999847412109375</ele>
        <time>2019-07-11T15:46:11.000Z</time>
      </trkpt>
      <trkpt lat="43.5029040835797786712646484375" lon="-5.79977382905781269073486328125">
        <ele>63.40000152587890625</ele>
        <time>2019-07-11T15:46:12.000Z</time>
      </trkpt>
      <trkpt lat="43.502718508243560791015625" lon="-5.7990322820842266082763671875">
        <ele>62.59999847412109375</ele>
        <time>2019-07-11T15:46:14.000Z</time>
      </trkpt>
      <trkpt lat="43.5026395507156848907470703125" lon="-5.79866054467856884002685546875">
        <ele>62.40000152587890625</ele>
        <time>2019-07-11T15:46:15.000Z</time>
      </trkpt>
      <trkpt lat="43.50250602699816226959228515625" lon="-5.79792025499045848846435546875">
        <ele>62.799999237060546875</ele>
        <time>2019-07-11T15:46:17.000Z</time>
      </trkpt>
      <trkpt lat="43.50240225903689861297607421875" lon="-5.79718013294041156768798828125">
        <ele>63.799999237060546875</ele>
        <time>2019-07-11T15:46:19.000Z</time>
      </trkpt>
      <trkpt lat="43.5023233853280544281005859375" lon="-5.79643699340522289276123046875">
        <ele>63.59999847412109375</ele>
        <time>2019-07-11T15:46:21.000Z</time>
      </trkpt>
      <trkpt lat="43.50227099843323230743408203125" lon="-5.79568446613848209381103515625">
        <ele>64.59999847412109375</ele>
        <time>2019-07-11T15:46:23.000Z</time>
      </trkpt>
      <trkpt lat="43.5022449307143688201904296875" lon="-5.7949207909405231475830078125">
        <ele>62.59999847412109375</ele>
        <time>2019-07-11T15:46:25.000Z</time>
      </trkpt>
      <trkpt lat="43.50224216468632221221923828125" lon="-5.7945342175662517547607421875">
        <ele>60.59999847412109375</ele>
        <time>2019-07-11T15:46:26.000Z</time>
      </trkpt>
      <trkpt lat="43.50224149413406848907470703125" lon="-5.7941456325352191925048828125">
        <ele>59.40000152587890625</ele>
        <time>2019-07-11T15:46:27.000Z</time>
      </trkpt>
      <trkpt lat="43.5022425837814807891845703125" lon="-5.79375495202839374542236328125">
        <ele>58.40000152587890625</ele>
        <time>2019-07-11T15:46:28.000Z</time>
      </trkpt>
      <trkpt lat="43.50224400870501995086669921875" lon="-5.7933609187602996826171875">
        <ele>57.200000762939453125</ele>
        <time>2019-07-11T15:46:29.000Z</time>
      </trkpt>
      <trkpt lat="43.50224467925727367401123046875" lon="-5.79296571202576160430908203125">
        <ele>55.799999237060546875</ele>
        <time>2019-07-11T15:46:30.000Z</time>
      </trkpt>
      <trkpt lat="43.5022435896098613739013671875" lon="-5.79257159493863582611083984375">
        <ele>54.200000762939453125</ele>
        <time>2019-07-11T15:46:31.000Z</time>
      </trkpt>
      <trkpt lat="43.502230010926723480224609375" lon="-5.7917891442775726318359375">
        <ele>53.40000152587890625</ele>
        <time>2019-07-11T15:46:33.000Z</time>
      </trkpt>
      <trkpt lat="43.502189777791500091552734375" lon="-5.79101004637777805328369140625">
        <ele>53.59999847412109375</ele>
        <time>2019-07-11T15:46:35.000Z</time>
      </trkpt>
      <trkpt lat="43.502114005386829376220703125" lon="-5.79023740254342555999755859375">
        <ele>53.59999847412109375</ele>
        <time>2019-07-11T15:46:37.000Z</time>
      </trkpt>
      <trkpt lat="43.50200177170336246490478515625" lon="-5.78947104513645172119140625">
        <ele>54.200000762939453125</ele>
        <time>2019-07-11T15:46:39.000Z</time>
      </trkpt>
      <trkpt lat="43.50186078809201717376708984375" lon="-5.78871239908039569854736328125">
        <ele>53.200000762939453125</ele>
        <time>2019-07-11T15:46:41.000Z</time>
      </trkpt>
      <trkpt lat="43.5017758794128894805908203125" lon="-5.78833772800862789154052734375">
        <ele>51.799999237060546875</ele>
        <time>2019-07-11T15:46:42.000Z</time>
      </trkpt>
      <trkpt lat="43.5015847720205783843994140625" lon="-5.787607915699481964111328125">
        <ele>50.799999237060546875</ele>
        <time>2019-07-11T15:46:44.000Z</time>
      </trkpt>
      <trkpt lat="43.5014825128018856048583984375" lon="-5.78725554049015045166015625">
        <ele>50.799999237060546875</ele>
        <time>2019-07-11T15:46:45.000Z</time>
      </trkpt>
      <trkpt lat="43.50126718170940876007080078125" lon="-5.7865586690604686737060546875">
        <ele>52.200000762939453125</ele>
        <time>2019-07-11T15:46:47.000Z</time>
      </trkpt>
      <trkpt lat="43.50105679593980312347412109375" lon="-5.785868503153324127197265625">
        <ele>53.799999237060546875</ele>
        <time>2019-07-11T15:46:49.000Z</time>
      </trkpt>
      <trkpt lat="43.50086820311844348907470703125" lon="-5.785176493227481842041015625">
        <ele>55.40000152587890625</ele>
        <time>2019-07-11T15:46:51.000Z</time>
      </trkpt>
      <trkpt lat="43.50072336383163928985595703125" lon="-5.784465372562408447265625">
        <ele>56</ele>
        <time>2019-07-11T15:46:53.000Z</time>
      </trkpt>
      <trkpt lat="43.5006694681942462921142578125" lon="-5.78410302288830280303955078125">
        <ele>57</ele>
        <time>2019-07-11T15:46:54.000Z</time>
      </trkpt>
      <trkpt lat="43.50058992393314838409423828125" lon="-5.78336306847631931304931640625">
        <ele>55.59999847412109375</ele>
        <time>2019-07-11T15:46:56.000Z</time>
      </trkpt>
      <trkpt lat="43.50056477822363376617431640625" lon="-5.78298537991940975189208984375">
        <ele>54</ele>
        <time>2019-07-11T15:46:57.000Z</time>
      </trkpt>
      <trkpt lat="43.5005504451692104339599609375" lon="-5.78260316513478755950927734375">
        <ele>51.59999847412109375</ele>
        <time>2019-07-11T15:46:58.000Z</time>
      </trkpt>
      <trkpt lat="43.50054449401795864105224609375" lon="-5.782222039997577667236328125">
        <ele>49.799999237060546875</ele>
        <time>2019-07-11T15:46:59.000Z</time>
      </trkpt>
      <trkpt lat="43.50055773742496967315673828125" lon="-5.7818352989852428436279296875">
        <ele>47.799999237060546875</ele>
        <time>2019-07-11T15:47:00.000Z</time>
      </trkpt>
      <trkpt lat="43.50058807991445064544677734375" lon="-5.7814465463161468505859375">
        <ele>45.40000152587890625</ele>
        <time>2019-07-11T15:47:01.000Z</time>
      </trkpt>
      <trkpt lat="43.50063283927738666534423828125" lon="-5.7810658402740955352783203125">
        <ele>44</ele>
        <time>2019-07-11T15:47:02.000Z</time>
      </trkpt>
      <trkpt lat="43.500754795968532562255859375" lon="-5.7803530432283878326416015625">
        <ele>43.40000152587890625</ele>
        <time>2019-07-11T15:47:04.000Z</time>
      </trkpt>
      <trkpt lat="43.50091748870909214019775390625" lon="-5.77966296114027500152587890625">
        <ele>44.59999847412109375</ele>
        <time>2019-07-11T15:47:06.000Z</time>
      </trkpt>
      <trkpt lat="43.501116894185543060302734375" lon="-5.7789847813546657562255859375">
        <ele>44.799999237060546875</ele>
        <time>2019-07-11T15:47:08.000Z</time>
      </trkpt>
      <trkpt lat="43.501226194202899932861328125" lon="-5.77864833176136016845703125">
        <ele>45.40000152587890625</ele>
        <time>2019-07-11T15:47:09.000Z</time>
      </trkpt>
      <trkpt lat="43.50144781172275543212890625" lon="-5.77797509729862213134765625">
        <ele>44.40000152587890625</ele>
        <time>2019-07-11T15:47:11.000Z</time>
      </trkpt>
      <trkpt lat="43.50155602209270000457763671875" lon="-5.77763722278177738189697265625">
        <ele>43.59999847412109375</ele>
        <time>2019-07-11T15:47:12.000Z</time>
      </trkpt>
      <trkpt lat="43.50175903178751468658447265625" lon="-5.7769593782722949981689453125">
        <ele>42.799999237060546875</ele>
        <time>2019-07-11T15:47:14.000Z</time>
      </trkpt>
      <trkpt lat="43.50192197598516941070556640625" lon="-5.77627616934478282928466796875">
        <ele>43.200000762939453125</ele>
        <time>2019-07-11T15:47:16.000Z</time>
      </trkpt>
      <trkpt lat="43.5019907914102077484130859375" lon="-5.77592899091541767120361328125">
        <ele>44.59999847412109375</ele>
        <time>2019-07-11T15:47:17.000Z</time>
      </trkpt>
      <trkpt lat="43.50211643613874912261962890625" lon="-5.7752246595919132232666015625">
        <ele>45.200000762939453125</ele>
        <time>2019-07-11T15:47:19.000Z</time>
      </trkpt>
      <trkpt lat="43.5022209584712982177734375" lon="-5.77450557611882686614990234375">
        <ele>46.200000762939453125</ele>
        <time>2019-07-11T15:47:21.000Z</time>
      </trkpt>
      <trkpt lat="43.502283655107021331787109375" lon="-5.77377031557261943817138671875">
        <ele>47.200000762939453125</ele>
        <time>2019-07-11T15:47:23.000Z</time>
      </trkpt>
      <trkpt lat="43.50230821408331394195556640625" lon="-5.77303321100771427154541015625">
        <ele>45.59999847412109375</ele>
        <time>2019-07-11T15:47:25.000Z</time>
      </trkpt>
      <trkpt lat="43.50231014192104339599609375" lon="-5.77267949469387531280517578125">
        <ele>44</ele>
        <time>2019-07-11T15:47:26.000Z</time>
      </trkpt>
      <trkpt lat="43.50229346193373203277587890625" lon="-5.77198681421577930450439453125">
        <ele>43</ele>
        <time>2019-07-11T15:47:28.000Z</time>
      </trkpt>
      <trkpt lat="43.50225037895143032073974609375" lon="-5.7712858356535434722900390625">
        <ele>41.59999847412109375</ele>
        <time>2019-07-11T15:47:30.000Z</time>
      </trkpt>
      <trkpt lat="43.50222120992839336395263671875" lon="-5.77093295753002166748046875">
        <ele>42.799999237060546875</ele>
        <time>2019-07-11T15:47:31.000Z</time>
      </trkpt>
      <trkpt lat="43.502191118896007537841796875" lon="-5.7705797441303730010986328125">
        <ele>44</ele>
        <time>2019-07-11T15:47:32.000Z</time>
      </trkpt>
      <trkpt lat="43.50214652717113494873046875" lon="-5.76985848136246204376220703125">
        <ele>44.59999847412109375</ele>
        <time>2019-07-11T15:47:34.000Z</time>
      </trkpt>
      <trkpt lat="43.5021111555397510528564453125" lon="-5.7691132463514804840087890625">
        <ele>44.799999237060546875</ele>
        <time>2019-07-11T15:47:36.000Z</time>
      </trkpt>
      <trkpt lat="43.50208617746829986572265625" lon="-5.768374465405941009521484375">
        <ele>45.200000762939453125</ele>
        <time>2019-07-11T15:47:38.000Z</time>
      </trkpt>
      <trkpt lat="43.50208927877247333526611328125" lon="-5.7676366902887821197509765625">
        <ele>45.799999237060546875</ele>
        <time>2019-07-11T15:47:40.000Z</time>
      </trkpt>
      <trkpt lat="43.5021218843758106231689453125" lon="-5.76688642613589763641357421875">
        <ele>45.59999847412109375</ele>
        <time>2019-07-11T15:47:42.000Z</time>
      </trkpt>
      <trkpt lat="43.5021775402128696441650390625" lon="-5.7661205716431140899658203125">
        <ele>45.799999237060546875</ele>
        <time>2019-07-11T15:47:44.000Z</time>
      </trkpt>
      <trkpt lat="43.5022611916065216064453125" lon="-5.76534457504749298095703125">
        <ele>43.200000762939453125</ele>
        <time>2019-07-11T15:47:46.000Z</time>
      </trkpt>
      <trkpt lat="43.50231282413005828857421875" lon="-5.764960683882236480712890625">
        <ele>41.40000152587890625</ele>
        <time>2019-07-11T15:47:47.000Z</time>
      </trkpt>
      <trkpt lat="43.50244165398180484771728515625" lon="-5.7642058096826076507568359375">
        <ele>40.40000152587890625</ele>
        <time>2019-07-11T15:47:49.000Z</time>
      </trkpt>
      <trkpt lat="43.5025178454816341400146484375" lon="-5.7638360001146793365478515625">
        <ele>39.40000152587890625</ele>
        <time>2019-07-11T15:47:50.000Z</time>
      </trkpt>
      <trkpt lat="43.50268858484923839569091796875" lon="-5.763113312423229217529296875">
        <ele>39.40000152587890625</ele>
        <time>2019-07-11T15:47:52.000Z</time>
      </trkpt>
      <trkpt lat="43.5028789378702640533447265625" lon="-5.7624241523444652557373046875">
        <ele>39.59999847412109375</ele>
        <time>2019-07-11T15:47:54.000Z</time>
      </trkpt>
      <trkpt lat="43.503075577318668365478515625" lon="-5.76178729534149169921875">
        <ele>40.40000152587890625</ele>
        <time>2019-07-11T15:47:56.000Z</time>
      </trkpt>
      <trkpt lat="43.50317540578544139862060546875" lon="-5.76148713938891887664794921875">
        <ele>41.799999237060546875</ele>
        <time>2019-07-11T15:47:57.000Z</time>
      </trkpt>
      <trkpt lat="43.5033791698515415191650390625" lon="-5.7608939521014690399169921875">
        <ele>43.59999847412109375</ele>
        <time>2019-07-11T15:47:59.000Z</time>
      </trkpt>
      <trkpt lat="43.50358829833567142486572265625" lon="-5.760277546942234039306640625">
        <ele>44.59999847412109375</ele>
        <time>2019-07-11T15:48:01.000Z</time>
      </trkpt>
      <trkpt lat="43.5037949122488498687744140625" lon="-5.75963960029184818267822265625">
        <ele>45.40000152587890625</ele>
        <time>2019-07-11T15:48:03.000Z</time>
      </trkpt>
      <trkpt lat="43.5039793141186237335205078125" lon="-5.75899151153862476348876953125">
        <ele>45.40000152587890625</ele>
        <time>2019-07-11T15:48:05.000Z</time>
      </trkpt>
      <trkpt lat="43.5041251592338085174560546875" lon="-5.7583656348288059234619140625">
        <ele>43.59999847412109375</ele>
        <time>2019-07-11T15:48:07.000Z</time>
      </trkpt>
      <trkpt lat="43.50418441928923130035400390625" lon="-5.75807335786521434783935546875">
        <ele>43.59999847412109375</ele>
        <time>2019-07-11T15:48:08.000Z</time>
      </trkpt>
      <trkpt lat="43.5042354650795459747314453125" lon="-5.75779926963150501251220703125">
        <ele>42.40000152587890625</ele>
        <time>2019-07-11T15:48:09.000Z</time>
      </trkpt>
      <trkpt lat="43.5043533146381378173828125" lon="-5.75705193914473056793212890625">
        <ele>41.40000152587890625</ele>
        <time>2019-07-11T15:48:12.000Z</time>
      </trkpt>
      <trkpt lat="43.5044292546808719635009765625" lon="-5.7563730888068675994873046875">
        <ele>42.799999237060546875</ele>
        <time>2019-07-11T15:48:15.000Z</time>
      </trkpt>
      <trkpt lat="43.50444727577269077301025390625" lon="-5.75615038163959980010986328125">
        <ele>44</ele>
        <time>2019-07-11T15:48:16.000Z</time>
      </trkpt>
      <trkpt lat="43.50446068681776523590087890625" lon="-5.75592960231006145477294921875">
        <ele>45.200000762939453125</ele>
        <time>2019-07-11T15:48:17.000Z</time>
      </trkpt>
      <trkpt lat="43.50448281504213809967041015625" lon="-5.755479075014591217041015625">
        <ele>47.200000762939453125</ele>
        <time>2019-07-11T15:48:19.000Z</time>
      </trkpt>
      <trkpt lat="43.50449119694530963897705078125" lon="-5.7550155557692050933837890625">
        <ele>49</ele>
        <time>2019-07-11T15:48:21.000Z</time>
      </trkpt>
      <trkpt lat="43.50448415614664554595947265625" lon="-5.75457458384335041046142578125">
        <ele>50</ele>
        <time>2019-07-11T15:48:23.000Z</time>
      </trkpt>
      <trkpt lat="43.50444115698337554931640625" lon="-5.75376740656793117523193359375">
        <ele>50</ele>
        <time>2019-07-11T15:48:27.000Z</time>
      </trkpt>
      <trkpt lat="43.5043866746127605438232421875" lon="-5.75313541106879711151123046875">
        <ele>49.59999847412109375</ele>
        <time>2019-07-11T15:48:30.000Z</time>
      </trkpt>
      <trkpt lat="43.50429841317236423492431640625" lon="-5.752462260425090789794921875">
        <ele>50</ele>
        <time>2019-07-11T15:48:33.000Z</time>
      </trkpt>
      <trkpt lat="43.50417369045317173004150390625" lon="-5.751740746200084686279296875">
        <ele>50</ele>
        <time>2019-07-11T15:48:36.000Z</time>
      </trkpt>
      <trkpt lat="43.50401108153164386749267578125" lon="-5.7509828545153141021728515625">
        <ele>49.799999237060546875</ele>
        <time>2019-07-11T15:48:39.000Z</time>
      </trkpt>
      <trkpt lat="43.5038378275930881500244140625" lon="-5.750208534300327301025390625">
        <ele>51</ele>
        <time>2019-07-11T15:48:42.000Z</time>
      </trkpt>
      <trkpt lat="43.50367513485252857208251953125" lon="-5.7493798993527889251708984375">
        <ele>51.799999237060546875</ele>
        <time>2019-07-11T15:48:45.000Z</time>
      </trkpt>
      <trkpt lat="43.50356935523450374603271484375" lon="-5.748460404574871063232421875">
        <ele>50.799999237060546875</ele>
        <time>2019-07-11T15:48:48.000Z</time>
      </trkpt>
      <trkpt lat="43.5035380907356739044189453125" lon="-5.74779714457690715789794921875">
        <ele>50.799999237060546875</ele>
        <time>2019-07-11T15:48:50.000Z</time>
      </trkpt>
      <trkpt lat="43.50355007685720920562744140625" lon="-5.7470959983766078948974609375">
        <ele>50.59999847412109375</ele>
        <time>2019-07-11T15:48:52.000Z</time>
      </trkpt>
      <trkpt lat="43.50360673852264881134033203125" lon="-5.7463969476521015167236328125">
        <ele>50</ele>
        <time>2019-07-11T15:48:54.000Z</time>
      </trkpt>
      <trkpt lat="43.503704555332660675048828125" lon="-5.74572782032191753387451171875">
        <ele>48.59999847412109375</ele>
        <time>2019-07-11T15:48:56.000Z</time>
      </trkpt>
      <trkpt lat="43.5038418509066104888916015625" lon="-5.7450972497463226318359375">
        <ele>49.200000762939453125</ele>
        <time>2019-07-11T15:48:58.000Z</time>
      </trkpt>
      <trkpt lat="43.50392374210059642791748046875" lon="-5.7447946630418300628662109375">
        <ele>50</ele>
        <time>2019-07-11T15:48:59.000Z</time>
      </trkpt>
      <trkpt lat="43.5040151886641979217529296875" lon="-5.7444979436695575714111328125">
        <ele>51.200000762939453125</ele>
        <time>2019-07-11T15:49:00.000Z</time>
      </trkpt>
      <trkpt lat="43.504116944968700408935546875" lon="-5.74420164339244365692138671875">
        <ele>52.59999847412109375</ele>
        <time>2019-07-11T15:49:01.000Z</time>
      </trkpt>
      <trkpt lat="43.50435473956167697906494140625" lon="-5.74360753409564495086669921875">
        <ele>53.799999237060546875</ele>
        <time>2019-07-11T15:49:03.000Z</time>
      </trkpt>
      <trkpt lat="43.50463788025081157684326171875" lon="-5.743022225797176361083984375">
        <ele>53.40000152587890625</ele>
        <time>2019-07-11T15:49:05.000Z</time>
      </trkpt>
      <trkpt lat="43.5049646906554698944091796875" lon="-5.74246667325496673583984375">
        <ele>53</ele>
        <time>2019-07-11T15:49:07.000Z</time>
      </trkpt>
      <trkpt lat="43.5051427222788333892822265625" lon="-5.74220071546733379364013671875">
        <ele>52.59999847412109375</ele>
        <time>2019-07-11T15:49:08.000Z</time>
      </trkpt>
      <trkpt lat="43.5055299662053585052490234375" lon="-5.74170165695250034332275390625">
        <ele>53.59999847412109375</ele>
        <time>2019-07-11T15:49:10.000Z</time>
      </trkpt>
      <trkpt lat="43.50594998337328433990478515625" lon="-5.7412574999034404754638671875">
        <ele>54.799999237060546875</ele>
        <time>2019-07-11T15:49:12.000Z</time>
      </trkpt>
      <trkpt lat="43.5063892789185047149658203125" lon="-5.7408779673278331756591796875">
        <ele>56.200000762939453125</ele>
        <time>2019-07-11T15:49:14.000Z</time>
      </trkpt>
      <trkpt lat="43.50685221143066883087158203125" lon="-5.74055300094187259674072265625">
        <ele>58.799999237060546875</ele>
        <time>2019-07-11T15:49:16.000Z</time>
      </trkpt>
      <trkpt lat="43.5070920176804065704345703125" lon="-5.7404082454741001129150390625">
        <ele>59.799999237060546875</ele>
        <time>2019-07-11T15:49:17.000Z</time>
      </trkpt>
      <trkpt lat="43.50733685307204723358154296875" lon="-5.74027505703270435333251953125">
        <ele>62</ele>
        <time>2019-07-11T15:49:18.000Z</time>
      </trkpt>
      <trkpt lat="43.50758244283497333526611328125" lon="-5.74014882557094097137451171875">
        <ele>64.1999969482421875</ele>
        <time>2019-07-11T15:49:19.000Z</time>
      </trkpt>
      <trkpt lat="43.507828451693058013916015625" lon="-5.74002795852720737457275390625">
        <ele>65.1999969482421875</ele>
        <time>2019-07-11T15:49:20.000Z</time>
      </trkpt>
      <trkpt lat="43.50831535644829273223876953125" lon="-5.7397899962961673736572265625">
        <ele>66.59999847412109375</ele>
        <time>2019-07-11T15:49:22.000Z</time>
      </trkpt>
      <trkpt lat="43.50855608470737934112548828125" lon="-5.73966653086245059967041015625">
        <ele>68</ele>
        <time>2019-07-11T15:49:23.000Z</time>
      </trkpt>
      <trkpt lat="43.50903066806495189666748046875" lon="-5.73940987698733806610107421875">
        <ele>68</ele>
        <time>2019-07-11T15:49:25.000Z</time>
      </trkpt>
      <trkpt lat="43.50949603132903575897216796875" lon="-5.73912598192691802978515625">
        <ele>68</ele>
        <time>2019-07-11T15:49:27.000Z</time>
      </trkpt>
      <trkpt lat="43.50995301268994808197021484375" lon="-5.73881291784346103668212890625">
        <ele>66</ele>
        <time>2019-07-11T15:49:29.000Z</time>
      </trkpt>
      <trkpt lat="43.5101718641817569732666015625" lon="-5.73865248821675777435302734375">
        <ele>64.59999847412109375</ele>
        <time>2019-07-11T15:49:30.000Z</time>
      </trkpt>
      <trkpt lat="43.51058484055101871490478515625" lon="-5.73832291178405284881591796875">
        <ele>65.59999847412109375</ele>
        <time>2019-07-11T15:49:32.000Z</time>
      </trkpt>
      <trkpt lat="43.510782904922962188720703125" lon="-5.73814873583614826202392578125">
        <ele>67.1999969482421875</ele>
        <time>2019-07-11T15:49:33.000Z</time>
      </trkpt>
      <trkpt lat="43.510978706181049346923828125" lon="-5.737965591251850128173828125">
        <ele>69.40000152587890625</ele>
        <time>2019-07-11T15:49:34.000Z</time>
      </trkpt>
      <trkpt lat="43.51136351935565471649169921875" lon="-5.7375765033066272735595703125">
        <ele>70</ele>
        <time>2019-07-11T15:49:36.000Z</time>
      </trkpt>
      <trkpt lat="43.5115538723766803741455078125" lon="-5.73736938647925853729248046875">
        <ele>70.40000152587890625</ele>
        <time>2019-07-11T15:49:37.000Z</time>
      </trkpt>
      <trkpt lat="43.5119303874671459197998046875" lon="-5.73692816309630870819091796875">
        <ele>70.40000152587890625</ele>
        <time>2019-07-11T15:49:39.000Z</time>
      </trkpt>
      <trkpt lat="43.5121134482324123382568359375" lon="-5.73669631965458393096923828125">
        <ele>68.8000030517578125</ele>
        <time>2019-07-11T15:49:40.000Z</time>
      </trkpt>
      <trkpt lat="43.51229424588382244110107421875" lon="-5.73645718395709991455078125">
        <ele>67</ele>
        <time>2019-07-11T15:49:41.000Z</time>
      </trkpt>
      <trkpt lat="43.51263823918998241424560546875" lon="-5.73596893809735774993896484375">
        <ele>66.40000152587890625</ele>
        <time>2019-07-11T15:49:43.000Z</time>
      </trkpt>
      <trkpt lat="43.51295792497694492340087890625" lon="-5.73546954430639743804931640625">
        <ele>66.8000030517578125</ele>
        <time>2019-07-11T15:49:45.000Z</time>
      </trkpt>
      <trkpt lat="43.51325967349112033843994140625" lon="-5.73496093042194843292236328125">
        <ele>67</ele>
        <time>2019-07-11T15:49:47.000Z</time>
      </trkpt>
      <trkpt lat="43.513548932969570159912109375" lon="-5.73443345725536346435546875">
        <ele>68</ele>
        <time>2019-07-11T15:49:49.000Z</time>
      </trkpt>
      <trkpt lat="43.5138263739645481109619140625" lon="-5.73387698270380496978759765625">
        <ele>68.8000030517578125</ele>
        <time>2019-07-11T15:49:51.000Z</time>
      </trkpt>
      <trkpt lat="43.51395872421562671661376953125" lon="-5.73358587920665740966796875">
        <ele>69.1999969482421875</ele>
        <time>2019-07-11T15:49:52.000Z</time>
      </trkpt>
      <trkpt lat="43.5142099298536777496337890625" lon="-5.73297726921737194061279296875">
        <ele>68.40000152587890625</ele>
        <time>2019-07-11T15:49:54.000Z</time>
      </trkpt>
      <trkpt lat="43.5143311321735382080078125" lon="-5.7326586730778217315673828125">
        <ele>67.8000030517578125</ele>
        <time>2019-07-11T15:49:55.000Z</time>
      </trkpt>
      <trkpt lat="43.51444738917052745819091796875" lon="-5.73233035393059253692626953125">
        <ele>66.59999847412109375</ele>
        <time>2019-07-11T15:49:56.000Z</time>
      </trkpt>
      <trkpt lat="43.5145586170256137847900390625" lon="-5.73199289850890636444091796875">
        <ele>64.8000030517578125</ele>
        <time>2019-07-11T15:49:57.000Z</time>
      </trkpt>
      <trkpt lat="43.51466280408203601837158203125" lon="-5.7316471450030803680419921875">
        <ele>63.200000762939453125</ele>
        <time>2019-07-11T15:49:58.000Z</time>
      </trkpt>
      <trkpt lat="43.51476221345365047454833984375" lon="-5.731299631297588348388671875">
        <ele>58</ele>
        <time>2019-07-11T15:49:59.000Z</time>
      </trkpt>
      <trkpt lat="43.51486011408269405364990234375" lon="-5.73095672763884067535400390625">
        <ele>51.799999237060546875</ele>
        <time>2019-07-11T15:50:00.000Z</time>
      </trkpt>
      <trkpt lat="43.51495784707367420196533203125" lon="-5.73061843402683734893798828125">
        <ele>44.40000152587890625</ele>
        <time>2019-07-11T15:50:01.000Z</time>
      </trkpt>
      <trkpt lat="43.51505457423627376556396484375" lon="-5.73028785176575183868408203125">
        <ele>39.799999237060546875</ele>
        <time>2019-07-11T15:50:02.000Z</time>
      </trkpt>
      <trkpt lat="43.51514845155179500579833984375" lon="-5.72996615432202816009521484375">
        <ele>37.40000152587890625</ele>
        <time>2019-07-11T15:50:03.000Z</time>
      </trkpt>
      <trkpt lat="43.51532966829836368560791015625" lon="-5.72933851741254329681396484375">
        <ele>38</ele>
        <time>2019-07-11T15:50:05.000Z</time>
      </trkpt>
      <trkpt lat="43.5154201090335845947265625" lon="-5.72902788408100605010986328125">
        <ele>40</ele>
        <time>2019-07-11T15:50:06.000Z</time>
      </trkpt>
      <trkpt lat="43.5155114717781543731689453125" lon="-5.7287175022065639495849609375">
        <ele>41</ele>
        <time>2019-07-11T15:50:07.000Z</time>
      </trkpt>
      <trkpt lat="43.515697382390499114990234375" lon="-5.72809481061995029449462890625">
        <ele>43</ele>
        <time>2019-07-11T15:50:09.000Z</time>
      </trkpt>
      <trkpt lat="43.5158836282789707183837890625" lon="-5.72746918536722660064697265625">
        <ele>42.200000762939453125</ele>
        <time>2019-07-11T15:50:11.000Z</time>
      </trkpt>
      <trkpt lat="43.51597541011869907379150390625" lon="-5.72715553455054759979248046875">
        <ele>40.40000152587890625</ele>
        <time>2019-07-11T15:50:12.000Z</time>
      </trkpt>
      <trkpt lat="43.5160673595964908599853515625" lon="-5.726841799914836883544921875">
        <ele>38.40000152587890625</ele>
        <time>2019-07-11T15:50:13.000Z</time>
      </trkpt>
      <trkpt lat="43.51616048254072666168212890625" lon="-5.7265288196504116058349609375">
        <ele>36.59999847412109375</ele>
        <time>2019-07-11T15:50:14.000Z</time>
      </trkpt>
      <trkpt lat="43.516345806419849395751953125" lon="-5.72591518051922321319580078125">
        <ele>34.799999237060546875</ele>
        <time>2019-07-11T15:50:16.000Z</time>
      </trkpt>
      <trkpt lat="43.51652425713837146759033203125" lon="-5.72531436569988727569580078125">
        <ele>33.200000762939453125</ele>
        <time>2019-07-11T15:50:18.000Z</time>
      </trkpt>
      <trkpt lat="43.51670715026557445526123046875" lon="-5.724710784852504730224609375">
        <ele>34.59999847412109375</ele>
        <time>2019-07-11T15:50:20.000Z</time>
      </trkpt>
      <trkpt lat="43.5168926417827606201171875" lon="-5.7241000793874263763427734375">
        <ele>35</ele>
        <time>2019-07-11T15:50:22.000Z</time>
      </trkpt>
      <trkpt lat="43.51707846857607364654541015625" lon="-5.72347805835306644439697265625">
        <ele>36.200000762939453125</ele>
        <time>2019-07-11T15:50:24.000Z</time>
      </trkpt>
      <trkpt lat="43.517266474664211273193359375" lon="-5.72284765541553497314453125">
        <ele>36.200000762939453125</ele>
        <time>2019-07-11T15:50:26.000Z</time>
      </trkpt>
      <trkpt lat="43.51745749823749065399169921875" lon="-5.7222107984125614166259765625">
        <ele>37</ele>
        <time>2019-07-11T15:50:28.000Z</time>
      </trkpt>
      <trkpt lat="43.5175546444952487945556640625" lon="-5.72188968770205974578857421875">
        <ele>37.200000762939453125</ele>
        <time>2019-07-11T15:50:29.000Z</time>
      </trkpt>
      <trkpt lat="43.5177511163055896759033203125" lon="-5.721233971416950225830078125">
        <ele>36.799999237060546875</ele>
        <time>2019-07-11T15:50:31.000Z</time>
      </trkpt>
      <trkpt lat="43.51795010268688201904296875" lon="-5.720566101372241973876953125">
        <ele>37.200000762939453125</ele>
        <time>2019-07-11T15:50:33.000Z</time>
      </trkpt>
      <trkpt lat="43.51815386675298213958740234375" lon="-5.71988892741501331329345703125">
        <ele>35.59999847412109375</ele>
        <time>2019-07-11T15:50:35.000Z</time>
      </trkpt>
      <trkpt lat="43.51836048066616058349609375" lon="-5.71920345537364482879638671875">
        <ele>34.59999847412109375</ele>
        <time>2019-07-11T15:50:37.000Z</time>
      </trkpt>
      <trkpt lat="43.51854982785880565643310546875" lon="-5.7185111939907073974609375">
        <ele>34.200000762939453125</ele>
        <time>2019-07-11T15:50:39.000Z</time>
      </trkpt>
      <trkpt lat="43.5187058150768280029296875" lon="-5.7178136520087718963623046875">
        <ele>36</ele>
        <time>2019-07-11T15:50:41.000Z</time>
      </trkpt>
      <trkpt lat="43.51883254945278167724609375" lon="-5.71711552329361438751220703125">
        <ele>37.40000152587890625</ele>
        <time>2019-07-11T15:50:43.000Z</time>
      </trkpt>
      <trkpt lat="43.5189349763095378875732421875" lon="-5.71641840040683746337890625">
        <ele>38.200000762939453125</ele>
        <time>2019-07-11T15:50:45.000Z</time>
      </trkpt>
      <trkpt lat="43.5189735330641269683837890625" lon="-5.7160692103207111358642578125">
        <ele>39</ele>
        <time>2019-07-11T15:50:46.000Z</time>
      </trkpt>
      <trkpt lat="43.51902566850185394287109375" lon="-5.7153684832155704498291015625">
        <ele>40.59999847412109375</ele>
        <time>2019-07-11T15:50:48.000Z</time>
      </trkpt>
      <trkpt lat="43.519040085375308990478515625" lon="-5.71502004750072956085205078125">
        <ele>41.799999237060546875</ele>
        <time>2019-07-11T15:50:49.000Z</time>
      </trkpt>
      <trkpt lat="43.5190464556217193603515625" lon="-5.714674293994903564453125">
        <ele>43.200000762939453125</ele>
        <time>2019-07-11T15:50:50.000Z</time>
      </trkpt>
      <trkpt lat="43.5190436057746410369873046875" lon="-5.71432854048907756805419921875">
        <ele>45.40000152587890625</ele>
        <time>2019-07-11T15:50:51.000Z</time>
      </trkpt>
      <trkpt lat="43.51903128437697887420654296875" lon="-5.71398521773517131805419921875">
        <ele>47.799999237060546875</ele>
        <time>2019-07-11T15:50:52.000Z</time>
      </trkpt>
      <trkpt lat="43.5190117545425891876220703125" lon="-5.71364440955221652984619140625">
        <ele>49</ele>
        <time>2019-07-11T15:50:53.000Z</time>
      </trkpt>
      <trkpt lat="43.5189872793853282928466796875" lon="-5.713305361568927764892578125">
        <ele>50.40000152587890625</ele>
        <time>2019-07-11T15:50:54.000Z</time>
      </trkpt>
      <trkpt lat="43.51892131380736827850341796875" lon="-5.71262885816395282745361328125">
        <ele>51.40000152587890625</ele>
        <time>2019-07-11T15:50:56.000Z</time>
      </trkpt>
      <trkpt lat="43.5188318789005279541015625" lon="-5.7119496725499629974365234375">
        <ele>51.200000762939453125</ele>
        <time>2019-07-11T15:50:58.000Z</time>
      </trkpt>
      <trkpt lat="43.51872048340737819671630859375" lon="-5.71126026101410388946533203125">
        <ele>49.799999237060546875</ele>
        <time>2019-07-11T15:51:00.000Z</time>
      </trkpt>
      <trkpt lat="43.5186040587723255157470703125" lon="-5.7105599530041217803955078125">
        <ele>50</ele>
        <time>2019-07-11T15:51:02.000Z</time>
      </trkpt>
      <trkpt lat="43.5185470618307590484619140625" lon="-5.710208080708980560302734375">
        <ele>51</ele>
        <time>2019-07-11T15:51:03.000Z</time>
      </trkpt>
      <trkpt lat="43.5184474848210811614990234375" lon="-5.7095070183277130126953125">
        <ele>50.59999847412109375</ele>
        <time>2019-07-11T15:51:05.000Z</time>
      </trkpt>
      <trkpt lat="43.51837799884378910064697265625" lon="-5.70881257764995098114013671875">
        <ele>52.200000762939453125</ele>
        <time>2019-07-11T15:51:07.000Z</time>
      </trkpt>
      <trkpt lat="43.51834145374596118927001953125" lon="-5.70811620913445949554443359375">
        <ele>51.59999847412109375</ele>
        <time>2019-07-11T15:51:09.000Z</time>
      </trkpt>
      <trkpt lat="43.5183331556618213653564453125" lon="-5.70776517502963542938232421875">
        <ele>50.799999237060546875</ele>
        <time>2019-07-11T15:51:10.000Z</time>
      </trkpt>
      <trkpt lat="43.51833038963377475738525390625" lon="-5.7074153982102870941162109375">
        <ele>49.59999847412109375</ele>
        <time>2019-07-11T15:51:11.000Z</time>
      </trkpt>
      <trkpt lat="43.518347404897212982177734375" lon="-5.70671643130481243133544921875">
        <ele>46.799999237060546875</ele>
        <time>2019-07-11T15:51:13.000Z</time>
      </trkpt>
      <trkpt lat="43.518364168703556060791015625" lon="-5.70636657066643238067626953125">
        <ele>44.799999237060546875</ele>
        <time>2019-07-11T15:51:14.000Z</time>
      </trkpt>
      <trkpt lat="43.5183871351182460784912109375" lon="-5.70601587183773517608642578125">
        <ele>43.200000762939453125</ele>
        <time>2019-07-11T15:51:15.000Z</time>
      </trkpt>
      <trkpt lat="43.5184602253139019012451171875" lon="-5.70531883276998996734619140625">
        <ele>42</ele>
        <time>2019-07-11T15:51:17.000Z</time>
      </trkpt>
      <trkpt lat="43.51856290362775325775146484375" lon="-5.70461760275065898895263671875">
        <ele>40.799999237060546875</ele>
        <time>2019-07-11T15:51:19.000Z</time>
      </trkpt>
      <trkpt lat="43.51868628524243831634521484375" lon="-5.70391721092164516448974609375">
        <ele>40.59999847412109375</ele>
        <time>2019-07-11T15:51:21.000Z</time>
      </trkpt>
      <trkpt lat="43.51880648173391819000244140625" lon="-5.70321531035006046295166015625">
        <ele>40.799999237060546875</ele>
        <time>2019-07-11T15:51:23.000Z</time>
      </trkpt>
      <trkpt lat="43.51886331103742122650146484375" lon="-5.7028633542358875274658203125">
        <ele>39.40000152587890625</ele>
        <time>2019-07-11T15:51:24.000Z</time>
      </trkpt>
      <trkpt lat="43.5189654864370822906494140625" lon="-5.70214770734310150146484375">
        <ele>38.59999847412109375</ele>
        <time>2019-07-11T15:51:26.000Z</time>
      </trkpt>
      <trkpt lat="43.5190062224864959716796875" lon="-5.7017844356596469879150390625">
        <ele>36.799999237060546875</ele>
        <time>2019-07-11T15:51:27.000Z</time>
      </trkpt>
      <trkpt lat="43.5190610401332378387451171875" lon="-5.70105470716953277587890625">
        <ele>35.59999847412109375</ele>
        <time>2019-07-11T15:51:29.000Z</time>
      </trkpt>
      <trkpt lat="43.51907570846378803253173828125" lon="-5.70068615488708019256591796875">
        <ele>34</ele>
        <time>2019-07-11T15:51:30.000Z</time>
      </trkpt>
      <trkpt lat="43.51908140815794467926025390625" lon="-5.699949301779270172119140625">
        <ele>32.40000152587890625</ele>
        <time>2019-07-11T15:51:32.000Z</time>
      </trkpt>
      <trkpt lat="43.51907260715961456298828125" lon="-5.69958074949681758880615234375">
        <ele>30.3999996185302734375</ele>
        <time>2019-07-11T15:51:33.000Z</time>
      </trkpt>
      <trkpt lat="43.5190308652818202972412109375" lon="-5.698845572769641876220703125">
        <ele>29</ele>
        <time>2019-07-11T15:51:35.000Z</time>
      </trkpt>
      <trkpt lat="43.5189574398100376129150390625" lon="-5.6981145031750202178955078125">
        <ele>29.799999237060546875</ele>
        <time>2019-07-11T15:51:37.000Z</time>
      </trkpt>
      <trkpt lat="43.518857695162296295166015625" lon="-5.6973755545914173126220703125">
        <ele>30.799999237060546875</ele>
        <time>2019-07-11T15:51:39.000Z</time>
      </trkpt>
      <trkpt lat="43.51879524998366832733154296875" lon="-5.69700214080512523651123046875">
        <ele>32.40000152587890625</ele>
        <time>2019-07-11T15:51:40.000Z</time>
      </trkpt>
      <trkpt lat="43.5187230817973613739013671875" lon="-5.69662679918110370635986328125">
        <ele>34</ele>
        <time>2019-07-11T15:51:41.000Z</time>
      </trkpt>
      <trkpt lat="43.51854446344077587127685546875" lon="-5.6958725117146968841552734375">
        <ele>34.59999847412109375</ele>
        <time>2019-07-11T15:51:43.000Z</time>
      </trkpt>
      <trkpt lat="43.51831899024546146392822265625" lon="-5.6951288692653179168701171875">
        <ele>34</ele>
        <time>2019-07-11T15:51:45.000Z</time>
      </trkpt>
      <trkpt lat="43.51819057948887348175048828125" lon="-5.69476366974413394927978515625">
        <ele>32</ele>
        <time>2019-07-11T15:51:46.000Z</time>
      </trkpt>
      <trkpt lat="43.51805395446717739105224609375" lon="-5.69440525956451892852783203125">
        <ele>29.200000762939453125</ele>
        <time>2019-07-11T15:51:47.000Z</time>
      </trkpt>
      <trkpt lat="43.51791028864681720733642578125" lon="-5.69405456073582172393798828125">
        <ele>27.799999237060546875</ele>
        <time>2019-07-11T15:51:48.000Z</time>
      </trkpt>
      <trkpt lat="43.5177608393132686614990234375" lon="-5.69371207617223262786865234375">
        <ele>29</ele>
        <time>2019-07-11T15:51:49.000Z</time>
      </trkpt>
      <trkpt lat="43.51745280437171459197998046875" lon="-5.69305007345974445343017578125">
        <ele>30.799999237060546875</ele>
        <time>2019-07-11T15:51:51.000Z</time>
      </trkpt>
      <trkpt lat="43.5172981582581996917724609375" lon="-5.6927256099879741668701171875">
        <ele>33.40000152587890625</ele>
        <time>2019-07-11T15:51:52.000Z</time>
      </trkpt>
      <trkpt lat="43.51714334450662136077880859375" lon="-5.69240399636328220367431640625">
        <ele>34.59999847412109375</ele>
        <time>2019-07-11T15:51:53.000Z</time>
      </trkpt>
      <trkpt lat="43.51683430373668670654296875" lon="-5.6917707435786724090576171875">
        <ele>35</ele>
        <time>2019-07-11T15:51:55.000Z</time>
      </trkpt>
      <trkpt lat="43.51653448306024074554443359375" lon="-5.6911417655646800994873046875">
        <ele>34.40000152587890625</ele>
        <time>2019-07-11T15:51:57.000Z</time>
      </trkpt>
      <trkpt lat="43.51624212227761745452880859375" lon="-5.69051605649292469024658203125">
        <ele>33.799999237060546875</ele>
        <time>2019-07-11T15:51:59.000Z</time>
      </trkpt>
      <trkpt lat="43.51595428772270679473876953125" lon="-5.68989344872534275054931640625">
        <ele>34.40000152587890625</ele>
        <time>2019-07-11T15:52:01.000Z</time>
      </trkpt>
      <trkpt lat="43.5158098675310611724853515625" lon="-5.68958315066993236541748046875">
        <ele>35.799999237060546875</ele>
        <time>2019-07-11T15:52:02.000Z</time>
      </trkpt>
      <trkpt lat="43.51551809348165988922119140625" lon="-5.68896926008164882659912109375">
        <ele>36.59999847412109375</ele>
        <time>2019-07-11T15:52:04.000Z</time>
      </trkpt>
      <trkpt lat="43.51523101329803466796875" lon="-5.6883593089878559112548828125">
        <ele>35.59999847412109375</ele>
        <time>2019-07-11T15:52:06.000Z</time>
      </trkpt>
      <trkpt lat="43.51494644768536090850830078125" lon="-5.68774701096117496490478515625">
        <ele>35.40000152587890625</ele>
        <time>2019-07-11T15:52:08.000Z</time>
      </trkpt>
      <trkpt lat="43.514659702777862548828125" lon="-5.687132366001605987548828125">
        <ele>35.40000152587890625</ele>
        <time>2019-07-11T15:52:10.000Z</time>
      </trkpt>
      <trkpt lat="43.51437631063163280487060546875" lon="-5.68651537410914897918701171875">
        <ele>38</ele>
        <time>2019-07-11T15:52:12.000Z</time>
      </trkpt>
      <trkpt lat="43.5142374224960803985595703125" lon="-5.68620641715824604034423828125">
        <ele>40</ele>
        <time>2019-07-11T15:52:13.000Z</time>
      </trkpt>
      <trkpt lat="43.51410222239792346954345703125" lon="-5.68589628674089908599853515625">
        <ele>41.799999237060546875</ele>
        <time>2019-07-11T15:52:14.000Z</time>
      </trkpt>
      <trkpt lat="43.51397179998457431793212890625" lon="-5.68557567894458770751953125">
        <ele>43.40000152587890625</ele>
        <time>2019-07-11T15:52:15.000Z</time>
      </trkpt>
      <trkpt lat="43.5138485021889209747314453125" lon="-5.6852459348738193511962890625">
        <ele>44.40000152587890625</ele>
        <time>2019-07-11T15:52:16.000Z</time>
      </trkpt>
      <trkpt lat="43.51363317109644412994384765625" lon="-5.68455635569989681243896484375">
        <ele>45.200000762939453125</ele>
        <time>2019-07-11T15:52:18.000Z</time>
      </trkpt>
      <trkpt lat="43.51345111615955829620361328125" lon="-5.68383760750293731689453125">
        <ele>44.799999237060546875</ele>
        <time>2019-07-11T15:52:20.000Z</time>
      </trkpt>
      <trkpt lat="43.5133013315498828887939453125" lon="-5.683103017508983612060546875">
        <ele>42.200000762939453125</ele>
        <time>2019-07-11T15:52:22.000Z</time>
      </trkpt>
      <trkpt lat="43.51319747976958751678466796875" lon="-5.6823521666228771209716796875">
        <ele>40.799999237060546875</ele>
        <time>2019-07-11T15:52:24.000Z</time>
      </trkpt>
      <trkpt lat="43.513139225542545318603515625" lon="-5.68158379755914211273193359375">
        <ele>42.40000152587890625</ele>
        <time>2019-07-11T15:52:26.000Z</time>
      </trkpt>
      <trkpt lat="43.51312288083136081695556640625" lon="-5.68119588308036327362060546875">
        <ele>43.40000152587890625</ele>
        <time>2019-07-11T15:52:27.000Z</time>
      </trkpt>
      <trkpt lat="43.51311407983303070068359375" lon="-5.68080796860158443450927734375">
        <ele>44.799999237060546875</ele>
        <time>2019-07-11T15:52:28.000Z</time>
      </trkpt>
      <trkpt lat="43.51311097852885723114013671875" lon="-5.680418126285076141357421875">
        <ele>46.40000152587890625</ele>
        <time>2019-07-11T15:52:29.000Z</time>
      </trkpt>
      <trkpt lat="43.5131095536053180694580078125" lon="-5.68002610467374324798583984375">
        <ele>48</ele>
        <time>2019-07-11T15:52:30.000Z</time>
      </trkpt>
      <trkpt lat="43.5131085477769374847412109375" lon="-5.67924088798463344573974609375">
        <ele>49.200000762939453125</ele>
        <time>2019-07-11T15:52:32.000Z</time>
      </trkpt>
      <trkpt lat="43.51310343481600284576416015625" lon="-5.67844745703041553497314453125">
        <ele>50.40000152587890625</ele>
        <time>2019-07-11T15:52:34.000Z</time>
      </trkpt>
      <trkpt lat="43.5130999982357025146484375" lon="-5.6776589713990688323974609375">
        <ele>49.200000762939453125</ele>
        <time>2019-07-11T15:52:36.000Z</time>
      </trkpt>
      <trkpt lat="43.51310242898762226104736328125" lon="-5.6772656925022602081298828125">
        <ele>45.200000762939453125</ele>
        <time>2019-07-11T15:52:37.000Z</time>
      </trkpt>
      <trkpt lat="43.51310645230114459991455078125" lon="-5.67687266506254673004150390625">
        <ele>43.799999237060546875</ele>
        <time>2019-07-11T15:52:38.000Z</time>
      </trkpt>
      <trkpt lat="43.5131122358143329620361328125" lon="-5.67648123018443584442138671875">
        <ele>42.200000762939453125</ele>
        <time>2019-07-11T15:52:39.000Z</time>
      </trkpt>
      <trkpt lat="43.5131269879639148712158203125" lon="-5.675702132284641265869140625">
        <ele>38.40000152587890625</ele>
        <time>2019-07-11T15:52:41.000Z</time>
      </trkpt>
      <trkpt lat="43.51312723942101001739501953125" lon="-5.67531078122556209564208984375">
        <ele>35.799999237060546875</ele>
        <time>2019-07-11T15:52:42.000Z</time>
      </trkpt>
      <trkpt lat="43.51312405429780483245849609375" lon="-5.67453528754413127899169921875">
        <ele>36.200000762939453125</ele>
        <time>2019-07-11T15:52:44.000Z</time>
      </trkpt>
      <trkpt lat="43.51312388665974140167236328125" lon="-5.674150474369525909423828125">
        <ele>38.200000762939453125</ele>
        <time>2019-07-11T15:52:45.000Z</time>
      </trkpt>
      <trkpt lat="43.51312321610748767852783203125" lon="-5.67376750521361827850341796875">
        <ele>39.40000152587890625</ele>
        <time>2019-07-11T15:52:46.000Z</time>
      </trkpt>
      <trkpt lat="43.51311751641333103179931640625" lon="-5.67300709895789623260498046875">
        <ele>41</ele>
        <time>2019-07-11T15:52:48.000Z</time>
      </trkpt>
      <trkpt lat="43.5131105594336986541748046875" lon="-5.67262731492519378662109375">
        <ele>42.200000762939453125</ele>
        <time>2019-07-11T15:52:49.000Z</time>
      </trkpt>
      <trkpt lat="43.513090945780277252197265625" lon="-5.67186690866947174072265625">
        <ele>43.40000152587890625</ele>
        <time>2019-07-11T15:52:51.000Z</time>
      </trkpt>
      <trkpt lat="43.51308482699096202850341796875" lon="-5.6714858673512935638427734375">
        <ele>45.59999847412109375</ele>
        <time>2019-07-11T15:52:52.000Z</time>
      </trkpt>
      <trkpt lat="43.51308449171483516693115234375" lon="-5.67110390402376651763916015625">
        <ele>48</ele>
        <time>2019-07-11T15:52:53.000Z</time>
      </trkpt>
      <trkpt lat="43.51309086196124553680419921875" lon="-5.6707204319536685943603515625">
        <ele>49.200000762939453125</ele>
        <time>2019-07-11T15:52:54.000Z</time>
      </trkpt>
      <trkpt lat="43.513103015720844268798828125" lon="-5.67033746279776096343994140625">
        <ele>50.59999847412109375</ele>
        <time>2019-07-11T15:52:55.000Z</time>
      </trkpt>
      <trkpt lat="43.5131482779979705810546875" lon="-5.6695731170475482940673828125">
        <ele>49.799999237060546875</ele>
        <time>2019-07-11T15:52:57.000Z</time>
      </trkpt>
      <trkpt lat="43.51318239234387874603271484375" lon="-5.66919249482452869415283203125">
        <ele>47.40000152587890625</ele>
        <time>2019-07-11T15:52:58.000Z</time>
      </trkpt>
      <trkpt lat="43.513223715126514434814453125" lon="-5.66881346516311168670654296875">
        <ele>45.799999237060546875</ele>
        <time>2019-07-11T15:52:59.000Z</time>
      </trkpt>
      <trkpt lat="43.513271994888782501220703125" lon="-5.6684355251491069793701171875">
        <ele>44</ele>
        <time>2019-07-11T15:53:00.000Z</time>
      </trkpt>
      <trkpt lat="43.513388000428676605224609375" lon="-5.66768358461558818817138671875">
        <ele>41.200000762939453125</ele>
        <time>2019-07-11T15:53:02.000Z</time>
      </trkpt>
      <trkpt lat="43.5134508647024631500244140625" lon="-5.66730690188705921173095703125">
        <ele>39.40000152587890625</ele>
        <time>2019-07-11T15:53:03.000Z</time>
      </trkpt>
      <trkpt lat="43.513515405356884002685546875" lon="-5.66692938096821308135986328125">
        <ele>37.200000762939453125</ele>
        <time>2019-07-11T15:53:04.000Z</time>
      </trkpt>
      <trkpt lat="43.5135819576680660247802734375" lon="-5.66655102185904979705810546875">
        <ele>34.59999847412109375</ele>
        <time>2019-07-11T15:53:05.000Z</time>
      </trkpt>
      <trkpt lat="43.5136496834456920623779296875" lon="-5.66617283038794994354248046875">
        <ele>31.6000003814697265625</ele>
        <time>2019-07-11T15:53:06.000Z</time>
      </trkpt>
      <trkpt lat="43.5137177444994449615478515625" lon="-5.66579438745975494384765625">
        <ele>30.200000762939453125</ele>
        <time>2019-07-11T15:53:07.000Z</time>
      </trkpt>
      <trkpt lat="43.5137844644486904144287109375" lon="-5.665415860712528228759765625">
        <ele>27.3999996185302734375</ele>
        <time>2019-07-11T15:53:08.000Z</time>
      </trkpt>
      <trkpt lat="43.5138511843979358673095703125" lon="-5.665035657584667205810546875">
        <ele>26</ele>
        <time>2019-07-11T15:53:09.000Z</time>
      </trkpt>
      <trkpt lat="43.513919748365879058837890625" lon="-5.66465537063777446746826171875">
        <ele>27.3999996185302734375</ele>
        <time>2019-07-11T15:53:10.000Z</time>
      </trkpt>
      <trkpt lat="43.51398789323866367340087890625" lon="-5.664274580776691436767578125">
        <ele>33.59999847412109375</ele>
        <time>2019-07-11T15:53:11.000Z</time>
      </trkpt>
      <trkpt lat="43.51405310444533824920654296875" lon="-5.66389211453497409820556640625">
        <ele>42.40000152587890625</ele>
        <time>2019-07-11T15:53:12.000Z</time>
      </trkpt>
      <trkpt lat="43.51412259042263031005859375" lon="-5.66351509653031826019287109375">
        <ele>51.40000152587890625</ele>
        <time>2019-07-11T15:53:13.000Z</time>
      </trkpt>
      <trkpt lat="43.51419123820960521697998046875" lon="-5.6631351448595523834228515625">
        <ele>56</ele>
        <time>2019-07-11T15:53:14.000Z</time>
      </trkpt>
      <trkpt lat="43.51425762288272380828857421875" lon="-5.6627579592168331146240234375">
        <ele>58.200000762939453125</ele>
        <time>2019-07-11T15:53:15.000Z</time>
      </trkpt>
      <trkpt lat="43.5143235884606838226318359375" lon="-5.66238605417311191558837890625">
        <ele>54</ele>
        <time>2019-07-11T15:53:16.000Z</time>
      </trkpt>
      <trkpt lat="43.51438687182962894439697265625" lon="-5.662016160786151885986328125">
        <ele>45.799999237060546875</ele>
        <time>2019-07-11T15:53:17.000Z</time>
      </trkpt>
      <trkpt lat="43.5144499875605106353759765625" lon="-5.6616492010653018951416015625">
        <ele>34.799999237060546875</ele>
        <time>2019-07-11T15:53:18.000Z</time>
      </trkpt>
      <trkpt lat="43.51451243273913860321044921875" lon="-5.66128299571573734283447265625">
        <ele>29.3999996185302734375</ele>
        <time>2019-07-11T15:53:19.000Z</time>
      </trkpt>
      <trkpt lat="43.514576889574527740478515625" lon="-5.66091947257518768310546875">
        <ele>26.799999237060546875</ele>
        <time>2019-07-11T15:53:20.000Z</time>
      </trkpt>
      <trkpt lat="43.51464419625699520111083984375" lon="-5.66055930219590663909912109375">
        <ele>30</ele>
        <time>2019-07-11T15:53:21.000Z</time>
      </trkpt>
      <trkpt lat="43.514785431325435638427734375" lon="-5.65985287539660930633544921875">
        <ele>29.3999996185302734375</ele>
        <time>2019-07-11T15:53:23.000Z</time>
      </trkpt>
      <trkpt lat="43.51485843770205974578857421875" lon="-5.65950217656791210174560546875">
        <ele>35</ele>
        <time>2019-07-11T15:53:24.000Z</time>
      </trkpt>
      <trkpt lat="43.51494200527667999267578125" lon="-5.6591614522039890289306640625">
        <ele>42.40000152587890625</ele>
        <time>2019-07-11T15:53:25.000Z</time>
      </trkpt>
      <trkpt lat="43.515035547316074371337890625" lon="-5.6588285230100154876708984375">
        <ele>46.200000762939453125</ele>
        <time>2019-07-11T15:53:26.000Z</time>
      </trkpt>
      <trkpt lat="43.515140824019908905029296875" lon="-5.658505149185657501220703125">
        <ele>47.799999237060546875</ele>
        <time>2019-07-11T15:53:27.000Z</time>
      </trkpt>
      <trkpt lat="43.5153766907751560211181640625" lon="-5.65789100714027881622314453125">
        <ele>48.59999847412109375</ele>
        <time>2019-07-11T15:53:29.000Z</time>
      </trkpt>
      <trkpt lat="43.51564985699951648712158203125" lon="-5.65731215290725231170654296875">
        <ele>44.40000152587890625</ele>
        <time>2019-07-11T15:53:31.000Z</time>
      </trkpt>
      <trkpt lat="43.5158011503517627716064453125" lon="-5.65703538246452808380126953125">
        <ele>37</ele>
        <time>2019-07-11T15:53:32.000Z</time>
      </trkpt>
      <trkpt lat="43.5159624181687831878662109375" lon="-5.65676514990627765655517578125">
        <ele>29.3999996185302734375</ele>
        <time>2019-07-11T15:53:33.000Z</time>
      </trkpt>
      <trkpt lat="43.51613131351768970489501953125" lon="-5.65650195814669132232666015625">
        <ele>24.6000003814697265625</ele>
        <time>2019-07-11T15:53:34.000Z</time>
      </trkpt>
      <trkpt lat="43.51631739176809787750244140625" lon="-5.656250081956386566162109375">
        <ele>22.200000762939453125</ele>
        <time>2019-07-11T15:53:35.000Z</time>
      </trkpt>
      <trkpt lat="43.51651721633970737457275390625" lon="-5.65601094625890254974365234375">
        <ele>21</ele>
        <time>2019-07-11T15:53:36.000Z</time>
      </trkpt>
      <trkpt lat="43.5169427655637264251708984375" lon="-5.65556234680116176605224609375">
        <ele>18.3999996185302734375</ele>
        <time>2019-07-11T15:53:38.000Z</time>
      </trkpt>
      <trkpt lat="43.51716664619743824005126953125" lon="-5.65535414032638072967529296875">
        <ele>16.799999237060546875</ele>
        <time>2019-07-11T15:53:39.000Z</time>
      </trkpt>
      <trkpt lat="43.51763787679374217987060546875" lon="-5.65495113842189311981201171875">
        <ele>12.80000019073486328125</ele>
        <time>2019-07-11T15:53:41.000Z</time>
      </trkpt>
      <trkpt lat="43.51788480766117572784423828125" lon="-5.654743351042270660400390625">
        <ele>9.3999996185302734375</ele>
        <time>2019-07-11T15:53:42.000Z</time>
      </trkpt>
      <trkpt lat="43.518374897539615631103515625" lon="-5.6542952544987201690673828125">
        <ele>12.6000003814697265625</ele>
        <time>2019-07-11T15:53:44.000Z</time>
      </trkpt>
      <trkpt lat="43.5186147876083850860595703125" lon="-5.65404891036450862884521484375">
        <ele>13.80000019073486328125</ele>
        <time>2019-07-11T15:53:45.000Z</time>
      </trkpt>
      <trkpt lat="43.51906850002706050872802734375" lon="-5.6534999795258045196533203125">
        <ele>11.19999980926513671875</ele>
        <time>2019-07-11T15:53:47.000Z</time>
      </trkpt>
      <trkpt lat="43.51927905343472957611083984375" lon="-5.653201080858707427978515625">
        <ele>10</ele>
        <time>2019-07-11T15:53:48.000Z</time>
      </trkpt>
      <trkpt lat="43.51947653107345104217529296875" lon="-5.65288919024169445037841796875">
        <ele>11.3999996185302734375</ele>
        <time>2019-07-11T15:53:49.000Z</time>
      </trkpt>
      <trkpt lat="43.5198318399488925933837890625" lon="-5.652229450643062591552734375">
        <ele>12.6000003814697265625</ele>
        <time>2019-07-11T15:53:51.000Z</time>
      </trkpt>
      <trkpt lat="43.5199897550046443939208984375" lon="-5.651883780956268310546875">
        <ele>14.80000019073486328125</ele>
        <time>2019-07-11T15:53:52.000Z</time>
      </trkpt>
      <trkpt lat="43.520263172686100006103515625" lon="-5.6511718221008777618408203125">
        <ele>16.799999237060546875</ele>
        <time>2019-07-11T15:53:54.000Z</time>
      </trkpt>
      <trkpt lat="43.5204785875976085662841796875" lon="-5.65043061040341854095458984375">
        <ele>15.6000003814697265625</ele>
        <time>2019-07-11T15:53:56.000Z</time>
      </trkpt>
      <trkpt lat="43.52056793868541717529296875" lon="-5.65005040727555751800537109375">
        <ele>14.19999980926513671875</ele>
        <time>2019-07-11T15:53:57.000Z</time>
      </trkpt>
      <trkpt lat="43.5207162983715534210205078125" lon="-5.64927893690764904022216796875">
        <ele>11.6000003814697265625</ele>
        <time>2019-07-11T15:53:59.000Z</time>
      </trkpt>
      <trkpt lat="43.52084998972713947296142578125" lon="-5.64850612543523311614990234375">
        <ele>9</ele>
        <time>2019-07-11T15:54:01.000Z</time>
      </trkpt>
      <trkpt lat="43.520916961133480072021484375" lon="-5.64812055788934230804443359375">
        <ele>8</ele>
        <time>2019-07-11T15:54:02.000Z</time>
      </trkpt>
      <trkpt lat="43.5209841839969158172607421875" lon="-5.6477344036102294921875">
        <ele>6.599999904632568359375</ele>
        <time>2019-07-11T15:54:03.000Z</time>
      </trkpt>
      <trkpt lat="43.52105232886970043182373046875" lon="-5.6473496742546558380126953125">
        <ele>5.80000019073486328125</ele>
        <time>2019-07-11T15:54:04.000Z</time>
      </trkpt>
      <trkpt lat="43.52112047374248504638671875" lon="-5.64696796238422393798828125">
        <ele>5.400000095367431640625</ele>
        <time>2019-07-11T15:54:05.000Z</time>
      </trkpt>
      <trkpt lat="43.5212577693164348602294921875" lon="-5.6462161056697368621826171875">
        <ele>4.400000095367431640625</ele>
        <time>2019-07-11T15:54:07.000Z</time>
      </trkpt>
      <trkpt lat="43.52139296941459178924560546875" lon="-5.64547891728579998016357421875">
        <ele>5.80000019073486328125</ele>
        <time>2019-07-11T15:54:09.000Z</time>
      </trkpt>
      <trkpt lat="43.52152607403695583343505859375" lon="-5.64475522376596927642822265625">
        <ele>6.599999904632568359375</ele>
        <time>2019-07-11T15:54:11.000Z</time>
      </trkpt>
      <trkpt lat="43.5216567479074001312255859375" lon="-5.64403890632092952728271484375">
        <ele>8</ele>
        <time>2019-07-11T15:54:13.000Z</time>
      </trkpt>
      <trkpt lat="43.5217895172536373138427734375" lon="-5.6433146260678768157958984375">
        <ele>10.80000019073486328125</ele>
        <time>2019-07-11T15:54:15.000Z</time>
      </trkpt>
      <trkpt lat="43.52192404679954051971435546875" lon="-5.64258162863552570343017578125">
        <ele>11.6000003814697265625</ele>
        <time>2019-07-11T15:54:17.000Z</time>
      </trkpt>
      <trkpt lat="43.52199018001556396484375" lon="-5.64221433363854885101318359375">
        <ele>11.80000019073486328125</ele>
        <time>2019-07-11T15:54:18.000Z</time>
      </trkpt>
      <trkpt lat="43.52211783640086650848388671875" lon="-5.6414810009300708770751953125">
        <ele>10.80000019073486328125</ele>
        <time>2019-07-11T15:54:20.000Z</time>
      </trkpt>
      <trkpt lat="43.522175587713718414306640625" lon="-5.64111060462892055511474609375">
        <ele>10.19999980926513671875</ele>
        <time>2019-07-11T15:54:21.000Z</time>
      </trkpt>
      <trkpt lat="43.52225731126964092254638671875" lon="-5.64035505987703800201416015625">
        <ele>8.6000003814697265625</ele>
        <time>2019-07-11T15:54:23.000Z</time>
      </trkpt>
      <trkpt lat="43.52227658964693546295166015625" lon="-5.63996831886470317840576171875">
        <ele>7.19999980926513671875</ele>
        <time>2019-07-11T15:54:24.000Z</time>
      </trkpt>
      <trkpt lat="43.5222677886486053466796875" lon="-5.6391840241849422454833984375">
        <ele>7.599999904632568359375</ele>
        <time>2019-07-11T15:54:26.000Z</time>
      </trkpt>
      <trkpt lat="43.522239960730075836181640625" lon="-5.63879284076392650604248046875">
        <ele>7.19999980926513671875</ele>
        <time>2019-07-11T15:54:27.000Z</time>
      </trkpt>
      <trkpt lat="43.5221385397017002105712890625" lon="-5.638017766177654266357421875">
        <ele>6.80000019073486328125</ele>
        <time>2019-07-11T15:54:29.000Z</time>
      </trkpt>
      <trkpt lat="43.521974086761474609375" lon="-5.637256689369678497314453125">
        <ele>7.599999904632568359375</ele>
        <time>2019-07-11T15:54:31.000Z</time>
      </trkpt>
      <trkpt lat="43.5218681395053863525390625" lon="-5.6368850357830524444580078125">
        <ele>8.6000003814697265625</ele>
        <time>2019-07-11T15:54:32.000Z</time>
      </trkpt>
      <trkpt lat="43.5216004215180873870849609375" lon="-5.636175759136676788330078125">
        <ele>9.3999996185302734375</ele>
        <time>2019-07-11T15:54:34.000Z</time>
      </trkpt>
      <trkpt lat="43.5212788917124271392822265625" lon="-5.6355197913944721221923828125">
        <ele>7.400000095367431640625</ele>
        <time>2019-07-11T15:54:36.000Z</time>
      </trkpt>
      <trkpt lat="43.520920313894748687744140625" lon="-5.6349109299480915069580078125">
        <ele>7.400000095367431640625</ele>
        <time>2019-07-11T15:54:38.000Z</time>
      </trkpt>
      <trkpt lat="43.52052577771246433258056640625" lon="-5.63435143791139125823974609375">
        <ele>6.80000019073486328125</ele>
        <time>2019-07-11T15:54:40.000Z</time>
      </trkpt>
      <trkpt lat="43.52011875249445438385009765625" lon="-5.633826144039630889892578125">
        <ele>8.6000003814697265625</ele>
        <time>2019-07-11T15:54:42.000Z</time>
      </trkpt>
      <trkpt lat="43.5197242163121700286865234375" lon="-5.633309818804264068603515625">
        <ele>8.80000019073486328125</ele>
        <time>2019-07-11T15:54:44.000Z</time>
      </trkpt>
      <trkpt lat="43.519342504441738128662109375" lon="-5.63280480913817882537841796875">
        <ele>10.19999980926513671875</ele>
        <time>2019-07-11T15:54:46.000Z</time>
      </trkpt>
      <trkpt lat="43.51896322332322597503662109375" lon="-5.63230105675756931304931640625">
        <ele>10.80000019073486328125</ele>
        <time>2019-07-11T15:54:48.000Z</time>
      </trkpt>
      <trkpt lat="43.51858050562441349029541015625" lon="-5.63179579563438892364501953125">
        <ele>12</ele>
        <time>2019-07-11T15:54:50.000Z</time>
      </trkpt>
      <trkpt lat="43.51838721893727779388427734375" lon="-5.6315405666828155517578125">
        <ele>13.3999996185302734375</ele>
        <time>2019-07-11T15:54:51.000Z</time>
      </trkpt>
      <trkpt lat="43.51819275878369808197021484375" lon="-5.6312819011509418487548828125">
        <ele>14.80000019073486328125</ele>
        <time>2019-07-11T15:54:52.000Z</time>
      </trkpt>
      <trkpt lat="43.517800234258174896240234375" lon="-5.63075895421206951141357421875">
        <ele>17.200000762939453125</ele>
        <time>2019-07-11T15:54:54.000Z</time>
      </trkpt>
      <trkpt lat="43.51760183461010456085205078125" lon="-5.630497522652149200439453125">
        <ele>19.3999996185302734375</ele>
        <time>2019-07-11T15:54:55.000Z</time>
      </trkpt>
      <trkpt lat="43.5174041055142879486083984375" lon="-5.6302365101873874664306640625">
        <ele>20.799999237060546875</ele>
        <time>2019-07-11T15:54:56.000Z</time>
      </trkpt>
      <trkpt lat="43.51701174862682819366455078125" lon="-5.6297071091830730438232421875">
        <ele>20.799999237060546875</ele>
        <time>2019-07-11T15:54:58.000Z</time>
      </trkpt>
      <trkpt lat="43.51663037203252315521240234375" lon="-5.62916555441915988922119140625">
        <ele>20.6000003814697265625</ele>
        <time>2019-07-11T15:55:00.000Z</time>
      </trkpt>
      <trkpt lat="43.51627363823354244232177734375" lon="-5.6286134384572505950927734375">
        <ele>21.6000003814697265625</ele>
        <time>2019-07-11T15:55:02.000Z</time>
      </trkpt>
      <trkpt lat="43.51610616780817508697509765625" lon="-5.62833155505359172821044921875">
        <ele>22</ele>
        <time>2019-07-11T15:55:03.000Z</time>
      </trkpt>
      <trkpt lat="43.51594657637178897857666015625" lon="-5.628043301403522491455078125">
        <ele>24.200000762939453125</ele>
        <time>2019-07-11T15:55:04.000Z</time>
      </trkpt>
      <trkpt lat="43.51579201407730579376220703125" lon="-5.6277480907738208770751953125">
        <ele>27.3999996185302734375</ele>
        <time>2019-07-11T15:55:05.000Z</time>
      </trkpt>
      <trkpt lat="43.51564206182956695556640625" lon="-5.627444498240947723388671875">
        <ele>29.799999237060546875</ele>
        <time>2019-07-11T15:55:06.000Z</time>
      </trkpt>
      <trkpt lat="43.51549646817147731781005859375" lon="-5.62713109888136386871337890625">
        <ele>31</ele>
        <time>2019-07-11T15:55:07.000Z</time>
      </trkpt>
      <trkpt lat="43.5152217932045459747314453125" lon="-5.62647311948239803314208984375">
        <ele>32.200000762939453125</ele>
        <time>2019-07-11T15:55:09.000Z</time>
      </trkpt>
      <trkpt lat="43.51497846655547618865966796875" lon="-5.6257907487452030181884765625">
        <ele>28.799999237060546875</ele>
        <time>2019-07-11T15:55:11.000Z</time>
      </trkpt>
      <trkpt lat="43.51487117819488048553466796875" lon="-5.62544633634388446807861328125">
        <ele>27.200000762939453125</ele>
        <time>2019-07-11T15:55:12.000Z</time>
      </trkpt>
      <trkpt lat="43.51477227173745632171630859375" lon="-5.62510083429515361785888671875">
        <ele>26</ele>
        <time>2019-07-11T15:55:13.000Z</time>
      </trkpt>
      <trkpt lat="43.51459457539021968841552734375" lon="-5.62440832145512104034423828125">
        <ele>24.6000003814697265625</ele>
        <time>2019-07-11T15:55:15.000Z</time>
      </trkpt>
      <trkpt lat="43.51451662369072437286376953125" lon="-5.6240572035312652587890625">
        <ele>26.799999237060546875</ele>
        <time>2019-07-11T15:55:16.000Z</time>
      </trkpt>
      <trkpt lat="43.51444780826568603515625" lon="-5.62370155937969684600830078125">
        <ele>28.6000003814697265625</ele>
        <time>2019-07-11T15:55:17.000Z</time>
      </trkpt>
      <trkpt lat="43.51438737474381923675537109375" lon="-5.623343400657176971435546875">
        <ele>30</ele>
        <time>2019-07-11T15:55:18.000Z</time>
      </trkpt>
      <trkpt lat="43.51429316215217113494873046875" lon="-5.62262482009828090667724609375">
        <ele>30.3999996185302734375</ele>
        <time>2019-07-11T15:55:20.000Z</time>
      </trkpt>
      <trkpt lat="43.5142372548580169677734375" lon="-5.62190297059714794158935546875">
        <ele>30.799999237060546875</ele>
        <time>2019-07-11T15:55:22.000Z</time>
      </trkpt>
      <trkpt lat="43.51420263759791851043701171875" lon="-5.62118011526763439178466796875">
        <ele>28.3999996185302734375</ele>
        <time>2019-07-11T15:55:24.000Z</time>
      </trkpt>
      <trkpt lat="43.514187633991241455078125" lon="-5.6204603612422943115234375">
        <ele>30</ele>
        <time>2019-07-11T15:55:26.000Z</time>
      </trkpt>
      <trkpt lat="43.5141827724874019622802734375" lon="-5.62010119669139385223388671875">
        <ele>31.799999237060546875</ele>
        <time>2019-07-11T15:55:27.000Z</time>
      </trkpt>
      <trkpt lat="43.5141767375171184539794921875" lon="-5.619748570024967193603515625">
        <ele>33.200000762939453125</ele>
        <time>2019-07-11T15:55:28.000Z</time>
      </trkpt>
      <trkpt lat="43.514171540737152099609375" lon="-5.619047842919826507568359375">
        <ele>34.799999237060546875</ele>
        <time>2019-07-11T15:55:30.000Z</time>
      </trkpt>
      <trkpt lat="43.51416525430977344512939453125" lon="-5.6183499656617641448974609375">
        <ele>37.200000762939453125</ele>
        <time>2019-07-11T15:55:32.000Z</time>
      </trkpt>
      <trkpt lat="43.5135688818991184234619140625" lon="-5.61493425630033016204833984375">
        <ele>44.40000152587890625</ele>
        <time>2019-07-11T15:55:43.000Z</time>
      </trkpt>
      <trkpt lat="43.51335757412016391754150390625" lon="-5.61417552642524242401123046875">
        <ele>46.200000762939453125</ele>
        <time>2019-07-11T15:55:45.000Z</time>
      </trkpt>
      <trkpt lat="43.5132555663585662841796875" lon="-5.61388869769871234893798828125">
        <ele>47.59999847412109375</ele>
        <time>2019-07-11T15:55:46.000Z</time>
      </trkpt>
      <trkpt lat="43.51303855888545513153076171875" lon="-5.6133265234529972076416015625">
        <ele>47.59999847412109375</ele>
        <time>2019-07-11T15:55:48.000Z</time>
      </trkpt>
      <trkpt lat="43.51280168630182743072509765625" lon="-5.612784884870052337646484375">
        <ele>46.200000762939453125</ele>
        <time>2019-07-11T15:55:50.000Z</time>
      </trkpt>
      <trkpt lat="43.51254100911319255828857421875" lon="-5.61225749552249908447265625">
        <ele>47.200000762939453125</ele>
        <time>2019-07-11T15:55:52.000Z</time>
      </trkpt>
      <trkpt lat="43.51225954480469226837158203125" lon="-5.61172432266175746917724609375">
        <ele>49.40000152587890625</ele>
        <time>2019-07-11T15:55:54.000Z</time>
      </trkpt>
      <trkpt lat="43.51196014322340488433837890625" lon="-5.6111596338450908660888671875">
        <ele>50.59999847412109375</ele>
        <time>2019-07-11T15:55:56.000Z</time>
      </trkpt>
      <trkpt lat="43.5116534493863582611083984375" lon="-5.61056896112859249114990234375">
        <ele>48.799999237060546875</ele>
        <time>2019-07-11T15:55:58.000Z</time>
      </trkpt>
      <trkpt lat="43.5114975459873676300048828125" lon="-5.6102584116160869598388671875">
        <ele>47.40000152587890625</ele>
        <time>2019-07-11T15:55:59.000Z</time>
      </trkpt>
      <trkpt lat="43.51134910248219966888427734375" lon="-5.609936378896236419677734375">
        <ele>45.799999237060546875</ele>
        <time>2019-07-11T15:56:00.000Z</time>
      </trkpt>
      <trkpt lat="43.511208035051822662353515625" lon="-5.6096036173403263092041015625">
        <ele>44</ele>
        <time>2019-07-11T15:56:01.000Z</time>
      </trkpt>
      <trkpt lat="43.511077947914600372314453125" lon="-5.60926037840545177459716796875">
        <ele>42.40000152587890625</ele>
        <time>2019-07-11T15:56:02.000Z</time>
      </trkpt>
      <trkpt lat="43.5108601860702037811279296875" lon="-5.6085481680929660797119140625">
        <ele>40.200000762939453125</ele>
        <time>2019-07-11T15:56:04.000Z</time>
      </trkpt>
      <trkpt lat="43.510775864124298095703125" lon="-5.60818464495241641998291015625">
        <ele>38.799999237060546875</ele>
        <time>2019-07-11T15:56:05.000Z</time>
      </trkpt>
      <trkpt lat="43.51065893657505512237548828125" lon="-5.6074543297290802001953125">
        <ele>38.59999847412109375</ele>
        <time>2019-07-11T15:56:07.000Z</time>
      </trkpt>
      <trkpt lat="43.51059422828257083892822265625" lon="-5.6067165546119213104248046875">
        <ele>41</ele>
        <time>2019-07-11T15:56:09.000Z</time>
      </trkpt>
      <trkpt lat="43.51058735512197017669677734375" lon="-5.60598514974117279052734375">
        <ele>42.200000762939453125</ele>
        <time>2019-07-11T15:56:11.000Z</time>
      </trkpt>
      <trkpt lat="43.51064418442547321319580078125" lon="-5.6052634678781032562255859375">
        <ele>43</ele>
        <time>2019-07-11T15:56:13.000Z</time>
      </trkpt>
      <trkpt lat="43.51069129072129726409912109375" lon="-5.60490715317428112030029296875">
        <ele>44.40000152587890625</ele>
        <time>2019-07-11T15:56:14.000Z</time>
      </trkpt>
      <trkpt lat="43.51074610836803913116455078125" lon="-5.60455310158431529998779296875">
        <ele>46</ele>
        <time>2019-07-11T15:56:15.000Z</time>
      </trkpt>
      <trkpt lat="43.5108062066137790679931640625" lon="-5.60420173220336437225341796875">
        <ele>48.200000762939453125</ele>
        <time>2019-07-11T15:56:16.000Z</time>
      </trkpt>
      <trkpt lat="43.51087099872529506683349609375" lon="-5.6038539670407772064208984375">
        <ele>49.59999847412109375</ele>
        <time>2019-07-11T15:56:17.000Z</time>
      </trkpt>
      <trkpt lat="43.5109372995793819427490234375" lon="-5.603507794439792633056640625">
        <ele>50.799999237060546875</ele>
        <time>2019-07-11T15:56:18.000Z</time>
      </trkpt>
      <trkpt lat="43.51100225932896137237548828125" lon="-5.60316212475299835205078125">
        <ele>52.200000762939453125</ele>
        <time>2019-07-11T15:56:19.000Z</time>
      </trkpt>
      <trkpt lat="43.51106311194598674774169921875" lon="-5.602813772857189178466796875">
        <ele>53.799999237060546875</ele>
        <time>2019-07-11T15:56:20.000Z</time>
      </trkpt>
      <trkpt lat="43.51111591793596744537353515625" lon="-5.60246349312365055084228515625">
        <ele>55</ele>
        <time>2019-07-11T15:56:21.000Z</time>
      </trkpt>
      <trkpt lat="43.511183895170688629150390625" lon="-5.6017519533634185791015625">
        <ele>56.40000152587890625</ele>
        <time>2019-07-11T15:56:23.000Z</time>
      </trkpt>
      <trkpt lat="43.51118816994130611419677734375" lon="-5.60103437863290309906005859375">
        <ele>57.59999847412109375</ele>
        <time>2019-07-11T15:56:25.000Z</time>
      </trkpt>
      <trkpt lat="43.51112564094364643096923828125" lon="-5.60031152330338954925537109375">
        <ele>58</ele>
        <time>2019-07-11T15:56:27.000Z</time>
      </trkpt>
      <trkpt lat="43.51099387742578983306884765625" lon="-5.599594451487064361572265625">
        <ele>58.799999237060546875</ele>
        <time>2019-07-11T15:56:29.000Z</time>
      </trkpt>
      <trkpt lat="43.51081098429858684539794921875" lon="-5.5989270843565464019775390625">
        <ele>60.799999237060546875</ele>
        <time>2019-07-11T15:56:31.000Z</time>
      </trkpt>
      <trkpt lat="43.510593809187412261962890625" lon="-5.59834948740899562835693359375">
        <ele>62.59999847412109375</ele>
        <time>2019-07-11T15:56:33.000Z</time>
      </trkpt>
      <trkpt lat="43.5104712657630443572998046875" lon="-5.59808998368680477142333984375">
        <ele>63.799999237060546875</ele>
        <time>2019-07-11T15:56:34.000Z</time>
      </trkpt>
      <trkpt lat="43.51033941842615604400634765625" lon="-5.59784003533422946929931640625">
        <ele>65.8000030517578125</ele>
        <time>2019-07-11T15:56:35.000Z</time>
      </trkpt>
      <trkpt lat="43.51020312868058681488037109375" lon="-5.59759293682873249053955078125">
        <ele>67.40000152587890625</ele>
        <time>2019-07-11T15:56:36.000Z</time>
      </trkpt>
      <trkpt lat="43.51006700657308101654052734375" lon="-5.59734650887548923492431640625">
        <ele>69</ele>
        <time>2019-07-11T15:56:37.000Z</time>
      </trkpt>
      <trkpt lat="43.50993172265589237213134765625" lon="-5.59709907509386539459228515625">
        <ele>70.8000030517578125</ele>
        <time>2019-07-11T15:56:38.000Z</time>
      </trkpt>
      <trkpt lat="43.50976274348795413970947265625" lon="-5.59690528549253940582275390625">
        <ele>72.40000152587890625</ele>
        <time>2019-07-11T15:56:39.000Z</time>
      </trkpt>
      <trkpt lat="43.50939276628196239471435546875" lon="-5.59654570184648036956787109375">
        <ele>73.59999847412109375</ele>
        <time>2019-07-11T15:56:41.000Z</time>
      </trkpt>
      <trkpt lat="43.5089977271854877471923828125" lon="-5.596219561994075775146484375">
        <ele>74.59999847412109375</ele>
        <time>2019-07-11T15:56:43.000Z</time>
      </trkpt>
      <trkpt lat="43.50878901779651641845703125" lon="-5.596073381602764129638671875">
        <ele>75.59999847412109375</ele>
        <time>2019-07-11T15:56:44.000Z</time>
      </trkpt>
      <trkpt lat="43.50857268087565898895263671875" lon="-5.59594036079943180084228515625">
        <ele>76.8000030517578125</ele>
        <time>2019-07-11T15:56:45.000Z</time>
      </trkpt>
      <trkpt lat="43.50835022516548633575439453125" lon="-5.595820248126983642578125">
        <ele>78</ele>
        <time>2019-07-11T15:56:46.000Z</time>
      </trkpt>
      <trkpt lat="43.5081256739795207977294921875" lon="-5.59571187011897563934326171875">
        <ele>79.40000152587890625</ele>
        <time>2019-07-11T15:56:47.000Z</time>
      </trkpt>
      <trkpt lat="43.50789944641292095184326171875" lon="-5.595611371099948883056640625">
        <ele>80.59999847412109375</ele>
        <time>2019-07-11T15:56:48.000Z</time>
      </trkpt>
      <trkpt lat="43.507673554122447967529296875" lon="-5.59551171027123928070068359375">
        <ele>81.8000030517578125</ele>
        <time>2019-07-11T15:56:49.000Z</time>
      </trkpt>
      <trkpt lat="43.507220931351184844970703125" lon="-5.595306269824504852294921875">
        <ele>82.59999847412109375</ele>
        <time>2019-07-11T15:56:51.000Z</time>
      </trkpt>
      <trkpt lat="43.5069944523274898529052734375" lon="-5.59519420377910137176513671875">
        <ele>82.8000030517578125</ele>
        <time>2019-07-11T15:56:52.000Z</time>
      </trkpt>
      <trkpt lat="43.50654761306941509246826171875" lon="-5.5949376337230205535888671875">
        <ele>84.8000030517578125</ele>
        <time>2019-07-11T15:56:54.000Z</time>
      </trkpt>
      <trkpt lat="43.5061032883822917938232421875" lon="-5.594614930450916290283203125">
        <ele>86</ele>
        <time>2019-07-11T15:56:56.000Z</time>
      </trkpt>
      <trkpt lat="43.5056694410741329193115234375" lon="-5.594239421188831329345703125">
        <ele>87.40000152587890625</ele>
        <time>2019-07-11T15:56:58.000Z</time>
      </trkpt>
      <trkpt lat="43.50526057183742523193359375" lon="-5.59380666352808475494384765625">
        <ele>87.59999847412109375</ele>
        <time>2019-07-11T15:57:00.000Z</time>
      </trkpt>
      <trkpt lat="43.50488430820405483245849609375" lon="-5.5933262966573238372802734375">
        <ele>88.1999969482421875</ele>
        <time>2019-07-11T15:57:02.000Z</time>
      </trkpt>
      <trkpt lat="43.504543416202068328857421875" lon="-5.59280301444232463836669921875">
        <ele>89.8000030517578125</ele>
        <time>2019-07-11T15:57:04.000Z</time>
      </trkpt>
      <trkpt lat="43.50439229048788547515869140625" lon="-5.592530183494091033935546875">
        <ele>91.59999847412109375</ele>
        <time>2019-07-11T15:57:05.000Z</time>
      </trkpt>
      <trkpt lat="43.504251725971698760986328125" lon="-5.5922515690326690673828125">
        <ele>93.40000152587890625</ele>
        <time>2019-07-11T15:57:06.000Z</time>
      </trkpt>
      <trkpt lat="43.50412172265350818634033203125" lon="-5.59196817688643932342529296875">
        <ele>94.40000152587890625</ele>
        <time>2019-07-11T15:57:07.000Z</time>
      </trkpt>
      <trkpt lat="43.50400102324783802032470703125" lon="-5.5916810967028141021728515625">
        <ele>95.59999847412109375</ele>
        <time>2019-07-11T15:57:08.000Z</time>
      </trkpt>
      <trkpt lat="43.50378678180277347564697265625" lon="-5.59109863825142383575439453125">
        <ele>97</ele>
        <time>2019-07-11T15:57:10.000Z</time>
      </trkpt>
      <trkpt lat="43.5036953352391719818115234375" lon="-5.59081147424876689910888671875">
        <ele>98.59999847412109375</ele>
        <time>2019-07-11T15:57:11.000Z</time>
      </trkpt>
      <trkpt lat="43.50361679680645465850830078125" lon="-5.59053218923509120941162109375">
        <ele>100.1999969482421875</ele>
        <time>2019-07-11T15:57:12.000Z</time>
      </trkpt>
      <trkpt lat="43.50354974158108234405517578125" lon="-5.59026782400906085968017578125">
        <ele>102.59999847412109375</ele>
        <time>2019-07-11T15:57:13.000Z</time>
      </trkpt>
      <trkpt lat="43.5034948401153087615966796875" lon="-5.59001703746616840362548828125">
        <ele>105.8000030517578125</ele>
        <time>2019-07-11T15:57:14.000Z</time>
      </trkpt>
      <trkpt lat="43.503449745476245880126953125" lon="-5.5897706933319568634033203125">
        <ele>109</ele>
        <time>2019-07-11T15:57:15.000Z</time>
      </trkpt>
      <trkpt lat="43.50341378711163997650146484375" lon="-5.58952032588422298431396484375">
        <ele>111.8000030517578125</ele>
        <time>2019-07-11T15:57:16.000Z</time>
      </trkpt>
      <trkpt lat="43.50338344462215900421142578125" lon="-5.58925797231495380401611328125">
        <ele>114.59999847412109375</ele>
        <time>2019-07-11T15:57:17.000Z</time>
      </trkpt>
      <trkpt lat="43.5033557005226612091064453125" lon="-5.58897701092064380645751953125">
        <ele>116.40000152587890625</ele>
        <time>2019-07-11T15:57:18.000Z</time>
      </trkpt>
      <trkpt lat="43.50331421010196208953857421875" lon="-5.5884031020104885101318359375">
        <ele>118.59999847412109375</ele>
        <time>2019-07-11T15:57:20.000Z</time>
      </trkpt>
      <trkpt lat="43.50330566056072711944580078125" lon="-5.588123984634876251220703125">
        <ele>119.8000030517578125</ele>
        <time>2019-07-11T15:57:21.000Z</time>
      </trkpt>
      <trkpt lat="43.50331236608326435089111328125" lon="-5.5875518359243869781494140625">
        <ele>120.8000030517578125</ele>
        <time>2019-07-11T15:57:23.000Z</time>
      </trkpt>
      <trkpt lat="43.50338076241314411163330078125" lon="-5.586677603423595428466796875">
        <ele>122.8000030517578125</ele>
        <time>2019-07-11T15:57:26.000Z</time>
      </trkpt>
      <trkpt lat="43.5034210793673992156982421875" lon="-5.586381219327449798583984375">
        <ele>126.8000030517578125</ele>
        <time>2019-07-11T15:57:27.000Z</time>
      </trkpt>
      <trkpt lat="43.5034707002341747283935546875" lon="-5.586086846888065338134765625">
        <ele>131.8000030517578125</ele>
        <time>2019-07-11T15:57:28.000Z</time>
      </trkpt>
      <trkpt lat="43.503516800701618194580078125" lon="-5.5857906304299831390380859375">
        <ele>134.600006103515625</ele>
        <time>2019-07-11T15:57:29.000Z</time>
      </trkpt>
      <trkpt lat="43.50356549955904483795166015625" lon="-5.58549701236188411712646484375">
        <ele>136.399993896484375</ele>
        <time>2019-07-11T15:57:30.000Z</time>
      </trkpt>
      <trkpt lat="43.50366440601646900177001953125" lon="-5.5849118717014789581298828125">
        <ele>135.1999969482421875</ele>
        <time>2019-07-11T15:57:32.000Z</time>
      </trkpt>
      <trkpt lat="43.5037141107022762298583984375" lon="-5.58461892418563365936279296875">
        <ele>133</ele>
        <time>2019-07-11T15:57:33.000Z</time>
      </trkpt>
      <trkpt lat="43.50375987589359283447265625" lon="-5.58431549929082393646240234375">
        <ele>132</ele>
        <time>2019-07-11T15:57:34.000Z</time>
      </trkpt>
      <trkpt lat="43.50384059362113475799560546875" lon="-5.58368618600070476531982421875">
        <ele>131.399993896484375</ele>
        <time>2019-07-11T15:57:36.000Z</time>
      </trkpt>
      <trkpt lat="43.50389541126787662506103515625" lon="-5.582964420318603515625">
        <ele>132.600006103515625</ele>
        <time>2019-07-11T15:57:38.000Z</time>
      </trkpt>
      <trkpt lat="43.5075406171381473541259765625" lon="-5.57856568135321140289306640625">
        <ele>144.1999969482421875</ele>
        <time>2019-07-11T15:58:03.000Z</time>
      </trkpt>
      <trkpt lat="43.507755696773529052734375" lon="-5.57845168747007846832275390625">
        <ele>143.8000030517578125</ele>
        <time>2019-07-11T15:58:04.000Z</time>
      </trkpt>
      <trkpt lat="43.50820085965096950531005859375" lon="-5.5781788565218448638916015625">
        <ele>141.600006103515625</ele>
        <time>2019-07-11T15:58:06.000Z</time>
      </trkpt>
      <trkpt lat="43.50865893065929412841796875" lon="-5.57791608385741710662841796875">
        <ele>140.8000030517578125</ele>
        <time>2019-07-11T15:58:08.000Z</time>
      </trkpt>
      <trkpt lat="43.50912001915276050567626953125" lon="-5.57766110636293888092041015625">
        <ele>141</ele>
        <time>2019-07-11T15:58:10.000Z</time>
      </trkpt>
      <trkpt lat="43.50959091447293758392333984375" lon="-5.57737410999834537506103515625">
        <ele>141.600006103515625</ele>
        <time>2019-07-11T15:58:12.000Z</time>
      </trkpt>
      <trkpt lat="43.51003783755004405975341796875" lon="-5.5770198069512844085693359375">
        <ele>141.1999969482421875</ele>
        <time>2019-07-11T15:58:14.000Z</time>
      </trkpt>
      <trkpt lat="43.51044536568224430084228515625" lon="-5.5765987001359462738037109375">
        <ele>140.8000030517578125</ele>
        <time>2019-07-11T15:58:16.000Z</time>
      </trkpt>
      <trkpt lat="43.51082439534366130828857421875" lon="-5.576111711561679840087890625">
        <ele>140.8000030517578125</ele>
        <time>2019-07-11T15:58:18.000Z</time>
      </trkpt>
      <trkpt lat="43.5110051929950714111328125" lon="-5.57584114372730255126953125">
        <ele>140.600006103515625</ele>
        <time>2019-07-11T15:58:19.000Z</time>
      </trkpt>
      <trkpt lat="43.5113456659018993377685546875" lon="-5.5752597749233245849609375">
        <ele>140.600006103515625</ele>
        <time>2019-07-11T15:58:21.000Z</time>
      </trkpt>
      <trkpt lat="43.511639535427093505859375" lon="-5.5746131949126720428466796875">
        <ele>140.600006103515625</ele>
        <time>2019-07-11T15:58:23.000Z</time>
      </trkpt>
      <trkpt lat="43.511873222887516021728515625" lon="-5.57391875423491001129150390625">
        <ele>140</ele>
        <time>2019-07-11T15:58:25.000Z</time>
      </trkpt>
      <trkpt lat="43.51206055842339992523193359375" lon="-5.57319707237184047698974609375">
        <ele>140.399993896484375</ele>
        <time>2019-07-11T15:58:27.000Z</time>
      </trkpt>
      <trkpt lat="43.51223020814359188079833984375" lon="-5.57246625423431396484375">
        <ele>140.1999969482421875</ele>
        <time>2019-07-11T15:58:29.000Z</time>
      </trkpt>
      <trkpt lat="43.51237437687814235687255859375" lon="-5.571718253195285797119140625">
        <ele>142</ele>
        <time>2019-07-11T15:58:31.000Z</time>
      </trkpt>
      <trkpt lat="43.51243372075259685516357421875" lon="-5.57134081609547138214111328125">
        <ele>143.399993896484375</ele>
        <time>2019-07-11T15:58:32.000Z</time>
      </trkpt>
      <trkpt lat="43.512519299983978271484375" lon="-5.5705828405916690826416015625">
        <ele>143.600006103515625</ele>
        <time>2019-07-11T15:58:34.000Z</time>
      </trkpt>
      <trkpt lat="43.512572608888149261474609375" lon="-5.5698334984481334686279296875">
        <ele>146.1999969482421875</ele>
        <time>2019-07-11T15:58:36.000Z</time>
      </trkpt>
      <trkpt lat="43.51260135881602764129638671875" lon="-5.56909429840743541717529296875">
        <ele>145.399993896484375</ele>
        <time>2019-07-11T15:58:38.000Z</time>
      </trkpt>
      <trkpt lat="43.5125955753028392791748046875" lon="-5.56836741976439952850341796875">
        <ele>145.1999969482421875</ele>
        <time>2019-07-11T15:58:40.000Z</time>
      </trkpt>
      <trkpt lat="43.51253748871386051177978515625" lon="-5.56764489971101284027099609375">
        <ele>146.399993896484375</ele>
        <time>2019-07-11T15:58:42.000Z</time>
      </trkpt>
      <trkpt lat="43.51242475211620330810546875" lon="-5.56692757643759250640869140625">
        <ele>145.600006103515625</ele>
        <time>2019-07-11T15:58:44.000Z</time>
      </trkpt>
      <trkpt lat="43.51225418038666248321533203125" lon="-5.56622408330440521240234375">
        <ele>147.399993896484375</ele>
        <time>2019-07-11T15:58:46.000Z</time>
      </trkpt>
      <trkpt lat="43.51202887482941150665283203125" lon="-5.56552612222731113433837890625">
        <ele>148</ele>
        <time>2019-07-11T15:58:48.000Z</time>
      </trkpt>
      <trkpt lat="43.51174883544445037841796875" lon="-5.56483293883502483367919921875">
        <ele>146.1999969482421875</ele>
        <time>2019-07-11T15:58:50.000Z</time>
      </trkpt>
      <trkpt lat="43.51158865727484226226806640625" lon="-5.564498417079448699951171875">
        <ele>145</ele>
        <time>2019-07-11T15:58:51.000Z</time>
      </trkpt>
      <trkpt lat="43.5114194266498088836669921875" lon="-5.56417487561702728271484375">
        <ele>143.600006103515625</ele>
        <time>2019-07-11T15:58:52.000Z</time>
      </trkpt>
      <trkpt lat="43.51107702590525150299072265625" lon="-5.56354799307882785797119140625">
        <ele>144</ele>
        <time>2019-07-11T15:58:54.000Z</time>
      </trkpt>
      <trkpt lat="43.51090704090893268585205078125" lon="-5.56323702447116374969482421875">
        <ele>144.600006103515625</ele>
        <time>2019-07-11T15:58:55.000Z</time>
      </trkpt>
      <trkpt lat="43.51073806174099445343017578125" lon="-5.5629241280257701873779296875">
        <ele>147.1999969482421875</ele>
        <time>2019-07-11T15:58:56.000Z</time>
      </trkpt>
      <trkpt lat="43.51057092659175395965576171875" lon="-5.56261223740875720977783203125">
        <ele>150.600006103515625</ele>
        <time>2019-07-11T15:58:57.000Z</time>
      </trkpt>
      <trkpt lat="43.51040496490895748138427734375" lon="-5.562303029000759124755859375">
        <ele>153</ele>
        <time>2019-07-11T15:58:58.000Z</time>
      </trkpt>
      <trkpt lat="43.510239422321319580078125" lon="-5.56199734099209308624267578125">
        <ele>154.1999969482421875</ele>
        <time>2019-07-11T15:58:59.000Z</time>
      </trkpt>
      <trkpt lat="43.50991194136440753936767578125" lon="-5.56140205822885036468505859375">
        <ele>155</ele>
        <time>2019-07-11T15:59:01.000Z</time>
      </trkpt>
      <trkpt lat="43.50975285284221172332763671875" lon="-5.56110768578946590423583984375">
        <ele>155.600006103515625</ele>
        <time>2019-07-11T15:59:02.000Z</time>
      </trkpt>
      <trkpt lat="43.50959904491901397705078125" lon="-5.56080878712236881256103515625">
        <ele>156.8000030517578125</ele>
        <time>2019-07-11T15:59:03.000Z</time>
      </trkpt>
      <trkpt lat="43.50930592976510524749755859375" lon="-5.56017025373876094818115234375">
        <ele>160.1999969482421875</ele>
        <time>2019-07-11T15:59:05.000Z</time>
      </trkpt>
      <trkpt lat="43.50916586816310882568359375" lon="-5.55983128957450389862060546875">
        <ele>161.600006103515625</ele>
        <time>2019-07-11T15:59:06.000Z</time>
      </trkpt>
      <trkpt lat="43.50903284735977649688720703125" lon="-5.559486038982868194580078125">
        <ele>164.1999969482421875</ele>
        <time>2019-07-11T15:59:07.000Z</time>
      </trkpt>
      <trkpt lat="43.50890594534575939178466796875" lon="-5.55913609452545642852783203125">
        <ele>166.399993896484375</ele>
        <time>2019-07-11T15:59:08.000Z</time>
      </trkpt>
      <trkpt lat="43.50878507830202579498291015625" lon="-5.55877852253615856170654296875">
        <ele>167.399993896484375</ele>
        <time>2019-07-11T15:59:09.000Z</time>
      </trkpt>
      <trkpt lat="43.5085699148476123809814453125" lon="-5.5580555833876132965087890625">
        <ele>166.1999969482421875</ele>
        <time>2019-07-11T15:59:11.000Z</time>
      </trkpt>
      <trkpt lat="43.508391045033931732177734375" lon="-5.557319484651088714599609375">
        <ele>165.399993896484375</ele>
        <time>2019-07-11T15:59:13.000Z</time>
      </trkpt>
      <trkpt lat="43.5082383267581462860107421875" lon="-5.55656678974628448486328125">
        <ele>165.600006103515625</ele>
        <time>2019-07-11T15:59:15.000Z</time>
      </trkpt>
      <trkpt lat="43.50812123157083988189697265625" lon="-5.555792637169361114501953125">
        <ele>165.8000030517578125</ele>
        <time>2019-07-11T15:59:17.000Z</time>
      </trkpt>
      <trkpt lat="43.5080401785671710968017578125" lon="-5.55499644018709659576416015625">
        <ele>167.600006103515625</ele>
        <time>2019-07-11T15:59:19.000Z</time>
      </trkpt>
      <trkpt lat="43.50800187326967716217041015625" lon="-5.55417752824723720550537109375">
        <ele>167.1999969482421875</ele>
        <time>2019-07-11T15:59:21.000Z</time>
      </trkpt>
      <trkpt lat="43.50801478140056133270263671875" lon="-5.55334973149001598358154296875">
        <ele>166.8000030517578125</ele>
        <time>2019-07-11T15:59:23.000Z</time>
      </trkpt>
      <trkpt lat="43.50803665816783905029296875" lon="-5.552937425673007965087890625">
        <ele>166.1999969482421875</ele>
        <time>2019-07-11T15:59:24.000Z</time>
      </trkpt>
      <trkpt lat="43.5080901347100734710693359375" lon="-5.55211926810443401336669921875">
        <ele>164.8000030517578125</ele>
        <time>2019-07-11T15:59:26.000Z</time>
      </trkpt>
      <trkpt lat="43.508136905729770660400390625" lon="-5.5513034574687480926513671875">
        <ele>163.600006103515625</ele>
        <time>2019-07-11T15:59:28.000Z</time>
      </trkpt>
      <trkpt lat="43.50813330151140689849853515625" lon="-5.55048043839633464813232421875">
        <ele>164</ele>
        <time>2019-07-11T15:59:30.000Z</time>
      </trkpt>
      <trkpt lat="43.50810765288770198822021484375" lon="-5.55006855167448520660400390625">
        <ele>165.1999969482421875</ele>
        <time>2019-07-11T15:59:31.000Z</time>
      </trkpt>
      <trkpt lat="43.50801008753478527069091796875" lon="-5.54924746043980121612548828125">
        <ele>166</ele>
        <time>2019-07-11T15:59:33.000Z</time>
      </trkpt>
      <trkpt lat="43.50793934427201747894287109375" lon="-5.5488421954214572906494140625">
        <ele>166.399993896484375</ele>
        <time>2019-07-11T15:59:34.000Z</time>
      </trkpt>
      <trkpt lat="43.507749326527118682861328125" lon="-5.54804247803986072540283203125">
        <ele>167.1999969482421875</ele>
        <time>2019-07-11T15:59:36.000Z</time>
      </trkpt>
      <trkpt lat="43.50762871094048023223876953125" lon="-5.5476536415517330169677734375">
        <ele>167.8000030517578125</ele>
        <time>2019-07-11T15:59:37.000Z</time>
      </trkpt>
      <trkpt lat="43.5073387809097766876220703125" lon="-5.546900443732738494873046875">
        <ele>167.600006103515625</ele>
        <time>2019-07-11T15:59:39.000Z</time>
      </trkpt>
      <trkpt lat="43.50699034519493579864501953125" lon="-5.5461884848773479461669921875">
        <ele>166.600006103515625</ele>
        <time>2019-07-11T15:59:41.000Z</time>
      </trkpt>
      <trkpt lat="43.50658130832016468048095703125" lon="-5.54552908055484294891357421875">
        <ele>165.399993896484375</ele>
        <time>2019-07-11T15:59:43.000Z</time>
      </trkpt>
      <trkpt lat="43.50635533221065998077392578125" lon="-5.5452295951545238494873046875">
        <ele>164</ele>
        <time>2019-07-11T15:59:44.000Z</time>
      </trkpt>
      <trkpt lat="43.5061180405318737030029296875" lon="-5.54495089687407016754150390625">
        <ele>162.8000030517578125</ele>
        <time>2019-07-11T15:59:45.000Z</time>
      </trkpt>
      <trkpt lat="43.5056219995021820068359375" lon="-5.544434152543544769287109375">
        <ele>162.600006103515625</ele>
        <time>2019-07-11T15:59:47.000Z</time>
      </trkpt>
      <trkpt lat="43.50509771145880222320556640625" lon="-5.54397440515458583831787109375">
        <ele>162.600006103515625</ele>
        <time>2019-07-11T15:59:49.000Z</time>
      </trkpt>
      <trkpt lat="43.50454869680106639862060546875" lon="-5.5435911007225513458251953125">
        <ele>161.600006103515625</ele>
        <time>2019-07-11T15:59:51.000Z</time>
      </trkpt>
      <trkpt lat="43.5040205530822277069091796875" lon="-5.54324065335094928741455078125">
        <ele>163.600006103515625</ele>
        <time>2019-07-11T15:59:53.000Z</time>
      </trkpt>
      <trkpt lat="43.50350699387490749359130859375" lon="-5.5428943969309329986572265625">
        <ele>165.1999969482421875</ele>
        <time>2019-07-11T15:59:55.000Z</time>
      </trkpt>
      <trkpt lat="43.5032524354755878448486328125" lon="-5.54271812550723552703857421875">
        <ele>166.8000030517578125</ele>
        <time>2019-07-11T15:59:56.000Z</time>
      </trkpt>
      <trkpt lat="43.50274742580950260162353515625" lon="-5.5423499085009098052978515625">
        <ele>168</ele>
        <time>2019-07-11T15:59:58.000Z</time>
      </trkpt>
      <trkpt lat="43.5022546537220478057861328125" lon="-5.54195403121411800384521484375">
        <ele>166</ele>
        <time>2019-07-11T16:00:00.000Z</time>
      </trkpt>
      <trkpt lat="43.50202155299484729766845703125" lon="-5.54175437428057193756103515625">
        <ele>163.399993896484375</ele>
        <time>2019-07-11T16:00:01.000Z</time>
      </trkpt>
      <trkpt lat="43.5017998516559600830078125" lon="-5.54155580699443817138671875">
        <ele>162</ele>
        <time>2019-07-11T16:00:02.000Z</time>
      </trkpt>
      <trkpt lat="43.5015871189534664154052734375" lon="-5.54135723970830440521240234375">
        <ele>160.1999969482421875</ele>
        <time>2019-07-11T16:00:03.000Z</time>
      </trkpt>
      <trkpt lat="43.5011693648993968963623046875" lon="-5.54093948565423488616943359375">
        <ele>158</ele>
        <time>2019-07-11T16:00:05.000Z</time>
      </trkpt>
      <trkpt lat="43.50096174515783786773681640625" lon="-5.540717951953411102294921875">
        <ele>156</ele>
        <time>2019-07-11T16:00:06.000Z</time>
      </trkpt>
      <trkpt lat="43.50075588561594486236572265625" lon="-5.54048686288297176361083984375">
        <ele>155</ele>
        <time>2019-07-11T16:00:07.000Z</time>
      </trkpt>
      <trkpt lat="43.500551618635654449462890625" lon="-5.5402487330138683319091796875">
        <ele>153.399993896484375</ele>
        <time>2019-07-11T16:00:08.000Z</time>
      </trkpt>
      <trkpt lat="43.50035120733082294464111328125" lon="-5.540008842945098876953125">
        <ele>151.399993896484375</ele>
        <time>2019-07-11T16:00:09.000Z</time>
      </trkpt>
      <trkpt lat="43.500155322253704071044921875" lon="-5.539765097200870513916015625">
        <ele>149.8000030517578125</ele>
        <time>2019-07-11T16:00:10.000Z</time>
      </trkpt>
      <trkpt lat="43.4999640472233295440673828125" lon="-5.5395195074379444122314453125">
        <ele>148.600006103515625</ele>
        <time>2019-07-11T16:00:11.000Z</time>
      </trkpt>
      <trkpt lat="43.49959784187376499176025390625" lon="-5.53901298902928829193115234375">
        <ele>147.8000030517578125</ele>
        <time>2019-07-11T16:00:13.000Z</time>
      </trkpt>
      <trkpt lat="43.49924982525408267974853515625" lon="-5.53849012590944766998291015625">
        <ele>148.1999969482421875</ele>
        <time>2019-07-11T16:00:15.000Z</time>
      </trkpt>
      <trkpt lat="43.498910106718540191650390625" lon="-5.5379530973732471466064453125">
        <ele>149.399993896484375</ele>
        <time>2019-07-11T16:00:17.000Z</time>
      </trkpt>
      <trkpt lat="43.4987483359873294830322265625" lon="-5.53767825476825237274169921875">
        <ele>150.600006103515625</ele>
        <time>2019-07-11T16:00:18.000Z</time>
      </trkpt>
      <trkpt lat="43.4984432347118854522705078125" lon="-5.53713728673756122589111328125">
        <ele>151.399993896484375</ele>
        <time>2019-07-11T16:00:20.000Z</time>
      </trkpt>
      <trkpt lat="43.49829495884478092193603515625" lon="-5.536871664226055145263671875">
        <ele>152.1999969482421875</ele>
        <time>2019-07-11T16:00:21.000Z</time>
      </trkpt>
      <trkpt lat="43.49814726971089839935302734375" lon="-5.53660939447581768035888671875">
        <ele>153.1999969482421875</ele>
        <time>2019-07-11T16:00:22.000Z</time>
      </trkpt>
      <trkpt lat="43.49799974821507930755615234375" lon="-5.53634804673492908477783203125">
        <ele>154.399993896484375</ele>
        <time>2019-07-11T16:00:23.000Z</time>
      </trkpt>
      <trkpt lat="43.49770520813763141632080078125" lon="-5.535834319889545440673828125">
        <ele>156</ele>
        <time>2019-07-11T16:00:25.000Z</time>
      </trkpt>
      <trkpt lat="43.4975554235279560089111328125" lon="-5.53558546118438243865966796875">
        <ele>159.600006103515625</ele>
        <time>2019-07-11T16:00:26.000Z</time>
      </trkpt>
      <trkpt lat="43.497403375804424285888671875" lon="-5.535343475639820098876953125">
        <ele>161.399993896484375</ele>
        <time>2019-07-11T16:00:27.000Z</time>
      </trkpt>
      <trkpt lat="43.49724872969090938568115234375" lon="-5.53510903380811214447021484375">
        <ele>163.1999969482421875</ele>
        <time>2019-07-11T16:00:28.000Z</time>
      </trkpt>
      <trkpt lat="43.496917895972728729248046875" lon="-5.5346533097326755523681640625">
        <ele>162.399993896484375</ele>
        <time>2019-07-11T16:00:30.000Z</time>
      </trkpt>
      <trkpt lat="43.4967376850545406341552734375" lon="-5.53443160839378833770751953125">
        <ele>162</ele>
        <time>2019-07-11T16:00:31.000Z</time>
      </trkpt>
      <trkpt lat="43.496340215206146240234375" lon="-5.53400379605591297149658203125">
        <ele>160.600006103515625</ele>
        <time>2019-07-11T16:00:33.000Z</time>
      </trkpt>
      <trkpt lat="43.49590301513671875" lon="-5.5336085893213748931884765625">
        <ele>160.399993896484375</ele>
        <time>2019-07-11T16:00:35.000Z</time>
      </trkpt>
      <trkpt lat="43.49544226191937923431396484375" lon="-5.5332676135003566741943359375">
        <ele>160.600006103515625</ele>
        <time>2019-07-11T16:00:37.000Z</time>
      </trkpt>
      <trkpt lat="43.494967930018901824951171875" lon="-5.53298757411539554595947265625">
        <ele>161</ele>
        <time>2019-07-11T16:00:39.000Z</time>
      </trkpt>
      <trkpt lat="43.49449376575648784637451171875" lon="-5.53278096020221710205078125">
        <ele>162</ele>
        <time>2019-07-11T16:00:41.000Z</time>
      </trkpt>
      <trkpt lat="43.49401398561894893646240234375" lon="-5.5326151661574840545654296875">
        <ele>163.600006103515625</ele>
        <time>2019-07-11T16:00:43.000Z</time>
      </trkpt>
      <trkpt lat="43.4937792085111141204833984375" lon="-5.53253998048603534698486328125">
        <ele>164.600006103515625</ele>
        <time>2019-07-11T16:00:44.000Z</time>
      </trkpt>
      <trkpt lat="43.49355298094451427459716796875" lon="-5.53246873430907726287841796875">
        <ele>165.600006103515625</ele>
        <time>2019-07-11T16:00:45.000Z</time>
      </trkpt>
      <trkpt lat="43.4933346323668956756591796875" lon="-5.5323994159698486328125">
        <ele>167</ele>
        <time>2019-07-11T16:00:46.000Z</time>
      </trkpt>
      <trkpt lat="43.4931203909218311309814453125" lon="-5.5323315225541591644287109375">
        <ele>168.600006103515625</ele>
        <time>2019-07-11T16:00:47.000Z</time>
      </trkpt>
      <trkpt lat="43.49269970320165157318115234375" lon="-5.53218844346702098846435546875">
        <ele>171.600006103515625</ele>
        <time>2019-07-11T16:00:49.000Z</time>
      </trkpt>
      <trkpt lat="43.49249166436493396759033203125" lon="-5.53211443126201629638671875">
        <ele>173.8000030517578125</ele>
        <time>2019-07-11T16:00:50.000Z</time>
      </trkpt>
      <trkpt lat="43.4922808595001697540283203125" lon="-5.5320381559431552886962890625">
        <ele>175</ele>
        <time>2019-07-11T16:00:51.000Z</time>
      </trkpt>
      <trkpt lat="43.49206603132188320159912109375" lon="-5.53195844404399394989013671875">
        <ele>176.399993896484375</ele>
        <time>2019-07-11T16:00:52.000Z</time>
      </trkpt>
      <trkpt lat="43.49162396974861621856689453125" lon="-5.53179793059825897216796875">
        <ele>177.399993896484375</ele>
        <time>2019-07-11T16:00:54.000Z</time>
      </trkpt>
      <trkpt lat="43.491408638656139373779296875" lon="-5.5317434482276439666748046875">
        <ele>177.8000030517578125</ele>
        <time>2019-07-11T16:00:55.000Z</time>
      </trkpt>
      <trkpt lat="43.48185000009834766387939453125" lon="-5.5283762700855731964111328125">
        <ele>167.600006103515625</ele>
        <time>2019-07-11T16:01:36.000Z</time>
      </trkpt>
      <trkpt lat="43.48143450915813446044921875" lon="-5.52816663868725299835205078125">
        <ele>167.600006103515625</ele>
        <time>2019-07-11T16:01:38.000Z</time>
      </trkpt>
      <trkpt lat="43.48100091330707073211669921875" lon="-5.52799279801547527313232421875">
        <ele>165.600006103515625</ele>
        <time>2019-07-11T16:01:40.000Z</time>
      </trkpt>
      <trkpt lat="43.4805415011942386627197265625" lon="-5.5277985893189907073974609375">
        <ele>163.8000030517578125</ele>
        <time>2019-07-11T16:01:42.000Z</time>
      </trkpt>
      <trkpt lat="43.4799004532396793365478515625" lon="-5.5275313742458820343017578125">
        <ele>162.8000030517578125</ele>
        <time>2019-07-11T16:01:45.000Z</time>
      </trkpt>
      <trkpt lat="43.4794686175882816314697265625" lon="-5.527354516088962554931640625">
        <ele>165</ele>
        <time>2019-07-11T16:01:47.000Z</time>
      </trkpt>
      <trkpt lat="43.4790351055562496185302734375" lon="-5.52716684527695178985595703125">
        <ele>166.1999969482421875</ele>
        <time>2019-07-11T16:01:49.000Z</time>
      </trkpt>
      <trkpt lat="43.4786029346287250518798828125" lon="-5.52698680199682712554931640625">
        <ele>165.399993896484375</ele>
        <time>2019-07-11T16:01:51.000Z</time>
      </trkpt>
      <trkpt lat="43.478389866650104522705078125" lon="-5.5268987081944942474365234375">
        <ele>165.1999969482421875</ele>
        <time>2019-07-11T16:01:52.000Z</time>
      </trkpt>
      <trkpt lat="43.46267941407859325408935546875" lon="-5.51367935724556446075439453125">
        <ele>149</ele>
        <time>2019-07-11T16:03:17.000Z</time>
      </trkpt>
      <trkpt lat="43.46265292726457118988037109375" lon="-5.5133874155580997467041015625">
        <ele>148.600006103515625</ele>
        <time>2019-07-11T16:03:18.000Z</time>
      </trkpt>
      <trkpt lat="43.4626146219670772552490234375" lon="-5.51276036538183689117431640625">
        <ele>148.8000030517578125</ele>
        <time>2019-07-11T16:03:20.000Z</time>
      </trkpt>
      <trkpt lat="43.4626199863851070404052734375" lon="-5.51203214563429355621337890625">
        <ele>147.1999969482421875</ele>
        <time>2019-07-11T16:03:22.000Z</time>
      </trkpt>
      <trkpt lat="43.46264353953301906585693359375" lon="-5.51164942793548107147216796875">
        <ele>145</ele>
        <time>2019-07-11T16:03:23.000Z</time>
      </trkpt>
      <trkpt lat="43.4626783244311809539794921875" lon="-5.51125086843967437744140625">
        <ele>141.1999969482421875</ele>
        <time>2019-07-11T16:03:24.000Z</time>
      </trkpt>
      <trkpt lat="43.462719060480594635009765625" lon="-5.5108465254306793212890625">
        <ele>136.8000030517578125</ele>
        <time>2019-07-11T16:03:25.000Z</time>
      </trkpt>
      <trkpt lat="43.46276541240513324737548828125" lon="-5.5104426853358745574951171875">
        <ele>131.600006103515625</ele>
        <time>2019-07-11T16:03:26.000Z</time>
      </trkpt>
      <trkpt lat="43.46282358281314373016357421875" lon="-5.5100500769913196563720703125">
        <ele>125.59999847412109375</ele>
        <time>2019-07-11T16:03:27.000Z</time>
      </trkpt>
      <trkpt lat="43.46289281733334064483642578125" lon="-5.50966677255928516387939453125">
        <ele>120.40000152587890625</ele>
        <time>2019-07-11T16:03:28.000Z</time>
      </trkpt>
      <trkpt lat="43.4629700146615505218505859375" lon="-5.50929478369653224945068359375">
        <ele>117.59999847412109375</ele>
        <time>2019-07-11T16:03:29.000Z</time>
      </trkpt>
      <trkpt lat="43.46305668354034423828125" lon="-5.5089326016604900360107421875">
        <ele>115.59999847412109375</ele>
        <time>2019-07-11T16:03:30.000Z</time>
      </trkpt>
      <trkpt lat="43.46315257251262664794921875" lon="-5.508579723536968231201171875">
        <ele>114.59999847412109375</ele>
        <time>2019-07-11T16:03:31.000Z</time>
      </trkpt>
      <trkpt lat="43.46325776539742946624755859375" lon="-5.5082332156598567962646484375">
        <ele>115.8000030517578125</ele>
        <time>2019-07-11T16:03:32.000Z</time>
      </trkpt>
      <trkpt lat="43.46337075345218181610107421875" lon="-5.50789081491529941558837890625">
        <ele>119.1999969482421875</ele>
        <time>2019-07-11T16:03:33.000Z</time>
      </trkpt>
      <trkpt lat="43.46348927356302738189697265625" lon="-5.507554449141025543212890625">
        <ele>123.8000030517578125</ele>
        <time>2019-07-11T16:03:34.000Z</time>
      </trkpt>
      <trkpt lat="43.463626988232135772705078125" lon="-5.50722747109830379486083984375">
        <ele>128.600006103515625</ele>
        <time>2019-07-11T16:03:35.000Z</time>
      </trkpt>
      <trkpt lat="43.46377023495733737945556640625" lon="-5.506905354559421539306640625">
        <ele>134.600006103515625</ele>
        <time>2019-07-11T16:03:36.000Z</time>
      </trkpt>
      <trkpt lat="43.4639163315296173095703125" lon="-5.5065860040485858917236328125">
        <ele>140.600006103515625</ele>
        <time>2019-07-11T16:03:37.000Z</time>
      </trkpt>
      <trkpt lat="43.46406678669154644012451171875" lon="-5.50627327524125576019287109375">
        <ele>146.1999969482421875</ele>
        <time>2019-07-11T16:03:38.000Z</time>
      </trkpt>
      <trkpt lat="43.46421875059604644775390625" lon="-5.50597219727933406829833984375">
        <ele>148.8000030517578125</ele>
        <time>2019-07-11T16:03:39.000Z</time>
      </trkpt>
      <trkpt lat="43.46436853520572185516357421875" lon="-5.50567916594445705413818359375">
        <ele>150.1999969482421875</ele>
        <time>2019-07-11T16:03:40.000Z</time>
      </trkpt>
      <trkpt lat="43.4646588005125522613525390625" lon="-5.50508857704699039459228515625">
        <ele>149.399993896484375</ele>
        <time>2019-07-11T16:03:42.000Z</time>
      </trkpt>
      <trkpt lat="43.4647976048290729522705078125" lon="-5.5047879181802272796630859375">
        <ele>144.1999969482421875</ele>
        <time>2019-07-11T16:03:43.000Z</time>
      </trkpt>
      <trkpt lat="43.4649327211081981658935546875" lon="-5.50448088906705379486083984375">
        <ele>136.1999969482421875</ele>
        <time>2019-07-11T16:03:44.000Z</time>
      </trkpt>
      <trkpt lat="43.46506230533123016357421875" lon="-5.50416070036590099334716796875">
        <ele>127</ele>
        <time>2019-07-11T16:03:45.000Z</time>
      </trkpt>
      <trkpt lat="43.46518727950751781463623046875" lon="-5.5038283579051494598388671875">
        <ele>121.8000030517578125</ele>
        <time>2019-07-11T16:03:46.000Z</time>
      </trkpt>
      <trkpt lat="43.46530680544674396514892578125" lon="-5.50348478369414806365966796875">
        <ele>119.1999969482421875</ele>
        <time>2019-07-11T16:03:47.000Z</time>
      </trkpt>
      <trkpt lat="43.4654215537011623382568359375" lon="-5.5031324923038482666015625">
        <ele>118</ele>
        <time>2019-07-11T16:03:48.000Z</time>
      </trkpt>
      <trkpt lat="43.46553110517561435699462890625" lon="-5.50277131609618663787841796875">
        <ele>116.8000030517578125</ele>
        <time>2019-07-11T16:03:49.000Z</time>
      </trkpt>
      <trkpt lat="43.46573897637426853179931640625" lon="-5.502027757465839385986328125">
        <ele>115.8000030517578125</ele>
        <time>2019-07-11T16:03:51.000Z</time>
      </trkpt>
      <trkpt lat="43.46592463552951812744140625" lon="-5.5012715421617031097412109375">
        <ele>113.40000152587890625</ele>
        <time>2019-07-11T16:03:53.000Z</time>
      </trkpt>
      <trkpt lat="43.46601088531315326690673828125" lon="-5.50090785138309001922607421875">
        <ele>110.40000152587890625</ele>
        <time>2019-07-11T16:03:54.000Z</time>
      </trkpt>
      <trkpt lat="43.46609805710613727569580078125" lon="-5.50055782310664653778076171875">
        <ele>107.1999969482421875</ele>
        <time>2019-07-11T16:03:55.000Z</time>
      </trkpt>
      <trkpt lat="43.46618640236556529998779296875" lon="-5.50021357834339141845703125">
        <ele>104</ele>
        <time>2019-07-11T16:03:56.000Z</time>
      </trkpt>
      <trkpt lat="43.46627474762499332427978515625" lon="-5.499871931970119476318359375">
        <ele>101.40000152587890625</ele>
        <time>2019-07-11T16:03:57.000Z</time>
      </trkpt>
      <trkpt lat="43.46636124886572360992431640625" lon="-5.499527268111705780029296875">
        <ele>100</ele>
        <time>2019-07-11T16:03:58.000Z</time>
      </trkpt>
      <trkpt lat="43.46653081476688385009765625" lon="-5.49883567728102207183837890625">
        <ele>99</ele>
        <time>2019-07-11T16:04:00.000Z</time>
      </trkpt>
      <trkpt lat="43.466701805591583251953125" lon="-5.4981554858386516571044921875">
        <ele>98.1999969482421875</ele>
        <time>2019-07-11T16:04:02.000Z</time>
      </trkpt>
      <trkpt lat="43.46687019802629947662353515625" lon="-5.4974926449358463287353515625">
        <ele>98.59999847412109375</ele>
        <time>2019-07-11T16:04:04.000Z</time>
      </trkpt>
      <trkpt lat="43.4670037217438220977783203125" lon="-5.49684145487844944000244140625">
        <ele>99.59999847412109375</ele>
        <time>2019-07-11T16:04:06.000Z</time>
      </trkpt>
      <trkpt lat="43.46706130541861057281494140625" lon="-5.49616922624409198760986328125">
        <ele>100.1999969482421875</ele>
        <time>2019-07-11T16:04:08.000Z</time>
      </trkpt>
      <trkpt lat="43.46704387106001377105712890625" lon="-5.4954793117940425872802734375">
        <ele>100.59999847412109375</ele>
        <time>2019-07-11T16:04:10.000Z</time>
      </trkpt>
      <trkpt lat="43.4669604711234569549560546875" lon="-5.49480498768389225006103515625">
        <ele>100.59999847412109375</ele>
        <time>2019-07-11T16:04:12.000Z</time>
      </trkpt>
      <trkpt lat="43.46680297516286373138427734375" lon="-5.49416159279644489288330078125">
        <ele>99.1999969482421875</ele>
        <time>2019-07-11T16:04:14.000Z</time>
      </trkpt>
      <trkpt lat="43.4666977822780609130859375" lon="-5.49385146237909793853759765625">
        <ele>97.1999969482421875</ele>
        <time>2019-07-11T16:04:15.000Z</time>
      </trkpt>
      <trkpt lat="43.46657381393015384674072265625" lon="-5.49355139024555683135986328125">
        <ele>95.40000152587890625</ele>
        <time>2019-07-11T16:04:16.000Z</time>
      </trkpt>
      <trkpt lat="43.4664309024810791015625" lon="-5.493262298405170440673828125">
        <ele>94.1999969482421875</ele>
        <time>2019-07-11T16:04:17.000Z</time>
      </trkpt>
      <trkpt lat="43.466270975768566131591796875" lon="-5.49298502504825592041015625">
        <ele>93</ele>
        <time>2019-07-11T16:04:18.000Z</time>
      </trkpt>
      <trkpt lat="43.46609788946807384490966796875" lon="-5.49271839670836925506591796875">
        <ele>91.8000030517578125</ele>
        <time>2019-07-11T16:04:19.000Z</time>
      </trkpt>
      <trkpt lat="43.46573151648044586181640625" lon="-5.4921959526836872100830078125">
        <ele>89.8000030517578125</ele>
        <time>2019-07-11T16:04:21.000Z</time>
      </trkpt>
      <trkpt lat="43.4655469469726085662841796875" lon="-5.49193183891475200653076171875">
        <ele>88.1999969482421875</ele>
        <time>2019-07-11T16:04:22.000Z</time>
      </trkpt>
      <trkpt lat="43.46536799333989620208740234375" lon="-5.49166227690875530242919921875">
        <ele>86.1999969482421875</ele>
        <time>2019-07-11T16:04:23.000Z</time>
      </trkpt>
      <trkpt lat="43.465199433267116546630859375" lon="-5.4913865961134433746337890625">
        <ele>84.40000152587890625</ele>
        <time>2019-07-11T16:04:24.000Z</time>
      </trkpt>
      <trkpt lat="43.4650487266480922698974609375" lon="-5.49110370688140392303466796875">
        <ele>83.1999969482421875</ele>
        <time>2019-07-11T16:04:25.000Z</time>
      </trkpt>
      <trkpt lat="43.4648046456277370452880859375" lon="-5.49050473608076572418212890625">
        <ele>82.40000152587890625</ele>
        <time>2019-07-11T16:04:27.000Z</time>
      </trkpt>
      <trkpt lat="43.46463005058467388153076171875" lon="-5.4898791946470737457275390625">
        <ele>82.8000030517578125</ele>
        <time>2019-07-11T16:04:29.000Z</time>
      </trkpt>
      <trkpt lat="43.4645287133753299713134765625" lon="-5.48924292437732219696044921875">
        <ele>82.40000152587890625</ele>
        <time>2019-07-11T16:04:31.000Z</time>
      </trkpt>
      <trkpt lat="43.46449367702007293701171875" lon="-5.48858821392059326171875">
        <ele>81.40000152587890625</ele>
        <time>2019-07-11T16:04:33.000Z</time>
      </trkpt>
      <trkpt lat="43.4645012207329273223876953125" lon="-5.488255284726619720458984375">
        <ele>80</ele>
        <time>2019-07-11T16:04:34.000Z</time>
      </trkpt>
      <trkpt lat="43.4645287133753299713134765625" lon="-5.48792210407555103302001953125">
        <ele>78.40000152587890625</ele>
        <time>2019-07-11T16:04:35.000Z</time>
      </trkpt>
      <trkpt lat="43.4645759873092174530029296875" lon="-5.487593114376068115234375">
        <ele>76.59999847412109375</ele>
        <time>2019-07-11T16:04:36.000Z</time>
      </trkpt>
      <trkpt lat="43.46463851630687713623046875" lon="-5.48726764507591724395751953125">
        <ele>74.1999969482421875</ele>
        <time>2019-07-11T16:04:37.000Z</time>
      </trkpt>
      <trkpt lat="43.46471571363508701324462890625" lon="-5.4869475401937961578369140625">
        <ele>72.40000152587890625</ele>
        <time>2019-07-11T16:04:38.000Z</time>
      </trkpt>
      <trkpt lat="43.46481009386479854583740234375" lon="-5.486632548272609710693359375">
        <ele>71.1999969482421875</ele>
        <time>2019-07-11T16:04:39.000Z</time>
      </trkpt>
      <trkpt lat="43.46492174081504344940185546875" lon="-5.48632912337779998779296875">
        <ele>70.1999969482421875</ele>
        <time>2019-07-11T16:04:40.000Z</time>
      </trkpt>
      <trkpt lat="43.46504881046712398529052734375" lon="-5.4860392771661281585693359375">
        <ele>68.8000030517578125</ele>
        <time>2019-07-11T16:04:41.000Z</time>
      </trkpt>
      <trkpt lat="43.46534787677228450775146484375" lon="-5.48550006933510303497314453125">
        <ele>68.8000030517578125</ele>
        <time>2019-07-11T16:04:43.000Z</time>
      </trkpt>
      <trkpt lat="43.46568818204104900360107421875" lon="-5.48500813543796539306640625">
        <ele>68.8000030517578125</ele>
        <time>2019-07-11T16:04:45.000Z</time>
      </trkpt>
      <trkpt lat="43.46586562693119049072265625" lon="-5.4847732745110988616943359375">
        <ele>67.40000152587890625</ele>
        <time>2019-07-11T16:04:46.000Z</time>
      </trkpt>
      <trkpt lat="43.46623082645237445831298828125" lon="-5.48430732451379299163818359375">
        <ele>66.40000152587890625</ele>
        <time>2019-07-11T16:04:48.000Z</time>
      </trkpt>
      <trkpt lat="43.46641154028475284576416015625" lon="-5.4840675182640552520751953125">
        <ele>64.59999847412109375</ele>
        <time>2019-07-11T16:04:49.000Z</time>
      </trkpt>
      <trkpt lat="43.466587476432323455810546875" lon="-5.48381949774920940399169921875">
        <ele>61.40000152587890625</ele>
        <time>2019-07-11T16:04:50.000Z</time>
      </trkpt>
      <trkpt lat="43.46675880253314971923828125" lon="-5.48356435261666774749755859375">
        <ele>58.59999847412109375</ele>
        <time>2019-07-11T16:04:51.000Z</time>
      </trkpt>
      <trkpt lat="43.46692065708339214324951171875" lon="-5.48330216668546199798583984375">
        <ele>56.200000762939453125</ele>
        <time>2019-07-11T16:04:52.000Z</time>
      </trkpt>
      <trkpt lat="43.467072285711765289306640625" lon="-5.48303394578397274017333984375">
        <ele>55</ele>
        <time>2019-07-11T16:04:53.000Z</time>
      </trkpt>
      <trkpt lat="43.46734779886901378631591796875" lon="-5.482475794851779937744140625">
        <ele>54.799999237060546875</ele>
        <time>2019-07-11T16:04:55.000Z</time>
      </trkpt>
      <trkpt lat="43.46760713495314121246337890625" lon="-5.4819083400070667266845703125">
        <ele>55.40000152587890625</ele>
        <time>2019-07-11T16:04:57.000Z</time>
      </trkpt>
      <trkpt lat="43.46785305999219417572021484375" lon="-5.48133376054465770721435546875">
        <ele>55.799999237060546875</ele>
        <time>2019-07-11T16:04:59.000Z</time>
      </trkpt>
      <trkpt lat="43.46797040663659572601318359375" lon="-5.48104022629559040069580078125">
        <ele>56.40000152587890625</ele>
        <time>2019-07-11T16:05:00.000Z</time>
      </trkpt>
      <trkpt lat="43.4682016633450984954833984375" lon="-5.48044033348560333251953125">
        <ele>56.200000762939453125</ele>
        <time>2019-07-11T16:05:02.000Z</time>
      </trkpt>
      <trkpt lat="43.46841582097113132476806640625" lon="-5.4798024706542491912841796875">
        <ele>55</ele>
        <time>2019-07-11T16:05:04.000Z</time>
      </trkpt>
      <trkpt lat="43.4686110354959964752197265625" lon="-5.47912529669702053070068359375">
        <ele>55.799999237060546875</ele>
        <time>2019-07-11T16:05:06.000Z</time>
      </trkpt>
      <trkpt lat="43.468703068792819976806640625" lon="-5.47877493314445018768310546875">
        <ele>56.40000152587890625</ele>
        <time>2019-07-11T16:05:07.000Z</time>
      </trkpt>
      <trkpt lat="43.468874059617519378662109375" lon="-5.478051491081714630126953125">
        <ele>57.799999237060546875</ele>
        <time>2019-07-11T16:05:09.000Z</time>
      </trkpt>
      <trkpt lat="43.46895209513604640960693359375" lon="-5.477680675685405731201171875">
        <ele>59.40000152587890625</ele>
        <time>2019-07-11T16:05:10.000Z</time>
      </trkpt>
      <trkpt lat="43.469026274979114532470703125" lon="-5.477308519184589385986328125">
        <ele>60.40000152587890625</ele>
        <time>2019-07-11T16:05:11.000Z</time>
      </trkpt>
      <trkpt lat="43.46917279064655303955078125" lon="-5.4765727557241916656494140625">
        <ele>61.40000152587890625</ele>
        <time>2019-07-11T16:05:13.000Z</time>
      </trkpt>
      <trkpt lat="43.4692467190325260162353515625" lon="-5.4762089811265468597412109375">
        <ele>61.799999237060546875</ele>
        <time>2019-07-11T16:05:14.000Z</time>
      </trkpt>
      <trkpt lat="43.46939432434737682342529296875" lon="-5.47548470087349414825439453125">
        <ele>61.799999237060546875</ele>
        <time>2019-07-11T16:05:16.000Z</time>
      </trkpt>
      <trkpt lat="43.46954285167157649993896484375" lon="-5.4747641086578369140625">
        <ele>61</ele>
        <time>2019-07-11T16:05:18.000Z</time>
      </trkpt>
      <trkpt lat="43.469621054828166961669921875" lon="-5.4744082130491733551025390625">
        <ele>60.59999847412109375</ele>
        <time>2019-07-11T16:05:19.000Z</time>
      </trkpt>
      <trkpt lat="43.4697026945650577545166015625" lon="-5.47405474819242954254150390625">
        <ele>59.40000152587890625</ele>
        <time>2019-07-11T16:05:20.000Z</time>
      </trkpt>
      <trkpt lat="43.4697885252535343170166015625" lon="-5.47370589338243007659912109375">
        <ele>57.799999237060546875</ele>
        <time>2019-07-11T16:05:21.000Z</time>
      </trkpt>
      <trkpt lat="43.4698800556361675262451171875" lon="-5.4733626544475555419921875">
        <ele>56.40000152587890625</ele>
        <time>2019-07-11T16:05:22.000Z</time>
      </trkpt>
      <trkpt lat="43.46997535787522792816162109375" lon="-5.47302209772169589996337890625">
        <ele>54.59999847412109375</ele>
        <time>2019-07-11T16:05:23.000Z</time>
      </trkpt>
      <trkpt lat="43.470073677599430084228515625" lon="-5.47268070280551910400390625">
        <ele>51.799999237060546875</ele>
        <time>2019-07-11T16:05:24.000Z</time>
      </trkpt>
      <trkpt lat="43.47017853520810604095458984375" lon="-5.47233662568032741546630859375">
        <ele>49.59999847412109375</ele>
        <time>2019-07-11T16:05:25.000Z</time>
      </trkpt>
      <trkpt lat="43.47028817050158977508544921875" lon="-5.4719885252416133880615234375">
        <ele>47.799999237060546875</ele>
        <time>2019-07-11T16:05:26.000Z</time>
      </trkpt>
      <trkpt lat="43.47051867283880710601806640625" lon="-5.471285283565521240234375">
        <ele>46</ele>
        <time>2019-07-11T16:05:28.000Z</time>
      </trkpt>
      <trkpt lat="43.4707698784768581390380859375" lon="-5.47059528529644012451171875">
        <ele>45</ele>
        <time>2019-07-11T16:05:30.000Z</time>
      </trkpt>
      <trkpt lat="43.47104690037667751312255859375" lon="-5.46992783434689044952392578125">
        <ele>44.40000152587890625</ele>
        <time>2019-07-11T16:05:32.000Z</time>
      </trkpt>
      <trkpt lat="43.4711879678070545196533203125" lon="-5.46959616243839263916015625">
        <ele>43.799999237060546875</ele>
        <time>2019-07-11T16:05:33.000Z</time>
      </trkpt>
      <trkpt lat="43.47147035412490367889404296875" lon="-5.4689328186213970184326171875">
        <ele>42.799999237060546875</ele>
        <time>2019-07-11T16:05:35.000Z</time>
      </trkpt>
      <trkpt lat="43.47175667993724346160888671875" lon="-5.4682756774127483367919921875">
        <ele>44.200000762939453125</ele>
        <time>2019-07-11T16:05:37.000Z</time>
      </trkpt>
      <trkpt lat="43.4719067998230457305908203125" lon="-5.4679551534354686737060546875">
        <ele>47</ele>
        <time>2019-07-11T16:05:38.000Z</time>
      </trkpt>
      <trkpt lat="43.47206446342170238494873046875" lon="-5.4676436819136142730712890625">
        <ele>50</ele>
        <time>2019-07-11T16:05:39.000Z</time>
      </trkpt>
      <trkpt lat="43.47222640179097652435302734375" lon="-5.467338748276233673095703125">
        <ele>51.40000152587890625</ele>
        <time>2019-07-11T16:05:40.000Z</time>
      </trkpt>
      <trkpt lat="43.472391106188297271728515625" lon="-5.46703792177140712738037109375">
        <ele>53</ele>
        <time>2019-07-11T16:05:41.000Z</time>
      </trkpt>
      <trkpt lat="43.47272671759128570556640625" lon="-5.4664413817226886749267578125">
        <ele>53.59999847412109375</ele>
        <time>2019-07-11T16:05:43.000Z</time>
      </trkpt>
      <trkpt lat="43.47289846278727054595947265625" lon="-5.466146171092987060546875">
        <ele>54.799999237060546875</ele>
        <time>2019-07-11T16:05:44.000Z</time>
      </trkpt>
      <trkpt lat="43.4732522629201412200927734375" lon="-5.46556413173675537109375">
        <ele>57.200000762939453125</ele>
        <time>2019-07-11T16:05:46.000Z</time>
      </trkpt>
      <trkpt lat="43.47343339584767818450927734375" lon="-5.465276800096035003662109375">
        <ele>58.59999847412109375</ele>
        <time>2019-07-11T16:05:47.000Z</time>
      </trkpt>
      <trkpt lat="43.4738071449100971221923828125" lon="-5.46471211127936840057373046875">
        <ele>59.40000152587890625</ele>
        <time>2019-07-11T16:05:49.000Z</time>
      </trkpt>
      <trkpt lat="43.473999090492725372314453125" lon="-5.46443827450275421142578125">
        <ele>59.799999237060546875</ele>
        <time>2019-07-11T16:05:50.000Z</time>
      </trkpt>
      <trkpt lat="43.47439614124596118927001953125" lon="-5.46391147188842296600341796875">
        <ele>60.200000762939453125</ele>
        <time>2019-07-11T16:05:52.000Z</time>
      </trkpt>
      <trkpt lat="43.47480735741555690765380859375" lon="-5.46340118162333965301513671875">
        <ele>61.200000762939453125</ele>
        <time>2019-07-11T16:05:54.000Z</time>
      </trkpt>
      <trkpt lat="43.47501673735678195953369140625" lon="-5.46315106563270092010498046875">
        <ele>62.59999847412109375</ele>
        <time>2019-07-11T16:05:55.000Z</time>
      </trkpt>
      <trkpt lat="43.475229553878307342529296875" lon="-5.4629052244126796722412109375">
        <ele>64.1999969482421875</ele>
        <time>2019-07-11T16:05:56.000Z</time>
      </trkpt>
      <trkpt lat="43.47544589079916477203369140625" lon="-5.46266340650618076324462890625">
        <ele>65.1999969482421875</ele>
        <time>2019-07-11T16:05:57.000Z</time>
      </trkpt>
      <trkpt lat="43.47566373646259307861328125" lon="-5.46242301352322101593017578125">
        <ele>66.40000152587890625</ele>
        <time>2019-07-11T16:05:58.000Z</time>
      </trkpt>
      <trkpt lat="43.47610588185489177703857421875" lon="-5.46195513568818569183349609375">
        <ele>68.59999847412109375</ele>
        <time>2019-07-11T16:06:00.000Z</time>
      </trkpt>
      <trkpt lat="43.4763300977647304534912109375" lon="-5.4617287404835224151611328125">
        <ele>69.8000030517578125</ele>
        <time>2019-07-11T16:06:01.000Z</time>
      </trkpt>
      <trkpt lat="43.47678280435502529144287109375" lon="-5.46128793619573116302490234375">
        <ele>70.59999847412109375</ele>
        <time>2019-07-11T16:06:03.000Z</time>
      </trkpt>
      <trkpt lat="43.477011211216449737548828125" lon="-5.461076460778713226318359375">
        <ele>71</ele>
        <time>2019-07-11T16:06:04.000Z</time>
      </trkpt>
      <trkpt lat="43.4774784184992313385009765625" lon="-5.4606763087213039398193359375">
        <ele>70.40000152587890625</ele>
        <time>2019-07-11T16:06:06.000Z</time>
      </trkpt>
      <trkpt lat="43.47771554253995418548583984375" lon="-5.46048444695770740509033203125">
        <ele>70</ele>
        <time>2019-07-11T16:06:07.000Z</time>
      </trkpt>
      <trkpt lat="43.47795392386615276336669921875" lon="-5.46029870398342609405517578125">
        <ele>67.40000152587890625</ele>
        <time>2019-07-11T16:06:08.000Z</time>
      </trkpt>
      <trkpt lat="43.47819448448717594146728515625" lon="-5.46011857688426971435546875">
        <ele>65.59999847412109375</ele>
        <time>2019-07-11T16:06:09.000Z</time>
      </trkpt>
      <trkpt lat="43.4784369729459285736083984375" lon="-5.45994381420314311981201171875">
        <ele>63.200000762939453125</ele>
        <time>2019-07-11T16:06:10.000Z</time>
      </trkpt>
      <trkpt lat="43.4786827303469181060791015625" lon="-5.45977257192134857177734375">
        <ele>61.200000762939453125</ele>
        <time>2019-07-11T16:06:11.000Z</time>
      </trkpt>
      <trkpt lat="43.4789298288524150848388671875" lon="-5.459606945514678955078125">
        <ele>60</ele>
        <time>2019-07-11T16:06:12.000Z</time>
      </trkpt>
      <trkpt lat="43.47942394204437732696533203125" lon="-5.45929740183055400848388671875">
        <ele>60.200000762939453125</ele>
        <time>2019-07-11T16:06:14.000Z</time>
      </trkpt>
      <trkpt lat="43.479672633111476898193359375" lon="-5.4591504670679569244384765625">
        <ele>61.59999847412109375</ele>
        <time>2019-07-11T16:06:15.000Z</time>
      </trkpt>
      <trkpt lat="43.48016708157956600189208984375" lon="-5.4588728584349155426025390625">
        <ele>61.200000762939453125</ele>
        <time>2019-07-11T16:06:17.000Z</time>
      </trkpt>
      <trkpt lat="43.480408899486064910888671875" lon="-5.45873916707932949066162109375">
        <ele>59.40000152587890625</ele>
        <time>2019-07-11T16:06:18.000Z</time>
      </trkpt>
      <trkpt lat="43.48064728081226348876953125" lon="-5.45860849320888519287109375">
        <ele>57.59999847412109375</ele>
        <time>2019-07-11T16:06:19.000Z</time>
      </trkpt>
      <trkpt lat="43.4808828122913837432861328125" lon="-5.45847999863326549530029296875">
        <ele>55.799999237060546875</ele>
        <time>2019-07-11T16:06:20.000Z</time>
      </trkpt>
      <trkpt lat="43.4813508577644824981689453125" lon="-5.4582271166145801544189453125">
        <ele>54.59999847412109375</ele>
        <time>2019-07-11T16:06:22.000Z</time>
      </trkpt>
      <trkpt lat="43.4818147122859954833984375" lon="-5.45796518214046955108642578125">
        <ele>56.59999847412109375</ele>
        <time>2019-07-11T16:06:24.000Z</time>
      </trkpt>
      <trkpt lat="43.482044041156768798828125" lon="-5.45782453380525112152099609375">
        <ele>57.799999237060546875</ele>
        <time>2019-07-11T16:06:25.000Z</time>
      </trkpt>
      <trkpt lat="43.482499010860919952392578125" lon="-5.45752395875751972198486328125">
        <ele>60.200000762939453125</ele>
        <time>2019-07-11T16:06:27.000Z</time>
      </trkpt>
      <trkpt lat="43.48294300027191638946533203125" lon="-5.4571954719722270965576171875">
        <ele>59</ele>
        <time>2019-07-11T16:06:29.000Z</time>
      </trkpt>
      <trkpt lat="43.4831613488495349884033203125" lon="-5.45702255330979824066162109375">
        <ele>57</ele>
        <time>2019-07-11T16:06:30.000Z</time>
      </trkpt>
      <trkpt lat="43.48358907736837863922119140625" lon="-5.45664955861866474151611328125">
        <ele>56.200000762939453125</ele>
        <time>2019-07-11T16:06:32.000Z</time>
      </trkpt>
      <trkpt lat="43.483795188367366790771484375" lon="-5.45644822530448436737060546875">
        <ele>56</ele>
        <time>2019-07-11T16:06:33.000Z</time>
      </trkpt>
      <trkpt lat="43.48399610258638858795166015625" lon="-5.45624001882970333099365234375">
        <ele>54.799999237060546875</ele>
        <time>2019-07-11T16:06:34.000Z</time>
      </trkpt>
      <trkpt lat="43.4841882996261119842529296875" lon="-5.45602686703205108642578125">
        <ele>52.200000762939453125</ele>
        <time>2019-07-11T16:06:35.000Z</time>
      </trkpt>
      <trkpt lat="43.48455467261373996734619140625" lon="-5.45558958314359188079833984375">
        <ele>51</ele>
        <time>2019-07-11T16:06:37.000Z</time>
      </trkpt>
      <trkpt lat="43.484731949865818023681640625" lon="-5.45535765588283538818359375">
        <ele>48.59999847412109375</ele>
        <time>2019-07-11T16:06:38.000Z</time>
      </trkpt>
      <trkpt lat="43.48490403033792972564697265625" lon="-5.4551144130527973175048828125">
        <ele>46.799999237060546875</ele>
        <time>2019-07-11T16:06:39.000Z</time>
      </trkpt>
      <trkpt lat="43.48506982438266277313232421875" lon="-5.45486220158636569976806640625">
        <ele>45.59999847412109375</ele>
        <time>2019-07-11T16:06:40.000Z</time>
      </trkpt>
      <trkpt lat="43.48539722152054309844970703125" lon="-5.45434520579874515533447265625">
        <ele>45.59999847412109375</ele>
        <time>2019-07-11T16:06:42.000Z</time>
      </trkpt>
      <trkpt lat="43.4855532087385654449462890625" lon="-5.45407597906887531280517578125">
        <ele>44.200000762939453125</ele>
        <time>2019-07-11T16:06:43.000Z</time>
      </trkpt>
      <trkpt lat="43.48570181988179683685302734375" lon="-5.453798286616802215576171875">
        <ele>41.40000152587890625</ele>
        <time>2019-07-11T16:06:44.000Z</time>
      </trkpt>
      <trkpt lat="43.4858469106256961822509765625" lon="-5.453520677983760833740234375">
        <ele>38.200000762939453125</ele>
        <time>2019-07-11T16:06:45.000Z</time>
      </trkpt>
      <trkpt lat="43.48598345182836055755615234375" lon="-5.4532382078468799591064453125">
        <ele>33.59999847412109375</ele>
        <time>2019-07-11T16:06:46.000Z</time>
      </trkpt>
      <trkpt lat="43.486114628612995147705078125" lon="-5.4529512114822864532470703125">
        <ele>30.6000003814697265625</ele>
        <time>2019-07-11T16:06:47.000Z</time>
      </trkpt>
      <trkpt lat="43.48623977042734622955322265625" lon="-5.45265725813806056976318359375">
        <ele>29.200000762939453125</ele>
        <time>2019-07-11T16:06:48.000Z</time>
      </trkpt>
      <trkpt lat="43.48635929636657238006591796875" lon="-5.4523591138422489166259765625">
        <ele>27.6000003814697265625</ele>
        <time>2019-07-11T16:06:49.000Z</time>
      </trkpt>
      <trkpt lat="43.4865815006196498870849609375" lon="-5.4517472349107265472412109375">
        <ele>27.6000003814697265625</ele>
        <time>2019-07-11T16:06:51.000Z</time>
      </trkpt>
      <trkpt lat="43.486683927476406097412109375" lon="-5.45143383555114269256591796875">
        <ele>28.6000003814697265625</ele>
        <time>2019-07-11T16:06:52.000Z</time>
      </trkpt>
      <trkpt lat="43.486780487000942230224609375" lon="-5.4511142335832118988037109375">
        <ele>29.6000003814697265625</ele>
        <time>2019-07-11T16:06:53.000Z</time>
      </trkpt>
      <trkpt lat="43.48695139400660991668701171875" lon="-5.45046329498291015625">
        <ele>30</ele>
        <time>2019-07-11T16:06:55.000Z</time>
      </trkpt>
      <trkpt lat="43.48709271289408206939697265625" lon="-5.44981378130614757537841796875">
        <ele>29</ele>
        <time>2019-07-11T16:06:57.000Z</time>
      </trkpt>
      <trkpt lat="43.4871514700353145599365234375" lon="-5.44948990456759929656982421875">
        <ele>26.799999237060546875</ele>
        <time>2019-07-11T16:06:58.000Z</time>
      </trkpt>
      <trkpt lat="43.4872059524059295654296875" lon="-5.4491639323532581329345703125">
        <ele>24.3999996185302734375</ele>
        <time>2019-07-11T16:06:59.000Z</time>
      </trkpt>
      <trkpt lat="43.48725490272045135498046875" lon="-5.44883544556796550750732421875">
        <ele>21.799999237060546875</ele>
        <time>2019-07-11T16:07:00.000Z</time>
      </trkpt>
      <trkpt lat="43.48729689605534076690673828125" lon="-5.44850503094494342803955078125">
        <ele>20.6000003814697265625</ele>
        <time>2019-07-11T16:07:01.000Z</time>
      </trkpt>
      <trkpt lat="43.4873320162296295166015625" lon="-5.44817143119871616363525390625">
        <ele>20</ele>
        <time>2019-07-11T16:07:02.000Z</time>
      </trkpt>
      <trkpt lat="43.48735992796719074249267578125" lon="-5.44783674180507659912109375">
        <ele>18.799999237060546875</ele>
        <time>2019-07-11T16:07:03.000Z</time>
      </trkpt>
      <trkpt lat="43.48739865235984325408935546875" lon="-5.44716442935168743133544921875">
        <ele>17.200000762939453125</ele>
        <time>2019-07-11T16:07:05.000Z</time>
      </trkpt>
      <trkpt lat="43.48739898763597011566162109375" lon="-5.44650502502918243408203125">
        <ele>14.80000019073486328125</ele>
        <time>2019-07-11T16:07:07.000Z</time>
      </trkpt>
      <trkpt lat="43.4873915277421474456787109375" lon="-5.446185506880283355712890625">
        <ele>13.3999996185302734375</ele>
        <time>2019-07-11T16:07:08.000Z</time>
      </trkpt>
      <trkpt lat="43.4873596765100955963134765625" lon="-5.4455563612282276153564453125">
        <ele>10.80000019073486328125</ele>
        <time>2019-07-11T16:07:10.000Z</time>
      </trkpt>
      <trkpt lat="43.4873093850910663604736328125" lon="-5.44493098743259906768798828125">
        <ele>8.6000003814697265625</ele>
        <time>2019-07-11T16:07:12.000Z</time>
      </trkpt>
      <trkpt lat="43.48724040202796459197998046875" lon="-5.4442957229912281036376953125">
        <ele>7.80000019073486328125</ele>
        <time>2019-07-11T16:07:14.000Z</time>
      </trkpt>
      <trkpt lat="43.4872024320065975189208984375" lon="-5.44397494755685329437255859375">
        <ele>6.80000019073486328125</ele>
        <time>2019-07-11T16:07:15.000Z</time>
      </trkpt>
      <trkpt lat="43.48716312088072299957275390625" lon="-5.44365358538925647735595703125">
        <ele>5</ele>
        <time>2019-07-11T16:07:16.000Z</time>
      </trkpt>
      <trkpt lat="43.48712322302162647247314453125" lon="-5.4433361627161502838134765625">
        <ele>2.400000095367431640625</ele>
        <time>2019-07-11T16:07:17.000Z</time>
      </trkpt>
      <trkpt lat="43.48708349280059337615966796875" lon="-5.44302661903202533721923828125">
        <ele>0.60000002384185791015625</ele>
        <time>2019-07-11T16:07:18.000Z</time>
      </trkpt>
      <trkpt lat="43.4870404936373233795166015625" lon="-5.442726127803325653076171875">
        <ele>-0.800000011920928955078125</ele>
        <time>2019-07-11T16:07:19.000Z</time>
      </trkpt>
      <trkpt lat="43.48691233433783054351806640625" lon="-5.44185298494994640350341796875">
        <ele>0</ele>
        <time>2019-07-11T16:07:22.000Z</time>
      </trkpt>
      <trkpt lat="43.48686774261295795440673828125" lon="-5.44156649149954319000244140625">
        <ele>1.60000002384185791015625</ele>
        <time>2019-07-11T16:07:23.000Z</time>
      </trkpt>
      <trkpt lat="43.48674033768475055694580078125" lon="-5.44070667587220668792724609375">
        <ele>2.2000000476837158203125</ele>
        <time>2019-07-11T16:07:26.000Z</time>
      </trkpt>
      <trkpt lat="43.48780970089137554168701171875" lon="-5.43049802072346210479736328125">
        <ele>3</ele>
        <time>2019-07-11T16:08:03.000Z</time>
      </trkpt>
      <trkpt lat="43.48788362927734851837158203125" lon="-5.43024153448641300201416015625">
        <ele>4</ele>
        <time>2019-07-11T16:08:04.000Z</time>
      </trkpt>
      <trkpt lat="43.4880342520773410797119140625" lon="-5.42961649596691131591796875">
        <ele>4.400000095367431640625</ele>
        <time>2019-07-11T16:08:06.000Z</time>
      </trkpt>
      <trkpt lat="43.4881339967250823974609375" lon="-5.42899514548480510711669921875">
        <ele>2.599999904632568359375</ele>
        <time>2019-07-11T16:08:08.000Z</time>
      </trkpt>
      <trkpt lat="43.48827791400253772735595703125" lon="-5.42812627740204334259033203125">
        <ele>2.400000095367431640625</ele>
        <time>2019-07-11T16:08:11.000Z</time>
      </trkpt>
      <trkpt lat="43.488377742469310760498046875" lon="-5.42756351642310619354248046875">
        <ele>4.599999904632568359375</ele>
        <time>2019-07-11T16:08:13.000Z</time>
      </trkpt>
      <trkpt lat="43.48842971026897430419921875" lon="-5.42728020809590816497802734375">
        <ele>6.400000095367431640625</ele>
        <time>2019-07-11T16:08:14.000Z</time>
      </trkpt>
      <trkpt lat="43.48848192952573299407958984375" lon="-5.42699455283582210540771484375">
        <ele>7.599999904632568359375</ele>
        <time>2019-07-11T16:08:15.000Z</time>
      </trkpt>
      <trkpt lat="43.48853289149701595306396484375" lon="-5.426709987223148345947265625">
        <ele>8.80000019073486328125</ele>
        <time>2019-07-11T16:08:16.000Z</time>
      </trkpt>
      <trkpt lat="43.488582931458950042724609375" lon="-5.4264239966869354248046875">
        <ele>10</ele>
        <time>2019-07-11T16:08:17.000Z</time>
      </trkpt>
      <trkpt lat="43.488688878715038299560546875" lon="-5.4258498363196849822998046875">
        <ele>11.80000019073486328125</ele>
        <time>2019-07-11T16:08:19.000Z</time>
      </trkpt>
      <trkpt lat="43.48874352872371673583984375" lon="-5.425558649003505706787109375">
        <ele>13.3999996185302734375</ele>
        <time>2019-07-11T16:08:20.000Z</time>
      </trkpt>
      <trkpt lat="43.488797508180141448974609375" lon="-5.425269305706024169921875">
        <ele>14.80000019073486328125</ele>
        <time>2019-07-11T16:08:21.000Z</time>
      </trkpt>
      <trkpt lat="43.48885240964591503143310546875" lon="-5.42497870512306690216064453125">
        <ele>16.6000003814697265625</ele>
        <time>2019-07-11T16:08:22.000Z</time>
      </trkpt>
      <trkpt lat="43.4889612905681133270263671875" lon="-5.42439331300556659698486328125">
        <ele>18.3999996185302734375</ele>
        <time>2019-07-11T16:08:24.000Z</time>
      </trkpt>
      <trkpt lat="43.48901770077645778656005859375" lon="-5.424100868403911590576171875">
        <ele>19.6000003814697265625</ele>
        <time>2019-07-11T16:08:25.000Z</time>
      </trkpt>
      <trkpt lat="43.48913353867828845977783203125" lon="-5.4235111176967620849609375">
        <ele>20.799999237060546875</ele>
        <time>2019-07-11T16:08:27.000Z</time>
      </trkpt>
      <trkpt lat="43.48931886255741119384765625" lon="-5.4226194508373737335205078125">
        <ele>21.799999237060546875</ele>
        <time>2019-07-11T16:08:30.000Z</time>
      </trkpt>
      <trkpt lat="43.489474765956401824951171875" lon="-5.4220278561115264892578125">
        <ele>21.6000003814697265625</ele>
        <time>2019-07-11T16:08:32.000Z</time>
      </trkpt>
      <trkpt lat="43.48966486752033233642578125" lon="-5.4214431345462799072265625">
        <ele>22.200000762939453125</ele>
        <time>2019-07-11T16:08:34.000Z</time>
      </trkpt>
      <trkpt lat="43.48990090191364288330078125" lon="-5.42087375186383724212646484375">
        <ele>24.200000762939453125</ele>
        <time>2019-07-11T16:08:36.000Z</time>
      </trkpt>
      <trkpt lat="43.490036018192768096923828125" lon="-5.42059597559273242950439453125">
        <ele>25.3999996185302734375</ele>
        <time>2019-07-11T16:08:37.000Z</time>
      </trkpt>
      <trkpt lat="43.49017909727990627288818359375" lon="-5.4203228093683719635009765625">
        <ele>27.200000762939453125</ele>
        <time>2019-07-11T16:08:38.000Z</time>
      </trkpt>
      <trkpt lat="43.49032980389893054962158203125" lon="-5.42005165480077266693115234375">
        <ele>28.3999996185302734375</ele>
        <time>2019-07-11T16:08:39.000Z</time>
      </trkpt>
      <trkpt lat="43.4906628169119358062744140625" lon="-5.41952745057642459869384765625">
        <ele>29.3999996185302734375</ele>
        <time>2019-07-11T16:08:41.000Z</time>
      </trkpt>
      <trkpt lat="43.4910406731069087982177734375" lon="-5.419041551649570465087890625">
        <ele>28.3999996185302734375</ele>
        <time>2019-07-11T16:08:43.000Z</time>
      </trkpt>
      <trkpt lat="43.49145432002842426300048828125" lon="-5.4186061955988407135009765625">
        <ele>27.799999237060546875</ele>
        <time>2019-07-11T16:08:45.000Z</time>
      </trkpt>
      <trkpt lat="43.49189051426947116851806640625" lon="-5.4182095639407634735107421875">
        <ele>28.200000762939453125</ele>
        <time>2019-07-11T16:08:47.000Z</time>
      </trkpt>
      <trkpt lat="43.4923345036804676055908203125" lon="-5.417825840413570404052734375">
        <ele>28.3999996185302734375</ele>
        <time>2019-07-11T16:08:49.000Z</time>
      </trkpt>
      <trkpt lat="43.4927820973098278045654296875" lon="-5.4174367524683475494384765625">
        <ele>29.200000762939453125</ele>
        <time>2019-07-11T16:08:51.000Z</time>
      </trkpt>
      <trkpt lat="43.49322759546339511871337890625" lon="-5.4170454852283000946044921875">
        <ele>28.3999996185302734375</ele>
        <time>2019-07-11T16:08:53.000Z</time>
      </trkpt>
      <trkpt lat="43.49367049522697925567626953125" lon="-5.41665614582598209381103515625">
        <ele>24.799999237060546875</ele>
        <time>2019-07-11T16:08:55.000Z</time>
      </trkpt>
      <trkpt lat="43.49389077164232730865478515625" lon="-5.41646453551948070526123046875">
        <ele>23.200000762939453125</ele>
        <time>2019-07-11T16:08:56.000Z</time>
      </trkpt>
      <trkpt lat="43.49410803057253360748291015625" lon="-5.41627694852650165557861328125">
        <ele>21.6000003814697265625</ele>
        <time>2019-07-11T16:08:57.000Z</time>
      </trkpt>
      <trkpt lat="43.49432411603629589080810546875" lon="-5.416092462837696075439453125">
        <ele>20</ele>
        <time>2019-07-11T16:08:58.000Z</time>
      </trkpt>
      <trkpt lat="43.49475511349737644195556640625" lon="-5.41572424583137035369873046875">
        <ele>20.799999237060546875</ele>
        <time>2019-07-11T16:09:00.000Z</time>
      </trkpt>
      <trkpt lat="43.494973294436931610107421875" lon="-5.41554470546543598175048828125">
        <ele>21.799999237060546875</ele>
        <time>2019-07-11T16:09:01.000Z</time>
      </trkpt>
      <trkpt lat="43.4954311139881610870361328125" lon="-5.41521345265209674835205078125">
        <ele>21.3999996185302734375</ele>
        <time>2019-07-11T16:09:03.000Z</time>
      </trkpt>
      <trkpt lat="43.495671339333057403564453125" lon="-5.41506861336529254913330078125">
        <ele>20.3999996185302734375</ele>
        <time>2019-07-11T16:09:04.000Z</time>
      </trkpt>
      <trkpt lat="43.49617182277143001556396484375" lon="-5.4148153960704803466796875">
        <ele>19.200000762939453125</ele>
        <time>2019-07-11T16:09:06.000Z</time>
      </trkpt>
      <trkpt lat="43.4964302368462085723876953125" lon="-5.414707101881504058837890625">
        <ele>17.3999996185302734375</ele>
        <time>2019-07-11T16:09:07.000Z</time>
      </trkpt>
      <trkpt lat="43.4966927580535411834716796875" lon="-5.4146070219576358795166015625">
        <ele>15.3999996185302734375</ele>
        <time>2019-07-11T16:09:08.000Z</time>
      </trkpt>
      <trkpt lat="43.49722358398139476776123046875" lon="-5.41440878994762897491455078125">
        <ele>16.200000762939453125</ele>
        <time>2019-07-11T16:09:10.000Z</time>
      </trkpt>
      <trkpt lat="43.49749063141644001007080078125" lon="-5.41430552490055561065673828125">
        <ele>16.6000003814697265625</ele>
        <time>2019-07-11T16:09:11.000Z</time>
      </trkpt>
      <trkpt lat="43.49802338518202304840087890625" lon="-5.4140779562294483184814453125">
        <ele>16.3999996185302734375</ele>
        <time>2019-07-11T16:09:13.000Z</time>
      </trkpt>
      <trkpt lat="43.4982926957309246063232421875" lon="-5.41395080275833606719970703125">
        <ele>17.799999237060546875</ele>
        <time>2019-07-11T16:09:14.000Z</time>
      </trkpt>
      <trkpt lat="43.498844392597675323486328125" lon="-5.41365307755768299102783203125">
        <ele>18</ele>
        <time>2019-07-11T16:09:16.000Z</time>
      </trkpt>
      <trkpt lat="43.4991245158016681671142578125" lon="-5.41346733458340167999267578125">
        <ele>18.6000003814697265625</ele>
        <time>2019-07-11T16:09:17.000Z</time>
      </trkpt>
      <trkpt lat="43.499683253467082977294921875" lon="-5.41301504708826541900634765625">
        <ele>17</ele>
        <time>2019-07-11T16:09:19.000Z</time>
      </trkpt>
      <trkpt lat="43.49993932060897350311279296875" lon="-5.41274112649261951446533203125">
        <ele>16.6000003814697265625</ele>
        <time>2019-07-11T16:09:20.000Z</time>
      </trkpt>
      <trkpt lat="43.5001816414296627044677734375" lon="-5.4124461673200130462646484375">
        <ele>14.3999996185302734375</ele>
        <time>2019-07-11T16:09:21.000Z</time>
      </trkpt>
      <trkpt lat="43.500409461557865142822265625" lon="-5.41213243268430233001708984375">
        <ele>12.3999996185302734375</ele>
        <time>2019-07-11T16:09:22.000Z</time>
      </trkpt>
      <trkpt lat="43.50081204436719417572021484375" lon="-5.41145852766931056976318359375">
        <ele>12.19999980926513671875</ele>
        <time>2019-07-11T16:09:24.000Z</time>
      </trkpt>
      <trkpt lat="43.50114664994180202484130859375" lon="-5.41073734872043132781982421875">
        <ele>13.80000019073486328125</ele>
        <time>2019-07-11T16:09:26.000Z</time>
      </trkpt>
      <trkpt lat="43.50142409093677997589111328125" lon="-5.4099852405488491058349609375">
        <ele>15.6000003814697265625</ele>
        <time>2019-07-11T16:09:28.000Z</time>
      </trkpt>
      <trkpt lat="43.50163967348635196685791015625" lon="-5.4092151112854480743408203125">
        <ele>16.200000762939453125</ele>
        <time>2019-07-11T16:09:30.000Z</time>
      </trkpt>
      <trkpt lat="43.50178350694477558135986328125" lon="-5.4084382764995098114013671875">
        <ele>16.799999237060546875</ele>
        <time>2019-07-11T16:09:32.000Z</time>
      </trkpt>
      <trkpt lat="43.5018642246723175048828125" lon="-5.40767728351056575775146484375">
        <ele>18.6000003814697265625</ele>
        <time>2019-07-11T16:09:34.000Z</time>
      </trkpt>
      <trkpt lat="43.501881323754787445068359375" lon="-5.40729917585849761962890625">
        <ele>21.200000762939453125</ele>
        <time>2019-07-11T16:09:35.000Z</time>
      </trkpt>
      <trkpt lat="43.50188308395445346832275390625" lon="-5.4069198109209537506103515625">
        <ele>24.3999996185302734375</ele>
        <time>2019-07-11T16:09:36.000Z</time>
      </trkpt>
      <trkpt lat="43.501869924366474151611328125" lon="-5.4065382666885852813720703125">
        <ele>26.799999237060546875</ele>
        <time>2019-07-11T16:09:37.000Z</time>
      </trkpt>
      <trkpt lat="43.50184335373342037200927734375" lon="-5.40615521371364593505859375">
        <ele>28.6000003814697265625</ele>
        <time>2019-07-11T16:09:38.000Z</time>
      </trkpt>
      <trkpt lat="43.50175366736948490142822265625" lon="-5.4053865931928157806396484375">
        <ele>30</ele>
        <time>2019-07-11T16:09:40.000Z</time>
      </trkpt>
      <trkpt lat="43.50169055163860321044921875" lon="-5.40500211529433727264404296875">
        <ele>29.799999237060546875</ele>
        <time>2019-07-11T16:09:41.000Z</time>
      </trkpt>
      <trkpt lat="43.50161804817616939544677734375" lon="-5.4046184755861759185791015625">
        <ele>28</ele>
        <time>2019-07-11T16:09:42.000Z</time>
      </trkpt>
      <trkpt lat="43.5015369951725006103515625" lon="-5.4042319022119045257568359375">
        <ele>26</ele>
        <time>2019-07-11T16:09:43.000Z</time>
      </trkpt>
      <trkpt lat="43.5014511644840240478515625" lon="-5.403844825923442840576171875">
        <ele>23.799999237060546875</ele>
        <time>2019-07-11T16:09:44.000Z</time>
      </trkpt>
      <trkpt lat="43.50136307068169116973876953125" lon="-5.4034550674259662628173828125">
        <ele>22.799999237060546875</ele>
        <time>2019-07-11T16:09:45.000Z</time>
      </trkpt>
      <trkpt lat="43.5011834464967250823974609375" lon="-5.4026738740503787994384765625">
        <ele>22.6000003814697265625</ele>
        <time>2019-07-11T16:09:47.000Z</time>
      </trkpt>
      <trkpt lat="43.50101404823362827301025390625" lon="-5.4018836282193660736083984375">
        <ele>23</ele>
        <time>2019-07-11T16:09:49.000Z</time>
      </trkpt>
      <trkpt lat="43.5008743219077587127685546875" lon="-5.40107938461005687713623046875">
        <ele>23.200000762939453125</ele>
        <time>2019-07-11T16:09:51.000Z</time>
      </trkpt>
      <trkpt lat="43.50077801384031772613525390625" lon="-5.40026374161243438720703125">
        <ele>22.3999996185302734375</ele>
        <time>2019-07-11T16:09:53.000Z</time>
      </trkpt>
      <trkpt lat="43.5007445700466632843017578125" lon="-5.3998513519763946533203125">
        <ele>21.3999996185302734375</ele>
        <time>2019-07-11T16:09:54.000Z</time>
      </trkpt>
      <trkpt lat="43.50070442073047161102294921875" lon="-5.3990198671817779541015625">
        <ele>20.6000003814697265625</ele>
        <time>2019-07-11T16:09:56.000Z</time>
      </trkpt>
      <trkpt lat="43.50069972686469554901123046875" lon="-5.39860303513705730438232421875">
        <ele>20.3999996185302734375</ele>
        <time>2019-07-11T16:09:57.000Z</time>
      </trkpt>
      <trkpt lat="43.50073057226836681365966796875" lon="-5.39777557365596294403076171875">
        <ele>20.200000762939453125</ele>
        <time>2019-07-11T16:09:59.000Z</time>
      </trkpt>
      <trkpt lat="43.5007940232753753662109375" lon="-5.39695733226835727691650390625">
        <ele>19.3999996185302734375</ele>
        <time>2019-07-11T16:10:01.000Z</time>
      </trkpt>
      <trkpt lat="43.500831238925457000732421875" lon="-5.39655148051679134368896484375">
        <ele>20.799999237060546875</ele>
        <time>2019-07-11T16:10:02.000Z</time>
      </trkpt>
      <trkpt lat="43.5008704662322998046875" lon="-5.39614814333617687225341796875">
        <ele>21.799999237060546875</ele>
        <time>2019-07-11T16:10:03.000Z</time>
      </trkpt>
      <trkpt lat="43.5009415447711944580078125" lon="-5.39534079842269420623779296875">
        <ele>22.6000003814697265625</ele>
        <time>2019-07-11T16:10:05.000Z</time>
      </trkpt>
      <trkpt lat="43.50096710957586765289306640625" lon="-5.3949370421469211578369140625">
        <ele>24.3999996185302734375</ele>
        <time>2019-07-11T16:10:06.000Z</time>
      </trkpt>
      <trkpt lat="43.500985465943813323974609375" lon="-5.394130535423755645751953125">
        <ele>26.799999237060546875</ele>
        <time>2019-07-11T16:10:08.000Z</time>
      </trkpt>
      <trkpt lat="43.50097649730741977691650390625" lon="-5.39373029954731464385986328125">
        <ele>30.799999237060546875</ele>
        <time>2019-07-11T16:10:09.000Z</time>
      </trkpt>
      <trkpt lat="43.50095621310174465179443359375" lon="-5.393332578241825103759765625">
        <ele>34.40000152587890625</ele>
        <time>2019-07-11T16:10:10.000Z</time>
      </trkpt>
      <trkpt lat="43.5009246133267879486083984375" lon="-5.3929354436695575714111328125">
        <ele>36.40000152587890625</ele>
        <time>2019-07-11T16:10:11.000Z</time>
      </trkpt>
      <trkpt lat="43.50088345818221569061279296875" lon="-5.39253897964954376220703125">
        <ele>37.59999847412109375</ele>
        <time>2019-07-11T16:10:12.000Z</time>
      </trkpt>
      <trkpt lat="43.50083232857286930084228515625" lon="-5.3921451978385448455810546875">
        <ele>39</ele>
        <time>2019-07-11T16:10:13.000Z</time>
      </trkpt>
      <trkpt lat="43.50077457726001739501953125" lon="-5.39175032638013362884521484375">
        <ele>37.59999847412109375</ele>
        <time>2019-07-11T16:10:14.000Z</time>
      </trkpt>
      <trkpt lat="43.50071414373815059661865234375" lon="-5.391353107988834381103515625">
        <ele>35.799999237060546875</ele>
        <time>2019-07-11T16:10:15.000Z</time>
      </trkpt>
      <trkpt lat="43.50065614096820354461669921875" lon="-5.3909536264836788177490234375">
        <ele>34</ele>
        <time>2019-07-11T16:10:16.000Z</time>
      </trkpt>
      <trkpt lat="43.50054684095084667205810546875" lon="-5.3901466168463230133056640625">
        <ele>31.6000003814697265625</ele>
        <time>2019-07-11T16:10:18.000Z</time>
      </trkpt>
      <trkpt lat="43.50049302913248538970947265625" lon="-5.38974084891378879547119140625">
        <ele>29</ele>
        <time>2019-07-11T16:10:19.000Z</time>
      </trkpt>
      <trkpt lat="43.5004364512860774993896484375" lon="-5.3893392719328403472900390625">
        <ele>27.3999996185302734375</ele>
        <time>2019-07-11T16:10:20.000Z</time>
      </trkpt>
      <trkpt lat="43.50030996836721897125244140625" lon="-5.38854525424540042877197265625">
        <ele>30.3999996185302734375</ele>
        <time>2019-07-11T16:10:22.000Z</time>
      </trkpt>
      <trkpt lat="43.50024693645536899566650390625" lon="-5.3881473653018474578857421875">
        <ele>33.40000152587890625</ele>
        <time>2019-07-11T16:10:23.000Z</time>
      </trkpt>
      <trkpt lat="43.50018440745770931243896484375" lon="-5.38775115273892879486083984375">
        <ele>35.200000762939453125</ele>
        <time>2019-07-11T16:10:24.000Z</time>
      </trkpt>
      <trkpt lat="43.50012238137423992156982421875" lon="-5.38735636509954929351806640625">
        <ele>37.200000762939453125</ele>
        <time>2019-07-11T16:10:25.000Z</time>
      </trkpt>
      <trkpt lat="43.5000589303672313690185546875" lon="-5.3869618289172649383544921875">
        <ele>38.40000152587890625</ele>
        <time>2019-07-11T16:10:26.000Z</time>
      </trkpt>
      <trkpt lat="43.4999308548867702484130859375" lon="-5.3861702419817447662353515625">
        <ele>38.799999237060546875</ele>
        <time>2019-07-11T16:10:28.000Z</time>
      </trkpt>
      <trkpt lat="43.4998584352433681488037109375" lon="-5.38577637635171413421630859375">
        <ele>36</ele>
        <time>2019-07-11T16:10:29.000Z</time>
      </trkpt>
      <trkpt lat="43.4997739456593990325927734375" lon="-5.3853861987590789794921875">
        <ele>32</ele>
        <time>2019-07-11T16:10:30.000Z</time>
      </trkpt>
      <trkpt lat="43.49967478774487972259521484375" lon="-5.385001637041568756103515625">
        <ele>27.3999996185302734375</ele>
        <time>2019-07-11T16:10:31.000Z</time>
      </trkpt>
      <trkpt lat="43.4995603747665882110595703125" lon="-5.38462688215076923370361328125">
        <ele>25</ele>
        <time>2019-07-11T16:10:32.000Z</time>
      </trkpt>
      <trkpt lat="43.49943070672452449798583984375" lon="-5.3842608444392681121826171875">
        <ele>23.799999237060546875</ele>
        <time>2019-07-11T16:10:33.000Z</time>
      </trkpt>
      <trkpt lat="43.49913214333355426788330078125" lon="-5.38355483673512935638427734375">
        <ele>26.200000762939453125</ele>
        <time>2019-07-11T16:10:35.000Z</time>
      </trkpt>
      <trkpt lat="43.4989666007459163665771484375" lon="-5.3832137770950794219970703125">
        <ele>30.3999996185302734375</ele>
        <time>2019-07-11T16:10:36.000Z</time>
      </trkpt>
      <trkpt lat="43.4987942688167095184326171875" lon="-5.38287632167339324951171875">
        <ele>35.59999847412109375</ele>
        <time>2019-07-11T16:10:37.000Z</time>
      </trkpt>
      <trkpt lat="43.49861866794526576995849609375" lon="-5.38254104554653167724609375">
        <ele>39.59999847412109375</ele>
        <time>2019-07-11T16:10:38.000Z</time>
      </trkpt>
      <trkpt lat="43.49844382144510746002197265625" lon="-5.3822019137442111968994140625">
        <ele>41.799999237060546875</ele>
        <time>2019-07-11T16:10:39.000Z</time>
      </trkpt>
      <trkpt lat="43.49810234270989894866943359375" lon="-5.381511412560939788818359375">
        <ele>43.40000152587890625</ele>
        <time>2019-07-11T16:10:41.000Z</time>
      </trkpt>
      <trkpt lat="43.49779003299772739410400390625" lon="-5.3807914070785045623779296875">
        <ele>44</ele>
        <time>2019-07-11T16:10:43.000Z</time>
      </trkpt>
      <trkpt lat="43.4975198842585086822509765625" lon="-5.38003929890692234039306640625">
        <ele>44.799999237060546875</ele>
        <time>2019-07-11T16:10:45.000Z</time>
      </trkpt>
      <trkpt lat="43.4974037110805511474609375" lon="-5.379650630056858062744140625">
        <ele>46.59999847412109375</ele>
        <time>2019-07-11T16:10:46.000Z</time>
      </trkpt>
      <trkpt lat="43.4972037188708782196044921875" lon="-5.37884873338043689727783203125">
        <ele>46.59999847412109375</ele>
        <time>2019-07-11T16:10:48.000Z</time>
      </trkpt>
      <trkpt lat="43.4971131943166255950927734375" lon="-5.37844053469598293304443359375">
        <ele>43.59999847412109375</ele>
        <time>2019-07-11T16:10:49.000Z</time>
      </trkpt>
      <trkpt lat="43.49702484905719757080078125" lon="-5.37802931852638721466064453125">
        <ele>41.200000762939453125</ele>
        <time>2019-07-11T16:10:50.000Z</time>
      </trkpt>
      <trkpt lat="43.496938012540340423583984375" lon="-5.37761743180453777313232421875">
        <ele>36.59999847412109375</ele>
        <time>2019-07-11T16:10:51.000Z</time>
      </trkpt>
      <trkpt lat="43.4968510083854198455810546875" lon="-5.3772036172449588775634765625">
        <ele>32.40000152587890625</ele>
        <time>2019-07-11T16:10:52.000Z</time>
      </trkpt>
      <trkpt lat="43.49676333367824554443359375" lon="-5.376790054142475128173828125">
        <ele>29.799999237060546875</ele>
        <time>2019-07-11T16:10:53.000Z</time>
      </trkpt>
      <trkpt lat="43.49658655934035778045654296875" lon="-5.375965274870395660400390625">
        <ele>30</ele>
        <time>2019-07-11T16:10:55.000Z</time>
      </trkpt>
      <trkpt lat="43.49641858600080013275146484375" lon="-5.3751420043408870697021484375">
        <ele>30.3999996185302734375</ele>
        <time>2019-07-11T16:10:57.000Z</time>
      </trkpt>
      <trkpt lat="43.49624759517610073089599609375" lon="-5.37432082928717136383056640625">
        <ele>31.200000762939453125</ele>
        <time>2019-07-11T16:10:59.000Z</time>
      </trkpt>
      <trkpt lat="43.496156148612499237060546875" lon="-5.37391145713627338409423828125">
        <ele>32.40000152587890625</ele>
        <time>2019-07-11T16:11:00.000Z</time>
      </trkpt>
      <trkpt lat="43.49598012864589691162109375" lon="-5.3730891086161136627197265625">
        <ele>32.40000152587890625</ele>
        <time>2019-07-11T16:11:02.000Z</time>
      </trkpt>
      <trkpt lat="43.4958652965724468231201171875" lon="-5.37224278785288333892822265625">
        <ele>32.799999237060546875</ele>
        <time>2019-07-11T16:11:04.000Z</time>
      </trkpt>
      <trkpt lat="43.49581944756209850311279296875" lon="-5.37138012237846851348876953125">
        <ele>32.200000762939453125</ele>
        <time>2019-07-11T16:11:06.000Z</time>
      </trkpt>
      <trkpt lat="43.495843000710010528564453125" lon="-5.37051804363727569580078125">
        <ele>32.40000152587890625</ele>
        <time>2019-07-11T16:11:08.000Z</time>
      </trkpt>
      <trkpt lat="43.4959460981190204620361328125" lon="-5.36966367624700069427490234375">
        <ele>33</ele>
        <time>2019-07-11T16:11:10.000Z</time>
      </trkpt>
      <trkpt lat="43.49602480418980121612548828125" lon="-5.3692434914410114288330078125">
        <ele>33.59999847412109375</ele>
        <time>2019-07-11T16:11:11.000Z</time>
      </trkpt>
      <trkpt lat="43.49612102843821048736572265625" lon="-5.36883068270981311798095703125">
        <ele>35</ele>
        <time>2019-07-11T16:11:12.000Z</time>
      </trkpt>
      <trkpt lat="43.49623351357877254486083984375" lon="-5.36842265166342258453369140625">
        <ele>36.40000152587890625</ele>
        <time>2019-07-11T16:11:13.000Z</time>
      </trkpt>
      <trkpt lat="43.4965107031166553497314453125" lon="-5.36763877607882022857666015625">
        <ele>37.59999847412109375</ele>
        <time>2019-07-11T16:11:15.000Z</time>
      </trkpt>
      <trkpt lat="43.49685679189860820770263671875" lon="-5.36691357381641864776611328125">
        <ele>38</ele>
        <time>2019-07-11T16:11:17.000Z</time>
      </trkpt>
      <trkpt lat="43.49725929088890552520751953125" lon="-5.3662504814565181732177734375">
        <ele>37</ele>
        <time>2019-07-11T16:11:19.000Z</time>
      </trkpt>
      <trkpt lat="43.497703112661838531494140625" lon="-5.36564723588526248931884765625">
        <ele>37</ele>
        <time>2019-07-11T16:11:21.000Z</time>
      </trkpt>
      <trkpt lat="43.49818431772291660308837890625" lon="-5.3651035018265247344970703125">
        <ele>40.40000152587890625</ele>
        <time>2019-07-11T16:11:23.000Z</time>
      </trkpt>
      <trkpt lat="43.4984271414577960968017578125" lon="-5.36483871750533580780029296875">
        <ele>43.40000152587890625</ele>
        <time>2019-07-11T16:11:24.000Z</time>
      </trkpt>
      <trkpt lat="43.49867164157330989837646484375" lon="-5.36457485519349575042724609375">
        <ele>45.40000152587890625</ele>
        <time>2019-07-11T16:11:25.000Z</time>
      </trkpt>
      <trkpt lat="43.4989149682223796844482421875" lon="-5.3643075563013553619384765625">
        <ele>46.799999237060546875</ele>
        <time>2019-07-11T16:11:26.000Z</time>
      </trkpt>
      <trkpt lat="43.49915460683405399322509765625" lon="-5.36403338424861431121826171875">
        <ele>48.200000762939453125</ele>
        <time>2019-07-11T16:11:27.000Z</time>
      </trkpt>
      <trkpt lat="43.49961644969880580902099609375" lon="-5.36345939151942729949951171875">
        <ele>50.200000762939453125</ele>
        <time>2019-07-11T16:11:29.000Z</time>
      </trkpt>
      <trkpt lat="43.500040657818317413330078125" lon="-5.36283510737121105194091796875">
        <ele>50.799999237060546875</ele>
        <time>2019-07-11T16:11:31.000Z</time>
      </trkpt>
      <trkpt lat="43.5002369619905948638916015625" lon="-5.36250620149075984954833984375">
        <ele>52</ele>
        <time>2019-07-11T16:11:32.000Z</time>
      </trkpt>
      <trkpt lat="43.500423543155193328857421875" lon="-5.3621681593358516693115234375">
        <ele>53.200000762939453125</ele>
        <time>2019-07-11T16:11:33.000Z</time>
      </trkpt>
      <trkpt lat="43.5006007365882396697998046875" lon="-5.3618194721639156341552734375">
        <ele>54.200000762939453125</ele>
        <time>2019-07-11T16:11:34.000Z</time>
      </trkpt>
      <trkpt lat="43.50076812319457530975341796875" lon="-5.3614627383649349212646484375">
        <ele>56.200000762939453125</ele>
        <time>2019-07-11T16:11:35.000Z</time>
      </trkpt>
      <trkpt lat="43.5009281337261199951171875" lon="-5.3610992990434169769287109375">
        <ele>58.799999237060546875</ele>
        <time>2019-07-11T16:11:36.000Z</time>
      </trkpt>
      <trkpt lat="43.50108361802995204925537109375" lon="-5.3607313334941864013671875">
        <ele>61.200000762939453125</ele>
        <time>2019-07-11T16:11:37.000Z</time>
      </trkpt>
      <trkpt lat="43.50123725831508636474609375" lon="-5.36036185920238494873046875">
        <ele>63</ele>
        <time>2019-07-11T16:11:38.000Z</time>
      </trkpt>
      <trkpt lat="43.5013896413147449493408203125" lon="-5.3599905408918857574462890625">
        <ele>64.8000030517578125</ele>
        <time>2019-07-11T16:11:39.000Z</time>
      </trkpt>
      <trkpt lat="43.50154101848602294921875" lon="-5.35961813293397426605224609375">
        <ele>66.8000030517578125</ele>
        <time>2019-07-11T16:11:40.000Z</time>
      </trkpt>
      <trkpt lat="43.5016913898289203643798828125" lon="-5.35924597643315792083740234375">
        <ele>69.59999847412109375</ele>
        <time>2019-07-11T16:11:41.000Z</time>
      </trkpt>
      <trkpt lat="43.50184268318116664886474609375" lon="-5.358873903751373291015625">
        <ele>72.1999969482421875</ele>
        <time>2019-07-11T16:11:42.000Z</time>
      </trkpt>
      <trkpt lat="43.5021466948091983795166015625" lon="-5.3581347875297069549560546875">
        <ele>72.59999847412109375</ele>
        <time>2019-07-11T16:11:44.000Z</time>
      </trkpt>
      <trkpt lat="43.5022985748946666717529296875" lon="-5.3577653132379055023193359375">
        <ele>73.59999847412109375</ele>
        <time>2019-07-11T16:11:45.000Z</time>
      </trkpt>
      <trkpt lat="43.5025973059237003326416015625" lon="-5.35702519118785858154296875">
        <ele>76</ele>
        <time>2019-07-11T16:11:47.000Z</time>
      </trkpt>
      <trkpt lat="43.502893857657909393310546875" lon="-5.35628699697554111480712890625">
        <ele>77.8000030517578125</ele>
        <time>2019-07-11T16:11:49.000Z</time>
      </trkpt>
      <trkpt lat="43.503040708601474761962890625" lon="-5.35591651685535907745361328125">
        <ele>79.1999969482421875</ele>
        <time>2019-07-11T16:11:50.000Z</time>
      </trkpt>
      <trkpt lat="43.503179848194122314453125" lon="-5.355540253221988677978515625">
        <ele>81.40000152587890625</ele>
        <time>2019-07-11T16:11:51.000Z</time>
      </trkpt>
      <trkpt lat="43.50330834276974201202392578125" lon="-5.3551588766276836395263671875">
        <ele>84.1999969482421875</ele>
        <time>2019-07-11T16:11:52.000Z</time>
      </trkpt>
      <trkpt lat="43.50342216901481151580810546875" lon="-5.35476819612085819244384765625">
        <ele>86.8000030517578125</ele>
        <time>2019-07-11T16:11:53.000Z</time>
      </trkpt>
      <trkpt lat="43.50351872853934764862060546875" lon="-5.3543703071773052215576171875">
        <ele>89.1999969482421875</ele>
        <time>2019-07-11T16:11:54.000Z</time>
      </trkpt>
      <trkpt lat="43.5035974346101284027099609375" lon="-5.35396344959735870361328125">
        <ele>92</ele>
        <time>2019-07-11T16:11:55.000Z</time>
      </trkpt>
      <trkpt lat="43.50365937687456607818603515625" lon="-5.353552065789699554443359375">
        <ele>93.59999847412109375</ele>
        <time>2019-07-11T16:11:56.000Z</time>
      </trkpt>
      <trkpt lat="43.50370547734200954437255859375" lon="-5.35313556902110576629638671875">
        <ele>95.40000152587890625</ele>
        <time>2019-07-11T16:11:57.000Z</time>
      </trkpt>
      <trkpt lat="43.50373162887990474700927734375" lon="-5.352715887129306793212890625">
        <ele>97.59999847412109375</ele>
        <time>2019-07-11T16:11:58.000Z</time>
      </trkpt>
      <trkpt lat="43.50374017842113971710205078125" lon="-5.3522966243326663970947265625">
        <ele>99.40000152587890625</ele>
        <time>2019-07-11T16:11:59.000Z</time>
      </trkpt>
      <trkpt lat="43.5037074051797389984130859375" lon="-5.35145633853971958160400390625">
        <ele>102</ele>
        <time>2019-07-11T16:12:01.000Z</time>
      </trkpt>
      <trkpt lat="43.50367379374802112579345703125" lon="-5.35103908739984035491943359375">
        <ele>104.1999969482421875</ele>
        <time>2019-07-11T16:12:02.000Z</time>
      </trkpt>
      <trkpt lat="43.50363473407924175262451171875" lon="-5.35062166862189769744873046875">
        <ele>106.59999847412109375</ele>
        <time>2019-07-11T16:12:03.000Z</time>
      </trkpt>
      <trkpt lat="43.50359617732465267181396484375" lon="-5.350205004215240478515625">
        <ele>109</ele>
        <time>2019-07-11T16:12:04.000Z</time>
      </trkpt>
      <trkpt lat="43.50356005132198333740234375" lon="-5.34978666342794895172119140625">
        <ele>110.1999969482421875</ele>
        <time>2019-07-11T16:12:05.000Z</time>
      </trkpt>
      <trkpt lat="43.50350665859878063201904296875" lon="-5.3489472158253192901611328125">
        <ele>109.59999847412109375</ele>
        <time>2019-07-11T16:12:07.000Z</time>
      </trkpt>
      <trkpt lat="43.50349140353500843048095703125" lon="-5.34852552227675914764404296875">
        <ele>107.40000152587890625</ele>
        <time>2019-07-11T16:12:08.000Z</time>
      </trkpt>
      <trkpt lat="43.5034884698688983917236328125" lon="-5.34810525365173816680908203125">
        <ele>106.1999969482421875</ele>
        <time>2019-07-11T16:12:09.000Z</time>
      </trkpt>
      <trkpt lat="43.50352727808058261871337890625" lon="-5.3472678177058696746826171875">
        <ele>105.1999969482421875</ele>
        <time>2019-07-11T16:12:11.000Z</time>
      </trkpt>
      <trkpt lat="43.5035726241767406463623046875" lon="-5.3468534164130687713623046875">
        <ele>107.8000030517578125</ele>
        <time>2019-07-11T16:12:12.000Z</time>
      </trkpt>
      <trkpt lat="43.503634147346019744873046875" lon="-5.346443541347980499267578125">
        <ele>109.1999969482421875</ele>
        <time>2019-07-11T16:12:13.000Z</time>
      </trkpt>
      <trkpt lat="43.503713943064212799072265625" lon="-5.34604079090058803558349609375">
        <ele>112.1999969482421875</ele>
        <time>2019-07-11T16:12:14.000Z</time>
      </trkpt>
      <trkpt lat="43.5038093291223049163818359375" lon="-5.3456427343189716339111328125">
        <ele>115</ele>
        <time>2019-07-11T16:12:15.000Z</time>
      </trkpt>
      <trkpt lat="43.50391946732997894287109375" lon="-5.34525188617408275604248046875">
        <ele>116.40000152587890625</ele>
        <time>2019-07-11T16:12:16.000Z</time>
      </trkpt>
      <trkpt lat="43.50418475456535816192626953125" lon="-5.3444890491664409637451171875">
        <ele>117.40000152587890625</ele>
        <time>2019-07-11T16:12:18.000Z</time>
      </trkpt>
      <trkpt lat="43.50433981977403163909912109375" lon="-5.3441209159791469573974609375">
        <ele>118.40000152587890625</ele>
        <time>2019-07-11T16:12:19.000Z</time>
      </trkpt>
      <trkpt lat="43.50451248697936534881591796875" lon="-5.343764685094356536865234375">
        <ele>120</ele>
        <time>2019-07-11T16:12:20.000Z</time>
      </trkpt>
      <trkpt lat="43.50470057688653469085693359375" lon="-5.34341842867434024810791015625">
        <ele>121.8000030517578125</ele>
        <time>2019-07-11T16:12:21.000Z</time>
      </trkpt>
      <trkpt lat="43.50489654578268527984619140625" lon="-5.34307611174881458282470703125">
        <ele>123.1999969482421875</ele>
        <time>2019-07-11T16:12:22.000Z</time>
      </trkpt>
      <trkpt lat="43.50509586744010448455810546875" lon="-5.34273169934749603271484375">
        <ele>124.8000030517578125</ele>
        <time>2019-07-11T16:12:23.000Z</time>
      </trkpt>
      <trkpt lat="43.50547573529183864593505859375" lon="-5.3420220874249935150146484375">
        <ele>126.1999969482421875</ele>
        <time>2019-07-11T16:12:25.000Z</time>
      </trkpt>
      <trkpt lat="43.5058159567415714263916015625" lon="-5.3412864916026592254638671875">
        <ele>126.8000030517578125</ele>
        <time>2019-07-11T16:12:27.000Z</time>
      </trkpt>
      <trkpt lat="43.5059668309986591339111328125" lon="-5.340913496911525726318359375">
        <ele>128.1999969482421875</ele>
        <time>2019-07-11T16:12:28.000Z</time>
      </trkpt>
      <trkpt lat="43.50621887482702732086181640625" lon="-5.34016021527349948883056640625">
        <ele>129.600006103515625</ele>
        <time>2019-07-11T16:12:30.000Z</time>
      </trkpt>
      <trkpt lat="43.5063165239989757537841796875" lon="-5.3397904895246028900146484375">
        <ele>131.600006103515625</ele>
        <time>2019-07-11T16:12:31.000Z</time>
      </trkpt>
      <trkpt lat="43.50639916956424713134765625" lon="-5.33942394889891147613525390625">
        <ele>133.600006103515625</ele>
        <time>2019-07-11T16:12:32.000Z</time>
      </trkpt>
      <trkpt lat="43.5064610280096530914306640625" lon="-5.339054726064205169677734375">
        <ele>135</ele>
        <time>2019-07-11T16:12:33.000Z</time>
      </trkpt>
      <trkpt lat="43.50650645792484283447265625" lon="-5.338682234287261962890625">
        <ele>137.600006103515625</ele>
        <time>2019-07-11T16:12:34.000Z</time>
      </trkpt>
      <trkpt lat="43.506539650261402130126953125" lon="-5.3383068926632404327392578125">
        <ele>140.399993896484375</ele>
        <time>2019-07-11T16:12:35.000Z</time>
      </trkpt>
      <trkpt lat="43.50656286813318729400634765625" lon="-5.33793180249631404876708984375">
        <ele>143.399993896484375</ele>
        <time>2019-07-11T16:12:36.000Z</time>
      </trkpt>
      <trkpt lat="43.50657309405505657196044921875" lon="-5.33755763433873653411865234375">
        <ele>144.8000030517578125</ele>
        <time>2019-07-11T16:12:37.000Z</time>
      </trkpt>
      <trkpt lat="43.50654560141265392303466796875" lon="-5.33680259250104427337646484375">
        <ele>144.399993896484375</ele>
        <time>2019-07-11T16:12:39.000Z</time>
      </trkpt>
      <trkpt lat="43.50645490922033786773681640625" lon="-5.33604587428271770477294921875">
        <ele>144</ele>
        <time>2019-07-11T16:12:41.000Z</time>
      </trkpt>
      <trkpt lat="43.50638818927109241485595703125" lon="-5.3356665931642055511474609375">
        <ele>143.600006103515625</ele>
        <time>2019-07-11T16:12:42.000Z</time>
      </trkpt>
      <trkpt lat="43.50621166639029979705810546875" lon="-5.33491850830614566802978515625">
        <ele>141.1999969482421875</ele>
        <time>2019-07-11T16:12:44.000Z</time>
      </trkpt>
      <trkpt lat="43.50610035471618175506591796875" lon="-5.3345564939081668853759765625">
        <ele>139.399993896484375</ele>
        <time>2019-07-11T16:12:45.000Z</time>
      </trkpt>
      <trkpt lat="43.5059778951108455657958984375" lon="-5.3342061303555965423583984375">
        <ele>137.8000030517578125</ele>
        <time>2019-07-11T16:12:46.000Z</time>
      </trkpt>
      <trkpt lat="43.50584638305008411407470703125" lon="-5.33387093804776668548583984375">
        <ele>134</ele>
        <time>2019-07-11T16:12:47.000Z</time>
      </trkpt>
      <trkpt lat="43.50570472888648509979248046875" lon="-5.33355477266013622283935546875">
        <ele>132.1999969482421875</ele>
        <time>2019-07-11T16:12:48.000Z</time>
      </trkpt>
      <trkpt lat="43.50539543665945529937744140625" lon="-5.3329773433506488800048828125">
        <ele>129.600006103515625</ele>
        <time>2019-07-11T16:12:50.000Z</time>
      </trkpt>
      <trkpt lat="43.505042977631092071533203125" lon="-5.33245640806853771209716796875">
        <ele>130.8000030517578125</ele>
        <time>2019-07-11T16:12:52.000Z</time>
      </trkpt>
      <trkpt lat="43.50485011003911495208740234375" lon="-5.3322105668485164642333984375">
        <ele>132.600006103515625</ele>
        <time>2019-07-11T16:12:53.000Z</time>
      </trkpt>
      <trkpt lat="43.5046498663723468780517578125" lon="-5.33197201788425445556640625">
        <ele>134.399993896484375</ele>
        <time>2019-07-11T16:12:54.000Z</time>
      </trkpt>
      <trkpt lat="43.5042264126241207122802734375" lon="-5.33152299933135509490966796875">
        <ele>134.1999969482421875</ele>
        <time>2019-07-11T16:12:56.000Z</time>
      </trkpt>
      <trkpt lat="43.5037632286548614501953125" lon="-5.3311313129961490631103515625">
        <ele>134</ele>
        <time>2019-07-11T16:12:58.000Z</time>
      </trkpt>
      <trkpt lat="43.50352090783417224884033203125" lon="-5.33095571212470531463623046875">
        <ele>133.1999969482421875</ele>
        <time>2019-07-11T16:12:59.000Z</time>
      </trkpt>
      <trkpt lat="43.5032715462148189544677734375" lon="-5.33079109154641628265380859375">
        <ele>132</ele>
        <time>2019-07-11T16:13:00.000Z</time>
      </trkpt>
      <trkpt lat="43.50301849655807018280029296875" lon="-5.33063636161386966705322265625">
        <ele>130.399993896484375</ele>
        <time>2019-07-11T16:13:01.000Z</time>
      </trkpt>
      <trkpt lat="43.50276268087327480316162109375" lon="-5.3304885886609554290771484375">
        <ele>129</ele>
        <time>2019-07-11T16:13:02.000Z</time>
      </trkpt>
      <trkpt lat="43.50250326097011566162109375" lon="-5.33034835942089557647705078125">
        <ele>127.8000030517578125</ele>
        <time>2019-07-11T16:13:03.000Z</time>
      </trkpt>
      <trkpt lat="43.501971848309040069580078125" lon="-5.33011383377015590667724609375">
        <ele>127</ele>
        <time>2019-07-11T16:13:05.000Z</time>
      </trkpt>
      <trkpt lat="43.50169985555112361907958984375" lon="-5.330015011131763458251953125">
        <ele>126.1999969482421875</ele>
        <time>2019-07-11T16:13:06.000Z</time>
      </trkpt>
      <trkpt lat="43.501147739589214324951171875" lon="-5.32985751517117023468017578125">
        <ele>124.8000030517578125</ele>
        <time>2019-07-11T16:13:08.000Z</time>
      </trkpt>
      <trkpt lat="43.5008691251277923583984375" lon="-5.3297945670783519744873046875">
        <ele>123.1999969482421875</ele>
        <time>2019-07-11T16:13:09.000Z</time>
      </trkpt>
      <trkpt lat="43.50030946545302867889404296875" lon="-5.32968568615615367889404296875">
        <ele>121</ele>
        <time>2019-07-11T16:13:11.000Z</time>
      </trkpt>
      <trkpt lat="43.5000295937061309814453125" lon="-5.329636819660663604736328125">
        <ele>119.1999969482421875</ele>
        <time>2019-07-11T16:13:12.000Z</time>
      </trkpt>
      <trkpt lat="43.49975106306374073028564453125" lon="-5.329587198793888092041015625">
        <ele>116.8000030517578125</ele>
        <time>2019-07-11T16:13:13.000Z</time>
      </trkpt>
      <trkpt lat="43.4994728676974773406982421875" lon="-5.32953632064163684844970703125">
        <ele>115</ele>
        <time>2019-07-11T16:13:14.000Z</time>
      </trkpt>
      <trkpt lat="43.49919349886476993560791015625" lon="-5.329483933746814727783203125">
        <ele>113.1999969482421875</ele>
        <time>2019-07-11T16:13:15.000Z</time>
      </trkpt>
      <trkpt lat="43.498914130032062530517578125" lon="-5.32942903228104114532470703125">
        <ele>112</ele>
        <time>2019-07-11T16:13:16.000Z</time>
      </trkpt>
      <trkpt lat="43.49835765548050403594970703125" lon="-5.32930464483797550201416015625">
        <ele>110.59999847412109375</ele>
        <time>2019-07-11T16:13:18.000Z</time>
      </trkpt>
      <trkpt lat="43.49808122031390666961669921875" lon="-5.32922350801527500152587890625">
        <ele>109.40000152587890625</ele>
        <time>2019-07-11T16:13:19.000Z</time>
      </trkpt>
      <trkpt lat="43.49780713208019733428955078125" lon="-5.3291263617575168609619140625">
        <ele>108</ele>
        <time>2019-07-11T16:13:20.000Z</time>
      </trkpt>
      <trkpt lat="43.4972707740962505340576171875" lon="-5.3288806043565273284912109375">
        <ele>106.8000030517578125</ele>
        <time>2019-07-11T16:13:22.000Z</time>
      </trkpt>
      <trkpt lat="43.497009761631488800048828125" lon="-5.32872931100428104400634765625">
        <ele>105.59999847412109375</ele>
        <time>2019-07-11T16:13:23.000Z</time>
      </trkpt>
      <trkpt lat="43.496753610670566558837890625" lon="-5.32856133766472339630126953125">
        <ele>104</ele>
        <time>2019-07-11T16:13:24.000Z</time>
      </trkpt>
      <trkpt lat="43.49650173448026180267333984375" lon="-5.328378193080425262451171875">
        <ele>102</ele>
        <time>2019-07-11T16:13:25.000Z</time>
      </trkpt>
      <trkpt lat="43.49625463597476482391357421875" lon="-5.32818264327943325042724609375">
        <ele>100.1999969482421875</ele>
        <time>2019-07-11T16:13:26.000Z</time>
      </trkpt>
      <trkpt lat="43.4960124827921390533447265625" lon="-5.3279726766049861907958984375">
        <ele>98</ele>
        <time>2019-07-11T16:13:27.000Z</time>
      </trkpt>
      <trkpt lat="43.49577452056109905242919921875" lon="-5.32774619758129119873046875">
        <ele>96.40000152587890625</ele>
        <time>2019-07-11T16:13:28.000Z</time>
      </trkpt>
      <trkpt lat="43.49554200656712055206298828125" lon="-5.3275042958557605743408203125">
        <ele>95</ele>
        <time>2019-07-11T16:13:29.000Z</time>
      </trkpt>
      <trkpt lat="43.49510036408901214599609375" lon="-5.32698319293558597564697265625">
        <ele>92.8000030517578125</ele>
        <time>2019-07-11T16:13:31.000Z</time>
      </trkpt>
      <trkpt lat="43.4946898184716701507568359375" lon="-5.3264009021222591400146484375">
        <ele>90.59999847412109375</ele>
        <time>2019-07-11T16:13:33.000Z</time>
      </trkpt>
      <trkpt lat="43.4945020638406276702880859375" lon="-5.32608616165816783905029296875">
        <ele>88.1999969482421875</ele>
        <time>2019-07-11T16:13:34.000Z</time>
      </trkpt>
      <trkpt lat="43.49432830698788166046142578125" lon="-5.3257606923580169677734375">
        <ele>85</ele>
        <time>2019-07-11T16:13:35.000Z</time>
      </trkpt>
      <trkpt lat="43.494165949523448944091796875" lon="-5.325425751507282257080078125">
        <ele>81.40000152587890625</ele>
        <time>2019-07-11T16:13:36.000Z</time>
      </trkpt>
      <trkpt lat="43.49401415325701236724853515625" lon="-5.32508812844753265380859375">
        <ele>78.59999847412109375</ele>
        <time>2019-07-11T16:13:37.000Z</time>
      </trkpt>
      <trkpt lat="43.49387216381728649139404296875" lon="-5.3247503377497196197509765625">
        <ele>76.40000152587890625</ele>
        <time>2019-07-11T16:13:38.000Z</time>
      </trkpt>
      <trkpt lat="43.49373503588140010833740234375" lon="-5.3244160674512386322021484375">
        <ele>75.40000152587890625</ele>
        <time>2019-07-11T16:13:39.000Z</time>
      </trkpt>
      <trkpt lat="43.49346916191279888153076171875" lon="-5.32374107278883457183837890625">
        <ele>74.8000030517578125</ele>
        <time>2019-07-11T16:13:41.000Z</time>
      </trkpt>
      <trkpt lat="43.4931924752891063690185546875" lon="-5.32307554967701435089111328125">
        <ele>72</ele>
        <time>2019-07-11T16:13:43.000Z</time>
      </trkpt>
      <trkpt lat="43.49304042756557464599609375" lon="-5.3227541036903858184814453125">
        <ele>69.1999969482421875</ele>
        <time>2019-07-11T16:13:44.000Z</time>
      </trkpt>
      <trkpt lat="43.49287815392017364501953125" lon="-5.32244036905467510223388671875">
        <ele>67</ele>
        <time>2019-07-11T16:13:45.000Z</time>
      </trkpt>
      <trkpt lat="43.4927056543529033660888671875" lon="-5.32213610596954822540283203125">
        <ele>63.799999237060546875</ele>
        <time>2019-07-11T16:13:46.000Z</time>
      </trkpt>
      <trkpt lat="43.49252133630216121673583984375" lon="-5.32184273935854434967041015625">
        <ele>60.799999237060546875</ele>
        <time>2019-07-11T16:13:47.000Z</time>
      </trkpt>
      <trkpt lat="43.492110706865787506103515625" lon="-5.32129003666341304779052734375">
        <ele>59.799999237060546875</ele>
        <time>2019-07-11T16:13:49.000Z</time>
      </trkpt>
      <trkpt lat="43.4918872453272342681884765625" lon="-5.32103187404572963714599609375">
        <ele>59.799999237060546875</ele>
        <time>2019-07-11T16:13:50.000Z</time>
      </trkpt>
      <trkpt lat="43.4914098121225833892822265625" lon="-5.3205577097833156585693359375">
        <ele>58.59999847412109375</ele>
        <time>2019-07-11T16:13:52.000Z</time>
      </trkpt>
      <trkpt lat="43.490917123854160308837890625" lon="-5.32010198570787906646728515625">
        <ele>56.799999237060546875</ele>
        <time>2019-07-11T16:13:54.000Z</time>
      </trkpt>
      <trkpt lat="43.49067312665283679962158203125" lon="-5.31987416557967662811279296875">
        <ele>55.200000762939453125</ele>
        <time>2019-07-11T16:13:55.000Z</time>
      </trkpt>
      <trkpt lat="43.49043256603181362152099609375" lon="-5.31964248977601528167724609375">
        <ele>54</ele>
        <time>2019-07-11T16:13:56.000Z</time>
      </trkpt>
      <trkpt lat="43.4901961125433444976806640625" lon="-5.31940695829689502716064453125">
        <ele>52.59999847412109375</ele>
        <time>2019-07-11T16:13:57.000Z</time>
      </trkpt>
      <trkpt lat="43.4899647720158100128173828125" lon="-5.31916849315166473388671875">
        <ele>51.200000762939453125</ele>
        <time>2019-07-11T16:13:58.000Z</time>
      </trkpt>
      <trkpt lat="43.48974072374403476715087890625" lon="-5.318925082683563232421875">
        <ele>47.799999237060546875</ele>
        <time>2019-07-11T16:13:59.000Z</time>
      </trkpt>
      <trkpt lat="43.48952782340347766876220703125" lon="-5.3186784870922565460205078125">
        <ele>44</ele>
        <time>2019-07-11T16:14:00.000Z</time>
      </trkpt>
      <trkpt lat="43.48932246677577495574951171875" lon="-5.31842057593166828155517578125">
        <ele>41.40000152587890625</ele>
        <time>2019-07-11T16:14:01.000Z</time>
      </trkpt>
      <trkpt lat="43.48912431858479976654052734375" lon="-5.318149589002132415771484375">
        <ele>39.40000152587890625</ele>
        <time>2019-07-11T16:14:02.000Z</time>
      </trkpt>
      <trkpt lat="43.488933630287647247314453125" lon="-5.31786762177944183349609375">
        <ele>38</ele>
        <time>2019-07-11T16:14:03.000Z</time>
      </trkpt>
      <trkpt lat="43.48857245407998561859130859375" lon="-5.31726420857012271881103515625">
        <ele>37.40000152587890625</ele>
        <time>2019-07-11T16:14:05.000Z</time>
      </trkpt>
      <trkpt lat="43.4882377646863460540771484375" lon="-5.3165900520980358123779296875">
        <ele>36.799999237060546875</ele>
        <time>2019-07-11T16:14:07.000Z</time>
      </trkpt>
      <trkpt lat="43.487933836877346038818359375" lon="-5.31585487537086009979248046875">
        <ele>35.59999847412109375</ele>
        <time>2019-07-11T16:14:09.000Z</time>
      </trkpt>
      <trkpt lat="43.48766989074647426605224609375" lon="-5.31507083214819431304931640625">
        <ele>36.799999237060546875</ele>
        <time>2019-07-11T16:14:11.000Z</time>
      </trkpt>
      <trkpt lat="43.48742522299289703369140625" lon="-5.31425057910382747650146484375">
        <ele>37</ele>
        <time>2019-07-11T16:14:13.000Z</time>
      </trkpt>
      <trkpt lat="43.48717384971678256988525390625" lon="-5.3134330920875072479248046875">
        <ele>35.799999237060546875</ele>
        <time>2019-07-11T16:14:15.000Z</time>
      </trkpt>
      <trkpt lat="43.486898504197597503662109375" lon="-5.3126368112862110137939453125">
        <ele>31.799999237060546875</ele>
        <time>2019-07-11T16:14:17.000Z</time>
      </trkpt>
      <trkpt lat="43.48675073124468326568603515625" lon="-5.31225400976836681365966796875">
        <ele>29.3999996185302734375</ele>
        <time>2019-07-11T16:14:18.000Z</time>
      </trkpt>
      <trkpt lat="43.486596085131168365478515625" lon="-5.3118829429149627685546875">
        <ele>28.200000762939453125</ele>
        <time>2019-07-11T16:14:19.000Z</time>
      </trkpt>
      <trkpt lat="43.48626072518527507781982421875" lon="-5.31116880476474761962890625">
        <ele>29.6000003814697265625</ele>
        <time>2019-07-11T16:14:21.000Z</time>
      </trkpt>
      <trkpt lat="43.4858878143131732940673828125" lon="-5.3104866854846477508544921875">
        <ele>30.6000003814697265625</ele>
        <time>2019-07-11T16:14:23.000Z</time>
      </trkpt>
      <trkpt lat="43.4854777716100215911865234375" lon="-5.30983817763626575469970703125">
        <ele>32.59999847412109375</ele>
        <time>2019-07-11T16:14:25.000Z</time>
      </trkpt>
      <trkpt lat="43.4852621890604496002197265625" lon="-5.3095257841050624847412109375">
        <ele>31.3999996185302734375</ele>
        <time>2019-07-11T16:14:26.000Z</time>
      </trkpt>
      <trkpt lat="43.48481669090688228607177734375" lon="-5.30890577472746372222900390625">
        <ele>31</ele>
        <time>2019-07-11T16:14:28.000Z</time>
      </trkpt>
      <trkpt lat="43.48435677587985992431640625" lon="-5.308258272707462310791015625">
        <ele>30</ele>
        <time>2019-07-11T16:14:30.000Z</time>
      </trkpt>
      <trkpt lat="43.48412551917135715484619140625" lon="-5.30791888944804668426513671875">
        <ele>28.6000003814697265625</ele>
        <time>2019-07-11T16:14:31.000Z</time>
      </trkpt>
      <trkpt lat="43.48390188999474048614501953125" lon="-5.30757556669414043426513671875">
        <ele>26.799999237060546875</ele>
        <time>2019-07-11T16:14:32.000Z</time>
      </trkpt>
      <trkpt lat="43.4836907498538494110107421875" lon="-5.3072271309792995452880859375">
        <ele>25.799999237060546875</ele>
        <time>2019-07-11T16:14:33.000Z</time>
      </trkpt>
      <trkpt lat="43.48349084146320819854736328125" lon="-5.306873582303524017333984375">
        <ele>23</ele>
        <time>2019-07-11T16:14:34.000Z</time>
      </trkpt>
      <trkpt lat="43.48330409266054630279541015625" lon="-5.30651575885713100433349609375">
        <ele>19.200000762939453125</ele>
        <time>2019-07-11T16:14:35.000Z</time>
      </trkpt>
      <trkpt lat="43.48312974907457828521728515625" lon="-5.30615500174462795257568359375">
        <ele>17.200000762939453125</ele>
        <time>2019-07-11T16:14:36.000Z</time>
      </trkpt>
      <trkpt lat="43.48281274549663066864013671875" lon="-5.30541605316102504730224609375">
        <ele>15.80000019073486328125</ele>
        <time>2019-07-11T16:14:38.000Z</time>
      </trkpt>
      <trkpt lat="43.48266832530498504638671875" lon="-5.30503149144351482391357421875">
        <ele>17.6000003814697265625</ele>
        <time>2019-07-11T16:14:39.000Z</time>
      </trkpt>
      <trkpt lat="43.482530526816844940185546875" lon="-5.3046330995857715606689453125">
        <ele>18.799999237060546875</ele>
        <time>2019-07-11T16:14:40.000Z</time>
      </trkpt>
      <trkpt lat="43.4822728671133518218994140625" lon="-5.3038213960826396942138671875">
        <ele>19.799999237060546875</ele>
        <time>2019-07-11T16:14:42.000Z</time>
      </trkpt>
      <trkpt lat="43.4821525029838085174560546875" lon="-5.3034207411110401153564453125">
        <ele>20.200000762939453125</ele>
        <time>2019-07-11T16:14:43.000Z</time>
      </trkpt>
      <trkpt lat="43.482035659253597259521484375" lon="-5.303025282919406890869140625">
        <ele>21.799999237060546875</ele>
        <time>2019-07-11T16:14:44.000Z</time>
      </trkpt>
      <trkpt lat="43.48181177861988544464111328125" lon="-5.3022404015064239501953125">
        <ele>21.3999996185302734375</ele>
        <time>2019-07-11T16:14:46.000Z</time>
      </trkpt>
      <trkpt lat="43.48159820772707462310791015625" lon="-5.3014543466269969940185546875">
        <ele>24.799999237060546875</ele>
        <time>2019-07-11T16:14:48.000Z</time>
      </trkpt>
      <trkpt lat="43.4814967028796672821044921875" lon="-5.30106266029179096221923828125">
        <ele>26</ele>
        <time>2019-07-11T16:14:49.000Z</time>
      </trkpt>
      <trkpt lat="43.4813962876796722412109375" lon="-5.30067055486142635345458984375">
        <ele>27.200000762939453125</ele>
        <time>2019-07-11T16:14:50.000Z</time>
      </trkpt>
      <trkpt lat="43.48119939677417278289794921875" lon="-5.29987880028784275054931640625">
        <ele>26.799999237060546875</ele>
        <time>2019-07-11T16:14:52.000Z</time>
      </trkpt>
      <trkpt lat="43.48110401071608066558837890625" lon="-5.29948032461106777191162109375">
        <ele>25.799999237060546875</ele>
        <time>2019-07-11T16:14:53.000Z</time>
      </trkpt>
      <trkpt lat="43.4810100495815277099609375" lon="-5.29908084310591220855712890625">
        <ele>24.200000762939453125</ele>
        <time>2019-07-11T16:14:54.000Z</time>
      </trkpt>
      <trkpt lat="43.48091692663729190826416015625" lon="-5.2986796014010906219482421875">
        <ele>22.6000003814697265625</ele>
        <time>2019-07-11T16:14:55.000Z</time>
      </trkpt>
      <trkpt lat="43.48082673735916614532470703125" lon="-5.2982760965824127197265625">
        <ele>21</ele>
        <time>2019-07-11T16:14:56.000Z</time>
      </trkpt>
      <trkpt lat="43.48073738627135753631591796875" lon="-5.2978665567934513092041015625">
        <ele>19</ele>
        <time>2019-07-11T16:14:57.000Z</time>
      </trkpt>
      <trkpt lat="43.4806514717638492584228515625" lon="-5.2974555082619190216064453125">
        <ele>16.799999237060546875</ele>
        <time>2019-07-11T16:14:58.000Z</time>
      </trkpt>
      <trkpt lat="43.48057410679757595062255859375" lon="-5.29704135842621326446533203125">
        <ele>15.80000019073486328125</ele>
        <time>2019-07-11T16:14:59.000Z</time>
      </trkpt>
      <trkpt lat="43.4805059619247913360595703125" lon="-5.29662226326763629913330078125">
        <ele>13.6000003814697265625</ele>
        <time>2019-07-11T16:15:00.000Z</time>
      </trkpt>
      <trkpt lat="43.48045139573514461517333984375" lon="-5.2961952053010463714599609375">
        <ele>12.6000003814697265625</ele>
        <time>2019-07-11T16:15:01.000Z</time>
      </trkpt>
      <trkpt lat="43.48041451536118984222412109375" lon="-5.2957643754780292510986328125">
        <ele>11.3999996185302734375</ele>
        <time>2019-07-11T16:15:02.000Z</time>
      </trkpt>
      <trkpt lat="43.480388112366199493408203125" lon="-5.29489123262465000152587890625">
        <ele>11.6000003814697265625</ele>
        <time>2019-07-11T16:15:04.000Z</time>
      </trkpt>
      <trkpt lat="43.480422310531139373779296875" lon="-5.29400995932519435882568359375">
        <ele>10.6000003814697265625</ele>
        <time>2019-07-11T16:15:06.000Z</time>
      </trkpt>
      <trkpt lat="43.48052700050175189971923828125" lon="-5.29314058832824230194091796875">
        <ele>9.6000003814697265625</ele>
        <time>2019-07-11T16:15:08.000Z</time>
      </trkpt>
      <trkpt lat="43.48060629330575466156005859375" lon="-5.292711518704891204833984375">
        <ele>8</ele>
        <time>2019-07-11T16:15:09.000Z</time>
      </trkpt>
      <trkpt lat="43.4808154217898845672607421875" lon="-5.29187810607254505157470703125">
        <ele>4</ele>
        <time>2019-07-11T16:15:11.000Z</time>
      </trkpt>
      <trkpt lat="43.4809381328523159027099609375" lon="-5.291470997035503387451171875">
        <ele>2.2000000476837158203125</ele>
        <time>2019-07-11T16:15:12.000Z</time>
      </trkpt>
      <trkpt lat="43.4812177531421184539794921875" lon="-5.2906768955290317535400390625">
        <ele>2.2000000476837158203125</ele>
        <time>2019-07-11T16:15:14.000Z</time>
      </trkpt>
      <trkpt lat="43.4815008938312530517578125" lon="-5.28989159502089023590087890625">
        <ele>5</ele>
        <time>2019-07-11T16:15:16.000Z</time>
      </trkpt>
      <trkpt lat="43.4817501716315746307373046875" lon="-5.28909020125865936279296875">
        <ele>5.19999980926513671875</ele>
        <time>2019-07-11T16:15:18.000Z</time>
      </trkpt>
      <trkpt lat="43.48195259459316730499267578125" lon="-5.2882696129381656646728515625">
        <ele>6</ele>
        <time>2019-07-11T16:15:20.000Z</time>
      </trkpt>
      <trkpt lat="43.482035659253597259521484375" lon="-5.28785143978893756866455078125">
        <ele>4.599999904632568359375</ele>
        <time>2019-07-11T16:15:21.000Z</time>
      </trkpt>
      <trkpt lat="43.48215778358280658721923828125" lon="-5.28700905852019786834716796875">
        <ele>4</ele>
        <time>2019-07-11T16:15:23.000Z</time>
      </trkpt>
      <trkpt lat="43.48221343941986560821533203125" lon="-5.2861580438911914825439453125">
        <ele>4.400000095367431640625</ele>
        <time>2019-07-11T16:15:25.000Z</time>
      </trkpt>
      <trkpt lat="43.4822009503841400146484375" lon="-5.285305939614772796630859375">
        <ele>5.80000019073486328125</ele>
        <time>2019-07-11T16:15:27.000Z</time>
      </trkpt>
      <trkpt lat="43.48212392069399356842041015625" lon="-5.284471102058887481689453125">
        <ele>6.80000019073486328125</ele>
        <time>2019-07-11T16:15:29.000Z</time>
      </trkpt>
      <trkpt lat="43.48199106752872467041015625" lon="-5.28365110047161579132080078125">
        <ele>6.400000095367431640625</ele>
        <time>2019-07-11T16:15:31.000Z</time>
      </trkpt>
      <trkpt lat="43.48180557601153850555419921875" lon="-5.2828562445938587188720703125">
        <ele>6.400000095367431640625</ele>
        <time>2019-07-11T16:15:33.000Z</time>
      </trkpt>
      <trkpt lat="43.481574319303035736083984375" lon="-5.2820810861885547637939453125">
        <ele>5.599999904632568359375</ele>
        <time>2019-07-11T16:15:35.000Z</time>
      </trkpt>
      <trkpt lat="43.48132210783660411834716796875" lon="-5.28131087310612201690673828125">
        <ele>4.400000095367431640625</ele>
        <time>2019-07-11T16:15:37.000Z</time>
      </trkpt>
      <trkpt lat="43.48107081837952136993408203125" lon="-5.280532948672771453857421875">
        <ele>2.400000095367431640625</ele>
        <time>2019-07-11T16:15:39.000Z</time>
      </trkpt>
      <trkpt lat="43.480835370719432830810546875" lon="-5.2797512523829936981201171875">
        <ele>1.39999997615814208984375</ele>
        <time>2019-07-11T16:15:41.000Z</time>
      </trkpt>
      <trkpt lat="43.48062758333981037139892578125" lon="-5.2789588272571563720703125">
        <ele>1.39999997615814208984375</ele>
        <time>2019-07-11T16:15:43.000Z</time>
      </trkpt>
      <trkpt lat="43.48045961000025272369384765625" lon="-5.2781472913920879364013671875">
        <ele>3.2000000476837158203125</ele>
        <time>2019-07-11T16:15:45.000Z</time>
      </trkpt>
      <trkpt lat="43.480390794575214385986328125" lon="-5.2777359075844287872314453125">
        <ele>4.80000019073486328125</ele>
        <time>2019-07-11T16:15:46.000Z</time>
      </trkpt>
      <trkpt lat="43.48027202300727367401123046875" lon="-5.27691188268363475799560546875">
        <ele>5.19999980926513671875</ele>
        <time>2019-07-11T16:15:48.000Z</time>
      </trkpt>
      <trkpt lat="43.48022776655852794647216796875" lon="-5.27649882249534130096435546875">
        <ele>6.19999980926513671875</ele>
        <time>2019-07-11T16:15:49.000Z</time>
      </trkpt>
      <trkpt lat="43.4801944904029369354248046875" lon="-5.27608391828835010528564453125">
        <ele>8.19999980926513671875</ele>
        <time>2019-07-11T16:15:50.000Z</time>
      </trkpt>
      <trkpt lat="43.48017060197889804840087890625" lon="-5.2756665833294391632080078125">
        <ele>9.3999996185302734375</ele>
        <time>2019-07-11T16:15:51.000Z</time>
      </trkpt>
      <trkpt lat="43.4801545925438404083251953125" lon="-5.27483132667839527130126953125">
        <ele>10.3999996185302734375</ele>
        <time>2019-07-11T16:15:53.000Z</time>
      </trkpt>
      <trkpt lat="43.48015869967639446258544921875" lon="-5.274416171014308929443359375">
        <ele>10.6000003814697265625</ele>
        <time>2019-07-11T16:15:54.000Z</time>
      </trkpt>
      <trkpt lat="43.480200357735157012939453125" lon="-5.273591391742229461669921875">
        <ele>10.6000003814697265625</ele>
        <time>2019-07-11T16:15:56.000Z</time>
      </trkpt>
      <trkpt lat="43.48027990199625492095947265625" lon="-5.2727657742798328399658203125">
        <ele>10.19999980926513671875</ele>
        <time>2019-07-11T16:15:58.000Z</time>
      </trkpt>
      <trkpt lat="43.48039892502129077911376953125" lon="-5.27194686233997344970703125">
        <ele>11.6000003814697265625</ele>
        <time>2019-07-11T16:16:00.000Z</time>
      </trkpt>
      <trkpt lat="43.48047352395951747894287109375" lon="-5.27154344134032726287841796875">
        <ele>13</ele>
        <time>2019-07-11T16:16:01.000Z</time>
      </trkpt>
      <trkpt lat="43.48055751062929630279541015625" lon="-5.27114161290228366851806640625">
        <ele>14.19999980926513671875</ele>
        <time>2019-07-11T16:16:02.000Z</time>
      </trkpt>
      <trkpt lat="43.48075456917285919189453125" lon="-5.270339213311672210693359375">
        <ele>15.3999996185302734375</ele>
        <time>2019-07-11T16:16:04.000Z</time>
      </trkpt>
      <trkpt lat="43.4809867478907108306884765625" lon="-5.26952524669468402862548828125">
        <ele>15.3999996185302734375</ele>
        <time>2019-07-11T16:16:06.000Z</time>
      </trkpt>
      <trkpt lat="43.48111021332442760467529296875" lon="-5.269104726612567901611328125">
        <ele>13.80000019073486328125</ele>
        <time>2019-07-11T16:16:07.000Z</time>
      </trkpt>
      <trkpt lat="43.48123191855847835540771484375" lon="-5.26868185959756374359130859375">
        <ele>12.6000003814697265625</ele>
        <time>2019-07-11T16:16:08.000Z</time>
      </trkpt>
      <trkpt lat="43.48135001957416534423828125" lon="-5.26826309971511363983154296875">
        <ele>11.3999996185302734375</ele>
        <time>2019-07-11T16:16:09.000Z</time>
      </trkpt>
      <trkpt lat="43.48146376200020313262939453125" lon="-5.26784978806972503662109375">
        <ele>10</ele>
        <time>2019-07-11T16:16:10.000Z</time>
      </trkpt>
      <trkpt lat="43.48166308365762233734130859375" lon="-5.2670308761298656463623046875">
        <ele>7.400000095367431640625</ele>
        <time>2019-07-11T16:16:12.000Z</time>
      </trkpt>
      <trkpt lat="43.4817478246986865997314453125" lon="-5.2666265331208705902099609375">
        <ele>6.19999980926513671875</ele>
        <time>2019-07-11T16:16:13.000Z</time>
      </trkpt>
      <trkpt lat="43.48187732510268688201904296875" lon="-5.26581105776131153106689453125">
        <ele>6.80000019073486328125</ele>
        <time>2019-07-11T16:16:15.000Z</time>
      </trkpt>
      <trkpt lat="43.48197723738849163055419921875" lon="-5.2649940736591815948486328125">
        <ele>9.6000003814697265625</ele>
        <time>2019-07-11T16:16:17.000Z</time>
      </trkpt>
      <trkpt lat="43.48201428540050983428955078125" lon="-5.26460037566721439361572265625">
        <ele>11</ele>
        <time>2019-07-11T16:16:18.000Z</time>
      </trkpt>
      <trkpt lat="43.4820633195340633392333984375" lon="-5.26386025361716747283935546875">
        <ele>14</ele>
        <time>2019-07-11T16:16:20.000Z</time>
      </trkpt>
      <trkpt lat="43.48208117298781871795654296875" lon="-5.26314561255276203155517578125">
        <ele>16</ele>
        <time>2019-07-11T16:16:22.000Z</time>
      </trkpt>
      <trkpt lat="43.4820807538926601409912109375" lon="-5.2627909742295742034912109375">
        <ele>17.200000762939453125</ele>
        <time>2019-07-11T16:16:23.000Z</time>
      </trkpt>
      <trkpt lat="43.48206005059182643890380859375" lon="-5.26208396069705486297607421875">
        <ele>20</ele>
        <time>2019-07-11T16:16:25.000Z</time>
      </trkpt>
      <trkpt lat="43.48204026930034160614013671875" lon="-5.261730663478374481201171875">
        <ele>22.3999996185302734375</ele>
        <time>2019-07-11T16:16:26.000Z</time>
      </trkpt>
      <trkpt lat="43.48201160319149494171142578125" lon="-5.2613761089742183685302734375">
        <ele>25.200000762939453125</ele>
        <time>2019-07-11T16:16:27.000Z</time>
      </trkpt>
      <trkpt lat="43.481972627341747283935546875" lon="-5.26101878844201564788818359375">
        <ele>26.799999237060546875</ele>
        <time>2019-07-11T16:16:28.000Z</time>
      </trkpt>
      <trkpt lat="43.48187497816979885101318359375" lon="-5.260319821536540985107421875">
        <ele>28.6000003814697265625</ele>
        <time>2019-07-11T16:16:30.000Z</time>
      </trkpt>
      <trkpt lat="43.48175897262990474700927734375" lon="-5.259696878492832183837890625">
        <ele>29.3999996185302734375</ele>
        <time>2019-07-11T16:16:32.000Z</time>
      </trkpt>
      <trkpt lat="43.48169409669935703277587890625" lon="-5.2594137378036975860595703125">
        <ele>30.3999996185302734375</ele>
        <time>2019-07-11T16:16:33.000Z</time>
      </trkpt>
      <trkpt lat="43.4815644286572933197021484375" lon="-5.25889565236866474151611328125">
        <ele>32</ele>
        <time>2019-07-11T16:16:35.000Z</time>
      </trkpt>
      <trkpt lat="43.4815008938312530517578125" lon="-5.2586546726524829864501953125">
        <ele>33.59999847412109375</ele>
        <time>2019-07-11T16:16:36.000Z</time>
      </trkpt>
      <trkpt lat="43.4814363531768321990966796875" lon="-5.25841905735433101654052734375">
        <ele>36.799999237060546875</ele>
        <time>2019-07-11T16:16:37.000Z</time>
      </trkpt>
      <trkpt lat="43.48137122578918933868408203125" lon="-5.2581856213510036468505859375">
        <ele>40.59999847412109375</ele>
        <time>2019-07-11T16:16:38.000Z</time>
      </trkpt>
      <trkpt lat="43.48130366764962673187255859375" lon="-5.25795419700443744659423828125">
        <ele>44.59999847412109375</ele>
        <time>2019-07-11T16:16:39.000Z</time>
      </trkpt>
      <trkpt lat="43.48123242147266864776611328125" lon="-5.25772587396204471588134765625">
        <ele>46.799999237060546875</ele>
        <time>2019-07-11T16:16:40.000Z</time>
      </trkpt>
      <trkpt lat="43.48115882836282253265380859375" lon="-5.2575076930224895477294921875">
        <ele>47.799999237060546875</ele>
        <time>2019-07-11T16:16:41.000Z</time>
      </trkpt>
      <trkpt lat="43.48092732019722461700439453125" lon="-5.2569273300468921661376953125">
        <ele>49</ele>
        <time>2019-07-11T16:16:44.000Z</time>
      </trkpt>
      <trkpt lat="43.48077393136918544769287109375" lon="-5.2566165290772914886474609375">
        <ele>50.200000762939453125</ele>
        <time>2019-07-11T16:16:46.000Z</time>
      </trkpt>
      <trkpt lat="43.48069665022194385528564453125" lon="-5.2564797364175319671630859375">
        <ele>51.799999237060546875</ele>
        <time>2019-07-11T16:16:47.000Z</time>
      </trkpt>
      <trkpt lat="43.4806196205317974090576171875" lon="-5.25634855963289737701416015625">
        <ele>53.799999237060546875</ele>
        <time>2019-07-11T16:16:48.000Z</time>
      </trkpt>
      <trkpt lat="43.48054108209908008575439453125" lon="-5.25622216053307056427001953125">
        <ele>55</ele>
        <time>2019-07-11T16:16:49.000Z</time>
      </trkpt>
      <trkpt lat="43.4803676605224609375" lon="-5.25598579086363315582275390625">
        <ele>56.59999847412109375</ele>
        <time>2019-07-11T16:16:51.000Z</time>
      </trkpt>
      <trkpt lat="43.479997180402278900146484375" lon="-5.25554515421390533447265625">
        <ele>54.799999237060546875</ele>
        <time>2019-07-11T16:16:55.000Z</time>
      </trkpt>
      <trkpt lat="43.4799165464937686920166015625" lon="-5.2554651908576488494873046875">
        <ele>53.40000152587890625</ele>
        <time>2019-07-11T16:16:56.000Z</time>
      </trkpt>
      <trkpt lat="43.4798417799174785614013671875" lon="-5.25540878064930438995361328125">
        <ele>52.59999847412109375</ele>
        <time>2019-07-11T16:16:57.000Z</time>
      </trkpt>
      <trkpt lat="43.4797696955502033233642578125" lon="-5.25537625886499881744384765625">
        <ele>52.40000152587890625</ele>
        <time>2019-07-11T16:16:58.000Z</time>
      </trkpt>
      <trkpt lat="43.47969702444970607757568359375" lon="-5.25537173263728618621826171875">
        <ele>52.200000762939453125</ele>
        <time>2019-07-11T16:16:59.000Z</time>
      </trkpt>
      <trkpt lat="43.4795383550226688385009765625" lon="-5.25540391914546489715576171875">
        <ele>53.59999847412109375</ele>
        <time>2019-07-11T16:17:01.000Z</time>
      </trkpt>
      <trkpt lat="43.4793586470186710357666015625" lon="-5.25535874068737030029296875">
        <ele>54.799999237060546875</ele>
        <time>2019-07-11T16:17:03.000Z</time>
      </trkpt>
      <trkpt lat="43.47915169782936573028564453125" lon="-5.2552589960396289825439453125">
        <ele>55</ele>
        <time>2019-07-11T16:17:05.000Z</time>
      </trkpt>
      <trkpt lat="43.47874148748815059661865234375" lon="-5.2551952935755252838134765625">
        <ele>53.200000762939453125</ele>
        <time>2019-07-11T16:17:08.000Z</time>
      </trkpt>
      <trkpt lat="43.4785754419863224029541015625" lon="-5.2551461756229400634765625">
        <ele>52.200000762939453125</ele>
        <time>2019-07-11T16:17:09.000Z</time>
      </trkpt>
      <trkpt lat="43.47840537317097187042236328125" lon="-5.25507283397018909454345703125">
        <ele>51</ele>
        <time>2019-07-11T16:17:10.000Z</time>
      </trkpt>
      <trkpt lat="43.477930538356304168701171875" lon="-5.25478986091911792755126953125">
        <ele>52.59999847412109375</ele>
        <time>2019-07-11T16:17:13.000Z</time>
      </trkpt>
      <trkpt lat="43.477781005203723907470703125" lon="-5.25468885898590087890625">
        <ele>54.799999237060546875</ele>
        <time>2019-07-11T16:17:14.000Z</time>
      </trkpt>
      <trkpt lat="43.47763809375464916229248046875" lon="-5.25459255091845989227294921875">
        <ele>57.40000152587890625</ele>
        <time>2019-07-11T16:17:15.000Z</time>
      </trkpt>
      <trkpt lat="43.4774971939623355865478515625" lon="-5.25450579822063446044921875">
        <ele>59.59999847412109375</ele>
        <time>2019-07-11T16:17:16.000Z</time>
      </trkpt>
      <trkpt lat="43.477347828447818756103515625" lon="-5.2544352225959300994873046875">
        <ele>60.799999237060546875</ele>
        <time>2019-07-11T16:17:17.000Z</time>
      </trkpt>
      <trkpt lat="43.476891852915287017822265625" lon="-5.25429532863199710845947265625">
        <ele>61.799999237060546875</ele>
        <time>2019-07-11T16:17:20.000Z</time>
      </trkpt>
      <trkpt lat="43.47674458287656307220458984375" lon="-5.25425107218325138092041015625">
        <ele>62.200000762939453125</ele>
        <time>2019-07-11T16:17:21.000Z</time>
      </trkpt>
      <trkpt lat="43.47659622319042682647705078125" lon="-5.25420128367841243743896484375">
        <ele>63.40000152587890625</ele>
        <time>2019-07-11T16:17:22.000Z</time>
      </trkpt>
      <trkpt lat="43.4764481149613857269287109375" lon="-5.254146717488765716552734375">
        <ele>65.1999969482421875</ele>
        <time>2019-07-11T16:17:23.000Z</time>
      </trkpt>
      <trkpt lat="43.47630520351231098175048828125" lon="-5.254090391099452972412109375">
        <ele>67.40000152587890625</ele>
        <time>2019-07-11T16:17:24.000Z</time>
      </trkpt>
      <trkpt lat="43.47616530954837799072265625" lon="-5.2540392614901065826416015625">
        <ele>69.40000152587890625</ele>
        <time>2019-07-11T16:17:25.000Z</time>
      </trkpt>
      <trkpt lat="43.47602206282317638397216796875" lon="-5.2539936639368534088134765625">
        <ele>70.59999847412109375</ele>
        <time>2019-07-11T16:17:26.000Z</time>
      </trkpt>
      <trkpt lat="43.47557866014540195465087890625" lon="-5.25385611690580844879150390625">
        <ele>71.8000030517578125</ele>
        <time>2019-07-11T16:17:29.000Z</time>
      </trkpt>
      <trkpt lat="43.47504146397113800048828125" lon="-5.2537603117525577545166015625">
        <ele>73</ele>
        <time>2019-07-11T16:17:33.000Z</time>
      </trkpt>
      <trkpt lat="43.47464340738952159881591796875" lon="-5.2537908218801021575927734375">
        <ele>74.1999969482421875</ele>
        <time>2019-07-11T16:17:36.000Z</time>
      </trkpt>
      <trkpt lat="43.47452119924128055572509765625" lon="-5.25378185324370861053466796875">
        <ele>74.1999969482421875</ele>
        <time>2019-07-11T16:17:37.000Z</time>
      </trkpt>
      <trkpt lat="43.474305532872676849365234375" lon="-5.25362930260598659515380859375">
        <ele>72.40000152587890625</ele>
        <time>2019-07-11T16:17:39.000Z</time>
      </trkpt>
      <trkpt lat="43.4742259047925472259521484375" lon="-5.2534912526607513427734375">
        <ele>70.8000030517578125</ele>
        <time>2019-07-11T16:17:40.000Z</time>
      </trkpt>
      <trkpt lat="43.47417645156383514404296875" lon="-5.2533251233398914337158203125">
        <ele>69.59999847412109375</ele>
        <time>2019-07-11T16:17:41.000Z</time>
      </trkpt>
      <trkpt lat="43.474203608930110931396484375" lon="-5.2528161741793155670166015625">
        <ele>68.59999847412109375</ele>
        <time>2019-07-11T16:17:44.000Z</time>
      </trkpt>
      <trkpt lat="43.47413227893412113189697265625" lon="-5.252545773983001708984375">
        <ele>70.59999847412109375</ele>
        <time>2019-07-11T16:17:46.000Z</time>
      </trkpt>
      <trkpt lat="43.4740532375872135162353515625" lon="-5.252430774271488189697265625">
        <ele>71.59999847412109375</ele>
        <time>2019-07-11T16:17:47.000Z</time>
      </trkpt>
      <trkpt lat="43.47395726479589939117431640625" lon="-5.25232558138668537139892578125">
        <ele>72.1999969482421875</ele>
        <time>2019-07-11T16:17:48.000Z</time>
      </trkpt>
      <trkpt lat="43.4738557599484920501708984375" lon="-5.25222633965313434600830078125">
        <ele>72.8000030517578125</ele>
        <time>2019-07-11T16:17:49.000Z</time>
      </trkpt>
      <trkpt lat="43.4737531654536724090576171875" lon="-5.2521312050521373748779296875">
        <ele>73.8000030517578125</ele>
        <time>2019-07-11T16:17:50.000Z</time>
      </trkpt>
      <trkpt lat="43.47355015575885772705078125" lon="-5.25195225141942501068115234375">
        <ele>75.59999847412109375</ele>
        <time>2019-07-11T16:17:52.000Z</time>
      </trkpt>
      <trkpt lat="43.473457284271717071533203125" lon="-5.25188905186951160430908203125">
        <ele>76.40000152587890625</ele>
        <time>2019-07-11T16:17:53.000Z</time>
      </trkpt>
      <trkpt lat="43.473369441926479339599609375" lon="-5.25185619480907917022705078125">
        <ele>77.1999969482421875</ele>
        <time>2019-07-11T16:17:54.000Z</time>
      </trkpt>
      <trkpt lat="43.4732807613909244537353515625" lon="-5.2518613077700138092041015625">
        <ele>78</ele>
        <time>2019-07-11T16:17:55.000Z</time>
      </trkpt>
      <trkpt lat="43.47318965010344982147216796875" lon="-5.25189391337335109710693359375">
        <ele>79</ele>
        <time>2019-07-11T16:17:56.000Z</time>
      </trkpt>
      <trkpt lat="43.4730975329875946044921875" lon="-5.25192274712026119232177734375">
        <ele>79.8000030517578125</ele>
        <time>2019-07-11T16:17:57.000Z</time>
      </trkpt>
      <trkpt lat="43.47300558350980281829833984375" lon="-5.25193221867084503173828125">
        <ele>80.40000152587890625</ele>
        <time>2019-07-11T16:17:58.000Z</time>
      </trkpt>
      <trkpt lat="43.472913801670074462890625" lon="-5.25191386230289936065673828125">
        <ele>81</ele>
        <time>2019-07-11T16:17:59.000Z</time>
      </trkpt>
      <trkpt lat="43.47248842008411884307861328125" lon="-5.25169107131659984588623046875">
        <ele>80.59999847412109375</ele>
        <time>2019-07-11T16:18:03.000Z</time>
      </trkpt>
      <trkpt lat="43.472243249416351318359375" lon="-5.2516631595790386199951171875">
        <ele>78.8000030517578125</ele>
        <time>2019-07-11T16:18:05.000Z</time>
      </trkpt>
      <trkpt lat="43.47197108902037143707275390625" lon="-5.25173113681375980377197265625">
        <ele>77.40000152587890625</ele>
        <time>2019-07-11T16:18:07.000Z</time>
      </trkpt>
      <trkpt lat="43.47169800661504268646240234375" lon="-5.25172459892928600311279296875">
        <ele>76.8000030517578125</ele>
        <time>2019-07-11T16:18:09.000Z</time>
      </trkpt>
      <trkpt lat="43.4714471362531185150146484375" lon="-5.25161915458738803863525390625">
        <ele>76.1999969482421875</ele>
        <time>2019-07-11T16:18:11.000Z</time>
      </trkpt>
      <trkpt lat="43.47134378738701343536376953125" lon="-5.25153835304081439971923828125">
        <ele>76</ele>
        <time>2019-07-11T16:18:12.000Z</time>
      </trkpt>
      <trkpt lat="43.47122811712324619293212890625" lon="-5.2512863092124462127685546875">
        <ele>76.40000152587890625</ele>
        <time>2019-07-11T16:18:14.000Z</time>
      </trkpt>
      <trkpt lat="43.471220992505550384521484375" lon="-5.2509480156004428863525390625">
        <ele>77.8000030517578125</ele>
        <time>2019-07-11T16:18:16.000Z</time>
      </trkpt>
      <trkpt lat="43.47125594504177570343017578125" lon="-5.25053755380213260650634765625">
        <ele>79.1999969482421875</ele>
        <time>2019-07-11T16:18:18.000Z</time>
      </trkpt>
      <trkpt lat="43.47127974964678287506103515625" lon="-5.2500796504318714141845703125">
        <ele>80.1999969482421875</ele>
        <time>2019-07-11T16:18:20.000Z</time>
      </trkpt>
      <trkpt lat="43.47127472050487995147705078125" lon="-5.24985744617879390716552734375">
        <ele>80.40000152587890625</ele>
        <time>2019-07-11T16:18:21.000Z</time>
      </trkpt>
      <trkpt lat="43.47124203108251094818115234375" lon="-5.2494545280933380126953125">
        <ele>81.1999969482421875</ele>
        <time>2019-07-11T16:18:23.000Z</time>
      </trkpt>
      <trkpt lat="43.471158631145954132080078125" lon="-5.248887240886688232421875">
        <ele>82.1999969482421875</ele>
        <time>2019-07-11T16:18:26.000Z</time>
      </trkpt>
      <trkpt lat="43.47110959701240062713623046875" lon="-5.24869554676115512847900390625">
        <ele>82.40000152587890625</ele>
        <time>2019-07-11T16:18:27.000Z</time>
      </trkpt>
      <trkpt lat="43.470928631722927093505859375" lon="-5.2481484599411487579345703125">
        <ele>82.59999847412109375</ele>
        <time>2019-07-11T16:18:30.000Z</time>
      </trkpt>
      <trkpt lat="43.47069435752928256988525390625" lon="-5.24771519936621189117431640625">
        <ele>81.59999847412109375</ele>
        <time>2019-07-11T16:18:33.000Z</time>
      </trkpt>
      <trkpt lat="43.470645658671855926513671875" lon="-5.2474269457161426544189453125">
        <ele>82</ele>
        <time>2019-07-11T16:18:35.000Z</time>
      </trkpt>
      <trkpt lat="43.47071782685816287994384765625" lon="-5.24715126492083072662353515625">
        <ele>82.59999847412109375</ele>
        <time>2019-07-11T16:18:37.000Z</time>
      </trkpt>
      <trkpt lat="43.47086794674396514892578125" lon="-5.24682587943971157073974609375">
        <ele>83</ele>
        <time>2019-07-11T16:18:39.000Z</time>
      </trkpt>
      <trkpt lat="43.47100549377501010894775390625" lon="-5.2462638728320598602294921875">
        <ele>81</ele>
        <time>2019-07-11T16:18:42.000Z</time>
      </trkpt>
      <trkpt lat="43.47104287706315517425537109375" lon="-5.2460935525596141815185546875">
        <ele>79.8000030517578125</ele>
        <time>2019-07-11T16:18:43.000Z</time>
      </trkpt>
      <trkpt lat="43.4711758978664875030517578125" lon="-5.2458400838077068328857421875">
        <ele>78.8000030517578125</ele>
        <time>2019-07-11T16:18:45.000Z</time>
      </trkpt>
      <trkpt lat="43.47138829529285430908203125" lon="-5.24572684429585933685302734375">
        <ele>79.1999969482421875</ele>
        <time>2019-07-11T16:18:47.000Z</time>
      </trkpt>
      <trkpt lat="43.47162608988583087921142578125" lon="-5.2456677518784999847412109375">
        <ele>79.40000152587890625</ele>
        <time>2019-07-11T16:18:49.000Z</time>
      </trkpt>
      <trkpt lat="43.47172700800001621246337890625" lon="-5.24560832418501377105712890625">
        <ele>79.8000030517578125</ele>
        <time>2019-07-11T16:18:50.000Z</time>
      </trkpt>
      <trkpt lat="43.471811749041080474853515625" lon="-5.2455262653529644012451171875">
        <ele>80.40000152587890625</ele>
        <time>2019-07-11T16:18:51.000Z</time>
      </trkpt>
      <trkpt lat="43.4719275869429111480712890625" lon="-5.2452929131686687469482421875">
        <ele>80.40000152587890625</ele>
        <time>2019-07-11T16:18:53.000Z</time>
      </trkpt>
      <trkpt lat="43.47198852337896823883056640625" lon="-5.24502946995198726654052734375">
        <ele>79.8000030517578125</ele>
        <time>2019-07-11T16:18:55.000Z</time>
      </trkpt>
      <trkpt lat="43.4719557501375675201416015625" lon="-5.2447742410004138946533203125">
        <ele>79.40000152587890625</ele>
        <time>2019-07-11T16:18:57.000Z</time>
      </trkpt>
      <trkpt lat="43.471913002431392669677734375" lon="-5.24451834149658679962158203125">
        <ele>79.40000152587890625</ele>
        <time>2019-07-11T16:18:59.000Z</time>
      </trkpt>
      <trkpt lat="43.4720043651759624481201171875" lon="-5.2442974783480167388916015625">
        <ele>79.59999847412109375</ele>
        <time>2019-07-11T16:19:01.000Z</time>
      </trkpt>
      <trkpt lat="43.47228792496025562286376953125" lon="-5.24399061687290668487548828125">
        <ele>79.40000152587890625</ele>
        <time>2019-07-11T16:19:04.000Z</time>
      </trkpt>
      <trkpt lat="43.472364954650402069091796875" lon="-5.243853740394115447998046875">
        <ele>78.8000030517578125</ele>
        <time>2019-07-11T16:19:05.000Z</time>
      </trkpt>
      <trkpt lat="43.47240845672786235809326171875" lon="-5.24370110593736171722412109375">
        <ele>78.40000152587890625</ele>
        <time>2019-07-11T16:19:06.000Z</time>
      </trkpt>
      <trkpt lat="43.47238750196993350982666015625" lon="-5.24339147843420505523681640625">
        <ele>78</ele>
        <time>2019-07-11T16:19:08.000Z</time>
      </trkpt>
      <trkpt lat="43.4723143279552459716796875" lon="-5.2430556155741214752197265625">
        <ele>77.8000030517578125</ele>
        <time>2019-07-11T16:19:10.000Z</time>
      </trkpt>
      <trkpt lat="43.472317345440387725830078125" lon="-5.2425040863454341888427734375">
        <ele>78</ele>
        <time>2019-07-11T16:19:13.000Z</time>
      </trkpt>
      <trkpt lat="43.47240862436592578887939453125" lon="-5.24219487793743610382080078125">
        <ele>78</ele>
        <time>2019-07-11T16:19:15.000Z</time>
      </trkpt>
      <trkpt lat="43.47271154634654521942138671875" lon="-5.24187737144529819488525390625">
        <ele>77.8000030517578125</ele>
        <time>2019-07-11T16:19:18.000Z</time>
      </trkpt>
      <trkpt lat="43.4729022346436977386474609375" lon="-5.24161870591342449188232421875">
        <ele>76.40000152587890625</ele>
        <time>2019-07-11T16:19:20.000Z</time>
      </trkpt>
      <trkpt lat="43.4729763306677341461181640625" lon="-5.241478979587554931640625">
        <ele>75.1999969482421875</ele>
        <time>2019-07-11T16:19:21.000Z</time>
      </trkpt>
      <trkpt lat="43.4730179049074649810791015625" lon="-5.24132718332111835479736328125">
        <ele>74.59999847412109375</ele>
        <time>2019-07-11T16:19:22.000Z</time>
      </trkpt>
      <trkpt lat="43.47303559072315692901611328125" lon="-5.24116775952279567718505859375">
        <ele>74.1999969482421875</ele>
        <time>2019-07-11T16:19:23.000Z</time>
      </trkpt>
      <trkpt lat="43.47303248941898345947265625" lon="-5.2409970201551914215087890625">
        <ele>74</ele>
        <time>2019-07-11T16:19:24.000Z</time>
      </trkpt>
      <trkpt lat="43.47300642170011997222900390625" lon="-5.24081907235085964202880859375">
        <ele>73.8000030517578125</ele>
        <time>2019-07-11T16:19:25.000Z</time>
      </trkpt>
      <trkpt lat="43.4729540348052978515625" lon="-5.240636765956878662109375">
        <ele>73.8000030517578125</ele>
        <time>2019-07-11T16:19:26.000Z</time>
      </trkpt>
      <trkpt lat="43.47271598875522613525390625" lon="-5.2400642819702625274658203125">
        <ele>73</ele>
        <time>2019-07-11T16:19:29.000Z</time>
      </trkpt>
      <trkpt lat="43.4724931977689266204833984375" lon="-5.23950227536261081695556640625">
        <ele>71.59999847412109375</ele>
        <time>2019-07-11T16:19:32.000Z</time>
      </trkpt>
      <trkpt lat="43.472284488379955291748046875" lon="-5.23891746997833251953125">
        <ele>70.1999969482421875</ele>
        <time>2019-07-11T16:19:35.000Z</time>
      </trkpt>
      <trkpt lat="43.47206890583038330078125" lon="-5.238317660987377166748046875">
        <ele>70.8000030517578125</ele>
        <time>2019-07-11T16:19:38.000Z</time>
      </trkpt>
      <trkpt lat="43.471752740442752838134765625" lon="-5.23779974319040775299072265625">
        <ele>69.40000152587890625</ele>
        <time>2019-07-11T16:19:41.000Z</time>
      </trkpt>
      <trkpt lat="43.4715074859559535980224609375" lon="-5.23749145679175853729248046875">
        <ele>68.8000030517578125</ele>
        <time>2019-07-11T16:19:43.000Z</time>
      </trkpt>
      <trkpt lat="43.471383266150951385498046875" lon="-5.2373371459543704986572265625">
        <ele>67.59999847412109375</ele>
        <time>2019-07-11T16:19:44.000Z</time>
      </trkpt>
      <trkpt lat="43.47102074883878231048583984375" lon="-5.2369056455790996551513671875">
        <ele>67.59999847412109375</ele>
        <time>2019-07-11T16:19:47.000Z</time>
      </trkpt>
      <trkpt lat="43.47069284878671169281005859375" lon="-5.2364429645240306854248046875">
        <ele>67.40000152587890625</ele>
        <time>2019-07-11T16:19:50.000Z</time>
      </trkpt>
      <trkpt lat="43.4705325029790401458740234375" lon="-5.23606133647263050079345703125">
        <ele>67.40000152587890625</ele>
        <time>2019-07-11T16:19:52.000Z</time>
      </trkpt>
      <trkpt lat="43.47042161040008068084716796875" lon="-5.23568985052406787872314453125">
        <ele>66.40000152587890625</ele>
        <time>2019-07-11T16:19:54.000Z</time>
      </trkpt>
      <trkpt lat="43.47035304643213748931884765625" lon="-5.23552807979285717010498046875">
        <ele>65.8000030517578125</ele>
        <time>2019-07-11T16:19:55.000Z</time>
      </trkpt>
      <trkpt lat="43.47026620991528034210205078125" lon="-5.23538458161056041717529296875">
        <ele>65.40000152587890625</ele>
        <time>2019-07-11T16:19:56.000Z</time>
      </trkpt>
      <trkpt lat="43.46995691768825054168701171875" lon="-5.234952829778194427490234375">
        <ele>64.40000152587890625</ele>
        <time>2019-07-11T16:19:59.000Z</time>
      </trkpt>
      <trkpt lat="43.4697140939533710479736328125" lon="-5.234560556709766387939453125">
        <ele>64</ele>
        <time>2019-07-11T16:20:02.000Z</time>
      </trkpt>
      <trkpt lat="43.46967712976038455963134765625" lon="-5.23431622423231601715087890625">
        <ele>64.40000152587890625</ele>
        <time>2019-07-11T16:20:04.000Z</time>
      </trkpt>
      <trkpt lat="43.46977150999009609222412109375" lon="-5.23406778462231159210205078125">
        <ele>65.40000152587890625</ele>
        <time>2019-07-11T16:20:06.000Z</time>
      </trkpt>
      <trkpt lat="43.46991400234401226043701171875" lon="-5.2337791956961154937744140625">
        <ele>65.8000030517578125</ele>
        <time>2019-07-11T16:20:08.000Z</time>
      </trkpt>
      <trkpt lat="43.4700761921703815460205078125" lon="-5.233205370604991912841796875">
        <ele>63.799999237060546875</ele>
        <time>2019-07-11T16:20:11.000Z</time>
      </trkpt>
      <trkpt lat="43.47014886327087879180908203125" lon="-5.2327502332627773284912109375">
        <ele>62</ele>
        <time>2019-07-11T16:20:13.000Z</time>
      </trkpt>
      <trkpt lat="43.47020552493631839752197265625" lon="-5.23227321915328502655029296875">
        <ele>60.799999237060546875</ele>
        <time>2019-07-11T16:20:15.000Z</time>
      </trkpt>
      <trkpt lat="43.47024290822446346282958984375" lon="-5.23204791359603404998779296875">
        <ele>60</ele>
        <time>2019-07-11T16:20:16.000Z</time>
      </trkpt>
      <trkpt lat="43.47030543722212314605712890625" lon="-5.23184021003544330596923828125">
        <ele>59.40000152587890625</ele>
        <time>2019-07-11T16:20:17.000Z</time>
      </trkpt>
      <trkpt lat="43.47039814107120037078857421875" lon="-5.2316486835479736328125">
        <ele>59</ele>
        <time>2019-07-11T16:20:18.000Z</time>
      </trkpt>
      <trkpt lat="43.47049537114799022674560546875" lon="-5.231461934745311737060546875">
        <ele>57.799999237060546875</ele>
        <time>2019-07-11T16:20:19.000Z</time>
      </trkpt>
      <trkpt lat="43.47057734616100788116455078125" lon="-5.23126873187720775604248046875">
        <ele>56.59999847412109375</ele>
        <time>2019-07-11T16:20:20.000Z</time>
      </trkpt>
      <trkpt lat="43.47064238972961902618408203125" lon="-5.23107192479074001312255859375">
        <ele>55.40000152587890625</ele>
        <time>2019-07-11T16:20:21.000Z</time>
      </trkpt>
      <trkpt lat="43.4707393683493137359619140625" lon="-5.2306785620748996734619140625">
        <ele>54.40000152587890625</ele>
        <time>2019-07-11T16:20:23.000Z</time>
      </trkpt>
      <trkpt lat="43.470765687525272369384765625" lon="-5.23048200644552707672119140625">
        <ele>54</ele>
        <time>2019-07-11T16:20:24.000Z</time>
      </trkpt>
      <trkpt lat="43.47078521735966205596923828125" lon="-5.23029106669127941131591796875">
        <ele>54</ele>
        <time>2019-07-11T16:20:25.000Z</time>
      </trkpt>
      <trkpt lat="43.470810614526271820068359375" lon="-5.23011135868728160858154296875">
        <ele>53.59999847412109375</ele>
        <time>2019-07-11T16:20:26.000Z</time>
      </trkpt>
      <trkpt lat="43.47091999836266040802001953125" lon="-5.22979670204222202301025390625">
        <ele>53.200000762939453125</ele>
        <time>2019-07-11T16:20:28.000Z</time>
      </trkpt>
      <trkpt lat="43.4709958545863628387451171875" lon="-5.229650773108005523681640625">
        <ele>53</ele>
        <time>2019-07-11T16:20:29.000Z</time>
      </trkpt>
      <trkpt lat="43.4711447171866893768310546875" lon="-5.2293334342539310455322265625">
        <ele>52</ele>
        <time>2019-07-11T16:20:31.000Z</time>
      </trkpt>
      <trkpt lat="43.471211604773998260498046875" lon="-5.2291500382125377655029296875">
        <ele>51.200000762939453125</ele>
        <time>2019-07-11T16:20:32.000Z</time>
      </trkpt>
      <trkpt lat="43.4712798334658145904541015625" lon="-5.2289585955440998077392578125">
        <ele>49.40000152587890625</ele>
        <time>2019-07-11T16:20:33.000Z</time>
      </trkpt>
      <trkpt lat="43.47135401330888271331787109375" lon="-5.2287674881517887115478515625">
        <ele>47.200000762939453125</ele>
        <time>2019-07-11T16:20:34.000Z</time>
      </trkpt>
      <trkpt lat="43.4714310429990291595458984375" lon="-5.228582583367824554443359375">
        <ele>45</ele>
        <time>2019-07-11T16:20:35.000Z</time>
      </trkpt>
      <trkpt lat="43.47150673158466815948486328125" lon="-5.228402875363826751708984375">
        <ele>43.40000152587890625</ele>
        <time>2019-07-11T16:20:36.000Z</time>
      </trkpt>
      <trkpt lat="43.4715745411813259124755859375" lon="-5.22823297418653964996337890625">
        <ele>42.40000152587890625</ele>
        <time>2019-07-11T16:20:37.000Z</time>
      </trkpt>
      <trkpt lat="43.471674956381320953369140625" lon="-5.22794916294515132904052734375">
        <ele>41.40000152587890625</ele>
        <time>2019-07-11T16:20:39.000Z</time>
      </trkpt>
      <trkpt lat="43.4717052988708019256591796875" lon="-5.22783500142395496368408203125">
        <ele>41.200000762939453125</ele>
        <time>2019-07-11T16:20:40.000Z</time>
      </trkpt>
      <trkpt lat="43.47170840017497539520263671875" lon="-5.2276298962533473968505859375">
        <ele>41.200000762939453125</ele>
        <time>2019-07-11T16:20:42.000Z</time>
      </trkpt>
      <trkpt lat="43.47160815261304378509521484375" lon="-5.227482207119464874267578125">
        <ele>41.200000762939453125</ele>
        <time>2019-07-11T16:20:44.000Z</time>
      </trkpt>
      <trkpt lat="43.47143380902707576751708984375" lon="-5.227418504655361175537109375">
        <ele>40.40000152587890625</ele>
        <time>2019-07-11T16:20:46.000Z</time>
      </trkpt>
      <trkpt lat="43.4712308831512928009033203125" lon="-5.22746167145669460296630859375">
        <ele>38.799999237060546875</ele>
        <time>2019-07-11T16:20:48.000Z</time>
      </trkpt>
      <trkpt lat="43.47107070498168468475341796875" lon="-5.22762243635952472686767578125">
        <ele>38.200000762939453125</ele>
        <time>2019-07-11T16:20:50.000Z</time>
      </trkpt>
      <trkpt lat="43.4709961898624897003173828125" lon="-5.22787204943597316741943359375">
        <ele>37.40000152587890625</ele>
        <time>2019-07-11T16:20:52.000Z</time>
      </trkpt>
      <trkpt lat="43.4709992073476314544677734375" lon="-5.22817379795014858245849609375">
        <ele>36.200000762939453125</ele>
        <time>2019-07-11T16:20:54.000Z</time>
      </trkpt>
      <trkpt lat="43.4710013866424560546875" lon="-5.228339843451976776123046875">
        <ele>35.40000152587890625</ele>
        <time>2019-07-11T16:20:55.000Z</time>
      </trkpt>
      <trkpt lat="43.47098252736032009124755859375" lon="-5.22851192392408847808837890625">
        <ele>34.59999847412109375</ele>
        <time>2019-07-11T16:20:56.000Z</time>
      </trkpt>
      <trkpt lat="43.470913879573345184326171875" lon="-5.228861868381500244140625">
        <ele>32.40000152587890625</ele>
        <time>2019-07-11T16:20:58.000Z</time>
      </trkpt>
      <trkpt lat="43.470864258706569671630859375" lon="-5.229029841721057891845703125">
        <ele>31</ele>
        <time>2019-07-11T16:20:59.000Z</time>
      </trkpt>
      <trkpt lat="43.47079929895699024200439453125" lon="-5.2291798777878284454345703125">
        <ele>30</ele>
        <time>2019-07-11T16:21:00.000Z</time>
      </trkpt>
      <trkpt lat="43.47071598283946514129638671875" lon="-5.22930652834475040435791015625">
        <ele>29.200000762939453125</ele>
        <time>2019-07-11T16:21:01.000Z</time>
      </trkpt>
      <trkpt lat="43.4706210158765316009521484375" lon="-5.22940660826861858367919921875">
        <ele>28.6000003814697265625</ele>
        <time>2019-07-11T16:21:02.000Z</time>
      </trkpt>
      <trkpt lat="43.47052604891359806060791015625" lon="-5.22948238067328929901123046875">
        <ele>28</ele>
        <time>2019-07-11T16:21:03.000Z</time>
      </trkpt>
      <trkpt lat="43.47035673446953296661376953125" lon="-5.22954792715609073638916015625">
        <ele>27.3999996185302734375</ele>
        <time>2019-07-11T16:21:05.000Z</time>
      </trkpt>
      <trkpt lat="43.47021139226853847503662109375" lon="-5.22945187054574489593505859375">
        <ele>26.3999996185302734375</ele>
        <time>2019-07-11T16:21:07.000Z</time>
      </trkpt>
      <trkpt lat="43.4701466001570224761962890625" lon="-5.2293621003627777099609375">
        <ele>26.200000762939453125</ele>
        <time>2019-07-11T16:21:08.000Z</time>
      </trkpt>
      <trkpt lat="43.46994048915803432464599609375" lon="-5.22908239625394344329833984375">
        <ele>25.200000762939453125</ele>
        <time>2019-07-11T16:21:11.000Z</time>
      </trkpt>
      <trkpt lat="43.46962868236005306243896484375" lon="-5.22849163971841335296630859375">
        <ele>24.799999237060546875</ele>
        <time>2019-07-11T16:21:16.000Z</time>
      </trkpt>
      <trkpt lat="43.469391055405139923095703125" lon="-5.22800465114414691925048828125">
        <ele>26.200000762939453125</ele>
        <time>2019-07-11T16:21:23.000Z</time>
      </trkpt>
      <trkpt lat="43.469300530850887298583984375" lon="-5.227791331708431243896484375">
        <ele>26.799999237060546875</ele>
        <time>2019-07-11T16:21:29.000Z</time>
      </trkpt>
      <trkpt lat="43.469265662133693695068359375" lon="-5.22762629203498363494873046875">
        <ele>26.6000003814697265625</ele>
        <time>2019-07-11T16:21:31.000Z</time>
      </trkpt>
      <trkpt lat="43.469273038208484649658203125" lon="-5.2273905090987682342529296875">
        <ele>26.200000762939453125</ele>
        <time>2019-07-11T16:21:33.000Z</time>
      </trkpt>
      <trkpt lat="43.4693446196615695953369140625" lon="-5.22667326964437961578369140625">
        <ele>25.799999237060546875</ele>
        <time>2019-07-11T16:21:38.000Z</time>
      </trkpt>
      <trkpt lat="43.4693194739520549774169921875" lon="-5.22645114921033382415771484375">
        <ele>27.200000762939453125</ele>
        <time>2019-07-11T16:21:40.000Z</time>
      </trkpt>
      <trkpt lat="43.46929206512868404388427734375" lon="-5.226347632706165313720703125">
        <ele>28.6000003814697265625</ele>
        <time>2019-07-11T16:21:41.000Z</time>
      </trkpt>
      <trkpt lat="43.46925795078277587890625" lon="-5.226244367659091949462890625">
        <ele>30.200000762939453125</ele>
        <time>2019-07-11T16:21:42.000Z</time>
      </trkpt>
      <trkpt lat="43.4692195616662502288818359375" lon="-5.22614152170717716217041015625">
        <ele>31.3999996185302734375</ele>
        <time>2019-07-11T16:21:43.000Z</time>
      </trkpt>
      <trkpt lat="43.4691742993891239166259765625" lon="-5.22604244761168956756591796875">
        <ele>32.40000152587890625</ele>
        <time>2019-07-11T16:21:44.000Z</time>
      </trkpt>
      <trkpt lat="43.46904915757477283477783203125" lon="-5.22588067688047885894775390625">
        <ele>33.799999237060546875</ele>
        <time>2019-07-11T16:21:46.000Z</time>
      </trkpt>
      <trkpt lat="43.46887632273137569427490234375" lon="-5.22578512318432331085205078125">
        <ele>35.200000762939453125</ele>
        <time>2019-07-11T16:21:48.000Z</time>
      </trkpt>
      <trkpt lat="43.4687796793878078460693359375" lon="-5.225764252245426177978515625">
        <ele>36.200000762939453125</ele>
        <time>2019-07-11T16:21:49.000Z</time>
      </trkpt>
      <trkpt lat="43.468576334416866302490234375" lon="-5.22574455477297306060791015625">
        <ele>38.40000152587890625</ele>
        <time>2019-07-11T16:21:51.000Z</time>
      </trkpt>
      <trkpt lat="43.46846778877079486846923828125" lon="-5.22574086673557758331298828125">
        <ele>39.40000152587890625</ele>
        <time>2019-07-11T16:21:52.000Z</time>
      </trkpt>
      <trkpt lat="43.468354381620883941650390625" lon="-5.2257476560771465301513671875">
        <ele>40.40000152587890625</ele>
        <time>2019-07-11T16:21:53.000Z</time>
      </trkpt>
      <trkpt lat="43.46811792813241481781005859375" lon="-5.22579786367714405059814453125">
        <ele>41.59999847412109375</ele>
        <time>2019-07-11T16:21:55.000Z</time>
      </trkpt>
      <trkpt lat="43.4678781218826770782470703125" lon="-5.22587145678699016571044921875">
        <ele>42.799999237060546875</ele>
        <time>2019-07-11T16:21:57.000Z</time>
      </trkpt>
      <trkpt lat="43.467662371695041656494140625" lon="-5.2259261906147003173828125">
        <ele>43.799999237060546875</ele>
        <time>2019-07-11T16:21:59.000Z</time>
      </trkpt>
      <trkpt lat="43.467572517693042755126953125" lon="-5.22592711262404918670654296875">
        <ele>44.59999847412109375</ele>
        <time>2019-07-11T16:22:00.000Z</time>
      </trkpt>
      <trkpt lat="43.467494063079357147216796875" lon="-5.22590649314224720001220703125">
        <ele>45.799999237060546875</ele>
        <time>2019-07-11T16:22:01.000Z</time>
      </trkpt>
      <trkpt lat="43.46742440946400165557861328125" lon="-5.22585854865610599517822265625">
        <ele>47.200000762939453125</ele>
        <time>2019-07-11T16:22:02.000Z</time>
      </trkpt>
      <trkpt lat="43.46736154519021511077880859375" lon="-5.2257862128317356109619140625">
        <ele>48.59999847412109375</ele>
        <time>2019-07-11T16:22:03.000Z</time>
      </trkpt>
      <trkpt lat="43.46722693182528018951416015625" lon="-5.22560591809451580047607421875">
        <ele>50</ele>
        <time>2019-07-11T16:22:05.000Z</time>
      </trkpt>
      <trkpt lat="43.466834910213947296142578125" lon="-5.22525756619870662689208984375">
        <ele>51</ele>
        <time>2019-07-11T16:22:09.000Z</time>
      </trkpt>
      <trkpt lat="43.4667334891855716705322265625" lon="-5.22518196143209934234619140625">
        <ele>51.40000152587890625</ele>
        <time>2019-07-11T16:22:10.000Z</time>
      </trkpt>
      <trkpt lat="43.46656610257923603057861328125" lon="-5.225037373602390289306640625">
        <ele>53.200000762939453125</ele>
        <time>2019-07-11T16:22:12.000Z</time>
      </trkpt>
      <trkpt lat="43.46649602986872196197509765625" lon="-5.22495045326650142669677734375">
        <ele>54.40000152587890625</ele>
        <time>2019-07-11T16:22:13.000Z</time>
      </trkpt>
      <trkpt lat="43.46643031574785709381103515625" lon="-5.2248467691242694854736328125">
        <ele>55.40000152587890625</ele>
        <time>2019-07-11T16:22:14.000Z</time>
      </trkpt>
      <trkpt lat="43.46636795438826084136962890625" lon="-5.22472749464213848114013671875">
        <ele>56.200000762939453125</ele>
        <time>2019-07-11T16:22:15.000Z</time>
      </trkpt>
      <trkpt lat="43.466223366558551788330078125" lon="-5.22446882911026477813720703125">
        <ele>58</ele>
        <time>2019-07-11T16:22:17.000Z</time>
      </trkpt>
      <trkpt lat="43.4661377035081386566162109375" lon="-5.2243316173553466796875">
        <ele>59</ele>
        <time>2019-07-11T16:22:18.000Z</time>
      </trkpt>
      <trkpt lat="43.465960510075092315673828125" lon="-5.224055014550685882568359375">
        <ele>60.40000152587890625</ele>
        <time>2019-07-11T16:22:20.000Z</time>
      </trkpt>
      <trkpt lat="43.46578918397426605224609375" lon="-5.2238117717206478118896484375">
        <ele>62</ele>
        <time>2019-07-11T16:22:22.000Z</time>
      </trkpt>
      <trkpt lat="43.4655700810253620147705078125" lon="-5.22362175397574901580810546875">
        <ele>63.200000762939453125</ele>
        <time>2019-07-11T16:22:24.000Z</time>
      </trkpt>
      <trkpt lat="43.46531367860734462738037109375" lon="-5.2234935946762561798095703125">
        <ele>63.59999847412109375</ele>
        <time>2019-07-11T16:22:26.000Z</time>
      </trkpt>
      <trkpt lat="43.46491369418799877166748046875" lon="-5.2234329096972942352294921875">
        <ele>64</ele>
        <time>2019-07-11T16:22:29.000Z</time>
      </trkpt>
      <trkpt lat="43.4647800028324127197265625" lon="-5.22343081422150135040283203125">
        <ele>64.1999969482421875</ele>
        <time>2019-07-11T16:22:30.000Z</time>
      </trkpt>
      <trkpt lat="43.46428580582141876220703125" lon="-5.22354908287525177001953125">
        <ele>65.40000152587890625</ele>
        <time>2019-07-11T16:22:34.000Z</time>
      </trkpt>
      <trkpt lat="43.46417508088052272796630859375" lon="-5.223556458950042724609375">
        <ele>65.8000030517578125</ele>
        <time>2019-07-11T16:22:35.000Z</time>
      </trkpt>
      <trkpt lat="43.46396150998771190643310546875" lon="-5.2234558761119842529296875">
        <ele>65.59999847412109375</ele>
        <time>2019-07-11T16:22:37.000Z</time>
      </trkpt>
      <trkpt lat="43.463660515844821929931640625" lon="-5.22309503518044948577880859375">
        <ele>65.59999847412109375</ele>
        <time>2019-07-11T16:22:40.000Z</time>
      </trkpt>
      <trkpt lat="43.46319615840911865234375" lon="-5.22271164692938327789306640625">
        <ele>66</ele>
        <time>2019-07-11T16:22:44.000Z</time>
      </trkpt>
      <trkpt lat="43.462865240871906280517578125" lon="-5.22240352816879749298095703125">
        <ele>66.59999847412109375</ele>
        <time>2019-07-11T16:22:47.000Z</time>
      </trkpt>
      <trkpt lat="43.46274621784687042236328125" lon="-5.22231987677514553070068359375">
        <ele>67</ele>
        <time>2019-07-11T16:22:48.000Z</time>
      </trkpt>
      <trkpt lat="43.462476991117000579833984375" lon="-5.22221778519451618194580078125">
        <ele>68.1999969482421875</ele>
        <time>2019-07-11T16:22:50.000Z</time>
      </trkpt>
      <trkpt lat="43.4621676988899707794189453125" lon="-5.2221749536693096160888671875">
        <ele>69.1999969482421875</ele>
        <time>2019-07-11T16:22:52.000Z</time>
      </trkpt>
      <trkpt lat="43.46184658817946910858154296875" lon="-5.2221233211457729339599609375">
        <ele>70.1999969482421875</ele>
        <time>2019-07-11T16:22:54.000Z</time>
      </trkpt>
      <trkpt lat="43.46168967895209789276123046875" lon="-5.22207520902156829833984375">
        <ele>70.8000030517578125</ele>
        <time>2019-07-11T16:22:55.000Z</time>
      </trkpt>
      <trkpt lat="43.46140217967331409454345703125" lon="-5.22192827425897121429443359375">
        <ele>71.59999847412109375</ele>
        <time>2019-07-11T16:22:57.000Z</time>
      </trkpt>
      <trkpt lat="43.46127293072640895843505859375" lon="-5.22185551933944225311279296875">
        <ele>72.40000152587890625</ele>
        <time>2019-07-11T16:22:58.000Z</time>
      </trkpt>
      <trkpt lat="43.46114066429436206817626953125" lon="-5.221805982291698455810546875">
        <ele>73.8000030517578125</ele>
        <time>2019-07-11T16:22:59.000Z</time>
      </trkpt>
      <trkpt lat="43.46100571565330028533935546875" lon="-5.2217779867351055145263671875">
        <ele>75.40000152587890625</ele>
        <time>2019-07-11T16:23:00.000Z</time>
      </trkpt>
      <trkpt lat="43.46087328158318996429443359375" lon="-5.22175091318786144256591796875">
        <ele>77.1999969482421875</ele>
        <time>2019-07-11T16:23:01.000Z</time>
      </trkpt>
      <trkpt lat="43.46074788831174373626708984375" lon="-5.2217015437781810760498046875">
        <ele>78.8000030517578125</ele>
        <time>2019-07-11T16:23:02.000Z</time>
      </trkpt>
      <trkpt lat="43.460630960762500762939453125" lon="-5.22161529399454593658447265625">
        <ele>80.1999969482421875</ele>
        <time>2019-07-11T16:23:03.000Z</time>
      </trkpt>
      <trkpt lat="43.460523672401905059814453125" lon="-5.2214980311691761016845703125">
        <ele>81.1999969482421875</ele>
        <time>2019-07-11T16:23:04.000Z</time>
      </trkpt>
      <trkpt lat="43.46041512675583362579345703125" lon="-5.22136308252811431884765625">
        <ele>81.8000030517578125</ele>
        <time>2019-07-11T16:23:05.000Z</time>
      </trkpt>
      <trkpt lat="43.4600618295371532440185546875" lon="-5.22099117748439311981201171875">
        <ele>83.1999969482421875</ele>
        <time>2019-07-11T16:23:08.000Z</time>
      </trkpt>
      <trkpt lat="43.45994071103632450103759765625" lon="-5.22090517915785312652587890625">
        <ele>83.59999847412109375</ele>
        <time>2019-07-11T16:23:09.000Z</time>
      </trkpt>
      <trkpt lat="43.45981380902230739593505859375" lon="-5.22084348835051059722900390625">
        <ele>84.1999969482421875</ele>
        <time>2019-07-11T16:23:10.000Z</time>
      </trkpt>
      <trkpt lat="43.45968179404735565185546875" lon="-5.2208120562136173248291015625">
        <ele>85.59999847412109375</ele>
        <time>2019-07-11T16:23:11.000Z</time>
      </trkpt>
      <trkpt lat="43.4595424868166446685791015625" lon="-5.2208043448626995086669921875">
        <ele>87.40000152587890625</ele>
        <time>2019-07-11T16:23:12.000Z</time>
      </trkpt>
      <trkpt lat="43.459397144615650177001953125" lon="-5.22081063129007816314697265625">
        <ele>88.8000030517578125</ele>
        <time>2019-07-11T16:23:13.000Z</time>
      </trkpt>
      <trkpt lat="43.4591220505535602569580078125" lon="-5.22082186304032802581787109375">
        <ele>90.59999847412109375</ele>
        <time>2019-07-11T16:23:15.000Z</time>
      </trkpt>
      <trkpt lat="43.45899783074855804443359375" lon="-5.22080543451011180877685546875">
        <ele>91.1999969482421875</ele>
        <time>2019-07-11T16:23:16.000Z</time>
      </trkpt>
      <trkpt lat="43.45876623876392841339111328125" lon="-5.22068272344768047332763671875">
        <ele>92</ele>
        <time>2019-07-11T16:23:18.000Z</time>
      </trkpt>
      <trkpt lat="43.45850371755659580230712890625" lon="-5.22055766545236110687255859375">
        <ele>92.59999847412109375</ele>
        <time>2019-07-11T16:23:20.000Z</time>
      </trkpt>
      <trkpt lat="43.45823801122605800628662109375" lon="-5.2204546518623828887939453125">
        <ele>92.8000030517578125</ele>
        <time>2019-07-11T16:23:22.000Z</time>
      </trkpt>
      <trkpt lat="43.45811136066913604736328125" lon="-5.2203678153455257415771484375">
        <ele>93.1999969482421875</ele>
        <time>2019-07-11T16:23:23.000Z</time>
      </trkpt>
      <trkpt lat="43.4579948522150516510009765625" lon="-5.22024334408342838287353515625">
        <ele>93.40000152587890625</ele>
        <time>2019-07-11T16:23:24.000Z</time>
      </trkpt>
      <trkpt lat="43.45778387971222400665283203125" lon="-5.21993975155055522918701171875">
        <ele>94.59999847412109375</ele>
        <time>2019-07-11T16:23:26.000Z</time>
      </trkpt>
      <trkpt lat="43.4575713984668254852294921875" lon="-5.2196060679852962493896484375">
        <ele>96</ele>
        <time>2019-07-11T16:23:28.000Z</time>
      </trkpt>
      <trkpt lat="43.45735095441341400146484375" lon="-5.21928680129349231719970703125">
        <ele>97.40000152587890625</ele>
        <time>2019-07-11T16:23:30.000Z</time>
      </trkpt>
      <trkpt lat="43.45724039711058139801025390625" lon="-5.219166688621044158935546875">
        <ele>98.1999969482421875</ele>
        <time>2019-07-11T16:23:31.000Z</time>
      </trkpt>
      <trkpt lat="43.4571318514645099639892578125" lon="-5.21908882074058055877685546875">
        <ele>99.59999847412109375</ele>
        <time>2019-07-11T16:23:32.000Z</time>
      </trkpt>
      <trkpt lat="43.45702280290424823760986328125" lon="-5.2190424688160419464111328125">
        <ele>101.1999969482421875</ele>
        <time>2019-07-11T16:23:33.000Z</time>
      </trkpt>
      <trkpt lat="43.45691107213497161865234375" lon="-5.21902763284742832183837890625">
        <ele>103.40000152587890625</ele>
        <time>2019-07-11T16:23:34.000Z</time>
      </trkpt>
      <trkpt lat="43.456792719662189483642578125" lon="-5.21903484128415584564208984375">
        <ele>105.40000152587890625</ele>
        <time>2019-07-11T16:23:35.000Z</time>
      </trkpt>
      <trkpt lat="43.45666296780109405517578125" lon="-5.21904674358665943145751953125">
        <ele>107.40000152587890625</ele>
        <time>2019-07-11T16:23:36.000Z</time>
      </trkpt>
      <trkpt lat="43.45652257092297077178955078125" lon="-5.21905093453824520111083984375">
        <ele>109</ele>
        <time>2019-07-11T16:23:37.000Z</time>
      </trkpt>
      <trkpt lat="43.45637253485620021820068359375" lon="-5.2190344221889972686767578125">
        <ele>110.40000152587890625</ele>
        <time>2019-07-11T16:23:38.000Z</time>
      </trkpt>
      <trkpt lat="43.4562145359814167022705078125" lon="-5.21899812854826450347900390625">
        <ele>111.59999847412109375</ele>
        <time>2019-07-11T16:23:39.000Z</time>
      </trkpt>
      <trkpt lat="43.455902896821498870849609375" lon="-5.2189122140407562255859375">
        <ele>113.1999969482421875</ele>
        <time>2019-07-11T16:23:41.000Z</time>
      </trkpt>
      <trkpt lat="43.45576199702918529510498046875" lon="-5.2188607491552829742431640625">
        <ele>114.40000152587890625</ele>
        <time>2019-07-11T16:23:42.000Z</time>
      </trkpt>
      <trkpt lat="43.455636017024517059326171875" lon="-5.21878707222640514373779296875">
        <ele>115.8000030517578125</ele>
        <time>2019-07-11T16:23:43.000Z</time>
      </trkpt>
      <trkpt lat="43.45552143640816211700439453125" lon="-5.21868598647415637969970703125">
        <ele>117.59999847412109375</ele>
        <time>2019-07-11T16:23:44.000Z</time>
      </trkpt>
      <trkpt lat="43.45541314221918582916259765625" lon="-5.21857048384845256805419921875">
        <ele>119.8000030517578125</ele>
        <time>2019-07-11T16:23:45.000Z</time>
      </trkpt>
      <trkpt lat="43.4553042612969875335693359375" lon="-5.2184476889669895172119140625">
        <ele>121.8000030517578125</ele>
        <time>2019-07-11T16:23:46.000Z</time>
      </trkpt>
      <trkpt lat="43.455192111432552337646484375" lon="-5.2183179371058940887451171875">
        <ele>123</ele>
        <time>2019-07-11T16:23:47.000Z</time>
      </trkpt>
      <trkpt lat="43.45507417805492877960205078125" lon="-5.21818910725414752960205078125">
        <ele>124.1999969482421875</ele>
        <time>2019-07-11T16:23:48.000Z</time>
      </trkpt>
      <trkpt lat="43.45482087694108486175537109375" lon="-5.21792591549456119537353515625">
        <ele>126.1999969482421875</ele>
        <time>2019-07-11T16:23:50.000Z</time>
      </trkpt>
      <trkpt lat="43.4544110856950283050537109375" lon="-5.21750061772763729095458984375">
        <ele>127.40000152587890625</ele>
        <time>2019-07-11T16:23:53.000Z</time>
      </trkpt>
      <trkpt lat="43.45400087535381317138671875" lon="-5.2170743979513645172119140625">
        <ele>128</ele>
        <time>2019-07-11T16:23:56.000Z</time>
      </trkpt>
      <trkpt lat="43.4535863064229488372802734375" lon="-5.21665178239345550537109375">
        <ele>129</ele>
        <time>2019-07-11T16:23:59.000Z</time>
      </trkpt>
      <trkpt lat="43.453445993363857269287109375" lon="-5.21651322953402996063232421875">
        <ele>130.1999969482421875</ele>
        <time>2019-07-11T16:24:00.000Z</time>
      </trkpt>
      <trkpt lat="43.45330593176186084747314453125" lon="-5.21637073718011379241943359375">
        <ele>131.600006103515625</ele>
        <time>2019-07-11T16:24:01.000Z</time>
      </trkpt>
      <trkpt lat="43.45303528010845184326171875" lon="-5.21608759649097919464111328125">
        <ele>133.1999969482421875</ele>
        <time>2019-07-11T16:24:03.000Z</time>
      </trkpt>
      <trkpt lat="43.45279497094452381134033203125" lon="-5.21579992957413196563720703125">
        <ele>134.1999969482421875</ele>
        <time>2019-07-11T16:24:05.000Z</time>
      </trkpt>
      <trkpt lat="43.45259833149611949920654296875" lon="-5.21546448580920696258544921875">
        <ele>135.1999969482421875</ele>
        <time>2019-07-11T16:24:07.000Z</time>
      </trkpt>
      <trkpt lat="43.45253848470747470855712890625" lon="-5.21528326906263828277587890625">
        <ele>136</ele>
        <time>2019-07-11T16:24:08.000Z</time>
      </trkpt>
      <trkpt lat="43.452496491372585296630859375" lon="-5.2150875516235828399658203125">
        <ele>137.1999969482421875</ele>
        <time>2019-07-11T16:24:09.000Z</time>
      </trkpt>
      <trkpt lat="43.4524713456630706787109375" lon="-5.21488529630005359649658203125">
        <ele>138.8000030517578125</ele>
        <time>2019-07-11T16:24:10.000Z</time>
      </trkpt>
      <trkpt lat="43.452465645968914031982421875" lon="-5.2146875672042369842529296875">
        <ele>140.399993896484375</ele>
        <time>2019-07-11T16:24:11.000Z</time>
      </trkpt>
      <trkpt lat="43.452468328177928924560546875" lon="-5.21449788473546504974365234375">
        <ele>141.8000030517578125</ele>
        <time>2019-07-11T16:24:12.000Z</time>
      </trkpt>
      <trkpt lat="43.4524604491889476776123046875" lon="-5.21431532688438892364501953125">
        <ele>142.8000030517578125</ele>
        <time>2019-07-11T16:24:13.000Z</time>
      </trkpt>
      <trkpt lat="43.4523632191121578216552734375" lon="-5.21398005075752735137939453125">
        <ele>144.8000030517578125</ele>
        <time>2019-07-11T16:24:15.000Z</time>
      </trkpt>
      <trkpt lat="43.452277220785617828369140625" lon="-5.2138292603194713592529296875">
        <ele>145.8000030517578125</ele>
        <time>2019-07-11T16:24:16.000Z</time>
      </trkpt>
      <trkpt lat="43.452170602977275848388671875" lon="-5.21369523368775844573974609375">
        <ele>147.1999969482421875</ele>
        <time>2019-07-11T16:24:17.000Z</time>
      </trkpt>
      <trkpt lat="43.452051915228366851806640625" lon="-5.2135767973959445953369140625">
        <ele>148.399993896484375</ele>
        <time>2019-07-11T16:24:18.000Z</time>
      </trkpt>
      <trkpt lat="43.45193012617528438568115234375" lon="-5.213463306427001953125">
        <ele>149.399993896484375</ele>
        <time>2019-07-11T16:24:19.000Z</time>
      </trkpt>
      <trkpt lat="43.4516782499849796295166015625" lon="-5.2132304571568965911865234375">
        <ele>152</ele>
        <time>2019-07-11T16:24:21.000Z</time>
      </trkpt>
      <trkpt lat="43.45155159942805767059326171875" lon="-5.2131094224750995635986328125">
        <ele>154</ele>
        <time>2019-07-11T16:24:22.000Z</time>
      </trkpt>
      <trkpt lat="43.45142520032823085784912109375" lon="-5.21298746578395366668701171875">
        <ele>155.1999969482421875</ele>
        <time>2019-07-11T16:24:23.000Z</time>
      </trkpt>
      <trkpt lat="43.4511813707649707794189453125" lon="-5.21274070255458354949951171875">
        <ele>157.1999969482421875</ele>
        <time>2019-07-11T16:24:25.000Z</time>
      </trkpt>
      <trkpt lat="43.45107601024210453033447265625" lon="-5.21259896457195281982421875">
        <ele>157.600006103515625</ele>
        <time>2019-07-11T16:24:26.000Z</time>
      </trkpt>
      <trkpt lat="43.45091725699603557586669921875" lon="-5.2122578211128711700439453125">
        <ele>158.600006103515625</ele>
        <time>2019-07-11T16:24:28.000Z</time>
      </trkpt>
      <trkpt lat="43.45083653926849365234375" lon="-5.21186001598834991455078125">
        <ele>160</ele>
        <time>2019-07-11T16:24:30.000Z</time>
      </trkpt>
      <trkpt lat="43.45081985928118228912353515625" lon="-5.21165340207517147064208984375">
        <ele>161.1999969482421875</ele>
        <time>2019-07-11T16:24:31.000Z</time>
      </trkpt>
      <trkpt lat="43.4507968090474605560302734375" lon="-5.21123514510691165924072265625">
        <ele>163.1999969482421875</ele>
        <time>2019-07-11T16:24:33.000Z</time>
      </trkpt>
      <trkpt lat="43.45077442936599254608154296875" lon="-5.2110240049660205841064453125">
        <ele>164.1999969482421875</ele>
        <time>2019-07-11T16:24:34.000Z</time>
      </trkpt>
      <trkpt lat="43.45073570497334003448486328125" lon="-5.21082342602312564849853515625">
        <ele>165.8000030517578125</ele>
        <time>2019-07-11T16:24:35.000Z</time>
      </trkpt>
      <trkpt lat="43.45067334361374378204345703125" lon="-5.21064505912363529205322265625">
        <ele>167</ele>
        <time>2019-07-11T16:24:36.000Z</time>
      </trkpt>
      <trkpt lat="43.45058977603912353515625" lon="-5.21048672497272491455078125">
        <ele>168.399993896484375</ele>
        <time>2019-07-11T16:24:37.000Z</time>
      </trkpt>
      <trkpt lat="43.4504883550107479095458984375" lon="-5.210348255932331085205078125">
        <ele>169.8000030517578125</ele>
        <time>2019-07-11T16:24:38.000Z</time>
      </trkpt>
      <trkpt lat="43.45037695951759815216064453125" lon="-5.21022093482315540313720703125">
        <ele>171.1999969482421875</ele>
        <time>2019-07-11T16:24:39.000Z</time>
      </trkpt>
      <trkpt lat="43.45026631839573383331298828125" lon="-5.210094116628170013427734375">
        <ele>172.8000030517578125</ele>
        <time>2019-07-11T16:24:40.000Z</time>
      </trkpt>
      <trkpt lat="43.45016305334866046905517578125" lon="-5.2099590003490447998046875">
        <ele>174.1999969482421875</ele>
        <time>2019-07-11T16:24:41.000Z</time>
      </trkpt>
      <trkpt lat="43.45007269643247127532958984375" lon="-5.20980854518711566925048828125">
        <ele>175.8000030517578125</ele>
        <time>2019-07-11T16:24:42.000Z</time>
      </trkpt>
      <trkpt lat="43.449993319809436798095703125" lon="-5.20964275114238262176513671875">
        <ele>177.600006103515625</ele>
        <time>2019-07-11T16:24:43.000Z</time>
      </trkpt>
      <trkpt lat="43.4499227441847324371337890625" lon="-5.2094676531851291656494140625">
        <ele>179.600006103515625</ele>
        <time>2019-07-11T16:24:44.000Z</time>
      </trkpt>
      <trkpt lat="43.44986666925251483917236328125" lon="-5.2092852629721164703369140625">
        <ele>181.600006103515625</ele>
        <time>2019-07-11T16:24:45.000Z</time>
      </trkpt>
      <trkpt lat="43.44982911832630634307861328125" lon="-5.2090958319604396820068359375">
        <ele>183.399993896484375</ele>
        <time>2019-07-11T16:24:46.000Z</time>
      </trkpt>
      <trkpt lat="43.4498147852718830108642578125" lon="-5.2089023776352405548095703125">
        <ele>185.399993896484375</ele>
        <time>2019-07-11T16:24:47.000Z</time>
      </trkpt>
      <trkpt lat="43.4498201496899127960205078125" lon="-5.20870464853942394256591796875">
        <ele>187.600006103515625</ele>
        <time>2019-07-11T16:24:48.000Z</time>
      </trkpt>
      <trkpt lat="43.44983716495335102081298828125" lon="-5.20850457251071929931640625">
        <ele>189.8000030517578125</ele>
        <time>2019-07-11T16:24:49.000Z</time>
      </trkpt>
      <trkpt lat="43.44985694624483585357666015625" lon="-5.20830332301557064056396484375">
        <ele>191.1999969482421875</ele>
        <time>2019-07-11T16:24:50.000Z</time>
      </trkpt>
      <trkpt lat="43.44987563788890838623046875" lon="-5.20810483954846858978271484375">
        <ele>192.1999969482421875</ele>
        <time>2019-07-11T16:24:51.000Z</time>
      </trkpt>
      <trkpt lat="43.449895083904266357421875" lon="-5.20790870301425457000732421875">
        <ele>193.399993896484375</ele>
        <time>2019-07-11T16:24:52.000Z</time>
      </trkpt>
      <trkpt lat="43.4499089978635311126708984375" lon="-5.20771390758454799652099609375">
        <ele>194.8000030517578125</ele>
        <time>2019-07-11T16:24:53.000Z</time>
      </trkpt>
      <trkpt lat="43.44991746358573436737060546875" lon="-5.20751508884131908416748046875">
        <ele>196.600006103515625</ele>
        <time>2019-07-11T16:24:54.000Z</time>
      </trkpt>
      <trkpt lat="43.4499143622815608978271484375" lon="-5.2073121629655361175537109375">
        <ele>198.1999969482421875</ele>
        <time>2019-07-11T16:24:55.000Z</time>
      </trkpt>
      <trkpt lat="43.44990120269358158111572265625" lon="-5.20710940472781658172607421875">
        <ele>199.600006103515625</ele>
        <time>2019-07-11T16:24:56.000Z</time>
      </trkpt>
      <trkpt lat="43.4498744644224643707275390625" lon="-5.20691125653684139251708984375">
        <ele>201</ele>
        <time>2019-07-11T16:24:57.000Z</time>
      </trkpt>
      <trkpt lat="43.4498399309813976287841796875" lon="-5.20672484301030635833740234375">
        <ele>202.600006103515625</ele>
        <time>2019-07-11T16:24:58.000Z</time>
      </trkpt>
      <trkpt lat="43.44980950467288494110107421875" lon="-5.20655435509979724884033203125">
        <ele>204.600006103515625</ele>
        <time>2019-07-11T16:24:59.000Z</time>
      </trkpt>
      <trkpt lat="43.4497970156371593475341796875" lon="-5.20639769732952117919921875">
        <ele>206.600006103515625</ele>
        <time>2019-07-11T16:25:00.000Z</time>
      </trkpt>
      <trkpt lat="43.44981989823281764984130859375" lon="-5.2062557078897953033447265625">
        <ele>208.8000030517578125</ele>
        <time>2019-07-11T16:25:01.000Z</time>
      </trkpt>
      <trkpt lat="43.449880667030811309814453125" lon="-5.20612687803804874420166015625">
        <ele>210.600006103515625</ele>
        <time>2019-07-11T16:25:02.000Z</time>
      </trkpt>
      <trkpt lat="43.449967168271541595458984375" lon="-5.206011123955249786376953125">
        <ele>212.1999969482421875</ele>
        <time>2019-07-11T16:25:03.000Z</time>
      </trkpt>
      <trkpt lat="43.45006062649190425872802734375" lon="-5.2059019915759563446044921875">
        <ele>213.399993896484375</ele>
        <time>2019-07-11T16:25:04.000Z</time>
      </trkpt>
      <trkpt lat="43.45014654099941253662109375" lon="-5.20580098964273929595947265625">
        <ele>214.600006103515625</ele>
        <time>2019-07-11T16:25:05.000Z</time>
      </trkpt>
      <trkpt lat="43.450211249291896820068359375" lon="-5.20569889806210994720458984375">
        <ele>215.8000030517578125</ele>
        <time>2019-07-11T16:25:06.000Z</time>
      </trkpt>
      <trkpt lat="43.45024754293262958526611328125" lon="-5.20558171905577182769775390625">
        <ele>217.1999969482421875</ele>
        <time>2019-07-11T16:25:07.000Z</time>
      </trkpt>
      <trkpt lat="43.45025441609323024749755859375" lon="-5.20545247010886669158935546875">
        <ele>218.600006103515625</ele>
        <time>2019-07-11T16:25:08.000Z</time>
      </trkpt>
      <trkpt lat="43.4502415917813777923583984375" lon="-5.20531718619167804718017578125">
        <ele>219.8000030517578125</ele>
        <time>2019-07-11T16:25:09.000Z</time>
      </trkpt>
      <trkpt lat="43.450219295918941497802734375" lon="-5.20517670549452304840087890625">
        <ele>220.8000030517578125</ele>
        <time>2019-07-11T16:25:10.000Z</time>
      </trkpt>
      <trkpt lat="43.4501565992832183837890625" lon="-5.204880237579345703125">
        <ele>222.8000030517578125</ele>
        <time>2019-07-11T16:25:12.000Z</time>
      </trkpt>
      <trkpt lat="43.4501242451369762420654296875" lon="-5.2047238312661647796630859375">
        <ele>224</ele>
        <time>2019-07-11T16:25:13.000Z</time>
      </trkpt>
      <trkpt lat="43.450098931789398193359375" lon="-5.204558707773685455322265625">
        <ele>225.1999969482421875</ele>
        <time>2019-07-11T16:25:14.000Z</time>
      </trkpt>
      <trkpt lat="43.45008225180208683013916015625" lon="-5.20438327454030513763427734375">
        <ele>226.8000030517578125</ele>
        <time>2019-07-11T16:25:15.000Z</time>
      </trkpt>
      <trkpt lat="43.45006800256669521331787109375" lon="-5.2042044885456562042236328125">
        <ele>228</ele>
        <time>2019-07-11T16:25:16.000Z</time>
      </trkpt>
      <trkpt lat="43.450050652027130126953125" lon="-5.204029977321624755859375">
        <ele>229</ele>
        <time>2019-07-11T16:25:17.000Z</time>
      </trkpt>
      <trkpt lat="43.450032211840152740478515625" lon="-5.20386837422847747802734375">
        <ele>230</ele>
        <time>2019-07-11T16:25:18.000Z</time>
      </trkpt>
      <trkpt lat="43.45000916160643100738525390625" lon="-5.20359487272799015045166015625">
        <ele>232.1999969482421875</ele>
        <time>2019-07-11T16:25:20.000Z</time>
      </trkpt>
      <trkpt lat="43.45001016743481159210205078125" lon="-5.2034789510071277618408203125">
        <ele>233.600006103515625</ele>
        <time>2019-07-11T16:25:21.000Z</time>
      </trkpt>
      <trkpt lat="43.45002776943147182464599609375" lon="-5.20337694324553012847900390625">
        <ele>235.1999969482421875</ele>
        <time>2019-07-11T16:25:22.000Z</time>
      </trkpt>
      <trkpt lat="43.45006867311894893646240234375" lon="-5.2032968960702419281005859375">
        <ele>237</ele>
        <time>2019-07-11T16:25:23.000Z</time>
      </trkpt>
      <trkpt lat="43.4501286037266254425048828125" lon="-5.2032543160021305084228515625">
        <ele>238.600006103515625</ele>
        <time>2019-07-11T16:25:24.000Z</time>
      </trkpt>
      <trkpt lat="43.4501949883997440338134765625" lon="-5.2032613568007946014404296875">
        <ele>240</ele>
        <time>2019-07-11T16:25:25.000Z</time>
      </trkpt>
      <trkpt lat="43.45026296563446521759033203125" lon="-5.2033138275146484375">
        <ele>241</ele>
        <time>2019-07-11T16:25:26.000Z</time>
      </trkpt>
      <trkpt lat="43.4504236467182636260986328125" lon="-5.2034816332161426544189453125">
        <ele>242.600006103515625</ele>
        <time>2019-07-11T16:25:28.000Z</time>
      </trkpt>
      <trkpt lat="43.45073050819337368011474609375" lon="-5.20377374254167079925537109375">
        <ele>243.8000030517578125</ele>
        <time>2019-07-11T16:25:31.000Z</time>
      </trkpt>
      <trkpt lat="43.4509128145873546600341796875" lon="-5.20398530177772045135498046875">
        <ele>245.8000030517578125</ele>
        <time>2019-07-11T16:25:33.000Z</time>
      </trkpt>
      <trkpt lat="43.45099453814327716827392578125" lon="-5.20407356321811676025390625">
        <ele>247.1999969482421875</ele>
        <time>2019-07-11T16:25:34.000Z</time>
      </trkpt>
      <trkpt lat="43.45107668079435825347900390625" lon="-5.20412896759808063507080078125">
        <ele>248.399993896484375</ele>
        <time>2019-07-11T16:25:35.000Z</time>
      </trkpt>
      <trkpt lat="43.4511511959135532379150390625" lon="-5.2041394449770450592041015625">
        <ele>249.399993896484375</ele>
        <time>2019-07-11T16:25:36.000Z</time>
      </trkpt>
      <trkpt lat="43.45121028833091259002685546875" lon="-5.20410214550793170928955078125">
        <ele>250.600006103515625</ele>
        <time>2019-07-11T16:25:37.000Z</time>
      </trkpt>
      <trkpt lat="43.4512460790574550628662109375" lon="-5.2040277980268001556396484375">
        <ele>252</ele>
        <time>2019-07-11T16:25:38.000Z</time>
      </trkpt>
      <trkpt lat="43.45126443542540073394775390625" lon="-5.20393115468323230743408203125">
        <ele>253.600006103515625</ele>
        <time>2019-07-11T16:25:39.000Z</time>
      </trkpt>
      <trkpt lat="43.45127801410853862762451171875" lon="-5.20382143557071685791015625">
        <ele>255</ele>
        <time>2019-07-11T16:25:40.000Z</time>
      </trkpt>
      <trkpt lat="43.4512950293719768524169921875" lon="-5.20370149053633213043212890625">
        <ele>256.20001220703125</ele>
        <time>2019-07-11T16:25:41.000Z</time>
      </trkpt>
      <trkpt lat="43.4513131342828273773193359375" lon="-5.20357123576104640960693359375">
        <ele>257.399993896484375</ele>
        <time>2019-07-11T16:25:42.000Z</time>
      </trkpt>
      <trkpt lat="43.45132277347147464752197265625" lon="-5.20343796350061893463134765625">
        <ele>258.399993896484375</ele>
        <time>2019-07-11T16:25:43.000Z</time>
      </trkpt>
      <trkpt lat="43.451309613883495330810546875" lon="-5.20331122912466526031494140625">
        <ele>259</ele>
        <time>2019-07-11T16:25:44.000Z</time>
      </trkpt>
      <trkpt lat="43.45126644708216190338134765625" lon="-5.203207544982433319091796875">
        <ele>259.399993896484375</ele>
        <time>2019-07-11T16:25:45.000Z</time>
      </trkpt>
      <trkpt lat="43.451197631657123565673828125" lon="-5.20313118584454059600830078125">
        <ele>260.20001220703125</ele>
        <time>2019-07-11T16:25:46.000Z</time>
      </trkpt>
      <trkpt lat="43.45111004076898097991943359375" lon="-5.20306865684688091278076171875">
        <ele>261.399993896484375</ele>
        <time>2019-07-11T16:25:47.000Z</time>
      </trkpt>
      <trkpt lat="43.4510066919028759002685546875" lon="-5.203009061515331268310546875">
        <ele>262.600006103515625</ele>
        <time>2019-07-11T16:25:48.000Z</time>
      </trkpt>
      <trkpt lat="43.4508926980197429656982421875" lon="-5.20294242538511753082275390625">
        <ele>263.600006103515625</ele>
        <time>2019-07-11T16:25:49.000Z</time>
      </trkpt>
      <trkpt lat="43.450659848749637603759765625" lon="-5.2027671597898006439208984375">
        <ele>265.79998779296875</ele>
        <time>2019-07-11T16:25:51.000Z</time>
      </trkpt>
      <trkpt lat="43.45055532641708850860595703125" lon="-5.20265006460249423980712890625">
        <ele>266.79998779296875</ele>
        <time>2019-07-11T16:25:52.000Z</time>
      </trkpt>
      <trkpt lat="43.45046916045248508453369140625" lon="-5.20251176320016384124755859375">
        <ele>267.79998779296875</ele>
        <time>2019-07-11T16:25:53.000Z</time>
      </trkpt>
      <trkpt lat="43.45040998421609401702880859375" lon="-5.20235552452504634857177734375">
        <ele>269</ele>
        <time>2019-07-11T16:25:54.000Z</time>
      </trkpt>
      <trkpt lat="43.4503757022321224212646484375" lon="-5.2021913230419158935546875">
        <ele>270.20001220703125</ele>
        <time>2019-07-11T16:25:55.000Z</time>
      </trkpt>
      <trkpt lat="43.45034175552427768707275390625" lon="-5.202032737433910369873046875">
        <ele>271.399993896484375</ele>
        <time>2019-07-11T16:25:56.000Z</time>
      </trkpt>
      <trkpt lat="43.4502855129539966583251953125" lon="-5.20188680849969387054443359375">
        <ele>272.600006103515625</ele>
        <time>2019-07-11T16:25:57.000Z</time>
      </trkpt>
      <trkpt lat="43.4502089023590087890625" lon="-5.20175001583993434906005859375">
        <ele>273.600006103515625</ele>
        <time>2019-07-11T16:25:58.000Z</time>
      </trkpt>
      <trkpt lat="43.4501218982040882110595703125" lon="-5.201615653932094573974609375">
        <ele>275.399993896484375</ele>
        <time>2019-07-11T16:25:59.000Z</time>
      </trkpt>
      <trkpt lat="43.4500290267169475555419921875" lon="-5.2014790289103984832763671875">
        <ele>277</ele>
        <time>2019-07-11T16:26:00.000Z</time>
      </trkpt>
      <trkpt lat="43.44993255101144313812255859375" lon="-5.201338715851306915283203125">
        <ele>279</ele>
        <time>2019-07-11T16:26:01.000Z</time>
      </trkpt>
      <trkpt lat="43.44983297400176525115966796875" lon="-5.2011933736503124237060546875">
        <ele>280.600006103515625</ele>
        <time>2019-07-11T16:26:02.000Z</time>
      </trkpt>
      <trkpt lat="43.44973155297338962554931640625" lon="-5.20104400813579559326171875">
        <ele>282</ele>
        <time>2019-07-11T16:26:03.000Z</time>
      </trkpt>
      <trkpt lat="43.44963046722114086151123046875" lon="-5.2008882723748683929443359375">
        <ele>283.399993896484375</ele>
        <time>2019-07-11T16:26:04.000Z</time>
      </trkpt>
      <trkpt lat="43.4495334886014461517333984375" lon="-5.20072608254849910736083984375">
        <ele>284.600006103515625</ele>
        <time>2019-07-11T16:26:05.000Z</time>
      </trkpt>
      <trkpt lat="43.4494432993233203887939453125" lon="-5.200562886893749237060546875">
        <ele>286.600006103515625</ele>
        <time>2019-07-11T16:26:06.000Z</time>
      </trkpt>
      <trkpt lat="43.449364006519317626953125" lon="-5.2004027925431728363037109375">
        <ele>288.600006103515625</ele>
        <time>2019-07-11T16:26:07.000Z</time>
      </trkpt>
      <trkpt lat="43.44929770566523075103759765625" lon="-5.20024395547807216644287109375">
        <ele>290.600006103515625</ele>
        <time>2019-07-11T16:26:08.000Z</time>
      </trkpt>
      <trkpt lat="43.44924925826489925384521484375" lon="-5.20007816143333911895751953125">
        <ele>292.600006103515625</ele>
        <time>2019-07-11T16:26:09.000Z</time>
      </trkpt>
      <trkpt lat="43.4492205083370208740234375" lon="-5.19990130327641963958740234375">
        <ele>294.79998779296875</ele>
        <time>2019-07-11T16:26:10.000Z</time>
      </trkpt>
      <trkpt lat="43.4492106176912784576416015625" lon="-5.19971488974988460540771484375">
        <ele>296.600006103515625</ele>
        <time>2019-07-11T16:26:11.000Z</time>
      </trkpt>
      <trkpt lat="43.4492070972919464111328125" lon="-5.19952042959630489349365234375">
        <ele>298.399993896484375</ele>
        <time>2019-07-11T16:26:12.000Z</time>
      </trkpt>
      <trkpt lat="43.44919175840914249420166015625" lon="-5.19932345487177371978759765625">
        <ele>299.79998779296875</ele>
        <time>2019-07-11T16:26:13.000Z</time>
      </trkpt>
      <trkpt lat="43.44915990717709064483642578125" lon="-5.19913268275558948516845703125">
        <ele>301</ele>
        <time>2019-07-11T16:26:14.000Z</time>
      </trkpt>
      <trkpt lat="43.44911917112767696380615234375" lon="-5.19896185956895351409912109375">
        <ele>302</ele>
        <time>2019-07-11T16:26:15.000Z</time>
      </trkpt>
      <trkpt lat="43.449073992669582366943359375" lon="-5.19880981184542179107666015625">
        <ele>303.20001220703125</ele>
        <time>2019-07-11T16:26:16.000Z</time>
      </trkpt>
      <trkpt lat="43.4490356035530567169189453125" lon="-5.1986669003963470458984375">
        <ele>304.600006103515625</ele>
        <time>2019-07-11T16:26:17.000Z</time>
      </trkpt>
      <trkpt lat="43.44901255331933498382568359375" lon="-5.1985259167850017547607421875">
        <ele>306.399993896484375</ele>
        <time>2019-07-11T16:26:18.000Z</time>
      </trkpt>
      <trkpt lat="43.44900366850197315216064453125" lon="-5.19839239306747913360595703125">
        <ele>307.79998779296875</ele>
        <time>2019-07-11T16:26:19.000Z</time>
      </trkpt>
      <trkpt lat="43.4490017406642436981201171875" lon="-5.198271274566650390625">
        <ele>309.399993896484375</ele>
        <time>2019-07-11T16:26:20.000Z</time>
      </trkpt>
      <trkpt lat="43.44900450669229030609130859375" lon="-5.1981621421873569488525390625">
        <ele>311.399993896484375</ele>
        <time>2019-07-11T16:26:21.000Z</time>
      </trkpt>
      <trkpt lat="43.4490071050822734832763671875" lon="-5.1980565302073955535888671875">
        <ele>313</ele>
        <time>2019-07-11T16:26:22.000Z</time>
      </trkpt>
      <trkpt lat="43.4490047581493854522705078125" lon="-5.1979512535035610198974609375">
        <ele>314.600006103515625</ele>
        <time>2019-07-11T16:26:23.000Z</time>
      </trkpt>
      <trkpt lat="43.4489943645894527435302734375" lon="-5.197845138609409332275390625">
        <ele>316</ele>
        <time>2019-07-11T16:26:24.000Z</time>
      </trkpt>
      <trkpt lat="43.44895698130130767822265625" lon="-5.19762310199439525604248046875">
        <ele>317.79998779296875</ele>
        <time>2019-07-11T16:26:26.000Z</time>
      </trkpt>
      <trkpt lat="43.44890157692134380340576171875" lon="-5.19739209674298763275146484375">
        <ele>319</ele>
        <time>2019-07-11T16:26:28.000Z</time>
      </trkpt>
      <trkpt lat="43.4488582424819469451904296875" lon="-5.197278521955013275146484375">
        <ele>320.20001220703125</ele>
        <time>2019-07-11T16:26:29.000Z</time>
      </trkpt>
      <trkpt lat="43.448802419006824493408203125" lon="-5.1971700601279735565185546875">
        <ele>321.600006103515625</ele>
        <time>2019-07-11T16:26:30.000Z</time>
      </trkpt>
      <trkpt lat="43.4486537240445613861083984375" lon="-5.196967385709285736083984375">
        <ele>323.20001220703125</ele>
        <time>2019-07-11T16:26:32.000Z</time>
      </trkpt>
      <trkpt lat="43.44845733605325222015380859375" lon="-5.19678625278174877166748046875">
        <ele>324.20001220703125</ele>
        <time>2019-07-11T16:26:34.000Z</time>
      </trkpt>
      <trkpt lat="43.4483486227691173553466796875" lon="-5.1967090554535388946533203125">
        <ele>325.399993896484375</ele>
        <time>2019-07-11T16:26:35.000Z</time>
      </trkpt>
      <trkpt lat="43.448237143456935882568359375" lon="-5.1966527290642261505126953125">
        <ele>326.600006103515625</ele>
        <time>2019-07-11T16:26:36.000Z</time>
      </trkpt>
      <trkpt lat="43.44812306575477123260498046875" lon="-5.1966265775263309478759765625">
        <ele>327.600006103515625</ele>
        <time>2019-07-11T16:26:37.000Z</time>
      </trkpt>
      <trkpt lat="43.4480133466422557830810546875" lon="-5.19662397913634777069091796875">
        <ele>328.399993896484375</ele>
        <time>2019-07-11T16:26:38.000Z</time>
      </trkpt>
      <trkpt lat="43.4478115104138851165771484375" lon="-5.19662104547023773193359375">
        <ele>330.20001220703125</ele>
        <time>2019-07-11T16:26:40.000Z</time>
      </trkpt>
      <trkpt lat="43.447724170982837677001953125" lon="-5.19658139906823635101318359375">
        <ele>331.600006103515625</ele>
        <time>2019-07-11T16:26:41.000Z</time>
      </trkpt>
      <trkpt lat="43.44764814712107181549072265625" lon="-5.19650638103485107421875">
        <ele>333.20001220703125</ele>
        <time>2019-07-11T16:26:42.000Z</time>
      </trkpt>
      <trkpt lat="43.44758209772408008575439453125" lon="-5.19640319980680942535400390625">
        <ele>334.600006103515625</ele>
        <time>2019-07-11T16:26:43.000Z</time>
      </trkpt>
      <trkpt lat="43.44752057455480098724365234375" lon="-5.1962782256305217742919921875">
        <ele>335.79998779296875</ele>
        <time>2019-07-11T16:26:44.000Z</time>
      </trkpt>
      <trkpt lat="43.44738881103694438934326171875" lon="-5.1959918998181819915771484375">
        <ele>337.600006103515625</ele>
        <time>2019-07-11T16:26:46.000Z</time>
      </trkpt>
      <trkpt lat="43.44730381853878498077392578125" lon="-5.19584588706493377685546875">
        <ele>338.399993896484375</ele>
        <time>2019-07-11T16:26:47.000Z</time>
      </trkpt>
      <trkpt lat="43.4471992962062358856201171875" lon="-5.19571370445191860198974609375">
        <ele>339.399993896484375</ele>
        <time>2019-07-11T16:26:48.000Z</time>
      </trkpt>
      <trkpt lat="43.44708085991442203521728515625" lon="-5.1956019736826419830322265625">
        <ele>340.600006103515625</ele>
        <time>2019-07-11T16:26:49.000Z</time>
      </trkpt>
      <trkpt lat="43.44696284271776676177978515625" lon="-5.19550482742488384246826171875">
        <ele>341.79998779296875</ele>
        <time>2019-07-11T16:26:50.000Z</time>
      </trkpt>
      <trkpt lat="43.44686024822294712066650390625" lon="-5.195411704480648040771484375">
        <ele>343</ele>
        <time>2019-07-11T16:26:51.000Z</time>
      </trkpt>
      <trkpt lat="43.4467852301895618438720703125" lon="-5.19531858153641223907470703125">
        <ele>344.399993896484375</ele>
        <time>2019-07-11T16:26:52.000Z</time>
      </trkpt>
      <trkpt lat="43.44674558378756046295166015625" lon="-5.1952241174876689910888671875">
        <ele>346</ele>
        <time>2019-07-11T16:26:53.000Z</time>
      </trkpt>
      <trkpt lat="43.44674105755984783172607421875" lon="-5.19512839615345001220703125">
        <ele>348</ele>
        <time>2019-07-11T16:26:54.000Z</time>
      </trkpt>
      <trkpt lat="43.446767963469028472900390625" lon="-5.1950333453714847564697265625">
        <ele>350.20001220703125</ele>
        <time>2019-07-11T16:26:55.000Z</time>
      </trkpt>
      <trkpt lat="43.44682102091610431671142578125" lon="-5.19493787549436092376708984375">
        <ele>352.20001220703125</ele>
        <time>2019-07-11T16:26:56.000Z</time>
      </trkpt>
      <trkpt lat="43.4468864835798740386962890625" lon="-5.1948365382850170135498046875">
        <ele>353.79998779296875</ele>
        <time>2019-07-11T16:26:57.000Z</time>
      </trkpt>
      <trkpt lat="43.44694021157920360565185546875" lon="-5.19471223466098308563232421875">
        <ele>354.600006103515625</ele>
        <time>2019-07-11T16:26:58.000Z</time>
      </trkpt>
      <trkpt lat="43.4469666145741939544677734375" lon="-5.19456781446933746337890625">
        <ele>355.20001220703125</ele>
        <time>2019-07-11T16:26:59.000Z</time>
      </trkpt>
      <trkpt lat="43.44696544110774993896484375" lon="-5.194416604936122894287109375">
        <ele>355.600006103515625</ele>
        <time>2019-07-11T16:27:00.000Z</time>
      </trkpt>
      <trkpt lat="43.446942977607250213623046875" lon="-5.19410018809139728546142578125">
        <ele>356.79998779296875</ele>
        <time>2019-07-11T16:27:02.000Z</time>
      </trkpt>
      <trkpt lat="43.44694624654948711395263671875" lon="-5.19392869435250759124755859375">
        <ele>357.79998779296875</ele>
        <time>2019-07-11T16:27:03.000Z</time>
      </trkpt>
      <trkpt lat="43.446959741413593292236328125" lon="-5.1937462203204631805419921875">
        <ele>359</ele>
        <time>2019-07-11T16:27:04.000Z</time>
      </trkpt>
      <trkpt lat="43.44702151603996753692626953125" lon="-5.19336082041263580322265625">
        <ele>360.79998779296875</ele>
        <time>2019-07-11T16:27:06.000Z</time>
      </trkpt>
      <trkpt lat="43.44706158153712749481201171875" lon="-5.19316828809678554534912109375">
        <ele>362</ele>
        <time>2019-07-11T16:27:07.000Z</time>
      </trkpt>
      <trkpt lat="43.4471034072339534759521484375" lon="-5.1929854787886142730712890625">
        <ele>363.399993896484375</ele>
        <time>2019-07-11T16:27:08.000Z</time>
      </trkpt>
      <trkpt lat="43.44714473001658916473388671875" lon="-5.192814655601978302001953125">
        <ele>364.600006103515625</ele>
        <time>2019-07-11T16:27:09.000Z</time>
      </trkpt>
      <trkpt lat="43.44719745218753814697265625" lon="-5.1926602609455585479736328125">
        <ele>366</ele>
        <time>2019-07-11T16:27:10.000Z</time>
      </trkpt>
      <trkpt lat="43.44725855626165866851806640625" lon="-5.192524306476116180419921875">
        <ele>367.399993896484375</ele>
        <time>2019-07-11T16:27:11.000Z</time>
      </trkpt>
      <trkpt lat="43.44732091762125492095947265625" lon="-5.192404277622699737548828125">
        <ele>369.20001220703125</ele>
        <time>2019-07-11T16:27:12.000Z</time>
      </trkpt>
      <trkpt lat="43.44737179577350616455078125" lon="-5.19229330122470855712890625">
        <ele>371</ele>
        <time>2019-07-11T16:27:13.000Z</time>
      </trkpt>
      <trkpt lat="43.44740440137684345245361328125" lon="-5.19218341447412967681884765625">
        <ele>373</ele>
        <time>2019-07-11T16:27:14.000Z</time>
      </trkpt>
      <trkpt lat="43.4474108554422855377197265625" lon="-5.19207377918064594268798828125">
        <ele>374.600006103515625</ele>
        <time>2019-07-11T16:27:15.000Z</time>
      </trkpt>
      <trkpt lat="43.44739325344562530517578125" lon="-5.1919645629823207855224609375">
        <ele>376</ele>
        <time>2019-07-11T16:27:16.000Z</time>
      </trkpt>
      <trkpt lat="43.44735679216682910919189453125" lon="-5.19185501150786876678466796875">
        <ele>377</ele>
        <time>2019-07-11T16:27:17.000Z</time>
      </trkpt>
      <trkpt lat="43.44730918295681476593017578125" lon="-5.1917426101863384246826171875">
        <ele>378.20001220703125</ele>
        <time>2019-07-11T16:27:18.000Z</time>
      </trkpt>
      <trkpt lat="43.44725570641458034515380859375" lon="-5.19162568263709545135498046875">
        <ele>379.399993896484375</ele>
        <time>2019-07-11T16:27:19.000Z</time>
      </trkpt>
      <trkpt lat="43.44713835977017879486083984375" lon="-5.19136928021907806396484375">
        <ele>381.20001220703125</ele>
        <time>2019-07-11T16:27:21.000Z</time>
      </trkpt>
      <trkpt lat="43.44706225208938121795654296875" lon="-5.191246233880519866943359375">
        <ele>381.79998779296875</ele>
        <time>2019-07-11T16:27:22.000Z</time>
      </trkpt>
      <trkpt lat="43.446973823010921478271484375" lon="-5.1911364309489727020263671875">
        <ele>382.79998779296875</ele>
        <time>2019-07-11T16:27:23.000Z</time>
      </trkpt>
      <trkpt lat="43.44687248580157756805419921875" lon="-5.1910516060888767242431640625">
        <ele>383.79998779296875</ele>
        <time>2019-07-11T16:27:24.000Z</time>
      </trkpt>
      <trkpt lat="43.44664625823497772216796875" lon="-5.19092193804681301116943359375">
        <ele>385.79998779296875</ele>
        <time>2019-07-11T16:27:26.000Z</time>
      </trkpt>
      <trkpt lat="43.446536958217620849609375" lon="-5.1908373646438121795654296875">
        <ele>387</ele>
        <time>2019-07-11T16:27:27.000Z</time>
      </trkpt>
      <trkpt lat="43.4464439190924167633056640625" lon="-5.19072228111326694488525390625">
        <ele>388.20001220703125</ele>
        <time>2019-07-11T16:27:28.000Z</time>
      </trkpt>
      <trkpt lat="43.4463693201541900634765625" lon="-5.19058096222579479217529296875">
        <ele>389.399993896484375</ele>
        <time>2019-07-11T16:27:29.000Z</time>
      </trkpt>
      <trkpt lat="43.44627385027706623077392578125" lon="-5.19021995365619659423828125">
        <ele>390.79998779296875</ele>
        <time>2019-07-11T16:27:31.000Z</time>
      </trkpt>
      <trkpt lat="43.44623244367539882659912109375" lon="-5.1897721923887729644775390625">
        <ele>392</ele>
        <time>2019-07-11T16:27:33.000Z</time>
      </trkpt>
      <trkpt lat="43.44622758217155933380126953125" lon="-5.1890297234058380126953125">
        <ele>391.79998779296875</ele>
        <time>2019-07-11T16:27:36.000Z</time>
      </trkpt>
      <trkpt lat="43.44625943340361118316650390625" lon="-5.188578106462955474853515625">
        <ele>391.600006103515625</ele>
        <time>2019-07-11T16:27:38.000Z</time>
      </trkpt>
      <trkpt lat="43.44632984139025211334228515625" lon="-5.1881464384496212005615234375">
        <ele>394.600006103515625</ele>
        <time>2019-07-11T16:27:40.000Z</time>
      </trkpt>
      <trkpt lat="43.44637359492480754852294921875" lon="-5.1879315264523029327392578125">
        <ele>397</ele>
        <time>2019-07-11T16:27:41.000Z</time>
      </trkpt>
      <trkpt lat="43.44641818664968013763427734375" lon="-5.18771066330373287200927734375">
        <ele>398.399993896484375</ele>
        <time>2019-07-11T16:27:42.000Z</time>
      </trkpt>
      <trkpt lat="43.44645305536687374114990234375" lon="-5.18748234026134014129638671875">
        <ele>400</ele>
        <time>2019-07-11T16:27:43.000Z</time>
      </trkpt>
      <trkpt lat="43.44648088328540325164794921875" lon="-5.18725334666669368743896484375">
        <ele>401.600006103515625</ele>
        <time>2019-07-11T16:27:44.000Z</time>
      </trkpt>
      <trkpt lat="43.44650678336620330810546875" lon="-5.18702720291912555694580078125">
        <ele>403.399993896484375</ele>
        <time>2019-07-11T16:27:45.000Z</time>
      </trkpt>
      <trkpt lat="43.446552716195583343505859375" lon="-5.18681094981729984283447265625">
        <ele>404.79998779296875</ele>
        <time>2019-07-11T16:27:46.000Z</time>
      </trkpt>
      <trkpt lat="43.4466259740293025970458984375" lon="-5.1866071857511997222900390625">
        <ele>406.20001220703125</ele>
        <time>2019-07-11T16:27:47.000Z</time>
      </trkpt>
      <trkpt lat="43.44672127626836299896240234375" lon="-5.186418257653713226318359375">
        <ele>407.79998779296875</ele>
        <time>2019-07-11T16:27:48.000Z</time>
      </trkpt>
      <trkpt lat="43.44683342613279819488525390625" lon="-5.18624986521899700164794921875">
        <ele>409.600006103515625</ele>
        <time>2019-07-11T16:27:49.000Z</time>
      </trkpt>
      <trkpt lat="43.446958400309085845947265625" lon="-5.18610703758895397186279296875">
        <ele>411.399993896484375</ele>
        <time>2019-07-11T16:27:50.000Z</time>
      </trkpt>
      <trkpt lat="43.44708672724664211273193359375" lon="-5.18597845919430255889892578125">
        <ele>413</ele>
        <time>2019-07-11T16:27:51.000Z</time>
      </trkpt>
      <trkpt lat="43.4472110308706760406494140625" lon="-5.185852311551570892333984375">
        <ele>415</ele>
        <time>2019-07-11T16:27:52.000Z</time>
      </trkpt>
      <trkpt lat="43.4473267011344432830810546875" lon="-5.18571040593087673187255859375">
        <ele>417.20001220703125</ele>
        <time>2019-07-11T16:27:53.000Z</time>
      </trkpt>
      <trkpt lat="43.447435162961483001708984375" lon="-5.18556020222604274749755859375">
        <ele>419.20001220703125</ele>
        <time>2019-07-11T16:27:54.000Z</time>
      </trkpt>
      <trkpt lat="43.4475275315344333648681640625" lon="-5.1854119263589382171630859375">
        <ele>420.600006103515625</ele>
        <time>2019-07-11T16:27:55.000Z</time>
      </trkpt>
      <trkpt lat="43.4476059861481189727783203125" lon="-5.1852815039455890655517578125">
        <ele>421.79998779296875</ele>
        <time>2019-07-11T16:27:56.000Z</time>
      </trkpt>
      <trkpt lat="43.447668515145778656005859375" lon="-5.18517681397497653961181640625">
        <ele>423.399993896484375</ele>
        <time>2019-07-11T16:27:57.000Z</time>
      </trkpt>
      <trkpt lat="43.44771386124193668365478515625" lon="-5.1850890554487705230712890625">
        <ele>425.20001220703125</ele>
        <time>2019-07-11T16:27:58.000Z</time>
      </trkpt>
      <trkpt lat="43.4477390907704830169677734375" lon="-5.185010433197021484375">
        <ele>427.399993896484375</ele>
        <time>2019-07-11T16:27:59.000Z</time>
      </trkpt>
      <trkpt lat="43.44774118624627590179443359375" lon="-5.1849401928484439849853515625">
        <ele>429.600006103515625</ele>
        <time>2019-07-11T16:28:00.000Z</time>
      </trkpt>
      <trkpt lat="43.4477199800312519073486328125" lon="-5.18487942405045032501220703125">
        <ele>431.600006103515625</ele>
        <time>2019-07-11T16:28:01.000Z</time>
      </trkpt>
      <trkpt lat="43.44767748378217220306396484375" lon="-5.1848401129245758056640625">
        <ele>433.20001220703125</ele>
        <time>2019-07-11T16:28:02.000Z</time>
      </trkpt>
      <trkpt lat="43.44762132503092288970947265625" lon="-5.18483617343008518218994140625">
        <ele>434.20001220703125</ele>
        <time>2019-07-11T16:28:03.000Z</time>
      </trkpt>
      <trkpt lat="43.447557874023914337158203125" lon="-5.18487431108951568603515625">
        <ele>435.20001220703125</ele>
        <time>2019-07-11T16:28:04.000Z</time>
      </trkpt>
      <trkpt lat="43.447490148246288299560546875" lon="-5.18494463525712490081787109375">
        <ele>435.79998779296875</ele>
        <time>2019-07-11T16:28:05.000Z</time>
      </trkpt>
      <trkpt lat="43.447238691151142120361328125" lon="-5.18526750616729259490966796875">
        <ele>437</ele>
        <time>2019-07-11T16:28:08.000Z</time>
      </trkpt>
      <trkpt lat="43.446924872696399688720703125" lon="-5.1856151036918163299560546875">
        <ele>438.20001220703125</ele>
        <time>2019-07-11T16:28:11.000Z</time>
      </trkpt>
      <trkpt lat="43.44670233316719532012939453125" lon="-5.185773186385631561279296875">
        <ele>439.79998779296875</ele>
        <time>2019-07-11T16:28:13.000Z</time>
      </trkpt>
      <trkpt lat="43.44660074450075626373291015625" lon="-5.18583110533654689788818359375">
        <ele>441.20001220703125</ele>
        <time>2019-07-11T16:28:14.000Z</time>
      </trkpt>
      <trkpt lat="43.44650812447071075439453125" lon="-5.18588374368846416473388671875">
        <ele>443.20001220703125</ele>
        <time>2019-07-11T16:28:15.000Z</time>
      </trkpt>
      <trkpt lat="43.4464204497635364532470703125" lon="-5.1859386451542377471923828125">
        <ele>445.20001220703125</ele>
        <time>2019-07-11T16:28:16.000Z</time>
      </trkpt>
      <trkpt lat="43.44633805565536022186279296875" lon="-5.186001174151897430419921875">
        <ele>446.600006103515625</ele>
        <time>2019-07-11T16:28:17.000Z</time>
      </trkpt>
      <trkpt lat="43.44626127742230892181396484375" lon="-5.18606848083436489105224609375">
        <ele>447.600006103515625</ele>
        <time>2019-07-11T16:28:18.000Z</time>
      </trkpt>
      <trkpt lat="43.44612649641931056976318359375" lon="-5.18621499650180339813232421875">
        <ele>449.600006103515625</ele>
        <time>2019-07-11T16:28:20.000Z</time>
      </trkpt>
      <trkpt lat="43.44606916420161724090576171875" lon="-5.18629831261932849884033203125">
        <ele>450.600006103515625</ele>
        <time>2019-07-11T16:28:21.000Z</time>
      </trkpt>
      <trkpt lat="43.4460151009261608123779296875" lon="-5.186386071145534515380859375">
        <ele>451.79998779296875</ele>
        <time>2019-07-11T16:28:22.000Z</time>
      </trkpt>
      <trkpt lat="43.4459602832794189453125" lon="-5.18648019991815090179443359375">
        <ele>453.399993896484375</ele>
        <time>2019-07-11T16:28:23.000Z</time>
      </trkpt>
      <trkpt lat="43.44590554945170879364013671875" lon="-5.1865853928029537200927734375">
        <ele>455</ele>
        <time>2019-07-11T16:28:24.000Z</time>
      </trkpt>
      <trkpt lat="43.44585542567074298858642578125" lon="-5.1867034099996089935302734375">
        <ele>456.600006103515625</ele>
        <time>2019-07-11T16:28:25.000Z</time>
      </trkpt>
      <trkpt lat="43.44581217505037784576416015625" lon="-5.18682905472815036773681640625">
        <ele>457.600006103515625</ele>
        <time>2019-07-11T16:28:26.000Z</time>
      </trkpt>
      <trkpt lat="43.44574101269245147705078125" lon="-5.18707430921494960784912109375">
        <ele>459</ele>
        <time>2019-07-11T16:28:28.000Z</time>
      </trkpt>
      <trkpt lat="43.44566113315522670745849609375" lon="-5.18729190342128276824951171875">
        <ele>461.20001220703125</ele>
        <time>2019-07-11T16:28:30.000Z</time>
      </trkpt>
      <trkpt lat="43.4456151165068149566650390625" lon="-5.1873917318880558013916015625">
        <ele>462.399993896484375</ele>
        <time>2019-07-11T16:28:31.000Z</time>
      </trkpt>
      <trkpt lat="43.44556591473519802093505859375" lon="-5.1874872855842113494873046875">
        <ele>463.399993896484375</ele>
        <time>2019-07-11T16:28:32.000Z</time>
      </trkpt>
      <trkpt lat="43.4454686008393764495849609375" lon="-5.18768400885164737701416015625">
        <ele>464.79998779296875</ele>
        <time>2019-07-11T16:28:34.000Z</time>
      </trkpt>
      <trkpt lat="43.4453683532774448394775390625" lon="-5.1878926344215869903564453125">
        <ele>466.20001220703125</ele>
        <time>2019-07-11T16:28:36.000Z</time>
      </trkpt>
      <trkpt lat="43.44525779597461223602294921875" lon="-5.18810595385730266571044921875">
        <ele>468.399993896484375</ele>
        <time>2019-07-11T16:28:38.000Z</time>
      </trkpt>
      <trkpt lat="43.4451997093856334686279296875" lon="-5.18821525387465953826904296875">
        <ele>469.600006103515625</ele>
        <time>2019-07-11T16:28:39.000Z</time>
      </trkpt>
      <trkpt lat="43.44514246098697185516357421875" lon="-5.18832539208233356475830078125">
        <ele>470.79998779296875</ele>
        <time>2019-07-11T16:28:40.000Z</time>
      </trkpt>
      <trkpt lat="43.44502888619899749755859375" lon="-5.1885437406599521636962890625">
        <ele>472.399993896484375</ele>
        <time>2019-07-11T16:28:42.000Z</time>
      </trkpt>
      <trkpt lat="43.44491782598197460174560546875" lon="-5.188761837780475616455078125">
        <ele>473.79998779296875</ele>
        <time>2019-07-11T16:28:44.000Z</time>
      </trkpt>
      <trkpt lat="43.44482126645743846893310546875" lon="-5.188993848860263824462890625">
        <ele>475.20001220703125</ele>
        <time>2019-07-11T16:28:46.000Z</time>
      </trkpt>
      <trkpt lat="43.44478120096027851104736328125" lon="-5.189117901027202606201171875">
        <ele>476</ele>
        <time>2019-07-11T16:28:47.000Z</time>
      </trkpt>
      <trkpt lat="43.44475437887012958526611328125" lon="-5.1892454735934734344482421875">
        <ele>477.20001220703125</ele>
        <time>2019-07-11T16:28:48.000Z</time>
      </trkpt>
      <trkpt lat="43.444747589528560638427734375" lon="-5.18937505781650543212890625">
        <ele>478.20001220703125</ele>
        <time>2019-07-11T16:28:49.000Z</time>
      </trkpt>
      <trkpt lat="43.44476594589650630950927734375" lon="-5.18950271420180797576904296875">
        <ele>479.399993896484375</ele>
        <time>2019-07-11T16:28:50.000Z</time>
      </trkpt>
      <trkpt lat="43.44480626285076141357421875" lon="-5.18962274305522441864013671875">
        <ele>480.399993896484375</ele>
        <time>2019-07-11T16:28:51.000Z</time>
      </trkpt>
      <trkpt lat="43.44485680572688579559326171875" lon="-5.189736150205135345458984375">
        <ele>481.399993896484375</ele>
        <time>2019-07-11T16:28:52.000Z</time>
      </trkpt>
      <trkpt lat="43.44490139745175838470458984375" lon="-5.18985307775437831878662109375">
        <ele>482.399993896484375</ele>
        <time>2019-07-11T16:28:53.000Z</time>
      </trkpt>
      <trkpt lat="43.444927632808685302734375" lon="-5.19010419957339763641357421875">
        <ele>484</ele>
        <time>2019-07-11T16:28:55.000Z</time>
      </trkpt>
      <trkpt lat="43.44490609131753444671630859375" lon="-5.19023059867322444915771484375">
        <ele>485.20001220703125</ele>
        <time>2019-07-11T16:28:56.000Z</time>
      </trkpt>
      <trkpt lat="43.44487038441002368927001953125" lon="-5.19035398028790950775146484375">
        <ele>486.600006103515625</ele>
        <time>2019-07-11T16:28:57.000Z</time>
      </trkpt>
      <trkpt lat="43.44482839107513427734375" lon="-5.19047669135034084320068359375">
        <ele>488.20001220703125</ele>
        <time>2019-07-11T16:28:58.000Z</time>
      </trkpt>
      <trkpt lat="43.44478220678865909576416015625" lon="-5.19059839658439159393310546875">
        <ele>489.20001220703125</ele>
        <time>2019-07-11T16:28:59.000Z</time>
      </trkpt>
      <trkpt lat="43.44467106275260448455810546875" lon="-5.1908330060541629791259765625">
        <ele>490.600006103515625</ele>
        <time>2019-07-11T16:29:01.000Z</time>
      </trkpt>
      <trkpt lat="43.44454332254827022552490234375" lon="-5.19107951782643795013427734375">
        <ele>491.79998779296875</ele>
        <time>2019-07-11T16:29:03.000Z</time>
      </trkpt>
      <trkpt lat="43.4443930350244045257568359375" lon="-5.19131421111524105072021484375">
        <ele>493.79998779296875</ele>
        <time>2019-07-11T16:29:05.000Z</time>
      </trkpt>
      <trkpt lat="43.44430997036397457122802734375" lon="-5.1914214156568050384521484375">
        <ele>495</ele>
        <time>2019-07-11T16:29:06.000Z</time>
      </trkpt>
      <trkpt lat="43.44422145746648311614990234375" lon="-5.19152040593326091766357421875">
        <ele>496.399993896484375</ele>
        <time>2019-07-11T16:29:07.000Z</time>
      </trkpt>
      <trkpt lat="43.444125652313232421875" lon="-5.1916108466684818267822265625">
        <ele>497.600006103515625</ele>
        <time>2019-07-11T16:29:08.000Z</time>
      </trkpt>
      <trkpt lat="43.44401836395263671875" lon="-5.19169257022440433502197265625">
        <ele>499</ele>
        <time>2019-07-11T16:29:09.000Z</time>
      </trkpt>
      <trkpt lat="43.4439016878604888916015625" lon="-5.19176901318132877349853515625">
        <ele>500.20001220703125</ele>
        <time>2019-07-11T16:29:10.000Z</time>
      </trkpt>
      <trkpt lat="43.44377587549388408660888671875" lon="-5.1918458752334117889404296875">
        <ele>501.20001220703125</ele>
        <time>2019-07-11T16:29:11.000Z</time>
      </trkpt>
      <trkpt lat="43.44352659769356250762939453125" lon="-5.192003287374973297119140625">
        <ele>503.20001220703125</ele>
        <time>2019-07-11T16:29:13.000Z</time>
      </trkpt>
      <trkpt lat="43.44341880641877651214599609375" lon="-5.19206925295293331146240234375">
        <ele>504.600006103515625</ele>
        <time>2019-07-11T16:29:14.000Z</time>
      </trkpt>
      <trkpt lat="43.44332040287554264068603515625" lon="-5.19213236868381500244140625">
        <ele>505.79998779296875</ele>
        <time>2019-07-11T16:29:15.000Z</time>
      </trkpt>
      <trkpt lat="43.44313390552997589111328125" lon="-5.19225776195526123046875">
        <ele>508.20001220703125</ele>
        <time>2019-07-11T16:29:17.000Z</time>
      </trkpt>
      <trkpt lat="43.44304396770894527435302734375" lon="-5.19232456572353839874267578125">
        <ele>509.79998779296875</ele>
        <time>2019-07-11T16:29:18.000Z</time>
      </trkpt>
      <trkpt lat="43.44295629300177097320556640625" lon="-5.19239631481468677520751953125">
        <ele>511.600006103515625</ele>
        <time>2019-07-11T16:29:19.000Z</time>
      </trkpt>
      <trkpt lat="43.44278111122548580169677734375" lon="-5.1925459317862987518310546875">
        <ele>513.5999755859375</ele>
        <time>2019-07-11T16:29:21.000Z</time>
      </trkpt>
      <trkpt lat="43.44269226305186748504638671875" lon="-5.19262011162936687469482421875">
        <ele>514.79998779296875</ele>
        <time>2019-07-11T16:29:22.000Z</time>
      </trkpt>
      <trkpt lat="43.44260157085955142974853515625" lon="-5.19269823096692562103271484375">
        <ele>516</ele>
        <time>2019-07-11T16:29:23.000Z</time>
      </trkpt>
      <trkpt lat="43.44250702299177646636962890625" lon="-5.1927794516086578369140625">
        <ele>516.79998779296875</ele>
        <time>2019-07-11T16:29:24.000Z</time>
      </trkpt>
      <trkpt lat="43.4424102120101451873779296875" lon="-5.19286704249680042266845703125">
        <ele>517.79998779296875</ele>
        <time>2019-07-11T16:29:25.000Z</time>
      </trkpt>
      <trkpt lat="43.4423136524856090545654296875" lon="-5.19296561367809772491455078125">
        <ele>518.79998779296875</ele>
        <time>2019-07-11T16:29:26.000Z</time>
      </trkpt>
      <trkpt lat="43.44221684150397777557373046875" lon="-5.1930744946002960205078125">
        <ele>520</ele>
        <time>2019-07-11T16:29:27.000Z</time>
      </trkpt>
      <trkpt lat="43.44201182015240192413330078125" lon="-5.1932982914149761199951171875">
        <ele>521.79998779296875</ele>
        <time>2019-07-11T16:29:29.000Z</time>
      </trkpt>
      <trkpt lat="43.4418979100883007049560546875" lon="-5.1934012211859226226806640625">
        <ele>522.4000244140625</ele>
        <time>2019-07-11T16:29:30.000Z</time>
      </trkpt>
      <trkpt lat="43.44177528284490108489990234375" lon="-5.19348478876054286956787109375">
        <ele>523.4000244140625</ele>
        <time>2019-07-11T16:29:31.000Z</time>
      </trkpt>
      <trkpt lat="43.44164921902120113372802734375" lon="-5.19354681484401226043701171875">
        <ele>525</ele>
        <time>2019-07-11T16:29:32.000Z</time>
      </trkpt>
      <trkpt lat="43.4415274299681186676025390625" lon="-5.1935966871678829193115234375">
        <ele>526.5999755859375</ele>
        <time>2019-07-11T16:29:33.000Z</time>
      </trkpt>
      <trkpt lat="43.44141586683690547943115234375" lon="-5.19365544430911540985107421875">
        <ele>528.20001220703125</ele>
        <time>2019-07-11T16:29:34.000Z</time>
      </trkpt>
      <trkpt lat="43.441318385303020477294921875" lon="-5.19373691640794277191162109375">
        <ele>529.5999755859375</ele>
        <time>2019-07-11T16:29:35.000Z</time>
      </trkpt>
      <trkpt lat="43.44123867340385913848876953125" lon="-5.19384604878723621368408203125">
        <ele>531.20001220703125</ele>
        <time>2019-07-11T16:29:36.000Z</time>
      </trkpt>
      <trkpt lat="43.44117480330169200897216796875" lon="-5.1939732022583484649658203125">
        <ele>532.79998779296875</ele>
        <time>2019-07-11T16:29:37.000Z</time>
      </trkpt>
      <trkpt lat="43.44112115912139415740966796875" lon="-5.1941089890897274017333984375">
        <ele>534.4000244140625</ele>
        <time>2019-07-11T16:29:38.000Z</time>
      </trkpt>
      <trkpt lat="43.4410714544355869293212890625" lon="-5.1942471228539943695068359375">
        <ele>535.5999755859375</ele>
        <time>2019-07-11T16:29:39.000Z</time>
      </trkpt>
      <trkpt lat="43.4409722127020359039306640625" lon="-5.1945243962109088897705078125">
        <ele>537.20001220703125</ele>
        <time>2019-07-11T16:29:41.000Z</time>
      </trkpt>
      <trkpt lat="43.44092519022524356842041015625" lon="-5.1946618594229221343994140625">
        <ele>538.20001220703125</ele>
        <time>2019-07-11T16:29:42.000Z</time>
      </trkpt>
      <trkpt lat="43.4408842027187347412109375" lon="-5.19479043781757354736328125">
        <ele>539.5999755859375</ele>
        <time>2019-07-11T16:29:43.000Z</time>
      </trkpt>
      <trkpt lat="43.44084975309669971466064453125" lon="-5.1949024200439453125">
        <ele>541</ele>
        <time>2019-07-11T16:29:44.000Z</time>
      </trkpt>
      <trkpt lat="43.4408203326165676116943359375" lon="-5.19499906338751316070556640625">
        <ele>542.4000244140625</ele>
        <time>2019-07-11T16:29:45.000Z</time>
      </trkpt>
      <trkpt lat="43.44079325906932353973388671875" lon="-5.195082128047943115234375">
        <ele>544</ele>
        <time>2019-07-11T16:29:46.000Z</time>
      </trkpt>
      <trkpt lat="43.4407640062272548675537109375" lon="-5.19515396095812320709228515625">
        <ele>545.20001220703125</ele>
        <time>2019-07-11T16:29:47.000Z</time>
      </trkpt>
      <trkpt lat="43.4407281316816806793212890625" lon="-5.19521347247064113616943359375">
        <ele>546.4000244140625</ele>
        <time>2019-07-11T16:29:48.000Z</time>
      </trkpt>
      <trkpt lat="43.44068211503326892852783203125" lon="-5.195246748626232147216796875">
        <ele>547.4000244140625</ele>
        <time>2019-07-11T16:29:49.000Z</time>
      </trkpt>
      <trkpt lat="43.44063006341457366943359375" lon="-5.1952425576746463775634765625">
        <ele>548</ele>
        <time>2019-07-11T16:29:50.000Z</time>
      </trkpt>
      <trkpt lat="43.44058287329971790313720703125" lon="-5.1951988041400909423828125">
        <ele>548.5999755859375</ele>
        <time>2019-07-11T16:29:51.000Z</time>
      </trkpt>
      <trkpt lat="43.44055253081023693084716796875" lon="-5.19512194208800792694091796875">
        <ele>549.4000244140625</ele>
        <time>2019-07-11T16:29:52.000Z</time>
      </trkpt>
      <trkpt lat="43.44054381363093852996826171875" lon="-5.19502135924994945526123046875">
        <ele>550</ele>
        <time>2019-07-11T16:29:53.000Z</time>
      </trkpt>
      <trkpt lat="43.44054867513477802276611328125" lon="-5.19490166567265987396240234375">
        <ele>550.4000244140625</ele>
        <time>2019-07-11T16:29:54.000Z</time>
      </trkpt>
      <trkpt lat="43.4405504353344440460205078125" lon="-5.19476772285997867584228515625">
        <ele>550.79998779296875</ele>
        <time>2019-07-11T16:29:55.000Z</time>
      </trkpt>
      <trkpt lat="43.4405008144676685333251953125" lon="-5.19447871483862400054931640625">
        <ele>551.79998779296875</ele>
        <time>2019-07-11T16:29:57.000Z</time>
      </trkpt>
      <trkpt lat="43.4403948672115802764892578125" lon="-5.19419574178755283355712890625">
        <ele>553.4000244140625</ele>
        <time>2019-07-11T16:29:59.000Z</time>
      </trkpt>
      <trkpt lat="43.44025053083896636962890625" lon="-5.19395015202462673187255859375">
        <ele>555.4000244140625</ele>
        <time>2019-07-11T16:30:01.000Z</time>
      </trkpt>
      <trkpt lat="43.44017249532043933868408203125" lon="-5.19384068436920642852783203125">
        <ele>556.79998779296875</ele>
        <time>2019-07-11T16:30:02.000Z</time>
      </trkpt>
      <trkpt lat="43.4400924481451511383056640625" lon="-5.1937307976186275482177734375">
        <ele>557.79998779296875</ele>
        <time>2019-07-11T16:30:03.000Z</time>
      </trkpt>
      <trkpt lat="43.43992061913013458251953125" lon="-5.19351798109710216522216796875">
        <ele>559.79998779296875</ele>
        <time>2019-07-11T16:30:05.000Z</time>
      </trkpt>
      <trkpt lat="43.43982674181461334228515625" lon="-5.1934283785521984100341796875">
        <ele>560.79998779296875</ele>
        <time>2019-07-11T16:30:06.000Z</time>
      </trkpt>
      <trkpt lat="43.43972942791879177093505859375" lon="-5.193366520106792449951171875">
        <ele>562</ele>
        <time>2019-07-11T16:30:07.000Z</time>
      </trkpt>
      <trkpt lat="43.439636640250682830810546875" lon="-5.19333659671247005462646484375">
        <ele>563.20001220703125</ele>
        <time>2019-07-11T16:30:08.000Z</time>
      </trkpt>
      <trkpt lat="43.43955525197088718414306640625" lon="-5.1933301426470279693603515625">
        <ele>564.20001220703125</ele>
        <time>2019-07-11T16:30:09.000Z</time>
      </trkpt>
      <trkpt lat="43.43948584981262683868408203125" lon="-5.19333626143634319305419921875">
        <ele>565.5999755859375</ele>
        <time>2019-07-11T16:30:10.000Z</time>
      </trkpt>
      <trkpt lat="43.43942432664334774017333984375" lon="-5.1933453977108001708984375">
        <ele>567.4000244140625</ele>
        <time>2019-07-11T16:30:11.000Z</time>
      </trkpt>
      <trkpt lat="43.43936783261597156524658203125" lon="-5.19335403107106685638427734375">
        <ele>569.20001220703125</ele>
        <time>2019-07-11T16:30:12.000Z</time>
      </trkpt>
      <trkpt lat="43.43931184150278568267822265625" lon="-5.1933619938790798187255859375">
        <ele>570.4000244140625</ele>
        <time>2019-07-11T16:30:13.000Z</time>
      </trkpt>
      <trkpt lat="43.4392029605805873870849609375" lon="-5.193376243114471435546875">
        <ele>572</ele>
        <time>2019-07-11T16:30:15.000Z</time>
      </trkpt>
      <trkpt lat="43.439123667776584625244140625" lon="-5.193363837897777557373046875">
        <ele>573.4000244140625</ele>
        <time>2019-07-11T16:30:17.000Z</time>
      </trkpt>
      <trkpt lat="43.439078740775585174560546875" lon="-5.19333324395120143890380859375">
        <ele>574.5999755859375</ele>
        <time>2019-07-11T16:30:19.000Z</time>
      </trkpt>
      <trkpt lat="43.4389907307922840118408203125" lon="-5.19324238412082195281982421875">
        <ele>575.4000244140625</ele>
        <time>2019-07-11T16:30:34.000Z</time>
      </trkpt>
      <trkpt lat="43.43895829282701015472412109375" lon="-5.19324003718793392181396484375">
        <ele>575.20001220703125</ele>
        <time>2019-07-11T16:30:56.000Z</time>
      </trkpt>
      <trkpt lat="43.43895846046507358551025390625" lon="-5.193240456283092498779296875">
        <ele>575.20001220703125</ele>
        <time>2019-07-11T16:30:57.000Z</time>
      </trkpt>
      <trkpt lat="43.43895879574120044708251953125" lon="-5.19325545988976955413818359375">
        <ele>575.20001220703125</ele>
        <time>2019-07-11T16:31:28.000Z</time>
      </trkpt>
      <trkpt lat="43.43897304497659206390380859375" lon="-5.19325219094753265380859375">
        <ele>575.4000244140625</ele>
        <time>2019-07-11T16:32:05.000Z</time>
      </trkpt>
      <trkpt lat="43.438974805176258087158203125" lon="-5.1932570524513721466064453125">
        <ele>575.4000244140625</ele>
        <time>2019-07-11T16:32:28.000Z</time>
      </trkpt>
      <trkpt lat="43.4389753080904483795166015625" lon="-5.1932657696306705474853515625">
        <ele>575.4000244140625</ele>
        <time>2019-07-11T16:32:31.000Z</time>
      </trkpt>
      <trkpt lat="43.43896332196891307830810546875" lon="-5.19327540881931781768798828125">
        <ele>574.20001220703125</ele>
        <time>2019-07-11T16:51:04.000Z</time>
      </trkpt>
      <trkpt lat="43.43897907994687557220458984375" lon="-5.19320265389978885650634765625">
        <ele>575</ele>
        <time>2019-07-11T16:52:17.000Z</time>
      </trkpt>
      <trkpt lat="43.43901243992149829864501953125" lon="-5.19319678656756877899169921875">
        <ele>575</ele>
        <time>2019-07-11T16:52:19.000Z</time>
      </trkpt>
      <trkpt lat="43.4390380047261714935302734375" lon="-5.19323199056088924407958984375">
        <ele>575</ele>
        <time>2019-07-11T16:52:21.000Z</time>
      </trkpt>
      <trkpt lat="43.4390470571815967559814453125" lon="-5.19337716512382030487060546875">
        <ele>575.4000244140625</ele>
        <time>2019-07-11T16:52:50.000Z</time>
      </trkpt>
      <trkpt lat="43.43903549015522003173828125" lon="-5.19351680763065814971923828125">
        <ele>575.5999755859375</ele>
        <time>2019-07-11T16:52:53.000Z</time>
      </trkpt>
      <trkpt lat="43.43899617902934551239013671875" lon="-5.1936157979071140289306640625">
        <ele>575.5999755859375</ele>
        <time>2019-07-11T16:52:55.000Z</time>
      </trkpt>
      <trkpt lat="43.43886558897793292999267578125" lon="-5.19393808208405971527099609375">
        <ele>575</ele>
        <time>2019-07-11T16:53:00.000Z</time>
      </trkpt>
      <trkpt lat="43.43870348297059535980224609375" lon="-5.194294564425945281982421875">
        <ele>574.5999755859375</ele>
        <time>2019-07-11T16:53:04.000Z</time>
      </trkpt>
      <trkpt lat="43.4386065043509006500244140625" lon="-5.1945014297962188720703125">
        <ele>573.4000244140625</ele>
        <time>2019-07-11T16:53:06.000Z</time>
      </trkpt>
      <trkpt lat="43.43851204030215740203857421875" lon="-5.19471055828034877777099609375">
        <ele>572</ele>
        <time>2019-07-11T16:53:08.000Z</time>
      </trkpt>
      <trkpt lat="43.4383500181138515472412109375" lon="-5.1950407214462757110595703125">
        <ele>570.79998779296875</ele>
        <time>2019-07-11T16:53:11.000Z</time>
      </trkpt>
      <trkpt lat="43.43823208473622798919677734375" lon="-5.1952888257801532745361328125">
        <ele>569.79998779296875</ele>
        <time>2019-07-11T16:53:13.000Z</time>
      </trkpt>
      <trkpt lat="43.43809495680034160614013671875" lon="-5.19554941914975643157958984375">
        <ele>568</ele>
        <time>2019-07-11T16:53:15.000Z</time>
      </trkpt>
      <trkpt lat="43.4380061924457550048828125" lon="-5.19567581824958324432373046875">
        <ele>566.79998779296875</ele>
        <time>2019-07-11T16:53:16.000Z</time>
      </trkpt>
      <trkpt lat="43.43781198374927043914794921875" lon="-5.1959221623837947845458984375">
        <ele>564.79998779296875</ele>
        <time>2019-07-11T16:53:18.000Z</time>
      </trkpt>
      <trkpt lat="43.43772196210920810699462890625" lon="-5.19603355787694454193115234375">
        <ele>563.5999755859375</ele>
        <time>2019-07-11T16:53:19.000Z</time>
      </trkpt>
      <trkpt lat="43.43762825243175029754638671875" lon="-5.19612274132668972015380859375">
        <ele>562.5999755859375</ele>
        <time>2019-07-11T16:53:20.000Z</time>
      </trkpt>
      <trkpt lat="43.43752649612724781036376953125" lon="-5.196180157363414764404296875">
        <ele>562</ele>
        <time>2019-07-11T16:53:21.000Z</time>
      </trkpt>
      <trkpt lat="43.437413759529590606689453125" lon="-5.1961965858936309814453125">
        <ele>561.5999755859375</ele>
        <time>2019-07-11T16:53:22.000Z</time>
      </trkpt>
      <trkpt lat="43.43718635849654674530029296875" lon="-5.1961461268365383148193359375">
        <ele>561</ele>
        <time>2019-07-11T16:53:24.000Z</time>
      </trkpt>
      <trkpt lat="43.4370754659175872802734375" lon="-5.196125842630863189697265625">
        <ele>560.79998779296875</ele>
        <time>2019-07-11T16:53:25.000Z</time>
      </trkpt>
      <trkpt lat="43.4368701092898845672607421875" lon="-5.19619063474237918853759765625">
        <ele>560.5999755859375</ele>
        <time>2019-07-11T16:53:27.000Z</time>
      </trkpt>
      <trkpt lat="43.4367215819656848907470703125" lon="-5.1964096538722515106201171875">
        <ele>559.79998779296875</ele>
        <time>2019-07-11T16:53:29.000Z</time>
      </trkpt>
      <trkpt lat="43.43658336438238620758056640625" lon="-5.19673193804919719696044921875">
        <ele>558</ele>
        <time>2019-07-11T16:53:31.000Z</time>
      </trkpt>
      <trkpt lat="43.43650859780609607696533203125" lon="-5.19691047258675098419189453125">
        <ele>556.79998779296875</ele>
        <time>2019-07-11T16:53:32.000Z</time>
      </trkpt>
      <trkpt lat="43.43643383122980594635009765625" lon="-5.19709822721779346466064453125">
        <ele>555.4000244140625</ele>
        <time>2019-07-11T16:53:33.000Z</time>
      </trkpt>
      <trkpt lat="43.43635973520576953887939453125" lon="-5.19729369319975376129150390625">
        <ele>554</ele>
        <time>2019-07-11T16:53:34.000Z</time>
      </trkpt>
      <trkpt lat="43.4362863935530185699462890625" lon="-5.19750223495066165924072265625">
        <ele>552.5999755859375</ele>
        <time>2019-07-11T16:53:35.000Z</time>
      </trkpt>
      <trkpt lat="43.43613778240978717803955078125" lon="-5.1979378424584865570068359375">
        <ele>551</ele>
        <time>2019-07-11T16:53:37.000Z</time>
      </trkpt>
      <trkpt lat="43.43604893423616886138916015625" lon="-5.198152922093868255615234375">
        <ele>549.79998779296875</ele>
        <time>2019-07-11T16:53:38.000Z</time>
      </trkpt>
      <trkpt lat="43.43594491481781005859375" lon="-5.19834981299936771392822265625">
        <ele>548.20001220703125</ele>
        <time>2019-07-11T16:53:39.000Z</time>
      </trkpt>
      <trkpt lat="43.4358347766101360321044921875" lon="-5.198533125221729278564453125">
        <ele>546.20001220703125</ele>
        <time>2019-07-11T16:53:40.000Z</time>
      </trkpt>
      <trkpt lat="43.4357251413166522979736328125" lon="-5.19871274940669536590576171875">
        <ele>544.4000244140625</ele>
        <time>2019-07-11T16:53:41.000Z</time>
      </trkpt>
      <trkpt lat="43.43562774360179901123046875" lon="-5.19890016876161098480224609375">
        <ele>543</ele>
        <time>2019-07-11T16:53:42.000Z</time>
      </trkpt>
      <trkpt lat="43.4354622848331928253173828125" lon="-5.1992591656744480133056640625">
        <ele>541.4000244140625</ele>
        <time>2019-07-11T16:53:44.000Z</time>
      </trkpt>
      <trkpt lat="43.43537771143019199371337890625" lon="-5.1994150690734386444091796875">
        <ele>541.20001220703125</ele>
        <time>2019-07-11T16:53:45.000Z</time>
      </trkpt>
      <trkpt lat="43.435100018978118896484375" lon="-5.19977037794888019561767578125">
        <ele>540.5999755859375</ele>
        <time>2019-07-11T16:53:48.000Z</time>
      </trkpt>
      <trkpt lat="43.43489281833171844482421875" lon="-5.19992309622466564178466796875">
        <ele>540.79998779296875</ele>
        <time>2019-07-11T16:53:50.000Z</time>
      </trkpt>
      <trkpt lat="43.4346016310155391693115234375" lon="-5.20007841289043426513671875">
        <ele>540</ele>
        <time>2019-07-11T16:53:53.000Z</time>
      </trkpt>
      <trkpt lat="43.43435637652873992919921875" lon="-5.200198777019977569580078125">
        <ele>539.20001220703125</ele>
        <time>2019-07-11T16:53:56.000Z</time>
      </trkpt>
      <trkpt lat="43.43427767045795917510986328125" lon="-5.2002103440463542938232421875">
        <ele>538.79998779296875</ele>
        <time>2019-07-11T16:53:57.000Z</time>
      </trkpt>
      <trkpt lat="43.434201814234256744384765625" lon="-5.20019550807774066925048828125">
        <ele>538.5999755859375</ele>
        <time>2019-07-11T16:53:58.000Z</time>
      </trkpt>
      <trkpt lat="43.4340625070035457611083984375" lon="-5.20010900683701038360595703125">
        <ele>537.79998779296875</ele>
        <time>2019-07-11T16:54:00.000Z</time>
      </trkpt>
      <trkpt lat="43.434002660214900970458984375" lon="-5.20003943704068660736083984375">
        <ele>537.4000244140625</ele>
        <time>2019-07-11T16:54:01.000Z</time>
      </trkpt>
      <trkpt lat="43.4339515306055545806884765625" lon="-5.19995578564703464508056640625">
        <ele>537.20001220703125</ele>
        <time>2019-07-11T16:54:02.000Z</time>
      </trkpt>
      <trkpt lat="43.43381297774612903594970703125" lon="-5.19967331551015377044677734375">
        <ele>536.20001220703125</ele>
        <time>2019-07-11T16:54:05.000Z</time>
      </trkpt>
      <trkpt lat="43.43366931192576885223388671875" lon="-5.199524872004985809326171875">
        <ele>534.79998779296875</ele>
        <time>2019-07-11T16:54:07.000Z</time>
      </trkpt>
      <trkpt lat="43.43348356895148754119873046875" lon="-5.1994650252163410186767578125">
        <ele>533.79998779296875</ele>
        <time>2019-07-11T16:54:09.000Z</time>
      </trkpt>
      <trkpt lat="43.43328257091343402862548828125" lon="-5.1994506083428859710693359375">
        <ele>532.4000244140625</ele>
        <time>2019-07-11T16:54:11.000Z</time>
      </trkpt>
      <trkpt lat="43.43307805247604846954345703125" lon="-5.1994378678500652313232421875">
        <ele>530.79998779296875</ele>
        <time>2019-07-11T16:54:13.000Z</time>
      </trkpt>
      <trkpt lat="43.43297696672379970550537109375" lon="-5.19945119507610797882080078125">
        <ele>529.4000244140625</ele>
        <time>2019-07-11T16:54:14.000Z</time>
      </trkpt>
      <trkpt lat="43.43287856318056583404541015625" lon="-5.19949947483837604522705078125">
        <ele>527.5999755859375</ele>
        <time>2019-07-11T16:54:15.000Z</time>
      </trkpt>
      <trkpt lat="43.43278728425502777099609375" lon="-5.19958077929913997650146484375">
        <ele>525.79998779296875</ele>
        <time>2019-07-11T16:54:16.000Z</time>
      </trkpt>
      <trkpt lat="43.4327079914510250091552734375" lon="-5.1996899954974651336669921875">
        <ele>524.5999755859375</ele>
        <time>2019-07-11T16:54:17.000Z</time>
      </trkpt>
      <trkpt lat="43.4326426126062870025634765625" lon="-5.19982033409178256988525390625">
        <ele>523.5999755859375</ele>
        <time>2019-07-11T16:54:18.000Z</time>
      </trkpt>
      <trkpt lat="43.432550914585590362548828125" lon="-5.200135745108127593994140625">
        <ele>521.5999755859375</ele>
        <time>2019-07-11T16:54:20.000Z</time>
      </trkpt>
      <trkpt lat="43.4325219132006168365478515625" lon="-5.200303383171558380126953125">
        <ele>520.20001220703125</ele>
        <time>2019-07-11T16:54:21.000Z</time>
      </trkpt>
      <trkpt lat="43.43250724487006664276123046875" lon="-5.2004701830446720123291015625">
        <ele>518.20001220703125</ele>
        <time>2019-07-11T16:54:22.000Z</time>
      </trkpt>
      <trkpt lat="43.432499952614307403564453125" lon="-5.20062851719558238983154296875">
        <ele>516.5999755859375</ele>
        <time>2019-07-11T16:54:23.000Z</time>
      </trkpt>
      <trkpt lat="43.4325007908046245574951171875" lon="-5.20077712833881378173828125">
        <ele>515.20001220703125</ele>
        <time>2019-07-11T16:54:24.000Z</time>
      </trkpt>
      <trkpt lat="43.4325004555284976959228515625" lon="-5.20091216079890727996826171875">
        <ele>514</ele>
        <time>2019-07-11T16:54:25.000Z</time>
      </trkpt>
      <trkpt lat="43.43250640667974948883056640625" lon="-5.20103923045098781585693359375">
        <ele>513</ele>
        <time>2019-07-11T16:54:26.000Z</time>
      </trkpt>
      <trkpt lat="43.43251814134418964385986328125" lon="-5.20115423016250133514404296875">
        <ele>512.4000244140625</ele>
        <time>2019-07-11T16:54:27.000Z</time>
      </trkpt>
      <trkpt lat="43.432539515197277069091796875" lon="-5.201263613998889923095703125">
        <ele>511.79998779296875</ele>
        <time>2019-07-11T16:54:28.000Z</time>
      </trkpt>
      <trkpt lat="43.432577736675739288330078125" lon="-5.2013650350272655487060546875">
        <ele>511.20001220703125</ele>
        <time>2019-07-11T16:54:29.000Z</time>
      </trkpt>
      <trkpt lat="43.43262375332415103912353515625" lon="-5.20145706832408905029296875">
        <ele>510.79998779296875</ele>
        <time>2019-07-11T16:54:30.000Z</time>
      </trkpt>
      <trkpt lat="43.432706482708454132080078125" lon="-5.20161020569503307342529296875">
        <ele>509.600006103515625</ele>
        <time>2019-07-11T16:54:32.000Z</time>
      </trkpt>
      <trkpt lat="43.4327291138470172882080078125" lon="-5.20168262533843517303466796875">
        <ele>509.20001220703125</ele>
        <time>2019-07-11T16:54:33.000Z</time>
      </trkpt>
      <trkpt lat="43.4327053092420101165771484375" lon="-5.201822184026241302490234375">
        <ele>508.600006103515625</ele>
        <time>2019-07-11T16:54:35.000Z</time>
      </trkpt>
      <trkpt lat="43.432568013668060302734375" lon="-5.2019058354198932647705078125">
        <ele>508.20001220703125</ele>
        <time>2019-07-11T16:54:37.000Z</time>
      </trkpt>
      <trkpt lat="43.432351090013980865478515625" lon="-5.20193408243358135223388671875">
        <ele>507.399993896484375</ele>
        <time>2019-07-11T16:54:39.000Z</time>
      </trkpt>
      <trkpt lat="43.43211027793586254119873046875" lon="-5.20193852484226226806640625">
        <ele>505.79998779296875</ele>
        <time>2019-07-11T16:54:41.000Z</time>
      </trkpt>
      <trkpt lat="43.4319899976253509521484375" lon="-5.20195486955344676971435546875">
        <ele>505</ele>
        <time>2019-07-11T16:54:42.000Z</time>
      </trkpt>
      <trkpt lat="43.43188212253153324127197265625" lon="-5.20199610851705074310302734375">
        <ele>504</ele>
        <time>2019-07-11T16:54:43.000Z</time>
      </trkpt>
      <trkpt lat="43.43179562129080295562744140625" lon="-5.2020506747066974639892578125">
        <ele>503</ele>
        <time>2019-07-11T16:54:44.000Z</time>
      </trkpt>
      <trkpt lat="43.43172772787511348724365234375" lon="-5.20210373215377330780029296875">
        <ele>502.20001220703125</ele>
        <time>2019-07-11T16:54:45.000Z</time>
      </trkpt>
      <trkpt lat="43.43165815807878971099853515625" lon="-5.2021388523280620574951171875">
        <ele>501.79998779296875</ele>
        <time>2019-07-11T16:54:46.000Z</time>
      </trkpt>
      <trkpt lat="43.4315864928066730499267578125" lon="-5.2021457254886627197265625">
        <ele>501.20001220703125</ele>
        <time>2019-07-11T16:54:47.000Z</time>
      </trkpt>
      <trkpt lat="43.4315144084393978118896484375" lon="-5.202105827629566192626953125">
        <ele>500.600006103515625</ele>
        <time>2019-07-11T16:54:48.000Z</time>
      </trkpt>
      <trkpt lat="43.43144617974758148193359375" lon="-5.202036090195178985595703125">
        <ele>499.79998779296875</ele>
        <time>2019-07-11T16:54:49.000Z</time>
      </trkpt>
      <trkpt lat="43.43138826079666614532470703125" lon="-5.20194062031805515289306640625">
        <ele>498.79998779296875</ele>
        <time>2019-07-11T16:54:50.000Z</time>
      </trkpt>
      <trkpt lat="43.43128256499767303466796875" lon="-5.20172126591205596923828125">
        <ele>497</ele>
        <time>2019-07-11T16:54:52.000Z</time>
      </trkpt>
      <trkpt lat="43.43113412149250507354736328125" lon="-5.20156309939920902252197265625">
        <ele>495</ele>
        <time>2019-07-11T16:54:54.000Z</time>
      </trkpt>
      <trkpt lat="43.43104141764342784881591796875" lon="-5.20152454264461994171142578125">
        <ele>493.79998779296875</ele>
        <time>2019-07-11T16:54:55.000Z</time>
      </trkpt>
      <trkpt lat="43.43094351701438426971435546875" lon="-5.20150744356215000152587890625">
        <ele>492.600006103515625</ele>
        <time>2019-07-11T16:54:56.000Z</time>
      </trkpt>
      <trkpt lat="43.4308462031185626983642578125" lon="-5.2015266381204128265380859375">
        <ele>491.600006103515625</ele>
        <time>2019-07-11T16:54:57.000Z</time>
      </trkpt>
      <trkpt lat="43.43075358308851718902587890625" lon="-5.2015839703381061553955078125">
        <ele>490.600006103515625</ele>
        <time>2019-07-11T16:54:58.000Z</time>
      </trkpt>
      <trkpt lat="43.43066607601940631866455078125" lon="-5.201653540134429931640625">
        <ele>489.399993896484375</ele>
        <time>2019-07-11T16:54:59.000Z</time>
      </trkpt>
      <trkpt lat="43.430572785437107086181640625" lon="-5.20171028561890125274658203125">
        <ele>488.399993896484375</ele>
        <time>2019-07-11T16:55:00.000Z</time>
      </trkpt>
      <trkpt lat="43.43039014376699924468994140625" lon="-5.20172654651105403900146484375">
        <ele>487.20001220703125</ele>
        <time>2019-07-11T16:55:02.000Z</time>
      </trkpt>
      <trkpt lat="43.4301991201937198638916015625" lon="-5.20172017626464366912841796875">
        <ele>485.79998779296875</ele>
        <time>2019-07-11T16:55:04.000Z</time>
      </trkpt>
      <trkpt lat="43.43001329340040683746337890625" lon="-5.20178924314677715301513671875">
        <ele>484.399993896484375</ele>
        <time>2019-07-11T16:55:06.000Z</time>
      </trkpt>
      <trkpt lat="43.429841883480548858642578125" lon="-5.20191413350403308868408203125">
        <ele>483</ele>
        <time>2019-07-11T16:55:08.000Z</time>
      </trkpt>
      <trkpt lat="43.42965790070593357086181640625" lon="-5.20203399471938610076904296875">
        <ele>481.600006103515625</ele>
        <time>2019-07-11T16:55:10.000Z</time>
      </trkpt>
      <trkpt lat="43.4295667894184589385986328125" lon="-5.20209082402288913726806640625">
        <ele>480.399993896484375</ele>
        <time>2019-07-11T16:55:11.000Z</time>
      </trkpt>
      <trkpt lat="43.42947073280811309814453125" lon="-5.20213566720485687255859375">
        <ele>479.20001220703125</ele>
        <time>2019-07-11T16:55:12.000Z</time>
      </trkpt>
      <trkpt lat="43.42937291599810123443603515625" lon="-5.20217045210301876068115234375">
        <ele>477.79998779296875</ele>
        <time>2019-07-11T16:55:13.000Z</time>
      </trkpt>
      <trkpt lat="43.42927434481680393218994140625" lon="-5.20219978876411914825439453125">
        <ele>476.399993896484375</ele>
        <time>2019-07-11T16:55:14.000Z</time>
      </trkpt>
      <trkpt lat="43.42917560599744319915771484375" lon="-5.202227532863616943359375">
        <ele>475.399993896484375</ele>
        <time>2019-07-11T16:55:15.000Z</time>
      </trkpt>
      <trkpt lat="43.42908181250095367431640625" lon="-5.2022572048008441925048828125">
        <ele>474.20001220703125</ele>
        <time>2019-07-11T16:55:16.000Z</time>
      </trkpt>
      <trkpt lat="43.42898986302316188812255859375" lon="-5.20229567773640155792236328125">
        <ele>473.399993896484375</ele>
        <time>2019-07-11T16:55:17.000Z</time>
      </trkpt>
      <trkpt lat="43.42890839092433452606201171875" lon="-5.202351249754428863525390625">
        <ele>472.399993896484375</ele>
        <time>2019-07-11T16:55:18.000Z</time>
      </trkpt>
      <trkpt lat="43.42883613891899585723876953125" lon="-5.20243314094841480255126953125">
        <ele>471.399993896484375</ele>
        <time>2019-07-11T16:55:19.000Z</time>
      </trkpt>
      <trkpt lat="43.42877545394003391265869140625" lon="-5.2025438658893108367919921875">
        <ele>470.399993896484375</ele>
        <time>2019-07-11T16:55:20.000Z</time>
      </trkpt>
      <trkpt lat="43.42872750945389270782470703125" lon="-5.2026776410639286041259765625">
        <ele>469.600006103515625</ele>
        <time>2019-07-11T16:55:21.000Z</time>
      </trkpt>
      <trkpt lat="43.428681157529354095458984375" lon="-5.2028295211493968963623046875">
        <ele>469</ele>
        <time>2019-07-11T16:55:22.000Z</time>
      </trkpt>
      <trkpt lat="43.42861452139914035797119140625" lon="-5.20315834321081638336181640625">
        <ele>466.79998779296875</ele>
        <time>2019-07-11T16:55:24.000Z</time>
      </trkpt>
      <trkpt lat="43.42859507538378238677978515625" lon="-5.20333151333034038543701171875">
        <ele>465.600006103515625</ele>
        <time>2019-07-11T16:55:25.000Z</time>
      </trkpt>
      <trkpt lat="43.42858015559613704681396484375" lon="-5.20350853912532329559326171875">
        <ele>463.79998779296875</ele>
        <time>2019-07-11T16:55:26.000Z</time>
      </trkpt>
      <trkpt lat="43.42857085168361663818359375" lon="-5.2036901749670505523681640625">
        <ele>461.600006103515625</ele>
        <time>2019-07-11T16:55:27.000Z</time>
      </trkpt>
      <trkpt lat="43.4285713545978069305419921875" lon="-5.203868709504604339599609375">
        <ele>459.399993896484375</ele>
        <time>2019-07-11T16:55:28.000Z</time>
      </trkpt>
      <trkpt lat="43.428598344326019287109375" lon="-5.20403592847287654876708984375">
        <ele>457.600006103515625</ele>
        <time>2019-07-11T16:55:29.000Z</time>
      </trkpt>
      <trkpt lat="43.42864419333636760711669921875" lon="-5.20418512634932994842529296875">
        <ele>456.399993896484375</ele>
        <time>2019-07-11T16:55:30.000Z</time>
      </trkpt>
      <trkpt lat="43.4287034533917903900146484375" lon="-5.20443943329155445098876953125">
        <ele>455.399993896484375</ele>
        <time>2019-07-11T16:55:32.000Z</time>
      </trkpt>
      <trkpt lat="43.4286766313016414642333984375" lon="-5.20461939275264739990234375">
        <ele>455.600006103515625</ele>
        <time>2019-07-11T16:55:34.000Z</time>
      </trkpt>
      <trkpt lat="43.4285552613437175750732421875" lon="-5.20466892980039119720458984375">
        <ele>456.20001220703125</ele>
        <time>2019-07-11T16:55:36.000Z</time>
      </trkpt>
      <trkpt lat="43.428126610815525054931640625" lon="-5.20443297922611236572265625">
        <ele>454.79998779296875</ele>
        <time>2019-07-11T16:55:40.000Z</time>
      </trkpt>
      <trkpt lat="43.42799895443022251129150390625" lon="-5.20437355153262615203857421875">
        <ele>453.399993896484375</ele>
        <time>2019-07-11T16:55:41.000Z</time>
      </trkpt>
      <trkpt lat="43.4278780035674571990966796875" lon="-5.204332731664180755615234375">
        <ele>451.79998779296875</ele>
        <time>2019-07-11T16:55:42.000Z</time>
      </trkpt>
      <trkpt lat="43.4276711381971836090087890625" lon="-5.20435921847820281982421875">
        <ele>450.399993896484375</ele>
        <time>2019-07-11T16:55:44.000Z</time>
      </trkpt>
      <trkpt lat="43.42754088342189788818359375" lon="-5.20457387901842594146728515625">
        <ele>449.20001220703125</ele>
        <time>2019-07-11T16:55:46.000Z</time>
      </trkpt>
      <trkpt lat="43.427409790456295013427734375" lon="-5.20512876100838184356689453125">
        <ele>448</ele>
        <time>2019-07-11T16:55:49.000Z</time>
      </trkpt>
      <trkpt lat="43.42737324535846710205078125" lon="-5.20532540045678615570068359375">
        <ele>447</ele>
        <time>2019-07-11T16:55:50.000Z</time>
      </trkpt>
      <trkpt lat="43.42733309604227542877197265625" lon="-5.205516256392002105712890625">
        <ele>445</ele>
        <time>2019-07-11T16:55:51.000Z</time>
      </trkpt>
      <trkpt lat="43.42729118652641773223876953125" lon="-5.2056984789669513702392578125">
        <ele>442.79998779296875</ele>
        <time>2019-07-11T16:55:52.000Z</time>
      </trkpt>
      <trkpt lat="43.427243493497371673583984375" lon="-5.2058721520006656646728515625">
        <ele>441</ele>
        <time>2019-07-11T16:55:53.000Z</time>
      </trkpt>
      <trkpt lat="43.427193202078342437744140625" lon="-5.20604037679731845855712890625">
        <ele>439.79998779296875</ele>
        <time>2019-07-11T16:55:54.000Z</time>
      </trkpt>
      <trkpt lat="43.42710041441023349761962890625" lon="-5.20636324770748615264892578125">
        <ele>438.600006103515625</ele>
        <time>2019-07-11T16:55:56.000Z</time>
      </trkpt>
      <trkpt lat="43.42707174830138683319091796875" lon="-5.20652912557125091552734375">
        <ele>438</ele>
        <time>2019-07-11T16:55:57.000Z</time>
      </trkpt>
      <trkpt lat="43.42707015573978424072265625" lon="-5.206691063940525054931640625">
        <ele>437.399993896484375</ele>
        <time>2019-07-11T16:55:58.000Z</time>
      </trkpt>
      <trkpt lat="43.427091278135776519775390625" lon="-5.2068514935672283172607421875">
        <ele>436.79998779296875</ele>
        <time>2019-07-11T16:55:59.000Z</time>
      </trkpt>
      <trkpt lat="43.42716260813176631927490234375" lon="-5.2071775496006011962890625">
        <ele>436</ele>
        <time>2019-07-11T16:56:01.000Z</time>
      </trkpt>
      <trkpt lat="43.42722966335713863372802734375" lon="-5.20748944021761417388916015625">
        <ele>434.600006103515625</ele>
        <time>2019-07-11T16:56:03.000Z</time>
      </trkpt>
      <trkpt lat="43.42724625952541828155517578125" lon="-5.20762606523931026458740234375">
        <ele>433.79998779296875</ele>
        <time>2019-07-11T16:56:04.000Z</time>
      </trkpt>
      <trkpt lat="43.427230417728424072265625" lon="-5.20775430835783481597900390625">
        <ele>433.20001220703125</ele>
        <time>2019-07-11T16:56:05.000Z</time>
      </trkpt>
      <trkpt lat="43.42719663865864276885986328125" lon="-5.20788121037185192108154296875">
        <ele>432.600006103515625</ele>
        <time>2019-07-11T16:56:06.000Z</time>
      </trkpt>
      <trkpt lat="43.42713452875614166259765625" lon="-5.20799872465431690216064453125">
        <ele>431.79998779296875</ele>
        <time>2019-07-11T16:56:07.000Z</time>
      </trkpt>
      <trkpt lat="43.42699178494513034820556640625" lon="-5.20823635160923004150390625">
        <ele>430.20001220703125</ele>
        <time>2019-07-11T16:56:09.000Z</time>
      </trkpt>
      <trkpt lat="43.42686790041625499725341796875" lon="-5.20848386920988559722900390625">
        <ele>428.399993896484375</ele>
        <time>2019-07-11T16:56:11.000Z</time>
      </trkpt>
      <trkpt lat="43.42669607140123844146728515625" lon="-5.2085902355611324310302734375">
        <ele>427</ele>
        <time>2019-07-11T16:56:13.000Z</time>
      </trkpt>
      <trkpt lat="43.42648702673614025115966796875" lon="-5.20852477289736270904541015625">
        <ele>426</ele>
        <time>2019-07-11T16:56:15.000Z</time>
      </trkpt>
      <trkpt lat="43.42624428682029247283935546875" lon="-5.20841061137616634368896484375">
        <ele>424.399993896484375</ele>
        <time>2019-07-11T16:56:17.000Z</time>
      </trkpt>
      <trkpt lat="43.42610548250377178192138671875" lon="-5.20837238989770412445068359375">
        <ele>423.20001220703125</ele>
        <time>2019-07-11T16:56:18.000Z</time>
      </trkpt>
      <trkpt lat="43.425958044826984405517578125" lon="-5.208344645798206329345703125">
        <ele>421.79998779296875</ele>
        <time>2019-07-11T16:56:19.000Z</time>
      </trkpt>
      <trkpt lat="43.42581278644502162933349609375" lon="-5.20833416841924190521240234375">
        <ele>419.79998779296875</ele>
        <time>2019-07-11T16:56:20.000Z</time>
      </trkpt>
      <trkpt lat="43.42566333711147308349609375" lon="-5.2083357609808444976806640625">
        <ele>417.600006103515625</ele>
        <time>2019-07-11T16:56:21.000Z</time>
      </trkpt>
      <trkpt lat="43.42551087029278278350830078125" lon="-5.208346657454967498779296875">
        <ele>415.600006103515625</ele>
        <time>2019-07-11T16:56:22.000Z</time>
      </trkpt>
      <trkpt lat="43.42535446397960186004638671875" lon="-5.2083719708025455474853515625">
        <ele>414.399993896484375</ele>
        <time>2019-07-11T16:56:23.000Z</time>
      </trkpt>
      <trkpt lat="43.4251968003809452056884765625" lon="-5.20840725861489772796630859375">
        <ele>413.399993896484375</ele>
        <time>2019-07-11T16:56:24.000Z</time>
      </trkpt>
      <trkpt lat="43.4250412322580814361572265625" lon="-5.208434499800205230712890625">
        <ele>412</ele>
        <time>2019-07-11T16:56:25.000Z</time>
      </trkpt>
      <trkpt lat="43.42489345930516719818115234375" lon="-5.20844019949436187744140625">
        <ele>412</ele>
        <time>2019-07-11T16:56:26.000Z</time>
      </trkpt>
      <trkpt lat="43.424765802919864654541015625" lon="-5.2084301412105560302734375">
        <ele>409.79998779296875</ele>
        <time>2019-07-11T16:56:27.000Z</time>
      </trkpt>
      <trkpt lat="43.4246541559696197509765625" lon="-5.20839996635913848876953125">
        <ele>409.20001220703125</ele>
        <time>2019-07-11T16:56:28.000Z</time>
      </trkpt>
      <trkpt lat="43.42455826699733734130859375" lon="-5.2083542011678218841552734375">
        <ele>408.79998779296875</ele>
        <time>2019-07-11T16:56:29.000Z</time>
      </trkpt>
      <trkpt lat="43.424398340284824371337890625" lon="-5.20827499218285083770751953125">
        <ele>408.79998779296875</ele>
        <time>2019-07-11T16:56:31.000Z</time>
      </trkpt>
      <trkpt lat="43.4242858551442623138427734375" lon="-5.2082834579050540924072265625">
        <ele>408.79998779296875</ele>
        <time>2019-07-11T16:56:33.000Z</time>
      </trkpt>
      <trkpt lat="43.4242127649486064910888671875" lon="-5.20839384756982326507568359375">
        <ele>408.79998779296875</ele>
        <time>2019-07-11T16:56:35.000Z</time>
      </trkpt>
      <trkpt lat="43.4241752140223979949951171875" lon="-5.20862116478383541107177734375">
        <ele>407.79998779296875</ele>
        <time>2019-07-11T16:56:37.000Z</time>
      </trkpt>
      <trkpt lat="43.42417680658400058746337890625" lon="-5.20891956053674221038818359375">
        <ele>405.79998779296875</ele>
        <time>2019-07-11T16:56:39.000Z</time>
      </trkpt>
      <trkpt lat="43.424183093011379241943359375" lon="-5.2090820856392383575439453125">
        <ele>404.600006103515625</ele>
        <time>2019-07-11T16:56:40.000Z</time>
      </trkpt>
      <trkpt lat="43.4241819195449352264404296875" lon="-5.2092500589787960052490234375">
        <ele>403.20001220703125</ele>
        <time>2019-07-11T16:56:41.000Z</time>
      </trkpt>
      <trkpt lat="43.42416691593825817108154296875" lon="-5.2094176970422267913818359375">
        <ele>401.79998779296875</ele>
        <time>2019-07-11T16:56:42.000Z</time>
      </trkpt>
      <trkpt lat="43.42414042912423610687255859375" lon="-5.2095808088779449462890625">
        <ele>400.399993896484375</ele>
        <time>2019-07-11T16:56:43.000Z</time>
      </trkpt>
      <trkpt lat="43.42411427758634090423583984375" lon="-5.20974014885723590850830078125">
        <ele>399</ele>
        <time>2019-07-11T16:56:44.000Z</time>
      </trkpt>
      <trkpt lat="43.42410237528383731842041015625" lon="-5.20989529788494110107421875">
        <ele>397.79998779296875</ele>
        <time>2019-07-11T16:56:45.000Z</time>
      </trkpt>
      <trkpt lat="43.42414612881839275360107421875" lon="-5.21018606610596179962158203125">
        <ele>396.20001220703125</ele>
        <time>2019-07-11T16:56:47.000Z</time>
      </trkpt>
      <trkpt lat="43.42422827146947383880615234375" lon="-5.2104768343269824981689453125">
        <ele>395.20001220703125</ele>
        <time>2019-07-11T16:56:49.000Z</time>
      </trkpt>
      <trkpt lat="43.42425459064543247222900390625" lon="-5.21078906022012233734130859375">
        <ele>394</ele>
        <time>2019-07-11T16:56:51.000Z</time>
      </trkpt>
      <trkpt lat="43.42423615045845508575439453125" lon="-5.210937000811100006103515625">
        <ele>392.79998779296875</ele>
        <time>2019-07-11T16:56:52.000Z</time>
      </trkpt>
      <trkpt lat="43.42419147491455078125" lon="-5.21107010543346405029296875">
        <ele>391.20001220703125</ele>
        <time>2019-07-11T16:56:53.000Z</time>
      </trkpt>
      <trkpt lat="43.42412668280303478240966796875" lon="-5.2111876197159290313720703125">
        <ele>390</ele>
        <time>2019-07-11T16:56:54.000Z</time>
      </trkpt>
      <trkpt lat="43.4240561909973621368408203125" lon="-5.21130152978003025054931640625">
        <ele>388.79998779296875</ele>
        <time>2019-07-11T16:56:55.000Z</time>
      </trkpt>
      <trkpt lat="43.42398989014327526092529296875" lon="-5.211427845060825347900390625">
        <ele>387.600006103515625</ele>
        <time>2019-07-11T16:56:56.000Z</time>
      </trkpt>
      <trkpt lat="43.4239250980317592620849609375" lon="-5.21156069822609424591064453125">
        <ele>386.600006103515625</ele>
        <time>2019-07-11T16:56:57.000Z</time>
      </trkpt>
      <trkpt lat="43.4238479845225811004638671875" lon="-5.2116801403462886810302734375">
        <ele>386</ele>
        <time>2019-07-11T16:56:58.000Z</time>
      </trkpt>
      <trkpt lat="43.42375318519771099090576171875" lon="-5.21176923997700214385986328125">
        <ele>385</ele>
        <time>2019-07-11T16:56:59.000Z</time>
      </trkpt>
      <trkpt lat="43.423647321760654449462890625" lon="-5.21182246506214141845703125">
        <ele>384.399993896484375</ele>
        <time>2019-07-11T16:57:00.000Z</time>
      </trkpt>
      <trkpt lat="43.42353634536266326904296875" lon="-5.2118464373052120208740234375">
        <ele>383.600006103515625</ele>
        <time>2019-07-11T16:57:01.000Z</time>
      </trkpt>
      <trkpt lat="43.42342377640306949615478515625" lon="-5.21185222081840038299560546875">
        <ele>383</ele>
        <time>2019-07-11T16:57:02.000Z</time>
      </trkpt>
      <trkpt lat="43.4233091957867145538330078125" lon="-5.21184970624744892120361328125">
        <ele>382.600006103515625</ele>
        <time>2019-07-11T16:57:03.000Z</time>
      </trkpt>
      <trkpt lat="43.42307140119373798370361328125" lon="-5.2118749357759952545166015625">
        <ele>381.399993896484375</ele>
        <time>2019-07-11T16:57:05.000Z</time>
      </trkpt>
      <trkpt lat="43.42283436097204685211181640625" lon="-5.21197861991822719573974609375">
        <ele>379.399993896484375</ele>
        <time>2019-07-11T16:57:07.000Z</time>
      </trkpt>
      <trkpt lat="43.42263654805719852447509765625" lon="-5.21209596656262874603271484375">
        <ele>377.79998779296875</ele>
        <time>2019-07-11T16:57:09.000Z</time>
      </trkpt>
      <trkpt lat="43.42253294773399829864501953125" lon="-5.2122789435088634490966796875">
        <ele>377</ele>
        <time>2019-07-11T16:57:11.000Z</time>
      </trkpt>
      <trkpt lat="43.4225337021052837371826171875" lon="-5.21251891739666461944580078125">
        <ele>376.79998779296875</ele>
        <time>2019-07-11T16:57:13.000Z</time>
      </trkpt>
      <trkpt lat="43.42261676676571369171142578125" lon="-5.212799124419689178466796875">
        <ele>376.79998779296875</ele>
        <time>2019-07-11T16:57:15.000Z</time>
      </trkpt>
      <trkpt lat="43.42271835543215274810791015625" lon="-5.21312409080564975738525390625">
        <ele>375.600006103515625</ele>
        <time>2019-07-11T16:57:17.000Z</time>
      </trkpt>
      <trkpt lat="43.4227704070508480072021484375" lon="-5.21329323761165142059326171875">
        <ele>374.600006103515625</ele>
        <time>2019-07-11T16:57:18.000Z</time>
      </trkpt>
      <trkpt lat="43.42287543229758739471435546875" lon="-5.21362247876822948455810546875">
        <ele>372.600006103515625</ele>
        <time>2019-07-11T16:57:20.000Z</time>
      </trkpt>
      <trkpt lat="43.4229591675102710723876953125" lon="-5.21395859308540821075439453125">
        <ele>371.20001220703125</ele>
        <time>2019-07-11T16:57:22.000Z</time>
      </trkpt>
      <trkpt lat="43.42303032986819744110107421875" lon="-5.21430241875350475311279296875">
        <ele>369.20001220703125</ele>
        <time>2019-07-11T16:57:24.000Z</time>
      </trkpt>
      <trkpt lat="43.42308799736201763153076171875" lon="-5.2144599147140979766845703125">
        <ele>367.600006103515625</ele>
        <time>2019-07-11T16:57:25.000Z</time>
      </trkpt>
      <trkpt lat="43.42315220274031162261962890625" lon="-5.214610286056995391845703125">
        <ele>366</ele>
        <time>2019-07-11T16:57:26.000Z</time>
      </trkpt>
      <trkpt lat="43.423216156661510467529296875" lon="-5.214764513075351715087890625">
        <ele>364.20001220703125</ele>
        <time>2019-07-11T16:57:27.000Z</time>
      </trkpt>
      <trkpt lat="43.42327793128788471221923828125" lon="-5.21492368541657924652099609375">
        <ele>363</ele>
        <time>2019-07-11T16:57:28.000Z</time>
      </trkpt>
      <trkpt lat="43.42334716580808162689208984375" lon="-5.2150801755487918853759765625">
        <ele>361.399993896484375</ele>
        <time>2019-07-11T16:57:29.000Z</time>
      </trkpt>
      <trkpt lat="43.4234181605279445648193359375" lon="-5.215229205787181854248046875">
        <ele>359.79998779296875</ele>
        <time>2019-07-11T16:57:30.000Z</time>
      </trkpt>
      <trkpt lat="43.4234848804771900177001953125" lon="-5.215367339551448822021484375">
        <ele>358.600006103515625</ele>
        <time>2019-07-11T16:57:31.000Z</time>
      </trkpt>
      <trkpt lat="43.4235732257366180419921875" lon="-5.2156048826873302459716796875">
        <ele>357.79998779296875</ele>
        <time>2019-07-11T16:57:33.000Z</time>
      </trkpt>
      <trkpt lat="43.4233618341386318206787109375" lon="-5.21577863954007625579833984375">
        <ele>358.79998779296875</ele>
        <time>2019-07-11T16:57:37.000Z</time>
      </trkpt>
      <trkpt lat="43.42294550500810146331787109375" lon="-5.2156203053891658782958984375">
        <ele>358.600006103515625</ele>
        <time>2019-07-11T16:57:41.000Z</time>
      </trkpt>
      <trkpt lat="43.4226926229894161224365234375" lon="-5.2156739495694637298583984375">
        <ele>358.600006103515625</ele>
        <time>2019-07-11T16:57:43.000Z</time>
      </trkpt>
      <trkpt lat="43.4221625514328479766845703125" lon="-5.21595533005893230438232421875">
        <ele>359.79998779296875</ele>
        <time>2019-07-11T16:57:47.000Z</time>
      </trkpt>
      <trkpt lat="43.421884439885616302490234375" lon="-5.21608407609164714813232421875">
        <ele>361.20001220703125</ele>
        <time>2019-07-11T16:57:49.000Z</time>
      </trkpt>
      <trkpt lat="43.42161127366125583648681640625" lon="-5.21621198393404483795166015625">
        <ele>362.399993896484375</ele>
        <time>2019-07-11T16:57:51.000Z</time>
      </trkpt>
      <trkpt lat="43.42135210521519184112548828125" lon="-5.2163129858672618865966796875">
        <ele>364.79998779296875</ele>
        <time>2019-07-11T16:57:53.000Z</time>
      </trkpt>
      <trkpt lat="43.42123509384691715240478515625" lon="-5.21635481156408786773681640625">
        <ele>366</ele>
        <time>2019-07-11T16:57:54.000Z</time>
      </trkpt>
      <trkpt lat="43.421123027801513671875" lon="-5.21639269776642322540283203125">
        <ele>367.399993896484375</ele>
        <time>2019-07-11T16:57:55.000Z</time>
      </trkpt>
      <trkpt lat="43.42102437280118465423583984375" lon="-5.21643050014972686767578125">
        <ele>368.79998779296875</ele>
        <time>2019-07-11T16:57:56.000Z</time>
      </trkpt>
      <trkpt lat="43.4209411405026912689208984375" lon="-5.21648347377777099609375">
        <ele>370</ele>
        <time>2019-07-11T16:57:57.000Z</time>
      </trkpt>
      <trkpt lat="43.42087953351438045501708984375" lon="-5.21655924618244171142578125">
        <ele>371.20001220703125</ele>
        <time>2019-07-11T16:57:58.000Z</time>
      </trkpt>
      <trkpt lat="43.42083712108433246612548828125" lon="-5.21665639244019985198974609375">
        <ele>372.399993896484375</ele>
        <time>2019-07-11T16:57:59.000Z</time>
      </trkpt>
      <trkpt lat="43.4208107180893421173095703125" lon="-5.21677960641682147979736328125">
        <ele>373.20001220703125</ele>
        <time>2019-07-11T16:58:00.000Z</time>
      </trkpt>
      <trkpt lat="43.42079319991171360015869140625" lon="-5.21692612208425998687744140625">
        <ele>373.79998779296875</ele>
        <time>2019-07-11T16:58:01.000Z</time>
      </trkpt>
      <trkpt lat="43.42076235450804233551025390625" lon="-5.2176544256508350372314453125">
        <ele>372.20001220703125</ele>
        <time>2019-07-11T16:58:05.000Z</time>
      </trkpt>
      <trkpt lat="43.4207570739090442657470703125" lon="-5.21785383112728595733642578125">
        <ele>370.20001220703125</ele>
        <time>2019-07-11T16:58:06.000Z</time>
      </trkpt>
      <trkpt lat="43.42076084576547145843505859375" lon="-5.21805734373629093170166015625">
        <ele>368</ele>
        <time>2019-07-11T16:58:07.000Z</time>
      </trkpt>
      <trkpt lat="43.420778699219226837158203125" lon="-5.21826722659170627593994140625">
        <ele>366</ele>
        <time>2019-07-11T16:58:08.000Z</time>
      </trkpt>
      <trkpt lat="43.42080719769001007080078125" lon="-5.21847912110388278961181640625">
        <ele>364.20001220703125</ele>
        <time>2019-07-11T16:58:09.000Z</time>
      </trkpt>
      <trkpt lat="43.4208333492279052734375" lon="-5.21868766285479068756103515625">
        <ele>362.600006103515625</ele>
        <time>2019-07-11T16:58:10.000Z</time>
      </trkpt>
      <trkpt lat="43.4208522923290729522705078125" lon="-5.21889737807214260101318359375">
        <ele>361.20001220703125</ele>
        <time>2019-07-11T16:58:11.000Z</time>
      </trkpt>
      <trkpt lat="43.420858494937419891357421875" lon="-5.21910608746111392974853515625">
        <ele>359.399993896484375</ele>
        <time>2019-07-11T16:58:12.000Z</time>
      </trkpt>
      <trkpt lat="43.4208670444786548614501953125" lon="-5.2193063311278820037841796875">
        <ele>357.399993896484375</ele>
        <time>2019-07-11T16:58:13.000Z</time>
      </trkpt>
      <trkpt lat="43.4208811260759830474853515625" lon="-5.21949333138763904571533203125">
        <ele>355.600006103515625</ele>
        <time>2019-07-11T16:58:14.000Z</time>
      </trkpt>
      <trkpt lat="43.42090132646262645721435546875" lon="-5.219667255878448486328125">
        <ele>354.79998779296875</ele>
        <time>2019-07-11T16:58:15.000Z</time>
      </trkpt>
      <trkpt lat="43.42092982493340969085693359375" lon="-5.21982483565807342529296875">
        <ele>354.20001220703125</ele>
        <time>2019-07-11T16:58:16.000Z</time>
      </trkpt>
      <trkpt lat="43.4209848940372467041015625" lon="-5.22009305655956268310546875">
        <ele>354</ele>
        <time>2019-07-11T16:58:18.000Z</time>
      </trkpt>
      <trkpt lat="43.42099185101687908172607421875" lon="-5.22030235268175601959228515625">
        <ele>354.600006103515625</ele>
        <time>2019-07-11T16:58:20.000Z</time>
      </trkpt>
      <trkpt lat="43.4209136478602886199951171875" lon="-5.2204154245555400848388671875">
        <ele>355.399993896484375</ele>
        <time>2019-07-11T16:58:22.000Z</time>
      </trkpt>
      <trkpt lat="43.4207721613347530364990234375" lon="-5.22035993635654449462890625">
        <ele>355.600006103515625</ele>
        <time>2019-07-11T16:58:24.000Z</time>
      </trkpt>
      <trkpt lat="43.42048759572207927703857421875" lon="-5.220112167298793792724609375">
        <ele>354.20001220703125</ele>
        <time>2019-07-11T16:58:27.000Z</time>
      </trkpt>
      <trkpt lat="43.42023915611207485198974609375" lon="-5.21996070630848407745361328125">
        <ele>352.600006103515625</ele>
        <time>2019-07-11T16:58:29.000Z</time>
      </trkpt>
      <trkpt lat="43.4201104938983917236328125" lon="-5.2198853529989719390869140625">
        <ele>351.399993896484375</ele>
        <time>2019-07-11T16:58:30.000Z</time>
      </trkpt>
      <trkpt lat="43.4199731983244419097900390625" lon="-5.2198243327438831329345703125">
        <ele>349.600006103515625</ele>
        <time>2019-07-11T16:58:31.000Z</time>
      </trkpt>
      <trkpt lat="43.4198353998363018035888671875" lon="-5.21977010183036327362060546875">
        <ele>348</ele>
        <time>2019-07-11T16:58:32.000Z</time>
      </trkpt>
      <trkpt lat="43.41970137320458889007568359375" lon="-5.21970220841467380523681640625">
        <ele>346</ele>
        <time>2019-07-11T16:58:33.000Z</time>
      </trkpt>
      <trkpt lat="43.41957178898155689239501953125" lon="-5.21962702274322509765625">
        <ele>344.20001220703125</ele>
        <time>2019-07-11T16:58:34.000Z</time>
      </trkpt>
      <trkpt lat="43.41944186948239803314208984375" lon="-5.2195648290216922760009765625">
        <ele>342.600006103515625</ele>
        <time>2019-07-11T16:58:35.000Z</time>
      </trkpt>
      <trkpt lat="43.419312201440334320068359375" lon="-5.2195195667445659637451171875">
        <ele>341.600006103515625</ele>
        <time>2019-07-11T16:58:36.000Z</time>
      </trkpt>
      <trkpt lat="43.4191899932920932769775390625" lon="-5.21946005523204803466796875">
        <ele>340.79998779296875</ele>
        <time>2019-07-11T16:58:37.000Z</time>
      </trkpt>
      <trkpt lat="43.41908094473183155059814453125" lon="-5.21937011741101741790771484375">
        <ele>339.600006103515625</ele>
        <time>2019-07-11T16:58:38.000Z</time>
      </trkpt>
      <trkpt lat="43.41897918842732906341552734375" lon="-5.21926693618297576904296875">
        <ele>338.399993896484375</ele>
        <time>2019-07-11T16:58:39.000Z</time>
      </trkpt>
      <trkpt lat="43.4188766777515411376953125" lon="-5.2191749028861522674560546875">
        <ele>337</ele>
        <time>2019-07-11T16:58:40.000Z</time>
      </trkpt>
      <trkpt lat="43.41865070164203643798828125" lon="-5.21907440386712551116943359375">
        <ele>335.399993896484375</ele>
        <time>2019-07-11T16:58:42.000Z</time>
      </trkpt>
      <trkpt lat="43.41841910965740680694580078125" lon="-5.21903148852288722991943359375">
        <ele>334</ele>
        <time>2019-07-11T16:58:44.000Z</time>
      </trkpt>
      <trkpt lat="43.41819631867110729217529296875" lon="-5.218977592885494232177734375">
        <ele>332.399993896484375</ele>
        <time>2019-07-11T16:58:46.000Z</time>
      </trkpt>
      <trkpt lat="43.41808869503438472747802734375" lon="-5.2189784310758113861083984375">
        <ele>331.20001220703125</ele>
        <time>2019-07-11T16:58:47.000Z</time>
      </trkpt>
      <trkpt lat="43.4179866872727870941162109375" lon="-5.21901941858232021331787109375">
        <ele>329.79998779296875</ele>
        <time>2019-07-11T16:58:48.000Z</time>
      </trkpt>
      <trkpt lat="43.41788627207279205322265625" lon="-5.219100974500179290771484375">
        <ele>328.600006103515625</ele>
        <time>2019-07-11T16:58:49.000Z</time>
      </trkpt>
      <trkpt lat="43.4176919795572757720947265625" lon="-5.219351090490818023681640625">
        <ele>326.600006103515625</ele>
        <time>2019-07-11T16:58:51.000Z</time>
      </trkpt>
      <trkpt lat="43.4175987727940082550048828125" lon="-5.21950875408947467803955078125">
        <ele>325.600006103515625</ele>
        <time>2019-07-11T16:58:52.000Z</time>
      </trkpt>
      <trkpt lat="43.41751704923808574676513671875" lon="-5.21968427114188671112060546875">
        <ele>324.399993896484375</ele>
        <time>2019-07-11T16:58:53.000Z</time>
      </trkpt>
      <trkpt lat="43.41744479723274707794189453125" lon="-5.21986749954521656036376953125">
        <ele>322.399993896484375</ele>
        <time>2019-07-11T16:58:54.000Z</time>
      </trkpt>
      <trkpt lat="43.41737187467515468597412109375" lon="-5.22004318423569202423095703125">
        <ele>319.79998779296875</ele>
        <time>2019-07-11T16:58:55.000Z</time>
      </trkpt>
      <trkpt lat="43.41728604398667812347412109375" lon="-5.22019623778760433197021484375">
        <ele>317.399993896484375</ele>
        <time>2019-07-11T16:58:56.000Z</time>
      </trkpt>
      <trkpt lat="43.4171894006431102752685546875" lon="-5.2203316055238246917724609375">
        <ele>315.79998779296875</ele>
        <time>2019-07-11T16:58:57.000Z</time>
      </trkpt>
      <trkpt lat="43.4170930087566375732421875" lon="-5.22046596743166446685791015625">
        <ele>314.600006103515625</ele>
        <time>2019-07-11T16:58:58.000Z</time>
      </trkpt>
      <trkpt lat="43.4169280529022216796875" lon="-5.22076268680393695831298828125">
        <ele>313</ele>
        <time>2019-07-11T16:59:00.000Z</time>
      </trkpt>
      <trkpt lat="43.41687030158936977386474609375" lon="-5.2209324203431606292724609375">
        <ele>311.79998779296875</ele>
        <time>2019-07-11T16:59:01.000Z</time>
      </trkpt>
      <trkpt lat="43.416831828653812408447265625" lon="-5.22112168371677398681640625">
        <ele>310.600006103515625</ele>
        <time>2019-07-11T16:59:02.000Z</time>
      </trkpt>
      <trkpt lat="43.416806347668170928955078125" lon="-5.2213049121201038360595703125">
        <ele>309.399993896484375</ele>
        <time>2019-07-11T16:59:03.000Z</time>
      </trkpt>
      <trkpt lat="43.41679335571825504302978515625" lon="-5.22148319520056247711181640625">
        <ele>308.399993896484375</ele>
        <time>2019-07-11T16:59:04.000Z</time>
      </trkpt>
      <trkpt lat="43.41678832657635211944580078125" lon="-5.2217781543731689453125">
        <ele>307</ele>
        <time>2019-07-11T16:59:06.000Z</time>
      </trkpt>
      <trkpt lat="43.41678011231124401092529296875" lon="-5.22189659066498279571533203125">
        <ele>306.600006103515625</ele>
        <time>2019-07-11T16:59:07.000Z</time>
      </trkpt>
      <trkpt lat="43.41668237932026386260986328125" lon="-5.22206741385161876678466796875">
        <ele>306.399993896484375</ele>
        <time>2019-07-11T16:59:09.000Z</time>
      </trkpt>
      <trkpt lat="43.41638029552996158599853515625" lon="-5.22220638580620288848876953125">
        <ele>305.399993896484375</ele>
        <time>2019-07-11T16:59:12.000Z</time>
      </trkpt>
      <trkpt lat="43.41627568937838077545166015625" lon="-5.2222292684018611907958984375">
        <ele>305</ele>
        <time>2019-07-11T16:59:13.000Z</time>
      </trkpt>
      <trkpt lat="43.41608910821378231048583984375" lon="-5.2221736125648021697998046875">
        <ele>304.399993896484375</ele>
        <time>2019-07-11T16:59:15.000Z</time>
      </trkpt>
      <trkpt lat="43.41600336134433746337890625" lon="-5.2220814116299152374267578125">
        <ele>304.399993896484375</ele>
        <time>2019-07-11T16:59:16.000Z</time>
      </trkpt>
      <trkpt lat="43.41592985205352306365966796875" lon="-5.22196733392775058746337890625">
        <ele>304.399993896484375</ele>
        <time>2019-07-11T16:59:17.000Z</time>
      </trkpt>
      <trkpt lat="43.4158791415393352508544921875" lon="-5.2217243425548076629638671875">
        <ele>304.600006103515625</ele>
        <time>2019-07-11T16:59:19.000Z</time>
      </trkpt>
      <trkpt lat="43.41578476130962371826171875" lon="-5.221058316528797149658203125">
        <ele>303.20001220703125</ele>
        <time>2019-07-11T16:59:23.000Z</time>
      </trkpt>
      <trkpt lat="43.41573891229927539825439453125" lon="-5.22068339399993419647216796875">
        <ele>301.20001220703125</ele>
        <time>2019-07-11T16:59:25.000Z</time>
      </trkpt>
      <trkpt lat="43.41572851873934268951416015625" lon="-5.22048708982765674591064453125">
        <ele>300.20001220703125</ele>
        <time>2019-07-11T16:59:26.000Z</time>
      </trkpt>
      <trkpt lat="43.41568375937640666961669921875" lon="-5.22011308930814266204833984375">
        <ele>298.20001220703125</ele>
        <time>2019-07-11T16:59:28.000Z</time>
      </trkpt>
      <trkpt lat="43.41562374494969844818115234375" lon="-5.21978795528411865234375">
        <ele>297</ele>
        <time>2019-07-11T16:59:30.000Z</time>
      </trkpt>
      <trkpt lat="43.41550891287624835968017578125" lon="-5.21957379765808582305908203125">
        <ele>296.600006103515625</ele>
        <time>2019-07-11T16:59:32.000Z</time>
      </trkpt>
      <trkpt lat="43.4152193181216716766357421875" lon="-5.21946868859231472015380859375">
        <ele>297.600006103515625</ele>
        <time>2019-07-11T16:59:35.000Z</time>
      </trkpt>
      <trkpt lat="43.41504857875406742095947265625" lon="-5.21931588649749755859375">
        <ele>297.399993896484375</ele>
        <time>2019-07-11T16:59:37.000Z</time>
      </trkpt>
      <trkpt lat="43.415003903210163116455078125" lon="-5.21908848546445369720458984375">
        <ele>296.600006103515625</ele>
        <time>2019-07-11T16:59:39.000Z</time>
      </trkpt>
      <trkpt lat="43.41510440222918987274169921875" lon="-5.21885312162339687347412109375">
        <ele>295.79998779296875</ele>
        <time>2019-07-11T16:59:41.000Z</time>
      </trkpt>
      <trkpt lat="43.4152360819280147552490234375" lon="-5.21862882189452648162841796875">
        <ele>295.399993896484375</ele>
        <time>2019-07-11T16:59:43.000Z</time>
      </trkpt>
      <trkpt lat="43.415270783007144927978515625" lon="-5.218390859663486480712890625">
        <ele>294.399993896484375</ele>
        <time>2019-07-11T16:59:45.000Z</time>
      </trkpt>
      <trkpt lat="43.41521705500781536102294921875" lon="-5.2181236445903778076171875">
        <ele>292.79998779296875</ele>
        <time>2019-07-11T16:59:47.000Z</time>
      </trkpt>
      <trkpt lat="43.41518218629062175750732421875" lon="-5.2179776318371295928955078125">
        <ele>291.79998779296875</ele>
        <time>2019-07-11T16:59:48.000Z</time>
      </trkpt>
      <trkpt lat="43.415154777467250823974609375" lon="-5.21781728602945804595947265625">
        <ele>291</ele>
        <time>2019-07-11T16:59:49.000Z</time>
      </trkpt>
      <trkpt lat="43.415128625929355621337890625" lon="-5.217640511691570281982421875">
        <ele>290</ele>
        <time>2019-07-11T16:59:50.000Z</time>
      </trkpt>
      <trkpt lat="43.41509945690631866455078125" lon="-5.2174646593630313873291015625">
        <ele>289</ele>
        <time>2019-07-11T16:59:51.000Z</time>
      </trkpt>
      <trkpt lat="43.41505779884755611419677734375" lon="-5.21729727275669574737548828125">
        <ele>287.399993896484375</ele>
        <time>2019-07-11T16:59:52.000Z</time>
      </trkpt>
      <trkpt lat="43.41500851325690746307373046875" lon="-5.217144973576068878173828125">
        <ele>285.600006103515625</ele>
        <time>2019-07-11T16:59:53.000Z</time>
      </trkpt>
      <trkpt lat="43.41497079469263553619384765625" lon="-5.21700725890696048736572265625">
        <ele>284</ele>
        <time>2019-07-11T16:59:54.000Z</time>
      </trkpt>
      <trkpt lat="43.41496056877076625823974609375" lon="-5.2168742381036281585693359375">
        <ele>283</ele>
        <time>2019-07-11T16:59:55.000Z</time>
      </trkpt>
      <trkpt lat="43.41498403809964656829833984375" lon="-5.2167448215186595916748046875">
        <ele>282</ele>
        <time>2019-07-11T16:59:56.000Z</time>
      </trkpt>
      <trkpt lat="43.4150250256061553955078125" lon="-5.216609202325344085693359375">
        <ele>281.399993896484375</ele>
        <time>2019-07-11T16:59:57.000Z</time>
      </trkpt>
      <trkpt lat="43.415067605674266815185546875" lon="-5.21646025590598583221435546875">
        <ele>281.20001220703125</ele>
        <time>2019-07-11T16:59:58.000Z</time>
      </trkpt>
      <trkpt lat="43.41511345468461513519287109375" lon="-5.216308124363422393798828125">
        <ele>280.399993896484375</ele>
        <time>2019-07-11T16:59:59.000Z</time>
      </trkpt>
      <trkpt lat="43.41516424901783466339111328125" lon="-5.21617057733237743377685546875">
        <ele>279.399993896484375</ele>
        <time>2019-07-11T17:00:00.000Z</time>
      </trkpt>
      <trkpt lat="43.41520272195339202880859375" lon="-5.2160394005477428436279296875">
        <ele>278.20001220703125</ele>
        <time>2019-07-11T17:00:01.000Z</time>
      </trkpt>
      <trkpt lat="43.4151878021657466888427734375" lon="-5.21580445580184459686279296875">
        <ele>276.399993896484375</ele>
        <time>2019-07-11T17:00:03.000Z</time>
      </trkpt>
      <trkpt lat="43.41507925651967525482177734375" lon="-5.2156273461878299713134765625">
        <ele>274.600006103515625</ele>
        <time>2019-07-11T17:00:05.000Z</time>
      </trkpt>
      <trkpt lat="43.41495587490499019622802734375" lon="-5.2154177986085414886474609375">
        <ele>273.20001220703125</ele>
        <time>2019-07-11T17:00:07.000Z</time>
      </trkpt>
      <trkpt lat="43.41492435894906520843505859375" lon="-5.21528025157749652862548828125">
        <ele>272.20001220703125</ele>
        <time>2019-07-11T17:00:08.000Z</time>
      </trkpt>
      <trkpt lat="43.4149101935327053070068359375" lon="-5.21512988023459911346435546875">
        <ele>271.20001220703125</ele>
        <time>2019-07-11T17:00:09.000Z</time>
      </trkpt>
      <trkpt lat="43.4149477444589138031005859375" lon="-5.2148250304162502288818359375">
        <ele>269.20001220703125</ele>
        <time>2019-07-11T17:00:11.000Z</time>
      </trkpt>
      <trkpt lat="43.41498202644288539886474609375" lon="-5.21468413062393665313720703125">
        <ele>268.20001220703125</ele>
        <time>2019-07-11T17:00:12.000Z</time>
      </trkpt>
      <trkpt lat="43.41500448994338512420654296875" lon="-5.21454381756484508514404296875">
        <ele>266.79998779296875</ele>
        <time>2019-07-11T17:00:13.000Z</time>
      </trkpt>
      <trkpt lat="43.41500423848628997802734375" lon="-5.21440400741994380950927734375">
        <ele>265.79998779296875</ele>
        <time>2019-07-11T17:00:14.000Z</time>
      </trkpt>
      <trkpt lat="43.41497741639614105224609375" lon="-5.21427274681627750396728515625">
        <ele>264.600006103515625</ele>
        <time>2019-07-11T17:00:15.000Z</time>
      </trkpt>
      <trkpt lat="43.41485713608562946319580078125" lon="-5.21405716426670551300048828125">
        <ele>262.79998779296875</ele>
        <time>2019-07-11T17:00:17.000Z</time>
      </trkpt>
      <trkpt lat="43.41467273421585559844970703125" lon="-5.21394099108874797821044921875">
        <ele>261.79998779296875</ele>
        <time>2019-07-11T17:00:19.000Z</time>
      </trkpt>
      <trkpt lat="43.4145690500736236572265625" lon="-5.21388164721429347991943359375">
        <ele>261.20001220703125</ele>
        <time>2019-07-11T17:00:20.000Z</time>
      </trkpt>
      <trkpt lat="43.41447324492037296295166015625" lon="-5.213798917829990386962890625">
        <ele>260.399993896484375</ele>
        <time>2019-07-11T17:00:21.000Z</time>
      </trkpt>
      <trkpt lat="43.4143921919167041778564453125" lon="-5.2136914618313312530517578125">
        <ele>259.399993896484375</ele>
        <time>2019-07-11T17:00:22.000Z</time>
      </trkpt>
      <trkpt lat="43.41432421468198299407958984375" lon="-5.21355508826673030853271484375">
        <ele>258.399993896484375</ele>
        <time>2019-07-11T17:00:23.000Z</time>
      </trkpt>
      <trkpt lat="43.41420820914208889007568359375" lon="-5.2132234163582324981689453125">
        <ele>256</ele>
        <time>2019-07-11T17:00:25.000Z</time>
      </trkpt>
      <trkpt lat="43.41415205039083957672119140625" lon="-5.21305284462869167327880859375">
        <ele>254.399993896484375</ele>
        <time>2019-07-11T17:00:26.000Z</time>
      </trkpt>
      <trkpt lat="43.41409639455378055572509765625" lon="-5.2128851227462291717529296875">
        <ele>252</ele>
        <time>2019-07-11T17:00:27.000Z</time>
      </trkpt>
      <trkpt lat="43.41405767016112804412841796875" lon="-5.21271337755024433135986328125">
        <ele>250.1999969482421875</ele>
        <time>2019-07-11T17:00:28.000Z</time>
      </trkpt>
      <trkpt lat="43.41403721831738948822021484375" lon="-5.21254322491586208343505859375">
        <ele>248</ele>
        <time>2019-07-11T17:00:29.000Z</time>
      </trkpt>
      <trkpt lat="43.4140287525951862335205078125" lon="-5.21237642504274845123291015625">
        <ele>246.8000030517578125</ele>
        <time>2019-07-11T17:00:30.000Z</time>
      </trkpt>
      <trkpt lat="43.41403135098516941070556640625" lon="-5.21220493130385875701904296875">
        <ele>245.8000030517578125</ele>
        <time>2019-07-11T17:00:31.000Z</time>
      </trkpt>
      <trkpt lat="43.4140518866479396820068359375" lon="-5.21202497184276580810546875">
        <ele>245.1999969482421875</ele>
        <time>2019-07-11T17:00:32.000Z</time>
      </trkpt>
      <trkpt lat="43.4140937961637973785400390625" lon="-5.21166278980672359466552734375">
        <ele>243.8000030517578125</ele>
        <time>2019-07-11T17:00:34.000Z</time>
      </trkpt>
      <trkpt lat="43.4141149185597896575927734375" lon="-5.2114863507449626922607421875">
        <ele>242</ele>
        <time>2019-07-11T17:00:35.000Z</time>
      </trkpt>
      <trkpt lat="43.41414190828800201416015625" lon="-5.2113130129873752593994140625">
        <ele>240</ele>
        <time>2019-07-11T17:00:36.000Z</time>
      </trkpt>
      <trkpt lat="43.41417384333908557891845703125" lon="-5.21114512346684932708740234375">
        <ele>238</ele>
        <time>2019-07-11T17:00:37.000Z</time>
      </trkpt>
      <trkpt lat="43.414208628237247467041015625" lon="-5.21098268218338489532470703125">
        <ele>236.600006103515625</ele>
        <time>2019-07-11T17:00:38.000Z</time>
      </trkpt>
      <trkpt lat="43.41424408368766307830810546875" lon="-5.21082426421344280242919921875">
        <ele>235.399993896484375</ele>
        <time>2019-07-11T17:00:39.000Z</time>
      </trkpt>
      <trkpt lat="43.41427057050168514251708984375" lon="-5.21066802553832530975341796875">
        <ele>234.1999969482421875</ele>
        <time>2019-07-11T17:00:40.000Z</time>
      </trkpt>
      <trkpt lat="43.41427912004292011260986328125" lon="-5.21051354706287384033203125">
        <ele>233.1999969482421875</ele>
        <time>2019-07-11T17:00:41.000Z</time>
      </trkpt>
      <trkpt lat="43.4142584167420864105224609375" lon="-5.210362337529659271240234375">
        <ele>232.399993896484375</ele>
        <time>2019-07-11T17:00:42.000Z</time>
      </trkpt>
      <trkpt lat="43.41421592049300670623779296875" lon="-5.2102109603583812713623046875">
        <ele>232.1999969482421875</ele>
        <time>2019-07-11T17:00:43.000Z</time>
      </trkpt>
      <trkpt lat="43.41406345367431640625" lon="-5.20973931066691875457763671875">
        <ele>231.1999969482421875</ele>
        <time>2019-07-11T17:00:46.000Z</time>
      </trkpt>
      <trkpt lat="43.413990698754787445068359375" lon="-5.20959480665624141693115234375">
        <ele>230.600006103515625</ele>
        <time>2019-07-11T17:00:47.000Z</time>
      </trkpt>
      <trkpt lat="43.4138976596295833587646484375" lon="-5.20946304313838481903076171875">
        <ele>229.600006103515625</ele>
        <time>2019-07-11T17:00:48.000Z</time>
      </trkpt>
      <trkpt lat="43.41380068100988864898681640625" lon="-5.209335722029209136962890625">
        <ele>228.399993896484375</ele>
        <time>2019-07-11T17:00:49.000Z</time>
      </trkpt>
      <trkpt lat="43.41371920891106128692626953125" lon="-5.209203623235225677490234375">
        <ele>226.8000030517578125</ele>
        <time>2019-07-11T17:00:50.000Z</time>
      </trkpt>
      <trkpt lat="43.41365617699921131134033203125" lon="-5.20907026715576648712158203125">
        <ele>225.399993896484375</ele>
        <time>2019-07-11T17:00:51.000Z</time>
      </trkpt>
      <trkpt lat="43.4135962463915348052978515625" lon="-5.20894981920719146728515625">
        <ele>224.1999969482421875</ele>
        <time>2019-07-11T17:00:52.000Z</time>
      </trkpt>
      <trkpt lat="43.41342081315815448760986328125" lon="-5.20878813229501247406005859375">
        <ele>222.600006103515625</ele>
        <time>2019-07-11T17:00:54.000Z</time>
      </trkpt>
      <trkpt lat="43.41324596665799617767333984375" lon="-5.20861345343291759490966796875">
        <ele>221.399993896484375</ele>
        <time>2019-07-11T17:00:56.000Z</time>
      </trkpt>
      <trkpt lat="43.41315343044698238372802734375" lon="-5.20834439434111118316650390625">
        <ele>219.1999969482421875</ele>
        <time>2019-07-11T17:00:58.000Z</time>
      </trkpt>
      <trkpt lat="43.41309794224798679351806640625" lon="-5.208085477352142333984375">
        <ele>218</ele>
        <time>2019-07-11T17:01:00.000Z</time>
      </trkpt>
      <trkpt lat="43.41298185288906097412109375" lon="-5.2079092897474765777587890625">
        <ele>217.399993896484375</ele>
        <time>2019-07-11T17:01:02.000Z</time>
      </trkpt>
      <trkpt lat="43.412891663610935211181640625" lon="-5.20785279572010040283203125">
        <ele>216.8000030517578125</ele>
        <time>2019-07-11T17:01:03.000Z</time>
      </trkpt>
      <trkpt lat="43.41267063282430171966552734375" lon="-5.207753218710422515869140625">
        <ele>214.8000030517578125</ele>
        <time>2019-07-11T17:01:05.000Z</time>
      </trkpt>
      <trkpt lat="43.41256284154951572418212890625" lon="-5.2076977305114269256591796875">
        <ele>213.1999969482421875</ele>
        <time>2019-07-11T17:01:06.000Z</time>
      </trkpt>
      <trkpt lat="43.41246913187205791473388671875" lon="-5.20764668472111225128173828125">
        <ele>211.399993896484375</ele>
        <time>2019-07-11T17:01:07.000Z</time>
      </trkpt>
      <trkpt lat="43.4123785234987735748291015625" lon="-5.207622461020946502685546875">
        <ele>210</ele>
        <time>2019-07-11T17:01:08.000Z</time>
      </trkpt>
      <trkpt lat="43.41219018213450908660888671875" lon="-5.20768708549439907073974609375">
        <ele>208.399993896484375</ele>
        <time>2019-07-11T17:01:10.000Z</time>
      </trkpt>
      <trkpt lat="43.41200410388410091400146484375" lon="-5.2078264765441417694091796875">
        <ele>207.399993896484375</ele>
        <time>2019-07-11T17:01:12.000Z</time>
      </trkpt>
      <trkpt lat="43.41190402396023273468017578125" lon="-5.2078794501721858978271484375">
        <ele>206.399993896484375</ele>
        <time>2019-07-11T17:01:13.000Z</time>
      </trkpt>
      <trkpt lat="43.41180880554020404815673828125" lon="-5.20791943185031414031982421875">
        <ele>205.399993896484375</ele>
        <time>2019-07-11T17:01:14.000Z</time>
      </trkpt>
      <trkpt lat="43.4117317758500576019287109375" lon="-5.20796704106032848358154296875">
        <ele>204.600006103515625</ele>
        <time>2019-07-11T17:01:15.000Z</time>
      </trkpt>
      <trkpt lat="43.4116667322814464569091796875" lon="-5.208036862313747406005859375">
        <ele>204</ele>
        <time>2019-07-11T17:01:16.000Z</time>
      </trkpt>
      <trkpt lat="43.41162063181400299072265625" lon="-5.20812696777284145355224609375">
        <ele>203.1999969482421875</ele>
        <time>2019-07-11T17:01:17.000Z</time>
      </trkpt>
      <trkpt lat="43.411608226597309112548828125" lon="-5.2082304842770099639892578125">
        <ele>202.600006103515625</ele>
        <time>2019-07-11T17:01:18.000Z</time>
      </trkpt>
      <trkpt lat="43.411600850522518157958984375" lon="-5.20844598300755023956298828125">
        <ele>201.8000030517578125</ele>
        <time>2019-07-11T17:01:20.000Z</time>
      </trkpt>
      <trkpt lat="43.41156790964305400848388671875" lon="-5.20854413509368896484375">
        <ele>201.399993896484375</ele>
        <time>2019-07-11T17:01:21.000Z</time>
      </trkpt>
      <trkpt lat="43.41151074506342411041259765625" lon="-5.2086244337260723114013671875">
        <ele>201</ele>
        <time>2019-07-11T17:01:22.000Z</time>
      </trkpt>
      <trkpt lat="43.4113321267068386077880859375" lon="-5.20872325636446475982666015625">
        <ele>200.1999969482421875</ele>
        <time>2019-07-11T17:01:24.000Z</time>
      </trkpt>
      <trkpt lat="43.41112333349883556365966796875" lon="-5.2087796665728092193603515625">
        <ele>198.8000030517578125</ele>
        <time>2019-07-11T17:01:26.000Z</time>
      </trkpt>
      <trkpt lat="43.4110250137746334075927734375" lon="-5.2088255994021892547607421875">
        <ele>198</ele>
        <time>2019-07-11T17:01:27.000Z</time>
      </trkpt>
      <trkpt lat="43.410934321582317352294921875" lon="-5.208896510303020477294921875">
        <ele>197</ele>
        <time>2019-07-11T17:01:28.000Z</time>
      </trkpt>
      <trkpt lat="43.4108533523976802825927734375" lon="-5.208983682096004486083984375">
        <ele>196</ele>
        <time>2019-07-11T17:01:29.000Z</time>
      </trkpt>
      <trkpt lat="43.41077514924108982086181640625" lon="-5.20906724967062473297119140625">
        <ele>195.1999969482421875</ele>
        <time>2019-07-11T17:01:30.000Z</time>
      </trkpt>
      <trkpt lat="43.41069015674293041229248046875" lon="-5.2091253362596035003662109375">
        <ele>194.1999969482421875</ele>
        <time>2019-07-11T17:01:31.000Z</time>
      </trkpt>
      <trkpt lat="43.4106089361011981964111328125" lon="-5.20914696156978607177734375">
        <ele>193.8000030517578125</ele>
        <time>2019-07-11T17:01:32.000Z</time>
      </trkpt>
      <trkpt lat="43.4105376899242401123046875" lon="-5.20913329906761646270751953125">
        <ele>193.1999969482421875</ele>
        <time>2019-07-11T17:01:33.000Z</time>
      </trkpt>
      <trkpt lat="43.41048429720103740692138671875" lon="-5.20908216945827007293701171875">
        <ele>192.600006103515625</ele>
        <time>2019-07-11T17:01:34.000Z</time>
      </trkpt>
      <trkpt lat="43.41044842265546321868896484375" lon="-5.2089965902268886566162109375">
        <ele>192</ele>
        <time>2019-07-11T17:01:35.000Z</time>
      </trkpt>
      <trkpt lat="43.41043241322040557861328125" lon="-5.208887793123722076416015625">
        <ele>191.1999969482421875</ele>
        <time>2019-07-11T17:01:36.000Z</time>
      </trkpt>
      <trkpt lat="43.41043551452457904815673828125" lon="-5.208762399852275848388671875">
        <ele>190.399993896484375</ele>
        <time>2019-07-11T17:01:37.000Z</time>
      </trkpt>
      <trkpt lat="43.4104490093886852264404296875" lon="-5.20862133242189884185791015625">
        <ele>189.600006103515625</ele>
        <time>2019-07-11T17:01:38.000Z</time>
      </trkpt>
      <trkpt lat="43.41046728193759918212890625" lon="-5.2083067595958709716796875">
        <ele>188.1999969482421875</ele>
        <time>2019-07-11T17:01:40.000Z</time>
      </trkpt>
      <trkpt lat="43.41046099551022052764892578125" lon="-5.20800299942493438720703125">
        <ele>186.8000030517578125</ele>
        <time>2019-07-11T17:01:42.000Z</time>
      </trkpt>
      <trkpt lat="43.410552106797695159912109375" lon="-5.20775866694748401641845703125">
        <ele>185.1999969482421875</ele>
        <time>2019-07-11T17:01:44.000Z</time>
      </trkpt>
      <trkpt lat="43.4106669388711452484130859375" lon="-5.2075347863137722015380859375">
        <ele>184</ele>
        <time>2019-07-11T17:01:46.000Z</time>
      </trkpt>
      <trkpt lat="43.41070155613124370574951171875" lon="-5.207392461597919464111328125">
        <ele>183</ele>
        <time>2019-07-11T17:01:47.000Z</time>
      </trkpt>
      <trkpt lat="43.41072234325110912322998046875" lon="-5.20722993649542331695556640625">
        <ele>181.600006103515625</ele>
        <time>2019-07-11T17:01:48.000Z</time>
      </trkpt>
      <trkpt lat="43.4107470698654651641845703125" lon="-5.20705752074718475341796875">
        <ele>180.600006103515625</ele>
        <time>2019-07-11T17:01:49.000Z</time>
      </trkpt>
      <trkpt lat="43.41078336350619792938232421875" lon="-5.206888206303119659423828125">
        <ele>179.8000030517578125</ele>
        <time>2019-07-11T17:01:50.000Z</time>
      </trkpt>
      <trkpt lat="43.41083918698132038116455078125" lon="-5.206731297075748443603515625">
        <ele>179.1999969482421875</ele>
        <time>2019-07-11T17:01:51.000Z</time>
      </trkpt>
      <trkpt lat="43.4109116904437541961669921875" lon="-5.2065913192927837371826171875">
        <ele>178.600006103515625</ele>
        <time>2019-07-11T17:01:52.000Z</time>
      </trkpt>
      <trkpt lat="43.41099056415259838104248046875" lon="-5.206459723412990570068359375">
        <ele>177.8000030517578125</ele>
        <time>2019-07-11T17:01:53.000Z</time>
      </trkpt>
      <trkpt lat="43.41106130741536617279052734375" lon="-5.20632527768611907958984375">
        <ele>177</ele>
        <time>2019-07-11T17:01:54.000Z</time>
      </trkpt>
      <trkpt lat="43.411124087870121002197265625" lon="-5.2061873115599155426025390625">
        <ele>176</ele>
        <time>2019-07-11T17:01:55.000Z</time>
      </trkpt>
      <trkpt lat="43.41118217445909976959228515625" lon="-5.20604859106242656707763671875">
        <ele>174.8000030517578125</ele>
        <time>2019-07-11T17:01:56.000Z</time>
      </trkpt>
      <trkpt lat="43.41122743673622608184814453125" lon="-5.205909200012683868408203125">
        <ele>173.600006103515625</ele>
        <time>2019-07-11T17:01:57.000Z</time>
      </trkpt>
      <trkpt lat="43.41125694103538990020751953125" lon="-5.20577047951519489288330078125">
        <ele>172.399993896484375</ele>
        <time>2019-07-11T17:01:58.000Z</time>
      </trkpt>
      <trkpt lat="43.41126599349081516265869140625" lon="-5.20563150756061077117919921875">
        <ele>171.600006103515625</ele>
        <time>2019-07-11T17:01:59.000Z</time>
      </trkpt>
      <trkpt lat="43.411250151693820953369140625" lon="-5.20549018867313861846923828125">
        <ele>171</ele>
        <time>2019-07-11T17:02:00.000Z</time>
      </trkpt>
      <trkpt lat="43.4112120978534221649169921875" lon="-5.20534627139568328857421875">
        <ele>170.399993896484375</ele>
        <time>2019-07-11T17:02:01.000Z</time>
      </trkpt>
      <trkpt lat="43.41115401126444339752197265625" lon="-5.2052012644708156585693359375">
        <ele>169.1999969482421875</ele>
        <time>2019-07-11T17:02:02.000Z</time>
      </trkpt>
      <trkpt lat="43.411083519458770751953125" lon="-5.20506061613559722900390625">
        <ele>168</ele>
        <time>2019-07-11T17:02:03.000Z</time>
      </trkpt>
      <trkpt lat="43.41100581921637058258056640625" lon="-5.20492591895163059234619140625">
        <ele>166.8000030517578125</ele>
        <time>2019-07-11T17:02:04.000Z</time>
      </trkpt>
      <trkpt lat="43.41092216782271862030029296875" lon="-5.20480739884078502655029296875">
        <ele>165.600006103515625</ele>
        <time>2019-07-11T17:02:05.000Z</time>
      </trkpt>
      <trkpt lat="43.41083952225744724273681640625" lon="-5.2047057263553142547607421875">
        <ele>164.1999969482421875</ele>
        <time>2019-07-11T17:02:06.000Z</time>
      </trkpt>
      <trkpt lat="43.4107698686420917510986328125" lon="-5.2046131901443004608154296875">
        <ele>163.399993896484375</ele>
        <time>2019-07-11T17:02:07.000Z</time>
      </trkpt>
      <trkpt lat="43.4107286296784877777099609375" lon="-5.20451637916266918182373046875">
        <ele>163</ele>
        <time>2019-07-11T17:02:08.000Z</time>
      </trkpt>
      <trkpt lat="43.41072267852723598480224609375" lon="-5.2044121921062469482421875">
        <ele>162.600006103515625</ele>
        <time>2019-07-11T17:02:09.000Z</time>
      </trkpt>
      <trkpt lat="43.4107490815222263336181640625" lon="-5.204189233481884002685546875">
        <ele>162</ele>
        <time>2019-07-11T17:02:11.000Z</time>
      </trkpt>
      <trkpt lat="43.410745561122894287109375" lon="-5.20406526513397693634033203125">
        <ele>162</ele>
        <time>2019-07-11T17:02:12.000Z</time>
      </trkpt>
      <trkpt lat="43.41072167269885540008544921875" lon="-5.20379126071929931640625">
        <ele>161.399993896484375</ele>
        <time>2019-07-11T17:02:14.000Z</time>
      </trkpt>
      <trkpt lat="43.41074178926646709442138671875" lon="-5.20365069620311260223388671875">
        <ele>160.399993896484375</ele>
        <time>2019-07-11T17:02:15.000Z</time>
      </trkpt>
      <trkpt lat="43.41078587807714939117431640625" lon="-5.203531086444854736328125">
        <ele>159.600006103515625</ele>
        <time>2019-07-11T17:02:16.000Z</time>
      </trkpt>
      <trkpt lat="43.41084354557096958160400390625" lon="-5.20342036150395870208740234375">
        <ele>159</ele>
        <time>2019-07-11T17:02:17.000Z</time>
      </trkpt>
      <trkpt lat="43.410904817283153533935546875" lon="-5.20330670289695262908935546875">
        <ele>158.399993896484375</ele>
        <time>2019-07-11T17:02:18.000Z</time>
      </trkpt>
      <trkpt lat="43.4109599702060222625732421875" lon="-5.2031855843961238861083984375">
        <ele>157.600006103515625</ele>
        <time>2019-07-11T17:02:19.000Z</time>
      </trkpt>
      <trkpt lat="43.41100447811186313629150390625" lon="-5.20306480117142200469970703125">
        <ele>156.600006103515625</ele>
        <time>2019-07-11T17:02:20.000Z</time>
      </trkpt>
      <trkpt lat="43.41103431768715381622314453125" lon="-5.20294628106057643890380859375">
        <ele>155.399993896484375</ele>
        <time>2019-07-11T17:02:21.000Z</time>
      </trkpt>
      <trkpt lat="43.41105007566511631011962890625" lon="-5.2028328739106655120849609375">
        <ele>154.399993896484375</ele>
        <time>2019-07-11T17:02:22.000Z</time>
      </trkpt>
      <trkpt lat="43.41104420833289623260498046875" lon="-5.2027242444455623626708984375">
        <ele>153.8000030517578125</ele>
        <time>2019-07-11T17:02:23.000Z</time>
      </trkpt>
      <trkpt lat="43.4110139496624469757080078125" lon="-5.20262391306459903717041015625">
        <ele>153.600006103515625</ele>
        <time>2019-07-11T17:02:24.000Z</time>
      </trkpt>
      <trkpt lat="43.4108603931963443756103515625" lon="-5.2023440413177013397216796875">
        <ele>152.8000030517578125</ele>
        <time>2019-07-11T17:02:27.000Z</time>
      </trkpt>
      <trkpt lat="43.41081856749951839447021484375" lon="-5.2021001279354095458984375">
        <ele>151.600006103515625</ele>
        <time>2019-07-11T17:02:29.000Z</time>
      </trkpt>
      <trkpt lat="43.41079677455127239227294921875" lon="-5.20183936692774295806884765625">
        <ele>150</ele>
        <time>2019-07-11T17:02:31.000Z</time>
      </trkpt>
      <trkpt lat="43.41071060858666896820068359375" lon="-5.20160350017249584197998046875">
        <ele>148.399993896484375</ele>
        <time>2019-07-11T17:02:33.000Z</time>
      </trkpt>
      <trkpt lat="43.41053274460136890411376953125" lon="-5.20143988542258739471435546875">
        <ele>147.399993896484375</ele>
        <time>2019-07-11T17:02:35.000Z</time>
      </trkpt>
      <trkpt lat="43.41042059473693370819091796875" lon="-5.20135941915214061737060546875">
        <ele>146.399993896484375</ele>
        <time>2019-07-11T17:02:36.000Z</time>
      </trkpt>
      <trkpt lat="43.410312049090862274169921875" lon="-5.201262272894382476806640625">
        <ele>145</ele>
        <time>2019-07-11T17:02:37.000Z</time>
      </trkpt>
      <trkpt lat="43.41021020896732807159423828125" lon="-5.20116076804697513580322265625">
        <ele>143.600006103515625</ele>
        <time>2019-07-11T17:02:38.000Z</time>
      </trkpt>
      <trkpt lat="43.41011381708085536956787109375" lon="-5.20107753574848175048828125">
        <ele>142.1999969482421875</ele>
        <time>2019-07-11T17:02:39.000Z</time>
      </trkpt>
      <trkpt lat="43.41000870801508426666259765625" lon="-5.2010299265384674072265625">
        <ele>141</ele>
        <time>2019-07-11T17:02:40.000Z</time>
      </trkpt>
      <trkpt lat="43.40988918207585811614990234375" lon="-5.20102481357753276824951171875">
        <ele>139.8000030517578125</ele>
        <time>2019-07-11T17:02:41.000Z</time>
      </trkpt>
      <trkpt lat="43.4096071310341358184814453125" lon="-5.20103788934648036956787109375">
        <ele>137.8000030517578125</ele>
        <time>2019-07-11T17:02:43.000Z</time>
      </trkpt>
      <trkpt lat="43.40945282019674777984619140625" lon="-5.201020874083042144775390625">
        <ele>136.600006103515625</ele>
        <time>2019-07-11T17:02:44.000Z</time>
      </trkpt>
      <trkpt lat="43.40930521488189697265625" lon="-5.201005451381206512451171875">
        <ele>135</ele>
        <time>2019-07-11T17:02:45.000Z</time>
      </trkpt>
      <trkpt lat="43.4091697633266448974609375" lon="-5.20097653381526470184326171875">
        <ele>133.1999969482421875</ele>
        <time>2019-07-11T17:02:46.000Z</time>
      </trkpt>
      <trkpt lat="43.40904613025486469268798828125" lon="-5.2009254880249500274658203125">
        <ele>131.399993896484375</ele>
        <time>2019-07-11T17:02:47.000Z</time>
      </trkpt>
      <trkpt lat="43.408932052552700042724609375" lon="-5.200851224362850189208984375">
        <ele>130</ele>
        <time>2019-07-11T17:02:48.000Z</time>
      </trkpt>
      <trkpt lat="43.40872577391564846038818359375" lon="-5.20064796321094036102294921875">
        <ele>128.1999969482421875</ele>
        <time>2019-07-11T17:02:50.000Z</time>
      </trkpt>
      <trkpt lat="43.40861521661281585693359375" lon="-5.2005493082106113433837890625">
        <ele>128</ele>
        <time>2019-07-11T17:02:51.000Z</time>
      </trkpt>
      <trkpt lat="43.408258147537708282470703125" lon="-5.200316123664379119873046875">
        <ele>126.40000152587890625</ele>
        <time>2019-07-11T17:02:54.000Z</time>
      </trkpt>
      <trkpt lat="43.408160246908664703369140625" lon="-5.20024001598358154296875">
        <ele>125.40000152587890625</ele>
        <time>2019-07-11T17:02:55.000Z</time>
      </trkpt>
      <trkpt lat="43.40800425969064235687255859375" lon="-5.200041197240352630615234375">
        <ele>124</ele>
        <time>2019-07-11T17:02:57.000Z</time>
      </trkpt>
      <trkpt lat="43.40781432576477527618408203125" lon="-5.19972813315689563751220703125">
        <ele>122.8000030517578125</ele>
        <time>2019-07-11T17:03:00.000Z</time>
      </trkpt>
      <trkpt lat="43.4075042791664600372314453125" lon="-5.19963190890848636627197265625">
        <ele>122.1999969482421875</ele>
        <time>2019-07-11T17:03:03.000Z</time>
      </trkpt>
      <trkpt lat="43.40738064609467983245849609375" lon="-5.1995783485472202301025390625">
        <ele>121.40000152587890625</ele>
        <time>2019-07-11T17:03:04.000Z</time>
      </trkpt>
      <trkpt lat="43.40725340880453586578369140625" lon="-5.19950651563704013824462890625">
        <ele>120.1999969482421875</ele>
        <time>2019-07-11T17:03:05.000Z</time>
      </trkpt>
      <trkpt lat="43.4071180410683155059814453125" lon="-5.19942797720432281494140625">
        <ele>118.59999847412109375</ele>
        <time>2019-07-11T17:03:06.000Z</time>
      </trkpt>
      <trkpt lat="43.40697848238050937652587890625" lon="-5.19934759475290775299072265625">
        <ele>116.8000030517578125</ele>
        <time>2019-07-11T17:03:07.000Z</time>
      </trkpt>
      <trkpt lat="43.40684118680655956268310546875" lon="-5.19926561973989009857177734375">
        <ele>114.8000030517578125</ele>
        <time>2019-07-11T17:03:08.000Z</time>
      </trkpt>
      <trkpt lat="43.40670556761324405670166015625" lon="-5.1991860754787921905517578125">
        <ele>113</ele>
        <time>2019-07-11T17:03:09.000Z</time>
      </trkpt>
      <trkpt lat="43.40644639916718006134033203125" lon="-5.1989882625639438629150390625">
        <ele>111.1999969482421875</ele>
        <time>2019-07-11T17:03:11.000Z</time>
      </trkpt>
      <trkpt lat="43.40618236921727657318115234375" lon="-5.19871291704475879669189453125">
        <ele>109.40000152587890625</ele>
        <time>2019-07-11T17:03:13.000Z</time>
      </trkpt>
      <trkpt lat="43.40604473836719989776611328125" lon="-5.19856723956763744354248046875">
        <ele>108.40000152587890625</ele>
        <time>2019-07-11T17:03:14.000Z</time>
      </trkpt>
      <trkpt lat="43.40576662681996822357177734375" lon="-5.1982764713466167449951171875">
        <ele>106.40000152587890625</ele>
        <time>2019-07-11T17:03:16.000Z</time>
      </trkpt>
      <trkpt lat="43.40548549778759479522705078125" lon="-5.19797463901340961456298828125">
        <ele>104.59999847412109375</ele>
        <time>2019-07-11T17:03:18.000Z</time>
      </trkpt>
      <trkpt lat="43.4051979146897792816162109375" lon="-5.19766031764447689056396484375">
        <ele>101.8000030517578125</ele>
        <time>2019-07-11T17:03:20.000Z</time>
      </trkpt>
      <trkpt lat="43.405049555003643035888671875" lon="-5.1975026540458202362060546875">
        <ele>100.1999969482421875</ele>
        <time>2019-07-11T17:03:21.000Z</time>
      </trkpt>
      <trkpt lat="43.4049011953175067901611328125" lon="-5.1973423920571804046630859375">
        <ele>98.1999969482421875</ele>
        <time>2019-07-11T17:03:22.000Z</time>
      </trkpt>
      <trkpt lat="43.4047576971352100372314453125" lon="-5.1971831358969211578369140625">
        <ele>96.1999969482421875</ele>
        <time>2019-07-11T17:03:23.000Z</time>
      </trkpt>
      <trkpt lat="43.4046242572367191314697265625" lon="-5.197027064859867095947265625">
        <ele>94.1999969482421875</ele>
        <time>2019-07-11T17:03:24.000Z</time>
      </trkpt>
      <trkpt lat="43.40449961833655834197998046875" lon="-5.19687007181346416473388671875">
        <ele>92.1999969482421875</ele>
        <time>2019-07-11T17:03:25.000Z</time>
      </trkpt>
      <trkpt lat="43.40438880957663059234619140625" lon="-5.19669673405587673187255859375">
        <ele>91</ele>
        <time>2019-07-11T17:03:26.000Z</time>
      </trkpt>
      <trkpt lat="43.4042919985949993133544921875" lon="-5.19649766385555267333984375">
        <ele>90</ele>
        <time>2019-07-11T17:03:27.000Z</time>
      </trkpt>
      <trkpt lat="43.40420289896428585052490234375" lon="-5.1962805725634098052978515625">
        <ele>88.8000030517578125</ele>
        <time>2019-07-11T17:03:28.000Z</time>
      </trkpt>
      <trkpt lat="43.40403341688215732574462890625" lon="-5.19583574496209621429443359375">
        <ele>87.59999847412109375</ele>
        <time>2019-07-11T17:03:30.000Z</time>
      </trkpt>
      <trkpt lat="43.403802998363971710205078125" lon="-5.19518983550369739532470703125">
        <ele>86.40000152587890625</ele>
        <time>2019-07-11T17:03:33.000Z</time>
      </trkpt>
      <trkpt lat="43.4036056883633136749267578125" lon="-5.19461684860289096832275390625">
        <ele>88</ele>
        <time>2019-07-11T17:03:36.000Z</time>
      </trkpt>
      <trkpt lat="43.40353921987116336822509765625" lon="-5.1944586820900440216064453125">
        <ele>89.1999969482421875</ele>
        <time>2019-07-11T17:03:37.000Z</time>
      </trkpt>
      <trkpt lat="43.40337258763611316680908203125" lon="-5.19423647783696651458740234375">
        <ele>90.8000030517578125</ele>
        <time>2019-07-11T17:03:39.000Z</time>
      </trkpt>
      <trkpt lat="43.4031416662037372589111328125" lon="-5.19412348978221416473388671875">
        <ele>92.1999969482421875</ele>
        <time>2019-07-11T17:03:41.000Z</time>
      </trkpt>
      <trkpt lat="43.4025807492434978485107421875" lon="-5.19387287087738513946533203125">
        <ele>92.59999847412109375</ele>
        <time>2019-07-11T17:03:45.000Z</time>
      </trkpt>
      <trkpt lat="43.40226165018975734710693359375" lon="-5.1936645805835723876953125">
        <ele>90.40000152587890625</ele>
        <time>2019-07-11T17:03:47.000Z</time>
      </trkpt>
      <trkpt lat="43.40207942761480808258056640625" lon="-5.19356206990778446197509765625">
        <ele>89</ele>
        <time>2019-07-11T17:03:48.000Z</time>
      </trkpt>
      <trkpt lat="43.4018977917730808258056640625" lon="-5.19346408545970916748046875">
        <ele>87.59999847412109375</ele>
        <time>2019-07-11T17:03:49.000Z</time>
      </trkpt>
      <trkpt lat="43.4017257951200008392333984375" lon="-5.1933727227151393890380859375">
        <ele>86</ele>
        <time>2019-07-11T17:03:50.000Z</time>
      </trkpt>
      <trkpt lat="43.4015588276088237762451171875" lon="-5.19329602830111980438232421875">
        <ele>84.59999847412109375</ele>
        <time>2019-07-11T17:03:51.000Z</time>
      </trkpt>
      <trkpt lat="43.401248864829540252685546875" lon="-5.19317616708576679229736328125">
        <ele>83.40000152587890625</ele>
        <time>2019-07-11T17:03:53.000Z</time>
      </trkpt>
      <trkpt lat="43.40085717849433422088623046875" lon="-5.19303166307508945465087890625">
        <ele>85.8000030517578125</ele>
        <time>2019-07-11T17:03:56.000Z</time>
      </trkpt>
      <trkpt lat="43.40077335946261882781982421875" lon="-5.19295304082334041595458984375">
        <ele>87</ele>
        <time>2019-07-11T17:03:57.000Z</time>
      </trkpt>
      <trkpt lat="43.4007239900529384613037109375" lon="-5.1928491890430450439453125">
        <ele>88.40000152587890625</ele>
        <time>2019-07-11T17:03:58.000Z</time>
      </trkpt>
      <trkpt lat="43.400690965354442596435546875" lon="-5.192734859883785247802734375">
        <ele>89.8000030517578125</ele>
        <time>2019-07-11T17:03:59.000Z</time>
      </trkpt>
      <trkpt lat="43.40064930729568004608154296875" lon="-5.1926274038851261138916015625">
        <ele>91</ele>
        <time>2019-07-11T17:04:00.000Z</time>
      </trkpt>
      <trkpt lat="43.40051301755011081695556640625" lon="-5.19249673001468181610107421875">
        <ele>92</ele>
        <time>2019-07-11T17:04:02.000Z</time>
      </trkpt>
      <trkpt lat="43.400322161614894866943359375" lon="-5.19254668615758419036865234375">
        <ele>91.59999847412109375</ele>
        <time>2019-07-11T17:04:04.000Z</time>
      </trkpt>
      <trkpt lat="43.39996643364429473876953125" lon="-5.19281457178294658660888671875">
        <ele>90.40000152587890625</ele>
        <time>2019-07-11T17:04:07.000Z</time>
      </trkpt>
      <trkpt lat="43.399690501391887664794921875" lon="-5.1929241232573986053466796875">
        <ele>89.59999847412109375</ele>
        <time>2019-07-11T17:04:09.000Z</time>
      </trkpt>
      <trkpt lat="43.39955069124698638916015625" lon="-5.192958153784275054931640625">
        <ele>88.59999847412109375</ele>
        <time>2019-07-11T17:04:10.000Z</time>
      </trkpt>
      <trkpt lat="43.3994110487401485443115234375" lon="-5.1929918490350246429443359375">
        <ele>87.40000152587890625</ele>
        <time>2019-07-11T17:04:11.000Z</time>
      </trkpt>
      <trkpt lat="43.39927534572780132293701171875" lon="-5.193027555942535400390625">
        <ele>86.40000152587890625</ele>
        <time>2019-07-11T17:04:12.000Z</time>
      </trkpt>
      <trkpt lat="43.39901617728173732757568359375" lon="-5.19307793118059635162353515625">
        <ele>85.1999969482421875</ele>
        <time>2019-07-11T17:04:14.000Z</time>
      </trkpt>
      <trkpt lat="43.3987757004797458648681640625" lon="-5.19302478991448879241943359375">
        <ele>84.8000030517578125</ele>
        <time>2019-07-11T17:04:16.000Z</time>
      </trkpt>
      <trkpt lat="43.3984816633164882659912109375" lon="-5.19273930229246616363525390625">
        <ele>83.59999847412109375</ele>
        <time>2019-07-11T17:04:19.000Z</time>
      </trkpt>
      <trkpt lat="43.3983767218887805938720703125" lon="-5.1926579140126705169677734375">
        <ele>82.59999847412109375</ele>
        <time>2019-07-11T17:04:20.000Z</time>
      </trkpt>
      <trkpt lat="43.39826524257659912109375" lon="-5.19261625595390796661376953125">
        <ele>81.40000152587890625</ele>
        <time>2019-07-11T17:04:21.000Z</time>
      </trkpt>
      <trkpt lat="43.398150913417339324951171875" lon="-5.1926176808774471282958984375">
        <ele>80.1999969482421875</ele>
        <time>2019-07-11T17:04:22.000Z</time>
      </trkpt>
      <trkpt lat="43.3979163877665996551513671875" lon="-5.19266688264906406402587890625">
        <ele>78.59999847412109375</ele>
        <time>2019-07-11T17:04:24.000Z</time>
      </trkpt>
      <trkpt lat="43.39764992706477642059326171875" lon="-5.19260988570749759674072265625">
        <ele>77.1999969482421875</ele>
        <time>2019-07-11T17:04:26.000Z</time>
      </trkpt>
      <trkpt lat="43.3973769284784793853759765625" lon="-5.1924778707325458526611328125">
        <ele>75.40000152587890625</ele>
        <time>2019-07-11T17:04:28.000Z</time>
      </trkpt>
      <trkpt lat="43.3972448296844959259033203125" lon="-5.19241190515458583831787109375">
        <ele>73.8000030517578125</ele>
        <time>2019-07-11T17:04:29.000Z</time>
      </trkpt>
      <trkpt lat="43.39711113832890987396240234375" lon="-5.19235901534557342529296875">
        <ele>72</ele>
        <time>2019-07-11T17:04:30.000Z</time>
      </trkpt>
      <trkpt lat="43.39697577059268951416015625" lon="-5.192326493561267852783203125">
        <ele>70.8000030517578125</ele>
        <time>2019-07-11T17:04:31.000Z</time>
      </trkpt>
      <trkpt lat="43.3967013470828533172607421875" lon="-5.1923316903412342071533203125">
        <ele>69.59999847412109375</ele>
        <time>2019-07-11T17:04:33.000Z</time>
      </trkpt>
      <trkpt lat="43.39643304236233234405517578125" lon="-5.19232925958931446075439453125">
        <ele>67.59999847412109375</ele>
        <time>2019-07-11T17:04:35.000Z</time>
      </trkpt>
      <trkpt lat="43.39630412869155406951904296875" lon="-5.1923068799078464508056640625">
        <ele>66.59999847412109375</ele>
        <time>2019-07-11T17:04:36.000Z</time>
      </trkpt>
      <trkpt lat="43.396046049892902374267578125" lon="-5.19223638810217380523681640625">
        <ele>64.59999847412109375</ele>
        <time>2019-07-11T17:04:38.000Z</time>
      </trkpt>
      <trkpt lat="43.39579702354967594146728515625" lon="-5.192160867154598236083984375">
        <ele>63.200000762939453125</ele>
        <time>2019-07-11T17:04:40.000Z</time>
      </trkpt>
      <trkpt lat="43.39555193670094013214111328125" lon="-5.19208484329283237457275390625">
        <ele>62</ele>
        <time>2019-07-11T17:04:42.000Z</time>
      </trkpt>
      <trkpt lat="43.395311124622821807861328125" lon="-5.1920081488788127899169921875">
        <ele>60</ele>
        <time>2019-07-11T17:04:44.000Z</time>
      </trkpt>
      <trkpt lat="43.39507944881916046142578125" lon="-5.19193866290152072906494140625">
        <ele>58.200000762939453125</ele>
        <time>2019-07-11T17:04:46.000Z</time>
      </trkpt>
      <trkpt lat="43.39485472999513149261474609375" lon="-5.19187412224709987640380859375">
        <ele>56.799999237060546875</ele>
        <time>2019-07-11T17:04:48.000Z</time>
      </trkpt>
      <trkpt lat="43.39451006613671779632568359375" lon="-5.191780664026737213134765625">
        <ele>55.40000152587890625</ele>
        <time>2019-07-11T17:04:51.000Z</time>
      </trkpt>
      <trkpt lat="43.39439791627228260040283203125" lon="-5.1917352341115474700927734375">
        <ele>54.799999237060546875</ele>
        <time>2019-07-11T17:04:52.000Z</time>
      </trkpt>
      <trkpt lat="43.3941918052732944488525390625" lon="-5.19156818278133869171142578125">
        <ele>54.799999237060546875</ele>
        <time>2019-07-11T17:04:54.000Z</time>
      </trkpt>
      <trkpt lat="43.394017629325389862060546875" lon="-5.191301219165325164794921875">
        <ele>54.40000152587890625</ele>
        <time>2019-07-11T17:04:56.000Z</time>
      </trkpt>
      <trkpt lat="43.3937046490609645843505859375" lon="-5.19067249260842800140380859375">
        <ele>54</ele>
        <time>2019-07-11T17:05:00.000Z</time>
      </trkpt>
      <trkpt lat="43.39355268515646457672119140625" lon="-5.19035481847822666168212890625">
        <ele>53</ele>
        <time>2019-07-11T17:05:02.000Z</time>
      </trkpt>
      <trkpt lat="43.39331782422959804534912109375" lon="-5.18988274969160556793212890625">
        <ele>51.200000762939453125</ele>
        <time>2019-07-11T17:05:05.000Z</time>
      </trkpt>
      <trkpt lat="43.3931514434516429901123046875" lon="-5.18957630731165409088134765625">
        <ele>49.799999237060546875</ele>
        <time>2019-07-11T17:05:07.000Z</time>
      </trkpt>
      <trkpt lat="43.3927906863391399383544921875" lon="-5.18900231458246707916259765625">
        <ele>48.799999237060546875</ele>
        <time>2019-07-11T17:05:11.000Z</time>
      </trkpt>
      <trkpt lat="43.39239967055618762969970703125" lon="-5.18858640454709529876708984375">
        <ele>47.799999237060546875</ele>
        <time>2019-07-11T17:05:15.000Z</time>
      </trkpt>
      <trkpt lat="43.39228902943432331085205078125" lon="-5.18852773122489452362060546875">
        <ele>47.799999237060546875</ele>
        <time>2019-07-11T17:05:16.000Z</time>
      </trkpt>
      <trkpt lat="43.3918150328099727630615234375" lon="-5.1883623562753200531005859375">
        <ele>48.40000152587890625</ele>
        <time>2019-07-11T17:05:20.000Z</time>
      </trkpt>
      <trkpt lat="43.39137665927410125732421875" lon="-5.1882027648389339447021484375">
        <ele>48.200000762939453125</ele>
        <time>2019-07-11T17:05:24.000Z</time>
      </trkpt>
      <trkpt lat="43.39129040949046611785888671875" lon="-5.188151299953460693359375">
        <ele>48</ele>
        <time>2019-07-11T17:05:25.000Z</time>
      </trkpt>
      <trkpt lat="43.39116367511451244354248046875" lon="-5.1879885233938694000244140625">
        <ele>47.799999237060546875</ele>
        <time>2019-07-11T17:05:27.000Z</time>
      </trkpt>
      <trkpt lat="43.3909573964774608612060546875" lon="-5.18742584623396396636962890625">
        <ele>48</ele>
        <time>2019-07-11T17:05:32.000Z</time>
      </trkpt>
      <trkpt lat="43.39070384390652179718017578125" lon="-5.1869089342653751373291015625">
        <ele>48.59999847412109375</ele>
        <time>2019-07-11T17:05:37.000Z</time>
      </trkpt>
      <trkpt lat="43.39039857499301433563232421875" lon="-5.18634139560163021087646484375">
        <ele>48.200000762939453125</ele>
        <time>2019-07-11T17:05:43.000Z</time>
      </trkpt>
      <trkpt lat="43.3902878500521183013916015625" lon="-5.1861304230988025665283203125">
        <ele>49</ele>
        <time>2019-07-11T17:05:46.000Z</time>
      </trkpt>
      <trkpt lat="43.3902047015726566314697265625" lon="-5.18597359769046306610107421875">
        <ele>50.200000762939453125</ele>
        <time>2019-07-11T17:05:49.000Z</time>
      </trkpt>
      <trkpt lat="43.39013018645346164703369140625" lon="-5.185858346521854400634765625">
        <ele>50.799999237060546875</ele>
        <time>2019-07-11T17:06:31.000Z</time>
      </trkpt>
      <trkpt lat="43.39025239460170269012451171875" lon="-5.18524286337196826934814453125">
        <ele>49.59999847412109375</ele>
        <time>2019-07-11T17:07:13.000Z</time>
      </trkpt>
      <trkpt lat="43.390271924436092376708984375" lon="-5.1845727302134037017822265625">
        <ele>50.59999847412109375</ele>
        <time>2019-07-11T17:07:26.000Z</time>
      </trkpt>
      <trkpt lat="43.39024099521338939666748046875" lon="-5.1844094507396221160888671875">
        <ele>50.200000762939453125</ele>
        <time>2019-07-11T17:07:28.000Z</time>
      </trkpt>
      <trkpt lat="43.39016790501773357391357421875" lon="-5.18418054096400737762451171875">
        <ele>50.200000762939453125</ele>
        <time>2019-07-11T17:07:31.000Z</time>
      </trkpt>
      <trkpt lat="43.38996372185647487640380859375" lon="-5.1838411577045917510986328125">
        <ele>50.40000152587890625</ele>
        <time>2019-07-11T17:07:36.000Z</time>
      </trkpt>
      <trkpt lat="43.38973514735698699951171875" lon="-5.18360017798840999603271484375">
        <ele>51.40000152587890625</ele>
        <time>2019-07-11T17:07:40.000Z</time>
      </trkpt>
      <trkpt lat="43.38936173357069492340087890625" lon="-5.18324847333133220672607421875">
        <ele>51.799999237060546875</ele>
        <time>2019-07-11T17:07:46.000Z</time>
      </trkpt>
      <trkpt lat="43.3889584802091121673583984375" lon="-5.182856284081935882568359375">
        <ele>51.799999237060546875</ele>
        <time>2019-07-11T17:07:51.000Z</time>
      </trkpt>
      <trkpt lat="43.38868682272732257843017578125" lon="-5.1825761608779430389404296875">
        <ele>49.799999237060546875</ele>
        <time>2019-07-11T17:07:54.000Z</time>
      </trkpt>
      <trkpt lat="43.38851398788392543792724609375" lon="-5.18235043622553348541259765625">
        <ele>48.59999847412109375</ele>
        <time>2019-07-11T17:07:56.000Z</time>
      </trkpt>
      <trkpt lat="43.38838398456573486328125" lon="-5.1820776052772998809814453125">
        <ele>47.799999237060546875</ele>
        <time>2019-07-11T17:07:58.000Z</time>
      </trkpt>
      <trkpt lat="43.38833729736506938934326171875" lon="-5.18191725946962833404541015625">
        <ele>47.59999847412109375</ele>
        <time>2019-07-11T17:07:59.000Z</time>
      </trkpt>
      <trkpt lat="43.3883048593997955322265625" lon="-5.1817393116652965545654296875">
        <ele>47.200000762939453125</ele>
        <time>2019-07-11T17:08:00.000Z</time>
      </trkpt>
      <trkpt lat="43.3882946334779262542724609375" lon="-5.181354247033596038818359375">
        <ele>45.59999847412109375</ele>
        <time>2019-07-11T17:08:02.000Z</time>
      </trkpt>
      <trkpt lat="43.38836579583585262298583984375" lon="-5.180995501577854156494140625">
        <ele>44.40000152587890625</ele>
        <time>2019-07-11T17:08:04.000Z</time>
      </trkpt>
      <trkpt lat="43.388612978160381317138671875" lon="-5.18038923852145671844482421875">
        <ele>44.799999237060546875</ele>
        <time>2019-07-11T17:08:08.000Z</time>
      </trkpt>
      <trkpt lat="43.388670645654201507568359375" lon="-5.18025563098490238189697265625">
        <ele>45.799999237060546875</ele>
        <time>2019-07-11T17:08:09.000Z</time>
      </trkpt>
      <trkpt lat="43.3887177519500255584716796875" lon="-5.18012546002864837646484375">
        <ele>46.799999237060546875</ele>
        <time>2019-07-11T17:08:10.000Z</time>
      </trkpt>
      <trkpt lat="43.38874365203082561492919921875" lon="-5.17999595962464809417724609375">
        <ele>48</ele>
        <time>2019-07-11T17:08:11.000Z</time>
      </trkpt>
      <trkpt lat="43.3887442387640476226806640625" lon="-5.17986956052482128143310546875">
        <ele>49.200000762939453125</ele>
        <time>2019-07-11T17:08:12.000Z</time>
      </trkpt>
      <trkpt lat="43.38872035034000873565673828125" lon="-5.17974592745304107666015625">
        <ele>50.40000152587890625</ele>
        <time>2019-07-11T17:08:13.000Z</time>
      </trkpt>
      <trkpt lat="43.388678021728992462158203125" lon="-5.17962832935154438018798828125">
        <ele>51.200000762939453125</ele>
        <time>2019-07-11T17:08:14.000Z</time>
      </trkpt>
      <trkpt lat="43.38861540891230106353759765625" lon="-5.17952263355255126953125">
        <ele>52</ele>
        <time>2019-07-11T17:08:15.000Z</time>
      </trkpt>
      <trkpt lat="43.388531506061553955078125" lon="-5.1794322766363620758056640625">
        <ele>52.40000152587890625</ele>
        <time>2019-07-11T17:08:16.000Z</time>
      </trkpt>
      <trkpt lat="43.38822229765355587005615234375" lon="-5.17916749231517314910888671875">
        <ele>53</ele>
        <time>2019-07-11T17:08:19.000Z</time>
      </trkpt>
      <trkpt lat="43.38802523910999298095703125" lon="-5.1789072342216968536376953125">
        <ele>52.799999237060546875</ele>
        <time>2019-07-11T17:08:21.000Z</time>
      </trkpt>
      <trkpt lat="43.387784846127033233642578125" lon="-5.17837573774158954620361328125">
        <ele>52</ele>
        <time>2019-07-11T17:08:24.000Z</time>
      </trkpt>
      <trkpt lat="43.387620560824871063232421875" lon="-5.17794591374695301055908203125">
        <ele>50.799999237060546875</ele>
        <time>2019-07-11T17:08:26.000Z</time>
      </trkpt>
      <trkpt lat="43.3874587900936603546142578125" lon="-5.17751005478203296661376953125">
        <ele>49.59999847412109375</ele>
        <time>2019-07-11T17:08:28.000Z</time>
      </trkpt>
      <trkpt lat="43.3873800002038478851318359375" lon="-5.17729463987052440643310546875">
        <ele>48.40000152587890625</ele>
        <time>2019-07-11T17:08:29.000Z</time>
      </trkpt>
      <trkpt lat="43.387298695743083953857421875" lon="-5.17707771621644496917724609375">
        <ele>47</ele>
        <time>2019-07-11T17:08:30.000Z</time>
      </trkpt>
      <trkpt lat="43.3871141262352466583251953125" lon="-5.17665459774434566497802734375">
        <ele>46</ele>
        <time>2019-07-11T17:08:32.000Z</time>
      </trkpt>
      <trkpt lat="43.38699996471405029296875" lon="-5.1764597184956073760986328125">
        <ele>45.799999237060546875</ele>
        <time>2019-07-11T17:08:33.000Z</time>
      </trkpt>
      <trkpt lat="43.3867143094539642333984375" lon="-5.17614078707993030548095703125">
        <ele>45.200000762939453125</ele>
        <time>2019-07-11T17:08:35.000Z</time>
      </trkpt>
      <trkpt lat="43.38654742576181888580322265625" lon="-5.17603064887225627899169921875">
        <ele>44.799999237060546875</ele>
        <time>2019-07-11T17:08:36.000Z</time>
      </trkpt>
      <trkpt lat="43.3860378898680210113525390625" lon="-5.175775922834873199462890625">
        <ele>44.40000152587890625</ele>
        <time>2019-07-11T17:08:39.000Z</time>
      </trkpt>
      <trkpt lat="43.38560781441628932952880859375" lon="-5.17538557760417461395263671875">
        <ele>46</ele>
        <time>2019-07-11T17:08:42.000Z</time>
      </trkpt>
      <trkpt lat="43.38534864597022533416748046875" lon="-5.175069831311702728271484375">
        <ele>48.40000152587890625</ele>
        <time>2019-07-11T17:08:44.000Z</time>
      </trkpt>
      <trkpt lat="43.3852261863648891448974609375" lon="-5.17491401173174381256103515625">
        <ele>50.59999847412109375</ele>
        <time>2019-07-11T17:08:45.000Z</time>
      </trkpt>
      <trkpt lat="43.38500238955020904541015625" lon="-5.1746254228055477142333984375">
        <ele>53.40000152587890625</ele>
        <time>2019-07-11T17:08:47.000Z</time>
      </trkpt>
      <trkpt lat="43.3849039860069751739501953125" lon="-5.17449240200221538543701171875">
        <ele>54.799999237060546875</ele>
        <time>2019-07-11T17:08:48.000Z</time>
      </trkpt>
      <trkpt lat="43.38481019251048564910888671875" lon="-5.17436784692108631134033203125">
        <ele>56</ele>
        <time>2019-07-11T17:08:49.000Z</time>
      </trkpt>
      <trkpt lat="43.3846253715455532073974609375" lon="-5.17413801513612270355224609375">
        <ele>57.40000152587890625</ele>
        <time>2019-07-11T17:08:51.000Z</time>
      </trkpt>
      <trkpt lat="43.384237624704837799072265625" lon="-5.173640549182891845703125">
        <ele>57.799999237060546875</ele>
        <time>2019-07-11T17:08:55.000Z</time>
      </trkpt>
      <trkpt lat="43.38381459005177021026611328125" lon="-5.17308625392615795135498046875">
        <ele>57</ele>
        <time>2019-07-11T17:08:59.000Z</time>
      </trkpt>
      <trkpt lat="43.383483923971652984619140625" lon="-5.17265659756958484649658203125">
        <ele>58.59999847412109375</ele>
        <time>2019-07-11T17:09:02.000Z</time>
      </trkpt>
      <trkpt lat="43.38314093649387359619140625" lon="-5.17222576774656772613525390625">
        <ele>58.40000152587890625</ele>
        <time>2019-07-11T17:09:05.000Z</time>
      </trkpt>
      <trkpt lat="43.38291135616600513458251953125" lon="-5.1719281263649463653564453125">
        <ele>60.40000152587890625</ele>
        <time>2019-07-11T17:09:07.000Z</time>
      </trkpt>
      <trkpt lat="43.38267649523913860321044921875" lon="-5.17162344418466091156005859375">
        <ele>62</ele>
        <time>2019-07-11T17:09:09.000Z</time>
      </trkpt>
      <trkpt lat="43.3823149837553501129150390625" lon="-5.17113528214395046234130859375">
        <ele>62.59999847412109375</ele>
        <time>2019-07-11T17:09:12.000Z</time>
      </trkpt>
      <trkpt lat="43.381953053176403045654296875" lon="-5.17056548036634922027587890625">
        <ele>62.200000762939453125</ele>
        <time>2019-07-11T17:09:15.000Z</time>
      </trkpt>
      <trkpt lat="43.38161987252533435821533203125" lon="-5.16997489146888256072998046875">
        <ele>61.59999847412109375</ele>
        <time>2019-07-11T17:09:18.000Z</time>
      </trkpt>
      <trkpt lat="43.38140747509896755218505859375" lon="-5.16962285153567790985107421875">
        <ele>64.1999969482421875</ele>
        <time>2019-07-11T17:09:20.000Z</time>
      </trkpt>
      <trkpt lat="43.381293229758739471435546875" lon="-5.1694683730602264404296875">
        <ele>65.59999847412109375</ele>
        <time>2019-07-11T17:09:21.000Z</time>
      </trkpt>
      <trkpt lat="43.38117026723921298980712890625" lon="-5.16931959427893161773681640625">
        <ele>65.40000152587890625</ele>
        <time>2019-07-11T17:09:22.000Z</time>
      </trkpt>
      <trkpt lat="43.38103297166526317596435546875" lon="-5.16917961649596691131591796875">
        <ele>64.1999969482421875</ele>
        <time>2019-07-11T17:09:23.000Z</time>
      </trkpt>
      <trkpt lat="43.380719907581806182861328125" lon="-5.16892053186893463134765625">
        <ele>62</ele>
        <time>2019-07-11T17:09:25.000Z</time>
      </trkpt>
      <trkpt lat="43.38055838830769062042236328125" lon="-5.16879354603588581085205078125">
        <ele>59</ele>
        <time>2019-07-11T17:09:26.000Z</time>
      </trkpt>
      <trkpt lat="43.38040416128933429718017578125" lon="-5.1686695776879787445068359375">
        <ele>57.59999847412109375</ele>
        <time>2019-07-11T17:09:27.000Z</time>
      </trkpt>
      <trkpt lat="43.379991017282009124755859375" lon="-5.16833673231303691864013671875">
        <ele>61.200000762939453125</ele>
        <time>2019-07-11T17:09:30.000Z</time>
      </trkpt>
      <trkpt lat="43.379873670637607574462890625" lon="-5.168222822248935699462890625">
        <ele>64.40000152587890625</ele>
        <time>2019-07-11T17:09:31.000Z</time>
      </trkpt>
      <trkpt lat="43.37976939976215362548828125" lon="-5.168102122843265533447265625">
        <ele>66.40000152587890625</ele>
        <time>2019-07-11T17:09:32.000Z</time>
      </trkpt>
      <trkpt lat="43.379672504961490631103515625" lon="-5.167976059019565582275390625">
        <ele>68</ele>
        <time>2019-07-11T17:09:33.000Z</time>
      </trkpt>
      <trkpt lat="43.3795127458870410919189453125" lon="-5.16769610345363616943359375">
        <ele>69.40000152587890625</ele>
        <time>2019-07-11T17:09:35.000Z</time>
      </trkpt>
      <trkpt lat="43.379267156124114990234375" lon="-5.16711314208805561065673828125">
        <ele>70.59999847412109375</ele>
        <time>2019-07-11T17:09:39.000Z</time>
      </trkpt>
      <trkpt lat="43.37900773622095584869384765625" lon="-5.1665395684540271759033203125">
        <ele>71.40000152587890625</ele>
        <time>2019-07-11T17:09:43.000Z</time>
      </trkpt>
      <trkpt lat="43.37880187667906284332275390625" lon="-5.16626606695353984832763671875">
        <ele>69.59999847412109375</ele>
        <time>2019-07-11T17:09:45.000Z</time>
      </trkpt>
      <trkpt lat="43.3786705322563648223876953125" lon="-5.16614285297691822052001953125">
        <ele>67.59999847412109375</ele>
        <time>2019-07-11T17:09:46.000Z</time>
      </trkpt>
      <trkpt lat="43.37852326221764087677001953125" lon="-5.1660309545695781707763671875">
        <ele>65.40000152587890625</ele>
        <time>2019-07-11T17:09:47.000Z</time>
      </trkpt>
      <trkpt lat="43.37836115621030330657958984375" lon="-5.16592794097959995269775390625">
        <ele>63.59999847412109375</ele>
        <time>2019-07-11T17:09:48.000Z</time>
      </trkpt>
      <trkpt lat="43.37818865664303302764892578125" lon="-5.165826268494129180908203125">
        <ele>62.59999847412109375</ele>
        <time>2019-07-11T17:09:49.000Z</time>
      </trkpt>
      <trkpt lat="43.37765338830649852752685546875" lon="-5.16551119275391101837158203125">
        <ele>62.200000762939453125</ele>
        <time>2019-07-11T17:09:52.000Z</time>
      </trkpt>
      <trkpt lat="43.37734158150851726531982421875" lon="-5.1652547903358936309814453125">
        <ele>62.59999847412109375</ele>
        <time>2019-07-11T17:09:54.000Z</time>
      </trkpt>
      <trkpt lat="43.37707973085343837738037109375" lon="-5.16492010094225406646728515625">
        <ele>63.59999847412109375</ele>
        <time>2019-07-11T17:09:56.000Z</time>
      </trkpt>
      <trkpt lat="43.37696783244609832763671875" lon="-5.16472362913191318511962890625">
        <ele>64.8000030517578125</ele>
        <time>2019-07-11T17:09:57.000Z</time>
      </trkpt>
      <trkpt lat="43.376869596540927886962890625" lon="-5.16451056115329265594482421875">
        <ele>65.8000030517578125</ele>
        <time>2019-07-11T17:09:58.000Z</time>
      </trkpt>
      <trkpt lat="43.3766374178230762481689453125" lon="-5.1638110913336277008056640625">
        <ele>66</ele>
        <time>2019-07-11T17:10:01.000Z</time>
      </trkpt>
      <trkpt lat="43.37649517692625522613525390625" lon="-5.16334128566086292266845703125">
        <ele>63.40000152587890625</ele>
        <time>2019-07-11T17:10:03.000Z</time>
      </trkpt>
      <trkpt lat="43.3764218352735042572021484375" lon="-5.16310491599142551422119140625">
        <ele>62</ele>
        <time>2019-07-11T17:10:04.000Z</time>
      </trkpt>
      <trkpt lat="43.37634631432592868804931640625" lon="-5.162870474159717559814453125">
        <ele>61</ele>
        <time>2019-07-11T17:10:05.000Z</time>
      </trkpt>
      <trkpt lat="43.37618236429989337921142578125" lon="-5.1624411530792713165283203125">
        <ele>60</ele>
        <time>2019-07-11T17:10:07.000Z</time>
      </trkpt>
      <trkpt lat="43.37590492330491542816162109375" lon="-5.16191418282687664031982421875">
        <ele>60.40000152587890625</ele>
        <time>2019-07-11T17:10:10.000Z</time>
      </trkpt>
      <trkpt lat="43.375802077353000640869140625" lon="-5.1617618836462497711181640625">
        <ele>61</ele>
        <time>2019-07-11T17:10:11.000Z</time>
      </trkpt>
      <trkpt lat="43.37558054365217685699462890625" lon="-5.161464996635913848876953125">
        <ele>62.59999847412109375</ele>
        <time>2019-07-11T17:10:13.000Z</time>
      </trkpt>
      <trkpt lat="43.3753429166972637176513671875" lon="-5.16117439605295658111572265625">
        <ele>64</ele>
        <time>2019-07-11T17:10:15.000Z</time>
      </trkpt>
      <trkpt lat="43.374979980289936065673828125" lon="-5.16072412021458148956298828125">
        <ele>64.1999969482421875</ele>
        <time>2019-07-11T17:10:18.000Z</time>
      </trkpt>
      <trkpt lat="43.374650739133358001708984375" lon="-5.1602702401578426361083984375">
        <ele>63.799999237060546875</ele>
        <time>2019-07-11T17:10:21.000Z</time>
      </trkpt>
      <trkpt lat="43.3744584582746028900146484375" lon="-5.15993638895452022552490234375">
        <ele>62.40000152587890625</ele>
        <time>2019-07-11T17:10:23.000Z</time>
      </trkpt>
      <trkpt lat="43.37437086738646030426025390625" lon="-5.15975031070411205291748046875">
        <ele>60.799999237060546875</ele>
        <time>2019-07-11T17:10:24.000Z</time>
      </trkpt>
      <trkpt lat="43.3742894791066646575927734375" lon="-5.15955132432281970977783203125">
        <ele>59</ele>
        <time>2019-07-11T17:10:25.000Z</time>
      </trkpt>
      <trkpt lat="43.37421563453972339630126953125" lon="-5.15934060327708721160888671875">
        <ele>58</ele>
        <time>2019-07-11T17:10:26.000Z</time>
      </trkpt>
      <trkpt lat="43.3740963600575923919677734375" lon="-5.15890181064605712890625">
        <ele>56.59999847412109375</ele>
        <time>2019-07-11T17:10:28.000Z</time>
      </trkpt>
      <trkpt lat="43.37399703450500965118408203125" lon="-5.158239640295505523681640625">
        <ele>57.59999847412109375</ele>
        <time>2019-07-11T17:10:31.000Z</time>
      </trkpt>
      <trkpt lat="43.3739850483834743499755859375" lon="-5.15801626257598400115966796875">
        <ele>58.200000762939453125</ele>
        <time>2019-07-11T17:10:32.000Z</time>
      </trkpt>
      <trkpt lat="43.37397960014641284942626953125" lon="-5.157793723046779632568359375">
        <ele>58.40000152587890625</ele>
        <time>2019-07-11T17:10:33.000Z</time>
      </trkpt>
      <trkpt lat="43.37397976778447628021240234375" lon="-5.15735258348286151885986328125">
        <ele>59.200000762939453125</ele>
        <time>2019-07-11T17:10:35.000Z</time>
      </trkpt>
      <trkpt lat="43.37399418465793132781982421875" lon="-5.15671103261411190032958984375">
        <ele>59</ele>
        <time>2019-07-11T17:10:38.000Z</time>
      </trkpt>
      <trkpt lat="43.37400441057980060577392578125" lon="-5.15630015172064304351806640625">
        <ele>60.200000762939453125</ele>
        <time>2019-07-11T17:10:40.000Z</time>
      </trkpt>
      <trkpt lat="43.374031484127044677734375" lon="-5.1557004265487194061279296875">
        <ele>61.40000152587890625</ele>
        <time>2019-07-11T17:10:43.000Z</time>
      </trkpt>
      <trkpt lat="43.37406995706260204315185546875" lon="-5.1553172059357166290283203125">
        <ele>60</ele>
        <time>2019-07-11T17:10:45.000Z</time>
      </trkpt>
      <trkpt lat="43.3741295523941516876220703125" lon="-5.1549549400806427001953125">
        <ele>58.59999847412109375</ele>
        <time>2019-07-11T17:10:47.000Z</time>
      </trkpt>
      <trkpt lat="43.3742623217403888702392578125" lon="-5.15421741642057895660400390625">
        <ele>59.59999847412109375</ele>
        <time>2019-07-11T17:10:51.000Z</time>
      </trkpt>
      <trkpt lat="43.374298028647899627685546875" lon="-5.15402480028569698333740234375">
        <ele>60</ele>
        <time>2019-07-11T17:10:52.000Z</time>
      </trkpt>
      <trkpt lat="43.3743686042726039886474609375" lon="-5.1536357961595058441162109375">
        <ele>61</ele>
        <time>2019-07-11T17:10:54.000Z</time>
      </trkpt>
      <trkpt lat="43.37449374608695507049560546875" lon="-5.15287287533283233642578125">
        <ele>59.59999847412109375</ele>
        <time>2019-07-11T17:10:58.000Z</time>
      </trkpt>
      <trkpt lat="43.37452710606157779693603515625" lon="-5.15218363143503665924072265625">
        <ele>59</ele>
        <time>2019-07-11T17:11:02.000Z</time>
      </trkpt>
      <trkpt lat="43.3744668401777744293212890625" lon="-5.1514816470444202423095703125">
        <ele>60.200000762939453125</ele>
        <time>2019-07-11T17:11:07.000Z</time>
      </trkpt>
      <trkpt lat="43.3744378387928009033203125" lon="-5.1512347161769866943359375">
        <ele>60.799999237060546875</ele>
        <time>2019-07-11T17:11:09.000Z</time>
      </trkpt>
      <trkpt lat="43.37439014576375484466552734375" lon="-5.15052284114062786102294921875">
        <ele>61.40000152587890625</ele>
        <time>2019-07-11T17:11:14.000Z</time>
      </trkpt>
      <trkpt lat="43.37438494898378849029541015625" lon="-5.14983971603214740753173828125">
        <ele>61.59999847412109375</ele>
        <time>2019-07-11T17:11:18.000Z</time>
      </trkpt>
      <trkpt lat="43.37435427121818065643310546875" lon="-5.14917452819645404815673828125">
        <ele>61</ele>
        <time>2019-07-11T17:11:22.000Z</time>
      </trkpt>
      <trkpt lat="43.3742717094719409942626953125" lon="-5.1488396711647510528564453125">
        <ele>59.40000152587890625</ele>
        <time>2019-07-11T17:11:24.000Z</time>
      </trkpt>
      <trkpt lat="43.374122343957424163818359375" lon="-5.14852442778646945953369140625">
        <ele>58.200000762939453125</ele>
        <time>2019-07-11T17:11:26.000Z</time>
      </trkpt>
      <trkpt lat="43.373913802206516265869140625" lon="-5.14825637452304363250732421875">
        <ele>58.799999237060546875</ele>
        <time>2019-07-11T17:11:28.000Z</time>
      </trkpt>
      <trkpt lat="43.373663015663623809814453125" lon="-5.14805654995143413543701171875">
        <ele>58.799999237060546875</ele>
        <time>2019-07-11T17:11:30.000Z</time>
      </trkpt>
      <trkpt lat="43.37338247336447238922119140625" lon="-5.14794993214309215545654296875">
        <ele>59.40000152587890625</ele>
        <time>2019-07-11T17:11:32.000Z</time>
      </trkpt>
      <trkpt lat="43.37298081256449222564697265625" lon="-5.1478405483067035675048828125">
        <ele>61.200000762939453125</ele>
        <time>2019-07-11T17:11:35.000Z</time>
      </trkpt>
      <trkpt lat="43.37285139597952365875244140625" lon="-5.14781154692173004150390625">
        <ele>62.40000152587890625</ele>
        <time>2019-07-11T17:11:36.000Z</time>
      </trkpt>
      <trkpt lat="43.3725869469344615936279296875" lon="-5.14775614254176616668701171875">
        <ele>63.59999847412109375</ele>
        <time>2019-07-11T17:11:38.000Z</time>
      </trkpt>
      <trkpt lat="43.37230422534048557281494140625" lon="-5.14772378839552402496337890625">
        <ele>64.8000030517578125</ele>
        <time>2019-07-11T17:11:40.000Z</time>
      </trkpt>
      <trkpt lat="43.3716971240937709808349609375" lon="-5.1477738283574581146240234375">
        <ele>64.8000030517578125</ele>
        <time>2019-07-11T17:11:44.000Z</time>
      </trkpt>
      <trkpt lat="43.3715311624109745025634765625" lon="-5.14781816862523555755615234375">
        <ele>63</ele>
        <time>2019-07-11T17:11:45.000Z</time>
      </trkpt>
      <trkpt lat="43.3713598363101482391357421875" lon="-5.1478821225464344024658203125">
        <ele>60.799999237060546875</ele>
        <time>2019-07-11T17:11:46.000Z</time>
      </trkpt>
      <trkpt lat="43.37118322961032390594482421875" lon="-5.14796434901654720306396484375">
        <ele>59.59999847412109375</ele>
        <time>2019-07-11T17:11:47.000Z</time>
      </trkpt>
      <trkpt lat="43.370839320123195648193359375" lon="-5.148175321519374847412109375">
        <ele>58.59999847412109375</ele>
        <time>2019-07-11T17:11:49.000Z</time>
      </trkpt>
      <trkpt lat="43.3703972585499286651611328125" lon="-5.148603804409503936767578125">
        <ele>58.40000152587890625</ele>
        <time>2019-07-11T17:11:52.000Z</time>
      </trkpt>
      <trkpt lat="43.37011839263141155242919921875" lon="-5.14895475469529628753662109375">
        <ele>56.799999237060546875</ele>
        <time>2019-07-11T17:11:54.000Z</time>
      </trkpt>
      <trkpt lat="43.369710445404052734375" lon="-5.1495008356869220733642578125">
        <ele>56.40000152587890625</ele>
        <time>2019-07-11T17:11:57.000Z</time>
      </trkpt>
      <trkpt lat="43.36945991031825542449951171875" lon="-5.14983871020376682281494140625">
        <ele>59.200000762939453125</ele>
        <time>2019-07-11T17:11:59.000Z</time>
      </trkpt>
      <trkpt lat="43.3693416416645050048828125" lon="-5.1499957032501697540283203125">
        <ele>60.40000152587890625</ele>
        <time>2019-07-11T17:12:00.000Z</time>
      </trkpt>
      <trkpt lat="43.369107283651828765869140625" lon="-5.1503018103539943695068359375">
        <ele>62</ele>
        <time>2019-07-11T17:12:02.000Z</time>
      </trkpt>
      <trkpt lat="43.36875029839575290679931640625" lon="-5.150767005980014801025390625">
        <ele>62.59999847412109375</ele>
        <time>2019-07-11T17:12:05.000Z</time>
      </trkpt>
      <trkpt lat="43.36850604973733425140380859375" lon="-5.1510833390057086944580078125">
        <ele>63</ele>
        <time>2019-07-11T17:12:07.000Z</time>
      </trkpt>
      <trkpt lat="43.3682588674128055572509765625" lon="-5.15141366980969905853271484375">
        <ele>64.1999969482421875</ele>
        <time>2019-07-11T17:12:09.000Z</time>
      </trkpt>
      <trkpt lat="43.36788528598845005035400390625" lon="-5.15190183185040950775146484375">
        <ele>65</ele>
        <time>2019-07-11T17:12:12.000Z</time>
      </trkpt>
      <trkpt lat="43.367537520825862884521484375" lon="-5.15234942547976970672607421875">
        <ele>64</ele>
        <time>2019-07-11T17:12:15.000Z</time>
      </trkpt>
      <trkpt lat="43.36720551364123821258544921875" lon="-5.15276147983968257904052734375">
        <ele>65.40000152587890625</ele>
        <time>2019-07-11T17:12:18.000Z</time>
      </trkpt>
      <trkpt lat="43.36685732938349246978759765625" lon="-5.1530866138637065887451171875">
        <ele>65.8000030517578125</ele>
        <time>2019-07-11T17:12:21.000Z</time>
      </trkpt>
      <trkpt lat="43.3665885217487812042236328125" lon="-5.15321427024900913238525390625">
        <ele>63.799999237060546875</ele>
        <time>2019-07-11T17:12:23.000Z</time>
      </trkpt>
      <trkpt lat="43.36613598279654979705810546875" lon="-5.153238661587238311767578125">
        <ele>63.40000152587890625</ele>
        <time>2019-07-11T17:12:26.000Z</time>
      </trkpt>
      <trkpt lat="43.3659873716533184051513671875" lon="-5.15322449617087841033935546875">
        <ele>65.1999969482421875</ele>
        <time>2019-07-11T17:12:27.000Z</time>
      </trkpt>
      <trkpt lat="43.36584194563329219818115234375" lon="-5.1532103307545185089111328125">
        <ele>67.59999847412109375</ele>
        <time>2019-07-11T17:12:28.000Z</time>
      </trkpt>
      <trkpt lat="43.3656983636319637298583984375" lon="-5.15319834463298320770263671875">
        <ele>70.40000152587890625</ele>
        <time>2019-07-11T17:12:29.000Z</time>
      </trkpt>
      <trkpt lat="43.3655572123825550079345703125" lon="-5.153184346854686737060546875">
        <ele>71.40000152587890625</ele>
        <time>2019-07-11T17:12:30.000Z</time>
      </trkpt>
      <trkpt lat="43.365020267665386199951171875" lon="-5.1530279405415058135986328125">
        <ele>71.59999847412109375</ele>
        <time>2019-07-11T17:12:34.000Z</time>
      </trkpt>
      <trkpt lat="43.36489194072782993316650390625" lon="-5.15294353477656841278076171875">
        <ele>69.8000030517578125</ele>
        <time>2019-07-11T17:12:35.000Z</time>
      </trkpt>
      <trkpt lat="43.36477174423635005950927734375" lon="-5.152836330235004425048828125">
        <ele>67.59999847412109375</ele>
        <time>2019-07-11T17:12:36.000Z</time>
      </trkpt>
      <trkpt lat="43.36466177366673946380615234375" lon="-5.15271202661097049713134765625">
        <ele>65.8000030517578125</ele>
        <time>2019-07-11T17:12:37.000Z</time>
      </trkpt>
      <trkpt lat="43.364563286304473876953125" lon="-5.15257640741765499114990234375">
        <ele>64.40000152587890625</ele>
        <time>2019-07-11T17:12:38.000Z</time>
      </trkpt>
      <trkpt lat="43.36440361104905605316162109375" lon="-5.1522893272340297698974609375">
        <ele>64.40000152587890625</ele>
        <time>2019-07-11T17:12:40.000Z</time>
      </trkpt>
      <trkpt lat="43.36417847312986850738525390625" lon="-5.151707120239734649658203125">
        <ele>65.59999847412109375</ele>
        <time>2019-07-11T17:12:44.000Z</time>
      </trkpt>
      <trkpt lat="43.3639985136687755584716796875" lon="-5.151249803602695465087890625">
        <ele>66.8000030517578125</ele>
        <time>2019-07-11T17:12:47.000Z</time>
      </trkpt>
      <trkpt lat="43.3637447096407413482666015625" lon="-5.150562487542629241943359375">
        <ele>67</ele>
        <time>2019-07-11T17:12:51.000Z</time>
      </trkpt>
      <trkpt lat="43.36357011459767818450927734375" lon="-5.1500922627747058868408203125">
        <ele>64.1999969482421875</ele>
        <time>2019-07-11T17:12:53.000Z</time>
      </trkpt>
      <trkpt lat="43.36347690783441066741943359375" lon="-5.1498344354331493377685546875">
        <ele>61.59999847412109375</ele>
        <time>2019-07-11T17:12:54.000Z</time>
      </trkpt>
      <trkpt lat="43.36338051594793796539306640625" lon="-5.1495752669870853424072265625">
        <ele>59.40000152587890625</ele>
        <time>2019-07-11T17:12:55.000Z</time>
      </trkpt>
      <trkpt lat="43.36327859200537204742431640625" lon="-5.14931249432265758514404296875">
        <ele>57.200000762939453125</ele>
        <time>2019-07-11T17:12:56.000Z</time>
      </trkpt>
      <trkpt lat="43.36317180655896663665771484375" lon="-5.1490445248782634735107421875">
        <ele>55.799999237060546875</ele>
        <time>2019-07-11T17:12:57.000Z</time>
      </trkpt>
      <trkpt lat="43.362958990037441253662109375" lon="-5.14853582717478275299072265625">
        <ele>53.799999237060546875</ele>
        <time>2019-07-11T17:12:59.000Z</time>
      </trkpt>
      <trkpt lat="43.36267442442476749420166015625" lon="-5.14783459715545177459716796875">
        <ele>54</ele>
        <time>2019-07-11T17:13:02.000Z</time>
      </trkpt>
      <trkpt lat="43.3625880070030689239501953125" lon="-5.14761985279619693756103515625">
        <ele>55</ele>
        <time>2019-07-11T17:13:03.000Z</time>
      </trkpt>
      <trkpt lat="43.3625046908855438232421875" lon="-5.1474117301404476165771484375">
        <ele>57.40000152587890625</ele>
        <time>2019-07-11T17:13:04.000Z</time>
      </trkpt>
      <trkpt lat="43.362421207129955291748046875" lon="-5.14720763079822063446044921875">
        <ele>60.40000152587890625</ele>
        <time>2019-07-11T17:13:05.000Z</time>
      </trkpt>
      <trkpt lat="43.3623365499079227447509765625" lon="-5.1470043696463108062744140625">
        <ele>62.799999237060546875</ele>
        <time>2019-07-11T17:13:06.000Z</time>
      </trkpt>
      <trkpt lat="43.36225097067654132843017578125" lon="-5.14680043794214725494384765625">
        <ele>64.8000030517578125</ele>
        <time>2019-07-11T17:13:07.000Z</time>
      </trkpt>
      <trkpt lat="43.36216346360743045806884765625" lon="-5.14659793116152286529541015625">
        <ele>66.40000152587890625</ele>
        <time>2019-07-11T17:13:08.000Z</time>
      </trkpt>
      <trkpt lat="43.362070508301258087158203125" lon="-5.14639860950410366058349609375">
        <ele>67.59999847412109375</ele>
        <time>2019-07-11T17:13:09.000Z</time>
      </trkpt>
      <trkpt lat="43.3618688397109508514404296875" lon="-5.1460085995495319366455078125">
        <ele>68.59999847412109375</ele>
        <time>2019-07-11T17:13:11.000Z</time>
      </trkpt>
      <trkpt lat="43.36153767071664333343505859375" lon="-5.14540904201567173004150390625">
        <ele>68.59999847412109375</ele>
        <time>2019-07-11T17:13:14.000Z</time>
      </trkpt>
      <trkpt lat="43.36130817420780658721923828125" lon="-5.1450051181018352508544921875">
        <ele>67</ele>
        <time>2019-07-11T17:13:16.000Z</time>
      </trkpt>
      <trkpt lat="43.36107498966157436370849609375" lon="-5.14460203237831592559814453125">
        <ele>65.8000030517578125</ele>
        <time>2019-07-11T17:13:18.000Z</time>
      </trkpt>
      <trkpt lat="43.36073384620249271392822265625" lon="-5.144019238650798797607421875">
        <ele>64.40000152587890625</ele>
        <time>2019-07-11T17:13:21.000Z</time>
      </trkpt>
      <trkpt lat="43.36062085814774036407470703125" lon="-5.1438256166875362396240234375">
        <ele>63.200000762939453125</ele>
        <time>2019-07-11T17:13:22.000Z</time>
      </trkpt>
      <trkpt lat="43.3605076186358928680419921875" lon="-5.143630988895893096923828125">
        <ele>62</ele>
        <time>2019-07-11T17:13:23.000Z</time>
      </trkpt>
      <trkpt lat="43.36028072051703929901123046875" lon="-5.14323703944683074951171875">
        <ele>61</ele>
        <time>2019-07-11T17:13:25.000Z</time>
      </trkpt>
      <trkpt lat="43.36004854179918766021728515625" lon="-5.14283462427556514739990234375">
        <ele>59.799999237060546875</ele>
        <time>2019-07-11T17:13:27.000Z</time>
      </trkpt>
      <trkpt lat="43.3596928976476192474365234375" lon="-5.142222829163074493408203125">
        <ele>60.200000762939453125</ele>
        <time>2019-07-11T17:13:30.000Z</time>
      </trkpt>
      <trkpt lat="43.35932669229805469512939453125" lon="-5.1415967009961605072021484375">
        <ele>60.59999847412109375</ele>
        <time>2019-07-11T17:13:33.000Z</time>
      </trkpt>
      <trkpt lat="43.3589542843401432037353515625" lon="-5.1409563235938549041748046875">
        <ele>59.799999237060546875</ele>
        <time>2019-07-11T17:13:36.000Z</time>
      </trkpt>
      <trkpt lat="43.35870911367237567901611328125" lon="-5.1405328698456287384033203125">
        <ele>58.59999847412109375</ele>
        <time>2019-07-11T17:13:38.000Z</time>
      </trkpt>
      <trkpt lat="43.3583444170653820037841796875" lon="-5.13990766368806362152099609375">
        <ele>58.200000762939453125</ele>
        <time>2019-07-11T17:13:41.000Z</time>
      </trkpt>
      <trkpt lat="43.35810561664402484893798828125" lon="-5.1394931785762310028076171875">
        <ele>60.799999237060546875</ele>
        <time>2019-07-11T17:13:43.000Z</time>
      </trkpt>
      <trkpt lat="43.35798944346606731414794921875" lon="-5.13929259963333606719970703125">
        <ele>62.40000152587890625</ele>
        <time>2019-07-11T17:13:44.000Z</time>
      </trkpt>
      <trkpt lat="43.3577680774033069610595703125" lon="-5.13892027549445629119873046875">
        <ele>64.1999969482421875</ele>
        <time>2019-07-11T17:13:46.000Z</time>
      </trkpt>
      <trkpt lat="43.3575692586600780487060546875" lon="-5.13857670128345489501953125">
        <ele>65.8000030517578125</ele>
        <time>2019-07-11T17:13:48.000Z</time>
      </trkpt>
      <trkpt lat="43.35747999139130115509033203125" lon="-5.138421468436717987060546875">
        <ele>67</ele>
        <time>2019-07-11T17:13:49.000Z</time>
      </trkpt>
      <trkpt lat="43.35739667527377605438232421875" lon="-5.1382858492434024810791015625">
        <ele>68.59999847412109375</ele>
        <time>2019-07-11T17:13:50.000Z</time>
      </trkpt>
      <trkpt lat="43.3573161251842975616455078125" lon="-5.13817571103572845458984375">
        <ele>70</ele>
        <time>2019-07-11T17:13:51.000Z</time>
      </trkpt>
      <trkpt lat="43.357233814895153045654296875" lon="-5.1380917243659496307373046875">
        <ele>71.40000152587890625</ele>
        <time>2019-07-11T17:13:52.000Z</time>
      </trkpt>
      <trkpt lat="43.3571471460163593292236328125" lon="-5.13803564943373203277587890625">
        <ele>72.59999847412109375</ele>
        <time>2019-07-11T17:13:53.000Z</time>
      </trkpt>
      <trkpt lat="43.35705670528113842010498046875" lon="-5.13799658976495265960693359375">
        <ele>73.59999847412109375</ele>
        <time>2019-07-11T17:13:54.000Z</time>
      </trkpt>
      <trkpt lat="43.35696659982204437255859375" lon="-5.137949399650096893310546875">
        <ele>74.1999969482421875</ele>
        <time>2019-07-11T17:13:55.000Z</time>
      </trkpt>
      <trkpt lat="43.35683089680969715118408203125" lon="-5.1377712003886699676513671875">
        <ele>74.59999847412109375</ele>
        <time>2019-07-11T17:13:57.000Z</time>
      </trkpt>
      <trkpt lat="43.3567897416651248931884765625" lon="-5.13749778270721435546875">
        <ele>75</ele>
        <time>2019-07-11T17:13:59.000Z</time>
      </trkpt>
      <trkpt lat="43.3567567169666290283203125" lon="-5.13718329370021820068359375">
        <ele>75.40000152587890625</ele>
        <time>2019-07-11T17:14:01.000Z</time>
      </trkpt>
      <trkpt lat="43.35662336088716983795166015625" lon="-5.13688959181308746337890625">
        <ele>75.8000030517578125</ele>
        <time>2019-07-11T17:14:03.000Z</time>
      </trkpt>
      <trkpt lat="43.35625355131924152374267578125" lon="-5.1362513937056064605712890625">
        <ele>74.8000030517578125</ele>
        <time>2019-07-11T17:14:07.000Z</time>
      </trkpt>
      <trkpt lat="43.35615447722375392913818359375" lon="-5.1360864378511905670166015625">
        <ele>74.1999969482421875</ele>
        <time>2019-07-11T17:14:08.000Z</time>
      </trkpt>
      <trkpt lat="43.35595364682376384735107421875" lon="-5.13574697077274322509765625">
        <ele>72.59999847412109375</ele>
        <time>2019-07-11T17:14:10.000Z</time>
      </trkpt>
      <trkpt lat="43.3558529801666736602783203125" lon="-5.13557455502450466156005859375">
        <ele>71.59999847412109375</ele>
        <time>2019-07-11T17:14:11.000Z</time>
      </trkpt>
      <trkpt lat="43.35553689859807491302490234375" lon="-5.13510852120816707611083984375">
        <ele>71</ele>
        <time>2019-07-11T17:14:14.000Z</time>
      </trkpt>
      <trkpt lat="43.35530555807054042816162109375" lon="-5.134877264499664306640625">
        <ele>72.59999847412109375</ele>
        <time>2019-07-11T17:14:16.000Z</time>
      </trkpt>
      <trkpt lat="43.3548028953373432159423828125" lon="-5.13457744382321834564208984375">
        <ele>73.40000152587890625</ele>
        <time>2019-07-11T17:14:20.000Z</time>
      </trkpt>
      <trkpt lat="43.35454029031097888946533203125" lon="-5.134460516273975372314453125">
        <ele>73.1999969482421875</ele>
        <time>2019-07-11T17:14:22.000Z</time>
      </trkpt>
      <trkpt lat="43.35442076437175273895263671875" lon="-5.13441198505461215972900390625">
        <ele>73</ele>
        <time>2019-07-11T17:14:23.000Z</time>
      </trkpt>
      <trkpt lat="43.3540766872465610504150390625" lon="-5.1342638768255710601806640625">
        <ele>73.8000030517578125</ele>
        <time>2019-07-11T17:14:26.000Z</time>
      </trkpt>
      <trkpt lat="43.35358508862555027008056640625" lon="-5.13405642472207546234130859375">
        <ele>74.40000152587890625</ele>
        <time>2019-07-11T17:14:30.000Z</time>
      </trkpt>
      <trkpt lat="43.35324637591838836669921875" lon="-5.1339118368923664093017578125">
        <ele>75.1999969482421875</ele>
        <time>2019-07-11T17:14:33.000Z</time>
      </trkpt>
      <trkpt lat="43.3530440367758274078369140625" lon="-5.13382441364228725433349609375">
        <ele>76.40000152587890625</ele>
        <time>2019-07-11T17:14:35.000Z</time>
      </trkpt>
      <trkpt lat="43.352621756494045257568359375" lon="-5.133639760315418243408203125">
        <ele>78.40000152587890625</ele>
        <time>2019-07-11T17:14:39.000Z</time>
      </trkpt>
      <trkpt lat="43.35226007737219333648681640625" lon="-5.13347824104130268096923828125">
        <ele>77.1999969482421875</ele>
        <time>2019-07-11T17:14:42.000Z</time>
      </trkpt>
      <trkpt lat="43.3518139086663722991943359375" lon="-5.1332825236022472381591796875">
        <ele>76.1999969482421875</ele>
        <time>2019-07-11T17:14:46.000Z</time>
      </trkpt>
      <trkpt lat="43.351387940347194671630859375" lon="-5.13309535570442676544189453125">
        <ele>77.1999969482421875</ele>
        <time>2019-07-11T17:14:50.000Z</time>
      </trkpt>
      <trkpt lat="43.3510454557836055755615234375" lon="-5.132950432598590850830078125">
        <ele>78.59999847412109375</ele>
        <time>2019-07-11T17:14:54.000Z</time>
      </trkpt>
      <trkpt lat="43.350919224321842193603515625" lon="-5.1328879036009311676025390625">
        <ele>80</ele>
        <time>2019-07-11T17:14:56.000Z</time>
      </trkpt>
      <trkpt lat="43.3508161269128322601318359375" lon="-5.13284624554216861724853515625">
        <ele>81</ele>
        <time>2019-07-11T17:14:58.000Z</time>
      </trkpt>
      <trkpt lat="43.35069148801267147064208984375" lon="-5.13279126025736331939697265625">
        <ele>82</ele>
        <time>2019-07-11T17:15:01.000Z</time>
      </trkpt>
      <trkpt lat="43.3506283722817897796630859375" lon="-5.1327918469905853271484375">
        <ele>82.1999969482421875</ele>
        <time>2019-07-11T17:15:03.000Z</time>
      </trkpt>
      <trkpt lat="43.35058704949915409088134765625" lon="-5.132863260805606842041015625">
        <ele>82.40000152587890625</ele>
        <time>2019-07-11T17:15:05.000Z</time>
      </trkpt>
      <trkpt lat="43.35059844888746738433837890625" lon="-5.1329804398119449615478515625">
        <ele>82.1999969482421875</ele>
        <time>2019-07-11T17:15:07.000Z</time>
      </trkpt>
      <trkpt lat="43.3506427891552448272705078125" lon="-5.133120082318782806396484375">
        <ele>82</ele>
        <time>2019-07-11T17:15:09.000Z</time>
      </trkpt>
      <trkpt lat="43.350738845765590667724609375" lon="-5.13327707536518573760986328125">
        <ele>81.40000152587890625</ele>
        <time>2019-07-11T17:15:11.000Z</time>
      </trkpt>
      <trkpt lat="43.35094478912651538848876953125" lon="-5.133570693433284759521484375">
        <ele>81</ele>
        <time>2019-07-11T17:15:14.000Z</time>
      </trkpt>
      <trkpt lat="43.35117436945438385009765625" lon="-5.133987776935100555419921875">
        <ele>79.59999847412109375</ele>
        <time>2019-07-11T17:15:17.000Z</time>
      </trkpt>
      <trkpt lat="43.35146983154118061065673828125" lon="-5.13449161313474178314208984375">
        <ele>80</ele>
        <time>2019-07-11T17:15:21.000Z</time>
      </trkpt>
      <trkpt lat="43.35153043270111083984375" lon="-5.13458850793540477752685546875">
        <ele>81.1999969482421875</ele>
        <time>2019-07-11T17:15:22.000Z</time>
      </trkpt>
      <trkpt lat="43.35157862864434719085693359375" lon="-5.1346833072602748870849609375">
        <ele>82.8000030517578125</ele>
        <time>2019-07-11T17:15:23.000Z</time>
      </trkpt>
      <trkpt lat="43.35160695947706699371337890625" lon="-5.13477542437613010406494140625">
        <ele>84.1999969482421875</ele>
        <time>2019-07-11T17:15:24.000Z</time>
      </trkpt>
      <trkpt lat="43.35161450318992137908935546875" lon="-5.13486376963555812835693359375">
        <ele>85.59999847412109375</ele>
        <time>2019-07-11T17:15:25.000Z</time>
      </trkpt>
      <trkpt lat="43.35155633278191089630126953125" lon="-5.1350340060889720916748046875">
        <ele>87</ele>
        <time>2019-07-11T17:15:27.000Z</time>
      </trkpt>
      <trkpt lat="43.35135382600128650665283203125" lon="-5.13529275543987751007080078125">
        <ele>87</ele>
        <time>2019-07-11T17:15:30.000Z</time>
      </trkpt>
      <trkpt lat="43.351280987262725830078125" lon="-5.1354842819273471832275390625">
        <ele>86.8000030517578125</ele>
        <time>2019-07-11T17:15:32.000Z</time>
      </trkpt>
      <trkpt lat="43.35129506886005401611328125" lon="-5.1356797479093074798583984375">
        <ele>86.59999847412109375</ele>
        <time>2019-07-11T17:15:34.000Z</time>
      </trkpt>
      <trkpt lat="43.35137712769210338592529296875" lon="-5.13582073152065277099609375">
        <ele>86.8000030517578125</ele>
        <time>2019-07-11T17:15:36.000Z</time>
      </trkpt>
      <trkpt lat="43.3515135012567043304443359375" lon="-5.13586758635938167572021484375">
        <ele>87.1999969482421875</ele>
        <time>2019-07-11T17:15:38.000Z</time>
      </trkpt>
      <trkpt lat="43.35177727974951267242431640625" lon="-5.1357732899487018585205078125">
        <ele>87.59999847412109375</ele>
        <time>2019-07-11T17:15:41.000Z</time>
      </trkpt>
      <trkpt lat="43.3519865758717060089111328125" lon="-5.13573247008025646209716796875">
        <ele>87.59999847412109375</ele>
        <time>2019-07-11T17:15:43.000Z</time>
      </trkpt>
      <trkpt lat="43.35218145512044429779052734375" lon="-5.1356468908488750457763671875">
        <ele>87.8000030517578125</ele>
        <time>2019-07-11T17:15:45.000Z</time>
      </trkpt>
      <trkpt lat="43.35227650590240955352783203125" lon="-5.1356274448335170745849609375">
        <ele>88.59999847412109375</ele>
        <time>2019-07-11T17:15:46.000Z</time>
      </trkpt>
      <trkpt lat="43.352376334369182586669921875" lon="-5.135619230568408966064453125">
        <ele>89.8000030517578125</ele>
        <time>2019-07-11T17:15:47.000Z</time>
      </trkpt>
      <trkpt lat="43.35247683338820934295654296875" lon="-5.13561260886490345001220703125">
        <ele>91</ele>
        <time>2019-07-11T17:15:48.000Z</time>
      </trkpt>
      <trkpt lat="43.352576829493045806884765625" lon="-5.135613195598125457763671875">
        <ele>92</ele>
        <time>2019-07-11T17:15:49.000Z</time>
      </trkpt>
      <trkpt lat="43.35275477729737758636474609375" lon="-5.1356618106365203857421875">
        <ele>93.8000030517578125</ele>
        <time>2019-07-11T17:15:51.000Z</time>
      </trkpt>
      <trkpt lat="43.35286592133343219757080078125" lon="-5.1358187198638916015625">
        <ele>95.59999847412109375</ele>
        <time>2019-07-11T17:15:53.000Z</time>
      </trkpt>
      <trkpt lat="43.3529156260192394256591796875" lon="-5.13591653667390346527099609375">
        <ele>97</ele>
        <time>2019-07-11T17:15:54.000Z</time>
      </trkpt>
      <trkpt lat="43.3529823459684848785400390625" lon="-5.13599775731563568115234375">
        <ele>98.40000152587890625</ele>
        <time>2019-07-11T17:15:55.000Z</time>
      </trkpt>
      <trkpt lat="43.35305870510637760162353515625" lon="-5.136060453951358795166015625">
        <ele>99.40000152587890625</ele>
        <time>2019-07-11T17:15:56.000Z</time>
      </trkpt>
      <trkpt lat="43.35313095711171627044677734375" lon="-5.13610563240945339202880859375">
        <ele>100.8000030517578125</ele>
        <time>2019-07-11T17:15:57.000Z</time>
      </trkpt>
      <trkpt lat="43.35320069454610347747802734375" lon="-5.1361231505870819091796875">
        <ele>102.1999969482421875</ele>
        <time>2019-07-11T17:15:58.000Z</time>
      </trkpt>
      <trkpt lat="43.3532671630382537841796875" lon="-5.13610932044684886932373046875">
        <ele>103.59999847412109375</ele>
        <time>2019-07-11T17:15:59.000Z</time>
      </trkpt>
      <trkpt lat="43.35339884273707866668701171875" lon="-5.1360183767974376678466796875">
        <ele>105.1999969482421875</ele>
        <time>2019-07-11T17:16:01.000Z</time>
      </trkpt>
      <trkpt lat="43.35355105809867382049560546875" lon="-5.1359198056161403656005859375">
        <ele>106.1999969482421875</ele>
        <time>2019-07-11T17:16:03.000Z</time>
      </trkpt>
      <trkpt lat="43.35364007391035556793212890625" lon="-5.13591687195003032684326171875">
        <ele>106.59999847412109375</ele>
        <time>2019-07-11T17:16:04.000Z</time>
      </trkpt>
      <trkpt lat="43.35373378358781337738037109375" lon="-5.135937742888927459716796875">
        <ele>107</ele>
        <time>2019-07-11T17:16:05.000Z</time>
      </trkpt>
      <trkpt lat="43.3539227955043315887451171875" lon="-5.13600848615169525146484375">
        <ele>108.1999969482421875</ele>
        <time>2019-07-11T17:16:07.000Z</time>
      </trkpt>
      <trkpt lat="43.3540119789540767669677734375" lon="-5.1360589452087879180908203125">
        <ele>109</ele>
        <time>2019-07-11T17:16:08.000Z</time>
      </trkpt>
      <trkpt lat="43.3540879189968109130859375" lon="-5.136124156415462493896484375">
        <ele>109.8000030517578125</ele>
        <time>2019-07-11T17:16:09.000Z</time>
      </trkpt>
      <trkpt lat="43.354149945080280303955078125" lon="-5.13620671816170215606689453125">
        <ele>110.59999847412109375</ele>
        <time>2019-07-11T17:16:10.000Z</time>
      </trkpt>
      <trkpt lat="43.35420015268027782440185546875" lon="-5.13631149195134639739990234375">
        <ele>111.8000030517578125</ele>
        <time>2019-07-11T17:16:11.000Z</time>
      </trkpt>
      <trkpt lat="43.35424147546291351318359375" lon="-5.13643152080476284027099609375">
        <ele>112.59999847412109375</ele>
        <time>2019-07-11T17:16:12.000Z</time>
      </trkpt>
      <trkpt lat="43.35427408106625080108642578125" lon="-5.13656504452228546142578125">
        <ele>113.59999847412109375</ele>
        <time>2019-07-11T17:16:13.000Z</time>
      </trkpt>
      <trkpt lat="43.35429453290998935699462890625" lon="-5.13671147637069225311279296875">
        <ele>114.8000030517578125</ele>
        <time>2019-07-11T17:16:14.000Z</time>
      </trkpt>
      <trkpt lat="43.3543023280799388885498046875" lon="-5.13686436228454113006591796875">
        <ele>116.40000152587890625</ele>
        <time>2019-07-11T17:16:15.000Z</time>
      </trkpt>
      <trkpt lat="43.35429704748094081878662109375" lon="-5.13701490126550197601318359375">
        <ele>117.59999847412109375</ele>
        <time>2019-07-11T17:16:16.000Z</time>
      </trkpt>
      <trkpt lat="43.3542785234749317169189453125" lon="-5.13715705834329128265380859375">
        <ele>118.59999847412109375</ele>
        <time>2019-07-11T17:16:17.000Z</time>
      </trkpt>
      <trkpt lat="43.3542490191757678985595703125" lon="-5.13729670085012912750244140625">
        <ele>119.8000030517578125</ele>
        <time>2019-07-11T17:16:18.000Z</time>
      </trkpt>
      <trkpt lat="43.35418003611266613006591796875" lon="-5.1375764049589633941650390625">
        <ele>121.40000152587890625</ele>
        <time>2019-07-11T17:16:20.000Z</time>
      </trkpt>
      <trkpt lat="43.35410074330866336822509765625" lon="-5.137824676930904388427734375">
        <ele>122</ele>
        <time>2019-07-11T17:16:22.000Z</time>
      </trkpt>
      <trkpt lat="43.35397652350366115570068359375" lon="-5.13804386369884014129638671875">
        <ele>123</ele>
        <time>2019-07-11T17:16:24.000Z</time>
      </trkpt>
      <trkpt lat="43.35372640751302242279052734375" lon="-5.13843228109180927276611328125">
        <ele>124.1999969482421875</ele>
        <time>2019-07-11T17:16:27.000Z</time>
      </trkpt>
      <trkpt lat="43.353647701442241668701171875" lon="-5.138594806194305419921875">
        <ele>124.40000152587890625</ele>
        <time>2019-07-11T17:16:28.000Z</time>
      </trkpt>
      <trkpt lat="43.3534815721213817596435546875" lon="-5.139185227453708648681640625">
        <ele>125</ele>
        <time>2019-07-11T17:16:31.000Z</time>
      </trkpt>
      <trkpt lat="43.3534386567771434783935546875" lon="-5.13936770148575305938720703125">
        <ele>125.40000152587890625</ele>
        <time>2019-07-11T17:16:32.000Z</time>
      </trkpt>
      <trkpt lat="43.353342600166797637939453125" lon="-5.13971152715384960174560546875">
        <ele>126.8000030517578125</ele>
        <time>2019-07-11T17:16:34.000Z</time>
      </trkpt>
      <trkpt lat="43.35327395237982273101806640625" lon="-5.13987380079925060272216796875">
        <ele>128.399993896484375</ele>
        <time>2019-07-11T17:16:35.000Z</time>
      </trkpt>
      <trkpt lat="43.35319767706096172332763671875" lon="-5.1400299556553363800048828125">
        <ele>130.600006103515625</ele>
        <time>2019-07-11T17:16:36.000Z</time>
      </trkpt>
      <trkpt lat="43.3531191386282444000244140625" lon="-5.1401794888079166412353515625">
        <ele>132.600006103515625</ele>
        <time>2019-07-11T17:16:37.000Z</time>
      </trkpt>
      <trkpt lat="43.3530413545668125152587890625" lon="-5.14032223261892795562744140625">
        <ele>134.1999969482421875</ele>
        <time>2019-07-11T17:16:38.000Z</time>
      </trkpt>
      <trkpt lat="43.35296818055212497711181640625" lon="-5.140455923974514007568359375">
        <ele>135.399993896484375</ele>
        <time>2019-07-11T17:16:39.000Z</time>
      </trkpt>
      <trkpt lat="43.35290380753576755523681640625" lon="-5.14058307744562625885009765625">
        <ele>136.600006103515625</ele>
        <time>2019-07-11T17:16:40.000Z</time>
      </trkpt>
      <trkpt lat="43.3528539352118968963623046875" lon="-5.14070712961256504058837890625">
        <ele>137.8000030517578125</ele>
        <time>2019-07-11T17:16:41.000Z</time>
      </trkpt>
      <trkpt lat="43.3528254367411136627197265625" lon="-5.14082648791372776031494140625">
        <ele>138.8000030517578125</ele>
        <time>2019-07-11T17:16:42.000Z</time>
      </trkpt>
      <trkpt lat="43.35281797684729099273681640625" lon="-5.1409362070262432098388671875">
        <ele>139.600006103515625</ele>
        <time>2019-07-11T17:16:43.000Z</time>
      </trkpt>
      <trkpt lat="43.3528304658830165863037109375" lon="-5.14104827307164669036865234375">
        <ele>140</ele>
        <time>2019-07-11T17:16:44.000Z</time>
      </trkpt>
      <trkpt lat="43.35286860354244709014892578125" lon="-5.14116612263023853302001953125">
        <ele>140.399993896484375</ele>
        <time>2019-07-11T17:16:45.000Z</time>
      </trkpt>
      <trkpt lat="43.353073708713054656982421875" lon="-5.141553618013858795166015625">
        <ele>141.1999969482421875</ele>
        <time>2019-07-11T17:16:48.000Z</time>
      </trkpt>
      <trkpt lat="43.353305049240589141845703125" lon="-5.1419893093407154083251953125">
        <ele>142.600006103515625</ele>
        <time>2019-07-11T17:16:52.000Z</time>
      </trkpt>
      <trkpt lat="43.3533417619764804840087890625" lon="-5.14218519441783428192138671875">
        <ele>145</ele>
        <time>2019-07-11T17:16:54.000Z</time>
      </trkpt>
      <trkpt lat="43.3533330447971820831298828125" lon="-5.14229751192033290863037109375">
        <ele>146.8000030517578125</ele>
        <time>2019-07-11T17:16:55.000Z</time>
      </trkpt>
      <trkpt lat="43.353309743106365203857421875" lon="-5.14241552911698818206787109375">
        <ele>148.399993896484375</ele>
        <time>2019-07-11T17:16:56.000Z</time>
      </trkpt>
      <trkpt lat="43.3532783947885036468505859375" lon="-5.142530612647533416748046875">
        <ele>149.399993896484375</ele>
        <time>2019-07-11T17:16:57.000Z</time>
      </trkpt>
      <trkpt lat="43.35321695543825626373291015625" lon="-5.1427242346107959747314453125">
        <ele>150.600006103515625</ele>
        <time>2019-07-11T17:16:59.000Z</time>
      </trkpt>
      <trkpt lat="43.35317286662757396697998046875" lon="-5.142890699207782745361328125">
        <ele>152</ele>
        <time>2019-07-11T17:17:01.000Z</time>
      </trkpt>
      <trkpt lat="43.35314906202256679534912109375" lon="-5.1430715806782245635986328125">
        <ele>153.399993896484375</ele>
        <time>2019-07-11T17:17:03.000Z</time>
      </trkpt>
      <trkpt lat="43.35314839147031307220458984375" lon="-5.14316604472696781158447265625">
        <ele>153.8000030517578125</ele>
        <time>2019-07-11T17:17:04.000Z</time>
      </trkpt>
      <trkpt lat="43.35319633595645427703857421875" lon="-5.14336578547954559326171875">
        <ele>154</ele>
        <time>2019-07-11T17:17:06.000Z</time>
      </trkpt>
      <trkpt lat="43.35328283719718456268310546875" lon="-5.14360307715833187103271484375">
        <ele>154</ele>
        <time>2019-07-11T17:17:08.000Z</time>
      </trkpt>
      <trkpt lat="43.35331385023891925811767578125" lon="-5.14388211071491241455078125">
        <ele>153.8000030517578125</ele>
        <time>2019-07-11T17:17:10.000Z</time>
      </trkpt>
      <trkpt lat="43.35327730514109134674072265625" lon="-5.14429609291255474090576171875">
        <ele>154.8000030517578125</ele>
        <time>2019-07-11T17:17:13.000Z</time>
      </trkpt>
      <trkpt lat="43.353262804448604583740234375" lon="-5.1444284431636333465576171875">
        <ele>155.600006103515625</ele>
        <time>2019-07-11T17:17:14.000Z</time>
      </trkpt>
      <trkpt lat="43.3532639779150485992431640625" lon="-5.14455668628215789794921875">
        <ele>156.1999969482421875</ele>
        <time>2019-07-11T17:17:15.000Z</time>
      </trkpt>
      <trkpt lat="43.3532847650349140167236328125" lon="-5.1446788944303989410400390625">
        <ele>156.8000030517578125</ele>
        <time>2019-07-11T17:17:16.000Z</time>
      </trkpt>
      <trkpt lat="43.35332147777080535888671875" lon="-5.14479716308414936065673828125">
        <ele>157.399993896484375</ele>
        <time>2019-07-11T17:17:17.000Z</time>
      </trkpt>
      <trkpt lat="43.353376127779483795166015625" lon="-5.14490830712020397186279296875">
        <ele>158</ele>
        <time>2019-07-11T17:17:18.000Z</time>
      </trkpt>
      <trkpt lat="43.3534416742622852325439453125" lon="-5.1450188644230365753173828125">
        <ele>158.600006103515625</ele>
        <time>2019-07-11T17:17:19.000Z</time>
      </trkpt>
      <trkpt lat="43.353584669530391693115234375" lon="-5.1452562399208545684814453125">
        <ele>159.8000030517578125</ele>
        <time>2019-07-11T17:17:21.000Z</time>
      </trkpt>
      <trkpt lat="43.35371500812470912933349609375" lon="-5.14549269340932369232177734375">
        <ele>161.600006103515625</ele>
        <time>2019-07-11T17:17:23.000Z</time>
      </trkpt>
      <trkpt lat="43.353756330907344818115234375" lon="-5.145600400865077972412109375">
        <ele>162.600006103515625</ele>
        <time>2019-07-11T17:17:24.000Z</time>
      </trkpt>
      <trkpt lat="43.353779129683971405029296875" lon="-5.14570844359695911407470703125">
        <ele>163.8000030517578125</ele>
        <time>2019-07-11T17:17:25.000Z</time>
      </trkpt>
      <trkpt lat="43.3537853322923183441162109375" lon="-5.1458195038139820098876953125">
        <ele>164.8000030517578125</ele>
        <time>2019-07-11T17:17:26.000Z</time>
      </trkpt>
      <trkpt lat="43.3537813089787960052490234375" lon="-5.14601488597691059112548828125">
        <ele>166.600006103515625</ele>
        <time>2019-07-11T17:17:28.000Z</time>
      </trkpt>
      <trkpt lat="43.35378474555909633636474609375" lon="-5.146092586219310760498046875">
        <ele>167.399993896484375</ele>
        <time>2019-07-11T17:17:29.000Z</time>
      </trkpt>
      <trkpt lat="43.35379798896610736846923828125" lon="-5.1461648382246494293212890625">
        <ele>168.600006103515625</ele>
        <time>2019-07-11T17:17:30.000Z</time>
      </trkpt>
      <trkpt lat="43.3538302592933177947998046875" lon="-5.1462278701364994049072265625">
        <ele>169.600006103515625</ele>
        <time>2019-07-11T17:17:31.000Z</time>
      </trkpt>
      <trkpt lat="43.35394643247127532958984375" lon="-5.14627271331846714019775390625">
        <ele>171.1999969482421875</ele>
        <time>2019-07-11T17:17:33.000Z</time>
      </trkpt>
      <trkpt lat="43.35410074330866336822509765625" lon="-5.14625695534050464630126953125">
        <ele>171.8000030517578125</ele>
        <time>2019-07-11T17:17:35.000Z</time>
      </trkpt>
      <trkpt lat="43.35417618043720722198486328125" lon="-5.1462674327194690704345703125">
        <ele>172.399993896484375</ele>
        <time>2019-07-11T17:17:36.000Z</time>
      </trkpt>
      <trkpt lat="43.3542381227016448974609375" lon="-5.14631428755819797515869140625">
        <ele>173</ele>
        <time>2019-07-11T17:17:37.000Z</time>
      </trkpt>
      <trkpt lat="43.35429050959646701812744140625" lon="-5.146398358047008514404296875">
        <ele>173.600006103515625</ele>
        <time>2019-07-11T17:17:38.000Z</time>
      </trkpt>
      <trkpt lat="43.35433158092200756072998046875" lon="-5.1465046405792236328125">
        <ele>174.1999969482421875</ele>
        <time>2019-07-11T17:17:39.000Z</time>
      </trkpt>
      <trkpt lat="43.3543633483350276947021484375" lon="-5.146614275872707366943359375">
        <ele>174.600006103515625</ele>
        <time>2019-07-11T17:17:40.000Z</time>
      </trkpt>
      <trkpt lat="43.354411460459232330322265625" lon="-5.14691166579723358154296875">
        <ele>175.8000030517578125</ele>
        <time>2019-07-11T17:17:43.000Z</time>
      </trkpt>
      <trkpt lat="43.3544169925153255462646484375" lon="-5.14699749648571014404296875">
        <ele>176</ele>
        <time>2019-07-11T17:17:44.000Z</time>
      </trkpt>
      <trkpt lat="43.354426212608814239501953125" lon="-5.147228501737117767333984375">
        <ele>177</ele>
        <time>2019-07-11T17:17:48.000Z</time>
      </trkpt>
      <trkpt lat="43.3544796891510486602783203125" lon="-5.147258006036281585693359375">
        <ele>177.8000030517578125</ele>
        <time>2019-07-11T17:17:50.000Z</time>
      </trkpt>
      <trkpt lat="43.35452578961849212646484375" lon="-5.14724920503795146942138671875">
        <ele>178</ele>
        <time>2019-07-11T17:17:51.000Z</time>
      </trkpt>
      <trkpt lat="43.354581110179424285888671875" lon="-5.14723948203027248382568359375">
        <ele>178.1999969482421875</ele>
        <time>2019-07-11T17:17:52.000Z</time>
      </trkpt>
      <trkpt lat="43.354756794869899749755859375" lon="-5.14725926332175731658935546875">
        <ele>177.1999969482421875</ele>
        <time>2019-07-11T17:17:55.000Z</time>
      </trkpt>
      <trkpt lat="43.354821503162384033203125" lon="-5.14727451838552951812744140625">
        <ele>176.600006103515625</ele>
        <time>2019-07-11T17:17:56.000Z</time>
      </trkpt>
      <trkpt lat="43.35497061721980571746826171875" lon="-5.1473138295114040374755859375">
        <ele>175.399993896484375</ele>
        <time>2019-07-11T17:17:58.000Z</time>
      </trkpt>
      <trkpt lat="43.35504773072898387908935546875" lon="-5.14733721502125263214111328125">
        <ele>174.1999969482421875</ele>
        <time>2019-07-11T17:17:59.000Z</time>
      </trkpt>
      <trkpt lat="43.35518418811261653900146484375" lon="-5.14738415367901325225830078125">
        <ele>172.399993896484375</ele>
        <time>2019-07-11T17:18:01.000Z</time>
      </trkpt>
      <trkpt lat="43.35529684089124202728271484375" lon="-5.1474248059093952178955078125">
        <ele>171</ele>
        <time>2019-07-11T17:18:03.000Z</time>
      </trkpt>
      <trkpt lat="43.35534344427287578582763671875" lon="-5.1474474370479583740234375">
        <ele>170.8000030517578125</ele>
        <time>2019-07-11T17:18:04.000Z</time>
      </trkpt>
      <trkpt lat="43.35543246008455753326416015625" lon="-5.14752262271940708160400390625">
        <ele>171</ele>
        <time>2019-07-11T17:18:06.000Z</time>
      </trkpt>
      <trkpt lat="43.3555636368691921234130859375" lon="-5.147686488926410675048828125">
        <ele>171</ele>
        <time>2019-07-11T17:18:09.000Z</time>
      </trkpt>
      <trkpt lat="43.35567352361977100372314453125" lon="-5.1477446593344211578369140625">
        <ele>170.1999969482421875</ele>
        <time>2019-07-11T17:18:11.000Z</time>
      </trkpt>
      <trkpt lat="43.35572817362844944000244140625" lon="-5.147753544151782989501953125">
        <ele>169.600006103515625</ele>
        <time>2019-07-11T17:18:12.000Z</time>
      </trkpt>
      <trkpt lat="43.355787098407745361328125" lon="-5.14775530435144901275634765625">
        <ele>169.1999969482421875</ele>
        <time>2019-07-11T17:18:13.000Z</time>
      </trkpt>
      <trkpt lat="43.35592363961040973663330078125" lon="-5.14771456830203533172607421875">
        <ele>168.600006103515625</ele>
        <time>2019-07-11T17:18:15.000Z</time>
      </trkpt>
      <trkpt lat="43.356380201876163482666015625" lon="-5.14750309288501739501953125">
        <ele>168.399993896484375</ele>
        <time>2019-07-11T17:18:21.000Z</time>
      </trkpt>
      <trkpt lat="43.35659067146480083465576171875" lon="-5.14728088863193988800048828125">
        <ele>168.399993896484375</ele>
        <time>2019-07-11T17:18:25.000Z</time>
      </trkpt>
      <trkpt lat="43.356699384748935699462890625" lon="-5.14721483923494815826416015625">
        <ele>168.1999969482421875</ele>
        <time>2019-07-11T17:18:27.000Z</time>
      </trkpt>
      <trkpt lat="43.35682150907814502716064453125" lon="-5.14720528386533260345458984375">
        <ele>167.8000030517578125</ele>
        <time>2019-07-11T17:18:29.000Z</time>
      </trkpt>
      <trkpt lat="43.35693986155092716217041015625" lon="-5.14724568463861942291259765625">
        <ele>167.600006103515625</ele>
        <time>2019-07-11T17:18:31.000Z</time>
      </trkpt>
      <trkpt lat="43.35716164670884609222412109375" lon="-5.14725792221724987030029296875">
        <ele>167.8000030517578125</ele>
        <time>2019-07-11T17:18:35.000Z</time>
      </trkpt>
      <trkpt lat="43.35726474411785602569580078125" lon="-5.1473014242947101593017578125">
        <ele>167.8000030517578125</ele>
        <time>2019-07-11T17:18:37.000Z</time>
      </trkpt>
      <trkpt lat="43.35746389813721179962158203125" lon="-5.1474838145077228546142578125">
        <ele>167.8000030517578125</ele>
        <time>2019-07-11T17:18:41.000Z</time>
      </trkpt>
      <trkpt lat="43.35764980874955654144287109375" lon="-5.14784096740186214447021484375">
        <ele>169.8000030517578125</ele>
        <time>2019-07-11T17:18:48.000Z</time>
      </trkpt>
      <trkpt lat="43.357648886740207672119140625" lon="-5.1478777639567852020263671875">
        <ele>170.1999969482421875</ele>
        <time>2019-07-11T17:18:49.000Z</time>
      </trkpt>
      <trkpt lat="43.35762466304004192352294921875" lon="-5.1479055918753147125244140625">
        <ele>171.1999969482421875</ele>
        <time>2019-07-11T17:18:51.000Z</time>
      </trkpt>
      <trkpt lat="43.35759901441633701324462890625" lon="-5.14789913780987262725830078125">
        <ele>171.8000030517578125</ele>
        <time>2019-07-11T17:18:52.000Z</time>
      </trkpt>
      <trkpt lat="43.3575659058988094329833984375" lon="-5.1478767581284046173095703125">
        <ele>172.1999969482421875</ele>
        <time>2019-07-11T17:18:53.000Z</time>
      </trkpt>
      <trkpt lat="43.35752055980265140533447265625" lon="-5.14785043895244598388671875">
        <ele>172.600006103515625</ele>
        <time>2019-07-11T17:18:54.000Z</time>
      </trkpt>
      <trkpt lat="43.3574187196791172027587890625" lon="-5.14782085083425045013427734375">
        <ele>173.399993896484375</ele>
        <time>2019-07-11T17:18:56.000Z</time>
      </trkpt>
      <trkpt lat="43.3573463000357151031494140625" lon="-5.147853791713714599609375">
        <ele>174.8000030517578125</ele>
        <time>2019-07-11T17:18:58.000Z</time>
      </trkpt>
      <trkpt lat="43.357322327792644500732421875" lon="-5.14796803705394268035888671875">
        <ele>176.1999969482421875</ele>
        <time>2019-07-11T17:19:00.000Z</time>
      </trkpt>
      <trkpt lat="43.35732509382069110870361328125" lon="-5.14817272312939167022705078125">
        <ele>177.1999969482421875</ele>
        <time>2019-07-11T17:19:02.000Z</time>
      </trkpt>
      <trkpt lat="43.35733783431351184844970703125" lon="-5.14854202978312969207763671875">
        <ele>178.399993896484375</ele>
        <time>2019-07-11T17:19:05.000Z</time>
      </trkpt>
      <trkpt lat="43.35733984597027301788330078125" lon="-5.14873431064188480377197265625">
        <ele>179.600006103515625</ele>
        <time>2019-07-11T17:19:07.000Z</time>
      </trkpt>
      <trkpt lat="43.3573382534086704254150390625" lon="-5.1488306187093257904052734375">
        <ele>181.1999969482421875</ele>
        <time>2019-07-11T17:19:09.000Z</time>
      </trkpt>
      <trkpt lat="43.3573372475802898406982421875" lon="-5.1488410122692584991455078125">
        <ele>182.1999969482421875</ele>
        <time>2019-07-11T17:19:10.000Z</time>
      </trkpt>
      <trkpt lat="43.3573352359235286712646484375" lon="-5.14884092845022678375244140625">
        <ele>183.1999969482421875</ele>
        <time>2019-07-11T17:19:11.000Z</time>
      </trkpt>
      <trkpt lat="43.35733414627611637115478515625" lon="-5.1488368213176727294921875">
        <ele>184.399993896484375</ele>
        <time>2019-07-11T17:19:13.000Z</time>
      </trkpt>
      <trkpt lat="43.35726826451718807220458984375" lon="-5.14887898229062557220458984375">
        <ele>184.8000030517578125</ele>
        <time>2019-07-11T17:19:39.000Z</time>
      </trkpt>
      <trkpt lat="43.35719550959765911102294921875" lon="-5.14863607473671436309814453125">
        <ele>185.1999969482421875</ele>
        <time>2019-07-11T17:19:43.000Z</time>
      </trkpt>
      <trkpt lat="43.35714622400701045989990234375" lon="-5.14853130094707012176513671875">
        <ele>185.8000030517578125</ele>
        <time>2019-07-11T17:19:45.000Z</time>
      </trkpt>
      <trkpt lat="43.3570901490747928619384765625" lon="-5.148497857153415679931640625">
        <ele>187</ele>
        <time>2019-07-11T17:19:47.000Z</time>
      </trkpt>
      <trkpt lat="43.35704061202704906463623046875" lon="-5.14852610416710376739501953125">
        <ele>188.1999969482421875</ele>
        <time>2019-07-11T17:19:49.000Z</time>
      </trkpt>
      <trkpt lat="43.35702401585876941680908203125" lon="-5.1486267708241939544677734375">
        <ele>189</ele>
        <time>2019-07-11T17:19:51.000Z</time>
      </trkpt>
      <trkpt lat="43.35702770389616489410400390625" lon="-5.14869357459247112274169921875">
        <ele>189.1999969482421875</ele>
        <time>2019-07-11T17:19:52.000Z</time>
      </trkpt>
      <trkpt lat="43.357068859040737152099609375" lon="-5.1488138549029827117919921875">
        <ele>190.399993896484375</ele>
        <time>2019-07-11T17:19:55.000Z</time>
      </trkpt>
      <trkpt lat="43.35708838887512683868408203125" lon="-5.1488742046058177947998046875">
        <ele>191.600006103515625</ele>
        <time>2019-07-11T17:19:58.000Z</time>
      </trkpt>
      <trkpt lat="43.35708168335258960723876953125" lon="-5.14892122708261013031005859375">
        <ele>192</ele>
        <time>2019-07-11T17:20:01.000Z</time>
      </trkpt>
      <trkpt lat="43.357080258429050445556640625" lon="-5.1489637233316898345947265625">
        <ele>192.600006103515625</ele>
        <time>2019-07-11T17:20:08.000Z</time>
      </trkpt>
      <trkpt lat="43.357080258429050445556640625" lon="-5.1489637233316898345947265625">
        <ele>192.8000030517578125</ele>
        <time>2019-07-11T17:20:19.000Z</time>
      </trkpt>
      <trkpt lat="43.35708419792354106903076171875" lon="-5.14896112494170665740966796875">
        <ele>192</ele>
        <time>2019-07-11T17:21:07.000Z</time>
      </trkpt>
      <trkpt lat="43.3571032248437404632568359375" lon="-5.14895550906658172607421875">
        <ele>191.8000030517578125</ele>
        <time>2019-07-11T17:21:40.000Z</time>
      </trkpt>
      <trkpt lat="43.35709878243505954742431640625" lon="-5.1489540003240108489990234375">
        <ele>192</ele>
        <time>2019-07-11T17:21:50.000Z</time>
      </trkpt>
      <trkpt lat="43.35711303167045116424560546875" lon="-5.1489027030766010284423828125">
        <ele>191.600006103515625</ele>
        <time>2019-07-11T17:21:58.000Z</time>
      </trkpt>
      <trkpt lat="43.35719014517962932586669921875" lon="-5.148962549865245819091796875">
        <ele>191.399993896484375</ele>
        <time>2019-07-11T17:22:34.000Z</time>
      </trkpt>
      <trkpt lat="43.3571987785398960113525390625" lon="-5.1489741168916225433349609375">
        <ele>191.1999969482421875</ele>
        <time>2019-07-11T17:22:35.000Z</time>
      </trkpt>
      <trkpt lat="43.3572209067642688751220703125" lon="-5.1491259969770908355712890625">
        <ele>191.1999969482421875</ele>
        <time>2019-07-11T17:22:57.000Z</time>
      </trkpt>
      <trkpt lat="43.35722585208714008331298828125" lon="-5.1491565071046352386474609375">
        <ele>191.1999969482421875</ele>
        <time>2019-07-11T17:24:05.000Z</time>
      </trkpt>
      <trkpt lat="43.357225097715854644775390625" lon="-5.149192549288272857666015625">
        <ele>191</ele>
        <time>2019-07-11T17:24:08.000Z</time>
      </trkpt>
      <trkpt lat="43.35722937248647212982177734375" lon="-5.14926823787391185760498046875">
        <ele>191</ele>
        <time>2019-07-11T17:24:15.000Z</time>
      </trkpt>
      <trkpt lat="43.3572319708764553070068359375" lon="-5.149281062185764312744140625">
        <ele>191</ele>
        <time>2019-07-11T17:24:16.000Z</time>
      </trkpt>
      <trkpt lat="43.357190228998661041259765625" lon="-5.1493311859667301177978515625">
        <ele>191.399993896484375</ele>
        <time>2019-07-11T17:24:25.000Z</time>
      </trkpt>
      <trkpt lat="43.35717740468680858612060546875" lon="-5.14933160506188869476318359375">
        <ele>191.8000030517578125</ele>
        <time>2019-07-11T17:24:40.000Z</time>
      </trkpt>
      <trkpt lat="43.35711102001368999481201171875" lon="-5.1492404937744140625">
        <ele>192</ele>
        <time>2019-07-11T17:25:53.000Z</time>
      </trkpt>
      <trkpt lat="43.35715058259665966033935546875" lon="-5.14874721877276897430419921875">
        <ele>194.600006103515625</ele>
        <time>2019-07-12T05:38:25.000Z</time>
      </trkpt>
      <trkpt lat="43.35711705498397350311279296875" lon="-5.14849760569632053375244140625">
        <ele>193.8000030517578125</ele>
        <time>2019-07-12T05:38:31.000Z</time>
      </trkpt>
      <trkpt lat="43.35712744854390621185302734375" lon="-5.1484594680368900299072265625">
        <ele>193.399993896484375</ele>
        <time>2019-07-12T05:38:32.000Z</time>
      </trkpt>
      <trkpt lat="43.35717556066811084747314453125" lon="-5.14842250384390354156494140625">
        <ele>192.8000030517578125</ele>
        <time>2019-07-12T05:38:34.000Z</time>
      </trkpt>
      <trkpt lat="43.357202969491481781005859375" lon="-5.14842837117612361907958984375">
        <ele>192.399993896484375</ele>
        <time>2019-07-12T05:38:35.000Z</time>
      </trkpt>
      <trkpt lat="43.35726566612720489501953125" lon="-5.14850280247628688812255859375">
        <ele>191.1999969482421875</ele>
        <time>2019-07-12T05:38:38.000Z</time>
      </trkpt>
      <trkpt lat="43.35729592479765415191650390625" lon="-5.1485919021070003509521484375">
        <ele>190</ele>
        <time>2019-07-12T05:38:42.000Z</time>
      </trkpt>
      <trkpt lat="43.3573121018707752227783203125" lon="-5.148663818836212158203125">
        <ele>189.1999969482421875</ele>
        <time>2019-07-12T05:38:46.000Z</time>
      </trkpt>
      <trkpt lat="43.3573172986507415771484375" lon="-5.148699022829532623291015625">
        <ele>188.8000030517578125</ele>
        <time>2019-07-12T05:38:48.000Z</time>
      </trkpt>
      <trkpt lat="43.3573307096958160400390625" lon="-5.14877672307193279266357421875">
        <ele>188.399993896484375</ele>
        <time>2019-07-12T05:38:52.000Z</time>
      </trkpt>
      <trkpt lat="43.35738376714289188385009765625" lon="-5.14880773611366748809814453125">
        <ele>187.8000030517578125</ele>
        <time>2019-07-12T05:38:56.000Z</time>
      </trkpt>
      <trkpt lat="43.357395417988300323486328125" lon="-5.14879801310598850250244140625">
        <ele>187.600006103515625</ele>
        <time>2019-07-12T05:38:57.000Z</time>
      </trkpt>
      <trkpt lat="43.35735962726175785064697265625" lon="-5.1486512459814548492431640625">
        <ele>186.600006103515625</ele>
        <time>2019-07-12T05:40:30.000Z</time>
      </trkpt>
      <trkpt lat="43.35735895670950412750244140625" lon="-5.1485070772469043731689453125">
        <ele>185.399993896484375</ele>
        <time>2019-07-12T05:40:33.000Z</time>
      </trkpt>
      <trkpt lat="43.357340432703495025634765625" lon="-5.1480876468122005462646484375">
        <ele>184.1999969482421875</ele>
        <time>2019-07-12T05:40:39.000Z</time>
      </trkpt>
      <trkpt lat="43.35734185762703418731689453125" lon="-5.14794607646763324737548828125">
        <ele>183</ele>
        <time>2019-07-12T05:40:41.000Z</time>
      </trkpt>
      <trkpt lat="43.35734554566442966461181640625" lon="-5.1478350162506103515625">
        <ele>181.8000030517578125</ele>
        <time>2019-07-12T05:40:43.000Z</time>
      </trkpt>
      <trkpt lat="43.357361890375614166259765625" lon="-5.147794447839260101318359375">
        <ele>181.399993896484375</ele>
        <time>2019-07-12T05:40:44.000Z</time>
      </trkpt>
      <trkpt lat="43.3574368245899677276611328125" lon="-5.1477567292749881744384765625">
        <ele>180.399993896484375</ele>
        <time>2019-07-12T05:40:46.000Z</time>
      </trkpt>
      <trkpt lat="43.3575290255248546600341796875" lon="-5.14778916724026203155517578125">
        <ele>179.399993896484375</ele>
        <time>2019-07-12T05:40:48.000Z</time>
      </trkpt>
      <trkpt lat="43.35756699554622173309326171875" lon="-5.1478154025971889495849609375">
        <ele>178.600006103515625</ele>
        <time>2019-07-12T05:40:49.000Z</time>
      </trkpt>
      <trkpt lat="43.3575994335114955902099609375" lon="-5.1478348486125469207763671875">
        <ele>177.8000030517578125</ele>
        <time>2019-07-12T05:40:50.000Z</time>
      </trkpt>
      <trkpt lat="43.35762818343937397003173828125" lon="-5.1478375308215618133544921875">
        <ele>177</ele>
        <time>2019-07-12T05:40:51.000Z</time>
      </trkpt>
      <trkpt lat="43.35764796473085880279541015625" lon="-5.1478167437016963958740234375">
        <ele>176.399993896484375</ele>
        <time>2019-07-12T05:40:52.000Z</time>
      </trkpt>
      <trkpt lat="43.3576604537665843963623046875" lon="-5.1477828808128833770751953125">
        <ele>175.8000030517578125</ele>
        <time>2019-07-12T05:40:53.000Z</time>
      </trkpt>
      <trkpt lat="43.35764813236892223358154296875" lon="-5.14768556691706180572509765625">
        <ele>175</ele>
        <time>2019-07-12T05:40:55.000Z</time>
      </trkpt>
      <trkpt lat="43.3575910516083240509033203125" lon="-5.1475957967340946197509765625">
        <ele>173.600006103515625</ele>
        <time>2019-07-12T05:40:57.000Z</time>
      </trkpt>
      <trkpt lat="43.35752340964972972869873046875" lon="-5.14750820584595203399658203125">
        <ele>172.399993896484375</ele>
        <time>2019-07-12T05:40:59.000Z</time>
      </trkpt>
      <trkpt lat="43.35739550180733203887939453125" lon="-5.1473470218479633331298828125">
        <ele>171.399993896484375</ele>
        <time>2019-07-12T05:41:02.000Z</time>
      </trkpt>
      <trkpt lat="43.35723959840834140777587890625" lon="-5.14722120948135852813720703125">
        <ele>170.1999969482421875</ele>
        <time>2019-07-12T05:41:05.000Z</time>
      </trkpt>
      <trkpt lat="43.35707967169582843780517578125" lon="-5.14720058999955654144287109375">
        <ele>171</ele>
        <time>2019-07-12T05:41:16.000Z</time>
      </trkpt>
      <trkpt lat="43.3569251932203769683837890625" lon="-5.1472058705985546112060546875">
        <ele>170.399993896484375</ele>
        <time>2019-07-12T05:41:19.000Z</time>
      </trkpt>
      <trkpt lat="43.35683374665677547454833984375" lon="-5.14718256890773773193359375">
        <ele>169.8000030517578125</ele>
        <time>2019-07-12T05:41:21.000Z</time>
      </trkpt>
      <trkpt lat="43.356742970645427703857421875" lon="-5.14716052450239658355712890625">
        <ele>169.399993896484375</ele>
        <time>2019-07-12T05:41:23.000Z</time>
      </trkpt>
      <trkpt lat="43.35665269754827022552490234375" lon="-5.1471834070980548858642578125">
        <ele>169.600006103515625</ele>
        <time>2019-07-12T05:41:25.000Z</time>
      </trkpt>
      <trkpt lat="43.356564939022064208984375" lon="-5.14724115841090679168701171875">
        <ele>170</ele>
        <time>2019-07-12T05:41:27.000Z</time>
      </trkpt>
      <trkpt lat="43.35642906837165355682373046875" lon="-5.147408880293369293212890625">
        <ele>170.1999969482421875</ele>
        <time>2019-07-12T05:41:30.000Z</time>
      </trkpt>
      <trkpt lat="43.356302417814731597900390625" lon="-5.14750175178050994873046875">
        <ele>170.399993896484375</ele>
        <time>2019-07-12T05:41:32.000Z</time>
      </trkpt>
      <trkpt lat="43.35594870150089263916015625" lon="-5.14766846783459186553955078125">
        <ele>171.1999969482421875</ele>
        <time>2019-07-12T05:41:38.000Z</time>
      </trkpt>
      <trkpt lat="43.35588860325515270233154296875" lon="-5.14769562520086765289306640625">
        <ele>171.399993896484375</ele>
        <time>2019-07-12T05:41:39.000Z</time>
      </trkpt>
      <trkpt lat="43.35575759410858154296875" lon="-5.14773099683225154876708984375">
        <ele>171.1999969482421875</ele>
        <time>2019-07-12T05:41:41.000Z</time>
      </trkpt>
      <trkpt lat="43.35563614033162593841552734375" lon="-5.147709287703037261962890625">
        <ele>170.399993896484375</ele>
        <time>2019-07-12T05:41:43.000Z</time>
      </trkpt>
      <trkpt lat="43.35558216087520122528076171875" lon="-5.1476843096315860748291015625">
        <ele>170.1999969482421875</ele>
        <time>2019-07-12T05:41:44.000Z</time>
      </trkpt>
      <trkpt lat="43.3555341325700283050537109375" lon="-5.14765220694243907928466796875">
        <ele>170</ele>
        <time>2019-07-12T05:41:45.000Z</time>
      </trkpt>
      <trkpt lat="43.3553463779389858245849609375" lon="-5.14745271764695644378662109375">
        <ele>171.600006103515625</ele>
        <time>2019-07-12T05:41:50.000Z</time>
      </trkpt>
      <trkpt lat="43.35525359027087688446044921875" lon="-5.14738105237483978271484375">
        <ele>172.8000030517578125</ele>
        <time>2019-07-12T05:41:52.000Z</time>
      </trkpt>
      <trkpt lat="43.35498402826488018035888671875" lon="-5.1472742669284343719482421875">
        <ele>173.1999969482421875</ele>
        <time>2019-07-12T05:41:56.000Z</time>
      </trkpt>
      <trkpt lat="43.35466551594436168670654296875" lon="-5.1471783779561519622802734375">
        <ele>174</ele>
        <time>2019-07-12T05:42:01.000Z</time>
      </trkpt>
      <trkpt lat="43.35460818372666835784912109375" lon="-5.14716555364429950714111328125">
        <ele>175</ele>
        <time>2019-07-12T05:42:02.000Z</time>
      </trkpt>
      <trkpt lat="43.3545492589473724365234375" lon="-5.14716119505465030670166015625">
        <ele>176.600006103515625</ele>
        <time>2019-07-12T05:42:03.000Z</time>
      </trkpt>
      <trkpt lat="43.35445948876440525054931640625" lon="-5.147168822586536407470703125">
        <ele>178.600006103515625</ele>
        <time>2019-07-12T05:42:05.000Z</time>
      </trkpt>
      <trkpt lat="43.3544267155230045318603515625" lon="-5.1471824012696743011474609375">
        <ele>179.600006103515625</ele>
        <time>2019-07-12T05:42:07.000Z</time>
      </trkpt>
      <trkpt lat="43.354415483772754669189453125" lon="-5.147176198661327362060546875">
        <ele>181</ele>
        <time>2019-07-12T05:42:10.000Z</time>
      </trkpt>
      <trkpt lat="43.3543851412832736968994140625" lon="-5.1471602730453014373779296875">
        <ele>181.399993896484375</ele>
        <time>2019-07-12T05:42:14.000Z</time>
      </trkpt>
      <trkpt lat="43.3543677069246768951416015625" lon="-5.14706362970173358917236328125">
        <ele>181.399993896484375</ele>
        <time>2019-07-12T05:42:16.000Z</time>
      </trkpt>
      <trkpt lat="43.354342393577098846435546875" lon="-5.1466945745050907135009765625">
        <ele>180.399993896484375</ele>
        <time>2019-07-12T05:42:19.000Z</time>
      </trkpt>
      <trkpt lat="43.3543157391250133514404296875" lon="-5.1465571112930774688720703125">
        <ele>179.600006103515625</ele>
        <time>2019-07-12T05:42:20.000Z</time>
      </trkpt>
      <trkpt lat="43.35424642078578472137451171875" lon="-5.1463344879448413848876953125">
        <ele>178.1999969482421875</ele>
        <time>2019-07-12T05:42:22.000Z</time>
      </trkpt>
      <trkpt lat="43.3541531302034854888916015625" lon="-5.1462154649198055267333984375">
        <ele>177.8000030517578125</ele>
        <time>2019-07-12T05:42:24.000Z</time>
      </trkpt>
      <trkpt lat="43.3540019206702709197998046875" lon="-5.1461990363895893096923828125">
        <ele>177.600006103515625</ele>
        <time>2019-07-12T05:42:26.000Z</time>
      </trkpt>
      <trkpt lat="43.353842832148075103759765625" lon="-5.1462124474346637725830078125">
        <ele>177.600006103515625</ele>
        <time>2019-07-12T05:42:28.000Z</time>
      </trkpt>
      <trkpt lat="43.3537781238555908203125" lon="-5.14618101529777050018310546875">
        <ele>177</ele>
        <time>2019-07-12T05:42:29.000Z</time>
      </trkpt>
      <trkpt lat="43.3537407405674457550048828125" lon="-5.14611965976655483245849609375">
        <ele>176.1999969482421875</ele>
        <time>2019-07-12T05:42:30.000Z</time>
      </trkpt>
      <trkpt lat="43.3537196181714534759521484375" lon="-5.14604003168642520904541015625">
        <ele>175.600006103515625</ele>
        <time>2019-07-12T05:42:31.000Z</time>
      </trkpt>
      <trkpt lat="43.353721797466278076171875" lon="-5.1459438912570476531982421875">
        <ele>175</ele>
        <time>2019-07-12T05:42:32.000Z</time>
      </trkpt>
      <trkpt lat="43.3537350408732891082763671875" lon="-5.14583920128643512725830078125">
        <ele>174.600006103515625</ele>
        <time>2019-07-12T05:42:33.000Z</time>
      </trkpt>
      <trkpt lat="43.353743255138397216796875" lon="-5.14573124237358570098876953125">
        <ele>174</ele>
        <time>2019-07-12T05:42:34.000Z</time>
      </trkpt>
      <trkpt lat="43.35373847745358943939208984375" lon="-5.14562076888978481292724609375">
        <ele>173.399993896484375</ele>
        <time>2019-07-12T05:42:35.000Z</time>
      </trkpt>
      <trkpt lat="43.35371366702020168304443359375" lon="-5.1455080322921276092529296875">
        <ele>172.8000030517578125</ele>
        <time>2019-07-12T05:42:36.000Z</time>
      </trkpt>
      <trkpt lat="43.353677876293659210205078125" lon="-5.14539353549480438232421875">
        <ele>172</ele>
        <time>2019-07-12T05:42:37.000Z</time>
      </trkpt>
      <trkpt lat="43.35362398065626621246337890625" lon="-5.1452904380857944488525390625">
        <ele>171.1999969482421875</ele>
        <time>2019-07-12T05:42:38.000Z</time>
      </trkpt>
      <trkpt lat="43.353561200201511383056640625" lon="-5.14519245363771915435791015625">
        <ele>170.1999969482421875</ele>
        <time>2019-07-12T05:42:39.000Z</time>
      </trkpt>
      <trkpt lat="43.3534991741180419921875" lon="-5.14509522356092929840087890625">
        <ele>169.1999969482421875</ele>
        <time>2019-07-12T05:42:40.000Z</time>
      </trkpt>
      <trkpt lat="43.35344242863357067108154296875" lon="-5.144990868866443634033203125">
        <ele>168</ele>
        <time>2019-07-12T05:42:41.000Z</time>
      </trkpt>
      <trkpt lat="43.35332793183624744415283203125" lon="-5.1447848416864871978759765625">
        <ele>166.1999969482421875</ele>
        <time>2019-07-12T05:42:43.000Z</time>
      </trkpt>
      <trkpt lat="43.3532859385013580322265625" lon="-5.14467629604041576385498046875">
        <ele>165.600006103515625</ele>
        <time>2019-07-12T05:42:44.000Z</time>
      </trkpt>
      <trkpt lat="43.3532633073627948760986328125" lon="-5.14456280507147312164306640625">
        <ele>164.8000030517578125</ele>
        <time>2019-07-12T05:42:45.000Z</time>
      </trkpt>
      <trkpt lat="43.353254757821559906005859375" lon="-5.14444612897932529449462890625">
        <ele>164.1999969482421875</ele>
        <time>2019-07-12T05:42:46.000Z</time>
      </trkpt>
      <trkpt lat="43.353255428373813629150390625" lon="-5.1443281956017017364501953125">
        <ele>163.399993896484375</ele>
        <time>2019-07-12T05:42:47.000Z</time>
      </trkpt>
      <trkpt lat="43.3532663248479366302490234375" lon="-5.14420841820538043975830078125">
        <ele>162.8000030517578125</ele>
        <time>2019-07-12T05:42:48.000Z</time>
      </trkpt>
      <trkpt lat="43.3532845973968505859375" lon="-5.1440847851336002349853515625">
        <ele>162</ele>
        <time>2019-07-12T05:42:49.000Z</time>
      </trkpt>
      <trkpt lat="43.35332122631371021270751953125" lon="-5.14382419176399707794189453125">
        <ele>160.600006103515625</ele>
        <time>2019-07-12T05:42:51.000Z</time>
      </trkpt>
      <trkpt lat="43.35332457907497882843017578125" lon="-5.14368362724781036376953125">
        <ele>159.8000030517578125</ele>
        <time>2019-07-12T05:42:52.000Z</time>
      </trkpt>
      <trkpt lat="43.3533125929534435272216796875" lon="-5.1435496844351291656494140625">
        <ele>158.8000030517578125</ele>
        <time>2019-07-12T05:42:53.000Z</time>
      </trkpt>
      <trkpt lat="43.3533048816025257110595703125" lon="-5.14342077076435089111328125">
        <ele>157.600006103515625</ele>
        <time>2019-07-12T05:42:54.000Z</time>
      </trkpt>
      <trkpt lat="43.35327797569334506988525390625" lon="-5.1433099620044231414794921875">
        <ele>156.8000030517578125</ele>
        <time>2019-07-12T05:42:55.000Z</time>
      </trkpt>
      <trkpt lat="43.35324076004326343536376953125" lon="-5.14321818016469478607177734375">
        <ele>156.399993896484375</ele>
        <time>2019-07-12T05:42:56.000Z</time>
      </trkpt>
      <trkpt lat="43.3532140217721462249755859375" lon="-5.143127739429473876953125">
        <ele>156.1999969482421875</ele>
        <time>2019-07-12T05:42:57.000Z</time>
      </trkpt>
      <trkpt lat="43.3531939052045345306396484375" lon="-5.14295515604317188262939453125">
        <ele>156.600006103515625</ele>
        <time>2019-07-12T05:42:59.000Z</time>
      </trkpt>
      <trkpt lat="43.3532314561307430267333984375" lon="-5.142663381993770599365234375">
        <ele>156.600006103515625</ele>
        <time>2019-07-12T05:43:02.000Z</time>
      </trkpt>
      <trkpt lat="43.35337252356112003326416015625" lon="-5.1422115974128246307373046875">
        <ele>155</ele>
        <time>2019-07-12T05:43:06.000Z</time>
      </trkpt>
      <trkpt lat="43.35339146666228771209716796875" lon="-5.14208905398845672607421875">
        <ele>154.399993896484375</ele>
        <time>2019-07-12T05:43:07.000Z</time>
      </trkpt>
      <trkpt lat="43.3533860184252262115478515625" lon="-5.1419691927731037139892578125">
        <ele>153.600006103515625</ele>
        <time>2019-07-12T05:43:08.000Z</time>
      </trkpt>
      <trkpt lat="43.35334855131804943084716796875" lon="-5.14185704290866851806640625">
        <ele>152.8000030517578125</ele>
        <time>2019-07-12T05:43:09.000Z</time>
      </trkpt>
      <trkpt lat="43.3532914705574512481689453125" lon="-5.14174715615808963775634765625">
        <ele>151.8000030517578125</ele>
        <time>2019-07-12T05:43:10.000Z</time>
      </trkpt>
      <trkpt lat="43.3532215654850006103515625" lon="-5.1416272111237049102783203125">
        <ele>150.600006103515625</ele>
        <time>2019-07-12T05:43:11.000Z</time>
      </trkpt>
      <trkpt lat="43.3530403487384319305419921875" lon="-5.1413392089307308197021484375">
        <ele>149</ele>
        <time>2019-07-12T05:43:13.000Z</time>
      </trkpt>
      <trkpt lat="43.352957703173160552978515625" lon="-5.14119562692940235137939453125">
        <ele>147.8000030517578125</ele>
        <time>2019-07-12T05:43:14.000Z</time>
      </trkpt>
      <trkpt lat="43.3528931625187397003173828125" lon="-5.14106252230703830718994140625">
        <ele>145.600006103515625</ele>
        <time>2019-07-12T05:43:15.000Z</time>
      </trkpt>
      <trkpt lat="43.35284848697483539581298828125" lon="-5.140938051044940948486328125">
        <ele>143.399993896484375</ele>
        <time>2019-07-12T05:43:16.000Z</time>
      </trkpt>
      <trkpt lat="43.3528281189501285552978515625" lon="-5.14081676490604877471923828125">
        <ele>142</ele>
        <time>2019-07-12T05:43:17.000Z</time>
      </trkpt>
      <trkpt lat="43.352832980453968048095703125" lon="-5.14069656841456890106201171875">
        <ele>141.399993896484375</ele>
        <time>2019-07-12T05:43:18.000Z</time>
      </trkpt>
      <trkpt lat="43.35291512310504913330078125" lon="-5.14044276438653469085693359375">
        <ele>141.399993896484375</ele>
        <time>2019-07-12T05:43:20.000Z</time>
      </trkpt>
      <trkpt lat="43.353185690939426422119140625" lon="-5.13992451131343841552734375">
        <ele>141</ele>
        <time>2019-07-12T05:43:24.000Z</time>
      </trkpt>
      <trkpt lat="43.3533092401921749114990234375" lon="-5.13967774808406829833984375">
        <ele>139.1999969482421875</ele>
        <time>2019-07-12T05:43:26.000Z</time>
      </trkpt>
      <trkpt lat="43.35336112417280673980712890625" lon="-5.13954657129943370819091796875">
        <ele>138.600006103515625</ele>
        <time>2019-07-12T05:43:27.000Z</time>
      </trkpt>
      <trkpt lat="43.3534071408212184906005859375" lon="-5.139400474727153778076171875">
        <ele>138</ele>
        <time>2019-07-12T05:43:28.000Z</time>
      </trkpt>
      <trkpt lat="43.3535848371684551239013671875" lon="-5.13867770321667194366455078125">
        <ele>135.8000030517578125</ele>
        <time>2019-07-12T05:43:32.000Z</time>
      </trkpt>
      <trkpt lat="43.35364711470901966094970703125" lon="-5.1384917087852954864501953125">
        <ele>133.600006103515625</ele>
        <time>2019-07-12T05:43:33.000Z</time>
      </trkpt>
      <trkpt lat="43.35372992791235446929931640625" lon="-5.138315521180629730224609375">
        <ele>131</ele>
        <time>2019-07-12T05:43:34.000Z</time>
      </trkpt>
      <trkpt lat="43.353826068341732025146484375" lon="-5.138149224221706390380859375">
        <ele>128.1999969482421875</ele>
        <time>2019-07-12T05:43:35.000Z</time>
      </trkpt>
      <trkpt lat="43.35391919128596782684326171875" lon="-5.13799742795526981353759765625">
        <ele>125.8000030517578125</ele>
        <time>2019-07-12T05:43:36.000Z</time>
      </trkpt>
      <trkpt lat="43.354000411927700042724609375" lon="-5.1378660835325717926025390625">
        <ele>123.8000030517578125</ele>
        <time>2019-07-12T05:43:37.000Z</time>
      </trkpt>
      <trkpt lat="43.3540664613246917724609375" lon="-5.13774580322206020355224609375">
        <ele>123</ele>
        <time>2019-07-12T05:43:38.000Z</time>
      </trkpt>
      <trkpt lat="43.3541174232959747314453125" lon="-5.137623511254787445068359375">
        <ele>122.40000152587890625</ele>
        <time>2019-07-12T05:43:39.000Z</time>
      </trkpt>
      <trkpt lat="43.354156650602817535400390625" lon="-5.13749300502240657806396484375">
        <ele>122.59999847412109375</ele>
        <time>2019-07-12T05:43:40.000Z</time>
      </trkpt>
      <trkpt lat="43.354277350008487701416015625" lon="-5.13693124987185001373291015625">
        <ele>122.8000030517578125</ele>
        <time>2019-07-12T05:43:44.000Z</time>
      </trkpt>
      <trkpt lat="43.354273997247219085693359375" lon="-5.13663335703313350677490234375">
        <ele>120.8000030517578125</ele>
        <time>2019-07-12T05:43:46.000Z</time>
      </trkpt>
      <trkpt lat="43.3542510308325290679931640625" lon="-5.1364825665950775146484375">
        <ele>119.8000030517578125</ele>
        <time>2019-07-12T05:43:47.000Z</time>
      </trkpt>
      <trkpt lat="43.35421507246792316436767578125" lon="-5.136338733136653900146484375">
        <ele>118.8000030517578125</ele>
        <time>2019-07-12T05:43:48.000Z</time>
      </trkpt>
      <trkpt lat="43.35417039692401885986328125" lon="-5.1362104900181293487548828125">
        <ele>117.59999847412109375</ele>
        <time>2019-07-12T05:43:49.000Z</time>
      </trkpt>
      <trkpt lat="43.35411608219146728515625" lon="-5.13610714115202426910400390625">
        <ele>116.8000030517578125</ele>
        <time>2019-07-12T05:43:50.000Z</time>
      </trkpt>
      <trkpt lat="43.354052044451236724853515625" lon="-5.1360244117677211761474609375">
        <ele>116</ele>
        <time>2019-07-12T05:43:51.000Z</time>
      </trkpt>
      <trkpt lat="43.35397736169397830963134765625" lon="-5.1359595358371734619140625">
        <ele>115.40000152587890625</ele>
        <time>2019-07-12T05:43:52.000Z</time>
      </trkpt>
      <trkpt lat="43.35388918407261371612548828125" lon="-5.1359084062278270721435546875">
        <ele>114.8000030517578125</ele>
        <time>2019-07-12T05:43:53.000Z</time>
      </trkpt>
      <trkpt lat="43.35370830260217189788818359375" lon="-5.1358336396515369415283203125">
        <ele>113.59999847412109375</ele>
        <time>2019-07-12T05:43:55.000Z</time>
      </trkpt>
      <trkpt lat="43.353629596531391143798828125" lon="-5.13581670820713043212890625">
        <ele>112.59999847412109375</ele>
        <time>2019-07-12T05:43:56.000Z</time>
      </trkpt>
      <trkpt lat="43.3535566739737987518310546875" lon="-5.13582383282482624053955078125">
        <ele>111.59999847412109375</ele>
        <time>2019-07-12T05:43:57.000Z</time>
      </trkpt>
      <trkpt lat="43.35348668508231639862060546875" lon="-5.13585425913333892822265625">
        <ele>110.8000030517578125</ele>
        <time>2019-07-12T05:43:58.000Z</time>
      </trkpt>
      <trkpt lat="43.353415019810199737548828125" lon="-5.1359117589890956878662109375">
        <ele>110.40000152587890625</ele>
        <time>2019-07-12T05:43:59.000Z</time>
      </trkpt>
      <trkpt lat="43.35334025323390960693359375" lon="-5.13597629964351654052734375">
        <ele>109.8000030517578125</ele>
        <time>2019-07-12T05:44:00.000Z</time>
      </trkpt>
      <trkpt lat="43.3531741239130496978759765625" lon="-5.13605383224785327911376953125">
        <ele>108.8000030517578125</ele>
        <time>2019-07-12T05:44:02.000Z</time>
      </trkpt>
      <trkpt lat="43.3529994450509548187255859375" lon="-5.135984681546688079833984375">
        <ele>107.1999969482421875</ele>
        <time>2019-07-12T05:44:04.000Z</time>
      </trkpt>
      <trkpt lat="43.35286223329603672027587890625" lon="-5.1358208991587162017822265625">
        <ele>105.40000152587890625</ele>
        <time>2019-07-12T05:44:06.000Z</time>
      </trkpt>
      <trkpt lat="43.3528187312185764312744140625" lon="-5.135724842548370361328125">
        <ele>104.40000152587890625</ele>
        <time>2019-07-12T05:44:07.000Z</time>
      </trkpt>
      <trkpt lat="43.3527818508446216583251953125" lon="-5.135639011859893798828125">
        <ele>103.1999969482421875</ele>
        <time>2019-07-12T05:44:08.000Z</time>
      </trkpt>
      <trkpt lat="43.35273407399654388427734375" lon="-5.13557924889028072357177734375">
        <ele>102</ele>
        <time>2019-07-12T05:44:09.000Z</time>
      </trkpt>
      <trkpt lat="43.3526641689240932464599609375" lon="-5.1355464756488800048828125">
        <ele>100.8000030517578125</ele>
        <time>2019-07-12T05:44:10.000Z</time>
      </trkpt>
      <trkpt lat="43.3524821139872074127197265625" lon="-5.13552962802350521087646484375">
        <ele>99.40000152587890625</ele>
        <time>2019-07-12T05:44:12.000Z</time>
      </trkpt>
      <trkpt lat="43.35227541625499725341796875" lon="-5.13553775846958160400390625">
        <ele>97.40000152587890625</ele>
        <time>2019-07-12T05:44:14.000Z</time>
      </trkpt>
      <trkpt lat="43.3521750010550022125244140625" lon="-5.13557589612901210784912109375">
        <ele>96.1999969482421875</ele>
        <time>2019-07-12T05:44:15.000Z</time>
      </trkpt>
      <trkpt lat="43.3520817942917346954345703125" lon="-5.13563222251832485198974609375">
        <ele>95</ele>
        <time>2019-07-12T05:44:16.000Z</time>
      </trkpt>
      <trkpt lat="43.35199655033648014068603515625" lon="-5.13567714951932430267333984375">
        <ele>93.8000030517578125</ele>
        <time>2019-07-12T05:44:17.000Z</time>
      </trkpt>
      <trkpt lat="43.35191356949508190155029296875" lon="-5.13569525443017482757568359375">
        <ele>92.8000030517578125</ele>
        <time>2019-07-12T05:44:18.000Z</time>
      </trkpt>
      <trkpt lat="43.35174978710711002349853515625" lon="-5.1357223279774188995361328125">
        <ele>91</ele>
        <time>2019-07-12T05:44:20.000Z</time>
      </trkpt>
      <trkpt lat="43.3516117371618747711181640625" lon="-5.13578460551798343658447265625">
        <ele>89.8000030517578125</ele>
        <time>2019-07-12T05:44:22.000Z</time>
      </trkpt>
      <trkpt lat="43.35148408077657222747802734375" lon="-5.13578829355537891387939453125">
        <ele>89</ele>
        <time>2019-07-12T05:44:24.000Z</time>
      </trkpt>
      <trkpt lat="43.3514330349862575531005859375" lon="-5.13575367629528045654296875">
        <ele>88.59999847412109375</ele>
        <time>2019-07-12T05:44:25.000Z</time>
      </trkpt>
      <trkpt lat="43.3513815701007843017578125" lon="-5.13570447452366352081298828125">
        <ele>88.1999969482421875</ele>
        <time>2019-07-12T05:44:26.000Z</time>
      </trkpt>
      <trkpt lat="43.3512984216213226318359375" lon="-5.1355624012649059295654296875">
        <ele>87.59999847412109375</ele>
        <time>2019-07-12T05:44:28.000Z</time>
      </trkpt>
      <trkpt lat="43.3512784726917743682861328125" lon="-5.13546491973102092742919921875">
        <ele>87.40000152587890625</ele>
        <time>2019-07-12T05:44:29.000Z</time>
      </trkpt>
      <trkpt lat="43.3512892015278339385986328125" lon="-5.13535930775105953216552734375">
        <ele>87.40000152587890625</ele>
        <time>2019-07-12T05:44:30.000Z</time>
      </trkpt>
      <trkpt lat="43.35140227340161800384521484375" lon="-5.13517239131033420562744140625">
        <ele>87.1999969482421875</ele>
        <time>2019-07-12T05:44:32.000Z</time>
      </trkpt>
      <trkpt lat="43.351554237306118011474609375" lon="-5.13499385677278041839599609375">
        <ele>86.8000030517578125</ele>
        <time>2019-07-12T05:44:34.000Z</time>
      </trkpt>
      <trkpt lat="43.3516352064907550811767578125" lon="-5.13480476103723049163818359375">
        <ele>86.8000030517578125</ele>
        <time>2019-07-12T05:44:36.000Z</time>
      </trkpt>
      <trkpt lat="43.35161559283733367919921875" lon="-5.13461683876812458038330078125">
        <ele>87</ele>
        <time>2019-07-12T05:44:38.000Z</time>
      </trkpt>
      <trkpt lat="43.35130286403000354766845703125" lon="-5.13412029482424259185791015625">
        <ele>87.59999847412109375</ele>
        <time>2019-07-12T05:44:43.000Z</time>
      </trkpt>
      <trkpt lat="43.35116338916122913360595703125" lon="-5.1338762976229190826416015625">
        <ele>85.8000030517578125</ele>
        <time>2019-07-12T05:44:45.000Z</time>
      </trkpt>
      <trkpt lat="43.351094238460063934326171875" lon="-5.13374780304729938507080078125">
        <ele>84.1999969482421875</ele>
        <time>2019-07-12T05:44:46.000Z</time>
      </trkpt>
      <trkpt lat="43.35102776996791362762451171875" lon="-5.133625678718090057373046875">
        <ele>82.8000030517578125</ele>
        <time>2019-07-12T05:44:47.000Z</time>
      </trkpt>
      <trkpt lat="43.35095820017158985137939453125" lon="-5.1335141994059085845947265625">
        <ele>81.40000152587890625</ele>
        <time>2019-07-12T05:44:48.000Z</time>
      </trkpt>
      <trkpt lat="43.35082744248211383819580078125" lon="-5.133321583271026611328125">
        <ele>79.8000030517578125</ele>
        <time>2019-07-12T05:44:50.000Z</time>
      </trkpt>
      <trkpt lat="43.35067707113921642303466796875" lon="-5.1330682821571826934814453125">
        <ele>79.1999969482421875</ele>
        <time>2019-07-12T05:44:53.000Z</time>
      </trkpt>
      <trkpt lat="43.3506391011178493499755859375" lon="-5.13292889110743999481201171875">
        <ele>79.1999969482421875</ele>
        <time>2019-07-12T05:44:55.000Z</time>
      </trkpt>
      <trkpt lat="43.3505594730377197265625" lon="-5.13273694552481174468994140625">
        <ele>81</ele>
        <time>2019-07-12T05:44:59.000Z</time>
      </trkpt>
      <trkpt lat="43.3506062440574169158935546875" lon="-5.13208449818193912506103515625">
        <ele>81.8000030517578125</ele>
        <time>2019-07-12T05:45:08.000Z</time>
      </trkpt>
      <trkpt lat="43.35061538033187389373779296875" lon="-5.132015012204647064208984375">
        <ele>82</ele>
        <time>2019-07-12T05:45:09.000Z</time>
      </trkpt>
      <trkpt lat="43.3506903983652591705322265625" lon="-5.13129718601703643798828125">
        <ele>81.1999969482421875</ele>
        <time>2019-07-12T05:45:17.000Z</time>
      </trkpt>
      <trkpt lat="43.350699283182621002197265625" lon="-5.1311857067048549652099609375">
        <ele>80.8000030517578125</ele>
        <time>2019-07-12T05:45:18.000Z</time>
      </trkpt>
      <trkpt lat="43.3507815934717655181884765625" lon="-5.13050987385213375091552734375">
        <ele>81.40000152587890625</ele>
        <time>2019-07-12T05:45:25.000Z</time>
      </trkpt>
      <trkpt lat="43.3508053980767726898193359375" lon="-5.13032580725848674774169921875">
        <ele>81.40000152587890625</ele>
        <time>2019-07-12T05:45:27.000Z</time>
      </trkpt>
      <trkpt lat="43.35087873972952365875244140625" lon="-5.12968827970325946807861328125">
        <ele>81</ele>
        <time>2019-07-12T05:45:33.000Z</time>
      </trkpt>
      <trkpt lat="43.35096272639930248260498046875" lon="-5.12906827032566070556640625">
        <ele>80.8000030517578125</ele>
        <time>2019-07-12T05:45:39.000Z</time>
      </trkpt>
      <trkpt lat="43.3509953320026397705078125" lon="-5.12883550487458705902099609375">
        <ele>82.1999969482421875</ele>
        <time>2019-07-12T05:45:42.000Z</time>
      </trkpt>
      <trkpt lat="43.3511061407625675201416015625" lon="-5.12812740169465541839599609375">
        <ele>82.59999847412109375</ele>
        <time>2019-07-12T05:45:49.000Z</time>
      </trkpt>
      <trkpt lat="43.351132459938526153564453125" lon="-5.12774552218616008758544921875">
        <ele>80.59999847412109375</ele>
        <time>2019-07-12T05:45:52.000Z</time>
      </trkpt>
      <trkpt lat="43.35110622458159923553466796875" lon="-5.127038173377513885498046875">
        <ele>80.1999969482421875</ele>
        <time>2019-07-12T05:45:58.000Z</time>
      </trkpt>
      <trkpt lat="43.35106439888477325439453125" lon="-5.1263245381414890289306640625">
        <ele>80.8000030517578125</ele>
        <time>2019-07-12T05:46:03.000Z</time>
      </trkpt>
      <trkpt lat="43.35104218684136867523193359375" lon="-5.12581869028508663177490234375">
        <ele>81.59999847412109375</ele>
        <time>2019-07-12T05:46:07.000Z</time>
      </trkpt>
      <trkpt lat="43.35103849880397319793701171875" lon="-5.1254712603986263275146484375">
        <ele>83</ele>
        <time>2019-07-12T05:46:10.000Z</time>
      </trkpt>
      <trkpt lat="43.35098938085138797760009765625" lon="-5.1248178072273731231689453125">
        <ele>83.59999847412109375</ele>
        <time>2019-07-12T05:46:15.000Z</time>
      </trkpt>
      <trkpt lat="43.35094613023102283477783203125" lon="-5.1242022402584552764892578125">
        <ele>83.8000030517578125</ele>
        <time>2019-07-12T05:46:20.000Z</time>
      </trkpt>
      <trkpt lat="43.35092115215957164764404296875" lon="-5.12349732220172882080078125">
        <ele>83.1999969482421875</ele>
        <time>2019-07-12T05:46:25.000Z</time>
      </trkpt>
      <trkpt lat="43.350909836590290069580078125" lon="-5.122844539582729339599609375">
        <ele>82.59999847412109375</ele>
        <time>2019-07-12T05:46:29.000Z</time>
      </trkpt>
      <trkpt lat="43.35090589709579944610595703125" lon="-5.122686959803104400634765625">
        <ele>81.59999847412109375</ele>
        <time>2019-07-12T05:46:30.000Z</time>
      </trkpt>
      <trkpt lat="43.35090070031583309173583984375" lon="-5.12240138836205005645751953125">
        <ele>80.1999969482421875</ele>
        <time>2019-07-12T05:46:32.000Z</time>
      </trkpt>
      <trkpt lat="43.350895084440708160400390625" lon="-5.1217386312782764434814453125">
        <ele>80.59999847412109375</ele>
        <time>2019-07-12T05:46:37.000Z</time>
      </trkpt>
      <trkpt lat="43.350884020328521728515625" lon="-5.121437720954418182373046875">
        <ele>81.59999847412109375</ele>
        <time>2019-07-12T05:46:39.000Z</time>
      </trkpt>
      <trkpt lat="43.3508670888841152191162109375" lon="-5.12075970880687236785888671875">
        <ele>82.40000152587890625</ele>
        <time>2019-07-12T05:46:43.000Z</time>
      </trkpt>
      <trkpt lat="43.35083113051950931549072265625" lon="-5.119942389428615570068359375">
        <ele>80.1999969482421875</ele>
        <time>2019-07-12T05:46:47.000Z</time>
      </trkpt>
      <trkpt lat="43.35078167729079723358154296875" lon="-5.1193249784409999847412109375">
        <ele>79</ele>
        <time>2019-07-12T05:46:50.000Z</time>
      </trkpt>
      <trkpt lat="43.35073457099497318267822265625" lon="-5.11870832182466983795166015625">
        <ele>79.1999969482421875</ele>
        <time>2019-07-12T05:46:53.000Z</time>
      </trkpt>
      <trkpt lat="43.35069333203136920928955078125" lon="-5.1182997040450572967529296875">
        <ele>80.40000152587890625</ele>
        <time>2019-07-12T05:46:55.000Z</time>
      </trkpt>
      <trkpt lat="43.35057229734957218170166015625" lon="-5.1176180876791477203369140625">
        <ele>81.40000152587890625</ele>
        <time>2019-07-12T05:46:58.000Z</time>
      </trkpt>
      <trkpt lat="43.3504473231732845306396484375" lon="-5.11691912077367305755615234375">
        <ele>80.1999969482421875</ele>
        <time>2019-07-12T05:47:01.000Z</time>
      </trkpt>
      <trkpt lat="43.3503980375826358795166015625" lon="-5.11626063846051692962646484375">
        <ele>79.59999847412109375</ele>
        <time>2019-07-12T05:47:04.000Z</time>
      </trkpt>
      <trkpt lat="43.3504181541502475738525390625" lon="-5.11557684279978275299072265625">
        <ele>80.1999969482421875</ele>
        <time>2019-07-12T05:47:07.000Z</time>
      </trkpt>
      <trkpt lat="43.3504508435726165771484375" lon="-5.11487267911434173583984375">
        <ele>80.59999847412109375</ele>
        <time>2019-07-12T05:47:10.000Z</time>
      </trkpt>
      <trkpt lat="43.350481688976287841796875" lon="-5.11416398920118808746337890625">
        <ele>79.59999847412109375</ele>
        <time>2019-07-12T05:47:13.000Z</time>
      </trkpt>
      <trkpt lat="43.3505039848387241363525390625" lon="-5.113505423069000244140625">
        <ele>80.1999969482421875</ele>
        <time>2019-07-12T05:47:16.000Z</time>
      </trkpt>
      <trkpt lat="43.35050658322870731353759765625" lon="-5.11287711560726165771484375">
        <ele>81.59999847412109375</ele>
        <time>2019-07-12T05:47:19.000Z</time>
      </trkpt>
      <trkpt lat="43.35049233399331569671630859375" lon="-5.1124538294970989227294921875">
        <ele>83.1999969482421875</ele>
        <time>2019-07-12T05:47:21.000Z</time>
      </trkpt>
      <trkpt lat="43.35044908337295055389404296875" lon="-5.1118047349154949188232421875">
        <ele>84.59999847412109375</ele>
        <time>2019-07-12T05:47:24.000Z</time>
      </trkpt>
      <trkpt lat="43.3503826148808002471923828125" lon="-5.11101323179900646209716796875">
        <ele>84.59999847412109375</ele>
        <time>2019-07-12T05:47:28.000Z</time>
      </trkpt>
      <trkpt lat="43.3503712154924869537353515625" lon="-5.110665298998355865478515625">
        <ele>85.8000030517578125</ele>
        <time>2019-07-12T05:47:30.000Z</time>
      </trkpt>
      <trkpt lat="43.3504091016948223114013671875" lon="-5.11025785468518733978271484375">
        <ele>87</ele>
        <time>2019-07-12T05:47:33.000Z</time>
      </trkpt>
      <trkpt lat="43.35046115331351757049560546875" lon="-5.11004009284079074859619140625">
        <ele>88.59999847412109375</ele>
        <time>2019-07-12T05:47:35.000Z</time>
      </trkpt>
      <trkpt lat="43.35051798261702060699462890625" lon="-5.10987840592861175537109375">
        <ele>89.8000030517578125</ele>
        <time>2019-07-12T05:47:37.000Z</time>
      </trkpt>
      <trkpt lat="43.35056643001735210418701171875" lon="-5.10974563658237457275390625">
        <ele>91</ele>
        <time>2019-07-12T05:47:39.000Z</time>
      </trkpt>
      <trkpt lat="43.3505810983479022979736328125" lon="-5.10967589914798736572265625">
        <ele>91.40000152587890625</ele>
        <time>2019-07-12T05:47:40.000Z</time>
      </trkpt>
      <trkpt lat="43.3505764044821262359619140625" lon="-5.10950130410492420196533203125">
        <ele>92</ele>
        <time>2019-07-12T05:47:42.000Z</time>
      </trkpt>
      <trkpt lat="43.35056793875992298126220703125" lon="-5.1093937642872333526611328125">
        <ele>92</ele>
        <time>2019-07-12T05:47:43.000Z</time>
      </trkpt>
      <trkpt lat="43.3505713753402233123779296875" lon="-5.10926979593932628631591796875">
        <ele>92</ele>
        <time>2019-07-12T05:47:44.000Z</time>
      </trkpt>
      <trkpt lat="43.3505938388407230377197265625" lon="-5.10899419896304607391357421875">
        <ele>91.1999969482421875</ele>
        <time>2019-07-12T05:47:46.000Z</time>
      </trkpt>
      <trkpt lat="43.3505795896053314208984375" lon="-5.10885640047490596771240234375">
        <ele>90.59999847412109375</ele>
        <time>2019-07-12T05:47:47.000Z</time>
      </trkpt>
      <trkpt lat="43.35054094903171062469482421875" lon="-5.10871273465454578399658203125">
        <ele>90.1999969482421875</ele>
        <time>2019-07-12T05:47:48.000Z</time>
      </trkpt>
      <trkpt lat="43.35042460821568965911865234375" lon="-5.10836035944521427154541015625">
        <ele>89.40000152587890625</ele>
        <time>2019-07-12T05:47:50.000Z</time>
      </trkpt>
      <trkpt lat="43.3502672798931598663330078125" lon="-5.1077354885637760162353515625">
        <ele>88.1999969482421875</ele>
        <time>2019-07-12T05:47:53.000Z</time>
      </trkpt>
      <trkpt lat="43.35022243671119213104248046875" lon="-5.107515715062618255615234375">
        <ele>86.8000030517578125</ele>
        <time>2019-07-12T05:47:54.000Z</time>
      </trkpt>
      <trkpt lat="43.35013895295560359954833984375" lon="-5.1070589013397693634033203125">
        <ele>85.59999847412109375</ele>
        <time>2019-07-12T05:47:56.000Z</time>
      </trkpt>
      <trkpt lat="43.35001833736896514892578125" lon="-5.10635104961693286895751953125">
        <ele>86.1999969482421875</ele>
        <time>2019-07-12T05:47:59.000Z</time>
      </trkpt>
      <trkpt lat="43.34990526549518108367919921875" lon="-5.1056854426860809326171875">
        <ele>86.59999847412109375</ele>
        <time>2019-07-12T05:48:02.000Z</time>
      </trkpt>
      <trkpt lat="43.349832594394683837890625" lon="-5.10528503917157649993896484375">
        <ele>88.59999847412109375</ele>
        <time>2019-07-12T05:48:04.000Z</time>
      </trkpt>
      <trkpt lat="43.34977618418633937835693359375" lon="-5.10492260567843914031982421875">
        <ele>91.1999969482421875</ele>
        <time>2019-07-12T05:48:06.000Z</time>
      </trkpt>
      <trkpt lat="43.34975170902907848358154296875" lon="-5.10475044138729572296142578125">
        <ele>93.40000152587890625</ele>
        <time>2019-07-12T05:48:07.000Z</time>
      </trkpt>
      <trkpt lat="43.34972941316664218902587890625" lon="-5.10458347387611865997314453125">
        <ele>95.59999847412109375</ele>
        <time>2019-07-12T05:48:08.000Z</time>
      </trkpt>
      <trkpt lat="43.34970762021839618682861328125" lon="-5.10441734455525875091552734375">
        <ele>96.59999847412109375</ele>
        <time>2019-07-12T05:48:09.000Z</time>
      </trkpt>
      <trkpt lat="43.349658586084842681884765625" lon="-5.1040876843035221099853515625">
        <ele>97.8000030517578125</ele>
        <time>2019-07-12T05:48:11.000Z</time>
      </trkpt>
      <trkpt lat="43.349543251097202301025390625" lon="-5.10338075459003448486328125">
        <ele>98.59999847412109375</ele>
        <time>2019-07-12T05:48:15.000Z</time>
      </trkpt>
      <trkpt lat="43.349460773169994354248046875" lon="-5.1027026586234569549560546875">
        <ele>97.40000152587890625</ele>
        <time>2019-07-12T05:48:18.000Z</time>
      </trkpt>
      <trkpt lat="43.34944258444011211395263671875" lon="-5.1024159975349903106689453125">
        <ele>95.1999969482421875</ele>
        <time>2019-07-12T05:48:19.000Z</time>
      </trkpt>
      <trkpt lat="43.34943621419370174407958984375" lon="-5.10209195315837860107421875">
        <ele>92.40000152587890625</ele>
        <time>2019-07-12T05:48:20.000Z</time>
      </trkpt>
      <trkpt lat="43.34944359026849269866943359375" lon="-5.10174720548093318939208984375">
        <ele>89.8000030517578125</ele>
        <time>2019-07-12T05:48:21.000Z</time>
      </trkpt>
      <trkpt lat="43.349466137588024139404296875" lon="-5.10139432735741138458251953125">
        <ele>86.8000030517578125</ele>
        <time>2019-07-12T05:48:22.000Z</time>
      </trkpt>
      <trkpt lat="43.34950041957199573516845703125" lon="-5.10104413144290447235107421875">
        <ele>83.1999969482421875</ele>
        <time>2019-07-12T05:48:23.000Z</time>
      </trkpt>
      <trkpt lat="43.3495410718023777008056640625" lon="-5.10071204043924808502197265625">
        <ele>80.8000030517578125</ele>
        <time>2019-07-12T05:48:24.000Z</time>
      </trkpt>
      <trkpt lat="43.349583484232425689697265625" lon="-5.10039486922323703765869140625">
        <ele>79.59999847412109375</ele>
        <time>2019-07-12T05:48:25.000Z</time>
      </trkpt>
      <trkpt lat="43.34966906346380710601806640625" lon="-5.09979573078453540802001953125">
        <ele>83.1999969482421875</ele>
        <time>2019-07-12T05:48:27.000Z</time>
      </trkpt>
      <trkpt lat="43.34971365518867969512939453125" lon="-5.09951309300959110260009765625">
        <ele>90.40000152587890625</ele>
        <time>2019-07-12T05:48:28.000Z</time>
      </trkpt>
      <trkpt lat="43.34976344369351863861083984375" lon="-5.09924210608005523681640625">
        <ele>94</ele>
        <time>2019-07-12T05:48:29.000Z</time>
      </trkpt>
      <trkpt lat="43.349822200834751129150390625" lon="-5.098980255424976348876953125">
        <ele>95.8000030517578125</ele>
        <time>2019-07-12T05:48:30.000Z</time>
      </trkpt>
      <trkpt lat="43.34995924495160579681396484375" lon="-5.098478682339191436767578125">
        <ele>93.59999847412109375</ele>
        <time>2019-07-12T05:48:32.000Z</time>
      </trkpt>
      <trkpt lat="43.35003376007080078125" lon="-5.0982310809195041656494140625">
        <ele>88.1999969482421875</ele>
        <time>2019-07-12T05:48:33.000Z</time>
      </trkpt>
      <trkpt lat="43.3501113764941692352294921875" lon="-5.09798473678529262542724609375">
        <ele>85.59999847412109375</ele>
        <time>2019-07-12T05:48:34.000Z</time>
      </trkpt>
      <trkpt lat="43.35018991492688655853271484375" lon="-5.09774006903171539306640625">
        <ele>84.1999969482421875</ele>
        <time>2019-07-12T05:48:35.000Z</time>
      </trkpt>
      <trkpt lat="43.3503489196300506591796875" lon="-5.09726221673190593719482421875">
        <ele>87</ele>
        <time>2019-07-12T05:48:37.000Z</time>
      </trkpt>
      <trkpt lat="43.35042544640600681304931640625" lon="-5.097032971680164337158203125">
        <ele>91</ele>
        <time>2019-07-12T05:48:38.000Z</time>
      </trkpt>
      <trkpt lat="43.3504979498684406280517578125" lon="-5.09681202471256256103515625">
        <ele>95.8000030517578125</ele>
        <time>2019-07-12T05:48:39.000Z</time>
      </trkpt>
      <trkpt lat="43.35056374780833721160888671875" lon="-5.09660239331424236297607421875">
        <ele>99.8000030517578125</ele>
        <time>2019-07-12T05:48:40.000Z</time>
      </trkpt>
      <trkpt lat="43.35061873309314250946044921875" lon="-5.0963998027145862579345703125">
        <ele>101.8000030517578125</ele>
        <time>2019-07-12T05:48:41.000Z</time>
      </trkpt>
      <trkpt lat="43.3506595529615879058837890625" lon="-5.09619939140975475311279296875">
        <ele>103</ele>
        <time>2019-07-12T05:48:42.000Z</time>
      </trkpt>
      <trkpt lat="43.3506813459098339080810546875" lon="-5.09552590548992156982421875">
        <ele>101.8000030517578125</ele>
        <time>2019-07-12T05:48:45.000Z</time>
      </trkpt>
      <trkpt lat="43.350655697286128997802734375" lon="-5.09528475813567638397216796875">
        <ele>99.8000030517578125</ele>
        <time>2019-07-12T05:48:46.000Z</time>
      </trkpt>
      <trkpt lat="43.350612781941890716552734375" lon="-5.0950370728969573974609375">
        <ele>97</ele>
        <time>2019-07-12T05:48:47.000Z</time>
      </trkpt>
      <trkpt lat="43.35054916329681873321533203125" lon="-5.0947864539921283721923828125">
        <ele>95.59999847412109375</ele>
        <time>2019-07-12T05:48:48.000Z</time>
      </trkpt>
      <trkpt lat="43.350464589893817901611328125" lon="-5.09453885257244110107421875">
        <ele>94.40000152587890625</ele>
        <time>2019-07-12T05:48:49.000Z</time>
      </trkpt>
      <trkpt lat="43.3502309024333953857421875" lon="-5.09406871162354946136474609375">
        <ele>93.1999969482421875</ele>
        <time>2019-07-12T05:48:51.000Z</time>
      </trkpt>
      <trkpt lat="43.34985279478132724761962890625" lon="-5.09343654848635196685791015625">
        <ele>91.40000152587890625</ele>
        <time>2019-07-12T05:48:54.000Z</time>
      </trkpt>
      <trkpt lat="43.34965288639068603515625" lon="-5.09306523017585277557373046875">
        <ele>89.8000030517578125</ele>
        <time>2019-07-12T05:48:56.000Z</time>
      </trkpt>
      <trkpt lat="43.34935507737100124359130859375" lon="-5.09251755662262439727783203125">
        <ele>90</ele>
        <time>2019-07-12T05:48:59.000Z</time>
      </trkpt>
      <trkpt lat="43.34925449453294277191162109375" lon="-5.09233499877154827117919921875">
        <ele>91.40000152587890625</ele>
        <time>2019-07-12T05:49:00.000Z</time>
      </trkpt>
      <trkpt lat="43.34894889034330844879150390625" lon="-5.0917783565819263458251953125">
        <ele>92.40000152587890625</ele>
        <time>2019-07-12T05:49:03.000Z</time>
      </trkpt>
      <trkpt lat="43.34864772856235504150390625" lon="-5.0912301801145076751708984375">
        <ele>92.40000152587890625</ele>
        <time>2019-07-12T05:49:06.000Z</time>
      </trkpt>
      <trkpt lat="43.3483639173209667205810546875" lon="-5.090679489076137542724609375">
        <ele>93</ele>
        <time>2019-07-12T05:49:09.000Z</time>
      </trkpt>
      <trkpt lat="43.34812067449092864990234375" lon="-5.0901603139936923980712890625">
        <ele>93.40000152587890625</ele>
        <time>2019-07-12T05:49:12.000Z</time>
      </trkpt>
      <trkpt lat="43.34787148050963878631591796875" lon="-5.08955069817602634429931640625">
        <ele>94.1999969482421875</ele>
        <time>2019-07-12T05:49:16.000Z</time>
      </trkpt>
      <trkpt lat="43.347770310938358306884765625" lon="-5.08929781615734100341796875">
        <ele>95.59999847412109375</ele>
        <time>2019-07-12T05:49:18.000Z</time>
      </trkpt>
      <trkpt lat="43.3476702310144901275634765625" lon="-5.08907142095267772674560546875">
        <ele>96.8000030517578125</ele>
        <time>2019-07-12T05:49:20.000Z</time>
      </trkpt>
      <trkpt lat="43.3475019223988056182861328125" lon="-5.0886334665119647979736328125">
        <ele>98</ele>
        <time>2019-07-12T05:49:23.000Z</time>
      </trkpt>
      <trkpt lat="43.34729455411434173583984375" lon="-5.08808420039713382720947265625">
        <ele>98.40000152587890625</ele>
        <time>2019-07-12T05:49:26.000Z</time>
      </trkpt>
      <trkpt lat="43.34710839204490184783935546875" lon="-5.08751791901886463165283203125">
        <ele>96.8000030517578125</ele>
        <time>2019-07-12T05:49:29.000Z</time>
      </trkpt>
      <trkpt lat="43.3470107428729534149169921875" lon="-5.08714023046195507049560546875">
        <ele>95.59999847412109375</ele>
        <time>2019-07-12T05:49:31.000Z</time>
      </trkpt>
      <trkpt lat="43.34689297713339328765869140625" lon="-5.08656338788568973541259765625">
        <ele>96.59999847412109375</ele>
        <time>2019-07-12T05:49:35.000Z</time>
      </trkpt>
      <trkpt lat="43.34679105319082736968994140625" lon="-5.08638619445264339447021484375">
        <ele>98.1999969482421875</ele>
        <time>2019-07-12T05:49:37.000Z</time>
      </trkpt>
      <trkpt lat="43.34671729244291782379150390625" lon="-5.08630472235381603240966796875">
        <ele>99.40000152587890625</ele>
        <time>2019-07-12T05:49:38.000Z</time>
      </trkpt>
      <trkpt lat="43.3466352336108684539794921875" lon="-5.0862060673534870147705078125">
        <ele>100.8000030517578125</ele>
        <time>2019-07-12T05:49:39.000Z</time>
      </trkpt>
      <trkpt lat="43.3464434556663036346435546875" lon="-5.08597564883530139923095703125">
        <ele>102</ele>
        <time>2019-07-12T05:49:41.000Z</time>
      </trkpt>
      <trkpt lat="43.34593199193477630615234375" lon="-5.08560441434383392333984375">
        <ele>101.59999847412109375</ele>
        <time>2019-07-12T05:49:45.000Z</time>
      </trkpt>
      <trkpt lat="43.34546319209039211273193359375" lon="-5.0851968862116336822509765625">
        <ele>101.1999969482421875</ele>
        <time>2019-07-12T05:49:49.000Z</time>
      </trkpt>
      <trkpt lat="43.34501828067004680633544921875" lon="-5.08478273637592792510986328125">
        <ele>101</ele>
        <time>2019-07-12T05:49:53.000Z</time>
      </trkpt>
      <trkpt lat="43.3446654863655567169189453125" lon="-5.08433816023170948028564453125">
        <ele>101.1999969482421875</ele>
        <time>2019-07-12T05:49:57.000Z</time>
      </trkpt>
      <trkpt lat="43.344476222991943359375" lon="-5.08403389714658260345458984375">
        <ele>102.59999847412109375</ele>
        <time>2019-07-12T05:50:00.000Z</time>
      </trkpt>
      <trkpt lat="43.34439508616924285888671875" lon="-5.08395795710384845733642578125">
        <ele>103.40000152587890625</ele>
        <time>2019-07-12T05:50:01.000Z</time>
      </trkpt>
      <trkpt lat="43.344302214682102203369140625" lon="-5.08389090187847614288330078125">
        <ele>103.8000030517578125</ele>
        <time>2019-07-12T05:50:02.000Z</time>
      </trkpt>
      <trkpt lat="43.34407389163970947265625" lon="-5.08378964848816394805908203125">
        <ele>104</ele>
        <time>2019-07-12T05:50:04.000Z</time>
      </trkpt>
      <trkpt lat="43.34382436238229274749755859375" lon="-5.083747319877147674560546875">
        <ele>104</ele>
        <time>2019-07-12T05:50:06.000Z</time>
      </trkpt>
      <trkpt lat="43.34370818920433521270751953125" lon="-5.0837531872093677520751953125">
        <ele>104</ele>
        <time>2019-07-12T05:50:07.000Z</time>
      </trkpt>
      <trkpt lat="43.34324483759701251983642578125" lon="-5.08384128101170063018798828125">
        <ele>104.59999847412109375</ele>
        <time>2019-07-12T05:50:11.000Z</time>
      </trkpt>
      <trkpt lat="43.34273840300738811492919921875" lon="-5.08390900678932666778564453125">
        <ele>105</ele>
        <time>2019-07-12T05:50:15.000Z</time>
      </trkpt>
      <trkpt lat="43.34238787181675434112548828125" lon="-5.08396818302571773529052734375">
        <ele>105.59999847412109375</ele>
        <time>2019-07-12T05:50:18.000Z</time>
      </trkpt>
      <trkpt lat="43.3420483209192752838134765625" lon="-5.0840918160974979400634765625">
        <ele>106.8000030517578125</ele>
        <time>2019-07-12T05:50:21.000Z</time>
      </trkpt>
      <trkpt lat="43.34169083274900913238525390625" lon="-5.08422399871051311492919921875">
        <ele>108</ele>
        <time>2019-07-12T05:50:24.000Z</time>
      </trkpt>
      <trkpt lat="43.3414511941373348236083984375" lon="-5.08431234396994113922119140625">
        <ele>109.40000152587890625</ele>
        <time>2019-07-12T05:50:26.000Z</time>
      </trkpt>
      <trkpt lat="43.341003768146038055419921875" lon="-5.08447025902569293975830078125">
        <ele>110.1999969482421875</ele>
        <time>2019-07-12T05:50:30.000Z</time>
      </trkpt>
      <trkpt lat="43.34089991636574268341064453125" lon="-5.0845013558864593505859375">
        <ele>110.59999847412109375</ele>
        <time>2019-07-12T05:50:31.000Z</time>
      </trkpt>
      <trkpt lat="43.3406763710081577301025390625" lon="-5.08455156348645687103271484375">
        <ele>111.59999847412109375</ele>
        <time>2019-07-12T05:50:33.000Z</time>
      </trkpt>
      <trkpt lat="43.34041762165725231170654296875" lon="-5.084596239030361175537109375">
        <ele>112.8000030517578125</ele>
        <time>2019-07-12T05:50:35.000Z</time>
      </trkpt>
      <trkpt lat="43.33986491896212100982666015625" lon="-5.08461208082735538482666015625">
        <ele>113.1999969482421875</ele>
        <time>2019-07-12T05:50:39.000Z</time>
      </trkpt>
      <trkpt lat="43.339342139661312103271484375" lon="-5.08449129760265350341796875">
        <ele>112.40000152587890625</ele>
        <time>2019-07-12T05:50:42.000Z</time>
      </trkpt>
      <trkpt lat="43.3391203545033931732177734375" lon="-5.08442935533821582794189453125">
        <ele>111.40000152587890625</ele>
        <time>2019-07-12T05:50:43.000Z</time>
      </trkpt>
      <trkpt lat="43.33864686079323291778564453125" lon="-5.0843211449682712554931640625">
        <ele>110</ele>
        <time>2019-07-12T05:50:45.000Z</time>
      </trkpt>
      <trkpt lat="43.338178731501102447509765625" lon="-5.08422718383371829986572265625">
        <ele>108.8000030517578125</ele>
        <time>2019-07-12T05:50:47.000Z</time>
      </trkpt>
      <trkpt lat="43.337715379893779754638671875" lon="-5.08414235897362232208251953125">
        <ele>106.8000030517578125</ele>
        <time>2019-07-12T05:50:49.000Z</time>
      </trkpt>
      <trkpt lat="43.337493427097797393798828125" lon="-5.08410237729549407958984375">
        <ele>103.59999847412109375</ele>
        <time>2019-07-12T05:50:50.000Z</time>
      </trkpt>
      <trkpt lat="43.33707106299698352813720703125" lon="-5.08401445113122463226318359375">
        <ele>101.40000152587890625</ele>
        <time>2019-07-12T05:50:52.000Z</time>
      </trkpt>
      <trkpt lat="43.33641350269317626953125" lon="-5.08386374451220035552978515625">
        <ele>102.40000152587890625</ele>
        <time>2019-07-12T05:50:55.000Z</time>
      </trkpt>
      <trkpt lat="43.3361761271953582763671875" lon="-5.08380758576095104217529296875">
        <ele>103.59999847412109375</ele>
        <time>2019-07-12T05:50:56.000Z</time>
      </trkpt>
      <trkpt lat="43.33593045361340045928955078125" lon="-5.0837481580674648284912109375">
        <ele>104.8000030517578125</ele>
        <time>2019-07-12T05:50:57.000Z</time>
      </trkpt>
      <trkpt lat="43.3354306407272815704345703125" lon="-5.08363240398466587066650390625">
        <ele>106.1999969482421875</ele>
        <time>2019-07-12T05:50:59.000Z</time>
      </trkpt>
      <trkpt lat="43.33518111146986484527587890625" lon="-5.0835848785936832427978515625">
        <ele>107.1999969482421875</ele>
        <time>2019-07-12T05:51:00.000Z</time>
      </trkpt>
      <trkpt lat="43.33469361998140811920166015625" lon="-5.08350365795195102691650390625">
        <ele>106.8000030517578125</ele>
        <time>2019-07-12T05:51:02.000Z</time>
      </trkpt>
      <trkpt lat="43.3342132531106472015380859375" lon="-5.0834118761122226715087890625">
        <ele>107.1999969482421875</ele>
        <time>2019-07-12T05:51:04.000Z</time>
      </trkpt>
      <trkpt lat="43.33397059701383113861083984375" lon="-5.083360411226749420166015625">
        <ele>109</ele>
        <time>2019-07-12T05:51:05.000Z</time>
      </trkpt>
      <trkpt lat="43.3337257616221904754638671875" lon="-5.08330886252224445343017578125">
        <ele>113.8000030517578125</ele>
        <time>2019-07-12T05:51:06.000Z</time>
      </trkpt>
      <trkpt lat="43.3334836922585964202880859375" lon="-5.083260498940944671630859375">
        <ele>115.40000152587890625</ele>
        <time>2019-07-12T05:51:07.000Z</time>
      </trkpt>
      <trkpt lat="43.3330397866666316986083984375" lon="-5.08317357860505580902099609375">
        <ele>116.40000152587890625</ele>
        <time>2019-07-12T05:51:09.000Z</time>
      </trkpt>
      <trkpt lat="43.33283987827599048614501953125" lon="-5.0831319205462932586669921875">
        <ele>115.40000152587890625</ele>
        <time>2019-07-12T05:51:10.000Z</time>
      </trkpt>
      <trkpt lat="43.33265212364494800567626953125" lon="-5.08308439515531063079833984375">
        <ele>110.40000152587890625</ele>
        <time>2019-07-12T05:51:11.000Z</time>
      </trkpt>
      <trkpt lat="43.33247803151607513427734375" lon="-5.08301767520606517791748046875">
        <ele>108</ele>
        <time>2019-07-12T05:51:12.000Z</time>
      </trkpt>
      <trkpt lat="43.33231366239488124847412109375" lon="-5.082923211157321929931640625">
        <ele>106.8000030517578125</ele>
        <time>2019-07-12T05:51:13.000Z</time>
      </trkpt>
      <trkpt lat="43.332159519195556640625" lon="-5.08280041627585887908935546875">
        <ele>107.40000152587890625</ele>
        <time>2019-07-12T05:51:14.000Z</time>
      </trkpt>
      <trkpt lat="43.33201928995549678802490234375" lon="-5.082643590867519378662109375">
        <ele>110.1999969482421875</ele>
        <time>2019-07-12T05:51:15.000Z</time>
      </trkpt>
      <trkpt lat="43.33189330995082855224609375" lon="-5.08246027864515781402587890625">
        <ele>113.1999969482421875</ele>
        <time>2019-07-12T05:51:16.000Z</time>
      </trkpt>
      <trkpt lat="43.33178333938121795654296875" lon="-5.0822545029222965240478515625">
        <ele>115</ele>
        <time>2019-07-12T05:51:17.000Z</time>
      </trkpt>
      <trkpt lat="43.33168669603765010833740234375" lon="-5.0820389203727245330810546875">
        <ele>116.40000152587890625</ele>
        <time>2019-07-12T05:51:18.000Z</time>
      </trkpt>
      <trkpt lat="43.33159365691244602203369140625" lon="-5.08182476274669170379638671875">
        <ele>117.8000030517578125</ele>
        <time>2019-07-12T05:51:19.000Z</time>
      </trkpt>
      <trkpt lat="43.33140648901462554931640625" lon="-5.08141187019646167755126953125">
        <ele>118.8000030517578125</ele>
        <time>2019-07-12T05:51:21.000Z</time>
      </trkpt>
      <trkpt lat="43.331153690814971923828125" lon="-5.0809288211166858673095703125">
        <ele>120.1999969482421875</ele>
        <time>2019-07-12T05:51:24.000Z</time>
      </trkpt>
      <trkpt lat="43.33092545159161090850830078125" lon="-5.0807400606572628021240234375">
        <ele>120.59999847412109375</ele>
        <time>2019-07-12T05:51:26.000Z</time>
      </trkpt>
      <trkpt lat="43.33078480325639247894287109375" lon="-5.08068348281085491180419921875">
        <ele>121.40000152587890625</ele>
        <time>2019-07-12T05:51:27.000Z</time>
      </trkpt>
      <trkpt lat="43.33063133060932159423828125" lon="-5.0806649588048458099365234375">
        <ele>122</ele>
        <time>2019-07-12T05:51:28.000Z</time>
      </trkpt>
      <trkpt lat="43.33047567866742610931396484375" lon="-5.08069337345659732818603515625">
        <ele>123</ele>
        <time>2019-07-12T05:51:29.000Z</time>
      </trkpt>
      <trkpt lat="43.3303247205913066864013671875" lon="-5.08076730184257030487060546875">
        <ele>124.1999969482421875</ele>
        <time>2019-07-12T05:51:30.000Z</time>
      </trkpt>
      <trkpt lat="43.3301792107522487640380859375" lon="-5.08087660185992717742919921875">
        <ele>125.1999969482421875</ele>
        <time>2019-07-12T05:51:31.000Z</time>
      </trkpt>
      <trkpt lat="43.3298788033425807952880859375" lon="-5.08112319745123386383056640625">
        <ele>126.59999847412109375</ele>
        <time>2019-07-12T05:51:33.000Z</time>
      </trkpt>
      <trkpt lat="43.32958434708416461944580078125" lon="-5.08131262846291065216064453125">
        <ele>126.59999847412109375</ele>
        <time>2019-07-12T05:51:35.000Z</time>
      </trkpt>
      <trkpt lat="43.32927539013326168060302734375" lon="-5.08136442862451076507568359375">
        <ele>126.1999969482421875</ele>
        <time>2019-07-12T05:51:37.000Z</time>
      </trkpt>
      <trkpt lat="43.32894623279571533203125" lon="-5.08128496818244457244873046875">
        <ele>126.1999969482421875</ele>
        <time>2019-07-12T05:51:39.000Z</time>
      </trkpt>
      <trkpt lat="43.3286349289119243621826171875" lon="-5.08108564652502536773681640625">
        <ele>126.40000152587890625</ele>
        <time>2019-07-12T05:51:41.000Z</time>
      </trkpt>
      <trkpt lat="43.32838925532996654510498046875" lon="-5.08081356994807720184326171875">
        <ele>126.40000152587890625</ele>
        <time>2019-07-12T05:51:43.000Z</time>
      </trkpt>
      <trkpt lat="43.3281142450869083404541015625" lon="-5.080235637724399566650390625">
        <ele>126.8000030517578125</ele>
        <time>2019-07-12T05:51:46.000Z</time>
      </trkpt>
      <trkpt lat="43.32782532088458538055419921875" lon="-5.07972635328769683837890625">
        <ele>127.40000152587890625</ele>
        <time>2019-07-12T05:51:49.000Z</time>
      </trkpt>
      <trkpt lat="43.32771752960979938507080078125" lon="-5.07961428724229335784912109375">
        <ele>127.8000030517578125</ele>
        <time>2019-07-12T05:51:50.000Z</time>
      </trkpt>
      <trkpt lat="43.32759649492800235748291015625" lon="-5.07952393032610416412353515625">
        <ele>128.1999969482421875</ele>
        <time>2019-07-12T05:51:51.000Z</time>
      </trkpt>
      <trkpt lat="43.3274584449827671051025390625" lon="-5.07944966666400432586669921875">
        <ele>129.1999969482421875</ele>
        <time>2019-07-12T05:51:52.000Z</time>
      </trkpt>
      <trkpt lat="43.32730664871633052825927734375" lon="-5.079392082989215850830078125">
        <ele>130.1999969482421875</ele>
        <time>2019-07-12T05:51:53.000Z</time>
      </trkpt>
      <trkpt lat="43.32699568010866641998291015625" lon="-5.0793013907968997955322265625">
        <ele>131.8000030517578125</ele>
        <time>2019-07-12T05:51:55.000Z</time>
      </trkpt>
      <trkpt lat="43.3265280537307262420654296875" lon="-5.07916979491710662841796875">
        <ele>133</ele>
        <time>2019-07-12T05:51:58.000Z</time>
      </trkpt>
      <trkpt lat="43.32598348148167133331298828125" lon="-5.079038701951503753662109375">
        <ele>133.600006103515625</ele>
        <time>2019-07-12T05:52:02.000Z</time>
      </trkpt>
      <trkpt lat="43.32566027529537677764892578125" lon="-5.0790579803287982940673828125">
        <ele>133.8000030517578125</ele>
        <time>2019-07-12T05:52:05.000Z</time>
      </trkpt>
      <trkpt lat="43.32555064000189304351806640625" lon="-5.07909276522696018218994140625">
        <ele>134.1999969482421875</ele>
        <time>2019-07-12T05:52:06.000Z</time>
      </trkpt>
      <trkpt lat="43.3252193033695220947265625" lon="-5.07914724759757518768310546875">
        <ele>135</ele>
        <time>2019-07-12T05:52:09.000Z</time>
      </trkpt>
      <trkpt lat="43.32512433640658855438232421875" lon="-5.07911271415650844573974609375">
        <ele>135.1999969482421875</ele>
        <time>2019-07-12T05:52:10.000Z</time>
      </trkpt>
      <trkpt lat="43.32503682933747768402099609375" lon="-5.0790462456643581390380859375">
        <ele>135.399993896484375</ele>
        <time>2019-07-12T05:52:11.000Z</time>
      </trkpt>
      <trkpt lat="43.3248835243284702301025390625" lon="-5.07884717546403408050537109375">
        <ele>136</ele>
        <time>2019-07-12T05:52:13.000Z</time>
      </trkpt>
      <trkpt lat="43.32466685213148593902587890625" lon="-5.078460685908794403076171875">
        <ele>136.600006103515625</ele>
        <time>2019-07-12T05:52:16.000Z</time>
      </trkpt>
      <trkpt lat="43.32458772696554660797119140625" lon="-5.0783371366560459136962890625">
        <ele>137.8000030517578125</ele>
        <time>2019-07-12T05:52:17.000Z</time>
      </trkpt>
      <trkpt lat="43.32449980080127716064453125" lon="-5.07822699844837188720703125">
        <ele>139</ele>
        <time>2019-07-12T05:52:18.000Z</time>
      </trkpt>
      <trkpt lat="43.32429821603000164031982421875" lon="-5.07805743254721164703369140625">
        <ele>141</ele>
        <time>2019-07-12T05:52:20.000Z</time>
      </trkpt>
      <trkpt lat="43.324185311794281005859375" lon="-5.0780025310814380645751953125">
        <ele>142.1999969482421875</ele>
        <time>2019-07-12T05:52:21.000Z</time>
      </trkpt>
      <trkpt lat="43.32406662404537200927734375" lon="-5.07797193713486194610595703125">
        <ele>143</ele>
        <time>2019-07-12T05:52:22.000Z</time>
      </trkpt>
      <trkpt lat="43.32394667901098728179931640625" lon="-5.07796003483235836029052734375">
        <ele>143.399993896484375</ele>
        <time>2019-07-12T05:52:23.000Z</time>
      </trkpt>
      <trkpt lat="43.32369438372552394866943359375" lon="-5.07795274257659912109375">
        <ele>143.1999969482421875</ele>
        <time>2019-07-12T05:52:25.000Z</time>
      </trkpt>
      <trkpt lat="43.3234270848333835601806640625" lon="-5.077847801148891448974609375">
        <ele>141.8000030517578125</ele>
        <time>2019-07-12T05:52:27.000Z</time>
      </trkpt>
      <trkpt lat="43.32315911538898944854736328125" lon="-5.07759676314890384674072265625">
        <ele>140.399993896484375</ele>
        <time>2019-07-12T05:52:29.000Z</time>
      </trkpt>
      <trkpt lat="43.32273649983108043670654296875" lon="-5.07716140709817409515380859375">
        <ele>139.8000030517578125</ele>
        <time>2019-07-12T05:52:32.000Z</time>
      </trkpt>
      <trkpt lat="43.32230198197066783905029296875" lon="-5.07672236301004886627197265625">
        <ele>139.399993896484375</ele>
        <time>2019-07-12T05:52:35.000Z</time>
      </trkpt>
      <trkpt lat="43.32187199033796787261962890625" lon="-5.0762711651623249053955078125">
        <ele>139.600006103515625</ele>
        <time>2019-07-12T05:52:38.000Z</time>
      </trkpt>
      <trkpt lat="43.32141048274934291839599609375" lon="-5.07581644691526889801025390625">
        <ele>140.8000030517578125</ele>
        <time>2019-07-12T05:52:41.000Z</time>
      </trkpt>
      <trkpt lat="43.3212461136281490325927734375" lon="-5.07565266452729701995849609375">
        <ele>141.600006103515625</ele>
        <time>2019-07-12T05:52:42.000Z</time>
      </trkpt>
      <trkpt lat="43.320752419531345367431640625" lon="-5.07516399957239627838134765625">
        <ele>142.399993896484375</ele>
        <time>2019-07-12T05:52:45.000Z</time>
      </trkpt>
      <trkpt lat="43.32061487250030040740966796875" lon="-5.07501161657273769378662109375">
        <ele>142.600006103515625</ele>
        <time>2019-07-12T05:52:46.000Z</time>
      </trkpt>
      <trkpt lat="43.32038403488695621490478515625" lon="-5.0747024081647396087646484375">
        <ele>143.8000030517578125</ele>
        <time>2019-07-12T05:52:48.000Z</time>
      </trkpt>
      <trkpt lat="43.32015571184456348419189453125" lon="-5.0744455866515636444091796875">
        <ele>145</ele>
        <time>2019-07-12T05:52:50.000Z</time>
      </trkpt>
      <trkpt lat="43.3200381137430667877197265625" lon="-5.07434575818479061126708984375">
        <ele>145.8000030517578125</ele>
        <time>2019-07-12T05:52:51.000Z</time>
      </trkpt>
      <trkpt lat="43.31991766579449176788330078125" lon="-5.07426663301885128021240234375">
        <ele>146.600006103515625</ele>
        <time>2019-07-12T05:52:52.000Z</time>
      </trkpt>
      <trkpt lat="43.31978070549666881561279296875" lon="-5.0742095522582530975341796875">
        <ele>147.399993896484375</ele>
        <time>2019-07-12T05:52:53.000Z</time>
      </trkpt>
      <trkpt lat="43.3196247182786464691162109375" lon="-5.0741756893694400787353515625">
        <ele>148.8000030517578125</ele>
        <time>2019-07-12T05:52:54.000Z</time>
      </trkpt>
      <trkpt lat="43.31927611492574214935302734375" lon="-5.0741210393607616424560546875">
        <ele>150.1999969482421875</ele>
        <time>2019-07-12T05:52:56.000Z</time>
      </trkpt>
      <trkpt lat="43.31891116686165332794189453125" lon="-5.0740238092839717864990234375">
        <ele>150.399993896484375</ele>
        <time>2019-07-12T05:52:58.000Z</time>
      </trkpt>
      <trkpt lat="43.3185930736362934112548828125" lon="-5.073862709105014801025390625">
        <ele>149.1999969482421875</ele>
        <time>2019-07-12T05:53:00.000Z</time>
      </trkpt>
      <trkpt lat="43.31845670007169246673583984375" lon="-5.07379489950835704803466796875">
        <ele>149</ele>
        <time>2019-07-12T05:53:01.000Z</time>
      </trkpt>
      <trkpt lat="43.31818579696118831634521484375" lon="-5.0737901218235492706298828125">
        <ele>149.399993896484375</ele>
        <time>2019-07-12T05:53:03.000Z</time>
      </trkpt>
      <trkpt lat="43.31804816611111164093017578125" lon="-5.0738467834889888763427734375">
        <ele>150.399993896484375</ele>
        <time>2019-07-12T05:53:04.000Z</time>
      </trkpt>
      <trkpt lat="43.31778061576187610626220703125" lon="-5.0739537365734577178955078125">
        <ele>151.399993896484375</ele>
        <time>2019-07-12T05:53:06.000Z</time>
      </trkpt>
      <trkpt lat="43.31751625053584575653076171875" lon="-5.07388927973806858062744140625">
        <ele>152.1999969482421875</ele>
        <time>2019-07-12T05:53:08.000Z</time>
      </trkpt>
      <trkpt lat="43.3173148334026336669921875" lon="-5.07362055592238903045654296875">
        <ele>152.399993896484375</ele>
        <time>2019-07-12T05:53:10.000Z</time>
      </trkpt>
      <trkpt lat="43.31719941459596157073974609375" lon="-5.073186457157135009765625">
        <ele>152.399993896484375</ele>
        <time>2019-07-12T05:53:12.000Z</time>
      </trkpt>
      <trkpt lat="43.31714660860598087310791015625" lon="-5.072939693927764892578125">
        <ele>152.8000030517578125</ele>
        <time>2019-07-12T05:53:13.000Z</time>
      </trkpt>
      <trkpt lat="43.316937647759914398193359375" lon="-5.072180293500423431396484375">
        <ele>153.399993896484375</ele>
        <time>2019-07-12T05:53:16.000Z</time>
      </trkpt>
      <trkpt lat="43.31667177379131317138671875" lon="-5.0714944861829280853271484375">
        <ele>153.399993896484375</ele>
        <time>2019-07-12T05:53:19.000Z</time>
      </trkpt>
      <trkpt lat="43.31637865863740444183349609375" lon="-5.07114772684872150421142578125">
        <ele>153.600006103515625</ele>
        <time>2019-07-12T05:53:21.000Z</time>
      </trkpt>
      <trkpt lat="43.3162320591509342193603515625" lon="-5.07099442183971405029296875">
        <ele>154.399993896484375</ele>
        <time>2019-07-12T05:53:22.000Z</time>
      </trkpt>
      <trkpt lat="43.31578371115028858184814453125" lon="-5.07053350098431110382080078125">
        <ele>154</ele>
        <time>2019-07-12T05:53:25.000Z</time>
      </trkpt>
      <trkpt lat="43.3155108802020549774169921875" lon="-5.0701825506985187530517578125">
        <ele>153.1999969482421875</ele>
        <time>2019-07-12T05:53:27.000Z</time>
      </trkpt>
      <trkpt lat="43.31540602259337902069091796875" lon="-5.06999504752457141876220703125">
        <ele>152</ele>
        <time>2019-07-12T05:53:28.000Z</time>
      </trkpt>
      <trkpt lat="43.315326310694217681884765625" lon="-5.06980461068451404571533203125">
        <ele>151.1999969482421875</ele>
        <time>2019-07-12T05:53:29.000Z</time>
      </trkpt>
      <trkpt lat="43.31517233513295650482177734375" lon="-5.06917295046150684356689453125">
        <ele>154.399993896484375</ele>
        <time>2019-07-12T05:53:32.000Z</time>
      </trkpt>
      <trkpt lat="43.31512372009456157684326171875" lon="-5.068940855562686920166015625">
        <ele>156.1999969482421875</ele>
        <time>2019-07-12T05:53:33.000Z</time>
      </trkpt>
      <trkpt lat="43.3150699920952320098876953125" lon="-5.0687029771506786346435546875">
        <ele>157.600006103515625</ele>
        <time>2019-07-12T05:53:34.000Z</time>
      </trkpt>
      <trkpt lat="43.31493915058672428131103515625" lon="-5.068226717412471771240234375">
        <ele>158.8000030517578125</ele>
        <time>2019-07-12T05:53:36.000Z</time>
      </trkpt>
      <trkpt lat="43.3148523978888988494873046875" lon="-5.06799378432333469390869140625">
        <ele>159</ele>
        <time>2019-07-12T05:53:37.000Z</time>
      </trkpt>
      <trkpt lat="43.3146264217793941497802734375" lon="-5.0675482861697673797607421875">
        <ele>159.600006103515625</ele>
        <time>2019-07-12T05:53:39.000Z</time>
      </trkpt>
      <trkpt lat="43.31435074098408222198486328125" lon="-5.06718979217112064361572265625">
        <ele>159.399993896484375</ele>
        <time>2019-07-12T05:53:41.000Z</time>
      </trkpt>
      <trkpt lat="43.31410624086856842041015625" lon="-5.0669221580028533935546875">
        <ele>159.1999969482421875</ele>
        <time>2019-07-12T05:53:43.000Z</time>
      </trkpt>
      <trkpt lat="43.31396617926657199859619140625" lon="-5.066586546599864959716796875">
        <ele>160</ele>
        <time>2019-07-12T05:53:45.000Z</time>
      </trkpt>
      <trkpt lat="43.31395545043051242828369140625" lon="-5.06592043675482273101806640625">
        <ele>161.600006103515625</ele>
        <time>2019-07-12T05:53:48.000Z</time>
      </trkpt>
      <trkpt lat="43.31399300135672092437744140625" lon="-5.0654578395187854766845703125">
        <ele>163</ele>
        <time>2019-07-12T05:53:50.000Z</time>
      </trkpt>
      <trkpt lat="43.31411420367658138275146484375" lon="-5.06502650678157806396484375">
        <ele>162.8000030517578125</ele>
        <time>2019-07-12T05:53:52.000Z</time>
      </trkpt>
      <trkpt lat="43.31425887532532215118408203125" lon="-5.06462476216256618499755859375">
        <ele>164</ele>
        <time>2019-07-12T05:53:54.000Z</time>
      </trkpt>
      <trkpt lat="43.3143072389066219329833984375" lon="-5.0644332356750965118408203125">
        <ele>164.8000030517578125</ele>
        <time>2019-07-12T05:53:55.000Z</time>
      </trkpt>
      <trkpt lat="43.314340598881244659423828125" lon="-5.06407826207578182220458984375">
        <ele>165.1999969482421875</ele>
        <time>2019-07-12T05:53:57.000Z</time>
      </trkpt>
      <trkpt lat="43.3142767287790775299072265625" lon="-5.06373778916895389556884765625">
        <ele>167</ele>
        <time>2019-07-12T05:53:59.000Z</time>
      </trkpt>
      <trkpt lat="43.31410347484052181243896484375" lon="-5.0633891858160495758056640625">
        <ele>168.8000030517578125</ele>
        <time>2019-07-12T05:54:01.000Z</time>
      </trkpt>
      <trkpt lat="43.31385520286858081817626953125" lon="-5.062903873622417449951171875">
        <ele>170</ele>
        <time>2019-07-12T05:54:04.000Z</time>
      </trkpt>
      <trkpt lat="43.31362755037844181060791015625" lon="-5.062667839229106903076171875">
        <ele>170.600006103515625</ele>
        <time>2019-07-12T05:54:06.000Z</time>
      </trkpt>
      <trkpt lat="43.31318356096744537353515625" lon="-5.06228126585483551025390625">
        <ele>171</ele>
        <time>2019-07-12T05:54:09.000Z</time>
      </trkpt>
      <trkpt lat="43.3129044435918331146240234375" lon="-5.06194590590894222259521484375">
        <ele>171</ele>
        <time>2019-07-12T05:54:11.000Z</time>
      </trkpt>
      <trkpt lat="43.3125815726816654205322265625" lon="-5.06135900504887104034423828125">
        <ele>170.399993896484375</ele>
        <time>2019-07-12T05:54:14.000Z</time>
      </trkpt>
      <trkpt lat="43.312430195510387420654296875" lon="-5.06098031066358089447021484375">
        <ele>170.399993896484375</ele>
        <time>2019-07-12T05:54:16.000Z</time>
      </trkpt>
      <trkpt lat="43.31236842088401317596435546875" lon="-5.0605976767838001251220703125">
        <ele>171.399993896484375</ele>
        <time>2019-07-12T05:54:18.000Z</time>
      </trkpt>
      <trkpt lat="43.312390632927417755126953125" lon="-5.06022476591169834136962890625">
        <ele>171.399993896484375</ele>
        <time>2019-07-12T05:54:20.000Z</time>
      </trkpt>
      <trkpt lat="43.312446959316730499267578125" lon="-5.05993994884192943572998046875">
        <ele>172</ele>
        <time>2019-07-12T05:54:22.000Z</time>
      </trkpt>
      <trkpt lat="43.3124793134629726409912109375" lon="-5.05981841124594211578369140625">
        <ele>173</ele>
        <time>2019-07-12T05:54:23.000Z</time>
      </trkpt>
      <trkpt lat="43.3125232346355915069580078125" lon="-5.059695951640605926513671875">
        <ele>173.8000030517578125</ele>
        <time>2019-07-12T05:54:24.000Z</time>
      </trkpt>
      <trkpt lat="43.3125798963010311126708984375" lon="-5.05956192500889301300048828125">
        <ele>175</ele>
        <time>2019-07-12T05:54:25.000Z</time>
      </trkpt>
      <trkpt lat="43.31269095651805400848388671875" lon="-5.05924768745899200439453125">
        <ele>177</ele>
        <time>2019-07-12T05:54:27.000Z</time>
      </trkpt>
      <trkpt lat="43.31268006004393100738525390625" lon="-5.05893479101359844207763671875">
        <ele>178.1999969482421875</ele>
        <time>2019-07-12T05:54:29.000Z</time>
      </trkpt>
      <trkpt lat="43.3125383220613002777099609375" lon="-5.05865081213414669036865234375">
        <ele>178.399993896484375</ele>
        <time>2019-07-12T05:54:31.000Z</time>
      </trkpt>
      <trkpt lat="43.31222006119787693023681640625" lon="-5.05815334618091583251953125">
        <ele>178.600006103515625</ele>
        <time>2019-07-12T05:54:34.000Z</time>
      </trkpt>
      <trkpt lat="43.31191378645598888397216796875" lon="-5.05762897431850433349609375">
        <ele>178</ele>
        <time>2019-07-12T05:54:37.000Z</time>
      </trkpt>
      <trkpt lat="43.31184572540223598480224609375" lon="-5.05745572037994861602783203125">
        <ele>177</ele>
        <time>2019-07-12T05:54:38.000Z</time>
      </trkpt>
      <trkpt lat="43.31180985085666179656982421875" lon="-5.0572801195085048675537109375">
        <ele>176.8000030517578125</ele>
        <time>2019-07-12T05:54:39.000Z</time>
      </trkpt>
      <trkpt lat="43.31178755499422550201416015625" lon="-5.05672515369951725006103515625">
        <ele>177.600006103515625</ele>
        <time>2019-07-12T05:54:42.000Z</time>
      </trkpt>
      <trkpt lat="43.3117336593568325042724609375" lon="-5.05656589753925800323486328125">
        <ele>179</ele>
        <time>2019-07-12T05:54:43.000Z</time>
      </trkpt>
      <trkpt lat="43.31165461800992488861083984375" lon="-5.05643530748784542083740234375">
        <ele>180.1999969482421875</ele>
        <time>2019-07-12T05:54:44.000Z</time>
      </trkpt>
      <trkpt lat="43.3114389516413211822509765625" lon="-5.0562360696494579315185546875">
        <ele>182</ele>
        <time>2019-07-12T05:54:46.000Z</time>
      </trkpt>
      <trkpt lat="43.31123267300426959991455078125" lon="-5.0560271926224231719970703125">
        <ele>184.1999969482421875</ele>
        <time>2019-07-12T05:54:48.000Z</time>
      </trkpt>
      <trkpt lat="43.31116846762597560882568359375" lon="-5.05589501000940799713134765625">
        <ele>185.1999969482421875</ele>
        <time>2019-07-12T05:54:49.000Z</time>
      </trkpt>
      <trkpt lat="43.31113636493682861328125" lon="-5.05575369112193584442138671875">
        <ele>186.1999969482421875</ele>
        <time>2019-07-12T05:54:50.000Z</time>
      </trkpt>
      <trkpt lat="43.31115036271512508392333984375" lon="-5.05560298450291156768798828125">
        <ele>186.8000030517578125</ele>
        <time>2019-07-12T05:54:51.000Z</time>
      </trkpt>
      <trkpt lat="43.311197049915790557861328125" lon="-5.05546015687286853790283203125">
        <ele>187.1999969482421875</ele>
        <time>2019-07-12T05:54:52.000Z</time>
      </trkpt>
      <trkpt lat="43.3114231936633586883544921875" lon="-5.05508531816303730010986328125">
        <ele>188</ele>
        <time>2019-07-12T05:54:55.000Z</time>
      </trkpt>
      <trkpt lat="43.3115043304860591888427734375" lon="-5.05482338368892669677734375">
        <ele>189</ele>
        <time>2019-07-12T05:54:57.000Z</time>
      </trkpt>
      <trkpt lat="43.31149117089807987213134765625" lon="-5.0546790473163127899169921875">
        <ele>189.600006103515625</ele>
        <time>2019-07-12T05:54:58.000Z</time>
      </trkpt>
      <trkpt lat="43.3114526979625225067138671875" lon="-5.054525323212146759033203125">
        <ele>190.399993896484375</ele>
        <time>2019-07-12T05:54:59.000Z</time>
      </trkpt>
      <trkpt lat="43.31138840876519680023193359375" lon="-5.05437151528894901275634765625">
        <ele>191.1999969482421875</ele>
        <time>2019-07-12T05:55:00.000Z</time>
      </trkpt>
      <trkpt lat="43.3112181723117828369140625" lon="-5.0540453754365444183349609375">
        <ele>192.399993896484375</ele>
        <time>2019-07-12T05:55:02.000Z</time>
      </trkpt>
      <trkpt lat="43.31091885454952716827392578125" lon="-5.05350633524358272552490234375">
        <ele>193.600006103515625</ele>
        <time>2019-07-12T05:55:05.000Z</time>
      </trkpt>
      <trkpt lat="43.31064359284937381744384765625" lon="-5.0530271418392658233642578125">
        <ele>193.8000030517578125</ele>
        <time>2019-07-12T05:55:08.000Z</time>
      </trkpt>
      <trkpt lat="43.31056782044470310211181640625" lon="-5.05269245244562625885009765625">
        <ele>195.399993896484375</ele>
        <time>2019-07-12T05:55:10.000Z</time>
      </trkpt>
      <trkpt lat="43.3105556666851043701171875" lon="-5.05251827649772167205810546875">
        <ele>197</ele>
        <time>2019-07-12T05:55:11.000Z</time>
      </trkpt>
      <trkpt lat="43.31055960617959499359130859375" lon="-5.0523438490927219390869140625">
        <ele>198.8000030517578125</ele>
        <time>2019-07-12T05:55:12.000Z</time>
      </trkpt>
      <trkpt lat="43.31055290065705776214599609375" lon="-5.05217646248638629913330078125">
        <ele>200.1999969482421875</ele>
        <time>2019-07-12T05:55:13.000Z</time>
      </trkpt>
      <trkpt lat="43.31052725203335285186767578125" lon="-5.05201653577387332916259765625">
        <ele>201.1999969482421875</ele>
        <time>2019-07-12T05:55:14.000Z</time>
      </trkpt>
      <trkpt lat="43.31039682962000370025634765625" lon="-5.05174286663532257080078125">
        <ele>202.600006103515625</ele>
        <time>2019-07-12T05:55:16.000Z</time>
      </trkpt>
      <trkpt lat="43.31018527038395404815673828125" lon="-5.0515569560229778289794921875">
        <ele>204.1999969482421875</ele>
        <time>2019-07-12T05:55:18.000Z</time>
      </trkpt>
      <trkpt lat="43.3100653253495693206787109375" lon="-5.0514986179769039154052734375">
        <ele>205.1999969482421875</ele>
        <time>2019-07-12T05:55:19.000Z</time>
      </trkpt>
      <trkpt lat="43.3099387586116790771484375" lon="-5.05146232433617115020751953125">
        <ele>206.1999969482421875</ele>
        <time>2019-07-12T05:55:20.000Z</time>
      </trkpt>
      <trkpt lat="43.30981847830116748809814453125" lon="-5.05143902264535427093505859375">
        <ele>207.399993896484375</ele>
        <time>2019-07-12T05:55:21.000Z</time>
      </trkpt>
      <trkpt lat="43.309710435569286346435546875" lon="-5.0514127872884273529052734375">
        <ele>208.1999969482421875</ele>
        <time>2019-07-12T05:55:22.000Z</time>
      </trkpt>
      <trkpt lat="43.309619240462779998779296875" lon="-5.05136425606906414031982421875">
        <ele>208.8000030517578125</ele>
        <time>2019-07-12T05:55:23.000Z</time>
      </trkpt>
      <trkpt lat="43.309556543827056884765625" lon="-5.05127079784870147705078125">
        <ele>209.600006103515625</ele>
        <time>2019-07-12T05:55:24.000Z</time>
      </trkpt>
      <trkpt lat="43.30952025018632411956787109375" lon="-5.05114029161632061004638671875">
        <ele>210.1999969482421875</ele>
        <time>2019-07-12T05:55:25.000Z</time>
      </trkpt>
      <trkpt lat="43.3095017261803150177001953125" lon="-5.05098120309412479400634765625">
        <ele>210.8000030517578125</ele>
        <time>2019-07-12T05:55:26.000Z</time>
      </trkpt>
      <trkpt lat="43.30948638729751110076904296875" lon="-5.05081088282167911529541015625">
        <ele>211.399993896484375</ele>
        <time>2019-07-12T05:55:27.000Z</time>
      </trkpt>
      <trkpt lat="43.30948571674525737762451171875" lon="-5.0504669733345508575439453125">
        <ele>212.399993896484375</ele>
        <time>2019-07-12T05:55:29.000Z</time>
      </trkpt>
      <trkpt lat="43.30956065095961093902587890625" lon="-5.05003371275961399078369140625">
        <ele>213.600006103515625</ele>
        <time>2019-07-12T05:55:32.000Z</time>
      </trkpt>
      <trkpt lat="43.30950264818966388702392578125" lon="-5.04985316656529903411865234375">
        <ele>214.8000030517578125</ele>
        <time>2019-07-12T05:55:34.000Z</time>
      </trkpt>
      <trkpt lat="43.30943592824041843414306640625" lon="-5.0498037971556186676025390625">
        <ele>216</ele>
        <time>2019-07-12T05:55:35.000Z</time>
      </trkpt>
      <trkpt lat="43.30936049111187458038330078125" lon="-5.0497890450060367584228515625">
        <ele>217.1999969482421875</ele>
        <time>2019-07-12T05:55:36.000Z</time>
      </trkpt>
      <trkpt lat="43.30927767790853977203369140625" lon="-5.04981058649718761444091796875">
        <ele>218.1999969482421875</ele>
        <time>2019-07-12T05:55:37.000Z</time>
      </trkpt>
      <trkpt lat="43.30919955857098102569580078125" lon="-5.0498654879629611968994140625">
        <ele>219</ele>
        <time>2019-07-12T05:55:38.000Z</time>
      </trkpt>
      <trkpt lat="43.3091287314891815185546875" lon="-5.049946121871471405029296875">
        <ele>219.600006103515625</ele>
        <time>2019-07-12T05:55:39.000Z</time>
      </trkpt>
      <trkpt lat="43.30906578339636325836181640625" lon="-5.050038993358612060546875">
        <ele>220.1999969482421875</ele>
        <time>2019-07-12T05:55:40.000Z</time>
      </trkpt>
      <trkpt lat="43.30904080532491207122802734375" lon="-5.05016178824007511138916015625">
        <ele>220.8000030517578125</ele>
        <time>2019-07-12T05:55:41.000Z</time>
      </trkpt>
      <trkpt lat="43.30903074704110622406005859375" lon="-5.0502996705472469329833984375">
        <ele>221</ele>
        <time>2019-07-12T05:55:42.000Z</time>
      </trkpt>
      <trkpt lat="43.3089773543179035186767578125" lon="-5.05071834661066532135009765625">
        <ele>221.8000030517578125</ele>
        <time>2019-07-12T05:55:45.000Z</time>
      </trkpt>
      <trkpt lat="43.3088900148868560791015625" lon="-5.05092890001833438873291015625">
        <ele>222.8000030517578125</ele>
        <time>2019-07-12T05:55:47.000Z</time>
      </trkpt>
      <trkpt lat="43.30882840789854526519775390625" lon="-5.051023699343204498291015625">
        <ele>223.600006103515625</ele>
        <time>2019-07-12T05:55:48.000Z</time>
      </trkpt>
      <trkpt lat="43.3086727559566497802734375" lon="-5.05121438764035701751708984375">
        <ele>225</ele>
        <time>2019-07-12T05:55:50.000Z</time>
      </trkpt>
      <trkpt lat="43.30850436352193355560302734375" lon="-5.051356293261051177978515625">
        <ele>226</ele>
        <time>2019-07-12T05:55:52.000Z</time>
      </trkpt>
      <trkpt lat="43.30841266550123691558837890625" lon="-5.05139426328241825103759765625">
        <ele>226.399993896484375</ele>
        <time>2019-07-12T05:55:53.000Z</time>
      </trkpt>
      <trkpt lat="43.30811393447220325469970703125" lon="-5.05143717862665653228759765625">
        <ele>227.600006103515625</ele>
        <time>2019-07-12T05:55:56.000Z</time>
      </trkpt>
      <trkpt lat="43.3079363219439983367919921875" lon="-5.05144388414919376373291015625">
        <ele>228.600006103515625</ele>
        <time>2019-07-12T05:55:58.000Z</time>
      </trkpt>
      <trkpt lat="43.3078028820455074310302734375" lon="-5.05145075730979442596435546875">
        <ele>229.8000030517578125</ele>
        <time>2019-07-12T05:56:00.000Z</time>
      </trkpt>
      <trkpt lat="43.307697772979736328125" lon="-5.051458217203617095947265625">
        <ele>231.399993896484375</ele>
        <time>2019-07-12T05:56:02.000Z</time>
      </trkpt>
      <trkpt lat="43.30764890648424625396728515625" lon="-5.05145897157490253448486328125">
        <ele>232.600006103515625</ele>
        <time>2019-07-12T05:56:03.000Z</time>
      </trkpt>
      <trkpt lat="43.30760716460645198822021484375" lon="-5.05144916474819183349609375">
        <ele>233.8000030517578125</ele>
        <time>2019-07-12T05:56:04.000Z</time>
      </trkpt>
      <trkpt lat="43.307561315596103668212890625" lon="-5.05140549503266811370849609375">
        <ele>235.399993896484375</ele>
        <time>2019-07-12T05:56:06.000Z</time>
      </trkpt>
      <trkpt lat="43.30754044465720653533935546875" lon="-5.05131312645971775054931640625">
        <ele>236.1999969482421875</ele>
        <time>2019-07-12T05:56:08.000Z</time>
      </trkpt>
      <trkpt lat="43.30754111520946025848388671875" lon="-5.05125738680362701416015625">
        <ele>236.600006103515625</ele>
        <time>2019-07-12T05:56:09.000Z</time>
      </trkpt>
      <trkpt lat="43.30754983238875865936279296875" lon="-5.05121388472616672515869140625">
        <ele>237</ele>
        <time>2019-07-12T05:56:10.000Z</time>
      </trkpt>
      <trkpt lat="43.30759375356137752532958984375" lon="-5.0511432252824306488037109375">
        <ele>237.8000030517578125</ele>
        <time>2019-07-12T05:56:13.000Z</time>
      </trkpt>
      <trkpt lat="43.30771076492965221405029296875" lon="-5.05100785754621028900146484375">
        <ele>238.600006103515625</ele>
        <time>2019-07-12T05:56:23.000Z</time>
      </trkpt>
      <trkpt lat="43.30795015208423137664794921875" lon="-5.05084876902401447296142578125">
        <ele>239</ele>
        <time>2019-07-12T05:56:27.000Z</time>
      </trkpt>
      <trkpt lat="43.30802391283214092254638671875" lon="-5.05070275627076625823974609375">
        <ele>240</ele>
        <time>2019-07-12T05:56:29.000Z</time>
      </trkpt>
      <trkpt lat="43.30799524672329425811767578125" lon="-5.05051852203905582427978515625">
        <ele>241.8000030517578125</ele>
        <time>2019-07-12T05:56:31.000Z</time>
      </trkpt>
      <trkpt lat="43.30786742269992828369140625" lon="-5.05040251649916172027587890625">
        <ele>243.8000030517578125</ele>
        <time>2019-07-12T05:56:33.000Z</time>
      </trkpt>
      <trkpt lat="43.307678997516632080078125" lon="-5.050408132374286651611328125">
        <ele>245.8000030517578125</ele>
        <time>2019-07-12T05:56:35.000Z</time>
      </trkpt>
      <trkpt lat="43.30747975967824459075927734375" lon="-5.050432942807674407958984375">
        <ele>247.399993896484375</ele>
        <time>2019-07-12T05:56:37.000Z</time>
      </trkpt>
      <trkpt lat="43.30727993510663509368896484375" lon="-5.05041793920099735260009765625">
        <ele>248.8000030517578125</ele>
        <time>2019-07-12T05:56:39.000Z</time>
      </trkpt>
      <trkpt lat="43.30717700533568859100341796875" lon="-5.05039044655859470367431640625">
        <ele>249.600006103515625</ele>
        <time>2019-07-12T05:56:40.000Z</time>
      </trkpt>
      <trkpt lat="43.307072483003139495849609375" lon="-5.05034585483372211456298828125">
        <ele>250.600006103515625</ele>
        <time>2019-07-12T05:56:41.000Z</time>
      </trkpt>
      <trkpt lat="43.30697064287960529327392578125" lon="-5.050284750759601593017578125">
        <ele>251.1999969482421875</ele>
        <time>2019-07-12T05:56:42.000Z</time>
      </trkpt>
      <trkpt lat="43.3068718202412128448486328125" lon="-5.05020336247980594635009765625">
        <ele>252</ele>
        <time>2019-07-12T05:56:43.000Z</time>
      </trkpt>
      <trkpt lat="43.30667610280215740203857421875" lon="-5.04999498836696147918701171875">
        <ele>253.8000030517578125</ele>
        <time>2019-07-12T05:56:45.000Z</time>
      </trkpt>
      <trkpt lat="43.30647745169699192047119140625" lon="-5.04979767836630344390869140625">
        <ele>255.600006103515625</ele>
        <time>2019-07-12T05:56:47.000Z</time>
      </trkpt>
      <trkpt lat="43.3062525652348995208740234375" lon="-5.0496790744364261627197265625">
        <ele>257.600006103515625</ele>
        <time>2019-07-12T05:56:49.000Z</time>
      </trkpt>
      <trkpt lat="43.3060198836028575897216796875" lon="-5.04962551407516002655029296875">
        <ele>259.20001220703125</ele>
        <time>2019-07-12T05:56:51.000Z</time>
      </trkpt>
      <trkpt lat="43.305825255811214447021484375" lon="-5.0494557805359363555908203125">
        <ele>260.79998779296875</ele>
        <time>2019-07-12T05:56:53.000Z</time>
      </trkpt>
      <trkpt lat="43.30564982257783412933349609375" lon="-5.0491873919963836669921875">
        <ele>262.399993896484375</ele>
        <time>2019-07-12T05:56:55.000Z</time>
      </trkpt>
      <trkpt lat="43.30547086894512176513671875" lon="-5.04893057048320770263671875">
        <ele>264.20001220703125</ele>
        <time>2019-07-12T05:56:57.000Z</time>
      </trkpt>
      <trkpt lat="43.305386714637279510498046875" lon="-5.048812888562679290771484375">
        <ele>265.399993896484375</ele>
        <time>2019-07-12T05:56:58.000Z</time>
      </trkpt>
      <trkpt lat="43.30530784092843532562255859375" lon="-5.0487044267356395721435546875">
        <ele>266.600006103515625</ele>
        <time>2019-07-12T05:56:59.000Z</time>
      </trkpt>
      <trkpt lat="43.3052333258092403411865234375" lon="-5.0486053526401519775390625">
        <ele>268</ele>
        <time>2019-07-12T05:57:00.000Z</time>
      </trkpt>
      <trkpt lat="43.30515663139522075653076171875" lon="-5.0485163368284702301025390625">
        <ele>269.20001220703125</ele>
        <time>2019-07-12T05:57:01.000Z</time>
      </trkpt>
      <trkpt lat="43.3050744049251079559326171875" lon="-5.04844240844249725341796875">
        <ele>270.20001220703125</ele>
        <time>2019-07-12T05:57:02.000Z</time>
      </trkpt>
      <trkpt lat="43.30488874576985836029052734375" lon="-5.048381388187408447265625">
        <ele>272</ele>
        <time>2019-07-12T05:57:04.000Z</time>
      </trkpt>
      <trkpt lat="43.30479268915951251983642578125" lon="-5.0484023429453372955322265625">
        <ele>273.20001220703125</ele>
        <time>2019-07-12T05:57:05.000Z</time>
      </trkpt>
      <trkpt lat="43.30469713546335697174072265625" lon="-5.04845422692596912384033203125">
        <ele>274.399993896484375</ele>
        <time>2019-07-12T05:57:06.000Z</time>
      </trkpt>
      <trkpt lat="43.30460250377655029296875" lon="-5.04853268153965473175048828125">
        <ele>275.600006103515625</ele>
        <time>2019-07-12T05:57:07.000Z</time>
      </trkpt>
      <trkpt lat="43.30450954847037792205810546875" lon="-5.04862789995968341827392578125">
        <ele>276.600006103515625</ele>
        <time>2019-07-12T05:57:08.000Z</time>
      </trkpt>
      <trkpt lat="43.30442355014383792877197265625" lon="-5.04873418249189853668212890625">
        <ele>277.600006103515625</ele>
        <time>2019-07-12T05:57:09.000Z</time>
      </trkpt>
      <trkpt lat="43.30435146577656269073486328125" lon="-5.04885253496468067169189453125">
        <ele>278.20001220703125</ele>
        <time>2019-07-12T05:57:10.000Z</time>
      </trkpt>
      <trkpt lat="43.30429899506270885467529296875" lon="-5.0489817000925540924072265625">
        <ele>278.79998779296875</ele>
        <time>2019-07-12T05:57:11.000Z</time>
      </trkpt>
      <trkpt lat="43.30426697619259357452392578125" lon="-5.0491228513419628143310546875">
        <ele>279.600006103515625</ele>
        <time>2019-07-12T05:57:12.000Z</time>
      </trkpt>
      <trkpt lat="43.30426680855453014373779296875" lon="-5.0492743961513042449951171875">
        <ele>280.600006103515625</ele>
        <time>2019-07-12T05:57:13.000Z</time>
      </trkpt>
      <trkpt lat="43.30429145134985446929931640625" lon="-5.0494314730167388916015625">
        <ele>281.79998779296875</ele>
        <time>2019-07-12T05:57:14.000Z</time>
      </trkpt>
      <trkpt lat="43.30434358678758144378662109375" lon="-5.04958880133926868438720703125">
        <ele>282.79998779296875</ele>
        <time>2019-07-12T05:57:15.000Z</time>
      </trkpt>
      <trkpt lat="43.3044172637164592742919921875" lon="-5.0497333891689777374267578125">
        <ele>283.600006103515625</ele>
        <time>2019-07-12T05:57:16.000Z</time>
      </trkpt>
      <trkpt lat="43.3045007474720478057861328125" lon="-5.049848891794681549072265625">
        <ele>284.399993896484375</ele>
        <time>2019-07-12T05:57:17.000Z</time>
      </trkpt>
      <trkpt lat="43.30459403805434703826904296875" lon="-5.0499234907329082489013671875">
        <ele>285</ele>
        <time>2019-07-12T05:57:18.000Z</time>
      </trkpt>
      <trkpt lat="43.3046988956630229949951171875" lon="-5.04995861090719699859619140625">
        <ele>285.600006103515625</ele>
        <time>2019-07-12T05:57:19.000Z</time>
      </trkpt>
      <trkpt lat="43.30493710935115814208984375" lon="-5.04998878575861454010009765625">
        <ele>286.600006103515625</ele>
        <time>2019-07-12T05:57:21.000Z</time>
      </trkpt>
      <trkpt lat="43.305042721331119537353515625" lon="-5.0500183738768100738525390625">
        <ele>287</ele>
        <time>2019-07-12T05:57:22.000Z</time>
      </trkpt>
      <trkpt lat="43.30512075684964656829833984375" lon="-5.0500726886093616485595703125">
        <ele>287.600006103515625</ele>
        <time>2019-07-12T05:57:23.000Z</time>
      </trkpt>
      <trkpt lat="43.30517138354480266571044921875" lon="-5.0501561723649501800537109375">
        <ele>288</ele>
        <time>2019-07-12T05:57:24.000Z</time>
      </trkpt>
      <trkpt lat="43.30520491115748882293701171875" lon="-5.05026371218264102935791015625">
        <ele>288.600006103515625</ele>
        <time>2019-07-12T05:57:25.000Z</time>
      </trkpt>
      <trkpt lat="43.3052071742713451385498046875" lon="-5.050392039120197296142578125">
        <ele>289.20001220703125</ele>
        <time>2019-07-12T05:57:26.000Z</time>
      </trkpt>
      <trkpt lat="43.305172808468341827392578125" lon="-5.050517432391643524169921875">
        <ele>290</ele>
        <time>2019-07-12T05:57:27.000Z</time>
      </trkpt>
      <trkpt lat="43.30510080792009830474853515625" lon="-5.05061659030616283416748046875">
        <ele>291</ele>
        <time>2019-07-12T05:57:28.000Z</time>
      </trkpt>
      <trkpt lat="43.30500978045165538787841796875" lon="-5.050695128738880157470703125">
        <ele>292.20001220703125</ele>
        <time>2019-07-12T05:57:29.000Z</time>
      </trkpt>
      <trkpt lat="43.30491607077419757843017578125" lon="-5.05073863081634044647216796875">
        <ele>293.20001220703125</ele>
        <time>2019-07-12T05:57:30.000Z</time>
      </trkpt>
      <trkpt lat="43.30465153791010379791259765625" lon="-5.0506513752043247222900390625">
        <ele>294.600006103515625</ele>
        <time>2019-07-12T05:57:32.000Z</time>
      </trkpt>
      <trkpt lat="43.30425708554685115814208984375" lon="-5.05039564333856105804443359375">
        <ele>296.20001220703125</ele>
        <time>2019-07-12T05:57:35.000Z</time>
      </trkpt>
      <trkpt lat="43.30415549688041210174560546875" lon="-5.0502996705472469329833984375">
        <ele>297.20001220703125</ele>
        <time>2019-07-12T05:57:36.000Z</time>
      </trkpt>
      <trkpt lat="43.30398517660796642303466796875" lon="-5.05010630004107952117919921875">
        <ele>299</ele>
        <time>2019-07-12T05:57:38.000Z</time>
      </trkpt>
      <trkpt lat="43.30389909446239471435546875" lon="-5.04999264143407344818115234375">
        <ele>300.20001220703125</ele>
        <time>2019-07-12T05:57:39.000Z</time>
      </trkpt>
      <trkpt lat="43.30381955020129680633544921875" lon="-5.0498819164931774139404296875">
        <ele>301.600006103515625</ele>
        <time>2019-07-12T05:57:40.000Z</time>
      </trkpt>
      <trkpt lat="43.3037550933659076690673828125" lon="-5.0497022084891796112060546875">
        <ele>303.399993896484375</ele>
        <time>2019-07-12T05:57:41.000Z</time>
      </trkpt>
      <trkpt lat="43.30370337702333927154541015625" lon="-5.04948536865413188934326171875">
        <ele>305.20001220703125</ele>
        <time>2019-07-12T05:57:42.000Z</time>
      </trkpt>
      <trkpt lat="43.3036588691174983978271484375" lon="-5.0492874719202518463134765625">
        <ele>306.20001220703125</ele>
        <time>2019-07-12T05:57:43.000Z</time>
      </trkpt>
      <trkpt lat="43.30358820967376232147216796875" lon="-5.048898719251155853271484375">
        <ele>307.600006103515625</ele>
        <time>2019-07-12T05:57:45.000Z</time>
      </trkpt>
      <trkpt lat="43.3035525865852832794189453125" lon="-5.04872596822679042816162109375">
        <ele>308.79998779296875</ele>
        <time>2019-07-12T05:57:46.000Z</time>
      </trkpt>
      <trkpt lat="43.3035106770694255828857421875" lon="-5.04856872372329235076904296875">
        <ele>310.399993896484375</ele>
        <time>2019-07-12T05:57:47.000Z</time>
      </trkpt>
      <trkpt lat="43.30345175229012966156005859375" lon="-5.04842639900743961334228515625">
        <ele>312.79998779296875</ele>
        <time>2019-07-12T05:57:48.000Z</time>
      </trkpt>
      <trkpt lat="43.30337941646575927734375" lon="-5.04829312674701213836669921875">
        <ele>315</ele>
        <time>2019-07-12T05:57:49.000Z</time>
      </trkpt>
      <trkpt lat="43.30329467542469501495361328125" lon="-5.048163123428821563720703125">
        <ele>317.20001220703125</ele>
        <time>2019-07-12T05:57:50.000Z</time>
      </trkpt>
      <trkpt lat="43.3032045699656009674072265625" lon="-5.0480313599109649658203125">
        <ele>318.600006103515625</ele>
        <time>2019-07-12T05:57:51.000Z</time>
      </trkpt>
      <trkpt lat="43.3031116984784603118896484375" lon="-5.04789481870830059051513671875">
        <ele>320</ele>
        <time>2019-07-12T05:57:52.000Z</time>
      </trkpt>
      <trkpt lat="43.3030292205512523651123046875" lon="-5.04774545319378376007080078125">
        <ele>321.399993896484375</ele>
        <time>2019-07-12T05:57:53.000Z</time>
      </trkpt>
      <trkpt lat="43.30297105014324188232421875" lon="-5.0475785695016384124755859375">
        <ele>322.399993896484375</ele>
        <time>2019-07-12T05:57:54.000Z</time>
      </trkpt>
      <trkpt lat="43.30293475650250911712646484375" lon="-5.04740045405924320220947265625">
        <ele>323</ele>
        <time>2019-07-12T05:57:55.000Z</time>
      </trkpt>
      <trkpt lat="43.30291681922972202301025390625" lon="-5.0472215004265308380126953125">
        <ele>323.600006103515625</ele>
        <time>2019-07-12T05:57:56.000Z</time>
      </trkpt>
      <trkpt lat="43.3028783462941646575927734375" lon="-5.0469120405614376068115234375">
        <ele>326.399993896484375</ele>
        <time>2019-07-12T05:57:58.000Z</time>
      </trkpt>
      <trkpt lat="43.30283266492187976837158203125" lon="-5.0467718951404094696044921875">
        <ele>328.79998779296875</ele>
        <time>2019-07-12T05:57:59.000Z</time>
      </trkpt>
      <trkpt lat="43.3027653582394123077392578125" lon="-5.046628229320049285888671875">
        <ele>331.399993896484375</ele>
        <time>2019-07-12T05:58:00.000Z</time>
      </trkpt>
      <trkpt lat="43.30270224250853061676025390625" lon="-5.04646687768399715423583984375">
        <ele>333.399993896484375</ele>
        <time>2019-07-12T05:58:01.000Z</time>
      </trkpt>
      <trkpt lat="43.30265748314559459686279296875" lon="-5.04628096707165241241455078125">
        <ele>334.600006103515625</ele>
        <time>2019-07-12T05:58:02.000Z</time>
      </trkpt>
      <trkpt lat="43.30257567577064037322998046875" lon="-5.04587796516716480255126953125">
        <ele>335.79998779296875</ele>
        <time>2019-07-12T05:58:04.000Z</time>
      </trkpt>
      <trkpt lat="43.30243863165378570556640625" lon="-5.04530766047537326812744140625">
        <ele>337.79998779296875</ele>
        <time>2019-07-12T05:58:07.000Z</time>
      </trkpt>
      <trkpt lat="43.3023898489773273468017578125" lon="-5.04512174986302852630615234375">
        <ele>340</ele>
        <time>2019-07-12T05:58:08.000Z</time>
      </trkpt>
      <trkpt lat="43.3023449219763278961181640625" lon="-5.044931732118129730224609375">
        <ele>342.600006103515625</ele>
        <time>2019-07-12T05:58:09.000Z</time>
      </trkpt>
      <trkpt lat="43.30230980180203914642333984375" lon="-5.04473626613616943359375">
        <ele>345</ele>
        <time>2019-07-12T05:58:10.000Z</time>
      </trkpt>
      <trkpt lat="43.30229186452925205230712890625" lon="-5.04453250207006931304931640625">
        <ele>347</ele>
        <time>2019-07-12T05:58:11.000Z</time>
      </trkpt>
      <trkpt lat="43.302287757396697998046875" lon="-5.0443218648433685302734375">
        <ele>349.20001220703125</ele>
        <time>2019-07-12T05:58:12.000Z</time>
      </trkpt>
      <trkpt lat="43.302282392978668212890625" lon="-5.04410938359797000885009765625">
        <ele>351.20001220703125</ele>
        <time>2019-07-12T05:58:13.000Z</time>
      </trkpt>
      <trkpt lat="43.30227040685713291168212890625" lon="-5.0438953936100006103515625">
        <ele>352.600006103515625</ele>
        <time>2019-07-12T05:58:14.000Z</time>
      </trkpt>
      <trkpt lat="43.30226303078234195709228515625" lon="-5.0436886958777904510498046875">
        <ele>354.20001220703125</ele>
        <time>2019-07-12T05:58:15.000Z</time>
      </trkpt>
      <trkpt lat="43.3022651262581348419189453125" lon="-5.0434868596494197845458984375">
        <ele>356</ele>
        <time>2019-07-12T05:58:16.000Z</time>
      </trkpt>
      <trkpt lat="43.30226722173392772674560546875" lon="-5.04329927265644073486328125">
        <ele>357.600006103515625</ele>
        <time>2019-07-12T05:58:17.000Z</time>
      </trkpt>
      <trkpt lat="43.30226202495396137237548828125" lon="-5.04312367178499698638916015625">
        <ele>359.399993896484375</ele>
        <time>2019-07-12T05:58:18.000Z</time>
      </trkpt>
      <trkpt lat="43.302247859537601470947265625" lon="-5.042962990701198577880859375">
        <ele>361.20001220703125</ele>
        <time>2019-07-12T05:58:19.000Z</time>
      </trkpt>
      <trkpt lat="43.30222229473292827606201171875" lon="-5.0428278744220733642578125">
        <ele>362.600006103515625</ele>
        <time>2019-07-12T05:58:20.000Z</time>
      </trkpt>
      <trkpt lat="43.30219128169119358062744140625" lon="-5.04272033460438251495361328125">
        <ele>363.79998779296875</ele>
        <time>2019-07-12T05:58:21.000Z</time>
      </trkpt>
      <trkpt lat="43.3021732605993747711181640625" lon="-5.042639113962650299072265625">
        <ele>365</ele>
        <time>2019-07-12T05:58:22.000Z</time>
      </trkpt>
      <trkpt lat="43.3021705783903598785400390625" lon="-5.04257348366081714630126953125">
        <ele>366.79998779296875</ele>
        <time>2019-07-12T05:58:23.000Z</time>
      </trkpt>
      <trkpt lat="43.3021883480250835418701171875" lon="-5.0425125472247600555419921875">
        <ele>368.600006103515625</ele>
        <time>2019-07-12T05:58:24.000Z</time>
      </trkpt>
      <trkpt lat="43.30223268829286098480224609375" lon="-5.04245714284479618072509765625">
        <ele>370.399993896484375</ele>
        <time>2019-07-12T05:58:25.000Z</time>
      </trkpt>
      <trkpt lat="43.3023046888411045074462890625" lon="-5.04240500740706920623779296875">
        <ele>371.79998779296875</ele>
        <time>2019-07-12T05:58:26.000Z</time>
      </trkpt>
      <trkpt lat="43.302396051585674285888671875" lon="-5.04235857166349887847900390625">
        <ele>373.399993896484375</ele>
        <time>2019-07-12T05:58:27.000Z</time>
      </trkpt>
      <trkpt lat="43.30249956808984279632568359375" lon="-5.0423278100788593292236328125">
        <ele>374.399993896484375</ele>
        <time>2019-07-12T05:58:28.000Z</time>
      </trkpt>
      <trkpt lat="43.30269302241504192352294921875" lon="-5.0423811189830303192138671875">
        <ele>375.79998779296875</ele>
        <time>2019-07-12T05:58:30.000Z</time>
      </trkpt>
      <trkpt lat="43.30287449061870574951171875" lon="-5.042538531124591827392578125">
        <ele>377.20001220703125</ele>
        <time>2019-07-12T05:58:32.000Z</time>
      </trkpt>
      <trkpt lat="43.30299158580601215362548828125" lon="-5.04261824302375316619873046875">
        <ele>378.399993896484375</ele>
        <time>2019-07-12T05:58:33.000Z</time>
      </trkpt>
      <trkpt lat="43.30311362631618976593017578125" lon="-5.04268370568752288818359375">
        <ele>379.600006103515625</ele>
        <time>2019-07-12T05:58:34.000Z</time>
      </trkpt>
      <trkpt lat="43.30323927104473114013671875" lon="-5.04273793660104274749755859375">
        <ele>381.20001220703125</ele>
        <time>2019-07-12T05:58:35.000Z</time>
      </trkpt>
      <trkpt lat="43.30337069928646087646484375" lon="-5.0427817739546298980712890625">
        <ele>382.79998779296875</ele>
        <time>2019-07-12T05:58:36.000Z</time>
      </trkpt>
      <trkpt lat="43.3035066537559032440185546875" lon="-5.0428198277950286865234375">
        <ele>384.20001220703125</ele>
        <time>2019-07-12T05:58:37.000Z</time>
      </trkpt>
      <trkpt lat="43.30364336259663105010986328125" lon="-5.04285377450287342071533203125">
        <ele>386</ele>
        <time>2019-07-12T05:58:38.000Z</time>
      </trkpt>
      <trkpt lat="43.30377261154353618621826171875" lon="-5.04288931377232074737548828125">
        <ele>388</ele>
        <time>2019-07-12T05:58:39.000Z</time>
      </trkpt>
      <trkpt lat="43.30389364622533321380615234375" lon="-5.04292334429919719696044921875">
        <ele>390.399993896484375</ele>
        <time>2019-07-12T05:58:40.000Z</time>
      </trkpt>
      <trkpt lat="43.3040095679461956024169921875" lon="-5.0429619848728179931640625">
        <ele>392.600006103515625</ele>
        <time>2019-07-12T05:58:41.000Z</time>
      </trkpt>
      <trkpt lat="43.3041165210306644439697265625" lon="-5.04301990382373332977294921875">
        <ele>394.600006103515625</ele>
        <time>2019-07-12T05:58:42.000Z</time>
      </trkpt>
      <trkpt lat="43.30421467311680316925048828125" lon="-5.043102465569972991943359375">
        <ele>396</ele>
        <time>2019-07-12T05:58:43.000Z</time>
      </trkpt>
      <trkpt lat="43.3043062873184680938720703125" lon="-5.04320313222706317901611328125">
        <ele>397.399993896484375</ele>
        <time>2019-07-12T05:58:44.000Z</time>
      </trkpt>
      <trkpt lat="43.304394967854022979736328125" lon="-5.04331880249083042144775390625">
        <ele>398.399993896484375</ele>
        <time>2019-07-12T05:58:45.000Z</time>
      </trkpt>
      <trkpt lat="43.30449345521628856658935546875" lon="-5.04342843778431415557861328125">
        <ele>399.600006103515625</ele>
        <time>2019-07-12T05:58:46.000Z</time>
      </trkpt>
      <trkpt lat="43.3046038448810577392578125" lon="-5.04352591931819915771484375">
        <ele>401</ele>
        <time>2019-07-12T05:58:47.000Z</time>
      </trkpt>
      <trkpt lat="43.3047230355441570281982421875" lon="-5.0436179526150226593017578125">
        <ele>402.79998779296875</ele>
        <time>2019-07-12T05:58:48.000Z</time>
      </trkpt>
      <trkpt lat="43.30483443103730678558349609375" lon="-5.0436974130570888519287109375">
        <ele>404.399993896484375</ele>
        <time>2019-07-12T05:58:49.000Z</time>
      </trkpt>
      <trkpt lat="43.30493417568504810333251953125" lon="-5.04375851713120937347412109375">
        <ele>405.79998779296875</ele>
        <time>2019-07-12T05:58:50.000Z</time>
      </trkpt>
      <trkpt lat="43.30501891672611236572265625" lon="-5.04380285739898681640625">
        <ele>406.79998779296875</ele>
        <time>2019-07-12T05:58:51.000Z</time>
      </trkpt>
      <trkpt lat="43.30509644933044910430908203125" lon="-5.0438157655298709869384765625">
        <ele>408</ele>
        <time>2019-07-12T05:58:52.000Z</time>
      </trkpt>
      <trkpt lat="43.30516870133578777313232421875" lon="-5.04379908554255962371826171875">
        <ele>408.79998779296875</ele>
        <time>2019-07-12T05:58:53.000Z</time>
      </trkpt>
      <trkpt lat="43.305237181484699249267578125" lon="-5.04375533200800418853759765625">
        <ele>409.600006103515625</ele>
        <time>2019-07-12T05:58:54.000Z</time>
      </trkpt>
      <trkpt lat="43.30530080012977123260498046875" lon="-5.043690204620361328125">
        <ele>410.600006103515625</ele>
        <time>2019-07-12T05:58:55.000Z</time>
      </trkpt>
      <trkpt lat="43.30535159446299076080322265625" lon="-5.04361501894891262054443359375">
        <ele>411.399993896484375</ele>
        <time>2019-07-12T05:58:56.000Z</time>
      </trkpt>
      <trkpt lat="43.30537489615380764007568359375" lon="-5.04354226402938365936279296875">
        <ele>412.20001220703125</ele>
        <time>2019-07-12T05:58:57.000Z</time>
      </trkpt>
      <trkpt lat="43.30537338741123676300048828125" lon="-5.04347654990851879119873046875">
        <ele>412.79998779296875</ele>
        <time>2019-07-12T05:58:58.000Z</time>
      </trkpt>
      <trkpt lat="43.3053506724536418914794921875" lon="-5.04342491738498210906982421875">
        <ele>413.20001220703125</ele>
        <time>2019-07-12T05:58:59.000Z</time>
      </trkpt>
      <trkpt lat="43.305241204798221588134765625" lon="-5.0434060581028461456298828125">
        <ele>413.79998779296875</ele>
        <time>2019-07-12T05:59:01.000Z</time>
      </trkpt>
      <trkpt lat="43.3051759935915470123291015625" lon="-5.0434499792754650115966796875">
        <ele>414.20001220703125</ele>
        <time>2019-07-12T05:59:02.000Z</time>
      </trkpt>
      <trkpt lat="43.30504246987402439117431640625" lon="-5.04355550743639469146728515625">
        <ele>414.79998779296875</ele>
        <time>2019-07-12T05:59:04.000Z</time>
      </trkpt>
      <trkpt lat="43.3049027435481548309326171875" lon="-5.043547712266445159912109375">
        <ele>415.79998779296875</ele>
        <time>2019-07-12T05:59:06.000Z</time>
      </trkpt>
      <trkpt lat="43.3047491870820522308349609375" lon="-5.0433348119258880615234375">
        <ele>417</ele>
        <time>2019-07-12T05:59:08.000Z</time>
      </trkpt>
      <trkpt lat="43.30449496395885944366455078125" lon="-5.0428922474384307861328125">
        <ele>418.600006103515625</ele>
        <time>2019-07-12T05:59:11.000Z</time>
      </trkpt>
      <trkpt lat="43.30441676080226898193359375" lon="-5.04277213476598262786865234375">
        <ele>419.79998779296875</ele>
        <time>2019-07-12T05:59:12.000Z</time>
      </trkpt>
      <trkpt lat="43.30433637835085391998291015625" lon="-5.04265822470188140869140625">
        <ele>421.20001220703125</ele>
        <time>2019-07-12T05:59:13.000Z</time>
      </trkpt>
      <trkpt lat="43.3042553253471851348876953125" lon="-5.042546577751636505126953125">
        <ele>423</ele>
        <time>2019-07-12T05:59:14.000Z</time>
      </trkpt>
      <trkpt lat="43.30417024902999401092529296875" lon="-5.04243803210556507110595703125">
        <ele>424.600006103515625</ele>
        <time>2019-07-12T05:59:15.000Z</time>
      </trkpt>
      <trkpt lat="43.30407754518091678619384765625" lon="-5.04232504405081272125244140625">
        <ele>426.20001220703125</ele>
        <time>2019-07-12T05:59:16.000Z</time>
      </trkpt>
      <trkpt lat="43.30398450605571269989013671875" lon="-5.04220736213028430938720703125">
        <ele>427.79998779296875</ele>
        <time>2019-07-12T05:59:17.000Z</time>
      </trkpt>
      <trkpt lat="43.30388140864670276641845703125" lon="-5.04208884201943874359130859375">
        <ele>428.79998779296875</ele>
        <time>2019-07-12T05:59:18.000Z</time>
      </trkpt>
      <trkpt lat="43.3036588691174983978271484375" lon="-5.04185448400676250457763671875">
        <ele>430</ele>
        <time>2019-07-12T05:59:20.000Z</time>
      </trkpt>
      <trkpt lat="43.3034275285899639129638671875" lon="-5.0416076369583606719970703125">
        <ele>431.399993896484375</ele>
        <time>2019-07-12T05:59:22.000Z</time>
      </trkpt>
      <trkpt lat="43.30331898294389247894287109375" lon="-5.04144326783716678619384765625">
        <ele>432.600006103515625</ele>
        <time>2019-07-12T05:59:23.000Z</time>
      </trkpt>
      <trkpt lat="43.3032132871448993682861328125" lon="-5.04124470055103302001953125">
        <ele>434</ele>
        <time>2019-07-12T05:59:24.000Z</time>
      </trkpt>
      <trkpt lat="43.30295872874557971954345703125" lon="-5.0407966040074825286865234375">
        <ele>435.20001220703125</ele>
        <time>2019-07-12T05:59:26.000Z</time>
      </trkpt>
      <trkpt lat="43.30267139710485935211181640625" lon="-5.0403208471834659576416015625">
        <ele>437</ele>
        <time>2019-07-12T05:59:28.000Z</time>
      </trkpt>
      <trkpt lat="43.302537538111209869384765625" lon="-5.040073581039905548095703125">
        <ele>438.20001220703125</ele>
        <time>2019-07-12T05:59:29.000Z</time>
      </trkpt>
      <trkpt lat="43.3024059422314167022705078125" lon="-5.03984115086495876312255859375">
        <ele>439.79998779296875</ele>
        <time>2019-07-12T05:59:30.000Z</time>
      </trkpt>
      <trkpt lat="43.302280046045780181884765625" lon="-5.0396378897130489349365234375">
        <ele>441</ele>
        <time>2019-07-12T05:59:31.000Z</time>
      </trkpt>
      <trkpt lat="43.30215741880238056182861328125" lon="-5.0394590198993682861328125">
        <ele>442.600006103515625</ele>
        <time>2019-07-12T05:59:32.000Z</time>
      </trkpt>
      <trkpt lat="43.30205180682241916656494140625" lon="-5.03931795246899127960205078125">
        <ele>444.600006103515625</ele>
        <time>2019-07-12T05:59:33.000Z</time>
      </trkpt>
      <trkpt lat="43.30195851624011993408203125" lon="-5.0392006896436214447021484375">
        <ele>446.20001220703125</ele>
        <time>2019-07-12T05:59:34.000Z</time>
      </trkpt>
      <trkpt lat="43.301887102425098419189453125" lon="-5.03908359445631504058837890625">
        <ele>447.20001220703125</ele>
        <time>2019-07-12T05:59:35.000Z</time>
      </trkpt>
      <trkpt lat="43.3018319495022296905517578125" lon="-5.03893892280757427215576171875">
        <ele>448.79998779296875</ele>
        <time>2019-07-12T05:59:36.000Z</time>
      </trkpt>
      <trkpt lat="43.30181459896266460418701171875" lon="-5.03876374103128910064697265625">
        <ele>451.20001220703125</ele>
        <time>2019-07-12T05:59:37.000Z</time>
      </trkpt>
      <trkpt lat="43.3018369786441326141357421875" lon="-5.0385472364723682403564453125">
        <ele>454</ele>
        <time>2019-07-12T05:59:38.000Z</time>
      </trkpt>
      <trkpt lat="43.30184410326182842254638671875" lon="-5.0383142195641994476318359375">
        <ele>456.79998779296875</ele>
        <time>2019-07-12T05:59:39.000Z</time>
      </trkpt>
      <trkpt lat="43.30181845463812351226806640625" lon="-5.0380882434546947479248046875">
        <ele>459.79998779296875</ele>
        <time>2019-07-12T05:59:40.000Z</time>
      </trkpt>
      <trkpt lat="43.30175911076366901397705078125" lon="-5.037880875170230865478515625">
        <ele>462.399993896484375</ele>
        <time>2019-07-12T05:59:41.000Z</time>
      </trkpt>
      <trkpt lat="43.30167462117969989776611328125" lon="-5.03769068978726863861083984375">
        <ele>464.79998779296875</ele>
        <time>2019-07-12T05:59:42.000Z</time>
      </trkpt>
      <trkpt lat="43.30158661119639873504638671875" lon="-5.037502348423004150390625">
        <ele>467.20001220703125</ele>
        <time>2019-07-12T05:59:43.000Z</time>
      </trkpt>
      <trkpt lat="43.30150010995566844940185546875" lon="-5.03731233067810535430908203125">
        <ele>469.399993896484375</ele>
        <time>2019-07-12T05:59:44.000Z</time>
      </trkpt>
      <trkpt lat="43.3014205656945705413818359375" lon="-5.0371186248958110809326171875">
        <ele>471</ele>
        <time>2019-07-12T05:59:45.000Z</time>
      </trkpt>
      <trkpt lat="43.30135460011661052703857421875" lon="-5.03692089579999446868896484375">
        <ele>472.399993896484375</ele>
        <time>2019-07-12T05:59:46.000Z</time>
      </trkpt>
      <trkpt lat="43.30130179412662982940673828125" lon="-5.03671604208648204803466796875">
        <ele>474.600006103515625</ele>
        <time>2019-07-12T05:59:47.000Z</time>
      </trkpt>
      <trkpt lat="43.3012562803924083709716796875" lon="-5.03651655279099941253662109375">
        <ele>476.399993896484375</ele>
        <time>2019-07-12T05:59:48.000Z</time>
      </trkpt>
      <trkpt lat="43.30121613107621669769287109375" lon="-5.0363471545279026031494140625">
        <ele>478.20001220703125</ele>
        <time>2019-07-12T05:59:49.000Z</time>
      </trkpt>
      <trkpt lat="43.3011795021593570709228515625" lon="-5.0362257845699787139892578125">
        <ele>479.600006103515625</ele>
        <time>2019-07-12T05:59:50.000Z</time>
      </trkpt>
      <trkpt lat="43.30113600008189678192138671875" lon="-5.03616417758166790008544921875">
        <ele>480.600006103515625</ele>
        <time>2019-07-12T05:59:51.000Z</time>
      </trkpt>
      <trkpt lat="43.3010772429406642913818359375" lon="-5.0361590646207332611083984375">
        <ele>481.79998779296875</ele>
        <time>2019-07-12T05:59:52.000Z</time>
      </trkpt>
      <trkpt lat="43.3010121993720531463623046875" lon="-5.0361982919275760650634765625">
        <ele>483.399993896484375</ele>
        <time>2019-07-12T05:59:53.000Z</time>
      </trkpt>
      <trkpt lat="43.300944305956363677978515625" lon="-5.03626652061939239501953125">
        <ele>485.399993896484375</ele>
        <time>2019-07-12T05:59:54.000Z</time>
      </trkpt>
      <trkpt lat="43.30087356269359588623046875" lon="-5.03635930828750133514404296875">
        <ele>487.399993896484375</ele>
        <time>2019-07-12T05:59:55.000Z</time>
      </trkpt>
      <trkpt lat="43.30080340616405010223388671875" lon="-5.03648386336863040924072265625">
        <ele>488.79998779296875</ele>
        <time>2019-07-12T05:59:56.000Z</time>
      </trkpt>
      <trkpt lat="43.30066527239978313446044921875" lon="-5.036792568862438201904296875">
        <ele>490</ele>
        <time>2019-07-12T05:59:58.000Z</time>
      </trkpt>
      <trkpt lat="43.30060810782015323638916015625" lon="-5.03694905899465084075927734375">
        <ele>490.399993896484375</ele>
        <time>2019-07-12T05:59:59.000Z</time>
      </trkpt>
      <trkpt lat="43.3005495183169841766357421875" lon="-5.037255249917507171630859375">
        <ele>490.600006103515625</ele>
        <time>2019-07-12T06:00:01.000Z</time>
      </trkpt>
      <trkpt lat="43.30054373480379581451416015625" lon="-5.03738190047442913055419921875">
        <ele>491.399993896484375</ele>
        <time>2019-07-12T06:00:02.000Z</time>
      </trkpt>
      <trkpt lat="43.30052898265421390533447265625" lon="-5.0374820642173290252685546875">
        <ele>492.399993896484375</ele>
        <time>2019-07-12T06:00:03.000Z</time>
      </trkpt>
      <trkpt lat="43.3004931919276714324951171875" lon="-5.03754434175789356231689453125">
        <ele>493.600006103515625</ele>
        <time>2019-07-12T06:00:04.000Z</time>
      </trkpt>
      <trkpt lat="43.3004445768892765045166015625" lon="-5.03755875863134860992431640625">
        <ele>494.79998779296875</ele>
        <time>2019-07-12T06:00:05.000Z</time>
      </trkpt>
      <trkpt lat="43.30040258355438709259033203125" lon="-5.03752590157091617584228515625">
        <ele>496.399993896484375</ele>
        <time>2019-07-12T06:00:06.000Z</time>
      </trkpt>
      <trkpt lat="43.3003862388432025909423828125" lon="-5.03745985217392444610595703125">
        <ele>497.399993896484375</ele>
        <time>2019-07-12T06:00:07.000Z</time>
      </trkpt>
      <trkpt lat="43.3004402182996273040771484375" lon="-5.03723748028278350830078125">
        <ele>499</ele>
        <time>2019-07-12T06:00:09.000Z</time>
      </trkpt>
      <trkpt lat="43.30048422329127788543701171875" lon="-5.03695174120366573333740234375">
        <ele>499.600006103515625</ele>
        <time>2019-07-12T06:00:11.000Z</time>
      </trkpt>
      <trkpt lat="43.30046511255204677581787109375" lon="-5.03679935820400714874267578125">
        <ele>500</ele>
        <time>2019-07-12T06:00:12.000Z</time>
      </trkpt>
      <trkpt lat="43.300415575504302978515625" lon="-5.03664873540401458740234375">
        <ele>500.79998779296875</ele>
        <time>2019-07-12T06:00:13.000Z</time>
      </trkpt>
      <trkpt lat="43.30034826882183551788330078125" lon="-5.0364966876804828643798828125">
        <ele>501.79998779296875</ele>
        <time>2019-07-12T06:00:14.000Z</time>
      </trkpt>
      <trkpt lat="43.3002749271690845489501953125" lon="-5.03634120337665081024169921875">
        <ele>502.79998779296875</ele>
        <time>2019-07-12T06:00:15.000Z</time>
      </trkpt>
      <trkpt lat="43.30020979978144168853759765625" lon="-5.03617775626480579376220703125">
        <ele>504</ele>
        <time>2019-07-12T06:00:16.000Z</time>
      </trkpt>
      <trkpt lat="43.300159759819507598876953125" lon="-5.0358412228524684906005859375">
        <ele>505.600006103515625</ele>
        <time>2019-07-12T06:00:18.000Z</time>
      </trkpt>
      <trkpt lat="43.30012816004455089569091796875" lon="-5.03552949987351894378662109375">
        <ele>507</ele>
        <time>2019-07-12T06:00:20.000Z</time>
      </trkpt>
      <trkpt lat="43.3001072891056537628173828125" lon="-5.0353825651109218597412109375">
        <ele>508.20001220703125</ele>
        <time>2019-07-12T06:00:21.000Z</time>
      </trkpt>
      <trkpt lat="43.30008029937744140625" lon="-5.035234875977039337158203125">
        <ele>509.600006103515625</ele>
        <time>2019-07-12T06:00:22.000Z</time>
      </trkpt>
      <trkpt lat="43.300050459802150726318359375" lon="-5.03508810885250568389892578125">
        <ele>511</ele>
        <time>2019-07-12T06:00:23.000Z</time>
      </trkpt>
      <trkpt lat="43.300016932189464569091796875" lon="-5.03494410775601863861083984375">
        <ele>512.20001220703125</ele>
        <time>2019-07-12T06:00:24.000Z</time>
      </trkpt>
      <trkpt lat="43.29997393302619457244873046875" lon="-5.034801699221134185791015625">
        <ele>513.4000244140625</ele>
        <time>2019-07-12T06:00:25.000Z</time>
      </trkpt>
      <trkpt lat="43.2999326102435588836669921875" lon="-5.03465409390628337860107421875">
        <ele>514.4000244140625</ele>
        <time>2019-07-12T06:00:26.000Z</time>
      </trkpt>
      <trkpt lat="43.2998927123844623565673828125" lon="-5.03450439311563968658447265625">
        <ele>515.4000244140625</ele>
        <time>2019-07-12T06:00:27.000Z</time>
      </trkpt>
      <trkpt lat="43.29985373653471469879150390625" lon="-5.03435804508626461029052734375">
        <ele>516.4000244140625</ele>
        <time>2019-07-12T06:00:28.000Z</time>
      </trkpt>
      <trkpt lat="43.29976488836109638214111328125" lon="-5.0340766645967960357666015625">
        <ele>518</ele>
        <time>2019-07-12T06:00:30.000Z</time>
      </trkpt>
      <trkpt lat="43.2996757887303829193115234375" lon="-5.0338047556579113006591796875">
        <ele>519.79998779296875</ele>
        <time>2019-07-12T06:00:32.000Z</time>
      </trkpt>
      <trkpt lat="43.29960294999182224273681640625" lon="-5.03354181535542011260986328125">
        <ele>521.79998779296875</ele>
        <time>2019-07-12T06:00:34.000Z</time>
      </trkpt>
      <trkpt lat="43.29955785535275936126708984375" lon="-5.033311061561107635498046875">
        <ele>523.79998779296875</ele>
        <time>2019-07-12T06:00:36.000Z</time>
      </trkpt>
      <trkpt lat="43.29955928027629852294921875" lon="-5.03320553340017795562744140625">
        <ele>525</ele>
        <time>2019-07-12T06:00:37.000Z</time>
      </trkpt>
      <trkpt lat="43.29957830719649791717529296875" lon="-5.033105202019214630126953125">
        <ele>526</ele>
        <time>2019-07-12T06:00:38.000Z</time>
      </trkpt>
      <trkpt lat="43.2996164448559284210205078125" lon="-5.0330165214836597442626953125">
        <ele>527.20001220703125</ele>
        <time>2019-07-12T06:00:39.000Z</time>
      </trkpt>
      <trkpt lat="43.29966782592236995697021484375" lon="-5.0329447723925113677978515625">
        <ele>528.20001220703125</ele>
        <time>2019-07-12T06:00:40.000Z</time>
      </trkpt>
      <trkpt lat="43.299835883080959320068359375" lon="-5.03285936079919338226318359375">
        <ele>529.79998779296875</ele>
        <time>2019-07-12T06:00:42.000Z</time>
      </trkpt>
      <trkpt lat="43.3000440895557403564453125" lon="-5.032888948917388916015625">
        <ele>531</ele>
        <time>2019-07-12T06:00:44.000Z</time>
      </trkpt>
      <trkpt lat="43.3002695627510547637939453125" lon="-5.03302917815744876861572265625">
        <ele>532.20001220703125</ele>
        <time>2019-07-12T06:00:46.000Z</time>
      </trkpt>
      <trkpt lat="43.30052311532199382781982421875" lon="-5.03320285119116306304931640625">
        <ele>533.79998779296875</ele>
        <time>2019-07-12T06:00:48.000Z</time>
      </trkpt>
      <trkpt lat="43.300787396728992462158203125" lon="-5.03339529968798160552978515625">
        <ele>535</ele>
        <time>2019-07-12T06:00:50.000Z</time>
      </trkpt>
      <trkpt lat="43.3010792545974254608154296875" lon="-5.0336032547056674957275390625">
        <ele>536.4000244140625</ele>
        <time>2019-07-12T06:00:52.000Z</time>
      </trkpt>
      <trkpt lat="43.30156414769589900970458984375" lon="-5.0339288078248500823974609375">
        <ele>537.20001220703125</ele>
        <time>2019-07-12T06:00:56.000Z</time>
      </trkpt>
      <trkpt lat="43.301628939807415008544921875" lon="-5.03398890607059001922607421875">
        <ele>537.79998779296875</ele>
        <time>2019-07-12T06:00:57.000Z</time>
      </trkpt>
      <trkpt lat="43.3016753755509853363037109375" lon="-5.0340471602976322174072265625">
        <ele>538.4000244140625</ele>
        <time>2019-07-12T06:00:58.000Z</time>
      </trkpt>
      <trkpt lat="43.30174603499472141265869140625" lon="-5.03414279781281948089599609375">
        <ele>539.79998779296875</ele>
        <time>2019-07-12T06:01:00.000Z</time>
      </trkpt>
      <trkpt lat="43.30177470110356807708740234375" lon="-5.0341765768826007843017578125">
        <ele>541.20001220703125</ele>
        <time>2019-07-12T06:01:01.000Z</time>
      </trkpt>
      <trkpt lat="43.30181107856333255767822265625" lon="-5.034192167222499847412109375">
        <ele>542.20001220703125</ele>
        <time>2019-07-12T06:01:02.000Z</time>
      </trkpt>
      <trkpt lat="43.30185298807919025421142578125" lon="-5.03417867235839366912841796875">
        <ele>542.79998779296875</ele>
        <time>2019-07-12T06:01:03.000Z</time>
      </trkpt>
      <trkpt lat="43.301883749663829803466796875" lon="-5.03413148224353790283203125">
        <ele>543.4000244140625</ele>
        <time>2019-07-12T06:01:04.000Z</time>
      </trkpt>
      <trkpt lat="43.3018872700631618499755859375" lon="-5.03406199626624584197998046875">
        <ele>544</ele>
        <time>2019-07-12T06:01:05.000Z</time>
      </trkpt>
      <trkpt lat="43.30185365863144397735595703125" lon="-5.03398236818611621856689453125">
        <ele>544.4000244140625</ele>
        <time>2019-07-12T06:01:06.000Z</time>
      </trkpt>
      <trkpt lat="43.30144009552896022796630859375" lon="-5.03349286504089832305908203125">
        <ele>544.5999755859375</ele>
        <time>2019-07-12T06:01:11.000Z</time>
      </trkpt>
      <trkpt lat="43.30121579580008983612060546875" lon="-5.03322129137814044952392578125">
        <ele>544.4000244140625</ele>
        <time>2019-07-12T06:01:13.000Z</time>
      </trkpt>
      <trkpt lat="43.301030807197093963623046875" lon="-5.032867491245269775390625">
        <ele>545.4000244140625</ele>
        <time>2019-07-12T06:01:15.000Z</time>
      </trkpt>
      <trkpt lat="43.30090977251529693603515625" lon="-5.03245971165597438812255859375">
        <ele>546.20001220703125</ele>
        <time>2019-07-12T06:01:17.000Z</time>
      </trkpt>
      <trkpt lat="43.300862498581409454345703125" lon="-5.0322571210563182830810546875">
        <ele>546.5999755859375</ele>
        <time>2019-07-12T06:01:18.000Z</time>
      </trkpt>
      <trkpt lat="43.30079435370862483978271484375" lon="-5.032080598175525665283203125">
        <ele>548</ele>
        <time>2019-07-12T06:01:19.000Z</time>
      </trkpt>
      <trkpt lat="43.300714977085590362548828125" lon="-5.03193265758454799652099609375">
        <ele>550.79998779296875</ele>
        <time>2019-07-12T06:01:20.000Z</time>
      </trkpt>
      <trkpt lat="43.30065119080245494842529296875" lon="-5.0317986309528350830078125">
        <ele>554</ele>
        <time>2019-07-12T06:01:21.000Z</time>
      </trkpt>
      <trkpt lat="43.300619758665561676025390625" lon="-5.03165655769407749176025390625">
        <ele>556.5999755859375</ele>
        <time>2019-07-12T06:01:22.000Z</time>
      </trkpt>
      <trkpt lat="43.3006169088184833526611328125" lon="-5.03149889409542083740234375">
        <ele>558.20001220703125</ele>
        <time>2019-07-12T06:01:23.000Z</time>
      </trkpt>
      <trkpt lat="43.30062319524586200714111328125" lon="-5.0313237123191356658935546875">
        <ele>559.79998779296875</ele>
        <time>2019-07-12T06:01:24.000Z</time>
      </trkpt>
      <trkpt lat="43.300607688724994659423828125" lon="-5.0311386398971080780029296875">
        <ele>561.79998779296875</ele>
        <time>2019-07-12T06:01:25.000Z</time>
      </trkpt>
      <trkpt lat="43.3005602471530437469482421875" lon="-5.0309555791318416595458984375">
        <ele>564.4000244140625</ele>
        <time>2019-07-12T06:01:26.000Z</time>
      </trkpt>
      <trkpt lat="43.300489671528339385986328125" lon="-5.03078048117458820343017578125">
        <ele>566.5999755859375</ele>
        <time>2019-07-12T06:01:27.000Z</time>
      </trkpt>
      <trkpt lat="43.3004130609333515167236328125" lon="-5.03061032854020595550537109375">
        <ele>568.5999755859375</ele>
        <time>2019-07-12T06:01:28.000Z</time>
      </trkpt>
      <trkpt lat="43.3003423176705837249755859375" lon="-5.0304509885609149932861328125">
        <ele>569.79998779296875</ele>
        <time>2019-07-12T06:01:29.000Z</time>
      </trkpt>
      <trkpt lat="43.3002655394375324249267578125" lon="-5.03031880594789981842041015625">
        <ele>570.5999755859375</ele>
        <time>2019-07-12T06:01:30.000Z</time>
      </trkpt>
      <trkpt lat="43.300172500312328338623046875" lon="-5.0302287004888057708740234375">
        <ele>571.79998779296875</ele>
        <time>2019-07-12T06:01:31.000Z</time>
      </trkpt>
      <trkpt lat="43.30006353557109832763671875" lon="-5.03018670715391635894775390625">
        <ele>573.20001220703125</ele>
        <time>2019-07-12T06:01:32.000Z</time>
      </trkpt>
      <trkpt lat="43.2999448478221893310546875" lon="-5.0301777385175228118896484375">
        <ele>574.79998779296875</ele>
        <time>2019-07-12T06:01:33.000Z</time>
      </trkpt>
      <trkpt lat="43.29982641153037548065185546875" lon="-5.030174888670444488525390625">
        <ele>576.5999755859375</ele>
        <time>2019-07-12T06:01:34.000Z</time>
      </trkpt>
      <trkpt lat="43.29971359111368656158447265625" lon="-5.03013691864907741546630859375">
        <ele>578.20001220703125</ele>
        <time>2019-07-12T06:01:35.000Z</time>
      </trkpt>
      <trkpt lat="43.29961024224758148193359375" lon="-5.03005175851285457611083984375">
        <ele>579.5999755859375</ele>
        <time>2019-07-12T06:01:36.000Z</time>
      </trkpt>
      <trkpt lat="43.29951242543756961822509765625" lon="-5.029930807650089263916015625">
        <ele>580.79998779296875</ele>
        <time>2019-07-12T06:01:37.000Z</time>
      </trkpt>
      <trkpt lat="43.2994105853140354156494140625" lon="-5.02979242242872714996337890625">
        <ele>582</ele>
        <time>2019-07-12T06:01:38.000Z</time>
      </trkpt>
      <trkpt lat="43.29919458366930484771728515625" lon="-5.0295262970030307769775390625">
        <ele>584</ele>
        <time>2019-07-12T06:01:40.000Z</time>
      </trkpt>
      <trkpt lat="43.29908276908099651336669921875" lon="-5.02940048463642597198486328125">
        <ele>585.4000244140625</ele>
        <time>2019-07-12T06:01:41.000Z</time>
      </trkpt>
      <trkpt lat="43.2989764027297496795654296875" lon="-5.0292701460421085357666015625">
        <ele>586.5999755859375</ele>
        <time>2019-07-12T06:01:42.000Z</time>
      </trkpt>
      <trkpt lat="43.29887607134878635406494140625" lon="-5.02913746051490306854248046875">
        <ele>588.20001220703125</ele>
        <time>2019-07-12T06:01:43.000Z</time>
      </trkpt>
      <trkpt lat="43.29878035001456737518310546875" lon="-5.02900636754930019378662109375">
        <ele>590</ele>
        <time>2019-07-12T06:01:44.000Z</time>
      </trkpt>
      <trkpt lat="43.2986843772232532501220703125" lon="-5.028881393373012542724609375">
        <ele>591.79998779296875</ele>
        <time>2019-07-12T06:01:45.000Z</time>
      </trkpt>
      <trkpt lat="43.298589996993541717529296875" lon="-5.028779469430446624755859375">
        <ele>593.4000244140625</ele>
        <time>2019-07-12T06:01:46.000Z</time>
      </trkpt>
      <trkpt lat="43.2984976284205913543701171875" lon="-5.0287253223359584808349609375">
        <ele>594.79998779296875</ele>
        <time>2019-07-12T06:01:47.000Z</time>
      </trkpt>
      <trkpt lat="43.29841774888336658477783203125" lon="-5.0287313573062419891357421875">
        <ele>596.20001220703125</ele>
        <time>2019-07-12T06:01:48.000Z</time>
      </trkpt>
      <trkpt lat="43.2983464188873767852783203125" lon="-5.02877804450690746307373046875">
        <ele>597.79998779296875</ele>
        <time>2019-07-12T06:01:49.000Z</time>
      </trkpt>
      <trkpt lat="43.29829252324998378753662109375" lon="-5.02884761430323123931884765625">
        <ele>599.5999755859375</ele>
        <time>2019-07-12T06:01:50.000Z</time>
      </trkpt>
      <trkpt lat="43.29825706779956817626953125" lon="-5.02892623655498027801513671875">
        <ele>601.4000244140625</ele>
        <time>2019-07-12T06:01:51.000Z</time>
      </trkpt>
      <trkpt lat="43.29823519103229045867919921875" lon="-5.0290186889469623565673828125">
        <ele>602.5999755859375</ele>
        <time>2019-07-12T06:01:52.000Z</time>
      </trkpt>
      <trkpt lat="43.2981935329735279083251953125" lon="-5.02923251129686832427978515625">
        <ele>604.4000244140625</ele>
        <time>2019-07-12T06:01:54.000Z</time>
      </trkpt>
      <trkpt lat="43.29808398149907588958740234375" lon="-5.029422529041767120361328125">
        <ele>606.20001220703125</ele>
        <time>2019-07-12T06:01:56.000Z</time>
      </trkpt>
      <trkpt lat="43.29790662042796611785888671875" lon="-5.02949670888483524322509765625">
        <ele>607.79998779296875</ele>
        <time>2019-07-12T06:01:58.000Z</time>
      </trkpt>
      <trkpt lat="43.2977067120373249053955078125" lon="-5.02944608218967914581298828125">
        <ele>608.79998779296875</ele>
        <time>2019-07-12T06:02:00.000Z</time>
      </trkpt>
      <trkpt lat="43.29759095795452594757080078125" lon="-5.0294505245983600616455078125">
        <ele>609.4000244140625</ele>
        <time>2019-07-12T06:02:01.000Z</time>
      </trkpt>
      <trkpt lat="43.297468833625316619873046875" lon="-5.02949553541839122772216796875">
        <ele>610.5999755859375</ele>
        <time>2019-07-12T06:02:02.000Z</time>
      </trkpt>
      <trkpt lat="43.297350145876407623291015625" lon="-5.02954968251287937164306640625">
        <ele>611.79998779296875</ele>
        <time>2019-07-12T06:02:03.000Z</time>
      </trkpt>
      <trkpt lat="43.29723875038325786590576171875" lon="-5.0295946933329105377197265625">
        <ele>613.20001220703125</ele>
        <time>2019-07-12T06:02:04.000Z</time>
      </trkpt>
      <trkpt lat="43.29704009927809238433837890625" lon="-5.029599554836750030517578125">
        <ele>614.79998779296875</ele>
        <time>2019-07-12T06:02:06.000Z</time>
      </trkpt>
      <trkpt lat="43.29691872932016849517822265625" lon="-5.029428899288177490234375">
        <ele>615.5999755859375</ele>
        <time>2019-07-12T06:02:08.000Z</time>
      </trkpt>
      <trkpt lat="43.29691051505506038665771484375" lon="-5.0292838923633098602294921875">
        <ele>616.4000244140625</ele>
        <time>2019-07-12T06:02:09.000Z</time>
      </trkpt>
      <trkpt lat="43.296928368508815765380859375" lon="-5.02912488766014575958251953125">
        <ele>617.4000244140625</ele>
        <time>2019-07-12T06:02:10.000Z</time>
      </trkpt>
      <trkpt lat="43.2969751395285129547119140625" lon="-5.0289499573409557342529296875">
        <ele>618.5999755859375</ele>
        <time>2019-07-12T06:02:11.000Z</time>
      </trkpt>
      <trkpt lat="43.2970328070223331451416015625" lon="-5.02876144833862781524658203125">
        <ele>620</ele>
        <time>2019-07-12T06:02:12.000Z</time>
      </trkpt>
      <trkpt lat="43.29709441401064395904541015625" lon="-5.02856413833796977996826171875">
        <ele>621.4000244140625</ele>
        <time>2019-07-12T06:02:13.000Z</time>
      </trkpt>
      <trkpt lat="43.297165073454380035400390625" lon="-5.0283685885369777679443359375">
        <ele>622.5999755859375</ele>
        <time>2019-07-12T06:02:14.000Z</time>
      </trkpt>
      <trkpt lat="43.29725258052349090576171875" lon="-5.02819432877004146575927734375">
        <ele>624</ele>
        <time>2019-07-12T06:02:15.000Z</time>
      </trkpt>
      <trkpt lat="43.2973449490964412689208984375" lon="-5.0280368328094482421875">
        <ele>625.4000244140625</ele>
        <time>2019-07-12T06:02:16.000Z</time>
      </trkpt>
      <trkpt lat="43.29749523662030696868896484375" lon="-5.02777774818241596221923828125">
        <ele>626.5999755859375</ele>
        <time>2019-07-12T06:02:18.000Z</time>
      </trkpt>
      <trkpt lat="43.2975404150784015655517578125" lon="-5.02756954170763492584228515625">
        <ele>628.5999755859375</ele>
        <time>2019-07-12T06:02:20.000Z</time>
      </trkpt>
      <trkpt lat="43.29751803539693355560302734375" lon="-5.02747415564954280853271484375">
        <ele>630.5999755859375</ele>
        <time>2019-07-12T06:02:21.000Z</time>
      </trkpt>
      <trkpt lat="43.2974718511104583740234375" lon="-5.02738128416240215301513671875">
        <ele>632.79998779296875</ele>
        <time>2019-07-12T06:02:22.000Z</time>
      </trkpt>
      <trkpt lat="43.297436647117137908935546875" lon="-5.0272645242512226104736328125">
        <ele>635</ele>
        <time>2019-07-12T06:02:23.000Z</time>
      </trkpt>
      <trkpt lat="43.29742734320461750030517578125" lon="-5.0271183438599109649658203125">
        <ele>636.4000244140625</ele>
        <time>2019-07-12T06:02:24.000Z</time>
      </trkpt>
      <trkpt lat="43.2974262535572052001953125" lon="-5.02679086290299892425537109375">
        <ele>638</ele>
        <time>2019-07-12T06:02:26.000Z</time>
      </trkpt>
      <trkpt lat="43.2974146865308284759521484375" lon="-5.02661065198481082916259765625">
        <ele>639</ele>
        <time>2019-07-12T06:02:27.000Z</time>
      </trkpt>
      <trkpt lat="43.297382332384586334228515625" lon="-5.02642817795276641845703125">
        <ele>640.4000244140625</ele>
        <time>2019-07-12T06:02:28.000Z</time>
      </trkpt>
      <trkpt lat="43.297337405383586883544921875" lon="-5.02624821849167346954345703125">
        <ele>641.79998779296875</ele>
        <time>2019-07-12T06:02:29.000Z</time>
      </trkpt>
      <trkpt lat="43.2973047159612178802490234375" lon="-5.02606264315545558929443359375">
        <ele>642.5999755859375</ele>
        <time>2019-07-12T06:02:30.000Z</time>
      </trkpt>
      <trkpt lat="43.29730178229510784149169921875" lon="-5.025871954858303070068359375">
        <ele>643.5999755859375</ele>
        <time>2019-07-12T06:02:31.000Z</time>
      </trkpt>
      <trkpt lat="43.29732500016689300537109375" lon="-5.02567984163761138916015625">
        <ele>644.4000244140625</ele>
        <time>2019-07-12T06:02:32.000Z</time>
      </trkpt>
      <trkpt lat="43.297360874712467193603515625" lon="-5.02549476921558380126953125">
        <ele>645.4000244140625</ele>
        <time>2019-07-12T06:02:33.000Z</time>
      </trkpt>
      <trkpt lat="43.29740739427506923675537109375" lon="-5.02532419748604297637939453125">
        <ele>646.4000244140625</ele>
        <time>2019-07-12T06:02:34.000Z</time>
      </trkpt>
      <trkpt lat="43.29746087081730365753173828125" lon="-5.02516762353479862213134765625">
        <ele>647</ele>
        <time>2019-07-12T06:02:35.000Z</time>
      </trkpt>
      <trkpt lat="43.297510407865047454833984375" lon="-5.02501356415450572967529296875">
        <ele>648</ele>
        <time>2019-07-12T06:02:36.000Z</time>
      </trkpt>
      <trkpt lat="43.29754167236387729644775390625" lon="-5.02485313452780246734619140625">
        <ele>649.20001220703125</ele>
        <time>2019-07-12T06:02:37.000Z</time>
      </trkpt>
      <trkpt lat="43.2975370623171329498291015625" lon="-5.02468700520694255828857421875">
        <ele>650.5999755859375</ele>
        <time>2019-07-12T06:02:38.000Z</time>
      </trkpt>
      <trkpt lat="43.29749389551579952239990234375" lon="-5.0245256535708904266357421875">
        <ele>652.4000244140625</ele>
        <time>2019-07-12T06:02:39.000Z</time>
      </trkpt>
      <trkpt lat="43.29741627909243106842041015625" lon="-5.0243855081498622894287109375">
        <ele>654.5999755859375</ele>
        <time>2019-07-12T06:02:40.000Z</time>
      </trkpt>
      <trkpt lat="43.29732022248208522796630859375" lon="-5.02426573075354099273681640625">
        <ele>656.79998779296875</ele>
        <time>2019-07-12T06:02:41.000Z</time>
      </trkpt>
      <trkpt lat="43.29721628688275814056396484375" lon="-5.0241498090326786041259765625">
        <ele>658.79998779296875</ele>
        <time>2019-07-12T06:02:42.000Z</time>
      </trkpt>
      <trkpt lat="43.29711436294019222259521484375" lon="-5.02402894198894500732421875">
        <ele>660.4000244140625</ele>
        <time>2019-07-12T06:02:43.000Z</time>
      </trkpt>
      <trkpt lat="43.29701629467308521270751953125" lon="-5.02390396781265735626220703125">
        <ele>662</ele>
        <time>2019-07-12T06:02:44.000Z</time>
      </trkpt>
      <trkpt lat="43.296929709613323211669921875" lon="-5.02376616932451725006103515625">
        <ele>663.20001220703125</ele>
        <time>2019-07-12T06:02:45.000Z</time>
      </trkpt>
      <trkpt lat="43.29686122946441173553466796875" lon="-5.02361948601901531219482421875">
        <ele>664</ele>
        <time>2019-07-12T06:02:46.000Z</time>
      </trkpt>
      <trkpt lat="43.29681244678795337677001953125" lon="-5.0234742276370525360107421875">
        <ele>664.79998779296875</ele>
        <time>2019-07-12T06:02:47.000Z</time>
      </trkpt>
      <trkpt lat="43.29679467715322971343994140625" lon="-5.02332544885575771331787109375">
        <ele>665.4000244140625</ele>
        <time>2019-07-12T06:02:48.000Z</time>
      </trkpt>
      <trkpt lat="43.29680867493152618408203125" lon="-5.02317038364708423614501953125">
        <ele>666.20001220703125</ele>
        <time>2019-07-12T06:02:49.000Z</time>
      </trkpt>
      <trkpt lat="43.2968470640480518341064453125" lon="-5.02284415997564792633056640625">
        <ele>668.4000244140625</ele>
        <time>2019-07-12T06:02:51.000Z</time>
      </trkpt>
      <trkpt lat="43.2968286238610744476318359375" lon="-5.0226893462240695953369140625">
        <ele>670</ele>
        <time>2019-07-12T06:02:52.000Z</time>
      </trkpt>
      <trkpt lat="43.2967796735465526580810546875" lon="-5.02254894934594631195068359375">
        <ele>671.79998779296875</ele>
        <time>2019-07-12T06:02:53.000Z</time>
      </trkpt>
      <trkpt lat="43.29671102575957775115966796875" lon="-5.0224228017032146453857421875">
        <ele>673</ele>
        <time>2019-07-12T06:02:54.000Z</time>
      </trkpt>
      <trkpt lat="43.296639025211334228515625" lon="-5.0223036110401153564453125">
        <ele>674.4000244140625</ele>
        <time>2019-07-12T06:02:55.000Z</time>
      </trkpt>
      <trkpt lat="43.29658202826976776123046875" lon="-5.02218349836766719818115234375">
        <ele>675.5999755859375</ele>
        <time>2019-07-12T06:02:56.000Z</time>
      </trkpt>
      <trkpt lat="43.29654858447611331939697265625" lon="-5.02205760218203067779541015625">
        <ele>676.79998779296875</ele>
        <time>2019-07-12T06:02:57.000Z</time>
      </trkpt>
      <trkpt lat="43.2965526916086673736572265625" lon="-5.02192877233028411865234375">
        <ele>678</ele>
        <time>2019-07-12T06:02:58.000Z</time>
      </trkpt>
      <trkpt lat="43.296590745449066162109375" lon="-5.0217991881072521209716796875">
        <ele>679</ele>
        <time>2019-07-12T06:02:59.000Z</time>
      </trkpt>
      <trkpt lat="43.29663273878395557403564453125" lon="-5.02166415564715862274169921875">
        <ele>680</ele>
        <time>2019-07-12T06:03:00.000Z</time>
      </trkpt>
      <trkpt lat="43.29664749093353748321533203125" lon="-5.02152149565517902374267578125">
        <ele>680.79998779296875</ele>
        <time>2019-07-12T06:03:01.000Z</time>
      </trkpt>
      <trkpt lat="43.296630643308162689208984375" lon="-5.02137598581612110137939453125">
        <ele>681.79998779296875</ele>
        <time>2019-07-12T06:03:02.000Z</time>
      </trkpt>
      <trkpt lat="43.29659543931484222412109375" lon="-5.02122645266354084014892578125">
        <ele>683</ele>
        <time>2019-07-12T06:03:03.000Z</time>
      </trkpt>
      <trkpt lat="43.2965560443699359893798828125" lon="-5.021068789064884185791015625">
        <ele>684.4000244140625</ele>
        <time>2019-07-12T06:03:04.000Z</time>
      </trkpt>
      <trkpt lat="43.2965158112347126007080078125" lon="-5.02090157009661197662353515625">
        <ele>685.79998779296875</ele>
        <time>2019-07-12T06:03:05.000Z</time>
      </trkpt>
      <trkpt lat="43.29647717066109180450439453125" lon="-5.02072219736874103546142578125">
        <ele>687.20001220703125</ele>
        <time>2019-07-12T06:03:06.000Z</time>
      </trkpt>
      <trkpt lat="43.29641212709248065948486328125" lon="-5.020337216556072235107421875">
        <ele>688.79998779296875</ele>
        <time>2019-07-12T06:03:08.000Z</time>
      </trkpt>
      <trkpt lat="43.29638781957328319549560546875" lon="-5.0201417505741119384765625">
        <ele>689.79998779296875</ele>
        <time>2019-07-12T06:03:09.000Z</time>
      </trkpt>
      <trkpt lat="43.2963555492460727691650390625" lon="-5.0197576917707920074462890625">
        <ele>692.20001220703125</ele>
        <time>2019-07-12T06:03:11.000Z</time>
      </trkpt>
      <trkpt lat="43.2963548786938190460205078125" lon="-5.01957102678716182708740234375">
        <ele>693.79998779296875</ele>
        <time>2019-07-12T06:03:12.000Z</time>
      </trkpt>
      <trkpt lat="43.29634943045675754547119140625" lon="-5.01938913948833942413330078125">
        <ele>695.79998779296875</ele>
        <time>2019-07-12T06:03:13.000Z</time>
      </trkpt>
      <trkpt lat="43.29632445238530635833740234375" lon="-5.0192145444452762603759765625">
        <ele>697.5999755859375</ele>
        <time>2019-07-12T06:03:14.000Z</time>
      </trkpt>
      <trkpt lat="43.29629075713455677032470703125" lon="-5.01904833130538463592529296875">
        <ele>699.79998779296875</ele>
        <time>2019-07-12T06:03:15.000Z</time>
      </trkpt>
      <trkpt lat="43.296263515949249267578125" lon="-5.01888354308903217315673828125">
        <ele>702</ele>
        <time>2019-07-12T06:03:16.000Z</time>
      </trkpt>
      <trkpt lat="43.296239376068115234375" lon="-5.0187183357775211334228515625">
        <ele>704.20001220703125</ele>
        <time>2019-07-12T06:03:17.000Z</time>
      </trkpt>
      <trkpt lat="43.296206854283809661865234375" lon="-5.01855497248470783233642578125">
        <ele>705.79998779296875</ele>
        <time>2019-07-12T06:03:18.000Z</time>
      </trkpt>
      <trkpt lat="43.296163268387317657470703125" lon="-5.01839605160057544708251953125">
        <ele>707.20001220703125</ele>
        <time>2019-07-12T06:03:19.000Z</time>
      </trkpt>
      <trkpt lat="43.2961124740540981292724609375" lon="-5.01824014820158481597900390625">
        <ele>708.4000244140625</ele>
        <time>2019-07-12T06:03:20.000Z</time>
      </trkpt>
      <trkpt lat="43.2960584945976734161376953125" lon="-5.01808474771678447723388671875">
        <ele>711</ele>
        <time>2019-07-12T06:03:21.000Z</time>
      </trkpt>
      <trkpt lat="43.29600443132221698760986328125" lon="-5.01792750321328639984130859375">
        <ele>713.79998779296875</ele>
        <time>2019-07-12T06:03:22.000Z</time>
      </trkpt>
      <trkpt lat="43.2959538884460926055908203125" lon="-5.017766319215297698974609375">
        <ele>717</ele>
        <time>2019-07-12T06:03:23.000Z</time>
      </trkpt>
      <trkpt lat="43.29590971581637859344482421875" lon="-5.01760102808475494384765625">
        <ele>719.4000244140625</ele>
        <time>2019-07-12T06:03:24.000Z</time>
      </trkpt>
      <trkpt lat="43.29587551765143871307373046875" lon="-5.01742995344102382659912109375">
        <ele>721.4000244140625</ele>
        <time>2019-07-12T06:03:25.000Z</time>
      </trkpt>
      <trkpt lat="43.29585112631320953369140625" lon="-5.01725493930280208587646484375">
        <ele>723.4000244140625</ele>
        <time>2019-07-12T06:03:26.000Z</time>
      </trkpt>
      <trkpt lat="43.2958303391933441162109375" lon="-5.017080344259738922119140625">
        <ele>725</ele>
        <time>2019-07-12T06:03:27.000Z</time>
      </trkpt>
      <trkpt lat="43.29581089317798614501953125" lon="-5.0169044919312000274658203125">
        <ele>727</ele>
        <time>2019-07-12T06:03:28.000Z</time>
      </trkpt>
      <trkpt lat="43.29579253681004047393798828125" lon="-5.01672704704105854034423828125">
        <ele>728.5999755859375</ele>
        <time>2019-07-12T06:03:29.000Z</time>
      </trkpt>
      <trkpt lat="43.2957731746137142181396484375" lon="-5.01654985360801219940185546875">
        <ele>730.79998779296875</ele>
        <time>2019-07-12T06:03:30.000Z</time>
      </trkpt>
      <trkpt lat="43.29575180076062679290771484375" lon="-5.01637299545109272003173828125">
        <ele>733</ele>
        <time>2019-07-12T06:03:31.000Z</time>
      </trkpt>
      <trkpt lat="43.295727409422397613525390625" lon="-5.01619697548449039459228515625">
        <ele>735.4000244140625</ele>
        <time>2019-07-12T06:03:32.000Z</time>
      </trkpt>
      <trkpt lat="43.29569379799067974090576171875" lon="-5.016023553907871246337890625">
        <ele>737.20001220703125</ele>
        <time>2019-07-12T06:03:33.000Z</time>
      </trkpt>
      <trkpt lat="43.2956457696855068206787109375" lon="-5.01585667021572589874267578125">
        <ele>739</ele>
        <time>2019-07-12T06:03:34.000Z</time>
      </trkpt>
      <trkpt lat="43.2955860905349254608154296875" lon="-5.01569808460772037506103515625">
        <ele>740.4000244140625</ele>
        <time>2019-07-12T06:03:35.000Z</time>
      </trkpt>
      <trkpt lat="43.295520208775997161865234375" lon="-5.01554536633193492889404296875">
        <ele>741.79998779296875</ele>
        <time>2019-07-12T06:03:36.000Z</time>
      </trkpt>
      <trkpt lat="43.29545625485479831695556640625" lon="-5.01539248041808605194091796875">
        <ele>743.20001220703125</ele>
        <time>2019-07-12T06:03:37.000Z</time>
      </trkpt>
      <trkpt lat="43.29540160484611988067626953125" lon="-5.0152371637523174285888671875">
        <ele>745.20001220703125</ele>
        <time>2019-07-12T06:03:38.000Z</time>
      </trkpt>
      <trkpt lat="43.2953597791492938995361328125" lon="-5.0150762312114238739013671875">
        <ele>747.20001220703125</ele>
        <time>2019-07-12T06:03:39.000Z</time>
      </trkpt>
      <trkpt lat="43.295330107212066650390625" lon="-5.01491211354732513427734375">
        <ele>749</ele>
        <time>2019-07-12T06:03:40.000Z</time>
      </trkpt>
      <trkpt lat="43.29530638642609119415283203125" lon="-5.0147486664354801177978515625">
        <ele>750.79998779296875</ele>
        <time>2019-07-12T06:03:41.000Z</time>
      </trkpt>
      <trkpt lat="43.29527604393661022186279296875" lon="-5.014589913189411163330078125">
        <ele>752.4000244140625</ele>
        <time>2019-07-12T06:03:42.000Z</time>
      </trkpt>
      <trkpt lat="43.2952313683927059173583984375" lon="-5.0144415535032749176025390625">
        <ele>754.4000244140625</ele>
        <time>2019-07-12T06:03:43.000Z</time>
      </trkpt>
      <trkpt lat="43.29517110250890254974365234375" lon="-5.0143087841570377349853515625">
        <ele>756.4000244140625</ele>
        <time>2019-07-12T06:03:44.000Z</time>
      </trkpt>
      <trkpt lat="43.29509901814162731170654296875" lon="-5.014189593493938446044921875">
        <ele>758.4000244140625</ele>
        <time>2019-07-12T06:03:45.000Z</time>
      </trkpt>
      <trkpt lat="43.29502374865114688873291015625" lon="-5.01407450996339321136474609375">
        <ele>760.4000244140625</ele>
        <time>2019-07-12T06:03:46.000Z</time>
      </trkpt>
      <trkpt lat="43.2949505746364593505859375" lon="-5.0139540620148181915283203125">
        <ele>762.4000244140625</ele>
        <time>2019-07-12T06:03:47.000Z</time>
      </trkpt>
      <trkpt lat="43.29488142393529415130615234375" lon="-5.013828836381435394287109375">
        <ele>764.4000244140625</ele>
        <time>2019-07-12T06:03:48.000Z</time>
      </trkpt>
      <trkpt lat="43.29481520690023899078369140625" lon="-5.01370352692902088165283203125">
        <ele>766.20001220703125</ele>
        <time>2019-07-12T06:03:49.000Z</time>
      </trkpt>
      <trkpt lat="43.2947515882551670074462890625" lon="-5.0135812349617481231689453125">
        <ele>768.20001220703125</ele>
        <time>2019-07-12T06:03:50.000Z</time>
      </trkpt>
      <trkpt lat="43.29469107091426849365234375" lon="-5.0134642235934734344482421875">
        <ele>770</ele>
        <time>2019-07-12T06:03:51.000Z</time>
      </trkpt>
      <trkpt lat="43.29463264904916286468505859375" lon="-5.01335249282419681549072265625">
        <ele>772</ele>
        <time>2019-07-12T06:03:52.000Z</time>
      </trkpt>
      <trkpt lat="43.2945764064788818359375" lon="-5.01324646174907684326171875">
        <ele>773.79998779296875</ele>
        <time>2019-07-12T06:03:53.000Z</time>
      </trkpt>
      <trkpt lat="43.29452167265117168426513671875" lon="-5.01314587891101837158203125">
        <ele>775.5999755859375</ele>
        <time>2019-07-12T06:03:54.000Z</time>
      </trkpt>
      <trkpt lat="43.29446417279541492462158203125" lon="-5.01305493526160717010498046875">
        <ele>777.20001220703125</ele>
        <time>2019-07-12T06:03:55.000Z</time>
      </trkpt>
      <trkpt lat="43.29440097324550151824951171875" lon="-5.01297824084758758544921875">
        <ele>778.5999755859375</ele>
        <time>2019-07-12T06:03:56.000Z</time>
      </trkpt>
      <trkpt lat="43.29433408565819263458251953125" lon="-5.012914203107357025146484375">
        <ele>779.79998779296875</ele>
        <time>2019-07-12T06:03:57.000Z</time>
      </trkpt>
      <trkpt lat="43.2942657731473445892333984375" lon="-5.0128593854606151580810546875">
        <ele>781</ele>
        <time>2019-07-12T06:03:58.000Z</time>
      </trkpt>
      <trkpt lat="43.29419410787522792816162109375" lon="-5.01281655393540859222412109375">
        <ele>782.20001220703125</ele>
        <time>2019-07-12T06:03:59.000Z</time>
      </trkpt>
      <trkpt lat="43.29411464743316173553466796875" lon="-5.0127946771681308746337890625">
        <ele>783.4000244140625</ele>
        <time>2019-07-12T06:04:00.000Z</time>
      </trkpt>
      <trkpt lat="43.29403535462915897369384765625" lon="-5.01278939656913280487060546875">
        <ele>784.5999755859375</ele>
        <time>2019-07-12T06:04:01.000Z</time>
      </trkpt>
      <trkpt lat="43.2939566485583782196044921875" lon="-5.012802891433238983154296875">
        <ele>785.5999755859375</ele>
        <time>2019-07-12T06:04:02.000Z</time>
      </trkpt>
      <trkpt lat="43.293884061276912689208984375" lon="-5.01284119673073291778564453125">
        <ele>786.5999755859375</ele>
        <time>2019-07-12T06:04:03.000Z</time>
      </trkpt>
      <trkpt lat="43.29382195137441158294677734375" lon="-5.01290657557547092437744140625">
        <ele>787.79998779296875</ele>
        <time>2019-07-12T06:04:04.000Z</time>
      </trkpt>
      <trkpt lat="43.29376780427992343902587890625" lon="-5.01299207098782062530517578125">
        <ele>788.79998779296875</ele>
        <time>2019-07-12T06:04:05.000Z</time>
      </trkpt>
      <trkpt lat="43.293716423213481903076171875" lon="-5.01308821141719818115234375">
        <ele>790</ele>
        <time>2019-07-12T06:04:06.000Z</time>
      </trkpt>
      <trkpt lat="43.2936646230518817901611328125" lon="-5.0131869502365589141845703125">
        <ele>791</ele>
        <time>2019-07-12T06:04:07.000Z</time>
      </trkpt>
      <trkpt lat="43.29361089505255222320556640625" lon="-5.01329130493104457855224609375">
        <ele>792</ele>
        <time>2019-07-12T06:04:08.000Z</time>
      </trkpt>
      <trkpt lat="43.2935620285570621490478515625" lon="-5.0134035386145114898681640625">
        <ele>793.20001220703125</ele>
        <time>2019-07-12T06:04:09.000Z</time>
      </trkpt>
      <trkpt lat="43.29352288506925106048583984375" lon="-5.01352675259113311767578125">
        <ele>794.4000244140625</ele>
        <time>2019-07-12T06:04:10.000Z</time>
      </trkpt>
      <trkpt lat="43.2934953086078166961669921875" lon="-5.01366010867059230804443359375">
        <ele>795.5999755859375</ele>
        <time>2019-07-12T06:04:11.000Z</time>
      </trkpt>
      <trkpt lat="43.29347628168761730194091796875" lon="-5.0137968175113201141357421875">
        <ele>796.5999755859375</ele>
        <time>2019-07-12T06:04:12.000Z</time>
      </trkpt>
      <trkpt lat="43.29345750622451305389404296875" lon="-5.01393402926623821258544921875">
        <ele>797.79998779296875</ele>
        <time>2019-07-12T06:04:13.000Z</time>
      </trkpt>
      <trkpt lat="43.2934339530766010284423828125" lon="-5.01406847499310970306396484375">
        <ele>798.79998779296875</ele>
        <time>2019-07-12T06:04:14.000Z</time>
      </trkpt>
      <trkpt lat="43.29336949624121189117431640625" lon="-5.0143232010304927825927734375">
        <ele>800.79998779296875</ele>
        <time>2019-07-12T06:04:16.000Z</time>
      </trkpt>
      <trkpt lat="43.2932902872562408447265625" lon="-5.014557056128978729248046875">
        <ele>802.79998779296875</ele>
        <time>2019-07-12T06:04:18.000Z</time>
      </trkpt>
      <trkpt lat="43.29324326477944850921630859375" lon="-5.01467415131628513336181640625">
        <ele>804</ele>
        <time>2019-07-12T06:04:19.000Z</time>
      </trkpt>
      <trkpt lat="43.2931937277317047119140625" lon="-5.0147909112274646759033203125">
        <ele>805</ele>
        <time>2019-07-12T06:04:20.000Z</time>
      </trkpt>
      <trkpt lat="43.2931020297110080718994140625" lon="-5.0150232575833797454833984375">
        <ele>807</ele>
        <time>2019-07-12T06:04:22.000Z</time>
      </trkpt>
      <trkpt lat="43.29305299557745456695556640625" lon="-5.0151399336755275726318359375">
        <ele>808.20001220703125</ele>
        <time>2019-07-12T06:04:23.000Z</time>
      </trkpt>
      <trkpt lat="43.2929970882833003997802734375" lon="-5.0152545981109142303466796875">
        <ele>809.5999755859375</ele>
        <time>2019-07-12T06:04:24.000Z</time>
      </trkpt>
      <trkpt lat="43.29293581657111644744873046875" lon="-5.015365071594715118408203125">
        <ele>811</ele>
        <time>2019-07-12T06:04:25.000Z</time>
      </trkpt>
      <trkpt lat="43.2928718626499176025390625" lon="-5.01546707935631275177001953125">
        <ele>812</ele>
        <time>2019-07-12T06:04:26.000Z</time>
      </trkpt>
      <trkpt lat="43.29273180104792118072509765625" lon="-5.01566070131957530975341796875">
        <ele>814</ele>
        <time>2019-07-12T06:04:28.000Z</time>
      </trkpt>
      <trkpt lat="43.292656280100345611572265625" lon="-5.0157498009502887725830078125">
        <ele>815.20001220703125</ele>
        <time>2019-07-12T06:04:29.000Z</time>
      </trkpt>
      <trkpt lat="43.29257656820118427276611328125" lon="-5.01583638601005077362060546875">
        <ele>816.4000244140625</ele>
        <time>2019-07-12T06:04:30.000Z</time>
      </trkpt>
      <trkpt lat="43.2925052382051944732666015625" lon="-5.01592942513525485992431640625">
        <ele>817.79998779296875</ele>
        <time>2019-07-12T06:04:31.000Z</time>
      </trkpt>
      <trkpt lat="43.29245251603424549102783203125" lon="-5.01602531410753726959228515625">
        <ele>818.79998779296875</ele>
        <time>2019-07-12T06:04:32.000Z</time>
      </trkpt>
      <trkpt lat="43.29240943305194377899169921875" lon="-5.0161050260066986083984375">
        <ele>820</ele>
        <time>2019-07-12T06:04:33.000Z</time>
      </trkpt>
      <trkpt lat="43.29229862429201602935791015625" lon="-5.01617006957530975341796875">
        <ele>821.79998779296875</ele>
        <time>2019-07-12T06:04:35.000Z</time>
      </trkpt>
      <trkpt lat="43.2922267913818359375" lon="-5.01616068184375762939453125">
        <ele>823</ele>
        <time>2019-07-12T06:04:36.000Z</time>
      </trkpt>
      <trkpt lat="43.29214573837816715240478515625" lon="-5.01614416949450969696044921875">
        <ele>824</ele>
        <time>2019-07-12T06:04:37.000Z</time>
      </trkpt>
      <trkpt lat="43.29205303452908992767333984375" lon="-5.01613427884876728057861328125">
        <ele>825</ele>
        <time>2019-07-12T06:04:38.000Z</time>
      </trkpt>
      <trkpt lat="43.2919537089765071868896484375" lon="-5.01613478176295757293701171875">
        <ele>825.5999755859375</ele>
        <time>2019-07-12T06:04:39.000Z</time>
      </trkpt>
      <trkpt lat="43.2918514497578144073486328125" lon="-5.01612824387848377227783203125">
        <ele>826.20001220703125</ele>
        <time>2019-07-12T06:04:40.000Z</time>
      </trkpt>
      <trkpt lat="43.2917471788823604583740234375" lon="-5.01609521917998790740966796875">
        <ele>827</ele>
        <time>2019-07-12T06:04:41.000Z</time>
      </trkpt>
      <trkpt lat="43.29164198599755764007568359375" lon="-5.0160327740013599395751953125">
        <ele>827.79998779296875</ele>
        <time>2019-07-12T06:04:42.000Z</time>
      </trkpt>
      <trkpt lat="43.29153268598020076751708984375" lon="-5.0159494578838348388671875">
        <ele>829</ele>
        <time>2019-07-12T06:04:43.000Z</time>
      </trkpt>
      <trkpt lat="43.2914226315915584564208984375" lon="-5.01585767604410648345947265625">
        <ele>830</ele>
        <time>2019-07-12T06:04:44.000Z</time>
      </trkpt>
      <trkpt lat="43.29130821861326694488525390625" lon="-5.01577821560204029083251953125">
        <ele>831</ele>
        <time>2019-07-12T06:04:45.000Z</time>
      </trkpt>
      <trkpt lat="43.2911845855414867401123046875" lon="-5.01572490669786930084228515625">
        <ele>832.4000244140625</ele>
        <time>2019-07-12T06:04:46.000Z</time>
      </trkpt>
      <trkpt lat="43.29105407930910587310791015625" lon="-5.01570143736898899078369140625">
        <ele>833.79998779296875</ele>
        <time>2019-07-12T06:04:47.000Z</time>
      </trkpt>
      <trkpt lat="43.29092399217188358306884765625" lon="-5.01570847816765308380126953125">
        <ele>835.5999755859375</ele>
        <time>2019-07-12T06:04:48.000Z</time>
      </trkpt>
      <trkpt lat="43.2908080704510211944580078125" lon="-5.0157229788601398468017578125">
        <ele>837.20001220703125</ele>
        <time>2019-07-12T06:04:49.000Z</time>
      </trkpt>
      <trkpt lat="43.2907088287174701690673828125" lon="-5.0157202966511249542236328125">
        <ele>838.79998779296875</ele>
        <time>2019-07-12T06:04:50.000Z</time>
      </trkpt>
      <trkpt lat="43.29062777571380138397216796875" lon="-5.0156787224113941192626953125">
        <ele>840</ele>
        <time>2019-07-12T06:04:51.000Z</time>
      </trkpt>
      <trkpt lat="43.29056315124034881591796875" lon="-5.0155831687152385711669921875">
        <ele>840.79998779296875</ele>
        <time>2019-07-12T06:04:52.000Z</time>
      </trkpt>
      <trkpt lat="43.2905073277652263641357421875" lon="-5.01543648540973663330078125">
        <ele>841.4000244140625</ele>
        <time>2019-07-12T06:04:53.000Z</time>
      </trkpt>
      <trkpt lat="43.2904533483088016510009765625" lon="-5.0152519159018993377685546875">
        <ele>842.20001220703125</ele>
        <time>2019-07-12T06:04:54.000Z</time>
      </trkpt>
      <trkpt lat="43.290402889251708984375" lon="-5.015046559274196624755859375">
        <ele>843</ele>
        <time>2019-07-12T06:04:55.000Z</time>
      </trkpt>
      <trkpt lat="43.2903534360229969024658203125" lon="-5.01484296284615993499755859375">
        <ele>844.4000244140625</ele>
        <time>2019-07-12T06:04:56.000Z</time>
      </trkpt>
      <trkpt lat="43.290298618376255035400390625" lon="-5.014655627310276031494140625">
        <ele>845.4000244140625</ele>
        <time>2019-07-12T06:04:57.000Z</time>
      </trkpt>
      <trkpt lat="43.2902384363114833831787109375" lon="-5.01448857598006725311279296875">
        <ele>847</ele>
        <time>2019-07-12T06:04:58.000Z</time>
      </trkpt>
      <trkpt lat="43.2901713810861110687255859375" lon="-5.01434407196938991546630859375">
        <ele>848.4000244140625</ele>
        <time>2019-07-12T06:04:59.000Z</time>
      </trkpt>
      <trkpt lat="43.2900932617485523223876953125" lon="-5.01423091627657413482666015625">
        <ele>850.20001220703125</ele>
        <time>2019-07-12T06:05:00.000Z</time>
      </trkpt>
      <trkpt lat="43.29000215046107769012451171875" lon="-5.014164783060550689697265625">
        <ele>852</ele>
        <time>2019-07-12T06:05:01.000Z</time>
      </trkpt>
      <trkpt lat="43.2898971252143383026123046875" lon="-5.01414458267390727996826171875">
        <ele>853.5999755859375</ele>
        <time>2019-07-12T06:05:02.000Z</time>
      </trkpt>
      <trkpt lat="43.2897844724357128143310546875" lon="-5.01415380276739597320556640625">
        <ele>854.79998779296875</ele>
        <time>2019-07-12T06:05:03.000Z</time>
      </trkpt>
      <trkpt lat="43.28966855071485042572021484375" lon="-5.01416436396539211273193359375">
        <ele>856.20001220703125</ele>
        <time>2019-07-12T06:05:04.000Z</time>
      </trkpt>
      <trkpt lat="43.28955489210784435272216796875" lon="-5.01416201703250408172607421875">
        <ele>857.4000244140625</ele>
        <time>2019-07-12T06:05:05.000Z</time>
      </trkpt>
      <trkpt lat="43.28945363871753215789794921875" lon="-5.01413921825587749481201171875">
        <ele>858.79998779296875</ele>
        <time>2019-07-12T06:05:06.000Z</time>
      </trkpt>
      <trkpt lat="43.289375938475131988525390625" lon="-5.0140888430178165435791015625">
        <ele>859.79998779296875</ele>
        <time>2019-07-12T06:05:07.000Z</time>
      </trkpt>
      <trkpt lat="43.2893053628504276275634765625" lon="-5.0139098055660724639892578125">
        <ele>861.4000244140625</ele>
        <time>2019-07-12T06:05:09.000Z</time>
      </trkpt>
      <trkpt lat="43.28931768424808979034423828125" lon="-5.01378960907459259033203125">
        <ele>862.5999755859375</ele>
        <time>2019-07-12T06:05:10.000Z</time>
      </trkpt>
      <trkpt lat="43.28934953548014163970947265625" lon="-5.013657845556735992431640625">
        <ele>864</ele>
        <time>2019-07-12T06:05:11.000Z</time>
      </trkpt>
      <trkpt lat="43.28937568701803684234619140625" lon="-5.013516359031200408935546875">
        <ele>865.4000244140625</ele>
        <time>2019-07-12T06:05:12.000Z</time>
      </trkpt>
      <trkpt lat="43.28937451355159282684326171875" lon="-5.01337118446826934814453125">
        <ele>867.20001220703125</ele>
        <time>2019-07-12T06:05:13.000Z</time>
      </trkpt>
      <trkpt lat="43.2893474400043487548828125" lon="-5.01324201934039592742919921875">
        <ele>869</ele>
        <time>2019-07-12T06:05:14.000Z</time>
      </trkpt>
      <trkpt lat="43.2893206179141998291015625" lon="-5.01312685199081897735595703125">
        <ele>870.79998779296875</ele>
        <time>2019-07-12T06:05:15.000Z</time>
      </trkpt>
      <trkpt lat="43.2893204502761363983154296875" lon="-5.01301051117479801177978515625">
        <ele>872.5999755859375</ele>
        <time>2019-07-12T06:05:16.000Z</time>
      </trkpt>
      <trkpt lat="43.289355821907520294189453125" lon="-5.0128986127674579620361328125">
        <ele>874</ele>
        <time>2019-07-12T06:05:17.000Z</time>
      </trkpt>
      <trkpt lat="43.28942094929516315460205078125" lon="-5.01281102187931537628173828125">
        <ele>875</ele>
        <time>2019-07-12T06:05:18.000Z</time>
      </trkpt>
      <trkpt lat="43.28959948383271694183349609375" lon="-5.0127651728689670562744140625">
        <ele>877.20001220703125</ele>
        <time>2019-07-12T06:05:20.000Z</time>
      </trkpt>
      <trkpt lat="43.2896966300904750823974609375" lon="-5.01281538046896457672119140625">
        <ele>878.4000244140625</ele>
        <time>2019-07-12T06:05:21.000Z</time>
      </trkpt>
      <trkpt lat="43.28979679383337497711181640625" lon="-5.0129016302525997161865234375">
        <ele>879.79998779296875</ele>
        <time>2019-07-12T06:05:22.000Z</time>
      </trkpt>
      <trkpt lat="43.2899014838039875030517578125" lon="-5.013003051280975341796875">
        <ele>881</ele>
        <time>2019-07-12T06:05:23.000Z</time>
      </trkpt>
      <trkpt lat="43.29000282101333141326904296875" lon="-5.013098604977130889892578125">
        <ele>882.4000244140625</ele>
        <time>2019-07-12T06:05:24.000Z</time>
      </trkpt>
      <trkpt lat="43.29009334556758403778076171875" lon="-5.01318301074206829071044921875">
        <ele>884</ele>
        <time>2019-07-12T06:05:25.000Z</time>
      </trkpt>
      <trkpt lat="43.290172554552555084228515625" lon="-5.01324503682553768157958984375">
        <ele>885.5999755859375</ele>
        <time>2019-07-12T06:05:26.000Z</time>
      </trkpt>
      <trkpt lat="43.29024371691048145294189453125" lon="-5.01326297409832477569580078125">
        <ele>887</ele>
        <time>2019-07-12T06:05:27.000Z</time>
      </trkpt>
      <trkpt lat="43.29029870219528675079345703125" lon="-5.0132281892001628875732421875">
        <ele>888.5999755859375</ele>
        <time>2019-07-12T06:05:28.000Z</time>
      </trkpt>
      <trkpt lat="43.2903296314179897308349609375" lon="-5.0131470523774623870849609375">
        <ele>890</ele>
        <time>2019-07-12T06:05:29.000Z</time>
      </trkpt>
      <trkpt lat="43.2903383485972881317138671875" lon="-5.0130350701510906219482421875">
        <ele>891.5999755859375</ele>
        <time>2019-07-12T06:05:30.000Z</time>
      </trkpt>
      <trkpt lat="43.2903403602540493011474609375" lon="-5.01290054060518741607666015625">
        <ele>892.79998779296875</ele>
        <time>2019-07-12T06:05:31.000Z</time>
      </trkpt>
      <trkpt lat="43.2903557829558849334716796875" lon="-5.01274547539651393890380859375">
        <ele>893.79998779296875</ele>
        <time>2019-07-12T06:05:32.000Z</time>
      </trkpt>
      <trkpt lat="43.2903819344937801361083984375" lon="-5.01258806325495243072509765625">
        <ele>894.4000244140625</ele>
        <time>2019-07-12T06:05:33.000Z</time>
      </trkpt>
      <trkpt lat="43.29042778350412845611572265625" lon="-5.01225530169904232025146484375">
        <ele>895.20001220703125</ele>
        <time>2019-07-12T06:05:35.000Z</time>
      </trkpt>
      <trkpt lat="43.29041018150746822357177734375" lon="-5.01210057176649570465087890625">
        <ele>895.79998779296875</ele>
        <time>2019-07-12T06:05:36.000Z</time>
      </trkpt>
      <trkpt lat="43.29036558978259563446044921875" lon="-5.01195405609905719757080078125">
        <ele>896.20001220703125</ele>
        <time>2019-07-12T06:05:37.000Z</time>
      </trkpt>
      <trkpt lat="43.29019107855856418609619140625" lon="-5.0115444324910640716552734375">
        <ele>896.79998779296875</ele>
        <time>2019-07-12T06:05:40.000Z</time>
      </trkpt>
      <trkpt lat="43.29015486873686313629150390625" lon="-5.011415183544158935546875">
        <ele>896.5999755859375</ele>
        <time>2019-07-12T06:05:41.000Z</time>
      </trkpt>
      <trkpt lat="43.29014061950147151947021484375" lon="-5.01089005731046199798583984375">
        <ele>896.20001220703125</ele>
        <time>2019-07-12T06:05:45.000Z</time>
      </trkpt>
      <trkpt lat="43.2902350835502147674560546875" lon="-5.0106901489198207855224609375">
        <ele>896.4000244140625</ele>
        <time>2019-07-12T06:05:47.000Z</time>
      </trkpt>
      <trkpt lat="43.2903722114861011505126953125" lon="-5.01045771874487400054931640625">
        <ele>896.5999755859375</ele>
        <time>2019-07-12T06:05:49.000Z</time>
      </trkpt>
      <trkpt lat="43.29044915735721588134765625" lon="-5.01015479676425457000732421875">
        <ele>896.4000244140625</ele>
        <time>2019-07-12T06:05:51.000Z</time>
      </trkpt>
      <trkpt lat="43.2904724590480327606201171875" lon="-5.00986897386610507965087890625">
        <ele>896</ele>
        <time>2019-07-12T06:05:53.000Z</time>
      </trkpt>
      <trkpt lat="43.29057027585804462432861328125" lon="-5.00970670022070407867431640625">
        <ele>896.20001220703125</ele>
        <time>2019-07-12T06:05:55.000Z</time>
      </trkpt>
      <trkpt lat="43.2908670790493488311767578125" lon="-5.0096313469111919403076171875">
        <ele>896</ele>
        <time>2019-07-12T06:05:58.000Z</time>
      </trkpt>
      <trkpt lat="43.29104351811110973358154296875" lon="-5.00945507548749446868896484375">
        <ele>896.20001220703125</ele>
        <time>2019-07-12T06:06:00.000Z</time>
      </trkpt>
      <trkpt lat="43.29110504128038883209228515625" lon="-5.009205378592014312744140625">
        <ele>896.4000244140625</ele>
        <time>2019-07-12T06:06:02.000Z</time>
      </trkpt>
      <trkpt lat="43.29100445844233036041259765625" lon="-5.008860044181346893310546875">
        <ele>896.79998779296875</ele>
        <time>2019-07-12T06:06:05.000Z</time>
      </trkpt>
      <trkpt lat="43.29097461886703968048095703125" lon="-5.008599869906902313232421875">
        <ele>896.79998779296875</ele>
        <time>2019-07-12T06:06:07.000Z</time>
      </trkpt>
      <trkpt lat="43.29103052616119384765625" lon="-5.00835947692394256591796875">
        <ele>897</ele>
        <time>2019-07-12T06:06:09.000Z</time>
      </trkpt>
      <trkpt lat="43.29118651337921619415283203125" lon="-5.0080535374581813812255859375">
        <ele>898.4000244140625</ele>
        <time>2019-07-12T06:06:12.000Z</time>
      </trkpt>
      <trkpt lat="43.29122590832412242889404296875" lon="-5.0079620070755481719970703125">
        <ele>899.20001220703125</ele>
        <time>2019-07-12T06:06:13.000Z</time>
      </trkpt>
      <trkpt lat="43.29125155694782733917236328125" lon="-5.0078724883496761322021484375">
        <ele>900</ele>
        <time>2019-07-12T06:06:14.000Z</time>
      </trkpt>
      <trkpt lat="43.29126144759356975555419921875" lon="-5.0077806226909160614013671875">
        <ele>901</ele>
        <time>2019-07-12T06:06:15.000Z</time>
      </trkpt>
      <trkpt lat="43.29125507734715938568115234375" lon="-5.00769102014601230621337890625">
        <ele>902.20001220703125</ele>
        <time>2019-07-12T06:06:16.000Z</time>
      </trkpt>
      <trkpt lat="43.291236720979213714599609375" lon="-5.0076025910675525665283203125">
        <ele>903.5999755859375</ele>
        <time>2019-07-12T06:06:17.000Z</time>
      </trkpt>
      <trkpt lat="43.2912100665271282196044921875" lon="-5.0075165927410125732421875">
        <ele>904.5999755859375</ele>
        <time>2019-07-12T06:06:18.000Z</time>
      </trkpt>
      <trkpt lat="43.29114862717688083648681640625" lon="-5.00734216533601284027099609375">
        <ele>906.4000244140625</ele>
        <time>2019-07-12T06:06:20.000Z</time>
      </trkpt>
      <trkpt lat="43.29107704572379589080810546875" lon="-5.007167570292949676513671875">
        <ele>908.20001220703125</ele>
        <time>2019-07-12T06:06:22.000Z</time>
      </trkpt>
      <trkpt lat="43.29096338711678981781005859375" lon="-5.00702650286257266998291015625">
        <ele>910.20001220703125</ele>
        <time>2019-07-12T06:06:24.000Z</time>
      </trkpt>
      <trkpt lat="43.29080111347138881683349609375" lon="-5.00696212984621524810791015625">
        <ele>912</ele>
        <time>2019-07-12T06:06:26.000Z</time>
      </trkpt>
      <trkpt lat="43.29061268828809261322021484375" lon="-5.00693514011800289154052734375">
        <ele>913.4000244140625</ele>
        <time>2019-07-12T06:06:28.000Z</time>
      </trkpt>
      <trkpt lat="43.2904194854199886322021484375" lon="-5.00690597109496593475341796875">
        <ele>915.20001220703125</ele>
        <time>2019-07-12T06:06:30.000Z</time>
      </trkpt>
      <trkpt lat="43.29033507965505123138427734375" lon="-5.0068837590515613555908203125">
        <ele>916</ele>
        <time>2019-07-12T06:06:31.000Z</time>
      </trkpt>
      <trkpt lat="43.290267102420330047607421875" lon="-5.00683732330799102783203125">
        <ele>916.79998779296875</ele>
        <time>2019-07-12T06:06:32.000Z</time>
      </trkpt>
      <trkpt lat="43.2902236841619014739990234375" lon="-5.006757862865924835205078125">
        <ele>917.5999755859375</ele>
        <time>2019-07-12T06:06:33.000Z</time>
      </trkpt>
      <trkpt lat="43.29020633362233638763427734375" lon="-5.00665350817143917083740234375">
        <ele>918.5999755859375</ele>
        <time>2019-07-12T06:06:34.000Z</time>
      </trkpt>
      <trkpt lat="43.29020264558494091033935546875" lon="-5.0065287016332149505615234375">
        <ele>919.79998779296875</ele>
        <time>2019-07-12T06:06:35.000Z</time>
      </trkpt>
      <trkpt lat="43.290196694433689117431640625" lon="-5.00638076104223728179931640625">
        <ele>921.4000244140625</ele>
        <time>2019-07-12T06:06:36.000Z</time>
      </trkpt>
      <trkpt lat="43.2901780866086483001708984375" lon="-5.00620725564658641815185546875">
        <ele>922.79998779296875</ele>
        <time>2019-07-12T06:06:37.000Z</time>
      </trkpt>
      <trkpt lat="43.29014916904270648956298828125" lon="-5.006010197103023529052734375">
        <ele>924.20001220703125</ele>
        <time>2019-07-12T06:06:38.000Z</time>
      </trkpt>
      <trkpt lat="43.290115892887115478515625" lon="-5.0058018229901790618896484375">
        <ele>925.4000244140625</ele>
        <time>2019-07-12T06:06:39.000Z</time>
      </trkpt>
      <trkpt lat="43.29008177854120731353759765625" lon="-5.00559269450604915618896484375">
        <ele>926.5999755859375</ele>
        <time>2019-07-12T06:06:40.000Z</time>
      </trkpt>
      <trkpt lat="43.2900044135749340057373046875" lon="-5.0052134133875370025634765625">
        <ele>928.20001220703125</ele>
        <time>2019-07-12T06:06:42.000Z</time>
      </trkpt>
      <trkpt lat="43.2899467460811138153076171875" lon="-5.00505826435983180999755859375">
        <ele>929.20001220703125</ele>
        <time>2019-07-12T06:06:43.000Z</time>
      </trkpt>
      <trkpt lat="43.289867453277111053466796875" lon="-5.00493052415549755096435546875">
        <ele>930.5999755859375</ele>
        <time>2019-07-12T06:06:44.000Z</time>
      </trkpt>
      <trkpt lat="43.289767205715179443359375" lon="-5.0048271752893924713134765625">
        <ele>932.4000244140625</ele>
        <time>2019-07-12T06:06:45.000Z</time>
      </trkpt>
      <trkpt lat="43.28965413384139537811279296875" lon="-5.00474394299089908599853515625">
        <ele>934</ele>
        <time>2019-07-12T06:06:46.000Z</time>
      </trkpt>
      <trkpt lat="43.28953050076961517333984375" lon="-5.00467655248939990997314453125">
        <ele>935.4000244140625</ele>
        <time>2019-07-12T06:06:47.000Z</time>
      </trkpt>
      <trkpt lat="43.289396725594997406005859375" lon="-5.00463011674582958221435546875">
        <ele>936.5999755859375</ele>
        <time>2019-07-12T06:06:48.000Z</time>
      </trkpt>
      <trkpt lat="43.28925448469817638397216796875" lon="-5.00460572540760040283203125">
        <ele>938.4000244140625</ele>
        <time>2019-07-12T06:06:49.000Z</time>
      </trkpt>
      <trkpt lat="43.2891135849058628082275390625" lon="-5.00459239818155765533447265625">
        <ele>940.5999755859375</ele>
        <time>2019-07-12T06:06:50.000Z</time>
      </trkpt>
      <trkpt lat="43.28898006118834018707275390625" lon="-5.004581250250339508056640625">
        <ele>942.4000244140625</ele>
        <time>2019-07-12T06:06:51.000Z</time>
      </trkpt>
      <trkpt lat="43.28885584138333797454833984375" lon="-5.00457077287137508392333984375">
        <ele>943.5999755859375</ele>
        <time>2019-07-12T06:06:52.000Z</time>
      </trkpt>
      <trkpt lat="43.2887412607669830322265625" lon="-5.0045607984066009521484375">
        <ele>944.5999755859375</ele>
        <time>2019-07-12T06:06:53.000Z</time>
      </trkpt>
      <trkpt lat="43.28855543397367000579833984375" lon="-5.00455400906503200531005859375">
        <ele>946.4000244140625</ele>
        <time>2019-07-12T06:06:55.000Z</time>
      </trkpt>
      <trkpt lat="43.28848133794963359832763671875" lon="-5.00456021167337894439697265625">
        <ele>947.20001220703125</ele>
        <time>2019-07-12T06:06:56.000Z</time>
      </trkpt>
      <trkpt lat="43.28841445036232471466064453125" lon="-5.0045787356793880462646484375">
        <ele>948</ele>
        <time>2019-07-12T06:06:57.000Z</time>
      </trkpt>
      <trkpt lat="43.2883541844785213470458984375" lon="-5.00461720861494541168212890625">
        <ele>948.5999755859375</ele>
        <time>2019-07-12T06:06:58.000Z</time>
      </trkpt>
      <trkpt lat="43.28830213285982608795166015625" lon="-5.00467387028038501739501953125">
        <ele>949.20001220703125</ele>
        <time>2019-07-12T06:06:59.000Z</time>
      </trkpt>
      <trkpt lat="43.28826055862009525299072265625" lon="-5.004744865000247955322265625">
        <ele>949.5999755859375</ele>
        <time>2019-07-12T06:07:00.000Z</time>
      </trkpt>
      <trkpt lat="43.28822560608386993408203125" lon="-5.004822313785552978515625">
        <ele>950.20001220703125</ele>
        <time>2019-07-12T06:07:01.000Z</time>
      </trkpt>
      <trkpt lat="43.28819886781275272369384765625" lon="-5.0049016065895557403564453125">
        <ele>950.5999755859375</ele>
        <time>2019-07-12T06:07:02.000Z</time>
      </trkpt>
      <trkpt lat="43.2881701178848743438720703125" lon="-5.00506513752043247222900390625">
        <ele>951.79998779296875</ele>
        <time>2019-07-12T06:07:04.000Z</time>
      </trkpt>
      <trkpt lat="43.2881697826087474822998046875" lon="-5.00523931346833705902099609375">
        <ele>953.20001220703125</ele>
        <time>2019-07-12T06:07:06.000Z</time>
      </trkpt>
      <trkpt lat="43.2881833612918853759765625" lon="-5.0054253078997135162353515625">
        <ele>954.4000244140625</ele>
        <time>2019-07-12T06:07:08.000Z</time>
      </trkpt>
      <trkpt lat="43.288199789822101593017578125" lon="-5.00562270171940326690673828125">
        <ele>956</ele>
        <time>2019-07-12T06:07:10.000Z</time>
      </trkpt>
      <trkpt lat="43.28822133131325244903564453125" lon="-5.00581196509301662445068359375">
        <ele>957.4000244140625</ele>
        <time>2019-07-12T06:07:12.000Z</time>
      </trkpt>
      <trkpt lat="43.28822284005582332611083984375" lon="-5.005888827145099639892578125">
        <ele>958.20001220703125</ele>
        <time>2019-07-12T06:07:13.000Z</time>
      </trkpt>
      <trkpt lat="43.28821630217134952545166015625" lon="-5.0059496797621250152587890625">
        <ele>958.79998779296875</ele>
        <time>2019-07-12T06:07:14.000Z</time>
      </trkpt>
      <trkpt lat="43.28819216229021549224853515625" lon="-5.00601966865360736846923828125">
        <ele>960.4000244140625</ele>
        <time>2019-07-12T06:07:16.000Z</time>
      </trkpt>
      <trkpt lat="43.288187719881534576416015625" lon="-5.00602486543357372283935546875">
        <ele>962</ele>
        <time>2019-07-12T06:07:18.000Z</time>
      </trkpt>
      <trkpt lat="43.288187049329280853271484375" lon="-5.0060234405100345611572265625">
        <ele>962.5999755859375</ele>
        <time>2019-07-12T06:07:19.000Z</time>
      </trkpt>
      <trkpt lat="43.2881852053105831146240234375" lon="-5.00601933337748050689697265625">
        <ele>963.20001220703125</ele>
        <time>2019-07-12T06:07:21.000Z</time>
      </trkpt>
      <trkpt lat="43.28807783313095569610595703125" lon="-5.0061106123030185699462890625">
        <ele>963.20001220703125</ele>
        <time>2019-07-12T06:07:37.000Z</time>
      </trkpt>
      <trkpt lat="43.2876591570675373077392578125" lon="-5.00651369802653789520263671875">
        <ele>963.5999755859375</ele>
        <time>2019-07-12T06:07:42.000Z</time>
      </trkpt>
      <trkpt lat="43.287572823464870452880859375" lon="-5.00659299083054065704345703125">
        <ele>964</ele>
        <time>2019-07-12T06:07:43.000Z</time>
      </trkpt>
      <trkpt lat="43.2874767668545246124267578125" lon="-5.0066507421433925628662109375">
        <ele>964.79998779296875</ele>
        <time>2019-07-12T06:07:44.000Z</time>
      </trkpt>
      <trkpt lat="43.2873667962849140167236328125" lon="-5.00669089145958423614501953125">
        <ele>965.79998779296875</ele>
        <time>2019-07-12T06:07:45.000Z</time>
      </trkpt>
      <trkpt lat="43.2872474379837512969970703125" lon="-5.0067218206822872161865234375">
        <ele>966.79998779296875</ele>
        <time>2019-07-12T06:07:46.000Z</time>
      </trkpt>
      <trkpt lat="43.28712313435971736907958984375" lon="-5.00674939714372158050537109375">
        <ele>967.79998779296875</ele>
        <time>2019-07-12T06:07:47.000Z</time>
      </trkpt>
      <trkpt lat="43.28689212910830974578857421875" lon="-5.006801448762416839599609375">
        <ele>969.79998779296875</ele>
        <time>2019-07-12T06:07:49.000Z</time>
      </trkpt>
      <trkpt lat="43.28679137863218784332275390625" lon="-5.0068341381847858428955078125">
        <ele>970.79998779296875</ele>
        <time>2019-07-12T06:07:50.000Z</time>
      </trkpt>
      <trkpt lat="43.28670185990631580352783203125" lon="-5.00688719563186168670654296875">
        <ele>971.79998779296875</ele>
        <time>2019-07-12T06:07:51.000Z</time>
      </trkpt>
      <trkpt lat="43.28663027845323085784912109375" lon="-5.00697151757776737213134765625">
        <ele>973</ele>
        <time>2019-07-12T06:07:52.000Z</time>
      </trkpt>
      <trkpt lat="43.28655517660081386566162109375" lon="-5.00722951255738735198974609375">
        <ele>975</ele>
        <time>2019-07-12T06:07:54.000Z</time>
      </trkpt>
      <trkpt lat="43.28654914163053035736083984375" lon="-5.007373429834842681884765625">
        <ele>976</ele>
        <time>2019-07-12T06:07:55.000Z</time>
      </trkpt>
      <trkpt lat="43.28655861318111419677734375" lon="-5.007506199181079864501953125">
        <ele>977.20001220703125</ele>
        <time>2019-07-12T06:07:56.000Z</time>
      </trkpt>
      <trkpt lat="43.2865981757640838623046875" lon="-5.00769923441112041473388671875">
        <ele>978.20001220703125</ele>
        <time>2019-07-12T06:07:58.000Z</time>
      </trkpt>
      <trkpt lat="43.286609910428524017333984375" lon="-5.00780367292463779449462890625">
        <ele>979.4000244140625</ele>
        <time>2019-07-12T06:08:00.000Z</time>
      </trkpt>
      <trkpt lat="43.286604546010494232177734375" lon="-5.00783049501478672027587890625">
        <ele>980.79998779296875</ele>
        <time>2019-07-12T06:08:03.000Z</time>
      </trkpt>
      <trkpt lat="43.28660965897142887115478515625" lon="-5.00782437622547149658203125">
        <ele>981.79998779296875</ele>
        <time>2019-07-12T06:08:08.000Z</time>
      </trkpt>
      <trkpt lat="43.28643296845257282257080078125" lon="-5.00790308229625225067138671875">
        <ele>982</ele>
        <time>2019-07-12T06:10:16.000Z</time>
      </trkpt>
      <trkpt lat="43.2860907353460788726806640625" lon="-5.00792889855802059173583984375">
        <ele>980.5999755859375</ele>
        <time>2019-07-12T06:10:20.000Z</time>
      </trkpt>
      <trkpt lat="43.28591144643723964691162109375" lon="-5.00801347196102142333984375">
        <ele>980</ele>
        <time>2019-07-12T06:10:22.000Z</time>
      </trkpt>
      <trkpt lat="43.28578119166195392608642578125" lon="-5.00815470702946186065673828125">
        <ele>980.4000244140625</ele>
        <time>2019-07-12T06:10:24.000Z</time>
      </trkpt>
      <trkpt lat="43.28571815975010395050048828125" lon="-5.00836274586617946624755859375">
        <ele>983.4000244140625</ele>
        <time>2019-07-12T06:10:26.000Z</time>
      </trkpt>
      <trkpt lat="43.28568966127932071685791015625" lon="-5.00847020186483860015869140625">
        <ele>985.4000244140625</ele>
        <time>2019-07-12T06:10:27.000Z</time>
      </trkpt>
      <trkpt lat="43.28565730713307857513427734375" lon="-5.00855930149555206298828125">
        <ele>987.20001220703125</ele>
        <time>2019-07-12T06:10:28.000Z</time>
      </trkpt>
      <trkpt lat="43.28562696464359760284423828125" lon="-5.00860934145748615264892578125">
        <ele>988.5999755859375</ele>
        <time>2019-07-12T06:10:29.000Z</time>
      </trkpt>
      <trkpt lat="43.28558773733675479888916015625" lon="-5.0086382590234279632568359375">
        <ele>989.5999755859375</ele>
        <time>2019-07-12T06:10:30.000Z</time>
      </trkpt>
      <trkpt lat="43.28555203042924404144287109375" lon="-5.0086426176130771636962890625">
        <ele>990.5999755859375</ele>
        <time>2019-07-12T06:10:31.000Z</time>
      </trkpt>
      <trkpt lat="43.2855231128633022308349609375" lon="-5.0086318887770175933837890625">
        <ele>991.79998779296875</ele>
        <time>2019-07-12T06:10:32.000Z</time>
      </trkpt>
      <trkpt lat="43.28547231853008270263671875" lon="-5.00861319713294506072998046875">
        <ele>993.20001220703125</ele>
        <time>2019-07-12T06:10:34.000Z</time>
      </trkpt>
      <trkpt lat="43.28542294912040233612060546875" lon="-5.00859676860272884368896484375">
        <ele>994.4000244140625</ele>
        <time>2019-07-12T06:10:36.000Z</time>
      </trkpt>
      <trkpt lat="43.28535807318985462188720703125" lon="-5.00856089405715465545654296875">
        <ele>995.5999755859375</ele>
        <time>2019-07-12T06:10:38.000Z</time>
      </trkpt>
      <trkpt lat="43.285282552242279052734375" lon="-5.00851227901875972747802734375">
        <ele>996</ele>
        <time>2019-07-12T06:10:40.000Z</time>
      </trkpt>
      <trkpt lat="43.2851851545274257659912109375" lon="-5.00850741751492023468017578125">
        <ele>996.5999755859375</ele>
        <time>2019-07-12T06:10:42.000Z</time>
      </trkpt>
      <trkpt lat="43.2850885950028896331787109375" lon="-5.00858210027217864990234375">
        <ele>997.5999755859375</ele>
        <time>2019-07-12T06:10:44.000Z</time>
      </trkpt>
      <trkpt lat="43.2850386388599872589111328125" lon="-5.00863666646182537078857421875">
        <ele>998</ele>
        <time>2019-07-12T06:10:45.000Z</time>
      </trkpt>
      <trkpt lat="43.28498457558453083038330078125" lon="-5.0086915679275989532470703125">
        <ele>998.5999755859375</ele>
        <time>2019-07-12T06:10:46.000Z</time>
      </trkpt>
      <trkpt lat="43.28492338769137859344482421875" lon="-5.00873188488185405731201171875">
        <ele>999.20001220703125</ele>
        <time>2019-07-12T06:10:47.000Z</time>
      </trkpt>
      <trkpt lat="43.28485616482794284820556640625" lon="-5.0087477266788482666015625">
        <ele>999.5999755859375</ele>
        <time>2019-07-12T06:10:48.000Z</time>
      </trkpt>
      <trkpt lat="43.284783326089382171630859375" lon="-5.0087369978427886962890625">
        <ele>1000.4000244140625</ele>
        <time>2019-07-12T06:10:49.000Z</time>
      </trkpt>
      <trkpt lat="43.284713588654994964599609375" lon="-5.00870690681040287017822265625">
        <ele>1001.20001220703125</ele>
        <time>2019-07-12T06:10:50.000Z</time>
      </trkpt>
      <trkpt lat="43.2846493832767009735107421875" lon="-5.00866927206516265869140625">
        <ele>1002</ele>
        <time>2019-07-12T06:10:51.000Z</time>
      </trkpt>
      <trkpt lat="43.2845035381615161895751953125" lon="-5.00854186713695526123046875">
        <ele>1002.79998779296875</ele>
        <time>2019-07-12T06:10:54.000Z</time>
      </trkpt>
      <trkpt lat="43.28447009436786174774169921875" lon="-5.00849886797368526458740234375">
        <ele>1003</ele>
        <time>2019-07-12T06:10:55.000Z</time>
      </trkpt>
      <trkpt lat="43.2843184657394886016845703125" lon="-5.00830474309623241424560546875">
        <ele>1004</ele>
        <time>2019-07-12T06:11:01.000Z</time>
      </trkpt>
      <trkpt lat="43.28417681157588958740234375" lon="-5.00817918218672275543212890625">
        <ele>1004</ele>
        <time>2019-07-12T06:11:04.000Z</time>
      </trkpt>
      <trkpt lat="43.2840904779732227325439453125" lon="-5.008029229938983917236328125">
        <ele>1003.79998779296875</ele>
        <time>2019-07-12T06:11:06.000Z</time>
      </trkpt>
      <trkpt lat="43.2839567027986049652099609375" lon="-5.007576607167720794677734375">
        <ele>1003.4000244140625</ele>
        <time>2019-07-12T06:11:10.000Z</time>
      </trkpt>
      <trkpt lat="43.28370063565671443939208984375" lon="-5.00709942542016506195068359375">
        <ele>1003.20001220703125</ele>
        <time>2019-07-12T06:11:14.000Z</time>
      </trkpt>
      <trkpt lat="43.28350550495088100433349609375" lon="-5.0065374188125133514404296875">
        <ele>1003</ele>
        <time>2019-07-12T06:11:18.000Z</time>
      </trkpt>
      <trkpt lat="43.28337357379496097564697265625" lon="-5.0061191618442535400390625">
        <ele>1001.5999755859375</ele>
        <time>2019-07-12T06:11:21.000Z</time>
      </trkpt>
      <trkpt lat="43.28329109586775302886962890625" lon="-5.005811043083667755126953125">
        <ele>1000</ele>
        <time>2019-07-12T06:11:23.000Z</time>
      </trkpt>
      <trkpt lat="43.28322655521333217620849609375" lon="-5.00548188574612140655517578125">
        <ele>998.4000244140625</ele>
        <time>2019-07-12T06:11:25.000Z</time>
      </trkpt>
      <trkpt lat="43.28319872729480266571044921875" lon="-5.00531223602592945098876953125">
        <ele>997</ele>
        <time>2019-07-12T06:11:26.000Z</time>
      </trkpt>
      <trkpt lat="43.2831691391766071319580078125" lon="-5.00514074228703975677490234375">
        <ele>995.4000244140625</ele>
        <time>2019-07-12T06:11:27.000Z</time>
      </trkpt>
      <trkpt lat="43.28313435427844524383544921875" lon="-5.00496941618621349334716796875">
        <ele>993.20001220703125</ele>
        <time>2019-07-12T06:11:28.000Z</time>
      </trkpt>
      <trkpt lat="43.28308825381100177764892578125" lon="-5.00480177812278270721435546875">
        <ele>991.4000244140625</ele>
        <time>2019-07-12T06:11:29.000Z</time>
      </trkpt>
      <trkpt lat="43.28302958048880100250244140625" lon="-5.0046447850763797760009765625">
        <ele>989.5999755859375</ele>
        <time>2019-07-12T06:11:30.000Z</time>
      </trkpt>
      <trkpt lat="43.2829664647579193115234375" lon="-5.00449717976152896881103515625">
        <ele>988</ele>
        <time>2019-07-12T06:11:31.000Z</time>
      </trkpt>
      <trkpt lat="43.28290879726409912109375" lon="-5.00435301102697849273681640625">
        <ele>986.20001220703125</ele>
        <time>2019-07-12T06:11:32.000Z</time>
      </trkpt>
      <trkpt lat="43.2828623615205287933349609375" lon="-5.0042102672159671783447265625">
        <ele>984.5999755859375</ele>
        <time>2019-07-12T06:11:33.000Z</time>
      </trkpt>
      <trkpt lat="43.28282992355525493621826171875" lon="-5.00406819395720958709716796875">
        <ele>983</ele>
        <time>2019-07-12T06:11:34.000Z</time>
      </trkpt>
      <trkpt lat="43.28281232155859470367431640625" lon="-5.0039259530603885650634765625">
        <ele>981.5999755859375</ele>
        <time>2019-07-12T06:11:35.000Z</time>
      </trkpt>
      <trkpt lat="43.28283176757395267486572265625" lon="-5.0036676228046417236328125">
        <ele>979.5999755859375</ele>
        <time>2019-07-12T06:11:37.000Z</time>
      </trkpt>
      <trkpt lat="43.28289664350450038909912109375" lon="-5.00349135138094425201416015625">
        <ele>977.79998779296875</ele>
        <time>2019-07-12T06:11:39.000Z</time>
      </trkpt>
      <trkpt lat="43.28291885554790496826171875" lon="-5.003415830433368682861328125">
        <ele>977.20001220703125</ele>
        <time>2019-07-12T06:11:40.000Z</time>
      </trkpt>
      <trkpt lat="43.2828806340694427490234375" lon="-5.00329823233187198638916015625">
        <ele>976.5999755859375</ele>
        <time>2019-07-12T06:11:42.000Z</time>
      </trkpt>
      <trkpt lat="43.28277057968080043792724609375" lon="-5.00329219736158847808837890625">
        <ele>976.4000244140625</ele>
        <time>2019-07-12T06:11:44.000Z</time>
      </trkpt>
      <trkpt lat="43.2826459407806396484375" lon="-5.00343100167810916900634765625">
        <ele>975.5999755859375</ele>
        <time>2019-07-12T06:11:46.000Z</time>
      </trkpt>
      <trkpt lat="43.28256941400468349456787109375" lon="-5.0035152398049831390380859375">
        <ele>974.79998779296875</ele>
        <time>2019-07-12T06:11:47.000Z</time>
      </trkpt>
      <trkpt lat="43.28247754834592342376708984375" lon="-5.00357617624104022979736328125">
        <ele>973.79998779296875</ele>
        <time>2019-07-12T06:11:48.000Z</time>
      </trkpt>
      <trkpt lat="43.28237235546112060546875" lon="-5.00360123813152313232421875">
        <ele>972.5999755859375</ele>
        <time>2019-07-12T06:11:49.000Z</time>
      </trkpt>
      <trkpt lat="43.2822648994624614715576171875" lon="-5.00359109602868556976318359375">
        <ele>971.20001220703125</ele>
        <time>2019-07-12T06:11:50.000Z</time>
      </trkpt>
      <trkpt lat="43.2821435295045375823974609375" lon="-5.0035859830677509307861328125">
        <ele>970.4000244140625</ele>
        <time>2019-07-12T06:11:51.000Z</time>
      </trkpt>
      <trkpt lat="43.28201168216764926910400390625" lon="-5.0036040879786014556884765625">
        <ele>970.20001220703125</ele>
        <time>2019-07-12T06:11:52.000Z</time>
      </trkpt>
      <trkpt lat="43.2817487418651580810546875" lon="-5.00366368331015110015869140625">
        <ele>970</ele>
        <time>2019-07-12T06:11:54.000Z</time>
      </trkpt>
      <trkpt lat="43.28152150847017765045166015625" lon="-5.00363283790647983551025390625">
        <ele>971.20001220703125</ele>
        <time>2019-07-12T06:11:56.000Z</time>
      </trkpt>
      <trkpt lat="43.2813603244721889495849609375" lon="-5.00346176326274871826171875">
        <ele>972</ele>
        <time>2019-07-12T06:11:58.000Z</time>
      </trkpt>
      <trkpt lat="43.2812939397990703582763671875" lon="-5.00333444215357303619384765625">
        <ele>972.79998779296875</ele>
        <time>2019-07-12T06:11:59.000Z</time>
      </trkpt>
      <trkpt lat="43.2812285609543323516845703125" lon="-5.00319278798997402191162109375">
        <ele>974.20001220703125</ele>
        <time>2019-07-12T06:12:00.000Z</time>
      </trkpt>
      <trkpt lat="43.281161002814769744873046875" lon="-5.0030461885035037994384765625">
        <ele>976.20001220703125</ele>
        <time>2019-07-12T06:12:01.000Z</time>
      </trkpt>
      <trkpt lat="43.2810889184474945068359375" lon="-5.00291031785309314727783203125">
        <ele>978</ele>
        <time>2019-07-12T06:12:02.000Z</time>
      </trkpt>
      <trkpt lat="43.281008116900920867919921875" lon="-5.00279967673122882843017578125">
        <ele>979.4000244140625</ele>
        <time>2019-07-12T06:12:03.000Z</time>
      </trkpt>
      <trkpt lat="43.28091801144182682037353515625" lon="-5.00272457487881183624267578125">
        <ele>980.5999755859375</ele>
        <time>2019-07-12T06:12:04.000Z</time>
      </trkpt>
      <trkpt lat="43.280819021165370941162109375" lon="-5.00269339419901371002197265625">
        <ele>982.20001220703125</ele>
        <time>2019-07-12T06:12:05.000Z</time>
      </trkpt>
      <trkpt lat="43.28071382828056812286376953125" lon="-5.00270060263574123382568359375">
        <ele>983.79998779296875</ele>
        <time>2019-07-12T06:12:06.000Z</time>
      </trkpt>
      <trkpt lat="43.280602432787418365478515625" lon="-5.0027343817055225372314453125">
        <ele>985.4000244140625</ele>
        <time>2019-07-12T06:12:07.000Z</time>
      </trkpt>
      <trkpt lat="43.2804845832288265228271484375" lon="-5.00277117826044559478759765625">
        <ele>986.79998779296875</ele>
        <time>2019-07-12T06:12:08.000Z</time>
      </trkpt>
      <trkpt lat="43.28036002814769744873046875" lon="-5.0027900375425815582275390625">
        <ele>988</ele>
        <time>2019-07-12T06:12:09.000Z</time>
      </trkpt>
      <trkpt lat="43.28023203648626804351806640625" lon="-5.00278509221971035003662109375">
        <ele>989.20001220703125</ele>
        <time>2019-07-12T06:12:10.000Z</time>
      </trkpt>
      <trkpt lat="43.2801037095487117767333984375" lon="-5.0027652271091938018798828125">
        <ele>990.4000244140625</ele>
        <time>2019-07-12T06:12:11.000Z</time>
      </trkpt>
      <trkpt lat="43.27997974120080471038818359375" lon="-5.00275206752121448516845703125">
        <ele>991.5999755859375</ele>
        <time>2019-07-12T06:12:12.000Z</time>
      </trkpt>
      <trkpt lat="43.27986574731767177581787109375" lon="-5.00276916660368442535400390625">
        <ele>993.20001220703125</ele>
        <time>2019-07-12T06:12:13.000Z</time>
      </trkpt>
      <trkpt lat="43.2797667570412158966064453125" lon="-5.00282113440334796905517578125">
        <ele>994.5999755859375</ele>
        <time>2019-07-12T06:12:14.000Z</time>
      </trkpt>
      <trkpt lat="43.27967966906726360321044921875" lon="-5.00289875082671642303466796875">
        <ele>995.79998779296875</ele>
        <time>2019-07-12T06:12:15.000Z</time>
      </trkpt>
      <trkpt lat="43.27959450893104076385498046875" lon="-5.00297854654490947723388671875">
        <ele>997.20001220703125</ele>
        <time>2019-07-12T06:12:16.000Z</time>
      </trkpt>
      <trkpt lat="43.27950649894773960113525390625" lon="-5.00304191373288631439208984375">
        <ele>998.5999755859375</ele>
        <time>2019-07-12T06:12:17.000Z</time>
      </trkpt>
      <trkpt lat="43.27940725721418857574462890625" lon="-5.0030760280787944793701171875">
        <ele>1000.20001220703125</ele>
        <time>2019-07-12T06:12:18.000Z</time>
      </trkpt>
      <trkpt lat="43.279300890862941741943359375" lon="-5.003094635903835296630859375">
        <ele>1001.79998779296875</ele>
        <time>2019-07-12T06:12:19.000Z</time>
      </trkpt>
      <trkpt lat="43.27919066883623600006103515625" lon="-5.00311575829982757568359375">
        <ele>1003.4000244140625</ele>
        <time>2019-07-12T06:12:20.000Z</time>
      </trkpt>
      <trkpt lat="43.2790760882198810577392578125" lon="-5.003150291740894317626953125">
        <ele>1004.79998779296875</ele>
        <time>2019-07-12T06:12:21.000Z</time>
      </trkpt>
      <trkpt lat="43.27895396389067173004150390625" lon="-5.0031957216560840606689453125">
        <ele>1005.79998779296875</ele>
        <time>2019-07-12T06:12:22.000Z</time>
      </trkpt>
      <trkpt lat="43.27872212044894695281982421875" lon="-5.00331063754856586456298828125">
        <ele>1007.5999755859375</ele>
        <time>2019-07-12T06:12:24.000Z</time>
      </trkpt>
      <trkpt lat="43.27851341105997562408447265625" lon="-5.003464110195636749267578125">
        <ele>1009</ele>
        <time>2019-07-12T06:12:26.000Z</time>
      </trkpt>
      <trkpt lat="43.278422467410564422607421875" lon="-5.0035625137388706207275390625">
        <ele>1010.20001220703125</ele>
        <time>2019-07-12T06:12:27.000Z</time>
      </trkpt>
      <trkpt lat="43.27834074385464191436767578125" lon="-5.0036651082336902618408203125">
        <ele>1011.4000244140625</ele>
        <time>2019-07-12T06:12:28.000Z</time>
      </trkpt>
      <trkpt lat="43.2782650552690029144287109375" lon="-5.00376393087208271026611328125">
        <ele>1012.79998779296875</ele>
        <time>2019-07-12T06:12:29.000Z</time>
      </trkpt>
      <trkpt lat="43.2781909592449665069580078125" lon="-5.00385277904570102691650390625">
        <ele>1013.79998779296875</ele>
        <time>2019-07-12T06:12:30.000Z</time>
      </trkpt>
      <trkpt lat="43.2781151868402957916259765625" lon="-5.00392938964068889617919921875">
        <ele>1015</ele>
        <time>2019-07-12T06:12:31.000Z</time>
      </trkpt>
      <trkpt lat="43.27803430147469043731689453125" lon="-5.00398672185838222503662109375">
        <ele>1016.20001220703125</ele>
        <time>2019-07-12T06:12:32.000Z</time>
      </trkpt>
      <trkpt lat="43.2779465429484844207763671875" lon="-5.00401924364268779754638671875">
        <ele>1017.4000244140625</ele>
        <time>2019-07-12T06:12:33.000Z</time>
      </trkpt>
      <trkpt lat="43.27785492874681949615478515625" lon="-5.004029385745525360107421875">
        <ele>1018.79998779296875</ele>
        <time>2019-07-12T06:12:34.000Z</time>
      </trkpt>
      <trkpt lat="43.277763314545154571533203125" lon="-5.00402879901230335235595703125">
        <ele>1019.79998779296875</ele>
        <time>2019-07-12T06:12:35.000Z</time>
      </trkpt>
      <trkpt lat="43.2775941677391529083251953125" lon="-5.00404254533350467681884765625">
        <ele>1021.5999755859375</ele>
        <time>2019-07-12T06:12:37.000Z</time>
      </trkpt>
      <trkpt lat="43.27752267010509967803955078125" lon="-5.004079677164554595947265625">
        <ele>1022.5999755859375</ele>
        <time>2019-07-12T06:12:38.000Z</time>
      </trkpt>
      <trkpt lat="43.27746232040226459503173828125" lon="-5.00414866022765636444091796875">
        <ele>1023.79998779296875</ele>
        <time>2019-07-12T06:12:39.000Z</time>
      </trkpt>
      <trkpt lat="43.27742091380059719085693359375" lon="-5.004237592220306396484375">
        <ele>1024.800048828125</ele>
        <time>2019-07-12T06:12:40.000Z</time>
      </trkpt>
      <trkpt lat="43.27739375643432140350341796875" lon="-5.004338510334491729736328125">
        <ele>1026</ele>
        <time>2019-07-12T06:12:41.000Z</time>
      </trkpt>
      <trkpt lat="43.27737162820994853973388671875" lon="-5.00443900935351848602294921875">
        <ele>1027.199951171875</ele>
        <time>2019-07-12T06:12:42.000Z</time>
      </trkpt>
      <trkpt lat="43.27734530903398990631103515625" lon="-5.004532970488071441650390625">
        <ele>1028.4000244140625</ele>
        <time>2019-07-12T06:12:43.000Z</time>
      </trkpt>
      <trkpt lat="43.2772659324109554290771484375" lon="-5.0047198869287967681884765625">
        <ele>1030.199951171875</ele>
        <time>2019-07-12T06:12:45.000Z</time>
      </trkpt>
      <trkpt lat="43.27717498876154422760009765625" lon="-5.00491417944431304931640625">
        <ele>1031.4000244140625</ele>
        <time>2019-07-12T06:12:47.000Z</time>
      </trkpt>
      <trkpt lat="43.2770761661231517791748046875" lon="-5.0051245652139186859130859375">
        <ele>1032.800048828125</ele>
        <time>2019-07-12T06:12:49.000Z</time>
      </trkpt>
      <trkpt lat="43.27702512033283710479736328125" lon="-5.005227662622928619384765625">
        <ele>1034</ele>
        <time>2019-07-12T06:12:50.000Z</time>
      </trkpt>
      <trkpt lat="43.2769678719341754913330078125" lon="-5.0053257308900356292724609375">
        <ele>1035.199951171875</ele>
        <time>2019-07-12T06:12:51.000Z</time>
      </trkpt>
      <trkpt lat="43.27689972706139087677001953125" lon="-5.00540896318852901458740234375">
        <ele>1036.199951171875</ele>
        <time>2019-07-12T06:12:52.000Z</time>
      </trkpt>
      <trkpt lat="43.27683066017925739288330078125" lon="-5.0054685585200786590576171875">
        <ele>1037.199951171875</ele>
        <time>2019-07-12T06:12:53.000Z</time>
      </trkpt>
      <trkpt lat="43.2767610065639019012451171875" lon="-5.0054942071437835693359375">
        <ele>1038.199951171875</ele>
        <time>2019-07-12T06:12:54.000Z</time>
      </trkpt>
      <trkpt lat="43.27668665908277034759521484375" lon="-5.0054880045354366302490234375">
        <ele>1039.199951171875</ele>
        <time>2019-07-12T06:12:55.000Z</time>
      </trkpt>
      <trkpt lat="43.27660719864070415496826171875" lon="-5.0054647028446197509765625">
        <ele>1040.199951171875</ele>
        <time>2019-07-12T06:12:56.000Z</time>
      </trkpt>
      <trkpt lat="43.27643386088311672210693359375" lon="-5.0054001621901988983154296875">
        <ele>1041.800048828125</ele>
        <time>2019-07-12T06:12:58.000Z</time>
      </trkpt>
      <trkpt lat="43.27634870074689388275146484375" lon="-5.0053502060472965240478515625">
        <ele>1042.5999755859375</ele>
        <time>2019-07-12T06:12:59.000Z</time>
      </trkpt>
      <trkpt lat="43.2762730121612548828125" lon="-5.00527954660356044769287109375">
        <ele>1043.199951171875</ele>
        <time>2019-07-12T06:13:00.000Z</time>
      </trkpt>
      <trkpt lat="43.27621291391551494598388671875" lon="-5.00518281944096088409423828125">
        <ele>1043.800048828125</ele>
        <time>2019-07-12T06:13:01.000Z</time>
      </trkpt>
      <trkpt lat="43.27616731636226177215576171875" lon="-5.0050668977200984954833984375">
        <ele>1044.800048828125</ele>
        <time>2019-07-12T06:13:02.000Z</time>
      </trkpt>
      <trkpt lat="43.2761268317699432373046875" lon="-5.004945360124111175537109375">
        <ele>1046</ele>
        <time>2019-07-12T06:13:03.000Z</time>
      </trkpt>
      <trkpt lat="43.2760810665786266326904296875" lon="-5.0048268400132656097412109375">
        <ele>1047.199951171875</ele>
        <time>2019-07-12T06:13:04.000Z</time>
      </trkpt>
      <trkpt lat="43.2759586907923221588134765625" lon="-5.00461117364466190338134765625">
        <ele>1049.199951171875</ele>
        <time>2019-07-12T06:13:06.000Z</time>
      </trkpt>
      <trkpt lat="43.2758933119475841522216796875" lon="-5.0045044720172882080078125">
        <ele>1050.4000244140625</ele>
        <time>2019-07-12T06:13:07.000Z</time>
      </trkpt>
      <trkpt lat="43.275833465158939361572265625" lon="-5.00439492054283618927001953125">
        <ele>1051.5999755859375</ele>
        <time>2019-07-12T06:13:08.000Z</time>
      </trkpt>
      <trkpt lat="43.27573799528181552886962890625" lon="-5.00416056253015995025634765625">
        <ele>1053</ele>
        <time>2019-07-12T06:13:10.000Z</time>
      </trkpt>
      <trkpt lat="43.27566490508615970611572265625" lon="-5.00389670021831989288330078125">
        <ele>1054.5999755859375</ele>
        <time>2019-07-12T06:13:12.000Z</time>
      </trkpt>
      <trkpt lat="43.2756301201879978179931640625" lon="-5.003757141530513763427734375">
        <ele>1056</ele>
        <time>2019-07-12T06:13:13.000Z</time>
      </trkpt>
      <trkpt lat="43.27559349127113819122314453125" lon="-5.00361506827175617218017578125">
        <ele>1057.199951171875</ele>
        <time>2019-07-12T06:13:14.000Z</time>
      </trkpt>
      <trkpt lat="43.2755546830594539642333984375" lon="-5.00346821732819080352783203125">
        <ele>1058.5999755859375</ele>
        <time>2019-07-12T06:13:15.000Z</time>
      </trkpt>
      <trkpt lat="43.27548704110085964202880859375" lon="-5.00315439887344837188720703125">
        <ele>1061.5999755859375</ele>
        <time>2019-07-12T06:13:17.000Z</time>
      </trkpt>
      <trkpt lat="43.27546365559101104736328125" lon="-5.00299028120934963226318359375">
        <ele>1064</ele>
        <time>2019-07-12T06:13:18.000Z</time>
      </trkpt>
      <trkpt lat="43.27545292675495147705078125" lon="-5.00282264314591884613037109375">
        <ele>1067.199951171875</ele>
        <time>2019-07-12T06:13:19.000Z</time>
      </trkpt>
      <trkpt lat="43.2754621468484401702880859375" lon="-5.00265215523540973663330078125">
        <ele>1069.199951171875</ele>
        <time>2019-07-12T06:13:20.000Z</time>
      </trkpt>
      <trkpt lat="43.275490812957286834716796875" lon="-5.00248334370553493499755859375">
        <ele>1070</ele>
        <time>2019-07-12T06:13:21.000Z</time>
      </trkpt>
      <trkpt lat="43.275535069406032562255859375" lon="-5.00231905840337276458740234375">
        <ele>1070.4000244140625</ele>
        <time>2019-07-12T06:13:22.000Z</time>
      </trkpt>
      <trkpt lat="43.27567161060869693756103515625" lon="-5.0018502585589885711669921875">
        <ele>1070.199951171875</ele>
        <time>2019-07-12T06:13:25.000Z</time>
      </trkpt>
      <trkpt lat="43.2756954990327358245849609375" lon="-5.0015176646411418914794921875">
        <ele>1071</ele>
        <time>2019-07-12T06:13:27.000Z</time>
      </trkpt>
      <trkpt lat="43.2756783999502658843994140625" lon="-5.0013456679880619049072265625">
        <ele>1072.199951171875</ele>
        <time>2019-07-12T06:13:28.000Z</time>
      </trkpt>
      <trkpt lat="43.27565082348883152008056640625" lon="-5.00116889365017414093017578125">
        <ele>1073.5999755859375</ele>
        <time>2019-07-12T06:13:29.000Z</time>
      </trkpt>
      <trkpt lat="43.27561763115227222442626953125" lon="-5.00098650343716144561767578125">
        <ele>1074.800048828125</ele>
        <time>2019-07-12T06:13:30.000Z</time>
      </trkpt>
      <trkpt lat="43.27557974494993686676025390625" lon="-5.000797323882579803466796875">
        <ele>1075.800048828125</ele>
        <time>2019-07-12T06:13:31.000Z</time>
      </trkpt>
      <trkpt lat="43.2755164615809917449951171875" lon="-5.0003971718251705169677734375">
        <ele>1077.199951171875</ele>
        <time>2019-07-12T06:13:33.000Z</time>
      </trkpt>
      <trkpt lat="43.27554957009851932525634765625" lon="-4.99977330677211284637451171875">
        <ele>1078.4000244140625</ele>
        <time>2019-07-12T06:13:36.000Z</time>
      </trkpt>
      <trkpt lat="43.275608159601688385009765625" lon="-4.99922529794275760650634765625">
        <ele>1080.5999755859375</ele>
        <time>2019-07-12T06:13:39.000Z</time>
      </trkpt>
      <trkpt lat="43.2756106741726398468017578125" lon="-4.9990614317357540130615234375">
        <ele>1082</ele>
        <time>2019-07-12T06:13:40.000Z</time>
      </trkpt>
      <trkpt lat="43.27561511658132076263427734375" lon="-4.998888261616230010986328125">
        <ele>1083</ele>
        <time>2019-07-12T06:13:41.000Z</time>
      </trkpt>
      <trkpt lat="43.275619558990001678466796875" lon="-4.99852138571441173553466796875">
        <ele>1084.199951171875</ele>
        <time>2019-07-12T06:13:43.000Z</time>
      </trkpt>
      <trkpt lat="43.27563171274960041046142578125" lon="-4.99819130636751651763916015625">
        <ele>1085.4000244140625</ele>
        <time>2019-07-12T06:13:45.000Z</time>
      </trkpt>
      <trkpt lat="43.275653086602687835693359375" lon="-4.99804847873747348785400390625">
        <ele>1086.199951171875</ele>
        <time>2019-07-12T06:13:46.000Z</time>
      </trkpt>
      <trkpt lat="43.27569357119500637054443359375" lon="-4.99792836606502532958984375">
        <ele>1086.800048828125</ele>
        <time>2019-07-12T06:13:47.000Z</time>
      </trkpt>
      <trkpt lat="43.2757555134594440460205078125" lon="-4.997831471264362335205078125">
        <ele>1087.4000244140625</ele>
        <time>2019-07-12T06:13:48.000Z</time>
      </trkpt>
      <trkpt lat="43.27583874575793743133544921875" lon="-4.9977528490126132965087890625">
        <ele>1088.199951171875</ele>
        <time>2019-07-12T06:13:49.000Z</time>
      </trkpt>
      <trkpt lat="43.27602717094123363494873046875" lon="-4.99760423786938190460205078125">
        <ele>1089</ele>
        <time>2019-07-12T06:13:51.000Z</time>
      </trkpt>
      <trkpt lat="43.276106379926204681396484375" lon="-4.99750189483165740966796875">
        <ele>1089.4000244140625</ele>
        <time>2019-07-12T06:13:52.000Z</time>
      </trkpt>
      <trkpt lat="43.2761672325432300567626953125" lon="-4.99736845493316650390625">
        <ele>1089.800048828125</ele>
        <time>2019-07-12T06:13:53.000Z</time>
      </trkpt>
      <trkpt lat="43.27623344957828521728515625" lon="-4.99702043831348419189453125">
        <ele>1090.800048828125</ele>
        <time>2019-07-12T06:13:55.000Z</time>
      </trkpt>
      <trkpt lat="43.276294805109500885009765625" lon="-4.9964285083115100860595703125">
        <ele>1091.199951171875</ele>
        <time>2019-07-12T06:13:58.000Z</time>
      </trkpt>
      <trkpt lat="43.27625381760299205780029296875" lon="-4.99608577229082584381103515625">
        <ele>1091.4000244140625</ele>
        <time>2019-07-12T06:14:00.000Z</time>
      </trkpt>
      <trkpt lat="43.276066817343235015869140625" lon="-4.99562057666480541229248046875">
        <ele>1092</ele>
        <time>2019-07-12T06:14:03.000Z</time>
      </trkpt>
      <trkpt lat="43.27590948902070522308349609375" lon="-4.995343051850795745849609375">
        <ele>1092.5999755859375</ele>
        <time>2019-07-12T06:14:05.000Z</time>
      </trkpt>
      <trkpt lat="43.27582030557096004486083984375" lon="-4.99523635022342205047607421875">
        <ele>1093.199951171875</ele>
        <time>2019-07-12T06:14:06.000Z</time>
      </trkpt>
      <trkpt lat="43.27572190202772617340087890625" lon="-4.995151273906230926513671875">
        <ele>1093.5999755859375</ele>
        <time>2019-07-12T06:14:07.000Z</time>
      </trkpt>
      <trkpt lat="43.27549810521304607391357421875" lon="-4.99506016261875629425048828125">
        <ele>1094.199951171875</ele>
        <time>2019-07-12T06:14:09.000Z</time>
      </trkpt>
      <trkpt lat="43.275380171835422515869140625" lon="-4.99505630694329738616943359375">
        <ele>1094.4000244140625</ele>
        <time>2019-07-12T06:14:10.000Z</time>
      </trkpt>
      <trkpt lat="43.27514170669019222259521484375" lon="-4.995066784322261810302734375">
        <ele>1096.4000244140625</ele>
        <time>2019-07-12T06:14:12.000Z</time>
      </trkpt>
      <trkpt lat="43.27491824515163898468017578125" lon="-4.995077513158321380615234375">
        <ele>1097.5999755859375</ele>
        <time>2019-07-12T06:14:14.000Z</time>
      </trkpt>
      <trkpt lat="43.27481766231358051300048828125" lon="-4.99508849345147609710693359375">
        <ele>1098.199951171875</ele>
        <time>2019-07-12T06:14:15.000Z</time>
      </trkpt>
      <trkpt lat="43.2747248746454715728759765625" lon="-4.9951113760471343994140625">
        <ele>1099</ele>
        <time>2019-07-12T06:14:16.000Z</time>
      </trkpt>
      <trkpt lat="43.27464097179472446441650390625" lon="-4.995144568383693695068359375">
        <ele>1099.5999755859375</ele>
        <time>2019-07-12T06:14:17.000Z</time>
      </trkpt>
      <trkpt lat="43.27450878918170928955078125" lon="-4.9951918423175811767578125">
        <ele>1100</ele>
        <time>2019-07-12T06:14:19.000Z</time>
      </trkpt>
      <trkpt lat="43.2743802107870578765869140625" lon="-4.99502596445381641387939453125">
        <ele>1101</ele>
        <time>2019-07-12T06:14:24.000Z</time>
      </trkpt>
      <trkpt lat="43.274395801126956939697265625" lon="-4.99488900415599346160888671875">
        <ele>1101</ele>
        <time>2019-07-12T06:14:26.000Z</time>
      </trkpt>
      <trkpt lat="43.2744794525206089019775390625" lon="-4.994531683623790740966796875">
        <ele>1099</ele>
        <time>2019-07-12T06:14:31.000Z</time>
      </trkpt>
      <trkpt lat="43.27446713112294673919677734375" lon="-4.99428383074700832366943359375">
        <ele>1097.800048828125</ele>
        <time>2019-07-12T06:14:33.000Z</time>
      </trkpt>
      <trkpt lat="43.27443796209990978240966796875" lon="-4.99416044913232326507568359375">
        <ele>1096.5999755859375</ele>
        <time>2019-07-12T06:14:34.000Z</time>
      </trkpt>
      <trkpt lat="43.27440510503947734832763671875" lon="-4.99403891153633594512939453125">
        <ele>1095.199951171875</ele>
        <time>2019-07-12T06:14:35.000Z</time>
      </trkpt>
      <trkpt lat="43.27437140978872776031494140625" lon="-4.99391754157841205596923828125">
        <ele>1093.800048828125</ele>
        <time>2019-07-12T06:14:36.000Z</time>
      </trkpt>
      <trkpt lat="43.27434106729924678802490234375" lon="-4.99379516579210758209228515625">
        <ele>1092.5999755859375</ele>
        <time>2019-07-12T06:14:37.000Z</time>
      </trkpt>
      <trkpt lat="43.27431960962712764739990234375" lon="-4.99367061071097850799560546875">
        <ele>1091.5999755859375</ele>
        <time>2019-07-12T06:14:38.000Z</time>
      </trkpt>
      <trkpt lat="43.2743091322481632232666015625" lon="-4.9935422837734222412109375">
        <ele>1090.800048828125</ele>
        <time>2019-07-12T06:14:39.000Z</time>
      </trkpt>
      <trkpt lat="43.27429580502212047576904296875" lon="-4.99328336678445339202880859375">
        <ele>1088.800048828125</ele>
        <time>2019-07-12T06:14:41.000Z</time>
      </trkpt>
      <trkpt lat="43.27427786774933338165283203125" lon="-4.9931552074849605560302734375">
        <ele>1087.5999755859375</ele>
        <time>2019-07-12T06:14:42.000Z</time>
      </trkpt>
      <trkpt lat="43.2742484472692012786865234375" lon="-4.99303190968930721282958984375">
        <ele>1086.4000244140625</ele>
        <time>2019-07-12T06:14:43.000Z</time>
      </trkpt>
      <trkpt lat="43.274177871644496917724609375" lon="-4.992792606353759765625">
        <ele>1084.800048828125</ele>
        <time>2019-07-12T06:14:45.000Z</time>
      </trkpt>
      <trkpt lat="43.27410838566720485687255859375" lon="-4.99255548231303691864013671875">
        <ele>1083.4000244140625</ele>
        <time>2019-07-12T06:14:47.000Z</time>
      </trkpt>
      <trkpt lat="43.27404820360243320465087890625" lon="-4.99231643043458461761474609375">
        <ele>1081.5999755859375</ele>
        <time>2019-07-12T06:14:49.000Z</time>
      </trkpt>
      <trkpt lat="43.27398869208991527557373046875" lon="-4.99207553453743457794189453125">
        <ele>1080</ele>
        <time>2019-07-12T06:14:51.000Z</time>
      </trkpt>
      <trkpt lat="43.27393622137606143951416015625" lon="-4.99182558618485927581787109375">
        <ele>1078.5999755859375</ele>
        <time>2019-07-12T06:14:53.000Z</time>
      </trkpt>
      <trkpt lat="43.27389129437506198883056640625" lon="-4.9915613047778606414794921875">
        <ele>1076.800048828125</ele>
        <time>2019-07-12T06:14:55.000Z</time>
      </trkpt>
      <trkpt lat="43.2738742791116237640380859375" lon="-4.99142325483262538909912109375">
        <ele>1075.800048828125</ele>
        <time>2019-07-12T06:14:56.000Z</time>
      </trkpt>
      <trkpt lat="43.27386028133332729339599609375" lon="-4.99128160066902637481689453125">
        <ele>1074.5999755859375</ele>
        <time>2019-07-12T06:14:57.000Z</time>
      </trkpt>
      <trkpt lat="43.27384787611663341522216796875" lon="-4.991136007010936737060546875">
        <ele>1073.5999755859375</ele>
        <time>2019-07-12T06:14:58.000Z</time>
      </trkpt>
      <trkpt lat="43.27383345924317836761474609375" lon="-4.99098689295351505279541015625">
        <ele>1072.5999755859375</ele>
        <time>2019-07-12T06:14:59.000Z</time>
      </trkpt>
      <trkpt lat="43.273818455636501312255859375" lon="-4.9908347614109516143798828125">
        <ele>1071.4000244140625</ele>
        <time>2019-07-12T06:15:00.000Z</time>
      </trkpt>
      <trkpt lat="43.27380579896271228790283203125" lon="-4.9906808696687221527099609375">
        <ele>1070.4000244140625</ele>
        <time>2019-07-12T06:15:01.000Z</time>
      </trkpt>
      <trkpt lat="43.27379406429827213287353515625" lon="-4.99052588827908039093017578125">
        <ele>1069.199951171875</ele>
        <time>2019-07-12T06:15:02.000Z</time>
      </trkpt>
      <trkpt lat="43.273782245814800262451171875" lon="-4.990371577441692352294921875">
        <ele>1068.199951171875</ele>
        <time>2019-07-12T06:15:03.000Z</time>
      </trkpt>
      <trkpt lat="43.2737726904451847076416015625" lon="-4.9902181886136531829833984375">
        <ele>1067.199951171875</ele>
        <time>2019-07-12T06:15:04.000Z</time>
      </trkpt>
      <trkpt lat="43.27376439236104488372802734375" lon="-4.9899213016033172607421875">
        <ele>1065.199951171875</ele>
        <time>2019-07-12T06:15:06.000Z</time>
      </trkpt>
      <trkpt lat="43.273775540292263031005859375" lon="-4.9896458722651004791259765625">
        <ele>1063.800048828125</ele>
        <time>2019-07-12T06:15:08.000Z</time>
      </trkpt>
      <trkpt lat="43.27382239513099193572998046875" lon="-4.9893997795879840850830078125">
        <ele>1063</ele>
        <time>2019-07-12T06:15:10.000Z</time>
      </trkpt>
      <trkpt lat="43.2738850079476833343505859375" lon="-4.98917900025844573974609375">
        <ele>1062.5999755859375</ele>
        <time>2019-07-12T06:15:12.000Z</time>
      </trkpt>
      <trkpt lat="43.2739114947617053985595703125" lon="-4.9890775792300701141357421875">
        <ele>1062.4000244140625</ele>
        <time>2019-07-12T06:15:13.000Z</time>
      </trkpt>
      <trkpt lat="43.2739433459937572479248046875" lon="-4.9888908304274082183837890625">
        <ele>1062.199951171875</ele>
        <time>2019-07-12T06:15:15.000Z</time>
      </trkpt>
      <trkpt lat="43.27393705956637859344482421875" lon="-4.9887349270284175872802734375">
        <ele>1062</ele>
        <time>2019-07-12T06:15:17.000Z</time>
      </trkpt>
      <trkpt lat="43.2737691700458526611328125" lon="-4.98832396231591701507568359375">
        <ele>1062.5999755859375</ele>
        <time>2019-07-12T06:15:32.000Z</time>
      </trkpt>
      <trkpt lat="43.27369499020278453826904296875" lon="-4.98822656460106372833251953125">
        <ele>1062.4000244140625</ele>
        <time>2019-07-12T06:15:35.000Z</time>
      </trkpt>
      <trkpt lat="43.27324488200247287750244140625" lon="-4.98798072338104248046875">
        <ele>1063.800048828125</ele>
        <time>2019-07-12T06:15:44.000Z</time>
      </trkpt>
      <trkpt lat="43.2731370069086551666259765625" lon="-4.98794577084481716156005859375">
        <ele>1065</ele>
        <time>2019-07-12T06:15:46.000Z</time>
      </trkpt>
      <trkpt lat="43.272975571453571319580078125" lon="-4.98790687881410121917724609375">
        <ele>1066.4000244140625</ele>
        <time>2019-07-12T06:15:49.000Z</time>
      </trkpt>
      <trkpt lat="43.27285847626626491546630859375" lon="-4.98788977973163127899169921875">
        <ele>1067.5999755859375</ele>
        <time>2019-07-12T06:15:51.000Z</time>
      </trkpt>
      <trkpt lat="43.27272939495742321014404296875" lon="-4.98786580748856067657470703125">
        <ele>1068.800048828125</ele>
        <time>2019-07-12T06:15:53.000Z</time>
      </trkpt>
      <trkpt lat="43.272587992250919342041015625" lon="-4.98783663846552371978759765625">
        <ele>1070</ele>
        <time>2019-07-12T06:15:55.000Z</time>
      </trkpt>
      <trkpt lat="43.27245849184691905975341796875" lon="-4.98780026100575923919677734375">
        <ele>1071.199951171875</ele>
        <time>2019-07-12T06:15:57.000Z</time>
      </trkpt>
      <trkpt lat="43.27232941053807735443115234375" lon="-4.98774594627320766448974609375">
        <ele>1072.4000244140625</ele>
        <time>2019-07-12T06:16:00.000Z</time>
      </trkpt>
      <trkpt lat="43.27230225317180156707763671875" lon="-4.9877301044762134552001953125">
        <ele>1073.4000244140625</ele>
        <time>2019-07-12T06:16:02.000Z</time>
      </trkpt>
      <trkpt lat="43.2723048515617847442626953125" lon="-4.98772985301911830902099609375">
        <ele>1074.800048828125</ele>
        <time>2019-07-12T06:16:04.000Z</time>
      </trkpt>
      <trkpt lat="43.27230594120919704437255859375" lon="-4.98773236759006977081298828125">
        <ele>1075.800048828125</ele>
        <time>2019-07-12T06:16:09.000Z</time>
      </trkpt>
      <trkpt lat="43.272209465503692626953125" lon="-4.98766028322279453277587890625">
        <ele>1075.800048828125</ele>
        <time>2019-07-12T06:16:21.000Z</time>
      </trkpt>
      <trkpt lat="43.271984159946441650390625" lon="-4.98744721524417400360107421875">
        <ele>1077</ele>
        <time>2019-07-12T06:16:28.000Z</time>
      </trkpt>
      <trkpt lat="43.27198659069836139678955078125" lon="-4.9874491430819034576416015625">
        <ele>1078.199951171875</ele>
        <time>2019-07-12T06:16:30.000Z</time>
      </trkpt>
      <trkpt lat="43.27198809944093227386474609375" lon="-4.9874494783580303192138671875">
        <ele>1079.199951171875</ele>
        <time>2019-07-12T06:16:34.000Z</time>
      </trkpt>
      <trkpt lat="43.2719544880092144012451171875" lon="-4.98736322857439517974853515625">
        <ele>1079.4000244140625</ele>
        <time>2019-07-12T06:16:58.000Z</time>
      </trkpt>
      <trkpt lat="43.2719814777374267578125" lon="-4.98684086836874485015869140625">
        <ele>1078.800048828125</ele>
        <time>2019-07-12T06:17:03.000Z</time>
      </trkpt>
      <trkpt lat="43.2720577530562877655029296875" lon="-4.986621849238872528076171875">
        <ele>1079</ele>
        <time>2019-07-12T06:17:05.000Z</time>
      </trkpt>
      <trkpt lat="43.2721973955631256103515625" lon="-4.9864449910819530487060546875">
        <ele>1080.199951171875</ele>
        <time>2019-07-12T06:17:07.000Z</time>
      </trkpt>
      <trkpt lat="43.27228381298482418060302734375" lon="-4.9863631837069988250732421875">
        <ele>1081.4000244140625</ele>
        <time>2019-07-12T06:17:08.000Z</time>
      </trkpt>
      <trkpt lat="43.27237718738615512847900390625" lon="-4.98627760447561740875244140625">
        <ele>1082.5999755859375</ele>
        <time>2019-07-12T06:17:09.000Z</time>
      </trkpt>
      <trkpt lat="43.27247475273907184600830078125" lon="-4.986186660826206207275390625">
        <ele>1083.5999755859375</ele>
        <time>2019-07-12T06:17:10.000Z</time>
      </trkpt>
      <trkpt lat="43.27257583849132061004638671875" lon="-4.98609353788197040557861328125">
        <ele>1084.800048828125</ele>
        <time>2019-07-12T06:17:11.000Z</time>
      </trkpt>
      <trkpt lat="43.27279728837311267852783203125" lon="-4.98592422343790531158447265625">
        <ele>1086</ele>
        <time>2019-07-12T06:17:13.000Z</time>
      </trkpt>
      <trkpt lat="43.273037262260913848876953125" lon="-4.98582682572305202484130859375">
        <ele>1086.5999755859375</ele>
        <time>2019-07-12T06:17:15.000Z</time>
      </trkpt>
      <trkpt lat="43.27325544320046901702880859375" lon="-4.9857445992529392242431640625">
        <ele>1086.800048828125</ele>
        <time>2019-07-12T06:17:17.000Z</time>
      </trkpt>
      <trkpt lat="43.2734464667737483978271484375" lon="-4.98559850268065929412841796875">
        <ele>1087.199951171875</ele>
        <time>2019-07-12T06:17:19.000Z</time>
      </trkpt>
      <trkpt lat="43.2736285217106342315673828125" lon="-4.985429607331752777099609375">
        <ele>1089</ele>
        <time>2019-07-12T06:17:21.000Z</time>
      </trkpt>
      <trkpt lat="43.27372097410261631011962890625" lon="-4.98534679412841796875">
        <ele>1090</ele>
        <time>2019-07-12T06:17:22.000Z</time>
      </trkpt>
      <trkpt lat="43.27390956692397594451904296875" lon="-4.98519047163426876068115234375">
        <ele>1091.4000244140625</ele>
        <time>2019-07-12T06:17:24.000Z</time>
      </trkpt>
      <trkpt lat="43.2740992493927478790283203125" lon="-4.9850512482225894927978515625">
        <ele>1092.5999755859375</ele>
        <time>2019-07-12T06:17:26.000Z</time>
      </trkpt>
      <trkpt lat="43.27427543699741363525390625" lon="-4.98489417135715484619140625">
        <ele>1093.800048828125</ele>
        <time>2019-07-12T06:17:28.000Z</time>
      </trkpt>
      <trkpt lat="43.2744123972952365875244140625" lon="-4.9846938438713550567626953125">
        <ele>1094.5999755859375</ele>
        <time>2019-07-12T06:17:30.000Z</time>
      </trkpt>
      <trkpt lat="43.27445656992495059967041015625" lon="-4.984587393701076507568359375">
        <ele>1095.199951171875</ele>
        <time>2019-07-12T06:17:31.000Z</time>
      </trkpt>
      <trkpt lat="43.27449898235499858856201171875" lon="-4.98448823578655719757080078125">
        <ele>1095.800048828125</ele>
        <time>2019-07-12T06:17:32.000Z</time>
      </trkpt>
      <trkpt lat="43.274549357593059539794921875" lon="-4.98440659604966640472412109375">
        <ele>1096.4000244140625</ele>
        <time>2019-07-12T06:17:33.000Z</time>
      </trkpt>
      <trkpt lat="43.27461247332394123077392578125" lon="-4.98434272594749927520751953125">
        <ele>1096.800048828125</ele>
        <time>2019-07-12T06:17:34.000Z</time>
      </trkpt>
      <trkpt lat="43.27477290295064449310302734375" lon="-4.98424817807972431182861328125">
        <ele>1097.800048828125</ele>
        <time>2019-07-12T06:17:36.000Z</time>
      </trkpt>
      <trkpt lat="43.27495629899203777313232421875" lon="-4.9841503612697124481201171875">
        <ele>1099.5999755859375</ele>
        <time>2019-07-12T06:17:38.000Z</time>
      </trkpt>
      <trkpt lat="43.27514053322374820709228515625" lon="-4.9840377084910869598388671875">
        <ele>1100.800048828125</ele>
        <time>2019-07-12T06:17:40.000Z</time>
      </trkpt>
      <trkpt lat="43.27543440274894237518310546875" lon="-4.983832351863384246826171875">
        <ele>1101.5999755859375</ele>
        <time>2019-07-12T06:17:44.000Z</time>
      </trkpt>
      <trkpt lat="43.27548134140670299530029296875" lon="-4.98377761803567409515380859375">
        <ele>1101.800048828125</ele>
        <time>2019-07-12T06:17:45.000Z</time>
      </trkpt>
      <trkpt lat="43.2755152881145477294921875" lon="-4.9837151728570461273193359375">
        <ele>1102</ele>
        <time>2019-07-12T06:17:46.000Z</time>
      </trkpt>
      <trkpt lat="43.27553314156830310821533203125" lon="-4.9835877679288387298583984375">
        <ele>1103</ele>
        <time>2019-07-12T06:17:48.000Z</time>
      </trkpt>
      <trkpt lat="43.27548419125378131866455078125" lon="-4.9834781326353549957275390625">
        <ele>1104</ele>
        <time>2019-07-12T06:17:50.000Z</time>
      </trkpt>
      <trkpt lat="43.2754413597285747528076171875" lon="-4.98343178071081638336181640625">
        <ele>1104.4000244140625</ele>
        <time>2019-07-12T06:17:51.000Z</time>
      </trkpt>
      <trkpt lat="43.275391571223735809326171875" lon="-4.98338668607175350189208984375">
        <ele>1104.5999755859375</ele>
        <time>2019-07-12T06:17:52.000Z</time>
      </trkpt>
      <trkpt lat="43.27520482242107391357421875" lon="-4.98326447792351245880126953125">
        <ele>1105.4000244140625</ele>
        <time>2019-07-12T06:17:55.000Z</time>
      </trkpt>
      <trkpt lat="43.27499116770923137664794921875" lon="-4.98313589952886104583740234375">
        <ele>1105.800048828125</ele>
        <time>2019-07-12T06:17:58.000Z</time>
      </trkpt>
      <trkpt lat="43.27470869757235050201416015625" lon="-4.982871115207672119140625">
        <ele>1106.199951171875</ele>
        <time>2019-07-12T06:18:02.000Z</time>
      </trkpt>
      <trkpt lat="43.27453485690057277679443359375" lon="-4.98275737278163433074951171875">
        <ele>1106.4000244140625</ele>
        <time>2019-07-12T06:18:04.000Z</time>
      </trkpt>
      <trkpt lat="43.27416974119842052459716796875" lon="-4.98247322626411914825439453125">
        <ele>1107</ele>
        <time>2019-07-12T06:18:08.000Z</time>
      </trkpt>
      <trkpt lat="43.27403630129992961883544921875" lon="-4.9822448194026947021484375">
        <ele>1107</ele>
        <time>2019-07-12T06:18:10.000Z</time>
      </trkpt>
      <trkpt lat="43.27387444674968719482421875" lon="-4.98178280889987945556640625">
        <ele>1107.4000244140625</ele>
        <time>2019-07-12T06:18:14.000Z</time>
      </trkpt>
      <trkpt lat="43.27381971292197704315185546875" lon="-4.9817162565886974334716796875">
        <ele>1108</ele>
        <time>2019-07-12T06:18:15.000Z</time>
      </trkpt>
      <trkpt lat="43.27375332824885845184326171875" lon="-4.9816699884831905364990234375">
        <ele>1108.5999755859375</ele>
        <time>2019-07-12T06:18:16.000Z</time>
      </trkpt>
      <trkpt lat="43.27367889694869518280029296875" lon="-4.9816502071917057037353515625">
        <ele>1109.4000244140625</ele>
        <time>2019-07-12T06:18:17.000Z</time>
      </trkpt>
      <trkpt lat="43.2736028730869293212890625" lon="-4.9816612713038921356201171875">
        <ele>1109.800048828125</ele>
        <time>2019-07-12T06:18:18.000Z</time>
      </trkpt>
      <trkpt lat="43.27346063219010829925537109375" lon="-4.9817638657987117767333984375">
        <ele>1110.4000244140625</ele>
        <time>2019-07-12T06:18:20.000Z</time>
      </trkpt>
      <trkpt lat="43.273065090179443359375" lon="-4.9821370281279087066650390625">
        <ele>1110.4000244140625</ele>
        <time>2019-07-12T06:18:25.000Z</time>
      </trkpt>
      <trkpt lat="43.2726267166435718536376953125" lon="-4.98248311690986156463623046875">
        <ele>1109.5999755859375</ele>
        <time>2019-07-12T06:18:30.000Z</time>
      </trkpt>
      <trkpt lat="43.27254348434507846832275390625" lon="-4.98252754099667072296142578125">
        <ele>1109</ele>
        <time>2019-07-12T06:18:31.000Z</time>
      </trkpt>
      <trkpt lat="43.27207510359585285186767578125" lon="-4.98270951211452484130859375">
        <ele>1110</ele>
        <time>2019-07-12T06:18:39.000Z</time>
      </trkpt>
      <trkpt lat="43.2720423303544521331787109375" lon="-4.98271160759031772613525390625">
        <ele>1110.5999755859375</ele>
        <time>2019-07-12T06:18:40.000Z</time>
      </trkpt>
      <trkpt lat="43.27195574529469013214111328125" lon="-4.9826801754534244537353515625">
        <ele>1111.5999755859375</ele>
        <time>2019-07-12T06:18:43.000Z</time>
      </trkpt>
      <trkpt lat="43.2718756981194019317626953125" lon="-4.982682354748249053955078125">
        <ele>1112</ele>
        <time>2019-07-12T06:18:46.000Z</time>
      </trkpt>
      <trkpt lat="43.2718498818576335906982421875" lon="-4.982640109956264495849609375">
        <ele>1112.199951171875</ele>
        <time>2019-07-12T06:18:48.000Z</time>
      </trkpt>
      <trkpt lat="43.27186622656881809234619140625" lon="-4.9825366772711277008056640625">
        <ele>1112.4000244140625</ele>
        <time>2019-07-12T06:18:52.000Z</time>
      </trkpt>
      <trkpt lat="43.2719652168452739715576171875" lon="-4.9825313128530979156494140625">
        <ele>1112</ele>
        <time>2019-07-12T06:19:18.000Z</time>
      </trkpt>
      <trkpt lat="43.2719471119344234466552734375" lon="-4.982512034475803375244140625">
        <ele>1112</ele>
        <time>2019-07-12T06:19:38.000Z</time>
      </trkpt>
      <trkpt lat="43.2719621993601322174072265625" lon="-4.9825470708310604095458984375">
        <ele>1112</ele>
        <time>2019-07-12T06:19:58.000Z</time>
      </trkpt>
      <trkpt lat="43.27195423655211925506591796875" lon="-4.982533156871795654296875">
        <ele>1111.5999755859375</ele>
        <time>2019-07-12T06:20:33.000Z</time>
      </trkpt>
      <trkpt lat="43.27198239974677562713623046875" lon="-4.98254480771720409393310546875">
        <ele>1111.199951171875</ele>
        <time>2019-07-12T06:21:17.000Z</time>
      </trkpt>
      <trkpt lat="43.27197351492941379547119140625" lon="-4.98252418823540210723876953125">
        <ele>1111.199951171875</ele>
        <time>2019-07-12T06:21:51.000Z</time>
      </trkpt>
      <trkpt lat="43.2719533145427703857421875" lon="-4.98254765756428241729736328125">
        <ele>1111.199951171875</ele>
        <time>2019-07-12T06:22:13.000Z</time>
      </trkpt>
      <trkpt lat="43.271824233233928680419921875" lon="-4.98243064619600772857666015625">
        <ele>1111.199951171875</ele>
        <time>2019-07-12T06:23:28.000Z</time>
      </trkpt>
      <trkpt lat="43.271750472486019134521484375" lon="-4.9824096076190471649169921875">
        <ele>1110.5999755859375</ele>
        <time>2019-07-12T06:23:39.000Z</time>
      </trkpt>
      <trkpt lat="43.2716341316699981689453125" lon="-4.98230206780135631561279296875">
        <ele>1109.5999755859375</ele>
        <time>2019-07-12T06:24:54.000Z</time>
      </trkpt>
      <trkpt lat="43.271610327064990997314453125" lon="-4.98227390460669994354248046875">
        <ele>1109.4000244140625</ele>
        <time>2019-07-12T06:24:57.000Z</time>
      </trkpt>
      <trkpt lat="43.27159850858151912689208984375" lon="-4.98226250521838665008544921875">
        <ele>1109.4000244140625</ele>
        <time>2019-07-12T06:24:59.000Z</time>
      </trkpt>
      <trkpt lat="43.271503038704395294189453125" lon="-4.98216460458934307098388671875">
        <ele>1108.5999755859375</ele>
        <time>2019-07-12T06:25:35.000Z</time>
      </trkpt>
      <trkpt lat="43.27149222604930400848388671875" lon="-4.98215965926647186279296875">
        <ele>1108.5999755859375</ele>
        <time>2019-07-12T06:25:36.000Z</time>
      </trkpt>
      <trkpt lat="43.27125233598053455352783203125" lon="-4.98189453966915607452392578125">
        <ele>1107.4000244140625</ele>
        <time>2019-07-12T06:26:05.000Z</time>
      </trkpt>
      <trkpt lat="43.2712262682616710662841796875" lon="-4.98185179196298122406005859375">
        <ele>1107.199951171875</ele>
        <time>2019-07-12T06:26:09.000Z</time>
      </trkpt>
      <trkpt lat="43.2711525075137615203857421875" lon="-4.981798566877841949462890625">
        <ele>1106.199951171875</ele>
        <time>2019-07-12T06:26:17.000Z</time>
      </trkpt>
      <trkpt lat="43.2711082510650157928466796875" lon="-4.98176277615129947662353515625">
        <ele>1105.800048828125</ele>
        <time>2019-07-12T06:26:21.000Z</time>
      </trkpt>
      <trkpt lat="43.27108151279389858245849609375" lon="-4.98174852691590785980224609375">
        <ele>1105.5999755859375</ele>
        <time>2019-07-12T06:26:25.000Z</time>
      </trkpt>
      <trkpt lat="43.271054439246654510498046875" lon="-4.981728494167327880859375">
        <ele>1105.4000244140625</ele>
        <time>2019-07-12T06:26:29.000Z</time>
      </trkpt>
      <trkpt lat="43.27103524468839168548583984375" lon="-4.9817031808197498321533203125">
        <ele>1105.4000244140625</ele>
        <time>2019-07-12T06:26:31.000Z</time>
      </trkpt>
      <trkpt lat="43.2710046507418155670166015625" lon="-4.98168583028018474578857421875">
        <ele>1105.199951171875</ele>
        <time>2019-07-12T06:26:34.000Z</time>
      </trkpt>
      <trkpt lat="43.27099467627704143524169921875" lon="-4.9816810525953769683837890625">
        <ele>1105.199951171875</ele>
        <time>2019-07-12T06:26:35.000Z</time>
      </trkpt>
      <trkpt lat="43.27091689221560955047607421875" lon="-4.9816317670047283172607421875">
        <ele>1104.5999755859375</ele>
        <time>2019-07-12T06:26:44.000Z</time>
      </trkpt>
      <trkpt lat="43.27089208178222179412841796875" lon="-4.9816064536571502685546875">
        <ele>1104.199951171875</ele>
        <time>2019-07-12T06:26:47.000Z</time>
      </trkpt>
      <trkpt lat="43.270886130630970001220703125" lon="-4.98158440925180912017822265625">
        <ele>1104.199951171875</ele>
        <time>2019-07-12T06:26:49.000Z</time>
      </trkpt>
      <trkpt lat="43.27072259970009326934814453125" lon="-4.98155540786683559417724609375">
        <ele>1103.199951171875</ele>
        <time>2019-07-12T06:27:04.000Z</time>
      </trkpt>
      <trkpt lat="43.270616568624973297119140625" lon="-4.98155641369521617889404296875">
        <ele>1102.199951171875</ele>
        <time>2019-07-12T06:27:25.000Z</time>
      </trkpt>
      <trkpt lat="43.27059150673449039459228515625" lon="-4.9815796315670013427734375">
        <ele>1102.5999755859375</ele>
        <time>2019-07-12T06:29:28.000Z</time>
      </trkpt>
      <trkpt lat="43.2705989666283130645751953125" lon="-4.98157024383544921875">
        <ele>1102.5999755859375</ele>
        <time>2019-07-12T06:30:07.000Z</time>
      </trkpt>
      <trkpt lat="43.27055630274116992950439453125" lon="-4.98158021830022335052490234375">
        <ele>1102</ele>
        <time>2019-07-12T06:30:10.000Z</time>
      </trkpt>
      <trkpt lat="43.27052629552781581878662109375" lon="-4.9815854988992214202880859375">
        <ele>1101.4000244140625</ele>
        <time>2019-07-12T06:30:13.000Z</time>
      </trkpt>
      <trkpt lat="43.2704967074096202850341796875" lon="-4.9815801344811916351318359375">
        <ele>1101.199951171875</ele>
        <time>2019-07-12T06:30:16.000Z</time>
      </trkpt>
      <trkpt lat="43.27048773877322673797607421875" lon="-4.98157870955765247344970703125">
        <ele>1101.199951171875</ele>
        <time>2019-07-12T06:30:17.000Z</time>
      </trkpt>
      <trkpt lat="43.270458988845348358154296875" lon="-4.9815938808023929595947265625">
        <ele>1101.199951171875</ele>
        <time>2019-07-12T06:30:20.000Z</time>
      </trkpt>
      <trkpt lat="43.27041079290211200714111328125" lon="-4.98159916140139102935791015625">
        <ele>1100.800048828125</ele>
        <time>2019-07-12T06:30:25.000Z</time>
      </trkpt>
      <trkpt lat="43.270383886992931365966796875" lon="-4.98161743395030498504638671875">
        <ele>1100.5999755859375</ele>
        <time>2019-07-12T06:30:27.000Z</time>
      </trkpt>
      <trkpt lat="43.27035580761730670928955078125" lon="-4.98165138065814971923828125">
        <ele>1100</ele>
        <time>2019-07-12T06:30:34.000Z</time>
      </trkpt>
      <trkpt lat="43.27035480178892612457275390625" lon="-4.98162732459604740142822265625">
        <ele>1100.199951171875</ele>
        <time>2019-07-12T06:30:55.000Z</time>
      </trkpt>
      <trkpt lat="43.2704024948179721832275390625" lon="-4.9816461838781833648681640625">
        <ele>1100.199951171875</ele>
        <time>2019-07-12T06:33:01.000Z</time>
      </trkpt>
      <trkpt lat="43.27050651423633098602294921875" lon="-4.98160452581942081451416015625">
        <ele>1100.199951171875</ele>
        <time>2019-07-12T06:34:05.000Z</time>
      </trkpt>
      <trkpt lat="43.27064397744834423065185546875" lon="-4.981667809188365936279296875">
        <ele>1101.199951171875</ele>
        <time>2019-07-12T06:34:18.000Z</time>
      </trkpt>
      <trkpt lat="43.27066241763532161712646484375" lon="-4.9816882610321044921875">
        <ele>1101.4000244140625</ele>
        <time>2019-07-12T06:34:20.000Z</time>
      </trkpt>
      <trkpt lat="43.27070130966603755950927734375" lon="-4.98171030543744564056396484375">
        <ele>1101.5999755859375</ele>
        <time>2019-07-12T06:34:24.000Z</time>
      </trkpt>
      <trkpt lat="43.27072477899491786956787109375" lon="-4.98172069899737834930419921875">
        <ele>1101.5999755859375</ele>
        <time>2019-07-12T06:34:26.000Z</time>
      </trkpt>
      <trkpt lat="43.270769454538822174072265625" lon="-4.98174483887851238250732421875">
        <ele>1101.800048828125</ele>
        <time>2019-07-12T06:34:30.000Z</time>
      </trkpt>
      <trkpt lat="43.27079267241060733795166015625" lon="-4.9817662127315998077392578125">
        <ele>1102.199951171875</ele>
        <time>2019-07-12T06:34:34.000Z</time>
      </trkpt>
      <trkpt lat="43.27080893330276012420654296875" lon="-4.98175925575196743011474609375">
        <ele>1102.199951171875</ele>
        <time>2019-07-12T06:34:36.000Z</time>
      </trkpt>
      <trkpt lat="43.27090683393180370330810546875" lon="-4.9817983992397785186767578125">
        <ele>1103.199951171875</ele>
        <time>2019-07-12T06:34:46.000Z</time>
      </trkpt>
      <trkpt lat="43.271019570529460906982421875" lon="-4.9818540550768375396728515625">
        <ele>1103.800048828125</ele>
        <time>2019-07-12T06:34:59.000Z</time>
      </trkpt>
      <trkpt lat="43.27105334959924221038818359375" lon="-4.9818805418908596038818359375">
        <ele>1104.199951171875</ele>
        <time>2019-07-12T06:35:02.000Z</time>
      </trkpt>
      <trkpt lat="43.27106743119657039642333984375" lon="-4.9818979762494564056396484375">
        <ele>1104.4000244140625</ele>
        <time>2019-07-12T06:35:04.000Z</time>
      </trkpt>
      <trkpt lat="43.271116800606250762939453125" lon="-4.98195421881973743438720703125">
        <ele>1105.199951171875</ele>
        <time>2019-07-12T06:35:09.000Z</time>
      </trkpt>
      <trkpt lat="43.27134939841926097869873046875" lon="-4.98203820548951625823974609375">
        <ele>1106.199951171875</ele>
        <time>2019-07-12T06:35:31.000Z</time>
      </trkpt>
      <trkpt lat="43.2715823315083980560302734375" lon="-4.9821752496063709259033203125">
        <ele>1107.199951171875</ele>
        <time>2019-07-12T06:35:52.000Z</time>
      </trkpt>
      <trkpt lat="43.27158912084996700286865234375" lon="-4.98220768757164478302001953125">
        <ele>1107.4000244140625</ele>
        <time>2019-07-12T06:35:56.000Z</time>
      </trkpt>
      <trkpt lat="43.271605968475341796875" lon="-4.98221757821738719940185546875">
        <ele>1107.4000244140625</ele>
        <time>2019-07-12T06:35:58.000Z</time>
      </trkpt>
      <trkpt lat="43.271661959588527679443359375" lon="-4.98225831426680088043212890625">
        <ele>1107.800048828125</ele>
        <time>2019-07-12T06:36:04.000Z</time>
      </trkpt>
      <trkpt lat="43.27169339172542095184326171875" lon="-4.98227843083441257476806640625">
        <ele>1108.199951171875</ele>
        <time>2019-07-12T06:36:09.000Z</time>
      </trkpt>
      <trkpt lat="43.27168283052742481231689453125" lon="-4.98230625875294208526611328125">
        <ele>1108.4000244140625</ele>
        <time>2019-07-12T06:36:14.000Z</time>
      </trkpt>
      <trkpt lat="43.27167461626231670379638671875" lon="-4.982341714203357696533203125">
        <ele>1108.5999755859375</ele>
        <time>2019-07-12T06:36:17.000Z</time>
      </trkpt>
      <trkpt lat="43.27169842086732387542724609375" lon="-4.98240365646779537200927734375">
        <ele>1108.5999755859375</ele>
        <time>2019-07-12T06:36:23.000Z</time>
      </trkpt>
      <trkpt lat="43.2717221416532993316650390625" lon="-4.982426203787326812744140625">
        <ele>1108.5999755859375</ele>
        <time>2019-07-12T06:36:26.000Z</time>
      </trkpt>
      <trkpt lat="43.27174938283860683441162109375" lon="-4.9824588932096958160400390625">
        <ele>1108.800048828125</ele>
        <time>2019-07-12T06:36:29.000Z</time>
      </trkpt>
      <trkpt lat="43.27175625599920749664306640625" lon="-4.98255302198231220245361328125">
        <ele>1109.199951171875</ele>
        <time>2019-07-12T06:36:36.000Z</time>
      </trkpt>
      <trkpt lat="43.2717539928853511810302734375" lon="-4.982578419148921966552734375">
        <ele>1109.199951171875</ele>
        <time>2019-07-12T06:36:38.000Z</time>
      </trkpt>
      <trkpt lat="43.27177218161523342132568359375" lon="-4.98267455957829952239990234375">
        <ele>1109.5999755859375</ele>
        <time>2019-07-12T06:36:45.000Z</time>
      </trkpt>
      <trkpt lat="43.27178609557449817657470703125" lon="-4.98268847353756427764892578125">
        <ele>1109.5999755859375</ele>
        <time>2019-07-12T06:36:48.000Z</time>
      </trkpt>
      <trkpt lat="43.27187762595713138580322265625" lon="-4.98264379799365997314453125">
        <ele>1110.199951171875</ele>
        <time>2019-07-12T06:36:59.000Z</time>
      </trkpt>
      <trkpt lat="43.27188785187900066375732421875" lon="-4.9826131202280521392822265625">
        <ele>1110.199951171875</ele>
        <time>2019-07-12T06:37:01.000Z</time>
      </trkpt>
      <trkpt lat="43.27196295373141765594482421875" lon="-4.98253114521503448486328125">
        <ele>1109.800048828125</ele>
        <time>2019-07-12T06:55:05.000Z</time>
      </trkpt>
      <trkpt lat="43.27196446247398853302001953125" lon="-4.9825306423008441925048828125">
        <ele>1111.5999755859375</ele>
        <time>2019-07-12T06:55:06.000Z</time>
      </trkpt>
      <trkpt lat="43.272001929581165313720703125" lon="-4.98253290541470050811767578125">
        <ele>1111</ele>
        <time>2019-07-12T06:56:20.000Z</time>
      </trkpt>
      <trkpt lat="43.27203839085996150970458984375" lon="-4.982553608715534210205078125">
        <ele>1110.800048828125</ele>
        <time>2019-07-12T06:56:23.000Z</time>
      </trkpt>
      <trkpt lat="43.272073008120059967041015625" lon="-4.98266114853322505950927734375">
        <ele>1110.5999755859375</ele>
        <time>2019-07-12T06:56:35.000Z</time>
      </trkpt>
      <trkpt lat="43.2720822282135486602783203125" lon="-4.98266349546611309051513671875">
        <ele>1110.5999755859375</ele>
        <time>2019-07-12T06:56:36.000Z</time>
      </trkpt>
      <trkpt lat="43.2721650414168834686279296875" lon="-4.982665590941905975341796875">
        <ele>1111</ele>
        <time>2019-07-12T06:56:50.000Z</time>
      </trkpt>
      <trkpt lat="43.2726488448679447174072265625" lon="-4.9824780039489269256591796875">
        <ele>1110.4000244140625</ele>
        <time>2019-07-12T06:57:01.000Z</time>
      </trkpt>
      <trkpt lat="43.273046314716339111328125" lon="-4.98217801563441753387451171875">
        <ele>1110</ele>
        <time>2019-07-12T06:57:08.000Z</time>
      </trkpt>
      <trkpt lat="43.2734588719904422760009765625" lon="-4.981793202459812164306640625">
        <ele>1110</ele>
        <time>2019-07-12T06:57:15.000Z</time>
      </trkpt>
      <trkpt lat="43.27363950200378894805908203125" lon="-4.98166252858936786651611328125">
        <ele>1110</ele>
        <time>2019-07-12T06:57:18.000Z</time>
      </trkpt>
      <trkpt lat="43.27376984059810638427734375" lon="-4.98165967874228954315185546875">
        <ele>1110.4000244140625</ele>
        <time>2019-07-12T06:57:20.000Z</time>
      </trkpt>
      <trkpt lat="43.27388785779476165771484375" lon="-4.98173444531857967376708984375">
        <ele>1110.5999755859375</ele>
        <time>2019-07-12T06:57:22.000Z</time>
      </trkpt>
      <trkpt lat="43.2739735208451747894287109375" lon="-4.98188607394695281982421875">
        <ele>1110.5999755859375</ele>
        <time>2019-07-12T06:57:24.000Z</time>
      </trkpt>
      <trkpt lat="43.2741401530802249908447265625" lon="-4.98236862011253833770751953125">
        <ele>1110.4000244140625</ele>
        <time>2019-07-12T06:57:29.000Z</time>
      </trkpt>
      <trkpt lat="43.27424501068890094757080078125" lon="-4.98253609053790569305419921875">
        <ele>1110</ele>
        <time>2019-07-12T06:57:31.000Z</time>
      </trkpt>
      <trkpt lat="43.2743798755109310150146484375" lon="-4.98265662230551242828369140625">
        <ele>1109.5999755859375</ele>
        <time>2019-07-12T06:57:33.000Z</time>
      </trkpt>
      <trkpt lat="43.27474440447986125946044921875" lon="-4.982902966439723968505859375">
        <ele>1108.800048828125</ele>
        <time>2019-07-12T06:57:38.000Z</time>
      </trkpt>
      <trkpt lat="43.27487398870289325714111328125" lon="-4.9830429442226886749267578125">
        <ele>1108.4000244140625</ele>
        <time>2019-07-12T06:57:40.000Z</time>
      </trkpt>
      <trkpt lat="43.274938948452472686767578125" lon="-4.98311578296124935150146484375">
        <ele>1108.199951171875</ele>
        <time>2019-07-12T06:57:41.000Z</time>
      </trkpt>
      <trkpt lat="43.27537254430353641510009765625" lon="-4.98339959420263767242431640625">
        <ele>1107.4000244140625</ele>
        <time>2019-07-12T06:57:47.000Z</time>
      </trkpt>
      <trkpt lat="43.275481760501861572265625" lon="-4.9835059605538845062255859375">
        <ele>1107</ele>
        <time>2019-07-12T06:57:49.000Z</time>
      </trkpt>
      <trkpt lat="43.275526352226734161376953125" lon="-4.9836347065865993499755859375">
        <ele>1106.5999755859375</ele>
        <time>2019-07-12T06:57:51.000Z</time>
      </trkpt>
      <trkpt lat="43.27550682239234447479248046875" lon="-4.983771331608295440673828125">
        <ele>1106.4000244140625</ele>
        <time>2019-07-12T06:57:53.000Z</time>
      </trkpt>
      <trkpt lat="43.27543272636830806732177734375" lon="-4.98389043845236301422119140625">
        <ele>1106</ele>
        <time>2019-07-12T06:57:55.000Z</time>
      </trkpt>
      <trkpt lat="43.27526391483843326568603515625" lon="-4.98401801101863384246826171875">
        <ele>1105.199951171875</ele>
        <time>2019-07-12T06:57:58.000Z</time>
      </trkpt>
      <trkpt lat="43.27507833950221538543701171875" lon="-4.9841242097318172454833984375">
        <ele>1104.5999755859375</ele>
        <time>2019-07-12T06:58:01.000Z</time>
      </trkpt>
      <trkpt lat="43.2748876512050628662109375" lon="-4.98422764241695404052734375">
        <ele>1104.199951171875</ele>
        <time>2019-07-12T06:58:04.000Z</time>
      </trkpt>
      <trkpt lat="43.27455664984881877899169921875" lon="-4.98439972288906574249267578125">
        <ele>1103</ele>
        <time>2019-07-12T06:58:09.000Z</time>
      </trkpt>
      <trkpt lat="43.2745009101927280426025390625" lon="-4.98444615863263607025146484375">
        <ele>1102.5999755859375</ele>
        <time>2019-07-12T06:58:10.000Z</time>
      </trkpt>
      <trkpt lat="43.274426646530628204345703125" lon="-4.98457054607570171356201171875">
        <ele>1102</ele>
        <time>2019-07-12T06:58:12.000Z</time>
      </trkpt>
      <trkpt lat="43.27440426684916019439697265625" lon="-4.9846401996910572052001953125">
        <ele>1101.800048828125</ele>
        <time>2019-07-12T06:58:13.000Z</time>
      </trkpt>
      <trkpt lat="43.274354897439479827880859375" lon="-4.9847790040075778961181640625">
        <ele>1101.4000244140625</ele>
        <time>2019-07-12T06:58:15.000Z</time>
      </trkpt>
      <trkpt lat="43.274280466139316558837890625" lon="-4.9848963506519794464111328125">
        <ele>1101.199951171875</ele>
        <time>2019-07-12T06:58:17.000Z</time>
      </trkpt>
      <trkpt lat="43.274185247719287872314453125" lon="-4.98498964123427867889404296875">
        <ele>1100.5999755859375</ele>
        <time>2019-07-12T06:58:19.000Z</time>
      </trkpt>
      <trkpt lat="43.27392063103616237640380859375" lon="-4.9851820059120655059814453125">
        <ele>1099.4000244140625</ele>
        <time>2019-07-12T06:58:24.000Z</time>
      </trkpt>
      <trkpt lat="43.27369247563183307647705078125" lon="-4.98536297120153903961181640625">
        <ele>1098.4000244140625</ele>
        <time>2019-07-12T06:58:28.000Z</time>
      </trkpt>
      <trkpt lat="43.2735742069780826568603515625" lon="-4.985463805496692657470703125">
        <ele>1098.199951171875</ele>
        <time>2019-07-12T06:58:30.000Z</time>
      </trkpt>
      <trkpt lat="43.27339173294603824615478515625" lon="-4.9856297671794891357421875">
        <ele>1097</ele>
        <time>2019-07-12T06:58:33.000Z</time>
      </trkpt>
      <trkpt lat="43.2732644118368625640869140625" lon="-4.985741078853607177734375">
        <ele>1095.800048828125</ele>
        <time>2019-07-12T06:58:35.000Z</time>
      </trkpt>
      <trkpt lat="43.2731254398822784423828125" lon="-4.985821880400180816650390625">
        <ele>1095</ele>
        <time>2019-07-12T06:58:37.000Z</time>
      </trkpt>
      <trkpt lat="43.27305327169597148895263671875" lon="-4.98584828339517116546630859375">
        <ele>1094.800048828125</ele>
        <time>2019-07-12T06:58:38.000Z</time>
      </trkpt>
      <trkpt lat="43.2728295587003231048583984375" lon="-4.98591902665793895721435546875">
        <ele>1093.5999755859375</ele>
        <time>2019-07-12T06:58:41.000Z</time>
      </trkpt>
      <trkpt lat="43.2726887427270412445068359375" lon="-4.98600586317479610443115234375">
        <ele>1093</ele>
        <time>2019-07-12T06:58:43.000Z</time>
      </trkpt>
      <trkpt lat="43.272430412471294403076171875" lon="-4.98624340631067752838134765625">
        <ele>1092.4000244140625</ele>
        <time>2019-07-12T06:58:47.000Z</time>
      </trkpt>
      <trkpt lat="43.27230158261954784393310546875" lon="-4.98636779375374317169189453125">
        <ele>1091.4000244140625</ele>
        <time>2019-07-12T06:58:49.000Z</time>
      </trkpt>
      <trkpt lat="43.27217585407197475433349609375" lon="-4.9864733219146728515625">
        <ele>1090</ele>
        <time>2019-07-12T06:58:51.000Z</time>
      </trkpt>
      <trkpt lat="43.272118270397186279296875" lon="-4.9865284748375415802001953125">
        <ele>1089.4000244140625</ele>
        <time>2019-07-12T06:58:52.000Z</time>
      </trkpt>
      <trkpt lat="43.2720279134809970855712890625" lon="-4.9866749905049800872802734375">
        <ele>1089.4000244140625</ele>
        <time>2019-07-12T06:58:54.000Z</time>
      </trkpt>
      <trkpt lat="43.2719709165394306182861328125" lon="-4.986865930259227752685546875">
        <ele>1088.5999755859375</ele>
        <time>2019-07-12T06:58:56.000Z</time>
      </trkpt>
      <trkpt lat="43.271944262087345123291015625" lon="-4.98707455582916736602783203125">
        <ele>1087.199951171875</ele>
        <time>2019-07-12T06:58:58.000Z</time>
      </trkpt>
      <trkpt lat="43.2719424180686473846435546875" lon="-4.9871799163520336151123046875">
        <ele>1086.4000244140625</ele>
        <time>2019-07-12T06:58:59.000Z</time>
      </trkpt>
      <trkpt lat="43.2719454355537891387939453125" lon="-4.98727572150528430938720703125">
        <ele>1085.5999755859375</ele>
        <time>2019-07-12T06:59:00.000Z</time>
      </trkpt>
      <trkpt lat="43.27195339836180210113525390625" lon="-4.98735719360411167144775390625">
        <ele>1085</ele>
        <time>2019-07-12T06:59:01.000Z</time>
      </trkpt>
      <trkpt lat="43.27196714468300342559814453125" lon="-4.9874260090291500091552734375">
        <ele>1084.5999755859375</ele>
        <time>2019-07-12T06:59:02.000Z</time>
      </trkpt>
      <trkpt lat="43.27198508195579051971435546875" lon="-4.987483508884906768798828125">
        <ele>1084.199951171875</ele>
        <time>2019-07-12T06:59:03.000Z</time>
      </trkpt>
      <trkpt lat="43.2720265723764896392822265625" lon="-4.98756372369825839996337890625">
        <ele>1083.4000244140625</ele>
        <time>2019-07-12T06:59:05.000Z</time>
      </trkpt>
      <trkpt lat="43.27208273112773895263671875" lon="-4.98761150054633617401123046875">
        <ele>1082.199951171875</ele>
        <time>2019-07-12T06:59:09.000Z</time>
      </trkpt>
      <trkpt lat="43.27218390069901943206787109375" lon="-4.98767117969691753387451171875">
        <ele>1081</ele>
        <time>2019-07-12T07:00:46.000Z</time>
      </trkpt>
      <trkpt lat="43.2722783647477626800537109375" lon="-4.9877223931252956390380859375">
        <ele>1079.4000244140625</ele>
        <time>2019-07-12T07:00:48.000Z</time>
      </trkpt>
      <trkpt lat="43.27238741330802440643310546875" lon="-4.98777679167687892913818359375">
        <ele>1078.199951171875</ele>
        <time>2019-07-12T07:00:50.000Z</time>
      </trkpt>
      <trkpt lat="43.27244591899216175079345703125" lon="-4.9878005124628543853759765625">
        <ele>1078.5999755859375</ele>
        <time>2019-07-12T07:00:51.000Z</time>
      </trkpt>
      <trkpt lat="43.27278253622353076934814453125" lon="-4.987885169684886932373046875">
        <ele>1076.800048828125</ele>
        <time>2019-07-12T07:00:56.000Z</time>
      </trkpt>
      <trkpt lat="43.2729321531951427459716796875" lon="-4.98791676945984363555908203125">
        <ele>1075.4000244140625</ele>
        <time>2019-07-12T07:00:58.000Z</time>
      </trkpt>
      <trkpt lat="43.2730847038328647613525390625" lon="-4.98795323073863983154296875">
        <ele>1074</ele>
        <time>2019-07-12T07:01:00.000Z</time>
      </trkpt>
      <trkpt lat="43.2732419483363628387451171875" lon="-4.987993799149990081787109375">
        <ele>1072.4000244140625</ele>
        <time>2019-07-12T07:01:02.000Z</time>
      </trkpt>
      <trkpt lat="43.273389302194118499755859375" lon="-4.98804752714931964874267578125">
        <ele>1071.4000244140625</ele>
        <time>2019-07-12T07:01:04.000Z</time>
      </trkpt>
      <trkpt lat="43.2735373266041278839111328125" lon="-4.98812564648687839508056640625">
        <ele>1070</ele>
        <time>2019-07-12T07:01:06.000Z</time>
      </trkpt>
      <trkpt lat="43.27367420308291912078857421875" lon="-4.98821265064179897308349609375">
        <ele>1068.199951171875</ele>
        <time>2019-07-12T07:01:08.000Z</time>
      </trkpt>
      <trkpt lat="43.27378115616738796234130859375" lon="-4.98833821155130863189697265625">
        <ele>1067</ele>
        <time>2019-07-12T07:01:10.000Z</time>
      </trkpt>
      <trkpt lat="43.27385709621012210845947265625" lon="-4.98849864117801189422607421875">
        <ele>1065.4000244140625</ele>
        <time>2019-07-12T07:01:12.000Z</time>
      </trkpt>
      <trkpt lat="43.27391828410327434539794921875" lon="-4.98867566697299480438232421875">
        <ele>1063.800048828125</ele>
        <time>2019-07-12T07:01:14.000Z</time>
      </trkpt>
      <trkpt lat="43.273940496146678924560546875" lon="-4.98877222649753093719482421875">
        <ele>1063.4000244140625</ele>
        <time>2019-07-12T07:01:15.000Z</time>
      </trkpt>
      <trkpt lat="43.273959271609783172607421875" lon="-4.9889706261456012725830078125">
        <ele>1063.199951171875</ele>
        <time>2019-07-12T07:01:17.000Z</time>
      </trkpt>
      <trkpt lat="43.27381409704685211181640625" lon="-4.989595748484134674072265625">
        <ele>1064.4000244140625</ele>
        <time>2019-07-12T07:01:24.000Z</time>
      </trkpt>
      <trkpt lat="43.27378727495670318603515625" lon="-4.98974167741835117340087890625">
        <ele>1065.199951171875</ele>
        <time>2019-07-12T07:01:26.000Z</time>
      </trkpt>
      <trkpt lat="43.27377780340611934661865234375" lon="-4.989833123981952667236328125">
        <ele>1066.199951171875</ele>
        <time>2019-07-12T07:01:28.000Z</time>
      </trkpt>
      <trkpt lat="43.2737857662141323089599609375" lon="-4.98995373956859111785888671875">
        <ele>1067.5999755859375</ele>
        <time>2019-07-12T07:01:31.000Z</time>
      </trkpt>
      <trkpt lat="43.27381007373332977294921875" lon="-4.9906523711979389190673828125">
        <ele>1068.800048828125</ele>
        <time>2019-07-12T07:01:39.000Z</time>
      </trkpt>
      <trkpt lat="43.2738042064011096954345703125" lon="-4.9908065982162952423095703125">
        <ele>1070.199951171875</ele>
        <time>2019-07-12T07:01:42.000Z</time>
      </trkpt>
      <trkpt lat="43.27380445785820484161376953125" lon="-4.9908173270523548126220703125">
        <ele>1071.5999755859375</ele>
        <time>2019-07-12T07:01:44.000Z</time>
      </trkpt>
      <trkpt lat="43.27383396215736865997314453125" lon="-4.99098286963999271392822265625">
        <ele>1072</ele>
        <time>2019-07-12T07:02:54.000Z</time>
      </trkpt>
      <trkpt lat="43.2738484628498554229736328125" lon="-4.99109367839992046356201171875">
        <ele>1072.5999755859375</ele>
        <time>2019-07-12T07:02:55.000Z</time>
      </trkpt>
      <trkpt lat="43.273893892765045166015625" lon="-4.99149332754313945770263671875">
        <ele>1074</ele>
        <time>2019-07-12T07:02:58.000Z</time>
      </trkpt>
      <trkpt lat="43.27391291968524456024169921875" lon="-4.9916280247271060943603515625">
        <ele>1075.4000244140625</ele>
        <time>2019-07-12T07:02:59.000Z</time>
      </trkpt>
      <trkpt lat="43.274052478373050689697265625" lon="-4.99231676571071147918701171875">
        <ele>1076.4000244140625</ele>
        <time>2019-07-12T07:03:04.000Z</time>
      </trkpt>
      <trkpt lat="43.27408391050994396209716796875" lon="-4.99244936741888523101806640625">
        <ele>1077.199951171875</ele>
        <time>2019-07-12T07:03:05.000Z</time>
      </trkpt>
      <trkpt lat="43.274114839732646942138671875" lon="-4.99257735908031463623046875">
        <ele>1078.199951171875</ele>
        <time>2019-07-12T07:03:06.000Z</time>
      </trkpt>
      <trkpt lat="43.27418030239641666412353515625" lon="-4.99281683005392551422119140625">
        <ele>1080.199951171875</ele>
        <time>2019-07-12T07:03:08.000Z</time>
      </trkpt>
      <trkpt lat="43.2742461003363132476806640625" lon="-4.99303023330867290496826171875">
        <ele>1082</ele>
        <time>2019-07-12T07:03:10.000Z</time>
      </trkpt>
      <trkpt lat="43.27429153025150299072265625" lon="-4.9932257831096649169921875">
        <ele>1083.800048828125</ele>
        <time>2019-07-12T07:03:12.000Z</time>
      </trkpt>
      <trkpt lat="43.27431944198906421661376953125" lon="-4.9934251047670841217041015625">
        <ele>1085.5999755859375</ele>
        <time>2019-07-12T07:03:14.000Z</time>
      </trkpt>
      <trkpt lat="43.27433712780475616455078125" lon="-4.993650577962398529052734375">
        <ele>1087.199951171875</ele>
        <time>2019-07-12T07:03:16.000Z</time>
      </trkpt>
      <trkpt lat="43.27436872757971286773681640625" lon="-4.993884600698947906494140625">
        <ele>1088.5999755859375</ele>
        <time>2019-07-12T07:03:18.000Z</time>
      </trkpt>
      <trkpt lat="43.2744305022060871124267578125" lon="-4.9941135942935943603515625">
        <ele>1090.5999755859375</ele>
        <time>2019-07-12T07:03:20.000Z</time>
      </trkpt>
      <trkpt lat="43.27446109615266323089599609375" lon="-4.99423236586153507232666015625">
        <ele>1091.5999755859375</ele>
        <time>2019-07-12T07:03:21.000Z</time>
      </trkpt>
      <trkpt lat="43.2744864933192729949951171875" lon="-4.9943504668772220611572265625">
        <ele>1092.5999755859375</ele>
        <time>2019-07-12T07:03:22.000Z</time>
      </trkpt>
      <trkpt lat="43.27449680306017398834228515625" lon="-4.99447275884449481964111328125">
        <ele>1093.5999755859375</ele>
        <time>2019-07-12T07:03:23.000Z</time>
      </trkpt>
      <trkpt lat="43.2744878344237804412841796875" lon="-4.99460376799106597900390625">
        <ele>1094.4000244140625</ele>
        <time>2019-07-12T07:03:24.000Z</time>
      </trkpt>
      <trkpt lat="43.2744640298187732696533203125" lon="-4.99473595060408115386962890625">
        <ele>1095.199951171875</ele>
        <time>2019-07-12T07:03:25.000Z</time>
      </trkpt>
      <trkpt lat="43.274413235485553741455078125" lon="-4.99497014097869396209716796875">
        <ele>1096.5999755859375</ele>
        <time>2019-07-12T07:03:27.000Z</time>
      </trkpt>
      <trkpt lat="43.27442036010324954986572265625" lon="-4.9951430596411228179931640625">
        <ele>1098.5999755859375</ele>
        <time>2019-07-12T07:03:29.000Z</time>
      </trkpt>
      <trkpt lat="43.27447836287319660186767578125" lon="-4.99523836188018321990966796875">
        <ele>1100.4000244140625</ele>
        <time>2019-07-12T07:03:31.000Z</time>
      </trkpt>
      <trkpt lat="43.27453116886317729949951171875" lon="-4.99524842016398906707763671875">
        <ele>1101.800048828125</ele>
        <time>2019-07-12T07:03:33.000Z</time>
      </trkpt>
      <trkpt lat="43.274536617100238800048828125" lon="-4.99523785896599292755126953125">
        <ele>1103</ele>
        <time>2019-07-12T07:03:35.000Z</time>
      </trkpt>
      <trkpt lat="43.2745361141860485076904296875" lon="-4.9952312372624874114990234375">
        <ele>1104</ele>
        <time>2019-07-12T07:03:47.000Z</time>
      </trkpt>
      <trkpt lat="43.27453770674765110015869140625" lon="-4.9952298961579799652099609375">
        <ele>1104</ele>
        <time>2019-07-12T07:03:48.000Z</time>
      </trkpt>
      <trkpt lat="43.27465991489589214324951171875" lon="-4.9951730668544769287109375">
        <ele>1104.199951171875</ele>
        <time>2019-07-12T07:03:52.000Z</time>
      </trkpt>
      <trkpt lat="43.27468288131058216094970703125" lon="-4.99514750204980373382568359375">
        <ele>1105</ele>
        <time>2019-07-12T07:04:09.000Z</time>
      </trkpt>
      <trkpt lat="43.27472914941608905792236328125" lon="-4.99512990005314350128173828125">
        <ele>1105.4000244140625</ele>
        <time>2019-07-12T07:04:35.000Z</time>
      </trkpt>
      <trkpt lat="43.27480928041040897369384765625" lon="-4.99511984176933765411376953125">
        <ele>1105.199951171875</ele>
        <time>2019-07-12T07:04:37.000Z</time>
      </trkpt>
      <trkpt lat="43.27521714381873607635498046875" lon="-4.995100982487201690673828125">
        <ele>1104</ele>
        <time>2019-07-12T07:04:45.000Z</time>
      </trkpt>
      <trkpt lat="43.2754946686327457427978515625" lon="-4.9951034970581531524658203125">
        <ele>1102.800048828125</ele>
        <time>2019-07-12T07:04:50.000Z</time>
      </trkpt>
      <trkpt lat="43.27555895783007144927978515625" lon="-4.9951162375509738922119140625">
        <ele>1102.5999755859375</ele>
        <time>2019-07-12T07:04:51.000Z</time>
      </trkpt>
      <trkpt lat="43.27570664696395397186279296875" lon="-4.99518924392759799957275390625">
        <ele>1102</ele>
        <time>2019-07-12T07:04:53.000Z</time>
      </trkpt>
      <trkpt lat="43.2757887057960033416748046875" lon="-4.9952535331249237060546875">
        <ele>1101.5999755859375</ele>
        <time>2019-07-12T07:04:54.000Z</time>
      </trkpt>
      <trkpt lat="43.2758698426187038421630859375" lon="-4.99534145928919315338134765625">
        <ele>1101.199951171875</ele>
        <time>2019-07-12T07:04:55.000Z</time>
      </trkpt>
      <trkpt lat="43.27602691948413848876953125" lon="-4.9955926649272441864013671875">
        <ele>1100.199951171875</ele>
        <time>2019-07-12T07:04:57.000Z</time>
      </trkpt>
      <trkpt lat="43.2761724293231964111328125" lon="-4.995904304087162017822265625">
        <ele>1098.199951171875</ele>
        <time>2019-07-12T07:04:59.000Z</time>
      </trkpt>
      <trkpt lat="43.27627980150282382965087890625" lon="-4.99621854163706302642822265625">
        <ele>1096.4000244140625</ele>
        <time>2019-07-12T07:05:01.000Z</time>
      </trkpt>
      <trkpt lat="43.2763040252029895782470703125" lon="-4.99653789214789867401123046875">
        <ele>1095.199951171875</ele>
        <time>2019-07-12T07:05:03.000Z</time>
      </trkpt>
      <trkpt lat="43.2762443460524082183837890625" lon="-4.99717609025537967681884765625">
        <ele>1094.5999755859375</ele>
        <time>2019-07-12T07:05:07.000Z</time>
      </trkpt>
      <trkpt lat="43.27622565440833568572998046875" lon="-4.99732042662799358367919921875">
        <ele>1094.5999755859375</ele>
        <time>2019-07-12T07:05:08.000Z</time>
      </trkpt>
      <trkpt lat="43.276149295270442962646484375" lon="-4.99757238663733005523681640625">
        <ele>1094.4000244140625</ele>
        <time>2019-07-12T07:05:10.000Z</time>
      </trkpt>
      <trkpt lat="43.27603085897862911224365234375" lon="-4.997726865112781524658203125">
        <ele>1094.4000244140625</ele>
        <time>2019-07-12T07:05:12.000Z</time>
      </trkpt>
      <trkpt lat="43.275811336934566497802734375" lon="-4.99788888730108737945556640625">
        <ele>1094.4000244140625</ele>
        <time>2019-07-12T07:05:16.000Z</time>
      </trkpt>
      <trkpt lat="43.27571687288582324981689453125" lon="-4.99802333302795886993408203125">
        <ele>1094.5999755859375</ele>
        <time>2019-07-12T07:05:18.000Z</time>
      </trkpt>
      <trkpt lat="43.2756639830768108367919921875" lon="-4.99822583980858325958251953125">
        <ele>1094.5999755859375</ele>
        <time>2019-07-12T07:05:20.000Z</time>
      </trkpt>
      <trkpt lat="43.27564646489918231964111328125" lon="-4.99886286444962024688720703125">
        <ele>1094.199951171875</ele>
        <time>2019-07-12T07:05:25.000Z</time>
      </trkpt>
      <trkpt lat="43.27564470469951629638671875" lon="-4.998995549976825714111328125">
        <ele>1094</ele>
        <time>2019-07-12T07:05:26.000Z</time>
      </trkpt>
      <trkpt lat="43.2756284438073635101318359375" lon="-4.99948211945593357086181640625">
        <ele>1093</ele>
        <time>2019-07-12T07:05:30.000Z</time>
      </trkpt>
      <trkpt lat="43.27558443881571292877197265625" lon="-4.99980725347995758056640625">
        <ele>1091.800048828125</ele>
        <time>2019-07-12T07:05:34.000Z</time>
      </trkpt>
      <trkpt lat="43.2755607180297374725341796875" lon="-5.00001554377377033233642578125">
        <ele>1090.5999755859375</ele>
        <time>2019-07-12T07:05:37.000Z</time>
      </trkpt>
      <trkpt lat="43.27553272247314453125" lon="-5.00031058676540851593017578125">
        <ele>1089.4000244140625</ele>
        <time>2019-07-12T07:05:40.000Z</time>
      </trkpt>
      <trkpt lat="43.27553532086312770843505859375" lon="-5.0004357285797595977783203125">
        <ele>1089</ele>
        <time>2019-07-12T07:05:41.000Z</time>
      </trkpt>
      <trkpt lat="43.2755784876644611358642578125" lon="-5.00072264112532138824462890625">
        <ele>1088</ele>
        <time>2019-07-12T07:05:43.000Z</time>
      </trkpt>
      <trkpt lat="43.2756421901285648345947265625" lon="-5.00105381011962890625">
        <ele>1086.5999755859375</ele>
        <time>2019-07-12T07:05:45.000Z</time>
      </trkpt>
      <trkpt lat="43.2757048867642879486083984375" lon="-5.00139386393129825592041015625">
        <ele>1084.4000244140625</ele>
        <time>2019-07-12T07:05:47.000Z</time>
      </trkpt>
      <trkpt lat="43.27572542242705821990966796875" lon="-5.00156217254698276519775390625">
        <ele>1083.199951171875</ele>
        <time>2019-07-12T07:05:48.000Z</time>
      </trkpt>
      <trkpt lat="43.275732211768627166748046875" lon="-5.0017278827726840972900390625">
        <ele>1081.800048828125</ele>
        <time>2019-07-12T07:05:49.000Z</time>
      </trkpt>
      <trkpt lat="43.275719471275806427001953125" lon="-5.0018894858658313751220703125">
        <ele>1080.4000244140625</ele>
        <time>2019-07-12T07:05:50.000Z</time>
      </trkpt>
      <trkpt lat="43.27568854205310344696044921875" lon="-5.00204681418836116790771484375">
        <ele>1079.199951171875</ele>
        <time>2019-07-12T07:05:51.000Z</time>
      </trkpt>
      <trkpt lat="43.275646381080150604248046875" lon="-5.002199448645114898681640625">
        <ele>1078.199951171875</ele>
        <time>2019-07-12T07:05:52.000Z</time>
      </trkpt>
      <trkpt lat="43.2755587063729763031005859375" lon="-5.00248351134359836578369140625">
        <ele>1076.4000244140625</ele>
        <time>2019-07-12T07:05:54.000Z</time>
      </trkpt>
      <trkpt lat="43.27550212852656841278076171875" lon="-5.00272105447947978973388671875">
        <ele>1075.199951171875</ele>
        <time>2019-07-12T07:05:56.000Z</time>
      </trkpt>
      <trkpt lat="43.275484107434749603271484375" lon="-5.0029291771352291107177734375">
        <ele>1074</ele>
        <time>2019-07-12T07:05:58.000Z</time>
      </trkpt>
      <trkpt lat="43.27549927867949008941650390625" lon="-5.0031088851392269134521484375">
        <ele>1072.800048828125</ele>
        <time>2019-07-12T07:06:00.000Z</time>
      </trkpt>
      <trkpt lat="43.27552291564643383026123046875" lon="-5.00325179658830165863037109375">
        <ele>1071.4000244140625</ele>
        <time>2019-07-12T07:06:02.000Z</time>
      </trkpt>
      <trkpt lat="43.2755446247756481170654296875" lon="-5.00335673801600933074951171875">
        <ele>1070.4000244140625</ele>
        <time>2019-07-12T07:06:04.000Z</time>
      </trkpt>
      <trkpt lat="43.27557354234158992767333984375" lon="-5.00347961671650409698486328125">
        <ele>1068.800048828125</ele>
        <time>2019-07-12T07:06:08.000Z</time>
      </trkpt>
      <trkpt lat="43.2755850255489349365234375" lon="-5.0035286508500576019287109375">
        <ele>1067.800048828125</ele>
        <time>2019-07-12T07:06:13.000Z</time>
      </trkpt>
      <trkpt lat="43.27561377547681331634521484375" lon="-5.00374515540897846221923828125">
        <ele>1066.800048828125</ele>
        <time>2019-07-12T07:06:38.000Z</time>
      </trkpt>
      <trkpt lat="43.2756244204938411712646484375" lon="-5.00377113930881023406982421875">
        <ele>1066.5999755859375</ele>
        <time>2019-07-12T07:06:39.000Z</time>
      </trkpt>
      <trkpt lat="43.27569290064275264739990234375" lon="-5.0039963610470294952392578125">
        <ele>1065.5999755859375</ele>
        <time>2019-07-12T07:06:44.000Z</time>
      </trkpt>
      <trkpt lat="43.2757942378520965576171875" lon="-5.0042816810309886932373046875">
        <ele>1064</ele>
        <time>2019-07-12T07:06:47.000Z</time>
      </trkpt>
      <trkpt lat="43.275899179279804229736328125" lon="-5.0045066513121128082275390625">
        <ele>1062.4000244140625</ele>
        <time>2019-07-12T07:06:49.000Z</time>
      </trkpt>
      <trkpt lat="43.27603421173989772796630859375" lon="-5.00475031323730945587158203125">
        <ele>1060.800048828125</ele>
        <time>2019-07-12T07:06:51.000Z</time>
      </trkpt>
      <trkpt lat="43.2761558331549167633056640625" lon="-5.00500596128404140472412109375">
        <ele>1058.4000244140625</ele>
        <time>2019-07-12T07:06:53.000Z</time>
      </trkpt>
      <trkpt lat="43.276210315525531768798828125" lon="-5.0051292590796947479248046875">
        <ele>1056.800048828125</ele>
        <time>2019-07-12T07:06:54.000Z</time>
      </trkpt>
      <trkpt lat="43.276269994676113128662109375" lon="-5.00523428432643413543701171875">
        <ele>1055.199951171875</ele>
        <time>2019-07-12T07:06:55.000Z</time>
      </trkpt>
      <trkpt lat="43.27634048648178577423095703125" lon="-5.00531173311173915863037109375">
        <ele>1054</ele>
        <time>2019-07-12T07:06:56.000Z</time>
      </trkpt>
      <trkpt lat="43.2764237187802791595458984375" lon="-5.0053659640252590179443359375">
        <ele>1053</ele>
        <time>2019-07-12T07:06:57.000Z</time>
      </trkpt>
      <trkpt lat="43.27658322639763355255126953125" lon="-5.00543327070772647857666015625">
        <ele>1051.199951171875</ele>
        <time>2019-07-12T07:06:59.000Z</time>
      </trkpt>
      <trkpt lat="43.2766791991889476776123046875" lon="-5.005470402538776397705078125">
        <ele>1049.199951171875</ele>
        <time>2019-07-12T07:07:01.000Z</time>
      </trkpt>
      <trkpt lat="43.27675639651715755462646484375" lon="-5.005492530763149261474609375">
        <ele>1047.5999755859375</ele>
        <time>2019-07-12T07:07:03.000Z</time>
      </trkpt>
      <trkpt lat="43.27683082781732082366943359375" lon="-5.00547987408936023712158203125">
        <ele>1046.4000244140625</ele>
        <time>2019-07-12T07:07:05.000Z</time>
      </trkpt>
      <trkpt lat="43.2768810354173183441162109375" lon="-5.00545992515981197357177734375">
        <ele>1045.199951171875</ele>
        <time>2019-07-12T07:07:08.000Z</time>
      </trkpt>
      <trkpt lat="43.276935853064060211181640625" lon="-5.0054219551384449005126953125">
        <ele>1044.199951171875</ele>
        <time>2019-07-12T07:07:13.000Z</time>
      </trkpt>
      <trkpt lat="43.27704221941530704498291015625" lon="-5.00525389797985553741455078125">
        <ele>1042.800048828125</ele>
        <time>2019-07-12T07:07:18.000Z</time>
      </trkpt>
      <trkpt lat="43.27710458077490329742431640625" lon="-5.0051160156726837158203125">
        <ele>1041.5999755859375</ele>
        <time>2019-07-12T07:07:22.000Z</time>
      </trkpt>
      <trkpt lat="43.27718605287373065948486328125" lon="-5.00492683611810207366943359375">
        <ele>1040.4000244140625</ele>
        <time>2019-07-12T07:07:25.000Z</time>
      </trkpt>
      <trkpt lat="43.277224190533161163330078125" lon="-5.00482005067169666290283203125">
        <ele>1039</ele>
        <time>2019-07-12T07:07:27.000Z</time>
      </trkpt>
      <trkpt lat="43.2772890664637088775634765625" lon="-5.0046484731137752532958984375">
        <ele>1037.5999755859375</ele>
        <time>2019-07-12T07:07:30.000Z</time>
      </trkpt>
      <trkpt lat="43.27738252468407154083251953125" lon="-5.00442425720393657684326171875">
        <ele>1036.199951171875</ele>
        <time>2019-07-12T07:07:33.000Z</time>
      </trkpt>
      <trkpt lat="43.27743432484567165374755859375" lon="-5.00423801131546497344970703125">
        <ele>1034.4000244140625</ele>
        <time>2019-07-12T07:07:35.000Z</time>
      </trkpt>
      <trkpt lat="43.2775204069912433624267578125" lon="-5.004082359373569488525390625">
        <ele>1033</ele>
        <time>2019-07-12T07:07:37.000Z</time>
      </trkpt>
      <trkpt lat="43.27765233814716339111328125" lon="-5.00401295721530914306640625">
        <ele>1031.199951171875</ele>
        <time>2019-07-12T07:07:39.000Z</time>
      </trkpt>
      <trkpt lat="43.2778117619454860687255859375" lon="-5.0040070898830890655517578125">
        <ele>1029.5999755859375</ele>
        <time>2019-07-12T07:07:41.000Z</time>
      </trkpt>
      <trkpt lat="43.27798216603696346282958984375" lon="-5.00399543903768062591552734375">
        <ele>1028</ele>
        <time>2019-07-12T07:07:43.000Z</time>
      </trkpt>
      <trkpt lat="43.27814460732042789459228515625" lon="-5.00391614623367786407470703125">
        <ele>1026.199951171875</ele>
        <time>2019-07-12T07:07:45.000Z</time>
      </trkpt>
      <trkpt lat="43.2782915420830249786376953125" lon="-5.0037563033401966094970703125">
        <ele>1024.4000244140625</ele>
        <time>2019-07-12T07:07:47.000Z</time>
      </trkpt>
      <trkpt lat="43.27844702638685703277587890625" lon="-5.00356645323336124420166015625">
        <ele>1023.20001220703125</ele>
        <time>2019-07-12T07:07:49.000Z</time>
      </trkpt>
      <trkpt lat="43.27862455509603023529052734375" lon="-5.003378950059413909912109375">
        <ele>1021</ele>
        <time>2019-07-12T07:07:51.000Z</time>
      </trkpt>
      <trkpt lat="43.2787277363240718841552734375" lon="-5.00330083072185516357421875">
        <ele>1019.79998779296875</ele>
        <time>2019-07-12T07:07:52.000Z</time>
      </trkpt>
      <trkpt lat="43.27883921563625335693359375" lon="-5.003234446048736572265625">
        <ele>1018.5999755859375</ele>
        <time>2019-07-12T07:07:53.000Z</time>
      </trkpt>
      <trkpt lat="43.27895513735711574554443359375" lon="-5.0031799636781215667724609375">
        <ele>1017.5999755859375</ele>
        <time>2019-07-12T07:07:54.000Z</time>
      </trkpt>
      <trkpt lat="43.27907164581120014190673828125" lon="-5.00313662923872470855712890625">
        <ele>1016.20001220703125</ele>
        <time>2019-07-12T07:07:55.000Z</time>
      </trkpt>
      <trkpt lat="43.27918882481753826141357421875" lon="-5.00310276634991168975830078125">
        <ele>1015.20001220703125</ele>
        <time>2019-07-12T07:07:56.000Z</time>
      </trkpt>
      <trkpt lat="43.279304243624210357666015625" lon="-5.0030793808400630950927734375">
        <ele>1014</ele>
        <time>2019-07-12T07:07:57.000Z</time>
      </trkpt>
      <trkpt lat="43.27941178344190120697021484375" lon="-5.0030652992427349090576171875">
        <ele>1012.79998779296875</ele>
        <time>2019-07-12T07:07:58.000Z</time>
      </trkpt>
      <trkpt lat="43.27950951643288135528564453125" lon="-5.003044344484806060791015625">
        <ele>1011.4000244140625</ele>
        <time>2019-07-12T07:07:59.000Z</time>
      </trkpt>
      <trkpt lat="43.279688470065593719482421875" lon="-5.0029305182397365570068359375">
        <ele>1009.5999755859375</ele>
        <time>2019-07-12T07:08:01.000Z</time>
      </trkpt>
      <trkpt lat="43.27987320721149444580078125" lon="-5.0027806498110294342041015625">
        <ele>1008</ele>
        <time>2019-07-12T07:08:03.000Z</time>
      </trkpt>
      <trkpt lat="43.27998049557209014892578125" lon="-5.00274167396128177642822265625">
        <ele>1007</ele>
        <time>2019-07-12T07:08:04.000Z</time>
      </trkpt>
      <trkpt lat="43.28009373508393764495849609375" lon="-5.00273731537163257598876953125">
        <ele>1005.79998779296875</ele>
        <time>2019-07-12T07:08:05.000Z</time>
      </trkpt>
      <trkpt lat="43.28020689077675342559814453125" lon="-5.00275894068181514739990234375">
        <ele>1004.20001220703125</ele>
        <time>2019-07-12T07:08:06.000Z</time>
      </trkpt>
      <trkpt lat="43.2803213037550449371337890625" lon="-5.0027779676020145416259765625">
        <ele>1002.79998779296875</ele>
        <time>2019-07-12T07:08:07.000Z</time>
      </trkpt>
      <trkpt lat="43.28043655492365360260009765625" lon="-5.00277201645076274871826171875">
        <ele>1001.20001220703125</ele>
        <time>2019-07-12T07:08:08.000Z</time>
      </trkpt>
      <trkpt lat="43.28055314719676971435546875" lon="-5.00274569727480411529541015625">
        <ele>999.79998779296875</ele>
        <time>2019-07-12T07:08:09.000Z</time>
      </trkpt>
      <trkpt lat="43.28066856600344181060791015625" lon="-5.0027146004140377044677734375">
        <ele>998.5999755859375</ele>
        <time>2019-07-12T07:08:10.000Z</time>
      </trkpt>
      <trkpt lat="43.2807806320488452911376953125" lon="-5.00268752686679363250732421875">
        <ele>997.4000244140625</ele>
        <time>2019-07-12T07:08:11.000Z</time>
      </trkpt>
      <trkpt lat="43.280886746942996978759765625" lon="-5.00268400646746158599853515625">
        <ele>996.20001220703125</ele>
        <time>2019-07-12T07:08:12.000Z</time>
      </trkpt>
      <trkpt lat="43.2809864915907382965087890625" lon="-5.00271870754659175872802734375">
        <ele>994.5999755859375</ele>
        <time>2019-07-12T07:08:13.000Z</time>
      </trkpt>
      <trkpt lat="43.28107609413564205169677734375" lon="-5.00278852880001068115234375">
        <ele>993.20001220703125</ele>
        <time>2019-07-12T07:08:14.000Z</time>
      </trkpt>
      <trkpt lat="43.2811534591019153594970703125" lon="-5.00288902781903743743896484375">
        <ele>991.5999755859375</ele>
        <time>2019-07-12T07:08:15.000Z</time>
      </trkpt>
      <trkpt lat="43.28122193925082683563232421875" lon="-5.0030113197863101959228515625">
        <ele>990.5999755859375</ele>
        <time>2019-07-12T07:08:16.000Z</time>
      </trkpt>
      <trkpt lat="43.28128673136234283447265625" lon="-5.0031427480280399322509765625">
        <ele>989.5999755859375</ele>
        <time>2019-07-12T07:08:17.000Z</time>
      </trkpt>
      <trkpt lat="43.28134632669389247894287109375" lon="-5.00327426008880138397216796875">
        <ele>988.5999755859375</ele>
        <time>2019-07-12T07:08:18.000Z</time>
      </trkpt>
      <trkpt lat="43.2814025692641735076904296875" lon="-5.0033958815038204193115234375">
        <ele>987.4000244140625</ele>
        <time>2019-07-12T07:08:19.000Z</time>
      </trkpt>
      <trkpt lat="43.28146384097635746002197265625" lon="-5.0035051815211772918701171875">
        <ele>986.20001220703125</ele>
        <time>2019-07-12T07:08:20.000Z</time>
      </trkpt>
      <trkpt lat="43.2815386913716793060302734375" lon="-5.00359277240931987762451171875">
        <ele>985</ele>
        <time>2019-07-12T07:08:21.000Z</time>
      </trkpt>
      <trkpt lat="43.28162946738302707672119140625" lon="-5.00365220010280609130859375">
        <ele>984</ele>
        <time>2019-07-12T07:08:22.000Z</time>
      </trkpt>
      <trkpt lat="43.28185125254094600677490234375" lon="-5.0036721490323543548583984375">
        <ele>982.20001220703125</ele>
        <time>2019-07-12T07:08:24.000Z</time>
      </trkpt>
      <trkpt lat="43.28210019506514072418212890625" lon="-5.00360802747309207916259765625">
        <ele>980.79998779296875</ele>
        <time>2019-07-12T07:08:26.000Z</time>
      </trkpt>
      <trkpt lat="43.282351903617382049560546875" lon="-5.0036208517849445343017578125">
        <ele>978.4000244140625</ele>
        <time>2019-07-12T07:08:28.000Z</time>
      </trkpt>
      <trkpt lat="43.28246732242405414581298828125" lon="-5.00363267026841640472412109375">
        <ele>977</ele>
        <time>2019-07-12T07:08:29.000Z</time>
      </trkpt>
      <trkpt lat="43.28257016837596893310546875" lon="-5.0036091171205043792724609375">
        <ele>975.20001220703125</ele>
        <time>2019-07-12T07:08:30.000Z</time>
      </trkpt>
      <trkpt lat="43.282653987407684326171875" lon="-5.0035442411899566650390625">
        <ele>974</ele>
        <time>2019-07-12T07:08:31.000Z</time>
      </trkpt>
      <trkpt lat="43.282785750925540924072265625" lon="-5.003384985029697418212890625">
        <ele>973</ele>
        <time>2019-07-12T07:08:33.000Z</time>
      </trkpt>
      <trkpt lat="43.28291005454957485198974609375" lon="-5.00332589261233806610107421875">
        <ele>973.20001220703125</ele>
        <time>2019-07-12T07:08:35.000Z</time>
      </trkpt>
      <trkpt lat="43.28295934014022350311279296875" lon="-5.00335740856826305389404296875">
        <ele>974.20001220703125</ele>
        <time>2019-07-12T07:08:36.000Z</time>
      </trkpt>
      <trkpt lat="43.282985575497150421142578125" lon="-5.0034240446984767913818359375">
        <ele>975.20001220703125</ele>
        <time>2019-07-12T07:08:37.000Z</time>
      </trkpt>
      <trkpt lat="43.28295179642736911773681640625" lon="-5.003600902855396270751953125">
        <ele>976.5999755859375</ele>
        <time>2019-07-12T07:08:39.000Z</time>
      </trkpt>
      <trkpt lat="43.2828771136701107025146484375" lon="-5.003822185099124908447265625">
        <ele>978</ele>
        <time>2019-07-12T07:08:41.000Z</time>
      </trkpt>
      <trkpt lat="43.28285959549248218536376953125" lon="-5.00408546067774295806884765625">
        <ele>979.20001220703125</ele>
        <time>2019-07-12T07:08:43.000Z</time>
      </trkpt>
      <trkpt lat="43.28292480669915676116943359375" lon="-5.004375390708446502685546875">
        <ele>981</ele>
        <time>2019-07-12T07:08:45.000Z</time>
      </trkpt>
      <trkpt lat="43.28298616223037242889404296875" lon="-5.0045274384319782257080078125">
        <ele>982.20001220703125</ele>
        <time>2019-07-12T07:08:46.000Z</time>
      </trkpt>
      <trkpt lat="43.28305774368345737457275390625" lon="-5.0046779774129390716552734375">
        <ele>983.5999755859375</ele>
        <time>2019-07-12T07:08:47.000Z</time>
      </trkpt>
      <trkpt lat="43.28312647528946399688720703125" lon="-5.004828684031963348388671875">
        <ele>985</ele>
        <time>2019-07-12T07:08:48.000Z</time>
      </trkpt>
      <trkpt lat="43.2831802032887935638427734375" lon="-5.004986263811588287353515625">
        <ele>986.4000244140625</ele>
        <time>2019-07-12T07:08:49.000Z</time>
      </trkpt>
      <trkpt lat="43.28321582637727260589599609375" lon="-5.00515214167535305023193359375">
        <ele>987.79998779296875</ele>
        <time>2019-07-12T07:08:50.000Z</time>
      </trkpt>
      <trkpt lat="43.283261843025684356689453125" lon="-5.00548775307834148406982421875">
        <ele>989.79998779296875</ele>
        <time>2019-07-12T07:08:52.000Z</time>
      </trkpt>
      <trkpt lat="43.28329042531549930572509765625" lon="-5.00564784742891788482666015625">
        <ele>991.4000244140625</ele>
        <time>2019-07-12T07:08:53.000Z</time>
      </trkpt>
      <trkpt lat="43.28332261182367801666259765625" lon="-5.0058021582663059234619140625">
        <ele>993.20001220703125</ele>
        <time>2019-07-12T07:08:54.000Z</time>
      </trkpt>
      <trkpt lat="43.28336066566407680511474609375" lon="-5.00595127232372760772705078125">
        <ele>995</ele>
        <time>2019-07-12T07:08:55.000Z</time>
      </trkpt>
      <trkpt lat="43.28340165317058563232421875" lon="-5.00609577633440494537353515625">
        <ele>996.5999755859375</ele>
        <time>2019-07-12T07:08:56.000Z</time>
      </trkpt>
      <trkpt lat="43.28344213776290416717529296875" lon="-5.0062339939177036285400390625">
        <ele>997.79998779296875</ele>
        <time>2019-07-12T07:08:57.000Z</time>
      </trkpt>
      <trkpt lat="43.2835221849381923675537109375" lon="-5.00649492256343364715576171875">
        <ele>999.79998779296875</ele>
        <time>2019-07-12T07:08:59.000Z</time>
      </trkpt>
      <trkpt lat="43.28356350772082805633544921875" lon="-5.00661998055875301361083984375">
        <ele>1001.20001220703125</ele>
        <time>2019-07-12T07:09:00.000Z</time>
      </trkpt>
      <trkpt lat="43.2836046628654003143310546875" lon="-5.00674352981150150299072265625">
        <ele>1002.5999755859375</ele>
        <time>2019-07-12T07:09:01.000Z</time>
      </trkpt>
      <trkpt lat="43.28364447690546512603759765625" lon="-5.0068693421781063079833984375">
        <ele>1003.5999755859375</ele>
        <time>2019-07-12T07:09:02.000Z</time>
      </trkpt>
      <trkpt lat="43.28373416326940059661865234375" lon="-5.0071268342435359954833984375">
        <ele>1005.4000244140625</ele>
        <time>2019-07-12T07:09:04.000Z</time>
      </trkpt>
      <trkpt lat="43.283793590962886810302734375" lon="-5.00724929384887218475341796875">
        <ele>1005.79998779296875</ele>
        <time>2019-07-12T07:09:05.000Z</time>
      </trkpt>
      <trkpt lat="43.284000456333160400390625" lon="-5.00761172734200954437255859375">
        <ele>1006.20001220703125</ele>
        <time>2019-07-12T07:09:08.000Z</time>
      </trkpt>
      <trkpt lat="43.284148983657360076904296875" lon="-5.008107014000415802001953125">
        <ele>1005.20001220703125</ele>
        <time>2019-07-12T07:09:12.000Z</time>
      </trkpt>
      <trkpt lat="43.284236490726470947265625" lon="-5.00821975059807300567626953125">
        <ele>1005.20001220703125</ele>
        <time>2019-07-12T07:09:32.000Z</time>
      </trkpt>
      <trkpt lat="43.2843348942697048187255859375" lon="-5.00831899233162403106689453125">
        <ele>1005</ele>
        <time>2019-07-12T07:09:55.000Z</time>
      </trkpt>
      <trkpt lat="43.28457755036652088165283203125" lon="-5.008613280951976776123046875">
        <ele>1004.5999755859375</ele>
        <time>2019-07-12T07:10:00.000Z</time>
      </trkpt>
      <trkpt lat="43.28478374518454074859619140625" lon="-5.0087562762200832366943359375">
        <ele>1004.20001220703125</ele>
        <time>2019-07-12T07:10:03.000Z</time>
      </trkpt>
      <trkpt lat="43.2849343679845333099365234375" lon="-5.008762143552303314208984375">
        <ele>1003.79998779296875</ele>
        <time>2019-07-12T07:10:05.000Z</time>
      </trkpt>
      <trkpt lat="43.285134695470333099365234375" lon="-5.00858067534863948822021484375">
        <ele>1003.20001220703125</ele>
        <time>2019-07-12T07:10:08.000Z</time>
      </trkpt>
      <trkpt lat="43.28519462607800960540771484375" lon="-5.00853859819471836090087890625">
        <ele>1002.5999755859375</ele>
        <time>2019-07-12T07:10:09.000Z</time>
      </trkpt>
      <trkpt lat="43.28525447286665439605712890625" lon="-5.00852099619805812835693359375">
        <ele>1001.79998779296875</ele>
        <time>2019-07-12T07:10:10.000Z</time>
      </trkpt>
      <trkpt lat="43.2853112183511257171630859375" lon="-5.0085289590060710906982421875">
        <ele>1001</ele>
        <time>2019-07-12T07:10:11.000Z</time>
      </trkpt>
      <trkpt lat="43.28536461107432842254638671875" lon="-5.0085567869246006011962890625">
        <ele>1000.20001220703125</ele>
        <time>2019-07-12T07:10:12.000Z</time>
      </trkpt>
      <trkpt lat="43.2854208536446094512939453125" lon="-5.00858888961374759674072265625">
        <ele>999.4000244140625</ele>
        <time>2019-07-12T07:10:13.000Z</time>
      </trkpt>
      <trkpt lat="43.28548095189034938812255859375" lon="-5.00861353240907192230224609375">
        <ele>998.5999755859375</ele>
        <time>2019-07-12T07:10:14.000Z</time>
      </trkpt>
      <trkpt lat="43.28554130159318447113037109375" lon="-5.008623339235782623291015625">
        <ele>998</ele>
        <time>2019-07-12T07:10:15.000Z</time>
      </trkpt>
      <trkpt lat="43.2855985499918460845947265625" lon="-5.0086077488958835601806640625">
        <ele>997.4000244140625</ele>
        <time>2019-07-12T07:10:16.000Z</time>
      </trkpt>
      <trkpt lat="43.2856515236198902130126953125" lon="-5.00856332480907440185546875">
        <ele>996.79998779296875</ele>
        <time>2019-07-12T07:10:17.000Z</time>
      </trkpt>
      <trkpt lat="43.28569519333541393280029296875" lon="-5.0084857083857059478759765625">
        <ele>996</ele>
        <time>2019-07-12T07:10:18.000Z</time>
      </trkpt>
      <trkpt lat="43.2857296429574489593505859375" lon="-5.00838520936667919158935546875">
        <ele>995.20001220703125</ele>
        <time>2019-07-12T07:10:19.000Z</time>
      </trkpt>
      <trkpt lat="43.28575990162789821624755859375" lon="-5.00827741809189319610595703125">
        <ele>994.4000244140625</ele>
        <time>2019-07-12T07:10:20.000Z</time>
      </trkpt>
      <trkpt lat="43.28579778783023357391357421875" lon="-5.00817599706351757049560546875">
        <ele>993.20001220703125</ele>
        <time>2019-07-12T07:10:21.000Z</time>
      </trkpt>
      <trkpt lat="43.2858547009527683258056640625" lon="-5.00809125602245330810546875">
        <ele>992</ele>
        <time>2019-07-12T07:10:22.000Z</time>
      </trkpt>
      <trkpt lat="43.28592619858682155609130859375" lon="-5.0080257095396518707275390625">
        <ele>990.5999755859375</ele>
        <time>2019-07-12T07:10:23.000Z</time>
      </trkpt>
      <trkpt lat="43.28600867651402950286865234375" lon="-5.00796921551227569580078125">
        <ele>989.20001220703125</ele>
        <time>2019-07-12T07:10:24.000Z</time>
      </trkpt>
      <trkpt lat="43.28609819523990154266357421875" lon="-5.00792772509157657623291015625">
        <ele>988</ele>
        <time>2019-07-12T07:10:25.000Z</time>
      </trkpt>
      <trkpt lat="43.28619073145091533660888671875" lon="-5.00790140591561794281005859375">
        <ele>987</ele>
        <time>2019-07-12T07:10:26.000Z</time>
      </trkpt>
      <trkpt lat="43.28628913499414920806884765625" lon="-5.00788816250860691070556640625">
        <ele>985.79998779296875</ele>
        <time>2019-07-12T07:10:27.000Z</time>
      </trkpt>
      <trkpt lat="43.28638385049998760223388671875" lon="-5.007877014577388763427734375">
        <ele>984.5999755859375</ele>
        <time>2019-07-12T07:10:28.000Z</time>
      </trkpt>
      <trkpt lat="43.28646850772202014923095703125" lon="-5.00784675590693950653076171875">
        <ele>983.20001220703125</ele>
        <time>2019-07-12T07:10:29.000Z</time>
      </trkpt>
      <trkpt lat="43.2865359820425510406494140625" lon="-5.00778623856604099273681640625">
        <ele>982.20001220703125</ele>
        <time>2019-07-12T07:10:30.000Z</time>
      </trkpt>
      <trkpt lat="43.28657881356775760650634765625" lon="-5.00769839622080326080322265625">
        <ele>981.4000244140625</ele>
        <time>2019-07-12T07:10:31.000Z</time>
      </trkpt>
      <trkpt lat="43.28659339807927608489990234375" lon="-5.00759303569793701171875">
        <ele>981</ele>
        <time>2019-07-12T07:10:32.000Z</time>
      </trkpt>
      <trkpt lat="43.286588452756404876708984375" lon="-5.00747828744351863861083984375">
        <ele>980.5999755859375</ele>
        <time>2019-07-12T07:10:33.000Z</time>
      </trkpt>
      <trkpt lat="43.28659138642251491546630859375" lon="-5.00723185949027538299560546875">
        <ele>980.20001220703125</ele>
        <time>2019-07-12T07:10:35.000Z</time>
      </trkpt>
      <trkpt lat="43.28660815022885799407958984375" lon="-5.00710596330463886260986328125">
        <ele>979.79998779296875</ele>
        <time>2019-07-12T07:10:36.000Z</time>
      </trkpt>
      <trkpt lat="43.2866379059851169586181640625" lon="-5.00699196942150592803955078125">
        <ele>979.20001220703125</ele>
        <time>2019-07-12T07:10:37.000Z</time>
      </trkpt>
      <trkpt lat="43.28676371835172176361083984375" lon="-5.00682952813804149627685546875">
        <ele>978.4000244140625</ele>
        <time>2019-07-12T07:10:39.000Z</time>
      </trkpt>
      <trkpt lat="43.28694426454603672027587890625" lon="-5.00675375573337078094482421875">
        <ele>977</ele>
        <time>2019-07-12T07:10:41.000Z</time>
      </trkpt>
      <trkpt lat="43.28714794479310512542724609375" lon="-5.00669776462018489837646484375">
        <ele>975.79998779296875</ele>
        <time>2019-07-12T07:10:43.000Z</time>
      </trkpt>
      <trkpt lat="43.28736126422882080078125" lon="-5.006654597818851470947265625">
        <ele>974.4000244140625</ele>
        <time>2019-07-12T07:10:45.000Z</time>
      </trkpt>
      <trkpt lat="43.28756050206720829010009765625" lon="-5.00657857395708560943603515625">
        <ele>972.5999755859375</ele>
        <time>2019-07-12T07:10:47.000Z</time>
      </trkpt>
      <trkpt lat="43.28774976544082164764404296875" lon="-5.0063969381153583526611328125">
        <ele>971.20001220703125</ele>
        <time>2019-07-12T07:10:49.000Z</time>
      </trkpt>
      <trkpt lat="43.28785319812595844268798828125" lon="-5.00629375688731670379638671875">
        <ele>970.5999755859375</ele>
        <time>2019-07-12T07:10:50.000Z</time>
      </trkpt>
      <trkpt lat="43.2879585586488246917724609375" lon="-5.00620298087596893310546875">
        <ele>969.79998779296875</ele>
        <time>2019-07-12T07:10:51.000Z</time>
      </trkpt>
      <trkpt lat="43.288053609430789947509765625" lon="-5.0061218440532684326171875">
        <ele>968.5999755859375</ele>
        <time>2019-07-12T07:10:52.000Z</time>
      </trkpt>
      <trkpt lat="43.28813164494931697845458984375" lon="-5.00605051405727863311767578125">
        <ele>966.79998779296875</ele>
        <time>2019-07-12T07:10:53.000Z</time>
      </trkpt>
      <trkpt lat="43.2881902344524860382080078125" lon="-5.0059783458709716796875">
        <ele>965.4000244140625</ele>
        <time>2019-07-12T07:10:54.000Z</time>
      </trkpt>
      <trkpt lat="43.28822568990290164947509765625" lon="-5.005889832973480224609375">
        <ele>964.20001220703125</ele>
        <time>2019-07-12T07:10:55.000Z</time>
      </trkpt>
      <trkpt lat="43.28823541291058063507080078125" lon="-5.0057817064225673675537109375">
        <ele>963.20001220703125</ele>
        <time>2019-07-12T07:10:56.000Z</time>
      </trkpt>
      <trkpt lat="43.2882271148264408111572265625" lon="-5.0056516192853450775146484375">
        <ele>962.4000244140625</ele>
        <time>2019-07-12T07:10:57.000Z</time>
      </trkpt>
      <trkpt lat="43.28820892609655857086181640625" lon="-5.00534894876182079315185546875">
        <ele>961.4000244140625</ele>
        <time>2019-07-12T07:10:59.000Z</time>
      </trkpt>
      <trkpt lat="43.28821160830557346343994140625" lon="-5.00503663904964923858642578125">
        <ele>959.5999755859375</ele>
        <time>2019-07-12T07:11:01.000Z</time>
      </trkpt>
      <trkpt lat="43.28824312426149845123291015625" lon="-5.0048885308206081390380859375">
        <ele>958.20001220703125</ele>
        <time>2019-07-12T07:11:02.000Z</time>
      </trkpt>
      <trkpt lat="43.28829928301274776458740234375" lon="-5.0047584436833858489990234375">
        <ele>957</ele>
        <time>2019-07-12T07:11:03.000Z</time>
      </trkpt>
      <trkpt lat="43.2883766479790210723876953125" lon="-5.00465936958789825439453125">
        <ele>955.5999755859375</ele>
        <time>2019-07-12T07:11:04.000Z</time>
      </trkpt>
      <trkpt lat="43.28847412951290607452392578125" lon="-5.0045941583812236785888671875">
        <ele>954.20001220703125</ele>
        <time>2019-07-12T07:11:05.000Z</time>
      </trkpt>
      <trkpt lat="43.2885912247002124786376953125" lon="-5.00456658191978931427001953125">
        <ele>952.5999755859375</ele>
        <time>2019-07-12T07:11:06.000Z</time>
      </trkpt>
      <trkpt lat="43.28872307203710079193115234375" lon="-5.0045716948807239532470703125">
        <ele>951.20001220703125</ele>
        <time>2019-07-12T07:11:07.000Z</time>
      </trkpt>
      <trkpt lat="43.289001770317554473876953125" lon="-5.0046089105308055877685546875">
        <ele>949.5999755859375</ele>
        <time>2019-07-12T07:11:09.000Z</time>
      </trkpt>
      <trkpt lat="43.289279043674468994140625" lon="-5.00464260578155517578125">
        <ele>948.4000244140625</ele>
        <time>2019-07-12T07:11:11.000Z</time>
      </trkpt>
      <trkpt lat="43.28955036588013172149658203125" lon="-5.004714690148830413818359375">
        <ele>946.5999755859375</ele>
        <time>2019-07-12T07:11:13.000Z</time>
      </trkpt>
      <trkpt lat="43.2896781899034976959228515625" lon="-5.00478518195450305938720703125">
        <ele>945.20001220703125</ele>
        <time>2019-07-12T07:11:14.000Z</time>
      </trkpt>
      <trkpt lat="43.289799392223358154296875" lon="-5.00487302429974079132080078125">
        <ele>944.20001220703125</ele>
        <time>2019-07-12T07:11:15.000Z</time>
      </trkpt>
      <trkpt lat="43.289905674755573272705078125" lon="-5.00497980974614620208740234375">
        <ele>943.20001220703125</ele>
        <time>2019-07-12T07:11:16.000Z</time>
      </trkpt>
      <trkpt lat="43.28998974524438381195068359375" lon="-5.005117692053318023681640625">
        <ele>942.4000244140625</ele>
        <time>2019-07-12T07:11:17.000Z</time>
      </trkpt>
      <trkpt lat="43.29004908911883831024169921875" lon="-5.00528164207935333251953125">
        <ele>941.20001220703125</ele>
        <time>2019-07-12T07:11:18.000Z</time>
      </trkpt>
      <trkpt lat="43.2900895737111568450927734375" lon="-5.00546847470104694366455078125">
        <ele>939.79998779296875</ele>
        <time>2019-07-12T07:11:19.000Z</time>
      </trkpt>
      <trkpt lat="43.29012335278093814849853515625" lon="-5.0056663714349269866943359375">
        <ele>938.5999755859375</ele>
        <time>2019-07-12T07:11:20.000Z</time>
      </trkpt>
      <trkpt lat="43.2901572994887828826904296875" lon="-5.00586527399718761444091796875">
        <ele>937.5999755859375</ele>
        <time>2019-07-12T07:11:21.000Z</time>
      </trkpt>
      <trkpt lat="43.29019032418727874755859375" lon="-5.0060552917420864105224609375">
        <ele>936.5999755859375</ele>
        <time>2019-07-12T07:11:22.000Z</time>
      </trkpt>
      <trkpt lat="43.29021890647709369659423828125" lon="-5.0062296353280544281005859375">
        <ele>935.20001220703125</ele>
        <time>2019-07-12T07:11:23.000Z</time>
      </trkpt>
      <trkpt lat="43.29024053178727626800537109375" lon="-5.00638545490801334381103515625">
        <ele>933.5999755859375</ele>
        <time>2019-07-12T07:11:24.000Z</time>
      </trkpt>
      <trkpt lat="43.29025209881365299224853515625" lon="-5.0065206550061702728271484375">
        <ele>932</ele>
        <time>2019-07-12T07:11:25.000Z</time>
      </trkpt>
      <trkpt lat="43.2902572117745876312255859375" lon="-5.0066339783370494842529296875">
        <ele>930.4000244140625</ele>
        <time>2019-07-12T07:11:26.000Z</time>
      </trkpt>
      <trkpt lat="43.29026383347809314727783203125" lon="-5.006726682186126708984375">
        <ele>928.79998779296875</ele>
        <time>2019-07-12T07:11:27.000Z</time>
      </trkpt>
      <trkpt lat="43.2902793399989604949951171875" lon="-5.0068002752959728240966796875">
        <ele>927.5999755859375</ele>
        <time>2019-07-12T07:11:28.000Z</time>
      </trkpt>
      <trkpt lat="43.29030574299395084381103515625" lon="-5.0068569369614124298095703125">
        <ele>926.4000244140625</ele>
        <time>2019-07-12T07:11:29.000Z</time>
      </trkpt>
      <trkpt lat="43.290375731885433197021484375" lon="-5.00691669993102550506591796875">
        <ele>924.5999755859375</ele>
        <time>2019-07-12T07:11:31.000Z</time>
      </trkpt>
      <trkpt lat="43.29047673381865024566650390625" lon="-5.00695307739078998565673828125">
        <ele>922.79998779296875</ele>
        <time>2019-07-12T07:11:33.000Z</time>
      </trkpt>
      <trkpt lat="43.29062526114284992218017578125" lon="-5.0069779716432094573974609375">
        <ele>921.20001220703125</ele>
        <time>2019-07-12T07:11:35.000Z</time>
      </trkpt>
      <trkpt lat="43.29080463387072086334228515625" lon="-5.0070081464946269989013671875">
        <ele>919.20001220703125</ele>
        <time>2019-07-12T07:11:37.000Z</time>
      </trkpt>
      <trkpt lat="43.2909867726266384124755859375" lon="-5.00707226805388927459716796875">
        <ele>917.4000244140625</ele>
        <time>2019-07-12T07:11:39.000Z</time>
      </trkpt>
      <trkpt lat="43.2910591922700405120849609375" lon="-5.00713882036507129669189453125">
        <ele>916</ele>
        <time>2019-07-12T07:11:40.000Z</time>
      </trkpt>
      <trkpt lat="43.29111593775451183319091796875" lon="-5.007238648831844329833984375">
        <ele>914.4000244140625</ele>
        <time>2019-07-12T07:11:41.000Z</time>
      </trkpt>
      <trkpt lat="43.2911659777164459228515625" lon="-5.00736043788492679595947265625">
        <ele>913</ele>
        <time>2019-07-12T07:11:42.000Z</time>
      </trkpt>
      <trkpt lat="43.291213251650333404541015625" lon="-5.00748482532799243927001953125">
        <ele>912</ele>
        <time>2019-07-12T07:11:43.000Z</time>
      </trkpt>
      <trkpt lat="43.29129145480692386627197265625" lon="-5.00771583057940006256103515625">
        <ele>910</ele>
        <time>2019-07-12T07:11:45.000Z</time>
      </trkpt>
      <trkpt lat="43.29130218364298343658447265625" lon="-5.00793007202446460723876953125">
        <ele>907.79998779296875</ele>
        <time>2019-07-12T07:11:47.000Z</time>
      </trkpt>
      <trkpt lat="43.29129329882562160491943359375" lon="-5.00802713446319103240966796875">
        <ele>906.79998779296875</ele>
        <time>2019-07-12T07:11:48.000Z</time>
      </trkpt>
      <trkpt lat="43.29128826968371868133544921875" lon="-5.00811547972261905670166015625">
        <ele>905.5999755859375</ele>
        <time>2019-07-12T07:11:49.000Z</time>
      </trkpt>
      <trkpt lat="43.29129145480692386627197265625" lon="-5.00826031900942325592041015625">
        <ele>904</ele>
        <time>2019-07-12T07:11:51.000Z</time>
      </trkpt>
      <trkpt lat="43.29129916615784168243408203125" lon="-5.00841052271425724029541015625">
        <ele>903</ele>
        <time>2019-07-12T07:11:54.000Z</time>
      </trkpt>
      <trkpt lat="43.291295059025287628173828125" lon="-5.00842762179672718048095703125">
        <ele>903.4000244140625</ele>
        <time>2019-07-12T07:12:00.000Z</time>
      </trkpt>
      <trkpt lat="43.29131274484097957611083984375" lon="-5.0084042362868785858154296875">
        <ele>903.4000244140625</ele>
        <time>2019-07-12T07:12:38.000Z</time>
      </trkpt>
      <trkpt lat="43.29129673540592193603515625" lon="-5.00832217745482921600341796875">
        <ele>903.4000244140625</ele>
        <time>2019-07-12T07:12:54.000Z</time>
      </trkpt>
      <trkpt lat="43.29129346646368503570556640625" lon="-5.0082761608064174652099609375">
        <ele>903.4000244140625</ele>
        <time>2019-07-12T07:12:57.000Z</time>
      </trkpt>
      <trkpt lat="43.29128927551209926605224609375" lon="-5.00824942253530025482177734375">
        <ele>903.4000244140625</ele>
        <time>2019-07-12T07:12:59.000Z</time>
      </trkpt>
      <trkpt lat="43.29128391109406948089599609375" lon="-5.00817582942545413970947265625">
        <ele>903.20001220703125</ele>
        <time>2019-07-12T07:13:04.000Z</time>
      </trkpt>
      <trkpt lat="43.2913153432309627532958984375" lon="-5.0079492665827274322509765625">
        <ele>904</ele>
        <time>2019-07-12T07:13:18.000Z</time>
      </trkpt>
      <trkpt lat="43.29134275205433368682861328125" lon="-5.0078480131924152374267578125">
        <ele>905.20001220703125</ele>
        <time>2019-07-12T07:13:24.000Z</time>
      </trkpt>
      <trkpt lat="43.29137049615383148193359375" lon="-5.00776696018874645233154296875">
        <ele>906.4000244140625</ele>
        <time>2019-07-12T07:13:31.000Z</time>
      </trkpt>
      <trkpt lat="43.2913867570459842681884765625" lon="-5.0077310018241405487060546875">
        <ele>906.79998779296875</ele>
        <time>2019-07-12T07:13:34.000Z</time>
      </trkpt>
      <trkpt lat="43.2913746871054172515869140625" lon="-5.00768565572798252105712890625">
        <ele>907.4000244140625</ele>
        <time>2019-07-12T07:13:38.000Z</time>
      </trkpt>
      <trkpt lat="43.29137393273413181304931640625" lon="-5.00766880810260772705078125">
        <ele>908</ele>
        <time>2019-07-12T07:13:44.000Z</time>
      </trkpt>
      <trkpt lat="43.29137711785733699798583984375" lon="-5.007636286318302154541015625">
        <ele>907.79998779296875</ele>
        <time>2019-07-12T07:13:48.000Z</time>
      </trkpt>
      <trkpt lat="43.29138457775115966796875" lon="-5.00761826522648334503173828125">
        <ele>907.79998779296875</ele>
        <time>2019-07-12T07:13:51.000Z</time>
      </trkpt>
      <trkpt lat="43.29135683365166187286376953125" lon="-5.007686577737331390380859375">
        <ele>907.79998779296875</ele>
        <time>2019-07-12T07:14:30.000Z</time>
      </trkpt>
      <trkpt lat="43.291378878057003021240234375" lon="-5.00773846171796321868896484375">
        <ele>908</ele>
        <time>2019-07-12T07:14:37.000Z</time>
      </trkpt>
      <trkpt lat="43.29140192829072475433349609375" lon="-5.0077675469219684600830078125">
        <ele>908.20001220703125</ele>
        <time>2019-07-12T07:14:40.000Z</time>
      </trkpt>
      <trkpt lat="43.291421122848987579345703125" lon="-5.0077853165566921234130859375">
        <ele>908.4000244140625</ele>
        <time>2019-07-12T07:14:45.000Z</time>
      </trkpt>
      <trkpt lat="43.2914031855762004852294921875" lon="-5.0077990628778934478759765625">
        <ele>908.5999755859375</ele>
        <time>2019-07-12T07:15:30.000Z</time>
      </trkpt>
      <trkpt lat="43.291405029594898223876953125" lon="-5.0078292377293109893798828125">
        <ele>908.5999755859375</ele>
        <time>2019-07-12T07:16:04.000Z</time>
      </trkpt>
      <trkpt lat="43.2913820631802082061767578125" lon="-5.00781289301812648773193359375">
        <ele>908.5999755859375</ele>
        <time>2019-07-12T07:16:06.000Z</time>
      </trkpt>
      <trkpt lat="43.291376866400241851806640625" lon="-5.007846169173717498779296875">
        <ele>908.20001220703125</ele>
        <time>2019-07-12T07:16:10.000Z</time>
      </trkpt>
      <trkpt lat="43.29136940650641918182373046875" lon="-5.007880367338657379150390625">
        <ele>908</ele>
        <time>2019-07-12T07:16:13.000Z</time>
      </trkpt>
      <trkpt lat="43.291349373757839202880859375" lon="-5.007919259369373321533203125">
        <ele>907.4000244140625</ele>
        <time>2019-07-12T07:16:18.000Z</time>
      </trkpt>
      <trkpt lat="43.29133939929306507110595703125" lon="-5.00793258659541606903076171875">
        <ele>907</ele>
        <time>2019-07-12T07:16:20.000Z</time>
      </trkpt>
      <trkpt lat="43.29131819307804107666015625" lon="-5.00796158798038959503173828125">
        <ele>906.4000244140625</ele>
        <time>2019-07-12T07:16:23.000Z</time>
      </trkpt>
      <trkpt lat="43.29131559468805789947509765625" lon="-5.00797566957771778106689453125">
        <ele>906.20001220703125</ele>
        <time>2019-07-12T07:16:24.000Z</time>
      </trkpt>
      <trkpt lat="43.291309811174869537353515625" lon="-5.00800953246653079986572265625">
        <ele>905.4000244140625</ele>
        <time>2019-07-12T07:16:26.000Z</time>
      </trkpt>
      <trkpt lat="43.2913039438426494598388671875" lon="-5.00804029405117034912109375">
        <ele>905</ele>
        <time>2019-07-12T07:16:28.000Z</time>
      </trkpt>
      <trkpt lat="43.29129782505333423614501953125" lon="-5.00806845724582672119140625">
        <ele>904.5999755859375</ele>
        <time>2019-07-12T07:16:31.000Z</time>
      </trkpt>
      <trkpt lat="43.29128810204565525054931640625" lon="-5.00810827128589153289794921875">
        <ele>904.20001220703125</ele>
        <time>2019-07-12T07:16:34.000Z</time>
      </trkpt>
      <trkpt lat="43.291287012398242950439453125" lon="-5.00812319107353687286376953125">
        <ele>903.79998779296875</ele>
        <time>2019-07-12T07:16:35.000Z</time>
      </trkpt>
      <trkpt lat="43.29128726385533809661865234375" lon="-5.00816904008388519287109375">
        <ele>903.4000244140625</ele>
        <time>2019-07-12T07:16:38.000Z</time>
      </trkpt>
      <trkpt lat="43.29128407873213291168212890625" lon="-5.00823014415800571441650390625">
        <ele>903.20001220703125</ele>
        <time>2019-07-12T07:16:45.000Z</time>
      </trkpt>
      <trkpt lat="43.29128541983664035797119140625" lon="-5.0082654319703578948974609375">
        <ele>903.20001220703125</ele>
        <time>2019-07-12T07:16:57.000Z</time>
      </trkpt>
      <trkpt lat="43.2912844978272914886474609375" lon="-5.0082761608064174652099609375">
        <ele>903.20001220703125</ele>
        <time>2019-07-12T07:16:59.000Z</time>
      </trkpt>
      <trkpt lat="43.291282989084720611572265625" lon="-5.0083016417920589447021484375">
        <ele>903.20001220703125</ele>
        <time>2019-07-12T07:17:01.000Z</time>
      </trkpt>
      <trkpt lat="43.29129111953079700469970703125" lon="-5.00839442946016788482666015625">
        <ele>903.20001220703125</ele>
        <time>2019-07-12T07:17:11.000Z</time>
      </trkpt>
      <trkpt lat="43.29127485863864421844482421875" lon="-5.00851227901875972747802734375">
        <ele>902.5999755859375</ele>
        <time>2019-07-12T07:18:33.000Z</time>
      </trkpt>
      <trkpt lat="43.29128307290375232696533203125" lon="-5.008630044758319854736328125">
        <ele>902.4000244140625</ele>
        <time>2019-07-12T07:18:35.000Z</time>
      </trkpt>
      <trkpt lat="43.29129849560558795928955078125" lon="-5.008742026984691619873046875">
        <ele>902.4000244140625</ele>
        <time>2019-07-12T07:18:37.000Z</time>
      </trkpt>
      <trkpt lat="43.2912368886172771453857421875" lon="-5.00879466533660888671875">
        <ele>902.5999755859375</ele>
        <time>2019-07-12T07:18:40.000Z</time>
      </trkpt>
      <trkpt lat="43.2912003435194492340087890625" lon="-5.0087177194654941558837890625">
        <ele>902.5999755859375</ele>
        <time>2019-07-12T07:18:42.000Z</time>
      </trkpt>
      <trkpt lat="43.29118533991277217864990234375" lon="-5.00831932760775089263916015625">
        <ele>902.20001220703125</ele>
        <time>2019-07-12T07:18:49.000Z</time>
      </trkpt>
      <trkpt lat="43.2911168597638607025146484375" lon="-5.00831186771392822265625">
        <ele>902</ele>
        <time>2019-07-12T07:18:51.000Z</time>
      </trkpt>
      <trkpt lat="43.291052989661693572998046875" lon="-5.0083990395069122314453125">
        <ele>901.5999755859375</ele>
        <time>2019-07-12T07:18:53.000Z</time>
      </trkpt>
      <trkpt lat="43.2910092361271381378173828125" lon="-5.00853591598570346832275390625">
        <ele>900.4000244140625</ele>
        <time>2019-07-12T07:18:55.000Z</time>
      </trkpt>
      <trkpt lat="43.2909914664924144744873046875" lon="-5.008621998131275177001953125">
        <ele>899.79998779296875</ele>
        <time>2019-07-12T07:18:56.000Z</time>
      </trkpt>
      <trkpt lat="43.29098618589341640472412109375" lon="-5.0087207369506359100341796875">
        <ele>899</ele>
        <time>2019-07-12T07:18:57.000Z</time>
      </trkpt>
      <trkpt lat="43.2909954898059368133544921875" lon="-5.00882106833159923553466796875">
        <ele>898.20001220703125</ele>
        <time>2019-07-12T07:18:58.000Z</time>
      </trkpt>
      <trkpt lat="43.29101334325969219207763671875" lon="-5.0089195556938648223876953125">
        <ele>897.5999755859375</ele>
        <time>2019-07-12T07:18:59.000Z</time>
      </trkpt>
      <trkpt lat="43.29103815369307994842529296875" lon="-5.00901586376130580902099609375">
        <ele>896.79998779296875</ele>
        <time>2019-07-12T07:19:00.000Z</time>
      </trkpt>
      <trkpt lat="43.29107000492513179779052734375" lon="-5.0091052986681461334228515625">
        <ele>896</ele>
        <time>2019-07-12T07:19:01.000Z</time>
      </trkpt>
      <trkpt lat="43.29109917394816875457763671875" lon="-5.00919288955628871917724609375">
        <ele>895.4000244140625</ele>
        <time>2019-07-12T07:19:02.000Z</time>
      </trkpt>
      <trkpt lat="43.29111644066870212554931640625" lon="-5.00928643159568309783935546875">
        <ele>894.79998779296875</ele>
        <time>2019-07-12T07:19:03.000Z</time>
      </trkpt>
      <trkpt lat="43.29111191444098949432373046875" lon="-5.0093855895102024078369140625">
        <ele>894.4000244140625</ele>
        <time>2019-07-12T07:19:04.000Z</time>
      </trkpt>
      <trkpt lat="43.2910417579114437103271484375" lon="-5.00958030112087726593017578125">
        <ele>894</ele>
        <time>2019-07-12T07:19:06.000Z</time>
      </trkpt>
      <trkpt lat="43.290906138718128204345703125" lon="-5.009719692170619964599609375">
        <ele>893.79998779296875</ele>
        <time>2019-07-12T07:19:08.000Z</time>
      </trkpt>
      <trkpt lat="43.290596343576908111572265625" lon="-5.0098184309899806976318359375">
        <ele>894.20001220703125</ele>
        <time>2019-07-12T07:19:12.000Z</time>
      </trkpt>
      <trkpt lat="43.290507495403289794921875" lon="-5.0099525414407253265380859375">
        <ele>894.79998779296875</ele>
        <time>2019-07-12T07:19:14.000Z</time>
      </trkpt>
      <trkpt lat="43.29047690145671367645263671875" lon="-5.01015119254589080810546875">
        <ele>895.4000244140625</ele>
        <time>2019-07-12T07:19:16.000Z</time>
      </trkpt>
      <trkpt lat="43.29045963473618030548095703125" lon="-5.01036618836224079132080078125">
        <ele>895.79998779296875</ele>
        <time>2019-07-12T07:19:18.000Z</time>
      </trkpt>
      <trkpt lat="43.29039978794753551483154296875" lon="-5.01055511645972728729248046875">
        <ele>896.4000244140625</ele>
        <time>2019-07-12T07:19:20.000Z</time>
      </trkpt>
      <trkpt lat="43.29019778408110141754150390625" lon="-5.01085795462131500244140625">
        <ele>896.5999755859375</ele>
        <time>2019-07-12T07:19:24.000Z</time>
      </trkpt>
      <trkpt lat="43.29014346934854984283447265625" lon="-5.01102651469409465789794921875">
        <ele>895.79998779296875</ele>
        <time>2019-07-12T07:19:26.000Z</time>
      </trkpt>
      <trkpt lat="43.290137685835361480712890625" lon="-5.01143194735050201416015625">
        <ele>895.20001220703125</ele>
        <time>2019-07-12T07:19:30.000Z</time>
      </trkpt>
      <trkpt lat="43.29018085263669490814208984375" lon="-5.011639483273029327392578125">
        <ele>895.4000244140625</ele>
        <time>2019-07-12T07:19:32.000Z</time>
      </trkpt>
      <trkpt lat="43.290396519005298614501953125" lon="-5.01222613267600536346435546875">
        <ele>895.4000244140625</ele>
        <time>2019-07-12T07:19:38.000Z</time>
      </trkpt>
      <trkpt lat="43.29040490090847015380859375" lon="-5.01242444850504398345947265625">
        <ele>895.4000244140625</ele>
        <time>2019-07-12T07:19:40.000Z</time>
      </trkpt>
      <trkpt lat="43.290327452123165130615234375" lon="-5.01280884258449077606201171875">
        <ele>895</ele>
        <time>2019-07-12T07:19:44.000Z</time>
      </trkpt>
      <trkpt lat="43.29031948931515216827392578125" lon="-5.01291160471737384796142578125">
        <ele>894.79998779296875</ele>
        <time>2019-07-12T07:19:45.000Z</time>
      </trkpt>
      <trkpt lat="43.29032175242900848388671875" lon="-5.01301285810768604278564453125">
        <ele>894.5999755859375</ele>
        <time>2019-07-12T07:19:46.000Z</time>
      </trkpt>
      <trkpt lat="43.29033172689378261566162109375" lon="-5.01319390721619129180908203125">
        <ele>894.20001220703125</ele>
        <time>2019-07-12T07:19:48.000Z</time>
      </trkpt>
      <trkpt lat="43.29031881876289844512939453125" lon="-5.01326347701251506805419921875">
        <ele>893.79998779296875</ele>
        <time>2019-07-12T07:19:49.000Z</time>
      </trkpt>
      <trkpt lat="43.29028696753084659576416015625" lon="-5.01331108622252941131591796875">
        <ele>893.4000244140625</ele>
        <time>2019-07-12T07:19:50.000Z</time>
      </trkpt>
      <trkpt lat="43.290187977254390716552734375" lon="-5.01331410370767116546630859375">
        <ele>893</ele>
        <time>2019-07-12T07:19:52.000Z</time>
      </trkpt>
      <trkpt lat="43.2900674454867839813232421875" lon="-5.01323313452303409576416015625">
        <ele>892.79998779296875</ele>
        <time>2019-07-12T07:19:54.000Z</time>
      </trkpt>
      <trkpt lat="43.289930820465087890625" lon="-5.0131141953170299530029296875">
        <ele>891.4000244140625</ele>
        <time>2019-07-12T07:19:56.000Z</time>
      </trkpt>
      <trkpt lat="43.28978799283504486083984375" lon="-5.01297061331570148468017578125">
        <ele>889.4000244140625</ele>
        <time>2019-07-12T07:19:58.000Z</time>
      </trkpt>
      <trkpt lat="43.28971431590616703033447265625" lon="-5.0129012949764728546142578125">
        <ele>888.20001220703125</ele>
        <time>2019-07-12T07:19:59.000Z</time>
      </trkpt>
      <trkpt lat="43.28963837586343288421630859375" lon="-5.012850500643253326416015625">
        <ele>886.79998779296875</ele>
        <time>2019-07-12T07:20:00.000Z</time>
      </trkpt>
      <trkpt lat="43.28956067562103271484375" lon="-5.01283599995076656341552734375">
        <ele>885.4000244140625</ele>
        <time>2019-07-12T07:20:01.000Z</time>
      </trkpt>
      <trkpt lat="43.2894802093505859375" lon="-5.0128520093858242034912109375">
        <ele>884.20001220703125</ele>
        <time>2019-07-12T07:20:02.000Z</time>
      </trkpt>
      <trkpt lat="43.28940787352621555328369140625" lon="-5.01290137879550457000732421875">
        <ele>883.20001220703125</ele>
        <time>2019-07-12T07:20:03.000Z</time>
      </trkpt>
      <trkpt lat="43.2893580012023448944091796875" lon="-5.01299559138715267181396484375">
        <ele>882.20001220703125</ele>
        <time>2019-07-12T07:20:04.000Z</time>
      </trkpt>
      <trkpt lat="43.28933998011052608489990234375" lon="-5.01312064938247203826904296875">
        <ele>881.4000244140625</ele>
        <time>2019-07-12T07:20:05.000Z</time>
      </trkpt>
      <trkpt lat="43.28935146331787109375" lon="-5.01324922777712345123291015625">
        <ele>880.20001220703125</ele>
        <time>2019-07-12T07:20:06.000Z</time>
      </trkpt>
      <trkpt lat="43.2893864996731281280517578125" lon="-5.013363473117351531982421875">
        <ele>879</ele>
        <time>2019-07-12T07:20:07.000Z</time>
      </trkpt>
      <trkpt lat="43.2894217036664485931396484375" lon="-5.0134657323360443115234375">
        <ele>877.5999755859375</ele>
        <time>2019-07-12T07:20:08.000Z</time>
      </trkpt>
      <trkpt lat="43.2894359529018402099609375" lon="-5.0135664828121662139892578125">
        <ele>876.4000244140625</ele>
        <time>2019-07-12T07:20:09.000Z</time>
      </trkpt>
      <trkpt lat="43.28941809944808483123779296875" lon="-5.013668574392795562744140625">
        <ele>875.20001220703125</ele>
        <time>2019-07-12T07:20:10.000Z</time>
      </trkpt>
      <trkpt lat="43.28938105143606662750244140625" lon="-5.01377142034471035003662109375">
        <ele>874</ele>
        <time>2019-07-12T07:20:11.000Z</time>
      </trkpt>
      <trkpt lat="43.2893479429185390472412109375" lon="-5.01387502066791057586669921875">
        <ele>873</ele>
        <time>2019-07-12T07:20:12.000Z</time>
      </trkpt>
      <trkpt lat="43.28933109529316425323486328125" lon="-5.013975016772747039794921875">
        <ele>871.79998779296875</ele>
        <time>2019-07-12T07:20:13.000Z</time>
      </trkpt>
      <trkpt lat="43.28933930955827236175537109375" lon="-5.0140683911740779876708984375">
        <ele>870.5999755859375</ele>
        <time>2019-07-12T07:20:14.000Z</time>
      </trkpt>
      <trkpt lat="43.28938163816928863525390625" lon="-5.014150701463222503662109375">
        <ele>869.4000244140625</ele>
        <time>2019-07-12T07:20:15.000Z</time>
      </trkpt>
      <trkpt lat="43.289456069469451904296875" lon="-5.01420979388058185577392578125">
        <ele>868.4000244140625</ele>
        <time>2019-07-12T07:20:16.000Z</time>
      </trkpt>
      <trkpt lat="43.2895459234714508056640625" lon="-5.0142313353717327117919921875">
        <ele>867.4000244140625</ele>
        <time>2019-07-12T07:20:17.000Z</time>
      </trkpt>
      <trkpt lat="43.289640136063098907470703125" lon="-5.01423418521881103515625">
        <ele>866.4000244140625</ele>
        <time>2019-07-12T07:20:18.000Z</time>
      </trkpt>
      <trkpt lat="43.28973493538796901702880859375" lon="-5.014231503009796142578125">
        <ele>865.20001220703125</ele>
        <time>2019-07-12T07:20:19.000Z</time>
      </trkpt>
      <trkpt lat="43.2898293994367122650146484375" lon="-5.014226138591766357421875">
        <ele>863.5999755859375</ele>
        <time>2019-07-12T07:20:20.000Z</time>
      </trkpt>
      <trkpt lat="43.289921768009662628173828125" lon="-5.01422119326889514923095703125">
        <ele>862</ele>
        <time>2019-07-12T07:20:21.000Z</time>
      </trkpt>
      <trkpt lat="43.29001153819262981414794921875" lon="-5.01423544250428676605224609375">
        <ele>860.5999755859375</ele>
        <time>2019-07-12T07:20:22.000Z</time>
      </trkpt>
      <trkpt lat="43.290093429386615753173828125" lon="-5.014282800257205963134765625">
        <ele>859.4000244140625</ele>
        <time>2019-07-12T07:20:23.000Z</time>
      </trkpt>
      <trkpt lat="43.2901633344590663909912109375" lon="-5.0143604166805744171142578125">
        <ele>858.4000244140625</ele>
        <time>2019-07-12T07:20:24.000Z</time>
      </trkpt>
      <trkpt lat="43.29022259451448917388916015625" lon="-5.01445454545319080352783203125">
        <ele>857.4000244140625</ele>
        <time>2019-07-12T07:20:25.000Z</time>
      </trkpt>
      <trkpt lat="43.29031965695321559906005859375" lon="-5.01466669142246246337890625">
        <ele>855.5999755859375</ele>
        <time>2019-07-12T07:20:27.000Z</time>
      </trkpt>
      <trkpt lat="43.290384113788604736328125" lon="-5.01490465365350246429443359375">
        <ele>854</ele>
        <time>2019-07-12T07:20:29.000Z</time>
      </trkpt>
      <trkpt lat="43.29044052399694919586181640625" lon="-5.015160553157329559326171875">
        <ele>852.20001220703125</ele>
        <time>2019-07-12T07:20:31.000Z</time>
      </trkpt>
      <trkpt lat="43.290470950305461883544921875" lon="-5.01527328975498676300048828125">
        <ele>851.20001220703125</ele>
        <time>2019-07-12T07:20:32.000Z</time>
      </trkpt>
      <trkpt lat="43.2905006222426891326904296875" lon="-5.01536800526082515716552734375">
        <ele>849.5999755859375</ele>
        <time>2019-07-12T07:20:33.000Z</time>
      </trkpt>
      <trkpt lat="43.29052568413317203521728515625" lon="-5.01544310711324214935302734375">
        <ele>848</ele>
        <time>2019-07-12T07:20:34.000Z</time>
      </trkpt>
      <trkpt lat="43.29054546542465686798095703125" lon="-5.015498511493206024169921875">
        <ele>846.79998779296875</ele>
        <time>2019-07-12T07:20:35.000Z</time>
      </trkpt>
      <trkpt lat="43.2905693538486957550048828125" lon="-5.015552155673503875732421875">
        <ele>845.5999755859375</ele>
        <time>2019-07-12T07:20:37.000Z</time>
      </trkpt>
      <trkpt lat="43.2906375825405120849609375" lon="-5.01567578874528408050537109375">
        <ele>845</ele>
        <time>2019-07-12T07:20:57.000Z</time>
      </trkpt>
      <trkpt lat="43.2907235808670520782470703125" lon="-5.015739239752292633056640625">
        <ele>844.5999755859375</ele>
        <time>2019-07-12T07:20:59.000Z</time>
      </trkpt>
      <trkpt lat="43.2908281870186328887939453125" lon="-5.01574267633259296417236328125">
        <ele>843.79998779296875</ele>
        <time>2019-07-12T07:21:01.000Z</time>
      </trkpt>
      <trkpt lat="43.2908816635608673095703125" lon="-5.01573211513459682464599609375">
        <ele>843.20001220703125</ele>
        <time>2019-07-12T07:21:02.000Z</time>
      </trkpt>
      <trkpt lat="43.29099456779658794403076171875" lon="-5.01572004519402980804443359375">
        <ele>841.79998779296875</ele>
        <time>2019-07-12T07:21:04.000Z</time>
      </trkpt>
      <trkpt lat="43.291182406246662139892578125" lon="-5.0157293491065502166748046875">
        <ele>840.4000244140625</ele>
        <time>2019-07-12T07:21:07.000Z</time>
      </trkpt>
      <trkpt lat="43.2912482880055904388427734375" lon="-5.01574837602674961090087890625">
        <ele>839.79998779296875</ele>
        <time>2019-07-12T07:21:08.000Z</time>
      </trkpt>
      <trkpt lat="43.29131525941193103790283203125" lon="-5.01577989198267459869384765625">
        <ele>839</ele>
        <time>2019-07-12T07:21:09.000Z</time>
      </trkpt>
      <trkpt lat="43.29145238734781742095947265625" lon="-5.01586605794727802276611328125">
        <ele>837.5999755859375</ele>
        <time>2019-07-12T07:21:11.000Z</time>
      </trkpt>
      <trkpt lat="43.29159521497786045074462890625" lon="-5.01596680842339992523193359375">
        <ele>835.5999755859375</ele>
        <time>2019-07-12T07:21:13.000Z</time>
      </trkpt>
      <trkpt lat="43.2917508669197559356689453125" lon="-5.016073845326900482177734375">
        <ele>833.79998779296875</ele>
        <time>2019-07-12T07:21:15.000Z</time>
      </trkpt>
      <trkpt lat="43.29184063710272312164306640625" lon="-5.01611374318599700927734375">
        <ele>832.79998779296875</ele>
        <time>2019-07-12T07:21:16.000Z</time>
      </trkpt>
      <trkpt lat="43.29193686135113239288330078125" lon="-5.0161316804587841033935546875">
        <ele>831.79998779296875</ele>
        <time>2019-07-12T07:21:17.000Z</time>
      </trkpt>
      <trkpt lat="43.29213232733309268951416015625" lon="-5.01614115200936794281005859375">
        <ele>829.79998779296875</ele>
        <time>2019-07-12T07:21:19.000Z</time>
      </trkpt>
      <trkpt lat="43.292222432792186737060546875" lon="-5.01615464687347412109375">
        <ele>828.4000244140625</ele>
        <time>2019-07-12T07:21:20.000Z</time>
      </trkpt>
      <trkpt lat="43.29230197705328464508056640625" lon="-5.01616613008081912994384765625">
        <ele>827</ele>
        <time>2019-07-12T07:21:21.000Z</time>
      </trkpt>
      <trkpt lat="43.2923724688589572906494140625" lon="-5.0161595083773136138916015625">
        <ele>826</ele>
        <time>2019-07-12T07:21:22.000Z</time>
      </trkpt>
      <trkpt lat="43.2924821041524410247802734375" lon="-5.016048364341259002685546875">
        <ele>824.5999755859375</ele>
        <time>2019-07-12T07:21:24.000Z</time>
      </trkpt>
      <trkpt lat="43.29258427955210208892822265625" lon="-5.01587242819368839263916015625">
        <ele>823.79998779296875</ele>
        <time>2019-07-12T07:21:26.000Z</time>
      </trkpt>
      <trkpt lat="43.29265401698648929595947265625" lon="-5.01578810624778270721435546875">
        <ele>823</ele>
        <time>2019-07-12T07:21:27.000Z</time>
      </trkpt>
      <trkpt lat="43.29272978939116001129150390625" lon="-5.015699677169322967529296875">
        <ele>822</ele>
        <time>2019-07-12T07:21:28.000Z</time>
      </trkpt>
      <trkpt lat="43.2928066514432430267333984375" lon="-5.01559716649353504180908203125">
        <ele>820.5999755859375</ele>
        <time>2019-07-12T07:21:29.000Z</time>
      </trkpt>
      <trkpt lat="43.292882926762104034423828125" lon="-5.01548132859170436859130859375">
        <ele>819.4000244140625</ele>
        <time>2019-07-12T07:21:30.000Z</time>
      </trkpt>
      <trkpt lat="43.2930292747914791107177734375" lon="-5.015226937830448150634765625">
        <ele>817.4000244140625</ele>
        <time>2019-07-12T07:21:32.000Z</time>
      </trkpt>
      <trkpt lat="43.29309591092169284820556640625" lon="-5.0150933302938938140869140625">
        <ele>815.79998779296875</ele>
        <time>2019-07-12T07:21:33.000Z</time>
      </trkpt>
      <trkpt lat="43.29315961338579654693603515625" lon="-5.0149575434625148773193359375">
        <ele>814</ele>
        <time>2019-07-12T07:21:34.000Z</time>
      </trkpt>
      <trkpt lat="43.29322096891701221466064453125" lon="-5.01482083462178707122802734375">
        <ele>812.4000244140625</ele>
        <time>2019-07-12T07:21:35.000Z</time>
      </trkpt>
      <trkpt lat="43.29327930696308612823486328125" lon="-5.014683119952678680419921875">
        <ele>811</ele>
        <time>2019-07-12T07:21:36.000Z</time>
      </trkpt>
      <trkpt lat="43.293334878981113433837890625" lon="-5.01454423181712627410888671875">
        <ele>809.5999755859375</ele>
        <time>2019-07-12T07:21:37.000Z</time>
      </trkpt>
      <trkpt lat="43.2933863438665866851806640625" lon="-5.0144023261964321136474609375">
        <ele>808.20001220703125</ele>
        <time>2019-07-12T07:21:38.000Z</time>
      </trkpt>
      <trkpt lat="43.29343152232468128204345703125" lon="-5.0142558105289936065673828125">
        <ele>807</ele>
        <time>2019-07-12T07:21:39.000Z</time>
      </trkpt>
      <trkpt lat="43.29346940852701663970947265625" lon="-5.0141056068241596221923828125">
        <ele>805.79998779296875</ele>
        <time>2019-07-12T07:21:40.000Z</time>
      </trkpt>
      <trkpt lat="43.29350008629262447357177734375" lon="-5.0139520503580570220947265625">
        <ele>804.4000244140625</ele>
        <time>2019-07-12T07:21:41.000Z</time>
      </trkpt>
      <trkpt lat="43.29352439381182193756103515625" lon="-5.0137961469590663909912109375">
        <ele>802.79998779296875</ele>
        <time>2019-07-12T07:21:42.000Z</time>
      </trkpt>
      <trkpt lat="43.29354752786457538604736328125" lon="-5.01364049501717090606689453125">
        <ele>801</ele>
        <time>2019-07-12T07:21:43.000Z</time>
      </trkpt>
      <trkpt lat="43.29358072020113468170166015625" lon="-5.01348978839814662933349609375">
        <ele>799.4000244140625</ele>
        <time>2019-07-12T07:21:44.000Z</time>
      </trkpt>
      <trkpt lat="43.29363034106791019439697265625" lon="-5.01334796659648418426513671875">
        <ele>798.20001220703125</ele>
        <time>2019-07-12T07:21:45.000Z</time>
      </trkpt>
      <trkpt lat="43.29369119368493556976318359375" lon="-5.0132154487073421478271484375">
        <ele>796.79998779296875</ele>
        <time>2019-07-12T07:21:46.000Z</time>
      </trkpt>
      <trkpt lat="43.29375422559678554534912109375" lon="-5.0130929052829742431640625">
        <ele>795.4000244140625</ele>
        <time>2019-07-12T07:21:47.000Z</time>
      </trkpt>
      <trkpt lat="43.2938175089657306671142578125" lon="-5.01298419199883937835693359375">
        <ele>793.5999755859375</ele>
        <time>2019-07-12T07:21:48.000Z</time>
      </trkpt>
      <trkpt lat="43.29388632439076900482177734375" lon="-5.012895427644252777099609375">
        <ele>792.20001220703125</ele>
        <time>2019-07-12T07:21:49.000Z</time>
      </trkpt>
      <trkpt lat="43.29396662302315235137939453125" lon="-5.01283264718949794769287109375">
        <ele>790.79998779296875</ele>
        <time>2019-07-12T07:21:50.000Z</time>
      </trkpt>
      <trkpt lat="43.29405547119677066802978515625" lon="-5.012802891433238983154296875">
        <ele>789.79998779296875</ele>
        <time>2019-07-12T07:21:51.000Z</time>
      </trkpt>
      <trkpt lat="43.294148258864879608154296875" lon="-5.01280968077480792999267578125">
        <ele>789</ele>
        <time>2019-07-12T07:21:52.000Z</time>
      </trkpt>
      <trkpt lat="43.29424071125686168670654296875" lon="-5.01284547150135040283203125">
        <ele>788.20001220703125</ele>
        <time>2019-07-12T07:21:53.000Z</time>
      </trkpt>
      <trkpt lat="43.2943309843540191650390625" lon="-5.0129051506519317626953125">
        <ele>787.20001220703125</ele>
        <time>2019-07-12T07:21:54.000Z</time>
      </trkpt>
      <trkpt lat="43.29441823996603488922119140625" lon="-5.01298670656979084014892578125">
        <ele>786.20001220703125</ele>
        <time>2019-07-12T07:21:55.000Z</time>
      </trkpt>
      <trkpt lat="43.29449920915067195892333984375" lon="-5.01308762468397617340087890625">
        <ele>785</ele>
        <time>2019-07-12T07:21:56.000Z</time>
      </trkpt>
      <trkpt lat="43.2945742271840572357177734375" lon="-5.0132053904235363006591796875">
        <ele>783.5999755859375</ele>
        <time>2019-07-12T07:21:57.000Z</time>
      </trkpt>
      <trkpt lat="43.2946459762752056121826171875" lon="-5.01333137042820453643798828125">
        <ele>782.20001220703125</ele>
        <time>2019-07-12T07:21:58.000Z</time>
      </trkpt>
      <trkpt lat="43.29471529461443424224853515625" lon="-5.013464055955410003662109375">
        <ele>780.5999755859375</ele>
        <time>2019-07-12T07:21:59.000Z</time>
      </trkpt>
      <trkpt lat="43.29485225491225719451904296875" lon="-5.01374091021716594696044921875">
        <ele>779</ele>
        <time>2019-07-12T07:22:01.000Z</time>
      </trkpt>
      <trkpt lat="43.29492366872727870941162109375" lon="-5.0138823129236698150634765625">
        <ele>777.20001220703125</ele>
        <time>2019-07-12T07:22:02.000Z</time>
      </trkpt>
      <trkpt lat="43.29499893821775913238525390625" lon="-5.01402270980179309844970703125">
        <ele>775</ele>
        <time>2019-07-12T07:22:03.000Z</time>
      </trkpt>
      <trkpt lat="43.29508124850690364837646484375" lon="-5.01415749080479145050048828125">
        <ele>772.4000244140625</ele>
        <time>2019-07-12T07:22:04.000Z</time>
      </trkpt>
      <trkpt lat="43.295163474977016448974609375" lon="-5.01429411582648754119873046875">
        <ele>770.20001220703125</ele>
        <time>2019-07-12T07:22:05.000Z</time>
      </trkpt>
      <trkpt lat="43.29523614607751369476318359375" lon="-5.014440380036830902099609375">
        <ele>768</ele>
        <time>2019-07-12T07:22:06.000Z</time>
      </trkpt>
      <trkpt lat="43.29529264010488986968994140625" lon="-5.0146001391112804412841796875">
        <ele>765.79998779296875</ele>
        <time>2019-07-12T07:22:07.000Z</time>
      </trkpt>
      <trkpt lat="43.2953312806785106658935546875" lon="-5.01477154903113842010498046875">
        <ele>763.79998779296875</ele>
        <time>2019-07-12T07:22:08.000Z</time>
      </trkpt>
      <trkpt lat="43.2953574322164058685302734375" lon="-5.01495175994932651519775390625">
        <ele>761.4000244140625</ele>
        <time>2019-07-12T07:22:09.000Z</time>
      </trkpt>
      <trkpt lat="43.29538735561072826385498046875" lon="-5.015132389962673187255859375">
        <ele>759.20001220703125</ele>
        <time>2019-07-12T07:22:10.000Z</time>
      </trkpt>
      <trkpt lat="43.295430354773998260498046875" lon="-5.01530715264379978179931640625">
        <ele>757</ele>
        <time>2019-07-12T07:22:11.000Z</time>
      </trkpt>
      <trkpt lat="43.29548894427716732025146484375" lon="-5.01547177322208881378173828125">
        <ele>755.4000244140625</ele>
        <time>2019-07-12T07:22:12.000Z</time>
      </trkpt>
      <trkpt lat="43.2955545745790004730224609375" lon="-5.01563253812491893768310546875">
        <ele>753.79998779296875</ele>
        <time>2019-07-12T07:22:13.000Z</time>
      </trkpt>
      <trkpt lat="43.295619785785675048828125" lon="-5.0157943926751613616943359375">
        <ele>752.5999755859375</ele>
        <time>2019-07-12T07:22:14.000Z</time>
      </trkpt>
      <trkpt lat="43.2956796325743198394775390625" lon="-5.01595951616764068603515625">
        <ele>750.4000244140625</ele>
        <time>2019-07-12T07:22:15.000Z</time>
      </trkpt>
      <trkpt lat="43.295729421079158782958984375" lon="-5.016131512820720672607421875">
        <ele>748</ele>
        <time>2019-07-12T07:22:16.000Z</time>
      </trkpt>
      <trkpt lat="43.29576529562473297119140625" lon="-5.01630929298698902130126953125">
        <ele>745.20001220703125</ele>
        <time>2019-07-12T07:22:17.000Z</time>
      </trkpt>
      <trkpt lat="43.29579018987715244293212890625" lon="-5.016488917171955108642578125">
        <ele>743.79998779296875</ele>
        <time>2019-07-12T07:22:18.000Z</time>
      </trkpt>
      <trkpt lat="43.29580863006412982940673828125" lon="-5.01667658798396587371826171875">
        <ele>742</ele>
        <time>2019-07-12T07:22:19.000Z</time>
      </trkpt>
      <trkpt lat="43.29582723788917064666748046875" lon="-5.01686098985373973846435546875">
        <ele>740.20001220703125</ele>
        <time>2019-07-12T07:22:20.000Z</time>
      </trkpt>
      <trkpt lat="43.29584584571421146392822265625" lon="-5.0170453079044818878173828125">
        <ele>738</ele>
        <time>2019-07-12T07:22:21.000Z</time>
      </trkpt>
      <trkpt lat="43.2958663813769817352294921875" lon="-5.0172287039458751678466796875">
        <ele>735.79998779296875</ele>
        <time>2019-07-12T07:22:22.000Z</time>
      </trkpt>
      <trkpt lat="43.2958885096013545989990234375" lon="-5.017410926520824432373046875">
        <ele>733.4000244140625</ele>
        <time>2019-07-12T07:22:23.000Z</time>
      </trkpt>
      <trkpt lat="43.295916505157947540283203125" lon="-5.0175921432673931121826171875">
        <ele>731.20001220703125</ele>
        <time>2019-07-12T07:22:24.000Z</time>
      </trkpt>
      <trkpt lat="43.2959537208080291748046875" lon="-5.01776925288140773773193359375">
        <ele>729.20001220703125</ele>
        <time>2019-07-12T07:22:25.000Z</time>
      </trkpt>
      <trkpt lat="43.2960011623799800872802734375" lon="-5.0179411657154560089111328125">
        <ele>727.5999755859375</ele>
        <time>2019-07-12T07:22:26.000Z</time>
      </trkpt>
      <trkpt lat="43.29605363309383392333984375" lon="-5.0181101448833942413330078125">
        <ele>725.79998779296875</ele>
        <time>2019-07-12T07:22:27.000Z</time>
      </trkpt>
      <trkpt lat="43.2961091212928295135498046875" lon="-5.01827719621360301971435546875">
        <ele>724</ele>
        <time>2019-07-12T07:22:28.000Z</time>
      </trkpt>
      <trkpt lat="43.29616368748247623443603515625" lon="-5.0184439122676849365234375">
        <ele>722.4000244140625</ele>
        <time>2019-07-12T07:22:29.000Z</time>
      </trkpt>
      <trkpt lat="43.29621322453022003173828125" lon="-5.0186128914356231689453125">
        <ele>720.79998779296875</ele>
        <time>2019-07-12T07:22:30.000Z</time>
      </trkpt>
      <trkpt lat="43.2962532900273799896240234375" lon="-5.018786229193210601806640625">
        <ele>719</ele>
        <time>2019-07-12T07:22:31.000Z</time>
      </trkpt>
      <trkpt lat="43.2962817884981632232666015625" lon="-5.01896484754979610443115234375">
        <ele>716.79998779296875</ele>
        <time>2019-07-12T07:22:32.000Z</time>
      </trkpt>
      <trkpt lat="43.29630844295024871826171875" lon="-5.019145309925079345703125">
        <ele>714.79998779296875</ele>
        <time>2019-07-12T07:22:33.000Z</time>
      </trkpt>
      <trkpt lat="43.29634222202003002166748046875" lon="-5.0193238444626331329345703125">
        <ele>712.5999755859375</ele>
        <time>2019-07-12T07:22:34.000Z</time>
      </trkpt>
      <trkpt lat="43.29636854119598865509033203125" lon="-5.019501708447933197021484375">
        <ele>710.79998779296875</ele>
        <time>2019-07-12T07:22:35.000Z</time>
      </trkpt>
      <trkpt lat="43.29637876711785793304443359375" lon="-5.0196839310228824615478515625">
        <ele>709.20001220703125</ele>
        <time>2019-07-12T07:22:36.000Z</time>
      </trkpt>
      <trkpt lat="43.29638698138296604156494140625" lon="-5.0198676623404026031494140625">
        <ele>706.79998779296875</ele>
        <time>2019-07-12T07:22:37.000Z</time>
      </trkpt>
      <trkpt lat="43.29640240408480167388916015625" lon="-5.02005348913371562957763671875">
        <ele>704.5999755859375</ele>
        <time>2019-07-12T07:22:38.000Z</time>
      </trkpt>
      <trkpt lat="43.2964239455759525299072265625" lon="-5.02023898065090179443359375">
        <ele>702.20001220703125</ele>
        <time>2019-07-12T07:22:39.000Z</time>
      </trkpt>
      <trkpt lat="43.29644883982837200164794921875" lon="-5.02042413689196109771728515625">
        <ele>700.5999755859375</ele>
        <time>2019-07-12T07:22:40.000Z</time>
      </trkpt>
      <trkpt lat="43.29647482372820377349853515625" lon="-5.020608119666576385498046875">
        <ele>698.5999755859375</ele>
        <time>2019-07-12T07:22:41.000Z</time>
      </trkpt>
      <trkpt lat="43.2965030707418918609619140625" lon="-5.02079243771731853485107421875">
        <ele>696.4000244140625</ele>
        <time>2019-07-12T07:22:42.000Z</time>
      </trkpt>
      <trkpt lat="43.2965382747352123260498046875" lon="-5.0209703855216503143310546875">
        <ele>694.20001220703125</ele>
        <time>2019-07-12T07:22:43.000Z</time>
      </trkpt>
      <trkpt lat="43.29657875932753086090087890625" lon="-5.02114028669893741607666015625">
        <ele>692.20001220703125</ele>
        <time>2019-07-12T07:22:44.000Z</time>
      </trkpt>
      <trkpt lat="43.29662033356726169586181640625" lon="-5.021303482353687286376953125">
        <ele>690.4000244140625</ele>
        <time>2019-07-12T07:22:45.000Z</time>
      </trkpt>
      <trkpt lat="43.296658135950565338134765625" lon="-5.02146382816135883331298828125">
        <ele>688.79998779296875</ele>
        <time>2019-07-12T07:22:46.000Z</time>
      </trkpt>
      <trkpt lat="43.29668571241199970245361328125" lon="-5.0216184742748737335205078125">
        <ele>687.4000244140625</ele>
        <time>2019-07-12T07:22:47.000Z</time>
      </trkpt>
      <trkpt lat="43.29668956808745861053466796875" lon="-5.02177462913095951080322265625">
        <ele>686.20001220703125</ele>
        <time>2019-07-12T07:22:48.000Z</time>
      </trkpt>
      <trkpt lat="43.2966693677008152008056640625" lon="-5.02189901657402515411376953125">
        <ele>684.79998779296875</ele>
        <time>2019-07-12T07:22:49.000Z</time>
      </trkpt>
      <trkpt lat="43.29663357697427272796630859375" lon="-5.02201116643846035003662109375">
        <ele>683.79998779296875</ele>
        <time>2019-07-12T07:22:50.000Z</time>
      </trkpt>
      <trkpt lat="43.2966028153896331787109375" lon="-5.02211225219070911407470703125">
        <ele>683</ele>
        <time>2019-07-12T07:22:51.000Z</time>
      </trkpt>
      <trkpt lat="43.2965920865535736083984375" lon="-5.0222152657806873321533203125">
        <ele>682.4000244140625</ele>
        <time>2019-07-12T07:22:52.000Z</time>
      </trkpt>
      <trkpt lat="43.29661019146442413330078125" lon="-5.022318027913570404052734375">
        <ele>681.79998779296875</ele>
        <time>2019-07-12T07:22:53.000Z</time>
      </trkpt>
      <trkpt lat="43.29671186394989490509033203125" lon="-5.0225103087723255157470703125">
        <ele>681.20001220703125</ele>
        <time>2019-07-12T07:22:55.000Z</time>
      </trkpt>
      <trkpt lat="43.29682753421366214752197265625" lon="-5.022719688713550567626953125">
        <ele>680.20001220703125</ele>
        <time>2019-07-12T07:22:57.000Z</time>
      </trkpt>
      <trkpt lat="43.29687195830047130584716796875" lon="-5.0228432379662990570068359375">
        <ele>679.4000244140625</ele>
        <time>2019-07-12T07:22:58.000Z</time>
      </trkpt>
      <trkpt lat="43.29689408652484416961669921875" lon="-5.02297625876963138580322265625">
        <ele>678.20001220703125</ele>
        <time>2019-07-12T07:22:59.000Z</time>
      </trkpt>
      <trkpt lat="43.296884782612323760986328125" lon="-5.023105256259441375732421875">
        <ele>676.79998779296875</ele>
        <time>2019-07-12T07:23:00.000Z</time>
      </trkpt>
      <trkpt lat="43.296862654387950897216796875" lon="-5.023238025605678558349609375">
        <ele>675.20001220703125</ele>
        <time>2019-07-12T07:23:01.000Z</time>
      </trkpt>
      <trkpt lat="43.296841867268085479736328125" lon="-5.02336903475224971771240234375">
        <ele>673.5999755859375</ele>
        <time>2019-07-12T07:23:02.000Z</time>
      </trkpt>
      <trkpt lat="43.29683541320264339447021484375" lon="-5.0234960205852985382080078125">
        <ele>672.4000244140625</ele>
        <time>2019-07-12T07:23:03.000Z</time>
      </trkpt>
      <trkpt lat="43.296849913895130157470703125" lon="-5.0236197374761104583740234375">
        <ele>671.5999755859375</ele>
        <time>2019-07-12T07:23:04.000Z</time>
      </trkpt>
      <trkpt lat="43.29688511788845062255859375" lon="-5.02373565919697284698486328125">
        <ele>671</ele>
        <time>2019-07-12T07:23:05.000Z</time>
      </trkpt>
      <trkpt lat="43.29693448729813098907470703125" lon="-5.02384847961366176605224609375">
        <ele>670.4000244140625</ele>
        <time>2019-07-12T07:23:06.000Z</time>
      </trkpt>
      <trkpt lat="43.29699651338160037994384765625" lon="-5.0239570252597332000732421875">
        <ele>669.5999755859375</ele>
        <time>2019-07-12T07:23:07.000Z</time>
      </trkpt>
      <trkpt lat="43.2970722019672393798828125" lon="-5.0240586139261722564697265625">
        <ele>668.5999755859375</ele>
        <time>2019-07-12T07:23:08.000Z</time>
      </trkpt>
      <trkpt lat="43.2971551828086376190185546875" lon="-5.02415492199361324310302734375">
        <ele>667.5999755859375</ele>
        <time>2019-07-12T07:23:09.000Z</time>
      </trkpt>
      <trkpt lat="43.297327347099781036376953125" lon="-5.02434401772916316986083984375">
        <ele>665.5999755859375</ele>
        <time>2019-07-12T07:23:11.000Z</time>
      </trkpt>
      <trkpt lat="43.29740823246538639068603515625" lon="-5.02444476820528507232666015625">
        <ele>664.5999755859375</ele>
        <time>2019-07-12T07:23:12.000Z</time>
      </trkpt>
      <trkpt lat="43.29747612588107585906982421875" lon="-5.02455867826938629150390625">
        <ele>663.20001220703125</ele>
        <time>2019-07-12T07:23:13.000Z</time>
      </trkpt>
      <trkpt lat="43.29752482473850250244140625" lon="-5.02468784339725971221923828125">
        <ele>661.79998779296875</ele>
        <time>2019-07-12T07:23:14.000Z</time>
      </trkpt>
      <trkpt lat="43.2975508086383342742919921875" lon="-5.0248253904283046722412109375">
        <ele>660</ele>
        <time>2019-07-12T07:23:15.000Z</time>
      </trkpt>
      <trkpt lat="43.29755139537155628204345703125" lon="-5.0249648652970790863037109375">
        <ele>658.5999755859375</ele>
        <time>2019-07-12T07:23:16.000Z</time>
      </trkpt>
      <trkpt lat="43.2975259982049465179443359375" lon="-5.02509671263396739959716796875">
        <ele>657.4000244140625</ele>
        <time>2019-07-12T07:23:17.000Z</time>
      </trkpt>
      <trkpt lat="43.29748190939426422119140625" lon="-5.0252272188663482666015625">
        <ele>656.4000244140625</ele>
        <time>2019-07-12T07:23:18.000Z</time>
      </trkpt>
      <trkpt lat="43.29743505455553531646728515625" lon="-5.02536191605031490325927734375">
        <ele>655.20001220703125</ele>
        <time>2019-07-12T07:23:19.000Z</time>
      </trkpt>
      <trkpt lat="43.297395408153533935546875" lon="-5.0255003012716770172119140625">
        <ele>654.4000244140625</ele>
        <time>2019-07-12T07:23:20.000Z</time>
      </trkpt>
      <trkpt lat="43.29736179672181606292724609375" lon="-5.02563826739788055419921875">
        <ele>653.79998779296875</ele>
        <time>2019-07-12T07:23:21.000Z</time>
      </trkpt>
      <trkpt lat="43.2973147742450237274169921875" lon="-5.0259143672883510589599609375">
        <ele>651.79998779296875</ele>
        <time>2019-07-12T07:23:23.000Z</time>
      </trkpt>
      <trkpt lat="43.29729876480996608734130859375" lon="-5.0260555185377597808837890625">
        <ele>650.4000244140625</ele>
        <time>2019-07-12T07:23:24.000Z</time>
      </trkpt>
      <trkpt lat="43.2973010279238224029541015625" lon="-5.02619910053908824920654296875">
        <ele>649</ele>
        <time>2019-07-12T07:23:25.000Z</time>
      </trkpt>
      <trkpt lat="43.29732541926205158233642578125" lon="-5.0263394974172115325927734375">
        <ele>648.4000244140625</ele>
        <time>2019-07-12T07:23:26.000Z</time>
      </trkpt>
      <trkpt lat="43.2973627187311649322509765625" lon="-5.0264719314873218536376953125">
        <ele>647.79998779296875</ele>
        <time>2019-07-12T07:23:27.000Z</time>
      </trkpt>
      <trkpt lat="43.297431282699108123779296875" lon="-5.02673797309398651123046875">
        <ele>646.5999755859375</ele>
        <time>2019-07-12T07:23:29.000Z</time>
      </trkpt>
      <trkpt lat="43.29744435846805572509765625" lon="-5.02687367610633373260498046875">
        <ele>645.4000244140625</ele>
        <time>2019-07-12T07:23:30.000Z</time>
      </trkpt>
      <trkpt lat="43.29744377173483371734619140625" lon="-5.02702035941183567047119140625">
        <ele>644.20001220703125</ele>
        <time>2019-07-12T07:23:31.000Z</time>
      </trkpt>
      <trkpt lat="43.2974428497254848480224609375" lon="-5.02716737799346446990966796875">
        <ele>643</ele>
        <time>2019-07-12T07:23:32.000Z</time>
      </trkpt>
      <trkpt lat="43.2974562607705593109130859375" lon="-5.027312301099300384521484375">
        <ele>642</ele>
        <time>2019-07-12T07:23:33.000Z</time>
      </trkpt>
      <trkpt lat="43.29749372787773609161376953125" lon="-5.027449429035186767578125">
        <ele>641.20001220703125</ele>
        <time>2019-07-12T07:23:34.000Z</time>
      </trkpt>
      <trkpt lat="43.29753018915653228759765625" lon="-5.02756954170763492584228515625">
        <ele>640.20001220703125</ele>
        <time>2019-07-12T07:23:35.000Z</time>
      </trkpt>
      <trkpt lat="43.297553993761539459228515625" lon="-5.0276814401149749755859375">
        <ele>639.20001220703125</ele>
        <time>2019-07-12T07:23:36.000Z</time>
      </trkpt>
      <trkpt lat="43.29754133708775043487548828125" lon="-5.02777464687824249267578125">
        <ele>637.79998779296875</ele>
        <time>2019-07-12T07:23:37.000Z</time>
      </trkpt>
      <trkpt lat="43.29750445671379566192626953125" lon="-5.0278666801750659942626953125">
        <ele>636.5999755859375</ele>
        <time>2019-07-12T07:23:38.000Z</time>
      </trkpt>
      <trkpt lat="43.29745768569409847259521484375" lon="-5.02796315588057041168212890625">
        <ele>635.5999755859375</ele>
        <time>2019-07-12T07:23:39.000Z</time>
      </trkpt>
      <trkpt lat="43.29726892523467540740966796875" lon="-5.0282589532434940338134765625">
        <ele>634.20001220703125</ele>
        <time>2019-07-12T07:23:42.000Z</time>
      </trkpt>
      <trkpt lat="43.2971407659351825714111328125" lon="-5.028475709259510040283203125">
        <ele>632.79998779296875</ele>
        <time>2019-07-12T07:23:44.000Z</time>
      </trkpt>
      <trkpt lat="43.29708050005137920379638671875" lon="-5.0285905413329601287841796875">
        <ele>631.4000244140625</ele>
        <time>2019-07-12T07:23:45.000Z</time>
      </trkpt>
      <trkpt lat="43.29703154973685741424560546875" lon="-5.0287186168134212493896484375">
        <ele>630.20001220703125</ele>
        <time>2019-07-12T07:23:46.000Z</time>
      </trkpt>
      <trkpt lat="43.29695175401866436004638671875" lon="-5.0289935432374477386474609375">
        <ele>628.4000244140625</ele>
        <time>2019-07-12T07:23:48.000Z</time>
      </trkpt>
      <trkpt lat="43.29692426137626171112060546875" lon="-5.0291310064494609832763671875">
        <ele>627.4000244140625</ele>
        <time>2019-07-12T07:23:49.000Z</time>
      </trkpt>
      <trkpt lat="43.296906240284442901611328125" lon="-5.0292604230344295501708984375">
        <ele>626</ele>
        <time>2019-07-12T07:23:50.000Z</time>
      </trkpt>
      <trkpt lat="43.29691328108310699462890625" lon="-5.029380284249782562255859375">
        <ele>624.5999755859375</ele>
        <time>2019-07-12T07:23:51.000Z</time>
      </trkpt>
      <trkpt lat="43.2970039732754230499267578125" lon="-5.0295688770711421966552734375">
        <ele>622.79998779296875</ele>
        <time>2019-07-12T07:23:53.000Z</time>
      </trkpt>
      <trkpt lat="43.297187872231006622314453125" lon="-5.029643140733242034912109375">
        <ele>621.20001220703125</ele>
        <time>2019-07-12T07:23:55.000Z</time>
      </trkpt>
      <trkpt lat="43.2973751239478588104248046875" lon="-5.0295883230865001678466796875">
        <ele>619.5999755859375</ele>
        <time>2019-07-12T07:23:57.000Z</time>
      </trkpt>
      <trkpt lat="43.29755030572414398193359375" lon="-5.029500313103199005126953125">
        <ele>617.79998779296875</ele>
        <time>2019-07-12T07:23:59.000Z</time>
      </trkpt>
      <trkpt lat="43.297639824450016021728515625" lon="-5.029474832117557525634765625">
        <ele>616.4000244140625</ele>
        <time>2019-07-12T07:24:00.000Z</time>
      </trkpt>
      <trkpt lat="43.29772925935685634613037109375" lon="-5.02947256900370121002197265625">
        <ele>615.20001220703125</ele>
        <time>2019-07-12T07:24:01.000Z</time>
      </trkpt>
      <trkpt lat="43.29781316220760345458984375" lon="-5.0294770114123821258544921875">
        <ele>614</ele>
        <time>2019-07-12T07:24:02.000Z</time>
      </trkpt>
      <trkpt lat="43.29789220355451107025146484375" lon="-5.02948614768683910369873046875">
        <ele>613</ele>
        <time>2019-07-12T07:24:03.000Z</time>
      </trkpt>
      <trkpt lat="43.29796562902629375457763671875" lon="-5.029492266476154327392578125">
        <ele>612</ele>
        <time>2019-07-12T07:24:04.000Z</time>
      </trkpt>
      <trkpt lat="43.2980332709848880767822265625" lon="-5.029488243162631988525390625">
        <ele>611.20001220703125</ele>
        <time>2019-07-12T07:24:05.000Z</time>
      </trkpt>
      <trkpt lat="43.29809403978288173675537109375" lon="-5.029455721378326416015625">
        <ele>610.5999755859375</ele>
        <time>2019-07-12T07:24:06.000Z</time>
      </trkpt>
      <trkpt lat="43.2981462590396404266357421875" lon="-5.02939562313258647918701171875">
        <ele>610</ele>
        <time>2019-07-12T07:24:07.000Z</time>
      </trkpt>
      <trkpt lat="43.2981898449361324310302734375" lon="-5.02931331284344196319580078125">
        <ele>609.4000244140625</ele>
        <time>2019-07-12T07:24:08.000Z</time>
      </trkpt>
      <trkpt lat="43.298221863806247711181640625" lon="-5.02921189181506633758544921875">
        <ele>609</ele>
        <time>2019-07-12T07:24:09.000Z</time>
      </trkpt>
      <trkpt lat="43.29824591986835002899169921875" lon="-5.02910041250288486480712890625">
        <ele>608.4000244140625</ele>
        <time>2019-07-12T07:24:10.000Z</time>
      </trkpt>
      <trkpt lat="43.29826989211142063140869140625" lon="-5.02899396233260631561279296875">
        <ele>607.79998779296875</ele>
        <time>2019-07-12T07:24:11.000Z</time>
      </trkpt>
      <trkpt lat="43.2983075268566608428955078125" lon="-5.028899498283863067626953125">
        <ele>607</ele>
        <time>2019-07-12T07:24:12.000Z</time>
      </trkpt>
      <trkpt lat="43.29835941083729267120361328125" lon="-5.02882397733628749847412109375">
        <ele>606</ele>
        <time>2019-07-12T07:24:13.000Z</time>
      </trkpt>
      <trkpt lat="43.2984272204339504241943359375" lon="-5.02877552993595600128173828125">
        <ele>604.79998779296875</ele>
        <time>2019-07-12T07:24:14.000Z</time>
      </trkpt>
      <trkpt lat="43.298592679202556610107421875" lon="-5.02880067564547061920166015625">
        <ele>603.20001220703125</ele>
        <time>2019-07-12T07:24:16.000Z</time>
      </trkpt>
      <trkpt lat="43.29875520430505275726318359375" lon="-5.0289528071880340576171875">
        <ele>601.5999755859375</ele>
        <time>2019-07-12T07:24:18.000Z</time>
      </trkpt>
      <trkpt lat="43.29881764948368072509765625" lon="-5.0290386378765106201171875">
        <ele>600.5999755859375</ele>
        <time>2019-07-12T07:24:19.000Z</time>
      </trkpt>
      <trkpt lat="43.29888604581356048583984375" lon="-5.02913377247750759124755859375">
        <ele>599.4000244140625</ele>
        <time>2019-07-12T07:24:20.000Z</time>
      </trkpt>
      <trkpt lat="43.29896056093275547027587890625" lon="-5.02923016436398029327392578125">
        <ele>598.4000244140625</ele>
        <time>2019-07-12T07:24:21.000Z</time>
      </trkpt>
      <trkpt lat="43.2990404404699802398681640625" lon="-5.02933007664978504180908203125">
        <ele>597.20001220703125</ele>
        <time>2019-07-12T07:24:22.000Z</time>
      </trkpt>
      <trkpt lat="43.29912451095879077911376953125" lon="-5.02942822873592376708984375">
        <ele>596.20001220703125</ele>
        <time>2019-07-12T07:24:23.000Z</time>
      </trkpt>
      <trkpt lat="43.29921201802790164947509765625" lon="-5.02952788956463336944580078125">
        <ele>595</ele>
        <time>2019-07-12T07:24:24.000Z</time>
      </trkpt>
      <trkpt lat="43.29929918982088565826416015625" lon="-5.0296265445649623870849609375">
        <ele>593.79998779296875</ele>
        <time>2019-07-12T07:24:25.000Z</time>
      </trkpt>
      <trkpt lat="43.29938585869967937469482421875" lon="-5.02972670830786228179931640625">
        <ele>592.4000244140625</ele>
        <time>2019-07-12T07:24:26.000Z</time>
      </trkpt>
      <trkpt lat="43.2994699291884899139404296875" lon="-5.0298297218978404998779296875">
        <ele>591.20001220703125</ele>
        <time>2019-07-12T07:24:27.000Z</time>
      </trkpt>
      <trkpt lat="43.29955215565860271453857421875" lon="-5.0299349986016750335693359375">
        <ele>590</ele>
        <time>2019-07-12T07:24:28.000Z</time>
      </trkpt>
      <trkpt lat="43.29963211901485919952392578125" lon="-5.0300298817455768585205078125">
        <ele>588.5999755859375</ele>
        <time>2019-07-12T07:24:29.000Z</time>
      </trkpt>
      <trkpt lat="43.29970705322921276092529296875" lon="-5.03011286258697509765625">
        <ele>587.20001220703125</ele>
        <time>2019-07-12T07:24:30.000Z</time>
      </trkpt>
      <trkpt lat="43.29978534020483493804931640625" lon="-5.030179917812347412109375">
        <ele>585.79998779296875</ele>
        <time>2019-07-12T07:24:31.000Z</time>
      </trkpt>
      <trkpt lat="43.29987443983554840087890625" lon="-5.03022216260433197021484375">
        <ele>584.79998779296875</ele>
        <time>2019-07-12T07:24:32.000Z</time>
      </trkpt>
      <trkpt lat="43.2999735139310359954833984375" lon="-5.03024227917194366455078125">
        <ele>584</ele>
        <time>2019-07-12T07:24:33.000Z</time>
      </trkpt>
      <trkpt lat="43.30007535405457019805908203125" lon="-5.03025812096893787384033203125">
        <ele>583.20001220703125</ele>
        <time>2019-07-12T07:24:34.000Z</time>
      </trkpt>
      <trkpt lat="43.30017308704555034637451171875" lon="-5.030293576419353485107421875">
        <ele>582.20001220703125</ele>
        <time>2019-07-12T07:24:35.000Z</time>
      </trkpt>
      <trkpt lat="43.30026201903820037841796875" lon="-5.03035551868379116058349609375">
        <ele>580.79998779296875</ele>
        <time>2019-07-12T07:24:36.000Z</time>
      </trkpt>
      <trkpt lat="43.30033888109028339385986328125" lon="-5.0304469652473926544189453125">
        <ele>579.5999755859375</ele>
        <time>2019-07-12T07:24:37.000Z</time>
      </trkpt>
      <trkpt lat="43.30040409229695796966552734375" lon="-5.03055551089346408843994140625">
        <ele>578.20001220703125</ele>
        <time>2019-07-12T07:24:38.000Z</time>
      </trkpt>
      <trkpt lat="43.30046159215271472930908203125" lon="-5.03067436628043651580810546875">
        <ele>577</ele>
        <time>2019-07-12T07:24:39.000Z</time>
      </trkpt>
      <trkpt lat="43.30051640979945659637451171875" lon="-5.03079749643802642822265625">
        <ele>575.79998779296875</ele>
        <time>2019-07-12T07:24:40.000Z</time>
      </trkpt>
      <trkpt lat="43.30057072453200817108154296875" lon="-5.03092221915721893310546875">
        <ele>574.79998779296875</ele>
        <time>2019-07-12T07:24:41.000Z</time>
      </trkpt>
      <trkpt lat="43.30066409893333911895751953125" lon="-5.03117526881396770477294921875">
        <ele>573</ele>
        <time>2019-07-12T07:24:43.000Z</time>
      </trkpt>
      <trkpt lat="43.3006963692605495452880859375" lon="-5.031450279057025909423828125">
        <ele>570.79998779296875</ele>
        <time>2019-07-12T07:24:45.000Z</time>
      </trkpt>
      <trkpt lat="43.30069310031831264495849609375" lon="-5.031593777239322662353515625">
        <ele>569.4000244140625</ele>
        <time>2019-07-12T07:24:46.000Z</time>
      </trkpt>
      <trkpt lat="43.3006896637380123138427734375" lon="-5.03173165954649448394775390625">
        <ele>568.20001220703125</ele>
        <time>2019-07-12T07:24:47.000Z</time>
      </trkpt>
      <trkpt lat="43.300698213279247283935546875" lon="-5.0318611599504947662353515625">
        <ele>567</ele>
        <time>2019-07-12T07:24:48.000Z</time>
      </trkpt>
      <trkpt lat="43.30077423714101314544677734375" lon="-5.0320928357541561126708984375">
        <ele>565.79998779296875</ele>
        <time>2019-07-12T07:24:50.000Z</time>
      </trkpt>
      <trkpt lat="43.30087917856872081756591796875" lon="-5.03230380825698375701904296875">
        <ele>564.4000244140625</ele>
        <time>2019-07-12T07:24:52.000Z</time>
      </trkpt>
      <trkpt lat="43.300920166075229644775390625" lon="-5.03242836333811283111572265625">
        <ele>563.4000244140625</ele>
        <time>2019-07-12T07:24:53.000Z</time>
      </trkpt>
      <trkpt lat="43.30094673670828342437744140625" lon="-5.0325699336826801300048828125">
        <ele>562.20001220703125</ele>
        <time>2019-07-12T07:24:54.000Z</time>
      </trkpt>
      <trkpt lat="43.300975821912288665771484375" lon="-5.03272541798651218414306640625">
        <ele>560.79998779296875</ele>
        <time>2019-07-12T07:24:55.000Z</time>
      </trkpt>
      <trkpt lat="43.30101194791495800018310546875" lon="-5.032887272536754608154296875">
        <ele>559.5999755859375</ele>
        <time>2019-07-12T07:24:56.000Z</time>
      </trkpt>
      <trkpt lat="43.30105670727789402008056640625" lon="-5.03303471021354198455810546875">
        <ele>558.5999755859375</ele>
        <time>2019-07-12T07:24:57.000Z</time>
      </trkpt>
      <trkpt lat="43.301113285124301910400390625" lon="-5.03317058086395263671875">
        <ele>557.4000244140625</ele>
        <time>2019-07-12T07:24:58.000Z</time>
      </trkpt>
      <trkpt lat="43.3011771552264690399169921875" lon="-5.03328884951770305633544921875">
        <ele>556.4000244140625</ele>
        <time>2019-07-12T07:24:59.000Z</time>
      </trkpt>
      <trkpt lat="43.30125368200242519378662109375" lon="-5.03339563496410846710205078125">
        <ele>555.20001220703125</ele>
        <time>2019-07-12T07:25:00.000Z</time>
      </trkpt>
      <trkpt lat="43.301333226263523101806640625" lon="-5.0334973074495792388916015625">
        <ele>553.79998779296875</ele>
        <time>2019-07-12T07:25:01.000Z</time>
      </trkpt>
      <trkpt lat="43.30141830258071422576904296875" lon="-5.033603422343730926513671875">
        <ele>552.79998779296875</ele>
        <time>2019-07-12T07:25:02.000Z</time>
      </trkpt>
      <trkpt lat="43.30149927176535129547119140625" lon="-5.033709369599819183349609375">
        <ele>551.5999755859375</ele>
        <time>2019-07-12T07:25:03.000Z</time>
      </trkpt>
      <trkpt lat="43.30157420597970485687255859375" lon="-5.03381104208528995513916015625">
        <ele>550.5999755859375</ele>
        <time>2019-07-12T07:25:04.000Z</time>
      </trkpt>
      <trkpt lat="43.30165048129856586456298828125" lon="-5.03390726633369922637939453125">
        <ele>549.4000244140625</ele>
        <time>2019-07-12T07:25:05.000Z</time>
      </trkpt>
      <trkpt lat="43.30172407440841197967529296875" lon="-5.03399209119379520416259765625">
        <ele>548.20001220703125</ele>
        <time>2019-07-12T07:25:06.000Z</time>
      </trkpt>
      <trkpt lat="43.30178760923445224761962890625" lon="-5.0340659357607364654541015625">
        <ele>547.20001220703125</ele>
        <time>2019-07-12T07:25:07.000Z</time>
      </trkpt>
      <trkpt lat="43.301832117140293121337890625" lon="-5.03413374535739421844482421875">
        <ele>546.20001220703125</ele>
        <time>2019-07-12T07:25:08.000Z</time>
      </trkpt>
      <trkpt lat="43.30185382626950740814208984375" lon="-5.03420013003051280975341796875">
        <ele>545.20001220703125</ele>
        <time>2019-07-12T07:25:09.000Z</time>
      </trkpt>
      <trkpt lat="43.30184745602309703826904296875" lon="-5.03426249139010906219482421875">
        <ele>544.20001220703125</ele>
        <time>2019-07-12T07:25:10.000Z</time>
      </trkpt>
      <trkpt lat="43.30182080157101154327392578125" lon="-5.03430783748626708984375">
        <ele>543.5999755859375</ele>
        <time>2019-07-12T07:25:11.000Z</time>
      </trkpt>
      <trkpt lat="43.30176129005849361419677734375" lon="-5.03429618664085865020751953125">
        <ele>543.20001220703125</ele>
        <time>2019-07-12T07:25:12.000Z</time>
      </trkpt>
      <trkpt lat="43.301649056375026702880859375" lon="-5.03421957604587078094482421875">
        <ele>542.4000244140625</ele>
        <time>2019-07-12T07:25:14.000Z</time>
      </trkpt>
      <trkpt lat="43.301429115235805511474609375" lon="-5.033970214426517486572265625">
        <ele>541.4000244140625</ele>
        <time>2019-07-12T07:25:18.000Z</time>
      </trkpt>
      <trkpt lat="43.3010909892618656158447265625" lon="-5.033720433712005615234375">
        <ele>540.4000244140625</ele>
        <time>2019-07-12T07:25:23.000Z</time>
      </trkpt>
      <trkpt lat="43.300936259329319000244140625" lon="-5.033622197806835174560546875">
        <ele>539.79998779296875</ele>
        <time>2019-07-12T07:25:25.000Z</time>
      </trkpt>
      <trkpt lat="43.3006061799824237823486328125" lon="-5.0333704054355621337890625">
        <ele>539.20001220703125</ele>
        <time>2019-07-12T07:25:29.000Z</time>
      </trkpt>
      <trkpt lat="43.30041800625622272491455078125" lon="-5.03323738463222980499267578125">
        <ele>538</ele>
        <time>2019-07-12T07:25:31.000Z</time>
      </trkpt>
      <trkpt lat="43.30022555775940418243408203125" lon="-5.03310377709567546844482421875">
        <ele>536.4000244140625</ele>
        <time>2019-07-12T07:25:33.000Z</time>
      </trkpt>
      <trkpt lat="43.29995063133537769317626953125" lon="-5.032951645553112030029296875">
        <ele>534.79998779296875</ele>
        <time>2019-07-12T07:25:36.000Z</time>
      </trkpt>
      <trkpt lat="43.2998622022569179534912109375" lon="-5.0329280085861682891845703125">
        <ele>534.20001220703125</ele>
        <time>2019-07-12T07:25:37.000Z</time>
      </trkpt>
      <trkpt lat="43.2997693307697772979736328125" lon="-5.03293463028967380523681640625">
        <ele>533.5999755859375</ele>
        <time>2019-07-12T07:25:38.000Z</time>
      </trkpt>
      <trkpt lat="43.299683667719364166259765625" lon="-5.03298006020486354827880859375">
        <ele>533</ele>
        <time>2019-07-12T07:25:39.000Z</time>
      </trkpt>
      <trkpt lat="43.29959959723055362701416015625" lon="-5.0330480374395847320556640625">
        <ele>532.20001220703125</ele>
        <time>2019-07-12T07:25:40.000Z</time>
      </trkpt>
      <trkpt lat="43.29953849315643310546875" lon="-5.0331372208893299102783203125">
        <ele>531.4000244140625</ele>
        <time>2019-07-12T07:25:41.000Z</time>
      </trkpt>
      <trkpt lat="43.29950756393373012542724609375" lon="-5.03324811346828937530517578125">
        <ele>530.5999755859375</ele>
        <time>2019-07-12T07:25:42.000Z</time>
      </trkpt>
      <trkpt lat="43.29950991086661815643310546875" lon="-5.0333786197006702423095703125">
        <ele>530</ele>
        <time>2019-07-12T07:25:43.000Z</time>
      </trkpt>
      <trkpt lat="43.29953782260417938232421875" lon="-5.0335234589874744415283203125">
        <ele>529.4000244140625</ele>
        <time>2019-07-12T07:25:44.000Z</time>
      </trkpt>
      <trkpt lat="43.2996814884245395660400390625" lon="-5.03399200737476348876953125">
        <ele>527.20001220703125</ele>
        <time>2019-07-12T07:25:47.000Z</time>
      </trkpt>
      <trkpt lat="43.2997327856719493865966796875" lon="-5.0341534428298473358154296875">
        <ele>525.79998779296875</ele>
        <time>2019-07-12T07:25:48.000Z</time>
      </trkpt>
      <trkpt lat="43.299782909452915191650390625" lon="-5.03431797958910465240478515625">
        <ele>524.4000244140625</ele>
        <time>2019-07-12T07:25:49.000Z</time>
      </trkpt>
      <trkpt lat="43.2998323626816272735595703125" lon="-5.03448477946221828460693359375">
        <ele>523.20001220703125</ele>
        <time>2019-07-12T07:25:50.000Z</time>
      </trkpt>
      <trkpt lat="43.29987846314907073974609375" lon="-5.03465116024017333984375">
        <ele>522.20001220703125</ele>
        <time>2019-07-12T07:25:51.000Z</time>
      </trkpt>
      <trkpt lat="43.29992816783487796783447265625" lon="-5.03482223488390445709228515625">
        <ele>520.79998779296875</ele>
        <time>2019-07-12T07:25:52.000Z</time>
      </trkpt>
      <trkpt lat="43.29997711814939975738525390625" lon="-5.03499624319374561309814453125">
        <ele>519.20001220703125</ele>
        <time>2019-07-12T07:25:53.000Z</time>
      </trkpt>
      <trkpt lat="43.30001668073236942291259765625" lon="-5.03517427481710910797119140625">
        <ele>518</ele>
        <time>2019-07-12T07:25:54.000Z</time>
      </trkpt>
      <trkpt lat="43.300049789249897003173828125" lon="-5.03535834141075611114501953125">
        <ele>516.5999755859375</ele>
        <time>2019-07-12T07:25:55.000Z</time>
      </trkpt>
      <trkpt lat="43.3000771142542362213134765625" lon="-5.035546012222766876220703125">
        <ele>515.4000244140625</ele>
        <time>2019-07-12T07:25:56.000Z</time>
      </trkpt>
      <trkpt lat="43.30009974539279937744140625" lon="-5.03571792505681514739990234375">
        <ele>514</ele>
        <time>2019-07-12T07:25:57.000Z</time>
      </trkpt>
      <trkpt lat="43.300118185579776763916015625" lon="-5.035890005528926849365234375">
        <ele>512.5999755859375</ele>
        <time>2019-07-12T07:25:58.000Z</time>
      </trkpt>
      <trkpt lat="43.30013461410999298095703125" lon="-5.03605990670621395111083984375">
        <ele>511.399993896484375</ele>
        <time>2019-07-12T07:25:59.000Z</time>
      </trkpt>
      <trkpt lat="43.3001616038382053375244140625" lon="-5.0362284667789936065673828125">
        <ele>510.600006103515625</ele>
        <time>2019-07-12T07:26:00.000Z</time>
      </trkpt>
      <trkpt lat="43.300199322402477264404296875" lon="-5.036388896405696868896484375">
        <ele>509.600006103515625</ele>
        <time>2019-07-12T07:26:01.000Z</time>
      </trkpt>
      <trkpt lat="43.300251625478267669677734375" lon="-5.0365375913679599761962890625">
        <ele>508.600006103515625</ele>
        <time>2019-07-12T07:26:02.000Z</time>
      </trkpt>
      <trkpt lat="43.3003087900578975677490234375" lon="-5.03667748533189296722412109375">
        <ele>507.600006103515625</ele>
        <time>2019-07-12T07:26:03.000Z</time>
      </trkpt>
      <trkpt lat="43.300363607704639434814453125" lon="-5.0368158705532550811767578125">
        <ele>506.600006103515625</ele>
        <time>2019-07-12T07:26:04.000Z</time>
      </trkpt>
      <trkpt lat="43.300401829183101654052734375" lon="-5.036952495574951171875">
        <ele>505.600006103515625</ele>
        <time>2019-07-12T07:26:05.000Z</time>
      </trkpt>
      <trkpt lat="43.3004258014261722564697265625" lon="-5.03708065487444400787353515625">
        <ele>504.79998779296875</ele>
        <time>2019-07-12T07:26:06.000Z</time>
      </trkpt>
      <trkpt lat="43.30042890273034572601318359375" lon="-5.03719951026141643524169921875">
        <ele>503.79998779296875</ele>
        <time>2019-07-12T07:26:07.000Z</time>
      </trkpt>
      <trkpt lat="43.30041582696139812469482421875" lon="-5.03729875199496746063232421875">
        <ele>503</ele>
        <time>2019-07-12T07:26:08.000Z</time>
      </trkpt>
      <trkpt lat="43.3003939501941204071044921875" lon="-5.03738676197826862335205078125">
        <ele>502</ele>
        <time>2019-07-12T07:26:09.000Z</time>
      </trkpt>
      <trkpt lat="43.30037056468427181243896484375" lon="-5.03751869313418865203857421875">
        <ele>500.399993896484375</ele>
        <time>2019-07-12T07:26:11.000Z</time>
      </trkpt>
      <trkpt lat="43.300450779497623443603515625" lon="-5.03756663762032985687255859375">
        <ele>499.399993896484375</ele>
        <time>2019-07-12T07:26:13.000Z</time>
      </trkpt>
      <trkpt lat="43.300517499446868896484375" lon="-5.03747217357158660888671875">
        <ele>498.399993896484375</ele>
        <time>2019-07-12T07:26:15.000Z</time>
      </trkpt>
      <trkpt lat="43.30050920136272907257080078125" lon="-5.03724552690982818603515625">
        <ele>497.20001220703125</ele>
        <time>2019-07-12T07:26:17.000Z</time>
      </trkpt>
      <trkpt lat="43.3005200140178203582763671875" lon="-5.03711116500198841094970703125">
        <ele>496.79998779296875</ele>
        <time>2019-07-12T07:26:18.000Z</time>
      </trkpt>
      <trkpt lat="43.30058748833835124969482421875" lon="-5.03685032017529010772705078125">
        <ele>495.79998779296875</ele>
        <time>2019-07-12T07:26:20.000Z</time>
      </trkpt>
      <trkpt lat="43.30072344280779361724853515625" lon="-5.03661797381937503814697265625">
        <ele>494.600006103515625</ele>
        <time>2019-07-12T07:26:22.000Z</time>
      </trkpt>
      <trkpt lat="43.30086543224751949310302734375" lon="-5.03642074763774871826171875">
        <ele>493.399993896484375</ele>
        <time>2019-07-12T07:26:24.000Z</time>
      </trkpt>
      <trkpt lat="43.30093248747289180755615234375" lon="-5.0363414548337459564208984375">
        <ele>492.600006103515625</ele>
        <time>2019-07-12T07:26:25.000Z</time>
      </trkpt>
      <trkpt lat="43.3010014705359935760498046875" lon="-5.03628588281571865081787109375">
        <ele>491.79998779296875</ele>
        <time>2019-07-12T07:26:26.000Z</time>
      </trkpt>
      <trkpt lat="43.3010686933994293212890625" lon="-5.03625587560236454010009765625">
        <ele>490.79998779296875</ele>
        <time>2019-07-12T07:26:27.000Z</time>
      </trkpt>
      <trkpt lat="43.301127366721630096435546875" lon="-5.03625218756496906280517578125">
        <ele>490</ele>
        <time>2019-07-12T07:26:28.000Z</time>
      </trkpt>
      <trkpt lat="43.301179669797420501708984375" lon="-5.03628839738667011260986328125">
        <ele>489.600006103515625</ele>
        <time>2019-07-12T07:26:29.000Z</time>
      </trkpt>
      <trkpt lat="43.30125619657337665557861328125" lon="-5.03645251505076885223388671875">
        <ele>488.79998779296875</ele>
        <time>2019-07-12T07:26:31.000Z</time>
      </trkpt>
      <trkpt lat="43.301349319517612457275390625" lon="-5.03681964240968227386474609375">
        <ele>487.399993896484375</ele>
        <time>2019-07-12T07:26:34.000Z</time>
      </trkpt>
      <trkpt lat="43.30146172083914279937744140625" lon="-5.03713111393153667449951171875">
        <ele>486</ele>
        <time>2019-07-12T07:26:36.000Z</time>
      </trkpt>
      <trkpt lat="43.30153397284448146820068359375" lon="-5.03729045391082763671875">
        <ele>485</ele>
        <time>2019-07-12T07:26:37.000Z</time>
      </trkpt>
      <trkpt lat="43.3016063086688518524169921875" lon="-5.03745549358427524566650390625">
        <ele>483.399993896484375</ele>
        <time>2019-07-12T07:26:38.000Z</time>
      </trkpt>
      <trkpt lat="43.30167462117969989776611328125" lon="-5.03761927597224712371826171875">
        <ele>481.600006103515625</ele>
        <time>2019-07-12T07:26:39.000Z</time>
      </trkpt>
      <trkpt lat="43.30173949711024761199951171875" lon="-5.0377786159515380859375">
        <ele>479.399993896484375</ele>
        <time>2019-07-12T07:26:40.000Z</time>
      </trkpt>
      <trkpt lat="43.30180236138403415679931640625" lon="-5.037931837141513824462890625">
        <ele>477.399993896484375</ele>
        <time>2019-07-12T07:26:41.000Z</time>
      </trkpt>
      <trkpt lat="43.301858268678188323974609375" lon="-5.03808547742664813995361328125">
        <ele>475.399993896484375</ele>
        <time>2019-07-12T07:26:42.000Z</time>
      </trkpt>
      <trkpt lat="43.301901184022426605224609375" lon="-5.03823936916887760162353515625">
        <ele>473.79998779296875</ele>
        <time>2019-07-12T07:26:43.000Z</time>
      </trkpt>
      <trkpt lat="43.30192373134195804595947265625" lon="-5.03840080462396144866943359375">
        <ele>472.399993896484375</ele>
        <time>2019-07-12T07:26:44.000Z</time>
      </trkpt>
      <trkpt lat="43.3019281737506389617919921875" lon="-5.03855846822261810302734375">
        <ele>471</ele>
        <time>2019-07-12T07:26:45.000Z</time>
      </trkpt>
      <trkpt lat="43.30191652290523052215576171875" lon="-5.03869517706334590911865234375">
        <ele>469.600006103515625</ele>
        <time>2019-07-12T07:26:46.000Z</time>
      </trkpt>
      <trkpt lat="43.30189690925180912017822265625" lon="-5.03884018398821353912353515625">
        <ele>468.399993896484375</ele>
        <time>2019-07-12T07:26:47.000Z</time>
      </trkpt>
      <trkpt lat="43.30189221538603305816650390625" lon="-5.03897429443895816802978515625">
        <ele>467.399993896484375</ele>
        <time>2019-07-12T07:26:48.000Z</time>
      </trkpt>
      <trkpt lat="43.30193865112960338592529296875" lon="-5.03923329524695873260498046875">
        <ele>465.79998779296875</ele>
        <time>2019-07-12T07:26:50.000Z</time>
      </trkpt>
      <trkpt lat="43.3020881004631519317626953125" lon="-5.03945994190871715545654296875">
        <ele>464.79998779296875</ele>
        <time>2019-07-12T07:26:52.000Z</time>
      </trkpt>
      <trkpt lat="43.3021856658160686492919921875" lon="-5.03957695327699184417724609375">
        <ele>464.20001220703125</ele>
        <time>2019-07-12T07:26:53.000Z</time>
      </trkpt>
      <trkpt lat="43.30236629582941532135009765625" lon="-5.0398571603000164031982421875">
        <ele>462.600006103515625</ele>
        <time>2019-07-12T07:26:55.000Z</time>
      </trkpt>
      <trkpt lat="43.30244374461472034454345703125" lon="-5.04000074230134487152099609375">
        <ele>461.20001220703125</ele>
        <time>2019-07-12T07:26:56.000Z</time>
      </trkpt>
      <trkpt lat="43.30252018757164478302001953125" lon="-5.04014256410300731658935546875">
        <ele>459.399993896484375</ele>
        <time>2019-07-12T07:26:57.000Z</time>
      </trkpt>
      <trkpt lat="43.30259419977664947509765625" lon="-5.04028438590466976165771484375">
        <ele>457.20001220703125</ele>
        <time>2019-07-12T07:26:58.000Z</time>
      </trkpt>
      <trkpt lat="43.302673660218715667724609375" lon="-5.0404244475066661834716796875">
        <ele>455.600006103515625</ele>
        <time>2019-07-12T07:26:59.000Z</time>
      </trkpt>
      <trkpt lat="43.30275773070752620697021484375" lon="-5.04056618548929691314697265625">
        <ele>454</ele>
        <time>2019-07-12T07:27:00.000Z</time>
      </trkpt>
      <trkpt lat="43.30284423194825649261474609375" lon="-5.04070968367159366607666015625">
        <ele>452.79998779296875</ele>
        <time>2019-07-12T07:27:01.000Z</time>
      </trkpt>
      <trkpt lat="43.30293224193155765533447265625" lon="-5.0408576242625713348388671875">
        <ele>451.399993896484375</ele>
        <time>2019-07-12T07:27:02.000Z</time>
      </trkpt>
      <trkpt lat="43.30301824025809764862060546875" lon="-5.04100271500647068023681640625">
        <ele>450.20001220703125</ele>
        <time>2019-07-12T07:27:03.000Z</time>
      </trkpt>
      <trkpt lat="43.30310088582336902618408203125" lon="-5.04115082323551177978515625">
        <ele>449</ele>
        <time>2019-07-12T07:27:04.000Z</time>
      </trkpt>
      <trkpt lat="43.30318026244640350341796875" lon="-5.04130412824451923370361328125">
        <ele>447.600006103515625</ele>
        <time>2019-07-12T07:27:05.000Z</time>
      </trkpt>
      <trkpt lat="43.303260393440723419189453125" lon="-5.0414604507386684417724609375">
        <ele>446.20001220703125</ele>
        <time>2019-07-12T07:27:06.000Z</time>
      </trkpt>
      <trkpt lat="43.3033500798046588897705078125" lon="-5.04161174409091472625732421875">
        <ele>444.600006103515625</ele>
        <time>2019-07-12T07:27:07.000Z</time>
      </trkpt>
      <trkpt lat="43.303449153900146484375" lon="-5.0417491234838962554931640625">
        <ele>443.399993896484375</ele>
        <time>2019-07-12T07:27:08.000Z</time>
      </trkpt>
      <trkpt lat="43.30355870537459850311279296875" lon="-5.0418770313262939453125">
        <ele>442.20001220703125</ele>
        <time>2019-07-12T07:27:09.000Z</time>
      </trkpt>
      <trkpt lat="43.303672783076763153076171875" lon="-5.041997395455837249755859375">
        <ele>440.600006103515625</ele>
        <time>2019-07-12T07:27:10.000Z</time>
      </trkpt>
      <trkpt lat="43.30379088409245014190673828125" lon="-5.04211432300508022308349609375">
        <ele>438.79998779296875</ele>
        <time>2019-07-12T07:27:11.000Z</time>
      </trkpt>
      <trkpt lat="43.3039096556603908538818359375" lon="-5.0422302447259426116943359375">
        <ele>437</ele>
        <time>2019-07-12T07:27:12.000Z</time>
      </trkpt>
      <trkpt lat="43.3040216378867626190185546875" lon="-5.042354129254817962646484375">
        <ele>435.399993896484375</ele>
        <time>2019-07-12T07:27:13.000Z</time>
      </trkpt>
      <trkpt lat="43.30413102172315120697021484375" lon="-5.04249150864779949188232421875">
        <ele>433.79998779296875</ele>
        <time>2019-07-12T07:27:14.000Z</time>
      </trkpt>
      <trkpt lat="43.30423571169376373291015625" lon="-5.04263869486749172210693359375">
        <ele>432.20001220703125</ele>
        <time>2019-07-12T07:27:15.000Z</time>
      </trkpt>
      <trkpt lat="43.30433252267539501190185546875" lon="-5.04278856329619884490966796875">
        <ele>430.79998779296875</ele>
        <time>2019-07-12T07:27:16.000Z</time>
      </trkpt>
      <trkpt lat="43.30442572943866252899169921875" lon="-5.0429349951446056365966796875">
        <ele>429.20001220703125</ele>
        <time>2019-07-12T07:27:17.000Z</time>
      </trkpt>
      <trkpt lat="43.3045180141925811767578125" lon="-5.043078996241092681884765625">
        <ele>427.79998779296875</ele>
        <time>2019-07-12T07:27:18.000Z</time>
      </trkpt>
      <trkpt lat="43.30460996367037296295166015625" lon="-5.0432236678898334503173828125">
        <ele>426.399993896484375</ele>
        <time>2019-07-12T07:27:19.000Z</time>
      </trkpt>
      <trkpt lat="43.30469780601561069488525390625" lon="-5.04336507059633731842041015625">
        <ele>424.79998779296875</ele>
        <time>2019-07-12T07:27:20.000Z</time>
      </trkpt>
      <trkpt lat="43.304781205952167510986328125" lon="-5.043483339250087738037109375">
        <ele>423</ele>
        <time>2019-07-12T07:27:21.000Z</time>
      </trkpt>
      <trkpt lat="43.3048531226813793182373046875" lon="-5.043581239879131317138671875">
        <ele>420.79998779296875</ele>
        <time>2019-07-12T07:27:22.000Z</time>
      </trkpt>
      <trkpt lat="43.30492361448705196380615234375" lon="-5.0435857661068439483642578125">
        <ele>418.79998779296875</ele>
        <time>2019-07-12T07:27:23.000Z</time>
      </trkpt>
      <trkpt lat="43.30499385483562946319580078125" lon="-5.0435857661068439483642578125">
        <ele>417.79998779296875</ele>
        <time>2019-07-12T07:27:24.000Z</time>
      </trkpt>
      <trkpt lat="43.3050774224102497100830078125" lon="-5.04356841556727886199951171875">
        <ele>417.20001220703125</ele>
        <time>2019-07-12T07:27:25.000Z</time>
      </trkpt>
      <trkpt lat="43.30516803078353404998779296875" lon="-5.043516866862773895263671875">
        <ele>416.79998779296875</ele>
        <time>2019-07-12T07:27:26.000Z</time>
      </trkpt>
      <trkpt lat="43.30524480901658535003662109375" lon="-5.04346481524407863616943359375">
        <ele>416.399993896484375</ele>
        <time>2019-07-12T07:27:27.000Z</time>
      </trkpt>
      <trkpt lat="43.30530934967100620269775390625" lon="-5.04344386048614978790283203125">
        <ele>416</ele>
        <time>2019-07-12T07:27:28.000Z</time>
      </trkpt>
      <trkpt lat="43.3053550310432910919189453125" lon="-5.04346288740634918212890625">
        <ele>415.20001220703125</ele>
        <time>2019-07-12T07:27:29.000Z</time>
      </trkpt>
      <trkpt lat="43.3053575456142425537109375" lon="-5.0435800664126873016357421875">
        <ele>413.79998779296875</ele>
        <time>2019-07-12T07:27:31.000Z</time>
      </trkpt>
      <trkpt lat="43.30532334744930267333984375" lon="-5.04364133812487125396728515625">
        <ele>413.20001220703125</ele>
        <time>2019-07-12T07:27:32.000Z</time>
      </trkpt>
      <trkpt lat="43.30527632497251033782958984375" lon="-5.04371275193989276885986328125">
        <ele>412.600006103515625</ele>
        <time>2019-07-12T07:27:33.000Z</time>
      </trkpt>
      <trkpt lat="43.30522033385932445526123046875" lon="-5.04378341138362884521484375">
        <ele>412</ele>
        <time>2019-07-12T07:27:34.000Z</time>
      </trkpt>
      <trkpt lat="43.30514254979789257049560546875" lon="-5.04382875747978687286376953125">
        <ele>411.399993896484375</ele>
        <time>2019-07-12T07:27:35.000Z</time>
      </trkpt>
      <trkpt lat="43.30505269579589366912841796875" lon="-5.04384015686810016632080078125">
        <ele>410.79998779296875</ele>
        <time>2019-07-12T07:27:36.000Z</time>
      </trkpt>
      <trkpt lat="43.30496636219322681427001953125" lon="-5.04381970502436161041259765625">
        <ele>410.20001220703125</ele>
        <time>2019-07-12T07:27:37.000Z</time>
      </trkpt>
      <trkpt lat="43.3048977144062519073486328125" lon="-5.04379279911518096923828125">
        <ele>409.79998779296875</ele>
        <time>2019-07-12T07:27:38.000Z</time>
      </trkpt>
      <trkpt lat="43.30462253652513027191162109375" lon="-5.04362306557595729827880859375">
        <ele>408.79998779296875</ele>
        <time>2019-07-12T07:27:41.000Z</time>
      </trkpt>
      <trkpt lat="43.304436542093753814697265625" lon="-5.043469257652759552001953125">
        <ele>407.20001220703125</ele>
        <time>2019-07-12T07:27:43.000Z</time>
      </trkpt>
      <trkpt lat="43.3043441735208034515380859375" lon="-5.0433846004307270050048828125">
        <ele>406.20001220703125</ele>
        <time>2019-07-12T07:27:44.000Z</time>
      </trkpt>
      <trkpt lat="43.30425582826137542724609375" lon="-5.04328787326812744140625">
        <ele>405</ele>
        <time>2019-07-12T07:27:45.000Z</time>
      </trkpt>
      <trkpt lat="43.30416086129844188690185546875" lon="-5.04318821243941783905029296875">
        <ele>403.79998779296875</ele>
        <time>2019-07-12T07:27:46.000Z</time>
      </trkpt>
      <trkpt lat="43.30406832508742809295654296875" lon="-5.043101124465465545654296875">
        <ele>402.600006103515625</ele>
        <time>2019-07-12T07:27:47.000Z</time>
      </trkpt>
      <trkpt lat="43.303964138031005859375" lon="-5.04303381778299808502197265625">
        <ele>401.399993896484375</ele>
        <time>2019-07-12T07:27:48.000Z</time>
      </trkpt>
      <trkpt lat="43.30384788103401660919189453125" lon="-5.04299174062907695770263671875">
        <ele>400.399993896484375</ele>
        <time>2019-07-12T07:27:49.000Z</time>
      </trkpt>
      <trkpt lat="43.3037321269512176513671875" lon="-5.04296257160604000091552734375">
        <ele>399.20001220703125</ele>
        <time>2019-07-12T07:27:50.000Z</time>
      </trkpt>
      <trkpt lat="43.3036179654300212860107421875" lon="-5.04293675534427165985107421875">
        <ele>398.20001220703125</ele>
        <time>2019-07-12T07:27:51.000Z</time>
      </trkpt>
      <trkpt lat="43.30350372008979320526123046875" lon="-5.04290658049285411834716796875">
        <ele>397</ele>
        <time>2019-07-12T07:27:52.000Z</time>
      </trkpt>
      <trkpt lat="43.3033862896263599395751953125" lon="-5.04287405870854854583740234375">
        <ele>395.600006103515625</ele>
        <time>2019-07-12T07:27:53.000Z</time>
      </trkpt>
      <trkpt lat="43.3032608963549137115478515625" lon="-5.04283902235329151153564453125">
        <ele>394.20001220703125</ele>
        <time>2019-07-12T07:27:54.000Z</time>
      </trkpt>
      <trkpt lat="43.30313340760767459869384765625" lon="-5.04280172288417816162109375">
        <ele>392.600006103515625</ele>
        <time>2019-07-12T07:27:55.000Z</time>
      </trkpt>
      <trkpt lat="43.303011618554592132568359375" lon="-5.04275855608284473419189453125">
        <ele>390.79998779296875</ele>
        <time>2019-07-12T07:27:56.000Z</time>
      </trkpt>
      <trkpt lat="43.302893601357936859130859375" lon="-5.042698122560977935791015625">
        <ele>389</ele>
        <time>2019-07-12T07:27:57.000Z</time>
      </trkpt>
      <trkpt lat="43.3027799427509307861328125" lon="-5.04261807538568973541259765625">
        <ele>387.20001220703125</ele>
        <time>2019-07-12T07:27:58.000Z</time>
      </trkpt>
      <trkpt lat="43.3026775158941745758056640625" lon="-5.0425422191619873046875">
        <ele>385.600006103515625</ele>
        <time>2019-07-12T07:27:59.000Z</time>
      </trkpt>
      <trkpt lat="43.30258623696863651275634765625" lon="-5.04247742705047130584716796875">
        <ele>383.600006103515625</ele>
        <time>2019-07-12T07:28:00.000Z</time>
      </trkpt>
      <trkpt lat="43.30249805934727191925048828125" lon="-5.04244121722877025604248046875">
        <ele>381.79998779296875</ele>
        <time>2019-07-12T07:28:01.000Z</time>
      </trkpt>
      <trkpt lat="43.3024084568023681640625" lon="-5.04242629744112491607666015625">
        <ele>380.20001220703125</ele>
        <time>2019-07-12T07:28:02.000Z</time>
      </trkpt>
      <trkpt lat="43.30231566913425922393798828125" lon="-5.0424407981336116790771484375">
        <ele>378.79998779296875</ele>
        <time>2019-07-12T07:28:03.000Z</time>
      </trkpt>
      <trkpt lat="43.3021818101406097412109375" lon="-5.04255504347383975982666015625">
        <ele>377</ele>
        <time>2019-07-12T07:28:05.000Z</time>
      </trkpt>
      <trkpt lat="43.30215238966047763824462890625" lon="-5.0426479987800121307373046875">
        <ele>375.79998779296875</ele>
        <time>2019-07-12T07:28:06.000Z</time>
      </trkpt>
      <trkpt lat="43.30214668996632099151611328125" lon="-5.04275620914995670318603515625">
        <ele>374.79998779296875</ele>
        <time>2019-07-12T07:28:07.000Z</time>
      </trkpt>
      <trkpt lat="43.302186839282512664794921875" lon="-5.04300079308450222015380859375">
        <ele>373.399993896484375</ele>
        <time>2019-07-12T07:28:09.000Z</time>
      </trkpt>
      <trkpt lat="43.3022282458841800689697265625" lon="-5.04327756352722644805908203125">
        <ele>371.600006103515625</ele>
        <time>2019-07-12T07:28:11.000Z</time>
      </trkpt>
      <trkpt lat="43.3022409863770008087158203125" lon="-5.04342458210885524749755859375">
        <ele>370.20001220703125</ele>
        <time>2019-07-12T07:28:12.000Z</time>
      </trkpt>
      <trkpt lat="43.302251882851123809814453125" lon="-5.04359439946711063385009765625">
        <ele>368.600006103515625</ele>
        <time>2019-07-12T07:28:13.000Z</time>
      </trkpt>
      <trkpt lat="43.30225230194628238677978515625" lon="-5.04378517158329486846923828125">
        <ele>367.20001220703125</ele>
        <time>2019-07-12T07:28:14.000Z</time>
      </trkpt>
      <trkpt lat="43.3022520504891872406005859375" lon="-5.04397745244204998016357421875">
        <ele>365.399993896484375</ele>
        <time>2019-07-12T07:28:15.000Z</time>
      </trkpt>
      <trkpt lat="43.30226202495396137237548828125" lon="-5.04418079741299152374267578125">
        <ele>363.399993896484375</ele>
        <time>2019-07-12T07:28:16.000Z</time>
      </trkpt>
      <trkpt lat="43.30227895639836788177490234375" lon="-5.04438078962266445159912109375">
        <ele>361.399993896484375</ele>
        <time>2019-07-12T07:28:17.000Z</time>
      </trkpt>
      <trkpt lat="43.3022862486541271209716796875" lon="-5.0445664487779140472412109375">
        <ele>359.600006103515625</ele>
        <time>2019-07-12T07:28:18.000Z</time>
      </trkpt>
      <trkpt lat="43.3022896014153957366943359375" lon="-5.04474624060094356536865234375">
        <ele>358.20001220703125</ele>
        <time>2019-07-12T07:28:19.000Z</time>
      </trkpt>
      <trkpt lat="43.3023010008037090301513671875" lon="-5.0449272058904170989990234375">
        <ele>356.79998779296875</ele>
        <time>2019-07-12T07:28:20.000Z</time>
      </trkpt>
      <trkpt lat="43.30232388339936733245849609375" lon="-5.04511110484600067138671875">
        <ele>355.600006103515625</ele>
        <time>2019-07-12T07:28:21.000Z</time>
      </trkpt>
      <trkpt lat="43.30234986729919910430908203125" lon="-5.04529089666903018951416015625">
        <ele>354</ele>
        <time>2019-07-12T07:28:22.000Z</time>
      </trkpt>
      <trkpt lat="43.3023908548057079315185546875" lon="-5.0454680062830448150634765625">
        <ele>352.79998779296875</ele>
        <time>2019-07-12T07:28:23.000Z</time>
      </trkpt>
      <trkpt lat="43.30243452452123165130615234375" lon="-5.0456346385180950164794921875">
        <ele>351.79998779296875</ele>
        <time>2019-07-12T07:28:24.000Z</time>
      </trkpt>
      <trkpt lat="43.3025229535996913909912109375" lon="-5.04598391242325305938720703125">
        <ele>350</ele>
        <time>2019-07-12T07:28:26.000Z</time>
      </trkpt>
      <trkpt lat="43.30256461165845394134521484375" lon="-5.04615674726665019989013671875">
        <ele>348.399993896484375</ele>
        <time>2019-07-12T07:28:27.000Z</time>
      </trkpt>
      <trkpt lat="43.302603922784328460693359375" lon="-5.04633159376680850982666015625">
        <ele>346.20001220703125</ele>
        <time>2019-07-12T07:28:28.000Z</time>
      </trkpt>
      <trkpt lat="43.3026449941098690032958984375" lon="-5.04651046358048915863037109375">
        <ele>344.399993896484375</ele>
        <time>2019-07-12T07:28:29.000Z</time>
      </trkpt>
      <trkpt lat="43.30269344151020050048828125" lon="-5.0466835498809814453125">
        <ele>342.399993896484375</ele>
        <time>2019-07-12T07:28:30.000Z</time>
      </trkpt>
      <trkpt lat="43.302754797041416168212890625" lon="-5.04683400504291057586669921875">
        <ele>340.600006103515625</ele>
        <time>2019-07-12T07:28:31.000Z</time>
      </trkpt>
      <trkpt lat="43.30282059498131275177001953125" lon="-5.04697079770267009735107421875">
        <ele>339</ele>
        <time>2019-07-12T07:28:32.000Z</time>
      </trkpt>
      <trkpt lat="43.3028733171522617340087890625" lon="-5.04710490815341472625732421875">
        <ele>337.600006103515625</ele>
        <time>2019-07-12T07:28:33.000Z</time>
      </trkpt>
      <trkpt lat="43.302905000746250152587890625" lon="-5.04724614322185516357421875">
        <ele>336.399993896484375</ele>
        <time>2019-07-12T07:28:34.000Z</time>
      </trkpt>
      <trkpt lat="43.3029236085712909698486328125" lon="-5.04740028642117977142333984375">
        <ele>335</ele>
        <time>2019-07-12T07:28:35.000Z</time>
      </trkpt>
      <trkpt lat="43.3029430545866489410400390625" lon="-5.0475494004786014556884765625">
        <ele>333.600006103515625</ele>
        <time>2019-07-12T07:28:36.000Z</time>
      </trkpt>
      <trkpt lat="43.3029782585799694061279296875" lon="-5.04770211875438690185546875">
        <ele>332.399993896484375</ele>
        <time>2019-07-12T07:28:37.000Z</time>
      </trkpt>
      <trkpt lat="43.30308613367378711700439453125" lon="-5.047973357141017913818359375">
        <ele>330.600006103515625</ele>
        <time>2019-07-12T07:28:39.000Z</time>
      </trkpt>
      <trkpt lat="43.3031626604497432708740234375" lon="-5.04810939542949199676513671875">
        <ele>329.600006103515625</ele>
        <time>2019-07-12T07:28:40.000Z</time>
      </trkpt>
      <trkpt lat="43.30324455164372920989990234375" lon="-5.0482457689940929412841796875">
        <ele>328.399993896484375</ele>
        <time>2019-07-12T07:28:41.000Z</time>
      </trkpt>
      <trkpt lat="43.30332920886576175689697265625" lon="-5.04836470820009708404541015625">
        <ele>327</ele>
        <time>2019-07-12T07:28:42.000Z</time>
      </trkpt>
      <trkpt lat="43.3034007064998149871826171875" lon="-5.04848658107221126556396484375">
        <ele>325.399993896484375</ele>
        <time>2019-07-12T07:28:43.000Z</time>
      </trkpt>
      <trkpt lat="43.30346382223069667816162109375" lon="-5.0486209429800510406494140625">
        <ele>323.79998779296875</ele>
        <time>2019-07-12T07:28:44.000Z</time>
      </trkpt>
      <trkpt lat="43.30351109616458415985107421875" lon="-5.04875530488789081573486328125">
        <ele>322.20001220703125</ele>
        <time>2019-07-12T07:28:45.000Z</time>
      </trkpt>
      <trkpt lat="43.3035562746226787567138671875" lon="-5.048904083669185638427734375">
        <ele>320.79998779296875</ele>
        <time>2019-07-12T07:28:46.000Z</time>
      </trkpt>
      <trkpt lat="43.30360933206975460052490234375" lon="-5.049060992896556854248046875">
        <ele>319.20001220703125</ele>
        <time>2019-07-12T07:28:47.000Z</time>
      </trkpt>
      <trkpt lat="43.303647302091121673583984375" lon="-5.04923223517835140228271484375">
        <ele>318</ele>
        <time>2019-07-12T07:28:48.000Z</time>
      </trkpt>
      <trkpt lat="43.30368745140731334686279296875" lon="-5.0493994541466236114501953125">
        <ele>316.399993896484375</ele>
        <time>2019-07-12T07:28:49.000Z</time>
      </trkpt>
      <trkpt lat="43.303724415600299835205078125" lon="-5.04957036115229129791259765625">
        <ele>315</ele>
        <time>2019-07-12T07:28:50.000Z</time>
      </trkpt>
      <trkpt lat="43.30377378500998020172119140625" lon="-5.04973246715962886810302734375">
        <ele>313.399993896484375</ele>
        <time>2019-07-12T07:28:51.000Z</time>
      </trkpt>
      <trkpt lat="43.30384050495922565460205078125" lon="-5.04988451488316059112548828125">
        <ele>311.79998779296875</ele>
        <time>2019-07-12T07:28:52.000Z</time>
      </trkpt>
      <trkpt lat="43.3039166964590549468994140625" lon="-5.0500230677425861358642578125">
        <ele>310.399993896484375</ele>
        <time>2019-07-12T07:28:53.000Z</time>
      </trkpt>
      <trkpt lat="43.303992636501789093017578125" lon="-5.05014921538531780242919921875">
        <ele>309</ele>
        <time>2019-07-12T07:28:54.000Z</time>
      </trkpt>
      <trkpt lat="43.3040833286941051483154296875" lon="-5.050258599221706390380859375">
        <ele>307.600006103515625</ele>
        <time>2019-07-12T07:28:55.000Z</time>
      </trkpt>
      <trkpt lat="43.30418919213116168975830078125" lon="-5.05035524256527423858642578125">
        <ele>306.399993896484375</ele>
        <time>2019-07-12T07:28:56.000Z</time>
      </trkpt>
      <trkpt lat="43.304302431643009185791015625" lon="-5.050446689128875732421875">
        <ele>305.399993896484375</ele>
        <time>2019-07-12T07:28:57.000Z</time>
      </trkpt>
      <trkpt lat="43.30453419126570224761962890625" lon="-5.05060737021267414093017578125">
        <ele>303.600006103515625</ele>
        <time>2019-07-12T07:28:59.000Z</time>
      </trkpt>
      <trkpt lat="43.30464097671210765838623046875" lon="-5.05068398080766201019287109375">
        <ele>302.20001220703125</ele>
        <time>2019-07-12T07:29:00.000Z</time>
      </trkpt>
      <trkpt lat="43.30474407412111759185791015625" lon="-5.05073511041700839996337890625">
        <ele>300.600006103515625</ele>
        <time>2019-07-12T07:29:01.000Z</time>
      </trkpt>
      <trkpt lat="43.30485823564231395721435546875" lon="-5.050746090710163116455078125">
        <ele>299.20001220703125</ele>
        <time>2019-07-12T07:29:02.000Z</time>
      </trkpt>
      <trkpt lat="43.3049587346613407135009765625" lon="-5.0507315061986446380615234375">
        <ele>297.79998779296875</ele>
        <time>2019-07-12T07:29:03.000Z</time>
      </trkpt>
      <trkpt lat="43.305034674704074859619140625" lon="-5.05067341960966587066650390625">
        <ele>296.600006103515625</ele>
        <time>2019-07-12T07:29:04.000Z</time>
      </trkpt>
      <trkpt lat="43.3050787635147571563720703125" lon="-5.0505702383816242218017578125">
        <ele>295.600006103515625</ele>
        <time>2019-07-12T07:29:05.000Z</time>
      </trkpt>
      <trkpt lat="43.305078931152820587158203125" lon="-5.0504297576844692230224609375">
        <ele>294.600006103515625</ele>
        <time>2019-07-12T07:29:06.000Z</time>
      </trkpt>
      <trkpt lat="43.3050335012376308441162109375" lon="-5.0502896122634410858154296875">
        <ele>294</ele>
        <time>2019-07-12T07:29:07.000Z</time>
      </trkpt>
      <trkpt lat="43.3049620874226093292236328125" lon="-5.05017385818064212799072265625">
        <ele>293</ele>
        <time>2019-07-12T07:29:08.000Z</time>
      </trkpt>
      <trkpt lat="43.3048682101070880889892578125" lon="-5.050100348889827728271484375">
        <ele>292.399993896484375</ele>
        <time>2019-07-12T07:29:09.000Z</time>
      </trkpt>
      <trkpt lat="43.3047612570226192474365234375" lon="-5.05006623454391956329345703125">
        <ele>291.600006103515625</ele>
        <time>2019-07-12T07:29:10.000Z</time>
      </trkpt>
      <trkpt lat="43.30453754402697086334228515625" lon="-5.0500341318547725677490234375">
        <ele>290.20001220703125</ele>
        <time>2019-07-12T07:29:12.000Z</time>
      </trkpt>
      <trkpt lat="43.30444333143532276153564453125" lon="-5.04999808967113494873046875">
        <ele>289</ele>
        <time>2019-07-12T07:29:13.000Z</time>
      </trkpt>
      <trkpt lat="43.30435884185135364532470703125" lon="-5.04991921596229076385498046875">
        <ele>287.79998779296875</ele>
        <time>2019-07-12T07:29:14.000Z</time>
      </trkpt>
      <trkpt lat="43.3042851649224758148193359375" lon="-5.0498069822788238525390625">
        <ele>286.600006103515625</ele>
        <time>2019-07-12T07:29:15.000Z</time>
      </trkpt>
      <trkpt lat="43.30415130592882633209228515625" lon="-5.0495414435863494873046875">
        <ele>285</ele>
        <time>2019-07-12T07:29:17.000Z</time>
      </trkpt>
      <trkpt lat="43.3041067980229854583740234375" lon="-5.049396269023418426513671875">
        <ele>284.20001220703125</ele>
        <time>2019-07-12T07:29:18.000Z</time>
      </trkpt>
      <trkpt lat="43.3040923811495304107666015625" lon="-5.049250423908233642578125">
        <ele>283.399993896484375</ele>
        <time>2019-07-12T07:29:19.000Z</time>
      </trkpt>
      <trkpt lat="43.30409866757690906524658203125" lon="-5.0491111166775226593017578125">
        <ele>282.600006103515625</ele>
        <time>2019-07-12T07:29:20.000Z</time>
      </trkpt>
      <trkpt lat="43.3041379787027835845947265625" lon="-5.04897960461676120758056640625">
        <ele>282</ele>
        <time>2019-07-12T07:29:21.000Z</time>
      </trkpt>
      <trkpt lat="43.304209895431995391845703125" lon="-5.0488576479256153106689453125">
        <ele>281.600006103515625</ele>
        <time>2019-07-12T07:29:22.000Z</time>
      </trkpt>
      <trkpt lat="43.30429933033883571624755859375" lon="-5.0487667880952358245849609375">
        <ele>281</ele>
        <time>2019-07-12T07:29:23.000Z</time>
      </trkpt>
      <trkpt lat="43.3045292459428310394287109375" lon="-5.0485954619944095611572265625">
        <ele>279.399993896484375</ele>
        <time>2019-07-12T07:29:25.000Z</time>
      </trkpt>
      <trkpt lat="43.30473334528505802154541015625" lon="-5.04846042953431606292724609375">
        <ele>277.600006103515625</ele>
        <time>2019-07-12T07:29:27.000Z</time>
      </trkpt>
      <trkpt lat="43.30494104884564876556396484375" lon="-5.0484336912631988525390625">
        <ele>276.20001220703125</ele>
        <time>2019-07-12T07:29:29.000Z</time>
      </trkpt>
      <trkpt lat="43.3051612414419651031494140625" lon="-5.04857241176068782806396484375">
        <ele>274.79998779296875</ele>
        <time>2019-07-12T07:29:31.000Z</time>
      </trkpt>
      <trkpt lat="43.3053494989871978759765625" lon="-5.048798136413097381591796875">
        <ele>273.79998779296875</ele>
        <time>2019-07-12T07:29:33.000Z</time>
      </trkpt>
      <trkpt lat="43.30551638267934322357177734375" lon="-5.049019753932952880859375">
        <ele>272.399993896484375</ele>
        <time>2019-07-12T07:29:35.000Z</time>
      </trkpt>
      <trkpt lat="43.30566340126097202301025390625" lon="-5.049223266541957855224609375">
        <ele>270.79998779296875</ele>
        <time>2019-07-12T07:29:37.000Z</time>
      </trkpt>
      <trkpt lat="43.30573816783726215362548828125" lon="-5.04931840114295482635498046875">
        <ele>269.79998779296875</ele>
        <time>2019-07-12T07:29:38.000Z</time>
      </trkpt>
      <trkpt lat="43.30581209622323513031005859375" lon="-5.0494125299155712127685546875">
        <ele>268</ele>
        <time>2019-07-12T07:29:39.000Z</time>
      </trkpt>
      <trkpt lat="43.3058854378759860992431640625" lon="-5.0495119392871856689453125">
        <ele>266</ele>
        <time>2019-07-12T07:29:40.000Z</time>
      </trkpt>
      <trkpt lat="43.30596598796546459197998046875" lon="-5.04959768615663051605224609375">
        <ele>264.399993896484375</ele>
        <time>2019-07-12T07:29:41.000Z</time>
      </trkpt>
      <trkpt lat="43.3061570115387439727783203125" lon="-5.04969298839569091796875">
        <ele>263</ele>
        <time>2019-07-12T07:29:43.000Z</time>
      </trkpt>
      <trkpt lat="43.30636144615709781646728515625" lon="-5.0497340597212314605712890625">
        <ele>262</ele>
        <time>2019-07-12T07:29:45.000Z</time>
      </trkpt>
      <trkpt lat="43.30645163543522357940673828125" lon="-5.0497742928564548492431640625">
        <ele>261.20001220703125</ele>
        <time>2019-07-12T07:29:46.000Z</time>
      </trkpt>
      <trkpt lat="43.3065378852188587188720703125" lon="-5.04984310828149318695068359375">
        <ele>260.20001220703125</ele>
        <time>2019-07-12T07:29:47.000Z</time>
      </trkpt>
      <trkpt lat="43.30670342780649662017822265625" lon="-5.05002566613256931304931640625">
        <ele>258.20001220703125</ele>
        <time>2019-07-12T07:29:49.000Z</time>
      </trkpt>
      <trkpt lat="43.3068543858826160430908203125" lon="-5.05019833333790302276611328125">
        <ele>256.79998779296875</ele>
        <time>2019-07-12T07:29:51.000Z</time>
      </trkpt>
      <trkpt lat="43.3070099540054798126220703125" lon="-5.05033604800701141357421875">
        <ele>255.399993896484375</ele>
        <time>2019-07-12T07:29:53.000Z</time>
      </trkpt>
      <trkpt lat="43.30718672834336757659912109375" lon="-5.05043319426476955413818359375">
        <ele>253.600006103515625</ele>
        <time>2019-07-12T07:29:55.000Z</time>
      </trkpt>
      <trkpt lat="43.30734950490295886993408203125" lon="-5.05048356950283050537109375">
        <ele>252.399993896484375</ele>
        <time>2019-07-12T07:29:57.000Z</time>
      </trkpt>
      <trkpt lat="43.30747037194669246673583984375" lon="-5.0504936277866363525390625">
        <ele>251</ele>
        <time>2019-07-12T07:29:59.000Z</time>
      </trkpt>
      <trkpt lat="43.30758587457239627838134765625" lon="-5.050484240055084228515625">
        <ele>249.600006103515625</ele>
        <time>2019-07-12T07:30:02.000Z</time>
      </trkpt>
      <trkpt lat="43.3076677657663822174072265625" lon="-5.05048180930316448211669921875">
        <ele>248.399993896484375</ele>
        <time>2019-07-12T07:30:06.000Z</time>
      </trkpt>
      <trkpt lat="43.3077757246792316436767578125" lon="-5.0504802167415618896484375">
        <ele>247.399993896484375</ele>
        <time>2019-07-12T07:30:13.000Z</time>
      </trkpt>
      <trkpt lat="43.3078625611960887908935546875" lon="-5.05048532970249652862548828125">
        <ele>246.1999969482421875</ele>
        <time>2019-07-12T07:30:21.000Z</time>
      </trkpt>
      <trkpt lat="43.30796775408089160919189453125" lon="-5.05057836882770061492919921875">
        <ele>245.600006103515625</ele>
        <time>2019-07-12T07:30:29.000Z</time>
      </trkpt>
      <trkpt lat="43.30802039243280887603759765625" lon="-5.05066956393420696258544921875">
        <ele>245.1999969482421875</ele>
        <time>2019-07-12T07:30:31.000Z</time>
      </trkpt>
      <trkpt lat="43.3080370724201202392578125" lon="-5.05072538740932941436767578125">
        <ele>245</ele>
        <time>2019-07-12T07:30:32.000Z</time>
      </trkpt>
      <trkpt lat="43.3080422692000865936279296875" lon="-5.0507888384163379669189453125">
        <ele>244.600006103515625</ele>
        <time>2019-07-12T07:30:33.000Z</time>
      </trkpt>
      <trkpt lat="43.3080090768635272979736328125" lon="-5.05092152394354343414306640625">
        <ele>243.399993896484375</ele>
        <time>2019-07-12T07:30:35.000Z</time>
      </trkpt>
      <trkpt lat="43.3079351484775543212890625" lon="-5.05102512426674365997314453125">
        <ele>242.399993896484375</ele>
        <time>2019-07-12T07:30:37.000Z</time>
      </trkpt>
      <trkpt lat="43.30781067721545696258544921875" lon="-5.05112595856189727783203125">
        <ele>241</ele>
        <time>2019-07-12T07:30:40.000Z</time>
      </trkpt>
      <trkpt lat="43.3077452145516872406005859375" lon="-5.05119192413985729217529296875">
        <ele>239.8000030517578125</ele>
        <time>2019-07-12T07:30:42.000Z</time>
      </trkpt>
      <trkpt lat="43.3077106811106204986572265625" lon="-5.051271133124828338623046875">
        <ele>238.600006103515625</ele>
        <time>2019-07-12T07:30:44.000Z</time>
      </trkpt>
      <trkpt lat="43.30770514905452728271484375" lon="-5.0513574667274951934814453125">
        <ele>237.399993896484375</ele>
        <time>2019-07-12T07:30:46.000Z</time>
      </trkpt>
      <trkpt lat="43.307697437703609466552734375" lon="-5.05145159550011157989501953125">
        <ele>236</ele>
        <time>2019-07-12T07:30:48.000Z</time>
      </trkpt>
      <trkpt lat="43.30765728838741779327392578125" lon="-5.0515116937458515167236328125">
        <ele>235</ele>
        <time>2019-07-12T07:30:50.000Z</time>
      </trkpt>
      <trkpt lat="43.3075621537864208221435546875" lon="-5.05157648585736751556396484375">
        <ele>234</ele>
        <time>2019-07-12T07:30:53.000Z</time>
      </trkpt>
      <trkpt lat="43.3075276203453540802001953125" lon="-5.05161680281162261962890625">
        <ele>233.8000030517578125</ele>
        <time>2019-07-12T07:30:54.000Z</time>
      </trkpt>
      <trkpt lat="43.307500295341014862060546875" lon="-5.051669441163539886474609375">
        <ele>233.8000030517578125</ele>
        <time>2019-07-12T07:30:55.000Z</time>
      </trkpt>
      <trkpt lat="43.30746718682348728179931640625" lon="-5.0518010370433330535888671875">
        <ele>234.1999969482421875</ele>
        <time>2019-07-12T07:30:57.000Z</time>
      </trkpt>
      <trkpt lat="43.3074702881276607513427734375" lon="-5.0520431064069271087646484375">
        <ele>235</ele>
        <time>2019-07-12T07:31:00.000Z</time>
      </trkpt>
      <trkpt lat="43.3074981160461902618408203125" lon="-5.05228391848504543304443359375">
        <ele>236.1999969482421875</ele>
        <time>2019-07-12T07:31:03.000Z</time>
      </trkpt>
      <trkpt lat="43.3075014688074588775634765625" lon="-5.05240025930106639862060546875">
        <ele>237.399993896484375</ele>
        <time>2019-07-12T07:31:05.000Z</time>
      </trkpt>
      <trkpt lat="43.30749635584652423858642578125" lon="-5.05248181521892547607421875">
        <ele>238.8000030517578125</ele>
        <time>2019-07-12T07:31:08.000Z</time>
      </trkpt>
      <trkpt lat="43.30747255124151706695556640625" lon="-5.052442252635955810546875">
        <ele>239.8000030517578125</ele>
        <time>2019-07-12T07:31:12.000Z</time>
      </trkpt>
      <trkpt lat="43.30745570361614227294921875" lon="-5.05266009829938411712646484375">
        <ele>239.8000030517578125</ele>
        <time>2019-07-12T07:31:17.000Z</time>
      </trkpt>
      <trkpt lat="43.307398371398448944091796875" lon="-5.05289881490170955657958984375">
        <ele>241</ele>
        <time>2019-07-12T07:31:22.000Z</time>
      </trkpt>
      <trkpt lat="43.30732293426990509033203125" lon="-5.05298933945596218109130859375">
        <ele>242.1999969482421875</ele>
        <time>2019-07-12T07:31:27.000Z</time>
      </trkpt>
      <trkpt lat="43.30727465450763702392578125" lon="-5.05316318012773990631103515625">
        <ele>242.399993896484375</ele>
        <time>2019-07-12T07:31:30.000Z</time>
      </trkpt>
      <trkpt lat="43.30729208886623382568359375" lon="-5.05329796113073825836181640625">
        <ele>242.8000030517578125</ele>
        <time>2019-07-12T07:31:32.000Z</time>
      </trkpt>
      <trkpt lat="43.30732234753668308258056640625" lon="-5.05336023867130279541015625">
        <ele>243.1999969482421875</ele>
        <time>2019-07-12T07:31:33.000Z</time>
      </trkpt>
      <trkpt lat="43.3073531091213226318359375" lon="-5.0534137152135372161865234375">
        <ele>243.600006103515625</ele>
        <time>2019-07-12T07:31:34.000Z</time>
      </trkpt>
      <trkpt lat="43.30741521902382373809814453125" lon="-5.05349862389266490936279296875">
        <ele>244.399993896484375</ele>
        <time>2019-07-12T07:31:36.000Z</time>
      </trkpt>
      <trkpt lat="43.30750574357807636260986328125" lon="-5.05369408987462520599365234375">
        <ele>245.399993896484375</ele>
        <time>2019-07-12T07:31:40.000Z</time>
      </trkpt>
      <trkpt lat="43.307560645043849945068359375" lon="-5.05374169908463954925537109375">
        <ele>245.600006103515625</ele>
        <time>2019-07-12T07:31:41.000Z</time>
      </trkpt>
      <trkpt lat="43.307708166539669036865234375" lon="-5.05391000770032405853271484375">
        <ele>246.600006103515625</ele>
        <time>2019-07-12T07:31:44.000Z</time>
      </trkpt>
      <trkpt lat="43.30782375298440456390380859375" lon="-5.054062642157077789306640625">
        <ele>247.8000030517578125</ele>
        <time>2019-07-12T07:31:47.000Z</time>
      </trkpt>
      <trkpt lat="43.307878486812114715576171875" lon="-5.054207481443881988525390625">
        <ele>248.600006103515625</ele>
        <time>2019-07-12T07:31:49.000Z</time>
      </trkpt>
      <trkpt lat="43.30790321342647075653076171875" lon="-5.0542916357517242431640625">
        <ele>249.1999969482421875</ele>
        <time>2019-07-12T07:31:50.000Z</time>
      </trkpt>
      <trkpt lat="43.30794126726686954498291015625" lon="-5.054373778402805328369140625">
        <ele>249.8000030517578125</ele>
        <time>2019-07-12T07:31:51.000Z</time>
      </trkpt>
      <trkpt lat="43.3079842664301395416259765625" lon="-5.054430775344371795654296875">
        <ele>250.399993896484375</ele>
        <time>2019-07-12T07:31:52.000Z</time>
      </trkpt>
      <trkpt lat="43.30804218538105487823486328125" lon="-5.05446136929094791412353515625">
        <ele>251</ele>
        <time>2019-07-12T07:31:53.000Z</time>
      </trkpt>
      <trkpt lat="43.30810907296836376190185546875" lon="-5.054471679031848907470703125">
        <ele>251.8000030517578125</ele>
        <time>2019-07-12T07:31:54.000Z</time>
      </trkpt>
      <trkpt lat="43.308178223669528961181640625" lon="-5.05445466376841068267822265625">
        <ele>252.399993896484375</ele>
        <time>2019-07-12T07:31:55.000Z</time>
      </trkpt>
      <trkpt lat="43.30822692252695560455322265625" lon="-5.0544297695159912109375">
        <ele>253.1999969482421875</ele>
        <time>2019-07-12T07:31:56.000Z</time>
      </trkpt>
      <trkpt lat="43.3083321154117584228515625" lon="-5.0543085671961307525634765625">
        <ele>254.600006103515625</ele>
        <time>2019-07-12T07:31:58.000Z</time>
      </trkpt>
      <trkpt lat="43.30844015814363956451416015625" lon="-5.05402006208896636962890625">
        <ele>255.8000030517578125</ele>
        <time>2019-07-12T07:32:01.000Z</time>
      </trkpt>
      <trkpt lat="43.30850687809288501739501953125" lon="-5.053756870329380035400390625">
        <ele>256.79998779296875</ele>
        <time>2019-07-12T07:32:04.000Z</time>
      </trkpt>
      <trkpt lat="43.30854644067585468292236328125" lon="-5.05369610153138637542724609375">
        <ele>257.20001220703125</ele>
        <time>2019-07-12T07:32:05.000Z</time>
      </trkpt>
      <trkpt lat="43.30867066048085689544677734375" lon="-5.053693167865276336669921875">
        <ele>258.20001220703125</ele>
        <time>2019-07-12T07:32:07.000Z</time>
      </trkpt>
      <trkpt lat="43.30872707068920135498046875" lon="-5.05383037962019443511962890625">
        <ele>259</ele>
        <time>2019-07-12T07:32:09.000Z</time>
      </trkpt>
      <trkpt lat="43.3087103068828582763671875" lon="-5.05392492748796939849853515625">
        <ele>259.399993896484375</ele>
        <time>2019-07-12T07:32:10.000Z</time>
      </trkpt>
      <trkpt lat="43.30867267213761806488037109375" lon="-5.0540222413837909698486328125">
        <ele>260</ele>
        <time>2019-07-12T07:32:11.000Z</time>
      </trkpt>
      <trkpt lat="43.3086243085563182830810546875" lon="-5.05409516394138336181640625">
        <ele>260.600006103515625</ele>
        <time>2019-07-12T07:32:12.000Z</time>
      </trkpt>
      <trkpt lat="43.30853839404881000518798828125" lon="-5.05421460606157779693603515625">
        <ele>261.399993896484375</ele>
        <time>2019-07-12T07:32:14.000Z</time>
      </trkpt>
      <trkpt lat="43.3085126616060733795166015625" lon="-5.05428082309663295745849609375">
        <ele>261.79998779296875</ele>
        <time>2019-07-12T07:32:15.000Z</time>
      </trkpt>
      <trkpt lat="43.3084885217249393463134765625" lon="-5.05433999933302402496337890625">
        <ele>262.20001220703125</ele>
        <time>2019-07-12T07:32:16.000Z</time>
      </trkpt>
      <trkpt lat="43.30842641182243824005126953125" lon="-5.05445902235805988311767578125">
        <ele>263</ele>
        <time>2019-07-12T07:32:18.000Z</time>
      </trkpt>
      <trkpt lat="43.30831811763346195220947265625" lon="-5.05466781556606292724609375">
        <ele>264.20001220703125</ele>
        <time>2019-07-12T07:32:21.000Z</time>
      </trkpt>
      <trkpt lat="43.3082712627947330474853515625" lon="-5.05473344586789608001708984375">
        <ele>264.600006103515625</ele>
        <time>2019-07-12T07:32:22.000Z</time>
      </trkpt>
      <trkpt lat="43.30814712680876255035400390625" lon="-5.054827071726322174072265625">
        <ele>265.600006103515625</ele>
        <time>2019-07-12T07:32:24.000Z</time>
      </trkpt>
      <trkpt lat="43.30805576406419277191162109375" lon="-5.0549326837062835693359375">
        <ele>266.20001220703125</ele>
        <time>2019-07-12T07:32:26.000Z</time>
      </trkpt>
      <trkpt lat="43.30802642740309238433837890625" lon="-5.05499244667589664459228515625">
        <ele>266.600006103515625</ele>
        <time>2019-07-12T07:32:27.000Z</time>
      </trkpt>
      <trkpt lat="43.30801284871995449066162109375" lon="-5.0550614297389984130859375">
        <ele>267</ele>
        <time>2019-07-12T07:32:28.000Z</time>
      </trkpt>
      <trkpt lat="43.30802978016436100006103515625" lon="-5.0552047602832317352294921875">
        <ele>267.79998779296875</ele>
        <time>2019-07-12T07:32:30.000Z</time>
      </trkpt>
      <trkpt lat="43.30811561085283756256103515625" lon="-5.05537055432796478271484375">
        <ele>269</ele>
        <time>2019-07-12T07:32:34.000Z</time>
      </trkpt>
      <trkpt lat="43.30825491808354854583740234375" lon="-5.05548748187720775604248046875">
        <ele>270.20001220703125</ele>
        <time>2019-07-12T07:32:40.000Z</time>
      </trkpt>
      <trkpt lat="43.308458514511585235595703125" lon="-5.05533778108656406402587890625">
        <ele>270.600006103515625</ele>
        <time>2019-07-12T07:32:47.000Z</time>
      </trkpt>
      <trkpt lat="43.30852456390857696533203125" lon="-5.05516712553799152374267578125">
        <ele>271</ele>
        <time>2019-07-12T07:32:50.000Z</time>
      </trkpt>
      <trkpt lat="43.30858089029788970947265625" lon="-5.0549613498151302337646484375">
        <ele>271.20001220703125</ele>
        <time>2019-07-12T07:32:53.000Z</time>
      </trkpt>
      <trkpt lat="43.30870636738836765289306640625" lon="-5.05465800873935222625732421875">
        <ele>271.79998779296875</ele>
        <time>2019-07-12T07:32:58.000Z</time>
      </trkpt>
      <trkpt lat="43.3087961375713348388671875" lon="-5.05450076423585414886474609375">
        <ele>272.20001220703125</ele>
        <time>2019-07-12T07:33:03.000Z</time>
      </trkpt>
      <trkpt lat="43.3087641187012195587158203125" lon="-5.05444393493235111236572265625">
        <ele>272.79998779296875</ele>
        <time>2019-07-12T07:33:20.000Z</time>
      </trkpt>
      <trkpt lat="43.30874525941908359527587890625" lon="-5.05442834459245204925537109375">
        <ele>272.600006103515625</ele>
        <time>2019-07-12T07:34:33.000Z</time>
      </trkpt>
      <trkpt lat="43.3087540604174137115478515625" lon="-5.05444779060781002044677734375">
        <ele>272.600006103515625</ele>
        <time>2019-07-12T07:35:25.000Z</time>
      </trkpt>
      <trkpt lat="43.3087181858718395233154296875" lon="-5.05441040731966495513916015625">
        <ele>272.600006103515625</ele>
        <time>2019-07-12T07:36:18.000Z</time>
      </trkpt>
      <trkpt lat="43.3087517134845256805419921875" lon="-5.054443180561065673828125">
        <ele>272.79998779296875</ele>
        <time>2019-07-12T07:37:57.000Z</time>
      </trkpt>
      <trkpt lat="43.3087312616407871246337890625" lon="-5.0544473715126514434814453125">
        <ele>272.79998779296875</ele>
        <time>2019-07-12T07:38:20.000Z</time>
      </trkpt>
      <trkpt lat="43.50047224201261997222900390625" lon="-5.41760330088436603546142578125">
        <ele>2.2000000476837158203125</ele>
        <time>2019-07-12T16:07:08.000Z</time>
      </trkpt>
      <trkpt lat="43.500560335814952850341796875" lon="-5.41748494841158390045166015625">
        <ele>4.80000019073486328125</ele>
        <time>2019-07-12T16:07:09.000Z</time>
      </trkpt>
      <trkpt lat="43.50064557977020740509033203125" lon="-5.4173603095114231109619140625">
        <ele>6.599999904632568359375</ele>
        <time>2019-07-12T16:07:10.000Z</time>
      </trkpt>
      <trkpt lat="43.50073375739157199859619140625" lon="-5.41722812689840793609619140625">
        <ele>7.80000019073486328125</ele>
        <time>2019-07-12T16:07:11.000Z</time>
      </trkpt>
      <trkpt lat="43.50102134048938751220703125" lon="-5.416738204658031463623046875">
        <ele>5</ele>
        <time>2019-07-12T16:07:14.000Z</time>
      </trkpt>
      <trkpt lat="43.50112636573612689971923828125" lon="-5.4165465943515300750732421875">
        <ele>6</ele>
        <time>2019-07-12T16:07:15.000Z</time>
      </trkpt>
      <trkpt lat="43.50146063603460788726806640625" lon="-5.4159464500844478607177734375">
        <ele>6</ele>
        <time>2019-07-12T16:07:18.000Z</time>
      </trkpt>
      <trkpt lat="43.50182709284126758575439453125" lon="-5.41532610543072223663330078125">
        <ele>6.80000019073486328125</ele>
        <time>2019-07-12T16:07:21.000Z</time>
      </trkpt>
      <trkpt lat="43.5019589401781558990478515625" lon="-5.4151213355362415313720703125">
        <ele>7.19999980926513671875</ele>
        <time>2019-07-12T16:07:22.000Z</time>
      </trkpt>
      <trkpt lat="43.5023364610970020294189453125" lon="-5.41454943828284740447998046875">
        <ele>6.19999980926513671875</ele>
        <time>2019-07-12T16:07:25.000Z</time>
      </trkpt>
      <trkpt lat="43.50268565118312835693359375" lon="-5.41404090821743011474609375">
        <ele>5.400000095367431640625</ele>
        <time>2019-07-12T16:07:28.000Z</time>
      </trkpt>
      <trkpt lat="43.5029117949306964874267578125" lon="-5.41369934566318988800048828125">
        <ele>7.19999980926513671875</ele>
        <time>2019-07-12T16:07:30.000Z</time>
      </trkpt>
      <trkpt lat="43.503025285899639129638671875" lon="-5.413527600467205047607421875">
        <ele>9</ele>
        <time>2019-07-12T16:07:31.000Z</time>
      </trkpt>
      <trkpt lat="43.50313785485923290252685546875" lon="-5.41335987858474254608154296875">
        <ele>10.80000019073486328125</ele>
        <time>2019-07-12T16:07:32.000Z</time>
      </trkpt>
      <trkpt lat="43.5032484121620655059814453125" lon="-5.41319735348224639892578125">
        <ele>12.19999980926513671875</ele>
        <time>2019-07-12T16:07:33.000Z</time>
      </trkpt>
      <trkpt lat="43.50345921702682971954345703125" lon="-5.41285562328994274139404296875">
        <ele>13.3999996185302734375</ele>
        <time>2019-07-12T16:07:35.000Z</time>
      </trkpt>
      <trkpt lat="43.5037174634635448455810546875" lon="-5.41225028224289417266845703125">
        <ele>13.3999996185302734375</ele>
        <time>2019-07-12T16:07:38.000Z</time>
      </trkpt>
      <trkpt lat="43.503937907516956329345703125" lon="-5.41163228452205657958984375">
        <ele>13.19999980926513671875</ele>
        <time>2019-07-12T16:07:41.000Z</time>
      </trkpt>
      <trkpt lat="43.504145778715610504150390625" lon="-5.41105938144028186798095703125">
        <ele>14.6000003814697265625</ele>
        <time>2019-07-12T16:07:44.000Z</time>
      </trkpt>
      <trkpt lat="43.5042111575603485107421875" lon="-5.4108777455985546112060546875">
        <ele>16</ele>
        <time>2019-07-12T16:07:45.000Z</time>
      </trkpt>
      <trkpt lat="43.50427008233964443206787109375" lon="-5.41070532985031604766845703125">
        <ele>18</ele>
        <time>2019-07-12T16:07:46.000Z</time>
      </trkpt>
      <trkpt lat="43.5043209604918956756591796875" lon="-5.41054221801459789276123046875">
        <ele>19.6000003814697265625</ele>
        <time>2019-07-12T16:07:47.000Z</time>
      </trkpt>
      <trkpt lat="43.50439178757369518280029296875" lon="-5.410244576632976531982421875">
        <ele>20.799999237060546875</ele>
        <time>2019-07-12T16:07:49.000Z</time>
      </trkpt>
      <trkpt lat="43.5044352896511554718017578125" lon="-5.4099637828767299652099609375">
        <ele>22</ele>
        <time>2019-07-12T16:07:51.000Z</time>
      </trkpt>
      <trkpt lat="43.50447460077702999114990234375" lon="-5.40964686311781406402587890625">
        <ele>23.200000762939453125</ele>
        <time>2019-07-12T16:07:53.000Z</time>
      </trkpt>
      <trkpt lat="43.50453344173729419708251953125" lon="-5.40913858450949192047119140625">
        <ele>24.6000003814697265625</ele>
        <time>2019-07-12T16:07:56.000Z</time>
      </trkpt>
      <trkpt lat="43.5046217031776905059814453125" lon="-5.4083968698978424072265625">
        <ele>25.3999996185302734375</ele>
        <time>2019-07-12T16:08:00.000Z</time>
      </trkpt>
      <trkpt lat="43.50464902818202972412109375" lon="-5.40819243527948856353759765625">
        <ele>25.6000003814697265625</ele>
        <time>2019-07-12T16:08:01.000Z</time>
      </trkpt>
      <trkpt lat="43.5047315061092376708984375" lon="-5.4075548239052295684814453125">
        <ele>25.6000003814697265625</ele>
        <time>2019-07-12T16:08:04.000Z</time>
      </trkpt>
      <trkpt lat="43.5047851502895355224609375" lon="-5.40712055750191211700439453125">
        <ele>24.200000762939453125</ele>
        <time>2019-07-12T16:08:06.000Z</time>
      </trkpt>
      <trkpt lat="43.5048332624137401580810546875" lon="-5.4067065753042697906494140625">
        <ele>22.3999996185302734375</ele>
        <time>2019-07-12T16:08:08.000Z</time>
      </trkpt>
      <trkpt lat="43.50485648028552532196044921875" lon="-5.406505577266216278076171875">
        <ele>20.799999237060546875</ele>
        <time>2019-07-12T16:08:09.000Z</time>
      </trkpt>
      <trkpt lat="43.504882045090198516845703125" lon="-5.40630583651363849639892578125">
        <ele>19.3999996185302734375</ele>
        <time>2019-07-12T16:08:10.000Z</time>
      </trkpt>
      <trkpt lat="43.5049368627369403839111328125" lon="-5.40589277632534503936767578125">
        <ele>17.6000003814697265625</ele>
        <time>2019-07-12T16:08:12.000Z</time>
      </trkpt>
      <trkpt lat="43.50501959212124347686767578125" lon="-5.40524435229599475860595703125">
        <ele>16.3999996185302734375</ele>
        <time>2019-07-12T16:08:15.000Z</time>
      </trkpt>
      <trkpt lat="43.50507675670087337493896484375" lon="-5.404799692332744598388671875">
        <ele>15.19999980926513671875</ele>
        <time>2019-07-12T16:08:17.000Z</time>
      </trkpt>
      <trkpt lat="43.5051363520324230194091796875" lon="-5.4043093509972095489501953125">
        <ele>13.80000019073486328125</ele>
        <time>2019-07-12T16:08:19.000Z</time>
      </trkpt>
      <trkpt lat="43.505199216306209564208984375" lon="-5.4038138128817081451416015625">
        <ele>12.3999996185302734375</ele>
        <time>2019-07-12T16:08:21.000Z</time>
      </trkpt>
      <trkpt lat="43.5052560456097126007080078125" lon="-5.40335490368306636810302734375">
        <ele>11.3999996185302734375</ele>
        <time>2019-07-12T16:08:23.000Z</time>
      </trkpt>
      <trkpt lat="43.5053269565105438232421875" lon="-5.40276632644236087799072265625">
        <ele>12.3999996185302734375</ele>
        <time>2019-07-12T16:08:26.000Z</time>
      </trkpt>
      <trkpt lat="43.5053526051342487335205078125" lon="-5.4025818407535552978515625">
        <ele>14</ele>
        <time>2019-07-12T16:08:27.000Z</time>
      </trkpt>
      <trkpt lat="43.50537699647247791290283203125" lon="-5.40239551104605197906494140625">
        <ele>15.19999980926513671875</ele>
        <time>2019-07-12T16:08:28.000Z</time>
      </trkpt>
      <trkpt lat="43.50542007945477962493896484375" lon="-5.402016900479793548583984375">
        <ele>16.6000003814697265625</ele>
        <time>2019-07-12T16:08:30.000Z</time>
      </trkpt>
      <trkpt lat="43.505465425550937652587890625" lon="-5.401650778949260711669921875">
        <ele>17.6000003814697265625</ele>
        <time>2019-07-12T16:08:32.000Z</time>
      </trkpt>
      <trkpt lat="43.50553994067013263702392578125" lon="-5.401070415973663330078125">
        <ele>19.200000762939453125</ele>
        <time>2019-07-12T16:08:35.000Z</time>
      </trkpt>
      <trkpt lat="43.50558721460402011871337890625" lon="-5.40065140463411808013916015625">
        <ele>20.3999996185302734375</ele>
        <time>2019-07-12T16:08:37.000Z</time>
      </trkpt>
      <trkpt lat="43.50565946660935878753662109375" lon="-5.40004589594900608062744140625">
        <ele>21.6000003814697265625</ele>
        <time>2019-07-12T16:08:40.000Z</time>
      </trkpt>
      <trkpt lat="43.50576055236160755157470703125" lon="-5.3992386348545551300048828125">
        <ele>22.6000003814697265625</ele>
        <time>2019-07-12T16:08:44.000Z</time>
      </trkpt>
      <trkpt lat="43.5058447904884815216064453125" lon="-5.39856431074440479278564453125">
        <ele>24</ele>
        <time>2019-07-12T16:08:48.000Z</time>
      </trkpt>
      <trkpt lat="43.5058917291462421417236328125" lon="-5.39819450117647647857666015625">
        <ele>26</ele>
        <time>2019-07-12T16:08:51.000Z</time>
      </trkpt>
      <trkpt lat="43.5059105046093463897705078125" lon="-5.39799199439585208892822265625">
        <ele>27.3999996185302734375</ele>
        <time>2019-07-12T16:08:53.000Z</time>
      </trkpt>
      <trkpt lat="43.50592567585408687591552734375" lon="-5.39784195832908153533935546875">
        <ele>28.3999996185302734375</ele>
        <time>2019-07-12T16:08:55.000Z</time>
      </trkpt>
      <trkpt lat="43.5059319622814655303955078125" lon="-5.39768756367266178131103515625">
        <ele>29.3999996185302734375</ele>
        <time>2019-07-12T16:08:57.000Z</time>
      </trkpt>
      <trkpt lat="43.50586968474090099334716796875" lon="-5.3970164246857166290283203125">
        <ele>29.6000003814697265625</ele>
        <time>2019-07-12T16:09:02.000Z</time>
      </trkpt>
      <trkpt lat="43.50580682046711444854736328125" lon="-5.3966045379638671875">
        <ele>28.200000762939453125</ele>
        <time>2019-07-12T16:09:04.000Z</time>
      </trkpt>
      <trkpt lat="43.50575736723840236663818359375" lon="-5.396126098930835723876953125">
        <ele>25.3999996185302734375</ele>
        <time>2019-07-12T16:09:06.000Z</time>
      </trkpt>
      <trkpt lat="43.5057542659342288970947265625" lon="-5.39587028324604034423828125">
        <ele>23</ele>
        <time>2019-07-12T16:09:07.000Z</time>
      </trkpt>
      <trkpt lat="43.50576273165643215179443359375" lon="-5.3956169821321964263916015625">
        <ele>19.799999237060546875</ele>
        <time>2019-07-12T16:09:08.000Z</time>
      </trkpt>
      <trkpt lat="43.5057760588824748992919921875" lon="-5.39537499658763408660888671875">
        <ele>17</ele>
        <time>2019-07-12T16:09:09.000Z</time>
      </trkpt>
      <trkpt lat="43.5057898052036762237548828125" lon="-5.395143069326877593994140625">
        <ele>15.3999996185302734375</ele>
        <time>2019-07-12T16:09:10.000Z</time>
      </trkpt>
      <trkpt lat="43.50582006387412548065185546875" lon="-5.3947093896567821502685546875">
        <ele>14</ele>
        <time>2019-07-12T16:09:12.000Z</time>
      </trkpt>
      <trkpt lat="43.505910336971282958984375" lon="-5.393901877105236053466796875">
        <ele>15</ele>
        <time>2019-07-12T16:09:16.000Z</time>
      </trkpt>
      <trkpt lat="43.50604603998363018035888671875" lon="-5.393539778888225555419921875">
        <ele>15.3999996185302734375</ele>
        <time>2019-07-12T16:09:18.000Z</time>
      </trkpt>
      <trkpt lat="43.5062699206173419952392578125" lon="-5.393228642642498016357421875">
        <ele>16</ele>
        <time>2019-07-12T16:09:20.000Z</time>
      </trkpt>
      <trkpt lat="43.50653839297592639923095703125" lon="-5.39293594658374786376953125">
        <ele>13.6000003814697265625</ele>
        <time>2019-07-12T16:09:22.000Z</time>
      </trkpt>
      <trkpt lat="43.5066707432270050048828125" lon="-5.3927818872034549713134765625">
        <ele>11.19999980926513671875</ele>
        <time>2019-07-12T16:09:23.000Z</time>
      </trkpt>
      <trkpt lat="43.5067912749946117401123046875" lon="-5.39260963909327983856201171875">
        <ele>10.19999980926513671875</ele>
        <time>2019-07-12T16:09:24.000Z</time>
      </trkpt>
      <trkpt lat="43.50689345039427280426025390625" lon="-5.39241098798811435699462890625">
        <ele>9.3999996185302734375</ele>
        <time>2019-07-12T16:09:25.000Z</time>
      </trkpt>
      <trkpt lat="43.506977856159210205078125" lon="-5.3921924717724323272705078125">
        <ele>8</ele>
        <time>2019-07-12T16:09:26.000Z</time>
      </trkpt>
      <trkpt lat="43.50712730549275875091552734375" lon="-5.39173289202153682708740234375">
        <ele>6.400000095367431640625</ele>
        <time>2019-07-12T16:09:28.000Z</time>
      </trkpt>
      <trkpt lat="43.50719712674617767333984375" lon="-5.391503982245922088623046875">
        <ele>5.19999980926513671875</ele>
        <time>2019-07-12T16:09:29.000Z</time>
      </trkpt>
      <trkpt lat="43.50738328881561756134033203125" lon="-5.3908617608249187469482421875">
        <ele>4</ele>
        <time>2019-07-12T16:09:32.000Z</time>
      </trkpt>
      <trkpt lat="43.50753248669207096099853515625" lon="-5.39025298319756984710693359375">
        <ele>5.19999980926513671875</ele>
        <time>2019-07-12T16:09:35.000Z</time>
      </trkpt>
      <trkpt lat="43.50761915557086467742919921875" lon="-5.38955342955887317657470703125">
        <ele>5.19999980926513671875</ele>
        <time>2019-07-12T16:09:38.000Z</time>
      </trkpt>
      <trkpt lat="43.50760482251644134521484375" lon="-5.3887924365699291229248046875">
        <ele>5</ele>
        <time>2019-07-12T16:09:41.000Z</time>
      </trkpt>
      <trkpt lat="43.5075657628476619720458984375" lon="-5.388015098869800567626953125">
        <ele>5</ele>
        <time>2019-07-12T16:09:44.000Z</time>
      </trkpt>
      <trkpt lat="43.50758043117821216583251953125" lon="-5.3877557627856731414794921875">
        <ele>5</ele>
        <time>2019-07-12T16:09:45.000Z</time>
      </trkpt>
      <trkpt lat="43.50767799653112888336181640625" lon="-5.38727070204913616180419921875">
        <ele>4.400000095367431640625</ele>
        <time>2019-07-12T16:09:47.000Z</time>
      </trkpt>
      <trkpt lat="43.50784110836684703826904296875" lon="-5.3865957073867321014404296875">
        <ele>5.19999980926513671875</ele>
        <time>2019-07-12T16:09:50.000Z</time>
      </trkpt>
      <trkpt lat="43.50783138535916805267333984375" lon="-5.386102013289928436279296875">
        <ele>6.400000095367431640625</ele>
        <time>2019-07-12T16:09:52.000Z</time>
      </trkpt>
      <trkpt lat="43.50777891464531421661376953125" lon="-5.38584225811064243316650390625">
        <ele>8</ele>
        <time>2019-07-12T16:09:53.000Z</time>
      </trkpt>
      <trkpt lat="43.50770565681159496307373046875" lon="-5.38558267056941986083984375">
        <ele>9.80000019073486328125</ele>
        <time>2019-07-12T16:09:54.000Z</time>
      </trkpt>
      <trkpt lat="43.50762820802628993988037109375" lon="-5.385328866541385650634765625">
        <ele>12</ele>
        <time>2019-07-12T16:09:55.000Z</time>
      </trkpt>
      <trkpt lat="43.50755226798355579376220703125" lon="-5.3850799240171909332275390625">
        <ele>14.19999980926513671875</ele>
        <time>2019-07-12T16:09:56.000Z</time>
      </trkpt>
      <trkpt lat="43.5074775852262973785400390625" lon="-5.3848254494369029998779296875">
        <ele>15.3999996185302734375</ele>
        <time>2019-07-12T16:09:57.000Z</time>
      </trkpt>
      <trkpt lat="43.5072955302894115447998046875" lon="-5.38433971814811229705810546875">
        <ele>16.3999996185302734375</ele>
        <time>2019-07-12T16:09:59.000Z</time>
      </trkpt>
      <trkpt lat="43.506982885301113128662109375" lon="-5.3839419968426227569580078125">
        <ele>15.19999980926513671875</ele>
        <time>2019-07-12T16:10:01.000Z</time>
      </trkpt>
      <trkpt lat="43.50662447512149810791015625" lon="-5.38356036879122257232666015625">
        <ele>14</ele>
        <time>2019-07-12T16:10:03.000Z</time>
      </trkpt>
      <trkpt lat="43.50638668052852153778076171875" lon="-5.3831420280039310455322265625">
        <ele>13.19999980926513671875</ele>
        <time>2019-07-12T16:10:05.000Z</time>
      </trkpt>
      <trkpt lat="43.50618568249046802520751953125" lon="-5.38255152292549610137939453125">
        <ele>14.80000019073486328125</ele>
        <time>2019-07-12T16:10:08.000Z</time>
      </trkpt>
      <trkpt lat="43.50608040578663349151611328125" lon="-5.3824416361749172210693359375">
        <ele>15.80000019073486328125</ele>
        <time>2019-07-12T16:10:09.000Z</time>
      </trkpt>
      <trkpt lat="43.505953252315521240234375" lon="-5.3823821246623992919921875">
        <ele>18</ele>
        <time>2019-07-12T16:10:10.000Z</time>
      </trkpt>
      <trkpt lat="43.5058271884918212890625" lon="-5.3823239542543888092041015625">
        <ele>20.200000762939453125</ele>
        <time>2019-07-12T16:10:11.000Z</time>
      </trkpt>
      <trkpt lat="43.505720905959606170654296875" lon="-5.38221674971282482147216796875">
        <ele>22.200000762939453125</ele>
        <time>2019-07-12T16:10:12.000Z</time>
      </trkpt>
      <trkpt lat="43.50563163869082927703857421875" lon="-5.3820683062076568603515625">
        <ele>23.6000003814697265625</ele>
        <time>2019-07-12T16:10:13.000Z</time>
      </trkpt>
      <trkpt lat="43.50554463453590869903564453125" lon="-5.38193176500499248504638671875">
        <ele>24.6000003814697265625</ele>
        <time>2019-07-12T16:10:14.000Z</time>
      </trkpt>
      <trkpt lat="43.50544958375394344329833984375" lon="-5.38184492848813533782958984375">
        <ele>25.3999996185302734375</ele>
        <time>2019-07-12T16:10:15.000Z</time>
      </trkpt>
      <trkpt lat="43.5053457319736480712890625" lon="-5.38182782940566539764404296875">
        <ele>26</ele>
        <time>2019-07-12T16:10:16.000Z</time>
      </trkpt>
      <trkpt lat="43.505239449441432952880859375" lon="-5.38188667036592960357666015625">
        <ele>26.6000003814697265625</ele>
        <time>2019-07-12T16:10:17.000Z</time>
      </trkpt>
      <trkpt lat="43.50514121353626251220703125" lon="-5.38201072253286838531494140625">
        <ele>27.3999996185302734375</ele>
        <time>2019-07-12T16:10:18.000Z</time>
      </trkpt>
      <trkpt lat="43.50504842586815357208251953125" lon="-5.382149778306484222412109375">
        <ele>28.3999996185302734375</ele>
        <time>2019-07-12T16:10:19.000Z</time>
      </trkpt>
      <trkpt lat="43.50494817830622196197509765625" lon="-5.38225530646741390228271484375">
        <ele>29</ele>
        <time>2019-07-12T16:10:20.000Z</time>
      </trkpt>
      <trkpt lat="43.5048349387943744659423828125" lon="-5.3822994790971279144287109375">
        <ele>29.799999237060546875</ele>
        <time>2019-07-12T16:10:21.000Z</time>
      </trkpt>
      <trkpt lat="43.50472102873027324676513671875" lon="-5.38227877579629421234130859375">
        <ele>30.3999996185302734375</ele>
        <time>2019-07-12T16:10:22.000Z</time>
      </trkpt>
      <trkpt lat="43.5046242177486419677734375" lon="-5.382194705307483673095703125">
        <ele>30.799999237060546875</ele>
        <time>2019-07-12T16:10:23.000Z</time>
      </trkpt>
      <trkpt lat="43.5045603476464748382568359375" lon="-5.38206067867577075958251953125">
        <ele>31</ele>
        <time>2019-07-12T16:10:24.000Z</time>
      </trkpt>
      <trkpt lat="43.50455523468554019927978515625" lon="-5.3816570900380611419677734375">
        <ele>30.799999237060546875</ele>
        <time>2019-07-12T16:10:26.000Z</time>
      </trkpt>
      <trkpt lat="43.50462832488119602203369140625" lon="-5.3810799121856689453125">
        <ele>28.799999237060546875</ele>
        <time>2019-07-12T16:10:28.000Z</time>
      </trkpt>
      <trkpt lat="43.50466637872159481048583984375" lon="-5.38075176067650318145751953125">
        <ele>27.200000762939453125</ele>
        <time>2019-07-12T16:10:29.000Z</time>
      </trkpt>
      <trkpt lat="43.50470627658069133758544921875" lon="-5.38043014705181121826171875">
        <ele>24.200000762939453125</ele>
        <time>2019-07-12T16:10:30.000Z</time>
      </trkpt>
      <trkpt lat="43.5047363676130771636962890625" lon="-5.38012864999473094940185546875">
        <ele>21.200000762939453125</ele>
        <time>2019-07-12T16:10:31.000Z</time>
      </trkpt>
      <trkpt lat="43.50475287996232509613037109375" lon="-5.3798492811620235443115234375">
        <ele>19.799999237060546875</ele>
        <time>2019-07-12T16:10:32.000Z</time>
      </trkpt>
      <trkpt lat="43.5047722421586513519287109375" lon="-5.379591621458530426025390625">
        <ele>19</ele>
        <time>2019-07-12T16:10:33.000Z</time>
      </trkpt>
      <trkpt lat="43.50489134900271892547607421875" lon="-5.379113517701625823974609375">
        <ele>21</ele>
        <time>2019-07-12T16:10:35.000Z</time>
      </trkpt>
      <trkpt lat="43.50496913306415081024169921875" lon="-5.378890223801136016845703125">
        <ele>24</ele>
        <time>2019-07-12T16:10:36.000Z</time>
      </trkpt>
      <trkpt lat="43.5050397925078868865966796875" lon="-5.3786845318973064422607421875">
        <ele>26</ele>
        <time>2019-07-12T16:10:37.000Z</time>
      </trkpt>
      <trkpt lat="43.50509829819202423095703125" lon="-5.37849535234272480010986328125">
        <ele>27.6000003814697265625</ele>
        <time>2019-07-12T16:10:38.000Z</time>
      </trkpt>
      <trkpt lat="43.5051397047936916351318359375" lon="-5.37832117639482021331787109375">
        <ele>28.799999237060546875</ele>
        <time>2019-07-12T16:10:39.000Z</time>
      </trkpt>
      <trkpt lat="43.50514590740203857421875" lon="-5.37816141732037067413330078125">
        <ele>30.6000003814697265625</ele>
        <time>2019-07-12T16:10:40.000Z</time>
      </trkpt>
      <trkpt lat="43.50511095486581325531005859375" lon="-5.37802965380251407623291015625">
        <ele>33.59999847412109375</ele>
        <time>2019-07-12T16:10:41.000Z</time>
      </trkpt>
      <trkpt lat="43.50503928959369659423828125" lon="-5.377936027944087982177734375">
        <ele>36.799999237060546875</ele>
        <time>2019-07-12T16:10:42.000Z</time>
      </trkpt>
      <trkpt lat="43.50494314916431903839111328125" lon="-5.3778652846813201904296875">
        <ele>39.59999847412109375</ele>
        <time>2019-07-12T16:10:43.000Z</time>
      </trkpt>
      <trkpt lat="43.504847176373004913330078125" lon="-5.3777846507728099822998046875">
        <ele>41.40000152587890625</ele>
        <time>2019-07-12T16:10:44.000Z</time>
      </trkpt>
      <trkpt lat="43.50477266125380992889404296875" lon="-5.377670824527740478515625">
        <ele>42.59999847412109375</ele>
        <time>2019-07-12T16:10:45.000Z</time>
      </trkpt>
      <trkpt lat="43.50473695434629917144775390625" lon="-5.3773598559200763702392578125">
        <ele>43.59999847412109375</ele>
        <time>2019-07-12T16:10:47.000Z</time>
      </trkpt>
      <trkpt lat="43.5047792829573154449462890625" lon="-5.377178303897380828857421875">
        <ele>43.799999237060546875</ele>
        <time>2019-07-12T16:10:48.000Z</time>
      </trkpt>
      <trkpt lat="43.50495086051523685455322265625" lon="-5.37666005082428455352783203125">
        <ele>44</ele>
        <time>2019-07-12T16:10:51.000Z</time>
      </trkpt>
      <trkpt lat="43.50493007339537143707275390625" lon="-5.376355536282062530517578125">
        <ele>45.200000762939453125</ele>
        <time>2019-07-12T16:10:53.000Z</time>
      </trkpt>
      <trkpt lat="43.504859246313571929931640625" lon="-5.37622519768774509429931640625">
        <ele>46.59999847412109375</ele>
        <time>2019-07-12T16:10:54.000Z</time>
      </trkpt>
      <trkpt lat="43.5047628544270992279052734375" lon="-5.37610701285302639007568359375">
        <ele>48.200000762939453125</ele>
        <time>2019-07-12T16:10:55.000Z</time>
      </trkpt>
      <trkpt lat="43.5046518780291080474853515625" lon="-5.375986061990261077880859375">
        <ele>49.40000152587890625</ele>
        <time>2019-07-12T16:10:56.000Z</time>
      </trkpt>
      <trkpt lat="43.50441860966384410858154296875" lon="-5.37575782276690006256103515625">
        <ele>50.59999847412109375</ele>
        <time>2019-07-12T16:10:58.000Z</time>
      </trkpt>
      <trkpt lat="43.50415407679975032806396484375" lon="-5.3756712377071380615234375">
        <ele>52</ele>
        <time>2019-07-12T16:11:00.000Z</time>
      </trkpt>
      <trkpt lat="43.5038968361914157867431640625" lon="-5.37570551969110965728759765625">
        <ele>53</ele>
        <time>2019-07-12T16:11:02.000Z</time>
      </trkpt>
      <trkpt lat="43.503776974976062774658203125" lon="-5.37569210864603519439697265625">
        <ele>53.59999847412109375</ele>
        <time>2019-07-12T16:11:03.000Z</time>
      </trkpt>
      <trkpt lat="43.5036789067089557647705078125" lon="-5.3756318427622318267822265625">
        <ele>53.799999237060546875</ele>
        <time>2019-07-12T16:11:04.000Z</time>
      </trkpt>
      <trkpt lat="43.50358150899410247802734375" lon="-5.3753773681819438934326171875">
        <ele>55</ele>
        <time>2019-07-12T16:11:06.000Z</time>
      </trkpt>
      <trkpt lat="43.50356164388358592987060546875" lon="-5.3750249929726123809814453125">
        <ele>56</ele>
        <time>2019-07-12T16:11:08.000Z</time>
      </trkpt>
      <trkpt lat="43.5035139508545398712158203125" lon="-5.3746525011956691741943359375">
        <ele>57.200000762939453125</ele>
        <time>2019-07-12T16:11:10.000Z</time>
      </trkpt>
      <trkpt lat="43.5033915750682353973388671875" lon="-5.3743098489940166473388671875">
        <ele>58.200000762939453125</ele>
        <time>2019-07-12T16:11:12.000Z</time>
      </trkpt>
      <trkpt lat="43.5033104382455348968505859375" lon="-5.37415570579469203948974609375">
        <ele>58.40000152587890625</ele>
        <time>2019-07-12T16:11:13.000Z</time>
      </trkpt>
      <trkpt lat="43.503073565661907196044921875" lon="-5.373734347522258758544921875">
        <ele>57.799999237060546875</ele>
        <time>2019-07-12T16:11:16.000Z</time>
      </trkpt>
      <trkpt lat="43.50302637554705142974853515625" lon="-5.3734056092798709869384765625">
        <ele>57.59999847412109375</ele>
        <time>2019-07-12T16:11:18.000Z</time>
      </trkpt>
      <trkpt lat="43.5030385293066501617431640625" lon="-5.37284745834767818450927734375">
        <ele>58.799999237060546875</ele>
        <time>2019-07-12T16:11:21.000Z</time>
      </trkpt>
      <trkpt lat="43.50299284793436527252197265625" lon="-5.3726757131516933441162109375">
        <ele>59.40000152587890625</ele>
        <time>2019-07-12T16:11:22.000Z</time>
      </trkpt>
      <trkpt lat="43.502914644777774810791015625" lon="-5.37253313697874546051025390625">
        <ele>59.799999237060546875</ele>
        <time>2019-07-12T16:11:23.000Z</time>
      </trkpt>
      <trkpt lat="43.50273954682052135467529296875" lon="-5.372283272445201873779296875">
        <ele>60.59999847412109375</ele>
        <time>2019-07-12T16:11:25.000Z</time>
      </trkpt>
      <trkpt lat="43.50262270309031009674072265625" lon="-5.37195595912635326385498046875">
        <ele>61.59999847412109375</ele>
        <time>2019-07-12T16:11:27.000Z</time>
      </trkpt>
      <trkpt lat="43.502584397792816162109375" lon="-5.37177943624556064605712890625">
        <ele>61.799999237060546875</ele>
        <time>2019-07-12T16:11:28.000Z</time>
      </trkpt>
      <trkpt lat="43.5025025904178619384765625" lon="-5.3714506141841411590576171875">
        <ele>62.59999847412109375</ele>
        <time>2019-07-12T16:11:30.000Z</time>
      </trkpt>
      <trkpt lat="43.502443917095661163330078125" lon="-5.371309630572795867919921875">
        <ele>63</ele>
        <time>2019-07-12T16:11:31.000Z</time>
      </trkpt>
      <trkpt lat="43.50236956961452960968017578125" lon="-5.3711904399096965789794921875">
        <ele>63.40000152587890625</ele>
        <time>2019-07-12T16:11:32.000Z</time>
      </trkpt>
      <trkpt lat="43.5021986626088619232177734375" lon="-5.37101022899150848388671875">
        <ele>64.1999969482421875</ele>
        <time>2019-07-12T16:11:34.000Z</time>
      </trkpt>
      <trkpt lat="43.502111323177814483642578125" lon="-5.3709446825087070465087890625">
        <ele>65.1999969482421875</ele>
        <time>2019-07-12T16:11:35.000Z</time>
      </trkpt>
      <trkpt lat="43.5020209662616252899169921875" lon="-5.37089749239385128021240234375">
        <ele>66.40000152587890625</ele>
        <time>2019-07-12T16:11:36.000Z</time>
      </trkpt>
      <trkpt lat="43.501925580203533172607421875" lon="-5.37087251432240009307861328125">
        <ele>67.59999847412109375</ele>
        <time>2019-07-12T16:11:37.000Z</time>
      </trkpt>
      <trkpt lat="43.50173187442123889923095703125" lon="-5.37084368057548999786376953125">
        <ele>69.59999847412109375</ele>
        <time>2019-07-12T16:11:39.000Z</time>
      </trkpt>
      <trkpt lat="43.50164336152374744415283203125" lon="-5.3708119131624698638916015625">
        <ele>70.1999969482421875</ele>
        <time>2019-07-12T16:11:40.000Z</time>
      </trkpt>
      <trkpt lat="43.50156608037650585174560546875" lon="-5.370755754411220550537109375">
        <ele>70.59999847412109375</ele>
        <time>2019-07-12T16:11:41.000Z</time>
      </trkpt>
      <trkpt lat="43.5015021264553070068359375" lon="-5.3706761263310909271240234375">
        <ele>70.8000030517578125</ele>
        <time>2019-07-12T16:11:42.000Z</time>
      </trkpt>
      <trkpt lat="43.5012897290289402008056640625" lon="-5.3702815063297748565673828125">
        <ele>72.1999969482421875</ele>
        <time>2019-07-12T16:11:46.000Z</time>
      </trkpt>
      <trkpt lat="43.501134328544139862060546875" lon="-5.37011898122727870941162109375">
        <ele>73.59999847412109375</ele>
        <time>2019-07-12T16:11:48.000Z</time>
      </trkpt>
      <trkpt lat="43.50064314901828765869140625" lon="-5.36983416415750980377197265625">
        <ele>73.8000030517578125</ele>
        <time>2019-07-12T16:11:53.000Z</time>
      </trkpt>
      <trkpt lat="43.5005486011505126953125" lon="-5.36977549083530902862548828125">
        <ele>73.8000030517578125</ele>
        <time>2019-07-12T16:11:54.000Z</time>
      </trkpt>
      <trkpt lat="43.50040133111178874969482421875" lon="-5.36956996656954288482666015625">
        <ele>74</ele>
        <time>2019-07-12T16:11:56.000Z</time>
      </trkpt>
      <trkpt lat="43.500256240367889404296875" lon="-5.3689330257475376129150390625">
        <ele>74.1999969482421875</ele>
        <time>2019-07-12T16:12:00.000Z</time>
      </trkpt>
      <trkpt lat="43.5001663863658905029296875" lon="-5.36860839463770389556884765625">
        <ele>74.59999847412109375</ele>
        <time>2019-07-12T16:12:02.000Z</time>
      </trkpt>
      <trkpt lat="43.5000988282263278961181640625" lon="-5.368455760180950164794921875">
        <ele>74.59999847412109375</ele>
        <time>2019-07-12T16:12:03.000Z</time>
      </trkpt>
      <trkpt lat="43.4997732751071453094482421875" lon="-5.367882438004016876220703125">
        <ele>74.40000152587890625</ele>
        <time>2019-07-12T16:12:07.000Z</time>
      </trkpt>
      <trkpt lat="43.499504886567592620849609375" lon="-5.3672288171947002410888671875">
        <ele>74.59999847412109375</ele>
        <time>2019-07-12T16:12:11.000Z</time>
      </trkpt>
      <trkpt lat="43.49937303923070430755615234375" lon="-5.3668901883065700531005859375">
        <ele>75.8000030517578125</ele>
        <time>2019-07-12T16:12:13.000Z</time>
      </trkpt>
      <trkpt lat="43.4992509149014949798583984375" lon="-5.36657041870057582855224609375">
        <ele>78</ele>
        <time>2019-07-12T16:12:15.000Z</time>
      </trkpt>
      <trkpt lat="43.49919483996927738189697265625" lon="-5.36641283892095088958740234375">
        <ele>79.1999969482421875</ele>
        <time>2019-07-12T16:12:16.000Z</time>
      </trkpt>
      <trkpt lat="43.49914052523672580718994140625" lon="-5.366260707378387451171875">
        <ele>80.59999847412109375</ele>
        <time>2019-07-12T16:12:17.000Z</time>
      </trkpt>
      <trkpt lat="43.4990873001515865325927734375" lon="-5.366112850606441497802734375">
        <ele>82.40000152587890625</ele>
        <time>2019-07-12T16:12:18.000Z</time>
      </trkpt>
      <trkpt lat="43.4990353323519229888916015625" lon="-5.36596675403416156768798828125">
        <ele>84</ele>
        <time>2019-07-12T16:12:19.000Z</time>
      </trkpt>
      <trkpt lat="43.49893181584775447845458984375" lon="-5.36567858420312404632568359375">
        <ele>85.40000152587890625</ele>
        <time>2019-07-12T16:12:21.000Z</time>
      </trkpt>
      <trkpt lat="43.4987506829202175140380859375" lon="-5.3651900030672550201416015625">
        <ele>83.1999969482421875</ele>
        <time>2019-07-12T16:12:24.000Z</time>
      </trkpt>
      <trkpt lat="43.49867952056229114532470703125" lon="-5.365004427731037139892578125">
        <ele>82</ele>
        <time>2019-07-12T16:12:25.000Z</time>
      </trkpt>
      <trkpt lat="43.49860710091888904571533203125" lon="-5.36481172777712345123291015625">
        <ele>80.8000030517578125</ele>
        <time>2019-07-12T16:12:26.000Z</time>
      </trkpt>
      <trkpt lat="43.49836536683142185211181640625" lon="-5.364185012876987457275390625">
        <ele>79.59999847412109375</ele>
        <time>2019-07-12T16:12:29.000Z</time>
      </trkpt>
      <trkpt lat="43.4982165880501270294189453125" lon="-5.3637969307601451873779296875">
        <ele>78.1999969482421875</ele>
        <time>2019-07-12T16:12:31.000Z</time>
      </trkpt>
      <trkpt lat="43.4981196932494640350341796875" lon="-5.3634552843868732452392578125">
        <ele>78.40000152587890625</ele>
        <time>2019-07-12T16:12:33.000Z</time>
      </trkpt>
      <trkpt lat="43.49810821004211902618408203125" lon="-5.3632915019989013671875">
        <ele>79.40000152587890625</ele>
        <time>2019-07-12T16:12:34.000Z</time>
      </trkpt>
      <trkpt lat="43.49812732078135013580322265625" lon="-5.36313367076218128204345703125">
        <ele>81.59999847412109375</ele>
        <time>2019-07-12T16:12:35.000Z</time>
      </trkpt>
      <trkpt lat="43.49817417562007904052734375" lon="-5.36298564635217189788818359375">
        <ele>84.59999847412109375</ele>
        <time>2019-07-12T16:12:36.000Z</time>
      </trkpt>
      <trkpt lat="43.49824927747249603271484375" lon="-5.3628578223288059234619140625">
        <ele>87.1999969482421875</ele>
        <time>2019-07-12T16:12:37.000Z</time>
      </trkpt>
      <trkpt lat="43.49835388362407684326171875" lon="-5.36275975406169891357421875">
        <ele>88.8000030517578125</ele>
        <time>2019-07-12T16:12:38.000Z</time>
      </trkpt>
      <trkpt lat="43.498477935791015625" lon="-5.3626774437725543975830078125">
        <ele>89.8000030517578125</ele>
        <time>2019-07-12T16:12:39.000Z</time>
      </trkpt>
      <trkpt lat="43.49860928021371364593505859375" lon="-5.36258934997022151947021484375">
        <ele>90.40000152587890625</ele>
        <time>2019-07-12T16:12:40.000Z</time>
      </trkpt>
      <trkpt lat="43.49904161877930164337158203125" lon="-5.36227553151547908782958984375">
        <ele>90.8000030517578125</ele>
        <time>2019-07-12T16:12:43.000Z</time>
      </trkpt>
      <trkpt lat="43.49918075837194919586181640625" lon="-5.36213505081832408905029296875">
        <ele>91.1999969482421875</ele>
        <time>2019-07-12T16:12:44.000Z</time>
      </trkpt>
      <trkpt lat="43.49931009113788604736328125" lon="-5.36196582019329071044921875">
        <ele>91.40000152587890625</ele>
        <time>2019-07-12T16:12:45.000Z</time>
      </trkpt>
      <trkpt lat="43.4994282759726047515869140625" lon="-5.36177136003971099853515625">
        <ele>91.40000152587890625</ele>
        <time>2019-07-12T16:12:46.000Z</time>
      </trkpt>
      <trkpt lat="43.49973882548511028289794921875" lon="-5.361132659018039703369140625">
        <ele>91.59999847412109375</ele>
        <time>2019-07-12T16:12:49.000Z</time>
      </trkpt>
      <trkpt lat="43.49985231645405292510986328125" lon="-5.36092638038098812103271484375">
        <ele>91.40000152587890625</ele>
        <time>2019-07-12T16:12:50.000Z</time>
      </trkpt>
      <trkpt lat="43.50014434196054935455322265625" lon="-5.3606010787189006805419921875">
        <ele>89.1999969482421875</ele>
        <time>2019-07-12T16:12:52.000Z</time>
      </trkpt>
      <trkpt lat="43.50066284649074077606201171875" lon="-5.3603241406381130218505859375">
        <ele>88.40000152587890625</ele>
        <time>2019-07-12T16:12:55.000Z</time>
      </trkpt>
      <trkpt lat="43.500816486775875091552734375" lon="-5.3602270781993865966796875">
        <ele>88.1999969482421875</ele>
        <time>2019-07-12T16:12:56.000Z</time>
      </trkpt>
      <trkpt lat="43.50107657723128795623779296875" lon="-5.3599613718688488006591796875">
        <ele>88.8000030517578125</ele>
        <time>2019-07-12T16:12:58.000Z</time>
      </trkpt>
      <trkpt lat="43.50118235684931278228759765625" lon="-5.35978258587419986724853515625">
        <ele>90.40000152587890625</ele>
        <time>2019-07-12T16:12:59.000Z</time>
      </trkpt>
      <trkpt lat="43.501273132860660552978515625" lon="-5.3595774807035923004150390625">
        <ele>92.59999847412109375</ele>
        <time>2019-07-12T16:13:00.000Z</time>
      </trkpt>
      <trkpt lat="43.5013544373214244842529296875" lon="-5.3593541868031024932861328125">
        <ele>94.1999969482421875</ele>
        <time>2019-07-12T16:13:01.000Z</time>
      </trkpt>
      <trkpt lat="43.50143280811607837677001953125" lon="-5.3591188229620456695556640625">
        <ele>95.8000030517578125</ele>
        <time>2019-07-12T16:13:02.000Z</time>
      </trkpt>
      <trkpt lat="43.50151226855814456939697265625" lon="-5.35887650214135646820068359375">
        <ele>97.59999847412109375</ele>
        <time>2019-07-12T16:13:03.000Z</time>
      </trkpt>
      <trkpt lat="43.50159357301890850067138671875" lon="-5.3586306609213352203369140625">
        <ele>99</ele>
        <time>2019-07-12T16:13:04.000Z</time>
      </trkpt>
      <trkpt lat="43.50184611976146697998046875" lon="-5.3579295985400676727294921875">
        <ele>99</ele>
        <time>2019-07-12T16:13:07.000Z</time>
      </trkpt>
      <trkpt lat="43.50207854993641376495361328125" lon="-5.35740061663091182708740234375">
        <ele>99.59999847412109375</ele>
        <time>2019-07-12T16:13:10.000Z</time>
      </trkpt>
      <trkpt lat="43.50214962847530841827392578125" lon="-5.357027538120746612548828125">
        <ele>101.1999969482421875</ele>
        <time>2019-07-12T16:13:12.000Z</time>
      </trkpt>
      <trkpt lat="43.5021780431270599365234375" lon="-5.356840454041957855224609375">
        <ele>102.59999847412109375</ele>
        <time>2019-07-12T16:13:13.000Z</time>
      </trkpt>
      <trkpt lat="43.50220344029366970062255859375" lon="-5.356655381619930267333984375">
        <ele>104</ele>
        <time>2019-07-12T16:13:14.000Z</time>
      </trkpt>
      <trkpt lat="43.5022171027958393096923828125" lon="-5.35647173412144184112548828125">
        <ele>105.1999969482421875</ele>
        <time>2019-07-12T16:13:15.000Z</time>
      </trkpt>
      <trkpt lat="43.50220930762588977813720703125" lon="-5.35629336722195148468017578125">
        <ele>106.1999969482421875</ele>
        <time>2019-07-12T16:13:16.000Z</time>
      </trkpt>
      <trkpt lat="43.50218600593507289886474609375" lon="-5.35612908191978931427001953125">
        <ele>107.40000152587890625</ele>
        <time>2019-07-12T16:13:17.000Z</time>
      </trkpt>
      <trkpt lat="43.50217544473707675933837890625" lon="-5.35597938112914562225341796875">
        <ele>108.59999847412109375</ele>
        <time>2019-07-12T16:13:18.000Z</time>
      </trkpt>
      <trkpt lat="43.5021976567804813385009765625" lon="-5.3558425046503543853759765625">
        <ele>109.59999847412109375</ele>
        <time>2019-07-12T16:13:19.000Z</time>
      </trkpt>
      <trkpt lat="43.502257168292999267578125" lon="-5.35572825931012630462646484375">
        <ele>110.40000152587890625</ele>
        <time>2019-07-12T16:13:20.000Z</time>
      </trkpt>
      <trkpt lat="43.50234635174274444580078125" lon="-5.35564745776355266571044921875">
        <ele>111.1999969482421875</ele>
        <time>2019-07-12T16:13:21.000Z</time>
      </trkpt>
      <trkpt lat="43.50245892070233821868896484375" lon="-5.35559901036322116851806640625">
        <ele>111.59999847412109375</ele>
        <time>2019-07-12T16:13:22.000Z</time>
      </trkpt>
      <trkpt lat="43.502708114683628082275390625" lon="-5.3555038757622241973876953125">
        <ele>112.40000152587890625</ele>
        <time>2019-07-12T16:13:24.000Z</time>
      </trkpt>
      <trkpt lat="43.50293434225022792816162109375" lon="-5.35529374144971370697021484375">
        <ele>113.59999847412109375</ele>
        <time>2019-07-12T16:13:26.000Z</time>
      </trkpt>
      <trkpt lat="43.503017909824848175048828125" lon="-5.35513984970748424530029296875">
        <ele>114.8000030517578125</ele>
        <time>2019-07-12T16:13:27.000Z</time>
      </trkpt>
      <trkpt lat="43.5030819475650787353515625" lon="-5.35496030934154987335205078125">
        <ele>116.59999847412109375</ele>
        <time>2019-07-12T16:13:28.000Z</time>
      </trkpt>
      <trkpt lat="43.5031340830028057098388671875" lon="-5.35476207733154296875">
        <ele>118.40000152587890625</ele>
        <time>2019-07-12T16:13:29.000Z</time>
      </trkpt>
      <trkpt lat="43.5032326541841030120849609375" lon="-5.354331918060779571533203125">
        <ele>120.1999969482421875</ele>
        <time>2019-07-12T16:13:31.000Z</time>
      </trkpt>
      <trkpt lat="43.5033322311937808990478515625" lon="-5.35385808907449245452880859375">
        <ele>121.59999847412109375</ele>
        <time>2019-07-12T16:13:33.000Z</time>
      </trkpt>
      <trkpt lat="43.50344161503016948699951171875" lon="-5.35305082798004150390625">
        <ele>120.8000030517578125</ele>
        <time>2019-07-12T16:13:36.000Z</time>
      </trkpt>
      <trkpt lat="43.5034626536071300506591796875" lon="-5.3522153198719024658203125">
        <ele>121.1999969482421875</ele>
        <time>2019-07-12T16:13:39.000Z</time>
      </trkpt>
      <trkpt lat="43.50345410406589508056640625" lon="-5.35167611204087734222412109375">
        <ele>123.40000152587890625</ele>
        <time>2019-07-12T16:13:41.000Z</time>
      </trkpt>
      <trkpt lat="43.503443710505962371826171875" lon="-5.35141945816576480865478515625">
        <ele>125</ele>
        <time>2019-07-12T16:13:42.000Z</time>
      </trkpt>
      <trkpt lat="43.50341211073100566864013671875" lon="-5.35091671161353588104248046875">
        <ele>126.59999847412109375</ele>
        <time>2019-07-12T16:13:44.000Z</time>
      </trkpt>
      <trkpt lat="43.503363914787769317626953125" lon="-5.350429974496364593505859375">
        <ele>127.8000030517578125</ele>
        <time>2019-07-12T16:13:46.000Z</time>
      </trkpt>
      <trkpt lat="43.50326425395905971527099609375" lon="-5.3499676287174224853515625">
        <ele>130</ele>
        <time>2019-07-12T16:13:48.000Z</time>
      </trkpt>
      <trkpt lat="43.50320105440914630889892578125" lon="-5.349762439727783203125">
        <ele>131.1999969482421875</ele>
        <time>2019-07-12T16:13:49.000Z</time>
      </trkpt>
      <trkpt lat="43.50312645547091960906982421875" lon="-5.3495865873992443084716796875">
        <ele>132.8000030517578125</ele>
        <time>2019-07-12T16:13:50.000Z</time>
      </trkpt>
      <trkpt lat="43.50303224287927150726318359375" lon="-5.3494474478065967559814453125">
        <ele>134.8000030517578125</ele>
        <time>2019-07-12T16:13:51.000Z</time>
      </trkpt>
      <trkpt lat="43.50292663089931011199951171875" lon="-5.34935273230075836181640625">
        <ele>136.8000030517578125</ele>
        <time>2019-07-12T16:13:52.000Z</time>
      </trkpt>
      <trkpt lat="43.50280475802719593048095703125" lon="-5.3492952324450016021728515625">
        <ele>138</ele>
        <time>2019-07-12T16:13:53.000Z</time>
      </trkpt>
      <trkpt lat="43.50266729481518268585205078125" lon="-5.34926380030810832977294921875">
        <ele>139.1999969482421875</ele>
        <time>2019-07-12T16:13:54.000Z</time>
      </trkpt>
      <trkpt lat="43.50252874195575714111328125" lon="-5.34923681057989597320556640625">
        <ele>140.399993896484375</ele>
        <time>2019-07-12T16:13:55.000Z</time>
      </trkpt>
      <trkpt lat="43.50239153020083904266357421875" lon="-5.3491815738379955291748046875">
        <ele>141.399993896484375</ele>
        <time>2019-07-12T16:13:56.000Z</time>
      </trkpt>
      <trkpt lat="43.502262197434902191162109375" lon="-5.3490883670747280120849609375">
        <ele>141.8000030517578125</ele>
        <time>2019-07-12T16:13:57.000Z</time>
      </trkpt>
      <trkpt lat="43.5020414181053638458251953125" lon="-5.3488680906593799591064453125">
        <ele>143</ele>
        <time>2019-07-12T16:13:59.000Z</time>
      </trkpt>
      <trkpt lat="43.5019592754542827606201171875" lon="-5.348756946623325347900390625">
        <ele>143.600006103515625</ele>
        <time>2019-07-12T16:14:00.000Z</time>
      </trkpt>
      <trkpt lat="43.50190521217882633209228515625" lon="-5.34850842319428920745849609375">
        <ele>144.8000030517578125</ele>
        <time>2019-07-12T16:14:02.000Z</time>
      </trkpt>
      <trkpt lat="43.5019505582749843597412109375" lon="-5.34838168881833553314208984375">
        <ele>146</ele>
        <time>2019-07-12T16:14:03.000Z</time>
      </trkpt>
      <trkpt lat="43.50203429348766803741455078125" lon="-5.34825378097593784332275390625">
        <ele>147.1999969482421875</ele>
        <time>2019-07-12T16:14:04.000Z</time>
      </trkpt>
      <trkpt lat="43.5022539831697940826416015625" lon="-5.34797332249581813812255859375">
        <ele>148.399993896484375</ele>
        <time>2019-07-12T16:14:06.000Z</time>
      </trkpt>
      <trkpt lat="43.502617590129375457763671875" lon="-5.3475471027195453643798828125">
        <ele>148.8000030517578125</ele>
        <time>2019-07-12T16:14:09.000Z</time>
      </trkpt>
      <trkpt lat="43.50293886847794055938720703125" lon="-5.34708936698734760284423828125">
        <ele>149.399993896484375</ele>
        <time>2019-07-12T16:14:12.000Z</time>
      </trkpt>
      <trkpt lat="43.50308421067893505096435546875" lon="-5.34669826738536357879638671875">
        <ele>150.8000030517578125</ele>
        <time>2019-07-12T16:14:14.000Z</time>
      </trkpt>
      <trkpt lat="43.50317104719579219818115234375" lon="-5.3465033881366252899169921875">
        <ele>151.600006103515625</ele>
        <time>2019-07-12T16:14:15.000Z</time>
      </trkpt>
      <trkpt lat="43.503264002501964569091796875" lon="-5.3463065810501575469970703125">
        <ele>152.399993896484375</ele>
        <time>2019-07-12T16:14:16.000Z</time>
      </trkpt>
      <trkpt lat="43.50334354676306247711181640625" lon="-5.346095524728298187255859375">
        <ele>153</ele>
        <time>2019-07-12T16:14:17.000Z</time>
      </trkpt>
      <trkpt lat="43.50353163667023181915283203125" lon="-5.34545741043984889984130859375">
        <ele>152.399993896484375</ele>
        <time>2019-07-12T16:14:20.000Z</time>
      </trkpt>
      <trkpt lat="43.50360757671296596527099609375" lon="-5.3450623713433742523193359375">
        <ele>153</ele>
        <time>2019-07-12T16:14:22.000Z</time>
      </trkpt>
      <trkpt lat="43.50362014956772327423095703125" lon="-5.3448551706969738006591796875">
        <ele>154.399993896484375</ele>
        <time>2019-07-12T16:14:23.000Z</time>
      </trkpt>
      <trkpt lat="43.50362584926187992095947265625" lon="-5.34464201889932155609130859375">
        <ele>155.600006103515625</ele>
        <time>2019-07-12T16:14:24.000Z</time>
      </trkpt>
      <trkpt lat="43.50363112986087799072265625" lon="-5.3444246761500835418701171875">
        <ele>156.8000030517578125</ele>
        <time>2019-07-12T16:14:25.000Z</time>
      </trkpt>
      <trkpt lat="43.503646552562713623046875" lon="-5.34398940391838550567626953125">
        <ele>158</ele>
        <time>2019-07-12T16:14:27.000Z</time>
      </trkpt>
      <trkpt lat="43.50367748178541660308837890625" lon="-5.34378019161522388458251953125">
        <ele>157.399993896484375</ele>
        <time>2019-07-12T16:14:28.000Z</time>
      </trkpt>
      <trkpt lat="43.50373682565987110137939453125" lon="-5.34358791075646877288818359375">
        <ele>157.399993896484375</ele>
        <time>2019-07-12T16:14:29.000Z</time>
      </trkpt>
      <trkpt lat="43.50381427444517612457275390625" lon="-5.343418680131435394287109375">
        <ele>157.1999969482421875</ele>
        <time>2019-07-12T16:14:30.000Z</time>
      </trkpt>
      <trkpt lat="43.504008986055850982666015625" lon="-5.342968069016933441162109375">
        <ele>160.399993896484375</ele>
        <time>2019-07-12T16:14:33.000Z</time>
      </trkpt>
      <trkpt lat="43.50403589196503162384033203125" lon="-5.3428114950656890869140625">
        <ele>162.1999969482421875</ele>
        <time>2019-07-12T16:14:34.000Z</time>
      </trkpt>
      <trkpt lat="43.50403748452663421630859375" lon="-5.34264586865901947021484375">
        <ele>163.8000030517578125</ele>
        <time>2019-07-12T16:14:35.000Z</time>
      </trkpt>
      <trkpt lat="43.50402541458606719970703125" lon="-5.3424726985394954681396484375">
        <ele>165.600006103515625</ele>
        <time>2019-07-12T16:14:36.000Z</time>
      </trkpt>
      <trkpt lat="43.50401175208389759063720703125" lon="-5.3422963432967662811279296875">
        <ele>168</ele>
        <time>2019-07-12T16:14:37.000Z</time>
      </trkpt>
      <trkpt lat="43.50401259027421474456787109375" lon="-5.3421273641288280487060546875">
        <ele>169.600006103515625</ele>
        <time>2019-07-12T16:14:38.000Z</time>
      </trkpt>
      <trkpt lat="43.50404083728790283203125" lon="-5.341975651681423187255859375">
        <ele>171.399993896484375</ele>
        <time>2019-07-12T16:14:39.000Z</time>
      </trkpt>
      <trkpt lat="43.50409842096269130706787109375" lon="-5.34183542244136333465576171875">
        <ele>173.1999969482421875</ele>
        <time>2019-07-12T16:14:40.000Z</time>
      </trkpt>
      <trkpt lat="43.504173941910266876220703125" lon="-5.34169930033385753631591796875">
        <ele>174.1999969482421875</ele>
        <time>2019-07-12T16:14:41.000Z</time>
      </trkpt>
      <trkpt lat="43.5044255666434764862060546875" lon="-5.34123393706977367401123046875">
        <ele>175.399993896484375</ele>
        <time>2019-07-12T16:14:44.000Z</time>
      </trkpt>
      <trkpt lat="43.50473226048052310943603515625" lon="-5.3406836651265621185302734375">
        <ele>175.600006103515625</ele>
        <time>2019-07-12T16:14:47.000Z</time>
      </trkpt>
      <trkpt lat="43.50504088215529918670654296875" lon="-5.34013741649687290191650390625">
        <ele>174.8000030517578125</ele>
        <time>2019-07-12T16:14:50.000Z</time>
      </trkpt>
      <trkpt lat="43.505124114453792572021484375" lon="-5.33997564576566219329833984375">
        <ele>174</ele>
        <time>2019-07-12T16:14:51.000Z</time>
      </trkpt>
      <trkpt lat="43.50521271117031574249267578125" lon="-5.33962662331759929656982421875">
        <ele>172.8000030517578125</ele>
        <time>2019-07-12T16:14:53.000Z</time>
      </trkpt>
      <trkpt lat="43.505164347589015960693359375" lon="-5.3392600826919078826904296875">
        <ele>171.600006103515625</ele>
        <time>2019-07-12T16:14:55.000Z</time>
      </trkpt>
      <trkpt lat="43.50503182969987392425537109375" lon="-5.3388979844748973846435546875">
        <ele>171.600006103515625</ele>
        <time>2019-07-12T16:14:57.000Z</time>
      </trkpt>
      <trkpt lat="43.50474550388753414154052734375" lon="-5.33839884214103221893310546875">
        <ele>170.8000030517578125</ele>
        <time>2019-07-12T16:15:00.000Z</time>
      </trkpt>
      <trkpt lat="43.50465665571391582489013671875" lon="-5.33821083605289459228515625">
        <ele>170.600006103515625</ele>
        <time>2019-07-12T16:15:01.000Z</time>
      </trkpt>
      <trkpt lat="43.5045392252504825592041015625" lon="-5.3377662599086761474609375">
        <ele>168.399993896484375</ele>
        <time>2019-07-12T16:15:03.000Z</time>
      </trkpt>
      <trkpt lat="43.50450217723846435546875" lon="-5.33751622773706912994384765625">
        <ele>166</ele>
        <time>2019-07-12T16:15:04.000Z</time>
      </trkpt>
      <trkpt lat="43.50446588359773159027099609375" lon="-5.33725605346262454986572265625">
        <ele>163</ele>
        <time>2019-07-12T16:15:05.000Z</time>
      </trkpt>
      <trkpt lat="43.50442816503345966339111328125" lon="-5.33699856139719486236572265625">
        <ele>160</ele>
        <time>2019-07-12T16:15:06.000Z</time>
      </trkpt>
      <trkpt lat="43.50439195521175861358642578125" lon="-5.33674878068268299102783203125">
        <ele>156.600006103515625</ele>
        <time>2019-07-12T16:15:07.000Z</time>
      </trkpt>
      <trkpt lat="43.50435859523713588714599609375" lon="-5.33650855533778667449951171875">
        <ele>154.399993896484375</ele>
        <time>2019-07-12T16:15:08.000Z</time>
      </trkpt>
      <trkpt lat="43.5043259896337985992431640625" lon="-5.33627771772444248199462890625">
        <ele>152.399993896484375</ele>
        <time>2019-07-12T16:15:09.000Z</time>
      </trkpt>
      <trkpt lat="43.50429254584014415740966796875" lon="-5.33605635166168212890625">
        <ele>151</ele>
        <time>2019-07-12T16:15:10.000Z</time>
      </trkpt>
      <trkpt lat="43.50421543233096599578857421875" lon="-5.335638932883739471435546875">
        <ele>150</ele>
        <time>2019-07-12T16:15:12.000Z</time>
      </trkpt>
      <trkpt lat="43.50405148230493068695068359375" lon="-5.3353051654994487762451171875">
        <ele>150.8000030517578125</ele>
        <time>2019-07-12T16:15:14.000Z</time>
      </trkpt>
      <trkpt lat="43.5038046352565288543701171875" lon="-5.33505865372717380523681640625">
        <ele>151.1999969482421875</ele>
        <time>2019-07-12T16:15:16.000Z</time>
      </trkpt>
      <trkpt lat="43.50340180099010467529296875" lon="-5.33467962406575679779052734375">
        <ele>152</ele>
        <time>2019-07-12T16:15:19.000Z</time>
      </trkpt>
      <trkpt lat="43.50302469916641712188720703125" lon="-5.33433211036026477813720703125">
        <ele>151.600006103515625</ele>
        <time>2019-07-12T16:15:22.000Z</time>
      </trkpt>
      <trkpt lat="43.50291724316775798797607421875" lon="-5.3342101536691188812255859375">
        <ele>151.1999969482421875</ele>
        <time>2019-07-12T16:15:23.000Z</time>
      </trkpt>
      <trkpt lat="43.502770476043224334716796875" lon="-5.33391284756362438201904296875">
        <ele>149.8000030517578125</ele>
        <time>2019-07-12T16:15:25.000Z</time>
      </trkpt>
      <trkpt lat="43.50271490402519702911376953125" lon="-5.33357170410454273223876953125">
        <ele>149</ele>
        <time>2019-07-12T16:15:27.000Z</time>
      </trkpt>
      <trkpt lat="43.50271423347294330596923828125" lon="-5.33340557478368282318115234375">
        <ele>148.600006103515625</ele>
        <time>2019-07-12T16:15:28.000Z</time>
      </trkpt>
      <trkpt lat="43.50273602642118930816650390625" lon="-5.3332458995282649993896484375">
        <ele>148.1999969482421875</ele>
        <time>2019-07-12T16:15:29.000Z</time>
      </trkpt>
      <trkpt lat="43.50283920764923095703125" lon="-5.33298178575932979583740234375">
        <ele>147.8000030517578125</ele>
        <time>2019-07-12T16:15:31.000Z</time>
      </trkpt>
      <trkpt lat="43.50295328535139560699462890625" lon="-5.3327634371817111968994140625">
        <ele>148</ele>
        <time>2019-07-12T16:15:33.000Z</time>
      </trkpt>
      <trkpt lat="43.5030096955597400665283203125" lon="-5.332518517971038818359375">
        <ele>149</ele>
        <time>2019-07-12T16:15:35.000Z</time>
      </trkpt>
      <trkpt lat="43.503051102161407470703125" lon="-5.33226680941879749298095703125">
        <ele>149.600006103515625</ele>
        <time>2019-07-12T16:15:37.000Z</time>
      </trkpt>
      <trkpt lat="43.5031015612185001373291015625" lon="-5.332152731716632843017578125">
        <ele>149.8000030517578125</ele>
        <time>2019-07-12T16:15:38.000Z</time>
      </trkpt>
      <trkpt lat="43.50317372940480709075927734375" lon="-5.3320509754121303558349609375">
        <ele>149.8000030517578125</ele>
        <time>2019-07-12T16:15:39.000Z</time>
      </trkpt>
      <trkpt lat="43.503351509571075439453125" lon="-5.33183128573000431060791015625">
        <ele>149.600006103515625</ele>
        <time>2019-07-12T16:15:41.000Z</time>
      </trkpt>
      <trkpt lat="43.5034831054508686065673828125" lon="-5.3315098397433757781982421875">
        <ele>149</ele>
        <time>2019-07-12T16:15:43.000Z</time>
      </trkpt>
      <trkpt lat="43.5035317204892635345458984375" lon="-5.3313291259109973907470703125">
        <ele>148.1999969482421875</ele>
        <time>2019-07-12T16:15:44.000Z</time>
      </trkpt>
      <trkpt lat="43.5035835206508636474609375" lon="-5.3311430476605892181396484375">
        <ele>147.1999969482421875</ele>
        <time>2019-07-12T16:15:45.000Z</time>
      </trkpt>
      <trkpt lat="43.50363926030695438385009765625" lon="-5.3309559635818004608154296875">
        <ele>145.8000030517578125</ele>
        <time>2019-07-12T16:15:46.000Z</time>
      </trkpt>
      <trkpt lat="43.503737412393093109130859375" lon="-5.33058774657547473907470703125">
        <ele>144</ele>
        <time>2019-07-12T16:15:48.000Z</time>
      </trkpt>
      <trkpt lat="43.50376565940678119659423828125" lon="-5.33041072078049182891845703125">
        <ele>143.399993896484375</ele>
        <time>2019-07-12T16:15:49.000Z</time>
      </trkpt>
      <trkpt lat="43.50377152673900127410888671875" lon="-5.33024408854544162750244140625">
        <ele>143</ele>
        <time>2019-07-12T16:15:50.000Z</time>
      </trkpt>
      <trkpt lat="43.50375778041779994964599609375" lon="-5.33009304665029048919677734375">
        <ele>142.600006103515625</ele>
        <time>2019-07-12T16:15:51.000Z</time>
      </trkpt>
      <trkpt lat="43.5037533380091190338134765625" lon="-5.32982013188302516937255859375">
        <ele>142.1999969482421875</ele>
        <time>2019-07-12T16:15:53.000Z</time>
      </trkpt>
      <trkpt lat="43.50385601632297039031982421875" lon="-5.32959147356450557708740234375">
        <ele>142.8000030517578125</ele>
        <time>2019-07-12T16:15:55.000Z</time>
      </trkpt>
      <trkpt lat="43.50402264855802059173583984375" lon="-5.329344458878040313720703125">
        <ele>143.1999969482421875</ele>
        <time>2019-07-12T16:15:57.000Z</time>
      </trkpt>
      <trkpt lat="43.5041714273393154144287109375" lon="-5.32897875644266605377197265625">
        <ele>143</ele>
        <time>2019-07-12T16:15:59.000Z</time>
      </trkpt>
      <trkpt lat="43.50430578924715518951416015625" lon="-5.32852294854819774627685546875">
        <ele>140.8000030517578125</ele>
        <time>2019-07-12T16:16:01.000Z</time>
      </trkpt>
      <trkpt lat="43.504372425377368927001953125" lon="-5.32828574068844318389892578125">
        <ele>139</ele>
        <time>2019-07-12T16:16:02.000Z</time>
      </trkpt>
      <trkpt lat="43.50443889386951923370361328125" lon="-5.3280440904200077056884765625">
        <ele>137.600006103515625</ele>
        <time>2019-07-12T16:16:03.000Z</time>
      </trkpt>
      <trkpt lat="43.5045678913593292236328125" lon="-5.327560119330883026123046875">
        <ele>136</ele>
        <time>2019-07-12T16:16:05.000Z</time>
      </trkpt>
      <trkpt lat="43.5047658719122409820556640625" lon="-5.32682963646948337554931640625">
        <ele>134.8000030517578125</ele>
        <time>2019-07-12T16:16:08.000Z</time>
      </trkpt>
      <trkpt lat="43.50490375421941280364990234375" lon="-5.3263199329376220703125">
        <ele>133.1999969482421875</ele>
        <time>2019-07-12T16:16:10.000Z</time>
      </trkpt>
      <trkpt lat="43.50497349165380001068115234375" lon="-5.3260584175586700439453125">
        <ele>131.1999969482421875</ele>
        <time>2019-07-12T16:16:11.000Z</time>
      </trkpt>
      <trkpt lat="43.505042977631092071533203125" lon="-5.32579514198005199432373046875">
        <ele>128.399993896484375</ele>
        <time>2019-07-12T16:16:12.000Z</time>
      </trkpt>
      <trkpt lat="43.50511380471289157867431640625" lon="-5.32552666962146759033203125">
        <ele>126.40000152587890625</ele>
        <time>2019-07-12T16:16:13.000Z</time>
      </trkpt>
      <trkpt lat="43.50518488325178623199462890625" lon="-5.325255095958709716796875">
        <ele>124.59999847412109375</ele>
        <time>2019-07-12T16:16:14.000Z</time>
      </trkpt>
      <trkpt lat="43.50533357821404933929443359375" lon="-5.3247070871293544769287109375">
        <ele>123.1999969482421875</ele>
        <time>2019-07-12T16:16:16.000Z</time>
      </trkpt>
      <trkpt lat="43.505559973418712615966796875" lon="-5.32387233339250087738037109375">
        <ele>122.1999969482421875</ele>
        <time>2019-07-12T16:16:19.000Z</time>
      </trkpt>
      <trkpt lat="43.5056355781853199005126953125" lon="-5.3235902823507785797119140625">
        <ele>121</ele>
        <time>2019-07-12T16:16:20.000Z</time>
      </trkpt>
      <trkpt lat="43.505791313946247100830078125" lon="-5.32302224077284336090087890625">
        <ele>119.40000152587890625</ele>
        <time>2019-07-12T16:16:22.000Z</time>
      </trkpt>
      <trkpt lat="43.50602391175925731658935546875" lon="-5.32215622253715991973876953125">
        <ele>118.59999847412109375</ele>
        <time>2019-07-12T16:16:25.000Z</time>
      </trkpt>
      <trkpt lat="43.50609918124973773956298828125" lon="-5.32187308184802532196044921875">
        <ele>118.40000152587890625</ele>
        <time>2019-07-12T16:16:26.000Z</time>
      </trkpt>
      <trkpt lat="43.506317026913166046142578125" lon="-5.32106221653521060943603515625">
        <ele>119.40000152587890625</ele>
        <time>2019-07-12T16:16:29.000Z</time>
      </trkpt>
      <trkpt lat="43.50638902746140956878662109375" lon="-5.32079433090984821319580078125">
        <ele>120.59999847412109375</ele>
        <time>2019-07-12T16:16:30.000Z</time>
      </trkpt>
      <trkpt lat="43.50659673102200031280517578125" lon="-5.31998530961573123931884765625">
        <ele>122.1999969482421875</ele>
        <time>2019-07-12T16:16:33.000Z</time>
      </trkpt>
      <trkpt lat="43.50666848011314868927001953125" lon="-5.319715999066829681396484375">
        <ele>123.59999847412109375</ele>
        <time>2019-07-12T16:16:34.000Z</time>
      </trkpt>
      <trkpt lat="43.50674190558493137359619140625" lon="-5.31945071183145046234130859375">
        <ele>124.8000030517578125</ele>
        <time>2019-07-12T16:16:35.000Z</time>
      </trkpt>
      <trkpt lat="43.5069495253264904022216796875" lon="-5.31866717152297496795654296875">
        <ele>125.59999847412109375</ele>
        <time>2019-07-12T16:16:38.000Z</time>
      </trkpt>
      <trkpt lat="43.50701808929443359375" lon="-5.31841135583817958831787109375">
        <ele>126.1999969482421875</ele>
        <time>2019-07-12T16:16:39.000Z</time>
      </trkpt>
      <trkpt lat="43.50722000934183597564697265625" lon="-5.31766285188496112823486328125">
        <ele>127.1999969482421875</ele>
        <time>2019-07-12T16:16:42.000Z</time>
      </trkpt>
      <trkpt lat="43.50728756748139858245849609375" lon="-5.3174175135791301727294921875">
        <ele>127.59999847412109375</ele>
        <time>2019-07-12T16:16:43.000Z</time>
      </trkpt>
      <trkpt lat="43.5074834525585174560546875" lon="-5.31667043454945087432861328125">
        <ele>125.40000152587890625</ele>
        <time>2019-07-12T16:16:46.000Z</time>
      </trkpt>
      <trkpt lat="43.5075429640710353851318359375" lon="-5.31641679815948009490966796875">
        <ele>124.1999969482421875</ele>
        <time>2019-07-12T16:16:47.000Z</time>
      </trkpt>
      <trkpt lat="43.5076043196022510528564453125" lon="-5.31617104075849056243896484375">
        <ele>123</ele>
        <time>2019-07-12T16:16:48.000Z</time>
      </trkpt>
      <trkpt lat="43.5076660104095935821533203125" lon="-5.315934754908084869384765625">
        <ele>121.59999847412109375</ele>
        <time>2019-07-12T16:16:49.000Z</time>
      </trkpt>
      <trkpt lat="43.507841862738132476806640625" lon="-5.315266214311122894287109375">
        <ele>121.59999847412109375</ele>
        <time>2019-07-12T16:16:52.000Z</time>
      </trkpt>
      <trkpt lat="43.5078946687281131744384765625" lon="-5.3150440938770771026611328125">
        <ele>122.59999847412109375</ele>
        <time>2019-07-12T16:16:53.000Z</time>
      </trkpt>
      <trkpt lat="43.50794252939522266387939453125" lon="-5.3148221410810947418212890625">
        <ele>124</ele>
        <time>2019-07-12T16:16:54.000Z</time>
      </trkpt>
      <trkpt lat="43.50801645778119564056396484375" lon="-5.31436122022569179534912109375">
        <ele>126</ele>
        <time>2019-07-12T16:16:56.000Z</time>
      </trkpt>
      <trkpt lat="43.50807395763695240020751953125" lon="-5.31361573375761508941650390625">
        <ele>126.59999847412109375</ele>
        <time>2019-07-12T16:16:59.000Z</time>
      </trkpt>
      <trkpt lat="43.50811502896249294281005859375" lon="-5.31280855648219585418701171875">
        <ele>127</ele>
        <time>2019-07-12T16:17:02.000Z</time>
      </trkpt>
      <trkpt lat="43.50819465704262256622314453125" lon="-5.3119558654725551605224609375">
        <ele>126.59999847412109375</ele>
        <time>2019-07-12T16:17:05.000Z</time>
      </trkpt>
      <trkpt lat="43.50833438336849212646484375" lon="-5.31108775176107883453369140625">
        <ele>125.8000030517578125</ele>
        <time>2019-07-12T16:17:08.000Z</time>
      </trkpt>
      <trkpt lat="43.50854359567165374755859375" lon="-5.31022676266729831695556640625">
        <ele>125.40000152587890625</ele>
        <time>2019-07-12T16:17:11.000Z</time>
      </trkpt>
      <trkpt lat="43.50862850435078144073486328125" lon="-5.30994630418717861175537109375">
        <ele>125</ele>
        <time>2019-07-12T16:17:12.000Z</time>
      </trkpt>
      <trkpt lat="43.50891499780118465423583984375" lon="-5.3091284818947315216064453125">
        <ele>124.59999847412109375</ele>
        <time>2019-07-12T16:17:15.000Z</time>
      </trkpt>
      <trkpt lat="43.50921993143856525421142578125" lon="-5.30833580531179904937744140625">
        <ele>125.40000152587890625</ele>
        <time>2019-07-12T16:17:18.000Z</time>
      </trkpt>
      <trkpt lat="43.50941137410700321197509765625" lon="-5.3078440390527248382568359375">
        <ele>126.8000030517578125</ele>
        <time>2019-07-12T16:17:20.000Z</time>
      </trkpt>
      <trkpt lat="43.50959192030131816864013671875" lon="-5.307380855083465576171875">
        <ele>128.399993896484375</ele>
        <time>2019-07-12T16:17:22.000Z</time>
      </trkpt>
      <trkpt lat="43.50976425223052501678466796875" lon="-5.306933261454105377197265625">
        <ele>130.1999969482421875</ele>
        <time>2019-07-12T16:17:24.000Z</time>
      </trkpt>
      <trkpt lat="43.509931974112987518310546875" lon="-5.30649497173726558685302734375">
        <ele>131.600006103515625</ele>
        <time>2019-07-12T16:17:26.000Z</time>
      </trkpt>
      <trkpt lat="43.510017134249210357666015625" lon="-5.3062799759209156036376953125">
        <ele>132.600006103515625</ele>
        <time>2019-07-12T16:17:27.000Z</time>
      </trkpt>
      <trkpt lat="43.5101812519133090972900390625" lon="-5.30584470368921756744384765625">
        <ele>134.8000030517578125</ele>
        <time>2019-07-12T16:17:29.000Z</time>
      </trkpt>
      <trkpt lat="43.5103378258645534515380859375" lon="-5.3054263629019260406494140625">
        <ele>136.600006103515625</ele>
        <time>2019-07-12T16:17:31.000Z</time>
      </trkpt>
      <trkpt lat="43.510509319603443145751953125" lon="-5.3050361014902591705322265625">
        <ele>138.399993896484375</ele>
        <time>2019-07-12T16:17:33.000Z</time>
      </trkpt>
      <trkpt lat="43.51082020439207553863525390625" lon="-5.3045217879116535186767578125">
        <ele>139.399993896484375</ele>
        <time>2019-07-12T16:17:36.000Z</time>
      </trkpt>
      <trkpt lat="43.5110100544989109039306640625" lon="-5.3042019344866275787353515625">
        <ele>139.8000030517578125</ele>
        <time>2019-07-12T16:17:38.000Z</time>
      </trkpt>
      <trkpt lat="43.51114994846284389495849609375" lon="-5.30381955206394195556640625">
        <ele>140.399993896484375</ele>
        <time>2019-07-12T16:17:40.000Z</time>
      </trkpt>
      <trkpt lat="43.51119806058704853057861328125" lon="-5.30360438860952854156494140625">
        <ele>141.1999969482421875</ele>
        <time>2019-07-12T16:17:41.000Z</time>
      </trkpt>
      <trkpt lat="43.51122924126684665679931640625" lon="-5.3033808432519435882568359375">
        <ele>141.600006103515625</ele>
        <time>2019-07-12T16:17:42.000Z</time>
      </trkpt>
      <trkpt lat="43.5112953744828701019287109375" lon="-5.3027461655437946319580078125">
        <ele>142.1999969482421875</ele>
        <time>2019-07-12T16:17:45.000Z</time>
      </trkpt>
      <trkpt lat="43.51133116520941257476806640625" lon="-5.30255883000791072845458984375">
        <ele>142</ele>
        <time>2019-07-12T16:17:46.000Z</time>
      </trkpt>
      <trkpt lat="43.5114563070237636566162109375" lon="-5.30221852473914623260498046875">
        <ele>141.8000030517578125</ele>
        <time>2019-07-12T16:17:48.000Z</time>
      </trkpt>
      <trkpt lat="43.511653952300548553466796875" lon="-5.3018959052860736846923828125">
        <ele>142.399993896484375</ele>
        <time>2019-07-12T16:17:50.000Z</time>
      </trkpt>
      <trkpt lat="43.51193164475262165069580078125" lon="-5.30164050869643688201904296875">
        <ele>142.399993896484375</ele>
        <time>2019-07-12T16:17:52.000Z</time>
      </trkpt>
      <trkpt lat="43.5122686810791492462158203125" lon="-5.3015148639678955078125">
        <ele>140.399993896484375</ele>
        <time>2019-07-12T16:17:54.000Z</time>
      </trkpt>
      <trkpt lat="43.51244084537029266357421875" lon="-5.3015093319118022918701171875">
        <ele>137.8000030517578125</ele>
        <time>2019-07-12T16:17:55.000Z</time>
      </trkpt>
      <trkpt lat="43.51260689087212085723876953125" lon="-5.301538668572902679443359375">
        <ele>136.399993896484375</ele>
        <time>2019-07-12T16:17:56.000Z</time>
      </trkpt>
      <trkpt lat="43.512772433459758758544921875" lon="-5.30160379596054553985595703125">
        <ele>134.399993896484375</ele>
        <time>2019-07-12T16:17:57.000Z</time>
      </trkpt>
      <trkpt lat="43.51293546147644519805908203125" lon="-5.30170236714184284210205078125">
        <ele>133.399993896484375</ele>
        <time>2019-07-12T16:17:58.000Z</time>
      </trkpt>
      <trkpt lat="43.51309605874121189117431640625" lon="-5.30182675458490848541259765625">
        <ele>132.1999969482421875</ele>
        <time>2019-07-12T16:17:59.000Z</time>
      </trkpt>
      <trkpt lat="43.51342362351715564727783203125" lon="-5.30209899879992008209228515625">
        <ele>130.600006103515625</ele>
        <time>2019-07-12T16:18:01.000Z</time>
      </trkpt>
      <trkpt lat="43.5139014758169651031494140625" lon="-5.3024994023144245147705078125">
        <ele>129</ele>
        <time>2019-07-12T16:18:04.000Z</time>
      </trkpt>
      <trkpt lat="43.514048494398593902587890625" lon="-5.30262328684329986572265625">
        <ele>127.8000030517578125</ele>
        <time>2019-07-12T16:18:05.000Z</time>
      </trkpt>
      <trkpt lat="43.5141916573047637939453125" lon="-5.3027428127825260162353515625">
        <ele>126.40000152587890625</ele>
        <time>2019-07-12T16:18:06.000Z</time>
      </trkpt>
      <trkpt lat="43.51433314383029937744140625" lon="-5.3028511069715023040771484375">
        <ele>124.59999847412109375</ele>
        <time>2019-07-12T16:18:07.000Z</time>
      </trkpt>
      <trkpt lat="43.5144732892513275146484375" lon="-5.30293551273643970489501953125">
        <ele>123</ele>
        <time>2019-07-12T16:18:08.000Z</time>
      </trkpt>
      <trkpt lat="43.5147473774850368499755859375" lon="-5.3029954433441162109375">
        <ele>122.59999847412109375</ele>
        <time>2019-07-12T16:18:10.000Z</time>
      </trkpt>
      <trkpt lat="43.5150162689387798309326171875" lon="-5.3029084391891956329345703125">
        <ele>123.1999969482421875</ele>
        <time>2019-07-12T16:18:12.000Z</time>
      </trkpt>
      <trkpt lat="43.51523570716381072998046875" lon="-5.302669890224933624267578125">
        <ele>122.1999969482421875</ele>
        <time>2019-07-12T16:18:14.000Z</time>
      </trkpt>
      <trkpt lat="43.515378534793853759765625" lon="-5.30231709592044353485107421875">
        <ele>122</ele>
        <time>2019-07-12T16:18:16.000Z</time>
      </trkpt>
      <trkpt lat="43.5155392996966838836669921875" lon="-5.30166707932949066162109375">
        <ele>121</ele>
        <time>2019-07-12T16:18:19.000Z</time>
      </trkpt>
      <trkpt lat="43.51564952172338962554931640625" lon="-5.3011981956660747528076171875">
        <ele>120.40000152587890625</ele>
        <time>2019-07-12T16:18:21.000Z</time>
      </trkpt>
      <trkpt lat="43.5157612524926662445068359375" lon="-5.30073777772486209869384765625">
        <ele>119.40000152587890625</ele>
        <time>2019-07-12T16:18:23.000Z</time>
      </trkpt>
      <trkpt lat="43.5158688761293888092041015625" lon="-5.30028012581169605255126953125">
        <ele>118.40000152587890625</ele>
        <time>2019-07-12T16:18:25.000Z</time>
      </trkpt>
      <trkpt lat="43.51603240706026554107666015625" lon="-5.2996016107499599456787109375">
        <ele>118.8000030517578125</ele>
        <time>2019-07-12T16:18:28.000Z</time>
      </trkpt>
      <trkpt lat="43.51620960049331188201904296875" lon="-5.2989193238317966461181640625">
        <ele>119.1999969482421875</ele>
        <time>2019-07-12T16:18:31.000Z</time>
      </trkpt>
      <trkpt lat="43.51626659743487834930419921875" lon="-5.29868756420910358428955078125">
        <ele>119.8000030517578125</ele>
        <time>2019-07-12T16:18:32.000Z</time>
      </trkpt>
      <trkpt lat="43.516384027898311614990234375" lon="-5.2982115559279918670654296875">
        <ele>121.40000152587890625</ele>
        <time>2019-07-12T16:18:34.000Z</time>
      </trkpt>
      <trkpt lat="43.51657773368060588836669921875" lon="-5.2974712662398815155029296875">
        <ele>122.1999969482421875</ele>
        <time>2019-07-12T16:18:37.000Z</time>
      </trkpt>
      <trkpt lat="43.5166433639824390411376953125" lon="-5.29721863567829132080078125">
        <ele>122.59999847412109375</ele>
        <time>2019-07-12T16:18:38.000Z</time>
      </trkpt>
      <trkpt lat="43.5168317891657352447509765625" lon="-5.2964493446052074432373046875">
        <ele>121.8000030517578125</ele>
        <time>2019-07-12T16:18:41.000Z</time>
      </trkpt>
      <trkpt lat="43.5168953239917755126953125" lon="-5.29619210399687290191650390625">
        <ele>121</ele>
        <time>2019-07-12T16:18:42.000Z</time>
      </trkpt>
      <trkpt lat="43.51702532730996608734130859375" lon="-5.295679382979869842529296875">
        <ele>120</ele>
        <time>2019-07-12T16:18:44.000Z</time>
      </trkpt>
      <trkpt lat="43.517188020050525665283203125" lon="-5.2949218265712261199951171875">
        <ele>119.59999847412109375</ele>
        <time>2019-07-12T16:18:47.000Z</time>
      </trkpt>
      <trkpt lat="43.51724610663950443267822265625" lon="-5.294152200222015380859375">
        <ele>121.40000152587890625</ele>
        <time>2019-07-12T16:18:50.000Z</time>
      </trkpt>
      <trkpt lat="43.5172411613166332244873046875" lon="-5.2938931994140148162841796875">
        <ele>122.8000030517578125</ele>
        <time>2019-07-12T16:18:51.000Z</time>
      </trkpt>
      <trkpt lat="43.517223894596099853515625" lon="-5.29363394714891910552978515625">
        <ele>124.1999969482421875</ele>
        <time>2019-07-12T16:18:52.000Z</time>
      </trkpt>
      <trkpt lat="43.51719162426888942718505859375" lon="-5.29337595216929912567138671875">
        <ele>125.59999847412109375</ele>
        <time>2019-07-12T16:18:53.000Z</time>
      </trkpt>
      <trkpt lat="43.51714451797306537628173828125" lon="-5.2931193821132183074951171875">
        <ele>127.1999969482421875</ele>
        <time>2019-07-12T16:18:54.000Z</time>
      </trkpt>
      <trkpt lat="43.51708668284118175506591796875" lon="-5.2928632311522960662841796875">
        <ele>129</ele>
        <time>2019-07-12T16:18:55.000Z</time>
      </trkpt>
      <trkpt lat="43.51693497039377689361572265625" lon="-5.2923428826034069061279296875">
        <ele>130.1999969482421875</ele>
        <time>2019-07-12T16:18:57.000Z</time>
      </trkpt>
      <trkpt lat="43.51683405227959156036376953125" lon="-5.2920874021947383880615234375">
        <ele>130.8000030517578125</ele>
        <time>2019-07-12T16:18:58.000Z</time>
      </trkpt>
      <trkpt lat="43.51647111587226390838623046875" lon="-5.291389189660549163818359375">
        <ele>131.600006103515625</ele>
        <time>2019-07-12T16:19:01.000Z</time>
      </trkpt>
      <trkpt lat="43.51624128408730030059814453125" lon="-5.2909846790134906768798828125">
        <ele>133.8000030517578125</ele>
        <time>2019-07-12T16:19:03.000Z</time>
      </trkpt>
      <trkpt lat="43.51613600738346576690673828125" lon="-5.29080002568662166595458984375">
        <ele>135.399993896484375</ele>
        <time>2019-07-12T16:19:04.000Z</time>
      </trkpt>
      <trkpt lat="43.51604062132537364959716796875" lon="-5.2906276099383831024169921875">
        <ele>137.1999969482421875</ele>
        <time>2019-07-12T16:19:05.000Z</time>
      </trkpt>
      <trkpt lat="43.51595277898013591766357421875" lon="-5.29046474955976009368896484375">
        <ele>139</ele>
        <time>2019-07-12T16:19:06.000Z</time>
      </trkpt>
      <trkpt lat="43.5158680379390716552734375" lon="-5.290306247770786285400390625">
        <ele>141.600006103515625</ele>
        <time>2019-07-12T16:19:07.000Z</time>
      </trkpt>
      <trkpt lat="43.515786230564117431640625" lon="-5.29014992527663707733154296875">
        <ele>144.600006103515625</ele>
        <time>2019-07-12T16:19:08.000Z</time>
      </trkpt>
      <trkpt lat="43.515708781778812408447265625" lon="-5.28999276459217071533203125">
        <ele>148.399993896484375</ele>
        <time>2019-07-12T16:19:09.000Z</time>
      </trkpt>
      <trkpt lat="43.5156408883631229400634765625" lon="-5.2898343466222286224365234375">
        <ele>150.1999969482421875</ele>
        <time>2019-07-12T16:19:10.000Z</time>
      </trkpt>
      <trkpt lat="43.5155848972499370574951171875" lon="-5.28967517428100109100341796875">
        <ele>151.8000030517578125</ele>
        <time>2019-07-12T16:19:11.000Z</time>
      </trkpt>
      <trkpt lat="43.51543846540153026580810546875" lon="-5.28901518322527408599853515625">
        <ele>152.1999969482421875</ele>
        <time>2019-07-12T16:19:15.000Z</time>
      </trkpt>
      <trkpt lat="43.5152757726609706878662109375" lon="-5.28820037841796875">
        <ele>151.399993896484375</ele>
        <time>2019-07-12T16:19:19.000Z</time>
      </trkpt>
      <trkpt lat="43.5151357948780059814453125" lon="-5.287497974932193756103515625">
        <ele>150.8000030517578125</ele>
        <time>2019-07-12T16:19:22.000Z</time>
      </trkpt>
      <trkpt lat="43.51508441381156444549560546875" lon="-5.28725691139698028564453125">
        <ele>150.600006103515625</ele>
        <time>2019-07-12T16:19:23.000Z</time>
      </trkpt>
      <trkpt lat="43.51494628004729747772216796875" lon="-5.286797583103179931640625">
        <ele>148.8000030517578125</ele>
        <time>2019-07-12T16:19:25.000Z</time>
      </trkpt>
      <trkpt lat="43.514863885939121246337890625" lon="-5.2865942381322383880615234375">
        <ele>147.600006103515625</ele>
        <time>2019-07-12T16:19:26.000Z</time>
      </trkpt>
      <trkpt lat="43.5146270133554935455322265625" lon="-5.286073051393032073974609375">
        <ele>148.8000030517578125</ele>
        <time>2019-07-12T16:19:29.000Z</time>
      </trkpt>
      <trkpt lat="43.5144902206957340240478515625" lon="-5.285766609013080596923828125">
        <ele>151</ele>
        <time>2019-07-12T16:19:31.000Z</time>
      </trkpt>
      <trkpt lat="43.51442995481193065643310546875" lon="-5.28560576029121875762939453125">
        <ele>152.1999969482421875</ele>
        <time>2019-07-12T16:19:32.000Z</time>
      </trkpt>
      <trkpt lat="43.51424991153180599212646484375" lon="-5.28491794131696224212646484375">
        <ele>151.399993896484375</ele>
        <time>2019-07-12T16:19:36.000Z</time>
      </trkpt>
      <trkpt lat="43.51422962732613086700439453125" lon="-5.2847404964268207550048828125">
        <ele>150</ele>
        <time>2019-07-12T16:19:37.000Z</time>
      </trkpt>
      <trkpt lat="43.51422124542295932769775390625" lon="-5.28436674736440181732177734375">
        <ele>148.8000030517578125</ele>
        <time>2019-07-12T16:19:39.000Z</time>
      </trkpt>
      <trkpt lat="43.51427170448005199432373046875" lon="-5.28381722979247570037841796875">
        <ele>147.399993896484375</ele>
        <time>2019-07-12T16:19:42.000Z</time>
      </trkpt>
      <trkpt lat="43.514400534331798553466796875" lon="-5.28332035057246685028076171875">
        <ele>146.1999969482421875</ele>
        <time>2019-07-12T16:19:45.000Z</time>
      </trkpt>
      <trkpt lat="43.5146913863718509674072265625" lon="-5.2827462740242481231689453125">
        <ele>145.399993896484375</ele>
        <time>2019-07-12T16:19:49.000Z</time>
      </trkpt>
      <trkpt lat="43.5147762112319469451904296875" lon="-5.28262264095246791839599609375">
        <ele>144.600006103515625</ele>
        <time>2019-07-12T16:19:50.000Z</time>
      </trkpt>
      <trkpt lat="43.515079133212566375732421875" lon="-5.28229708783328533172607421875">
        <ele>143.600006103515625</ele>
        <time>2019-07-12T16:19:53.000Z</time>
      </trkpt>
      <trkpt lat="43.51520611904561519622802734375" lon="-5.282205641269683837890625">
        <ele>143.600006103515625</ele>
        <time>2019-07-12T16:19:54.000Z</time>
      </trkpt>
      <trkpt lat="43.51548473350703716278076171875" lon="-5.28207262046635150909423828125">
        <ele>143.600006103515625</ele>
        <time>2019-07-12T16:19:56.000Z</time>
      </trkpt>
      <trkpt lat="43.51588069461286067962646484375" lon="-5.2819647453725337982177734375">
        <ele>142</ele>
        <time>2019-07-12T16:19:59.000Z</time>
      </trkpt>
      <trkpt lat="43.5161129571497440338134765625" lon="-5.28190984390676021575927734375">
        <ele>140.1999969482421875</ele>
        <time>2019-07-12T16:20:01.000Z</time>
      </trkpt>
      <trkpt lat="43.516341112554073333740234375" lon="-5.28183205984532833099365234375">
        <ele>139.600006103515625</ele>
        <time>2019-07-12T16:20:03.000Z</time>
      </trkpt>
      <trkpt lat="43.51656231097877025604248046875" lon="-5.28169375844299793243408203125">
        <ele>138.600006103515625</ele>
        <time>2019-07-12T16:20:05.000Z</time>
      </trkpt>
      <trkpt lat="43.516767919063568115234375" lon="-5.2814948558807373046875">
        <ele>136.600006103515625</ele>
        <time>2019-07-12T16:20:07.000Z</time>
      </trkpt>
      <trkpt lat="43.5168612934648990631103515625" lon="-5.28136870823800563812255859375">
        <ele>135.1999969482421875</ele>
        <time>2019-07-12T16:20:08.000Z</time>
      </trkpt>
      <trkpt lat="43.51694620214402675628662109375" lon="-5.28122085146605968475341796875">
        <ele>133.8000030517578125</ele>
        <time>2019-07-12T16:20:09.000Z</time>
      </trkpt>
      <trkpt lat="43.5170208849012851715087890625" lon="-5.28105723671615123748779296875">
        <ele>132.8000030517578125</ele>
        <time>2019-07-12T16:20:10.000Z</time>
      </trkpt>
      <trkpt lat="43.51708374917507171630859375" lon="-5.28088507242500782012939453125">
        <ele>131.600006103515625</ele>
        <time>2019-07-12T16:20:11.000Z</time>
      </trkpt>
      <trkpt lat="43.517132699489593505859375" lon="-5.28070804663002490997314453125">
        <ele>130.600006103515625</ele>
        <time>2019-07-12T16:20:12.000Z</time>
      </trkpt>
      <trkpt lat="43.51716664619743824005126953125" lon="-5.28053604997694492340087890625">
        <ele>129.600006103515625</ele>
        <time>2019-07-12T16:20:13.000Z</time>
      </trkpt>
      <trkpt lat="43.5171841643750667572021484375" lon="-5.28036958537995815277099609375">
        <ele>129</ele>
        <time>2019-07-12T16:20:14.000Z</time>
      </trkpt>
      <trkpt lat="43.51718676276504993438720703125" lon="-5.28020538389682769775390625">
        <ele>128.600006103515625</ele>
        <time>2019-07-12T16:20:15.000Z</time>
      </trkpt>
      <trkpt lat="43.51715348660945892333984375" lon="-5.27987689711153507232666015625">
        <ele>127.8000030517578125</ele>
        <time>2019-07-12T16:20:17.000Z</time>
      </trkpt>
      <trkpt lat="43.51711953990161418914794921875" lon="-5.2797113545238971710205078125">
        <ele>127.59999847412109375</ele>
        <time>2019-07-12T16:20:18.000Z</time>
      </trkpt>
      <trkpt lat="43.51701895706355571746826171875" lon="-5.27938705869019031524658203125">
        <ele>127.1999969482421875</ele>
        <time>2019-07-12T16:20:20.000Z</time>
      </trkpt>
      <trkpt lat="43.51695022545754909515380859375" lon="-5.2792312391102313995361328125">
        <ele>126.59999847412109375</ele>
        <time>2019-07-12T16:20:21.000Z</time>
      </trkpt>
      <trkpt lat="43.51686380803585052490234375" lon="-5.2790823765099048614501953125">
        <ele>125.8000030517578125</ele>
        <time>2019-07-12T16:20:22.000Z</time>
      </trkpt>
      <trkpt lat="43.5167687572538852691650390625" lon="-5.27894667349755764007568359375">
        <ele>124.8000030517578125</ele>
        <time>2019-07-12T16:20:23.000Z</time>
      </trkpt>
      <trkpt lat="43.51666993461549282073974609375" lon="-5.27882245369255542755126953125">
        <ele>123.59999847412109375</ele>
        <time>2019-07-12T16:20:24.000Z</time>
      </trkpt>
      <trkpt lat="43.5165709443390369415283203125" lon="-5.2787045203149318695068359375">
        <ele>122.1999969482421875</ele>
        <time>2019-07-12T16:20:25.000Z</time>
      </trkpt>
      <trkpt lat="43.51637690328061580657958984375" lon="-5.2784798853099346160888671875">
        <ele>120.59999847412109375</ele>
        <time>2019-07-12T16:20:27.000Z</time>
      </trkpt>
      <trkpt lat="43.5161067545413970947265625" lon="-5.27809976600110530853271484375">
        <ele>119.8000030517578125</ele>
        <time>2019-07-12T16:20:30.000Z</time>
      </trkpt>
      <trkpt lat="43.5160294733941555023193359375" lon="-5.27794972993433475494384765625">
        <ele>119.40000152587890625</ele>
        <time>2019-07-12T16:20:31.000Z</time>
      </trkpt>
      <trkpt lat="43.51588253863155841827392578125" lon="-5.2776123583316802978515625">
        <ele>117.1999969482421875</ele>
        <time>2019-07-12T16:20:33.000Z</time>
      </trkpt>
      <trkpt lat="43.515811376273632049560546875" lon="-5.27743742801249027252197265625">
        <ele>116</ele>
        <time>2019-07-12T16:20:34.000Z</time>
      </trkpt>
      <trkpt lat="43.51574088446795940399169921875" lon="-5.27726241387426853179931640625">
        <ele>114.8000030517578125</ele>
        <time>2019-07-12T16:20:35.000Z</time>
      </trkpt>
      <trkpt lat="43.51567265577614307403564453125" lon="-5.2770925126969814300537109375">
        <ele>113.1999969482421875</ele>
        <time>2019-07-12T16:20:36.000Z</time>
      </trkpt>
      <trkpt lat="43.51560719311237335205078125" lon="-5.276933424174785614013671875">
        <ele>111.59999847412109375</ele>
        <time>2019-07-12T16:20:37.000Z</time>
      </trkpt>
      <trkpt lat="43.51554575376212596893310546875" lon="-5.276780538260936737060546875">
        <ele>110.59999847412109375</ele>
        <time>2019-07-12T16:20:38.000Z</time>
      </trkpt>
      <trkpt lat="43.515495546162128448486328125" lon="-5.27662589214742183685302734375">
        <ele>110</ele>
        <time>2019-07-12T16:20:39.000Z</time>
      </trkpt>
      <trkpt lat="43.51543444208800792694091796875" lon="-5.27631081640720367431640625">
        <ele>109.1999969482421875</ele>
        <time>2019-07-12T16:20:41.000Z</time>
      </trkpt>
      <trkpt lat="43.51537560112774372100830078125" lon="-5.2758208103477954864501953125">
        <ele>107.8000030517578125</ele>
        <time>2019-07-12T16:20:44.000Z</time>
      </trkpt>
      <trkpt lat="43.5153423249721527099609375" lon="-5.275520570576190948486328125">
        <ele>106.59999847412109375</ele>
        <time>2019-07-12T16:20:46.000Z</time>
      </trkpt>
      <trkpt lat="43.5152886807918548583984375" lon="-5.27518286369740962982177734375">
        <ele>106.59999847412109375</ele>
        <time>2019-07-12T16:20:49.000Z</time>
      </trkpt>
      <trkpt lat="43.51509220898151397705078125" lon="-5.27472160756587982177734375">
        <ele>106.59999847412109375</ele>
        <time>2019-07-12T16:20:57.000Z</time>
      </trkpt>
      <trkpt lat="43.515104949474334716796875" lon="-5.27463854290544986724853515625">
        <ele>106.59999847412109375</ele>
        <time>2019-07-12T16:20:59.000Z</time>
      </trkpt>
      <trkpt lat="43.51515901274979114532470703125" lon="-5.27450962923467159271240234375">
        <ele>106</ele>
        <time>2019-07-12T16:21:01.000Z</time>
      </trkpt>
      <trkpt lat="43.51517401635646820068359375" lon="-5.274420864880084991455078125">
        <ele>105.40000152587890625</ele>
        <time>2019-07-12T16:21:02.000Z</time>
      </trkpt>
      <trkpt lat="43.5151788778603076934814453125" lon="-5.2743214555084705352783203125">
        <ele>105</ele>
        <time>2019-07-12T16:21:03.000Z</time>
      </trkpt>
      <trkpt lat="43.51518030278384685516357421875" lon="-5.274217016994953155517578125">
        <ele>104.1999969482421875</ele>
        <time>2019-07-12T16:21:04.000Z</time>
      </trkpt>
      <trkpt lat="43.5151679813861846923828125" lon="-5.2739881910383701324462890625">
        <ele>102.40000152587890625</ele>
        <time>2019-07-12T16:21:06.000Z</time>
      </trkpt>
      <trkpt lat="43.51515733636915683746337890625" lon="-5.2738708443939685821533203125">
        <ele>101.1999969482421875</ele>
        <time>2019-07-12T16:21:07.000Z</time>
      </trkpt>
      <trkpt lat="43.5151255689561367034912109375" lon="-5.2736327983438968658447265625">
        <ele>99.8000030517578125</ele>
        <time>2019-07-12T16:21:09.000Z</time>
      </trkpt>
      <trkpt lat="43.51510218344628810882568359375" lon="-5.2733947522938251495361328125">
        <ele>99</ele>
        <time>2019-07-12T16:21:11.000Z</time>
      </trkpt>
      <trkpt lat="43.515114672482013702392578125" lon="-5.27316131629049777984619140625">
        <ele>98.59999847412109375</ele>
        <time>2019-07-12T16:21:13.000Z</time>
      </trkpt>
      <trkpt lat="43.5151436738669872283935546875" lon="-5.272804163396358489990234375">
        <ele>98.59999847412109375</ele>
        <time>2019-07-12T16:21:16.000Z</time>
      </trkpt>
      <trkpt lat="43.5151183605194091796875" lon="-5.27249327860772609710693359375">
        <ele>98.8000030517578125</ele>
        <time>2019-07-12T16:21:20.000Z</time>
      </trkpt>
      <trkpt lat="43.51517762057483196258544921875" lon="-5.2724576555192470550537109375">
        <ele>100.1999969482421875</ele>
        <time>2019-07-12T16:21:24.000Z</time>
      </trkpt>
      <trkpt lat="43.5151745192706584930419921875" lon="-5.27246427722275257110595703125">
        <ele>101.1999969482421875</ele>
        <time>2019-07-12T16:21:28.000Z</time>
      </trkpt>
      <trkpt lat="43.51517376489937305450439453125" lon="-5.2724700607359409332275390625">
        <ele>101.40000152587890625</ele>
        <time>2019-07-12T16:21:56.000Z</time>
      </trkpt>
    </trkseg>
  </trk>
</gpx>
